<?xml version="1.0" encoding="UTF-8" standalone="no" ?>
<gpx xmlns="http://www.topografix.com/GPX/1/1" xmlns:xsi="http://www.w3.org/2001/XMLSchema-instance" xsi:schemaLocation="http://www.topografix.com/GPX/1/1 http://www.topografix.com/GPX/1/1/gpx.xsd" version="1.1" creator="VisuGPX - https://www.visugpx.com">
  <metadata>
    <name>tour bpf 69</name>
  </metadata>
  <wpt lat="46.29197" lon="4.69488">
    <ele>523</ele>
    <name><![CDATA[FR-69-0590]]></name>
    <desc><![CDATA[D23, GR76a, GR76d]]></desc>
  </wpt>
  <wpt lat="46.54966" lon="4.87274">
    <ele>307.5</ele>
    <name><![CDATA[FR-71-0303]]></name>
    <desc><![CDATA[D14]]></desc>
  </wpt>
  <wpt lat="45.91551" lon="4.34583">
    <ele>759.5</ele>
    <name><![CDATA[FR-42-0759]]></name>
    <desc><![CDATA[N7, GR7]]></desc>
  </wpt>
  <wpt lat="45.75825" lon="4.81318">
    <ele>265.6</ele>
    <name><![CDATA[FR-69-0266]]></name>
    <desc><![CDATA[Chemin de Choulans]]></desc>
  </wpt>
  <wpt lat="46.17913" lon="4.64237">
    <ele>477.8</ele>
    <name><![CDATA[FR-69-0445]]></name>
    <desc><![CDATA[D18/D26]]></desc>
  </wpt>
  <wpt lat="46.1925" lon="4.64835">
    <ele>542</ele>
    <name><![CDATA[FR-69-0541]]></name>
    <desc><![CDATA[D26/D86/D18e]]></desc>
  </wpt>
  <wpt lat="46.29197" lon="4.69488">
    <ele>523</ele>
    <name><![CDATA[FR-69-0590]]></name>
    <desc><![CDATA[D23, GR76a, GR76d]]></desc>
  </wpt>
  <wpt lat="45.91617" lon="4.4393">
    <ele>598.2</ele>
    <name><![CDATA[FR-69-0598a]]></name>
    <desc><![CDATA[D56E/CV]]></desc>
  </wpt>
  <wpt lat="46.26105" lon="4.66028">
    <ele>612.5</ele>
    <name><![CDATA[FR-69-0613]]></name>
    <desc><![CDATA[D68/D137]]></desc>
  </wpt>
  <wpt lat="46.25468" lon="4.64336">
    <ele>609.6</ele>
    <name><![CDATA[FR-69-0615]]></name>
    <desc><![CDATA[D17/D644]]></desc>
  </wpt>
  <wpt lat="45.93039" lon="4.4264">
    <ele>622.6</ele>
    <name><![CDATA[FR-69-0623]]></name>
    <desc><![CDATA[D56/D82]]></desc>
  </wpt>
  <wpt lat="45.92717" lon="4.43084">
    <ele>638.4</ele>
    <name><![CDATA[FR-69-0635]]></name>
    <desc><![CDATA[CV]]></desc>
  </wpt>
  <wpt lat="46.2582" lon="4.62244">
    <ele>646.9</ele>
    <name><![CDATA[FR-69-0638]]></name>
    <desc><![CDATA[D17/D23, GR76a]]></desc>
  </wpt>
  <wpt lat="46.23965" lon="4.62245">
    <ele>663.3</ele>
    <name><![CDATA[FR-69-0680b]]></name>
    <desc><![CDATA[D32]]></desc>
  </wpt>
  <wpt lat="45.92694" lon="4.37858">
    <ele>723</ele>
    <name><![CDATA[FR-69-0723]]></name>
    <desc><![CDATA[D8/D121, GR7]]></desc>
  </wpt>
  <wpt lat="45.72084" lon="4.56836">
    <ele>811.1</ele>
    <name><![CDATA[FR-69-0811]]></name>
    <desc><![CDATA[D25, GRP Tour des Monts du Lyonnais]]></desc>
  </wpt>
  <wpt lat="45.91551" lon="4.34583">
    <ele>759.5</ele>
    <name><![CDATA[FR-42-0759]]></name>
    <desc><![CDATA[N7, GR7]]></desc>
  </wpt>
  <wpt lat="45.85501" lon="4.36399">
    <ele>864.6</ele>
    <name><![CDATA[FR-42-0865]]></name>
    <desc><![CDATA[D1, GR7]]></desc>
  </wpt>
  <trk>
    <name><![CDATA[tour bpf 69 jour 1]]></name>
    <extensions>
      <line xmlns="http://www.topografix.com/GPX/gpx_style/0/2">
        <color>00FFFF</color>
        <width>4</width>
      </line>
    </extensions>
    <trkseg>
      <trkpt lat="46.67043" lon="5.55154">
        <ele>262.8</ele>
        <time>2022-06-25T06:02:58Z</time>
      </trkpt>
      <trkpt lat="46.67042" lon="5.55154">
        <ele>262.8</ele>
        <time>2022-06-25T06:02:59Z</time>
      </trkpt>
      <trkpt lat="46.67042" lon="5.55153">
        <ele>262.8</ele>
        <time>2022-06-25T06:03:00Z</time>
      </trkpt>
      <trkpt lat="46.67038" lon="5.55152">
        <ele>263</ele>
        <time>2022-06-25T06:03:13Z</time>
      </trkpt>
      <trkpt lat="46.67037" lon="5.55152">
        <ele>263</ele>
        <time>2022-06-25T06:03:14Z</time>
      </trkpt>
      <trkpt lat="46.67035" lon="5.55152">
        <ele>263</ele>
        <time>2022-06-25T06:03:15Z</time>
      </trkpt>
      <trkpt lat="46.67033" lon="5.55152">
        <ele>263</ele>
        <time>2022-06-25T06:03:16Z</time>
      </trkpt>
      <trkpt lat="46.6703" lon="5.55152">
        <ele>263.2</ele>
        <time>2022-06-25T06:03:17Z</time>
      </trkpt>
      <trkpt lat="46.67028" lon="5.55151">
        <ele>263.2</ele>
        <time>2022-06-25T06:03:18Z</time>
      </trkpt>
      <trkpt lat="46.67025" lon="5.55151">
        <ele>263.2</ele>
        <time>2022-06-25T06:03:19Z</time>
      </trkpt>
      <trkpt lat="46.67022" lon="5.5515">
        <ele>263.4</ele>
        <time>2022-06-25T06:03:20Z</time>
      </trkpt>
      <trkpt lat="46.6702" lon="5.5515">
        <ele>263.4</ele>
        <time>2022-06-25T06:03:21Z</time>
      </trkpt>
      <trkpt lat="46.67016" lon="5.55149">
        <ele>263.4</ele>
        <time>2022-06-25T06:03:22Z</time>
      </trkpt>
      <trkpt lat="46.67014" lon="5.55149">
        <ele>263.4</ele>
        <time>2022-06-25T06:03:23Z</time>
      </trkpt>
      <trkpt lat="46.67011" lon="5.55149">
        <ele>263.8</ele>
        <time>2022-06-25T06:03:24Z</time>
      </trkpt>
      <trkpt lat="46.67008" lon="5.55148">
        <ele>263.8</ele>
        <time>2022-06-25T06:03:25Z</time>
      </trkpt>
      <trkpt lat="46.67004" lon="5.55148">
        <ele>264.2</ele>
        <time>2022-06-25T06:03:26Z</time>
      </trkpt>
      <trkpt lat="46.67" lon="5.55147">
        <ele>264.2</ele>
        <time>2022-06-25T06:03:27Z</time>
      </trkpt>
      <trkpt lat="46.66997" lon="5.55147">
        <ele>264.4</ele>
        <time>2022-06-25T06:03:28Z</time>
      </trkpt>
      <trkpt lat="46.66994" lon="5.55147">
        <ele>264.4</ele>
        <time>2022-06-25T06:03:29Z</time>
      </trkpt>
      <trkpt lat="46.6699" lon="5.55147">
        <ele>264.6</ele>
        <time>2022-06-25T06:03:30Z</time>
      </trkpt>
      <trkpt lat="46.66987" lon="5.55147">
        <ele>264.6</ele>
        <time>2022-06-25T06:03:31Z</time>
      </trkpt>
      <trkpt lat="46.66983" lon="5.55147">
        <ele>265</ele>
        <time>2022-06-25T06:03:32Z</time>
      </trkpt>
      <trkpt lat="46.6698" lon="5.55146">
        <ele>265</ele>
        <time>2022-06-25T06:03:33Z</time>
      </trkpt>
      <trkpt lat="46.66976" lon="5.55146">
        <ele>265.2</ele>
        <time>2022-06-25T06:03:34Z</time>
      </trkpt>
      <trkpt lat="46.66973" lon="5.55144">
        <ele>265.4</ele>
        <time>2022-06-25T06:03:35Z</time>
      </trkpt>
      <trkpt lat="46.66969" lon="5.55143">
        <ele>265.4</ele>
        <time>2022-06-25T06:03:36Z</time>
      </trkpt>
      <trkpt lat="46.66965" lon="5.55143">
        <ele>265.8</ele>
        <time>2022-06-25T06:03:37Z</time>
      </trkpt>
      <trkpt lat="46.66961" lon="5.55142">
        <ele>265.8</ele>
        <time>2022-06-25T06:03:38Z</time>
      </trkpt>
      <trkpt lat="46.66957" lon="5.55141">
        <ele>265.8</ele>
        <time>2022-06-25T06:03:39Z</time>
      </trkpt>
      <trkpt lat="46.66953" lon="5.5514">
        <ele>266</ele>
        <time>2022-06-25T06:03:40Z</time>
      </trkpt>
      <trkpt lat="46.66949" lon="5.55139">
        <ele>266</ele>
        <time>2022-06-25T06:03:41Z</time>
      </trkpt>
      <trkpt lat="46.66945" lon="5.55138">
        <ele>266.2</ele>
        <time>2022-06-25T06:03:42Z</time>
      </trkpt>
      <trkpt lat="46.66941" lon="5.55137">
        <ele>266.2</ele>
        <time>2022-06-25T06:03:43Z</time>
      </trkpt>
      <trkpt lat="46.66938" lon="5.55137">
        <ele>266.2</ele>
        <time>2022-06-25T06:03:44Z</time>
      </trkpt>
      <trkpt lat="46.66935" lon="5.55136">
        <ele>266.4</ele>
        <time>2022-06-25T06:03:45Z</time>
      </trkpt>
      <trkpt lat="46.66932" lon="5.55136">
        <ele>266.4</ele>
        <time>2022-06-25T06:03:46Z</time>
      </trkpt>
      <trkpt lat="46.66928" lon="5.55136">
        <ele>266.8</ele>
        <time>2022-06-25T06:03:47Z</time>
      </trkpt>
      <trkpt lat="46.66926" lon="5.55137">
        <ele>266.8</ele>
        <time>2022-06-25T06:03:48Z</time>
      </trkpt>
      <trkpt lat="46.66923" lon="5.55138">
        <ele>266.8</ele>
        <time>2022-06-25T06:03:49Z</time>
      </trkpt>
      <trkpt lat="46.6692" lon="5.55137">
        <ele>266.8</ele>
        <time>2022-06-25T06:03:50Z</time>
      </trkpt>
      <trkpt lat="46.66918" lon="5.55135">
        <ele>267</ele>
        <time>2022-06-25T06:03:51Z</time>
      </trkpt>
      <trkpt lat="46.66915" lon="5.55133">
        <ele>267</ele>
        <time>2022-06-25T06:03:52Z</time>
      </trkpt>
      <trkpt lat="46.66914" lon="5.5513">
        <ele>267.4</ele>
        <time>2022-06-25T06:03:53Z</time>
      </trkpt>
      <trkpt lat="46.66913" lon="5.55125">
        <ele>267.4</ele>
        <time>2022-06-25T06:03:54Z</time>
      </trkpt>
      <trkpt lat="46.66912" lon="5.55121">
        <ele>267.4</ele>
        <time>2022-06-25T06:03:55Z</time>
      </trkpt>
      <trkpt lat="46.66911" lon="5.55116">
        <ele>267.6</ele>
        <time>2022-06-25T06:03:56Z</time>
      </trkpt>
      <trkpt lat="46.6691" lon="5.55111">
        <ele>267.6</ele>
        <time>2022-06-25T06:03:57Z</time>
      </trkpt>
      <trkpt lat="46.66908" lon="5.55105">
        <ele>267.6</ele>
        <time>2022-06-25T06:03:58Z</time>
      </trkpt>
      <trkpt lat="46.66907" lon="5.551">
        <ele>267.6</ele>
        <time>2022-06-25T06:03:59Z</time>
      </trkpt>
      <trkpt lat="46.66906" lon="5.55094">
        <ele>267.6</ele>
        <time>2022-06-25T06:04:00Z</time>
      </trkpt>
      <trkpt lat="46.66905" lon="5.55089">
        <ele>267.6</ele>
        <time>2022-06-25T06:04:01Z</time>
      </trkpt>
      <trkpt lat="46.66905" lon="5.55083">
        <ele>267.6</ele>
        <time>2022-06-25T06:04:02Z</time>
      </trkpt>
      <trkpt lat="46.66905" lon="5.55078">
        <ele>267.8</ele>
        <time>2022-06-25T06:04:03Z</time>
      </trkpt>
      <trkpt lat="46.66904" lon="5.55072">
        <ele>267.8</ele>
        <time>2022-06-25T06:04:04Z</time>
      </trkpt>
      <trkpt lat="46.66904" lon="5.55065">
        <ele>267.8</ele>
        <time>2022-06-25T06:04:05Z</time>
      </trkpt>
      <trkpt lat="46.66904" lon="5.55059">
        <ele>267.8</ele>
        <time>2022-06-25T06:04:06Z</time>
      </trkpt>
      <trkpt lat="46.66904" lon="5.55052">
        <ele>267.8</ele>
        <time>2022-06-25T06:04:07Z</time>
      </trkpt>
      <trkpt lat="46.66904" lon="5.55046">
        <ele>267.8</ele>
        <time>2022-06-25T06:04:08Z</time>
      </trkpt>
      <trkpt lat="46.66904" lon="5.55039">
        <ele>267.8</ele>
        <time>2022-06-25T06:04:09Z</time>
      </trkpt>
      <trkpt lat="46.66904" lon="5.55032">
        <ele>267.8</ele>
        <time>2022-06-25T06:04:10Z</time>
      </trkpt>
      <trkpt lat="46.66905" lon="5.55025">
        <ele>267.8</ele>
        <time>2022-06-25T06:04:11Z</time>
      </trkpt>
      <trkpt lat="46.66906" lon="5.55018">
        <ele>267.8</ele>
        <time>2022-06-25T06:04:12Z</time>
      </trkpt>
      <trkpt lat="46.66906" lon="5.55011">
        <ele>267.8</ele>
        <time>2022-06-25T06:04:13Z</time>
      </trkpt>
      <trkpt lat="46.66907" lon="5.55003">
        <ele>267.8</ele>
        <time>2022-06-25T06:04:14Z</time>
      </trkpt>
      <trkpt lat="46.66908" lon="5.54996">
        <ele>267.8</ele>
        <time>2022-06-25T06:04:15Z</time>
      </trkpt>
      <trkpt lat="46.66909" lon="5.54988">
        <ele>267.8</ele>
        <time>2022-06-25T06:04:16Z</time>
      </trkpt>
      <trkpt lat="46.66909" lon="5.5498">
        <ele>267.8</ele>
        <time>2022-06-25T06:04:17Z</time>
      </trkpt>
      <trkpt lat="46.6691" lon="5.54973">
        <ele>268.2</ele>
        <time>2022-06-25T06:04:18Z</time>
      </trkpt>
      <trkpt lat="46.66911" lon="5.54965">
        <ele>268.2</ele>
        <time>2022-06-25T06:04:19Z</time>
      </trkpt>
      <trkpt lat="46.66912" lon="5.54958">
        <ele>268.2</ele>
        <time>2022-06-25T06:04:20Z</time>
      </trkpt>
      <trkpt lat="46.66912" lon="5.5495">
        <ele>268.2</ele>
        <time>2022-06-25T06:04:21Z</time>
      </trkpt>
      <trkpt lat="46.66913" lon="5.54942">
        <ele>268.2</ele>
        <time>2022-06-25T06:04:22Z</time>
      </trkpt>
      <trkpt lat="46.66914" lon="5.54935">
        <ele>268.2</ele>
        <time>2022-06-25T06:04:23Z</time>
      </trkpt>
      <trkpt lat="46.66915" lon="5.54927">
        <ele>268.2</ele>
        <time>2022-06-25T06:04:24Z</time>
      </trkpt>
      <trkpt lat="46.66915" lon="5.54919">
        <ele>268.2</ele>
        <time>2022-06-25T06:04:25Z</time>
      </trkpt>
      <trkpt lat="46.66916" lon="5.54911">
        <ele>268.2</ele>
        <time>2022-06-25T06:04:26Z</time>
      </trkpt>
      <trkpt lat="46.66917" lon="5.54904">
        <ele>268.2</ele>
        <time>2022-06-25T06:04:27Z</time>
      </trkpt>
      <trkpt lat="46.66918" lon="5.54896">
        <ele>268.2</ele>
        <time>2022-06-25T06:04:28Z</time>
      </trkpt>
      <trkpt lat="46.66919" lon="5.54887">
        <ele>268</ele>
        <time>2022-06-25T06:04:29Z</time>
      </trkpt>
      <trkpt lat="46.66919" lon="5.54879">
        <ele>268</ele>
        <time>2022-06-25T06:04:30Z</time>
      </trkpt>
      <trkpt lat="46.6692" lon="5.54871">
        <ele>268</ele>
        <time>2022-06-25T06:04:31Z</time>
      </trkpt>
      <trkpt lat="46.66921" lon="5.54862">
        <ele>267.8</ele>
        <time>2022-06-25T06:04:32Z</time>
      </trkpt>
      <trkpt lat="46.66922" lon="5.54853">
        <ele>267.8</ele>
        <time>2022-06-25T06:04:33Z</time>
      </trkpt>
      <trkpt lat="46.66923" lon="5.54845">
        <ele>267.8</ele>
        <time>2022-06-25T06:04:34Z</time>
      </trkpt>
      <trkpt lat="46.66924" lon="5.54837">
        <ele>267.4</ele>
        <time>2022-06-25T06:04:35Z</time>
      </trkpt>
      <trkpt lat="46.66925" lon="5.54829">
        <ele>267.4</ele>
        <time>2022-06-25T06:04:36Z</time>
      </trkpt>
      <trkpt lat="46.66926" lon="5.54821">
        <ele>267.4</ele>
        <time>2022-06-25T06:04:37Z</time>
      </trkpt>
      <trkpt lat="46.66926" lon="5.54814">
        <ele>267.2</ele>
        <time>2022-06-25T06:04:38Z</time>
      </trkpt>
      <trkpt lat="46.66927" lon="5.54807">
        <ele>267.2</ele>
        <time>2022-06-25T06:04:39Z</time>
      </trkpt>
      <trkpt lat="46.66928" lon="5.548">
        <ele>267.2</ele>
        <time>2022-06-25T06:04:40Z</time>
      </trkpt>
      <trkpt lat="46.66929" lon="5.54793">
        <ele>267</ele>
        <time>2022-06-25T06:04:41Z</time>
      </trkpt>
      <trkpt lat="46.66929" lon="5.54787">
        <ele>267</ele>
        <time>2022-06-25T06:04:42Z</time>
      </trkpt>
      <trkpt lat="46.6693" lon="5.5478">
        <ele>266.6</ele>
        <time>2022-06-25T06:04:43Z</time>
      </trkpt>
      <trkpt lat="46.66931" lon="5.54773">
        <ele>266.6</ele>
        <time>2022-06-25T06:04:44Z</time>
      </trkpt>
      <trkpt lat="46.66932" lon="5.54766">
        <ele>266.6</ele>
        <time>2022-06-25T06:04:45Z</time>
      </trkpt>
      <trkpt lat="46.66933" lon="5.54758">
        <ele>266.6</ele>
        <time>2022-06-25T06:04:46Z</time>
      </trkpt>
      <trkpt lat="46.66935" lon="5.54751">
        <ele>266.4</ele>
        <time>2022-06-25T06:04:47Z</time>
      </trkpt>
      <trkpt lat="46.66937" lon="5.54743">
        <ele>266.4</ele>
        <time>2022-06-25T06:04:48Z</time>
      </trkpt>
      <trkpt lat="46.66939" lon="5.54735">
        <ele>266.4</ele>
        <time>2022-06-25T06:04:49Z</time>
      </trkpt>
      <trkpt lat="46.66942" lon="5.54728">
        <ele>266.2</ele>
        <time>2022-06-25T06:04:50Z</time>
      </trkpt>
      <trkpt lat="46.66946" lon="5.5472">
        <ele>265.8</ele>
        <time>2022-06-25T06:04:51Z</time>
      </trkpt>
      <trkpt lat="46.6695" lon="5.54713">
        <ele>265.8</ele>
        <time>2022-06-25T06:04:52Z</time>
      </trkpt>
      <trkpt lat="46.66955" lon="5.54706">
        <ele>265.4</ele>
        <time>2022-06-25T06:04:53Z</time>
      </trkpt>
      <trkpt lat="46.6696" lon="5.54699">
        <ele>265.4</ele>
        <time>2022-06-25T06:04:54Z</time>
      </trkpt>
      <trkpt lat="46.66965" lon="5.54692">
        <ele>265.2</ele>
        <time>2022-06-25T06:04:55Z</time>
      </trkpt>
      <trkpt lat="46.6697" lon="5.54684">
        <ele>265</ele>
        <time>2022-06-25T06:04:56Z</time>
      </trkpt>
      <trkpt lat="46.66974" lon="5.54677">
        <ele>264.8</ele>
        <time>2022-06-25T06:04:57Z</time>
      </trkpt>
      <trkpt lat="46.66979" lon="5.54669">
        <ele>264.4</ele>
        <time>2022-06-25T06:04:58Z</time>
      </trkpt>
      <trkpt lat="46.66984" lon="5.54661">
        <ele>264.2</ele>
        <time>2022-06-25T06:04:59Z</time>
      </trkpt>
      <trkpt lat="46.66989" lon="5.54653">
        <ele>264.2</ele>
        <time>2022-06-25T06:05:00Z</time>
      </trkpt>
      <trkpt lat="46.66994" lon="5.54645">
        <ele>263.8</ele>
        <time>2022-06-25T06:05:01Z</time>
      </trkpt>
      <trkpt lat="46.67" lon="5.54637">
        <ele>263.8</ele>
        <time>2022-06-25T06:05:02Z</time>
      </trkpt>
      <trkpt lat="46.67005" lon="5.54629">
        <ele>263.4</ele>
        <time>2022-06-25T06:05:03Z</time>
      </trkpt>
      <trkpt lat="46.6701" lon="5.54621">
        <ele>263.2</ele>
        <time>2022-06-25T06:05:04Z</time>
      </trkpt>
      <trkpt lat="46.67016" lon="5.54613">
        <ele>262.8</ele>
        <time>2022-06-25T06:05:05Z</time>
      </trkpt>
      <trkpt lat="46.67022" lon="5.54605">
        <ele>262.8</ele>
        <time>2022-06-25T06:05:06Z</time>
      </trkpt>
      <trkpt lat="46.67028" lon="5.54597">
        <ele>262.4</ele>
        <time>2022-06-25T06:05:07Z</time>
      </trkpt>
      <trkpt lat="46.67034" lon="5.54588">
        <ele>262.2</ele>
        <time>2022-06-25T06:05:08Z</time>
      </trkpt>
      <trkpt lat="46.67039" lon="5.5458">
        <ele>262</ele>
        <time>2022-06-25T06:05:09Z</time>
      </trkpt>
      <trkpt lat="46.67045" lon="5.54573">
        <ele>261.6</ele>
        <time>2022-06-25T06:05:10Z</time>
      </trkpt>
      <trkpt lat="46.6705" lon="5.54566">
        <ele>261.4</ele>
        <time>2022-06-25T06:05:11Z</time>
      </trkpt>
      <trkpt lat="46.67055" lon="5.54559">
        <ele>261</ele>
        <time>2022-06-25T06:05:12Z</time>
      </trkpt>
      <trkpt lat="46.67059" lon="5.54552">
        <ele>260.8</ele>
        <time>2022-06-25T06:05:13Z</time>
      </trkpt>
      <trkpt lat="46.67062" lon="5.54545">
        <ele>260.6</ele>
        <time>2022-06-25T06:05:14Z</time>
      </trkpt>
      <trkpt lat="46.67063" lon="5.54538">
        <ele>260.4</ele>
        <time>2022-06-25T06:05:15Z</time>
      </trkpt>
      <trkpt lat="46.67063" lon="5.54531">
        <ele>260.2</ele>
        <time>2022-06-25T06:05:16Z</time>
      </trkpt>
      <trkpt lat="46.67061" lon="5.54524">
        <ele>260.2</ele>
        <time>2022-06-25T06:05:17Z</time>
      </trkpt>
      <trkpt lat="46.67058" lon="5.54519">
        <ele>260.2</ele>
        <time>2022-06-25T06:05:18Z</time>
      </trkpt>
      <trkpt lat="46.67055" lon="5.54513">
        <ele>260.2</ele>
        <time>2022-06-25T06:05:19Z</time>
      </trkpt>
      <trkpt lat="46.67053" lon="5.54508">
        <ele>260.2</ele>
        <time>2022-06-25T06:05:20Z</time>
      </trkpt>
      <trkpt lat="46.6705" lon="5.54503">
        <ele>260.4</ele>
        <time>2022-06-25T06:05:21Z</time>
      </trkpt>
      <trkpt lat="46.67047" lon="5.54498">
        <ele>260.4</ele>
        <time>2022-06-25T06:05:22Z</time>
      </trkpt>
      <trkpt lat="46.67045" lon="5.54493">
        <ele>260.6</ele>
        <time>2022-06-25T06:05:23Z</time>
      </trkpt>
      <trkpt lat="46.67042" lon="5.54487">
        <ele>260.6</ele>
        <time>2022-06-25T06:05:24Z</time>
      </trkpt>
      <trkpt lat="46.6704" lon="5.54482">
        <ele>261.2</ele>
        <time>2022-06-25T06:05:25Z</time>
      </trkpt>
      <trkpt lat="46.67037" lon="5.54477">
        <ele>261.2</ele>
        <time>2022-06-25T06:05:26Z</time>
      </trkpt>
      <trkpt lat="46.67035" lon="5.54471">
        <ele>261.6</ele>
        <time>2022-06-25T06:05:27Z</time>
      </trkpt>
      <trkpt lat="46.67032" lon="5.54466">
        <ele>261.8</ele>
        <time>2022-06-25T06:05:28Z</time>
      </trkpt>
      <trkpt lat="46.6703" lon="5.5446">
        <ele>262</ele>
        <time>2022-06-25T06:05:29Z</time>
      </trkpt>
      <trkpt lat="46.67028" lon="5.54455">
        <ele>262.2</ele>
        <time>2022-06-25T06:05:30Z</time>
      </trkpt>
      <trkpt lat="46.67026" lon="5.5445">
        <ele>262.4</ele>
        <time>2022-06-25T06:05:31Z</time>
      </trkpt>
      <trkpt lat="46.67023" lon="5.54444">
        <ele>262.8</ele>
        <time>2022-06-25T06:05:32Z</time>
      </trkpt>
      <trkpt lat="46.67021" lon="5.54439">
        <ele>263</ele>
        <time>2022-06-25T06:05:33Z</time>
      </trkpt>
      <trkpt lat="46.67018" lon="5.54434">
        <ele>263.4</ele>
        <time>2022-06-25T06:05:34Z</time>
      </trkpt>
      <trkpt lat="46.67017" lon="5.5443">
        <ele>263.6</ele>
        <time>2022-06-25T06:05:35Z</time>
      </trkpt>
      <trkpt lat="46.67016" lon="5.54425">
        <ele>263.8</ele>
        <time>2022-06-25T06:05:36Z</time>
      </trkpt>
      <trkpt lat="46.67016" lon="5.5442">
        <ele>264.2</ele>
        <time>2022-06-25T06:05:37Z</time>
      </trkpt>
      <trkpt lat="46.67017" lon="5.54416">
        <ele>264.4</ele>
        <time>2022-06-25T06:05:38Z</time>
      </trkpt>
      <trkpt lat="46.67018" lon="5.54411">
        <ele>264.6</ele>
        <time>2022-06-25T06:05:39Z</time>
      </trkpt>
      <trkpt lat="46.67019" lon="5.54407">
        <ele>264.6</ele>
        <time>2022-06-25T06:05:40Z</time>
      </trkpt>
      <trkpt lat="46.67021" lon="5.54402">
        <ele>265</ele>
        <time>2022-06-25T06:05:41Z</time>
      </trkpt>
      <trkpt lat="46.67023" lon="5.54397">
        <ele>265</ele>
        <time>2022-06-25T06:05:42Z</time>
      </trkpt>
      <trkpt lat="46.67025" lon="5.54391">
        <ele>265</ele>
        <time>2022-06-25T06:05:43Z</time>
      </trkpt>
      <trkpt lat="46.67027" lon="5.54385">
        <ele>265</ele>
        <time>2022-06-25T06:05:44Z</time>
      </trkpt>
      <trkpt lat="46.6703" lon="5.54379">
        <ele>265</ele>
        <time>2022-06-25T06:05:45Z</time>
      </trkpt>
      <trkpt lat="46.67032" lon="5.54373">
        <ele>265</ele>
        <time>2022-06-25T06:05:46Z</time>
      </trkpt>
      <trkpt lat="46.67035" lon="5.54366">
        <ele>265</ele>
        <time>2022-06-25T06:05:47Z</time>
      </trkpt>
      <trkpt lat="46.67037" lon="5.54358">
        <ele>265</ele>
        <time>2022-06-25T06:05:48Z</time>
      </trkpt>
      <trkpt lat="46.67039" lon="5.54351">
        <ele>264.6</ele>
        <time>2022-06-25T06:05:49Z</time>
      </trkpt>
      <trkpt lat="46.67042" lon="5.54343">
        <ele>264.6</ele>
        <time>2022-06-25T06:05:50Z</time>
      </trkpt>
      <trkpt lat="46.67044" lon="5.54335">
        <ele>264.4</ele>
        <time>2022-06-25T06:05:51Z</time>
      </trkpt>
      <trkpt lat="46.67047" lon="5.54326">
        <ele>264.4</ele>
        <time>2022-06-25T06:05:52Z</time>
      </trkpt>
      <trkpt lat="46.67049" lon="5.54318">
        <ele>264</ele>
        <time>2022-06-25T06:05:53Z</time>
      </trkpt>
      <trkpt lat="46.67052" lon="5.5431">
        <ele>264</ele>
        <time>2022-06-25T06:05:54Z</time>
      </trkpt>
      <trkpt lat="46.67054" lon="5.54301">
        <ele>263.8</ele>
        <time>2022-06-25T06:05:55Z</time>
      </trkpt>
      <trkpt lat="46.67057" lon="5.54292">
        <ele>263.8</ele>
        <time>2022-06-25T06:05:56Z</time>
      </trkpt>
      <trkpt lat="46.6706" lon="5.54283">
        <ele>263.6</ele>
        <time>2022-06-25T06:05:57Z</time>
      </trkpt>
      <trkpt lat="46.67062" lon="5.54274">
        <ele>263.6</ele>
        <time>2022-06-25T06:05:58Z</time>
      </trkpt>
      <trkpt lat="46.67065" lon="5.54265">
        <ele>263.4</ele>
        <time>2022-06-25T06:05:59Z</time>
      </trkpt>
      <trkpt lat="46.67068" lon="5.54256">
        <ele>263.4</ele>
        <time>2022-06-25T06:06:00Z</time>
      </trkpt>
      <trkpt lat="46.67071" lon="5.54247">
        <ele>263</ele>
        <time>2022-06-25T06:06:01Z</time>
      </trkpt>
      <trkpt lat="46.67074" lon="5.54238">
        <ele>263</ele>
        <time>2022-06-25T06:06:02Z</time>
      </trkpt>
      <trkpt lat="46.67077" lon="5.54228">
        <ele>263</ele>
        <time>2022-06-25T06:06:03Z</time>
      </trkpt>
      <trkpt lat="46.6708" lon="5.54219">
        <ele>262.8</ele>
        <time>2022-06-25T06:06:04Z</time>
      </trkpt>
      <trkpt lat="46.67083" lon="5.5421">
        <ele>262.8</ele>
        <time>2022-06-25T06:06:05Z</time>
      </trkpt>
      <trkpt lat="46.67086" lon="5.54201">
        <ele>262.8</ele>
        <time>2022-06-25T06:06:06Z</time>
      </trkpt>
      <trkpt lat="46.67088" lon="5.54192">
        <ele>262.8</ele>
        <time>2022-06-25T06:06:07Z</time>
      </trkpt>
      <trkpt lat="46.67091" lon="5.54184">
        <ele>262.8</ele>
        <time>2022-06-25T06:06:08Z</time>
      </trkpt>
      <trkpt lat="46.67093" lon="5.54177">
        <ele>262.8</ele>
        <time>2022-06-25T06:06:09Z</time>
      </trkpt>
      <trkpt lat="46.67095" lon="5.54169">
        <ele>262.8</ele>
        <time>2022-06-25T06:06:10Z</time>
      </trkpt>
      <trkpt lat="46.67097" lon="5.54162">
        <ele>262.8</ele>
        <time>2022-06-25T06:06:11Z</time>
      </trkpt>
      <trkpt lat="46.67099" lon="5.54155">
        <ele>262.8</ele>
        <time>2022-06-25T06:06:12Z</time>
      </trkpt>
      <trkpt lat="46.67101" lon="5.54148">
        <ele>263.2</ele>
        <time>2022-06-25T06:06:13Z</time>
      </trkpt>
      <trkpt lat="46.67103" lon="5.54141">
        <ele>263.4</ele>
        <time>2022-06-25T06:06:14Z</time>
      </trkpt>
      <trkpt lat="46.67105" lon="5.54135">
        <ele>263.4</ele>
        <time>2022-06-25T06:06:15Z</time>
      </trkpt>
      <trkpt lat="46.67107" lon="5.54128">
        <ele>263.8</ele>
        <time>2022-06-25T06:06:16Z</time>
      </trkpt>
      <trkpt lat="46.67109" lon="5.54121">
        <ele>263.8</ele>
        <time>2022-06-25T06:06:17Z</time>
      </trkpt>
      <trkpt lat="46.67111" lon="5.54114">
        <ele>264.2</ele>
        <time>2022-06-25T06:06:18Z</time>
      </trkpt>
      <trkpt lat="46.67113" lon="5.54107">
        <ele>264.2</ele>
        <time>2022-06-25T06:06:19Z</time>
      </trkpt>
      <trkpt lat="46.67115" lon="5.54101">
        <ele>264.4</ele>
        <time>2022-06-25T06:06:20Z</time>
      </trkpt>
      <trkpt lat="46.67117" lon="5.54094">
        <ele>264.4</ele>
        <time>2022-06-25T06:06:21Z</time>
      </trkpt>
      <trkpt lat="46.67118" lon="5.54087">
        <ele>264.6</ele>
        <time>2022-06-25T06:06:22Z</time>
      </trkpt>
      <trkpt lat="46.6712" lon="5.54081">
        <ele>264.6</ele>
        <time>2022-06-25T06:06:23Z</time>
      </trkpt>
      <trkpt lat="46.67123" lon="5.54074">
        <ele>264.8</ele>
        <time>2022-06-25T06:06:24Z</time>
      </trkpt>
      <trkpt lat="46.67125" lon="5.54068">
        <ele>264.8</ele>
        <time>2022-06-25T06:06:25Z</time>
      </trkpt>
      <trkpt lat="46.67128" lon="5.54063">
        <ele>264.8</ele>
        <time>2022-06-25T06:06:26Z</time>
      </trkpt>
      <trkpt lat="46.67131" lon="5.54059">
        <ele>264.8</ele>
        <time>2022-06-25T06:06:27Z</time>
      </trkpt>
      <trkpt lat="46.67133" lon="5.54054">
        <ele>265.2</ele>
        <time>2022-06-25T06:06:28Z</time>
      </trkpt>
      <trkpt lat="46.67135" lon="5.54049">
        <ele>265.2</ele>
        <time>2022-06-25T06:06:29Z</time>
      </trkpt>
      <trkpt lat="46.67136" lon="5.54044">
        <ele>265.2</ele>
        <time>2022-06-25T06:06:30Z</time>
      </trkpt>
      <trkpt lat="46.67136" lon="5.5404">
        <ele>265.4</ele>
        <time>2022-06-25T06:06:31Z</time>
      </trkpt>
      <trkpt lat="46.67137" lon="5.54036">
        <ele>265.4</ele>
        <time>2022-06-25T06:06:32Z</time>
      </trkpt>
      <trkpt lat="46.67137" lon="5.54032">
        <ele>265.4</ele>
        <time>2022-06-25T06:06:33Z</time>
      </trkpt>
      <trkpt lat="46.67137" lon="5.5403">
        <ele>265.4</ele>
        <time>2022-06-25T06:06:34Z</time>
      </trkpt>
      <trkpt lat="46.67136" lon="5.54028">
        <ele>265.4</ele>
        <time>2022-06-25T06:06:35Z</time>
      </trkpt>
      <trkpt lat="46.67135" lon="5.54027">
        <ele>265.6</ele>
        <time>2022-06-25T06:06:36Z</time>
      </trkpt>
      <trkpt lat="46.67134" lon="5.54025">
        <ele>265.6</ele>
        <time>2022-06-25T06:06:37Z</time>
      </trkpt>
      <trkpt lat="46.67134" lon="5.54024">
        <ele>265.6</ele>
        <time>2022-06-25T06:06:38Z</time>
      </trkpt>
      <trkpt lat="46.67134" lon="5.54022">
        <ele>265.6</ele>
        <time>2022-06-25T06:06:39Z</time>
      </trkpt>
      <trkpt lat="46.67134" lon="5.5402">
        <ele>265.6</ele>
        <time>2022-06-25T06:06:40Z</time>
      </trkpt>
      <trkpt lat="46.67135" lon="5.54017">
        <ele>265.6</ele>
        <time>2022-06-25T06:06:41Z</time>
      </trkpt>
      <trkpt lat="46.67135" lon="5.54014">
        <ele>265.8</ele>
        <time>2022-06-25T06:06:42Z</time>
      </trkpt>
      <trkpt lat="46.67136" lon="5.5401">
        <ele>265.8</ele>
        <time>2022-06-25T06:06:43Z</time>
      </trkpt>
      <trkpt lat="46.67137" lon="5.54006">
        <ele>265.8</ele>
        <time>2022-06-25T06:06:44Z</time>
      </trkpt>
      <trkpt lat="46.67138" lon="5.54002">
        <ele>266.2</ele>
        <time>2022-06-25T06:06:45Z</time>
      </trkpt>
      <trkpt lat="46.67139" lon="5.53998">
        <ele>266.2</ele>
        <time>2022-06-25T06:06:46Z</time>
      </trkpt>
      <trkpt lat="46.6714" lon="5.53994">
        <ele>266.2</ele>
        <time>2022-06-25T06:06:47Z</time>
      </trkpt>
      <trkpt lat="46.67142" lon="5.5399">
        <ele>266.6</ele>
        <time>2022-06-25T06:06:48Z</time>
      </trkpt>
      <trkpt lat="46.67143" lon="5.53985">
        <ele>266.8</ele>
        <time>2022-06-25T06:06:49Z</time>
      </trkpt>
      <trkpt lat="46.67145" lon="5.5398">
        <ele>266.8</ele>
        <time>2022-06-25T06:06:50Z</time>
      </trkpt>
      <trkpt lat="46.67147" lon="5.53976">
        <ele>267</ele>
        <time>2022-06-25T06:06:51Z</time>
      </trkpt>
      <trkpt lat="46.67149" lon="5.53971">
        <ele>267</ele>
        <time>2022-06-25T06:06:52Z</time>
      </trkpt>
      <trkpt lat="46.67151" lon="5.53967">
        <ele>267</ele>
        <time>2022-06-25T06:06:53Z</time>
      </trkpt>
      <trkpt lat="46.67153" lon="5.53961">
        <ele>267</ele>
        <time>2022-06-25T06:06:54Z</time>
      </trkpt>
      <trkpt lat="46.67155" lon="5.53955">
        <ele>267</ele>
        <time>2022-06-25T06:06:55Z</time>
      </trkpt>
      <trkpt lat="46.67157" lon="5.53949">
        <ele>267.2</ele>
        <time>2022-06-25T06:06:56Z</time>
      </trkpt>
      <trkpt lat="46.67158" lon="5.53942">
        <ele>267.2</ele>
        <time>2022-06-25T06:06:57Z</time>
      </trkpt>
      <trkpt lat="46.6716" lon="5.53935">
        <ele>267.2</ele>
        <time>2022-06-25T06:06:58Z</time>
      </trkpt>
      <trkpt lat="46.6716" lon="5.53926">
        <ele>267.2</ele>
        <time>2022-06-25T06:06:59Z</time>
      </trkpt>
      <trkpt lat="46.67161" lon="5.53918">
        <ele>267.2</ele>
        <time>2022-06-25T06:07:00Z</time>
      </trkpt>
      <trkpt lat="46.67162" lon="5.5391">
        <ele>267.2</ele>
        <time>2022-06-25T06:07:01Z</time>
      </trkpt>
      <trkpt lat="46.67163" lon="5.53903">
        <ele>267.2</ele>
        <time>2022-06-25T06:07:02Z</time>
      </trkpt>
      <trkpt lat="46.67166" lon="5.53895">
        <ele>267.2</ele>
        <time>2022-06-25T06:07:03Z</time>
      </trkpt>
      <trkpt lat="46.67168" lon="5.53888">
        <ele>267.2</ele>
        <time>2022-06-25T06:07:04Z</time>
      </trkpt>
      <trkpt lat="46.67171" lon="5.5388">
        <ele>267.2</ele>
        <time>2022-06-25T06:07:05Z</time>
      </trkpt>
      <trkpt lat="46.67173" lon="5.53871">
        <ele>267.2</ele>
        <time>2022-06-25T06:07:06Z</time>
      </trkpt>
      <trkpt lat="46.67177" lon="5.53862">
        <ele>267.2</ele>
        <time>2022-06-25T06:07:07Z</time>
      </trkpt>
      <trkpt lat="46.67179" lon="5.53853">
        <ele>267.2</ele>
        <time>2022-06-25T06:07:08Z</time>
      </trkpt>
      <trkpt lat="46.67182" lon="5.53844">
        <ele>267.2</ele>
        <time>2022-06-25T06:07:09Z</time>
      </trkpt>
      <trkpt lat="46.67184" lon="5.53836">
        <ele>267.2</ele>
        <time>2022-06-25T06:07:10Z</time>
      </trkpt>
      <trkpt lat="46.67186" lon="5.53827">
        <ele>267.4</ele>
        <time>2022-06-25T06:07:11Z</time>
      </trkpt>
      <trkpt lat="46.67188" lon="5.53819">
        <ele>267.4</ele>
        <time>2022-06-25T06:07:12Z</time>
      </trkpt>
      <trkpt lat="46.67191" lon="5.5381">
        <ele>267.4</ele>
        <time>2022-06-25T06:07:13Z</time>
      </trkpt>
      <trkpt lat="46.67193" lon="5.53801">
        <ele>267.4</ele>
        <time>2022-06-25T06:07:14Z</time>
      </trkpt>
      <trkpt lat="46.67196" lon="5.53792">
        <ele>267.4</ele>
        <time>2022-06-25T06:07:15Z</time>
      </trkpt>
      <trkpt lat="46.67198" lon="5.53783">
        <ele>267.4</ele>
        <time>2022-06-25T06:07:16Z</time>
      </trkpt>
      <trkpt lat="46.67201" lon="5.53775">
        <ele>267.4</ele>
        <time>2022-06-25T06:07:17Z</time>
      </trkpt>
      <trkpt lat="46.67203" lon="5.53766">
        <ele>267.4</ele>
        <time>2022-06-25T06:07:18Z</time>
      </trkpt>
      <trkpt lat="46.67206" lon="5.53757">
        <ele>267.4</ele>
        <time>2022-06-25T06:07:19Z</time>
      </trkpt>
      <trkpt lat="46.67208" lon="5.53748">
        <ele>267.4</ele>
        <time>2022-06-25T06:07:20Z</time>
      </trkpt>
      <trkpt lat="46.67211" lon="5.53739">
        <ele>267.4</ele>
        <time>2022-06-25T06:07:21Z</time>
      </trkpt>
      <trkpt lat="46.67214" lon="5.5373">
        <ele>267.4</ele>
        <time>2022-06-25T06:07:22Z</time>
      </trkpt>
      <trkpt lat="46.67216" lon="5.53722">
        <ele>267.4</ele>
        <time>2022-06-25T06:07:23Z</time>
      </trkpt>
      <trkpt lat="46.67219" lon="5.53713">
        <ele>267.4</ele>
        <time>2022-06-25T06:07:24Z</time>
      </trkpt>
      <trkpt lat="46.67221" lon="5.53703">
        <ele>267.4</ele>
        <time>2022-06-25T06:07:25Z</time>
      </trkpt>
      <trkpt lat="46.67224" lon="5.53694">
        <ele>267.4</ele>
        <time>2022-06-25T06:07:26Z</time>
      </trkpt>
      <trkpt lat="46.67226" lon="5.53685">
        <ele>267.4</ele>
        <time>2022-06-25T06:07:27Z</time>
      </trkpt>
      <trkpt lat="46.67228" lon="5.53676">
        <ele>267.4</ele>
        <time>2022-06-25T06:07:28Z</time>
      </trkpt>
      <trkpt lat="46.67231" lon="5.53668">
        <ele>267.4</ele>
        <time>2022-06-25T06:07:29Z</time>
      </trkpt>
      <trkpt lat="46.67233" lon="5.53659">
        <ele>267.4</ele>
        <time>2022-06-25T06:07:30Z</time>
      </trkpt>
      <trkpt lat="46.67235" lon="5.53651">
        <ele>267.4</ele>
        <time>2022-06-25T06:07:31Z</time>
      </trkpt>
      <trkpt lat="46.67238" lon="5.53642">
        <ele>267.4</ele>
        <time>2022-06-25T06:07:32Z</time>
      </trkpt>
      <trkpt lat="46.6724" lon="5.53633">
        <ele>267.4</ele>
        <time>2022-06-25T06:07:33Z</time>
      </trkpt>
      <trkpt lat="46.67242" lon="5.53624">
        <ele>267.4</ele>
        <time>2022-06-25T06:07:34Z</time>
      </trkpt>
      <trkpt lat="46.67244" lon="5.53615">
        <ele>267.4</ele>
        <time>2022-06-25T06:07:35Z</time>
      </trkpt>
      <trkpt lat="46.67247" lon="5.53606">
        <ele>267.4</ele>
        <time>2022-06-25T06:07:36Z</time>
      </trkpt>
      <trkpt lat="46.6725" lon="5.53597">
        <ele>267.4</ele>
        <time>2022-06-25T06:07:37Z</time>
      </trkpt>
      <trkpt lat="46.67253" lon="5.53588">
        <ele>267.4</ele>
        <time>2022-06-25T06:07:38Z</time>
      </trkpt>
      <trkpt lat="46.67255" lon="5.53579">
        <ele>267.4</ele>
        <time>2022-06-25T06:07:39Z</time>
      </trkpt>
      <trkpt lat="46.67258" lon="5.5357">
        <ele>267.4</ele>
        <time>2022-06-25T06:07:40Z</time>
      </trkpt>
      <trkpt lat="46.67261" lon="5.5356">
        <ele>267.4</ele>
        <time>2022-06-25T06:07:41Z</time>
      </trkpt>
      <trkpt lat="46.67264" lon="5.53551">
        <ele>267.4</ele>
        <time>2022-06-25T06:07:42Z</time>
      </trkpt>
      <trkpt lat="46.67267" lon="5.53541">
        <ele>267.4</ele>
        <time>2022-06-25T06:07:43Z</time>
      </trkpt>
      <trkpt lat="46.6727" lon="5.53531">
        <ele>267.4</ele>
        <time>2022-06-25T06:07:44Z</time>
      </trkpt>
      <trkpt lat="46.67272" lon="5.53521">
        <ele>267.2</ele>
        <time>2022-06-25T06:07:45Z</time>
      </trkpt>
      <trkpt lat="46.67275" lon="5.53511">
        <ele>267.2</ele>
        <time>2022-06-25T06:07:46Z</time>
      </trkpt>
      <trkpt lat="46.67277" lon="5.53499">
        <ele>267.2</ele>
        <time>2022-06-25T06:07:47Z</time>
      </trkpt>
      <trkpt lat="46.67279" lon="5.53488">
        <ele>266.8</ele>
        <time>2022-06-25T06:07:48Z</time>
      </trkpt>
      <trkpt lat="46.67281" lon="5.53476">
        <ele>266.8</ele>
        <time>2022-06-25T06:07:49Z</time>
      </trkpt>
      <trkpt lat="46.67282" lon="5.53464">
        <ele>266.8</ele>
        <time>2022-06-25T06:07:50Z</time>
      </trkpt>
      <trkpt lat="46.67283" lon="5.53453">
        <ele>266.8</ele>
        <time>2022-06-25T06:07:51Z</time>
      </trkpt>
      <trkpt lat="46.67284" lon="5.53441">
        <ele>266.6</ele>
        <time>2022-06-25T06:07:52Z</time>
      </trkpt>
      <trkpt lat="46.67285" lon="5.53429">
        <ele>266.6</ele>
        <time>2022-06-25T06:07:53Z</time>
      </trkpt>
      <trkpt lat="46.67286" lon="5.53417">
        <ele>266.6</ele>
        <time>2022-06-25T06:07:54Z</time>
      </trkpt>
      <trkpt lat="46.67287" lon="5.53405">
        <ele>266.4</ele>
        <time>2022-06-25T06:07:55Z</time>
      </trkpt>
      <trkpt lat="46.67287" lon="5.53393">
        <ele>266.4</ele>
        <time>2022-06-25T06:07:56Z</time>
      </trkpt>
      <trkpt lat="46.67287" lon="5.53382">
        <ele>266.2</ele>
        <time>2022-06-25T06:07:57Z</time>
      </trkpt>
      <trkpt lat="46.67287" lon="5.5337">
        <ele>266.2</ele>
        <time>2022-06-25T06:07:58Z</time>
      </trkpt>
      <trkpt lat="46.67287" lon="5.53358">
        <ele>266</ele>
        <time>2022-06-25T06:07:59Z</time>
      </trkpt>
      <trkpt lat="46.67287" lon="5.53346">
        <ele>266</ele>
        <time>2022-06-25T06:08:00Z</time>
      </trkpt>
      <trkpt lat="46.67286" lon="5.53334">
        <ele>265.8</ele>
        <time>2022-06-25T06:08:02Z</time>
      </trkpt>
      <trkpt lat="46.67286" lon="5.53322">
        <ele>265.8</ele>
        <time>2022-06-25T06:08:03Z</time>
      </trkpt>
      <trkpt lat="46.67285" lon="5.5331">
        <ele>265.8</ele>
        <time>2022-06-25T06:08:04Z</time>
      </trkpt>
      <trkpt lat="46.67285" lon="5.53299">
        <ele>265.8</ele>
        <time>2022-06-25T06:08:05Z</time>
      </trkpt>
      <trkpt lat="46.67284" lon="5.53288">
        <ele>265.8</ele>
        <time>2022-06-25T06:08:06Z</time>
      </trkpt>
      <trkpt lat="46.67283" lon="5.53277">
        <ele>265.6</ele>
        <time>2022-06-25T06:08:07Z</time>
      </trkpt>
      <trkpt lat="46.67282" lon="5.53267">
        <ele>265.6</ele>
        <time>2022-06-25T06:08:08Z</time>
      </trkpt>
      <trkpt lat="46.67281" lon="5.53257">
        <ele>265.6</ele>
        <time>2022-06-25T06:08:09Z</time>
      </trkpt>
      <trkpt lat="46.6728" lon="5.53247">
        <ele>265.2</ele>
        <time>2022-06-25T06:08:10Z</time>
      </trkpt>
      <trkpt lat="46.6728" lon="5.53238">
        <ele>265.2</ele>
        <time>2022-06-25T06:08:11Z</time>
      </trkpt>
      <trkpt lat="46.67279" lon="5.53229">
        <ele>265.2</ele>
        <time>2022-06-25T06:08:12Z</time>
      </trkpt>
      <trkpt lat="46.67279" lon="5.5322">
        <ele>265.2</ele>
        <time>2022-06-25T06:08:13Z</time>
      </trkpt>
      <trkpt lat="46.67278" lon="5.53212">
        <ele>265</ele>
        <time>2022-06-25T06:08:14Z</time>
      </trkpt>
      <trkpt lat="46.67277" lon="5.53203">
        <ele>265</ele>
        <time>2022-06-25T06:08:15Z</time>
      </trkpt>
      <trkpt lat="46.67276" lon="5.53194">
        <ele>265</ele>
        <time>2022-06-25T06:08:16Z</time>
      </trkpt>
      <trkpt lat="46.67275" lon="5.53184">
        <ele>265</ele>
        <time>2022-06-25T06:08:17Z</time>
      </trkpt>
      <trkpt lat="46.67275" lon="5.53175">
        <ele>265</ele>
        <time>2022-06-25T06:08:18Z</time>
      </trkpt>
      <trkpt lat="46.67275" lon="5.53164">
        <ele>265</ele>
        <time>2022-06-25T06:08:19Z</time>
      </trkpt>
      <trkpt lat="46.67274" lon="5.53154">
        <ele>265</ele>
        <time>2022-06-25T06:08:20Z</time>
      </trkpt>
      <trkpt lat="46.67274" lon="5.53143">
        <ele>265</ele>
        <time>2022-06-25T06:08:21Z</time>
      </trkpt>
      <trkpt lat="46.67274" lon="5.53133">
        <ele>265</ele>
        <time>2022-06-25T06:08:22Z</time>
      </trkpt>
      <trkpt lat="46.67274" lon="5.53122">
        <ele>264.8</ele>
        <time>2022-06-25T06:08:23Z</time>
      </trkpt>
      <trkpt lat="46.67274" lon="5.5311">
        <ele>264.8</ele>
        <time>2022-06-25T06:08:24Z</time>
      </trkpt>
      <trkpt lat="46.67274" lon="5.53099">
        <ele>264.8</ele>
        <time>2022-06-25T06:08:25Z</time>
      </trkpt>
      <trkpt lat="46.67274" lon="5.53088">
        <ele>264.8</ele>
        <time>2022-06-25T06:08:26Z</time>
      </trkpt>
      <trkpt lat="46.67274" lon="5.53076">
        <ele>264.8</ele>
        <time>2022-06-25T06:08:27Z</time>
      </trkpt>
      <trkpt lat="46.67273" lon="5.53064">
        <ele>264.8</ele>
        <time>2022-06-25T06:08:28Z</time>
      </trkpt>
      <trkpt lat="46.67273" lon="5.53052">
        <ele>264.4</ele>
        <time>2022-06-25T06:08:29Z</time>
      </trkpt>
      <trkpt lat="46.67272" lon="5.53041">
        <ele>264.4</ele>
        <time>2022-06-25T06:08:30Z</time>
      </trkpt>
      <trkpt lat="46.67272" lon="5.53029">
        <ele>264.4</ele>
        <time>2022-06-25T06:08:31Z</time>
      </trkpt>
      <trkpt lat="46.67271" lon="5.53017">
        <ele>264.4</ele>
        <time>2022-06-25T06:08:32Z</time>
      </trkpt>
      <trkpt lat="46.6727" lon="5.53005">
        <ele>264.2</ele>
        <time>2022-06-25T06:08:33Z</time>
      </trkpt>
      <trkpt lat="46.6727" lon="5.52993">
        <ele>264.2</ele>
        <time>2022-06-25T06:08:34Z</time>
      </trkpt>
      <trkpt lat="46.67269" lon="5.52981">
        <ele>264.2</ele>
        <time>2022-06-25T06:08:35Z</time>
      </trkpt>
      <trkpt lat="46.67268" lon="5.52969">
        <ele>264</ele>
        <time>2022-06-25T06:08:36Z</time>
      </trkpt>
      <trkpt lat="46.67268" lon="5.52958">
        <ele>264</ele>
        <time>2022-06-25T06:08:37Z</time>
      </trkpt>
      <trkpt lat="46.67267" lon="5.52946">
        <ele>264</ele>
        <time>2022-06-25T06:08:38Z</time>
      </trkpt>
      <trkpt lat="46.67266" lon="5.52934">
        <ele>264</ele>
        <time>2022-06-25T06:08:39Z</time>
      </trkpt>
      <trkpt lat="46.67266" lon="5.52922">
        <ele>263.8</ele>
        <time>2022-06-25T06:08:40Z</time>
      </trkpt>
      <trkpt lat="46.67265" lon="5.5291">
        <ele>263.8</ele>
        <time>2022-06-25T06:08:41Z</time>
      </trkpt>
      <trkpt lat="46.67264" lon="5.52899">
        <ele>263.8</ele>
        <time>2022-06-25T06:08:42Z</time>
      </trkpt>
      <trkpt lat="46.67264" lon="5.52888">
        <ele>263.8</ele>
        <time>2022-06-25T06:08:43Z</time>
      </trkpt>
      <trkpt lat="46.67263" lon="5.52876">
        <ele>263.8</ele>
        <time>2022-06-25T06:08:44Z</time>
      </trkpt>
      <trkpt lat="46.67262" lon="5.52864">
        <ele>263.4</ele>
        <time>2022-06-25T06:08:45Z</time>
      </trkpt>
      <trkpt lat="46.67262" lon="5.52853">
        <ele>263.4</ele>
        <time>2022-06-25T06:08:46Z</time>
      </trkpt>
      <trkpt lat="46.67261" lon="5.52841">
        <ele>263.2</ele>
        <time>2022-06-25T06:08:47Z</time>
      </trkpt>
      <trkpt lat="46.67261" lon="5.52829">
        <ele>263.2</ele>
        <time>2022-06-25T06:08:48Z</time>
      </trkpt>
      <trkpt lat="46.6726" lon="5.52817">
        <ele>263.2</ele>
        <time>2022-06-25T06:08:49Z</time>
      </trkpt>
      <trkpt lat="46.6726" lon="5.52806">
        <ele>262.8</ele>
        <time>2022-06-25T06:08:50Z</time>
      </trkpt>
      <trkpt lat="46.67259" lon="5.52794">
        <ele>262.8</ele>
        <time>2022-06-25T06:08:51Z</time>
      </trkpt>
      <trkpt lat="46.67258" lon="5.52782">
        <ele>262.6</ele>
        <time>2022-06-25T06:08:52Z</time>
      </trkpt>
      <trkpt lat="46.67257" lon="5.5277">
        <ele>262.6</ele>
        <time>2022-06-25T06:08:53Z</time>
      </trkpt>
      <trkpt lat="46.67257" lon="5.52758">
        <ele>262.2</ele>
        <time>2022-06-25T06:08:54Z</time>
      </trkpt>
      <trkpt lat="46.67256" lon="5.52746">
        <ele>262.2</ele>
        <time>2022-06-25T06:08:55Z</time>
      </trkpt>
      <trkpt lat="46.67255" lon="5.52734">
        <ele>262.2</ele>
        <time>2022-06-25T06:08:56Z</time>
      </trkpt>
      <trkpt lat="46.67255" lon="5.52722">
        <ele>262</ele>
        <time>2022-06-25T06:08:57Z</time>
      </trkpt>
      <trkpt lat="46.67254" lon="5.5271">
        <ele>262</ele>
        <time>2022-06-25T06:08:58Z</time>
      </trkpt>
      <trkpt lat="46.67254" lon="5.52697">
        <ele>261.6</ele>
        <time>2022-06-25T06:08:59Z</time>
      </trkpt>
      <trkpt lat="46.67253" lon="5.52685">
        <ele>261.6</ele>
        <time>2022-06-25T06:09:00Z</time>
      </trkpt>
      <trkpt lat="46.67253" lon="5.52673">
        <ele>261.6</ele>
        <time>2022-06-25T06:09:01Z</time>
      </trkpt>
      <trkpt lat="46.67253" lon="5.52661">
        <ele>261.4</ele>
        <time>2022-06-25T06:09:02Z</time>
      </trkpt>
      <trkpt lat="46.67253" lon="5.52649">
        <ele>261.4</ele>
        <time>2022-06-25T06:09:03Z</time>
      </trkpt>
      <trkpt lat="46.67252" lon="5.52636">
        <ele>261.2</ele>
        <time>2022-06-25T06:09:04Z</time>
      </trkpt>
      <trkpt lat="46.67252" lon="5.52624">
        <ele>261.2</ele>
        <time>2022-06-25T06:09:05Z</time>
      </trkpt>
      <trkpt lat="46.67252" lon="5.52612">
        <ele>260.8</ele>
        <time>2022-06-25T06:09:06Z</time>
      </trkpt>
      <trkpt lat="46.67253" lon="5.526">
        <ele>260.6</ele>
        <time>2022-06-25T06:09:07Z</time>
      </trkpt>
      <trkpt lat="46.67254" lon="5.52588">
        <ele>260.6</ele>
        <time>2022-06-25T06:09:08Z</time>
      </trkpt>
      <trkpt lat="46.67254" lon="5.52576">
        <ele>260.4</ele>
        <time>2022-06-25T06:09:09Z</time>
      </trkpt>
      <trkpt lat="46.67255" lon="5.52565">
        <ele>260.4</ele>
        <time>2022-06-25T06:09:10Z</time>
      </trkpt>
      <trkpt lat="46.67256" lon="5.52554">
        <ele>260</ele>
        <time>2022-06-25T06:09:11Z</time>
      </trkpt>
      <trkpt lat="46.67257" lon="5.52543">
        <ele>260</ele>
        <time>2022-06-25T06:09:12Z</time>
      </trkpt>
      <trkpt lat="46.67258" lon="5.52532">
        <ele>259.8</ele>
        <time>2022-06-25T06:09:13Z</time>
      </trkpt>
      <trkpt lat="46.6726" lon="5.52521">
        <ele>259.8</ele>
        <time>2022-06-25T06:09:14Z</time>
      </trkpt>
      <trkpt lat="46.67262" lon="5.5251">
        <ele>259.8</ele>
        <time>2022-06-25T06:09:15Z</time>
      </trkpt>
      <trkpt lat="46.67263" lon="5.525">
        <ele>259.4</ele>
        <time>2022-06-25T06:09:16Z</time>
      </trkpt>
      <trkpt lat="46.67265" lon="5.52489">
        <ele>259.4</ele>
        <time>2022-06-25T06:09:17Z</time>
      </trkpt>
      <trkpt lat="46.67267" lon="5.52479">
        <ele>259.2</ele>
        <time>2022-06-25T06:09:18Z</time>
      </trkpt>
      <trkpt lat="46.67269" lon="5.52469">
        <ele>259.2</ele>
        <time>2022-06-25T06:09:19Z</time>
      </trkpt>
      <trkpt lat="46.67271" lon="5.52459">
        <ele>259.2</ele>
        <time>2022-06-25T06:09:20Z</time>
      </trkpt>
      <trkpt lat="46.67272" lon="5.52449">
        <ele>259.2</ele>
        <time>2022-06-25T06:09:21Z</time>
      </trkpt>
      <trkpt lat="46.67275" lon="5.52439">
        <ele>259.2</ele>
        <time>2022-06-25T06:09:22Z</time>
      </trkpt>
      <trkpt lat="46.67277" lon="5.52429">
        <ele>259</ele>
        <time>2022-06-25T06:09:23Z</time>
      </trkpt>
      <trkpt lat="46.67279" lon="5.52419">
        <ele>259</ele>
        <time>2022-06-25T06:09:24Z</time>
      </trkpt>
      <trkpt lat="46.67282" lon="5.5241">
        <ele>259</ele>
        <time>2022-06-25T06:09:25Z</time>
      </trkpt>
      <trkpt lat="46.67284" lon="5.524">
        <ele>259</ele>
        <time>2022-06-25T06:09:26Z</time>
      </trkpt>
      <trkpt lat="46.67287" lon="5.52391">
        <ele>259</ele>
        <time>2022-06-25T06:09:27Z</time>
      </trkpt>
      <trkpt lat="46.67289" lon="5.52383">
        <ele>259</ele>
        <time>2022-06-25T06:09:28Z</time>
      </trkpt>
      <trkpt lat="46.67292" lon="5.52375">
        <ele>259</ele>
        <time>2022-06-25T06:09:29Z</time>
      </trkpt>
      <trkpt lat="46.67295" lon="5.52367">
        <ele>259</ele>
        <time>2022-06-25T06:09:30Z</time>
      </trkpt>
      <trkpt lat="46.67298" lon="5.5236">
        <ele>259</ele>
        <time>2022-06-25T06:09:31Z</time>
      </trkpt>
      <trkpt lat="46.67301" lon="5.52351">
        <ele>258.8</ele>
        <time>2022-06-25T06:09:32Z</time>
      </trkpt>
      <trkpt lat="46.67304" lon="5.52342">
        <ele>258.8</ele>
        <time>2022-06-25T06:09:33Z</time>
      </trkpt>
      <trkpt lat="46.67307" lon="5.52333">
        <ele>258.8</ele>
        <time>2022-06-25T06:09:34Z</time>
      </trkpt>
      <trkpt lat="46.67311" lon="5.52324">
        <ele>258.8</ele>
        <time>2022-06-25T06:09:35Z</time>
      </trkpt>
      <trkpt lat="46.67314" lon="5.52315">
        <ele>258.8</ele>
        <time>2022-06-25T06:09:36Z</time>
      </trkpt>
      <trkpt lat="46.67318" lon="5.52306">
        <ele>258.4</ele>
        <time>2022-06-25T06:09:37Z</time>
      </trkpt>
      <trkpt lat="46.67321" lon="5.52297">
        <ele>258.4</ele>
        <time>2022-06-25T06:09:38Z</time>
      </trkpt>
      <trkpt lat="46.67324" lon="5.52287">
        <ele>258.4</ele>
        <time>2022-06-25T06:09:39Z</time>
      </trkpt>
      <trkpt lat="46.67328" lon="5.52278">
        <ele>258.2</ele>
        <time>2022-06-25T06:09:40Z</time>
      </trkpt>
      <trkpt lat="46.67331" lon="5.52269">
        <ele>258.2</ele>
        <time>2022-06-25T06:09:41Z</time>
      </trkpt>
      <trkpt lat="46.67335" lon="5.52259">
        <ele>258.2</ele>
        <time>2022-06-25T06:09:42Z</time>
      </trkpt>
      <trkpt lat="46.67338" lon="5.5225">
        <ele>258.2</ele>
        <time>2022-06-25T06:09:43Z</time>
      </trkpt>
      <trkpt lat="46.67342" lon="5.5224">
        <ele>258.2</ele>
        <time>2022-06-25T06:09:44Z</time>
      </trkpt>
      <trkpt lat="46.67346" lon="5.5223">
        <ele>258.2</ele>
        <time>2022-06-25T06:09:45Z</time>
      </trkpt>
      <trkpt lat="46.67349" lon="5.5222">
        <ele>258.2</ele>
        <time>2022-06-25T06:09:46Z</time>
      </trkpt>
      <trkpt lat="46.67353" lon="5.52211">
        <ele>258</ele>
        <time>2022-06-25T06:09:47Z</time>
      </trkpt>
      <trkpt lat="46.67356" lon="5.52201">
        <ele>258</ele>
        <time>2022-06-25T06:09:48Z</time>
      </trkpt>
      <trkpt lat="46.6736" lon="5.52191">
        <ele>257.8</ele>
        <time>2022-06-25T06:09:49Z</time>
      </trkpt>
      <trkpt lat="46.67364" lon="5.52182">
        <ele>257.8</ele>
        <time>2022-06-25T06:09:50Z</time>
      </trkpt>
      <trkpt lat="46.67367" lon="5.52172">
        <ele>257.8</ele>
        <time>2022-06-25T06:09:51Z</time>
      </trkpt>
      <trkpt lat="46.6737" lon="5.52162">
        <ele>257.8</ele>
        <time>2022-06-25T06:09:52Z</time>
      </trkpt>
      <trkpt lat="46.67374" lon="5.52153">
        <ele>257.6</ele>
        <time>2022-06-25T06:09:53Z</time>
      </trkpt>
      <trkpt lat="46.67378" lon="5.52143">
        <ele>257.6</ele>
        <time>2022-06-25T06:09:54Z</time>
      </trkpt>
      <trkpt lat="46.67382" lon="5.52134">
        <ele>257.6</ele>
        <time>2022-06-25T06:09:55Z</time>
      </trkpt>
      <trkpt lat="46.67385" lon="5.52124">
        <ele>257.2</ele>
        <time>2022-06-25T06:09:56Z</time>
      </trkpt>
      <trkpt lat="46.67389" lon="5.52115">
        <ele>257.2</ele>
        <time>2022-06-25T06:09:57Z</time>
      </trkpt>
      <trkpt lat="46.67393" lon="5.52105">
        <ele>257.2</ele>
        <time>2022-06-25T06:09:58Z</time>
      </trkpt>
      <trkpt lat="46.67396" lon="5.52096">
        <ele>257.2</ele>
        <time>2022-06-25T06:09:59Z</time>
      </trkpt>
      <trkpt lat="46.674" lon="5.52086">
        <ele>257.2</ele>
        <time>2022-06-25T06:10:00Z</time>
      </trkpt>
      <trkpt lat="46.67403" lon="5.52077">
        <ele>256.8</ele>
        <time>2022-06-25T06:10:01Z</time>
      </trkpt>
      <trkpt lat="46.67407" lon="5.52067">
        <ele>256.8</ele>
        <time>2022-06-25T06:10:02Z</time>
      </trkpt>
      <trkpt lat="46.67411" lon="5.52058">
        <ele>256.8</ele>
        <time>2022-06-25T06:10:03Z</time>
      </trkpt>
      <trkpt lat="46.67415" lon="5.5205">
        <ele>256.6</ele>
        <time>2022-06-25T06:10:04Z</time>
      </trkpt>
      <trkpt lat="46.67419" lon="5.5204">
        <ele>256.6</ele>
        <time>2022-06-25T06:10:05Z</time>
      </trkpt>
      <trkpt lat="46.67423" lon="5.52031">
        <ele>256.6</ele>
        <time>2022-06-25T06:10:06Z</time>
      </trkpt>
      <trkpt lat="46.67427" lon="5.52022">
        <ele>256.4</ele>
        <time>2022-06-25T06:10:07Z</time>
      </trkpt>
      <trkpt lat="46.67431" lon="5.52013">
        <ele>256.4</ele>
        <time>2022-06-25T06:10:08Z</time>
      </trkpt>
      <trkpt lat="46.67435" lon="5.52004">
        <ele>256.2</ele>
        <time>2022-06-25T06:10:09Z</time>
      </trkpt>
      <trkpt lat="46.67439" lon="5.51995">
        <ele>256.2</ele>
        <time>2022-06-25T06:10:10Z</time>
      </trkpt>
      <trkpt lat="46.67443" lon="5.51986">
        <ele>256.2</ele>
        <time>2022-06-25T06:10:11Z</time>
      </trkpt>
      <trkpt lat="46.67446" lon="5.51977">
        <ele>256.2</ele>
        <time>2022-06-25T06:10:12Z</time>
      </trkpt>
      <trkpt lat="46.6745" lon="5.51968">
        <ele>255.8</ele>
        <time>2022-06-25T06:10:13Z</time>
      </trkpt>
      <trkpt lat="46.67453" lon="5.51959">
        <ele>255.8</ele>
        <time>2022-06-25T06:10:14Z</time>
      </trkpt>
      <trkpt lat="46.67457" lon="5.51951">
        <ele>255.8</ele>
        <time>2022-06-25T06:10:15Z</time>
      </trkpt>
      <trkpt lat="46.6746" lon="5.51942">
        <ele>255.6</ele>
        <time>2022-06-25T06:10:16Z</time>
      </trkpt>
      <trkpt lat="46.67463" lon="5.51933">
        <ele>255.6</ele>
        <time>2022-06-25T06:10:17Z</time>
      </trkpt>
      <trkpt lat="46.67466" lon="5.51924">
        <ele>255.6</ele>
        <time>2022-06-25T06:10:18Z</time>
      </trkpt>
      <trkpt lat="46.67469" lon="5.51915">
        <ele>255.6</ele>
        <time>2022-06-25T06:10:19Z</time>
      </trkpt>
      <trkpt lat="46.67472" lon="5.51905">
        <ele>255.4</ele>
        <time>2022-06-25T06:10:20Z</time>
      </trkpt>
      <trkpt lat="46.67476" lon="5.51896">
        <ele>255.4</ele>
        <time>2022-06-25T06:10:21Z</time>
      </trkpt>
      <trkpt lat="46.67479" lon="5.51886">
        <ele>255</ele>
        <time>2022-06-25T06:10:22Z</time>
      </trkpt>
      <trkpt lat="46.67482" lon="5.51876">
        <ele>254.8</ele>
        <time>2022-06-25T06:10:23Z</time>
      </trkpt>
      <trkpt lat="46.67485" lon="5.51867">
        <ele>254.8</ele>
        <time>2022-06-25T06:10:24Z</time>
      </trkpt>
      <trkpt lat="46.67488" lon="5.51857">
        <ele>254.6</ele>
        <time>2022-06-25T06:10:25Z</time>
      </trkpt>
      <trkpt lat="46.67491" lon="5.51847">
        <ele>254.6</ele>
        <time>2022-06-25T06:10:26Z</time>
      </trkpt>
      <trkpt lat="46.67494" lon="5.51837">
        <ele>254.4</ele>
        <time>2022-06-25T06:10:27Z</time>
      </trkpt>
      <trkpt lat="46.67498" lon="5.51828">
        <ele>254.4</ele>
        <time>2022-06-25T06:10:28Z</time>
      </trkpt>
      <trkpt lat="46.67501" lon="5.51818">
        <ele>254</ele>
        <time>2022-06-25T06:10:29Z</time>
      </trkpt>
      <trkpt lat="46.67504" lon="5.51809">
        <ele>254</ele>
        <time>2022-06-25T06:10:30Z</time>
      </trkpt>
      <trkpt lat="46.67507" lon="5.518">
        <ele>254</ele>
        <time>2022-06-25T06:10:31Z</time>
      </trkpt>
      <trkpt lat="46.67509" lon="5.51789">
        <ele>253.8</ele>
        <time>2022-06-25T06:10:32Z</time>
      </trkpt>
      <trkpt lat="46.67512" lon="5.5178">
        <ele>253.8</ele>
        <time>2022-06-25T06:10:33Z</time>
      </trkpt>
      <trkpt lat="46.67514" lon="5.5177">
        <ele>253.8</ele>
        <time>2022-06-25T06:10:34Z</time>
      </trkpt>
      <trkpt lat="46.67517" lon="5.5176">
        <ele>253.4</ele>
        <time>2022-06-25T06:10:35Z</time>
      </trkpt>
      <trkpt lat="46.67519" lon="5.51751">
        <ele>253.4</ele>
        <time>2022-06-25T06:10:36Z</time>
      </trkpt>
      <trkpt lat="46.67521" lon="5.51741">
        <ele>253.4</ele>
        <time>2022-06-25T06:10:37Z</time>
      </trkpt>
      <trkpt lat="46.67522" lon="5.51728">
        <ele>253.2</ele>
        <time>2022-06-25T06:10:38Z</time>
      </trkpt>
      <trkpt lat="46.67523" lon="5.51716">
        <ele>253.2</ele>
        <time>2022-06-25T06:10:39Z</time>
      </trkpt>
      <trkpt lat="46.67524" lon="5.51705">
        <ele>253.2</ele>
        <time>2022-06-25T06:10:40Z</time>
      </trkpt>
      <trkpt lat="46.67526" lon="5.51693">
        <ele>253.2</ele>
        <time>2022-06-25T06:10:41Z</time>
      </trkpt>
      <trkpt lat="46.67527" lon="5.51682">
        <ele>253</ele>
        <time>2022-06-25T06:10:42Z</time>
      </trkpt>
      <trkpt lat="46.67529" lon="5.51672">
        <ele>253</ele>
        <time>2022-06-25T06:10:43Z</time>
      </trkpt>
      <trkpt lat="46.6753" lon="5.51663">
        <ele>253</ele>
        <time>2022-06-25T06:10:44Z</time>
      </trkpt>
      <trkpt lat="46.67532" lon="5.51652">
        <ele>253</ele>
        <time>2022-06-25T06:10:45Z</time>
      </trkpt>
      <trkpt lat="46.67533" lon="5.51642">
        <ele>252.8</ele>
        <time>2022-06-25T06:10:46Z</time>
      </trkpt>
      <trkpt lat="46.67535" lon="5.51632">
        <ele>252.8</ele>
        <time>2022-06-25T06:10:47Z</time>
      </trkpt>
      <trkpt lat="46.67537" lon="5.51623">
        <ele>252.8</ele>
        <time>2022-06-25T06:10:48Z</time>
      </trkpt>
      <trkpt lat="46.67538" lon="5.51612">
        <ele>252.8</ele>
        <time>2022-06-25T06:10:49Z</time>
      </trkpt>
      <trkpt lat="46.67539" lon="5.51603">
        <ele>252.8</ele>
        <time>2022-06-25T06:10:50Z</time>
      </trkpt>
      <trkpt lat="46.6754" lon="5.51593">
        <ele>252.8</ele>
        <time>2022-06-25T06:10:51Z</time>
      </trkpt>
      <trkpt lat="46.67543" lon="5.51574">
        <ele>252.6</ele>
        <time>2022-06-25T06:10:52Z</time>
      </trkpt>
      <trkpt lat="46.67544" lon="5.51564">
        <ele>252.6</ele>
        <time>2022-06-25T06:10:53Z</time>
      </trkpt>
      <trkpt lat="46.67545" lon="5.51553">
        <ele>252.6</ele>
        <time>2022-06-25T06:10:54Z</time>
      </trkpt>
      <trkpt lat="46.67545" lon="5.51543">
        <ele>252.6</ele>
        <time>2022-06-25T06:10:55Z</time>
      </trkpt>
      <trkpt lat="46.67546" lon="5.51533">
        <ele>252.6</ele>
        <time>2022-06-25T06:10:56Z</time>
      </trkpt>
      <trkpt lat="46.67547" lon="5.51524">
        <ele>252.6</ele>
        <time>2022-06-25T06:10:57Z</time>
      </trkpt>
      <trkpt lat="46.67548" lon="5.51514">
        <ele>252.4</ele>
        <time>2022-06-25T06:10:58Z</time>
      </trkpt>
      <trkpt lat="46.67548" lon="5.51505">
        <ele>252.4</ele>
        <time>2022-06-25T06:10:59Z</time>
      </trkpt>
      <trkpt lat="46.6755" lon="5.51496">
        <ele>252.4</ele>
        <time>2022-06-25T06:11:00Z</time>
      </trkpt>
      <trkpt lat="46.67551" lon="5.51487">
        <ele>252.4</ele>
        <time>2022-06-25T06:11:01Z</time>
      </trkpt>
      <trkpt lat="46.67552" lon="5.51477">
        <ele>252</ele>
        <time>2022-06-25T06:11:02Z</time>
      </trkpt>
      <trkpt lat="46.67552" lon="5.51466">
        <ele>252</ele>
        <time>2022-06-25T06:11:03Z</time>
      </trkpt>
      <trkpt lat="46.67552" lon="5.51455">
        <ele>252</ele>
        <time>2022-06-25T06:11:04Z</time>
      </trkpt>
      <trkpt lat="46.67553" lon="5.51444">
        <ele>252</ele>
        <time>2022-06-25T06:11:05Z</time>
      </trkpt>
      <trkpt lat="46.67553" lon="5.51433">
        <ele>252</ele>
        <time>2022-06-25T06:11:06Z</time>
      </trkpt>
      <trkpt lat="46.67554" lon="5.51423">
        <ele>252</ele>
        <time>2022-06-25T06:11:07Z</time>
      </trkpt>
      <trkpt lat="46.67555" lon="5.51412">
        <ele>252</ele>
        <time>2022-06-25T06:11:08Z</time>
      </trkpt>
      <trkpt lat="46.67555" lon="5.51401">
        <ele>251.8</ele>
        <time>2022-06-25T06:11:09Z</time>
      </trkpt>
      <trkpt lat="46.67556" lon="5.5139">
        <ele>251.8</ele>
        <time>2022-06-25T06:11:10Z</time>
      </trkpt>
      <trkpt lat="46.67557" lon="5.51379">
        <ele>251.6</ele>
        <time>2022-06-25T06:11:11Z</time>
      </trkpt>
      <trkpt lat="46.67558" lon="5.51368">
        <ele>251.6</ele>
        <time>2022-06-25T06:11:12Z</time>
      </trkpt>
      <trkpt lat="46.67559" lon="5.51358">
        <ele>251.4</ele>
        <time>2022-06-25T06:11:13Z</time>
      </trkpt>
      <trkpt lat="46.6756" lon="5.51347">
        <ele>251.4</ele>
        <time>2022-06-25T06:11:14Z</time>
      </trkpt>
      <trkpt lat="46.6756" lon="5.51336">
        <ele>251.2</ele>
        <time>2022-06-25T06:11:15Z</time>
      </trkpt>
      <trkpt lat="46.6756" lon="5.51326">
        <ele>251.2</ele>
        <time>2022-06-25T06:11:16Z</time>
      </trkpt>
      <trkpt lat="46.67561" lon="5.51315">
        <ele>251.2</ele>
        <time>2022-06-25T06:11:17Z</time>
      </trkpt>
      <trkpt lat="46.67562" lon="5.51304">
        <ele>251.2</ele>
        <time>2022-06-25T06:11:18Z</time>
      </trkpt>
      <trkpt lat="46.67562" lon="5.51294">
        <ele>250.8</ele>
        <time>2022-06-25T06:11:19Z</time>
      </trkpt>
      <trkpt lat="46.67562" lon="5.51284">
        <ele>250.8</ele>
        <time>2022-06-25T06:11:20Z</time>
      </trkpt>
      <trkpt lat="46.67563" lon="5.51273">
        <ele>250.6</ele>
        <time>2022-06-25T06:11:21Z</time>
      </trkpt>
      <trkpt lat="46.67563" lon="5.51263">
        <ele>250.6</ele>
        <time>2022-06-25T06:11:22Z</time>
      </trkpt>
      <trkpt lat="46.67563" lon="5.51253">
        <ele>250.6</ele>
        <time>2022-06-25T06:11:23Z</time>
      </trkpt>
      <trkpt lat="46.67564" lon="5.51242">
        <ele>250.4</ele>
        <time>2022-06-25T06:11:24Z</time>
      </trkpt>
      <trkpt lat="46.67565" lon="5.51232">
        <ele>250.4</ele>
        <time>2022-06-25T06:11:25Z</time>
      </trkpt>
      <trkpt lat="46.67565" lon="5.51222">
        <ele>250.4</ele>
        <time>2022-06-25T06:11:26Z</time>
      </trkpt>
      <trkpt lat="46.67566" lon="5.51212">
        <ele>250.4</ele>
        <time>2022-06-25T06:11:27Z</time>
      </trkpt>
      <trkpt lat="46.67566" lon="5.51203">
        <ele>250.2</ele>
        <time>2022-06-25T06:11:28Z</time>
      </trkpt>
      <trkpt lat="46.67567" lon="5.51193">
        <ele>250.2</ele>
        <time>2022-06-25T06:11:29Z</time>
      </trkpt>
      <trkpt lat="46.67567" lon="5.51183">
        <ele>250.2</ele>
        <time>2022-06-25T06:11:30Z</time>
      </trkpt>
      <trkpt lat="46.67568" lon="5.51172">
        <ele>250</ele>
        <time>2022-06-25T06:11:31Z</time>
      </trkpt>
      <trkpt lat="46.67568" lon="5.51161">
        <ele>250</ele>
        <time>2022-06-25T06:11:32Z</time>
      </trkpt>
      <trkpt lat="46.67569" lon="5.5115">
        <ele>249.6</ele>
        <time>2022-06-25T06:11:33Z</time>
      </trkpt>
      <trkpt lat="46.6757" lon="5.51137">
        <ele>249.6</ele>
        <time>2022-06-25T06:11:34Z</time>
      </trkpt>
      <trkpt lat="46.67571" lon="5.51125">
        <ele>249.6</ele>
        <time>2022-06-25T06:11:35Z</time>
      </trkpt>
      <trkpt lat="46.67571" lon="5.51113">
        <ele>249.4</ele>
        <time>2022-06-25T06:11:36Z</time>
      </trkpt>
      <trkpt lat="46.67572" lon="5.51101">
        <ele>249.4</ele>
        <time>2022-06-25T06:11:37Z</time>
      </trkpt>
      <trkpt lat="46.67573" lon="5.51089">
        <ele>249.4</ele>
        <time>2022-06-25T06:11:38Z</time>
      </trkpt>
      <trkpt lat="46.67574" lon="5.51078">
        <ele>249.4</ele>
        <time>2022-06-25T06:11:39Z</time>
      </trkpt>
      <trkpt lat="46.67574" lon="5.51067">
        <ele>249.4</ele>
        <time>2022-06-25T06:11:40Z</time>
      </trkpt>
      <trkpt lat="46.67574" lon="5.51056">
        <ele>249</ele>
        <time>2022-06-25T06:11:41Z</time>
      </trkpt>
      <trkpt lat="46.67575" lon="5.51045">
        <ele>249</ele>
        <time>2022-06-25T06:11:42Z</time>
      </trkpt>
      <trkpt lat="46.67576" lon="5.51034">
        <ele>249</ele>
        <time>2022-06-25T06:11:43Z</time>
      </trkpt>
      <trkpt lat="46.67577" lon="5.51023">
        <ele>248.8</ele>
        <time>2022-06-25T06:11:44Z</time>
      </trkpt>
      <trkpt lat="46.67577" lon="5.51013">
        <ele>248.8</ele>
        <time>2022-06-25T06:11:45Z</time>
      </trkpt>
      <trkpt lat="46.67578" lon="5.51002">
        <ele>248.8</ele>
        <time>2022-06-25T06:11:46Z</time>
      </trkpt>
      <trkpt lat="46.67579" lon="5.50992">
        <ele>248.6</ele>
        <time>2022-06-25T06:11:47Z</time>
      </trkpt>
      <trkpt lat="46.6758" lon="5.50981">
        <ele>248.6</ele>
        <time>2022-06-25T06:11:48Z</time>
      </trkpt>
      <trkpt lat="46.6758" lon="5.50971">
        <ele>248.6</ele>
        <time>2022-06-25T06:11:49Z</time>
      </trkpt>
      <trkpt lat="46.67581" lon="5.50961">
        <ele>248.6</ele>
        <time>2022-06-25T06:11:50Z</time>
      </trkpt>
      <trkpt lat="46.67582" lon="5.5095">
        <ele>248.6</ele>
        <time>2022-06-25T06:11:51Z</time>
      </trkpt>
      <trkpt lat="46.67583" lon="5.50941">
        <ele>248.6</ele>
        <time>2022-06-25T06:11:52Z</time>
      </trkpt>
      <trkpt lat="46.67583" lon="5.50931">
        <ele>248.6</ele>
        <time>2022-06-25T06:11:53Z</time>
      </trkpt>
      <trkpt lat="46.67584" lon="5.50921">
        <ele>248.6</ele>
        <time>2022-06-25T06:11:54Z</time>
      </trkpt>
      <trkpt lat="46.67585" lon="5.50911">
        <ele>248.6</ele>
        <time>2022-06-25T06:11:55Z</time>
      </trkpt>
      <trkpt lat="46.67586" lon="5.50901">
        <ele>248.2</ele>
        <time>2022-06-25T06:11:56Z</time>
      </trkpt>
      <trkpt lat="46.67587" lon="5.50891">
        <ele>248.2</ele>
        <time>2022-06-25T06:11:57Z</time>
      </trkpt>
      <trkpt lat="46.67588" lon="5.5088">
        <ele>248</ele>
        <time>2022-06-25T06:11:58Z</time>
      </trkpt>
      <trkpt lat="46.67588" lon="5.50869">
        <ele>248</ele>
        <time>2022-06-25T06:11:59Z</time>
      </trkpt>
      <trkpt lat="46.67589" lon="5.50858">
        <ele>247.8</ele>
        <time>2022-06-25T06:12:00Z</time>
      </trkpt>
      <trkpt lat="46.6759" lon="5.50846">
        <ele>247.8</ele>
        <time>2022-06-25T06:12:01Z</time>
      </trkpt>
      <trkpt lat="46.67591" lon="5.50835">
        <ele>247.4</ele>
        <time>2022-06-25T06:12:02Z</time>
      </trkpt>
      <trkpt lat="46.67592" lon="5.50823">
        <ele>247.4</ele>
        <time>2022-06-25T06:12:03Z</time>
      </trkpt>
      <trkpt lat="46.67593" lon="5.50812">
        <ele>247.4</ele>
        <time>2022-06-25T06:12:04Z</time>
      </trkpt>
      <trkpt lat="46.67593" lon="5.508">
        <ele>247.4</ele>
        <time>2022-06-25T06:12:05Z</time>
      </trkpt>
      <trkpt lat="46.67594" lon="5.50788">
        <ele>247.4</ele>
        <time>2022-06-25T06:12:06Z</time>
      </trkpt>
      <trkpt lat="46.67594" lon="5.50777">
        <ele>247.2</ele>
        <time>2022-06-25T06:12:07Z</time>
      </trkpt>
      <trkpt lat="46.67594" lon="5.50766">
        <ele>247.2</ele>
        <time>2022-06-25T06:12:08Z</time>
      </trkpt>
      <trkpt lat="46.67595" lon="5.50754">
        <ele>247.2</ele>
        <time>2022-06-25T06:12:09Z</time>
      </trkpt>
      <trkpt lat="46.67595" lon="5.50743">
        <ele>247</ele>
        <time>2022-06-25T06:12:10Z</time>
      </trkpt>
      <trkpt lat="46.67596" lon="5.50731">
        <ele>247</ele>
        <time>2022-06-25T06:12:11Z</time>
      </trkpt>
      <trkpt lat="46.67596" lon="5.5072">
        <ele>247</ele>
        <time>2022-06-25T06:12:12Z</time>
      </trkpt>
      <trkpt lat="46.67596" lon="5.50708">
        <ele>247</ele>
        <time>2022-06-25T06:12:13Z</time>
      </trkpt>
      <trkpt lat="46.67597" lon="5.50697">
        <ele>246.6</ele>
        <time>2022-06-25T06:12:14Z</time>
      </trkpt>
      <trkpt lat="46.67597" lon="5.50685">
        <ele>246.6</ele>
        <time>2022-06-25T06:12:15Z</time>
      </trkpt>
      <trkpt lat="46.67598" lon="5.50674">
        <ele>246.6</ele>
        <time>2022-06-25T06:12:16Z</time>
      </trkpt>
      <trkpt lat="46.67598" lon="5.50662">
        <ele>246.6</ele>
        <time>2022-06-25T06:12:17Z</time>
      </trkpt>
      <trkpt lat="46.67599" lon="5.50651">
        <ele>246.4</ele>
        <time>2022-06-25T06:12:18Z</time>
      </trkpt>
      <trkpt lat="46.67599" lon="5.5064">
        <ele>246.4</ele>
        <time>2022-06-25T06:12:19Z</time>
      </trkpt>
      <trkpt lat="46.676" lon="5.50628">
        <ele>246.2</ele>
        <time>2022-06-25T06:12:20Z</time>
      </trkpt>
      <trkpt lat="46.67601" lon="5.50617">
        <ele>246.2</ele>
        <time>2022-06-25T06:12:21Z</time>
      </trkpt>
      <trkpt lat="46.67602" lon="5.50605">
        <ele>246</ele>
        <time>2022-06-25T06:12:22Z</time>
      </trkpt>
      <trkpt lat="46.67602" lon="5.50594">
        <ele>246</ele>
        <time>2022-06-25T06:12:23Z</time>
      </trkpt>
      <trkpt lat="46.67603" lon="5.50582">
        <ele>246</ele>
        <time>2022-06-25T06:12:24Z</time>
      </trkpt>
      <trkpt lat="46.67604" lon="5.50571">
        <ele>246</ele>
        <time>2022-06-25T06:12:25Z</time>
      </trkpt>
      <trkpt lat="46.67604" lon="5.50559">
        <ele>245.8</ele>
        <time>2022-06-25T06:12:26Z</time>
      </trkpt>
      <trkpt lat="46.67605" lon="5.50548">
        <ele>245.8</ele>
        <time>2022-06-25T06:12:27Z</time>
      </trkpt>
      <trkpt lat="46.67605" lon="5.50536">
        <ele>245.4</ele>
        <time>2022-06-25T06:12:28Z</time>
      </trkpt>
      <trkpt lat="46.67606" lon="5.50524">
        <ele>245.4</ele>
        <time>2022-06-25T06:12:29Z</time>
      </trkpt>
      <trkpt lat="46.67607" lon="5.50513">
        <ele>245.4</ele>
        <time>2022-06-25T06:12:30Z</time>
      </trkpt>
      <trkpt lat="46.67607" lon="5.50501">
        <ele>245.2</ele>
        <time>2022-06-25T06:12:31Z</time>
      </trkpt>
      <trkpt lat="46.67608" lon="5.5049">
        <ele>245.2</ele>
        <time>2022-06-25T06:12:32Z</time>
      </trkpt>
      <trkpt lat="46.67609" lon="5.50478">
        <ele>245.2</ele>
        <time>2022-06-25T06:12:33Z</time>
      </trkpt>
      <trkpt lat="46.6761" lon="5.50466">
        <ele>245</ele>
        <time>2022-06-25T06:12:34Z</time>
      </trkpt>
      <trkpt lat="46.6761" lon="5.50455">
        <ele>245</ele>
        <time>2022-06-25T06:12:35Z</time>
      </trkpt>
      <trkpt lat="46.67611" lon="5.50443">
        <ele>245</ele>
        <time>2022-06-25T06:12:36Z</time>
      </trkpt>
      <trkpt lat="46.67611" lon="5.50432">
        <ele>244.6</ele>
        <time>2022-06-25T06:12:37Z</time>
      </trkpt>
      <trkpt lat="46.67612" lon="5.5042">
        <ele>244.6</ele>
        <time>2022-06-25T06:12:38Z</time>
      </trkpt>
      <trkpt lat="46.67613" lon="5.50409">
        <ele>244.4</ele>
        <time>2022-06-25T06:12:39Z</time>
      </trkpt>
      <trkpt lat="46.67614" lon="5.50397">
        <ele>244.4</ele>
        <time>2022-06-25T06:12:40Z</time>
      </trkpt>
      <trkpt lat="46.67614" lon="5.50386">
        <ele>244</ele>
        <time>2022-06-25T06:12:41Z</time>
      </trkpt>
      <trkpt lat="46.67615" lon="5.50374">
        <ele>244</ele>
        <time>2022-06-25T06:12:42Z</time>
      </trkpt>
      <trkpt lat="46.67615" lon="5.50363">
        <ele>244</ele>
        <time>2022-06-25T06:12:43Z</time>
      </trkpt>
      <trkpt lat="46.67615" lon="5.50351">
        <ele>243.8</ele>
        <time>2022-06-25T06:12:44Z</time>
      </trkpt>
      <trkpt lat="46.67615" lon="5.5034">
        <ele>243.8</ele>
        <time>2022-06-25T06:12:45Z</time>
      </trkpt>
      <trkpt lat="46.67615" lon="5.50328">
        <ele>243.8</ele>
        <time>2022-06-25T06:12:46Z</time>
      </trkpt>
      <trkpt lat="46.67615" lon="5.50317">
        <ele>243.8</ele>
        <time>2022-06-25T06:12:47Z</time>
      </trkpt>
      <trkpt lat="46.67616" lon="5.50306">
        <ele>243.6</ele>
        <time>2022-06-25T06:12:48Z</time>
      </trkpt>
      <trkpt lat="46.67616" lon="5.50295">
        <ele>243.6</ele>
        <time>2022-06-25T06:12:49Z</time>
      </trkpt>
      <trkpt lat="46.67615" lon="5.50284">
        <ele>243.4</ele>
        <time>2022-06-25T06:12:50Z</time>
      </trkpt>
      <trkpt lat="46.67615" lon="5.50274">
        <ele>243.4</ele>
        <time>2022-06-25T06:12:51Z</time>
      </trkpt>
      <trkpt lat="46.67614" lon="5.50263">
        <ele>243.4</ele>
        <time>2022-06-25T06:12:52Z</time>
      </trkpt>
      <trkpt lat="46.67614" lon="5.50252">
        <ele>243.4</ele>
        <time>2022-06-25T06:12:53Z</time>
      </trkpt>
      <trkpt lat="46.67614" lon="5.50241">
        <ele>243.2</ele>
        <time>2022-06-25T06:12:54Z</time>
      </trkpt>
      <trkpt lat="46.67613" lon="5.50231">
        <ele>243.2</ele>
        <time>2022-06-25T06:12:55Z</time>
      </trkpt>
      <trkpt lat="46.67612" lon="5.5022">
        <ele>243.2</ele>
        <time>2022-06-25T06:12:56Z</time>
      </trkpt>
      <trkpt lat="46.6761" lon="5.50209">
        <ele>243.2</ele>
        <time>2022-06-25T06:12:57Z</time>
      </trkpt>
      <trkpt lat="46.67609" lon="5.50199">
        <ele>243.2</ele>
        <time>2022-06-25T06:12:58Z</time>
      </trkpt>
      <trkpt lat="46.67608" lon="5.50188">
        <ele>243.2</ele>
        <time>2022-06-25T06:12:59Z</time>
      </trkpt>
      <trkpt lat="46.67606" lon="5.50178">
        <ele>242.8</ele>
        <time>2022-06-25T06:13:00Z</time>
      </trkpt>
      <trkpt lat="46.67605" lon="5.50168">
        <ele>242.8</ele>
        <time>2022-06-25T06:13:01Z</time>
      </trkpt>
      <trkpt lat="46.67603" lon="5.50157">
        <ele>242.6</ele>
        <time>2022-06-25T06:13:02Z</time>
      </trkpt>
      <trkpt lat="46.67602" lon="5.50147">
        <ele>242.6</ele>
        <time>2022-06-25T06:13:03Z</time>
      </trkpt>
      <trkpt lat="46.676" lon="5.50137">
        <ele>242.6</ele>
        <time>2022-06-25T06:13:04Z</time>
      </trkpt>
      <trkpt lat="46.67598" lon="5.50127">
        <ele>242.6</ele>
        <time>2022-06-25T06:13:05Z</time>
      </trkpt>
      <trkpt lat="46.67595" lon="5.50117">
        <ele>242.6</ele>
        <time>2022-06-25T06:13:06Z</time>
      </trkpt>
      <trkpt lat="46.67593" lon="5.50107">
        <ele>242.6</ele>
        <time>2022-06-25T06:13:07Z</time>
      </trkpt>
      <trkpt lat="46.67591" lon="5.50097">
        <ele>242.6</ele>
        <time>2022-06-25T06:13:08Z</time>
      </trkpt>
      <trkpt lat="46.67588" lon="5.50087">
        <ele>242.6</ele>
        <time>2022-06-25T06:13:09Z</time>
      </trkpt>
      <trkpt lat="46.67585" lon="5.50077">
        <ele>242.6</ele>
        <time>2022-06-25T06:13:10Z</time>
      </trkpt>
      <trkpt lat="46.67583" lon="5.50068">
        <ele>242.4</ele>
        <time>2022-06-25T06:13:11Z</time>
      </trkpt>
      <trkpt lat="46.6758" lon="5.50059">
        <ele>242.4</ele>
        <time>2022-06-25T06:13:12Z</time>
      </trkpt>
      <trkpt lat="46.67577" lon="5.5005">
        <ele>242.4</ele>
        <time>2022-06-25T06:13:13Z</time>
      </trkpt>
      <trkpt lat="46.67574" lon="5.5004">
        <ele>242.4</ele>
        <time>2022-06-25T06:13:14Z</time>
      </trkpt>
      <trkpt lat="46.67571" lon="5.50031">
        <ele>242.4</ele>
        <time>2022-06-25T06:13:15Z</time>
      </trkpt>
      <trkpt lat="46.67568" lon="5.50022">
        <ele>242.2</ele>
        <time>2022-06-25T06:13:16Z</time>
      </trkpt>
      <trkpt lat="46.67565" lon="5.50013">
        <ele>242.2</ele>
        <time>2022-06-25T06:13:17Z</time>
      </trkpt>
      <trkpt lat="46.67562" lon="5.50004">
        <ele>242.2</ele>
        <time>2022-06-25T06:13:18Z</time>
      </trkpt>
      <trkpt lat="46.67559" lon="5.49996">
        <ele>242.2</ele>
        <time>2022-06-25T06:13:19Z</time>
      </trkpt>
      <trkpt lat="46.67556" lon="5.49987">
        <ele>242.2</ele>
        <time>2022-06-25T06:13:20Z</time>
      </trkpt>
      <trkpt lat="46.67553" lon="5.49978">
        <ele>242.2</ele>
        <time>2022-06-25T06:13:21Z</time>
      </trkpt>
      <trkpt lat="46.6755" lon="5.4997">
        <ele>242.2</ele>
        <time>2022-06-25T06:13:22Z</time>
      </trkpt>
      <trkpt lat="46.67547" lon="5.49961">
        <ele>242.2</ele>
        <time>2022-06-25T06:13:23Z</time>
      </trkpt>
      <trkpt lat="46.67543" lon="5.49952">
        <ele>242.2</ele>
        <time>2022-06-25T06:13:24Z</time>
      </trkpt>
      <trkpt lat="46.6754" lon="5.49944">
        <ele>242.2</ele>
        <time>2022-06-25T06:13:25Z</time>
      </trkpt>
      <trkpt lat="46.67537" lon="5.49935">
        <ele>242.2</ele>
        <time>2022-06-25T06:13:26Z</time>
      </trkpt>
      <trkpt lat="46.67533" lon="5.49926">
        <ele>242.2</ele>
        <time>2022-06-25T06:13:27Z</time>
      </trkpt>
      <trkpt lat="46.6753" lon="5.49918">
        <ele>242.2</ele>
        <time>2022-06-25T06:13:28Z</time>
      </trkpt>
      <trkpt lat="46.67527" lon="5.49909">
        <ele>242.2</ele>
        <time>2022-06-25T06:13:29Z</time>
      </trkpt>
      <trkpt lat="46.67524" lon="5.499">
        <ele>242</ele>
        <time>2022-06-25T06:13:30Z</time>
      </trkpt>
      <trkpt lat="46.67521" lon="5.49891">
        <ele>242</ele>
        <time>2022-06-25T06:13:31Z</time>
      </trkpt>
      <trkpt lat="46.67518" lon="5.49882">
        <ele>241.8</ele>
        <time>2022-06-25T06:13:32Z</time>
      </trkpt>
      <trkpt lat="46.67515" lon="5.49873">
        <ele>241.8</ele>
        <time>2022-06-25T06:13:33Z</time>
      </trkpt>
      <trkpt lat="46.67512" lon="5.49864">
        <ele>241.8</ele>
        <time>2022-06-25T06:13:34Z</time>
      </trkpt>
      <trkpt lat="46.67508" lon="5.49856">
        <ele>241.8</ele>
        <time>2022-06-25T06:13:35Z</time>
      </trkpt>
      <trkpt lat="46.67506" lon="5.49847">
        <ele>241.8</ele>
        <time>2022-06-25T06:13:36Z</time>
      </trkpt>
      <trkpt lat="46.67503" lon="5.49837">
        <ele>241.8</ele>
        <time>2022-06-25T06:13:37Z</time>
      </trkpt>
      <trkpt lat="46.67501" lon="5.49828">
        <ele>241.6</ele>
        <time>2022-06-25T06:13:38Z</time>
      </trkpt>
      <trkpt lat="46.67498" lon="5.49819">
        <ele>241.6</ele>
        <time>2022-06-25T06:13:39Z</time>
      </trkpt>
      <trkpt lat="46.67495" lon="5.4981">
        <ele>241.6</ele>
        <time>2022-06-25T06:13:40Z</time>
      </trkpt>
      <trkpt lat="46.67493" lon="5.49801">
        <ele>241.6</ele>
        <time>2022-06-25T06:13:41Z</time>
      </trkpt>
      <trkpt lat="46.67491" lon="5.49792">
        <ele>241.6</ele>
        <time>2022-06-25T06:13:42Z</time>
      </trkpt>
      <trkpt lat="46.67488" lon="5.49783">
        <ele>241.6</ele>
        <time>2022-06-25T06:13:43Z</time>
      </trkpt>
      <trkpt lat="46.67486" lon="5.49774">
        <ele>241.6</ele>
        <time>2022-06-25T06:13:44Z</time>
      </trkpt>
      <trkpt lat="46.67484" lon="5.49765">
        <ele>241.6</ele>
        <time>2022-06-25T06:13:45Z</time>
      </trkpt>
      <trkpt lat="46.67482" lon="5.49756">
        <ele>241.6</ele>
        <time>2022-06-25T06:13:46Z</time>
      </trkpt>
      <trkpt lat="46.6748" lon="5.49746">
        <ele>241.6</ele>
        <time>2022-06-25T06:13:47Z</time>
      </trkpt>
      <trkpt lat="46.67479" lon="5.49737">
        <ele>241.6</ele>
        <time>2022-06-25T06:13:48Z</time>
      </trkpt>
      <trkpt lat="46.67477" lon="5.49728">
        <ele>241.6</ele>
        <time>2022-06-25T06:13:49Z</time>
      </trkpt>
      <trkpt lat="46.67476" lon="5.4972">
        <ele>241.6</ele>
        <time>2022-06-25T06:13:50Z</time>
      </trkpt>
      <trkpt lat="46.67475" lon="5.49712">
        <ele>241.6</ele>
        <time>2022-06-25T06:13:51Z</time>
      </trkpt>
      <trkpt lat="46.67473" lon="5.49703">
        <ele>241.6</ele>
        <time>2022-06-25T06:13:52Z</time>
      </trkpt>
      <trkpt lat="46.67472" lon="5.49694">
        <ele>241.6</ele>
        <time>2022-06-25T06:13:53Z</time>
      </trkpt>
      <trkpt lat="46.67471" lon="5.49685">
        <ele>241.6</ele>
        <time>2022-06-25T06:13:54Z</time>
      </trkpt>
      <trkpt lat="46.6747" lon="5.49676">
        <ele>241.6</ele>
        <time>2022-06-25T06:13:55Z</time>
      </trkpt>
      <trkpt lat="46.67469" lon="5.49667">
        <ele>241.6</ele>
        <time>2022-06-25T06:13:56Z</time>
      </trkpt>
      <trkpt lat="46.67469" lon="5.49658">
        <ele>241.8</ele>
        <time>2022-06-25T06:13:57Z</time>
      </trkpt>
      <trkpt lat="46.67468" lon="5.49649">
        <ele>241.8</ele>
        <time>2022-06-25T06:13:58Z</time>
      </trkpt>
      <trkpt lat="46.67467" lon="5.4964">
        <ele>241.8</ele>
        <time>2022-06-25T06:13:59Z</time>
      </trkpt>
      <trkpt lat="46.67466" lon="5.49631">
        <ele>241.8</ele>
        <time>2022-06-25T06:14:00Z</time>
      </trkpt>
      <trkpt lat="46.67466" lon="5.49622">
        <ele>241.8</ele>
        <time>2022-06-25T06:14:01Z</time>
      </trkpt>
      <trkpt lat="46.67465" lon="5.49614">
        <ele>241.8</ele>
        <time>2022-06-25T06:14:02Z</time>
      </trkpt>
      <trkpt lat="46.67465" lon="5.49605">
        <ele>241.8</ele>
        <time>2022-06-25T06:14:03Z</time>
      </trkpt>
      <trkpt lat="46.67465" lon="5.49597">
        <ele>241.8</ele>
        <time>2022-06-25T06:14:04Z</time>
      </trkpt>
      <trkpt lat="46.67465" lon="5.49589">
        <ele>241.6</ele>
        <time>2022-06-25T06:14:05Z</time>
      </trkpt>
      <trkpt lat="46.67465" lon="5.49582">
        <ele>241.6</ele>
        <time>2022-06-25T06:14:06Z</time>
      </trkpt>
      <trkpt lat="46.67464" lon="5.49574">
        <ele>241.6</ele>
        <time>2022-06-25T06:14:07Z</time>
      </trkpt>
      <trkpt lat="46.67464" lon="5.49566">
        <ele>241.6</ele>
        <time>2022-06-25T06:14:08Z</time>
      </trkpt>
      <trkpt lat="46.67464" lon="5.49559">
        <ele>241.6</ele>
        <time>2022-06-25T06:14:09Z</time>
      </trkpt>
      <trkpt lat="46.67464" lon="5.49552">
        <ele>241.6</ele>
        <time>2022-06-25T06:14:10Z</time>
      </trkpt>
      <trkpt lat="46.67464" lon="5.49545">
        <ele>241.6</ele>
        <time>2022-06-25T06:14:11Z</time>
      </trkpt>
      <trkpt lat="46.67464" lon="5.49539">
        <ele>241.6</ele>
        <time>2022-06-25T06:14:12Z</time>
      </trkpt>
      <trkpt lat="46.67464" lon="5.49534">
        <ele>241.6</ele>
        <time>2022-06-25T06:14:13Z</time>
      </trkpt>
      <trkpt lat="46.67464" lon="5.49529">
        <ele>241.6</ele>
        <time>2022-06-25T06:14:14Z</time>
      </trkpt>
      <trkpt lat="46.67464" lon="5.49524">
        <ele>241.6</ele>
        <time>2022-06-25T06:14:15Z</time>
      </trkpt>
      <trkpt lat="46.67463" lon="5.49519">
        <ele>241.6</ele>
        <time>2022-06-25T06:14:16Z</time>
      </trkpt>
      <trkpt lat="46.67461" lon="5.49515">
        <ele>241.6</ele>
        <time>2022-06-25T06:14:17Z</time>
      </trkpt>
      <trkpt lat="46.67459" lon="5.49513">
        <ele>241.6</ele>
        <time>2022-06-25T06:14:18Z</time>
      </trkpt>
      <trkpt lat="46.67455" lon="5.49512">
        <ele>241.6</ele>
        <time>2022-06-25T06:14:19Z</time>
      </trkpt>
      <trkpt lat="46.67452" lon="5.49513">
        <ele>241.6</ele>
        <time>2022-06-25T06:14:20Z</time>
      </trkpt>
      <trkpt lat="46.67448" lon="5.49515">
        <ele>241.6</ele>
        <time>2022-06-25T06:14:21Z</time>
      </trkpt>
      <trkpt lat="46.67444" lon="5.49518">
        <ele>241.6</ele>
        <time>2022-06-25T06:14:22Z</time>
      </trkpt>
      <trkpt lat="46.67442" lon="5.49522">
        <ele>241.6</ele>
        <time>2022-06-25T06:14:23Z</time>
      </trkpt>
      <trkpt lat="46.67439" lon="5.49525">
        <ele>241.4</ele>
        <time>2022-06-25T06:14:24Z</time>
      </trkpt>
      <trkpt lat="46.67436" lon="5.49527">
        <ele>241.4</ele>
        <time>2022-06-25T06:14:25Z</time>
      </trkpt>
      <trkpt lat="46.67433" lon="5.49526">
        <ele>241.2</ele>
        <time>2022-06-25T06:14:26Z</time>
      </trkpt>
      <trkpt lat="46.6743" lon="5.49524">
        <ele>241.2</ele>
        <time>2022-06-25T06:14:27Z</time>
      </trkpt>
      <trkpt lat="46.67427" lon="5.49519">
        <ele>240.8</ele>
        <time>2022-06-25T06:14:28Z</time>
      </trkpt>
      <trkpt lat="46.67425" lon="5.49513">
        <ele>240.8</ele>
        <time>2022-06-25T06:14:29Z</time>
      </trkpt>
      <trkpt lat="46.67423" lon="5.49505">
        <ele>240.4</ele>
        <time>2022-06-25T06:14:30Z</time>
      </trkpt>
      <trkpt lat="46.67421" lon="5.49498">
        <ele>240.4</ele>
        <time>2022-06-25T06:14:31Z</time>
      </trkpt>
      <trkpt lat="46.6742" lon="5.4949">
        <ele>240.2</ele>
        <time>2022-06-25T06:14:32Z</time>
      </trkpt>
      <trkpt lat="46.67419" lon="5.49482">
        <ele>240.2</ele>
        <time>2022-06-25T06:14:33Z</time>
      </trkpt>
      <trkpt lat="46.67417" lon="5.49474">
        <ele>240.2</ele>
        <time>2022-06-25T06:14:34Z</time>
      </trkpt>
      <trkpt lat="46.67415" lon="5.49465">
        <ele>240.2</ele>
        <time>2022-06-25T06:14:35Z</time>
      </trkpt>
      <trkpt lat="46.67413" lon="5.49457">
        <ele>240</ele>
        <time>2022-06-25T06:14:36Z</time>
      </trkpt>
      <trkpt lat="46.67412" lon="5.49449">
        <ele>240</ele>
        <time>2022-06-25T06:14:37Z</time>
      </trkpt>
      <trkpt lat="46.6741" lon="5.49441">
        <ele>240</ele>
        <time>2022-06-25T06:14:38Z</time>
      </trkpt>
      <trkpt lat="46.67409" lon="5.49432">
        <ele>240</ele>
        <time>2022-06-25T06:14:39Z</time>
      </trkpt>
      <trkpt lat="46.67407" lon="5.49423">
        <ele>240</ele>
        <time>2022-06-25T06:14:40Z</time>
      </trkpt>
      <trkpt lat="46.67405" lon="5.49415">
        <ele>240</ele>
        <time>2022-06-25T06:14:41Z</time>
      </trkpt>
      <trkpt lat="46.67403" lon="5.49406">
        <ele>239.8</ele>
        <time>2022-06-25T06:14:42Z</time>
      </trkpt>
      <trkpt lat="46.67401" lon="5.49397">
        <ele>239.8</ele>
        <time>2022-06-25T06:14:43Z</time>
      </trkpt>
      <trkpt lat="46.67399" lon="5.49388">
        <ele>239.8</ele>
        <time>2022-06-25T06:14:44Z</time>
      </trkpt>
      <trkpt lat="46.67396" lon="5.4938">
        <ele>239.8</ele>
        <time>2022-06-25T06:14:45Z</time>
      </trkpt>
      <trkpt lat="46.67393" lon="5.49371">
        <ele>239.8</ele>
        <time>2022-06-25T06:14:46Z</time>
      </trkpt>
      <trkpt lat="46.6739" lon="5.49362">
        <ele>239.6</ele>
        <time>2022-06-25T06:14:47Z</time>
      </trkpt>
      <trkpt lat="46.67387" lon="5.49354">
        <ele>239.6</ele>
        <time>2022-06-25T06:14:48Z</time>
      </trkpt>
      <trkpt lat="46.67383" lon="5.49346">
        <ele>239.4</ele>
        <time>2022-06-25T06:14:49Z</time>
      </trkpt>
      <trkpt lat="46.67379" lon="5.49338">
        <ele>239.4</ele>
        <time>2022-06-25T06:14:50Z</time>
      </trkpt>
      <trkpt lat="46.67375" lon="5.49331">
        <ele>239.4</ele>
        <time>2022-06-25T06:14:51Z</time>
      </trkpt>
      <trkpt lat="46.67371" lon="5.49323">
        <ele>239.4</ele>
        <time>2022-06-25T06:14:52Z</time>
      </trkpt>
      <trkpt lat="46.67367" lon="5.49315">
        <ele>239</ele>
        <time>2022-06-25T06:14:53Z</time>
      </trkpt>
      <trkpt lat="46.67363" lon="5.49307">
        <ele>239</ele>
        <time>2022-06-25T06:14:54Z</time>
      </trkpt>
      <trkpt lat="46.67359" lon="5.49299">
        <ele>239</ele>
        <time>2022-06-25T06:14:55Z</time>
      </trkpt>
      <trkpt lat="46.67355" lon="5.49291">
        <ele>239</ele>
        <time>2022-06-25T06:14:56Z</time>
      </trkpt>
      <trkpt lat="46.67351" lon="5.49283">
        <ele>239</ele>
        <time>2022-06-25T06:14:57Z</time>
      </trkpt>
      <trkpt lat="46.67347" lon="5.49275">
        <ele>238.8</ele>
        <time>2022-06-25T06:14:58Z</time>
      </trkpt>
      <trkpt lat="46.67343" lon="5.49267">
        <ele>238.8</ele>
        <time>2022-06-25T06:14:59Z</time>
      </trkpt>
      <trkpt lat="46.67338" lon="5.49259">
        <ele>238.8</ele>
        <time>2022-06-25T06:15:00Z</time>
      </trkpt>
      <trkpt lat="46.67334" lon="5.49251">
        <ele>238.6</ele>
        <time>2022-06-25T06:15:01Z</time>
      </trkpt>
      <trkpt lat="46.6733" lon="5.49243">
        <ele>238.6</ele>
        <time>2022-06-25T06:15:02Z</time>
      </trkpt>
      <trkpt lat="46.67325" lon="5.49235">
        <ele>238.6</ele>
        <time>2022-06-25T06:15:03Z</time>
      </trkpt>
      <trkpt lat="46.67321" lon="5.49227">
        <ele>238.2</ele>
        <time>2022-06-25T06:15:04Z</time>
      </trkpt>
      <trkpt lat="46.67316" lon="5.49219">
        <ele>238.2</ele>
        <time>2022-06-25T06:15:05Z</time>
      </trkpt>
      <trkpt lat="46.67312" lon="5.4921">
        <ele>238</ele>
        <time>2022-06-25T06:15:06Z</time>
      </trkpt>
      <trkpt lat="46.67307" lon="5.49202">
        <ele>238</ele>
        <time>2022-06-25T06:15:07Z</time>
      </trkpt>
      <trkpt lat="46.67302" lon="5.49194">
        <ele>238</ele>
        <time>2022-06-25T06:15:08Z</time>
      </trkpt>
      <trkpt lat="46.67297" lon="5.49186">
        <ele>237.8</ele>
        <time>2022-06-25T06:15:09Z</time>
      </trkpt>
      <trkpt lat="46.67293" lon="5.49177">
        <ele>237.8</ele>
        <time>2022-06-25T06:15:10Z</time>
      </trkpt>
      <trkpt lat="46.67288" lon="5.49168">
        <ele>237.8</ele>
        <time>2022-06-25T06:15:11Z</time>
      </trkpt>
      <trkpt lat="46.67284" lon="5.49159">
        <ele>237.4</ele>
        <time>2022-06-25T06:15:12Z</time>
      </trkpt>
      <trkpt lat="46.67279" lon="5.4915">
        <ele>237.4</ele>
        <time>2022-06-25T06:15:13Z</time>
      </trkpt>
      <trkpt lat="46.67275" lon="5.4914">
        <ele>237.2</ele>
        <time>2022-06-25T06:15:14Z</time>
      </trkpt>
      <trkpt lat="46.67271" lon="5.49131">
        <ele>237.2</ele>
        <time>2022-06-25T06:15:15Z</time>
      </trkpt>
      <trkpt lat="46.67267" lon="5.4912">
        <ele>237</ele>
        <time>2022-06-25T06:15:16Z</time>
      </trkpt>
      <trkpt lat="46.67264" lon="5.4911">
        <ele>237</ele>
        <time>2022-06-25T06:15:17Z</time>
      </trkpt>
      <trkpt lat="46.67261" lon="5.49099">
        <ele>236.6</ele>
        <time>2022-06-25T06:15:18Z</time>
      </trkpt>
      <trkpt lat="46.67259" lon="5.49088">
        <ele>236.4</ele>
        <time>2022-06-25T06:15:19Z</time>
      </trkpt>
      <trkpt lat="46.67257" lon="5.49076">
        <ele>236.4</ele>
        <time>2022-06-25T06:15:20Z</time>
      </trkpt>
      <trkpt lat="46.67255" lon="5.49065">
        <ele>236</ele>
        <time>2022-06-25T06:15:21Z</time>
      </trkpt>
      <trkpt lat="46.67254" lon="5.49054">
        <ele>236</ele>
        <time>2022-06-25T06:15:22Z</time>
      </trkpt>
      <trkpt lat="46.67253" lon="5.49043">
        <ele>235.8</ele>
        <time>2022-06-25T06:15:23Z</time>
      </trkpt>
      <trkpt lat="46.67252" lon="5.49033">
        <ele>235.4</ele>
        <time>2022-06-25T06:15:24Z</time>
      </trkpt>
      <trkpt lat="46.6725" lon="5.49023">
        <ele>235</ele>
        <time>2022-06-25T06:15:25Z</time>
      </trkpt>
      <trkpt lat="46.67247" lon="5.49013">
        <ele>234.6</ele>
        <time>2022-06-25T06:15:26Z</time>
      </trkpt>
      <trkpt lat="46.67244" lon="5.49003">
        <ele>234</ele>
        <time>2022-06-25T06:15:27Z</time>
      </trkpt>
      <trkpt lat="46.6724" lon="5.48993">
        <ele>233.6</ele>
        <time>2022-06-25T06:15:28Z</time>
      </trkpt>
      <trkpt lat="46.67237" lon="5.48985">
        <ele>233.2</ele>
        <time>2022-06-25T06:15:29Z</time>
      </trkpt>
      <trkpt lat="46.67233" lon="5.48977">
        <ele>232.8</ele>
        <time>2022-06-25T06:15:30Z</time>
      </trkpt>
      <trkpt lat="46.67228" lon="5.4897">
        <ele>232.4</ele>
        <time>2022-06-25T06:15:31Z</time>
      </trkpt>
      <trkpt lat="46.67225" lon="5.48962">
        <ele>232</ele>
        <time>2022-06-25T06:15:32Z</time>
      </trkpt>
      <trkpt lat="46.67221" lon="5.48954">
        <ele>231.6</ele>
        <time>2022-06-25T06:15:33Z</time>
      </trkpt>
      <trkpt lat="46.67218" lon="5.48946">
        <ele>231.2</ele>
        <time>2022-06-25T06:15:34Z</time>
      </trkpt>
      <trkpt lat="46.67215" lon="5.4894">
        <ele>230.8</ele>
        <time>2022-06-25T06:15:35Z</time>
      </trkpt>
      <trkpt lat="46.67212" lon="5.48935">
        <ele>230.2</ele>
        <time>2022-06-25T06:15:36Z</time>
      </trkpt>
      <trkpt lat="46.6721" lon="5.48931">
        <ele>229.8</ele>
        <time>2022-06-25T06:15:37Z</time>
      </trkpt>
      <trkpt lat="46.67208" lon="5.48928">
        <ele>229.4</ele>
        <time>2022-06-25T06:15:38Z</time>
      </trkpt>
      <trkpt lat="46.67205" lon="5.48928">
        <ele>229.2</ele>
        <time>2022-06-25T06:15:39Z</time>
      </trkpt>
      <trkpt lat="46.67203" lon="5.48928">
        <ele>229</ele>
        <time>2022-06-25T06:15:40Z</time>
      </trkpt>
      <trkpt lat="46.67201" lon="5.48931">
        <ele>229</ele>
        <time>2022-06-25T06:15:41Z</time>
      </trkpt>
      <trkpt lat="46.67199" lon="5.48935">
        <ele>228.4</ele>
        <time>2022-06-25T06:15:42Z</time>
      </trkpt>
      <trkpt lat="46.67198" lon="5.4894">
        <ele>228.4</ele>
        <time>2022-06-25T06:15:43Z</time>
      </trkpt>
      <trkpt lat="46.67196" lon="5.48946">
        <ele>228.2</ele>
        <time>2022-06-25T06:15:44Z</time>
      </trkpt>
      <trkpt lat="46.67194" lon="5.48951">
        <ele>228.2</ele>
        <time>2022-06-25T06:15:45Z</time>
      </trkpt>
      <trkpt lat="46.67192" lon="5.48958">
        <ele>228.2</ele>
        <time>2022-06-25T06:15:46Z</time>
      </trkpt>
      <trkpt lat="46.6719" lon="5.48964">
        <ele>228</ele>
        <time>2022-06-25T06:15:47Z</time>
      </trkpt>
      <trkpt lat="46.67187" lon="5.4897">
        <ele>228</ele>
        <time>2022-06-25T06:15:48Z</time>
      </trkpt>
      <trkpt lat="46.67185" lon="5.48976">
        <ele>228</ele>
        <time>2022-06-25T06:15:49Z</time>
      </trkpt>
      <trkpt lat="46.67183" lon="5.48982">
        <ele>228</ele>
        <time>2022-06-25T06:15:50Z</time>
      </trkpt>
      <trkpt lat="46.67181" lon="5.48988">
        <ele>227.6</ele>
        <time>2022-06-25T06:15:51Z</time>
      </trkpt>
      <trkpt lat="46.6718" lon="5.48993">
        <ele>227.6</ele>
        <time>2022-06-25T06:15:52Z</time>
      </trkpt>
      <trkpt lat="46.67178" lon="5.48997">
        <ele>227.4</ele>
        <time>2022-06-25T06:15:53Z</time>
      </trkpt>
      <trkpt lat="46.67175" lon="5.48998">
        <ele>227.4</ele>
        <time>2022-06-25T06:15:54Z</time>
      </trkpt>
      <trkpt lat="46.67171" lon="5.48996">
        <ele>227.4</ele>
        <time>2022-06-25T06:15:55Z</time>
      </trkpt>
      <trkpt lat="46.67169" lon="5.48992">
        <ele>227.4</ele>
        <time>2022-06-25T06:15:56Z</time>
      </trkpt>
      <trkpt lat="46.67167" lon="5.48987">
        <ele>227.2</ele>
        <time>2022-06-25T06:15:57Z</time>
      </trkpt>
      <trkpt lat="46.67165" lon="5.4898">
        <ele>227.2</ele>
        <time>2022-06-25T06:15:58Z</time>
      </trkpt>
      <trkpt lat="46.67164" lon="5.48973">
        <ele>227.2</ele>
        <time>2022-06-25T06:15:59Z</time>
      </trkpt>
      <trkpt lat="46.67162" lon="5.48965">
        <ele>227.2</ele>
        <time>2022-06-25T06:16:00Z</time>
      </trkpt>
      <trkpt lat="46.6716" lon="5.48958">
        <ele>227.2</ele>
        <time>2022-06-25T06:16:01Z</time>
      </trkpt>
      <trkpt lat="46.67159" lon="5.4895">
        <ele>227.2</ele>
        <time>2022-06-25T06:16:02Z</time>
      </trkpt>
      <trkpt lat="46.67156" lon="5.48943">
        <ele>227.2</ele>
        <time>2022-06-25T06:16:03Z</time>
      </trkpt>
      <trkpt lat="46.67154" lon="5.48935">
        <ele>227.2</ele>
        <time>2022-06-25T06:16:04Z</time>
      </trkpt>
      <trkpt lat="46.67152" lon="5.48927">
        <ele>227.2</ele>
        <time>2022-06-25T06:16:05Z</time>
      </trkpt>
      <trkpt lat="46.6715" lon="5.48918">
        <ele>227.2</ele>
        <time>2022-06-25T06:16:06Z</time>
      </trkpt>
      <trkpt lat="46.67147" lon="5.4891">
        <ele>227.2</ele>
        <time>2022-06-25T06:16:07Z</time>
      </trkpt>
      <trkpt lat="46.67144" lon="5.48902">
        <ele>227.2</ele>
        <time>2022-06-25T06:16:08Z</time>
      </trkpt>
      <trkpt lat="46.67142" lon="5.48894">
        <ele>227.2</ele>
        <time>2022-06-25T06:16:09Z</time>
      </trkpt>
      <trkpt lat="46.67139" lon="5.48886">
        <ele>227.2</ele>
        <time>2022-06-25T06:16:10Z</time>
      </trkpt>
      <trkpt lat="46.67137" lon="5.48877">
        <ele>227.4</ele>
        <time>2022-06-25T06:16:11Z</time>
      </trkpt>
      <trkpt lat="46.67134" lon="5.48869">
        <ele>227.4</ele>
        <time>2022-06-25T06:16:12Z</time>
      </trkpt>
      <trkpt lat="46.67132" lon="5.48862">
        <ele>227.4</ele>
        <time>2022-06-25T06:16:13Z</time>
      </trkpt>
      <trkpt lat="46.67129" lon="5.48854">
        <ele>227.8</ele>
        <time>2022-06-25T06:16:14Z</time>
      </trkpt>
      <trkpt lat="46.67127" lon="5.48847">
        <ele>227.8</ele>
        <time>2022-06-25T06:16:15Z</time>
      </trkpt>
      <trkpt lat="46.67124" lon="5.4884">
        <ele>227.8</ele>
        <time>2022-06-25T06:16:16Z</time>
      </trkpt>
      <trkpt lat="46.67121" lon="5.48833">
        <ele>228</ele>
        <time>2022-06-25T06:16:17Z</time>
      </trkpt>
      <trkpt lat="46.67119" lon="5.48825">
        <ele>228</ele>
        <time>2022-06-25T06:16:18Z</time>
      </trkpt>
      <trkpt lat="46.67116" lon="5.48818">
        <ele>228.4</ele>
        <time>2022-06-25T06:16:19Z</time>
      </trkpt>
      <trkpt lat="46.67114" lon="5.48811">
        <ele>228.4</ele>
        <time>2022-06-25T06:16:20Z</time>
      </trkpt>
      <trkpt lat="46.67112" lon="5.48804">
        <ele>228.6</ele>
        <time>2022-06-25T06:16:21Z</time>
      </trkpt>
      <trkpt lat="46.67109" lon="5.48796">
        <ele>228.6</ele>
        <time>2022-06-25T06:16:22Z</time>
      </trkpt>
      <trkpt lat="46.67107" lon="5.48789">
        <ele>229</ele>
        <time>2022-06-25T06:16:23Z</time>
      </trkpt>
      <trkpt lat="46.67105" lon="5.48781">
        <ele>229</ele>
        <time>2022-06-25T06:16:24Z</time>
      </trkpt>
      <trkpt lat="46.67102" lon="5.48774">
        <ele>229</ele>
        <time>2022-06-25T06:16:25Z</time>
      </trkpt>
      <trkpt lat="46.67099" lon="5.48766">
        <ele>229</ele>
        <time>2022-06-25T06:16:26Z</time>
      </trkpt>
      <trkpt lat="46.67096" lon="5.48758">
        <ele>229</ele>
        <time>2022-06-25T06:16:27Z</time>
      </trkpt>
      <trkpt lat="46.67093" lon="5.48751">
        <ele>229</ele>
        <time>2022-06-25T06:16:28Z</time>
      </trkpt>
      <trkpt lat="46.67089" lon="5.48743">
        <ele>229</ele>
        <time>2022-06-25T06:16:29Z</time>
      </trkpt>
      <trkpt lat="46.67085" lon="5.48736">
        <ele>229</ele>
        <time>2022-06-25T06:16:30Z</time>
      </trkpt>
      <trkpt lat="46.67081" lon="5.48729">
        <ele>229</ele>
        <time>2022-06-25T06:16:31Z</time>
      </trkpt>
      <trkpt lat="46.67078" lon="5.48721">
        <ele>229</ele>
        <time>2022-06-25T06:16:32Z</time>
      </trkpt>
      <trkpt lat="46.67074" lon="5.48714">
        <ele>229</ele>
        <time>2022-06-25T06:16:33Z</time>
      </trkpt>
      <trkpt lat="46.6707" lon="5.48706">
        <ele>229</ele>
        <time>2022-06-25T06:16:34Z</time>
      </trkpt>
      <trkpt lat="46.67066" lon="5.48699">
        <ele>229</ele>
        <time>2022-06-25T06:16:35Z</time>
      </trkpt>
      <trkpt lat="46.67062" lon="5.48692">
        <ele>229</ele>
        <time>2022-06-25T06:16:36Z</time>
      </trkpt>
      <trkpt lat="46.67058" lon="5.48684">
        <ele>229</ele>
        <time>2022-06-25T06:16:37Z</time>
      </trkpt>
      <trkpt lat="46.67054" lon="5.48677">
        <ele>229.2</ele>
        <time>2022-06-25T06:16:38Z</time>
      </trkpt>
      <trkpt lat="46.6705" lon="5.4867">
        <ele>229.2</ele>
        <time>2022-06-25T06:16:39Z</time>
      </trkpt>
      <trkpt lat="46.67046" lon="5.48662">
        <ele>229.2</ele>
        <time>2022-06-25T06:16:40Z</time>
      </trkpt>
      <trkpt lat="46.67043" lon="5.48655">
        <ele>229.2</ele>
        <time>2022-06-25T06:16:41Z</time>
      </trkpt>
      <trkpt lat="46.6704" lon="5.48647">
        <ele>229.2</ele>
        <time>2022-06-25T06:16:42Z</time>
      </trkpt>
      <trkpt lat="46.67037" lon="5.48639">
        <ele>229.2</ele>
        <time>2022-06-25T06:16:43Z</time>
      </trkpt>
      <trkpt lat="46.67034" lon="5.4863">
        <ele>229.2</ele>
        <time>2022-06-25T06:16:44Z</time>
      </trkpt>
      <trkpt lat="46.67031" lon="5.48622">
        <ele>229.2</ele>
        <time>2022-06-25T06:16:45Z</time>
      </trkpt>
      <trkpt lat="46.67028" lon="5.48613">
        <ele>229.2</ele>
        <time>2022-06-25T06:16:46Z</time>
      </trkpt>
      <trkpt lat="46.67025" lon="5.48605">
        <ele>229.2</ele>
        <time>2022-06-25T06:16:47Z</time>
      </trkpt>
      <trkpt lat="46.67022" lon="5.48597">
        <ele>229.2</ele>
        <time>2022-06-25T06:16:48Z</time>
      </trkpt>
      <trkpt lat="46.67019" lon="5.48588">
        <ele>229.2</ele>
        <time>2022-06-25T06:16:49Z</time>
      </trkpt>
      <trkpt lat="46.67016" lon="5.4858">
        <ele>229.2</ele>
        <time>2022-06-25T06:16:50Z</time>
      </trkpt>
      <trkpt lat="46.67013" lon="5.48571">
        <ele>229.2</ele>
        <time>2022-06-25T06:16:51Z</time>
      </trkpt>
      <trkpt lat="46.6701" lon="5.48563">
        <ele>229.2</ele>
        <time>2022-06-25T06:16:52Z</time>
      </trkpt>
      <trkpt lat="46.67007" lon="5.48554">
        <ele>229.2</ele>
        <time>2022-06-25T06:16:53Z</time>
      </trkpt>
      <trkpt lat="46.67004" lon="5.48545">
        <ele>229.2</ele>
        <time>2022-06-25T06:16:54Z</time>
      </trkpt>
      <trkpt lat="46.67001" lon="5.48537">
        <ele>229.2</ele>
        <time>2022-06-25T06:16:55Z</time>
      </trkpt>
      <trkpt lat="46.66998" lon="5.48528">
        <ele>229.2</ele>
        <time>2022-06-25T06:16:56Z</time>
      </trkpt>
      <trkpt lat="46.66995" lon="5.48519">
        <ele>229.2</ele>
        <time>2022-06-25T06:16:57Z</time>
      </trkpt>
      <trkpt lat="46.66993" lon="5.4851">
        <ele>229.2</ele>
        <time>2022-06-25T06:16:58Z</time>
      </trkpt>
      <trkpt lat="46.6699" lon="5.48501">
        <ele>229.2</ele>
        <time>2022-06-25T06:16:59Z</time>
      </trkpt>
      <trkpt lat="46.66987" lon="5.48492">
        <ele>229.2</ele>
        <time>2022-06-25T06:17:00Z</time>
      </trkpt>
      <trkpt lat="46.66984" lon="5.48483">
        <ele>229.2</ele>
        <time>2022-06-25T06:17:01Z</time>
      </trkpt>
      <trkpt lat="46.66982" lon="5.48474">
        <ele>229.2</ele>
        <time>2022-06-25T06:17:02Z</time>
      </trkpt>
      <trkpt lat="46.6698" lon="5.48465">
        <ele>229.2</ele>
        <time>2022-06-25T06:17:03Z</time>
      </trkpt>
      <trkpt lat="46.66977" lon="5.48457">
        <ele>229.4</ele>
        <time>2022-06-25T06:17:04Z</time>
      </trkpt>
      <trkpt lat="46.66975" lon="5.48448">
        <ele>229.4</ele>
        <time>2022-06-25T06:17:05Z</time>
      </trkpt>
      <trkpt lat="46.66972" lon="5.4844">
        <ele>229.6</ele>
        <time>2022-06-25T06:17:06Z</time>
      </trkpt>
      <trkpt lat="46.66969" lon="5.48432">
        <ele>229.6</ele>
        <time>2022-06-25T06:17:07Z</time>
      </trkpt>
      <trkpt lat="46.66966" lon="5.48425">
        <ele>229.8</ele>
        <time>2022-06-25T06:17:08Z</time>
      </trkpt>
      <trkpt lat="46.66963" lon="5.48417">
        <ele>229.8</ele>
        <time>2022-06-25T06:17:09Z</time>
      </trkpt>
      <trkpt lat="46.66959" lon="5.4841">
        <ele>230.2</ele>
        <time>2022-06-25T06:17:10Z</time>
      </trkpt>
      <trkpt lat="46.66956" lon="5.48403">
        <ele>230.4</ele>
        <time>2022-06-25T06:17:11Z</time>
      </trkpt>
      <trkpt lat="46.66953" lon="5.48396">
        <ele>230.4</ele>
        <time>2022-06-25T06:17:12Z</time>
      </trkpt>
      <trkpt lat="46.66949" lon="5.48389">
        <ele>230.8</ele>
        <time>2022-06-25T06:17:13Z</time>
      </trkpt>
      <trkpt lat="46.66946" lon="5.48383">
        <ele>230.8</ele>
        <time>2022-06-25T06:17:14Z</time>
      </trkpt>
      <trkpt lat="46.66943" lon="5.48377">
        <ele>231</ele>
        <time>2022-06-25T06:17:15Z</time>
      </trkpt>
      <trkpt lat="46.66939" lon="5.4837">
        <ele>231</ele>
        <time>2022-06-25T06:17:16Z</time>
      </trkpt>
      <trkpt lat="46.66936" lon="5.48364">
        <ele>231.4</ele>
        <time>2022-06-25T06:17:17Z</time>
      </trkpt>
      <trkpt lat="46.66933" lon="5.48357">
        <ele>231.4</ele>
        <time>2022-06-25T06:17:18Z</time>
      </trkpt>
      <trkpt lat="46.66929" lon="5.48351">
        <ele>231.6</ele>
        <time>2022-06-25T06:17:19Z</time>
      </trkpt>
      <trkpt lat="46.66926" lon="5.48345">
        <ele>231.6</ele>
        <time>2022-06-25T06:17:20Z</time>
      </trkpt>
      <trkpt lat="46.66922" lon="5.48338">
        <ele>232</ele>
        <time>2022-06-25T06:17:21Z</time>
      </trkpt>
      <trkpt lat="46.66919" lon="5.48332">
        <ele>232</ele>
        <time>2022-06-25T06:17:22Z</time>
      </trkpt>
      <trkpt lat="46.66916" lon="5.48325">
        <ele>232.2</ele>
        <time>2022-06-25T06:17:23Z</time>
      </trkpt>
      <trkpt lat="46.66913" lon="5.48318">
        <ele>232.2</ele>
        <time>2022-06-25T06:17:24Z</time>
      </trkpt>
      <trkpt lat="46.6691" lon="5.48311">
        <ele>232.2</ele>
        <time>2022-06-25T06:17:25Z</time>
      </trkpt>
      <trkpt lat="46.66907" lon="5.48304">
        <ele>232.4</ele>
        <time>2022-06-25T06:17:26Z</time>
      </trkpt>
      <trkpt lat="46.66905" lon="5.48296">
        <ele>232.4</ele>
        <time>2022-06-25T06:17:27Z</time>
      </trkpt>
      <trkpt lat="46.66903" lon="5.48289">
        <ele>232.4</ele>
        <time>2022-06-25T06:17:28Z</time>
      </trkpt>
      <trkpt lat="46.66901" lon="5.4828">
        <ele>232.4</ele>
        <time>2022-06-25T06:17:29Z</time>
      </trkpt>
      <trkpt lat="46.66899" lon="5.48272">
        <ele>232.4</ele>
        <time>2022-06-25T06:17:30Z</time>
      </trkpt>
      <trkpt lat="46.66898" lon="5.48264">
        <ele>232.8</ele>
        <time>2022-06-25T06:17:31Z</time>
      </trkpt>
      <trkpt lat="46.66897" lon="5.48256">
        <ele>232.8</ele>
        <time>2022-06-25T06:17:32Z</time>
      </trkpt>
      <trkpt lat="46.66896" lon="5.48247">
        <ele>232.8</ele>
        <time>2022-06-25T06:17:33Z</time>
      </trkpt>
      <trkpt lat="46.66895" lon="5.48239">
        <ele>232.8</ele>
        <time>2022-06-25T06:17:34Z</time>
      </trkpt>
      <trkpt lat="46.66894" lon="5.48231">
        <ele>232.8</ele>
        <time>2022-06-25T06:17:35Z</time>
      </trkpt>
      <trkpt lat="46.66892" lon="5.48223">
        <ele>232.8</ele>
        <time>2022-06-25T06:17:36Z</time>
      </trkpt>
      <trkpt lat="46.66891" lon="5.48215">
        <ele>232.8</ele>
        <time>2022-06-25T06:17:37Z</time>
      </trkpt>
      <trkpt lat="46.6689" lon="5.48207">
        <ele>232.8</ele>
        <time>2022-06-25T06:17:38Z</time>
      </trkpt>
      <trkpt lat="46.66889" lon="5.48198">
        <ele>232.8</ele>
        <time>2022-06-25T06:17:39Z</time>
      </trkpt>
      <trkpt lat="46.66888" lon="5.4819">
        <ele>233</ele>
        <time>2022-06-25T06:17:40Z</time>
      </trkpt>
      <trkpt lat="46.66888" lon="5.48183">
        <ele>233</ele>
        <time>2022-06-25T06:17:41Z</time>
      </trkpt>
      <trkpt lat="46.66886" lon="5.48175">
        <ele>233</ele>
        <time>2022-06-25T06:17:42Z</time>
      </trkpt>
      <trkpt lat="46.66884" lon="5.48169">
        <ele>233</ele>
        <time>2022-06-25T06:17:43Z</time>
      </trkpt>
      <trkpt lat="46.6688" lon="5.48163">
        <ele>233</ele>
        <time>2022-06-25T06:17:44Z</time>
      </trkpt>
      <trkpt lat="46.66876" lon="5.48158">
        <ele>233</ele>
        <time>2022-06-25T06:17:45Z</time>
      </trkpt>
      <trkpt lat="46.66872" lon="5.48153">
        <ele>233</ele>
        <time>2022-06-25T06:17:46Z</time>
      </trkpt>
      <trkpt lat="46.66867" lon="5.48148">
        <ele>233</ele>
        <time>2022-06-25T06:17:47Z</time>
      </trkpt>
      <trkpt lat="46.66863" lon="5.48143">
        <ele>233</ele>
        <time>2022-06-25T06:17:48Z</time>
      </trkpt>
      <trkpt lat="46.66858" lon="5.48138">
        <ele>233</ele>
        <time>2022-06-25T06:17:49Z</time>
      </trkpt>
      <trkpt lat="46.66854" lon="5.48133">
        <ele>233</ele>
        <time>2022-06-25T06:17:50Z</time>
      </trkpt>
      <trkpt lat="46.66849" lon="5.48128">
        <ele>233</ele>
        <time>2022-06-25T06:17:51Z</time>
      </trkpt>
      <trkpt lat="46.66844" lon="5.48123">
        <ele>233.2</ele>
        <time>2022-06-25T06:17:52Z</time>
      </trkpt>
      <trkpt lat="46.66839" lon="5.48119">
        <ele>233.2</ele>
        <time>2022-06-25T06:17:53Z</time>
      </trkpt>
      <trkpt lat="46.66833" lon="5.48115">
        <ele>233.2</ele>
        <time>2022-06-25T06:17:54Z</time>
      </trkpt>
      <trkpt lat="46.66827" lon="5.48112">
        <ele>233.2</ele>
        <time>2022-06-25T06:17:55Z</time>
      </trkpt>
      <trkpt lat="46.66821" lon="5.48109">
        <ele>233.2</ele>
        <time>2022-06-25T06:17:56Z</time>
      </trkpt>
      <trkpt lat="46.66815" lon="5.48106">
        <ele>233.4</ele>
        <time>2022-06-25T06:17:57Z</time>
      </trkpt>
      <trkpt lat="46.66809" lon="5.48103">
        <ele>233.4</ele>
        <time>2022-06-25T06:17:58Z</time>
      </trkpt>
      <trkpt lat="46.66803" lon="5.481">
        <ele>233.4</ele>
        <time>2022-06-25T06:17:59Z</time>
      </trkpt>
      <trkpt lat="46.66797" lon="5.48097">
        <ele>233.4</ele>
        <time>2022-06-25T06:18:00Z</time>
      </trkpt>
      <trkpt lat="46.66791" lon="5.48094">
        <ele>233.4</ele>
        <time>2022-06-25T06:18:01Z</time>
      </trkpt>
      <trkpt lat="46.66785" lon="5.48091">
        <ele>233.4</ele>
        <time>2022-06-25T06:18:02Z</time>
      </trkpt>
      <trkpt lat="46.66779" lon="5.48088">
        <ele>233.4</ele>
        <time>2022-06-25T06:18:03Z</time>
      </trkpt>
      <trkpt lat="46.66773" lon="5.48085">
        <ele>233.4</ele>
        <time>2022-06-25T06:18:04Z</time>
      </trkpt>
      <trkpt lat="46.66767" lon="5.48082">
        <ele>233.4</ele>
        <time>2022-06-25T06:18:05Z</time>
      </trkpt>
      <trkpt lat="46.66761" lon="5.48079">
        <ele>233.4</ele>
        <time>2022-06-25T06:18:06Z</time>
      </trkpt>
      <trkpt lat="46.66755" lon="5.48076">
        <ele>233.4</ele>
        <time>2022-06-25T06:18:07Z</time>
      </trkpt>
      <trkpt lat="46.66749" lon="5.48073">
        <ele>233.4</ele>
        <time>2022-06-25T06:18:08Z</time>
      </trkpt>
      <trkpt lat="46.66743" lon="5.48069">
        <ele>233.4</ele>
        <time>2022-06-25T06:18:09Z</time>
      </trkpt>
      <trkpt lat="46.66737" lon="5.48066">
        <ele>233.4</ele>
        <time>2022-06-25T06:18:10Z</time>
      </trkpt>
      <trkpt lat="46.6673" lon="5.48063">
        <ele>233.4</ele>
        <time>2022-06-25T06:18:11Z</time>
      </trkpt>
      <trkpt lat="46.66724" lon="5.4806">
        <ele>233.4</ele>
        <time>2022-06-25T06:18:12Z</time>
      </trkpt>
      <trkpt lat="46.66718" lon="5.48057">
        <ele>233.4</ele>
        <time>2022-06-25T06:18:13Z</time>
      </trkpt>
      <trkpt lat="46.66712" lon="5.48053">
        <ele>233.4</ele>
        <time>2022-06-25T06:18:14Z</time>
      </trkpt>
      <trkpt lat="46.66706" lon="5.4805">
        <ele>233.2</ele>
        <time>2022-06-25T06:18:15Z</time>
      </trkpt>
      <trkpt lat="46.66699" lon="5.48047">
        <ele>233.2</ele>
        <time>2022-06-25T06:18:16Z</time>
      </trkpt>
      <trkpt lat="46.66693" lon="5.48043">
        <ele>233.2</ele>
        <time>2022-06-25T06:18:17Z</time>
      </trkpt>
      <trkpt lat="46.66687" lon="5.4804">
        <ele>233.2</ele>
        <time>2022-06-25T06:18:18Z</time>
      </trkpt>
      <trkpt lat="46.6668" lon="5.48036">
        <ele>233.2</ele>
        <time>2022-06-25T06:18:19Z</time>
      </trkpt>
      <trkpt lat="46.66674" lon="5.48033">
        <ele>233.2</ele>
        <time>2022-06-25T06:18:20Z</time>
      </trkpt>
      <trkpt lat="46.66668" lon="5.48029">
        <ele>233.2</ele>
        <time>2022-06-25T06:18:21Z</time>
      </trkpt>
      <trkpt lat="46.66661" lon="5.48026">
        <ele>233.2</ele>
        <time>2022-06-25T06:18:22Z</time>
      </trkpt>
      <trkpt lat="46.66655" lon="5.48023">
        <ele>233.2</ele>
        <time>2022-06-25T06:18:23Z</time>
      </trkpt>
      <trkpt lat="46.66648" lon="5.4802">
        <ele>233.2</ele>
        <time>2022-06-25T06:18:24Z</time>
      </trkpt>
      <trkpt lat="46.66642" lon="5.48016">
        <ele>233.2</ele>
        <time>2022-06-25T06:18:25Z</time>
      </trkpt>
      <trkpt lat="46.66635" lon="5.48013">
        <ele>233.2</ele>
        <time>2022-06-25T06:18:26Z</time>
      </trkpt>
      <trkpt lat="46.66629" lon="5.4801">
        <ele>233.2</ele>
        <time>2022-06-25T06:18:27Z</time>
      </trkpt>
      <trkpt lat="46.66623" lon="5.48007">
        <ele>233.2</ele>
        <time>2022-06-25T06:18:28Z</time>
      </trkpt>
      <trkpt lat="46.66616" lon="5.48003">
        <ele>233.2</ele>
        <time>2022-06-25T06:18:29Z</time>
      </trkpt>
      <trkpt lat="46.6661" lon="5.48">
        <ele>233</ele>
        <time>2022-06-25T06:18:30Z</time>
      </trkpt>
      <trkpt lat="46.66604" lon="5.47996">
        <ele>233</ele>
        <time>2022-06-25T06:18:31Z</time>
      </trkpt>
      <trkpt lat="46.66597" lon="5.47993">
        <ele>232.8</ele>
        <time>2022-06-25T06:18:32Z</time>
      </trkpt>
      <trkpt lat="46.66591" lon="5.47989">
        <ele>232.8</ele>
        <time>2022-06-25T06:18:33Z</time>
      </trkpt>
      <trkpt lat="46.66585" lon="5.47987">
        <ele>232.8</ele>
        <time>2022-06-25T06:18:34Z</time>
      </trkpt>
      <trkpt lat="46.6658" lon="5.47984">
        <ele>232.6</ele>
        <time>2022-06-25T06:18:35Z</time>
      </trkpt>
      <trkpt lat="46.66574" lon="5.47982">
        <ele>232.4</ele>
        <time>2022-06-25T06:18:36Z</time>
      </trkpt>
      <trkpt lat="46.6657" lon="5.47979">
        <ele>232.4</ele>
        <time>2022-06-25T06:18:37Z</time>
      </trkpt>
      <trkpt lat="46.66567" lon="5.47975">
        <ele>232.2</ele>
        <time>2022-06-25T06:18:38Z</time>
      </trkpt>
      <trkpt lat="46.66565" lon="5.47969">
        <ele>232.2</ele>
        <time>2022-06-25T06:18:39Z</time>
      </trkpt>
      <trkpt lat="46.66565" lon="5.47962">
        <ele>232.2</ele>
        <time>2022-06-25T06:18:40Z</time>
      </trkpt>
      <trkpt lat="46.66565" lon="5.47955">
        <ele>232.2</ele>
        <time>2022-06-25T06:18:41Z</time>
      </trkpt>
      <trkpt lat="46.66566" lon="5.47948">
        <ele>231.8</ele>
        <time>2022-06-25T06:18:42Z</time>
      </trkpt>
      <trkpt lat="46.66568" lon="5.47941">
        <ele>231.8</ele>
        <time>2022-06-25T06:18:43Z</time>
      </trkpt>
      <trkpt lat="46.66569" lon="5.47934">
        <ele>231.8</ele>
        <time>2022-06-25T06:18:44Z</time>
      </trkpt>
      <trkpt lat="46.6657" lon="5.47926">
        <ele>231.8</ele>
        <time>2022-06-25T06:18:45Z</time>
      </trkpt>
      <trkpt lat="46.66571" lon="5.47918">
        <ele>231.8</ele>
        <time>2022-06-25T06:18:46Z</time>
      </trkpt>
      <trkpt lat="46.66572" lon="5.47911">
        <ele>231.6</ele>
        <time>2022-06-25T06:18:47Z</time>
      </trkpt>
      <trkpt lat="46.66574" lon="5.47903">
        <ele>231.6</ele>
        <time>2022-06-25T06:18:48Z</time>
      </trkpt>
      <trkpt lat="46.66575" lon="5.47895">
        <ele>231.6</ele>
        <time>2022-06-25T06:18:49Z</time>
      </trkpt>
      <trkpt lat="46.66576" lon="5.47887">
        <ele>231.6</ele>
        <time>2022-06-25T06:18:50Z</time>
      </trkpt>
      <trkpt lat="46.66578" lon="5.47879">
        <ele>231.6</ele>
        <time>2022-06-25T06:18:51Z</time>
      </trkpt>
      <trkpt lat="46.66579" lon="5.47871">
        <ele>231.6</ele>
        <time>2022-06-25T06:18:52Z</time>
      </trkpt>
      <trkpt lat="46.6658" lon="5.47863">
        <ele>231.6</ele>
        <time>2022-06-25T06:18:53Z</time>
      </trkpt>
      <trkpt lat="46.66581" lon="5.47855">
        <ele>231.6</ele>
        <time>2022-06-25T06:18:54Z</time>
      </trkpt>
      <trkpt lat="46.66582" lon="5.47847">
        <ele>231.6</ele>
        <time>2022-06-25T06:18:55Z</time>
      </trkpt>
      <trkpt lat="46.66583" lon="5.47839">
        <ele>231.6</ele>
        <time>2022-06-25T06:18:56Z</time>
      </trkpt>
      <trkpt lat="46.66584" lon="5.4783">
        <ele>231.6</ele>
        <time>2022-06-25T06:18:57Z</time>
      </trkpt>
      <trkpt lat="46.66586" lon="5.47822">
        <ele>231.6</ele>
        <time>2022-06-25T06:18:58Z</time>
      </trkpt>
      <trkpt lat="46.66587" lon="5.47814">
        <ele>231.6</ele>
        <time>2022-06-25T06:18:59Z</time>
      </trkpt>
      <trkpt lat="46.66588" lon="5.47806">
        <ele>232</ele>
        <time>2022-06-25T06:19:00Z</time>
      </trkpt>
      <trkpt lat="46.66591" lon="5.47789">
        <ele>232</ele>
        <time>2022-06-25T06:19:01Z</time>
      </trkpt>
      <trkpt lat="46.66592" lon="5.47781">
        <ele>232</ele>
        <time>2022-06-25T06:19:02Z</time>
      </trkpt>
      <trkpt lat="46.66594" lon="5.47772">
        <ele>231.6</ele>
        <time>2022-06-25T06:19:03Z</time>
      </trkpt>
      <trkpt lat="46.66595" lon="5.47764">
        <ele>231.6</ele>
        <time>2022-06-25T06:19:04Z</time>
      </trkpt>
      <trkpt lat="46.66597" lon="5.47755">
        <ele>231.6</ele>
        <time>2022-06-25T06:19:05Z</time>
      </trkpt>
      <trkpt lat="46.66598" lon="5.47747">
        <ele>231.6</ele>
        <time>2022-06-25T06:19:06Z</time>
      </trkpt>
      <trkpt lat="46.666" lon="5.47739">
        <ele>231.6</ele>
        <time>2022-06-25T06:19:07Z</time>
      </trkpt>
      <trkpt lat="46.66601" lon="5.4773">
        <ele>231.6</ele>
        <time>2022-06-25T06:19:08Z</time>
      </trkpt>
      <trkpt lat="46.66603" lon="5.47722">
        <ele>231.6</ele>
        <time>2022-06-25T06:19:09Z</time>
      </trkpt>
      <trkpt lat="46.66604" lon="5.47715">
        <ele>231.6</ele>
        <time>2022-06-25T06:19:10Z</time>
      </trkpt>
      <trkpt lat="46.66605" lon="5.47707">
        <ele>231.6</ele>
        <time>2022-06-25T06:19:11Z</time>
      </trkpt>
      <trkpt lat="46.66606" lon="5.47699">
        <ele>231.6</ele>
        <time>2022-06-25T06:19:12Z</time>
      </trkpt>
      <trkpt lat="46.66608" lon="5.47691">
        <ele>231.6</ele>
        <time>2022-06-25T06:19:13Z</time>
      </trkpt>
      <trkpt lat="46.66609" lon="5.47684">
        <ele>231.6</ele>
        <time>2022-06-25T06:19:14Z</time>
      </trkpt>
      <trkpt lat="46.6661" lon="5.47676">
        <ele>231.6</ele>
        <time>2022-06-25T06:19:15Z</time>
      </trkpt>
      <trkpt lat="46.66612" lon="5.47669">
        <ele>231.6</ele>
        <time>2022-06-25T06:19:16Z</time>
      </trkpt>
      <trkpt lat="46.66613" lon="5.47661">
        <ele>231.4</ele>
        <time>2022-06-25T06:19:17Z</time>
      </trkpt>
      <trkpt lat="46.66614" lon="5.47654">
        <ele>231.4</ele>
        <time>2022-06-25T06:19:18Z</time>
      </trkpt>
      <trkpt lat="46.66615" lon="5.47645">
        <ele>231.4</ele>
        <time>2022-06-25T06:19:19Z</time>
      </trkpt>
      <trkpt lat="46.66616" lon="5.47637">
        <ele>231.4</ele>
        <time>2022-06-25T06:19:20Z</time>
      </trkpt>
      <trkpt lat="46.66617" lon="5.47629">
        <ele>231.4</ele>
        <time>2022-06-25T06:19:21Z</time>
      </trkpt>
      <trkpt lat="46.66619" lon="5.47621">
        <ele>231.4</ele>
        <time>2022-06-25T06:19:22Z</time>
      </trkpt>
      <trkpt lat="46.66621" lon="5.47612">
        <ele>231</ele>
        <time>2022-06-25T06:19:24Z</time>
      </trkpt>
      <trkpt lat="46.66622" lon="5.47603">
        <ele>230.8</ele>
        <time>2022-06-25T06:19:25Z</time>
      </trkpt>
      <trkpt lat="46.66624" lon="5.47593">
        <ele>230.8</ele>
        <time>2022-06-25T06:19:26Z</time>
      </trkpt>
      <trkpt lat="46.66625" lon="5.47584">
        <ele>230.4</ele>
        <time>2022-06-25T06:19:27Z</time>
      </trkpt>
      <trkpt lat="46.66627" lon="5.47573">
        <ele>230.2</ele>
        <time>2022-06-25T06:19:28Z</time>
      </trkpt>
      <trkpt lat="46.66628" lon="5.47562">
        <ele>229.8</ele>
        <time>2022-06-25T06:19:29Z</time>
      </trkpt>
      <trkpt lat="46.66631" lon="5.47552">
        <ele>229.4</ele>
        <time>2022-06-25T06:19:30Z</time>
      </trkpt>
      <trkpt lat="46.66634" lon="5.47541">
        <ele>229.2</ele>
        <time>2022-06-25T06:19:31Z</time>
      </trkpt>
      <trkpt lat="46.66638" lon="5.4753">
        <ele>228.8</ele>
        <time>2022-06-25T06:19:32Z</time>
      </trkpt>
      <trkpt lat="46.66642" lon="5.47518">
        <ele>228.4</ele>
        <time>2022-06-25T06:19:33Z</time>
      </trkpt>
      <trkpt lat="46.66647" lon="5.47506">
        <ele>227.8</ele>
        <time>2022-06-25T06:19:34Z</time>
      </trkpt>
      <trkpt lat="46.66653" lon="5.47494">
        <ele>227.4</ele>
        <time>2022-06-25T06:19:35Z</time>
      </trkpt>
      <trkpt lat="46.66658" lon="5.47481">
        <ele>226.8</ele>
        <time>2022-06-25T06:19:36Z</time>
      </trkpt>
      <trkpt lat="46.66664" lon="5.47469">
        <ele>226.4</ele>
        <time>2022-06-25T06:19:37Z</time>
      </trkpt>
      <trkpt lat="46.66669" lon="5.47456">
        <ele>226</ele>
        <time>2022-06-25T06:19:38Z</time>
      </trkpt>
      <trkpt lat="46.66676" lon="5.47445">
        <ele>225.6</ele>
        <time>2022-06-25T06:19:39Z</time>
      </trkpt>
      <trkpt lat="46.66683" lon="5.47432">
        <ele>225.2</ele>
        <time>2022-06-25T06:19:40Z</time>
      </trkpt>
      <trkpt lat="46.6669" lon="5.47422">
        <ele>224.8</ele>
        <time>2022-06-25T06:19:41Z</time>
      </trkpt>
      <trkpt lat="46.66697" lon="5.47411">
        <ele>224.4</ele>
        <time>2022-06-25T06:19:42Z</time>
      </trkpt>
      <trkpt lat="46.66704" lon="5.47401">
        <ele>224.4</ele>
        <time>2022-06-25T06:19:43Z</time>
      </trkpt>
      <trkpt lat="46.66712" lon="5.47394">
        <ele>224.2</ele>
        <time>2022-06-25T06:19:44Z</time>
      </trkpt>
      <trkpt lat="46.66718" lon="5.47386">
        <ele>224.2</ele>
        <time>2022-06-25T06:19:45Z</time>
      </trkpt>
      <trkpt lat="46.66725" lon="5.47378">
        <ele>224.2</ele>
        <time>2022-06-25T06:19:46Z</time>
      </trkpt>
      <trkpt lat="46.66732" lon="5.47371">
        <ele>223.8</ele>
        <time>2022-06-25T06:19:47Z</time>
      </trkpt>
      <trkpt lat="46.66738" lon="5.47364">
        <ele>223.8</ele>
        <time>2022-06-25T06:19:48Z</time>
      </trkpt>
      <trkpt lat="46.66743" lon="5.47357">
        <ele>223.8</ele>
        <time>2022-06-25T06:19:49Z</time>
      </trkpt>
      <trkpt lat="46.66748" lon="5.47349">
        <ele>223.6</ele>
        <time>2022-06-25T06:19:50Z</time>
      </trkpt>
      <trkpt lat="46.66752" lon="5.47342">
        <ele>223.6</ele>
        <time>2022-06-25T06:19:51Z</time>
      </trkpt>
      <trkpt lat="46.66756" lon="5.47334">
        <ele>223.6</ele>
        <time>2022-06-25T06:19:52Z</time>
      </trkpt>
      <trkpt lat="46.6676" lon="5.47326">
        <ele>223.6</ele>
        <time>2022-06-25T06:19:53Z</time>
      </trkpt>
      <trkpt lat="46.66762" lon="5.47317">
        <ele>223.6</ele>
        <time>2022-06-25T06:19:54Z</time>
      </trkpt>
      <trkpt lat="46.66763" lon="5.47308">
        <ele>223.6</ele>
        <time>2022-06-25T06:19:55Z</time>
      </trkpt>
      <trkpt lat="46.66763" lon="5.47299">
        <ele>223.8</ele>
        <time>2022-06-25T06:19:56Z</time>
      </trkpt>
      <trkpt lat="46.66763" lon="5.47291">
        <ele>223.8</ele>
        <time>2022-06-25T06:19:57Z</time>
      </trkpt>
      <trkpt lat="46.66762" lon="5.47283">
        <ele>224.2</ele>
        <time>2022-06-25T06:19:58Z</time>
      </trkpt>
      <trkpt lat="46.66761" lon="5.47276">
        <ele>224.4</ele>
        <time>2022-06-25T06:19:59Z</time>
      </trkpt>
      <trkpt lat="46.66759" lon="5.47269">
        <ele>224.6</ele>
        <time>2022-06-25T06:20:00Z</time>
      </trkpt>
      <trkpt lat="46.66758" lon="5.47263">
        <ele>224.6</ele>
        <time>2022-06-25T06:20:01Z</time>
      </trkpt>
      <trkpt lat="46.66756" lon="5.47257">
        <ele>225</ele>
        <time>2022-06-25T06:20:02Z</time>
      </trkpt>
      <trkpt lat="46.66754" lon="5.47251">
        <ele>225.4</ele>
        <time>2022-06-25T06:20:03Z</time>
      </trkpt>
      <trkpt lat="46.66752" lon="5.47245">
        <ele>225.6</ele>
        <time>2022-06-25T06:20:04Z</time>
      </trkpt>
      <trkpt lat="46.6675" lon="5.47238">
        <ele>225.6</ele>
        <time>2022-06-25T06:20:05Z</time>
      </trkpt>
      <trkpt lat="46.66748" lon="5.47232">
        <ele>225.8</ele>
        <time>2022-06-25T06:20:06Z</time>
      </trkpt>
      <trkpt lat="46.66746" lon="5.47226">
        <ele>225.8</ele>
        <time>2022-06-25T06:20:07Z</time>
      </trkpt>
      <trkpt lat="46.66743" lon="5.4722">
        <ele>226.2</ele>
        <time>2022-06-25T06:20:08Z</time>
      </trkpt>
      <trkpt lat="46.66741" lon="5.47214">
        <ele>226.2</ele>
        <time>2022-06-25T06:20:09Z</time>
      </trkpt>
      <trkpt lat="46.66739" lon="5.47208">
        <ele>226.4</ele>
        <time>2022-06-25T06:20:10Z</time>
      </trkpt>
      <trkpt lat="46.66737" lon="5.47202">
        <ele>226.4</ele>
        <time>2022-06-25T06:20:11Z</time>
      </trkpt>
      <trkpt lat="46.66735" lon="5.47197">
        <ele>227</ele>
        <time>2022-06-25T06:20:12Z</time>
      </trkpt>
      <trkpt lat="46.66732" lon="5.47191">
        <ele>227.2</ele>
        <time>2022-06-25T06:20:13Z</time>
      </trkpt>
      <trkpt lat="46.6673" lon="5.47186">
        <ele>227.4</ele>
        <time>2022-06-25T06:20:14Z</time>
      </trkpt>
      <trkpt lat="46.66728" lon="5.4718">
        <ele>227.8</ele>
        <time>2022-06-25T06:20:15Z</time>
      </trkpt>
      <trkpt lat="46.66726" lon="5.47175">
        <ele>228</ele>
        <time>2022-06-25T06:20:16Z</time>
      </trkpt>
      <trkpt lat="46.66724" lon="5.47169">
        <ele>228.2</ele>
        <time>2022-06-25T06:20:17Z</time>
      </trkpt>
      <trkpt lat="46.66722" lon="5.47164">
        <ele>228.6</ele>
        <time>2022-06-25T06:20:18Z</time>
      </trkpt>
      <trkpt lat="46.66719" lon="5.47158">
        <ele>228.6</ele>
        <time>2022-06-25T06:20:19Z</time>
      </trkpt>
      <trkpt lat="46.66717" lon="5.47153">
        <ele>228.8</ele>
        <time>2022-06-25T06:20:20Z</time>
      </trkpt>
      <trkpt lat="46.66714" lon="5.47149">
        <ele>228.8</ele>
        <time>2022-06-25T06:20:21Z</time>
      </trkpt>
      <trkpt lat="46.66712" lon="5.47144">
        <ele>229</ele>
        <time>2022-06-25T06:20:22Z</time>
      </trkpt>
      <trkpt lat="46.6671" lon="5.47138">
        <ele>229</ele>
        <time>2022-06-25T06:20:23Z</time>
      </trkpt>
      <trkpt lat="46.66709" lon="5.47133">
        <ele>229</ele>
        <time>2022-06-25T06:20:24Z</time>
      </trkpt>
      <trkpt lat="46.66707" lon="5.47127">
        <ele>229.4</ele>
        <time>2022-06-25T06:20:25Z</time>
      </trkpt>
      <trkpt lat="46.66705" lon="5.47122">
        <ele>229.4</ele>
        <time>2022-06-25T06:20:26Z</time>
      </trkpt>
      <trkpt lat="46.66703" lon="5.47116">
        <ele>229.4</ele>
        <time>2022-06-25T06:20:27Z</time>
      </trkpt>
      <trkpt lat="46.667" lon="5.47111">
        <ele>229.6</ele>
        <time>2022-06-25T06:20:28Z</time>
      </trkpt>
      <trkpt lat="46.66697" lon="5.47105">
        <ele>229.6</ele>
        <time>2022-06-25T06:20:29Z</time>
      </trkpt>
      <trkpt lat="46.66695" lon="5.471">
        <ele>229.8</ele>
        <time>2022-06-25T06:20:30Z</time>
      </trkpt>
      <trkpt lat="46.66693" lon="5.47094">
        <ele>229.8</ele>
        <time>2022-06-25T06:20:31Z</time>
      </trkpt>
      <trkpt lat="46.6669" lon="5.47088">
        <ele>229.8</ele>
        <time>2022-06-25T06:20:32Z</time>
      </trkpt>
      <trkpt lat="46.66688" lon="5.47082">
        <ele>229.8</ele>
        <time>2022-06-25T06:20:33Z</time>
      </trkpt>
      <trkpt lat="46.66685" lon="5.47076">
        <ele>229.8</ele>
        <time>2022-06-25T06:20:34Z</time>
      </trkpt>
      <trkpt lat="46.66683" lon="5.4707">
        <ele>229.8</ele>
        <time>2022-06-25T06:20:35Z</time>
      </trkpt>
      <trkpt lat="46.66681" lon="5.47064">
        <ele>230</ele>
        <time>2022-06-25T06:20:36Z</time>
      </trkpt>
      <trkpt lat="46.66678" lon="5.47058">
        <ele>230</ele>
        <time>2022-06-25T06:20:37Z</time>
      </trkpt>
      <trkpt lat="46.66676" lon="5.47052">
        <ele>230</ele>
        <time>2022-06-25T06:20:38Z</time>
      </trkpt>
      <trkpt lat="46.66673" lon="5.47047">
        <ele>230</ele>
        <time>2022-06-25T06:20:39Z</time>
      </trkpt>
      <trkpt lat="46.66671" lon="5.47041">
        <ele>230</ele>
        <time>2022-06-25T06:20:40Z</time>
      </trkpt>
      <trkpt lat="46.66668" lon="5.47035">
        <ele>230</ele>
        <time>2022-06-25T06:20:41Z</time>
      </trkpt>
      <trkpt lat="46.66666" lon="5.47029">
        <ele>230</ele>
        <time>2022-06-25T06:20:42Z</time>
      </trkpt>
      <trkpt lat="46.66663" lon="5.47022">
        <ele>230</ele>
        <time>2022-06-25T06:20:43Z</time>
      </trkpt>
      <trkpt lat="46.66661" lon="5.47016">
        <ele>230</ele>
        <time>2022-06-25T06:20:44Z</time>
      </trkpt>
      <trkpt lat="46.66659" lon="5.4701">
        <ele>230</ele>
        <time>2022-06-25T06:20:45Z</time>
      </trkpt>
      <trkpt lat="46.66656" lon="5.47004">
        <ele>229.8</ele>
        <time>2022-06-25T06:20:46Z</time>
      </trkpt>
      <trkpt lat="46.66653" lon="5.46999">
        <ele>229.8</ele>
        <time>2022-06-25T06:20:47Z</time>
      </trkpt>
      <trkpt lat="46.6665" lon="5.46995">
        <ele>229.4</ele>
        <time>2022-06-25T06:20:48Z</time>
      </trkpt>
      <trkpt lat="46.66646" lon="5.46994">
        <ele>229.4</ele>
        <time>2022-06-25T06:20:49Z</time>
      </trkpt>
      <trkpt lat="46.66641" lon="5.46996">
        <ele>229.2</ele>
        <time>2022-06-25T06:20:50Z</time>
      </trkpt>
      <trkpt lat="46.66636" lon="5.46998">
        <ele>229</ele>
        <time>2022-06-25T06:20:51Z</time>
      </trkpt>
      <trkpt lat="46.6663" lon="5.47001">
        <ele>229</ele>
        <time>2022-06-25T06:20:52Z</time>
      </trkpt>
      <trkpt lat="46.66625" lon="5.47003">
        <ele>228.6</ele>
        <time>2022-06-25T06:20:53Z</time>
      </trkpt>
      <trkpt lat="46.66619" lon="5.47005">
        <ele>228.6</ele>
        <time>2022-06-25T06:20:54Z</time>
      </trkpt>
      <trkpt lat="46.66613" lon="5.47006">
        <ele>228.6</ele>
        <time>2022-06-25T06:20:55Z</time>
      </trkpt>
      <trkpt lat="46.66607" lon="5.47007">
        <ele>228.4</ele>
        <time>2022-06-25T06:20:56Z</time>
      </trkpt>
      <trkpt lat="46.66601" lon="5.47008">
        <ele>228.4</ele>
        <time>2022-06-25T06:20:57Z</time>
      </trkpt>
      <trkpt lat="46.66594" lon="5.47009">
        <ele>228</ele>
        <time>2022-06-25T06:20:58Z</time>
      </trkpt>
      <trkpt lat="46.66588" lon="5.47009">
        <ele>228</ele>
        <time>2022-06-25T06:20:59Z</time>
      </trkpt>
      <trkpt lat="46.66581" lon="5.4701">
        <ele>227.8</ele>
        <time>2022-06-25T06:21:00Z</time>
      </trkpt>
      <trkpt lat="46.66575" lon="5.47011">
        <ele>227.8</ele>
        <time>2022-06-25T06:21:01Z</time>
      </trkpt>
      <trkpt lat="46.66568" lon="5.47011">
        <ele>227.6</ele>
        <time>2022-06-25T06:21:02Z</time>
      </trkpt>
      <trkpt lat="46.66562" lon="5.47011">
        <ele>227.6</ele>
        <time>2022-06-25T06:21:03Z</time>
      </trkpt>
      <trkpt lat="46.66555" lon="5.4701">
        <ele>227.4</ele>
        <time>2022-06-25T06:21:04Z</time>
      </trkpt>
      <trkpt lat="46.66548" lon="5.4701">
        <ele>227</ele>
        <time>2022-06-25T06:21:05Z</time>
      </trkpt>
      <trkpt lat="46.66541" lon="5.4701">
        <ele>226.8</ele>
        <time>2022-06-25T06:21:06Z</time>
      </trkpt>
      <trkpt lat="46.66534" lon="5.47009">
        <ele>226.2</ele>
        <time>2022-06-25T06:21:07Z</time>
      </trkpt>
      <trkpt lat="46.66527" lon="5.47008">
        <ele>225.8</ele>
        <time>2022-06-25T06:21:08Z</time>
      </trkpt>
      <trkpt lat="46.6652" lon="5.47008">
        <ele>225.4</ele>
        <time>2022-06-25T06:21:09Z</time>
      </trkpt>
      <trkpt lat="46.66514" lon="5.47007">
        <ele>224.8</ele>
        <time>2022-06-25T06:21:10Z</time>
      </trkpt>
      <trkpt lat="46.66509" lon="5.47006">
        <ele>224.4</ele>
        <time>2022-06-25T06:21:11Z</time>
      </trkpt>
      <trkpt lat="46.66505" lon="5.47003">
        <ele>224</ele>
        <time>2022-06-25T06:21:12Z</time>
      </trkpt>
      <trkpt lat="46.66502" lon="5.47">
        <ele>223.8</ele>
        <time>2022-06-25T06:21:13Z</time>
      </trkpt>
      <trkpt lat="46.66499" lon="5.46995">
        <ele>223.6</ele>
        <time>2022-06-25T06:21:14Z</time>
      </trkpt>
      <trkpt lat="46.66498" lon="5.46989">
        <ele>223.6</ele>
        <time>2022-06-25T06:21:15Z</time>
      </trkpt>
      <trkpt lat="46.66496" lon="5.46981">
        <ele>223.2</ele>
        <time>2022-06-25T06:21:16Z</time>
      </trkpt>
      <trkpt lat="46.66495" lon="5.46974">
        <ele>223.2</ele>
        <time>2022-06-25T06:21:17Z</time>
      </trkpt>
      <trkpt lat="46.66495" lon="5.46966">
        <ele>223</ele>
        <time>2022-06-25T06:21:18Z</time>
      </trkpt>
      <trkpt lat="46.66494" lon="5.46957">
        <ele>223</ele>
        <time>2022-06-25T06:21:19Z</time>
      </trkpt>
      <trkpt lat="46.66494" lon="5.46949">
        <ele>223</ele>
        <time>2022-06-25T06:21:20Z</time>
      </trkpt>
      <trkpt lat="46.66493" lon="5.4694">
        <ele>223</ele>
        <time>2022-06-25T06:21:21Z</time>
      </trkpt>
      <trkpt lat="46.66493" lon="5.46931">
        <ele>223</ele>
        <time>2022-06-25T06:21:22Z</time>
      </trkpt>
      <trkpt lat="46.66492" lon="5.46923">
        <ele>222.8</ele>
        <time>2022-06-25T06:21:23Z</time>
      </trkpt>
      <trkpt lat="46.66491" lon="5.46914">
        <ele>222.8</ele>
        <time>2022-06-25T06:21:24Z</time>
      </trkpt>
      <trkpt lat="46.6649" lon="5.46905">
        <ele>222.8</ele>
        <time>2022-06-25T06:21:25Z</time>
      </trkpt>
      <trkpt lat="46.6649" lon="5.46896">
        <ele>222.8</ele>
        <time>2022-06-25T06:21:26Z</time>
      </trkpt>
      <trkpt lat="46.66489" lon="5.46887">
        <ele>222.8</ele>
        <time>2022-06-25T06:21:27Z</time>
      </trkpt>
      <trkpt lat="46.66488" lon="5.46878">
        <ele>222.8</ele>
        <time>2022-06-25T06:21:28Z</time>
      </trkpt>
      <trkpt lat="46.66487" lon="5.46869">
        <ele>222.8</ele>
        <time>2022-06-25T06:21:29Z</time>
      </trkpt>
      <trkpt lat="46.66487" lon="5.4686">
        <ele>222.8</ele>
        <time>2022-06-25T06:21:30Z</time>
      </trkpt>
      <trkpt lat="46.66486" lon="5.46851">
        <ele>222.8</ele>
        <time>2022-06-25T06:21:31Z</time>
      </trkpt>
      <trkpt lat="46.66486" lon="5.46841">
        <ele>222.8</ele>
        <time>2022-06-25T06:21:32Z</time>
      </trkpt>
      <trkpt lat="46.66485" lon="5.46832">
        <ele>222.8</ele>
        <time>2022-06-25T06:21:33Z</time>
      </trkpt>
      <trkpt lat="46.66484" lon="5.46823">
        <ele>222.8</ele>
        <time>2022-06-25T06:21:34Z</time>
      </trkpt>
      <trkpt lat="46.66483" lon="5.46813">
        <ele>222.8</ele>
        <time>2022-06-25T06:21:35Z</time>
      </trkpt>
      <trkpt lat="46.66482" lon="5.46804">
        <ele>222.8</ele>
        <time>2022-06-25T06:21:36Z</time>
      </trkpt>
      <trkpt lat="46.66482" lon="5.46795">
        <ele>222.8</ele>
        <time>2022-06-25T06:21:37Z</time>
      </trkpt>
      <trkpt lat="46.66481" lon="5.46785">
        <ele>222.6</ele>
        <time>2022-06-25T06:21:38Z</time>
      </trkpt>
      <trkpt lat="46.6648" lon="5.46776">
        <ele>222.6</ele>
        <time>2022-06-25T06:21:39Z</time>
      </trkpt>
      <trkpt lat="46.66479" lon="5.46766">
        <ele>222.6</ele>
        <time>2022-06-25T06:21:40Z</time>
      </trkpt>
      <trkpt lat="46.66479" lon="5.46757">
        <ele>222.6</ele>
        <time>2022-06-25T06:21:41Z</time>
      </trkpt>
      <trkpt lat="46.66478" lon="5.46747">
        <ele>222.6</ele>
        <time>2022-06-25T06:21:42Z</time>
      </trkpt>
      <trkpt lat="46.66477" lon="5.46738">
        <ele>222.6</ele>
        <time>2022-06-25T06:21:43Z</time>
      </trkpt>
      <trkpt lat="46.66477" lon="5.46729">
        <ele>222.6</ele>
        <time>2022-06-25T06:21:44Z</time>
      </trkpt>
      <trkpt lat="46.66476" lon="5.46719">
        <ele>222.6</ele>
        <time>2022-06-25T06:21:45Z</time>
      </trkpt>
      <trkpt lat="46.66475" lon="5.4671">
        <ele>222.6</ele>
        <time>2022-06-25T06:21:46Z</time>
      </trkpt>
      <trkpt lat="46.66475" lon="5.467">
        <ele>222.6</ele>
        <time>2022-06-25T06:21:47Z</time>
      </trkpt>
      <trkpt lat="46.66473" lon="5.46691">
        <ele>222.6</ele>
        <time>2022-06-25T06:21:48Z</time>
      </trkpt>
      <trkpt lat="46.66472" lon="5.46681">
        <ele>222.6</ele>
        <time>2022-06-25T06:21:49Z</time>
      </trkpt>
      <trkpt lat="46.66471" lon="5.46671">
        <ele>222.6</ele>
        <time>2022-06-25T06:21:50Z</time>
      </trkpt>
      <trkpt lat="46.6647" lon="5.46661">
        <ele>222.6</ele>
        <time>2022-06-25T06:21:51Z</time>
      </trkpt>
      <trkpt lat="46.66468" lon="5.46651">
        <ele>222.6</ele>
        <time>2022-06-25T06:21:52Z</time>
      </trkpt>
      <trkpt lat="46.66467" lon="5.46642">
        <ele>222.6</ele>
        <time>2022-06-25T06:21:53Z</time>
      </trkpt>
      <trkpt lat="46.66467" lon="5.46632">
        <ele>222.4</ele>
        <time>2022-06-25T06:21:54Z</time>
      </trkpt>
      <trkpt lat="46.66466" lon="5.46622">
        <ele>222.4</ele>
        <time>2022-06-25T06:21:55Z</time>
      </trkpt>
      <trkpt lat="46.66465" lon="5.46612">
        <ele>222.4</ele>
        <time>2022-06-25T06:21:56Z</time>
      </trkpt>
      <trkpt lat="46.66463" lon="5.46602">
        <ele>222.4</ele>
        <time>2022-06-25T06:21:57Z</time>
      </trkpt>
      <trkpt lat="46.66462" lon="5.46592">
        <ele>222</ele>
        <time>2022-06-25T06:21:58Z</time>
      </trkpt>
      <trkpt lat="46.6646" lon="5.46582">
        <ele>222</ele>
        <time>2022-06-25T06:21:59Z</time>
      </trkpt>
      <trkpt lat="46.66458" lon="5.46572">
        <ele>222</ele>
        <time>2022-06-25T06:22:00Z</time>
      </trkpt>
      <trkpt lat="46.66456" lon="5.46562">
        <ele>222</ele>
        <time>2022-06-25T06:22:01Z</time>
      </trkpt>
      <trkpt lat="46.66454" lon="5.46552">
        <ele>221.8</ele>
        <time>2022-06-25T06:22:02Z</time>
      </trkpt>
      <trkpt lat="46.66452" lon="5.46542">
        <ele>221.8</ele>
        <time>2022-06-25T06:22:03Z</time>
      </trkpt>
      <trkpt lat="46.66449" lon="5.46532">
        <ele>221.8</ele>
        <time>2022-06-25T06:22:04Z</time>
      </trkpt>
      <trkpt lat="46.66447" lon="5.46522">
        <ele>221.8</ele>
        <time>2022-06-25T06:22:05Z</time>
      </trkpt>
      <trkpt lat="46.66445" lon="5.46512">
        <ele>221.8</ele>
        <time>2022-06-25T06:22:06Z</time>
      </trkpt>
      <trkpt lat="46.66443" lon="5.46502">
        <ele>221.6</ele>
        <time>2022-06-25T06:22:07Z</time>
      </trkpt>
      <trkpt lat="46.66441" lon="5.46492">
        <ele>221.6</ele>
        <time>2022-06-25T06:22:08Z</time>
      </trkpt>
      <trkpt lat="46.66439" lon="5.46482">
        <ele>221.6</ele>
        <time>2022-06-25T06:22:09Z</time>
      </trkpt>
      <trkpt lat="46.66437" lon="5.46472">
        <ele>221.6</ele>
        <time>2022-06-25T06:22:10Z</time>
      </trkpt>
      <trkpt lat="46.66434" lon="5.46462">
        <ele>221.4</ele>
        <time>2022-06-25T06:22:11Z</time>
      </trkpt>
      <trkpt lat="46.66432" lon="5.46453">
        <ele>221.4</ele>
        <time>2022-06-25T06:22:12Z</time>
      </trkpt>
      <trkpt lat="46.6643" lon="5.46444">
        <ele>221.4</ele>
        <time>2022-06-25T06:22:13Z</time>
      </trkpt>
      <trkpt lat="46.66428" lon="5.46434">
        <ele>221.4</ele>
        <time>2022-06-25T06:22:14Z</time>
      </trkpt>
      <trkpt lat="46.66426" lon="5.46425">
        <ele>221.2</ele>
        <time>2022-06-25T06:22:15Z</time>
      </trkpt>
      <trkpt lat="46.66424" lon="5.46416">
        <ele>221.2</ele>
        <time>2022-06-25T06:22:16Z</time>
      </trkpt>
      <trkpt lat="46.66422" lon="5.46407">
        <ele>221.2</ele>
        <time>2022-06-25T06:22:17Z</time>
      </trkpt>
      <trkpt lat="46.66421" lon="5.46398">
        <ele>221.2</ele>
        <time>2022-06-25T06:22:18Z</time>
      </trkpt>
      <trkpt lat="46.66419" lon="5.4639">
        <ele>220.8</ele>
        <time>2022-06-25T06:22:19Z</time>
      </trkpt>
      <trkpt lat="46.66418" lon="5.46382">
        <ele>220.8</ele>
        <time>2022-06-25T06:22:20Z</time>
      </trkpt>
      <trkpt lat="46.66417" lon="5.46374">
        <ele>220.8</ele>
        <time>2022-06-25T06:22:21Z</time>
      </trkpt>
      <trkpt lat="46.66416" lon="5.46367">
        <ele>220.8</ele>
        <time>2022-06-25T06:22:22Z</time>
      </trkpt>
      <trkpt lat="46.66416" lon="5.46361">
        <ele>220.8</ele>
        <time>2022-06-25T06:22:23Z</time>
      </trkpt>
      <trkpt lat="46.66416" lon="5.46356">
        <ele>220.8</ele>
        <time>2022-06-25T06:22:24Z</time>
      </trkpt>
      <trkpt lat="46.66416" lon="5.46352">
        <ele>220.8</ele>
        <time>2022-06-25T06:22:25Z</time>
      </trkpt>
      <trkpt lat="46.66415" lon="5.46348">
        <ele>220.8</ele>
        <time>2022-06-25T06:22:26Z</time>
      </trkpt>
      <trkpt lat="46.66415" lon="5.46343">
        <ele>220.8</ele>
        <time>2022-06-25T06:22:27Z</time>
      </trkpt>
      <trkpt lat="46.66414" lon="5.46339">
        <ele>220.8</ele>
        <time>2022-06-25T06:22:28Z</time>
      </trkpt>
      <trkpt lat="46.66413" lon="5.46334">
        <ele>220.8</ele>
        <time>2022-06-25T06:22:29Z</time>
      </trkpt>
      <trkpt lat="46.66412" lon="5.46328">
        <ele>220.8</ele>
        <time>2022-06-25T06:22:30Z</time>
      </trkpt>
      <trkpt lat="46.66411" lon="5.46321">
        <ele>220.8</ele>
        <time>2022-06-25T06:22:31Z</time>
      </trkpt>
      <trkpt lat="46.66411" lon="5.46314">
        <ele>220.8</ele>
        <time>2022-06-25T06:22:32Z</time>
      </trkpt>
      <trkpt lat="46.6641" lon="5.46307">
        <ele>220.8</ele>
        <time>2022-06-25T06:22:33Z</time>
      </trkpt>
      <trkpt lat="46.6641" lon="5.46299">
        <ele>221</ele>
        <time>2022-06-25T06:22:34Z</time>
      </trkpt>
      <trkpt lat="46.66409" lon="5.46291">
        <ele>221</ele>
        <time>2022-06-25T06:22:35Z</time>
      </trkpt>
      <trkpt lat="46.66409" lon="5.46283">
        <ele>221</ele>
        <time>2022-06-25T06:22:36Z</time>
      </trkpt>
      <trkpt lat="46.66408" lon="5.46275">
        <ele>221.4</ele>
        <time>2022-06-25T06:22:37Z</time>
      </trkpt>
      <trkpt lat="46.66407" lon="5.46266">
        <ele>221.4</ele>
        <time>2022-06-25T06:22:38Z</time>
      </trkpt>
      <trkpt lat="46.66407" lon="5.46258">
        <ele>221.4</ele>
        <time>2022-06-25T06:22:39Z</time>
      </trkpt>
      <trkpt lat="46.66406" lon="5.4625">
        <ele>221.4</ele>
        <time>2022-06-25T06:22:40Z</time>
      </trkpt>
      <trkpt lat="46.66407" lon="5.46241">
        <ele>221.4</ele>
        <time>2022-06-25T06:22:41Z</time>
      </trkpt>
      <trkpt lat="46.66407" lon="5.46233">
        <ele>221.4</ele>
        <time>2022-06-25T06:22:42Z</time>
      </trkpt>
      <trkpt lat="46.66407" lon="5.46224">
        <ele>221.6</ele>
        <time>2022-06-25T06:22:43Z</time>
      </trkpt>
      <trkpt lat="46.66408" lon="5.46215">
        <ele>221.6</ele>
        <time>2022-06-25T06:22:44Z</time>
      </trkpt>
      <trkpt lat="46.66408" lon="5.46206">
        <ele>221.6</ele>
        <time>2022-06-25T06:22:45Z</time>
      </trkpt>
      <trkpt lat="46.66409" lon="5.46197">
        <ele>221.6</ele>
        <time>2022-06-25T06:22:46Z</time>
      </trkpt>
      <trkpt lat="46.6641" lon="5.46188">
        <ele>221.6</ele>
        <time>2022-06-25T06:22:47Z</time>
      </trkpt>
      <trkpt lat="46.66411" lon="5.46178">
        <ele>221.6</ele>
        <time>2022-06-25T06:22:48Z</time>
      </trkpt>
      <trkpt lat="46.66412" lon="5.46168">
        <ele>221.8</ele>
        <time>2022-06-25T06:22:49Z</time>
      </trkpt>
      <trkpt lat="46.66413" lon="5.46159">
        <ele>221.8</ele>
        <time>2022-06-25T06:22:50Z</time>
      </trkpt>
      <trkpt lat="46.66414" lon="5.46149">
        <ele>221.8</ele>
        <time>2022-06-25T06:22:51Z</time>
      </trkpt>
      <trkpt lat="46.66416" lon="5.46139">
        <ele>221.8</ele>
        <time>2022-06-25T06:22:52Z</time>
      </trkpt>
      <trkpt lat="46.66417" lon="5.46129">
        <ele>221.8</ele>
        <time>2022-06-25T06:22:53Z</time>
      </trkpt>
      <trkpt lat="46.66418" lon="5.46119">
        <ele>222</ele>
        <time>2022-06-25T06:22:54Z</time>
      </trkpt>
      <trkpt lat="46.66419" lon="5.46108">
        <ele>222</ele>
        <time>2022-06-25T06:22:55Z</time>
      </trkpt>
      <trkpt lat="46.6642" lon="5.46098">
        <ele>222</ele>
        <time>2022-06-25T06:22:56Z</time>
      </trkpt>
      <trkpt lat="46.66421" lon="5.46088">
        <ele>222</ele>
        <time>2022-06-25T06:22:57Z</time>
      </trkpt>
      <trkpt lat="46.66423" lon="5.46077">
        <ele>222</ele>
        <time>2022-06-25T06:22:58Z</time>
      </trkpt>
      <trkpt lat="46.66424" lon="5.46067">
        <ele>222</ele>
        <time>2022-06-25T06:22:59Z</time>
      </trkpt>
      <trkpt lat="46.66425" lon="5.46056">
        <ele>222</ele>
        <time>2022-06-25T06:23:00Z</time>
      </trkpt>
      <trkpt lat="46.66426" lon="5.46046">
        <ele>221.8</ele>
        <time>2022-06-25T06:23:01Z</time>
      </trkpt>
      <trkpt lat="46.66427" lon="5.46036">
        <ele>221.8</ele>
        <time>2022-06-25T06:23:02Z</time>
      </trkpt>
      <trkpt lat="46.66429" lon="5.46026">
        <ele>221.8</ele>
        <time>2022-06-25T06:23:03Z</time>
      </trkpt>
      <trkpt lat="46.6643" lon="5.46015">
        <ele>221.8</ele>
        <time>2022-06-25T06:23:04Z</time>
      </trkpt>
      <trkpt lat="46.66431" lon="5.46005">
        <ele>221.8</ele>
        <time>2022-06-25T06:23:05Z</time>
      </trkpt>
      <trkpt lat="46.66432" lon="5.45995">
        <ele>221.8</ele>
        <time>2022-06-25T06:23:06Z</time>
      </trkpt>
      <trkpt lat="46.66433" lon="5.45984">
        <ele>221.8</ele>
        <time>2022-06-25T06:23:07Z</time>
      </trkpt>
      <trkpt lat="46.66434" lon="5.45974">
        <ele>221.8</ele>
        <time>2022-06-25T06:23:08Z</time>
      </trkpt>
      <trkpt lat="46.66434" lon="5.45964">
        <ele>221.8</ele>
        <time>2022-06-25T06:23:09Z</time>
      </trkpt>
      <trkpt lat="46.66435" lon="5.45955">
        <ele>221.8</ele>
        <time>2022-06-25T06:23:10Z</time>
      </trkpt>
      <trkpt lat="46.66436" lon="5.45945">
        <ele>221.8</ele>
        <time>2022-06-25T06:23:11Z</time>
      </trkpt>
      <trkpt lat="46.66437" lon="5.45935">
        <ele>221.8</ele>
        <time>2022-06-25T06:23:12Z</time>
      </trkpt>
      <trkpt lat="46.66437" lon="5.45926">
        <ele>221.6</ele>
        <time>2022-06-25T06:23:13Z</time>
      </trkpt>
      <trkpt lat="46.66438" lon="5.45916">
        <ele>221.6</ele>
        <time>2022-06-25T06:23:14Z</time>
      </trkpt>
      <trkpt lat="46.66439" lon="5.45907">
        <ele>221.6</ele>
        <time>2022-06-25T06:23:15Z</time>
      </trkpt>
      <trkpt lat="46.6644" lon="5.45897">
        <ele>221.6</ele>
        <time>2022-06-25T06:23:16Z</time>
      </trkpt>
      <trkpt lat="46.6644" lon="5.45888">
        <ele>221.6</ele>
        <time>2022-06-25T06:23:17Z</time>
      </trkpt>
      <trkpt lat="46.66441" lon="5.4588">
        <ele>221.6</ele>
        <time>2022-06-25T06:23:18Z</time>
      </trkpt>
      <trkpt lat="46.66441" lon="5.45871">
        <ele>221.4</ele>
        <time>2022-06-25T06:23:19Z</time>
      </trkpt>
      <trkpt lat="46.66441" lon="5.45864">
        <ele>221.4</ele>
        <time>2022-06-25T06:23:20Z</time>
      </trkpt>
      <trkpt lat="46.66441" lon="5.45857">
        <ele>221.4</ele>
        <time>2022-06-25T06:23:21Z</time>
      </trkpt>
      <trkpt lat="46.66442" lon="5.45851">
        <ele>221.4</ele>
        <time>2022-06-25T06:23:22Z</time>
      </trkpt>
      <trkpt lat="46.66443" lon="5.45846">
        <ele>221.4</ele>
        <time>2022-06-25T06:23:23Z</time>
      </trkpt>
      <trkpt lat="46.66444" lon="5.45841">
        <ele>221.4</ele>
        <time>2022-06-25T06:23:24Z</time>
      </trkpt>
      <trkpt lat="46.66445" lon="5.45835">
        <ele>221.4</ele>
        <time>2022-06-25T06:23:25Z</time>
      </trkpt>
      <trkpt lat="46.66444" lon="5.4583">
        <ele>221.4</ele>
        <time>2022-06-25T06:23:26Z</time>
      </trkpt>
      <trkpt lat="46.66444" lon="5.45824">
        <ele>221.4</ele>
        <time>2022-06-25T06:23:27Z</time>
      </trkpt>
      <trkpt lat="46.66444" lon="5.45818">
        <ele>221.4</ele>
        <time>2022-06-25T06:23:28Z</time>
      </trkpt>
      <trkpt lat="46.66445" lon="5.45811">
        <ele>221.4</ele>
        <time>2022-06-25T06:23:29Z</time>
      </trkpt>
      <trkpt lat="46.66445" lon="5.45804">
        <ele>221.4</ele>
        <time>2022-06-25T06:23:30Z</time>
      </trkpt>
      <trkpt lat="46.66445" lon="5.45796">
        <ele>221.4</ele>
        <time>2022-06-25T06:23:31Z</time>
      </trkpt>
      <trkpt lat="46.66445" lon="5.45788">
        <ele>221.4</ele>
        <time>2022-06-25T06:23:32Z</time>
      </trkpt>
      <trkpt lat="46.66446" lon="5.45779">
        <ele>221.4</ele>
        <time>2022-06-25T06:23:33Z</time>
      </trkpt>
      <trkpt lat="46.66446" lon="5.45771">
        <ele>221.4</ele>
        <time>2022-06-25T06:23:34Z</time>
      </trkpt>
      <trkpt lat="46.66447" lon="5.45762">
        <ele>221.4</ele>
        <time>2022-06-25T06:23:35Z</time>
      </trkpt>
      <trkpt lat="46.66447" lon="5.45754">
        <ele>221.4</ele>
        <time>2022-06-25T06:23:36Z</time>
      </trkpt>
      <trkpt lat="46.66448" lon="5.45745">
        <ele>221.4</ele>
        <time>2022-06-25T06:23:37Z</time>
      </trkpt>
      <trkpt lat="46.66449" lon="5.45736">
        <ele>221.6</ele>
        <time>2022-06-25T06:23:38Z</time>
      </trkpt>
      <trkpt lat="46.6645" lon="5.45727">
        <ele>221.6</ele>
        <time>2022-06-25T06:23:39Z</time>
      </trkpt>
      <trkpt lat="46.6645" lon="5.45718">
        <ele>221.6</ele>
        <time>2022-06-25T06:23:40Z</time>
      </trkpt>
      <trkpt lat="46.66451" lon="5.45709">
        <ele>221.6</ele>
        <time>2022-06-25T06:23:41Z</time>
      </trkpt>
      <trkpt lat="46.66451" lon="5.45699">
        <ele>221.6</ele>
        <time>2022-06-25T06:23:42Z</time>
      </trkpt>
      <trkpt lat="46.66452" lon="5.4569">
        <ele>221.6</ele>
        <time>2022-06-25T06:23:43Z</time>
      </trkpt>
      <trkpt lat="46.66452" lon="5.45681">
        <ele>221.6</ele>
        <time>2022-06-25T06:23:44Z</time>
      </trkpt>
      <trkpt lat="46.66453" lon="5.45671">
        <ele>221.6</ele>
        <time>2022-06-25T06:23:45Z</time>
      </trkpt>
      <trkpt lat="46.66453" lon="5.45662">
        <ele>221.6</ele>
        <time>2022-06-25T06:23:46Z</time>
      </trkpt>
      <trkpt lat="46.66454" lon="5.45652">
        <ele>221.6</ele>
        <time>2022-06-25T06:23:47Z</time>
      </trkpt>
      <trkpt lat="46.66455" lon="5.45642">
        <ele>221.6</ele>
        <time>2022-06-25T06:23:48Z</time>
      </trkpt>
      <trkpt lat="46.66455" lon="5.45633">
        <ele>221.6</ele>
        <time>2022-06-25T06:23:49Z</time>
      </trkpt>
      <trkpt lat="46.66456" lon="5.45623">
        <ele>221.6</ele>
        <time>2022-06-25T06:23:50Z</time>
      </trkpt>
      <trkpt lat="46.66456" lon="5.45613">
        <ele>221.6</ele>
        <time>2022-06-25T06:23:51Z</time>
      </trkpt>
      <trkpt lat="46.66457" lon="5.45603">
        <ele>221.6</ele>
        <time>2022-06-25T06:23:52Z</time>
      </trkpt>
      <trkpt lat="46.66457" lon="5.45594">
        <ele>221.6</ele>
        <time>2022-06-25T06:23:53Z</time>
      </trkpt>
      <trkpt lat="46.66458" lon="5.45584">
        <ele>221.6</ele>
        <time>2022-06-25T06:23:54Z</time>
      </trkpt>
      <trkpt lat="46.66458" lon="5.45574">
        <ele>221.4</ele>
        <time>2022-06-25T06:23:55Z</time>
      </trkpt>
      <trkpt lat="46.66459" lon="5.45564">
        <ele>221.4</ele>
        <time>2022-06-25T06:23:56Z</time>
      </trkpt>
      <trkpt lat="46.6646" lon="5.45554">
        <ele>221.4</ele>
        <time>2022-06-25T06:23:57Z</time>
      </trkpt>
      <trkpt lat="46.66461" lon="5.45544">
        <ele>221.4</ele>
        <time>2022-06-25T06:23:58Z</time>
      </trkpt>
      <trkpt lat="46.66461" lon="5.45534">
        <ele>221</ele>
        <time>2022-06-25T06:23:59Z</time>
      </trkpt>
      <trkpt lat="46.66462" lon="5.45524">
        <ele>221</ele>
        <time>2022-06-25T06:24:00Z</time>
      </trkpt>
      <trkpt lat="46.66463" lon="5.45514">
        <ele>220.8</ele>
        <time>2022-06-25T06:24:01Z</time>
      </trkpt>
      <trkpt lat="46.66464" lon="5.45504">
        <ele>220.8</ele>
        <time>2022-06-25T06:24:02Z</time>
      </trkpt>
      <trkpt lat="46.66464" lon="5.45493">
        <ele>220.8</ele>
        <time>2022-06-25T06:24:03Z</time>
      </trkpt>
      <trkpt lat="46.66465" lon="5.45483">
        <ele>220.6</ele>
        <time>2022-06-25T06:24:04Z</time>
      </trkpt>
      <trkpt lat="46.66465" lon="5.45472">
        <ele>220.6</ele>
        <time>2022-06-25T06:24:05Z</time>
      </trkpt>
      <trkpt lat="46.66466" lon="5.45462">
        <ele>220.6</ele>
        <time>2022-06-25T06:24:06Z</time>
      </trkpt>
      <trkpt lat="46.66466" lon="5.45451">
        <ele>220.4</ele>
        <time>2022-06-25T06:24:07Z</time>
      </trkpt>
      <trkpt lat="46.66467" lon="5.4544">
        <ele>220.4</ele>
        <time>2022-06-25T06:24:08Z</time>
      </trkpt>
      <trkpt lat="46.66468" lon="5.4543">
        <ele>220.4</ele>
        <time>2022-06-25T06:24:09Z</time>
      </trkpt>
      <trkpt lat="46.66468" lon="5.45419">
        <ele>220.4</ele>
        <time>2022-06-25T06:24:10Z</time>
      </trkpt>
      <trkpt lat="46.66469" lon="5.45408">
        <ele>220.2</ele>
        <time>2022-06-25T06:24:11Z</time>
      </trkpt>
      <trkpt lat="46.66469" lon="5.45397">
        <ele>220.2</ele>
        <time>2022-06-25T06:24:12Z</time>
      </trkpt>
      <trkpt lat="46.6647" lon="5.45387">
        <ele>219.8</ele>
        <time>2022-06-25T06:24:13Z</time>
      </trkpt>
      <trkpt lat="46.66471" lon="5.45376">
        <ele>219.8</ele>
        <time>2022-06-25T06:24:14Z</time>
      </trkpt>
      <trkpt lat="46.66471" lon="5.45365">
        <ele>219.8</ele>
        <time>2022-06-25T06:24:15Z</time>
      </trkpt>
      <trkpt lat="46.66472" lon="5.45354">
        <ele>219.6</ele>
        <time>2022-06-25T06:24:16Z</time>
      </trkpt>
      <trkpt lat="46.66473" lon="5.45343">
        <ele>219.6</ele>
        <time>2022-06-25T06:24:17Z</time>
      </trkpt>
      <trkpt lat="46.66474" lon="5.45332">
        <ele>219.6</ele>
        <time>2022-06-25T06:24:18Z</time>
      </trkpt>
      <trkpt lat="46.66474" lon="5.45321">
        <ele>219.4</ele>
        <time>2022-06-25T06:24:19Z</time>
      </trkpt>
      <trkpt lat="46.66475" lon="5.4531">
        <ele>219.4</ele>
        <time>2022-06-25T06:24:20Z</time>
      </trkpt>
      <trkpt lat="46.66476" lon="5.45299">
        <ele>219.4</ele>
        <time>2022-06-25T06:24:21Z</time>
      </trkpt>
      <trkpt lat="46.66477" lon="5.45289">
        <ele>219.4</ele>
        <time>2022-06-25T06:24:22Z</time>
      </trkpt>
      <trkpt lat="46.66477" lon="5.45278">
        <ele>219.2</ele>
        <time>2022-06-25T06:24:23Z</time>
      </trkpt>
      <trkpt lat="46.66478" lon="5.45266">
        <ele>218.8</ele>
        <time>2022-06-25T06:24:24Z</time>
      </trkpt>
      <trkpt lat="46.66478" lon="5.45256">
        <ele>218.8</ele>
        <time>2022-06-25T06:24:25Z</time>
      </trkpt>
      <trkpt lat="46.66479" lon="5.45245">
        <ele>218.6</ele>
        <time>2022-06-25T06:24:26Z</time>
      </trkpt>
      <trkpt lat="46.66479" lon="5.45234">
        <ele>218.6</ele>
        <time>2022-06-25T06:24:27Z</time>
      </trkpt>
      <trkpt lat="46.6648" lon="5.45223">
        <ele>218.4</ele>
        <time>2022-06-25T06:24:28Z</time>
      </trkpt>
      <trkpt lat="46.66481" lon="5.45212">
        <ele>218.4</ele>
        <time>2022-06-25T06:24:29Z</time>
      </trkpt>
      <trkpt lat="46.66482" lon="5.45201">
        <ele>218.2</ele>
        <time>2022-06-25T06:24:30Z</time>
      </trkpt>
      <trkpt lat="46.66482" lon="5.4519">
        <ele>218.2</ele>
        <time>2022-06-25T06:24:31Z</time>
      </trkpt>
      <trkpt lat="46.66483" lon="5.45179">
        <ele>218</ele>
        <time>2022-06-25T06:24:32Z</time>
      </trkpt>
      <trkpt lat="46.66484" lon="5.45169">
        <ele>218</ele>
        <time>2022-06-25T06:24:33Z</time>
      </trkpt>
      <trkpt lat="46.66485" lon="5.45158">
        <ele>218</ele>
        <time>2022-06-25T06:24:34Z</time>
      </trkpt>
      <trkpt lat="46.66486" lon="5.45147">
        <ele>218</ele>
        <time>2022-06-25T06:24:35Z</time>
      </trkpt>
      <trkpt lat="46.66487" lon="5.45136">
        <ele>217.8</ele>
        <time>2022-06-25T06:24:36Z</time>
      </trkpt>
      <trkpt lat="46.66488" lon="5.45125">
        <ele>217.8</ele>
        <time>2022-06-25T06:24:37Z</time>
      </trkpt>
      <trkpt lat="46.66489" lon="5.45115">
        <ele>217.8</ele>
        <time>2022-06-25T06:24:38Z</time>
      </trkpt>
      <trkpt lat="46.6649" lon="5.45104">
        <ele>217.4</ele>
        <time>2022-06-25T06:24:39Z</time>
      </trkpt>
      <trkpt lat="46.66491" lon="5.45093">
        <ele>217.4</ele>
        <time>2022-06-25T06:24:40Z</time>
      </trkpt>
      <trkpt lat="46.66492" lon="5.45082">
        <ele>217.4</ele>
        <time>2022-06-25T06:24:41Z</time>
      </trkpt>
      <trkpt lat="46.66493" lon="5.45072">
        <ele>217.2</ele>
        <time>2022-06-25T06:24:42Z</time>
      </trkpt>
      <trkpt lat="46.66494" lon="5.45061">
        <ele>217.2</ele>
        <time>2022-06-25T06:24:43Z</time>
      </trkpt>
      <trkpt lat="46.66495" lon="5.45051">
        <ele>217.2</ele>
        <time>2022-06-25T06:24:44Z</time>
      </trkpt>
      <trkpt lat="46.66496" lon="5.4504">
        <ele>217.2</ele>
        <time>2022-06-25T06:24:45Z</time>
      </trkpt>
      <trkpt lat="46.66497" lon="5.45029">
        <ele>217.2</ele>
        <time>2022-06-25T06:24:46Z</time>
      </trkpt>
      <trkpt lat="46.66498" lon="5.45019">
        <ele>216.8</ele>
        <time>2022-06-25T06:24:47Z</time>
      </trkpt>
      <trkpt lat="46.66499" lon="5.45008">
        <ele>216.8</ele>
        <time>2022-06-25T06:24:48Z</time>
      </trkpt>
      <trkpt lat="46.665" lon="5.44998">
        <ele>216.8</ele>
        <time>2022-06-25T06:24:49Z</time>
      </trkpt>
      <trkpt lat="46.66502" lon="5.44987">
        <ele>216.8</ele>
        <time>2022-06-25T06:24:50Z</time>
      </trkpt>
      <trkpt lat="46.66503" lon="5.44977">
        <ele>216.6</ele>
        <time>2022-06-25T06:24:51Z</time>
      </trkpt>
      <trkpt lat="46.66504" lon="5.44966">
        <ele>216.6</ele>
        <time>2022-06-25T06:24:52Z</time>
      </trkpt>
      <trkpt lat="46.66505" lon="5.44956">
        <ele>216.6</ele>
        <time>2022-06-25T06:24:53Z</time>
      </trkpt>
      <trkpt lat="46.66506" lon="5.44945">
        <ele>216.6</ele>
        <time>2022-06-25T06:24:54Z</time>
      </trkpt>
      <trkpt lat="46.66507" lon="5.44935">
        <ele>216.2</ele>
        <time>2022-06-25T06:24:55Z</time>
      </trkpt>
      <trkpt lat="46.66508" lon="5.44924">
        <ele>216.2</ele>
        <time>2022-06-25T06:24:56Z</time>
      </trkpt>
      <trkpt lat="46.66509" lon="5.44913">
        <ele>216.2</ele>
        <time>2022-06-25T06:24:57Z</time>
      </trkpt>
      <trkpt lat="46.6651" lon="5.44903">
        <ele>216.2</ele>
        <time>2022-06-25T06:24:58Z</time>
      </trkpt>
      <trkpt lat="46.66511" lon="5.44893">
        <ele>216</ele>
        <time>2022-06-25T06:24:59Z</time>
      </trkpt>
      <trkpt lat="46.66512" lon="5.44883">
        <ele>216</ele>
        <time>2022-06-25T06:25:00Z</time>
      </trkpt>
      <trkpt lat="46.66513" lon="5.44872">
        <ele>216</ele>
        <time>2022-06-25T06:25:01Z</time>
      </trkpt>
      <trkpt lat="46.66513" lon="5.44862">
        <ele>216</ele>
        <time>2022-06-25T06:25:02Z</time>
      </trkpt>
      <trkpt lat="46.66513" lon="5.44852">
        <ele>216</ele>
        <time>2022-06-25T06:25:03Z</time>
      </trkpt>
      <trkpt lat="46.66514" lon="5.44842">
        <ele>215.8</ele>
        <time>2022-06-25T06:25:04Z</time>
      </trkpt>
      <trkpt lat="46.66514" lon="5.44832">
        <ele>215.8</ele>
        <time>2022-06-25T06:25:05Z</time>
      </trkpt>
      <trkpt lat="46.66514" lon="5.44822">
        <ele>215.8</ele>
        <time>2022-06-25T06:25:06Z</time>
      </trkpt>
      <trkpt lat="46.66514" lon="5.44812">
        <ele>215.8</ele>
        <time>2022-06-25T06:25:07Z</time>
      </trkpt>
      <trkpt lat="46.66514" lon="5.44803">
        <ele>215.8</ele>
        <time>2022-06-25T06:25:08Z</time>
      </trkpt>
      <trkpt lat="46.66514" lon="5.44793">
        <ele>215.8</ele>
        <time>2022-06-25T06:25:09Z</time>
      </trkpt>
      <trkpt lat="46.66513" lon="5.44784">
        <ele>215.8</ele>
        <time>2022-06-25T06:25:10Z</time>
      </trkpt>
      <trkpt lat="46.66513" lon="5.44774">
        <ele>215.6</ele>
        <time>2022-06-25T06:25:11Z</time>
      </trkpt>
      <trkpt lat="46.66512" lon="5.44765">
        <ele>215.6</ele>
        <time>2022-06-25T06:25:12Z</time>
      </trkpt>
      <trkpt lat="46.66512" lon="5.44756">
        <ele>215.6</ele>
        <time>2022-06-25T06:25:13Z</time>
      </trkpt>
      <trkpt lat="46.66511" lon="5.44746">
        <ele>215.6</ele>
        <time>2022-06-25T06:25:14Z</time>
      </trkpt>
      <trkpt lat="46.6651" lon="5.44737">
        <ele>215.6</ele>
        <time>2022-06-25T06:25:15Z</time>
      </trkpt>
      <trkpt lat="46.6651" lon="5.44727">
        <ele>215.6</ele>
        <time>2022-06-25T06:25:16Z</time>
      </trkpt>
      <trkpt lat="46.66509" lon="5.44717">
        <ele>215.4</ele>
        <time>2022-06-25T06:25:17Z</time>
      </trkpt>
      <trkpt lat="46.66508" lon="5.44708">
        <ele>215.4</ele>
        <time>2022-06-25T06:25:18Z</time>
      </trkpt>
      <trkpt lat="46.66507" lon="5.44698">
        <ele>215.4</ele>
        <time>2022-06-25T06:25:19Z</time>
      </trkpt>
      <trkpt lat="46.66507" lon="5.44688">
        <ele>215.4</ele>
        <time>2022-06-25T06:25:20Z</time>
      </trkpt>
      <trkpt lat="46.66506" lon="5.44678">
        <ele>215.4</ele>
        <time>2022-06-25T06:25:21Z</time>
      </trkpt>
      <trkpt lat="46.66505" lon="5.44668">
        <ele>215.4</ele>
        <time>2022-06-25T06:25:22Z</time>
      </trkpt>
      <trkpt lat="46.66505" lon="5.44658">
        <ele>215.2</ele>
        <time>2022-06-25T06:25:23Z</time>
      </trkpt>
      <trkpt lat="46.66504" lon="5.44649">
        <ele>215.2</ele>
        <time>2022-06-25T06:25:24Z</time>
      </trkpt>
      <trkpt lat="46.66504" lon="5.44639">
        <ele>215.2</ele>
        <time>2022-06-25T06:25:25Z</time>
      </trkpt>
      <trkpt lat="46.66503" lon="5.44629">
        <ele>215.2</ele>
        <time>2022-06-25T06:25:26Z</time>
      </trkpt>
      <trkpt lat="46.66502" lon="5.44619">
        <ele>215.2</ele>
        <time>2022-06-25T06:25:27Z</time>
      </trkpt>
      <trkpt lat="46.66502" lon="5.44609">
        <ele>215</ele>
        <time>2022-06-25T06:25:28Z</time>
      </trkpt>
      <trkpt lat="46.66501" lon="5.44599">
        <ele>215</ele>
        <time>2022-06-25T06:25:29Z</time>
      </trkpt>
      <trkpt lat="46.665" lon="5.44589">
        <ele>215</ele>
        <time>2022-06-25T06:25:30Z</time>
      </trkpt>
      <trkpt lat="46.66499" lon="5.44579">
        <ele>215</ele>
        <time>2022-06-25T06:25:31Z</time>
      </trkpt>
      <trkpt lat="46.66499" lon="5.44569">
        <ele>215</ele>
        <time>2022-06-25T06:25:32Z</time>
      </trkpt>
      <trkpt lat="46.66498" lon="5.44559">
        <ele>215</ele>
        <time>2022-06-25T06:25:33Z</time>
      </trkpt>
      <trkpt lat="46.66497" lon="5.44548">
        <ele>215</ele>
        <time>2022-06-25T06:25:34Z</time>
      </trkpt>
      <trkpt lat="46.66497" lon="5.44538">
        <ele>214.6</ele>
        <time>2022-06-25T06:25:35Z</time>
      </trkpt>
      <trkpt lat="46.66496" lon="5.44528">
        <ele>214.6</ele>
        <time>2022-06-25T06:25:36Z</time>
      </trkpt>
      <trkpt lat="46.66495" lon="5.44518">
        <ele>214.6</ele>
        <time>2022-06-25T06:25:37Z</time>
      </trkpt>
      <trkpt lat="46.66494" lon="5.44508">
        <ele>214.6</ele>
        <time>2022-06-25T06:25:38Z</time>
      </trkpt>
      <trkpt lat="46.66493" lon="5.44498">
        <ele>214.6</ele>
        <time>2022-06-25T06:25:39Z</time>
      </trkpt>
      <trkpt lat="46.66492" lon="5.44488">
        <ele>214.6</ele>
        <time>2022-06-25T06:25:40Z</time>
      </trkpt>
      <trkpt lat="46.66492" lon="5.44478">
        <ele>214.6</ele>
        <time>2022-06-25T06:25:41Z</time>
      </trkpt>
      <trkpt lat="46.66491" lon="5.44469">
        <ele>214.6</ele>
        <time>2022-06-25T06:25:42Z</time>
      </trkpt>
      <trkpt lat="46.6649" lon="5.44459">
        <ele>214.6</ele>
        <time>2022-06-25T06:25:43Z</time>
      </trkpt>
      <trkpt lat="46.66489" lon="5.4445">
        <ele>214.6</ele>
        <time>2022-06-25T06:25:44Z</time>
      </trkpt>
      <trkpt lat="46.66489" lon="5.4444">
        <ele>214.6</ele>
        <time>2022-06-25T06:25:45Z</time>
      </trkpt>
      <trkpt lat="46.66488" lon="5.4443">
        <ele>214.6</ele>
        <time>2022-06-25T06:25:46Z</time>
      </trkpt>
      <trkpt lat="46.66487" lon="5.4442">
        <ele>214.6</ele>
        <time>2022-06-25T06:25:47Z</time>
      </trkpt>
      <trkpt lat="46.66486" lon="5.44411">
        <ele>214.6</ele>
        <time>2022-06-25T06:25:48Z</time>
      </trkpt>
      <trkpt lat="46.66485" lon="5.44401">
        <ele>214.6</ele>
        <time>2022-06-25T06:25:49Z</time>
      </trkpt>
      <trkpt lat="46.66483" lon="5.44391">
        <ele>214.6</ele>
        <time>2022-06-25T06:25:50Z</time>
      </trkpt>
      <trkpt lat="46.66482" lon="5.44382">
        <ele>214.4</ele>
        <time>2022-06-25T06:25:51Z</time>
      </trkpt>
      <trkpt lat="46.6648" lon="5.44372">
        <ele>214.4</ele>
        <time>2022-06-25T06:25:52Z</time>
      </trkpt>
      <trkpt lat="46.66478" lon="5.44363">
        <ele>214.4</ele>
        <time>2022-06-25T06:25:53Z</time>
      </trkpt>
      <trkpt lat="46.66477" lon="5.44354">
        <ele>214.4</ele>
        <time>2022-06-25T06:25:54Z</time>
      </trkpt>
      <trkpt lat="46.66474" lon="5.44345">
        <ele>214.4</ele>
        <time>2022-06-25T06:25:55Z</time>
      </trkpt>
      <trkpt lat="46.66472" lon="5.44335">
        <ele>214.4</ele>
        <time>2022-06-25T06:25:56Z</time>
      </trkpt>
      <trkpt lat="46.6647" lon="5.44326">
        <ele>214.4</ele>
        <time>2022-06-25T06:25:57Z</time>
      </trkpt>
      <trkpt lat="46.66468" lon="5.44317">
        <ele>214.4</ele>
        <time>2022-06-25T06:25:58Z</time>
      </trkpt>
      <trkpt lat="46.66465" lon="5.44308">
        <ele>214.4</ele>
        <time>2022-06-25T06:25:59Z</time>
      </trkpt>
      <trkpt lat="46.66463" lon="5.44299">
        <ele>214.4</ele>
        <time>2022-06-25T06:26:00Z</time>
      </trkpt>
      <trkpt lat="46.6646" lon="5.4429">
        <ele>214.2</ele>
        <time>2022-06-25T06:26:01Z</time>
      </trkpt>
      <trkpt lat="46.66458" lon="5.44281">
        <ele>214.2</ele>
        <time>2022-06-25T06:26:02Z</time>
      </trkpt>
      <trkpt lat="46.66455" lon="5.44272">
        <ele>214.2</ele>
        <time>2022-06-25T06:26:03Z</time>
      </trkpt>
      <trkpt lat="46.66453" lon="5.44264">
        <ele>214.2</ele>
        <time>2022-06-25T06:26:04Z</time>
      </trkpt>
      <trkpt lat="46.6645" lon="5.44256">
        <ele>214.2</ele>
        <time>2022-06-25T06:26:05Z</time>
      </trkpt>
      <trkpt lat="46.66447" lon="5.44248">
        <ele>214.2</ele>
        <time>2022-06-25T06:26:06Z</time>
      </trkpt>
      <trkpt lat="46.66445" lon="5.4424">
        <ele>214.2</ele>
        <time>2022-06-25T06:26:07Z</time>
      </trkpt>
      <trkpt lat="46.66442" lon="5.44232">
        <ele>214.2</ele>
        <time>2022-06-25T06:26:08Z</time>
      </trkpt>
      <trkpt lat="46.66438" lon="5.44224">
        <ele>214.2</ele>
        <time>2022-06-25T06:26:09Z</time>
      </trkpt>
      <trkpt lat="46.66435" lon="5.44216">
        <ele>214.2</ele>
        <time>2022-06-25T06:26:10Z</time>
      </trkpt>
      <trkpt lat="46.66431" lon="5.44208">
        <ele>214.2</ele>
        <time>2022-06-25T06:26:11Z</time>
      </trkpt>
      <trkpt lat="46.66427" lon="5.442">
        <ele>214.2</ele>
        <time>2022-06-25T06:26:12Z</time>
      </trkpt>
      <trkpt lat="46.66424" lon="5.44192">
        <ele>214.2</ele>
        <time>2022-06-25T06:26:13Z</time>
      </trkpt>
      <trkpt lat="46.6642" lon="5.44184">
        <ele>214.2</ele>
        <time>2022-06-25T06:26:14Z</time>
      </trkpt>
      <trkpt lat="46.66416" lon="5.44176">
        <ele>214.2</ele>
        <time>2022-06-25T06:26:15Z</time>
      </trkpt>
      <trkpt lat="46.66413" lon="5.44168">
        <ele>214.2</ele>
        <time>2022-06-25T06:26:16Z</time>
      </trkpt>
      <trkpt lat="46.66409" lon="5.44161">
        <ele>214</ele>
        <time>2022-06-25T06:26:17Z</time>
      </trkpt>
      <trkpt lat="46.66405" lon="5.44153">
        <ele>214</ele>
        <time>2022-06-25T06:26:18Z</time>
      </trkpt>
      <trkpt lat="46.66401" lon="5.44146">
        <ele>214</ele>
        <time>2022-06-25T06:26:19Z</time>
      </trkpt>
      <trkpt lat="46.66397" lon="5.44138">
        <ele>214</ele>
        <time>2022-06-25T06:26:20Z</time>
      </trkpt>
      <trkpt lat="46.66392" lon="5.4413">
        <ele>214</ele>
        <time>2022-06-25T06:26:21Z</time>
      </trkpt>
      <trkpt lat="46.66388" lon="5.44122">
        <ele>214</ele>
        <time>2022-06-25T06:26:22Z</time>
      </trkpt>
      <trkpt lat="46.66383" lon="5.44115">
        <ele>213.8</ele>
        <time>2022-06-25T06:26:23Z</time>
      </trkpt>
      <trkpt lat="46.66379" lon="5.44107">
        <ele>213.8</ele>
        <time>2022-06-25T06:26:24Z</time>
      </trkpt>
      <trkpt lat="46.66375" lon="5.44099">
        <ele>213.8</ele>
        <time>2022-06-25T06:26:25Z</time>
      </trkpt>
      <trkpt lat="46.6637" lon="5.44091">
        <ele>213.8</ele>
        <time>2022-06-25T06:26:26Z</time>
      </trkpt>
      <trkpt lat="46.66366" lon="5.44084">
        <ele>213.8</ele>
        <time>2022-06-25T06:26:27Z</time>
      </trkpt>
      <trkpt lat="46.66362" lon="5.44076">
        <ele>213.6</ele>
        <time>2022-06-25T06:26:28Z</time>
      </trkpt>
      <trkpt lat="46.66357" lon="5.44068">
        <ele>213.6</ele>
        <time>2022-06-25T06:26:29Z</time>
      </trkpt>
      <trkpt lat="46.66353" lon="5.4406">
        <ele>213.6</ele>
        <time>2022-06-25T06:26:30Z</time>
      </trkpt>
      <trkpt lat="46.66349" lon="5.44052">
        <ele>213.6</ele>
        <time>2022-06-25T06:26:31Z</time>
      </trkpt>
      <trkpt lat="46.66345" lon="5.44044">
        <ele>213.6</ele>
        <time>2022-06-25T06:26:32Z</time>
      </trkpt>
      <trkpt lat="46.66341" lon="5.44036">
        <ele>213.6</ele>
        <time>2022-06-25T06:26:33Z</time>
      </trkpt>
      <trkpt lat="46.66337" lon="5.44027">
        <ele>213.6</ele>
        <time>2022-06-25T06:26:34Z</time>
      </trkpt>
      <trkpt lat="46.66333" lon="5.44019">
        <ele>213.6</ele>
        <time>2022-06-25T06:26:35Z</time>
      </trkpt>
      <trkpt lat="46.6633" lon="5.4401">
        <ele>213.6</ele>
        <time>2022-06-25T06:26:36Z</time>
      </trkpt>
      <trkpt lat="46.66326" lon="5.44001">
        <ele>213.6</ele>
        <time>2022-06-25T06:26:37Z</time>
      </trkpt>
      <trkpt lat="46.66323" lon="5.43992">
        <ele>213.6</ele>
        <time>2022-06-25T06:26:38Z</time>
      </trkpt>
      <trkpt lat="46.6632" lon="5.43983">
        <ele>213.6</ele>
        <time>2022-06-25T06:26:39Z</time>
      </trkpt>
      <trkpt lat="46.66315" lon="5.4397">
        <ele>213.6</ele>
        <time>2022-06-25T06:26:40Z</time>
      </trkpt>
      <trkpt lat="46.66313" lon="5.43966">
        <ele>213.6</ele>
        <time>2022-06-25T06:26:41Z</time>
      </trkpt>
      <trkpt lat="46.6631" lon="5.43957">
        <ele>213.6</ele>
        <time>2022-06-25T06:26:42Z</time>
      </trkpt>
      <trkpt lat="46.66307" lon="5.43948">
        <ele>213.6</ele>
        <time>2022-06-25T06:26:43Z</time>
      </trkpt>
      <trkpt lat="46.66305" lon="5.43939">
        <ele>213.6</ele>
        <time>2022-06-25T06:26:44Z</time>
      </trkpt>
      <trkpt lat="46.66302" lon="5.43931">
        <ele>213.6</ele>
        <time>2022-06-25T06:26:45Z</time>
      </trkpt>
      <trkpt lat="46.663" lon="5.43922">
        <ele>213.6</ele>
        <time>2022-06-25T06:26:46Z</time>
      </trkpt>
      <trkpt lat="46.66298" lon="5.43914">
        <ele>213.6</ele>
        <time>2022-06-25T06:26:47Z</time>
      </trkpt>
      <trkpt lat="46.66296" lon="5.43906">
        <ele>213.6</ele>
        <time>2022-06-25T06:26:48Z</time>
      </trkpt>
      <trkpt lat="46.66294" lon="5.43898">
        <ele>213.6</ele>
        <time>2022-06-25T06:26:49Z</time>
      </trkpt>
      <trkpt lat="46.66293" lon="5.43889">
        <ele>213.4</ele>
        <time>2022-06-25T06:26:50Z</time>
      </trkpt>
      <trkpt lat="46.66291" lon="5.43881">
        <ele>213.4</ele>
        <time>2022-06-25T06:26:51Z</time>
      </trkpt>
      <trkpt lat="46.6629" lon="5.43873">
        <ele>213.4</ele>
        <time>2022-06-25T06:26:52Z</time>
      </trkpt>
      <trkpt lat="46.66288" lon="5.43866">
        <ele>213.4</ele>
        <time>2022-06-25T06:26:53Z</time>
      </trkpt>
      <trkpt lat="46.66287" lon="5.43859">
        <ele>213.4</ele>
        <time>2022-06-25T06:26:54Z</time>
      </trkpt>
      <trkpt lat="46.66285" lon="5.43852">
        <ele>213.4</ele>
        <time>2022-06-25T06:26:55Z</time>
      </trkpt>
      <trkpt lat="46.66284" lon="5.43846">
        <ele>213.4</ele>
        <time>2022-06-25T06:26:56Z</time>
      </trkpt>
      <trkpt lat="46.66282" lon="5.4384">
        <ele>213.4</ele>
        <time>2022-06-25T06:26:57Z</time>
      </trkpt>
      <trkpt lat="46.6628" lon="5.43835">
        <ele>213.4</ele>
        <time>2022-06-25T06:26:58Z</time>
      </trkpt>
      <trkpt lat="46.66279" lon="5.4383">
        <ele>213.4</ele>
        <time>2022-06-25T06:26:59Z</time>
      </trkpt>
      <trkpt lat="46.66277" lon="5.43825">
        <ele>213.4</ele>
        <time>2022-06-25T06:27:00Z</time>
      </trkpt>
      <trkpt lat="46.66276" lon="5.4382">
        <ele>213.4</ele>
        <time>2022-06-25T06:27:01Z</time>
      </trkpt>
      <trkpt lat="46.66274" lon="5.43814">
        <ele>213.4</ele>
        <time>2022-06-25T06:27:02Z</time>
      </trkpt>
      <trkpt lat="46.66272" lon="5.43807">
        <ele>213.4</ele>
        <time>2022-06-25T06:27:03Z</time>
      </trkpt>
      <trkpt lat="46.66271" lon="5.43799">
        <ele>213.4</ele>
        <time>2022-06-25T06:27:04Z</time>
      </trkpt>
      <trkpt lat="46.6627" lon="5.43791">
        <ele>213.4</ele>
        <time>2022-06-25T06:27:05Z</time>
      </trkpt>
      <trkpt lat="46.66268" lon="5.43783">
        <ele>213.4</ele>
        <time>2022-06-25T06:27:06Z</time>
      </trkpt>
      <trkpt lat="46.66267" lon="5.43775">
        <ele>213.4</ele>
        <time>2022-06-25T06:27:07Z</time>
      </trkpt>
      <trkpt lat="46.66265" lon="5.43767">
        <ele>213.4</ele>
        <time>2022-06-25T06:27:08Z</time>
      </trkpt>
      <trkpt lat="46.66262" lon="5.43751">
        <ele>213.4</ele>
        <time>2022-06-25T06:27:09Z</time>
      </trkpt>
      <trkpt lat="46.66261" lon="5.43743">
        <ele>213.4</ele>
        <time>2022-06-25T06:27:10Z</time>
      </trkpt>
      <trkpt lat="46.66259" lon="5.43735">
        <ele>213.4</ele>
        <time>2022-06-25T06:27:11Z</time>
      </trkpt>
      <trkpt lat="46.66258" lon="5.43727">
        <ele>213</ele>
        <time>2022-06-25T06:27:12Z</time>
      </trkpt>
      <trkpt lat="46.66257" lon="5.43718">
        <ele>213</ele>
        <time>2022-06-25T06:27:13Z</time>
      </trkpt>
      <trkpt lat="46.66255" lon="5.43709">
        <ele>213</ele>
        <time>2022-06-25T06:27:14Z</time>
      </trkpt>
      <trkpt lat="46.66254" lon="5.43701">
        <ele>213</ele>
        <time>2022-06-25T06:27:15Z</time>
      </trkpt>
      <trkpt lat="46.66253" lon="5.43692">
        <ele>213</ele>
        <time>2022-06-25T06:27:16Z</time>
      </trkpt>
      <trkpt lat="46.66253" lon="5.43684">
        <ele>213</ele>
        <time>2022-06-25T06:27:17Z</time>
      </trkpt>
      <trkpt lat="46.66253" lon="5.43675">
        <ele>213</ele>
        <time>2022-06-25T06:27:18Z</time>
      </trkpt>
      <trkpt lat="46.66253" lon="5.43666">
        <ele>213</ele>
        <time>2022-06-25T06:27:19Z</time>
      </trkpt>
      <trkpt lat="46.66253" lon="5.43658">
        <ele>213</ele>
        <time>2022-06-25T06:27:20Z</time>
      </trkpt>
      <trkpt lat="46.66252" lon="5.43649">
        <ele>213</ele>
        <time>2022-06-25T06:27:21Z</time>
      </trkpt>
      <trkpt lat="46.66252" lon="5.43641">
        <ele>213</ele>
        <time>2022-06-25T06:27:23Z</time>
      </trkpt>
      <trkpt lat="46.66252" lon="5.43632">
        <ele>213</ele>
        <time>2022-06-25T06:27:24Z</time>
      </trkpt>
      <trkpt lat="46.66252" lon="5.43623">
        <ele>213</ele>
        <time>2022-06-25T06:27:25Z</time>
      </trkpt>
      <trkpt lat="46.66253" lon="5.43614">
        <ele>213</ele>
        <time>2022-06-25T06:27:26Z</time>
      </trkpt>
      <trkpt lat="46.66254" lon="5.43604">
        <ele>213</ele>
        <time>2022-06-25T06:27:27Z</time>
      </trkpt>
      <trkpt lat="46.66254" lon="5.43594">
        <ele>213</ele>
        <time>2022-06-25T06:27:28Z</time>
      </trkpt>
      <trkpt lat="46.66255" lon="5.43583">
        <ele>213</ele>
        <time>2022-06-25T06:27:29Z</time>
      </trkpt>
      <trkpt lat="46.66256" lon="5.43572">
        <ele>212.8</ele>
        <time>2022-06-25T06:27:30Z</time>
      </trkpt>
      <trkpt lat="46.66256" lon="5.43562">
        <ele>212.8</ele>
        <time>2022-06-25T06:27:31Z</time>
      </trkpt>
      <trkpt lat="46.66256" lon="5.43551">
        <ele>212.8</ele>
        <time>2022-06-25T06:27:32Z</time>
      </trkpt>
      <trkpt lat="46.66256" lon="5.43541">
        <ele>212.6</ele>
        <time>2022-06-25T06:27:33Z</time>
      </trkpt>
      <trkpt lat="46.66256" lon="5.4353">
        <ele>212.6</ele>
        <time>2022-06-25T06:27:34Z</time>
      </trkpt>
      <trkpt lat="46.66257" lon="5.4352">
        <ele>212.6</ele>
        <time>2022-06-25T06:27:35Z</time>
      </trkpt>
      <trkpt lat="46.66258" lon="5.4351">
        <ele>212.6</ele>
        <time>2022-06-25T06:27:36Z</time>
      </trkpt>
      <trkpt lat="46.66259" lon="5.43499">
        <ele>212.6</ele>
        <time>2022-06-25T06:27:37Z</time>
      </trkpt>
      <trkpt lat="46.6626" lon="5.43489">
        <ele>212.4</ele>
        <time>2022-06-25T06:27:38Z</time>
      </trkpt>
      <trkpt lat="46.66261" lon="5.43479">
        <ele>212.4</ele>
        <time>2022-06-25T06:27:39Z</time>
      </trkpt>
      <trkpt lat="46.66261" lon="5.43469">
        <ele>212.4</ele>
        <time>2022-06-25T06:27:40Z</time>
      </trkpt>
      <trkpt lat="46.66262" lon="5.43459">
        <ele>212</ele>
        <time>2022-06-25T06:27:41Z</time>
      </trkpt>
      <trkpt lat="46.66263" lon="5.43449">
        <ele>212</ele>
        <time>2022-06-25T06:27:42Z</time>
      </trkpt>
      <trkpt lat="46.66263" lon="5.43438">
        <ele>212</ele>
        <time>2022-06-25T06:27:43Z</time>
      </trkpt>
      <trkpt lat="46.66264" lon="5.43429">
        <ele>211.8</ele>
        <time>2022-06-25T06:27:44Z</time>
      </trkpt>
      <trkpt lat="46.66264" lon="5.43419">
        <ele>211.8</ele>
        <time>2022-06-25T06:27:45Z</time>
      </trkpt>
      <trkpt lat="46.66265" lon="5.4341">
        <ele>211.8</ele>
        <time>2022-06-25T06:27:46Z</time>
      </trkpt>
      <trkpt lat="46.66265" lon="5.43401">
        <ele>211.6</ele>
        <time>2022-06-25T06:27:47Z</time>
      </trkpt>
      <trkpt lat="46.66266" lon="5.43391">
        <ele>211.6</ele>
        <time>2022-06-25T06:27:48Z</time>
      </trkpt>
      <trkpt lat="46.66267" lon="5.43382">
        <ele>211.6</ele>
        <time>2022-06-25T06:27:49Z</time>
      </trkpt>
      <trkpt lat="46.66267" lon="5.43372">
        <ele>211.6</ele>
        <time>2022-06-25T06:27:50Z</time>
      </trkpt>
      <trkpt lat="46.66268" lon="5.43362">
        <ele>211.6</ele>
        <time>2022-06-25T06:27:51Z</time>
      </trkpt>
      <trkpt lat="46.66269" lon="5.43353">
        <ele>211.6</ele>
        <time>2022-06-25T06:27:52Z</time>
      </trkpt>
      <trkpt lat="46.6627" lon="5.43343">
        <ele>211.6</ele>
        <time>2022-06-25T06:27:53Z</time>
      </trkpt>
      <trkpt lat="46.66271" lon="5.43334">
        <ele>211.6</ele>
        <time>2022-06-25T06:27:54Z</time>
      </trkpt>
      <trkpt lat="46.66271" lon="5.43324">
        <ele>211.4</ele>
        <time>2022-06-25T06:27:55Z</time>
      </trkpt>
      <trkpt lat="46.66272" lon="5.43314">
        <ele>211.4</ele>
        <time>2022-06-25T06:27:56Z</time>
      </trkpt>
      <trkpt lat="46.66272" lon="5.43305">
        <ele>211.4</ele>
        <time>2022-06-25T06:27:57Z</time>
      </trkpt>
      <trkpt lat="46.66272" lon="5.43296">
        <ele>211</ele>
        <time>2022-06-25T06:27:58Z</time>
      </trkpt>
      <trkpt lat="46.66273" lon="5.43286">
        <ele>211</ele>
        <time>2022-06-25T06:27:59Z</time>
      </trkpt>
      <trkpt lat="46.66273" lon="5.43276">
        <ele>211</ele>
        <time>2022-06-25T06:28:00Z</time>
      </trkpt>
      <trkpt lat="46.66273" lon="5.43266">
        <ele>211</ele>
        <time>2022-06-25T06:28:01Z</time>
      </trkpt>
      <trkpt lat="46.66273" lon="5.43257">
        <ele>211</ele>
        <time>2022-06-25T06:28:02Z</time>
      </trkpt>
      <trkpt lat="46.66274" lon="5.43247">
        <ele>210.8</ele>
        <time>2022-06-25T06:28:03Z</time>
      </trkpt>
      <trkpt lat="46.66274" lon="5.43237">
        <ele>210.8</ele>
        <time>2022-06-25T06:28:04Z</time>
      </trkpt>
      <trkpt lat="46.66274" lon="5.43227">
        <ele>210.8</ele>
        <time>2022-06-25T06:28:05Z</time>
      </trkpt>
      <trkpt lat="46.66274" lon="5.43217">
        <ele>210.8</ele>
        <time>2022-06-25T06:28:06Z</time>
      </trkpt>
      <trkpt lat="46.66273" lon="5.43208">
        <ele>210.6</ele>
        <time>2022-06-25T06:28:07Z</time>
      </trkpt>
      <trkpt lat="46.66273" lon="5.43198">
        <ele>210.6</ele>
        <time>2022-06-25T06:28:08Z</time>
      </trkpt>
      <trkpt lat="46.66273" lon="5.43188">
        <ele>210.6</ele>
        <time>2022-06-25T06:28:09Z</time>
      </trkpt>
      <trkpt lat="46.66272" lon="5.43177">
        <ele>210.6</ele>
        <time>2022-06-25T06:28:10Z</time>
      </trkpt>
      <trkpt lat="46.66272" lon="5.43167">
        <ele>210.6</ele>
        <time>2022-06-25T06:28:11Z</time>
      </trkpt>
      <trkpt lat="46.66271" lon="5.43157">
        <ele>210.6</ele>
        <time>2022-06-25T06:28:12Z</time>
      </trkpt>
      <trkpt lat="46.6627" lon="5.43148">
        <ele>210.6</ele>
        <time>2022-06-25T06:28:13Z</time>
      </trkpt>
      <trkpt lat="46.66269" lon="5.43138">
        <ele>210.6</ele>
        <time>2022-06-25T06:28:14Z</time>
      </trkpt>
      <trkpt lat="46.66268" lon="5.43128">
        <ele>210.6</ele>
        <time>2022-06-25T06:28:15Z</time>
      </trkpt>
      <trkpt lat="46.66267" lon="5.43119">
        <ele>210.6</ele>
        <time>2022-06-25T06:28:16Z</time>
      </trkpt>
      <trkpt lat="46.66266" lon="5.4311">
        <ele>210.6</ele>
        <time>2022-06-25T06:28:17Z</time>
      </trkpt>
      <trkpt lat="46.66264" lon="5.43101">
        <ele>210.6</ele>
        <time>2022-06-25T06:28:18Z</time>
      </trkpt>
      <trkpt lat="46.66263" lon="5.43091">
        <ele>210.6</ele>
        <time>2022-06-25T06:28:19Z</time>
      </trkpt>
      <trkpt lat="46.66262" lon="5.43082">
        <ele>210.6</ele>
        <time>2022-06-25T06:28:20Z</time>
      </trkpt>
      <trkpt lat="46.6626" lon="5.43073">
        <ele>210.6</ele>
        <time>2022-06-25T06:28:21Z</time>
      </trkpt>
      <trkpt lat="46.66258" lon="5.43064">
        <ele>210.4</ele>
        <time>2022-06-25T06:28:22Z</time>
      </trkpt>
      <trkpt lat="46.66256" lon="5.43055">
        <ele>210.4</ele>
        <time>2022-06-25T06:28:23Z</time>
      </trkpt>
      <trkpt lat="46.66255" lon="5.43045">
        <ele>210.4</ele>
        <time>2022-06-25T06:28:24Z</time>
      </trkpt>
      <trkpt lat="46.66253" lon="5.43037">
        <ele>210.4</ele>
        <time>2022-06-25T06:28:25Z</time>
      </trkpt>
      <trkpt lat="46.66251" lon="5.43028">
        <ele>210.4</ele>
        <time>2022-06-25T06:28:26Z</time>
      </trkpt>
      <trkpt lat="46.66249" lon="5.43019">
        <ele>210.4</ele>
        <time>2022-06-25T06:28:27Z</time>
      </trkpt>
      <trkpt lat="46.66246" lon="5.4301">
        <ele>210.4</ele>
        <time>2022-06-25T06:28:28Z</time>
      </trkpt>
      <trkpt lat="46.66243" lon="5.43001">
        <ele>210.4</ele>
        <time>2022-06-25T06:28:29Z</time>
      </trkpt>
      <trkpt lat="46.66241" lon="5.42993">
        <ele>210.4</ele>
        <time>2022-06-25T06:28:30Z</time>
      </trkpt>
      <trkpt lat="46.66238" lon="5.42984">
        <ele>210.4</ele>
        <time>2022-06-25T06:28:31Z</time>
      </trkpt>
      <trkpt lat="46.66235" lon="5.42975">
        <ele>210.4</ele>
        <time>2022-06-25T06:28:32Z</time>
      </trkpt>
      <trkpt lat="46.66232" lon="5.42967">
        <ele>210.4</ele>
        <time>2022-06-25T06:28:33Z</time>
      </trkpt>
      <trkpt lat="46.66228" lon="5.42958">
        <ele>210.4</ele>
        <time>2022-06-25T06:28:34Z</time>
      </trkpt>
      <trkpt lat="46.66225" lon="5.42949">
        <ele>210.4</ele>
        <time>2022-06-25T06:28:35Z</time>
      </trkpt>
      <trkpt lat="46.66222" lon="5.42941">
        <ele>210.4</ele>
        <time>2022-06-25T06:28:36Z</time>
      </trkpt>
      <trkpt lat="46.66218" lon="5.42933">
        <ele>210.4</ele>
        <time>2022-06-25T06:28:37Z</time>
      </trkpt>
      <trkpt lat="46.66214" lon="5.42925">
        <ele>210.4</ele>
        <time>2022-06-25T06:28:38Z</time>
      </trkpt>
      <trkpt lat="46.66211" lon="5.42917">
        <ele>210.4</ele>
        <time>2022-06-25T06:28:39Z</time>
      </trkpt>
      <trkpt lat="46.66207" lon="5.42909">
        <ele>210.2</ele>
        <time>2022-06-25T06:28:40Z</time>
      </trkpt>
      <trkpt lat="46.66203" lon="5.42901">
        <ele>210.2</ele>
        <time>2022-06-25T06:28:41Z</time>
      </trkpt>
      <trkpt lat="46.66199" lon="5.42893">
        <ele>210.2</ele>
        <time>2022-06-25T06:28:42Z</time>
      </trkpt>
      <trkpt lat="46.66195" lon="5.42886">
        <ele>210.2</ele>
        <time>2022-06-25T06:28:43Z</time>
      </trkpt>
      <trkpt lat="46.66191" lon="5.42878">
        <ele>210.2</ele>
        <time>2022-06-25T06:28:44Z</time>
      </trkpt>
      <trkpt lat="46.66186" lon="5.42871">
        <ele>210.2</ele>
        <time>2022-06-25T06:28:45Z</time>
      </trkpt>
      <trkpt lat="46.66182" lon="5.42863">
        <ele>210.2</ele>
        <time>2022-06-25T06:28:46Z</time>
      </trkpt>
      <trkpt lat="46.66178" lon="5.42856">
        <ele>210.2</ele>
        <time>2022-06-25T06:28:47Z</time>
      </trkpt>
      <trkpt lat="46.66174" lon="5.42849">
        <ele>210.2</ele>
        <time>2022-06-25T06:28:48Z</time>
      </trkpt>
      <trkpt lat="46.66169" lon="5.42842">
        <ele>210</ele>
        <time>2022-06-25T06:28:49Z</time>
      </trkpt>
      <trkpt lat="46.66165" lon="5.42835">
        <ele>210</ele>
        <time>2022-06-25T06:28:50Z</time>
      </trkpt>
      <trkpt lat="46.66161" lon="5.42827">
        <ele>210</ele>
        <time>2022-06-25T06:28:51Z</time>
      </trkpt>
      <trkpt lat="46.66156" lon="5.4282">
        <ele>210</ele>
        <time>2022-06-25T06:28:52Z</time>
      </trkpt>
      <trkpt lat="46.66152" lon="5.42813">
        <ele>210</ele>
        <time>2022-06-25T06:28:53Z</time>
      </trkpt>
      <trkpt lat="46.66147" lon="5.42807">
        <ele>210</ele>
        <time>2022-06-25T06:28:54Z</time>
      </trkpt>
      <trkpt lat="46.66143" lon="5.428">
        <ele>210</ele>
        <time>2022-06-25T06:28:55Z</time>
      </trkpt>
      <trkpt lat="46.66139" lon="5.42793">
        <ele>210</ele>
        <time>2022-06-25T06:28:56Z</time>
      </trkpt>
      <trkpt lat="46.66135" lon="5.42786">
        <ele>210</ele>
        <time>2022-06-25T06:28:57Z</time>
      </trkpt>
      <trkpt lat="46.66131" lon="5.42779">
        <ele>210</ele>
        <time>2022-06-25T06:28:58Z</time>
      </trkpt>
      <trkpt lat="46.66126" lon="5.42773">
        <ele>210</ele>
        <time>2022-06-25T06:28:59Z</time>
      </trkpt>
      <trkpt lat="46.66122" lon="5.42766">
        <ele>210</ele>
        <time>2022-06-25T06:29:00Z</time>
      </trkpt>
      <trkpt lat="46.66118" lon="5.42759">
        <ele>210</ele>
        <time>2022-06-25T06:29:01Z</time>
      </trkpt>
      <trkpt lat="46.66114" lon="5.42753">
        <ele>210</ele>
        <time>2022-06-25T06:29:02Z</time>
      </trkpt>
      <trkpt lat="46.6611" lon="5.42746">
        <ele>210</ele>
        <time>2022-06-25T06:29:03Z</time>
      </trkpt>
      <trkpt lat="46.66106" lon="5.4274">
        <ele>210</ele>
        <time>2022-06-25T06:29:04Z</time>
      </trkpt>
      <trkpt lat="46.66103" lon="5.42733">
        <ele>210</ele>
        <time>2022-06-25T06:29:05Z</time>
      </trkpt>
      <trkpt lat="46.66099" lon="5.42727">
        <ele>210</ele>
        <time>2022-06-25T06:29:06Z</time>
      </trkpt>
      <trkpt lat="46.66095" lon="5.42721">
        <ele>210</ele>
        <time>2022-06-25T06:29:07Z</time>
      </trkpt>
      <trkpt lat="46.66091" lon="5.42714">
        <ele>210</ele>
        <time>2022-06-25T06:29:08Z</time>
      </trkpt>
      <trkpt lat="46.66088" lon="5.42708">
        <ele>210</ele>
        <time>2022-06-25T06:29:09Z</time>
      </trkpt>
      <trkpt lat="46.66084" lon="5.42702">
        <ele>210</ele>
        <time>2022-06-25T06:29:10Z</time>
      </trkpt>
      <trkpt lat="46.6608" lon="5.42696">
        <ele>210</ele>
        <time>2022-06-25T06:29:11Z</time>
      </trkpt>
      <trkpt lat="46.66076" lon="5.4269">
        <ele>210</ele>
        <time>2022-06-25T06:29:12Z</time>
      </trkpt>
      <trkpt lat="46.66073" lon="5.42684">
        <ele>210</ele>
        <time>2022-06-25T06:29:13Z</time>
      </trkpt>
      <trkpt lat="46.66069" lon="5.42678">
        <ele>210</ele>
        <time>2022-06-25T06:29:14Z</time>
      </trkpt>
      <trkpt lat="46.66066" lon="5.42672">
        <ele>210</ele>
        <time>2022-06-25T06:29:15Z</time>
      </trkpt>
      <trkpt lat="46.66062" lon="5.42667">
        <ele>210</ele>
        <time>2022-06-25T06:29:16Z</time>
      </trkpt>
      <trkpt lat="46.66059" lon="5.42662">
        <ele>210</ele>
        <time>2022-06-25T06:29:17Z</time>
      </trkpt>
      <trkpt lat="46.66056" lon="5.42657">
        <ele>210</ele>
        <time>2022-06-25T06:29:18Z</time>
      </trkpt>
      <trkpt lat="46.66053" lon="5.42651">
        <ele>210</ele>
        <time>2022-06-25T06:29:19Z</time>
      </trkpt>
      <trkpt lat="46.6605" lon="5.42645">
        <ele>210</ele>
        <time>2022-06-25T06:29:20Z</time>
      </trkpt>
      <trkpt lat="46.66046" lon="5.42639">
        <ele>210</ele>
        <time>2022-06-25T06:29:21Z</time>
      </trkpt>
      <trkpt lat="46.66042" lon="5.42633">
        <ele>210</ele>
        <time>2022-06-25T06:29:22Z</time>
      </trkpt>
      <trkpt lat="46.66039" lon="5.42627">
        <ele>210</ele>
        <time>2022-06-25T06:29:23Z</time>
      </trkpt>
      <trkpt lat="46.66035" lon="5.4262">
        <ele>210</ele>
        <time>2022-06-25T06:29:24Z</time>
      </trkpt>
      <trkpt lat="46.66031" lon="5.42614">
        <ele>210</ele>
        <time>2022-06-25T06:29:25Z</time>
      </trkpt>
      <trkpt lat="46.66027" lon="5.42607">
        <ele>210</ele>
        <time>2022-06-25T06:29:26Z</time>
      </trkpt>
      <trkpt lat="46.66023" lon="5.42601">
        <ele>210</ele>
        <time>2022-06-25T06:29:27Z</time>
      </trkpt>
      <trkpt lat="46.66019" lon="5.42594">
        <ele>210</ele>
        <time>2022-06-25T06:29:28Z</time>
      </trkpt>
      <trkpt lat="46.66015" lon="5.42588">
        <ele>210.2</ele>
        <time>2022-06-25T06:29:29Z</time>
      </trkpt>
      <trkpt lat="46.66011" lon="5.42581">
        <ele>210.2</ele>
        <time>2022-06-25T06:29:30Z</time>
      </trkpt>
      <trkpt lat="46.66007" lon="5.42575">
        <ele>210.2</ele>
        <time>2022-06-25T06:29:31Z</time>
      </trkpt>
      <trkpt lat="46.66003" lon="5.42568">
        <ele>210.2</ele>
        <time>2022-06-25T06:29:32Z</time>
      </trkpt>
      <trkpt lat="46.65999" lon="5.42561">
        <ele>210.2</ele>
        <time>2022-06-25T06:29:33Z</time>
      </trkpt>
      <trkpt lat="46.65995" lon="5.42554">
        <ele>210.2</ele>
        <time>2022-06-25T06:29:34Z</time>
      </trkpt>
      <trkpt lat="46.65991" lon="5.42546">
        <ele>210.2</ele>
        <time>2022-06-25T06:29:35Z</time>
      </trkpt>
      <trkpt lat="46.65987" lon="5.42539">
        <ele>210.2</ele>
        <time>2022-06-25T06:29:36Z</time>
      </trkpt>
      <trkpt lat="46.65983" lon="5.42531">
        <ele>210.2</ele>
        <time>2022-06-25T06:29:37Z</time>
      </trkpt>
      <trkpt lat="46.65979" lon="5.42524">
        <ele>210.2</ele>
        <time>2022-06-25T06:29:38Z</time>
      </trkpt>
      <trkpt lat="46.65975" lon="5.42516">
        <ele>210.2</ele>
        <time>2022-06-25T06:29:39Z</time>
      </trkpt>
      <trkpt lat="46.65972" lon="5.42509">
        <ele>210.2</ele>
        <time>2022-06-25T06:29:40Z</time>
      </trkpt>
      <trkpt lat="46.65968" lon="5.42501">
        <ele>210.2</ele>
        <time>2022-06-25T06:29:41Z</time>
      </trkpt>
      <trkpt lat="46.65965" lon="5.42494">
        <ele>210.2</ele>
        <time>2022-06-25T06:29:42Z</time>
      </trkpt>
      <trkpt lat="46.65963" lon="5.42486">
        <ele>210</ele>
        <time>2022-06-25T06:29:43Z</time>
      </trkpt>
      <trkpt lat="46.6596" lon="5.42479">
        <ele>210</ele>
        <time>2022-06-25T06:29:44Z</time>
      </trkpt>
      <trkpt lat="46.65957" lon="5.42471">
        <ele>210</ele>
        <time>2022-06-25T06:29:45Z</time>
      </trkpt>
      <trkpt lat="46.65954" lon="5.42463">
        <ele>210</ele>
        <time>2022-06-25T06:29:46Z</time>
      </trkpt>
      <trkpt lat="46.65952" lon="5.42455">
        <ele>210</ele>
        <time>2022-06-25T06:29:47Z</time>
      </trkpt>
      <trkpt lat="46.65949" lon="5.42448">
        <ele>210</ele>
        <time>2022-06-25T06:29:48Z</time>
      </trkpt>
      <trkpt lat="46.65947" lon="5.4244">
        <ele>210</ele>
        <time>2022-06-25T06:29:49Z</time>
      </trkpt>
      <trkpt lat="46.65944" lon="5.42432">
        <ele>210</ele>
        <time>2022-06-25T06:29:50Z</time>
      </trkpt>
      <trkpt lat="46.65942" lon="5.42424">
        <ele>209.6</ele>
        <time>2022-06-25T06:29:51Z</time>
      </trkpt>
      <trkpt lat="46.6594" lon="5.42416">
        <ele>209.6</ele>
        <time>2022-06-25T06:29:52Z</time>
      </trkpt>
      <trkpt lat="46.65938" lon="5.42408">
        <ele>209.6</ele>
        <time>2022-06-25T06:29:53Z</time>
      </trkpt>
      <trkpt lat="46.65936" lon="5.424">
        <ele>209.6</ele>
        <time>2022-06-25T06:29:54Z</time>
      </trkpt>
      <trkpt lat="46.65934" lon="5.42392">
        <ele>209.6</ele>
        <time>2022-06-25T06:29:55Z</time>
      </trkpt>
      <trkpt lat="46.65933" lon="5.42385">
        <ele>209.6</ele>
        <time>2022-06-25T06:29:56Z</time>
      </trkpt>
      <trkpt lat="46.65931" lon="5.42377">
        <ele>209.6</ele>
        <time>2022-06-25T06:29:57Z</time>
      </trkpt>
      <trkpt lat="46.65929" lon="5.4237">
        <ele>209.6</ele>
        <time>2022-06-25T06:29:58Z</time>
      </trkpt>
      <trkpt lat="46.65928" lon="5.42363">
        <ele>209.6</ele>
        <time>2022-06-25T06:29:59Z</time>
      </trkpt>
      <trkpt lat="46.65927" lon="5.42355">
        <ele>209.6</ele>
        <time>2022-06-25T06:30:00Z</time>
      </trkpt>
      <trkpt lat="46.65926" lon="5.42348">
        <ele>209.6</ele>
        <time>2022-06-25T06:30:01Z</time>
      </trkpt>
      <trkpt lat="46.65925" lon="5.42341">
        <ele>209.4</ele>
        <time>2022-06-25T06:30:02Z</time>
      </trkpt>
      <trkpt lat="46.65924" lon="5.42334">
        <ele>209.4</ele>
        <time>2022-06-25T06:30:03Z</time>
      </trkpt>
      <trkpt lat="46.65923" lon="5.42326">
        <ele>209.4</ele>
        <time>2022-06-25T06:30:04Z</time>
      </trkpt>
      <trkpt lat="46.65922" lon="5.42319">
        <ele>209.4</ele>
        <time>2022-06-25T06:30:05Z</time>
      </trkpt>
      <trkpt lat="46.6592" lon="5.42311">
        <ele>209.4</ele>
        <time>2022-06-25T06:30:06Z</time>
      </trkpt>
      <trkpt lat="46.65919" lon="5.42303">
        <ele>209.4</ele>
        <time>2022-06-25T06:30:07Z</time>
      </trkpt>
      <trkpt lat="46.65918" lon="5.42295">
        <ele>209.4</ele>
        <time>2022-06-25T06:30:08Z</time>
      </trkpt>
      <trkpt lat="46.65917" lon="5.42286">
        <ele>209.4</ele>
        <time>2022-06-25T06:30:09Z</time>
      </trkpt>
      <trkpt lat="46.65915" lon="5.42278">
        <ele>209.4</ele>
        <time>2022-06-25T06:30:10Z</time>
      </trkpt>
      <trkpt lat="46.65914" lon="5.4227">
        <ele>209.4</ele>
        <time>2022-06-25T06:30:11Z</time>
      </trkpt>
      <trkpt lat="46.65913" lon="5.42262">
        <ele>209.4</ele>
        <time>2022-06-25T06:30:12Z</time>
      </trkpt>
      <trkpt lat="46.65911" lon="5.42253">
        <ele>209.4</ele>
        <time>2022-06-25T06:30:13Z</time>
      </trkpt>
      <trkpt lat="46.6591" lon="5.42245">
        <ele>209.4</ele>
        <time>2022-06-25T06:30:14Z</time>
      </trkpt>
      <trkpt lat="46.65908" lon="5.42236">
        <ele>209.4</ele>
        <time>2022-06-25T06:30:15Z</time>
      </trkpt>
      <trkpt lat="46.65907" lon="5.42227">
        <ele>209.4</ele>
        <time>2022-06-25T06:30:16Z</time>
      </trkpt>
      <trkpt lat="46.65905" lon="5.42219">
        <ele>209.4</ele>
        <time>2022-06-25T06:30:17Z</time>
      </trkpt>
      <trkpt lat="46.65903" lon="5.42211">
        <ele>209.4</ele>
        <time>2022-06-25T06:30:18Z</time>
      </trkpt>
      <trkpt lat="46.65901" lon="5.42202">
        <ele>209.4</ele>
        <time>2022-06-25T06:30:19Z</time>
      </trkpt>
      <trkpt lat="46.65899" lon="5.42194">
        <ele>209.4</ele>
        <time>2022-06-25T06:30:20Z</time>
      </trkpt>
      <trkpt lat="46.65897" lon="5.42185">
        <ele>209.4</ele>
        <time>2022-06-25T06:30:21Z</time>
      </trkpt>
      <trkpt lat="46.65895" lon="5.42177">
        <ele>209.4</ele>
        <time>2022-06-25T06:30:22Z</time>
      </trkpt>
      <trkpt lat="46.65892" lon="5.42169">
        <ele>209.4</ele>
        <time>2022-06-25T06:30:23Z</time>
      </trkpt>
      <trkpt lat="46.6589" lon="5.42161">
        <ele>209.4</ele>
        <time>2022-06-25T06:30:24Z</time>
      </trkpt>
      <trkpt lat="46.65887" lon="5.42153">
        <ele>209.4</ele>
        <time>2022-06-25T06:30:25Z</time>
      </trkpt>
      <trkpt lat="46.65884" lon="5.42145">
        <ele>209.4</ele>
        <time>2022-06-25T06:30:26Z</time>
      </trkpt>
      <trkpt lat="46.65882" lon="5.42137">
        <ele>209.4</ele>
        <time>2022-06-25T06:30:27Z</time>
      </trkpt>
      <trkpt lat="46.65879" lon="5.42129">
        <ele>209.4</ele>
        <time>2022-06-25T06:30:28Z</time>
      </trkpt>
      <trkpt lat="46.65876" lon="5.42121">
        <ele>209.4</ele>
        <time>2022-06-25T06:30:29Z</time>
      </trkpt>
      <trkpt lat="46.65873" lon="5.42113">
        <ele>209.4</ele>
        <time>2022-06-25T06:30:30Z</time>
      </trkpt>
      <trkpt lat="46.6587" lon="5.42106">
        <ele>209.4</ele>
        <time>2022-06-25T06:30:31Z</time>
      </trkpt>
      <trkpt lat="46.65867" lon="5.42098">
        <ele>209.4</ele>
        <time>2022-06-25T06:30:32Z</time>
      </trkpt>
      <trkpt lat="46.65864" lon="5.4209">
        <ele>209.4</ele>
        <time>2022-06-25T06:30:33Z</time>
      </trkpt>
      <trkpt lat="46.65861" lon="5.42083">
        <ele>209.4</ele>
        <time>2022-06-25T06:30:34Z</time>
      </trkpt>
      <trkpt lat="46.65858" lon="5.42075">
        <ele>209.4</ele>
        <time>2022-06-25T06:30:35Z</time>
      </trkpt>
      <trkpt lat="46.65854" lon="5.42067">
        <ele>209.4</ele>
        <time>2022-06-25T06:30:36Z</time>
      </trkpt>
      <trkpt lat="46.65851" lon="5.4206">
        <ele>209.4</ele>
        <time>2022-06-25T06:30:37Z</time>
      </trkpt>
      <trkpt lat="46.65847" lon="5.42053">
        <ele>209.4</ele>
        <time>2022-06-25T06:30:38Z</time>
      </trkpt>
      <trkpt lat="46.65843" lon="5.42046">
        <ele>209.4</ele>
        <time>2022-06-25T06:30:39Z</time>
      </trkpt>
      <trkpt lat="46.6584" lon="5.42039">
        <ele>209.4</ele>
        <time>2022-06-25T06:30:40Z</time>
      </trkpt>
      <trkpt lat="46.65836" lon="5.42032">
        <ele>209.4</ele>
        <time>2022-06-25T06:30:41Z</time>
      </trkpt>
      <trkpt lat="46.65832" lon="5.42025">
        <ele>209.4</ele>
        <time>2022-06-25T06:30:42Z</time>
      </trkpt>
      <trkpt lat="46.65828" lon="5.42018">
        <ele>209.4</ele>
        <time>2022-06-25T06:30:43Z</time>
      </trkpt>
      <trkpt lat="46.65823" lon="5.42012">
        <ele>209.4</ele>
        <time>2022-06-25T06:30:44Z</time>
      </trkpt>
      <trkpt lat="46.65819" lon="5.42006">
        <ele>209.4</ele>
        <time>2022-06-25T06:30:45Z</time>
      </trkpt>
      <trkpt lat="46.65815" lon="5.41999">
        <ele>209.4</ele>
        <time>2022-06-25T06:30:46Z</time>
      </trkpt>
      <trkpt lat="46.6581" lon="5.41993">
        <ele>209.4</ele>
        <time>2022-06-25T06:30:47Z</time>
      </trkpt>
      <trkpt lat="46.65806" lon="5.41987">
        <ele>209.4</ele>
        <time>2022-06-25T06:30:48Z</time>
      </trkpt>
      <trkpt lat="46.65801" lon="5.41981">
        <ele>209.4</ele>
        <time>2022-06-25T06:30:49Z</time>
      </trkpt>
      <trkpt lat="46.65797" lon="5.41975">
        <ele>209.4</ele>
        <time>2022-06-25T06:30:50Z</time>
      </trkpt>
      <trkpt lat="46.65792" lon="5.41969">
        <ele>209.6</ele>
        <time>2022-06-25T06:30:51Z</time>
      </trkpt>
      <trkpt lat="46.65787" lon="5.41963">
        <ele>209.6</ele>
        <time>2022-06-25T06:30:52Z</time>
      </trkpt>
      <trkpt lat="46.65783" lon="5.41957">
        <ele>209.6</ele>
        <time>2022-06-25T06:30:53Z</time>
      </trkpt>
      <trkpt lat="46.65778" lon="5.41951">
        <ele>209.6</ele>
        <time>2022-06-25T06:30:54Z</time>
      </trkpt>
      <trkpt lat="46.65773" lon="5.41945">
        <ele>209.6</ele>
        <time>2022-06-25T06:30:55Z</time>
      </trkpt>
      <trkpt lat="46.65769" lon="5.41938">
        <ele>209.6</ele>
        <time>2022-06-25T06:30:56Z</time>
      </trkpt>
      <trkpt lat="46.65764" lon="5.41932">
        <ele>209.6</ele>
        <time>2022-06-25T06:30:57Z</time>
      </trkpt>
      <trkpt lat="46.65759" lon="5.41926">
        <ele>209.6</ele>
        <time>2022-06-25T06:30:58Z</time>
      </trkpt>
      <trkpt lat="46.65754" lon="5.4192">
        <ele>209.6</ele>
        <time>2022-06-25T06:30:59Z</time>
      </trkpt>
      <trkpt lat="46.6575" lon="5.41914">
        <ele>209.8</ele>
        <time>2022-06-25T06:31:00Z</time>
      </trkpt>
      <trkpt lat="46.65745" lon="5.41908">
        <ele>209.8</ele>
        <time>2022-06-25T06:31:01Z</time>
      </trkpt>
      <trkpt lat="46.65741" lon="5.41901">
        <ele>209.8</ele>
        <time>2022-06-25T06:31:02Z</time>
      </trkpt>
      <trkpt lat="46.65736" lon="5.41895">
        <ele>209.8</ele>
        <time>2022-06-25T06:31:03Z</time>
      </trkpt>
      <trkpt lat="46.65732" lon="5.41889">
        <ele>209.8</ele>
        <time>2022-06-25T06:31:04Z</time>
      </trkpt>
      <trkpt lat="46.65727" lon="5.41883">
        <ele>209.6</ele>
        <time>2022-06-25T06:31:05Z</time>
      </trkpt>
      <trkpt lat="46.65723" lon="5.41877">
        <ele>209.6</ele>
        <time>2022-06-25T06:31:06Z</time>
      </trkpt>
      <trkpt lat="46.65718" lon="5.4187">
        <ele>209.6</ele>
        <time>2022-06-25T06:31:07Z</time>
      </trkpt>
      <trkpt lat="46.65714" lon="5.41864">
        <ele>209.6</ele>
        <time>2022-06-25T06:31:08Z</time>
      </trkpt>
      <trkpt lat="46.6571" lon="5.41857">
        <ele>209.6</ele>
        <time>2022-06-25T06:31:09Z</time>
      </trkpt>
      <trkpt lat="46.65705" lon="5.41851">
        <ele>209.6</ele>
        <time>2022-06-25T06:31:10Z</time>
      </trkpt>
      <trkpt lat="46.65701" lon="5.41844">
        <ele>209.6</ele>
        <time>2022-06-25T06:31:11Z</time>
      </trkpt>
      <trkpt lat="46.65697" lon="5.41838">
        <ele>209.6</ele>
        <time>2022-06-25T06:31:12Z</time>
      </trkpt>
      <trkpt lat="46.65693" lon="5.41831">
        <ele>209.6</ele>
        <time>2022-06-25T06:31:13Z</time>
      </trkpt>
      <trkpt lat="46.6569" lon="5.41825">
        <ele>209.6</ele>
        <time>2022-06-25T06:31:14Z</time>
      </trkpt>
      <trkpt lat="46.65687" lon="5.41819">
        <ele>209.6</ele>
        <time>2022-06-25T06:31:15Z</time>
      </trkpt>
      <trkpt lat="46.65684" lon="5.41813">
        <ele>209.8</ele>
        <time>2022-06-25T06:31:16Z</time>
      </trkpt>
      <trkpt lat="46.65681" lon="5.41808">
        <ele>209.8</ele>
        <time>2022-06-25T06:31:17Z</time>
      </trkpt>
      <trkpt lat="46.65679" lon="5.41802">
        <ele>209.8</ele>
        <time>2022-06-25T06:31:18Z</time>
      </trkpt>
      <trkpt lat="46.65676" lon="5.41797">
        <ele>209.8</ele>
        <time>2022-06-25T06:31:19Z</time>
      </trkpt>
      <trkpt lat="46.65673" lon="5.41791">
        <ele>209.8</ele>
        <time>2022-06-25T06:31:20Z</time>
      </trkpt>
      <trkpt lat="46.65671" lon="5.41785">
        <ele>209.8</ele>
        <time>2022-06-25T06:31:21Z</time>
      </trkpt>
      <trkpt lat="46.65668" lon="5.41779">
        <ele>209.8</ele>
        <time>2022-06-25T06:31:22Z</time>
      </trkpt>
      <trkpt lat="46.65666" lon="5.41773">
        <ele>209.8</ele>
        <time>2022-06-25T06:31:23Z</time>
      </trkpt>
      <trkpt lat="46.65663" lon="5.41767">
        <ele>209.8</ele>
        <time>2022-06-25T06:31:24Z</time>
      </trkpt>
      <trkpt lat="46.65661" lon="5.41761">
        <ele>209.8</ele>
        <time>2022-06-25T06:31:25Z</time>
      </trkpt>
      <trkpt lat="46.65658" lon="5.41753">
        <ele>209.8</ele>
        <time>2022-06-25T06:31:26Z</time>
      </trkpt>
      <trkpt lat="46.65656" lon="5.41746">
        <ele>209.8</ele>
        <time>2022-06-25T06:31:27Z</time>
      </trkpt>
      <trkpt lat="46.65653" lon="5.41738">
        <ele>209.8</ele>
        <time>2022-06-25T06:31:28Z</time>
      </trkpt>
      <trkpt lat="46.65651" lon="5.41731">
        <ele>209.8</ele>
        <time>2022-06-25T06:31:29Z</time>
      </trkpt>
      <trkpt lat="46.65648" lon="5.41723">
        <ele>209.8</ele>
        <time>2022-06-25T06:31:30Z</time>
      </trkpt>
      <trkpt lat="46.65646" lon="5.41715">
        <ele>209.6</ele>
        <time>2022-06-25T06:31:31Z</time>
      </trkpt>
      <trkpt lat="46.65644" lon="5.41708">
        <ele>209.6</ele>
        <time>2022-06-25T06:31:32Z</time>
      </trkpt>
      <trkpt lat="46.65643" lon="5.41701">
        <ele>209.6</ele>
        <time>2022-06-25T06:31:33Z</time>
      </trkpt>
      <trkpt lat="46.65644" lon="5.41695">
        <ele>209.8</ele>
        <time>2022-06-25T06:31:34Z</time>
      </trkpt>
      <trkpt lat="46.65645" lon="5.41691">
        <ele>209.8</ele>
        <time>2022-06-25T06:31:35Z</time>
      </trkpt>
      <trkpt lat="46.65647" lon="5.41689">
        <ele>210.2</ele>
        <time>2022-06-25T06:31:36Z</time>
      </trkpt>
      <trkpt lat="46.65649" lon="5.41689">
        <ele>210.2</ele>
        <time>2022-06-25T06:31:37Z</time>
      </trkpt>
      <trkpt lat="46.65651" lon="5.4169">
        <ele>210.4</ele>
        <time>2022-06-25T06:31:38Z</time>
      </trkpt>
      <trkpt lat="46.65654" lon="5.41692">
        <ele>210.4</ele>
        <time>2022-06-25T06:31:39Z</time>
      </trkpt>
      <trkpt lat="46.65656" lon="5.41695">
        <ele>210.6</ele>
        <time>2022-06-25T06:31:40Z</time>
      </trkpt>
      <trkpt lat="46.65658" lon="5.41698">
        <ele>210.6</ele>
        <time>2022-06-25T06:31:41Z</time>
      </trkpt>
      <trkpt lat="46.6566" lon="5.41701">
        <ele>210.6</ele>
        <time>2022-06-25T06:31:42Z</time>
      </trkpt>
      <trkpt lat="46.65662" lon="5.41705">
        <ele>210.6</ele>
        <time>2022-06-25T06:31:43Z</time>
      </trkpt>
      <trkpt lat="46.65664" lon="5.41709">
        <ele>211</ele>
        <time>2022-06-25T06:31:44Z</time>
      </trkpt>
      <trkpt lat="46.65666" lon="5.41713">
        <ele>211</ele>
        <time>2022-06-25T06:31:45Z</time>
      </trkpt>
      <trkpt lat="46.65668" lon="5.41717">
        <ele>211.2</ele>
        <time>2022-06-25T06:31:46Z</time>
      </trkpt>
      <trkpt lat="46.6567" lon="5.41722">
        <ele>211.2</ele>
        <time>2022-06-25T06:31:47Z</time>
      </trkpt>
      <trkpt lat="46.65672" lon="5.41726">
        <ele>211.2</ele>
        <time>2022-06-25T06:31:48Z</time>
      </trkpt>
      <trkpt lat="46.65674" lon="5.4173">
        <ele>211.2</ele>
        <time>2022-06-25T06:31:49Z</time>
      </trkpt>
      <trkpt lat="46.65676" lon="5.41734">
        <ele>211.4</ele>
        <time>2022-06-25T06:31:50Z</time>
      </trkpt>
      <trkpt lat="46.65679" lon="5.41738">
        <ele>211.4</ele>
        <time>2022-06-25T06:31:51Z</time>
      </trkpt>
      <trkpt lat="46.65681" lon="5.41742">
        <ele>211.4</ele>
        <time>2022-06-25T06:31:52Z</time>
      </trkpt>
      <trkpt lat="46.65683" lon="5.41746">
        <ele>211.4</ele>
        <time>2022-06-25T06:31:53Z</time>
      </trkpt>
      <trkpt lat="46.65685" lon="5.4175">
        <ele>211.6</ele>
        <time>2022-06-25T06:31:54Z</time>
      </trkpt>
      <trkpt lat="46.65688" lon="5.41754">
        <ele>211.6</ele>
        <time>2022-06-25T06:31:55Z</time>
      </trkpt>
      <trkpt lat="46.6569" lon="5.41758">
        <ele>211.6</ele>
        <time>2022-06-25T06:31:56Z</time>
      </trkpt>
      <trkpt lat="46.65693" lon="5.41762">
        <ele>212</ele>
        <time>2022-06-25T06:31:57Z</time>
      </trkpt>
      <trkpt lat="46.65695" lon="5.41767">
        <ele>212</ele>
        <time>2022-06-25T06:31:58Z</time>
      </trkpt>
      <trkpt lat="46.65697" lon="5.41771">
        <ele>212</ele>
        <time>2022-06-25T06:31:59Z</time>
      </trkpt>
      <trkpt lat="46.65699" lon="5.41775">
        <ele>212</ele>
        <time>2022-06-25T06:32:00Z</time>
      </trkpt>
      <trkpt lat="46.65701" lon="5.4178">
        <ele>212</ele>
        <time>2022-06-25T06:32:01Z</time>
      </trkpt>
      <trkpt lat="46.65703" lon="5.41784">
        <ele>212.2</ele>
        <time>2022-06-25T06:32:02Z</time>
      </trkpt>
      <trkpt lat="46.65706" lon="5.41789">
        <ele>212.2</ele>
        <time>2022-06-25T06:32:03Z</time>
      </trkpt>
      <trkpt lat="46.65708" lon="5.41793">
        <ele>212.2</ele>
        <time>2022-06-25T06:32:04Z</time>
      </trkpt>
      <trkpt lat="46.6571" lon="5.41797">
        <ele>212.2</ele>
        <time>2022-06-25T06:32:05Z</time>
      </trkpt>
      <trkpt lat="46.65713" lon="5.41802">
        <ele>212.2</ele>
        <time>2022-06-25T06:32:06Z</time>
      </trkpt>
      <trkpt lat="46.65715" lon="5.41806">
        <ele>212.2</ele>
        <time>2022-06-25T06:32:07Z</time>
      </trkpt>
      <trkpt lat="46.65718" lon="5.41811">
        <ele>212.2</ele>
        <time>2022-06-25T06:32:08Z</time>
      </trkpt>
      <trkpt lat="46.65721" lon="5.41815">
        <ele>212.4</ele>
        <time>2022-06-25T06:32:09Z</time>
      </trkpt>
      <trkpt lat="46.65723" lon="5.41819">
        <ele>212.4</ele>
        <time>2022-06-25T06:32:10Z</time>
      </trkpt>
      <trkpt lat="46.65726" lon="5.41824">
        <ele>212.4</ele>
        <time>2022-06-25T06:32:11Z</time>
      </trkpt>
      <trkpt lat="46.65728" lon="5.41828">
        <ele>212.6</ele>
        <time>2022-06-25T06:32:12Z</time>
      </trkpt>
      <trkpt lat="46.65731" lon="5.41833">
        <ele>212.6</ele>
        <time>2022-06-25T06:32:13Z</time>
      </trkpt>
      <trkpt lat="46.65733" lon="5.41837">
        <ele>212.6</ele>
        <time>2022-06-25T06:32:14Z</time>
      </trkpt>
      <trkpt lat="46.65736" lon="5.41842">
        <ele>212.6</ele>
        <time>2022-06-25T06:32:15Z</time>
      </trkpt>
      <trkpt lat="46.65739" lon="5.41846">
        <ele>212.6</ele>
        <time>2022-06-25T06:32:16Z</time>
      </trkpt>
      <trkpt lat="46.65742" lon="5.41851">
        <ele>212.8</ele>
        <time>2022-06-25T06:32:17Z</time>
      </trkpt>
      <trkpt lat="46.65744" lon="5.41855">
        <ele>212.8</ele>
        <time>2022-06-25T06:32:18Z</time>
      </trkpt>
      <trkpt lat="46.65747" lon="5.41859">
        <ele>212.8</ele>
        <time>2022-06-25T06:32:19Z</time>
      </trkpt>
      <trkpt lat="46.6575" lon="5.41864">
        <ele>212.8</ele>
        <time>2022-06-25T06:32:20Z</time>
      </trkpt>
      <trkpt lat="46.65753" lon="5.41868">
        <ele>213.2</ele>
        <time>2022-06-25T06:32:21Z</time>
      </trkpt>
      <trkpt lat="46.65756" lon="5.41872">
        <ele>213.2</ele>
        <time>2022-06-25T06:32:22Z</time>
      </trkpt>
      <trkpt lat="46.65759" lon="5.41876">
        <ele>213.2</ele>
        <time>2022-06-25T06:32:23Z</time>
      </trkpt>
      <trkpt lat="46.65762" lon="5.4188">
        <ele>213.2</ele>
        <time>2022-06-25T06:32:24Z</time>
      </trkpt>
      <trkpt lat="46.65765" lon="5.41884">
        <ele>213.2</ele>
        <time>2022-06-25T06:32:25Z</time>
      </trkpt>
      <trkpt lat="46.65768" lon="5.41888">
        <ele>213.2</ele>
        <time>2022-06-25T06:32:26Z</time>
      </trkpt>
      <trkpt lat="46.65772" lon="5.4189">
        <ele>213.2</ele>
        <time>2022-06-25T06:32:27Z</time>
      </trkpt>
      <trkpt lat="46.65776" lon="5.4189">
        <ele>213.2</ele>
        <time>2022-06-25T06:32:28Z</time>
      </trkpt>
      <trkpt lat="46.6578" lon="5.41888">
        <ele>213.2</ele>
        <time>2022-06-25T06:32:29Z</time>
      </trkpt>
      <trkpt lat="46.65783" lon="5.41884">
        <ele>213.4</ele>
        <time>2022-06-25T06:32:30Z</time>
      </trkpt>
      <trkpt lat="46.65785" lon="5.4188">
        <ele>213.6</ele>
        <time>2022-06-25T06:32:31Z</time>
      </trkpt>
      <trkpt lat="46.65787" lon="5.41876">
        <ele>213.8</ele>
        <time>2022-06-25T06:32:32Z</time>
      </trkpt>
      <trkpt lat="46.65789" lon="5.41871">
        <ele>214.2</ele>
        <time>2022-06-25T06:32:33Z</time>
      </trkpt>
      <trkpt lat="46.65791" lon="5.41866">
        <ele>214.4</ele>
        <time>2022-06-25T06:32:34Z</time>
      </trkpt>
      <trkpt lat="46.65792" lon="5.41862">
        <ele>214.6</ele>
        <time>2022-06-25T06:32:35Z</time>
      </trkpt>
      <trkpt lat="46.65794" lon="5.41858">
        <ele>214.8</ele>
        <time>2022-06-25T06:32:36Z</time>
      </trkpt>
      <trkpt lat="46.65796" lon="5.41854">
        <ele>215.2</ele>
        <time>2022-06-25T06:32:37Z</time>
      </trkpt>
      <trkpt lat="46.65797" lon="5.41852">
        <ele>215.6</ele>
        <time>2022-06-25T06:32:38Z</time>
      </trkpt>
      <trkpt lat="46.65799" lon="5.41848">
        <ele>215.8</ele>
        <time>2022-06-25T06:32:39Z</time>
      </trkpt>
      <trkpt lat="46.658" lon="5.41845">
        <ele>216.2</ele>
        <time>2022-06-25T06:32:40Z</time>
      </trkpt>
      <trkpt lat="46.65802" lon="5.41842">
        <ele>216.4</ele>
        <time>2022-06-25T06:32:41Z</time>
      </trkpt>
      <trkpt lat="46.65803" lon="5.41839">
        <ele>216.8</ele>
        <time>2022-06-25T06:32:42Z</time>
      </trkpt>
      <trkpt lat="46.65804" lon="5.41836">
        <ele>217</ele>
        <time>2022-06-25T06:32:43Z</time>
      </trkpt>
      <trkpt lat="46.65805" lon="5.41832">
        <ele>217</ele>
        <time>2022-06-25T06:32:44Z</time>
      </trkpt>
      <trkpt lat="46.65807" lon="5.41828">
        <ele>217.4</ele>
        <time>2022-06-25T06:32:45Z</time>
      </trkpt>
      <trkpt lat="46.65809" lon="5.41824">
        <ele>217.6</ele>
        <time>2022-06-25T06:32:46Z</time>
      </trkpt>
      <trkpt lat="46.65811" lon="5.4182">
        <ele>217.6</ele>
        <time>2022-06-25T06:32:47Z</time>
      </trkpt>
      <trkpt lat="46.65813" lon="5.41815">
        <ele>218</ele>
        <time>2022-06-25T06:32:48Z</time>
      </trkpt>
      <trkpt lat="46.65815" lon="5.41811">
        <ele>218.2</ele>
        <time>2022-06-25T06:32:49Z</time>
      </trkpt>
      <trkpt lat="46.65817" lon="5.41807">
        <ele>218.4</ele>
        <time>2022-06-25T06:32:50Z</time>
      </trkpt>
      <trkpt lat="46.65819" lon="5.41803">
        <ele>218.4</ele>
        <time>2022-06-25T06:32:51Z</time>
      </trkpt>
      <trkpt lat="46.65821" lon="5.41799">
        <ele>218.8</ele>
        <time>2022-06-25T06:32:52Z</time>
      </trkpt>
      <trkpt lat="46.65823" lon="5.41795">
        <ele>218.8</ele>
        <time>2022-06-25T06:32:53Z</time>
      </trkpt>
      <trkpt lat="46.65825" lon="5.41791">
        <ele>219</ele>
        <time>2022-06-25T06:32:54Z</time>
      </trkpt>
      <trkpt lat="46.65826" lon="5.41786">
        <ele>219.4</ele>
        <time>2022-06-25T06:32:55Z</time>
      </trkpt>
      <trkpt lat="46.65828" lon="5.41782">
        <ele>219.4</ele>
        <time>2022-06-25T06:32:56Z</time>
      </trkpt>
      <trkpt lat="46.6583" lon="5.41778">
        <ele>219.6</ele>
        <time>2022-06-25T06:32:57Z</time>
      </trkpt>
      <trkpt lat="46.65833" lon="5.41774">
        <ele>219.6</ele>
        <time>2022-06-25T06:32:58Z</time>
      </trkpt>
      <trkpt lat="46.65835" lon="5.4177">
        <ele>219.8</ele>
        <time>2022-06-25T06:32:59Z</time>
      </trkpt>
      <trkpt lat="46.65837" lon="5.41766">
        <ele>219.8</ele>
        <time>2022-06-25T06:33:00Z</time>
      </trkpt>
      <trkpt lat="46.65839" lon="5.41761">
        <ele>220</ele>
        <time>2022-06-25T06:33:01Z</time>
      </trkpt>
      <trkpt lat="46.65841" lon="5.41756">
        <ele>220</ele>
        <time>2022-06-25T06:33:02Z</time>
      </trkpt>
      <trkpt lat="46.65842" lon="5.41752">
        <ele>220.2</ele>
        <time>2022-06-25T06:33:03Z</time>
      </trkpt>
      <trkpt lat="46.65841" lon="5.41746">
        <ele>220.2</ele>
        <time>2022-06-25T06:33:04Z</time>
      </trkpt>
      <trkpt lat="46.6584" lon="5.41741">
        <ele>220.2</ele>
        <time>2022-06-25T06:33:05Z</time>
      </trkpt>
      <trkpt lat="46.65838" lon="5.41736">
        <ele>220.2</ele>
        <time>2022-06-25T06:33:06Z</time>
      </trkpt>
      <trkpt lat="46.65835" lon="5.41731">
        <ele>220.2</ele>
        <time>2022-06-25T06:33:07Z</time>
      </trkpt>
      <trkpt lat="46.65832" lon="5.41727">
        <ele>220.2</ele>
        <time>2022-06-25T06:33:08Z</time>
      </trkpt>
      <trkpt lat="46.65828" lon="5.41723">
        <ele>220.2</ele>
        <time>2022-06-25T06:33:09Z</time>
      </trkpt>
      <trkpt lat="46.65824" lon="5.4172">
        <ele>220.2</ele>
        <time>2022-06-25T06:33:10Z</time>
      </trkpt>
      <trkpt lat="46.65819" lon="5.41717">
        <ele>220.2</ele>
        <time>2022-06-25T06:33:11Z</time>
      </trkpt>
      <trkpt lat="46.65815" lon="5.41714">
        <ele>220.2</ele>
        <time>2022-06-25T06:33:12Z</time>
      </trkpt>
      <trkpt lat="46.65811" lon="5.41711">
        <ele>220.2</ele>
        <time>2022-06-25T06:33:13Z</time>
      </trkpt>
      <trkpt lat="46.65806" lon="5.41708">
        <ele>220</ele>
        <time>2022-06-25T06:33:14Z</time>
      </trkpt>
      <trkpt lat="46.65802" lon="5.41704">
        <ele>219.8</ele>
        <time>2022-06-25T06:33:15Z</time>
      </trkpt>
      <trkpt lat="46.65797" lon="5.417">
        <ele>219.6</ele>
        <time>2022-06-25T06:33:16Z</time>
      </trkpt>
      <trkpt lat="46.65793" lon="5.41696">
        <ele>219.2</ele>
        <time>2022-06-25T06:33:17Z</time>
      </trkpt>
      <trkpt lat="46.65789" lon="5.41692">
        <ele>219</ele>
        <time>2022-06-25T06:33:18Z</time>
      </trkpt>
      <trkpt lat="46.65784" lon="5.41687">
        <ele>218.8</ele>
        <time>2022-06-25T06:33:19Z</time>
      </trkpt>
      <trkpt lat="46.6578" lon="5.4168">
        <ele>218.6</ele>
        <time>2022-06-25T06:33:20Z</time>
      </trkpt>
      <trkpt lat="46.65776" lon="5.41673">
        <ele>218.6</ele>
        <time>2022-06-25T06:33:21Z</time>
      </trkpt>
      <trkpt lat="46.65773" lon="5.41666">
        <ele>218.2</ele>
        <time>2022-06-25T06:33:22Z</time>
      </trkpt>
      <trkpt lat="46.6577" lon="5.41658">
        <ele>218.2</ele>
        <time>2022-06-25T06:33:23Z</time>
      </trkpt>
      <trkpt lat="46.65767" lon="5.4165">
        <ele>218</ele>
        <time>2022-06-25T06:33:24Z</time>
      </trkpt>
      <trkpt lat="46.65765" lon="5.41642">
        <ele>218</ele>
        <time>2022-06-25T06:33:25Z</time>
      </trkpt>
      <trkpt lat="46.65762" lon="5.41635">
        <ele>218</ele>
        <time>2022-06-25T06:33:26Z</time>
      </trkpt>
      <trkpt lat="46.65759" lon="5.41628">
        <ele>218</ele>
        <time>2022-06-25T06:33:27Z</time>
      </trkpt>
      <trkpt lat="46.65755" lon="5.41621">
        <ele>218</ele>
        <time>2022-06-25T06:33:28Z</time>
      </trkpt>
      <trkpt lat="46.65752" lon="5.41613">
        <ele>218</ele>
        <time>2022-06-25T06:33:29Z</time>
      </trkpt>
      <trkpt lat="46.65749" lon="5.41605">
        <ele>218</ele>
        <time>2022-06-25T06:33:30Z</time>
      </trkpt>
      <trkpt lat="46.65746" lon="5.41597">
        <ele>218</ele>
        <time>2022-06-25T06:33:31Z</time>
      </trkpt>
      <trkpt lat="46.65743" lon="5.41589">
        <ele>218</ele>
        <time>2022-06-25T06:33:32Z</time>
      </trkpt>
      <trkpt lat="46.65741" lon="5.41581">
        <ele>218</ele>
        <time>2022-06-25T06:33:33Z</time>
      </trkpt>
      <trkpt lat="46.65738" lon="5.41573">
        <ele>218</ele>
        <time>2022-06-25T06:33:34Z</time>
      </trkpt>
      <trkpt lat="46.65736" lon="5.41564">
        <ele>217.8</ele>
        <time>2022-06-25T06:33:35Z</time>
      </trkpt>
      <trkpt lat="46.65734" lon="5.41556">
        <ele>217.8</ele>
        <time>2022-06-25T06:33:36Z</time>
      </trkpt>
      <trkpt lat="46.65733" lon="5.41547">
        <ele>217.8</ele>
        <time>2022-06-25T06:33:37Z</time>
      </trkpt>
      <trkpt lat="46.65731" lon="5.41539">
        <ele>217.8</ele>
        <time>2022-06-25T06:33:38Z</time>
      </trkpt>
      <trkpt lat="46.6573" lon="5.41531">
        <ele>217.8</ele>
        <time>2022-06-25T06:33:39Z</time>
      </trkpt>
      <trkpt lat="46.65728" lon="5.41522">
        <ele>217.8</ele>
        <time>2022-06-25T06:33:40Z</time>
      </trkpt>
      <trkpt lat="46.65727" lon="5.41514">
        <ele>217.8</ele>
        <time>2022-06-25T06:33:41Z</time>
      </trkpt>
      <trkpt lat="46.65725" lon="5.41506">
        <ele>217.8</ele>
        <time>2022-06-25T06:33:42Z</time>
      </trkpt>
      <trkpt lat="46.65724" lon="5.41497">
        <ele>217.8</ele>
        <time>2022-06-25T06:33:43Z</time>
      </trkpt>
      <trkpt lat="46.65722" lon="5.41489">
        <ele>217.8</ele>
        <time>2022-06-25T06:33:44Z</time>
      </trkpt>
      <trkpt lat="46.6572" lon="5.4148">
        <ele>217.8</ele>
        <time>2022-06-25T06:33:45Z</time>
      </trkpt>
      <trkpt lat="46.65717" lon="5.41472">
        <ele>217.6</ele>
        <time>2022-06-25T06:33:46Z</time>
      </trkpt>
      <trkpt lat="46.65714" lon="5.41465">
        <ele>217.6</ele>
        <time>2022-06-25T06:33:47Z</time>
      </trkpt>
      <trkpt lat="46.6571" lon="5.41457">
        <ele>217.6</ele>
        <time>2022-06-25T06:33:48Z</time>
      </trkpt>
      <trkpt lat="46.65707" lon="5.4145">
        <ele>217.6</ele>
        <time>2022-06-25T06:33:49Z</time>
      </trkpt>
      <trkpt lat="46.65703" lon="5.41442">
        <ele>217.6</ele>
        <time>2022-06-25T06:33:50Z</time>
      </trkpt>
      <trkpt lat="46.657" lon="5.41435">
        <ele>217.6</ele>
        <time>2022-06-25T06:33:51Z</time>
      </trkpt>
      <trkpt lat="46.65696" lon="5.41428">
        <ele>217.6</ele>
        <time>2022-06-25T06:33:52Z</time>
      </trkpt>
      <trkpt lat="46.65692" lon="5.41421">
        <ele>217.6</ele>
        <time>2022-06-25T06:33:53Z</time>
      </trkpt>
      <trkpt lat="46.65687" lon="5.41415">
        <ele>217.6</ele>
        <time>2022-06-25T06:33:54Z</time>
      </trkpt>
      <trkpt lat="46.65682" lon="5.41409">
        <ele>217.6</ele>
        <time>2022-06-25T06:33:55Z</time>
      </trkpt>
      <trkpt lat="46.65678" lon="5.41402">
        <ele>217.6</ele>
        <time>2022-06-25T06:33:56Z</time>
      </trkpt>
      <trkpt lat="46.65673" lon="5.41396">
        <ele>217.4</ele>
        <time>2022-06-25T06:33:57Z</time>
      </trkpt>
      <trkpt lat="46.65668" lon="5.41389">
        <ele>217.4</ele>
        <time>2022-06-25T06:33:58Z</time>
      </trkpt>
      <trkpt lat="46.65662" lon="5.41383">
        <ele>217.2</ele>
        <time>2022-06-25T06:33:59Z</time>
      </trkpt>
      <trkpt lat="46.65657" lon="5.41377">
        <ele>217.2</ele>
        <time>2022-06-25T06:34:00Z</time>
      </trkpt>
      <trkpt lat="46.65652" lon="5.4137">
        <ele>217</ele>
        <time>2022-06-25T06:34:01Z</time>
      </trkpt>
      <trkpt lat="46.65647" lon="5.41363">
        <ele>217</ele>
        <time>2022-06-25T06:34:02Z</time>
      </trkpt>
      <trkpt lat="46.65642" lon="5.41356">
        <ele>217</ele>
        <time>2022-06-25T06:34:03Z</time>
      </trkpt>
      <trkpt lat="46.65637" lon="5.41348">
        <ele>217</ele>
        <time>2022-06-25T06:34:04Z</time>
      </trkpt>
      <trkpt lat="46.65632" lon="5.41341">
        <ele>216.6</ele>
        <time>2022-06-25T06:34:05Z</time>
      </trkpt>
      <trkpt lat="46.65627" lon="5.41334">
        <ele>216.6</ele>
        <time>2022-06-25T06:34:06Z</time>
      </trkpt>
      <trkpt lat="46.65622" lon="5.41326">
        <ele>216.2</ele>
        <time>2022-06-25T06:34:07Z</time>
      </trkpt>
      <trkpt lat="46.65617" lon="5.41319">
        <ele>216</ele>
        <time>2022-06-25T06:34:08Z</time>
      </trkpt>
      <trkpt lat="46.65612" lon="5.41311">
        <ele>216</ele>
        <time>2022-06-25T06:34:09Z</time>
      </trkpt>
      <trkpt lat="46.65607" lon="5.41304">
        <ele>215.8</ele>
        <time>2022-06-25T06:34:10Z</time>
      </trkpt>
      <trkpt lat="46.65601" lon="5.41296">
        <ele>215.8</ele>
        <time>2022-06-25T06:34:11Z</time>
      </trkpt>
      <trkpt lat="46.65596" lon="5.41289">
        <ele>215.6</ele>
        <time>2022-06-25T06:34:12Z</time>
      </trkpt>
      <trkpt lat="46.65591" lon="5.41282">
        <ele>215.6</ele>
        <time>2022-06-25T06:34:13Z</time>
      </trkpt>
      <trkpt lat="46.65585" lon="5.41274">
        <ele>215</ele>
        <time>2022-06-25T06:34:14Z</time>
      </trkpt>
      <trkpt lat="46.6558" lon="5.41268">
        <ele>214.8</ele>
        <time>2022-06-25T06:34:15Z</time>
      </trkpt>
      <trkpt lat="46.65575" lon="5.41262">
        <ele>214.4</ele>
        <time>2022-06-25T06:34:16Z</time>
      </trkpt>
      <trkpt lat="46.65571" lon="5.41257">
        <ele>214.2</ele>
        <time>2022-06-25T06:34:17Z</time>
      </trkpt>
      <trkpt lat="46.65565" lon="5.41254">
        <ele>214</ele>
        <time>2022-06-25T06:34:18Z</time>
      </trkpt>
      <trkpt lat="46.65558" lon="5.41253">
        <ele>213.6</ele>
        <time>2022-06-25T06:34:19Z</time>
      </trkpt>
      <trkpt lat="46.65551" lon="5.41254">
        <ele>213.2</ele>
        <time>2022-06-25T06:34:20Z</time>
      </trkpt>
      <trkpt lat="46.65542" lon="5.41256">
        <ele>212.6</ele>
        <time>2022-06-25T06:34:21Z</time>
      </trkpt>
      <trkpt lat="46.65534" lon="5.4126">
        <ele>212</ele>
        <time>2022-06-25T06:34:22Z</time>
      </trkpt>
      <trkpt lat="46.65525" lon="5.41264">
        <ele>211.4</ele>
        <time>2022-06-25T06:34:23Z</time>
      </trkpt>
      <trkpt lat="46.65515" lon="5.41268">
        <ele>210.8</ele>
        <time>2022-06-25T06:34:24Z</time>
      </trkpt>
      <trkpt lat="46.65506" lon="5.41271">
        <ele>210.2</ele>
        <time>2022-06-25T06:34:25Z</time>
      </trkpt>
      <trkpt lat="46.65497" lon="5.41274">
        <ele>209.8</ele>
        <time>2022-06-25T06:34:26Z</time>
      </trkpt>
      <trkpt lat="46.65489" lon="5.41278">
        <ele>209.4</ele>
        <time>2022-06-25T06:34:27Z</time>
      </trkpt>
      <trkpt lat="46.65481" lon="5.41282">
        <ele>209</ele>
        <time>2022-06-25T06:34:28Z</time>
      </trkpt>
      <trkpt lat="46.65475" lon="5.41284">
        <ele>208.6</ele>
        <time>2022-06-25T06:34:29Z</time>
      </trkpt>
      <trkpt lat="46.65469" lon="5.41283">
        <ele>208.4</ele>
        <time>2022-06-25T06:34:30Z</time>
      </trkpt>
      <trkpt lat="46.65464" lon="5.4128">
        <ele>208</ele>
        <time>2022-06-25T06:34:31Z</time>
      </trkpt>
      <trkpt lat="46.65459" lon="5.41276">
        <ele>208</ele>
        <time>2022-06-25T06:34:32Z</time>
      </trkpt>
      <trkpt lat="46.65454" lon="5.41271">
        <ele>207.6</ele>
        <time>2022-06-25T06:34:33Z</time>
      </trkpt>
      <trkpt lat="46.6545" lon="5.41265">
        <ele>207.6</ele>
        <time>2022-06-25T06:34:34Z</time>
      </trkpt>
      <trkpt lat="46.65446" lon="5.41259">
        <ele>207.4</ele>
        <time>2022-06-25T06:34:35Z</time>
      </trkpt>
      <trkpt lat="46.65441" lon="5.41253">
        <ele>207.4</ele>
        <time>2022-06-25T06:34:36Z</time>
      </trkpt>
      <trkpt lat="46.65437" lon="5.41247">
        <ele>207.4</ele>
        <time>2022-06-25T06:34:37Z</time>
      </trkpt>
      <trkpt lat="46.65432" lon="5.4124">
        <ele>207.2</ele>
        <time>2022-06-25T06:34:38Z</time>
      </trkpt>
      <trkpt lat="46.65427" lon="5.41234">
        <ele>207.2</ele>
        <time>2022-06-25T06:34:39Z</time>
      </trkpt>
      <trkpt lat="46.65423" lon="5.41228">
        <ele>207.2</ele>
        <time>2022-06-25T06:34:40Z</time>
      </trkpt>
      <trkpt lat="46.65419" lon="5.41221">
        <ele>207</ele>
        <time>2022-06-25T06:34:41Z</time>
      </trkpt>
      <trkpt lat="46.65415" lon="5.41214">
        <ele>207</ele>
        <time>2022-06-25T06:34:42Z</time>
      </trkpt>
      <trkpt lat="46.65411" lon="5.41207">
        <ele>207</ele>
        <time>2022-06-25T06:34:43Z</time>
      </trkpt>
      <trkpt lat="46.65407" lon="5.41199">
        <ele>207</ele>
        <time>2022-06-25T06:34:44Z</time>
      </trkpt>
      <trkpt lat="46.65404" lon="5.41192">
        <ele>207</ele>
        <time>2022-06-25T06:34:45Z</time>
      </trkpt>
      <trkpt lat="46.654" lon="5.41185">
        <ele>207</ele>
        <time>2022-06-25T06:34:46Z</time>
      </trkpt>
      <trkpt lat="46.65397" lon="5.41177">
        <ele>207</ele>
        <time>2022-06-25T06:34:47Z</time>
      </trkpt>
      <trkpt lat="46.65394" lon="5.4117">
        <ele>207</ele>
        <time>2022-06-25T06:34:48Z</time>
      </trkpt>
      <trkpt lat="46.65391" lon="5.41162">
        <ele>206.8</ele>
        <time>2022-06-25T06:34:49Z</time>
      </trkpt>
      <trkpt lat="46.65387" lon="5.41154">
        <ele>206.8</ele>
        <time>2022-06-25T06:34:50Z</time>
      </trkpt>
      <trkpt lat="46.65385" lon="5.41146">
        <ele>206.8</ele>
        <time>2022-06-25T06:34:51Z</time>
      </trkpt>
      <trkpt lat="46.65382" lon="5.41138">
        <ele>206.8</ele>
        <time>2022-06-25T06:34:52Z</time>
      </trkpt>
      <trkpt lat="46.6538" lon="5.4113">
        <ele>206.6</ele>
        <time>2022-06-25T06:34:53Z</time>
      </trkpt>
      <trkpt lat="46.65377" lon="5.41121">
        <ele>206.6</ele>
        <time>2022-06-25T06:34:54Z</time>
      </trkpt>
      <trkpt lat="46.65374" lon="5.41113">
        <ele>206.6</ele>
        <time>2022-06-25T06:34:55Z</time>
      </trkpt>
      <trkpt lat="46.65371" lon="5.41104">
        <ele>206.6</ele>
        <time>2022-06-25T06:34:56Z</time>
      </trkpt>
      <trkpt lat="46.65368" lon="5.41095">
        <ele>206.4</ele>
        <time>2022-06-25T06:34:57Z</time>
      </trkpt>
      <trkpt lat="46.65366" lon="5.41086">
        <ele>206.4</ele>
        <time>2022-06-25T06:34:58Z</time>
      </trkpt>
      <trkpt lat="46.65364" lon="5.41076">
        <ele>206.4</ele>
        <time>2022-06-25T06:34:59Z</time>
      </trkpt>
      <trkpt lat="46.65361" lon="5.41066">
        <ele>206.4</ele>
        <time>2022-06-25T06:35:00Z</time>
      </trkpt>
      <trkpt lat="46.65359" lon="5.41055">
        <ele>206.4</ele>
        <time>2022-06-25T06:35:01Z</time>
      </trkpt>
      <trkpt lat="46.65357" lon="5.41045">
        <ele>206.4</ele>
        <time>2022-06-25T06:35:02Z</time>
      </trkpt>
      <trkpt lat="46.65355" lon="5.41035">
        <ele>206.4</ele>
        <time>2022-06-25T06:35:03Z</time>
      </trkpt>
      <trkpt lat="46.65354" lon="5.41025">
        <ele>206.4</ele>
        <time>2022-06-25T06:35:04Z</time>
      </trkpt>
      <trkpt lat="46.65352" lon="5.41015">
        <ele>206.4</ele>
        <time>2022-06-25T06:35:05Z</time>
      </trkpt>
      <trkpt lat="46.65351" lon="5.41005">
        <ele>206.4</ele>
        <time>2022-06-25T06:35:06Z</time>
      </trkpt>
      <trkpt lat="46.65349" lon="5.40995">
        <ele>206.4</ele>
        <time>2022-06-25T06:35:07Z</time>
      </trkpt>
      <trkpt lat="46.65348" lon="5.40985">
        <ele>206</ele>
        <time>2022-06-25T06:35:08Z</time>
      </trkpt>
      <trkpt lat="46.65346" lon="5.40966">
        <ele>206</ele>
        <time>2022-06-25T06:35:09Z</time>
      </trkpt>
      <trkpt lat="46.65346" lon="5.40957">
        <ele>206</ele>
        <time>2022-06-25T06:35:10Z</time>
      </trkpt>
      <trkpt lat="46.65346" lon="5.40947">
        <ele>206</ele>
        <time>2022-06-25T06:35:11Z</time>
      </trkpt>
      <trkpt lat="46.65345" lon="5.40937">
        <ele>206</ele>
        <time>2022-06-25T06:35:12Z</time>
      </trkpt>
      <trkpt lat="46.65345" lon="5.40928">
        <ele>206</ele>
        <time>2022-06-25T06:35:13Z</time>
      </trkpt>
      <trkpt lat="46.65346" lon="5.40919">
        <ele>206</ele>
        <time>2022-06-25T06:35:14Z</time>
      </trkpt>
      <trkpt lat="46.65346" lon="5.40909">
        <ele>206</ele>
        <time>2022-06-25T06:35:15Z</time>
      </trkpt>
      <trkpt lat="46.65347" lon="5.40899">
        <ele>205.8</ele>
        <time>2022-06-25T06:35:16Z</time>
      </trkpt>
      <trkpt lat="46.65347" lon="5.40889">
        <ele>205.8</ele>
        <time>2022-06-25T06:35:17Z</time>
      </trkpt>
      <trkpt lat="46.65347" lon="5.40879">
        <ele>205.8</ele>
        <time>2022-06-25T06:35:18Z</time>
      </trkpt>
      <trkpt lat="46.65346" lon="5.40869">
        <ele>205.8</ele>
        <time>2022-06-25T06:35:19Z</time>
      </trkpt>
      <trkpt lat="46.65346" lon="5.40859">
        <ele>205.8</ele>
        <time>2022-06-25T06:35:20Z</time>
      </trkpt>
      <trkpt lat="46.65346" lon="5.4085">
        <ele>205.6</ele>
        <time>2022-06-25T06:35:22Z</time>
      </trkpt>
      <trkpt lat="46.65346" lon="5.40841">
        <ele>205.6</ele>
        <time>2022-06-25T06:35:23Z</time>
      </trkpt>
      <trkpt lat="46.65346" lon="5.40832">
        <ele>205.6</ele>
        <time>2022-06-25T06:35:24Z</time>
      </trkpt>
      <trkpt lat="46.65345" lon="5.40823">
        <ele>205.6</ele>
        <time>2022-06-25T06:35:25Z</time>
      </trkpt>
      <trkpt lat="46.65345" lon="5.40814">
        <ele>205.6</ele>
        <time>2022-06-25T06:35:26Z</time>
      </trkpt>
      <trkpt lat="46.65345" lon="5.40805">
        <ele>205.6</ele>
        <time>2022-06-25T06:35:27Z</time>
      </trkpt>
      <trkpt lat="46.65345" lon="5.40796">
        <ele>205.6</ele>
        <time>2022-06-25T06:35:28Z</time>
      </trkpt>
      <trkpt lat="46.65345" lon="5.40787">
        <ele>205.6</ele>
        <time>2022-06-25T06:35:29Z</time>
      </trkpt>
      <trkpt lat="46.65344" lon="5.40778">
        <ele>205.6</ele>
        <time>2022-06-25T06:35:30Z</time>
      </trkpt>
      <trkpt lat="46.65345" lon="5.40769">
        <ele>205.6</ele>
        <time>2022-06-25T06:35:31Z</time>
      </trkpt>
      <trkpt lat="46.65344" lon="5.4076">
        <ele>205.6</ele>
        <time>2022-06-25T06:35:32Z</time>
      </trkpt>
      <trkpt lat="46.65344" lon="5.40751">
        <ele>205.6</ele>
        <time>2022-06-25T06:35:33Z</time>
      </trkpt>
      <trkpt lat="46.65344" lon="5.40742">
        <ele>205.6</ele>
        <time>2022-06-25T06:35:34Z</time>
      </trkpt>
      <trkpt lat="46.65344" lon="5.40733">
        <ele>205.6</ele>
        <time>2022-06-25T06:35:35Z</time>
      </trkpt>
      <trkpt lat="46.65344" lon="5.40725">
        <ele>205.6</ele>
        <time>2022-06-25T06:35:36Z</time>
      </trkpt>
      <trkpt lat="46.65344" lon="5.40716">
        <ele>205.6</ele>
        <time>2022-06-25T06:35:37Z</time>
      </trkpt>
      <trkpt lat="46.65344" lon="5.40707">
        <ele>205.6</ele>
        <time>2022-06-25T06:35:38Z</time>
      </trkpt>
      <trkpt lat="46.65344" lon="5.40698">
        <ele>205.6</ele>
        <time>2022-06-25T06:35:39Z</time>
      </trkpt>
      <trkpt lat="46.65343" lon="5.40689">
        <ele>205.6</ele>
        <time>2022-06-25T06:35:40Z</time>
      </trkpt>
      <trkpt lat="46.65343" lon="5.4068">
        <ele>205.6</ele>
        <time>2022-06-25T06:35:41Z</time>
      </trkpt>
      <trkpt lat="46.65343" lon="5.40671">
        <ele>205.6</ele>
        <time>2022-06-25T06:35:42Z</time>
      </trkpt>
      <trkpt lat="46.65343" lon="5.40662">
        <ele>205.6</ele>
        <time>2022-06-25T06:35:43Z</time>
      </trkpt>
      <trkpt lat="46.65343" lon="5.40653">
        <ele>205.6</ele>
        <time>2022-06-25T06:35:44Z</time>
      </trkpt>
      <trkpt lat="46.65343" lon="5.40645">
        <ele>205.6</ele>
        <time>2022-06-25T06:35:45Z</time>
      </trkpt>
      <trkpt lat="46.65343" lon="5.40636">
        <ele>205.6</ele>
        <time>2022-06-25T06:35:46Z</time>
      </trkpt>
      <trkpt lat="46.65343" lon="5.40627">
        <ele>205.6</ele>
        <time>2022-06-25T06:35:47Z</time>
      </trkpt>
      <trkpt lat="46.65343" lon="5.40619">
        <ele>205.6</ele>
        <time>2022-06-25T06:35:48Z</time>
      </trkpt>
      <trkpt lat="46.65342" lon="5.4061">
        <ele>205.6</ele>
        <time>2022-06-25T06:35:49Z</time>
      </trkpt>
      <trkpt lat="46.65342" lon="5.40601">
        <ele>205.6</ele>
        <time>2022-06-25T06:35:50Z</time>
      </trkpt>
      <trkpt lat="46.65342" lon="5.40592">
        <ele>205.6</ele>
        <time>2022-06-25T06:35:51Z</time>
      </trkpt>
      <trkpt lat="46.65342" lon="5.40583">
        <ele>205.6</ele>
        <time>2022-06-25T06:35:52Z</time>
      </trkpt>
      <trkpt lat="46.65342" lon="5.40575">
        <ele>205.6</ele>
        <time>2022-06-25T06:35:53Z</time>
      </trkpt>
      <trkpt lat="46.65342" lon="5.40566">
        <ele>205.6</ele>
        <time>2022-06-25T06:35:54Z</time>
      </trkpt>
      <trkpt lat="46.65341" lon="5.40557">
        <ele>205.6</ele>
        <time>2022-06-25T06:35:55Z</time>
      </trkpt>
      <trkpt lat="46.65341" lon="5.40549">
        <ele>205.4</ele>
        <time>2022-06-25T06:35:56Z</time>
      </trkpt>
      <trkpt lat="46.65341" lon="5.40541">
        <ele>205.4</ele>
        <time>2022-06-25T06:35:57Z</time>
      </trkpt>
      <trkpt lat="46.65341" lon="5.40533">
        <ele>205.4</ele>
        <time>2022-06-25T06:35:58Z</time>
      </trkpt>
      <trkpt lat="46.65341" lon="5.40526">
        <ele>205.4</ele>
        <time>2022-06-25T06:35:59Z</time>
      </trkpt>
      <trkpt lat="46.6534" lon="5.40519">
        <ele>205.2</ele>
        <time>2022-06-25T06:36:00Z</time>
      </trkpt>
      <trkpt lat="46.6534" lon="5.40514">
        <ele>205.2</ele>
        <time>2022-06-25T06:36:01Z</time>
      </trkpt>
      <trkpt lat="46.6534" lon="5.40509">
        <ele>205.2</ele>
        <time>2022-06-25T06:36:02Z</time>
      </trkpt>
      <trkpt lat="46.65338" lon="5.40504">
        <ele>205.2</ele>
        <time>2022-06-25T06:36:03Z</time>
      </trkpt>
      <trkpt lat="46.65337" lon="5.40499">
        <ele>205.2</ele>
        <time>2022-06-25T06:36:04Z</time>
      </trkpt>
      <trkpt lat="46.65336" lon="5.40493">
        <ele>205.2</ele>
        <time>2022-06-25T06:36:05Z</time>
      </trkpt>
      <trkpt lat="46.65335" lon="5.40486">
        <ele>205.2</ele>
        <time>2022-06-25T06:36:06Z</time>
      </trkpt>
      <trkpt lat="46.65334" lon="5.4048">
        <ele>205.2</ele>
        <time>2022-06-25T06:36:07Z</time>
      </trkpt>
      <trkpt lat="46.65333" lon="5.40472">
        <ele>205.2</ele>
        <time>2022-06-25T06:36:08Z</time>
      </trkpt>
      <trkpt lat="46.65333" lon="5.40465">
        <ele>205</ele>
        <time>2022-06-25T06:36:09Z</time>
      </trkpt>
      <trkpt lat="46.65332" lon="5.40457">
        <ele>205</ele>
        <time>2022-06-25T06:36:10Z</time>
      </trkpt>
      <trkpt lat="46.65332" lon="5.40449">
        <ele>205</ele>
        <time>2022-06-25T06:36:11Z</time>
      </trkpt>
      <trkpt lat="46.65331" lon="5.4044">
        <ele>205</ele>
        <time>2022-06-25T06:36:12Z</time>
      </trkpt>
      <trkpt lat="46.6533" lon="5.40432">
        <ele>205</ele>
        <time>2022-06-25T06:36:13Z</time>
      </trkpt>
      <trkpt lat="46.65328" lon="5.40424">
        <ele>205</ele>
        <time>2022-06-25T06:36:14Z</time>
      </trkpt>
      <trkpt lat="46.65327" lon="5.40415">
        <ele>205</ele>
        <time>2022-06-25T06:36:15Z</time>
      </trkpt>
      <trkpt lat="46.65325" lon="5.40407">
        <ele>205</ele>
        <time>2022-06-25T06:36:16Z</time>
      </trkpt>
      <trkpt lat="46.65323" lon="5.40398">
        <ele>205</ele>
        <time>2022-06-25T06:36:17Z</time>
      </trkpt>
      <trkpt lat="46.65321" lon="5.4039">
        <ele>205</ele>
        <time>2022-06-25T06:36:18Z</time>
      </trkpt>
      <trkpt lat="46.6532" lon="5.40381">
        <ele>205</ele>
        <time>2022-06-25T06:36:19Z</time>
      </trkpt>
      <trkpt lat="46.65318" lon="5.40372">
        <ele>205</ele>
        <time>2022-06-25T06:36:20Z</time>
      </trkpt>
      <trkpt lat="46.65315" lon="5.40364">
        <ele>205</ele>
        <time>2022-06-25T06:36:21Z</time>
      </trkpt>
      <trkpt lat="46.65313" lon="5.40355">
        <ele>205</ele>
        <time>2022-06-25T06:36:22Z</time>
      </trkpt>
      <trkpt lat="46.65311" lon="5.40347">
        <ele>205</ele>
        <time>2022-06-25T06:36:23Z</time>
      </trkpt>
      <trkpt lat="46.65308" lon="5.40339">
        <ele>205</ele>
        <time>2022-06-25T06:36:24Z</time>
      </trkpt>
      <trkpt lat="46.65305" lon="5.40331">
        <ele>205</ele>
        <time>2022-06-25T06:36:25Z</time>
      </trkpt>
      <trkpt lat="46.65303" lon="5.40322">
        <ele>205</ele>
        <time>2022-06-25T06:36:26Z</time>
      </trkpt>
      <trkpt lat="46.653" lon="5.40314">
        <ele>205</ele>
        <time>2022-06-25T06:36:27Z</time>
      </trkpt>
      <trkpt lat="46.65297" lon="5.40306">
        <ele>205</ele>
        <time>2022-06-25T06:36:28Z</time>
      </trkpt>
      <trkpt lat="46.65294" lon="5.40298">
        <ele>205</ele>
        <time>2022-06-25T06:36:29Z</time>
      </trkpt>
      <trkpt lat="46.65291" lon="5.4029">
        <ele>205.2</ele>
        <time>2022-06-25T06:36:30Z</time>
      </trkpt>
      <trkpt lat="46.65287" lon="5.40282">
        <ele>205.2</ele>
        <time>2022-06-25T06:36:31Z</time>
      </trkpt>
      <trkpt lat="46.65284" lon="5.40275">
        <ele>205.2</ele>
        <time>2022-06-25T06:36:32Z</time>
      </trkpt>
      <trkpt lat="46.6528" lon="5.40267">
        <ele>205.2</ele>
        <time>2022-06-25T06:36:33Z</time>
      </trkpt>
      <trkpt lat="46.65277" lon="5.40259">
        <ele>205.2</ele>
        <time>2022-06-25T06:36:34Z</time>
      </trkpt>
      <trkpt lat="46.65273" lon="5.40252">
        <ele>205.2</ele>
        <time>2022-06-25T06:36:35Z</time>
      </trkpt>
      <trkpt lat="46.65269" lon="5.40245">
        <ele>205.2</ele>
        <time>2022-06-25T06:36:36Z</time>
      </trkpt>
      <trkpt lat="46.65265" lon="5.40237">
        <ele>205.2</ele>
        <time>2022-06-25T06:36:37Z</time>
      </trkpt>
      <trkpt lat="46.65261" lon="5.4023">
        <ele>205.2</ele>
        <time>2022-06-25T06:36:38Z</time>
      </trkpt>
      <trkpt lat="46.65258" lon="5.40223">
        <ele>205.2</ele>
        <time>2022-06-25T06:36:39Z</time>
      </trkpt>
      <trkpt lat="46.65253" lon="5.40216">
        <ele>205.2</ele>
        <time>2022-06-25T06:36:40Z</time>
      </trkpt>
      <trkpt lat="46.65249" lon="5.40209">
        <ele>205.2</ele>
        <time>2022-06-25T06:36:41Z</time>
      </trkpt>
      <trkpt lat="46.65245" lon="5.40202">
        <ele>205.2</ele>
        <time>2022-06-25T06:36:42Z</time>
      </trkpt>
      <trkpt lat="46.6524" lon="5.40195">
        <ele>205.2</ele>
        <time>2022-06-25T06:36:43Z</time>
      </trkpt>
      <trkpt lat="46.65236" lon="5.40188">
        <ele>205.2</ele>
        <time>2022-06-25T06:36:44Z</time>
      </trkpt>
      <trkpt lat="46.65231" lon="5.40182">
        <ele>205.2</ele>
        <time>2022-06-25T06:36:45Z</time>
      </trkpt>
      <trkpt lat="46.65227" lon="5.40176">
        <ele>205.2</ele>
        <time>2022-06-25T06:36:46Z</time>
      </trkpt>
      <trkpt lat="46.65222" lon="5.4017">
        <ele>205.4</ele>
        <time>2022-06-25T06:36:47Z</time>
      </trkpt>
      <trkpt lat="46.65217" lon="5.40164">
        <ele>205.4</ele>
        <time>2022-06-25T06:36:48Z</time>
      </trkpt>
      <trkpt lat="46.65212" lon="5.40158">
        <ele>205.4</ele>
        <time>2022-06-25T06:36:49Z</time>
      </trkpt>
      <trkpt lat="46.65207" lon="5.40152">
        <ele>205.4</ele>
        <time>2022-06-25T06:36:50Z</time>
      </trkpt>
      <trkpt lat="46.65203" lon="5.40147">
        <ele>205.4</ele>
        <time>2022-06-25T06:36:51Z</time>
      </trkpt>
      <trkpt lat="46.65198" lon="5.40141">
        <ele>205.4</ele>
        <time>2022-06-25T06:36:52Z</time>
      </trkpt>
      <trkpt lat="46.65193" lon="5.40136">
        <ele>205.4</ele>
        <time>2022-06-25T06:36:53Z</time>
      </trkpt>
      <trkpt lat="46.65188" lon="5.40131">
        <ele>205.6</ele>
        <time>2022-06-25T06:36:54Z</time>
      </trkpt>
      <trkpt lat="46.65183" lon="5.40126">
        <ele>205.6</ele>
        <time>2022-06-25T06:36:55Z</time>
      </trkpt>
      <trkpt lat="46.65178" lon="5.40121">
        <ele>205.6</ele>
        <time>2022-06-25T06:36:56Z</time>
      </trkpt>
      <trkpt lat="46.65173" lon="5.40116">
        <ele>205.6</ele>
        <time>2022-06-25T06:36:57Z</time>
      </trkpt>
      <trkpt lat="46.65168" lon="5.40112">
        <ele>205.6</ele>
        <time>2022-06-25T06:36:58Z</time>
      </trkpt>
      <trkpt lat="46.65163" lon="5.40108">
        <ele>205.6</ele>
        <time>2022-06-25T06:36:59Z</time>
      </trkpt>
      <trkpt lat="46.65159" lon="5.40104">
        <ele>205.8</ele>
        <time>2022-06-25T06:37:00Z</time>
      </trkpt>
      <trkpt lat="46.65154" lon="5.401">
        <ele>205.8</ele>
        <time>2022-06-25T06:37:01Z</time>
      </trkpt>
      <trkpt lat="46.6515" lon="5.40096">
        <ele>205.8</ele>
        <time>2022-06-25T06:37:02Z</time>
      </trkpt>
      <trkpt lat="46.65145" lon="5.40091">
        <ele>205.8</ele>
        <time>2022-06-25T06:37:03Z</time>
      </trkpt>
      <trkpt lat="46.65141" lon="5.40087">
        <ele>205.8</ele>
        <time>2022-06-25T06:37:04Z</time>
      </trkpt>
      <trkpt lat="46.65136" lon="5.40082">
        <ele>205.8</ele>
        <time>2022-06-25T06:37:05Z</time>
      </trkpt>
      <trkpt lat="46.65131" lon="5.40078">
        <ele>205.8</ele>
        <time>2022-06-25T06:37:06Z</time>
      </trkpt>
      <trkpt lat="46.65127" lon="5.40074">
        <ele>206</ele>
        <time>2022-06-25T06:37:07Z</time>
      </trkpt>
      <trkpt lat="46.65122" lon="5.4007">
        <ele>206</ele>
        <time>2022-06-25T06:37:08Z</time>
      </trkpt>
      <trkpt lat="46.65118" lon="5.40066">
        <ele>206</ele>
        <time>2022-06-25T06:37:09Z</time>
      </trkpt>
      <trkpt lat="46.65113" lon="5.40061">
        <ele>206</ele>
        <time>2022-06-25T06:37:10Z</time>
      </trkpt>
      <trkpt lat="46.65107" lon="5.40057">
        <ele>206</ele>
        <time>2022-06-25T06:37:11Z</time>
      </trkpt>
      <trkpt lat="46.65103" lon="5.40052">
        <ele>206</ele>
        <time>2022-06-25T06:37:12Z</time>
      </trkpt>
      <trkpt lat="46.65098" lon="5.40048">
        <ele>206</ele>
        <time>2022-06-25T06:37:13Z</time>
      </trkpt>
      <trkpt lat="46.65093" lon="5.40043">
        <ele>206</ele>
        <time>2022-06-25T06:37:14Z</time>
      </trkpt>
      <trkpt lat="46.65088" lon="5.40039">
        <ele>206</ele>
        <time>2022-06-25T06:37:15Z</time>
      </trkpt>
      <trkpt lat="46.65083" lon="5.40034">
        <ele>206</ele>
        <time>2022-06-25T06:37:16Z</time>
      </trkpt>
      <trkpt lat="46.65078" lon="5.40029">
        <ele>206</ele>
        <time>2022-06-25T06:37:17Z</time>
      </trkpt>
      <trkpt lat="46.65073" lon="5.40024">
        <ele>206</ele>
        <time>2022-06-25T06:37:18Z</time>
      </trkpt>
      <trkpt lat="46.65068" lon="5.40018">
        <ele>206</ele>
        <time>2022-06-25T06:37:19Z</time>
      </trkpt>
      <trkpt lat="46.65063" lon="5.40013">
        <ele>206</ele>
        <time>2022-06-25T06:37:20Z</time>
      </trkpt>
      <trkpt lat="46.65058" lon="5.40007">
        <ele>206</ele>
        <time>2022-06-25T06:37:21Z</time>
      </trkpt>
      <trkpt lat="46.65052" lon="5.40001">
        <ele>206</ele>
        <time>2022-06-25T06:37:22Z</time>
      </trkpt>
      <trkpt lat="46.65047" lon="5.39995">
        <ele>206</ele>
        <time>2022-06-25T06:37:23Z</time>
      </trkpt>
      <trkpt lat="46.65042" lon="5.39989">
        <ele>206.2</ele>
        <time>2022-06-25T06:37:24Z</time>
      </trkpt>
      <trkpt lat="46.65037" lon="5.39984">
        <ele>206.2</ele>
        <time>2022-06-25T06:37:25Z</time>
      </trkpt>
      <trkpt lat="46.65032" lon="5.39977">
        <ele>206.2</ele>
        <time>2022-06-25T06:37:26Z</time>
      </trkpt>
      <trkpt lat="46.65027" lon="5.39971">
        <ele>206.2</ele>
        <time>2022-06-25T06:37:27Z</time>
      </trkpt>
      <trkpt lat="46.65023" lon="5.39964">
        <ele>206.2</ele>
        <time>2022-06-25T06:37:28Z</time>
      </trkpt>
      <trkpt lat="46.65018" lon="5.39957">
        <ele>206.2</ele>
        <time>2022-06-25T06:37:29Z</time>
      </trkpt>
      <trkpt lat="46.65014" lon="5.39951">
        <ele>206.2</ele>
        <time>2022-06-25T06:37:30Z</time>
      </trkpt>
      <trkpt lat="46.6501" lon="5.39944">
        <ele>206.2</ele>
        <time>2022-06-25T06:37:31Z</time>
      </trkpt>
      <trkpt lat="46.65005" lon="5.39937">
        <ele>206.2</ele>
        <time>2022-06-25T06:37:32Z</time>
      </trkpt>
      <trkpt lat="46.65001" lon="5.3993">
        <ele>206.2</ele>
        <time>2022-06-25T06:37:33Z</time>
      </trkpt>
      <trkpt lat="46.64998" lon="5.39924">
        <ele>206.2</ele>
        <time>2022-06-25T06:37:34Z</time>
      </trkpt>
      <trkpt lat="46.64995" lon="5.39918">
        <ele>206.2</ele>
        <time>2022-06-25T06:37:35Z</time>
      </trkpt>
      <trkpt lat="46.64992" lon="5.39911">
        <ele>206.2</ele>
        <time>2022-06-25T06:37:36Z</time>
      </trkpt>
      <trkpt lat="46.64989" lon="5.39905">
        <ele>206.2</ele>
        <time>2022-06-25T06:37:37Z</time>
      </trkpt>
      <trkpt lat="46.64986" lon="5.39898">
        <ele>206.2</ele>
        <time>2022-06-25T06:37:38Z</time>
      </trkpt>
      <trkpt lat="46.64983" lon="5.39891">
        <ele>206.2</ele>
        <time>2022-06-25T06:37:39Z</time>
      </trkpt>
      <trkpt lat="46.6498" lon="5.39884">
        <ele>206.2</ele>
        <time>2022-06-25T06:37:40Z</time>
      </trkpt>
      <trkpt lat="46.64977" lon="5.39876">
        <ele>206.2</ele>
        <time>2022-06-25T06:37:41Z</time>
      </trkpt>
      <trkpt lat="46.64975" lon="5.39869">
        <ele>206.2</ele>
        <time>2022-06-25T06:37:42Z</time>
      </trkpt>
      <trkpt lat="46.64973" lon="5.39862">
        <ele>206.2</ele>
        <time>2022-06-25T06:37:43Z</time>
      </trkpt>
      <trkpt lat="46.64971" lon="5.39854">
        <ele>206.2</ele>
        <time>2022-06-25T06:37:44Z</time>
      </trkpt>
      <trkpt lat="46.64968" lon="5.39847">
        <ele>206.2</ele>
        <time>2022-06-25T06:37:45Z</time>
      </trkpt>
      <trkpt lat="46.64966" lon="5.39839">
        <ele>206.2</ele>
        <time>2022-06-25T06:37:46Z</time>
      </trkpt>
      <trkpt lat="46.64963" lon="5.3983">
        <ele>206.2</ele>
        <time>2022-06-25T06:37:47Z</time>
      </trkpt>
      <trkpt lat="46.6496" lon="5.39821">
        <ele>206.2</ele>
        <time>2022-06-25T06:37:48Z</time>
      </trkpt>
      <trkpt lat="46.64957" lon="5.39813">
        <ele>206.6</ele>
        <time>2022-06-25T06:37:49Z</time>
      </trkpt>
      <trkpt lat="46.64955" lon="5.39805">
        <ele>206.6</ele>
        <time>2022-06-25T06:37:50Z</time>
      </trkpt>
      <trkpt lat="46.64952" lon="5.39796">
        <ele>206.6</ele>
        <time>2022-06-25T06:37:51Z</time>
      </trkpt>
      <trkpt lat="46.6495" lon="5.39788">
        <ele>206.6</ele>
        <time>2022-06-25T06:37:52Z</time>
      </trkpt>
      <trkpt lat="46.64947" lon="5.39779">
        <ele>206.6</ele>
        <time>2022-06-25T06:37:53Z</time>
      </trkpt>
      <trkpt lat="46.64945" lon="5.39771">
        <ele>206.6</ele>
        <time>2022-06-25T06:37:54Z</time>
      </trkpt>
      <trkpt lat="46.64944" lon="5.39762">
        <ele>206.6</ele>
        <time>2022-06-25T06:37:55Z</time>
      </trkpt>
      <trkpt lat="46.64942" lon="5.39754">
        <ele>206.6</ele>
        <time>2022-06-25T06:37:56Z</time>
      </trkpt>
      <trkpt lat="46.6494" lon="5.39745">
        <ele>206.6</ele>
        <time>2022-06-25T06:37:57Z</time>
      </trkpt>
      <trkpt lat="46.64938" lon="5.39737">
        <ele>206.6</ele>
        <time>2022-06-25T06:37:58Z</time>
      </trkpt>
      <trkpt lat="46.64937" lon="5.39728">
        <ele>206.6</ele>
        <time>2022-06-25T06:37:59Z</time>
      </trkpt>
      <trkpt lat="46.64935" lon="5.39719">
        <ele>206.6</ele>
        <time>2022-06-25T06:38:00Z</time>
      </trkpt>
      <trkpt lat="46.64934" lon="5.39709">
        <ele>206.6</ele>
        <time>2022-06-25T06:38:01Z</time>
      </trkpt>
      <trkpt lat="46.64931" lon="5.39698">
        <ele>206.6</ele>
        <time>2022-06-25T06:38:02Z</time>
      </trkpt>
      <trkpt lat="46.64929" lon="5.39688">
        <ele>206.6</ele>
        <time>2022-06-25T06:38:03Z</time>
      </trkpt>
      <trkpt lat="46.64928" lon="5.39679">
        <ele>206.6</ele>
        <time>2022-06-25T06:38:04Z</time>
      </trkpt>
      <trkpt lat="46.64928" lon="5.3967">
        <ele>206.6</ele>
        <time>2022-06-25T06:38:05Z</time>
      </trkpt>
      <trkpt lat="46.64927" lon="5.3966">
        <ele>206.2</ele>
        <time>2022-06-25T06:38:06Z</time>
      </trkpt>
      <trkpt lat="46.64926" lon="5.39651">
        <ele>206.2</ele>
        <time>2022-06-25T06:38:07Z</time>
      </trkpt>
      <trkpt lat="46.64926" lon="5.39641">
        <ele>206.2</ele>
        <time>2022-06-25T06:38:08Z</time>
      </trkpt>
      <trkpt lat="46.64926" lon="5.39632">
        <ele>206</ele>
        <time>2022-06-25T06:38:09Z</time>
      </trkpt>
      <trkpt lat="46.64925" lon="5.39622">
        <ele>206</ele>
        <time>2022-06-25T06:38:10Z</time>
      </trkpt>
      <trkpt lat="46.64925" lon="5.39612">
        <ele>206</ele>
        <time>2022-06-25T06:38:11Z</time>
      </trkpt>
      <trkpt lat="46.64926" lon="5.39603">
        <ele>205.6</ele>
        <time>2022-06-25T06:38:12Z</time>
      </trkpt>
      <trkpt lat="46.64926" lon="5.39593">
        <ele>205.6</ele>
        <time>2022-06-25T06:38:13Z</time>
      </trkpt>
      <trkpt lat="46.64926" lon="5.39583">
        <ele>205.6</ele>
        <time>2022-06-25T06:38:14Z</time>
      </trkpt>
      <trkpt lat="46.64926" lon="5.3957">
        <ele>205.4</ele>
        <time>2022-06-25T06:38:15Z</time>
      </trkpt>
      <trkpt lat="46.64926" lon="5.39558">
        <ele>205.4</ele>
        <time>2022-06-25T06:38:16Z</time>
      </trkpt>
      <trkpt lat="46.64926" lon="5.39546">
        <ele>205.4</ele>
        <time>2022-06-25T06:38:17Z</time>
      </trkpt>
      <trkpt lat="46.64926" lon="5.39535">
        <ele>205.4</ele>
        <time>2022-06-25T06:38:18Z</time>
      </trkpt>
      <trkpt lat="46.64927" lon="5.39523">
        <ele>205.4</ele>
        <time>2022-06-25T06:38:19Z</time>
      </trkpt>
      <trkpt lat="46.64928" lon="5.39512">
        <ele>205.2</ele>
        <time>2022-06-25T06:38:20Z</time>
      </trkpt>
      <trkpt lat="46.6493" lon="5.39501">
        <ele>205.2</ele>
        <time>2022-06-25T06:38:21Z</time>
      </trkpt>
      <trkpt lat="46.64931" lon="5.39491">
        <ele>205.2</ele>
        <time>2022-06-25T06:38:22Z</time>
      </trkpt>
      <trkpt lat="46.64933" lon="5.3948">
        <ele>205</ele>
        <time>2022-06-25T06:38:23Z</time>
      </trkpt>
      <trkpt lat="46.64934" lon="5.3947">
        <ele>205</ele>
        <time>2022-06-25T06:38:24Z</time>
      </trkpt>
      <trkpt lat="46.64934" lon="5.3946">
        <ele>205</ele>
        <time>2022-06-25T06:38:25Z</time>
      </trkpt>
      <trkpt lat="46.64934" lon="5.39451">
        <ele>204.6</ele>
        <time>2022-06-25T06:38:26Z</time>
      </trkpt>
      <trkpt lat="46.64935" lon="5.39442">
        <ele>204.6</ele>
        <time>2022-06-25T06:38:27Z</time>
      </trkpt>
      <trkpt lat="46.64937" lon="5.39434">
        <ele>204.6</ele>
        <time>2022-06-25T06:38:28Z</time>
      </trkpt>
      <trkpt lat="46.64939" lon="5.39427">
        <ele>204.6</ele>
        <time>2022-06-25T06:38:29Z</time>
      </trkpt>
      <trkpt lat="46.64941" lon="5.39419">
        <ele>204.6</ele>
        <time>2022-06-25T06:38:30Z</time>
      </trkpt>
      <trkpt lat="46.64942" lon="5.39412">
        <ele>204.6</ele>
        <time>2022-06-25T06:38:31Z</time>
      </trkpt>
      <trkpt lat="46.64945" lon="5.39405">
        <ele>204.6</ele>
        <time>2022-06-25T06:38:32Z</time>
      </trkpt>
      <trkpt lat="46.64947" lon="5.39398">
        <ele>204.6</ele>
        <time>2022-06-25T06:38:33Z</time>
      </trkpt>
      <trkpt lat="46.64948" lon="5.39391">
        <ele>204.6</ele>
        <time>2022-06-25T06:38:34Z</time>
      </trkpt>
      <trkpt lat="46.64951" lon="5.39384">
        <ele>204.6</ele>
        <time>2022-06-25T06:38:35Z</time>
      </trkpt>
      <trkpt lat="46.64953" lon="5.39377">
        <ele>204.6</ele>
        <time>2022-06-25T06:38:36Z</time>
      </trkpt>
      <trkpt lat="46.64954" lon="5.39369">
        <ele>204.8</ele>
        <time>2022-06-25T06:38:37Z</time>
      </trkpt>
      <trkpt lat="46.64957" lon="5.39362">
        <ele>204.8</ele>
        <time>2022-06-25T06:38:38Z</time>
      </trkpt>
      <trkpt lat="46.6496" lon="5.39354">
        <ele>204.8</ele>
        <time>2022-06-25T06:38:39Z</time>
      </trkpt>
      <trkpt lat="46.64963" lon="5.39347">
        <ele>204.8</ele>
        <time>2022-06-25T06:38:40Z</time>
      </trkpt>
      <trkpt lat="46.64966" lon="5.3934">
        <ele>204.8</ele>
        <time>2022-06-25T06:38:41Z</time>
      </trkpt>
      <trkpt lat="46.64969" lon="5.39333">
        <ele>204.8</ele>
        <time>2022-06-25T06:38:42Z</time>
      </trkpt>
      <trkpt lat="46.64973" lon="5.39326">
        <ele>204.6</ele>
        <time>2022-06-25T06:38:43Z</time>
      </trkpt>
      <trkpt lat="46.64976" lon="5.39319">
        <ele>204.6</ele>
        <time>2022-06-25T06:38:44Z</time>
      </trkpt>
      <trkpt lat="46.6498" lon="5.39313">
        <ele>204.6</ele>
        <time>2022-06-25T06:38:45Z</time>
      </trkpt>
      <trkpt lat="46.64983" lon="5.39306">
        <ele>204.6</ele>
        <time>2022-06-25T06:38:46Z</time>
      </trkpt>
      <trkpt lat="46.64987" lon="5.39299">
        <ele>204.6</ele>
        <time>2022-06-25T06:38:47Z</time>
      </trkpt>
      <trkpt lat="46.64991" lon="5.39293">
        <ele>204.6</ele>
        <time>2022-06-25T06:38:48Z</time>
      </trkpt>
      <trkpt lat="46.64995" lon="5.39286">
        <ele>204.6</ele>
        <time>2022-06-25T06:38:49Z</time>
      </trkpt>
      <trkpt lat="46.64999" lon="5.39278">
        <ele>204.6</ele>
        <time>2022-06-25T06:38:50Z</time>
      </trkpt>
      <trkpt lat="46.65003" lon="5.39271">
        <ele>204.6</ele>
        <time>2022-06-25T06:38:51Z</time>
      </trkpt>
      <trkpt lat="46.65007" lon="5.39265">
        <ele>204.6</ele>
        <time>2022-06-25T06:38:52Z</time>
      </trkpt>
      <trkpt lat="46.65011" lon="5.39258">
        <ele>204.6</ele>
        <time>2022-06-25T06:38:53Z</time>
      </trkpt>
      <trkpt lat="46.65015" lon="5.39252">
        <ele>204.6</ele>
        <time>2022-06-25T06:38:54Z</time>
      </trkpt>
      <trkpt lat="46.65019" lon="5.39246">
        <ele>204.6</ele>
        <time>2022-06-25T06:38:55Z</time>
      </trkpt>
      <trkpt lat="46.65024" lon="5.3924">
        <ele>204.6</ele>
        <time>2022-06-25T06:38:56Z</time>
      </trkpt>
      <trkpt lat="46.65026" lon="5.39232">
        <ele>204.6</ele>
        <time>2022-06-25T06:38:57Z</time>
      </trkpt>
      <trkpt lat="46.65029" lon="5.39223">
        <ele>204.6</ele>
        <time>2022-06-25T06:38:58Z</time>
      </trkpt>
      <trkpt lat="46.65032" lon="5.39216">
        <ele>204.6</ele>
        <time>2022-06-25T06:38:59Z</time>
      </trkpt>
      <trkpt lat="46.65035" lon="5.39207">
        <ele>204.6</ele>
        <time>2022-06-25T06:39:00Z</time>
      </trkpt>
      <trkpt lat="46.65038" lon="5.39199">
        <ele>204.6</ele>
        <time>2022-06-25T06:39:01Z</time>
      </trkpt>
      <trkpt lat="46.65041" lon="5.39191">
        <ele>204.6</ele>
        <time>2022-06-25T06:39:02Z</time>
      </trkpt>
      <trkpt lat="46.65045" lon="5.39183">
        <ele>204.6</ele>
        <time>2022-06-25T06:39:03Z</time>
      </trkpt>
      <trkpt lat="46.65048" lon="5.39176">
        <ele>204.6</ele>
        <time>2022-06-25T06:39:04Z</time>
      </trkpt>
      <trkpt lat="46.65053" lon="5.39169">
        <ele>204.6</ele>
        <time>2022-06-25T06:39:05Z</time>
      </trkpt>
      <trkpt lat="46.65057" lon="5.39162">
        <ele>204.6</ele>
        <time>2022-06-25T06:39:06Z</time>
      </trkpt>
      <trkpt lat="46.65061" lon="5.39156">
        <ele>204.6</ele>
        <time>2022-06-25T06:39:07Z</time>
      </trkpt>
      <trkpt lat="46.65065" lon="5.39148">
        <ele>204.6</ele>
        <time>2022-06-25T06:39:08Z</time>
      </trkpt>
      <trkpt lat="46.65068" lon="5.39141">
        <ele>204.6</ele>
        <time>2022-06-25T06:39:09Z</time>
      </trkpt>
      <trkpt lat="46.65072" lon="5.39134">
        <ele>204.8</ele>
        <time>2022-06-25T06:39:10Z</time>
      </trkpt>
      <trkpt lat="46.65075" lon="5.39128">
        <ele>204.8</ele>
        <time>2022-06-25T06:39:11Z</time>
      </trkpt>
      <trkpt lat="46.65077" lon="5.39121">
        <ele>204.8</ele>
        <time>2022-06-25T06:39:12Z</time>
      </trkpt>
      <trkpt lat="46.6508" lon="5.39114">
        <ele>204.8</ele>
        <time>2022-06-25T06:39:13Z</time>
      </trkpt>
      <trkpt lat="46.65082" lon="5.39107">
        <ele>204.8</ele>
        <time>2022-06-25T06:39:14Z</time>
      </trkpt>
      <trkpt lat="46.65085" lon="5.39101">
        <ele>204.8</ele>
        <time>2022-06-25T06:39:15Z</time>
      </trkpt>
      <trkpt lat="46.65088" lon="5.39093">
        <ele>205</ele>
        <time>2022-06-25T06:39:16Z</time>
      </trkpt>
      <trkpt lat="46.6509" lon="5.39086">
        <ele>205</ele>
        <time>2022-06-25T06:39:17Z</time>
      </trkpt>
      <trkpt lat="46.65093" lon="5.39078">
        <ele>205</ele>
        <time>2022-06-25T06:39:18Z</time>
      </trkpt>
      <trkpt lat="46.65095" lon="5.39071">
        <ele>205</ele>
        <time>2022-06-25T06:39:19Z</time>
      </trkpt>
      <trkpt lat="46.65098" lon="5.39064">
        <ele>205</ele>
        <time>2022-06-25T06:39:20Z</time>
      </trkpt>
      <trkpt lat="46.65101" lon="5.39057">
        <ele>205</ele>
        <time>2022-06-25T06:39:21Z</time>
      </trkpt>
      <trkpt lat="46.65103" lon="5.39049">
        <ele>205</ele>
        <time>2022-06-25T06:39:22Z</time>
      </trkpt>
      <trkpt lat="46.65106" lon="5.39041">
        <ele>205.4</ele>
        <time>2022-06-25T06:39:23Z</time>
      </trkpt>
      <trkpt lat="46.65108" lon="5.39034">
        <ele>205.4</ele>
        <time>2022-06-25T06:39:24Z</time>
      </trkpt>
      <trkpt lat="46.6511" lon="5.39027">
        <ele>205.4</ele>
        <time>2022-06-25T06:39:25Z</time>
      </trkpt>
      <trkpt lat="46.65112" lon="5.3902">
        <ele>205.4</ele>
        <time>2022-06-25T06:39:26Z</time>
      </trkpt>
      <trkpt lat="46.65115" lon="5.39013">
        <ele>205.4</ele>
        <time>2022-06-25T06:39:27Z</time>
      </trkpt>
      <trkpt lat="46.65117" lon="5.39005">
        <ele>205.4</ele>
        <time>2022-06-25T06:39:28Z</time>
      </trkpt>
      <trkpt lat="46.65119" lon="5.38998">
        <ele>205.4</ele>
        <time>2022-06-25T06:39:29Z</time>
      </trkpt>
      <trkpt lat="46.65121" lon="5.3899">
        <ele>205.4</ele>
        <time>2022-06-25T06:39:30Z</time>
      </trkpt>
      <trkpt lat="46.65122" lon="5.38983">
        <ele>205.6</ele>
        <time>2022-06-25T06:39:31Z</time>
      </trkpt>
      <trkpt lat="46.65124" lon="5.38974">
        <ele>205.6</ele>
        <time>2022-06-25T06:39:32Z</time>
      </trkpt>
      <trkpt lat="46.65127" lon="5.38966">
        <ele>205.6</ele>
        <time>2022-06-25T06:39:33Z</time>
      </trkpt>
      <trkpt lat="46.6513" lon="5.38958">
        <ele>205.6</ele>
        <time>2022-06-25T06:39:34Z</time>
      </trkpt>
      <trkpt lat="46.65132" lon="5.38949">
        <ele>205.6</ele>
        <time>2022-06-25T06:39:35Z</time>
      </trkpt>
      <trkpt lat="46.65134" lon="5.38939">
        <ele>205.6</ele>
        <time>2022-06-25T06:39:36Z</time>
      </trkpt>
      <trkpt lat="46.65135" lon="5.3893">
        <ele>205.6</ele>
        <time>2022-06-25T06:39:37Z</time>
      </trkpt>
      <trkpt lat="46.65137" lon="5.38921">
        <ele>205.6</ele>
        <time>2022-06-25T06:39:38Z</time>
      </trkpt>
      <trkpt lat="46.65139" lon="5.38913">
        <ele>205.6</ele>
        <time>2022-06-25T06:39:39Z</time>
      </trkpt>
      <trkpt lat="46.6514" lon="5.38904">
        <ele>205.4</ele>
        <time>2022-06-25T06:39:40Z</time>
      </trkpt>
      <trkpt lat="46.65142" lon="5.38895">
        <ele>205.4</ele>
        <time>2022-06-25T06:39:41Z</time>
      </trkpt>
      <trkpt lat="46.65144" lon="5.38886">
        <ele>205.4</ele>
        <time>2022-06-25T06:39:42Z</time>
      </trkpt>
      <trkpt lat="46.65145" lon="5.38877">
        <ele>205.4</ele>
        <time>2022-06-25T06:39:43Z</time>
      </trkpt>
      <trkpt lat="46.65147" lon="5.38868">
        <ele>205.2</ele>
        <time>2022-06-25T06:39:44Z</time>
      </trkpt>
      <trkpt lat="46.65149" lon="5.38859">
        <ele>205.2</ele>
        <time>2022-06-25T06:39:45Z</time>
      </trkpt>
      <trkpt lat="46.65152" lon="5.38849">
        <ele>205.2</ele>
        <time>2022-06-25T06:39:46Z</time>
      </trkpt>
      <trkpt lat="46.65155" lon="5.38838">
        <ele>205.2</ele>
        <time>2022-06-25T06:39:47Z</time>
      </trkpt>
      <trkpt lat="46.65158" lon="5.38828">
        <ele>205</ele>
        <time>2022-06-25T06:39:48Z</time>
      </trkpt>
      <trkpt lat="46.65161" lon="5.38817">
        <ele>205</ele>
        <time>2022-06-25T06:39:49Z</time>
      </trkpt>
      <trkpt lat="46.65164" lon="5.38807">
        <ele>205</ele>
        <time>2022-06-25T06:39:50Z</time>
      </trkpt>
      <trkpt lat="46.65167" lon="5.38798">
        <ele>204.6</ele>
        <time>2022-06-25T06:39:51Z</time>
      </trkpt>
      <trkpt lat="46.65171" lon="5.38787">
        <ele>204.6</ele>
        <time>2022-06-25T06:39:52Z</time>
      </trkpt>
      <trkpt lat="46.65174" lon="5.38776">
        <ele>204.6</ele>
        <time>2022-06-25T06:39:53Z</time>
      </trkpt>
      <trkpt lat="46.65178" lon="5.38765">
        <ele>204.4</ele>
        <time>2022-06-25T06:39:54Z</time>
      </trkpt>
      <trkpt lat="46.65181" lon="5.38756">
        <ele>204.4</ele>
        <time>2022-06-25T06:39:55Z</time>
      </trkpt>
      <trkpt lat="46.65184" lon="5.38747">
        <ele>204.4</ele>
        <time>2022-06-25T06:39:56Z</time>
      </trkpt>
      <trkpt lat="46.65186" lon="5.38738">
        <ele>204.4</ele>
        <time>2022-06-25T06:39:57Z</time>
      </trkpt>
      <trkpt lat="46.65189" lon="5.38729">
        <ele>204.4</ele>
        <time>2022-06-25T06:39:58Z</time>
      </trkpt>
      <trkpt lat="46.65192" lon="5.38721">
        <ele>204.4</ele>
        <time>2022-06-25T06:39:59Z</time>
      </trkpt>
      <trkpt lat="46.65195" lon="5.38713">
        <ele>204.2</ele>
        <time>2022-06-25T06:40:00Z</time>
      </trkpt>
      <trkpt lat="46.65198" lon="5.38705">
        <ele>204.2</ele>
        <time>2022-06-25T06:40:01Z</time>
      </trkpt>
      <trkpt lat="46.65201" lon="5.38697">
        <ele>204.2</ele>
        <time>2022-06-25T06:40:02Z</time>
      </trkpt>
      <trkpt lat="46.65203" lon="5.3869">
        <ele>204.2</ele>
        <time>2022-06-25T06:40:03Z</time>
      </trkpt>
      <trkpt lat="46.65206" lon="5.38683">
        <ele>204.2</ele>
        <time>2022-06-25T06:40:04Z</time>
      </trkpt>
      <trkpt lat="46.65209" lon="5.38676">
        <ele>204.2</ele>
        <time>2022-06-25T06:40:05Z</time>
      </trkpt>
      <trkpt lat="46.65211" lon="5.38668">
        <ele>204.2</ele>
        <time>2022-06-25T06:40:06Z</time>
      </trkpt>
      <trkpt lat="46.65213" lon="5.3866">
        <ele>204.2</ele>
        <time>2022-06-25T06:40:07Z</time>
      </trkpt>
      <trkpt lat="46.65215" lon="5.38652">
        <ele>204.2</ele>
        <time>2022-06-25T06:40:08Z</time>
      </trkpt>
      <trkpt lat="46.65217" lon="5.38645">
        <ele>204.2</ele>
        <time>2022-06-25T06:40:09Z</time>
      </trkpt>
      <trkpt lat="46.65219" lon="5.38637">
        <ele>204.2</ele>
        <time>2022-06-25T06:40:10Z</time>
      </trkpt>
      <trkpt lat="46.65221" lon="5.38629">
        <ele>204.2</ele>
        <time>2022-06-25T06:40:11Z</time>
      </trkpt>
      <trkpt lat="46.65223" lon="5.38621">
        <ele>204.2</ele>
        <time>2022-06-25T06:40:12Z</time>
      </trkpt>
      <trkpt lat="46.65225" lon="5.38614">
        <ele>204.2</ele>
        <time>2022-06-25T06:40:13Z</time>
      </trkpt>
      <trkpt lat="46.65227" lon="5.38606">
        <ele>204.2</ele>
        <time>2022-06-25T06:40:14Z</time>
      </trkpt>
      <trkpt lat="46.65229" lon="5.38598">
        <ele>204.2</ele>
        <time>2022-06-25T06:40:15Z</time>
      </trkpt>
      <trkpt lat="46.65231" lon="5.38591">
        <ele>204</ele>
        <time>2022-06-25T06:40:16Z</time>
      </trkpt>
      <trkpt lat="46.65233" lon="5.38583">
        <ele>204</ele>
        <time>2022-06-25T06:40:17Z</time>
      </trkpt>
      <trkpt lat="46.65234" lon="5.38575">
        <ele>204</ele>
        <time>2022-06-25T06:40:18Z</time>
      </trkpt>
      <trkpt lat="46.65238" lon="5.38567">
        <ele>204</ele>
        <time>2022-06-25T06:40:19Z</time>
      </trkpt>
      <trkpt lat="46.65242" lon="5.3856">
        <ele>203.6</ele>
        <time>2022-06-25T06:40:20Z</time>
      </trkpt>
      <trkpt lat="46.65248" lon="5.38554">
        <ele>203.6</ele>
        <time>2022-06-25T06:40:21Z</time>
      </trkpt>
      <trkpt lat="46.65252" lon="5.38548">
        <ele>203.4</ele>
        <time>2022-06-25T06:40:22Z</time>
      </trkpt>
      <trkpt lat="46.65259" lon="5.38542">
        <ele>203.4</ele>
        <time>2022-06-25T06:40:23Z</time>
      </trkpt>
      <trkpt lat="46.65263" lon="5.38536">
        <ele>203.4</ele>
        <time>2022-06-25T06:40:24Z</time>
      </trkpt>
      <trkpt lat="46.65267" lon="5.38525">
        <ele>203.2</ele>
        <time>2022-06-25T06:40:25Z</time>
      </trkpt>
      <trkpt lat="46.65268" lon="5.38521">
        <ele>203.2</ele>
        <time>2022-06-25T06:40:26Z</time>
      </trkpt>
      <trkpt lat="46.6527" lon="5.38513">
        <ele>203</ele>
        <time>2022-06-25T06:40:27Z</time>
      </trkpt>
      <trkpt lat="46.65272" lon="5.38505">
        <ele>203</ele>
        <time>2022-06-25T06:40:28Z</time>
      </trkpt>
      <trkpt lat="46.65274" lon="5.38496">
        <ele>203</ele>
        <time>2022-06-25T06:40:29Z</time>
      </trkpt>
      <trkpt lat="46.65274" lon="5.38486">
        <ele>203</ele>
        <time>2022-06-25T06:40:30Z</time>
      </trkpt>
      <trkpt lat="46.65276" lon="5.38477">
        <ele>203</ele>
        <time>2022-06-25T06:40:31Z</time>
      </trkpt>
      <trkpt lat="46.65277" lon="5.38467">
        <ele>203</ele>
        <time>2022-06-25T06:40:32Z</time>
      </trkpt>
      <trkpt lat="46.65277" lon="5.38456">
        <ele>203</ele>
        <time>2022-06-25T06:40:33Z</time>
      </trkpt>
      <trkpt lat="46.65277" lon="5.38445">
        <ele>203</ele>
        <time>2022-06-25T06:40:34Z</time>
      </trkpt>
      <trkpt lat="46.65277" lon="5.38435">
        <ele>203</ele>
        <time>2022-06-25T06:40:35Z</time>
      </trkpt>
      <trkpt lat="46.65278" lon="5.38424">
        <ele>202.8</ele>
        <time>2022-06-25T06:40:36Z</time>
      </trkpt>
      <trkpt lat="46.65278" lon="5.38415">
        <ele>202.8</ele>
        <time>2022-06-25T06:40:37Z</time>
      </trkpt>
      <trkpt lat="46.65278" lon="5.38406">
        <ele>202.8</ele>
        <time>2022-06-25T06:40:38Z</time>
      </trkpt>
      <trkpt lat="46.65278" lon="5.38396">
        <ele>202.8</ele>
        <time>2022-06-25T06:40:39Z</time>
      </trkpt>
      <trkpt lat="46.65277" lon="5.38386">
        <ele>202.8</ele>
        <time>2022-06-25T06:40:40Z</time>
      </trkpt>
      <trkpt lat="46.65277" lon="5.38376">
        <ele>202.8</ele>
        <time>2022-06-25T06:40:41Z</time>
      </trkpt>
      <trkpt lat="46.65277" lon="5.38366">
        <ele>202.6</ele>
        <time>2022-06-25T06:40:42Z</time>
      </trkpt>
      <trkpt lat="46.65277" lon="5.38356">
        <ele>202.6</ele>
        <time>2022-06-25T06:40:43Z</time>
      </trkpt>
      <trkpt lat="46.65277" lon="5.38346">
        <ele>202.4</ele>
        <time>2022-06-25T06:40:44Z</time>
      </trkpt>
      <trkpt lat="46.65276" lon="5.38331">
        <ele>202.4</ele>
        <time>2022-06-25T06:40:45Z</time>
      </trkpt>
      <trkpt lat="46.65276" lon="5.38326">
        <ele>202.4</ele>
        <time>2022-06-25T06:40:46Z</time>
      </trkpt>
      <trkpt lat="46.65276" lon="5.38316">
        <ele>202.4</ele>
        <time>2022-06-25T06:40:47Z</time>
      </trkpt>
      <trkpt lat="46.65275" lon="5.38306">
        <ele>202.4</ele>
        <time>2022-06-25T06:40:48Z</time>
      </trkpt>
      <trkpt lat="46.65275" lon="5.38295">
        <ele>202.4</ele>
        <time>2022-06-25T06:40:49Z</time>
      </trkpt>
      <trkpt lat="46.65275" lon="5.38285">
        <ele>202.4</ele>
        <time>2022-06-25T06:40:50Z</time>
      </trkpt>
      <trkpt lat="46.65274" lon="5.38276">
        <ele>202.4</ele>
        <time>2022-06-25T06:40:51Z</time>
      </trkpt>
      <trkpt lat="46.65273" lon="5.38266">
        <ele>202.4</ele>
        <time>2022-06-25T06:40:52Z</time>
      </trkpt>
      <trkpt lat="46.65273" lon="5.38256">
        <ele>202.4</ele>
        <time>2022-06-25T06:40:53Z</time>
      </trkpt>
      <trkpt lat="46.65272" lon="5.38246">
        <ele>202.4</ele>
        <time>2022-06-25T06:40:54Z</time>
      </trkpt>
      <trkpt lat="46.65271" lon="5.38237">
        <ele>202.4</ele>
        <time>2022-06-25T06:40:55Z</time>
      </trkpt>
      <trkpt lat="46.65269" lon="5.38227">
        <ele>202.4</ele>
        <time>2022-06-25T06:40:56Z</time>
      </trkpt>
      <trkpt lat="46.65268" lon="5.38218">
        <ele>202.4</ele>
        <time>2022-06-25T06:40:57Z</time>
      </trkpt>
      <trkpt lat="46.65267" lon="5.38209">
        <ele>202.4</ele>
        <time>2022-06-25T06:40:58Z</time>
      </trkpt>
      <trkpt lat="46.65266" lon="5.382">
        <ele>202.4</ele>
        <time>2022-06-25T06:40:59Z</time>
      </trkpt>
      <trkpt lat="46.65265" lon="5.3819">
        <ele>202.4</ele>
        <time>2022-06-25T06:41:00Z</time>
      </trkpt>
      <trkpt lat="46.65263" lon="5.38181">
        <ele>202.4</ele>
        <time>2022-06-25T06:41:01Z</time>
      </trkpt>
      <trkpt lat="46.65262" lon="5.38172">
        <ele>202.4</ele>
        <time>2022-06-25T06:41:02Z</time>
      </trkpt>
      <trkpt lat="46.6526" lon="5.38162">
        <ele>202.4</ele>
        <time>2022-06-25T06:41:03Z</time>
      </trkpt>
      <trkpt lat="46.65259" lon="5.38153">
        <ele>202.4</ele>
        <time>2022-06-25T06:41:04Z</time>
      </trkpt>
      <trkpt lat="46.65257" lon="5.38144">
        <ele>202.4</ele>
        <time>2022-06-25T06:41:05Z</time>
      </trkpt>
      <trkpt lat="46.65255" lon="5.38135">
        <ele>202.4</ele>
        <time>2022-06-25T06:41:06Z</time>
      </trkpt>
      <trkpt lat="46.65253" lon="5.38126">
        <ele>202.4</ele>
        <time>2022-06-25T06:41:07Z</time>
      </trkpt>
      <trkpt lat="46.6525" lon="5.38117">
        <ele>202.4</ele>
        <time>2022-06-25T06:41:08Z</time>
      </trkpt>
      <trkpt lat="46.65248" lon="5.38108">
        <ele>202.4</ele>
        <time>2022-06-25T06:41:09Z</time>
      </trkpt>
      <trkpt lat="46.65246" lon="5.38099">
        <ele>202.4</ele>
        <time>2022-06-25T06:41:10Z</time>
      </trkpt>
      <trkpt lat="46.65244" lon="5.3809">
        <ele>202.4</ele>
        <time>2022-06-25T06:41:11Z</time>
      </trkpt>
      <trkpt lat="46.65241" lon="5.3808">
        <ele>202.4</ele>
        <time>2022-06-25T06:41:12Z</time>
      </trkpt>
      <trkpt lat="46.65239" lon="5.38071">
        <ele>202.4</ele>
        <time>2022-06-25T06:41:13Z</time>
      </trkpt>
      <trkpt lat="46.65236" lon="5.38062">
        <ele>202.4</ele>
        <time>2022-06-25T06:41:14Z</time>
      </trkpt>
      <trkpt lat="46.65234" lon="5.38054">
        <ele>202.4</ele>
        <time>2022-06-25T06:41:15Z</time>
      </trkpt>
      <trkpt lat="46.65231" lon="5.38045">
        <ele>202.6</ele>
        <time>2022-06-25T06:41:16Z</time>
      </trkpt>
      <trkpt lat="46.65229" lon="5.38037">
        <ele>202.6</ele>
        <time>2022-06-25T06:41:17Z</time>
      </trkpt>
      <trkpt lat="46.65226" lon="5.38028">
        <ele>202.6</ele>
        <time>2022-06-25T06:41:18Z</time>
      </trkpt>
      <trkpt lat="46.65223" lon="5.3802">
        <ele>202.6</ele>
        <time>2022-06-25T06:41:19Z</time>
      </trkpt>
      <trkpt lat="46.6522" lon="5.38011">
        <ele>202.6</ele>
        <time>2022-06-25T06:41:20Z</time>
      </trkpt>
      <trkpt lat="46.65217" lon="5.38003">
        <ele>202.6</ele>
        <time>2022-06-25T06:41:21Z</time>
      </trkpt>
      <trkpt lat="46.65214" lon="5.37995">
        <ele>202.6</ele>
        <time>2022-06-25T06:41:22Z</time>
      </trkpt>
      <trkpt lat="46.65211" lon="5.37986">
        <ele>202.6</ele>
        <time>2022-06-25T06:41:23Z</time>
      </trkpt>
      <trkpt lat="46.65208" lon="5.37978">
        <ele>202.6</ele>
        <time>2022-06-25T06:41:24Z</time>
      </trkpt>
      <trkpt lat="46.65205" lon="5.37969">
        <ele>202.6</ele>
        <time>2022-06-25T06:41:25Z</time>
      </trkpt>
      <trkpt lat="46.65202" lon="5.37961">
        <ele>202.6</ele>
        <time>2022-06-25T06:41:26Z</time>
      </trkpt>
      <trkpt lat="46.65199" lon="5.37952">
        <ele>202.6</ele>
        <time>2022-06-25T06:41:27Z</time>
      </trkpt>
      <trkpt lat="46.65195" lon="5.37943">
        <ele>202.6</ele>
        <time>2022-06-25T06:41:28Z</time>
      </trkpt>
      <trkpt lat="46.65192" lon="5.37934">
        <ele>202.6</ele>
        <time>2022-06-25T06:41:29Z</time>
      </trkpt>
      <trkpt lat="46.65189" lon="5.37924">
        <ele>202.6</ele>
        <time>2022-06-25T06:41:30Z</time>
      </trkpt>
      <trkpt lat="46.65187" lon="5.37915">
        <ele>202.2</ele>
        <time>2022-06-25T06:41:31Z</time>
      </trkpt>
      <trkpt lat="46.65184" lon="5.37905">
        <ele>202.2</ele>
        <time>2022-06-25T06:41:32Z</time>
      </trkpt>
      <trkpt lat="46.65181" lon="5.37896">
        <ele>202.2</ele>
        <time>2022-06-25T06:41:33Z</time>
      </trkpt>
      <trkpt lat="46.65178" lon="5.37886">
        <ele>202.2</ele>
        <time>2022-06-25T06:41:34Z</time>
      </trkpt>
      <trkpt lat="46.65176" lon="5.37876">
        <ele>202.2</ele>
        <time>2022-06-25T06:41:35Z</time>
      </trkpt>
      <trkpt lat="46.65173" lon="5.37867">
        <ele>202</ele>
        <time>2022-06-25T06:41:36Z</time>
      </trkpt>
      <trkpt lat="46.65171" lon="5.37857">
        <ele>202</ele>
        <time>2022-06-25T06:41:37Z</time>
      </trkpt>
      <trkpt lat="46.65168" lon="5.37847">
        <ele>202</ele>
        <time>2022-06-25T06:41:38Z</time>
      </trkpt>
      <trkpt lat="46.65166" lon="5.37836">
        <ele>201.8</ele>
        <time>2022-06-25T06:41:39Z</time>
      </trkpt>
      <trkpt lat="46.65165" lon="5.37826">
        <ele>201.8</ele>
        <time>2022-06-25T06:41:40Z</time>
      </trkpt>
      <trkpt lat="46.65163" lon="5.37816">
        <ele>201.8</ele>
        <time>2022-06-25T06:41:41Z</time>
      </trkpt>
      <trkpt lat="46.65161" lon="5.37805">
        <ele>201.8</ele>
        <time>2022-06-25T06:41:42Z</time>
      </trkpt>
      <trkpt lat="46.65159" lon="5.37795">
        <ele>201.8</ele>
        <time>2022-06-25T06:41:43Z</time>
      </trkpt>
      <trkpt lat="46.65157" lon="5.37785">
        <ele>201.6</ele>
        <time>2022-06-25T06:41:44Z</time>
      </trkpt>
      <trkpt lat="46.65156" lon="5.37774">
        <ele>201.6</ele>
        <time>2022-06-25T06:41:45Z</time>
      </trkpt>
      <trkpt lat="46.65155" lon="5.37764">
        <ele>201.6</ele>
        <time>2022-06-25T06:41:46Z</time>
      </trkpt>
      <trkpt lat="46.65154" lon="5.37753">
        <ele>201.6</ele>
        <time>2022-06-25T06:41:47Z</time>
      </trkpt>
      <trkpt lat="46.65153" lon="5.37743">
        <ele>201.6</ele>
        <time>2022-06-25T06:41:48Z</time>
      </trkpt>
      <trkpt lat="46.65152" lon="5.37733">
        <ele>201.6</ele>
        <time>2022-06-25T06:41:49Z</time>
      </trkpt>
      <trkpt lat="46.65151" lon="5.37722">
        <ele>201.6</ele>
        <time>2022-06-25T06:41:50Z</time>
      </trkpt>
      <trkpt lat="46.6515" lon="5.37702">
        <ele>201.6</ele>
        <time>2022-06-25T06:41:51Z</time>
      </trkpt>
      <trkpt lat="46.6515" lon="5.37691">
        <ele>201.2</ele>
        <time>2022-06-25T06:41:52Z</time>
      </trkpt>
      <trkpt lat="46.6515" lon="5.37681">
        <ele>201.2</ele>
        <time>2022-06-25T06:41:53Z</time>
      </trkpt>
      <trkpt lat="46.6515" lon="5.37671">
        <ele>201.2</ele>
        <time>2022-06-25T06:41:54Z</time>
      </trkpt>
      <trkpt lat="46.6515" lon="5.37661">
        <ele>201.2</ele>
        <time>2022-06-25T06:41:55Z</time>
      </trkpt>
      <trkpt lat="46.6515" lon="5.3765">
        <ele>201.2</ele>
        <time>2022-06-25T06:41:56Z</time>
      </trkpt>
      <trkpt lat="46.65151" lon="5.3764">
        <ele>201.2</ele>
        <time>2022-06-25T06:41:57Z</time>
      </trkpt>
      <trkpt lat="46.65151" lon="5.3763">
        <ele>201</ele>
        <time>2022-06-25T06:41:58Z</time>
      </trkpt>
      <trkpt lat="46.65151" lon="5.3762">
        <ele>201</ele>
        <time>2022-06-25T06:41:59Z</time>
      </trkpt>
      <trkpt lat="46.65151" lon="5.37609">
        <ele>201</ele>
        <time>2022-06-25T06:42:00Z</time>
      </trkpt>
      <trkpt lat="46.65151" lon="5.37599">
        <ele>201</ele>
        <time>2022-06-25T06:42:01Z</time>
      </trkpt>
      <trkpt lat="46.65151" lon="5.37589">
        <ele>201</ele>
        <time>2022-06-25T06:42:02Z</time>
      </trkpt>
      <trkpt lat="46.65151" lon="5.37578">
        <ele>201</ele>
        <time>2022-06-25T06:42:03Z</time>
      </trkpt>
      <trkpt lat="46.65151" lon="5.37568">
        <ele>201</ele>
        <time>2022-06-25T06:42:04Z</time>
      </trkpt>
      <trkpt lat="46.65151" lon="5.3756">
        <ele>201</ele>
        <time>2022-06-25T06:42:05Z</time>
      </trkpt>
      <trkpt lat="46.65151" lon="5.37551">
        <ele>201</ele>
        <time>2022-06-25T06:42:06Z</time>
      </trkpt>
      <trkpt lat="46.65152" lon="5.37535">
        <ele>201</ele>
        <time>2022-06-25T06:42:07Z</time>
      </trkpt>
      <trkpt lat="46.65152" lon="5.37524">
        <ele>201.2</ele>
        <time>2022-06-25T06:42:08Z</time>
      </trkpt>
      <trkpt lat="46.65152" lon="5.37514">
        <ele>201.2</ele>
        <time>2022-06-25T06:42:09Z</time>
      </trkpt>
      <trkpt lat="46.65152" lon="5.37503">
        <ele>201.2</ele>
        <time>2022-06-25T06:42:10Z</time>
      </trkpt>
      <trkpt lat="46.65152" lon="5.37492">
        <ele>201.2</ele>
        <time>2022-06-25T06:42:11Z</time>
      </trkpt>
      <trkpt lat="46.65152" lon="5.37481">
        <ele>201.2</ele>
        <time>2022-06-25T06:42:12Z</time>
      </trkpt>
      <trkpt lat="46.65153" lon="5.3747">
        <ele>201.2</ele>
        <time>2022-06-25T06:42:13Z</time>
      </trkpt>
      <trkpt lat="46.65153" lon="5.37458">
        <ele>201.2</ele>
        <time>2022-06-25T06:42:14Z</time>
      </trkpt>
      <trkpt lat="46.65153" lon="5.37447">
        <ele>201.2</ele>
        <time>2022-06-25T06:42:15Z</time>
      </trkpt>
      <trkpt lat="46.65153" lon="5.37436">
        <ele>201.2</ele>
        <time>2022-06-25T06:42:17Z</time>
      </trkpt>
      <trkpt lat="46.65153" lon="5.37425">
        <ele>201.2</ele>
        <time>2022-06-25T06:42:18Z</time>
      </trkpt>
      <trkpt lat="46.65153" lon="5.37415">
        <ele>201.2</ele>
        <time>2022-06-25T06:42:19Z</time>
      </trkpt>
      <trkpt lat="46.65153" lon="5.37404">
        <ele>201.2</ele>
        <time>2022-06-25T06:42:20Z</time>
      </trkpt>
      <trkpt lat="46.65153" lon="5.37393">
        <ele>201</ele>
        <time>2022-06-25T06:42:21Z</time>
      </trkpt>
      <trkpt lat="46.65153" lon="5.37382">
        <ele>201</ele>
        <time>2022-06-25T06:42:22Z</time>
      </trkpt>
      <trkpt lat="46.65152" lon="5.37372">
        <ele>201</ele>
        <time>2022-06-25T06:42:23Z</time>
      </trkpt>
      <trkpt lat="46.65152" lon="5.37361">
        <ele>201</ele>
        <time>2022-06-25T06:42:24Z</time>
      </trkpt>
      <trkpt lat="46.65151" lon="5.37351">
        <ele>201</ele>
        <time>2022-06-25T06:42:25Z</time>
      </trkpt>
      <trkpt lat="46.6515" lon="5.37341">
        <ele>201</ele>
        <time>2022-06-25T06:42:26Z</time>
      </trkpt>
      <trkpt lat="46.65149" lon="5.3733">
        <ele>201</ele>
        <time>2022-06-25T06:42:27Z</time>
      </trkpt>
      <trkpt lat="46.65148" lon="5.3732">
        <ele>201</ele>
        <time>2022-06-25T06:42:28Z</time>
      </trkpt>
      <trkpt lat="46.65147" lon="5.3731">
        <ele>200.6</ele>
        <time>2022-06-25T06:42:29Z</time>
      </trkpt>
      <trkpt lat="46.65146" lon="5.37299">
        <ele>200.6</ele>
        <time>2022-06-25T06:42:30Z</time>
      </trkpt>
      <trkpt lat="46.65145" lon="5.37289">
        <ele>200.6</ele>
        <time>2022-06-25T06:42:31Z</time>
      </trkpt>
      <trkpt lat="46.65143" lon="5.37279">
        <ele>200.4</ele>
        <time>2022-06-25T06:42:32Z</time>
      </trkpt>
      <trkpt lat="46.65142" lon="5.37269">
        <ele>200.4</ele>
        <time>2022-06-25T06:42:33Z</time>
      </trkpt>
      <trkpt lat="46.6514" lon="5.37259">
        <ele>200.4</ele>
        <time>2022-06-25T06:42:34Z</time>
      </trkpt>
      <trkpt lat="46.65138" lon="5.37248">
        <ele>200.4</ele>
        <time>2022-06-25T06:42:35Z</time>
      </trkpt>
      <trkpt lat="46.65136" lon="5.37238">
        <ele>200.2</ele>
        <time>2022-06-25T06:42:36Z</time>
      </trkpt>
      <trkpt lat="46.65134" lon="5.37229">
        <ele>200.2</ele>
        <time>2022-06-25T06:42:37Z</time>
      </trkpt>
      <trkpt lat="46.65131" lon="5.37219">
        <ele>200</ele>
        <time>2022-06-25T06:42:38Z</time>
      </trkpt>
      <trkpt lat="46.65129" lon="5.37209">
        <ele>200</ele>
        <time>2022-06-25T06:42:39Z</time>
      </trkpt>
      <trkpt lat="46.65126" lon="5.37199">
        <ele>200</ele>
        <time>2022-06-25T06:42:40Z</time>
      </trkpt>
      <trkpt lat="46.65123" lon="5.37189">
        <ele>200</ele>
        <time>2022-06-25T06:42:41Z</time>
      </trkpt>
      <trkpt lat="46.65121" lon="5.37179">
        <ele>199.8</ele>
        <time>2022-06-25T06:42:42Z</time>
      </trkpt>
      <trkpt lat="46.65118" lon="5.37169">
        <ele>199.8</ele>
        <time>2022-06-25T06:42:43Z</time>
      </trkpt>
      <trkpt lat="46.65115" lon="5.37158">
        <ele>199.8</ele>
        <time>2022-06-25T06:42:44Z</time>
      </trkpt>
      <trkpt lat="46.65112" lon="5.37148">
        <ele>199.6</ele>
        <time>2022-06-25T06:42:45Z</time>
      </trkpt>
      <trkpt lat="46.6511" lon="5.37137">
        <ele>199.6</ele>
        <time>2022-06-25T06:42:46Z</time>
      </trkpt>
      <trkpt lat="46.65107" lon="5.37127">
        <ele>199.6</ele>
        <time>2022-06-25T06:42:47Z</time>
      </trkpt>
      <trkpt lat="46.65104" lon="5.37117">
        <ele>199.6</ele>
        <time>2022-06-25T06:42:48Z</time>
      </trkpt>
      <trkpt lat="46.65102" lon="5.37106">
        <ele>199.6</ele>
        <time>2022-06-25T06:42:49Z</time>
      </trkpt>
      <trkpt lat="46.65099" lon="5.37096">
        <ele>199.6</ele>
        <time>2022-06-25T06:42:50Z</time>
      </trkpt>
      <trkpt lat="46.65097" lon="5.37086">
        <ele>199.6</ele>
        <time>2022-06-25T06:42:51Z</time>
      </trkpt>
      <trkpt lat="46.65095" lon="5.37076">
        <ele>199.6</ele>
        <time>2022-06-25T06:42:52Z</time>
      </trkpt>
      <trkpt lat="46.65092" lon="5.37066">
        <ele>199.6</ele>
        <time>2022-06-25T06:42:53Z</time>
      </trkpt>
      <trkpt lat="46.6509" lon="5.37056">
        <ele>199.6</ele>
        <time>2022-06-25T06:42:54Z</time>
      </trkpt>
      <trkpt lat="46.65088" lon="5.37046">
        <ele>199.6</ele>
        <time>2022-06-25T06:42:55Z</time>
      </trkpt>
      <trkpt lat="46.65086" lon="5.37037">
        <ele>199.2</ele>
        <time>2022-06-25T06:42:56Z</time>
      </trkpt>
      <trkpt lat="46.65083" lon="5.37028">
        <ele>199.2</ele>
        <time>2022-06-25T06:42:57Z</time>
      </trkpt>
      <trkpt lat="46.65082" lon="5.37018">
        <ele>199.2</ele>
        <time>2022-06-25T06:42:58Z</time>
      </trkpt>
      <trkpt lat="46.65079" lon="5.37009">
        <ele>199.2</ele>
        <time>2022-06-25T06:42:59Z</time>
      </trkpt>
      <trkpt lat="46.65077" lon="5.36999">
        <ele>199.2</ele>
        <time>2022-06-25T06:43:00Z</time>
      </trkpt>
      <trkpt lat="46.65075" lon="5.3699">
        <ele>199.2</ele>
        <time>2022-06-25T06:43:01Z</time>
      </trkpt>
      <trkpt lat="46.65072" lon="5.36981">
        <ele>199.2</ele>
        <time>2022-06-25T06:43:02Z</time>
      </trkpt>
      <trkpt lat="46.6507" lon="5.36972">
        <ele>199.2</ele>
        <time>2022-06-25T06:43:03Z</time>
      </trkpt>
      <trkpt lat="46.65068" lon="5.36962">
        <ele>199.2</ele>
        <time>2022-06-25T06:43:04Z</time>
      </trkpt>
      <trkpt lat="46.65066" lon="5.36953">
        <ele>199.2</ele>
        <time>2022-06-25T06:43:05Z</time>
      </trkpt>
      <trkpt lat="46.65064" lon="5.36945">
        <ele>199.2</ele>
        <time>2022-06-25T06:43:06Z</time>
      </trkpt>
      <trkpt lat="46.65061" lon="5.36935">
        <ele>199.2</ele>
        <time>2022-06-25T06:43:07Z</time>
      </trkpt>
      <trkpt lat="46.65059" lon="5.36926">
        <ele>199.2</ele>
        <time>2022-06-25T06:43:08Z</time>
      </trkpt>
      <trkpt lat="46.65057" lon="5.36917">
        <ele>199.2</ele>
        <time>2022-06-25T06:43:09Z</time>
      </trkpt>
      <trkpt lat="46.65056" lon="5.36909">
        <ele>199.2</ele>
        <time>2022-06-25T06:43:10Z</time>
      </trkpt>
      <trkpt lat="46.65054" lon="5.369">
        <ele>199.2</ele>
        <time>2022-06-25T06:43:11Z</time>
      </trkpt>
      <trkpt lat="46.65053" lon="5.36892">
        <ele>199.2</ele>
        <time>2022-06-25T06:43:12Z</time>
      </trkpt>
      <trkpt lat="46.65052" lon="5.36883">
        <ele>199.2</ele>
        <time>2022-06-25T06:43:13Z</time>
      </trkpt>
      <trkpt lat="46.6505" lon="5.36874">
        <ele>199.2</ele>
        <time>2022-06-25T06:43:14Z</time>
      </trkpt>
      <trkpt lat="46.65049" lon="5.36866">
        <ele>199.2</ele>
        <time>2022-06-25T06:43:15Z</time>
      </trkpt>
      <trkpt lat="46.65047" lon="5.36857">
        <ele>199.2</ele>
        <time>2022-06-25T06:43:16Z</time>
      </trkpt>
      <trkpt lat="46.65046" lon="5.36849">
        <ele>199.2</ele>
        <time>2022-06-25T06:43:17Z</time>
      </trkpt>
      <trkpt lat="46.65044" lon="5.36841">
        <ele>199.2</ele>
        <time>2022-06-25T06:43:18Z</time>
      </trkpt>
      <trkpt lat="46.65042" lon="5.36834">
        <ele>199.2</ele>
        <time>2022-06-25T06:43:19Z</time>
      </trkpt>
      <trkpt lat="46.6504" lon="5.36826">
        <ele>199.2</ele>
        <time>2022-06-25T06:43:20Z</time>
      </trkpt>
      <trkpt lat="46.65038" lon="5.36818">
        <ele>199.2</ele>
        <time>2022-06-25T06:43:21Z</time>
      </trkpt>
      <trkpt lat="46.65035" lon="5.3681">
        <ele>199.2</ele>
        <time>2022-06-25T06:43:22Z</time>
      </trkpt>
      <trkpt lat="46.65033" lon="5.36802">
        <ele>199.2</ele>
        <time>2022-06-25T06:43:23Z</time>
      </trkpt>
      <trkpt lat="46.6503" lon="5.36795">
        <ele>199.2</ele>
        <time>2022-06-25T06:43:24Z</time>
      </trkpt>
      <trkpt lat="46.65028" lon="5.36787">
        <ele>199.2</ele>
        <time>2022-06-25T06:43:25Z</time>
      </trkpt>
      <trkpt lat="46.65026" lon="5.3678">
        <ele>199</ele>
        <time>2022-06-25T06:43:26Z</time>
      </trkpt>
      <trkpt lat="46.65024" lon="5.36773">
        <ele>199</ele>
        <time>2022-06-25T06:43:27Z</time>
      </trkpt>
      <trkpt lat="46.65022" lon="5.36767">
        <ele>199</ele>
        <time>2022-06-25T06:43:28Z</time>
      </trkpt>
      <trkpt lat="46.6502" lon="5.36761">
        <ele>198.8</ele>
        <time>2022-06-25T06:43:29Z</time>
      </trkpt>
      <trkpt lat="46.65018" lon="5.36755">
        <ele>198.8</ele>
        <time>2022-06-25T06:43:30Z</time>
      </trkpt>
      <trkpt lat="46.65016" lon="5.36749">
        <ele>198.8</ele>
        <time>2022-06-25T06:43:31Z</time>
      </trkpt>
      <trkpt lat="46.65015" lon="5.36744">
        <ele>198.8</ele>
        <time>2022-06-25T06:43:32Z</time>
      </trkpt>
      <trkpt lat="46.65013" lon="5.36738">
        <ele>198.8</ele>
        <time>2022-06-25T06:43:33Z</time>
      </trkpt>
      <trkpt lat="46.65011" lon="5.36732">
        <ele>198.8</ele>
        <time>2022-06-25T06:43:34Z</time>
      </trkpt>
      <trkpt lat="46.65009" lon="5.36725">
        <ele>198.8</ele>
        <time>2022-06-25T06:43:35Z</time>
      </trkpt>
      <trkpt lat="46.65006" lon="5.36717">
        <ele>198.8</ele>
        <time>2022-06-25T06:43:36Z</time>
      </trkpt>
      <trkpt lat="46.65004" lon="5.3671">
        <ele>198.8</ele>
        <time>2022-06-25T06:43:37Z</time>
      </trkpt>
      <trkpt lat="46.65002" lon="5.36701">
        <ele>198.8</ele>
        <time>2022-06-25T06:43:38Z</time>
      </trkpt>
      <trkpt lat="46.65" lon="5.36693">
        <ele>198.8</ele>
        <time>2022-06-25T06:43:39Z</time>
      </trkpt>
      <trkpt lat="46.64997" lon="5.36684">
        <ele>198.8</ele>
        <time>2022-06-25T06:43:40Z</time>
      </trkpt>
      <trkpt lat="46.64995" lon="5.36674">
        <ele>198.8</ele>
        <time>2022-06-25T06:43:41Z</time>
      </trkpt>
      <trkpt lat="46.64992" lon="5.36666">
        <ele>198.8</ele>
        <time>2022-06-25T06:43:42Z</time>
      </trkpt>
      <trkpt lat="46.6499" lon="5.36657">
        <ele>198.8</ele>
        <time>2022-06-25T06:43:43Z</time>
      </trkpt>
      <trkpt lat="46.64987" lon="5.36647">
        <ele>198.8</ele>
        <time>2022-06-25T06:43:44Z</time>
      </trkpt>
      <trkpt lat="46.64985" lon="5.36639">
        <ele>198.6</ele>
        <time>2022-06-25T06:43:45Z</time>
      </trkpt>
      <trkpt lat="46.64983" lon="5.3663">
        <ele>198.6</ele>
        <time>2022-06-25T06:43:46Z</time>
      </trkpt>
      <trkpt lat="46.64981" lon="5.36621">
        <ele>198.6</ele>
        <time>2022-06-25T06:43:47Z</time>
      </trkpt>
      <trkpt lat="46.64978" lon="5.36611">
        <ele>198.6</ele>
        <time>2022-06-25T06:43:48Z</time>
      </trkpt>
      <trkpt lat="46.64976" lon="5.36602">
        <ele>198.6</ele>
        <time>2022-06-25T06:43:49Z</time>
      </trkpt>
      <trkpt lat="46.64973" lon="5.36594">
        <ele>198.6</ele>
        <time>2022-06-25T06:43:50Z</time>
      </trkpt>
      <trkpt lat="46.6497" lon="5.36585">
        <ele>198.6</ele>
        <time>2022-06-25T06:43:51Z</time>
      </trkpt>
      <trkpt lat="46.64968" lon="5.36576">
        <ele>198.6</ele>
        <time>2022-06-25T06:43:52Z</time>
      </trkpt>
      <trkpt lat="46.64965" lon="5.36567">
        <ele>198.6</ele>
        <time>2022-06-25T06:43:53Z</time>
      </trkpt>
      <trkpt lat="46.64963" lon="5.36558">
        <ele>198.6</ele>
        <time>2022-06-25T06:43:54Z</time>
      </trkpt>
      <trkpt lat="46.64961" lon="5.36549">
        <ele>198.6</ele>
        <time>2022-06-25T06:43:55Z</time>
      </trkpt>
      <trkpt lat="46.64959" lon="5.3654">
        <ele>198.6</ele>
        <time>2022-06-25T06:43:56Z</time>
      </trkpt>
      <trkpt lat="46.64956" lon="5.36531">
        <ele>198.6</ele>
        <time>2022-06-25T06:43:57Z</time>
      </trkpt>
      <trkpt lat="46.64954" lon="5.36522">
        <ele>198.6</ele>
        <time>2022-06-25T06:43:58Z</time>
      </trkpt>
      <trkpt lat="46.64952" lon="5.36514">
        <ele>198.6</ele>
        <time>2022-06-25T06:43:59Z</time>
      </trkpt>
      <trkpt lat="46.64949" lon="5.365">
        <ele>198.6</ele>
        <time>2022-06-25T06:44:00Z</time>
      </trkpt>
      <trkpt lat="46.64948" lon="5.36496">
        <ele>198.8</ele>
        <time>2022-06-25T06:44:01Z</time>
      </trkpt>
      <trkpt lat="46.64945" lon="5.36487">
        <ele>198.8</ele>
        <time>2022-06-25T06:44:02Z</time>
      </trkpt>
      <trkpt lat="46.64943" lon="5.36478">
        <ele>198.8</ele>
        <time>2022-06-25T06:44:03Z</time>
      </trkpt>
      <trkpt lat="46.64941" lon="5.3647">
        <ele>198.8</ele>
        <time>2022-06-25T06:44:04Z</time>
      </trkpt>
      <trkpt lat="46.64939" lon="5.36462">
        <ele>199</ele>
        <time>2022-06-25T06:44:05Z</time>
      </trkpt>
      <trkpt lat="46.64937" lon="5.36453">
        <ele>199</ele>
        <time>2022-06-25T06:44:06Z</time>
      </trkpt>
      <trkpt lat="46.64935" lon="5.36445">
        <ele>199</ele>
        <time>2022-06-25T06:44:07Z</time>
      </trkpt>
      <trkpt lat="46.64933" lon="5.36437">
        <ele>199</ele>
        <time>2022-06-25T06:44:08Z</time>
      </trkpt>
      <trkpt lat="46.64932" lon="5.36429">
        <ele>199.2</ele>
        <time>2022-06-25T06:44:09Z</time>
      </trkpt>
      <trkpt lat="46.6493" lon="5.36421">
        <ele>199.2</ele>
        <time>2022-06-25T06:44:10Z</time>
      </trkpt>
      <trkpt lat="46.64928" lon="5.36414">
        <ele>199.2</ele>
        <time>2022-06-25T06:44:11Z</time>
      </trkpt>
      <trkpt lat="46.64926" lon="5.36407">
        <ele>199.2</ele>
        <time>2022-06-25T06:44:12Z</time>
      </trkpt>
      <trkpt lat="46.64924" lon="5.36399">
        <ele>199.4</ele>
        <time>2022-06-25T06:44:13Z</time>
      </trkpt>
      <trkpt lat="46.64922" lon="5.36392">
        <ele>199.4</ele>
        <time>2022-06-25T06:44:14Z</time>
      </trkpt>
      <trkpt lat="46.64921" lon="5.36385">
        <ele>199.4</ele>
        <time>2022-06-25T06:44:15Z</time>
      </trkpt>
      <trkpt lat="46.6492" lon="5.36378">
        <ele>199.4</ele>
        <time>2022-06-25T06:44:16Z</time>
      </trkpt>
      <trkpt lat="46.64919" lon="5.36372">
        <ele>199.4</ele>
        <time>2022-06-25T06:44:17Z</time>
      </trkpt>
      <trkpt lat="46.64918" lon="5.36365">
        <ele>199.6</ele>
        <time>2022-06-25T06:44:18Z</time>
      </trkpt>
      <trkpt lat="46.64917" lon="5.36357">
        <ele>199.6</ele>
        <time>2022-06-25T06:44:19Z</time>
      </trkpt>
      <trkpt lat="46.64915" lon="5.3635">
        <ele>199.6</ele>
        <time>2022-06-25T06:44:20Z</time>
      </trkpt>
      <trkpt lat="46.64913" lon="5.36342">
        <ele>199.6</ele>
        <time>2022-06-25T06:44:21Z</time>
      </trkpt>
      <trkpt lat="46.6491" lon="5.36335">
        <ele>199.8</ele>
        <time>2022-06-25T06:44:22Z</time>
      </trkpt>
      <trkpt lat="46.64908" lon="5.36327">
        <ele>199.8</ele>
        <time>2022-06-25T06:44:23Z</time>
      </trkpt>
      <trkpt lat="46.64907" lon="5.3632">
        <ele>199.8</ele>
        <time>2022-06-25T06:44:24Z</time>
      </trkpt>
      <trkpt lat="46.64905" lon="5.36313">
        <ele>199.8</ele>
        <time>2022-06-25T06:44:25Z</time>
      </trkpt>
      <trkpt lat="46.64903" lon="5.36306">
        <ele>199.8</ele>
        <time>2022-06-25T06:44:26Z</time>
      </trkpt>
      <trkpt lat="46.649" lon="5.36298">
        <ele>200</ele>
        <time>2022-06-25T06:44:27Z</time>
      </trkpt>
      <trkpt lat="46.64898" lon="5.36291">
        <ele>200</ele>
        <time>2022-06-25T06:44:28Z</time>
      </trkpt>
      <trkpt lat="46.64896" lon="5.36285">
        <ele>200</ele>
        <time>2022-06-25T06:44:29Z</time>
      </trkpt>
      <trkpt lat="46.64894" lon="5.36277">
        <ele>200</ele>
        <time>2022-06-25T06:44:30Z</time>
      </trkpt>
      <trkpt lat="46.64891" lon="5.3627">
        <ele>200</ele>
        <time>2022-06-25T06:44:31Z</time>
      </trkpt>
      <trkpt lat="46.64889" lon="5.36262">
        <ele>200</ele>
        <time>2022-06-25T06:44:32Z</time>
      </trkpt>
      <trkpt lat="46.64886" lon="5.36254">
        <ele>199.8</ele>
        <time>2022-06-25T06:44:33Z</time>
      </trkpt>
      <trkpt lat="46.64884" lon="5.36247">
        <ele>199.8</ele>
        <time>2022-06-25T06:44:34Z</time>
      </trkpt>
      <trkpt lat="46.64881" lon="5.36239">
        <ele>199.6</ele>
        <time>2022-06-25T06:44:35Z</time>
      </trkpt>
      <trkpt lat="46.64879" lon="5.36231">
        <ele>199.6</ele>
        <time>2022-06-25T06:44:36Z</time>
      </trkpt>
      <trkpt lat="46.64877" lon="5.36224">
        <ele>199.6</ele>
        <time>2022-06-25T06:44:37Z</time>
      </trkpt>
      <trkpt lat="46.64875" lon="5.36216">
        <ele>199.6</ele>
        <time>2022-06-25T06:44:38Z</time>
      </trkpt>
      <trkpt lat="46.64872" lon="5.36209">
        <ele>199.6</ele>
        <time>2022-06-25T06:44:39Z</time>
      </trkpt>
      <trkpt lat="46.64869" lon="5.36201">
        <ele>199.4</ele>
        <time>2022-06-25T06:44:40Z</time>
      </trkpt>
      <trkpt lat="46.64865" lon="5.36193">
        <ele>199.4</ele>
        <time>2022-06-25T06:44:41Z</time>
      </trkpt>
      <trkpt lat="46.64862" lon="5.36185">
        <ele>199.4</ele>
        <time>2022-06-25T06:44:42Z</time>
      </trkpt>
      <trkpt lat="46.64859" lon="5.36176">
        <ele>199.2</ele>
        <time>2022-06-25T06:44:43Z</time>
      </trkpt>
      <trkpt lat="46.64855" lon="5.36167">
        <ele>199.2</ele>
        <time>2022-06-25T06:44:44Z</time>
      </trkpt>
      <trkpt lat="46.64851" lon="5.36155">
        <ele>199.2</ele>
        <time>2022-06-25T06:44:45Z</time>
      </trkpt>
      <trkpt lat="46.64847" lon="5.36146">
        <ele>199.2</ele>
        <time>2022-06-25T06:44:46Z</time>
      </trkpt>
      <trkpt lat="46.64844" lon="5.36138">
        <ele>199</ele>
        <time>2022-06-25T06:44:47Z</time>
      </trkpt>
      <trkpt lat="46.6484" lon="5.36129">
        <ele>199</ele>
        <time>2022-06-25T06:44:48Z</time>
      </trkpt>
      <trkpt lat="46.64836" lon="5.36119">
        <ele>199</ele>
        <time>2022-06-25T06:44:49Z</time>
      </trkpt>
      <trkpt lat="46.64833" lon="5.36111">
        <ele>199</ele>
        <time>2022-06-25T06:44:50Z</time>
      </trkpt>
      <trkpt lat="46.6483" lon="5.36102">
        <ele>199</ele>
        <time>2022-06-25T06:44:51Z</time>
      </trkpt>
      <trkpt lat="46.64826" lon="5.36094">
        <ele>198.6</ele>
        <time>2022-06-25T06:44:52Z</time>
      </trkpt>
      <trkpt lat="46.64823" lon="5.36085">
        <ele>198.6</ele>
        <time>2022-06-25T06:44:53Z</time>
      </trkpt>
      <trkpt lat="46.64818" lon="5.36076">
        <ele>198.4</ele>
        <time>2022-06-25T06:44:54Z</time>
      </trkpt>
      <trkpt lat="46.64814" lon="5.36065">
        <ele>198.4</ele>
        <time>2022-06-25T06:44:55Z</time>
      </trkpt>
      <trkpt lat="46.6481" lon="5.36055">
        <ele>198.4</ele>
        <time>2022-06-25T06:44:56Z</time>
      </trkpt>
      <trkpt lat="46.64806" lon="5.36045">
        <ele>198.4</ele>
        <time>2022-06-25T06:44:57Z</time>
      </trkpt>
      <trkpt lat="46.64803" lon="5.36037">
        <ele>198.4</ele>
        <time>2022-06-25T06:44:58Z</time>
      </trkpt>
      <trkpt lat="46.648" lon="5.36029">
        <ele>198.4</ele>
        <time>2022-06-25T06:44:59Z</time>
      </trkpt>
      <trkpt lat="46.64797" lon="5.3602">
        <ele>198.4</ele>
        <time>2022-06-25T06:45:00Z</time>
      </trkpt>
      <trkpt lat="46.64793" lon="5.36012">
        <ele>198.4</ele>
        <time>2022-06-25T06:45:01Z</time>
      </trkpt>
      <trkpt lat="46.6479" lon="5.36004">
        <ele>198.6</ele>
        <time>2022-06-25T06:45:02Z</time>
      </trkpt>
      <trkpt lat="46.64787" lon="5.35996">
        <ele>198.6</ele>
        <time>2022-06-25T06:45:03Z</time>
      </trkpt>
      <trkpt lat="46.64784" lon="5.35988">
        <ele>198.6</ele>
        <time>2022-06-25T06:45:04Z</time>
      </trkpt>
      <trkpt lat="46.64781" lon="5.3598">
        <ele>199</ele>
        <time>2022-06-25T06:45:05Z</time>
      </trkpt>
      <trkpt lat="46.64778" lon="5.35973">
        <ele>199</ele>
        <time>2022-06-25T06:45:06Z</time>
      </trkpt>
      <trkpt lat="46.64774" lon="5.35965">
        <ele>199</ele>
        <time>2022-06-25T06:45:07Z</time>
      </trkpt>
      <trkpt lat="46.64772" lon="5.35958">
        <ele>199</ele>
        <time>2022-06-25T06:45:08Z</time>
      </trkpt>
      <trkpt lat="46.64769" lon="5.3595">
        <ele>199</ele>
        <time>2022-06-25T06:45:09Z</time>
      </trkpt>
      <trkpt lat="46.64766" lon="5.35943">
        <ele>199.2</ele>
        <time>2022-06-25T06:45:10Z</time>
      </trkpt>
      <trkpt lat="46.64764" lon="5.35936">
        <ele>199.2</ele>
        <time>2022-06-25T06:45:11Z</time>
      </trkpt>
      <trkpt lat="46.64761" lon="5.35929">
        <ele>199.2</ele>
        <time>2022-06-25T06:45:12Z</time>
      </trkpt>
      <trkpt lat="46.64759" lon="5.35922">
        <ele>199.2</ele>
        <time>2022-06-25T06:45:13Z</time>
      </trkpt>
      <trkpt lat="46.64756" lon="5.35915">
        <ele>199.4</ele>
        <time>2022-06-25T06:45:14Z</time>
      </trkpt>
      <trkpt lat="46.64754" lon="5.35908">
        <ele>199.4</ele>
        <time>2022-06-25T06:45:15Z</time>
      </trkpt>
      <trkpt lat="46.64751" lon="5.35902">
        <ele>199.4</ele>
        <time>2022-06-25T06:45:16Z</time>
      </trkpt>
      <trkpt lat="46.64748" lon="5.35896">
        <ele>199.4</ele>
        <time>2022-06-25T06:45:17Z</time>
      </trkpt>
      <trkpt lat="46.64745" lon="5.35888">
        <ele>199.4</ele>
        <time>2022-06-25T06:45:18Z</time>
      </trkpt>
      <trkpt lat="46.64742" lon="5.35881">
        <ele>199.4</ele>
        <time>2022-06-25T06:45:19Z</time>
      </trkpt>
      <trkpt lat="46.64739" lon="5.35874">
        <ele>199.4</ele>
        <time>2022-06-25T06:45:20Z</time>
      </trkpt>
      <trkpt lat="46.64736" lon="5.35866">
        <ele>199.4</ele>
        <time>2022-06-25T06:45:21Z</time>
      </trkpt>
      <trkpt lat="46.64732" lon="5.35858">
        <ele>199.8</ele>
        <time>2022-06-25T06:45:22Z</time>
      </trkpt>
      <trkpt lat="46.64729" lon="5.3585">
        <ele>199.8</ele>
        <time>2022-06-25T06:45:23Z</time>
      </trkpt>
      <trkpt lat="46.64725" lon="5.35841">
        <ele>199.8</ele>
        <time>2022-06-25T06:45:24Z</time>
      </trkpt>
      <trkpt lat="46.64721" lon="5.35832">
        <ele>199.6</ele>
        <time>2022-06-25T06:45:25Z</time>
      </trkpt>
      <trkpt lat="46.64717" lon="5.35822">
        <ele>199.6</ele>
        <time>2022-06-25T06:45:26Z</time>
      </trkpt>
      <trkpt lat="46.64713" lon="5.35813">
        <ele>199.6</ele>
        <time>2022-06-25T06:45:27Z</time>
      </trkpt>
      <trkpt lat="46.64709" lon="5.35804">
        <ele>199.2</ele>
        <time>2022-06-25T06:45:28Z</time>
      </trkpt>
      <trkpt lat="46.64706" lon="5.35795">
        <ele>199.2</ele>
        <time>2022-06-25T06:45:29Z</time>
      </trkpt>
      <trkpt lat="46.64702" lon="5.35785">
        <ele>199.2</ele>
        <time>2022-06-25T06:45:30Z</time>
      </trkpt>
      <trkpt lat="46.64699" lon="5.35776">
        <ele>199.2</ele>
        <time>2022-06-25T06:45:31Z</time>
      </trkpt>
      <trkpt lat="46.64695" lon="5.35767">
        <ele>199</ele>
        <time>2022-06-25T06:45:32Z</time>
      </trkpt>
      <trkpt lat="46.64692" lon="5.35757">
        <ele>199</ele>
        <time>2022-06-25T06:45:33Z</time>
      </trkpt>
      <trkpt lat="46.64689" lon="5.35748">
        <ele>199</ele>
        <time>2022-06-25T06:45:34Z</time>
      </trkpt>
      <trkpt lat="46.64687" lon="5.35738">
        <ele>199</ele>
        <time>2022-06-25T06:45:35Z</time>
      </trkpt>
      <trkpt lat="46.64684" lon="5.35728">
        <ele>198.8</ele>
        <time>2022-06-25T06:45:36Z</time>
      </trkpt>
      <trkpt lat="46.64682" lon="5.35719">
        <ele>198.8</ele>
        <time>2022-06-25T06:45:37Z</time>
      </trkpt>
      <trkpt lat="46.64679" lon="5.35709">
        <ele>198.6</ele>
        <time>2022-06-25T06:45:38Z</time>
      </trkpt>
      <trkpt lat="46.64677" lon="5.35699">
        <ele>198.6</ele>
        <time>2022-06-25T06:45:39Z</time>
      </trkpt>
      <trkpt lat="46.64674" lon="5.35689">
        <ele>198.6</ele>
        <time>2022-06-25T06:45:40Z</time>
      </trkpt>
      <trkpt lat="46.64672" lon="5.35679">
        <ele>198.2</ele>
        <time>2022-06-25T06:45:41Z</time>
      </trkpt>
      <trkpt lat="46.64669" lon="5.35668">
        <ele>198.2</ele>
        <time>2022-06-25T06:45:42Z</time>
      </trkpt>
      <trkpt lat="46.64667" lon="5.35658">
        <ele>198.2</ele>
        <time>2022-06-25T06:45:43Z</time>
      </trkpt>
      <trkpt lat="46.64665" lon="5.35648">
        <ele>198</ele>
        <time>2022-06-25T06:45:44Z</time>
      </trkpt>
      <trkpt lat="46.64664" lon="5.35638">
        <ele>198</ele>
        <time>2022-06-25T06:45:45Z</time>
      </trkpt>
      <trkpt lat="46.64662" lon="5.35628">
        <ele>198</ele>
        <time>2022-06-25T06:45:46Z</time>
      </trkpt>
      <trkpt lat="46.6466" lon="5.35618">
        <ele>198</ele>
        <time>2022-06-25T06:45:47Z</time>
      </trkpt>
      <trkpt lat="46.64659" lon="5.35607">
        <ele>198</ele>
        <time>2022-06-25T06:45:48Z</time>
      </trkpt>
      <trkpt lat="46.64657" lon="5.35597">
        <ele>197.6</ele>
        <time>2022-06-25T06:45:49Z</time>
      </trkpt>
      <trkpt lat="46.64656" lon="5.35587">
        <ele>197.6</ele>
        <time>2022-06-25T06:45:50Z</time>
      </trkpt>
      <trkpt lat="46.64655" lon="5.35576">
        <ele>197.6</ele>
        <time>2022-06-25T06:45:51Z</time>
      </trkpt>
      <trkpt lat="46.64654" lon="5.35566">
        <ele>197.6</ele>
        <time>2022-06-25T06:45:52Z</time>
      </trkpt>
      <trkpt lat="46.64653" lon="5.35556">
        <ele>197.6</ele>
        <time>2022-06-25T06:45:53Z</time>
      </trkpt>
      <trkpt lat="46.64652" lon="5.35545">
        <ele>197.6</ele>
        <time>2022-06-25T06:45:54Z</time>
      </trkpt>
      <trkpt lat="46.64652" lon="5.35535">
        <ele>197.4</ele>
        <time>2022-06-25T06:45:55Z</time>
      </trkpt>
      <trkpt lat="46.64651" lon="5.35524">
        <ele>197.4</ele>
        <time>2022-06-25T06:45:56Z</time>
      </trkpt>
      <trkpt lat="46.64651" lon="5.35514">
        <ele>197.2</ele>
        <time>2022-06-25T06:45:57Z</time>
      </trkpt>
      <trkpt lat="46.64651" lon="5.35503">
        <ele>197.2</ele>
        <time>2022-06-25T06:45:58Z</time>
      </trkpt>
      <trkpt lat="46.6465" lon="5.35493">
        <ele>197.2</ele>
        <time>2022-06-25T06:45:59Z</time>
      </trkpt>
      <trkpt lat="46.6465" lon="5.35482">
        <ele>197.2</ele>
        <time>2022-06-25T06:46:00Z</time>
      </trkpt>
      <trkpt lat="46.6465" lon="5.35472">
        <ele>196.8</ele>
        <time>2022-06-25T06:46:01Z</time>
      </trkpt>
      <trkpt lat="46.6465" lon="5.35462">
        <ele>196.8</ele>
        <time>2022-06-25T06:46:02Z</time>
      </trkpt>
      <trkpt lat="46.6465" lon="5.35452">
        <ele>196.6</ele>
        <time>2022-06-25T06:46:03Z</time>
      </trkpt>
      <trkpt lat="46.6465" lon="5.35442">
        <ele>196.6</ele>
        <time>2022-06-25T06:46:04Z</time>
      </trkpt>
      <trkpt lat="46.6465" lon="5.35432">
        <ele>196.4</ele>
        <time>2022-06-25T06:46:05Z</time>
      </trkpt>
      <trkpt lat="46.64649" lon="5.35423">
        <ele>196.4</ele>
        <time>2022-06-25T06:46:06Z</time>
      </trkpt>
      <trkpt lat="46.64649" lon="5.35414">
        <ele>196.4</ele>
        <time>2022-06-25T06:46:07Z</time>
      </trkpt>
      <trkpt lat="46.64649" lon="5.35406">
        <ele>196.4</ele>
        <time>2022-06-25T06:46:08Z</time>
      </trkpt>
      <trkpt lat="46.64649" lon="5.35398">
        <ele>196.4</ele>
        <time>2022-06-25T06:46:09Z</time>
      </trkpt>
      <trkpt lat="46.64649" lon="5.35392">
        <ele>196.4</ele>
        <time>2022-06-25T06:46:10Z</time>
      </trkpt>
      <trkpt lat="46.64649" lon="5.35387">
        <ele>196.2</ele>
        <time>2022-06-25T06:46:11Z</time>
      </trkpt>
      <trkpt lat="46.64649" lon="5.35382">
        <ele>196.2</ele>
        <time>2022-06-25T06:46:12Z</time>
      </trkpt>
      <trkpt lat="46.64649" lon="5.35378">
        <ele>196.2</ele>
        <time>2022-06-25T06:46:13Z</time>
      </trkpt>
      <trkpt lat="46.64649" lon="5.35375">
        <ele>195.8</ele>
        <time>2022-06-25T06:46:14Z</time>
      </trkpt>
      <trkpt lat="46.64649" lon="5.3537">
        <ele>195.8</ele>
        <time>2022-06-25T06:46:15Z</time>
      </trkpt>
      <trkpt lat="46.64649" lon="5.35365">
        <ele>195.8</ele>
        <time>2022-06-25T06:46:16Z</time>
      </trkpt>
      <trkpt lat="46.64648" lon="5.35359">
        <ele>195.6</ele>
        <time>2022-06-25T06:46:17Z</time>
      </trkpt>
      <trkpt lat="46.64648" lon="5.35353">
        <ele>195.6</ele>
        <time>2022-06-25T06:46:18Z</time>
      </trkpt>
      <trkpt lat="46.64647" lon="5.35347">
        <ele>196</ele>
        <time>2022-06-25T06:46:19Z</time>
      </trkpt>
      <trkpt lat="46.64647" lon="5.3534">
        <ele>196.2</ele>
        <time>2022-06-25T06:46:20Z</time>
      </trkpt>
      <trkpt lat="46.64646" lon="5.35333">
        <ele>196.2</ele>
        <time>2022-06-25T06:46:21Z</time>
      </trkpt>
      <trkpt lat="46.64646" lon="5.35326">
        <ele>196.4</ele>
        <time>2022-06-25T06:46:22Z</time>
      </trkpt>
      <trkpt lat="46.64646" lon="5.35318">
        <ele>196.4</ele>
        <time>2022-06-25T06:46:23Z</time>
      </trkpt>
      <trkpt lat="46.64646" lon="5.35311">
        <ele>196.4</ele>
        <time>2022-06-25T06:46:24Z</time>
      </trkpt>
      <trkpt lat="46.64646" lon="5.35303">
        <ele>196.6</ele>
        <time>2022-06-25T06:46:25Z</time>
      </trkpt>
      <trkpt lat="46.64645" lon="5.35296">
        <ele>196.6</ele>
        <time>2022-06-25T06:46:26Z</time>
      </trkpt>
      <trkpt lat="46.64644" lon="5.35289">
        <ele>196.6</ele>
        <time>2022-06-25T06:46:27Z</time>
      </trkpt>
      <trkpt lat="46.64644" lon="5.35281">
        <ele>196.8</ele>
        <time>2022-06-25T06:46:28Z</time>
      </trkpt>
      <trkpt lat="46.64643" lon="5.35274">
        <ele>196.8</ele>
        <time>2022-06-25T06:46:29Z</time>
      </trkpt>
      <trkpt lat="46.64643" lon="5.35266">
        <ele>196.8</ele>
        <time>2022-06-25T06:46:30Z</time>
      </trkpt>
      <trkpt lat="46.64642" lon="5.35258">
        <ele>196.8</ele>
        <time>2022-06-25T06:46:31Z</time>
      </trkpt>
      <trkpt lat="46.64641" lon="5.3525">
        <ele>197</ele>
        <time>2022-06-25T06:46:32Z</time>
      </trkpt>
      <trkpt lat="46.6464" lon="5.35243">
        <ele>197</ele>
        <time>2022-06-25T06:46:33Z</time>
      </trkpt>
      <trkpt lat="46.64639" lon="5.35235">
        <ele>197.4</ele>
        <time>2022-06-25T06:46:34Z</time>
      </trkpt>
      <trkpt lat="46.64638" lon="5.35226">
        <ele>197.4</ele>
        <time>2022-06-25T06:46:35Z</time>
      </trkpt>
      <trkpt lat="46.64637" lon="5.35218">
        <ele>197.4</ele>
        <time>2022-06-25T06:46:36Z</time>
      </trkpt>
      <trkpt lat="46.64636" lon="5.3521">
        <ele>197.4</ele>
        <time>2022-06-25T06:46:37Z</time>
      </trkpt>
      <trkpt lat="46.64634" lon="5.35202">
        <ele>197.4</ele>
        <time>2022-06-25T06:46:38Z</time>
      </trkpt>
      <trkpt lat="46.64633" lon="5.35194">
        <ele>197.4</ele>
        <time>2022-06-25T06:46:39Z</time>
      </trkpt>
      <trkpt lat="46.64631" lon="5.35186">
        <ele>197.4</ele>
        <time>2022-06-25T06:46:40Z</time>
      </trkpt>
      <trkpt lat="46.6463" lon="5.35178">
        <ele>197.6</ele>
        <time>2022-06-25T06:46:41Z</time>
      </trkpt>
      <trkpt lat="46.64628" lon="5.3517">
        <ele>197.6</ele>
        <time>2022-06-25T06:46:42Z</time>
      </trkpt>
      <trkpt lat="46.64626" lon="5.35162">
        <ele>197.6</ele>
        <time>2022-06-25T06:46:43Z</time>
      </trkpt>
      <trkpt lat="46.64624" lon="5.35153">
        <ele>197.6</ele>
        <time>2022-06-25T06:46:44Z</time>
      </trkpt>
      <trkpt lat="46.64622" lon="5.35145">
        <ele>197.6</ele>
        <time>2022-06-25T06:46:45Z</time>
      </trkpt>
      <trkpt lat="46.64621" lon="5.35137">
        <ele>197.6</ele>
        <time>2022-06-25T06:46:46Z</time>
      </trkpt>
      <trkpt lat="46.64619" lon="5.35129">
        <ele>197.6</ele>
        <time>2022-06-25T06:46:47Z</time>
      </trkpt>
      <trkpt lat="46.64617" lon="5.35121">
        <ele>197.4</ele>
        <time>2022-06-25T06:46:48Z</time>
      </trkpt>
      <trkpt lat="46.64615" lon="5.35113">
        <ele>197.4</ele>
        <time>2022-06-25T06:46:49Z</time>
      </trkpt>
      <trkpt lat="46.64613" lon="5.35105">
        <ele>197.4</ele>
        <time>2022-06-25T06:46:50Z</time>
      </trkpt>
      <trkpt lat="46.64611" lon="5.35096">
        <ele>197.4</ele>
        <time>2022-06-25T06:46:51Z</time>
      </trkpt>
      <trkpt lat="46.64609" lon="5.35087">
        <ele>197.4</ele>
        <time>2022-06-25T06:46:52Z</time>
      </trkpt>
      <trkpt lat="46.64607" lon="5.35078">
        <ele>197.4</ele>
        <time>2022-06-25T06:46:53Z</time>
      </trkpt>
      <trkpt lat="46.64604" lon="5.35069">
        <ele>197.4</ele>
        <time>2022-06-25T06:46:54Z</time>
      </trkpt>
      <trkpt lat="46.64602" lon="5.3506">
        <ele>197.2</ele>
        <time>2022-06-25T06:46:55Z</time>
      </trkpt>
      <trkpt lat="46.646" lon="5.35051">
        <ele>197.2</ele>
        <time>2022-06-25T06:46:56Z</time>
      </trkpt>
      <trkpt lat="46.64598" lon="5.35042">
        <ele>197.2</ele>
        <time>2022-06-25T06:46:57Z</time>
      </trkpt>
      <trkpt lat="46.64596" lon="5.35033">
        <ele>197.2</ele>
        <time>2022-06-25T06:46:58Z</time>
      </trkpt>
      <trkpt lat="46.64594" lon="5.35023">
        <ele>197.2</ele>
        <time>2022-06-25T06:46:59Z</time>
      </trkpt>
      <trkpt lat="46.64591" lon="5.35014">
        <ele>197.2</ele>
        <time>2022-06-25T06:47:00Z</time>
      </trkpt>
      <trkpt lat="46.64589" lon="5.35004">
        <ele>197.2</ele>
        <time>2022-06-25T06:47:01Z</time>
      </trkpt>
      <trkpt lat="46.64587" lon="5.34995">
        <ele>197.2</ele>
        <time>2022-06-25T06:47:02Z</time>
      </trkpt>
      <trkpt lat="46.64585" lon="5.34985">
        <ele>197.2</ele>
        <time>2022-06-25T06:47:03Z</time>
      </trkpt>
      <trkpt lat="46.64582" lon="5.34976">
        <ele>197.2</ele>
        <time>2022-06-25T06:47:04Z</time>
      </trkpt>
      <trkpt lat="46.6458" lon="5.34966">
        <ele>197.2</ele>
        <time>2022-06-25T06:47:05Z</time>
      </trkpt>
      <trkpt lat="46.64578" lon="5.34956">
        <ele>197.2</ele>
        <time>2022-06-25T06:47:06Z</time>
      </trkpt>
      <trkpt lat="46.64576" lon="5.34947">
        <ele>197.2</ele>
        <time>2022-06-25T06:47:07Z</time>
      </trkpt>
      <trkpt lat="46.64574" lon="5.34937">
        <ele>197.2</ele>
        <time>2022-06-25T06:47:08Z</time>
      </trkpt>
      <trkpt lat="46.64571" lon="5.34928">
        <ele>197</ele>
        <time>2022-06-25T06:47:10Z</time>
      </trkpt>
      <trkpt lat="46.64569" lon="5.34918">
        <ele>197</ele>
        <time>2022-06-25T06:47:11Z</time>
      </trkpt>
      <trkpt lat="46.64567" lon="5.34909">
        <ele>197</ele>
        <time>2022-06-25T06:47:12Z</time>
      </trkpt>
      <trkpt lat="46.64565" lon="5.34899">
        <ele>197</ele>
        <time>2022-06-25T06:47:13Z</time>
      </trkpt>
      <trkpt lat="46.64562" lon="5.3489">
        <ele>197</ele>
        <time>2022-06-25T06:47:14Z</time>
      </trkpt>
      <trkpt lat="46.6456" lon="5.3488">
        <ele>197</ele>
        <time>2022-06-25T06:47:15Z</time>
      </trkpt>
      <trkpt lat="46.64558" lon="5.34871">
        <ele>197</ele>
        <time>2022-06-25T06:47:16Z</time>
      </trkpt>
      <trkpt lat="46.64556" lon="5.34862">
        <ele>197</ele>
        <time>2022-06-25T06:47:17Z</time>
      </trkpt>
      <trkpt lat="46.64553" lon="5.34853">
        <ele>197</ele>
        <time>2022-06-25T06:47:18Z</time>
      </trkpt>
      <trkpt lat="46.64551" lon="5.34844">
        <ele>197</ele>
        <time>2022-06-25T06:47:19Z</time>
      </trkpt>
      <trkpt lat="46.64548" lon="5.34835">
        <ele>197</ele>
        <time>2022-06-25T06:47:20Z</time>
      </trkpt>
      <trkpt lat="46.64545" lon="5.34827">
        <ele>197.2</ele>
        <time>2022-06-25T06:47:21Z</time>
      </trkpt>
      <trkpt lat="46.64542" lon="5.34818">
        <ele>197.2</ele>
        <time>2022-06-25T06:47:22Z</time>
      </trkpt>
      <trkpt lat="46.6454" lon="5.3481">
        <ele>197.2</ele>
        <time>2022-06-25T06:47:23Z</time>
      </trkpt>
      <trkpt lat="46.64537" lon="5.34802">
        <ele>197.2</ele>
        <time>2022-06-25T06:47:24Z</time>
      </trkpt>
      <trkpt lat="46.64534" lon="5.34793">
        <ele>197.2</ele>
        <time>2022-06-25T06:47:25Z</time>
      </trkpt>
      <trkpt lat="46.64531" lon="5.34785">
        <ele>197.4</ele>
        <time>2022-06-25T06:47:26Z</time>
      </trkpt>
      <trkpt lat="46.64528" lon="5.34777">
        <ele>197.4</ele>
        <time>2022-06-25T06:47:27Z</time>
      </trkpt>
      <trkpt lat="46.64525" lon="5.3477">
        <ele>197.4</ele>
        <time>2022-06-25T06:47:28Z</time>
      </trkpt>
      <trkpt lat="46.64522" lon="5.34762">
        <ele>197.8</ele>
        <time>2022-06-25T06:47:29Z</time>
      </trkpt>
      <trkpt lat="46.64519" lon="5.34754">
        <ele>197.8</ele>
        <time>2022-06-25T06:47:30Z</time>
      </trkpt>
      <trkpt lat="46.64515" lon="5.34747">
        <ele>197.8</ele>
        <time>2022-06-25T06:47:31Z</time>
      </trkpt>
      <trkpt lat="46.64512" lon="5.34739">
        <ele>198</ele>
        <time>2022-06-25T06:47:32Z</time>
      </trkpt>
      <trkpt lat="46.64508" lon="5.34732">
        <ele>198</ele>
        <time>2022-06-25T06:47:33Z</time>
      </trkpt>
      <trkpt lat="46.64505" lon="5.34725">
        <ele>198</ele>
        <time>2022-06-25T06:47:34Z</time>
      </trkpt>
      <trkpt lat="46.64501" lon="5.34718">
        <ele>198.2</ele>
        <time>2022-06-25T06:47:35Z</time>
      </trkpt>
      <trkpt lat="46.64498" lon="5.3471">
        <ele>198.2</ele>
        <time>2022-06-25T06:47:36Z</time>
      </trkpt>
      <trkpt lat="46.64495" lon="5.34703">
        <ele>198.2</ele>
        <time>2022-06-25T06:47:37Z</time>
      </trkpt>
      <trkpt lat="46.64491" lon="5.34696">
        <ele>198.2</ele>
        <time>2022-06-25T06:47:38Z</time>
      </trkpt>
      <trkpt lat="46.64488" lon="5.34689">
        <ele>198.4</ele>
        <time>2022-06-25T06:47:39Z</time>
      </trkpt>
      <trkpt lat="46.64484" lon="5.34682">
        <ele>198.4</ele>
        <time>2022-06-25T06:47:40Z</time>
      </trkpt>
      <trkpt lat="46.64481" lon="5.34676">
        <ele>198.4</ele>
        <time>2022-06-25T06:47:41Z</time>
      </trkpt>
      <trkpt lat="46.64478" lon="5.34668">
        <ele>198.4</ele>
        <time>2022-06-25T06:47:42Z</time>
      </trkpt>
      <trkpt lat="46.64474" lon="5.34661">
        <ele>198.4</ele>
        <time>2022-06-25T06:47:43Z</time>
      </trkpt>
      <trkpt lat="46.64471" lon="5.34654">
        <ele>198.8</ele>
        <time>2022-06-25T06:47:44Z</time>
      </trkpt>
      <trkpt lat="46.64467" lon="5.34647">
        <ele>198.8</ele>
        <time>2022-06-25T06:47:45Z</time>
      </trkpt>
      <trkpt lat="46.64464" lon="5.3464">
        <ele>198.8</ele>
        <time>2022-06-25T06:47:46Z</time>
      </trkpt>
      <trkpt lat="46.64461" lon="5.34633">
        <ele>198.8</ele>
        <time>2022-06-25T06:47:47Z</time>
      </trkpt>
      <trkpt lat="46.64457" lon="5.34626">
        <ele>199</ele>
        <time>2022-06-25T06:47:48Z</time>
      </trkpt>
      <trkpt lat="46.64454" lon="5.34619">
        <ele>199</ele>
        <time>2022-06-25T06:47:49Z</time>
      </trkpt>
      <trkpt lat="46.6445" lon="5.34612">
        <ele>199</ele>
        <time>2022-06-25T06:47:50Z</time>
      </trkpt>
      <trkpt lat="46.64447" lon="5.34606">
        <ele>199</ele>
        <time>2022-06-25T06:47:51Z</time>
      </trkpt>
      <trkpt lat="46.64444" lon="5.34599">
        <ele>199</ele>
        <time>2022-06-25T06:47:52Z</time>
      </trkpt>
      <trkpt lat="46.64441" lon="5.34592">
        <ele>199</ele>
        <time>2022-06-25T06:47:53Z</time>
      </trkpt>
      <trkpt lat="46.64438" lon="5.34585">
        <ele>199.2</ele>
        <time>2022-06-25T06:47:54Z</time>
      </trkpt>
      <trkpt lat="46.64435" lon="5.34578">
        <ele>199.2</ele>
        <time>2022-06-25T06:47:55Z</time>
      </trkpt>
      <trkpt lat="46.64432" lon="5.34571">
        <ele>199.2</ele>
        <time>2022-06-25T06:47:56Z</time>
      </trkpt>
      <trkpt lat="46.64428" lon="5.34564">
        <ele>199.2</ele>
        <time>2022-06-25T06:47:57Z</time>
      </trkpt>
      <trkpt lat="46.64425" lon="5.34557">
        <ele>199.2</ele>
        <time>2022-06-25T06:47:58Z</time>
      </trkpt>
      <trkpt lat="46.64422" lon="5.3455">
        <ele>199.4</ele>
        <time>2022-06-25T06:47:59Z</time>
      </trkpt>
      <trkpt lat="46.64418" lon="5.34543">
        <ele>199.4</ele>
        <time>2022-06-25T06:48:00Z</time>
      </trkpt>
      <trkpt lat="46.64415" lon="5.34537">
        <ele>199.8</ele>
        <time>2022-06-25T06:48:01Z</time>
      </trkpt>
      <trkpt lat="46.64411" lon="5.3453">
        <ele>199.8</ele>
        <time>2022-06-25T06:48:02Z</time>
      </trkpt>
      <trkpt lat="46.64408" lon="5.34523">
        <ele>199.8</ele>
        <time>2022-06-25T06:48:03Z</time>
      </trkpt>
      <trkpt lat="46.64404" lon="5.34516">
        <ele>199.8</ele>
        <time>2022-06-25T06:48:04Z</time>
      </trkpt>
      <trkpt lat="46.644" lon="5.34508">
        <ele>200</ele>
        <time>2022-06-25T06:48:05Z</time>
      </trkpt>
      <trkpt lat="46.64397" lon="5.34501">
        <ele>200</ele>
        <time>2022-06-25T06:48:06Z</time>
      </trkpt>
      <trkpt lat="46.64394" lon="5.34494">
        <ele>200</ele>
        <time>2022-06-25T06:48:07Z</time>
      </trkpt>
      <trkpt lat="46.6439" lon="5.34486">
        <ele>200</ele>
        <time>2022-06-25T06:48:08Z</time>
      </trkpt>
      <trkpt lat="46.64387" lon="5.34478">
        <ele>200</ele>
        <time>2022-06-25T06:48:09Z</time>
      </trkpt>
      <trkpt lat="46.64384" lon="5.3447">
        <ele>200</ele>
        <time>2022-06-25T06:48:10Z</time>
      </trkpt>
      <trkpt lat="46.64381" lon="5.34462">
        <ele>200</ele>
        <time>2022-06-25T06:48:11Z</time>
      </trkpt>
      <trkpt lat="46.64377" lon="5.34454">
        <ele>200</ele>
        <time>2022-06-25T06:48:12Z</time>
      </trkpt>
      <trkpt lat="46.64374" lon="5.34445">
        <ele>200</ele>
        <time>2022-06-25T06:48:13Z</time>
      </trkpt>
      <trkpt lat="46.64371" lon="5.34437">
        <ele>200</ele>
        <time>2022-06-25T06:48:14Z</time>
      </trkpt>
      <trkpt lat="46.64368" lon="5.34429">
        <ele>200</ele>
        <time>2022-06-25T06:48:15Z</time>
      </trkpt>
      <trkpt lat="46.64364" lon="5.3442">
        <ele>200</ele>
        <time>2022-06-25T06:48:16Z</time>
      </trkpt>
      <trkpt lat="46.64361" lon="5.34412">
        <ele>200</ele>
        <time>2022-06-25T06:48:17Z</time>
      </trkpt>
      <trkpt lat="46.64358" lon="5.34403">
        <ele>199.6</ele>
        <time>2022-06-25T06:48:18Z</time>
      </trkpt>
      <trkpt lat="46.64355" lon="5.34394">
        <ele>199.6</ele>
        <time>2022-06-25T06:48:19Z</time>
      </trkpt>
      <trkpt lat="46.64352" lon="5.34385">
        <ele>199.6</ele>
        <time>2022-06-25T06:48:20Z</time>
      </trkpt>
      <trkpt lat="46.64349" lon="5.34376">
        <ele>199.4</ele>
        <time>2022-06-25T06:48:21Z</time>
      </trkpt>
      <trkpt lat="46.64346" lon="5.34367">
        <ele>199.4</ele>
        <time>2022-06-25T06:48:22Z</time>
      </trkpt>
      <trkpt lat="46.64343" lon="5.34357">
        <ele>199.4</ele>
        <time>2022-06-25T06:48:23Z</time>
      </trkpt>
      <trkpt lat="46.6434" lon="5.34348">
        <ele>199.4</ele>
        <time>2022-06-25T06:48:24Z</time>
      </trkpt>
      <trkpt lat="46.64337" lon="5.34338">
        <ele>199.2</ele>
        <time>2022-06-25T06:48:25Z</time>
      </trkpt>
      <trkpt lat="46.64335" lon="5.34328">
        <ele>199.2</ele>
        <time>2022-06-25T06:48:26Z</time>
      </trkpt>
      <trkpt lat="46.64332" lon="5.34318">
        <ele>199.2</ele>
        <time>2022-06-25T06:48:27Z</time>
      </trkpt>
      <trkpt lat="46.64329" lon="5.34308">
        <ele>199.2</ele>
        <time>2022-06-25T06:48:28Z</time>
      </trkpt>
      <trkpt lat="46.64327" lon="5.34297">
        <ele>199.2</ele>
        <time>2022-06-25T06:48:29Z</time>
      </trkpt>
      <trkpt lat="46.64324" lon="5.34287">
        <ele>198.8</ele>
        <time>2022-06-25T06:48:30Z</time>
      </trkpt>
      <trkpt lat="46.64322" lon="5.34277">
        <ele>198.8</ele>
        <time>2022-06-25T06:48:31Z</time>
      </trkpt>
      <trkpt lat="46.6432" lon="5.34267">
        <ele>198.8</ele>
        <time>2022-06-25T06:48:32Z</time>
      </trkpt>
      <trkpt lat="46.64317" lon="5.34258">
        <ele>198.4</ele>
        <time>2022-06-25T06:48:33Z</time>
      </trkpt>
      <trkpt lat="46.64315" lon="5.34248">
        <ele>198.4</ele>
        <time>2022-06-25T06:48:34Z</time>
      </trkpt>
      <trkpt lat="46.64313" lon="5.34238">
        <ele>198.4</ele>
        <time>2022-06-25T06:48:35Z</time>
      </trkpt>
      <trkpt lat="46.64311" lon="5.34229">
        <ele>198.4</ele>
        <time>2022-06-25T06:48:36Z</time>
      </trkpt>
      <trkpt lat="46.64309" lon="5.34219">
        <ele>198.2</ele>
        <time>2022-06-25T06:48:37Z</time>
      </trkpt>
      <trkpt lat="46.64307" lon="5.3421">
        <ele>198.2</ele>
        <time>2022-06-25T06:48:38Z</time>
      </trkpt>
      <trkpt lat="46.64305" lon="5.342">
        <ele>198.2</ele>
        <time>2022-06-25T06:48:39Z</time>
      </trkpt>
      <trkpt lat="46.64303" lon="5.34191">
        <ele>198.2</ele>
        <time>2022-06-25T06:48:40Z</time>
      </trkpt>
      <trkpt lat="46.643" lon="5.34181">
        <ele>198</ele>
        <time>2022-06-25T06:48:41Z</time>
      </trkpt>
      <trkpt lat="46.64298" lon="5.34171">
        <ele>198</ele>
        <time>2022-06-25T06:48:42Z</time>
      </trkpt>
      <trkpt lat="46.64296" lon="5.34161">
        <ele>198</ele>
        <time>2022-06-25T06:48:43Z</time>
      </trkpt>
      <trkpt lat="46.64294" lon="5.34151">
        <ele>197.8</ele>
        <time>2022-06-25T06:48:44Z</time>
      </trkpt>
      <trkpt lat="46.64291" lon="5.34142">
        <ele>197.8</ele>
        <time>2022-06-25T06:48:45Z</time>
      </trkpt>
      <trkpt lat="46.64289" lon="5.34132">
        <ele>197.8</ele>
        <time>2022-06-25T06:48:46Z</time>
      </trkpt>
      <trkpt lat="46.64286" lon="5.34122">
        <ele>197.6</ele>
        <time>2022-06-25T06:48:47Z</time>
      </trkpt>
      <trkpt lat="46.64284" lon="5.34111">
        <ele>197.6</ele>
        <time>2022-06-25T06:48:48Z</time>
      </trkpt>
      <trkpt lat="46.64282" lon="5.34101">
        <ele>197.6</ele>
        <time>2022-06-25T06:48:49Z</time>
      </trkpt>
      <trkpt lat="46.64279" lon="5.34091">
        <ele>197.6</ele>
        <time>2022-06-25T06:48:50Z</time>
      </trkpt>
      <trkpt lat="46.64277" lon="5.34081">
        <ele>197.6</ele>
        <time>2022-06-25T06:48:51Z</time>
      </trkpt>
      <trkpt lat="46.64275" lon="5.34071">
        <ele>197.4</ele>
        <time>2022-06-25T06:48:52Z</time>
      </trkpt>
      <trkpt lat="46.64273" lon="5.34061">
        <ele>197.4</ele>
        <time>2022-06-25T06:48:53Z</time>
      </trkpt>
      <trkpt lat="46.64271" lon="5.34051">
        <ele>197.4</ele>
        <time>2022-06-25T06:48:54Z</time>
      </trkpt>
      <trkpt lat="46.64269" lon="5.34041">
        <ele>197.4</ele>
        <time>2022-06-25T06:48:55Z</time>
      </trkpt>
      <trkpt lat="46.64267" lon="5.34031">
        <ele>197.4</ele>
        <time>2022-06-25T06:48:56Z</time>
      </trkpt>
      <trkpt lat="46.64266" lon="5.34021">
        <ele>197.4</ele>
        <time>2022-06-25T06:48:57Z</time>
      </trkpt>
      <trkpt lat="46.64264" lon="5.34011">
        <ele>197.4</ele>
        <time>2022-06-25T06:48:58Z</time>
      </trkpt>
      <trkpt lat="46.64263" lon="5.34001">
        <ele>197.2</ele>
        <time>2022-06-25T06:48:59Z</time>
      </trkpt>
      <trkpt lat="46.64262" lon="5.33991">
        <ele>197.2</ele>
        <time>2022-06-25T06:49:00Z</time>
      </trkpt>
      <trkpt lat="46.64261" lon="5.33981">
        <ele>197.2</ele>
        <time>2022-06-25T06:49:01Z</time>
      </trkpt>
      <trkpt lat="46.6426" lon="5.33971">
        <ele>196.8</ele>
        <time>2022-06-25T06:49:02Z</time>
      </trkpt>
      <trkpt lat="46.64259" lon="5.33961">
        <ele>196.8</ele>
        <time>2022-06-25T06:49:03Z</time>
      </trkpt>
      <trkpt lat="46.64258" lon="5.33951">
        <ele>196.8</ele>
        <time>2022-06-25T06:49:04Z</time>
      </trkpt>
      <trkpt lat="46.64257" lon="5.33941">
        <ele>196.8</ele>
        <time>2022-06-25T06:49:05Z</time>
      </trkpt>
      <trkpt lat="46.64256" lon="5.33931">
        <ele>196.8</ele>
        <time>2022-06-25T06:49:06Z</time>
      </trkpt>
      <trkpt lat="46.64256" lon="5.3392">
        <ele>196.8</ele>
        <time>2022-06-25T06:49:07Z</time>
      </trkpt>
      <trkpt lat="46.64255" lon="5.3391">
        <ele>196.6</ele>
        <time>2022-06-25T06:49:08Z</time>
      </trkpt>
      <trkpt lat="46.64254" lon="5.339">
        <ele>196.6</ele>
        <time>2022-06-25T06:49:09Z</time>
      </trkpt>
      <trkpt lat="46.64254" lon="5.3389">
        <ele>196.6</ele>
        <time>2022-06-25T06:49:10Z</time>
      </trkpt>
      <trkpt lat="46.64253" lon="5.3388">
        <ele>196.6</ele>
        <time>2022-06-25T06:49:11Z</time>
      </trkpt>
      <trkpt lat="46.64253" lon="5.33871">
        <ele>196.6</ele>
        <time>2022-06-25T06:49:12Z</time>
      </trkpt>
      <trkpt lat="46.64253" lon="5.33861">
        <ele>196.6</ele>
        <time>2022-06-25T06:49:13Z</time>
      </trkpt>
      <trkpt lat="46.64252" lon="5.33852">
        <ele>196.4</ele>
        <time>2022-06-25T06:49:14Z</time>
      </trkpt>
      <trkpt lat="46.64252" lon="5.33843">
        <ele>196.4</ele>
        <time>2022-06-25T06:49:15Z</time>
      </trkpt>
      <trkpt lat="46.64252" lon="5.33835">
        <ele>196.2</ele>
        <time>2022-06-25T06:49:16Z</time>
      </trkpt>
      <trkpt lat="46.64252" lon="5.33828">
        <ele>196.2</ele>
        <time>2022-06-25T06:49:17Z</time>
      </trkpt>
      <trkpt lat="46.64252" lon="5.33822">
        <ele>196.2</ele>
        <time>2022-06-25T06:49:18Z</time>
      </trkpt>
      <trkpt lat="46.64252" lon="5.33817">
        <ele>196.2</ele>
        <time>2022-06-25T06:49:19Z</time>
      </trkpt>
      <trkpt lat="46.64252" lon="5.33812">
        <ele>195.8</ele>
        <time>2022-06-25T06:49:20Z</time>
      </trkpt>
      <trkpt lat="46.64252" lon="5.33806">
        <ele>195.8</ele>
        <time>2022-06-25T06:49:21Z</time>
      </trkpt>
      <trkpt lat="46.64252" lon="5.33799">
        <ele>195.8</ele>
        <time>2022-06-25T06:49:22Z</time>
      </trkpt>
      <trkpt lat="46.64252" lon="5.33793">
        <ele>195.8</ele>
        <time>2022-06-25T06:49:23Z</time>
      </trkpt>
      <trkpt lat="46.64252" lon="5.33786">
        <ele>195.8</ele>
        <time>2022-06-25T06:49:24Z</time>
      </trkpt>
      <trkpt lat="46.64253" lon="5.33779">
        <ele>195.8</ele>
        <time>2022-06-25T06:49:25Z</time>
      </trkpt>
      <trkpt lat="46.64253" lon="5.33771">
        <ele>195.8</ele>
        <time>2022-06-25T06:49:26Z</time>
      </trkpt>
      <trkpt lat="46.64253" lon="5.33764">
        <ele>195.8</ele>
        <time>2022-06-25T06:49:27Z</time>
      </trkpt>
      <trkpt lat="46.64254" lon="5.33756">
        <ele>195.8</ele>
        <time>2022-06-25T06:49:28Z</time>
      </trkpt>
      <trkpt lat="46.64255" lon="5.33749">
        <ele>195.8</ele>
        <time>2022-06-25T06:49:29Z</time>
      </trkpt>
      <trkpt lat="46.64255" lon="5.33741">
        <ele>195.8</ele>
        <time>2022-06-25T06:49:30Z</time>
      </trkpt>
      <trkpt lat="46.64256" lon="5.33733">
        <ele>195.8</ele>
        <time>2022-06-25T06:49:31Z</time>
      </trkpt>
      <trkpt lat="46.64257" lon="5.33725">
        <ele>196</ele>
        <time>2022-06-25T06:49:32Z</time>
      </trkpt>
      <trkpt lat="46.64258" lon="5.33717">
        <ele>196</ele>
        <time>2022-06-25T06:49:33Z</time>
      </trkpt>
      <trkpt lat="46.64258" lon="5.33708">
        <ele>196</ele>
        <time>2022-06-25T06:49:34Z</time>
      </trkpt>
      <trkpt lat="46.64259" lon="5.337">
        <ele>196</ele>
        <time>2022-06-25T06:49:35Z</time>
      </trkpt>
      <trkpt lat="46.6426" lon="5.33692">
        <ele>196</ele>
        <time>2022-06-25T06:49:36Z</time>
      </trkpt>
      <trkpt lat="46.64261" lon="5.33683">
        <ele>196</ele>
        <time>2022-06-25T06:49:37Z</time>
      </trkpt>
      <trkpt lat="46.64262" lon="5.33675">
        <ele>196</ele>
        <time>2022-06-25T06:49:38Z</time>
      </trkpt>
      <trkpt lat="46.64263" lon="5.33666">
        <ele>196</ele>
        <time>2022-06-25T06:49:39Z</time>
      </trkpt>
      <trkpt lat="46.64264" lon="5.33658">
        <ele>196</ele>
        <time>2022-06-25T06:49:40Z</time>
      </trkpt>
      <trkpt lat="46.64265" lon="5.33649">
        <ele>196</ele>
        <time>2022-06-25T06:49:41Z</time>
      </trkpt>
      <trkpt lat="46.64266" lon="5.3364">
        <ele>196</ele>
        <time>2022-06-25T06:49:42Z</time>
      </trkpt>
      <trkpt lat="46.64268" lon="5.33632">
        <ele>196</ele>
        <time>2022-06-25T06:49:43Z</time>
      </trkpt>
      <trkpt lat="46.64269" lon="5.33623">
        <ele>196</ele>
        <time>2022-06-25T06:49:44Z</time>
      </trkpt>
      <trkpt lat="46.6427" lon="5.33615">
        <ele>196</ele>
        <time>2022-06-25T06:49:45Z</time>
      </trkpt>
      <trkpt lat="46.64272" lon="5.33606">
        <ele>196</ele>
        <time>2022-06-25T06:49:46Z</time>
      </trkpt>
      <trkpt lat="46.64273" lon="5.33598">
        <ele>196</ele>
        <time>2022-06-25T06:49:47Z</time>
      </trkpt>
      <trkpt lat="46.64274" lon="5.33589">
        <ele>196</ele>
        <time>2022-06-25T06:49:48Z</time>
      </trkpt>
      <trkpt lat="46.64276" lon="5.3358">
        <ele>196.2</ele>
        <time>2022-06-25T06:49:49Z</time>
      </trkpt>
      <trkpt lat="46.64277" lon="5.33572">
        <ele>196.2</ele>
        <time>2022-06-25T06:49:50Z</time>
      </trkpt>
      <trkpt lat="46.64278" lon="5.33563">
        <ele>196.2</ele>
        <time>2022-06-25T06:49:51Z</time>
      </trkpt>
      <trkpt lat="46.6428" lon="5.33555">
        <ele>196.2</ele>
        <time>2022-06-25T06:49:52Z</time>
      </trkpt>
      <trkpt lat="46.64281" lon="5.33546">
        <ele>196.2</ele>
        <time>2022-06-25T06:49:53Z</time>
      </trkpt>
      <trkpt lat="46.64283" lon="5.33537">
        <ele>196.2</ele>
        <time>2022-06-25T06:49:54Z</time>
      </trkpt>
      <trkpt lat="46.64284" lon="5.33529">
        <ele>196.2</ele>
        <time>2022-06-25T06:49:55Z</time>
      </trkpt>
      <trkpt lat="46.64287" lon="5.33511">
        <ele>196.2</ele>
        <time>2022-06-25T06:49:56Z</time>
      </trkpt>
      <trkpt lat="46.64288" lon="5.33502">
        <ele>196.2</ele>
        <time>2022-06-25T06:49:57Z</time>
      </trkpt>
      <trkpt lat="46.6429" lon="5.33494">
        <ele>196.2</ele>
        <time>2022-06-25T06:49:58Z</time>
      </trkpt>
      <trkpt lat="46.64291" lon="5.33485">
        <ele>196.2</ele>
        <time>2022-06-25T06:49:59Z</time>
      </trkpt>
      <trkpt lat="46.64292" lon="5.33476">
        <ele>196.2</ele>
        <time>2022-06-25T06:50:00Z</time>
      </trkpt>
      <trkpt lat="46.64294" lon="5.33468">
        <ele>196.2</ele>
        <time>2022-06-25T06:50:01Z</time>
      </trkpt>
      <trkpt lat="46.64295" lon="5.3346">
        <ele>196.2</ele>
        <time>2022-06-25T06:50:02Z</time>
      </trkpt>
      <trkpt lat="46.64296" lon="5.33452">
        <ele>196.2</ele>
        <time>2022-06-25T06:50:03Z</time>
      </trkpt>
      <trkpt lat="46.64298" lon="5.33444">
        <ele>196.2</ele>
        <time>2022-06-25T06:50:04Z</time>
      </trkpt>
      <trkpt lat="46.64299" lon="5.33436">
        <ele>196.2</ele>
        <time>2022-06-25T06:50:05Z</time>
      </trkpt>
      <trkpt lat="46.643" lon="5.33428">
        <ele>196.2</ele>
        <time>2022-06-25T06:50:06Z</time>
      </trkpt>
      <trkpt lat="46.643" lon="5.33421">
        <ele>196.2</ele>
        <time>2022-06-25T06:50:07Z</time>
      </trkpt>
      <trkpt lat="46.64301" lon="5.33413">
        <ele>196.2</ele>
        <time>2022-06-25T06:50:08Z</time>
      </trkpt>
      <trkpt lat="46.64302" lon="5.33405">
        <ele>196.2</ele>
        <time>2022-06-25T06:50:09Z</time>
      </trkpt>
      <trkpt lat="46.64303" lon="5.33398">
        <ele>196.2</ele>
        <time>2022-06-25T06:50:10Z</time>
      </trkpt>
      <trkpt lat="46.64304" lon="5.3339">
        <ele>196.2</ele>
        <time>2022-06-25T06:50:11Z</time>
      </trkpt>
      <trkpt lat="46.64305" lon="5.33382">
        <ele>196.2</ele>
        <time>2022-06-25T06:50:12Z</time>
      </trkpt>
      <trkpt lat="46.64305" lon="5.33374">
        <ele>196.2</ele>
        <time>2022-06-25T06:50:13Z</time>
      </trkpt>
      <trkpt lat="46.64306" lon="5.33366">
        <ele>196.2</ele>
        <time>2022-06-25T06:50:14Z</time>
      </trkpt>
      <trkpt lat="46.64306" lon="5.33359">
        <ele>196.2</ele>
        <time>2022-06-25T06:50:15Z</time>
      </trkpt>
      <trkpt lat="46.64306" lon="5.33351">
        <ele>196.2</ele>
        <time>2022-06-25T06:50:16Z</time>
      </trkpt>
      <trkpt lat="46.64307" lon="5.33343">
        <ele>196.2</ele>
        <time>2022-06-25T06:50:17Z</time>
      </trkpt>
      <trkpt lat="46.64307" lon="5.33335">
        <ele>196.2</ele>
        <time>2022-06-25T06:50:18Z</time>
      </trkpt>
      <trkpt lat="46.64307" lon="5.33328">
        <ele>196.2</ele>
        <time>2022-06-25T06:50:19Z</time>
      </trkpt>
      <trkpt lat="46.64307" lon="5.3332">
        <ele>196.2</ele>
        <time>2022-06-25T06:50:20Z</time>
      </trkpt>
      <trkpt lat="46.64307" lon="5.33312">
        <ele>196.2</ele>
        <time>2022-06-25T06:50:21Z</time>
      </trkpt>
      <trkpt lat="46.64307" lon="5.33305">
        <ele>196.2</ele>
        <time>2022-06-25T06:50:22Z</time>
      </trkpt>
      <trkpt lat="46.64307" lon="5.33297">
        <ele>196.2</ele>
        <time>2022-06-25T06:50:23Z</time>
      </trkpt>
      <trkpt lat="46.64307" lon="5.33289">
        <ele>196.2</ele>
        <time>2022-06-25T06:50:24Z</time>
      </trkpt>
      <trkpt lat="46.64307" lon="5.33281">
        <ele>196.2</ele>
        <time>2022-06-25T06:50:25Z</time>
      </trkpt>
      <trkpt lat="46.64307" lon="5.33273">
        <ele>196.2</ele>
        <time>2022-06-25T06:50:26Z</time>
      </trkpt>
      <trkpt lat="46.64307" lon="5.33265">
        <ele>196.2</ele>
        <time>2022-06-25T06:50:27Z</time>
      </trkpt>
      <trkpt lat="46.64306" lon="5.33258">
        <ele>196.2</ele>
        <time>2022-06-25T06:50:28Z</time>
      </trkpt>
      <trkpt lat="46.64306" lon="5.3325">
        <ele>196.2</ele>
        <time>2022-06-25T06:50:29Z</time>
      </trkpt>
      <trkpt lat="46.64305" lon="5.33242">
        <ele>196.2</ele>
        <time>2022-06-25T06:50:30Z</time>
      </trkpt>
      <trkpt lat="46.64305" lon="5.33234">
        <ele>196.2</ele>
        <time>2022-06-25T06:50:31Z</time>
      </trkpt>
      <trkpt lat="46.64304" lon="5.33226">
        <ele>196.2</ele>
        <time>2022-06-25T06:50:32Z</time>
      </trkpt>
      <trkpt lat="46.64304" lon="5.33218">
        <ele>196.2</ele>
        <time>2022-06-25T06:50:33Z</time>
      </trkpt>
      <trkpt lat="46.64303" lon="5.3321">
        <ele>196.2</ele>
        <time>2022-06-25T06:50:34Z</time>
      </trkpt>
      <trkpt lat="46.64302" lon="5.33203">
        <ele>196.2</ele>
        <time>2022-06-25T06:50:35Z</time>
      </trkpt>
      <trkpt lat="46.64301" lon="5.33195">
        <ele>196.2</ele>
        <time>2022-06-25T06:50:36Z</time>
      </trkpt>
      <trkpt lat="46.643" lon="5.33187">
        <ele>196.2</ele>
        <time>2022-06-25T06:50:37Z</time>
      </trkpt>
      <trkpt lat="46.64299" lon="5.33179">
        <ele>196.2</ele>
        <time>2022-06-25T06:50:38Z</time>
      </trkpt>
      <trkpt lat="46.64298" lon="5.33171">
        <ele>196.4</ele>
        <time>2022-06-25T06:50:39Z</time>
      </trkpt>
      <trkpt lat="46.64297" lon="5.33162">
        <ele>196.4</ele>
        <time>2022-06-25T06:50:40Z</time>
      </trkpt>
      <trkpt lat="46.64296" lon="5.33154">
        <ele>196.4</ele>
        <time>2022-06-25T06:50:41Z</time>
      </trkpt>
      <trkpt lat="46.64294" lon="5.33146">
        <ele>196.2</ele>
        <time>2022-06-25T06:50:42Z</time>
      </trkpt>
      <trkpt lat="46.64292" lon="5.33138">
        <ele>196.2</ele>
        <time>2022-06-25T06:50:43Z</time>
      </trkpt>
      <trkpt lat="46.64291" lon="5.3313">
        <ele>196.2</ele>
        <time>2022-06-25T06:50:44Z</time>
      </trkpt>
      <trkpt lat="46.64289" lon="5.33122">
        <ele>196.2</ele>
        <time>2022-06-25T06:50:45Z</time>
      </trkpt>
      <trkpt lat="46.64288" lon="5.33114">
        <ele>196.2</ele>
        <time>2022-06-25T06:50:46Z</time>
      </trkpt>
      <trkpt lat="46.64286" lon="5.33106">
        <ele>196.2</ele>
        <time>2022-06-25T06:50:47Z</time>
      </trkpt>
      <trkpt lat="46.64284" lon="5.33098">
        <ele>196.2</ele>
        <time>2022-06-25T06:50:48Z</time>
      </trkpt>
      <trkpt lat="46.64282" lon="5.3309">
        <ele>196</ele>
        <time>2022-06-25T06:50:49Z</time>
      </trkpt>
      <trkpt lat="46.6428" lon="5.33082">
        <ele>196</ele>
        <time>2022-06-25T06:50:50Z</time>
      </trkpt>
      <trkpt lat="46.64279" lon="5.33074">
        <ele>196</ele>
        <time>2022-06-25T06:50:51Z</time>
      </trkpt>
      <trkpt lat="46.64277" lon="5.33065">
        <ele>196</ele>
        <time>2022-06-25T06:50:52Z</time>
      </trkpt>
      <trkpt lat="46.64275" lon="5.33057">
        <ele>196</ele>
        <time>2022-06-25T06:50:53Z</time>
      </trkpt>
      <trkpt lat="46.64273" lon="5.33049">
        <ele>196</ele>
        <time>2022-06-25T06:50:54Z</time>
      </trkpt>
      <trkpt lat="46.64271" lon="5.3304">
        <ele>195.8</ele>
        <time>2022-06-25T06:50:55Z</time>
      </trkpt>
      <trkpt lat="46.64269" lon="5.33032">
        <ele>195.8</ele>
        <time>2022-06-25T06:50:56Z</time>
      </trkpt>
      <trkpt lat="46.64267" lon="5.33023">
        <ele>195.8</ele>
        <time>2022-06-25T06:50:57Z</time>
      </trkpt>
      <trkpt lat="46.64265" lon="5.33014">
        <ele>195.8</ele>
        <time>2022-06-25T06:50:58Z</time>
      </trkpt>
      <trkpt lat="46.64263" lon="5.33006">
        <ele>195.8</ele>
        <time>2022-06-25T06:50:59Z</time>
      </trkpt>
      <trkpt lat="46.64261" lon="5.32997">
        <ele>195.8</ele>
        <time>2022-06-25T06:51:00Z</time>
      </trkpt>
      <trkpt lat="46.64259" lon="5.32988">
        <ele>195.8</ele>
        <time>2022-06-25T06:51:01Z</time>
      </trkpt>
      <trkpt lat="46.64258" lon="5.3298">
        <ele>195.8</ele>
        <time>2022-06-25T06:51:02Z</time>
      </trkpt>
      <trkpt lat="46.64256" lon="5.32971">
        <ele>195.6</ele>
        <time>2022-06-25T06:51:03Z</time>
      </trkpt>
      <trkpt lat="46.64253" lon="5.32963">
        <ele>195.6</ele>
        <time>2022-06-25T06:51:04Z</time>
      </trkpt>
      <trkpt lat="46.64251" lon="5.32955">
        <ele>195.6</ele>
        <time>2022-06-25T06:51:05Z</time>
      </trkpt>
      <trkpt lat="46.64249" lon="5.32946">
        <ele>195.6</ele>
        <time>2022-06-25T06:51:06Z</time>
      </trkpt>
      <trkpt lat="46.64247" lon="5.32939">
        <ele>195.6</ele>
        <time>2022-06-25T06:51:07Z</time>
      </trkpt>
      <trkpt lat="46.64245" lon="5.32932">
        <ele>195.4</ele>
        <time>2022-06-25T06:51:08Z</time>
      </trkpt>
      <trkpt lat="46.64245" lon="5.32926">
        <ele>195.4</ele>
        <time>2022-06-25T06:51:09Z</time>
      </trkpt>
      <trkpt lat="46.64244" lon="5.32919">
        <ele>195.4</ele>
        <time>2022-06-25T06:51:10Z</time>
      </trkpt>
      <trkpt lat="46.64243" lon="5.32913">
        <ele>195.4</ele>
        <time>2022-06-25T06:51:11Z</time>
      </trkpt>
      <trkpt lat="46.64242" lon="5.32906">
        <ele>195.4</ele>
        <time>2022-06-25T06:51:12Z</time>
      </trkpt>
      <trkpt lat="46.6424" lon="5.32899">
        <ele>195.4</ele>
        <time>2022-06-25T06:51:13Z</time>
      </trkpt>
      <trkpt lat="46.64239" lon="5.32892">
        <ele>195.4</ele>
        <time>2022-06-25T06:51:14Z</time>
      </trkpt>
      <trkpt lat="46.64237" lon="5.32885">
        <ele>195.4</ele>
        <time>2022-06-25T06:51:15Z</time>
      </trkpt>
      <trkpt lat="46.64236" lon="5.32877">
        <ele>195.2</ele>
        <time>2022-06-25T06:51:16Z</time>
      </trkpt>
      <trkpt lat="46.64234" lon="5.3287">
        <ele>195.2</ele>
        <time>2022-06-25T06:51:17Z</time>
      </trkpt>
      <trkpt lat="46.64233" lon="5.32862">
        <ele>195.2</ele>
        <time>2022-06-25T06:51:18Z</time>
      </trkpt>
      <trkpt lat="46.64232" lon="5.32855">
        <ele>195.2</ele>
        <time>2022-06-25T06:51:19Z</time>
      </trkpt>
      <trkpt lat="46.6423" lon="5.32847">
        <ele>195.2</ele>
        <time>2022-06-25T06:51:20Z</time>
      </trkpt>
      <trkpt lat="46.64229" lon="5.3284">
        <ele>195.2</ele>
        <time>2022-06-25T06:51:21Z</time>
      </trkpt>
      <trkpt lat="46.64228" lon="5.32832">
        <ele>195.2</ele>
        <time>2022-06-25T06:51:22Z</time>
      </trkpt>
      <trkpt lat="46.64227" lon="5.32824">
        <ele>195.2</ele>
        <time>2022-06-25T06:51:23Z</time>
      </trkpt>
      <trkpt lat="46.64226" lon="5.32817">
        <ele>195.2</ele>
        <time>2022-06-25T06:51:24Z</time>
      </trkpt>
      <trkpt lat="46.64225" lon="5.3281">
        <ele>195.2</ele>
        <time>2022-06-25T06:51:25Z</time>
      </trkpt>
      <trkpt lat="46.64225" lon="5.32803">
        <ele>195.2</ele>
        <time>2022-06-25T06:51:26Z</time>
      </trkpt>
      <trkpt lat="46.64225" lon="5.32796">
        <ele>195.2</ele>
        <time>2022-06-25T06:51:27Z</time>
      </trkpt>
      <trkpt lat="46.64224" lon="5.32789">
        <ele>195.2</ele>
        <time>2022-06-25T06:51:28Z</time>
      </trkpt>
      <trkpt lat="46.64223" lon="5.32783">
        <ele>195.2</ele>
        <time>2022-06-25T06:51:29Z</time>
      </trkpt>
      <trkpt lat="46.64223" lon="5.32777">
        <ele>195.2</ele>
        <time>2022-06-25T06:51:30Z</time>
      </trkpt>
      <trkpt lat="46.64222" lon="5.32771">
        <ele>195.2</ele>
        <time>2022-06-25T06:51:31Z</time>
      </trkpt>
      <trkpt lat="46.64221" lon="5.32764">
        <ele>195.2</ele>
        <time>2022-06-25T06:51:32Z</time>
      </trkpt>
      <trkpt lat="46.64221" lon="5.32758">
        <ele>195.2</ele>
        <time>2022-06-25T06:51:33Z</time>
      </trkpt>
      <trkpt lat="46.64221" lon="5.32751">
        <ele>195.4</ele>
        <time>2022-06-25T06:51:34Z</time>
      </trkpt>
      <trkpt lat="46.6422" lon="5.32744">
        <ele>195.4</ele>
        <time>2022-06-25T06:51:35Z</time>
      </trkpt>
      <trkpt lat="46.6422" lon="5.32738">
        <ele>195.4</ele>
        <time>2022-06-25T06:51:36Z</time>
      </trkpt>
      <trkpt lat="46.6422" lon="5.32731">
        <ele>195.4</ele>
        <time>2022-06-25T06:51:37Z</time>
      </trkpt>
      <trkpt lat="46.6422" lon="5.32724">
        <ele>195.4</ele>
        <time>2022-06-25T06:51:38Z</time>
      </trkpt>
      <trkpt lat="46.64219" lon="5.32717">
        <ele>195.4</ele>
        <time>2022-06-25T06:51:39Z</time>
      </trkpt>
      <trkpt lat="46.64218" lon="5.3271">
        <ele>195.4</ele>
        <time>2022-06-25T06:51:40Z</time>
      </trkpt>
      <trkpt lat="46.64217" lon="5.32704">
        <ele>195.4</ele>
        <time>2022-06-25T06:51:41Z</time>
      </trkpt>
      <trkpt lat="46.64217" lon="5.32697">
        <ele>195.4</ele>
        <time>2022-06-25T06:51:42Z</time>
      </trkpt>
      <trkpt lat="46.64216" lon="5.32691">
        <ele>195.6</ele>
        <time>2022-06-25T06:51:43Z</time>
      </trkpt>
      <trkpt lat="46.64216" lon="5.32686">
        <ele>195.6</ele>
        <time>2022-06-25T06:51:44Z</time>
      </trkpt>
      <trkpt lat="46.64216" lon="5.32682">
        <ele>195.6</ele>
        <time>2022-06-25T06:51:45Z</time>
      </trkpt>
      <trkpt lat="46.64215" lon="5.32679">
        <ele>195.6</ele>
        <time>2022-06-25T06:51:46Z</time>
      </trkpt>
      <trkpt lat="46.64215" lon="5.32675">
        <ele>195.8</ele>
        <time>2022-06-25T06:51:47Z</time>
      </trkpt>
      <trkpt lat="46.64215" lon="5.32671">
        <ele>195.8</ele>
        <time>2022-06-25T06:51:48Z</time>
      </trkpt>
      <trkpt lat="46.64214" lon="5.32667">
        <ele>195.8</ele>
        <time>2022-06-25T06:51:49Z</time>
      </trkpt>
      <trkpt lat="46.64214" lon="5.32662">
        <ele>195.8</ele>
        <time>2022-06-25T06:51:50Z</time>
      </trkpt>
      <trkpt lat="46.64213" lon="5.32656">
        <ele>195.8</ele>
        <time>2022-06-25T06:51:51Z</time>
      </trkpt>
      <trkpt lat="46.64212" lon="5.32649">
        <ele>195.8</ele>
        <time>2022-06-25T06:51:52Z</time>
      </trkpt>
      <trkpt lat="46.64212" lon="5.32641">
        <ele>195.8</ele>
        <time>2022-06-25T06:51:53Z</time>
      </trkpt>
      <trkpt lat="46.64211" lon="5.32633">
        <ele>195.8</ele>
        <time>2022-06-25T06:51:54Z</time>
      </trkpt>
      <trkpt lat="46.6421" lon="5.32625">
        <ele>195.8</ele>
        <time>2022-06-25T06:51:55Z</time>
      </trkpt>
      <trkpt lat="46.6421" lon="5.32617">
        <ele>195.8</ele>
        <time>2022-06-25T06:51:56Z</time>
      </trkpt>
      <trkpt lat="46.64209" lon="5.32608">
        <ele>195.8</ele>
        <time>2022-06-25T06:51:57Z</time>
      </trkpt>
      <trkpt lat="46.64208" lon="5.32599">
        <ele>195.8</ele>
        <time>2022-06-25T06:51:58Z</time>
      </trkpt>
      <trkpt lat="46.64208" lon="5.32591">
        <ele>195.8</ele>
        <time>2022-06-25T06:51:59Z</time>
      </trkpt>
      <trkpt lat="46.64207" lon="5.32582">
        <ele>195.8</ele>
        <time>2022-06-25T06:52:00Z</time>
      </trkpt>
      <trkpt lat="46.64207" lon="5.32573">
        <ele>195.8</ele>
        <time>2022-06-25T06:52:01Z</time>
      </trkpt>
      <trkpt lat="46.64206" lon="5.32564">
        <ele>195.8</ele>
        <time>2022-06-25T06:52:02Z</time>
      </trkpt>
      <trkpt lat="46.64206" lon="5.32555">
        <ele>195.8</ele>
        <time>2022-06-25T06:52:03Z</time>
      </trkpt>
      <trkpt lat="46.64205" lon="5.32546">
        <ele>195.8</ele>
        <time>2022-06-25T06:52:04Z</time>
      </trkpt>
      <trkpt lat="46.64204" lon="5.32537">
        <ele>195.8</ele>
        <time>2022-06-25T06:52:05Z</time>
      </trkpt>
      <trkpt lat="46.64203" lon="5.32528">
        <ele>195.8</ele>
        <time>2022-06-25T06:52:06Z</time>
      </trkpt>
      <trkpt lat="46.64203" lon="5.32518">
        <ele>195.6</ele>
        <time>2022-06-25T06:52:07Z</time>
      </trkpt>
      <trkpt lat="46.64202" lon="5.32509">
        <ele>195.6</ele>
        <time>2022-06-25T06:52:08Z</time>
      </trkpt>
      <trkpt lat="46.64201" lon="5.325">
        <ele>195.6</ele>
        <time>2022-06-25T06:52:09Z</time>
      </trkpt>
      <trkpt lat="46.64201" lon="5.3249">
        <ele>195.6</ele>
        <time>2022-06-25T06:52:10Z</time>
      </trkpt>
      <trkpt lat="46.642" lon="5.32481">
        <ele>195.6</ele>
        <time>2022-06-25T06:52:11Z</time>
      </trkpt>
      <trkpt lat="46.642" lon="5.32472">
        <ele>195.6</ele>
        <time>2022-06-25T06:52:12Z</time>
      </trkpt>
      <trkpt lat="46.64199" lon="5.32462">
        <ele>195.6</ele>
        <time>2022-06-25T06:52:13Z</time>
      </trkpt>
      <trkpt lat="46.64198" lon="5.32453">
        <ele>195.6</ele>
        <time>2022-06-25T06:52:14Z</time>
      </trkpt>
      <trkpt lat="46.64198" lon="5.32444">
        <ele>195.6</ele>
        <time>2022-06-25T06:52:15Z</time>
      </trkpt>
      <trkpt lat="46.64197" lon="5.32434">
        <ele>195.6</ele>
        <time>2022-06-25T06:52:16Z</time>
      </trkpt>
      <trkpt lat="46.64196" lon="5.32425">
        <ele>195.6</ele>
        <time>2022-06-25T06:52:17Z</time>
      </trkpt>
      <trkpt lat="46.64196" lon="5.32416">
        <ele>195.6</ele>
        <time>2022-06-25T06:52:18Z</time>
      </trkpt>
      <trkpt lat="46.64195" lon="5.32406">
        <ele>195.6</ele>
        <time>2022-06-25T06:52:19Z</time>
      </trkpt>
      <trkpt lat="46.64194" lon="5.32397">
        <ele>195.6</ele>
        <time>2022-06-25T06:52:20Z</time>
      </trkpt>
      <trkpt lat="46.64194" lon="5.32388">
        <ele>195.6</ele>
        <time>2022-06-25T06:52:21Z</time>
      </trkpt>
      <trkpt lat="46.64193" lon="5.32378">
        <ele>195.6</ele>
        <time>2022-06-25T06:52:22Z</time>
      </trkpt>
      <trkpt lat="46.64192" lon="5.32369">
        <ele>195.6</ele>
        <time>2022-06-25T06:52:23Z</time>
      </trkpt>
      <trkpt lat="46.64192" lon="5.3236">
        <ele>195.6</ele>
        <time>2022-06-25T06:52:24Z</time>
      </trkpt>
      <trkpt lat="46.64191" lon="5.32351">
        <ele>195.6</ele>
        <time>2022-06-25T06:52:25Z</time>
      </trkpt>
      <trkpt lat="46.6419" lon="5.32341">
        <ele>195.4</ele>
        <time>2022-06-25T06:52:26Z</time>
      </trkpt>
      <trkpt lat="46.64189" lon="5.32332">
        <ele>195.4</ele>
        <time>2022-06-25T06:52:27Z</time>
      </trkpt>
      <trkpt lat="46.64189" lon="5.32323">
        <ele>195.4</ele>
        <time>2022-06-25T06:52:28Z</time>
      </trkpt>
      <trkpt lat="46.64188" lon="5.32314">
        <ele>195.4</ele>
        <time>2022-06-25T06:52:29Z</time>
      </trkpt>
      <trkpt lat="46.64187" lon="5.32305">
        <ele>195.4</ele>
        <time>2022-06-25T06:52:30Z</time>
      </trkpt>
      <trkpt lat="46.64186" lon="5.32296">
        <ele>195.4</ele>
        <time>2022-06-25T06:52:31Z</time>
      </trkpt>
      <trkpt lat="46.64184" lon="5.32287">
        <ele>195.4</ele>
        <time>2022-06-25T06:52:32Z</time>
      </trkpt>
      <trkpt lat="46.64183" lon="5.32277">
        <ele>195.4</ele>
        <time>2022-06-25T06:52:33Z</time>
      </trkpt>
      <trkpt lat="46.64181" lon="5.32268">
        <ele>195.4</ele>
        <time>2022-06-25T06:52:34Z</time>
      </trkpt>
      <trkpt lat="46.6418" lon="5.32259">
        <ele>195.4</ele>
        <time>2022-06-25T06:52:35Z</time>
      </trkpt>
      <trkpt lat="46.64178" lon="5.32251">
        <ele>195.6</ele>
        <time>2022-06-25T06:52:36Z</time>
      </trkpt>
      <trkpt lat="46.64175" lon="5.32242">
        <ele>195.6</ele>
        <time>2022-06-25T06:52:37Z</time>
      </trkpt>
      <trkpt lat="46.64173" lon="5.32233">
        <ele>195.6</ele>
        <time>2022-06-25T06:52:38Z</time>
      </trkpt>
      <trkpt lat="46.64171" lon="5.32224">
        <ele>195.6</ele>
        <time>2022-06-25T06:52:39Z</time>
      </trkpt>
      <trkpt lat="46.64169" lon="5.32215">
        <ele>195.6</ele>
        <time>2022-06-25T06:52:40Z</time>
      </trkpt>
      <trkpt lat="46.64167" lon="5.32207">
        <ele>195.6</ele>
        <time>2022-06-25T06:52:41Z</time>
      </trkpt>
      <trkpt lat="46.64164" lon="5.32199">
        <ele>195.6</ele>
        <time>2022-06-25T06:52:42Z</time>
      </trkpt>
      <trkpt lat="46.64162" lon="5.32191">
        <ele>195.6</ele>
        <time>2022-06-25T06:52:43Z</time>
      </trkpt>
      <trkpt lat="46.64159" lon="5.32182">
        <ele>195.6</ele>
        <time>2022-06-25T06:52:44Z</time>
      </trkpt>
      <trkpt lat="46.64157" lon="5.32174">
        <ele>195.6</ele>
        <time>2022-06-25T06:52:45Z</time>
      </trkpt>
      <trkpt lat="46.64154" lon="5.32166">
        <ele>196</ele>
        <time>2022-06-25T06:52:46Z</time>
      </trkpt>
      <trkpt lat="46.64152" lon="5.32158">
        <ele>196</ele>
        <time>2022-06-25T06:52:47Z</time>
      </trkpt>
      <trkpt lat="46.64149" lon="5.3215">
        <ele>196.2</ele>
        <time>2022-06-25T06:52:48Z</time>
      </trkpt>
      <trkpt lat="46.64146" lon="5.32142">
        <ele>196.2</ele>
        <time>2022-06-25T06:52:49Z</time>
      </trkpt>
      <trkpt lat="46.64143" lon="5.32134">
        <ele>196.2</ele>
        <time>2022-06-25T06:52:50Z</time>
      </trkpt>
      <trkpt lat="46.6414" lon="5.32126">
        <ele>196.2</ele>
        <time>2022-06-25T06:52:51Z</time>
      </trkpt>
      <trkpt lat="46.64136" lon="5.32119">
        <ele>196.4</ele>
        <time>2022-06-25T06:52:52Z</time>
      </trkpt>
      <trkpt lat="46.64133" lon="5.32111">
        <ele>196.4</ele>
        <time>2022-06-25T06:52:53Z</time>
      </trkpt>
      <trkpt lat="46.64129" lon="5.32104">
        <ele>196.4</ele>
        <time>2022-06-25T06:52:54Z</time>
      </trkpt>
      <trkpt lat="46.64126" lon="5.32097">
        <ele>196.6</ele>
        <time>2022-06-25T06:52:55Z</time>
      </trkpt>
      <trkpt lat="46.64122" lon="5.3209">
        <ele>196.6</ele>
        <time>2022-06-25T06:52:56Z</time>
      </trkpt>
      <trkpt lat="46.64119" lon="5.32083">
        <ele>196.6</ele>
        <time>2022-06-25T06:52:57Z</time>
      </trkpt>
      <trkpt lat="46.64115" lon="5.32076">
        <ele>196.6</ele>
        <time>2022-06-25T06:52:58Z</time>
      </trkpt>
      <trkpt lat="46.64111" lon="5.32069">
        <ele>196.6</ele>
        <time>2022-06-25T06:52:59Z</time>
      </trkpt>
      <trkpt lat="46.64106" lon="5.32062">
        <ele>196.6</ele>
        <time>2022-06-25T06:53:00Z</time>
      </trkpt>
      <trkpt lat="46.64102" lon="5.32055">
        <ele>196.6</ele>
        <time>2022-06-25T06:53:01Z</time>
      </trkpt>
      <trkpt lat="46.64098" lon="5.32048">
        <ele>196.6</ele>
        <time>2022-06-25T06:53:02Z</time>
      </trkpt>
      <trkpt lat="46.64093" lon="5.32042">
        <ele>196.6</ele>
        <time>2022-06-25T06:53:03Z</time>
      </trkpt>
      <trkpt lat="46.64088" lon="5.32035">
        <ele>196.6</ele>
        <time>2022-06-25T06:53:04Z</time>
      </trkpt>
      <trkpt lat="46.64083" lon="5.32028">
        <ele>196.6</ele>
        <time>2022-06-25T06:53:05Z</time>
      </trkpt>
      <trkpt lat="46.64078" lon="5.32021">
        <ele>196.6</ele>
        <time>2022-06-25T06:53:06Z</time>
      </trkpt>
      <trkpt lat="46.64073" lon="5.32014">
        <ele>196.6</ele>
        <time>2022-06-25T06:53:07Z</time>
      </trkpt>
      <trkpt lat="46.64068" lon="5.32007">
        <ele>196.4</ele>
        <time>2022-06-25T06:53:08Z</time>
      </trkpt>
      <trkpt lat="46.64063" lon="5.32001">
        <ele>196.4</ele>
        <time>2022-06-25T06:53:09Z</time>
      </trkpt>
      <trkpt lat="46.64058" lon="5.31994">
        <ele>196.4</ele>
        <time>2022-06-25T06:53:10Z</time>
      </trkpt>
      <trkpt lat="46.64052" lon="5.31988">
        <ele>196.4</ele>
        <time>2022-06-25T06:53:11Z</time>
      </trkpt>
      <trkpt lat="46.64047" lon="5.31982">
        <ele>196.4</ele>
        <time>2022-06-25T06:53:12Z</time>
      </trkpt>
      <trkpt lat="46.64041" lon="5.31976">
        <ele>196.4</ele>
        <time>2022-06-25T06:53:13Z</time>
      </trkpt>
      <trkpt lat="46.64035" lon="5.3197">
        <ele>196.4</ele>
        <time>2022-06-25T06:53:14Z</time>
      </trkpt>
      <trkpt lat="46.64029" lon="5.31965">
        <ele>196.4</ele>
        <time>2022-06-25T06:53:15Z</time>
      </trkpt>
      <trkpt lat="46.64023" lon="5.3196">
        <ele>196.4</ele>
        <time>2022-06-25T06:53:16Z</time>
      </trkpt>
      <trkpt lat="46.64017" lon="5.31954">
        <ele>196.4</ele>
        <time>2022-06-25T06:53:17Z</time>
      </trkpt>
      <trkpt lat="46.64011" lon="5.31949">
        <ele>196.4</ele>
        <time>2022-06-25T06:53:18Z</time>
      </trkpt>
      <trkpt lat="46.64005" lon="5.31943">
        <ele>196.2</ele>
        <time>2022-06-25T06:53:19Z</time>
      </trkpt>
      <trkpt lat="46.63999" lon="5.31938">
        <ele>196.2</ele>
        <time>2022-06-25T06:53:20Z</time>
      </trkpt>
      <trkpt lat="46.63993" lon="5.31932">
        <ele>196.2</ele>
        <time>2022-06-25T06:53:21Z</time>
      </trkpt>
      <trkpt lat="46.63987" lon="5.31926">
        <ele>196.2</ele>
        <time>2022-06-25T06:53:22Z</time>
      </trkpt>
      <trkpt lat="46.6398" lon="5.31921">
        <ele>196.2</ele>
        <time>2022-06-25T06:53:23Z</time>
      </trkpt>
      <trkpt lat="46.63974" lon="5.31915">
        <ele>196</ele>
        <time>2022-06-25T06:53:24Z</time>
      </trkpt>
      <trkpt lat="46.63968" lon="5.31909">
        <ele>196</ele>
        <time>2022-06-25T06:53:25Z</time>
      </trkpt>
      <trkpt lat="46.63962" lon="5.31903">
        <ele>196</ele>
        <time>2022-06-25T06:53:26Z</time>
      </trkpt>
      <trkpt lat="46.63956" lon="5.31898">
        <ele>195.6</ele>
        <time>2022-06-25T06:53:27Z</time>
      </trkpt>
      <trkpt lat="46.63949" lon="5.31892">
        <ele>195.6</ele>
        <time>2022-06-25T06:53:28Z</time>
      </trkpt>
      <trkpt lat="46.63943" lon="5.31886">
        <ele>195.6</ele>
        <time>2022-06-25T06:53:29Z</time>
      </trkpt>
      <trkpt lat="46.63937" lon="5.31879">
        <ele>195.6</ele>
        <time>2022-06-25T06:53:30Z</time>
      </trkpt>
      <trkpt lat="46.63931" lon="5.31873">
        <ele>195.4</ele>
        <time>2022-06-25T06:53:31Z</time>
      </trkpt>
      <trkpt lat="46.63926" lon="5.31867">
        <ele>195.4</ele>
        <time>2022-06-25T06:53:32Z</time>
      </trkpt>
      <trkpt lat="46.6392" lon="5.3186">
        <ele>195.4</ele>
        <time>2022-06-25T06:53:33Z</time>
      </trkpt>
      <trkpt lat="46.63914" lon="5.31853">
        <ele>195.4</ele>
        <time>2022-06-25T06:53:34Z</time>
      </trkpt>
      <trkpt lat="46.63909" lon="5.31846">
        <ele>195.2</ele>
        <time>2022-06-25T06:53:35Z</time>
      </trkpt>
      <trkpt lat="46.63903" lon="5.31839">
        <ele>195.2</ele>
        <time>2022-06-25T06:53:36Z</time>
      </trkpt>
      <trkpt lat="46.63898" lon="5.31831">
        <ele>195.2</ele>
        <time>2022-06-25T06:53:37Z</time>
      </trkpt>
      <trkpt lat="46.63893" lon="5.31824">
        <ele>195</ele>
        <time>2022-06-25T06:53:38Z</time>
      </trkpt>
      <trkpt lat="46.63888" lon="5.31816">
        <ele>195</ele>
        <time>2022-06-25T06:53:39Z</time>
      </trkpt>
      <trkpt lat="46.63883" lon="5.31808">
        <ele>195</ele>
        <time>2022-06-25T06:53:40Z</time>
      </trkpt>
      <trkpt lat="46.63878" lon="5.318">
        <ele>195</ele>
        <time>2022-06-25T06:53:41Z</time>
      </trkpt>
      <trkpt lat="46.63873" lon="5.31792">
        <ele>195</ele>
        <time>2022-06-25T06:53:42Z</time>
      </trkpt>
      <trkpt lat="46.63868" lon="5.31784">
        <ele>195</ele>
        <time>2022-06-25T06:53:43Z</time>
      </trkpt>
      <trkpt lat="46.63863" lon="5.31776">
        <ele>195</ele>
        <time>2022-06-25T06:53:44Z</time>
      </trkpt>
      <trkpt lat="46.63859" lon="5.31768">
        <ele>195</ele>
        <time>2022-06-25T06:53:45Z</time>
      </trkpt>
      <trkpt lat="46.63854" lon="5.31759">
        <ele>195</ele>
        <time>2022-06-25T06:53:46Z</time>
      </trkpt>
      <trkpt lat="46.6385" lon="5.3175">
        <ele>195</ele>
        <time>2022-06-25T06:53:47Z</time>
      </trkpt>
      <trkpt lat="46.63845" lon="5.31742">
        <ele>195</ele>
        <time>2022-06-25T06:53:48Z</time>
      </trkpt>
      <trkpt lat="46.63841" lon="5.31733">
        <ele>194.8</ele>
        <time>2022-06-25T06:53:49Z</time>
      </trkpt>
      <trkpt lat="46.63837" lon="5.31725">
        <ele>194.8</ele>
        <time>2022-06-25T06:53:50Z</time>
      </trkpt>
      <trkpt lat="46.63833" lon="5.31716">
        <ele>194.8</ele>
        <time>2022-06-25T06:53:51Z</time>
      </trkpt>
      <trkpt lat="46.6383" lon="5.31708">
        <ele>194.8</ele>
        <time>2022-06-25T06:53:52Z</time>
      </trkpt>
      <trkpt lat="46.63826" lon="5.31699">
        <ele>194.8</ele>
        <time>2022-06-25T06:53:53Z</time>
      </trkpt>
      <trkpt lat="46.63822" lon="5.31691">
        <ele>194.8</ele>
        <time>2022-06-25T06:53:54Z</time>
      </trkpt>
      <trkpt lat="46.63819" lon="5.31682">
        <ele>194.8</ele>
        <time>2022-06-25T06:53:55Z</time>
      </trkpt>
      <trkpt lat="46.63815" lon="5.31674">
        <ele>194.8</ele>
        <time>2022-06-25T06:53:56Z</time>
      </trkpt>
      <trkpt lat="46.63812" lon="5.31665">
        <ele>194.8</ele>
        <time>2022-06-25T06:53:57Z</time>
      </trkpt>
      <trkpt lat="46.63808" lon="5.31657">
        <ele>194.8</ele>
        <time>2022-06-25T06:53:58Z</time>
      </trkpt>
      <trkpt lat="46.63805" lon="5.31648">
        <ele>194.8</ele>
        <time>2022-06-25T06:53:59Z</time>
      </trkpt>
      <trkpt lat="46.63801" lon="5.3164">
        <ele>194.4</ele>
        <time>2022-06-25T06:54:00Z</time>
      </trkpt>
      <trkpt lat="46.63797" lon="5.31631">
        <ele>194.4</ele>
        <time>2022-06-25T06:54:01Z</time>
      </trkpt>
      <trkpt lat="46.63794" lon="5.31623">
        <ele>194.4</ele>
        <time>2022-06-25T06:54:02Z</time>
      </trkpt>
      <trkpt lat="46.6379" lon="5.31615">
        <ele>194.4</ele>
        <time>2022-06-25T06:54:03Z</time>
      </trkpt>
      <trkpt lat="46.63787" lon="5.31607">
        <ele>194.4</ele>
        <time>2022-06-25T06:54:04Z</time>
      </trkpt>
      <trkpt lat="46.63784" lon="5.31598">
        <ele>194.4</ele>
        <time>2022-06-25T06:54:05Z</time>
      </trkpt>
      <trkpt lat="46.63781" lon="5.3159">
        <ele>194.4</ele>
        <time>2022-06-25T06:54:06Z</time>
      </trkpt>
      <trkpt lat="46.63778" lon="5.31582">
        <ele>194.4</ele>
        <time>2022-06-25T06:54:07Z</time>
      </trkpt>
      <trkpt lat="46.63775" lon="5.31574">
        <ele>194.4</ele>
        <time>2022-06-25T06:54:08Z</time>
      </trkpt>
      <trkpt lat="46.63771" lon="5.31565">
        <ele>194.4</ele>
        <time>2022-06-25T06:54:09Z</time>
      </trkpt>
      <trkpt lat="46.63768" lon="5.31557">
        <ele>194.4</ele>
        <time>2022-06-25T06:54:10Z</time>
      </trkpt>
      <trkpt lat="46.63765" lon="5.31549">
        <ele>194.4</ele>
        <time>2022-06-25T06:54:11Z</time>
      </trkpt>
      <trkpt lat="46.63762" lon="5.31541">
        <ele>194.4</ele>
        <time>2022-06-25T06:54:12Z</time>
      </trkpt>
      <trkpt lat="46.63758" lon="5.31533">
        <ele>194.4</ele>
        <time>2022-06-25T06:54:13Z</time>
      </trkpt>
      <trkpt lat="46.63755" lon="5.31525">
        <ele>194.4</ele>
        <time>2022-06-25T06:54:14Z</time>
      </trkpt>
      <trkpt lat="46.63752" lon="5.31517">
        <ele>194.4</ele>
        <time>2022-06-25T06:54:15Z</time>
      </trkpt>
      <trkpt lat="46.63749" lon="5.3151">
        <ele>194.4</ele>
        <time>2022-06-25T06:54:16Z</time>
      </trkpt>
      <trkpt lat="46.63746" lon="5.31502">
        <ele>194.4</ele>
        <time>2022-06-25T06:54:17Z</time>
      </trkpt>
      <trkpt lat="46.63743" lon="5.31494">
        <ele>194.4</ele>
        <time>2022-06-25T06:54:18Z</time>
      </trkpt>
      <trkpt lat="46.6374" lon="5.31487">
        <ele>194.4</ele>
        <time>2022-06-25T06:54:19Z</time>
      </trkpt>
      <trkpt lat="46.63737" lon="5.3148">
        <ele>194.4</ele>
        <time>2022-06-25T06:54:20Z</time>
      </trkpt>
      <trkpt lat="46.63734" lon="5.31472">
        <ele>194.4</ele>
        <time>2022-06-25T06:54:21Z</time>
      </trkpt>
      <trkpt lat="46.63731" lon="5.31465">
        <ele>194.4</ele>
        <time>2022-06-25T06:54:22Z</time>
      </trkpt>
      <trkpt lat="46.63728" lon="5.31457">
        <ele>194.4</ele>
        <time>2022-06-25T06:54:23Z</time>
      </trkpt>
      <trkpt lat="46.63725" lon="5.3145">
        <ele>194.4</ele>
        <time>2022-06-25T06:54:24Z</time>
      </trkpt>
      <trkpt lat="46.63722" lon="5.31442">
        <ele>194.4</ele>
        <time>2022-06-25T06:54:25Z</time>
      </trkpt>
      <trkpt lat="46.63718" lon="5.31435">
        <ele>194.4</ele>
        <time>2022-06-25T06:54:26Z</time>
      </trkpt>
      <trkpt lat="46.63715" lon="5.31429">
        <ele>194.4</ele>
        <time>2022-06-25T06:54:27Z</time>
      </trkpt>
      <trkpt lat="46.63713" lon="5.31422">
        <ele>194.4</ele>
        <time>2022-06-25T06:54:28Z</time>
      </trkpt>
      <trkpt lat="46.63711" lon="5.31416">
        <ele>194.4</ele>
        <time>2022-06-25T06:54:29Z</time>
      </trkpt>
      <trkpt lat="46.63709" lon="5.3141">
        <ele>194.4</ele>
        <time>2022-06-25T06:54:30Z</time>
      </trkpt>
      <trkpt lat="46.63707" lon="5.31404">
        <ele>194.4</ele>
        <time>2022-06-25T06:54:31Z</time>
      </trkpt>
      <trkpt lat="46.63705" lon="5.31398">
        <ele>194.4</ele>
        <time>2022-06-25T06:54:32Z</time>
      </trkpt>
      <trkpt lat="46.63702" lon="5.31392">
        <ele>194.4</ele>
        <time>2022-06-25T06:54:33Z</time>
      </trkpt>
      <trkpt lat="46.63699" lon="5.31385">
        <ele>194.8</ele>
        <time>2022-06-25T06:54:34Z</time>
      </trkpt>
      <trkpt lat="46.63696" lon="5.31378">
        <ele>194.8</ele>
        <time>2022-06-25T06:54:35Z</time>
      </trkpt>
      <trkpt lat="46.63694" lon="5.31371">
        <ele>194.8</ele>
        <time>2022-06-25T06:54:36Z</time>
      </trkpt>
      <trkpt lat="46.63691" lon="5.31364">
        <ele>195</ele>
        <time>2022-06-25T06:54:37Z</time>
      </trkpt>
      <trkpt lat="46.6369" lon="5.31356">
        <ele>195</ele>
        <time>2022-06-25T06:54:38Z</time>
      </trkpt>
      <trkpt lat="46.63687" lon="5.31348">
        <ele>195</ele>
        <time>2022-06-25T06:54:39Z</time>
      </trkpt>
      <trkpt lat="46.63685" lon="5.3134">
        <ele>195</ele>
        <time>2022-06-25T06:54:40Z</time>
      </trkpt>
      <trkpt lat="46.63683" lon="5.31332">
        <ele>195</ele>
        <time>2022-06-25T06:54:41Z</time>
      </trkpt>
      <trkpt lat="46.6368" lon="5.31324">
        <ele>195</ele>
        <time>2022-06-25T06:54:42Z</time>
      </trkpt>
      <trkpt lat="46.63678" lon="5.31315">
        <ele>195</ele>
        <time>2022-06-25T06:54:43Z</time>
      </trkpt>
      <trkpt lat="46.63676" lon="5.31307">
        <ele>194.8</ele>
        <time>2022-06-25T06:54:44Z</time>
      </trkpt>
      <trkpt lat="46.63673" lon="5.31298">
        <ele>194.8</ele>
        <time>2022-06-25T06:54:45Z</time>
      </trkpt>
      <trkpt lat="46.63671" lon="5.31289">
        <ele>194.8</ele>
        <time>2022-06-25T06:54:46Z</time>
      </trkpt>
      <trkpt lat="46.63669" lon="5.31279">
        <ele>194.8</ele>
        <time>2022-06-25T06:54:47Z</time>
      </trkpt>
      <trkpt lat="46.63667" lon="5.3127">
        <ele>194.8</ele>
        <time>2022-06-25T06:54:48Z</time>
      </trkpt>
      <trkpt lat="46.63665" lon="5.31261">
        <ele>194.8</ele>
        <time>2022-06-25T06:54:49Z</time>
      </trkpt>
      <trkpt lat="46.63664" lon="5.31252">
        <ele>194.8</ele>
        <time>2022-06-25T06:54:50Z</time>
      </trkpt>
      <trkpt lat="46.63662" lon="5.31242">
        <ele>194.8</ele>
        <time>2022-06-25T06:54:51Z</time>
      </trkpt>
      <trkpt lat="46.6366" lon="5.31233">
        <ele>194.8</ele>
        <time>2022-06-25T06:54:52Z</time>
      </trkpt>
      <trkpt lat="46.63659" lon="5.31224">
        <ele>194.8</ele>
        <time>2022-06-25T06:54:53Z</time>
      </trkpt>
      <trkpt lat="46.63657" lon="5.31215">
        <ele>194.8</ele>
        <time>2022-06-25T06:54:54Z</time>
      </trkpt>
      <trkpt lat="46.63656" lon="5.31206">
        <ele>194.8</ele>
        <time>2022-06-25T06:54:55Z</time>
      </trkpt>
      <trkpt lat="46.63655" lon="5.31196">
        <ele>194.8</ele>
        <time>2022-06-25T06:54:56Z</time>
      </trkpt>
      <trkpt lat="46.63654" lon="5.31187">
        <ele>194.8</ele>
        <time>2022-06-25T06:54:57Z</time>
      </trkpt>
      <trkpt lat="46.63653" lon="5.31178">
        <ele>194.8</ele>
        <time>2022-06-25T06:54:58Z</time>
      </trkpt>
      <trkpt lat="46.63652" lon="5.31169">
        <ele>194.8</ele>
        <time>2022-06-25T06:54:59Z</time>
      </trkpt>
      <trkpt lat="46.6365" lon="5.3116">
        <ele>194.8</ele>
        <time>2022-06-25T06:55:00Z</time>
      </trkpt>
      <trkpt lat="46.63649" lon="5.31151">
        <ele>194.6</ele>
        <time>2022-06-25T06:55:01Z</time>
      </trkpt>
      <trkpt lat="46.63648" lon="5.31143">
        <ele>194.6</ele>
        <time>2022-06-25T06:55:02Z</time>
      </trkpt>
      <trkpt lat="46.63647" lon="5.31134">
        <ele>194.6</ele>
        <time>2022-06-25T06:55:03Z</time>
      </trkpt>
      <trkpt lat="46.63646" lon="5.31125">
        <ele>194.6</ele>
        <time>2022-06-25T06:55:04Z</time>
      </trkpt>
      <trkpt lat="46.63645" lon="5.31116">
        <ele>194.4</ele>
        <time>2022-06-25T06:55:06Z</time>
      </trkpt>
      <trkpt lat="46.63644" lon="5.31107">
        <ele>194.4</ele>
        <time>2022-06-25T06:55:07Z</time>
      </trkpt>
      <trkpt lat="46.63642" lon="5.31098">
        <ele>194.4</ele>
        <time>2022-06-25T06:55:08Z</time>
      </trkpt>
      <trkpt lat="46.63641" lon="5.31089">
        <ele>194.4</ele>
        <time>2022-06-25T06:55:09Z</time>
      </trkpt>
      <trkpt lat="46.6364" lon="5.3108">
        <ele>194.4</ele>
        <time>2022-06-25T06:55:10Z</time>
      </trkpt>
      <trkpt lat="46.63638" lon="5.31071">
        <ele>194.4</ele>
        <time>2022-06-25T06:55:11Z</time>
      </trkpt>
      <trkpt lat="46.63637" lon="5.31062">
        <ele>194.4</ele>
        <time>2022-06-25T06:55:12Z</time>
      </trkpt>
      <trkpt lat="46.63636" lon="5.31053">
        <ele>194.4</ele>
        <time>2022-06-25T06:55:13Z</time>
      </trkpt>
      <trkpt lat="46.63635" lon="5.31044">
        <ele>194.4</ele>
        <time>2022-06-25T06:55:14Z</time>
      </trkpt>
      <trkpt lat="46.63634" lon="5.31035">
        <ele>194.4</ele>
        <time>2022-06-25T06:55:15Z</time>
      </trkpt>
      <trkpt lat="46.63632" lon="5.31026">
        <ele>194.6</ele>
        <time>2022-06-25T06:55:16Z</time>
      </trkpt>
      <trkpt lat="46.63631" lon="5.31017">
        <ele>194.6</ele>
        <time>2022-06-25T06:55:17Z</time>
      </trkpt>
      <trkpt lat="46.6363" lon="5.31008">
        <ele>194.6</ele>
        <time>2022-06-25T06:55:18Z</time>
      </trkpt>
      <trkpt lat="46.63629" lon="5.30999">
        <ele>194.6</ele>
        <time>2022-06-25T06:55:19Z</time>
      </trkpt>
      <trkpt lat="46.63628" lon="5.3099">
        <ele>194.6</ele>
        <time>2022-06-25T06:55:20Z</time>
      </trkpt>
      <trkpt lat="46.63627" lon="5.30982">
        <ele>194.6</ele>
        <time>2022-06-25T06:55:21Z</time>
      </trkpt>
      <trkpt lat="46.63626" lon="5.30974">
        <ele>194.6</ele>
        <time>2022-06-25T06:55:22Z</time>
      </trkpt>
      <trkpt lat="46.63625" lon="5.30965">
        <ele>194.6</ele>
        <time>2022-06-25T06:55:23Z</time>
      </trkpt>
      <trkpt lat="46.63623" lon="5.30956">
        <ele>194.6</ele>
        <time>2022-06-25T06:55:24Z</time>
      </trkpt>
      <trkpt lat="46.63622" lon="5.30948">
        <ele>194.6</ele>
        <time>2022-06-25T06:55:25Z</time>
      </trkpt>
      <trkpt lat="46.63621" lon="5.30939">
        <ele>194.6</ele>
        <time>2022-06-25T06:55:26Z</time>
      </trkpt>
      <trkpt lat="46.6362" lon="5.3093">
        <ele>194.6</ele>
        <time>2022-06-25T06:55:27Z</time>
      </trkpt>
      <trkpt lat="46.63619" lon="5.30921">
        <ele>194.8</ele>
        <time>2022-06-25T06:55:28Z</time>
      </trkpt>
      <trkpt lat="46.63618" lon="5.30912">
        <ele>194.8</ele>
        <time>2022-06-25T06:55:29Z</time>
      </trkpt>
      <trkpt lat="46.63616" lon="5.30903">
        <ele>194.8</ele>
        <time>2022-06-25T06:55:30Z</time>
      </trkpt>
      <trkpt lat="46.63615" lon="5.30893">
        <ele>194.8</ele>
        <time>2022-06-25T06:55:31Z</time>
      </trkpt>
      <trkpt lat="46.63614" lon="5.30884">
        <ele>194.8</ele>
        <time>2022-06-25T06:55:32Z</time>
      </trkpt>
      <trkpt lat="46.63613" lon="5.30875">
        <ele>194.8</ele>
        <time>2022-06-25T06:55:33Z</time>
      </trkpt>
      <trkpt lat="46.63611" lon="5.30866">
        <ele>194.8</ele>
        <time>2022-06-25T06:55:34Z</time>
      </trkpt>
      <trkpt lat="46.6361" lon="5.30856">
        <ele>194.8</ele>
        <time>2022-06-25T06:55:35Z</time>
      </trkpt>
      <trkpt lat="46.63609" lon="5.30847">
        <ele>194.8</ele>
        <time>2022-06-25T06:55:36Z</time>
      </trkpt>
      <trkpt lat="46.63608" lon="5.30838">
        <ele>194.8</ele>
        <time>2022-06-25T06:55:37Z</time>
      </trkpt>
      <trkpt lat="46.63606" lon="5.30829">
        <ele>194.8</ele>
        <time>2022-06-25T06:55:38Z</time>
      </trkpt>
      <trkpt lat="46.63605" lon="5.3082">
        <ele>194.8</ele>
        <time>2022-06-25T06:55:39Z</time>
      </trkpt>
      <trkpt lat="46.63604" lon="5.30811">
        <ele>194.8</ele>
        <time>2022-06-25T06:55:40Z</time>
      </trkpt>
      <trkpt lat="46.63603" lon="5.30802">
        <ele>194.8</ele>
        <time>2022-06-25T06:55:41Z</time>
      </trkpt>
      <trkpt lat="46.63602" lon="5.30793">
        <ele>194.8</ele>
        <time>2022-06-25T06:55:42Z</time>
      </trkpt>
      <trkpt lat="46.636" lon="5.30784">
        <ele>194.8</ele>
        <time>2022-06-25T06:55:43Z</time>
      </trkpt>
      <trkpt lat="46.63599" lon="5.30775">
        <ele>194.8</ele>
        <time>2022-06-25T06:55:44Z</time>
      </trkpt>
      <trkpt lat="46.63598" lon="5.30766">
        <ele>194.8</ele>
        <time>2022-06-25T06:55:45Z</time>
      </trkpt>
      <trkpt lat="46.63597" lon="5.30757">
        <ele>194.8</ele>
        <time>2022-06-25T06:55:46Z</time>
      </trkpt>
      <trkpt lat="46.63596" lon="5.30747">
        <ele>194.8</ele>
        <time>2022-06-25T06:55:47Z</time>
      </trkpt>
      <trkpt lat="46.63595" lon="5.30738">
        <ele>194.8</ele>
        <time>2022-06-25T06:55:48Z</time>
      </trkpt>
      <trkpt lat="46.63594" lon="5.30729">
        <ele>194.8</ele>
        <time>2022-06-25T06:55:49Z</time>
      </trkpt>
      <trkpt lat="46.63594" lon="5.30719">
        <ele>194.6</ele>
        <time>2022-06-25T06:55:50Z</time>
      </trkpt>
      <trkpt lat="46.63593" lon="5.3071">
        <ele>194.6</ele>
        <time>2022-06-25T06:55:51Z</time>
      </trkpt>
      <trkpt lat="46.63593" lon="5.30701">
        <ele>194.6</ele>
        <time>2022-06-25T06:55:52Z</time>
      </trkpt>
      <trkpt lat="46.63592" lon="5.30692">
        <ele>194.6</ele>
        <time>2022-06-25T06:55:53Z</time>
      </trkpt>
      <trkpt lat="46.63591" lon="5.30683">
        <ele>194.6</ele>
        <time>2022-06-25T06:55:54Z</time>
      </trkpt>
      <trkpt lat="46.63591" lon="5.30674">
        <ele>194.6</ele>
        <time>2022-06-25T06:55:55Z</time>
      </trkpt>
      <trkpt lat="46.6359" lon="5.30665">
        <ele>194.6</ele>
        <time>2022-06-25T06:55:56Z</time>
      </trkpt>
      <trkpt lat="46.6359" lon="5.30655">
        <ele>194.6</ele>
        <time>2022-06-25T06:55:57Z</time>
      </trkpt>
      <trkpt lat="46.6359" lon="5.30645">
        <ele>194.6</ele>
        <time>2022-06-25T06:55:58Z</time>
      </trkpt>
      <trkpt lat="46.6359" lon="5.30636">
        <ele>194.6</ele>
        <time>2022-06-25T06:55:59Z</time>
      </trkpt>
      <trkpt lat="46.6359" lon="5.30626">
        <ele>194.6</ele>
        <time>2022-06-25T06:56:00Z</time>
      </trkpt>
      <trkpt lat="46.6359" lon="5.30616">
        <ele>194.6</ele>
        <time>2022-06-25T06:56:01Z</time>
      </trkpt>
      <trkpt lat="46.63591" lon="5.30606">
        <ele>194.6</ele>
        <time>2022-06-25T06:56:02Z</time>
      </trkpt>
      <trkpt lat="46.63591" lon="5.30597">
        <ele>194.6</ele>
        <time>2022-06-25T06:56:03Z</time>
      </trkpt>
      <trkpt lat="46.63592" lon="5.30587">
        <ele>194.6</ele>
        <time>2022-06-25T06:56:04Z</time>
      </trkpt>
      <trkpt lat="46.63593" lon="5.30577">
        <ele>194.6</ele>
        <time>2022-06-25T06:56:05Z</time>
      </trkpt>
      <trkpt lat="46.63594" lon="5.30568">
        <ele>194.6</ele>
        <time>2022-06-25T06:56:06Z</time>
      </trkpt>
      <trkpt lat="46.63595" lon="5.30558">
        <ele>194.6</ele>
        <time>2022-06-25T06:56:07Z</time>
      </trkpt>
      <trkpt lat="46.63596" lon="5.30548">
        <ele>194.6</ele>
        <time>2022-06-25T06:56:08Z</time>
      </trkpt>
      <trkpt lat="46.63597" lon="5.30539">
        <ele>194.4</ele>
        <time>2022-06-25T06:56:09Z</time>
      </trkpt>
      <trkpt lat="46.63598" lon="5.30529">
        <ele>194.4</ele>
        <time>2022-06-25T06:56:10Z</time>
      </trkpt>
      <trkpt lat="46.63599" lon="5.3052">
        <ele>194.4</ele>
        <time>2022-06-25T06:56:11Z</time>
      </trkpt>
      <trkpt lat="46.636" lon="5.30511">
        <ele>194</ele>
        <time>2022-06-25T06:56:12Z</time>
      </trkpt>
      <trkpt lat="46.63602" lon="5.30502">
        <ele>194</ele>
        <time>2022-06-25T06:56:13Z</time>
      </trkpt>
      <trkpt lat="46.63603" lon="5.30493">
        <ele>194</ele>
        <time>2022-06-25T06:56:14Z</time>
      </trkpt>
      <trkpt lat="46.63605" lon="5.30484">
        <ele>193.8</ele>
        <time>2022-06-25T06:56:15Z</time>
      </trkpt>
      <trkpt lat="46.63606" lon="5.30476">
        <ele>193.8</ele>
        <time>2022-06-25T06:56:16Z</time>
      </trkpt>
      <trkpt lat="46.63607" lon="5.30468">
        <ele>193.8</ele>
        <time>2022-06-25T06:56:17Z</time>
      </trkpt>
      <trkpt lat="46.63608" lon="5.30462">
        <ele>193.8</ele>
        <time>2022-06-25T06:56:18Z</time>
      </trkpt>
      <trkpt lat="46.63609" lon="5.30456">
        <ele>193.6</ele>
        <time>2022-06-25T06:56:19Z</time>
      </trkpt>
      <trkpt lat="46.6361" lon="5.30452">
        <ele>193.6</ele>
        <time>2022-06-25T06:56:20Z</time>
      </trkpt>
      <trkpt lat="46.63612" lon="5.30448">
        <ele>193.6</ele>
        <time>2022-06-25T06:56:21Z</time>
      </trkpt>
      <trkpt lat="46.63613" lon="5.30444">
        <ele>193.6</ele>
        <time>2022-06-25T06:56:22Z</time>
      </trkpt>
      <trkpt lat="46.63614" lon="5.30439">
        <ele>193.6</ele>
        <time>2022-06-25T06:56:23Z</time>
      </trkpt>
      <trkpt lat="46.63615" lon="5.30433">
        <ele>193.6</ele>
        <time>2022-06-25T06:56:24Z</time>
      </trkpt>
      <trkpt lat="46.63616" lon="5.30427">
        <ele>193.8</ele>
        <time>2022-06-25T06:56:25Z</time>
      </trkpt>
      <trkpt lat="46.63617" lon="5.30421">
        <ele>193.8</ele>
        <time>2022-06-25T06:56:26Z</time>
      </trkpt>
      <trkpt lat="46.63619" lon="5.30414">
        <ele>193.8</ele>
        <time>2022-06-25T06:56:27Z</time>
      </trkpt>
      <trkpt lat="46.63621" lon="5.30408">
        <ele>193.8</ele>
        <time>2022-06-25T06:56:28Z</time>
      </trkpt>
      <trkpt lat="46.63623" lon="5.30402">
        <ele>193.8</ele>
        <time>2022-06-25T06:56:29Z</time>
      </trkpt>
      <trkpt lat="46.63625" lon="5.30396">
        <ele>193.8</ele>
        <time>2022-06-25T06:56:30Z</time>
      </trkpt>
      <trkpt lat="46.63627" lon="5.3039">
        <ele>193.8</ele>
        <time>2022-06-25T06:56:31Z</time>
      </trkpt>
      <trkpt lat="46.63629" lon="5.30383">
        <ele>193.8</ele>
        <time>2022-06-25T06:56:32Z</time>
      </trkpt>
      <trkpt lat="46.63631" lon="5.30377">
        <ele>193.8</ele>
        <time>2022-06-25T06:56:33Z</time>
      </trkpt>
      <trkpt lat="46.63633" lon="5.3037">
        <ele>193.8</ele>
        <time>2022-06-25T06:56:34Z</time>
      </trkpt>
      <trkpt lat="46.63635" lon="5.30363">
        <ele>193.8</ele>
        <time>2022-06-25T06:56:35Z</time>
      </trkpt>
      <trkpt lat="46.63638" lon="5.30356">
        <ele>193.8</ele>
        <time>2022-06-25T06:56:36Z</time>
      </trkpt>
      <trkpt lat="46.6364" lon="5.30349">
        <ele>193.8</ele>
        <time>2022-06-25T06:56:37Z</time>
      </trkpt>
      <trkpt lat="46.63643" lon="5.30342">
        <ele>193.8</ele>
        <time>2022-06-25T06:56:38Z</time>
      </trkpt>
      <trkpt lat="46.63645" lon="5.30335">
        <ele>193.8</ele>
        <time>2022-06-25T06:56:39Z</time>
      </trkpt>
      <trkpt lat="46.63648" lon="5.30329">
        <ele>193.8</ele>
        <time>2022-06-25T06:56:40Z</time>
      </trkpt>
      <trkpt lat="46.63651" lon="5.30322">
        <ele>193.8</ele>
        <time>2022-06-25T06:56:41Z</time>
      </trkpt>
      <trkpt lat="46.63654" lon="5.30315">
        <ele>193.8</ele>
        <time>2022-06-25T06:56:42Z</time>
      </trkpt>
      <trkpt lat="46.63657" lon="5.30308">
        <ele>193.8</ele>
        <time>2022-06-25T06:56:43Z</time>
      </trkpt>
      <trkpt lat="46.63659" lon="5.30301">
        <ele>193.8</ele>
        <time>2022-06-25T06:56:44Z</time>
      </trkpt>
      <trkpt lat="46.63662" lon="5.30294">
        <ele>193.8</ele>
        <time>2022-06-25T06:56:45Z</time>
      </trkpt>
      <trkpt lat="46.63665" lon="5.30287">
        <ele>193.8</ele>
        <time>2022-06-25T06:56:46Z</time>
      </trkpt>
      <trkpt lat="46.63668" lon="5.30281">
        <ele>193.8</ele>
        <time>2022-06-25T06:56:47Z</time>
      </trkpt>
      <trkpt lat="46.63671" lon="5.30274">
        <ele>193.8</ele>
        <time>2022-06-25T06:56:48Z</time>
      </trkpt>
      <trkpt lat="46.63675" lon="5.30268">
        <ele>193.8</ele>
        <time>2022-06-25T06:56:49Z</time>
      </trkpt>
      <trkpt lat="46.63678" lon="5.30261">
        <ele>193.8</ele>
        <time>2022-06-25T06:56:50Z</time>
      </trkpt>
      <trkpt lat="46.63681" lon="5.30255">
        <ele>193.8</ele>
        <time>2022-06-25T06:56:51Z</time>
      </trkpt>
      <trkpt lat="46.63685" lon="5.30248">
        <ele>193.8</ele>
        <time>2022-06-25T06:56:52Z</time>
      </trkpt>
      <trkpt lat="46.63688" lon="5.30242">
        <ele>193.8</ele>
        <time>2022-06-25T06:56:53Z</time>
      </trkpt>
      <trkpt lat="46.63692" lon="5.30236">
        <ele>193.8</ele>
        <time>2022-06-25T06:56:54Z</time>
      </trkpt>
      <trkpt lat="46.63695" lon="5.30229">
        <ele>193.8</ele>
        <time>2022-06-25T06:56:55Z</time>
      </trkpt>
      <trkpt lat="46.63698" lon="5.30223">
        <ele>193.8</ele>
        <time>2022-06-25T06:56:56Z</time>
      </trkpt>
      <trkpt lat="46.63701" lon="5.30216">
        <ele>193.8</ele>
        <time>2022-06-25T06:56:57Z</time>
      </trkpt>
      <trkpt lat="46.63704" lon="5.3021">
        <ele>193.8</ele>
        <time>2022-06-25T06:56:58Z</time>
      </trkpt>
      <trkpt lat="46.63708" lon="5.30203">
        <ele>193.8</ele>
        <time>2022-06-25T06:56:59Z</time>
      </trkpt>
      <trkpt lat="46.63711" lon="5.30197">
        <ele>193.8</ele>
        <time>2022-06-25T06:57:00Z</time>
      </trkpt>
      <trkpt lat="46.63713" lon="5.30191">
        <ele>193.8</ele>
        <time>2022-06-25T06:57:01Z</time>
      </trkpt>
      <trkpt lat="46.63716" lon="5.30186">
        <ele>193.8</ele>
        <time>2022-06-25T06:57:02Z</time>
      </trkpt>
      <trkpt lat="46.63718" lon="5.30181">
        <ele>193.8</ele>
        <time>2022-06-25T06:57:03Z</time>
      </trkpt>
      <trkpt lat="46.6372" lon="5.30178">
        <ele>193.6</ele>
        <time>2022-06-25T06:57:04Z</time>
      </trkpt>
      <trkpt lat="46.63722" lon="5.30175">
        <ele>193.6</ele>
        <time>2022-06-25T06:57:05Z</time>
      </trkpt>
      <trkpt lat="46.63725" lon="5.30171">
        <ele>193.6</ele>
        <time>2022-06-25T06:57:06Z</time>
      </trkpt>
      <trkpt lat="46.63727" lon="5.30167">
        <ele>193.6</ele>
        <time>2022-06-25T06:57:07Z</time>
      </trkpt>
      <trkpt lat="46.6373" lon="5.30162">
        <ele>193.6</ele>
        <time>2022-06-25T06:57:08Z</time>
      </trkpt>
      <trkpt lat="46.63732" lon="5.30157">
        <ele>193.6</ele>
        <time>2022-06-25T06:57:09Z</time>
      </trkpt>
      <trkpt lat="46.63735" lon="5.30152">
        <ele>193.6</ele>
        <time>2022-06-25T06:57:10Z</time>
      </trkpt>
      <trkpt lat="46.63739" lon="5.30147">
        <ele>193.6</ele>
        <time>2022-06-25T06:57:11Z</time>
      </trkpt>
      <trkpt lat="46.63742" lon="5.30141">
        <ele>193.8</ele>
        <time>2022-06-25T06:57:12Z</time>
      </trkpt>
      <trkpt lat="46.63745" lon="5.30136">
        <ele>193.8</ele>
        <time>2022-06-25T06:57:13Z</time>
      </trkpt>
      <trkpt lat="46.63748" lon="5.3013">
        <ele>193.8</ele>
        <time>2022-06-25T06:57:14Z</time>
      </trkpt>
      <trkpt lat="46.63751" lon="5.30125">
        <ele>193.8</ele>
        <time>2022-06-25T06:57:15Z</time>
      </trkpt>
      <trkpt lat="46.63754" lon="5.30119">
        <ele>193.8</ele>
        <time>2022-06-25T06:57:16Z</time>
      </trkpt>
      <trkpt lat="46.63757" lon="5.30113">
        <ele>193.8</ele>
        <time>2022-06-25T06:57:17Z</time>
      </trkpt>
      <trkpt lat="46.6376" lon="5.30106">
        <ele>193.8</ele>
        <time>2022-06-25T06:57:18Z</time>
      </trkpt>
      <trkpt lat="46.63762" lon="5.301">
        <ele>193.8</ele>
        <time>2022-06-25T06:57:19Z</time>
      </trkpt>
      <trkpt lat="46.63765" lon="5.30093">
        <ele>193.8</ele>
        <time>2022-06-25T06:57:20Z</time>
      </trkpt>
      <trkpt lat="46.63768" lon="5.30087">
        <ele>193.8</ele>
        <time>2022-06-25T06:57:21Z</time>
      </trkpt>
      <trkpt lat="46.6377" lon="5.3008">
        <ele>193.8</ele>
        <time>2022-06-25T06:57:22Z</time>
      </trkpt>
      <trkpt lat="46.63773" lon="5.30073">
        <ele>193.8</ele>
        <time>2022-06-25T06:57:23Z</time>
      </trkpt>
      <trkpt lat="46.63775" lon="5.30066">
        <ele>193.8</ele>
        <time>2022-06-25T06:57:24Z</time>
      </trkpt>
      <trkpt lat="46.63777" lon="5.30058">
        <ele>193.8</ele>
        <time>2022-06-25T06:57:25Z</time>
      </trkpt>
      <trkpt lat="46.63779" lon="5.30051">
        <ele>193.8</ele>
        <time>2022-06-25T06:57:26Z</time>
      </trkpt>
      <trkpt lat="46.63781" lon="5.30044">
        <ele>193.8</ele>
        <time>2022-06-25T06:57:27Z</time>
      </trkpt>
      <trkpt lat="46.63783" lon="5.30037">
        <ele>193.8</ele>
        <time>2022-06-25T06:57:28Z</time>
      </trkpt>
      <trkpt lat="46.63785" lon="5.3003">
        <ele>193.8</ele>
        <time>2022-06-25T06:57:29Z</time>
      </trkpt>
      <trkpt lat="46.63786" lon="5.30024">
        <ele>193.8</ele>
        <time>2022-06-25T06:57:30Z</time>
      </trkpt>
      <trkpt lat="46.63788" lon="5.30017">
        <ele>193.8</ele>
        <time>2022-06-25T06:57:31Z</time>
      </trkpt>
      <trkpt lat="46.63789" lon="5.30011">
        <ele>193.8</ele>
        <time>2022-06-25T06:57:32Z</time>
      </trkpt>
      <trkpt lat="46.63791" lon="5.30004">
        <ele>193.8</ele>
        <time>2022-06-25T06:57:33Z</time>
      </trkpt>
      <trkpt lat="46.63793" lon="5.29997">
        <ele>193.8</ele>
        <time>2022-06-25T06:57:34Z</time>
      </trkpt>
      <trkpt lat="46.63795" lon="5.2999">
        <ele>193.8</ele>
        <time>2022-06-25T06:57:35Z</time>
      </trkpt>
      <trkpt lat="46.63798" lon="5.29983">
        <ele>193.8</ele>
        <time>2022-06-25T06:57:36Z</time>
      </trkpt>
      <trkpt lat="46.638" lon="5.29976">
        <ele>193.8</ele>
        <time>2022-06-25T06:57:37Z</time>
      </trkpt>
      <trkpt lat="46.63802" lon="5.29968">
        <ele>193.8</ele>
        <time>2022-06-25T06:57:38Z</time>
      </trkpt>
      <trkpt lat="46.63803" lon="5.2996">
        <ele>193.8</ele>
        <time>2022-06-25T06:57:39Z</time>
      </trkpt>
      <trkpt lat="46.63805" lon="5.29952">
        <ele>193.8</ele>
        <time>2022-06-25T06:57:40Z</time>
      </trkpt>
      <trkpt lat="46.63806" lon="5.29944">
        <ele>193.8</ele>
        <time>2022-06-25T06:57:41Z</time>
      </trkpt>
      <trkpt lat="46.63807" lon="5.29935">
        <ele>193.8</ele>
        <time>2022-06-25T06:57:42Z</time>
      </trkpt>
      <trkpt lat="46.63808" lon="5.29927">
        <ele>193.8</ele>
        <time>2022-06-25T06:57:43Z</time>
      </trkpt>
      <trkpt lat="46.63809" lon="5.29918">
        <ele>193.8</ele>
        <time>2022-06-25T06:57:44Z</time>
      </trkpt>
      <trkpt lat="46.63809" lon="5.2991">
        <ele>193.8</ele>
        <time>2022-06-25T06:57:45Z</time>
      </trkpt>
      <trkpt lat="46.6381" lon="5.29902">
        <ele>193.8</ele>
        <time>2022-06-25T06:57:46Z</time>
      </trkpt>
      <trkpt lat="46.6381" lon="5.29893">
        <ele>193.8</ele>
        <time>2022-06-25T06:57:47Z</time>
      </trkpt>
      <trkpt lat="46.63811" lon="5.29885">
        <ele>193.8</ele>
        <time>2022-06-25T06:57:48Z</time>
      </trkpt>
      <trkpt lat="46.63811" lon="5.29877">
        <ele>193.8</ele>
        <time>2022-06-25T06:57:49Z</time>
      </trkpt>
      <trkpt lat="46.63811" lon="5.29868">
        <ele>193.8</ele>
        <time>2022-06-25T06:57:50Z</time>
      </trkpt>
      <trkpt lat="46.63811" lon="5.29859">
        <ele>193.8</ele>
        <time>2022-06-25T06:57:51Z</time>
      </trkpt>
      <trkpt lat="46.63811" lon="5.29851">
        <ele>193.8</ele>
        <time>2022-06-25T06:57:52Z</time>
      </trkpt>
      <trkpt lat="46.63811" lon="5.29843">
        <ele>193.8</ele>
        <time>2022-06-25T06:57:53Z</time>
      </trkpt>
      <trkpt lat="46.63811" lon="5.29837">
        <ele>193.8</ele>
        <time>2022-06-25T06:57:54Z</time>
      </trkpt>
      <trkpt lat="46.63811" lon="5.29832">
        <ele>193.8</ele>
        <time>2022-06-25T06:57:55Z</time>
      </trkpt>
      <trkpt lat="46.63811" lon="5.29823">
        <ele>193.8</ele>
        <time>2022-06-25T06:57:56Z</time>
      </trkpt>
      <trkpt lat="46.63811" lon="5.29819">
        <ele>193.8</ele>
        <time>2022-06-25T06:57:57Z</time>
      </trkpt>
      <trkpt lat="46.63811" lon="5.29813">
        <ele>193.8</ele>
        <time>2022-06-25T06:57:58Z</time>
      </trkpt>
      <trkpt lat="46.6381" lon="5.29807">
        <ele>193.8</ele>
        <time>2022-06-25T06:57:59Z</time>
      </trkpt>
      <trkpt lat="46.6381" lon="5.298">
        <ele>193.8</ele>
        <time>2022-06-25T06:58:00Z</time>
      </trkpt>
      <trkpt lat="46.63809" lon="5.29793">
        <ele>193.8</ele>
        <time>2022-06-25T06:58:01Z</time>
      </trkpt>
      <trkpt lat="46.63808" lon="5.29785">
        <ele>193.8</ele>
        <time>2022-06-25T06:58:02Z</time>
      </trkpt>
      <trkpt lat="46.63808" lon="5.29776">
        <ele>193.8</ele>
        <time>2022-06-25T06:58:03Z</time>
      </trkpt>
      <trkpt lat="46.63807" lon="5.29768">
        <ele>193.8</ele>
        <time>2022-06-25T06:58:04Z</time>
      </trkpt>
      <trkpt lat="46.63806" lon="5.2976">
        <ele>193.8</ele>
        <time>2022-06-25T06:58:05Z</time>
      </trkpt>
      <trkpt lat="46.63805" lon="5.29751">
        <ele>193.8</ele>
        <time>2022-06-25T06:58:06Z</time>
      </trkpt>
      <trkpt lat="46.63804" lon="5.29743">
        <ele>193.8</ele>
        <time>2022-06-25T06:58:07Z</time>
      </trkpt>
      <trkpt lat="46.63803" lon="5.29735">
        <ele>193.8</ele>
        <time>2022-06-25T06:58:08Z</time>
      </trkpt>
      <trkpt lat="46.63802" lon="5.29727">
        <ele>193.8</ele>
        <time>2022-06-25T06:58:09Z</time>
      </trkpt>
      <trkpt lat="46.63801" lon="5.29719">
        <ele>193.8</ele>
        <time>2022-06-25T06:58:10Z</time>
      </trkpt>
      <trkpt lat="46.638" lon="5.29711">
        <ele>193.8</ele>
        <time>2022-06-25T06:58:11Z</time>
      </trkpt>
      <trkpt lat="46.63799" lon="5.29703">
        <ele>193.6</ele>
        <time>2022-06-25T06:58:12Z</time>
      </trkpt>
      <trkpt lat="46.63798" lon="5.29695">
        <ele>193.6</ele>
        <time>2022-06-25T06:58:13Z</time>
      </trkpt>
      <trkpt lat="46.63797" lon="5.29687">
        <ele>193.6</ele>
        <time>2022-06-25T06:58:14Z</time>
      </trkpt>
      <trkpt lat="46.63796" lon="5.29679">
        <ele>193.6</ele>
        <time>2022-06-25T06:58:15Z</time>
      </trkpt>
      <trkpt lat="46.63794" lon="5.29671">
        <ele>193.6</ele>
        <time>2022-06-25T06:58:16Z</time>
      </trkpt>
      <trkpt lat="46.63793" lon="5.29663">
        <ele>193.6</ele>
        <time>2022-06-25T06:58:17Z</time>
      </trkpt>
      <trkpt lat="46.63792" lon="5.29654">
        <ele>193.6</ele>
        <time>2022-06-25T06:58:18Z</time>
      </trkpt>
      <trkpt lat="46.63791" lon="5.29646">
        <ele>193.6</ele>
        <time>2022-06-25T06:58:19Z</time>
      </trkpt>
      <trkpt lat="46.63789" lon="5.29638">
        <ele>193.4</ele>
        <time>2022-06-25T06:58:20Z</time>
      </trkpt>
      <trkpt lat="46.63788" lon="5.2963">
        <ele>193.4</ele>
        <time>2022-06-25T06:58:21Z</time>
      </trkpt>
      <trkpt lat="46.63786" lon="5.29621">
        <ele>193.4</ele>
        <time>2022-06-25T06:58:22Z</time>
      </trkpt>
      <trkpt lat="46.63785" lon="5.29613">
        <ele>193.4</ele>
        <time>2022-06-25T06:58:23Z</time>
      </trkpt>
      <trkpt lat="46.63783" lon="5.29605">
        <ele>193.4</ele>
        <time>2022-06-25T06:58:24Z</time>
      </trkpt>
      <trkpt lat="46.63782" lon="5.29597">
        <ele>193.4</ele>
        <time>2022-06-25T06:58:25Z</time>
      </trkpt>
      <trkpt lat="46.6378" lon="5.29588">
        <ele>193.4</ele>
        <time>2022-06-25T06:58:26Z</time>
      </trkpt>
      <trkpt lat="46.63778" lon="5.2958">
        <ele>193.4</ele>
        <time>2022-06-25T06:58:27Z</time>
      </trkpt>
      <trkpt lat="46.63776" lon="5.29572">
        <ele>193.4</ele>
        <time>2022-06-25T06:58:28Z</time>
      </trkpt>
      <trkpt lat="46.63775" lon="5.29564">
        <ele>193.4</ele>
        <time>2022-06-25T06:58:29Z</time>
      </trkpt>
      <trkpt lat="46.63773" lon="5.29555">
        <ele>193.4</ele>
        <time>2022-06-25T06:58:30Z</time>
      </trkpt>
      <trkpt lat="46.63771" lon="5.29547">
        <ele>193.4</ele>
        <time>2022-06-25T06:58:31Z</time>
      </trkpt>
      <trkpt lat="46.63769" lon="5.29539">
        <ele>193.4</ele>
        <time>2022-06-25T06:58:32Z</time>
      </trkpt>
      <trkpt lat="46.63767" lon="5.29531">
        <ele>193.4</ele>
        <time>2022-06-25T06:58:33Z</time>
      </trkpt>
      <trkpt lat="46.63765" lon="5.29523">
        <ele>193.4</ele>
        <time>2022-06-25T06:58:34Z</time>
      </trkpt>
      <trkpt lat="46.63762" lon="5.29515">
        <ele>193.4</ele>
        <time>2022-06-25T06:58:35Z</time>
      </trkpt>
      <trkpt lat="46.6376" lon="5.29507">
        <ele>193.4</ele>
        <time>2022-06-25T06:58:36Z</time>
      </trkpt>
      <trkpt lat="46.63758" lon="5.29499">
        <ele>193.4</ele>
        <time>2022-06-25T06:58:37Z</time>
      </trkpt>
      <trkpt lat="46.63755" lon="5.29491">
        <ele>193</ele>
        <time>2022-06-25T06:58:38Z</time>
      </trkpt>
      <trkpt lat="46.63753" lon="5.29483">
        <ele>193</ele>
        <time>2022-06-25T06:58:39Z</time>
      </trkpt>
      <trkpt lat="46.63751" lon="5.29475">
        <ele>192.8</ele>
        <time>2022-06-25T06:58:40Z</time>
      </trkpt>
      <trkpt lat="46.63749" lon="5.29467">
        <ele>192.8</ele>
        <time>2022-06-25T06:58:41Z</time>
      </trkpt>
      <trkpt lat="46.63748" lon="5.2946">
        <ele>192.8</ele>
        <time>2022-06-25T06:58:42Z</time>
      </trkpt>
      <trkpt lat="46.63746" lon="5.29452">
        <ele>192.6</ele>
        <time>2022-06-25T06:58:43Z</time>
      </trkpt>
      <trkpt lat="46.63744" lon="5.29445">
        <ele>192.6</ele>
        <time>2022-06-25T06:58:44Z</time>
      </trkpt>
      <trkpt lat="46.63742" lon="5.29437">
        <ele>192.6</ele>
        <time>2022-06-25T06:58:45Z</time>
      </trkpt>
      <trkpt lat="46.6374" lon="5.29429">
        <ele>192.6</ele>
        <time>2022-06-25T06:58:46Z</time>
      </trkpt>
      <trkpt lat="46.63737" lon="5.29421">
        <ele>192.6</ele>
        <time>2022-06-25T06:58:47Z</time>
      </trkpt>
      <trkpt lat="46.63735" lon="5.29413">
        <ele>192.6</ele>
        <time>2022-06-25T06:58:48Z</time>
      </trkpt>
      <trkpt lat="46.63733" lon="5.29405">
        <ele>192.6</ele>
        <time>2022-06-25T06:58:49Z</time>
      </trkpt>
      <trkpt lat="46.63731" lon="5.29398">
        <ele>192.6</ele>
        <time>2022-06-25T06:58:50Z</time>
      </trkpt>
      <trkpt lat="46.63728" lon="5.29389">
        <ele>192.4</ele>
        <time>2022-06-25T06:58:51Z</time>
      </trkpt>
      <trkpt lat="46.63726" lon="5.29381">
        <ele>192.4</ele>
        <time>2022-06-25T06:58:52Z</time>
      </trkpt>
      <trkpt lat="46.63724" lon="5.29373">
        <ele>192.4</ele>
        <time>2022-06-25T06:58:53Z</time>
      </trkpt>
      <trkpt lat="46.63722" lon="5.29365">
        <ele>192.4</ele>
        <time>2022-06-25T06:58:54Z</time>
      </trkpt>
      <trkpt lat="46.6372" lon="5.29356">
        <ele>192.4</ele>
        <time>2022-06-25T06:58:55Z</time>
      </trkpt>
      <trkpt lat="46.63719" lon="5.29348">
        <ele>192.2</ele>
        <time>2022-06-25T06:58:56Z</time>
      </trkpt>
      <trkpt lat="46.63717" lon="5.2934">
        <ele>192.2</ele>
        <time>2022-06-25T06:58:57Z</time>
      </trkpt>
      <trkpt lat="46.63716" lon="5.29332">
        <ele>192</ele>
        <time>2022-06-25T06:58:58Z</time>
      </trkpt>
      <trkpt lat="46.63715" lon="5.29324">
        <ele>192</ele>
        <time>2022-06-25T06:58:59Z</time>
      </trkpt>
      <trkpt lat="46.63714" lon="5.29316">
        <ele>192</ele>
        <time>2022-06-25T06:59:00Z</time>
      </trkpt>
      <trkpt lat="46.63713" lon="5.29307">
        <ele>192</ele>
        <time>2022-06-25T06:59:01Z</time>
      </trkpt>
      <trkpt lat="46.63711" lon="5.29297">
        <ele>192</ele>
        <time>2022-06-25T06:59:02Z</time>
      </trkpt>
      <trkpt lat="46.6371" lon="5.29288">
        <ele>192</ele>
        <time>2022-06-25T06:59:03Z</time>
      </trkpt>
      <trkpt lat="46.63709" lon="5.29279">
        <ele>192</ele>
        <time>2022-06-25T06:59:04Z</time>
      </trkpt>
      <trkpt lat="46.63708" lon="5.2927">
        <ele>192</ele>
        <time>2022-06-25T06:59:05Z</time>
      </trkpt>
      <trkpt lat="46.63707" lon="5.29261">
        <ele>192</ele>
        <time>2022-06-25T06:59:06Z</time>
      </trkpt>
      <trkpt lat="46.63705" lon="5.29252">
        <ele>192</ele>
        <time>2022-06-25T06:59:07Z</time>
      </trkpt>
      <trkpt lat="46.63704" lon="5.29243">
        <ele>191.8</ele>
        <time>2022-06-25T06:59:08Z</time>
      </trkpt>
      <trkpt lat="46.63704" lon="5.29234">
        <ele>191.8</ele>
        <time>2022-06-25T06:59:09Z</time>
      </trkpt>
      <trkpt lat="46.63702" lon="5.29224">
        <ele>191.8</ele>
        <time>2022-06-25T06:59:10Z</time>
      </trkpt>
      <trkpt lat="46.63701" lon="5.29215">
        <ele>191.8</ele>
        <time>2022-06-25T06:59:11Z</time>
      </trkpt>
      <trkpt lat="46.63701" lon="5.29205">
        <ele>191.8</ele>
        <time>2022-06-25T06:59:12Z</time>
      </trkpt>
      <trkpt lat="46.637" lon="5.29196">
        <ele>191.8</ele>
        <time>2022-06-25T06:59:13Z</time>
      </trkpt>
      <trkpt lat="46.637" lon="5.29187">
        <ele>191.8</ele>
        <time>2022-06-25T06:59:14Z</time>
      </trkpt>
      <trkpt lat="46.63699" lon="5.29178">
        <ele>191.8</ele>
        <time>2022-06-25T06:59:15Z</time>
      </trkpt>
      <trkpt lat="46.63699" lon="5.29169">
        <ele>191.8</ele>
        <time>2022-06-25T06:59:16Z</time>
      </trkpt>
      <trkpt lat="46.63699" lon="5.2916">
        <ele>191.8</ele>
        <time>2022-06-25T06:59:17Z</time>
      </trkpt>
      <trkpt lat="46.63699" lon="5.29151">
        <ele>191.6</ele>
        <time>2022-06-25T06:59:18Z</time>
      </trkpt>
      <trkpt lat="46.63699" lon="5.29142">
        <ele>191.6</ele>
        <time>2022-06-25T06:59:19Z</time>
      </trkpt>
      <trkpt lat="46.63699" lon="5.29133">
        <ele>191.6</ele>
        <time>2022-06-25T06:59:20Z</time>
      </trkpt>
      <trkpt lat="46.63699" lon="5.29124">
        <ele>191.6</ele>
        <time>2022-06-25T06:59:21Z</time>
      </trkpt>
      <trkpt lat="46.63699" lon="5.29116">
        <ele>191.6</ele>
        <time>2022-06-25T06:59:22Z</time>
      </trkpt>
      <trkpt lat="46.637" lon="5.29107">
        <ele>191.6</ele>
        <time>2022-06-25T06:59:23Z</time>
      </trkpt>
      <trkpt lat="46.637" lon="5.29099">
        <ele>191.6</ele>
        <time>2022-06-25T06:59:24Z</time>
      </trkpt>
      <trkpt lat="46.63701" lon="5.2909">
        <ele>191.6</ele>
        <time>2022-06-25T06:59:25Z</time>
      </trkpt>
      <trkpt lat="46.63702" lon="5.29082">
        <ele>191.2</ele>
        <time>2022-06-25T06:59:26Z</time>
      </trkpt>
      <trkpt lat="46.63702" lon="5.29073">
        <ele>191.2</ele>
        <time>2022-06-25T06:59:27Z</time>
      </trkpt>
      <trkpt lat="46.63703" lon="5.29065">
        <ele>191.2</ele>
        <time>2022-06-25T06:59:28Z</time>
      </trkpt>
      <trkpt lat="46.63703" lon="5.29058">
        <ele>191.2</ele>
        <time>2022-06-25T06:59:29Z</time>
      </trkpt>
      <trkpt lat="46.63704" lon="5.29051">
        <ele>191.2</ele>
        <time>2022-06-25T06:59:30Z</time>
      </trkpt>
      <trkpt lat="46.63704" lon="5.29046">
        <ele>191</ele>
        <time>2022-06-25T06:59:31Z</time>
      </trkpt>
      <trkpt lat="46.63705" lon="5.29041">
        <ele>191</ele>
        <time>2022-06-25T06:59:32Z</time>
      </trkpt>
      <trkpt lat="46.63706" lon="5.29037">
        <ele>191</ele>
        <time>2022-06-25T06:59:33Z</time>
      </trkpt>
      <trkpt lat="46.63707" lon="5.29032">
        <ele>191</ele>
        <time>2022-06-25T06:59:34Z</time>
      </trkpt>
      <trkpt lat="46.63708" lon="5.29027">
        <ele>191</ele>
        <time>2022-06-25T06:59:35Z</time>
      </trkpt>
      <trkpt lat="46.63708" lon="5.29022">
        <ele>191</ele>
        <time>2022-06-25T06:59:36Z</time>
      </trkpt>
      <trkpt lat="46.63709" lon="5.29016">
        <ele>191</ele>
        <time>2022-06-25T06:59:37Z</time>
      </trkpt>
      <trkpt lat="46.63709" lon="5.2901">
        <ele>191</ele>
        <time>2022-06-25T06:59:38Z</time>
      </trkpt>
      <trkpt lat="46.6371" lon="5.29005">
        <ele>191</ele>
        <time>2022-06-25T06:59:39Z</time>
      </trkpt>
      <trkpt lat="46.6371" lon="5.28999">
        <ele>191</ele>
        <time>2022-06-25T06:59:40Z</time>
      </trkpt>
      <trkpt lat="46.63711" lon="5.28993">
        <ele>191</ele>
        <time>2022-06-25T06:59:41Z</time>
      </trkpt>
      <trkpt lat="46.63712" lon="5.28987">
        <ele>191</ele>
        <time>2022-06-25T06:59:42Z</time>
      </trkpt>
      <trkpt lat="46.63713" lon="5.28981">
        <ele>191</ele>
        <time>2022-06-25T06:59:43Z</time>
      </trkpt>
      <trkpt lat="46.63714" lon="5.28975">
        <ele>191</ele>
        <time>2022-06-25T06:59:44Z</time>
      </trkpt>
      <trkpt lat="46.63715" lon="5.28968">
        <ele>191</ele>
        <time>2022-06-25T06:59:45Z</time>
      </trkpt>
      <trkpt lat="46.63716" lon="5.28962">
        <ele>191</ele>
        <time>2022-06-25T06:59:46Z</time>
      </trkpt>
      <trkpt lat="46.63717" lon="5.28954">
        <ele>191</ele>
        <time>2022-06-25T06:59:47Z</time>
      </trkpt>
      <trkpt lat="46.63717" lon="5.28947">
        <ele>191.2</ele>
        <time>2022-06-25T06:59:48Z</time>
      </trkpt>
      <trkpt lat="46.63718" lon="5.2894">
        <ele>191.2</ele>
        <time>2022-06-25T06:59:49Z</time>
      </trkpt>
      <trkpt lat="46.63719" lon="5.28933">
        <ele>191.2</ele>
        <time>2022-06-25T06:59:50Z</time>
      </trkpt>
      <trkpt lat="46.6372" lon="5.28926">
        <ele>191.2</ele>
        <time>2022-06-25T06:59:51Z</time>
      </trkpt>
      <trkpt lat="46.6372" lon="5.28918">
        <ele>191.4</ele>
        <time>2022-06-25T06:59:52Z</time>
      </trkpt>
      <trkpt lat="46.63721" lon="5.28911">
        <ele>191.4</ele>
        <time>2022-06-25T06:59:53Z</time>
      </trkpt>
      <trkpt lat="46.63722" lon="5.28904">
        <ele>191.4</ele>
        <time>2022-06-25T06:59:54Z</time>
      </trkpt>
      <trkpt lat="46.63722" lon="5.28896">
        <ele>191.4</ele>
        <time>2022-06-25T06:59:55Z</time>
      </trkpt>
      <trkpt lat="46.63723" lon="5.28888">
        <ele>191.4</ele>
        <time>2022-06-25T06:59:56Z</time>
      </trkpt>
      <trkpt lat="46.63723" lon="5.28881">
        <ele>191.4</ele>
        <time>2022-06-25T06:59:57Z</time>
      </trkpt>
      <trkpt lat="46.63724" lon="5.28873">
        <ele>191.4</ele>
        <time>2022-06-25T06:59:58Z</time>
      </trkpt>
      <trkpt lat="46.63724" lon="5.28865">
        <ele>191.6</ele>
        <time>2022-06-25T06:59:59Z</time>
      </trkpt>
      <trkpt lat="46.63724" lon="5.28857">
        <ele>191.6</ele>
        <time>2022-06-25T07:00:00Z</time>
      </trkpt>
      <trkpt lat="46.63724" lon="5.28849">
        <ele>191.6</ele>
        <time>2022-06-25T07:00:01Z</time>
      </trkpt>
      <trkpt lat="46.63724" lon="5.28841">
        <ele>191.6</ele>
        <time>2022-06-25T07:00:02Z</time>
      </trkpt>
      <trkpt lat="46.63724" lon="5.28833">
        <ele>192</ele>
        <time>2022-06-25T07:00:03Z</time>
      </trkpt>
      <trkpt lat="46.63723" lon="5.28824">
        <ele>192</ele>
        <time>2022-06-25T07:00:04Z</time>
      </trkpt>
      <trkpt lat="46.63723" lon="5.28816">
        <ele>192</ele>
        <time>2022-06-25T07:00:05Z</time>
      </trkpt>
      <trkpt lat="46.63723" lon="5.28808">
        <ele>192</ele>
        <time>2022-06-25T07:00:06Z</time>
      </trkpt>
      <trkpt lat="46.63722" lon="5.28799">
        <ele>192</ele>
        <time>2022-06-25T07:00:07Z</time>
      </trkpt>
      <trkpt lat="46.63722" lon="5.28791">
        <ele>192</ele>
        <time>2022-06-25T07:00:08Z</time>
      </trkpt>
      <trkpt lat="46.63721" lon="5.28783">
        <ele>192</ele>
        <time>2022-06-25T07:00:09Z</time>
      </trkpt>
      <trkpt lat="46.63721" lon="5.28774">
        <ele>192</ele>
        <time>2022-06-25T07:00:10Z</time>
      </trkpt>
      <trkpt lat="46.6372" lon="5.28766">
        <ele>192</ele>
        <time>2022-06-25T07:00:11Z</time>
      </trkpt>
      <trkpt lat="46.63719" lon="5.28757">
        <ele>192</ele>
        <time>2022-06-25T07:00:12Z</time>
      </trkpt>
      <trkpt lat="46.63718" lon="5.28749">
        <ele>192</ele>
        <time>2022-06-25T07:00:13Z</time>
      </trkpt>
      <trkpt lat="46.63716" lon="5.28741">
        <ele>192</ele>
        <time>2022-06-25T07:00:14Z</time>
      </trkpt>
      <trkpt lat="46.63715" lon="5.28732">
        <ele>192</ele>
        <time>2022-06-25T07:00:15Z</time>
      </trkpt>
      <trkpt lat="46.63714" lon="5.28724">
        <ele>192</ele>
        <time>2022-06-25T07:00:16Z</time>
      </trkpt>
      <trkpt lat="46.63712" lon="5.28715">
        <ele>192</ele>
        <time>2022-06-25T07:00:17Z</time>
      </trkpt>
      <trkpt lat="46.63711" lon="5.28706">
        <ele>192</ele>
        <time>2022-06-25T07:00:18Z</time>
      </trkpt>
      <trkpt lat="46.63709" lon="5.28698">
        <ele>192</ele>
        <time>2022-06-25T07:00:19Z</time>
      </trkpt>
      <trkpt lat="46.63708" lon="5.28689">
        <ele>192</ele>
        <time>2022-06-25T07:00:20Z</time>
      </trkpt>
      <trkpt lat="46.63706" lon="5.28681">
        <ele>192</ele>
        <time>2022-06-25T07:00:21Z</time>
      </trkpt>
      <trkpt lat="46.63704" lon="5.28673">
        <ele>192</ele>
        <time>2022-06-25T07:00:22Z</time>
      </trkpt>
      <trkpt lat="46.63702" lon="5.28665">
        <ele>192</ele>
        <time>2022-06-25T07:00:23Z</time>
      </trkpt>
      <trkpt lat="46.637" lon="5.28657">
        <ele>192</ele>
        <time>2022-06-25T07:00:24Z</time>
      </trkpt>
      <trkpt lat="46.63698" lon="5.28649">
        <ele>191.8</ele>
        <time>2022-06-25T07:00:25Z</time>
      </trkpt>
      <trkpt lat="46.63696" lon="5.28641">
        <ele>191.8</ele>
        <time>2022-06-25T07:00:26Z</time>
      </trkpt>
      <trkpt lat="46.63694" lon="5.28633">
        <ele>191.8</ele>
        <time>2022-06-25T07:00:27Z</time>
      </trkpt>
      <trkpt lat="46.63692" lon="5.28625">
        <ele>191.8</ele>
        <time>2022-06-25T07:00:28Z</time>
      </trkpt>
      <trkpt lat="46.63689" lon="5.28618">
        <ele>191.8</ele>
        <time>2022-06-25T07:00:29Z</time>
      </trkpt>
      <trkpt lat="46.63686" lon="5.2861">
        <ele>191.8</ele>
        <time>2022-06-25T07:00:30Z</time>
      </trkpt>
      <trkpt lat="46.63684" lon="5.28603">
        <ele>191.8</ele>
        <time>2022-06-25T07:00:31Z</time>
      </trkpt>
      <trkpt lat="46.63681" lon="5.28596">
        <ele>191.4</ele>
        <time>2022-06-25T07:00:32Z</time>
      </trkpt>
      <trkpt lat="46.63678" lon="5.28588">
        <ele>191.4</ele>
        <time>2022-06-25T07:00:33Z</time>
      </trkpt>
      <trkpt lat="46.63675" lon="5.28581">
        <ele>191.4</ele>
        <time>2022-06-25T07:00:34Z</time>
      </trkpt>
      <trkpt lat="46.63672" lon="5.28575">
        <ele>191.4</ele>
        <time>2022-06-25T07:00:35Z</time>
      </trkpt>
      <trkpt lat="46.63669" lon="5.28568">
        <ele>191.4</ele>
        <time>2022-06-25T07:00:36Z</time>
      </trkpt>
      <trkpt lat="46.63666" lon="5.28562">
        <ele>191.4</ele>
        <time>2022-06-25T07:00:37Z</time>
      </trkpt>
      <trkpt lat="46.63663" lon="5.28556">
        <ele>191.4</ele>
        <time>2022-06-25T07:00:38Z</time>
      </trkpt>
      <trkpt lat="46.63661" lon="5.2855">
        <ele>191.4</ele>
        <time>2022-06-25T07:00:39Z</time>
      </trkpt>
      <trkpt lat="46.63659" lon="5.28545">
        <ele>191.4</ele>
        <time>2022-06-25T07:00:40Z</time>
      </trkpt>
      <trkpt lat="46.63657" lon="5.2854">
        <ele>191.4</ele>
        <time>2022-06-25T07:00:41Z</time>
      </trkpt>
      <trkpt lat="46.63656" lon="5.28536">
        <ele>191.4</ele>
        <time>2022-06-25T07:00:42Z</time>
      </trkpt>
      <trkpt lat="46.63654" lon="5.28533">
        <ele>191.4</ele>
        <time>2022-06-25T07:00:43Z</time>
      </trkpt>
      <trkpt lat="46.63652" lon="5.28529">
        <ele>191.4</ele>
        <time>2022-06-25T07:00:44Z</time>
      </trkpt>
      <trkpt lat="46.6365" lon="5.28524">
        <ele>191.2</ele>
        <time>2022-06-25T07:00:45Z</time>
      </trkpt>
      <trkpt lat="46.63647" lon="5.2852">
        <ele>191.2</ele>
        <time>2022-06-25T07:00:46Z</time>
      </trkpt>
      <trkpt lat="46.63644" lon="5.28515">
        <ele>191.2</ele>
        <time>2022-06-25T07:00:47Z</time>
      </trkpt>
      <trkpt lat="46.63641" lon="5.28511">
        <ele>191.2</ele>
        <time>2022-06-25T07:00:48Z</time>
      </trkpt>
      <trkpt lat="46.63637" lon="5.28506">
        <ele>191.2</ele>
        <time>2022-06-25T07:00:49Z</time>
      </trkpt>
      <trkpt lat="46.63634" lon="5.28501">
        <ele>191.2</ele>
        <time>2022-06-25T07:00:50Z</time>
      </trkpt>
      <trkpt lat="46.63631" lon="5.28495">
        <ele>191.2</ele>
        <time>2022-06-25T07:00:51Z</time>
      </trkpt>
      <trkpt lat="46.63628" lon="5.2849">
        <ele>191.2</ele>
        <time>2022-06-25T07:00:52Z</time>
      </trkpt>
      <trkpt lat="46.63625" lon="5.28484">
        <ele>191.2</ele>
        <time>2022-06-25T07:00:53Z</time>
      </trkpt>
      <trkpt lat="46.63621" lon="5.28479">
        <ele>191.2</ele>
        <time>2022-06-25T07:00:54Z</time>
      </trkpt>
      <trkpt lat="46.63617" lon="5.28473">
        <ele>191.2</ele>
        <time>2022-06-25T07:00:55Z</time>
      </trkpt>
      <trkpt lat="46.63613" lon="5.28468">
        <ele>191.2</ele>
        <time>2022-06-25T07:00:56Z</time>
      </trkpt>
      <trkpt lat="46.63609" lon="5.28463">
        <ele>191.2</ele>
        <time>2022-06-25T07:00:57Z</time>
      </trkpt>
      <trkpt lat="46.63605" lon="5.28458">
        <ele>191.2</ele>
        <time>2022-06-25T07:00:58Z</time>
      </trkpt>
      <trkpt lat="46.63601" lon="5.28453">
        <ele>191.2</ele>
        <time>2022-06-25T07:00:59Z</time>
      </trkpt>
      <trkpt lat="46.63597" lon="5.28447">
        <ele>191.2</ele>
        <time>2022-06-25T07:01:00Z</time>
      </trkpt>
      <trkpt lat="46.63592" lon="5.28442">
        <ele>191.2</ele>
        <time>2022-06-25T07:01:01Z</time>
      </trkpt>
      <trkpt lat="46.63588" lon="5.28436">
        <ele>191.2</ele>
        <time>2022-06-25T07:01:02Z</time>
      </trkpt>
      <trkpt lat="46.63583" lon="5.2843">
        <ele>191.2</ele>
        <time>2022-06-25T07:01:03Z</time>
      </trkpt>
      <trkpt lat="46.63578" lon="5.28425">
        <ele>191.2</ele>
        <time>2022-06-25T07:01:04Z</time>
      </trkpt>
      <trkpt lat="46.63574" lon="5.2842">
        <ele>191.2</ele>
        <time>2022-06-25T07:01:05Z</time>
      </trkpt>
      <trkpt lat="46.63569" lon="5.28414">
        <ele>191.2</ele>
        <time>2022-06-25T07:01:06Z</time>
      </trkpt>
      <trkpt lat="46.63564" lon="5.28409">
        <ele>191.2</ele>
        <time>2022-06-25T07:01:07Z</time>
      </trkpt>
      <trkpt lat="46.63559" lon="5.28404">
        <ele>191.2</ele>
        <time>2022-06-25T07:01:08Z</time>
      </trkpt>
      <trkpt lat="46.63554" lon="5.28399">
        <ele>191.2</ele>
        <time>2022-06-25T07:01:09Z</time>
      </trkpt>
      <trkpt lat="46.63549" lon="5.28394">
        <ele>191.2</ele>
        <time>2022-06-25T07:01:10Z</time>
      </trkpt>
      <trkpt lat="46.63544" lon="5.28389">
        <ele>191.2</ele>
        <time>2022-06-25T07:01:11Z</time>
      </trkpt>
      <trkpt lat="46.63539" lon="5.28384">
        <ele>191.4</ele>
        <time>2022-06-25T07:01:12Z</time>
      </trkpt>
      <trkpt lat="46.63534" lon="5.28379">
        <ele>191.4</ele>
        <time>2022-06-25T07:01:13Z</time>
      </trkpt>
      <trkpt lat="46.63529" lon="5.28373">
        <ele>191.4</ele>
        <time>2022-06-25T07:01:14Z</time>
      </trkpt>
      <trkpt lat="46.63523" lon="5.28368">
        <ele>191.4</ele>
        <time>2022-06-25T07:01:15Z</time>
      </trkpt>
      <trkpt lat="46.63518" lon="5.28364">
        <ele>191.4</ele>
        <time>2022-06-25T07:01:16Z</time>
      </trkpt>
      <trkpt lat="46.63513" lon="5.28359">
        <ele>191.4</ele>
        <time>2022-06-25T07:01:17Z</time>
      </trkpt>
      <trkpt lat="46.63508" lon="5.28354">
        <ele>191.4</ele>
        <time>2022-06-25T07:01:18Z</time>
      </trkpt>
      <trkpt lat="46.63503" lon="5.28349">
        <ele>191.4</ele>
        <time>2022-06-25T07:01:19Z</time>
      </trkpt>
      <trkpt lat="46.63498" lon="5.28344">
        <ele>191.4</ele>
        <time>2022-06-25T07:01:20Z</time>
      </trkpt>
      <trkpt lat="46.63493" lon="5.2834">
        <ele>191.4</ele>
        <time>2022-06-25T07:01:21Z</time>
      </trkpt>
      <trkpt lat="46.63488" lon="5.28335">
        <ele>191.4</ele>
        <time>2022-06-25T07:01:22Z</time>
      </trkpt>
      <trkpt lat="46.63483" lon="5.28331">
        <ele>191.4</ele>
        <time>2022-06-25T07:01:23Z</time>
      </trkpt>
      <trkpt lat="46.63478" lon="5.28326">
        <ele>191.4</ele>
        <time>2022-06-25T07:01:24Z</time>
      </trkpt>
      <trkpt lat="46.63473" lon="5.28321">
        <ele>191.4</ele>
        <time>2022-06-25T07:01:25Z</time>
      </trkpt>
      <trkpt lat="46.63468" lon="5.28317">
        <ele>191.4</ele>
        <time>2022-06-25T07:01:26Z</time>
      </trkpt>
      <trkpt lat="46.63464" lon="5.28312">
        <ele>191.4</ele>
        <time>2022-06-25T07:01:27Z</time>
      </trkpt>
      <trkpt lat="46.63459" lon="5.28308">
        <ele>191.4</ele>
        <time>2022-06-25T07:01:28Z</time>
      </trkpt>
      <trkpt lat="46.63454" lon="5.28304">
        <ele>191.4</ele>
        <time>2022-06-25T07:01:29Z</time>
      </trkpt>
      <trkpt lat="46.63449" lon="5.28299">
        <ele>191.4</ele>
        <time>2022-06-25T07:01:30Z</time>
      </trkpt>
      <trkpt lat="46.63445" lon="5.28295">
        <ele>191.4</ele>
        <time>2022-06-25T07:01:31Z</time>
      </trkpt>
      <trkpt lat="46.63441" lon="5.28291">
        <ele>191.4</ele>
        <time>2022-06-25T07:01:32Z</time>
      </trkpt>
      <trkpt lat="46.63436" lon="5.28287">
        <ele>191.4</ele>
        <time>2022-06-25T07:01:33Z</time>
      </trkpt>
      <trkpt lat="46.63432" lon="5.28282">
        <ele>191.4</ele>
        <time>2022-06-25T07:01:34Z</time>
      </trkpt>
      <trkpt lat="46.63427" lon="5.28278">
        <ele>191.4</ele>
        <time>2022-06-25T07:01:35Z</time>
      </trkpt>
      <trkpt lat="46.63423" lon="5.28273">
        <ele>191.2</ele>
        <time>2022-06-25T07:01:36Z</time>
      </trkpt>
      <trkpt lat="46.63418" lon="5.28268">
        <ele>191.2</ele>
        <time>2022-06-25T07:01:37Z</time>
      </trkpt>
      <trkpt lat="46.63413" lon="5.28263">
        <ele>191.2</ele>
        <time>2022-06-25T07:01:38Z</time>
      </trkpt>
      <trkpt lat="46.63409" lon="5.28258">
        <ele>191.2</ele>
        <time>2022-06-25T07:01:39Z</time>
      </trkpt>
      <trkpt lat="46.63404" lon="5.28254">
        <ele>191.2</ele>
        <time>2022-06-25T07:01:40Z</time>
      </trkpt>
      <trkpt lat="46.63399" lon="5.28249">
        <ele>191.2</ele>
        <time>2022-06-25T07:01:41Z</time>
      </trkpt>
      <trkpt lat="46.63394" lon="5.28243">
        <ele>191.2</ele>
        <time>2022-06-25T07:01:42Z</time>
      </trkpt>
      <trkpt lat="46.63388" lon="5.28236">
        <ele>191.2</ele>
        <time>2022-06-25T07:01:43Z</time>
      </trkpt>
      <trkpt lat="46.63382" lon="5.2823">
        <ele>191.2</ele>
        <time>2022-06-25T07:01:44Z</time>
      </trkpt>
      <trkpt lat="46.63377" lon="5.28225">
        <ele>191.2</ele>
        <time>2022-06-25T07:01:45Z</time>
      </trkpt>
      <trkpt lat="46.63371" lon="5.28219">
        <ele>191.2</ele>
        <time>2022-06-25T07:01:46Z</time>
      </trkpt>
      <trkpt lat="46.63366" lon="5.28213">
        <ele>191.2</ele>
        <time>2022-06-25T07:01:48Z</time>
      </trkpt>
      <trkpt lat="46.63361" lon="5.28208">
        <ele>191.2</ele>
        <time>2022-06-25T07:01:49Z</time>
      </trkpt>
      <trkpt lat="46.63356" lon="5.28203">
        <ele>191.2</ele>
        <time>2022-06-25T07:01:50Z</time>
      </trkpt>
      <trkpt lat="46.6335" lon="5.28197">
        <ele>191.2</ele>
        <time>2022-06-25T07:01:51Z</time>
      </trkpt>
      <trkpt lat="46.63345" lon="5.28192">
        <ele>191.2</ele>
        <time>2022-06-25T07:01:52Z</time>
      </trkpt>
      <trkpt lat="46.6334" lon="5.28186">
        <ele>191.2</ele>
        <time>2022-06-25T07:01:53Z</time>
      </trkpt>
      <trkpt lat="46.63334" lon="5.28181">
        <ele>191.2</ele>
        <time>2022-06-25T07:01:54Z</time>
      </trkpt>
      <trkpt lat="46.63329" lon="5.28175">
        <ele>191.2</ele>
        <time>2022-06-25T07:01:55Z</time>
      </trkpt>
      <trkpt lat="46.63323" lon="5.28169">
        <ele>191.2</ele>
        <time>2022-06-25T07:01:56Z</time>
      </trkpt>
      <trkpt lat="46.63317" lon="5.28163">
        <ele>191.2</ele>
        <time>2022-06-25T07:01:57Z</time>
      </trkpt>
      <trkpt lat="46.63311" lon="5.28157">
        <ele>191.2</ele>
        <time>2022-06-25T07:01:58Z</time>
      </trkpt>
      <trkpt lat="46.63305" lon="5.28151">
        <ele>191.2</ele>
        <time>2022-06-25T07:01:59Z</time>
      </trkpt>
      <trkpt lat="46.633" lon="5.28145">
        <ele>191.2</ele>
        <time>2022-06-25T07:02:00Z</time>
      </trkpt>
      <trkpt lat="46.63295" lon="5.28139">
        <ele>191.2</ele>
        <time>2022-06-25T07:02:01Z</time>
      </trkpt>
      <trkpt lat="46.6329" lon="5.28134">
        <ele>191.2</ele>
        <time>2022-06-25T07:02:02Z</time>
      </trkpt>
      <trkpt lat="46.63285" lon="5.28129">
        <ele>191.2</ele>
        <time>2022-06-25T07:02:03Z</time>
      </trkpt>
      <trkpt lat="46.63281" lon="5.28125">
        <ele>191.2</ele>
        <time>2022-06-25T07:02:04Z</time>
      </trkpt>
      <trkpt lat="46.63277" lon="5.28121">
        <ele>191.2</ele>
        <time>2022-06-25T07:02:05Z</time>
      </trkpt>
      <trkpt lat="46.63274" lon="5.28118">
        <ele>191</ele>
        <time>2022-06-25T07:02:06Z</time>
      </trkpt>
      <trkpt lat="46.63271" lon="5.28116">
        <ele>191</ele>
        <time>2022-06-25T07:02:07Z</time>
      </trkpt>
      <trkpt lat="46.63268" lon="5.28114">
        <ele>190.8</ele>
        <time>2022-06-25T07:02:08Z</time>
      </trkpt>
      <trkpt lat="46.63266" lon="5.28112">
        <ele>190.8</ele>
        <time>2022-06-25T07:02:09Z</time>
      </trkpt>
      <trkpt lat="46.63264" lon="5.2811">
        <ele>190.8</ele>
        <time>2022-06-25T07:02:10Z</time>
      </trkpt>
      <trkpt lat="46.63261" lon="5.28108">
        <ele>190.8</ele>
        <time>2022-06-25T07:02:11Z</time>
      </trkpt>
      <trkpt lat="46.63259" lon="5.28105">
        <ele>190.8</ele>
        <time>2022-06-25T07:02:12Z</time>
      </trkpt>
      <trkpt lat="46.63256" lon="5.28103">
        <ele>190.8</ele>
        <time>2022-06-25T07:02:13Z</time>
      </trkpt>
      <trkpt lat="46.63253" lon="5.28101">
        <ele>191.2</ele>
        <time>2022-06-25T07:02:14Z</time>
      </trkpt>
      <trkpt lat="46.6325" lon="5.28098">
        <ele>191.2</ele>
        <time>2022-06-25T07:02:15Z</time>
      </trkpt>
      <trkpt lat="46.63247" lon="5.28095">
        <ele>191.2</ele>
        <time>2022-06-25T07:02:16Z</time>
      </trkpt>
      <trkpt lat="46.63244" lon="5.28092">
        <ele>191.2</ele>
        <time>2022-06-25T07:02:17Z</time>
      </trkpt>
      <trkpt lat="46.63241" lon="5.28089">
        <ele>191.4</ele>
        <time>2022-06-25T07:02:18Z</time>
      </trkpt>
      <trkpt lat="46.63238" lon="5.28086">
        <ele>191.4</ele>
        <time>2022-06-25T07:02:19Z</time>
      </trkpt>
      <trkpt lat="46.63235" lon="5.28082">
        <ele>191.4</ele>
        <time>2022-06-25T07:02:20Z</time>
      </trkpt>
      <trkpt lat="46.63231" lon="5.28078">
        <ele>191.4</ele>
        <time>2022-06-25T07:02:21Z</time>
      </trkpt>
      <trkpt lat="46.63227" lon="5.28074">
        <ele>191.4</ele>
        <time>2022-06-25T07:02:22Z</time>
      </trkpt>
      <trkpt lat="46.63223" lon="5.28069">
        <ele>191.4</ele>
        <time>2022-06-25T07:02:23Z</time>
      </trkpt>
      <trkpt lat="46.63219" lon="5.28064">
        <ele>191.4</ele>
        <time>2022-06-25T07:02:24Z</time>
      </trkpt>
      <trkpt lat="46.63215" lon="5.2806">
        <ele>191.4</ele>
        <time>2022-06-25T07:02:25Z</time>
      </trkpt>
      <trkpt lat="46.63212" lon="5.28055">
        <ele>191.4</ele>
        <time>2022-06-25T07:02:26Z</time>
      </trkpt>
      <trkpt lat="46.63209" lon="5.28052">
        <ele>191.4</ele>
        <time>2022-06-25T07:02:27Z</time>
      </trkpt>
      <trkpt lat="46.63206" lon="5.28047">
        <ele>191.4</ele>
        <time>2022-06-25T07:02:28Z</time>
      </trkpt>
      <trkpt lat="46.63203" lon="5.28042">
        <ele>191.4</ele>
        <time>2022-06-25T07:02:29Z</time>
      </trkpt>
      <trkpt lat="46.63199" lon="5.28038">
        <ele>191.6</ele>
        <time>2022-06-25T07:02:30Z</time>
      </trkpt>
      <trkpt lat="46.63196" lon="5.28033">
        <ele>191.6</ele>
        <time>2022-06-25T07:02:31Z</time>
      </trkpt>
      <trkpt lat="46.63193" lon="5.28028">
        <ele>191.6</ele>
        <time>2022-06-25T07:02:32Z</time>
      </trkpt>
      <trkpt lat="46.63189" lon="5.28022">
        <ele>191.6</ele>
        <time>2022-06-25T07:02:33Z</time>
      </trkpt>
      <trkpt lat="46.63185" lon="5.28016">
        <ele>191.8</ele>
        <time>2022-06-25T07:02:34Z</time>
      </trkpt>
      <trkpt lat="46.63181" lon="5.28011">
        <ele>191.8</ele>
        <time>2022-06-25T07:02:35Z</time>
      </trkpt>
      <trkpt lat="46.63177" lon="5.28005">
        <ele>191.8</ele>
        <time>2022-06-25T07:02:36Z</time>
      </trkpt>
      <trkpt lat="46.63174" lon="5.28">
        <ele>191.8</ele>
        <time>2022-06-25T07:02:37Z</time>
      </trkpt>
      <trkpt lat="46.6317" lon="5.27994">
        <ele>191.8</ele>
        <time>2022-06-25T07:02:38Z</time>
      </trkpt>
      <trkpt lat="46.63167" lon="5.27988">
        <ele>191.8</ele>
        <time>2022-06-25T07:02:39Z</time>
      </trkpt>
      <trkpt lat="46.63162" lon="5.27982">
        <ele>191.8</ele>
        <time>2022-06-25T07:02:40Z</time>
      </trkpt>
      <trkpt lat="46.63159" lon="5.27977">
        <ele>191.8</ele>
        <time>2022-06-25T07:02:41Z</time>
      </trkpt>
      <trkpt lat="46.63156" lon="5.27972">
        <ele>191.8</ele>
        <time>2022-06-25T07:02:42Z</time>
      </trkpt>
      <trkpt lat="46.63153" lon="5.27966">
        <ele>191.8</ele>
        <time>2022-06-25T07:02:43Z</time>
      </trkpt>
      <trkpt lat="46.6315" lon="5.2796">
        <ele>191.8</ele>
        <time>2022-06-25T07:02:44Z</time>
      </trkpt>
      <trkpt lat="46.63147" lon="5.27954">
        <ele>192</ele>
        <time>2022-06-25T07:02:45Z</time>
      </trkpt>
      <trkpt lat="46.63144" lon="5.27948">
        <ele>192</ele>
        <time>2022-06-25T07:02:46Z</time>
      </trkpt>
      <trkpt lat="46.63141" lon="5.27942">
        <ele>192</ele>
        <time>2022-06-25T07:02:47Z</time>
      </trkpt>
      <trkpt lat="46.63138" lon="5.27936">
        <ele>192</ele>
        <time>2022-06-25T07:02:48Z</time>
      </trkpt>
      <trkpt lat="46.63135" lon="5.2793">
        <ele>192.2</ele>
        <time>2022-06-25T07:02:49Z</time>
      </trkpt>
      <trkpt lat="46.63132" lon="5.27923">
        <ele>192.2</ele>
        <time>2022-06-25T07:02:50Z</time>
      </trkpt>
      <trkpt lat="46.63129" lon="5.27917">
        <ele>192.2</ele>
        <time>2022-06-25T07:02:51Z</time>
      </trkpt>
      <trkpt lat="46.63127" lon="5.27911">
        <ele>192.2</ele>
        <time>2022-06-25T07:02:52Z</time>
      </trkpt>
      <trkpt lat="46.63124" lon="5.27905">
        <ele>192.2</ele>
        <time>2022-06-25T07:02:53Z</time>
      </trkpt>
      <trkpt lat="46.63122" lon="5.27899">
        <ele>192.2</ele>
        <time>2022-06-25T07:02:54Z</time>
      </trkpt>
      <trkpt lat="46.63119" lon="5.27893">
        <ele>192.4</ele>
        <time>2022-06-25T07:02:55Z</time>
      </trkpt>
      <trkpt lat="46.63116" lon="5.27886">
        <ele>192.4</ele>
        <time>2022-06-25T07:02:56Z</time>
      </trkpt>
      <trkpt lat="46.63113" lon="5.2788">
        <ele>192.4</ele>
        <time>2022-06-25T07:02:57Z</time>
      </trkpt>
      <trkpt lat="46.63111" lon="5.27873">
        <ele>192.4</ele>
        <time>2022-06-25T07:02:58Z</time>
      </trkpt>
      <trkpt lat="46.63109" lon="5.27867">
        <ele>192.4</ele>
        <time>2022-06-25T07:02:59Z</time>
      </trkpt>
      <trkpt lat="46.63106" lon="5.27859">
        <ele>192.4</ele>
        <time>2022-06-25T07:03:00Z</time>
      </trkpt>
      <trkpt lat="46.63103" lon="5.2785">
        <ele>192.4</ele>
        <time>2022-06-25T07:03:01Z</time>
      </trkpt>
      <trkpt lat="46.631" lon="5.27842">
        <ele>192.4</ele>
        <time>2022-06-25T07:03:02Z</time>
      </trkpt>
      <trkpt lat="46.63097" lon="5.27834">
        <ele>192.4</ele>
        <time>2022-06-25T07:03:03Z</time>
      </trkpt>
      <trkpt lat="46.63095" lon="5.27826">
        <ele>192.4</ele>
        <time>2022-06-25T07:03:04Z</time>
      </trkpt>
      <trkpt lat="46.63092" lon="5.27818">
        <ele>192.2</ele>
        <time>2022-06-25T07:03:05Z</time>
      </trkpt>
      <trkpt lat="46.6309" lon="5.2781">
        <ele>192.2</ele>
        <time>2022-06-25T07:03:06Z</time>
      </trkpt>
      <trkpt lat="46.63087" lon="5.27802">
        <ele>192</ele>
        <time>2022-06-25T07:03:07Z</time>
      </trkpt>
      <trkpt lat="46.63085" lon="5.27794">
        <ele>192</ele>
        <time>2022-06-25T07:03:08Z</time>
      </trkpt>
      <trkpt lat="46.63082" lon="5.27786">
        <ele>191.8</ele>
        <time>2022-06-25T07:03:09Z</time>
      </trkpt>
      <trkpt lat="46.6308" lon="5.27777">
        <ele>191.8</ele>
        <time>2022-06-25T07:03:10Z</time>
      </trkpt>
      <trkpt lat="46.63078" lon="5.27768">
        <ele>191.8</ele>
        <time>2022-06-25T07:03:11Z</time>
      </trkpt>
      <trkpt lat="46.63076" lon="5.2776">
        <ele>191.4</ele>
        <time>2022-06-25T07:03:12Z</time>
      </trkpt>
      <trkpt lat="46.63074" lon="5.27752">
        <ele>191.4</ele>
        <time>2022-06-25T07:03:13Z</time>
      </trkpt>
      <trkpt lat="46.63071" lon="5.27744">
        <ele>191.4</ele>
        <time>2022-06-25T07:03:14Z</time>
      </trkpt>
      <trkpt lat="46.63069" lon="5.27736">
        <ele>191.4</ele>
        <time>2022-06-25T07:03:15Z</time>
      </trkpt>
      <trkpt lat="46.63067" lon="5.27728">
        <ele>191.4</ele>
        <time>2022-06-25T07:03:16Z</time>
      </trkpt>
      <trkpt lat="46.63065" lon="5.27721">
        <ele>191.4</ele>
        <time>2022-06-25T07:03:17Z</time>
      </trkpt>
      <trkpt lat="46.63063" lon="5.27713">
        <ele>191.4</ele>
        <time>2022-06-25T07:03:18Z</time>
      </trkpt>
      <trkpt lat="46.63062" lon="5.27707">
        <ele>191.4</ele>
        <time>2022-06-25T07:03:19Z</time>
      </trkpt>
      <trkpt lat="46.6306" lon="5.277">
        <ele>191.4</ele>
        <time>2022-06-25T07:03:20Z</time>
      </trkpt>
      <trkpt lat="46.63058" lon="5.27693">
        <ele>191.4</ele>
        <time>2022-06-25T07:03:21Z</time>
      </trkpt>
      <trkpt lat="46.63055" lon="5.27686">
        <ele>191.4</ele>
        <time>2022-06-25T07:03:22Z</time>
      </trkpt>
      <trkpt lat="46.63053" lon="5.27679">
        <ele>191.4</ele>
        <time>2022-06-25T07:03:23Z</time>
      </trkpt>
      <trkpt lat="46.63051" lon="5.27672">
        <ele>191.4</ele>
        <time>2022-06-25T07:03:24Z</time>
      </trkpt>
      <trkpt lat="46.6305" lon="5.27665">
        <ele>191.4</ele>
        <time>2022-06-25T07:03:25Z</time>
      </trkpt>
      <trkpt lat="46.63048" lon="5.27659">
        <ele>191.4</ele>
        <time>2022-06-25T07:03:26Z</time>
      </trkpt>
      <trkpt lat="46.63046" lon="5.27651">
        <ele>191.4</ele>
        <time>2022-06-25T07:03:27Z</time>
      </trkpt>
      <trkpt lat="46.63043" lon="5.27644">
        <ele>191.2</ele>
        <time>2022-06-25T07:03:28Z</time>
      </trkpt>
      <trkpt lat="46.63041" lon="5.27638">
        <ele>191.2</ele>
        <time>2022-06-25T07:03:29Z</time>
      </trkpt>
      <trkpt lat="46.63038" lon="5.27632">
        <ele>191.2</ele>
        <time>2022-06-25T07:03:30Z</time>
      </trkpt>
      <trkpt lat="46.63035" lon="5.27625">
        <ele>191.2</ele>
        <time>2022-06-25T07:03:31Z</time>
      </trkpt>
      <trkpt lat="46.63033" lon="5.27619">
        <ele>191.2</ele>
        <time>2022-06-25T07:03:32Z</time>
      </trkpt>
      <trkpt lat="46.63032" lon="5.27613">
        <ele>191.2</ele>
        <time>2022-06-25T07:03:33Z</time>
      </trkpt>
      <trkpt lat="46.63031" lon="5.27608">
        <ele>191</ele>
        <time>2022-06-25T07:03:34Z</time>
      </trkpt>
      <trkpt lat="46.63029" lon="5.27603">
        <ele>191</ele>
        <time>2022-06-25T07:03:35Z</time>
      </trkpt>
      <trkpt lat="46.63027" lon="5.27598">
        <ele>191</ele>
        <time>2022-06-25T07:03:36Z</time>
      </trkpt>
      <trkpt lat="46.63024" lon="5.27592">
        <ele>190.8</ele>
        <time>2022-06-25T07:03:37Z</time>
      </trkpt>
      <trkpt lat="46.63021" lon="5.27586">
        <ele>190.8</ele>
        <time>2022-06-25T07:03:38Z</time>
      </trkpt>
      <trkpt lat="46.63019" lon="5.27578">
        <ele>190.8</ele>
        <time>2022-06-25T07:03:39Z</time>
      </trkpt>
      <trkpt lat="46.63017" lon="5.2757">
        <ele>190.8</ele>
        <time>2022-06-25T07:03:40Z</time>
      </trkpt>
      <trkpt lat="46.63016" lon="5.27564">
        <ele>190.8</ele>
        <time>2022-06-25T07:03:41Z</time>
      </trkpt>
      <trkpt lat="46.63014" lon="5.27556">
        <ele>190.8</ele>
        <time>2022-06-25T07:03:42Z</time>
      </trkpt>
      <trkpt lat="46.63012" lon="5.2755">
        <ele>190.8</ele>
        <time>2022-06-25T07:03:43Z</time>
      </trkpt>
      <trkpt lat="46.63008" lon="5.27542">
        <ele>190.8</ele>
        <time>2022-06-25T07:03:44Z</time>
      </trkpt>
      <trkpt lat="46.63004" lon="5.27535">
        <ele>190.8</ele>
        <time>2022-06-25T07:03:45Z</time>
      </trkpt>
      <trkpt lat="46.62996" lon="5.2752">
        <ele>190.8</ele>
        <time>2022-06-25T07:03:46Z</time>
      </trkpt>
      <trkpt lat="46.62992" lon="5.27514">
        <ele>190.6</ele>
        <time>2022-06-25T07:03:47Z</time>
      </trkpt>
      <trkpt lat="46.62989" lon="5.27507">
        <ele>190.6</ele>
        <time>2022-06-25T07:03:48Z</time>
      </trkpt>
      <trkpt lat="46.62984" lon="5.27499">
        <ele>190.6</ele>
        <time>2022-06-25T07:03:49Z</time>
      </trkpt>
      <trkpt lat="46.62981" lon="5.27492">
        <ele>190.6</ele>
        <time>2022-06-25T07:03:50Z</time>
      </trkpt>
      <trkpt lat="46.62978" lon="5.27485">
        <ele>190.6</ele>
        <time>2022-06-25T07:03:51Z</time>
      </trkpt>
      <trkpt lat="46.62975" lon="5.27479">
        <ele>190.6</ele>
        <time>2022-06-25T07:03:52Z</time>
      </trkpt>
      <trkpt lat="46.62972" lon="5.27471">
        <ele>190.6</ele>
        <time>2022-06-25T07:03:53Z</time>
      </trkpt>
      <trkpt lat="46.62968" lon="5.27463">
        <ele>190.6</ele>
        <time>2022-06-25T07:03:54Z</time>
      </trkpt>
      <trkpt lat="46.62965" lon="5.27456">
        <ele>190.6</ele>
        <time>2022-06-25T07:03:55Z</time>
      </trkpt>
      <trkpt lat="46.62961" lon="5.27449">
        <ele>190.6</ele>
        <time>2022-06-25T07:03:56Z</time>
      </trkpt>
      <trkpt lat="46.62957" lon="5.27443">
        <ele>190.6</ele>
        <time>2022-06-25T07:03:57Z</time>
      </trkpt>
      <trkpt lat="46.62954" lon="5.27438">
        <ele>190.6</ele>
        <time>2022-06-25T07:03:58Z</time>
      </trkpt>
      <trkpt lat="46.62951" lon="5.27434">
        <ele>190.6</ele>
        <time>2022-06-25T07:03:59Z</time>
      </trkpt>
      <trkpt lat="46.62948" lon="5.27427">
        <ele>190.6</ele>
        <time>2022-06-25T07:04:00Z</time>
      </trkpt>
      <trkpt lat="46.62944" lon="5.27422">
        <ele>190.6</ele>
        <time>2022-06-25T07:04:01Z</time>
      </trkpt>
      <trkpt lat="46.6294" lon="5.27416">
        <ele>190.6</ele>
        <time>2022-06-25T07:04:02Z</time>
      </trkpt>
      <trkpt lat="46.62937" lon="5.27411">
        <ele>190.6</ele>
        <time>2022-06-25T07:04:03Z</time>
      </trkpt>
      <trkpt lat="46.62935" lon="5.27405">
        <ele>190.6</ele>
        <time>2022-06-25T07:04:04Z</time>
      </trkpt>
      <trkpt lat="46.62931" lon="5.27399">
        <ele>190.6</ele>
        <time>2022-06-25T07:04:05Z</time>
      </trkpt>
      <trkpt lat="46.62927" lon="5.27393">
        <ele>190.6</ele>
        <time>2022-06-25T07:04:06Z</time>
      </trkpt>
      <trkpt lat="46.62923" lon="5.27388">
        <ele>190.6</ele>
        <time>2022-06-25T07:04:07Z</time>
      </trkpt>
      <trkpt lat="46.62918" lon="5.27381">
        <ele>190.6</ele>
        <time>2022-06-25T07:04:08Z</time>
      </trkpt>
      <trkpt lat="46.62914" lon="5.27375">
        <ele>190.6</ele>
        <time>2022-06-25T07:04:09Z</time>
      </trkpt>
      <trkpt lat="46.62909" lon="5.2737">
        <ele>190.6</ele>
        <time>2022-06-25T07:04:10Z</time>
      </trkpt>
      <trkpt lat="46.62904" lon="5.27362">
        <ele>190.6</ele>
        <time>2022-06-25T07:04:11Z</time>
      </trkpt>
      <trkpt lat="46.629" lon="5.27357">
        <ele>190.6</ele>
        <time>2022-06-25T07:04:12Z</time>
      </trkpt>
      <trkpt lat="46.62896" lon="5.2735">
        <ele>190.6</ele>
        <time>2022-06-25T07:04:13Z</time>
      </trkpt>
      <trkpt lat="46.6289" lon="5.27343">
        <ele>190.6</ele>
        <time>2022-06-25T07:04:14Z</time>
      </trkpt>
      <trkpt lat="46.62883" lon="5.27332">
        <ele>190.6</ele>
        <time>2022-06-25T07:04:15Z</time>
      </trkpt>
      <trkpt lat="46.62878" lon="5.27325">
        <ele>190.6</ele>
        <time>2022-06-25T07:04:16Z</time>
      </trkpt>
      <trkpt lat="46.62874" lon="5.27319">
        <ele>190.6</ele>
        <time>2022-06-25T07:04:17Z</time>
      </trkpt>
      <trkpt lat="46.62868" lon="5.27311">
        <ele>190.6</ele>
        <time>2022-06-25T07:04:18Z</time>
      </trkpt>
      <trkpt lat="46.62862" lon="5.27306">
        <ele>190.6</ele>
        <time>2022-06-25T07:04:19Z</time>
      </trkpt>
      <trkpt lat="46.62855" lon="5.27299">
        <ele>190.8</ele>
        <time>2022-06-25T07:04:20Z</time>
      </trkpt>
      <trkpt lat="46.62849" lon="5.27293">
        <ele>190.8</ele>
        <time>2022-06-25T07:04:21Z</time>
      </trkpt>
      <trkpt lat="46.62843" lon="5.27287">
        <ele>190.8</ele>
        <time>2022-06-25T07:04:22Z</time>
      </trkpt>
      <trkpt lat="46.62837" lon="5.2728">
        <ele>190.8</ele>
        <time>2022-06-25T07:04:23Z</time>
      </trkpt>
      <trkpt lat="46.62831" lon="5.27274">
        <ele>190.8</ele>
        <time>2022-06-25T07:04:24Z</time>
      </trkpt>
      <trkpt lat="46.62826" lon="5.27268">
        <ele>190.8</ele>
        <time>2022-06-25T07:04:25Z</time>
      </trkpt>
      <trkpt lat="46.6282" lon="5.27262">
        <ele>190.8</ele>
        <time>2022-06-25T07:04:26Z</time>
      </trkpt>
      <trkpt lat="46.62816" lon="5.27256">
        <ele>190.8</ele>
        <time>2022-06-25T07:04:27Z</time>
      </trkpt>
      <trkpt lat="46.62811" lon="5.27249">
        <ele>190.8</ele>
        <time>2022-06-25T07:04:28Z</time>
      </trkpt>
      <trkpt lat="46.62806" lon="5.27243">
        <ele>190.8</ele>
        <time>2022-06-25T07:04:29Z</time>
      </trkpt>
      <trkpt lat="46.62803" lon="5.27236">
        <ele>190.8</ele>
        <time>2022-06-25T07:04:30Z</time>
      </trkpt>
      <trkpt lat="46.62798" lon="5.27229">
        <ele>190.8</ele>
        <time>2022-06-25T07:04:31Z</time>
      </trkpt>
      <trkpt lat="46.62793" lon="5.27221">
        <ele>190.8</ele>
        <time>2022-06-25T07:04:32Z</time>
      </trkpt>
      <trkpt lat="46.62788" lon="5.27213">
        <ele>190.8</ele>
        <time>2022-06-25T07:04:33Z</time>
      </trkpt>
      <trkpt lat="46.62783" lon="5.27206">
        <ele>190.8</ele>
        <time>2022-06-25T07:04:34Z</time>
      </trkpt>
      <trkpt lat="46.62778" lon="5.27197">
        <ele>190.8</ele>
        <time>2022-06-25T07:04:35Z</time>
      </trkpt>
      <trkpt lat="46.62772" lon="5.27187">
        <ele>190.8</ele>
        <time>2022-06-25T07:04:36Z</time>
      </trkpt>
      <trkpt lat="46.62763" lon="5.2717">
        <ele>190.8</ele>
        <time>2022-06-25T07:04:37Z</time>
      </trkpt>
      <trkpt lat="46.62759" lon="5.27162">
        <ele>190.8</ele>
        <time>2022-06-25T07:04:38Z</time>
      </trkpt>
      <trkpt lat="46.62755" lon="5.27154">
        <ele>190.8</ele>
        <time>2022-06-25T07:04:39Z</time>
      </trkpt>
      <trkpt lat="46.62752" lon="5.27148">
        <ele>190.8</ele>
        <time>2022-06-25T07:04:40Z</time>
      </trkpt>
      <trkpt lat="46.62749" lon="5.27142">
        <ele>190.8</ele>
        <time>2022-06-25T07:04:41Z</time>
      </trkpt>
      <trkpt lat="46.62746" lon="5.27136">
        <ele>191</ele>
        <time>2022-06-25T07:04:42Z</time>
      </trkpt>
      <trkpt lat="46.62743" lon="5.2713">
        <ele>191</ele>
        <time>2022-06-25T07:04:43Z</time>
      </trkpt>
      <trkpt lat="46.6274" lon="5.27124">
        <ele>191</ele>
        <time>2022-06-25T07:04:44Z</time>
      </trkpt>
      <trkpt lat="46.62737" lon="5.27117">
        <ele>191</ele>
        <time>2022-06-25T07:04:45Z</time>
      </trkpt>
      <trkpt lat="46.62734" lon="5.27111">
        <ele>191</ele>
        <time>2022-06-25T07:04:46Z</time>
      </trkpt>
      <trkpt lat="46.6273" lon="5.27105">
        <ele>191</ele>
        <time>2022-06-25T07:04:47Z</time>
      </trkpt>
      <trkpt lat="46.62727" lon="5.27098">
        <ele>191</ele>
        <time>2022-06-25T07:04:48Z</time>
      </trkpt>
      <trkpt lat="46.62724" lon="5.27093">
        <ele>191</ele>
        <time>2022-06-25T07:04:49Z</time>
      </trkpt>
      <trkpt lat="46.62722" lon="5.27088">
        <ele>191</ele>
        <time>2022-06-25T07:04:50Z</time>
      </trkpt>
      <trkpt lat="46.62719" lon="5.27082">
        <ele>191</ele>
        <time>2022-06-25T07:04:51Z</time>
      </trkpt>
      <trkpt lat="46.62716" lon="5.27076">
        <ele>191</ele>
        <time>2022-06-25T07:04:52Z</time>
      </trkpt>
      <trkpt lat="46.62712" lon="5.2707">
        <ele>191.2</ele>
        <time>2022-06-25T07:04:53Z</time>
      </trkpt>
      <trkpt lat="46.62709" lon="5.27064">
        <ele>191.2</ele>
        <time>2022-06-25T07:04:54Z</time>
      </trkpt>
      <trkpt lat="46.62705" lon="5.27057">
        <ele>191.2</ele>
        <time>2022-06-25T07:04:55Z</time>
      </trkpt>
      <trkpt lat="46.62702" lon="5.27051">
        <ele>191.2</ele>
        <time>2022-06-25T07:04:56Z</time>
      </trkpt>
      <trkpt lat="46.62699" lon="5.27046">
        <ele>191.2</ele>
        <time>2022-06-25T07:04:57Z</time>
      </trkpt>
      <trkpt lat="46.62697" lon="5.2704">
        <ele>191.4</ele>
        <time>2022-06-25T07:04:58Z</time>
      </trkpt>
      <trkpt lat="46.62694" lon="5.27033">
        <ele>191.4</ele>
        <time>2022-06-25T07:04:59Z</time>
      </trkpt>
      <trkpt lat="46.62691" lon="5.27027">
        <ele>191.4</ele>
        <time>2022-06-25T07:05:00Z</time>
      </trkpt>
      <trkpt lat="46.62688" lon="5.27018">
        <ele>191.4</ele>
        <time>2022-06-25T07:05:01Z</time>
      </trkpt>
      <trkpt lat="46.62685" lon="5.2701">
        <ele>191.4</ele>
        <time>2022-06-25T07:05:02Z</time>
      </trkpt>
      <trkpt lat="46.62682" lon="5.27002">
        <ele>191.6</ele>
        <time>2022-06-25T07:05:03Z</time>
      </trkpt>
      <trkpt lat="46.62679" lon="5.26995">
        <ele>191.6</ele>
        <time>2022-06-25T07:05:04Z</time>
      </trkpt>
      <trkpt lat="46.62676" lon="5.26988">
        <ele>191.6</ele>
        <time>2022-06-25T07:05:05Z</time>
      </trkpt>
      <trkpt lat="46.62673" lon="5.26981">
        <ele>191.6</ele>
        <time>2022-06-25T07:05:06Z</time>
      </trkpt>
      <trkpt lat="46.62669" lon="5.26974">
        <ele>191.6</ele>
        <time>2022-06-25T07:05:07Z</time>
      </trkpt>
      <trkpt lat="46.62666" lon="5.26968">
        <ele>191.6</ele>
        <time>2022-06-25T07:05:08Z</time>
      </trkpt>
      <trkpt lat="46.62663" lon="5.26963">
        <ele>191.6</ele>
        <time>2022-06-25T07:05:09Z</time>
      </trkpt>
      <trkpt lat="46.62661" lon="5.26958">
        <ele>191.6</ele>
        <time>2022-06-25T07:05:10Z</time>
      </trkpt>
      <trkpt lat="46.62658" lon="5.26954">
        <ele>191.6</ele>
        <time>2022-06-25T07:05:11Z</time>
      </trkpt>
      <trkpt lat="46.62656" lon="5.26949">
        <ele>191.6</ele>
        <time>2022-06-25T07:05:12Z</time>
      </trkpt>
      <trkpt lat="46.62654" lon="5.26945">
        <ele>191.6</ele>
        <time>2022-06-25T07:05:13Z</time>
      </trkpt>
      <trkpt lat="46.62653" lon="5.26941">
        <ele>191.6</ele>
        <time>2022-06-25T07:05:14Z</time>
      </trkpt>
      <trkpt lat="46.62651" lon="5.26937">
        <ele>191.6</ele>
        <time>2022-06-25T07:05:15Z</time>
      </trkpt>
      <trkpt lat="46.62649" lon="5.26933">
        <ele>191.8</ele>
        <time>2022-06-25T07:05:16Z</time>
      </trkpt>
      <trkpt lat="46.62647" lon="5.26927">
        <ele>191.8</ele>
        <time>2022-06-25T07:05:17Z</time>
      </trkpt>
      <trkpt lat="46.62644" lon="5.26923">
        <ele>191.8</ele>
        <time>2022-06-25T07:05:18Z</time>
      </trkpt>
      <trkpt lat="46.62641" lon="5.26917">
        <ele>191.8</ele>
        <time>2022-06-25T07:05:19Z</time>
      </trkpt>
      <trkpt lat="46.62639" lon="5.26912">
        <ele>191.8</ele>
        <time>2022-06-25T07:05:20Z</time>
      </trkpt>
      <trkpt lat="46.62637" lon="5.26906">
        <ele>191.8</ele>
        <time>2022-06-25T07:05:21Z</time>
      </trkpt>
      <trkpt lat="46.62634" lon="5.26901">
        <ele>191.8</ele>
        <time>2022-06-25T07:05:22Z</time>
      </trkpt>
      <trkpt lat="46.62632" lon="5.26894">
        <ele>191.8</ele>
        <time>2022-06-25T07:05:23Z</time>
      </trkpt>
      <trkpt lat="46.62629" lon="5.26887">
        <ele>191.8</ele>
        <time>2022-06-25T07:05:24Z</time>
      </trkpt>
      <trkpt lat="46.62627" lon="5.26879">
        <ele>192</ele>
        <time>2022-06-25T07:05:25Z</time>
      </trkpt>
      <trkpt lat="46.62624" lon="5.26872">
        <ele>192</ele>
        <time>2022-06-25T07:05:26Z</time>
      </trkpt>
      <trkpt lat="46.62621" lon="5.26865">
        <ele>192</ele>
        <time>2022-06-25T07:05:27Z</time>
      </trkpt>
      <trkpt lat="46.62619" lon="5.26858">
        <ele>192</ele>
        <time>2022-06-25T07:05:28Z</time>
      </trkpt>
      <trkpt lat="46.62616" lon="5.26851">
        <ele>192</ele>
        <time>2022-06-25T07:05:29Z</time>
      </trkpt>
      <trkpt lat="46.62614" lon="5.26844">
        <ele>192</ele>
        <time>2022-06-25T07:05:30Z</time>
      </trkpt>
      <trkpt lat="46.62612" lon="5.26837">
        <ele>192</ele>
        <time>2022-06-25T07:05:31Z</time>
      </trkpt>
      <trkpt lat="46.6261" lon="5.26829">
        <ele>192.4</ele>
        <time>2022-06-25T07:05:32Z</time>
      </trkpt>
      <trkpt lat="46.62608" lon="5.26821">
        <ele>192.4</ele>
        <time>2022-06-25T07:05:33Z</time>
      </trkpt>
      <trkpt lat="46.62605" lon="5.26813">
        <ele>192.4</ele>
        <time>2022-06-25T07:05:34Z</time>
      </trkpt>
      <trkpt lat="46.62604" lon="5.26805">
        <ele>192.6</ele>
        <time>2022-06-25T07:05:35Z</time>
      </trkpt>
      <trkpt lat="46.62602" lon="5.26799">
        <ele>192.6</ele>
        <time>2022-06-25T07:05:36Z</time>
      </trkpt>
      <trkpt lat="46.626" lon="5.26792">
        <ele>192.6</ele>
        <time>2022-06-25T07:05:37Z</time>
      </trkpt>
      <trkpt lat="46.62599" lon="5.26785">
        <ele>192.6</ele>
        <time>2022-06-25T07:05:38Z</time>
      </trkpt>
      <trkpt lat="46.62598" lon="5.26778">
        <ele>192.8</ele>
        <time>2022-06-25T07:05:39Z</time>
      </trkpt>
      <trkpt lat="46.62596" lon="5.26771">
        <ele>192.8</ele>
        <time>2022-06-25T07:05:40Z</time>
      </trkpt>
      <trkpt lat="46.62594" lon="5.26764">
        <ele>192.8</ele>
        <time>2022-06-25T07:05:41Z</time>
      </trkpt>
      <trkpt lat="46.62593" lon="5.26756">
        <ele>192.8</ele>
        <time>2022-06-25T07:05:42Z</time>
      </trkpt>
      <trkpt lat="46.62591" lon="5.26747">
        <ele>192.8</ele>
        <time>2022-06-25T07:05:43Z</time>
      </trkpt>
      <trkpt lat="46.62589" lon="5.26738">
        <ele>192.8</ele>
        <time>2022-06-25T07:05:44Z</time>
      </trkpt>
      <trkpt lat="46.62587" lon="5.2673">
        <ele>192.8</ele>
        <time>2022-06-25T07:05:45Z</time>
      </trkpt>
      <trkpt lat="46.62586" lon="5.26722">
        <ele>192.8</ele>
        <time>2022-06-25T07:05:46Z</time>
      </trkpt>
      <trkpt lat="46.62584" lon="5.26713">
        <ele>192.8</ele>
        <time>2022-06-25T07:05:47Z</time>
      </trkpt>
      <trkpt lat="46.62583" lon="5.26705">
        <ele>193</ele>
        <time>2022-06-25T07:05:48Z</time>
      </trkpt>
      <trkpt lat="46.62582" lon="5.26696">
        <ele>193</ele>
        <time>2022-06-25T07:05:49Z</time>
      </trkpt>
      <trkpt lat="46.62581" lon="5.26687">
        <ele>193</ele>
        <time>2022-06-25T07:05:50Z</time>
      </trkpt>
      <trkpt lat="46.6258" lon="5.26678">
        <ele>193</ele>
        <time>2022-06-25T07:05:51Z</time>
      </trkpt>
      <trkpt lat="46.62579" lon="5.26668">
        <ele>193</ele>
        <time>2022-06-25T07:05:52Z</time>
      </trkpt>
      <trkpt lat="46.62577" lon="5.26659">
        <ele>193</ele>
        <time>2022-06-25T07:05:53Z</time>
      </trkpt>
      <trkpt lat="46.62576" lon="5.2665">
        <ele>193</ele>
        <time>2022-06-25T07:05:54Z</time>
      </trkpt>
      <trkpt lat="46.62574" lon="5.26642">
        <ele>193</ele>
        <time>2022-06-25T07:05:55Z</time>
      </trkpt>
      <trkpt lat="46.62574" lon="5.26634">
        <ele>193</ele>
        <time>2022-06-25T07:05:56Z</time>
      </trkpt>
      <trkpt lat="46.62573" lon="5.26626">
        <ele>193.2</ele>
        <time>2022-06-25T07:05:57Z</time>
      </trkpt>
      <trkpt lat="46.62573" lon="5.26617">
        <ele>193.2</ele>
        <time>2022-06-25T07:05:58Z</time>
      </trkpt>
      <trkpt lat="46.62573" lon="5.26609">
        <ele>193.2</ele>
        <time>2022-06-25T07:05:59Z</time>
      </trkpt>
      <trkpt lat="46.62573" lon="5.26601">
        <ele>193.2</ele>
        <time>2022-06-25T07:06:00Z</time>
      </trkpt>
      <trkpt lat="46.62573" lon="5.26593">
        <ele>193.2</ele>
        <time>2022-06-25T07:06:01Z</time>
      </trkpt>
      <trkpt lat="46.62573" lon="5.26584">
        <ele>193.2</ele>
        <time>2022-06-25T07:06:02Z</time>
      </trkpt>
      <trkpt lat="46.62574" lon="5.26575">
        <ele>193.2</ele>
        <time>2022-06-25T07:06:03Z</time>
      </trkpt>
      <trkpt lat="46.62574" lon="5.26566">
        <ele>193.2</ele>
        <time>2022-06-25T07:06:04Z</time>
      </trkpt>
      <trkpt lat="46.62575" lon="5.26556">
        <ele>193.4</ele>
        <time>2022-06-25T07:06:05Z</time>
      </trkpt>
      <trkpt lat="46.62575" lon="5.26547">
        <ele>193.4</ele>
        <time>2022-06-25T07:06:06Z</time>
      </trkpt>
      <trkpt lat="46.62576" lon="5.26539">
        <ele>193.4</ele>
        <time>2022-06-25T07:06:07Z</time>
      </trkpt>
      <trkpt lat="46.62578" lon="5.2653">
        <ele>193.4</ele>
        <time>2022-06-25T07:06:08Z</time>
      </trkpt>
      <trkpt lat="46.62579" lon="5.26521">
        <ele>193.4</ele>
        <time>2022-06-25T07:06:09Z</time>
      </trkpt>
      <trkpt lat="46.6258" lon="5.26512">
        <ele>193.4</ele>
        <time>2022-06-25T07:06:10Z</time>
      </trkpt>
      <trkpt lat="46.62581" lon="5.26504">
        <ele>193.4</ele>
        <time>2022-06-25T07:06:11Z</time>
      </trkpt>
      <trkpt lat="46.62583" lon="5.26495">
        <ele>193.4</ele>
        <time>2022-06-25T07:06:12Z</time>
      </trkpt>
      <trkpt lat="46.62584" lon="5.26486">
        <ele>193.4</ele>
        <time>2022-06-25T07:06:13Z</time>
      </trkpt>
      <trkpt lat="46.62585" lon="5.26478">
        <ele>193.4</ele>
        <time>2022-06-25T07:06:14Z</time>
      </trkpt>
      <trkpt lat="46.62587" lon="5.26469">
        <ele>193.4</ele>
        <time>2022-06-25T07:06:15Z</time>
      </trkpt>
      <trkpt lat="46.62589" lon="5.26461">
        <ele>193.4</ele>
        <time>2022-06-25T07:06:16Z</time>
      </trkpt>
      <trkpt lat="46.62591" lon="5.26452">
        <ele>193.4</ele>
        <time>2022-06-25T07:06:17Z</time>
      </trkpt>
      <trkpt lat="46.62593" lon="5.26444">
        <ele>193.4</ele>
        <time>2022-06-25T07:06:18Z</time>
      </trkpt>
      <trkpt lat="46.62595" lon="5.26435">
        <ele>193.4</ele>
        <time>2022-06-25T07:06:19Z</time>
      </trkpt>
      <trkpt lat="46.62598" lon="5.26427">
        <ele>193.4</ele>
        <time>2022-06-25T07:06:20Z</time>
      </trkpt>
      <trkpt lat="46.626" lon="5.26419">
        <ele>193.4</ele>
        <time>2022-06-25T07:06:21Z</time>
      </trkpt>
      <trkpt lat="46.62603" lon="5.26411">
        <ele>193.4</ele>
        <time>2022-06-25T07:06:22Z</time>
      </trkpt>
      <trkpt lat="46.62605" lon="5.26402">
        <ele>193.2</ele>
        <time>2022-06-25T07:06:23Z</time>
      </trkpt>
      <trkpt lat="46.62607" lon="5.26394">
        <ele>193.2</ele>
        <time>2022-06-25T07:06:24Z</time>
      </trkpt>
      <trkpt lat="46.6261" lon="5.26385">
        <ele>193.2</ele>
        <time>2022-06-25T07:06:25Z</time>
      </trkpt>
      <trkpt lat="46.62613" lon="5.26377">
        <ele>193.2</ele>
        <time>2022-06-25T07:06:26Z</time>
      </trkpt>
      <trkpt lat="46.62615" lon="5.26369">
        <ele>193.2</ele>
        <time>2022-06-25T07:06:27Z</time>
      </trkpt>
      <trkpt lat="46.62618" lon="5.2636">
        <ele>193.2</ele>
        <time>2022-06-25T07:06:28Z</time>
      </trkpt>
      <trkpt lat="46.6262" lon="5.26352">
        <ele>193.2</ele>
        <time>2022-06-25T07:06:29Z</time>
      </trkpt>
      <trkpt lat="46.62623" lon="5.26344">
        <ele>193.2</ele>
        <time>2022-06-25T07:06:30Z</time>
      </trkpt>
      <trkpt lat="46.62626" lon="5.26336">
        <ele>193.2</ele>
        <time>2022-06-25T07:06:31Z</time>
      </trkpt>
      <trkpt lat="46.62629" lon="5.26328">
        <ele>193.2</ele>
        <time>2022-06-25T07:06:32Z</time>
      </trkpt>
      <trkpt lat="46.62632" lon="5.2632">
        <ele>193.2</ele>
        <time>2022-06-25T07:06:33Z</time>
      </trkpt>
      <trkpt lat="46.62635" lon="5.26312">
        <ele>193.2</ele>
        <time>2022-06-25T07:06:34Z</time>
      </trkpt>
      <trkpt lat="46.62638" lon="5.26304">
        <ele>193.2</ele>
        <time>2022-06-25T07:06:35Z</time>
      </trkpt>
      <trkpt lat="46.62641" lon="5.26296">
        <ele>193</ele>
        <time>2022-06-25T07:06:36Z</time>
      </trkpt>
      <trkpt lat="46.62645" lon="5.26289">
        <ele>193</ele>
        <time>2022-06-25T07:06:37Z</time>
      </trkpt>
      <trkpt lat="46.62649" lon="5.26281">
        <ele>193</ele>
        <time>2022-06-25T07:06:38Z</time>
      </trkpt>
      <trkpt lat="46.62653" lon="5.26273">
        <ele>193</ele>
        <time>2022-06-25T07:06:39Z</time>
      </trkpt>
      <trkpt lat="46.62657" lon="5.26266">
        <ele>193</ele>
        <time>2022-06-25T07:06:40Z</time>
      </trkpt>
      <trkpt lat="46.62661" lon="5.26259">
        <ele>193</ele>
        <time>2022-06-25T07:06:41Z</time>
      </trkpt>
      <trkpt lat="46.62666" lon="5.26251">
        <ele>193</ele>
        <time>2022-06-25T07:06:42Z</time>
      </trkpt>
      <trkpt lat="46.6267" lon="5.26244">
        <ele>193</ele>
        <time>2022-06-25T07:06:43Z</time>
      </trkpt>
      <trkpt lat="46.62674" lon="5.26238">
        <ele>192.8</ele>
        <time>2022-06-25T07:06:44Z</time>
      </trkpt>
      <trkpt lat="46.62679" lon="5.26231">
        <ele>192.8</ele>
        <time>2022-06-25T07:06:45Z</time>
      </trkpt>
      <trkpt lat="46.62683" lon="5.26224">
        <ele>192.8</ele>
        <time>2022-06-25T07:06:46Z</time>
      </trkpt>
      <trkpt lat="46.62688" lon="5.26217">
        <ele>192.8</ele>
        <time>2022-06-25T07:06:47Z</time>
      </trkpt>
      <trkpt lat="46.62692" lon="5.2621">
        <ele>192.8</ele>
        <time>2022-06-25T07:06:48Z</time>
      </trkpt>
      <trkpt lat="46.62697" lon="5.26203">
        <ele>192.8</ele>
        <time>2022-06-25T07:06:49Z</time>
      </trkpt>
      <trkpt lat="46.62701" lon="5.26196">
        <ele>192.6</ele>
        <time>2022-06-25T07:06:50Z</time>
      </trkpt>
      <trkpt lat="46.62706" lon="5.26189">
        <ele>192.6</ele>
        <time>2022-06-25T07:06:51Z</time>
      </trkpt>
      <trkpt lat="46.6271" lon="5.26182">
        <ele>192.6</ele>
        <time>2022-06-25T07:06:52Z</time>
      </trkpt>
      <trkpt lat="46.62714" lon="5.26175">
        <ele>192.4</ele>
        <time>2022-06-25T07:06:53Z</time>
      </trkpt>
      <trkpt lat="46.62718" lon="5.26167">
        <ele>192.4</ele>
        <time>2022-06-25T07:06:54Z</time>
      </trkpt>
      <trkpt lat="46.62723" lon="5.2616">
        <ele>192.4</ele>
        <time>2022-06-25T07:06:55Z</time>
      </trkpt>
      <trkpt lat="46.62727" lon="5.26152">
        <ele>192.2</ele>
        <time>2022-06-25T07:06:56Z</time>
      </trkpt>
      <trkpt lat="46.62731" lon="5.26144">
        <ele>192.2</ele>
        <time>2022-06-25T07:06:57Z</time>
      </trkpt>
      <trkpt lat="46.62735" lon="5.26136">
        <ele>191.8</ele>
        <time>2022-06-25T07:06:58Z</time>
      </trkpt>
      <trkpt lat="46.6274" lon="5.26129">
        <ele>191.8</ele>
        <time>2022-06-25T07:06:59Z</time>
      </trkpt>
      <trkpt lat="46.62744" lon="5.26121">
        <ele>191.8</ele>
        <time>2022-06-25T07:07:00Z</time>
      </trkpt>
      <trkpt lat="46.62748" lon="5.26112">
        <ele>191.8</ele>
        <time>2022-06-25T07:07:01Z</time>
      </trkpt>
      <trkpt lat="46.62751" lon="5.26104">
        <ele>191.6</ele>
        <time>2022-06-25T07:07:02Z</time>
      </trkpt>
      <trkpt lat="46.62755" lon="5.26095">
        <ele>191.6</ele>
        <time>2022-06-25T07:07:03Z</time>
      </trkpt>
      <trkpt lat="46.62759" lon="5.26086">
        <ele>191.6</ele>
        <time>2022-06-25T07:07:04Z</time>
      </trkpt>
      <trkpt lat="46.62762" lon="5.26077">
        <ele>191.6</ele>
        <time>2022-06-25T07:07:05Z</time>
      </trkpt>
      <trkpt lat="46.62765" lon="5.26068">
        <ele>191.6</ele>
        <time>2022-06-25T07:07:06Z</time>
      </trkpt>
      <trkpt lat="46.62768" lon="5.2606">
        <ele>191.6</ele>
        <time>2022-06-25T07:07:07Z</time>
      </trkpt>
      <trkpt lat="46.62772" lon="5.26051">
        <ele>191.6</ele>
        <time>2022-06-25T07:07:08Z</time>
      </trkpt>
      <trkpt lat="46.62775" lon="5.26042">
        <ele>191.6</ele>
        <time>2022-06-25T07:07:09Z</time>
      </trkpt>
      <trkpt lat="46.62778" lon="5.26034">
        <ele>191.6</ele>
        <time>2022-06-25T07:07:10Z</time>
      </trkpt>
      <trkpt lat="46.62781" lon="5.26026">
        <ele>191.6</ele>
        <time>2022-06-25T07:07:11Z</time>
      </trkpt>
      <trkpt lat="46.62784" lon="5.26018">
        <ele>191.6</ele>
        <time>2022-06-25T07:07:12Z</time>
      </trkpt>
      <trkpt lat="46.62787" lon="5.26011">
        <ele>191.6</ele>
        <time>2022-06-25T07:07:13Z</time>
      </trkpt>
      <trkpt lat="46.62789" lon="5.26003">
        <ele>191.6</ele>
        <time>2022-06-25T07:07:14Z</time>
      </trkpt>
      <trkpt lat="46.62791" lon="5.25996">
        <ele>191.6</ele>
        <time>2022-06-25T07:07:15Z</time>
      </trkpt>
      <trkpt lat="46.62793" lon="5.25987">
        <ele>191.6</ele>
        <time>2022-06-25T07:07:16Z</time>
      </trkpt>
      <trkpt lat="46.62795" lon="5.25978">
        <ele>191.6</ele>
        <time>2022-06-25T07:07:17Z</time>
      </trkpt>
      <trkpt lat="46.62796" lon="5.25971">
        <ele>191.6</ele>
        <time>2022-06-25T07:07:18Z</time>
      </trkpt>
      <trkpt lat="46.62799" lon="5.25962">
        <ele>191.6</ele>
        <time>2022-06-25T07:07:19Z</time>
      </trkpt>
      <trkpt lat="46.62801" lon="5.25954">
        <ele>191.8</ele>
        <time>2022-06-25T07:07:20Z</time>
      </trkpt>
      <trkpt lat="46.62803" lon="5.25946">
        <ele>191.8</ele>
        <time>2022-06-25T07:07:21Z</time>
      </trkpt>
      <trkpt lat="46.62805" lon="5.25938">
        <ele>191.8</ele>
        <time>2022-06-25T07:07:22Z</time>
      </trkpt>
      <trkpt lat="46.62808" lon="5.2593">
        <ele>191.8</ele>
        <time>2022-06-25T07:07:23Z</time>
      </trkpt>
      <trkpt lat="46.6281" lon="5.25922">
        <ele>192</ele>
        <time>2022-06-25T07:07:24Z</time>
      </trkpt>
      <trkpt lat="46.62812" lon="5.25914">
        <ele>192</ele>
        <time>2022-06-25T07:07:25Z</time>
      </trkpt>
      <trkpt lat="46.62813" lon="5.25905">
        <ele>192.4</ele>
        <time>2022-06-25T07:07:26Z</time>
      </trkpt>
      <trkpt lat="46.62814" lon="5.25896">
        <ele>192.4</ele>
        <time>2022-06-25T07:07:27Z</time>
      </trkpt>
      <trkpt lat="46.62815" lon="5.25887">
        <ele>192.4</ele>
        <time>2022-06-25T07:07:28Z</time>
      </trkpt>
      <trkpt lat="46.62816" lon="5.25878">
        <ele>192.4</ele>
        <time>2022-06-25T07:07:29Z</time>
      </trkpt>
      <trkpt lat="46.62817" lon="5.25869">
        <ele>192.4</ele>
        <time>2022-06-25T07:07:30Z</time>
      </trkpt>
      <trkpt lat="46.62818" lon="5.25861">
        <ele>192.4</ele>
        <time>2022-06-25T07:07:31Z</time>
      </trkpt>
      <trkpt lat="46.62819" lon="5.25851">
        <ele>192.4</ele>
        <time>2022-06-25T07:07:32Z</time>
      </trkpt>
      <trkpt lat="46.6282" lon="5.25842">
        <ele>192.4</ele>
        <time>2022-06-25T07:07:33Z</time>
      </trkpt>
      <trkpt lat="46.6282" lon="5.25834">
        <ele>192.6</ele>
        <time>2022-06-25T07:07:34Z</time>
      </trkpt>
      <trkpt lat="46.62821" lon="5.25825">
        <ele>192.6</ele>
        <time>2022-06-25T07:07:35Z</time>
      </trkpt>
      <trkpt lat="46.62822" lon="5.25816">
        <ele>192.6</ele>
        <time>2022-06-25T07:07:36Z</time>
      </trkpt>
      <trkpt lat="46.62823" lon="5.25807">
        <ele>192.8</ele>
        <time>2022-06-25T07:07:37Z</time>
      </trkpt>
      <trkpt lat="46.62824" lon="5.25798">
        <ele>192.8</ele>
        <time>2022-06-25T07:07:38Z</time>
      </trkpt>
      <trkpt lat="46.62825" lon="5.25789">
        <ele>192.8</ele>
        <time>2022-06-25T07:07:39Z</time>
      </trkpt>
      <trkpt lat="46.62826" lon="5.2578">
        <ele>193.2</ele>
        <time>2022-06-25T07:07:40Z</time>
      </trkpt>
      <trkpt lat="46.62827" lon="5.25772">
        <ele>193.2</ele>
        <time>2022-06-25T07:07:41Z</time>
      </trkpt>
      <trkpt lat="46.62828" lon="5.25763">
        <ele>193.4</ele>
        <time>2022-06-25T07:07:42Z</time>
      </trkpt>
      <trkpt lat="46.6283" lon="5.25755">
        <ele>193.4</ele>
        <time>2022-06-25T07:07:43Z</time>
      </trkpt>
      <trkpt lat="46.62831" lon="5.25747">
        <ele>193.6</ele>
        <time>2022-06-25T07:07:44Z</time>
      </trkpt>
      <trkpt lat="46.62832" lon="5.25739">
        <ele>193.6</ele>
        <time>2022-06-25T07:07:45Z</time>
      </trkpt>
      <trkpt lat="46.62833" lon="5.25731">
        <ele>193.6</ele>
        <time>2022-06-25T07:07:46Z</time>
      </trkpt>
      <trkpt lat="46.62834" lon="5.25724">
        <ele>193.6</ele>
        <time>2022-06-25T07:07:47Z</time>
      </trkpt>
      <trkpt lat="46.62836" lon="5.25717">
        <ele>194</ele>
        <time>2022-06-25T07:07:48Z</time>
      </trkpt>
      <trkpt lat="46.62838" lon="5.25709">
        <ele>194</ele>
        <time>2022-06-25T07:07:49Z</time>
      </trkpt>
      <trkpt lat="46.62839" lon="5.25702">
        <ele>194</ele>
        <time>2022-06-25T07:07:50Z</time>
      </trkpt>
      <trkpt lat="46.62841" lon="5.25695">
        <ele>194</ele>
        <time>2022-06-25T07:07:51Z</time>
      </trkpt>
      <trkpt lat="46.62844" lon="5.25688">
        <ele>194.2</ele>
        <time>2022-06-25T07:07:52Z</time>
      </trkpt>
      <trkpt lat="46.62846" lon="5.25681">
        <ele>194.2</ele>
        <time>2022-06-25T07:07:53Z</time>
      </trkpt>
      <trkpt lat="46.62848" lon="5.25674">
        <ele>194.2</ele>
        <time>2022-06-25T07:07:54Z</time>
      </trkpt>
      <trkpt lat="46.6285" lon="5.25667">
        <ele>194.2</ele>
        <time>2022-06-25T07:07:55Z</time>
      </trkpt>
      <trkpt lat="46.62852" lon="5.2566">
        <ele>194.4</ele>
        <time>2022-06-25T07:07:56Z</time>
      </trkpt>
      <trkpt lat="46.62854" lon="5.25653">
        <ele>194.4</ele>
        <time>2022-06-25T07:07:57Z</time>
      </trkpt>
      <trkpt lat="46.62856" lon="5.25645">
        <ele>194.4</ele>
        <time>2022-06-25T07:07:58Z</time>
      </trkpt>
      <trkpt lat="46.62859" lon="5.25639">
        <ele>194.8</ele>
        <time>2022-06-25T07:07:59Z</time>
      </trkpt>
      <trkpt lat="46.62861" lon="5.25632">
        <ele>194.8</ele>
        <time>2022-06-25T07:08:00Z</time>
      </trkpt>
      <trkpt lat="46.62864" lon="5.25625">
        <ele>194.8</ele>
        <time>2022-06-25T07:08:01Z</time>
      </trkpt>
      <trkpt lat="46.62866" lon="5.25618">
        <ele>194.8</ele>
        <time>2022-06-25T07:08:02Z</time>
      </trkpt>
      <trkpt lat="46.62869" lon="5.25611">
        <ele>194.8</ele>
        <time>2022-06-25T07:08:03Z</time>
      </trkpt>
      <trkpt lat="46.62871" lon="5.25604">
        <ele>195</ele>
        <time>2022-06-25T07:08:04Z</time>
      </trkpt>
      <trkpt lat="46.62874" lon="5.25598">
        <ele>195</ele>
        <time>2022-06-25T07:08:05Z</time>
      </trkpt>
      <trkpt lat="46.62876" lon="5.25593">
        <ele>195</ele>
        <time>2022-06-25T07:08:06Z</time>
      </trkpt>
      <trkpt lat="46.62878" lon="5.25588">
        <ele>195</ele>
        <time>2022-06-25T07:08:07Z</time>
      </trkpt>
      <trkpt lat="46.6288" lon="5.25583">
        <ele>195</ele>
        <time>2022-06-25T07:08:08Z</time>
      </trkpt>
      <trkpt lat="46.62882" lon="5.2558">
        <ele>195</ele>
        <time>2022-06-25T07:08:09Z</time>
      </trkpt>
      <trkpt lat="46.62883" lon="5.25576">
        <ele>195</ele>
        <time>2022-06-25T07:08:10Z</time>
      </trkpt>
      <trkpt lat="46.62884" lon="5.25573">
        <ele>195</ele>
        <time>2022-06-25T07:08:11Z</time>
      </trkpt>
      <trkpt lat="46.62885" lon="5.25567">
        <ele>195</ele>
        <time>2022-06-25T07:08:12Z</time>
      </trkpt>
      <trkpt lat="46.62887" lon="5.25562">
        <ele>195</ele>
        <time>2022-06-25T07:08:13Z</time>
      </trkpt>
      <trkpt lat="46.62888" lon="5.25556">
        <ele>195</ele>
        <time>2022-06-25T07:08:14Z</time>
      </trkpt>
      <trkpt lat="46.6289" lon="5.25549">
        <ele>195</ele>
        <time>2022-06-25T07:08:15Z</time>
      </trkpt>
      <trkpt lat="46.62892" lon="5.25542">
        <ele>195</ele>
        <time>2022-06-25T07:08:16Z</time>
      </trkpt>
      <trkpt lat="46.62894" lon="5.25536">
        <ele>195</ele>
        <time>2022-06-25T07:08:17Z</time>
      </trkpt>
      <trkpt lat="46.62896" lon="5.2553">
        <ele>195.2</ele>
        <time>2022-06-25T07:08:18Z</time>
      </trkpt>
      <trkpt lat="46.62898" lon="5.25523">
        <ele>195.2</ele>
        <time>2022-06-25T07:08:19Z</time>
      </trkpt>
      <trkpt lat="46.629" lon="5.25517">
        <ele>195.2</ele>
        <time>2022-06-25T07:08:20Z</time>
      </trkpt>
      <trkpt lat="46.62902" lon="5.25511">
        <ele>195.2</ele>
        <time>2022-06-25T07:08:21Z</time>
      </trkpt>
      <trkpt lat="46.62905" lon="5.25505">
        <ele>195.2</ele>
        <time>2022-06-25T07:08:22Z</time>
      </trkpt>
      <trkpt lat="46.62907" lon="5.25498">
        <ele>195.2</ele>
        <time>2022-06-25T07:08:23Z</time>
      </trkpt>
      <trkpt lat="46.62909" lon="5.25492">
        <ele>195.4</ele>
        <time>2022-06-25T07:08:24Z</time>
      </trkpt>
      <trkpt lat="46.62911" lon="5.25485">
        <ele>195.4</ele>
        <time>2022-06-25T07:08:25Z</time>
      </trkpt>
      <trkpt lat="46.62913" lon="5.25479">
        <ele>195.4</ele>
        <time>2022-06-25T07:08:26Z</time>
      </trkpt>
      <trkpt lat="46.62915" lon="5.25472">
        <ele>195.4</ele>
        <time>2022-06-25T07:08:27Z</time>
      </trkpt>
      <trkpt lat="46.62918" lon="5.25465">
        <ele>195.6</ele>
        <time>2022-06-25T07:08:28Z</time>
      </trkpt>
      <trkpt lat="46.6292" lon="5.25458">
        <ele>195.6</ele>
        <time>2022-06-25T07:08:29Z</time>
      </trkpt>
      <trkpt lat="46.62923" lon="5.25452">
        <ele>195.6</ele>
        <time>2022-06-25T07:08:30Z</time>
      </trkpt>
      <trkpt lat="46.62925" lon="5.25445">
        <ele>195.6</ele>
        <time>2022-06-25T07:08:31Z</time>
      </trkpt>
      <trkpt lat="46.62927" lon="5.25438">
        <ele>195.6</ele>
        <time>2022-06-25T07:08:32Z</time>
      </trkpt>
      <trkpt lat="46.62928" lon="5.25431">
        <ele>195.6</ele>
        <time>2022-06-25T07:08:33Z</time>
      </trkpt>
      <trkpt lat="46.6293" lon="5.25424">
        <ele>196</ele>
        <time>2022-06-25T07:08:34Z</time>
      </trkpt>
      <trkpt lat="46.62932" lon="5.25418">
        <ele>196</ele>
        <time>2022-06-25T07:08:35Z</time>
      </trkpt>
      <trkpt lat="46.62934" lon="5.25411">
        <ele>196</ele>
        <time>2022-06-25T07:08:36Z</time>
      </trkpt>
      <trkpt lat="46.62936" lon="5.25405">
        <ele>196.2</ele>
        <time>2022-06-25T07:08:37Z</time>
      </trkpt>
      <trkpt lat="46.62937" lon="5.25398">
        <ele>196.2</ele>
        <time>2022-06-25T07:08:38Z</time>
      </trkpt>
      <trkpt lat="46.62939" lon="5.25391">
        <ele>196.4</ele>
        <time>2022-06-25T07:08:39Z</time>
      </trkpt>
      <trkpt lat="46.62941" lon="5.25384">
        <ele>196.4</ele>
        <time>2022-06-25T07:08:40Z</time>
      </trkpt>
      <trkpt lat="46.62942" lon="5.25376">
        <ele>196.4</ele>
        <time>2022-06-25T07:08:41Z</time>
      </trkpt>
      <trkpt lat="46.62943" lon="5.25369">
        <ele>196.4</ele>
        <time>2022-06-25T07:08:42Z</time>
      </trkpt>
      <trkpt lat="46.62945" lon="5.25361">
        <ele>196.6</ele>
        <time>2022-06-25T07:08:43Z</time>
      </trkpt>
      <trkpt lat="46.62946" lon="5.25352">
        <ele>196.6</ele>
        <time>2022-06-25T07:08:44Z</time>
      </trkpt>
      <trkpt lat="46.62947" lon="5.25344">
        <ele>196.6</ele>
        <time>2022-06-25T07:08:45Z</time>
      </trkpt>
      <trkpt lat="46.62948" lon="5.25337">
        <ele>196.6</ele>
        <time>2022-06-25T07:08:46Z</time>
      </trkpt>
      <trkpt lat="46.62948" lon="5.25329">
        <ele>196.8</ele>
        <time>2022-06-25T07:08:47Z</time>
      </trkpt>
      <trkpt lat="46.62949" lon="5.25321">
        <ele>196.8</ele>
        <time>2022-06-25T07:08:48Z</time>
      </trkpt>
      <trkpt lat="46.6295" lon="5.25313">
        <ele>196.8</ele>
        <time>2022-06-25T07:08:49Z</time>
      </trkpt>
      <trkpt lat="46.6295" lon="5.25305">
        <ele>196.8</ele>
        <time>2022-06-25T07:08:50Z</time>
      </trkpt>
      <trkpt lat="46.62951" lon="5.25297">
        <ele>196.8</ele>
        <time>2022-06-25T07:08:51Z</time>
      </trkpt>
      <trkpt lat="46.62951" lon="5.2529">
        <ele>196.8</ele>
        <time>2022-06-25T07:08:52Z</time>
      </trkpt>
      <trkpt lat="46.62951" lon="5.25283">
        <ele>197</ele>
        <time>2022-06-25T07:08:53Z</time>
      </trkpt>
      <trkpt lat="46.62951" lon="5.25276">
        <ele>197</ele>
        <time>2022-06-25T07:08:54Z</time>
      </trkpt>
      <trkpt lat="46.62952" lon="5.25268">
        <ele>197</ele>
        <time>2022-06-25T07:08:55Z</time>
      </trkpt>
      <trkpt lat="46.62952" lon="5.25262">
        <ele>197</ele>
        <time>2022-06-25T07:08:56Z</time>
      </trkpt>
      <trkpt lat="46.62953" lon="5.25256">
        <ele>197</ele>
        <time>2022-06-25T07:08:57Z</time>
      </trkpt>
      <trkpt lat="46.62953" lon="5.25249">
        <ele>197.4</ele>
        <time>2022-06-25T07:08:58Z</time>
      </trkpt>
      <trkpt lat="46.62954" lon="5.25244">
        <ele>197.4</ele>
        <time>2022-06-25T07:08:59Z</time>
      </trkpt>
      <trkpt lat="46.62954" lon="5.25238">
        <ele>197.4</ele>
        <time>2022-06-25T07:09:00Z</time>
      </trkpt>
      <trkpt lat="46.62953" lon="5.25233">
        <ele>197.4</ele>
        <time>2022-06-25T07:09:01Z</time>
      </trkpt>
      <trkpt lat="46.62953" lon="5.25227">
        <ele>197.4</ele>
        <time>2022-06-25T07:09:02Z</time>
      </trkpt>
      <trkpt lat="46.62953" lon="5.25222">
        <ele>197.4</ele>
        <time>2022-06-25T07:09:03Z</time>
      </trkpt>
      <trkpt lat="46.62954" lon="5.25218">
        <ele>197.6</ele>
        <time>2022-06-25T07:09:04Z</time>
      </trkpt>
      <trkpt lat="46.62953" lon="5.25213">
        <ele>197.6</ele>
        <time>2022-06-25T07:09:05Z</time>
      </trkpt>
      <trkpt lat="46.62953" lon="5.25209">
        <ele>197.6</ele>
        <time>2022-06-25T07:09:06Z</time>
      </trkpt>
      <trkpt lat="46.62954" lon="5.25205">
        <ele>197.6</ele>
        <time>2022-06-25T07:09:07Z</time>
      </trkpt>
      <trkpt lat="46.62954" lon="5.25202">
        <ele>197.8</ele>
        <time>2022-06-25T07:09:08Z</time>
      </trkpt>
      <trkpt lat="46.62954" lon="5.25198">
        <ele>197.8</ele>
        <time>2022-06-25T07:09:09Z</time>
      </trkpt>
      <trkpt lat="46.62955" lon="5.25193">
        <ele>197.8</ele>
        <time>2022-06-25T07:09:10Z</time>
      </trkpt>
      <trkpt lat="46.62955" lon="5.25185">
        <ele>198</ele>
        <time>2022-06-25T07:09:11Z</time>
      </trkpt>
      <trkpt lat="46.62956" lon="5.25177">
        <ele>198</ele>
        <time>2022-06-25T07:09:12Z</time>
      </trkpt>
      <trkpt lat="46.62956" lon="5.2517">
        <ele>198</ele>
        <time>2022-06-25T07:09:13Z</time>
      </trkpt>
      <trkpt lat="46.62957" lon="5.25162">
        <ele>198</ele>
        <time>2022-06-25T07:09:14Z</time>
      </trkpt>
      <trkpt lat="46.62957" lon="5.25156">
        <ele>198.4</ele>
        <time>2022-06-25T07:09:15Z</time>
      </trkpt>
      <trkpt lat="46.62958" lon="5.2515">
        <ele>198.4</ele>
        <time>2022-06-25T07:09:16Z</time>
      </trkpt>
      <trkpt lat="46.62958" lon="5.25144">
        <ele>198.4</ele>
        <time>2022-06-25T07:09:17Z</time>
      </trkpt>
      <trkpt lat="46.62959" lon="5.25137">
        <ele>198.6</ele>
        <time>2022-06-25T07:09:18Z</time>
      </trkpt>
      <trkpt lat="46.6296" lon="5.2513">
        <ele>198.6</ele>
        <time>2022-06-25T07:09:19Z</time>
      </trkpt>
      <trkpt lat="46.6296" lon="5.25123">
        <ele>198.6</ele>
        <time>2022-06-25T07:09:20Z</time>
      </trkpt>
      <trkpt lat="46.62961" lon="5.25116">
        <ele>198.8</ele>
        <time>2022-06-25T07:09:21Z</time>
      </trkpt>
      <trkpt lat="46.62961" lon="5.2511">
        <ele>198.8</ele>
        <time>2022-06-25T07:09:22Z</time>
      </trkpt>
      <trkpt lat="46.62961" lon="5.25103">
        <ele>198.8</ele>
        <time>2022-06-25T07:09:23Z</time>
      </trkpt>
      <trkpt lat="46.62962" lon="5.25097">
        <ele>198.8</ele>
        <time>2022-06-25T07:09:24Z</time>
      </trkpt>
      <trkpt lat="46.62963" lon="5.25091">
        <ele>198.8</ele>
        <time>2022-06-25T07:09:25Z</time>
      </trkpt>
      <trkpt lat="46.62964" lon="5.25086">
        <ele>198.8</ele>
        <time>2022-06-25T07:09:26Z</time>
      </trkpt>
      <trkpt lat="46.62965" lon="5.2508">
        <ele>198.8</ele>
        <time>2022-06-25T07:09:27Z</time>
      </trkpt>
      <trkpt lat="46.62965" lon="5.25073">
        <ele>198.8</ele>
        <time>2022-06-25T07:09:28Z</time>
      </trkpt>
      <trkpt lat="46.62966" lon="5.25066">
        <ele>199</ele>
        <time>2022-06-25T07:09:29Z</time>
      </trkpt>
      <trkpt lat="46.62966" lon="5.2506">
        <ele>199</ele>
        <time>2022-06-25T07:09:30Z</time>
      </trkpt>
      <trkpt lat="46.62967" lon="5.25052">
        <ele>199</ele>
        <time>2022-06-25T07:09:31Z</time>
      </trkpt>
      <trkpt lat="46.62967" lon="5.25044">
        <ele>199.2</ele>
        <time>2022-06-25T07:09:32Z</time>
      </trkpt>
      <trkpt lat="46.62968" lon="5.25037">
        <ele>199.2</ele>
        <time>2022-06-25T07:09:33Z</time>
      </trkpt>
      <trkpt lat="46.62968" lon="5.25029">
        <ele>199.4</ele>
        <time>2022-06-25T07:09:34Z</time>
      </trkpt>
      <trkpt lat="46.62968" lon="5.25021">
        <ele>199.4</ele>
        <time>2022-06-25T07:09:36Z</time>
      </trkpt>
      <trkpt lat="46.62968" lon="5.25014">
        <ele>199.6</ele>
        <time>2022-06-25T07:09:37Z</time>
      </trkpt>
      <trkpt lat="46.62968" lon="5.25005">
        <ele>199.6</ele>
        <time>2022-06-25T07:09:38Z</time>
      </trkpt>
      <trkpt lat="46.62969" lon="5.24997">
        <ele>199.6</ele>
        <time>2022-06-25T07:09:39Z</time>
      </trkpt>
      <trkpt lat="46.62969" lon="5.24988">
        <ele>200</ele>
        <time>2022-06-25T07:09:40Z</time>
      </trkpt>
      <trkpt lat="46.62968" lon="5.24979">
        <ele>200</ele>
        <time>2022-06-25T07:09:41Z</time>
      </trkpt>
      <trkpt lat="46.62968" lon="5.24972">
        <ele>200.4</ele>
        <time>2022-06-25T07:09:42Z</time>
      </trkpt>
      <trkpt lat="46.62968" lon="5.24965">
        <ele>200.4</ele>
        <time>2022-06-25T07:09:43Z</time>
      </trkpt>
      <trkpt lat="46.62968" lon="5.24959">
        <ele>200.6</ele>
        <time>2022-06-25T07:09:44Z</time>
      </trkpt>
      <trkpt lat="46.62968" lon="5.24954">
        <ele>200.6</ele>
        <time>2022-06-25T07:09:45Z</time>
      </trkpt>
      <trkpt lat="46.62968" lon="5.24947">
        <ele>201</ele>
        <time>2022-06-25T07:09:46Z</time>
      </trkpt>
      <trkpt lat="46.62968" lon="5.24941">
        <ele>201.4</ele>
        <time>2022-06-25T07:09:47Z</time>
      </trkpt>
      <trkpt lat="46.62967" lon="5.24935">
        <ele>201.6</ele>
        <time>2022-06-25T07:09:48Z</time>
      </trkpt>
      <trkpt lat="46.62967" lon="5.24929">
        <ele>201.8</ele>
        <time>2022-06-25T07:09:49Z</time>
      </trkpt>
      <trkpt lat="46.62967" lon="5.24924">
        <ele>202.2</ele>
        <time>2022-06-25T07:09:50Z</time>
      </trkpt>
      <trkpt lat="46.62967" lon="5.24919">
        <ele>202.4</ele>
        <time>2022-06-25T07:09:51Z</time>
      </trkpt>
      <trkpt lat="46.62967" lon="5.24914">
        <ele>202.6</ele>
        <time>2022-06-25T07:09:52Z</time>
      </trkpt>
      <trkpt lat="46.62967" lon="5.2491">
        <ele>203</ele>
        <time>2022-06-25T07:09:53Z</time>
      </trkpt>
      <trkpt lat="46.62968" lon="5.24904">
        <ele>203.2</ele>
        <time>2022-06-25T07:09:54Z</time>
      </trkpt>
      <trkpt lat="46.62968" lon="5.24899">
        <ele>203.4</ele>
        <time>2022-06-25T07:09:55Z</time>
      </trkpt>
      <trkpt lat="46.62969" lon="5.24894">
        <ele>203.6</ele>
        <time>2022-06-25T07:09:56Z</time>
      </trkpt>
      <trkpt lat="46.62969" lon="5.24888">
        <ele>203.8</ele>
        <time>2022-06-25T07:09:57Z</time>
      </trkpt>
      <trkpt lat="46.62969" lon="5.2488">
        <ele>203.8</ele>
        <time>2022-06-25T07:09:58Z</time>
      </trkpt>
      <trkpt lat="46.62969" lon="5.24872">
        <ele>204</ele>
        <time>2022-06-25T07:09:59Z</time>
      </trkpt>
      <trkpt lat="46.62969" lon="5.24865">
        <ele>204</ele>
        <time>2022-06-25T07:10:00Z</time>
      </trkpt>
      <trkpt lat="46.62969" lon="5.24859">
        <ele>204.4</ele>
        <time>2022-06-25T07:10:01Z</time>
      </trkpt>
      <trkpt lat="46.62968" lon="5.24851">
        <ele>204.4</ele>
        <time>2022-06-25T07:10:02Z</time>
      </trkpt>
      <trkpt lat="46.62967" lon="5.24843">
        <ele>204.6</ele>
        <time>2022-06-25T07:10:03Z</time>
      </trkpt>
      <trkpt lat="46.62966" lon="5.24835">
        <ele>204.6</ele>
        <time>2022-06-25T07:10:04Z</time>
      </trkpt>
      <trkpt lat="46.62966" lon="5.24828">
        <ele>204.8</ele>
        <time>2022-06-25T07:10:05Z</time>
      </trkpt>
      <trkpt lat="46.62966" lon="5.2482">
        <ele>205</ele>
        <time>2022-06-25T07:10:06Z</time>
      </trkpt>
      <trkpt lat="46.62966" lon="5.24813">
        <ele>205</ele>
        <time>2022-06-25T07:10:07Z</time>
      </trkpt>
      <trkpt lat="46.62966" lon="5.24807">
        <ele>205.4</ele>
        <time>2022-06-25T07:10:08Z</time>
      </trkpt>
      <trkpt lat="46.62965" lon="5.24801">
        <ele>205.4</ele>
        <time>2022-06-25T07:10:09Z</time>
      </trkpt>
      <trkpt lat="46.62964" lon="5.24795">
        <ele>205.4</ele>
        <time>2022-06-25T07:10:10Z</time>
      </trkpt>
      <trkpt lat="46.62963" lon="5.24788">
        <ele>205.8</ele>
        <time>2022-06-25T07:10:11Z</time>
      </trkpt>
      <trkpt lat="46.62961" lon="5.24782">
        <ele>205.8</ele>
        <time>2022-06-25T07:10:12Z</time>
      </trkpt>
      <trkpt lat="46.62959" lon="5.24776">
        <ele>205.8</ele>
        <time>2022-06-25T07:10:13Z</time>
      </trkpt>
      <trkpt lat="46.62957" lon="5.2477">
        <ele>205.8</ele>
        <time>2022-06-25T07:10:14Z</time>
      </trkpt>
      <trkpt lat="46.62956" lon="5.24765">
        <ele>205.8</ele>
        <time>2022-06-25T07:10:15Z</time>
      </trkpt>
      <trkpt lat="46.62955" lon="5.2476">
        <ele>205.8</ele>
        <time>2022-06-25T07:10:16Z</time>
      </trkpt>
      <trkpt lat="46.62955" lon="5.24757">
        <ele>205.8</ele>
        <time>2022-06-25T07:10:17Z</time>
      </trkpt>
      <trkpt lat="46.62955" lon="5.24754">
        <ele>205.8</ele>
        <time>2022-06-25T07:10:18Z</time>
      </trkpt>
      <trkpt lat="46.62956" lon="5.24751">
        <ele>205.8</ele>
        <time>2022-06-25T07:10:19Z</time>
      </trkpt>
      <trkpt lat="46.62957" lon="5.24748">
        <ele>205.8</ele>
        <time>2022-06-25T07:10:20Z</time>
      </trkpt>
      <trkpt lat="46.62959" lon="5.24744">
        <ele>205.8</ele>
        <time>2022-06-25T07:10:21Z</time>
      </trkpt>
      <trkpt lat="46.6296" lon="5.2474">
        <ele>205.6</ele>
        <time>2022-06-25T07:10:22Z</time>
      </trkpt>
      <trkpt lat="46.62961" lon="5.24734">
        <ele>205.6</ele>
        <time>2022-06-25T07:10:23Z</time>
      </trkpt>
      <trkpt lat="46.62962" lon="5.24728">
        <ele>205.2</ele>
        <time>2022-06-25T07:10:24Z</time>
      </trkpt>
      <trkpt lat="46.62963" lon="5.24721">
        <ele>205.2</ele>
        <time>2022-06-25T07:10:25Z</time>
      </trkpt>
      <trkpt lat="46.62964" lon="5.24713">
        <ele>204.8</ele>
        <time>2022-06-25T07:10:26Z</time>
      </trkpt>
      <trkpt lat="46.62964" lon="5.24706">
        <ele>204.8</ele>
        <time>2022-06-25T07:10:27Z</time>
      </trkpt>
      <trkpt lat="46.62965" lon="5.24698">
        <ele>204.6</ele>
        <time>2022-06-25T07:10:28Z</time>
      </trkpt>
      <trkpt lat="46.62965" lon="5.2469">
        <ele>204.6</ele>
        <time>2022-06-25T07:10:29Z</time>
      </trkpt>
      <trkpt lat="46.62966" lon="5.24682">
        <ele>204.6</ele>
        <time>2022-06-25T07:10:30Z</time>
      </trkpt>
      <trkpt lat="46.62966" lon="5.24674">
        <ele>204.2</ele>
        <time>2022-06-25T07:10:31Z</time>
      </trkpt>
      <trkpt lat="46.62967" lon="5.24666">
        <ele>204.2</ele>
        <time>2022-06-25T07:10:32Z</time>
      </trkpt>
      <trkpt lat="46.62968" lon="5.24658">
        <ele>204</ele>
        <time>2022-06-25T07:10:33Z</time>
      </trkpt>
      <trkpt lat="46.62969" lon="5.2465">
        <ele>204</ele>
        <time>2022-06-25T07:10:34Z</time>
      </trkpt>
      <trkpt lat="46.62969" lon="5.24642">
        <ele>203.6</ele>
        <time>2022-06-25T07:10:35Z</time>
      </trkpt>
      <trkpt lat="46.6297" lon="5.24633">
        <ele>203.4</ele>
        <time>2022-06-25T07:10:36Z</time>
      </trkpt>
      <trkpt lat="46.62971" lon="5.24626">
        <ele>203</ele>
        <time>2022-06-25T07:10:37Z</time>
      </trkpt>
      <trkpt lat="46.62972" lon="5.24618">
        <ele>202.8</ele>
        <time>2022-06-25T07:10:38Z</time>
      </trkpt>
      <trkpt lat="46.62973" lon="5.24611">
        <ele>202.4</ele>
        <time>2022-06-25T07:10:39Z</time>
      </trkpt>
      <trkpt lat="46.62973" lon="5.24604">
        <ele>202</ele>
        <time>2022-06-25T07:10:40Z</time>
      </trkpt>
      <trkpt lat="46.62974" lon="5.24597">
        <ele>201.6</ele>
        <time>2022-06-25T07:10:41Z</time>
      </trkpt>
      <trkpt lat="46.62974" lon="5.24592">
        <ele>201.6</ele>
        <time>2022-06-25T07:10:42Z</time>
      </trkpt>
      <trkpt lat="46.62974" lon="5.24587">
        <ele>201.2</ele>
        <time>2022-06-25T07:10:43Z</time>
      </trkpt>
      <trkpt lat="46.62975" lon="5.24583">
        <ele>201.2</ele>
        <time>2022-06-25T07:10:44Z</time>
      </trkpt>
      <trkpt lat="46.62974" lon="5.24579">
        <ele>201</ele>
        <time>2022-06-25T07:10:45Z</time>
      </trkpt>
      <trkpt lat="46.62973" lon="5.24575">
        <ele>201</ele>
        <time>2022-06-25T07:10:46Z</time>
      </trkpt>
      <trkpt lat="46.62973" lon="5.24571">
        <ele>201</ele>
        <time>2022-06-25T07:10:47Z</time>
      </trkpt>
      <trkpt lat="46.62973" lon="5.24567">
        <ele>201</ele>
        <time>2022-06-25T07:10:48Z</time>
      </trkpt>
      <trkpt lat="46.62973" lon="5.24562">
        <ele>200.6</ele>
        <time>2022-06-25T07:10:49Z</time>
      </trkpt>
      <trkpt lat="46.62972" lon="5.24556">
        <ele>200.6</ele>
        <time>2022-06-25T07:10:50Z</time>
      </trkpt>
      <trkpt lat="46.62972" lon="5.2455">
        <ele>200.6</ele>
        <time>2022-06-25T07:10:51Z</time>
      </trkpt>
      <trkpt lat="46.62971" lon="5.24544">
        <ele>200.6</ele>
        <time>2022-06-25T07:10:52Z</time>
      </trkpt>
      <trkpt lat="46.6297" lon="5.24538">
        <ele>200.6</ele>
        <time>2022-06-25T07:10:53Z</time>
      </trkpt>
      <trkpt lat="46.62969" lon="5.24531">
        <ele>200.6</ele>
        <time>2022-06-25T07:10:54Z</time>
      </trkpt>
      <trkpt lat="46.62968" lon="5.24525">
        <ele>200.6</ele>
        <time>2022-06-25T07:10:55Z</time>
      </trkpt>
      <trkpt lat="46.62967" lon="5.24518">
        <ele>200.6</ele>
        <time>2022-06-25T07:10:56Z</time>
      </trkpt>
      <trkpt lat="46.62966" lon="5.24511">
        <ele>200.4</ele>
        <time>2022-06-25T07:10:57Z</time>
      </trkpt>
      <trkpt lat="46.62964" lon="5.24503">
        <ele>200.4</ele>
        <time>2022-06-25T07:10:58Z</time>
      </trkpt>
      <trkpt lat="46.62963" lon="5.24496">
        <ele>200.4</ele>
        <time>2022-06-25T07:10:59Z</time>
      </trkpt>
      <trkpt lat="46.62962" lon="5.24488">
        <ele>200.4</ele>
        <time>2022-06-25T07:11:00Z</time>
      </trkpt>
      <trkpt lat="46.6296" lon="5.2448">
        <ele>200.4</ele>
        <time>2022-06-25T07:11:01Z</time>
      </trkpt>
      <trkpt lat="46.62959" lon="5.24472">
        <ele>200.4</ele>
        <time>2022-06-25T07:11:02Z</time>
      </trkpt>
      <trkpt lat="46.62957" lon="5.24464">
        <ele>200.4</ele>
        <time>2022-06-25T07:11:03Z</time>
      </trkpt>
      <trkpt lat="46.62955" lon="5.24457">
        <ele>200.2</ele>
        <time>2022-06-25T07:11:04Z</time>
      </trkpt>
      <trkpt lat="46.62953" lon="5.24449">
        <ele>200.2</ele>
        <time>2022-06-25T07:11:05Z</time>
      </trkpt>
      <trkpt lat="46.62952" lon="5.24441">
        <ele>200.2</ele>
        <time>2022-06-25T07:11:06Z</time>
      </trkpt>
      <trkpt lat="46.6295" lon="5.24433">
        <ele>200.2</ele>
        <time>2022-06-25T07:11:07Z</time>
      </trkpt>
      <trkpt lat="46.62948" lon="5.24426">
        <ele>200</ele>
        <time>2022-06-25T07:11:08Z</time>
      </trkpt>
      <trkpt lat="46.62946" lon="5.24418">
        <ele>200</ele>
        <time>2022-06-25T07:11:09Z</time>
      </trkpt>
      <trkpt lat="46.62943" lon="5.2441">
        <ele>200</ele>
        <time>2022-06-25T07:11:10Z</time>
      </trkpt>
      <trkpt lat="46.6294" lon="5.24402">
        <ele>200</ele>
        <time>2022-06-25T07:11:11Z</time>
      </trkpt>
      <trkpt lat="46.62937" lon="5.24395">
        <ele>200</ele>
        <time>2022-06-25T07:11:12Z</time>
      </trkpt>
      <trkpt lat="46.62934" lon="5.24387">
        <ele>200</ele>
        <time>2022-06-25T07:11:13Z</time>
      </trkpt>
      <trkpt lat="46.62932" lon="5.24379">
        <ele>200</ele>
        <time>2022-06-25T07:11:14Z</time>
      </trkpt>
      <trkpt lat="46.62929" lon="5.24371">
        <ele>200</ele>
        <time>2022-06-25T07:11:15Z</time>
      </trkpt>
      <trkpt lat="46.62925" lon="5.24363">
        <ele>199.8</ele>
        <time>2022-06-25T07:11:16Z</time>
      </trkpt>
      <trkpt lat="46.62922" lon="5.24355">
        <ele>199.8</ele>
        <time>2022-06-25T07:11:17Z</time>
      </trkpt>
      <trkpt lat="46.62919" lon="5.24347">
        <ele>199.8</ele>
        <time>2022-06-25T07:11:18Z</time>
      </trkpt>
      <trkpt lat="46.62915" lon="5.2434">
        <ele>199.4</ele>
        <time>2022-06-25T07:11:19Z</time>
      </trkpt>
      <trkpt lat="46.62912" lon="5.24333">
        <ele>199.4</ele>
        <time>2022-06-25T07:11:20Z</time>
      </trkpt>
      <trkpt lat="46.62909" lon="5.24326">
        <ele>199.4</ele>
        <time>2022-06-25T07:11:21Z</time>
      </trkpt>
      <trkpt lat="46.62905" lon="5.24319">
        <ele>199.4</ele>
        <time>2022-06-25T07:11:22Z</time>
      </trkpt>
      <trkpt lat="46.62902" lon="5.24312">
        <ele>199.4</ele>
        <time>2022-06-25T07:11:23Z</time>
      </trkpt>
      <trkpt lat="46.62899" lon="5.24305">
        <ele>199.2</ele>
        <time>2022-06-25T07:11:24Z</time>
      </trkpt>
      <trkpt lat="46.62895" lon="5.24298">
        <ele>199.2</ele>
        <time>2022-06-25T07:11:25Z</time>
      </trkpt>
      <trkpt lat="46.62892" lon="5.24291">
        <ele>199</ele>
        <time>2022-06-25T07:11:26Z</time>
      </trkpt>
      <trkpt lat="46.62889" lon="5.24284">
        <ele>199</ele>
        <time>2022-06-25T07:11:27Z</time>
      </trkpt>
      <trkpt lat="46.62885" lon="5.24279">
        <ele>198.8</ele>
        <time>2022-06-25T07:11:28Z</time>
      </trkpt>
      <trkpt lat="46.62882" lon="5.24272">
        <ele>198.8</ele>
        <time>2022-06-25T07:11:29Z</time>
      </trkpt>
      <trkpt lat="46.62878" lon="5.24267">
        <ele>198.4</ele>
        <time>2022-06-25T07:11:30Z</time>
      </trkpt>
      <trkpt lat="46.62876" lon="5.24262">
        <ele>198.4</ele>
        <time>2022-06-25T07:11:31Z</time>
      </trkpt>
      <trkpt lat="46.62874" lon="5.24258">
        <ele>198.4</ele>
        <time>2022-06-25T07:11:32Z</time>
      </trkpt>
      <trkpt lat="46.62872" lon="5.24253">
        <ele>198.2</ele>
        <time>2022-06-25T07:11:33Z</time>
      </trkpt>
      <trkpt lat="46.6287" lon="5.2425">
        <ele>198.2</ele>
        <time>2022-06-25T07:11:34Z</time>
      </trkpt>
      <trkpt lat="46.62869" lon="5.24247">
        <ele>198.2</ele>
        <time>2022-06-25T07:11:35Z</time>
      </trkpt>
      <trkpt lat="46.62868" lon="5.24245">
        <ele>198.2</ele>
        <time>2022-06-25T07:11:36Z</time>
      </trkpt>
      <trkpt lat="46.62868" lon="5.24243">
        <ele>198</ele>
        <time>2022-06-25T07:11:37Z</time>
      </trkpt>
      <trkpt lat="46.62867" lon="5.24241">
        <ele>198</ele>
        <time>2022-06-25T07:11:38Z</time>
      </trkpt>
      <trkpt lat="46.62867" lon="5.2424">
        <ele>198</ele>
        <time>2022-06-25T07:11:39Z</time>
      </trkpt>
      <trkpt lat="46.62867" lon="5.24239">
        <ele>198</ele>
        <time>2022-06-25T07:11:40Z</time>
      </trkpt>
      <trkpt lat="46.62866" lon="5.24238">
        <ele>198</ele>
        <time>2022-06-25T07:11:41Z</time>
      </trkpt>
      <trkpt lat="46.62866" lon="5.24237">
        <ele>198</ele>
        <time>2022-06-25T07:11:42Z</time>
      </trkpt>
      <trkpt lat="46.62861" lon="5.24227">
        <ele>197.8</ele>
        <time>2022-06-25T07:12:52Z</time>
      </trkpt>
      <trkpt lat="46.6286" lon="5.24224">
        <ele>197.8</ele>
        <time>2022-06-25T07:12:53Z</time>
      </trkpt>
      <trkpt lat="46.62858" lon="5.2422">
        <ele>197.8</ele>
        <time>2022-06-25T07:12:54Z</time>
      </trkpt>
      <trkpt lat="46.62856" lon="5.24215">
        <ele>197.8</ele>
        <time>2022-06-25T07:12:55Z</time>
      </trkpt>
      <trkpt lat="46.62854" lon="5.24211">
        <ele>197.8</ele>
        <time>2022-06-25T07:12:56Z</time>
      </trkpt>
      <trkpt lat="46.62852" lon="5.24206">
        <ele>197.8</ele>
        <time>2022-06-25T07:12:57Z</time>
      </trkpt>
      <trkpt lat="46.6285" lon="5.24202">
        <ele>197.8</ele>
        <time>2022-06-25T07:12:58Z</time>
      </trkpt>
      <trkpt lat="46.62847" lon="5.24197">
        <ele>197.8</ele>
        <time>2022-06-25T07:12:59Z</time>
      </trkpt>
      <trkpt lat="46.62845" lon="5.24192">
        <ele>197.6</ele>
        <time>2022-06-25T07:13:00Z</time>
      </trkpt>
      <trkpt lat="46.62842" lon="5.24187">
        <ele>197.6</ele>
        <time>2022-06-25T07:13:01Z</time>
      </trkpt>
      <trkpt lat="46.62839" lon="5.24182">
        <ele>197.6</ele>
        <time>2022-06-25T07:13:02Z</time>
      </trkpt>
      <trkpt lat="46.62836" lon="5.24177">
        <ele>197.6</ele>
        <time>2022-06-25T07:13:03Z</time>
      </trkpt>
      <trkpt lat="46.62833" lon="5.24171">
        <ele>197.6</ele>
        <time>2022-06-25T07:13:04Z</time>
      </trkpt>
      <trkpt lat="46.6283" lon="5.24166">
        <ele>197.6</ele>
        <time>2022-06-25T07:13:05Z</time>
      </trkpt>
      <trkpt lat="46.62827" lon="5.2416">
        <ele>197.2</ele>
        <time>2022-06-25T07:13:06Z</time>
      </trkpt>
      <trkpt lat="46.62824" lon="5.24154">
        <ele>197.2</ele>
        <time>2022-06-25T07:13:07Z</time>
      </trkpt>
      <trkpt lat="46.62821" lon="5.24149">
        <ele>197.2</ele>
        <time>2022-06-25T07:13:08Z</time>
      </trkpt>
      <trkpt lat="46.62818" lon="5.24144">
        <ele>197.2</ele>
        <time>2022-06-25T07:13:09Z</time>
      </trkpt>
      <trkpt lat="46.62815" lon="5.24138">
        <ele>197.2</ele>
        <time>2022-06-25T07:13:10Z</time>
      </trkpt>
      <trkpt lat="46.62812" lon="5.24132">
        <ele>197.2</ele>
        <time>2022-06-25T07:13:11Z</time>
      </trkpt>
      <trkpt lat="46.62809" lon="5.24126">
        <ele>197</ele>
        <time>2022-06-25T07:13:12Z</time>
      </trkpt>
      <trkpt lat="46.62806" lon="5.2412">
        <ele>197</ele>
        <time>2022-06-25T07:13:13Z</time>
      </trkpt>
      <trkpt lat="46.62803" lon="5.24114">
        <ele>197</ele>
        <time>2022-06-25T07:13:14Z</time>
      </trkpt>
      <trkpt lat="46.628" lon="5.24108">
        <ele>197</ele>
        <time>2022-06-25T07:13:15Z</time>
      </trkpt>
      <trkpt lat="46.62797" lon="5.24102">
        <ele>197</ele>
        <time>2022-06-25T07:13:16Z</time>
      </trkpt>
      <trkpt lat="46.62794" lon="5.24095">
        <ele>196.8</ele>
        <time>2022-06-25T07:13:17Z</time>
      </trkpt>
      <trkpt lat="46.62791" lon="5.24089">
        <ele>196.8</ele>
        <time>2022-06-25T07:13:18Z</time>
      </trkpt>
      <trkpt lat="46.62788" lon="5.24083">
        <ele>196.8</ele>
        <time>2022-06-25T07:13:19Z</time>
      </trkpt>
      <trkpt lat="46.62785" lon="5.24077">
        <ele>196.4</ele>
        <time>2022-06-25T07:13:20Z</time>
      </trkpt>
      <trkpt lat="46.62782" lon="5.24071">
        <ele>196.4</ele>
        <time>2022-06-25T07:13:21Z</time>
      </trkpt>
      <trkpt lat="46.62779" lon="5.24065">
        <ele>196.4</ele>
        <time>2022-06-25T07:13:22Z</time>
      </trkpt>
      <trkpt lat="46.62776" lon="5.24058">
        <ele>196.2</ele>
        <time>2022-06-25T07:13:23Z</time>
      </trkpt>
      <trkpt lat="46.62772" lon="5.24051">
        <ele>196.2</ele>
        <time>2022-06-25T07:13:24Z</time>
      </trkpt>
      <trkpt lat="46.62769" lon="5.24044">
        <ele>196.2</ele>
        <time>2022-06-25T07:13:25Z</time>
      </trkpt>
      <trkpt lat="46.62766" lon="5.24037">
        <ele>196</ele>
        <time>2022-06-25T07:13:26Z</time>
      </trkpt>
      <trkpt lat="46.62762" lon="5.2403">
        <ele>196</ele>
        <time>2022-06-25T07:13:27Z</time>
      </trkpt>
      <trkpt lat="46.62758" lon="5.24023">
        <ele>196</ele>
        <time>2022-06-25T07:13:28Z</time>
      </trkpt>
      <trkpt lat="46.62755" lon="5.24016">
        <ele>195.8</ele>
        <time>2022-06-25T07:13:29Z</time>
      </trkpt>
      <trkpt lat="46.62751" lon="5.24008">
        <ele>195.8</ele>
        <time>2022-06-25T07:13:30Z</time>
      </trkpt>
      <trkpt lat="46.62747" lon="5.24001">
        <ele>195.8</ele>
        <time>2022-06-25T07:13:31Z</time>
      </trkpt>
      <trkpt lat="46.62743" lon="5.23993">
        <ele>195.8</ele>
        <time>2022-06-25T07:13:32Z</time>
      </trkpt>
      <trkpt lat="46.6274" lon="5.23986">
        <ele>195.8</ele>
        <time>2022-06-25T07:13:33Z</time>
      </trkpt>
      <trkpt lat="46.62736" lon="5.23978">
        <ele>195.8</ele>
        <time>2022-06-25T07:13:34Z</time>
      </trkpt>
      <trkpt lat="46.62733" lon="5.2397">
        <ele>195.4</ele>
        <time>2022-06-25T07:13:35Z</time>
      </trkpt>
      <trkpt lat="46.6273" lon="5.23961">
        <ele>195.4</ele>
        <time>2022-06-25T07:13:36Z</time>
      </trkpt>
      <trkpt lat="46.62727" lon="5.23953">
        <ele>195</ele>
        <time>2022-06-25T07:13:37Z</time>
      </trkpt>
      <trkpt lat="46.62724" lon="5.23945">
        <ele>195</ele>
        <time>2022-06-25T07:13:38Z</time>
      </trkpt>
      <trkpt lat="46.62721" lon="5.23937">
        <ele>195</ele>
        <time>2022-06-25T07:13:39Z</time>
      </trkpt>
      <trkpt lat="46.62718" lon="5.23929">
        <ele>195</ele>
        <time>2022-06-25T07:13:40Z</time>
      </trkpt>
      <trkpt lat="46.62716" lon="5.23922">
        <ele>195</ele>
        <time>2022-06-25T07:13:41Z</time>
      </trkpt>
      <trkpt lat="46.62713" lon="5.23914">
        <ele>194.8</ele>
        <time>2022-06-25T07:13:42Z</time>
      </trkpt>
      <trkpt lat="46.62711" lon="5.23906">
        <ele>194.8</ele>
        <time>2022-06-25T07:13:43Z</time>
      </trkpt>
      <trkpt lat="46.62709" lon="5.23898">
        <ele>194.6</ele>
        <time>2022-06-25T07:13:44Z</time>
      </trkpt>
      <trkpt lat="46.62707" lon="5.2389">
        <ele>194.6</ele>
        <time>2022-06-25T07:13:45Z</time>
      </trkpt>
      <trkpt lat="46.62705" lon="5.23882">
        <ele>194.6</ele>
        <time>2022-06-25T07:13:46Z</time>
      </trkpt>
      <trkpt lat="46.62704" lon="5.23875">
        <ele>194.4</ele>
        <time>2022-06-25T07:13:47Z</time>
      </trkpt>
      <trkpt lat="46.62702" lon="5.23867">
        <ele>194.4</ele>
        <time>2022-06-25T07:13:48Z</time>
      </trkpt>
      <trkpt lat="46.62701" lon="5.23858">
        <ele>194.4</ele>
        <time>2022-06-25T07:13:49Z</time>
      </trkpt>
      <trkpt lat="46.62699" lon="5.23851">
        <ele>194.2</ele>
        <time>2022-06-25T07:13:50Z</time>
      </trkpt>
      <trkpt lat="46.62698" lon="5.23842">
        <ele>194.2</ele>
        <time>2022-06-25T07:13:51Z</time>
      </trkpt>
      <trkpt lat="46.62697" lon="5.23834">
        <ele>194.2</ele>
        <time>2022-06-25T07:13:52Z</time>
      </trkpt>
      <trkpt lat="46.62695" lon="5.23825">
        <ele>194.2</ele>
        <time>2022-06-25T07:13:53Z</time>
      </trkpt>
      <trkpt lat="46.62694" lon="5.23816">
        <ele>194.2</ele>
        <time>2022-06-25T07:13:54Z</time>
      </trkpt>
      <trkpt lat="46.62693" lon="5.23808">
        <ele>194</ele>
        <time>2022-06-25T07:13:55Z</time>
      </trkpt>
      <trkpt lat="46.62692" lon="5.23799">
        <ele>194</ele>
        <time>2022-06-25T07:13:56Z</time>
      </trkpt>
      <trkpt lat="46.62691" lon="5.2379">
        <ele>193.8</ele>
        <time>2022-06-25T07:13:57Z</time>
      </trkpt>
      <trkpt lat="46.6269" lon="5.2378">
        <ele>193.8</ele>
        <time>2022-06-25T07:13:58Z</time>
      </trkpt>
      <trkpt lat="46.6269" lon="5.23771">
        <ele>193.8</ele>
        <time>2022-06-25T07:13:59Z</time>
      </trkpt>
      <trkpt lat="46.6269" lon="5.23761">
        <ele>193.8</ele>
        <time>2022-06-25T07:14:00Z</time>
      </trkpt>
      <trkpt lat="46.62689" lon="5.23751">
        <ele>193.8</ele>
        <time>2022-06-25T07:14:01Z</time>
      </trkpt>
      <trkpt lat="46.62689" lon="5.23741">
        <ele>193.8</ele>
        <time>2022-06-25T07:14:02Z</time>
      </trkpt>
      <trkpt lat="46.62688" lon="5.23731">
        <ele>193.8</ele>
        <time>2022-06-25T07:14:03Z</time>
      </trkpt>
      <trkpt lat="46.62688" lon="5.23722">
        <ele>193.4</ele>
        <time>2022-06-25T07:14:04Z</time>
      </trkpt>
      <trkpt lat="46.62688" lon="5.23712">
        <ele>193.4</ele>
        <time>2022-06-25T07:14:05Z</time>
      </trkpt>
      <trkpt lat="46.62688" lon="5.23702">
        <ele>193.4</ele>
        <time>2022-06-25T07:14:06Z</time>
      </trkpt>
      <trkpt lat="46.62688" lon="5.23692">
        <ele>193.4</ele>
        <time>2022-06-25T07:14:07Z</time>
      </trkpt>
      <trkpt lat="46.62688" lon="5.23683">
        <ele>193.4</ele>
        <time>2022-06-25T07:14:08Z</time>
      </trkpt>
      <trkpt lat="46.62689" lon="5.23673">
        <ele>193.2</ele>
        <time>2022-06-25T07:14:09Z</time>
      </trkpt>
      <trkpt lat="46.6269" lon="5.23662">
        <ele>193.2</ele>
        <time>2022-06-25T07:14:10Z</time>
      </trkpt>
      <trkpt lat="46.62691" lon="5.23652">
        <ele>193.2</ele>
        <time>2022-06-25T07:14:11Z</time>
      </trkpt>
      <trkpt lat="46.62693" lon="5.23641">
        <ele>193.2</ele>
        <time>2022-06-25T07:14:12Z</time>
      </trkpt>
      <trkpt lat="46.62694" lon="5.23631">
        <ele>193</ele>
        <time>2022-06-25T07:14:13Z</time>
      </trkpt>
      <trkpt lat="46.62696" lon="5.23621">
        <ele>193</ele>
        <time>2022-06-25T07:14:14Z</time>
      </trkpt>
      <trkpt lat="46.62697" lon="5.2361">
        <ele>193</ele>
        <time>2022-06-25T07:14:15Z</time>
      </trkpt>
      <trkpt lat="46.62699" lon="5.236">
        <ele>193</ele>
        <time>2022-06-25T07:14:16Z</time>
      </trkpt>
      <trkpt lat="46.627" lon="5.2359">
        <ele>193</ele>
        <time>2022-06-25T07:14:17Z</time>
      </trkpt>
      <trkpt lat="46.62702" lon="5.2358">
        <ele>192.8</ele>
        <time>2022-06-25T07:14:18Z</time>
      </trkpt>
      <trkpt lat="46.62704" lon="5.2357">
        <ele>192.8</ele>
        <time>2022-06-25T07:14:19Z</time>
      </trkpt>
      <trkpt lat="46.62706" lon="5.2356">
        <ele>192.8</ele>
        <time>2022-06-25T07:14:20Z</time>
      </trkpt>
      <trkpt lat="46.62709" lon="5.2355">
        <ele>192.8</ele>
        <time>2022-06-25T07:14:21Z</time>
      </trkpt>
      <trkpt lat="46.62712" lon="5.2354">
        <ele>192.8</ele>
        <time>2022-06-25T07:14:22Z</time>
      </trkpt>
      <trkpt lat="46.62714" lon="5.2353">
        <ele>192.8</ele>
        <time>2022-06-25T07:14:23Z</time>
      </trkpt>
      <trkpt lat="46.62717" lon="5.23521">
        <ele>192.8</ele>
        <time>2022-06-25T07:14:24Z</time>
      </trkpt>
      <trkpt lat="46.6272" lon="5.23511">
        <ele>192.6</ele>
        <time>2022-06-25T07:14:25Z</time>
      </trkpt>
      <trkpt lat="46.62722" lon="5.23501">
        <ele>192.6</ele>
        <time>2022-06-25T07:14:26Z</time>
      </trkpt>
      <trkpt lat="46.62725" lon="5.23491">
        <ele>192.6</ele>
        <time>2022-06-25T07:14:27Z</time>
      </trkpt>
      <trkpt lat="46.62728" lon="5.23482">
        <ele>192.2</ele>
        <time>2022-06-25T07:14:28Z</time>
      </trkpt>
      <trkpt lat="46.62732" lon="5.23472">
        <ele>192.2</ele>
        <time>2022-06-25T07:14:29Z</time>
      </trkpt>
      <trkpt lat="46.62735" lon="5.23463">
        <ele>192</ele>
        <time>2022-06-25T07:14:30Z</time>
      </trkpt>
      <trkpt lat="46.62738" lon="5.23453">
        <ele>191.8</ele>
        <time>2022-06-25T07:14:31Z</time>
      </trkpt>
      <trkpt lat="46.62742" lon="5.23444">
        <ele>191.8</ele>
        <time>2022-06-25T07:14:32Z</time>
      </trkpt>
      <trkpt lat="46.62746" lon="5.23435">
        <ele>191.4</ele>
        <time>2022-06-25T07:14:33Z</time>
      </trkpt>
      <trkpt lat="46.6275" lon="5.23427">
        <ele>191.4</ele>
        <time>2022-06-25T07:14:34Z</time>
      </trkpt>
      <trkpt lat="46.62754" lon="5.23419">
        <ele>191.2</ele>
        <time>2022-06-25T07:14:35Z</time>
      </trkpt>
      <trkpt lat="46.62758" lon="5.2341">
        <ele>191.2</ele>
        <time>2022-06-25T07:14:36Z</time>
      </trkpt>
      <trkpt lat="46.62762" lon="5.23402">
        <ele>190.8</ele>
        <time>2022-06-25T07:14:37Z</time>
      </trkpt>
      <trkpt lat="46.62766" lon="5.23394">
        <ele>190.8</ele>
        <time>2022-06-25T07:14:38Z</time>
      </trkpt>
      <trkpt lat="46.6277" lon="5.23386">
        <ele>190.6</ele>
        <time>2022-06-25T07:14:39Z</time>
      </trkpt>
      <trkpt lat="46.62775" lon="5.23378">
        <ele>190.6</ele>
        <time>2022-06-25T07:14:40Z</time>
      </trkpt>
      <trkpt lat="46.62779" lon="5.23371">
        <ele>190.4</ele>
        <time>2022-06-25T07:14:41Z</time>
      </trkpt>
      <trkpt lat="46.62783" lon="5.23363">
        <ele>190.4</ele>
        <time>2022-06-25T07:14:42Z</time>
      </trkpt>
      <trkpt lat="46.62788" lon="5.23356">
        <ele>190.4</ele>
        <time>2022-06-25T07:14:43Z</time>
      </trkpt>
      <trkpt lat="46.62792" lon="5.23349">
        <ele>190.4</ele>
        <time>2022-06-25T07:14:44Z</time>
      </trkpt>
      <trkpt lat="46.62796" lon="5.23341">
        <ele>190.2</ele>
        <time>2022-06-25T07:14:45Z</time>
      </trkpt>
      <trkpt lat="46.628" lon="5.23334">
        <ele>190.2</ele>
        <time>2022-06-25T07:14:46Z</time>
      </trkpt>
      <trkpt lat="46.62804" lon="5.23326">
        <ele>190.2</ele>
        <time>2022-06-25T07:14:47Z</time>
      </trkpt>
      <trkpt lat="46.62808" lon="5.23319">
        <ele>190.2</ele>
        <time>2022-06-25T07:14:48Z</time>
      </trkpt>
      <trkpt lat="46.62812" lon="5.23311">
        <ele>189.8</ele>
        <time>2022-06-25T07:14:49Z</time>
      </trkpt>
      <trkpt lat="46.62815" lon="5.23304">
        <ele>189.6</ele>
        <time>2022-06-25T07:14:50Z</time>
      </trkpt>
      <trkpt lat="46.62819" lon="5.23297">
        <ele>189.6</ele>
        <time>2022-06-25T07:14:51Z</time>
      </trkpt>
      <trkpt lat="46.62823" lon="5.2329">
        <ele>189.2</ele>
        <time>2022-06-25T07:14:52Z</time>
      </trkpt>
      <trkpt lat="46.62826" lon="5.23284">
        <ele>189.2</ele>
        <time>2022-06-25T07:14:53Z</time>
      </trkpt>
      <trkpt lat="46.62829" lon="5.23278">
        <ele>189</ele>
        <time>2022-06-25T07:14:54Z</time>
      </trkpt>
      <trkpt lat="46.62832" lon="5.23272">
        <ele>189</ele>
        <time>2022-06-25T07:14:55Z</time>
      </trkpt>
      <trkpt lat="46.62836" lon="5.23268">
        <ele>188.8</ele>
        <time>2022-06-25T07:14:56Z</time>
      </trkpt>
      <trkpt lat="46.62839" lon="5.23263">
        <ele>188.8</ele>
        <time>2022-06-25T07:14:57Z</time>
      </trkpt>
      <trkpt lat="46.62843" lon="5.23258">
        <ele>188.8</ele>
        <time>2022-06-25T07:14:58Z</time>
      </trkpt>
      <trkpt lat="46.62846" lon="5.23253">
        <ele>188.8</ele>
        <time>2022-06-25T07:14:59Z</time>
      </trkpt>
      <trkpt lat="46.62849" lon="5.23247">
        <ele>188.8</ele>
        <time>2022-06-25T07:15:00Z</time>
      </trkpt>
      <trkpt lat="46.62851" lon="5.23241">
        <ele>188.8</ele>
        <time>2022-06-25T07:15:01Z</time>
      </trkpt>
      <trkpt lat="46.62854" lon="5.23234">
        <ele>188.8</ele>
        <time>2022-06-25T07:15:02Z</time>
      </trkpt>
      <trkpt lat="46.62858" lon="5.23228">
        <ele>188.8</ele>
        <time>2022-06-25T07:15:03Z</time>
      </trkpt>
      <trkpt lat="46.62861" lon="5.23221">
        <ele>188.8</ele>
        <time>2022-06-25T07:15:04Z</time>
      </trkpt>
      <trkpt lat="46.62865" lon="5.23215">
        <ele>188.8</ele>
        <time>2022-06-25T07:15:05Z</time>
      </trkpt>
      <trkpt lat="46.62868" lon="5.23209">
        <ele>188.8</ele>
        <time>2022-06-25T07:15:06Z</time>
      </trkpt>
      <trkpt lat="46.62872" lon="5.23202">
        <ele>188.8</ele>
        <time>2022-06-25T07:15:07Z</time>
      </trkpt>
      <trkpt lat="46.62875" lon="5.23195">
        <ele>188.8</ele>
        <time>2022-06-25T07:15:08Z</time>
      </trkpt>
      <trkpt lat="46.62879" lon="5.23189">
        <ele>188.8</ele>
        <time>2022-06-25T07:15:09Z</time>
      </trkpt>
      <trkpt lat="46.62882" lon="5.23183">
        <ele>188.8</ele>
        <time>2022-06-25T07:15:10Z</time>
      </trkpt>
      <trkpt lat="46.62886" lon="5.23176">
        <ele>188.8</ele>
        <time>2022-06-25T07:15:11Z</time>
      </trkpt>
      <trkpt lat="46.62889" lon="5.2317">
        <ele>188.8</ele>
        <time>2022-06-25T07:15:12Z</time>
      </trkpt>
      <trkpt lat="46.62893" lon="5.23163">
        <ele>188.8</ele>
        <time>2022-06-25T07:15:13Z</time>
      </trkpt>
      <trkpt lat="46.62896" lon="5.23156">
        <ele>188.8</ele>
        <time>2022-06-25T07:15:14Z</time>
      </trkpt>
      <trkpt lat="46.629" lon="5.2315">
        <ele>189</ele>
        <time>2022-06-25T07:15:15Z</time>
      </trkpt>
      <trkpt lat="46.62903" lon="5.23144">
        <ele>189</ele>
        <time>2022-06-25T07:15:16Z</time>
      </trkpt>
      <trkpt lat="46.62907" lon="5.23138">
        <ele>189</ele>
        <time>2022-06-25T07:15:17Z</time>
      </trkpt>
      <trkpt lat="46.6291" lon="5.23131">
        <ele>189</ele>
        <time>2022-06-25T07:15:18Z</time>
      </trkpt>
      <trkpt lat="46.62913" lon="5.23124">
        <ele>189</ele>
        <time>2022-06-25T07:15:19Z</time>
      </trkpt>
      <trkpt lat="46.62916" lon="5.23118">
        <ele>188.8</ele>
        <time>2022-06-25T07:15:20Z</time>
      </trkpt>
      <trkpt lat="46.62919" lon="5.23111">
        <ele>188.8</ele>
        <time>2022-06-25T07:15:21Z</time>
      </trkpt>
      <trkpt lat="46.62923" lon="5.23104">
        <ele>188.8</ele>
        <time>2022-06-25T07:15:22Z</time>
      </trkpt>
      <trkpt lat="46.62927" lon="5.23099">
        <ele>188.8</ele>
        <time>2022-06-25T07:15:23Z</time>
      </trkpt>
      <trkpt lat="46.62931" lon="5.23093">
        <ele>188.8</ele>
        <time>2022-06-25T07:15:24Z</time>
      </trkpt>
      <trkpt lat="46.62936" lon="5.23087">
        <ele>189</ele>
        <time>2022-06-25T07:15:25Z</time>
      </trkpt>
      <trkpt lat="46.62939" lon="5.23081">
        <ele>189</ele>
        <time>2022-06-25T07:15:26Z</time>
      </trkpt>
      <trkpt lat="46.62943" lon="5.23075">
        <ele>189</ele>
        <time>2022-06-25T07:15:27Z</time>
      </trkpt>
      <trkpt lat="46.62947" lon="5.23069">
        <ele>189</ele>
        <time>2022-06-25T07:15:28Z</time>
      </trkpt>
      <trkpt lat="46.62951" lon="5.23063">
        <ele>189</ele>
        <time>2022-06-25T07:15:29Z</time>
      </trkpt>
      <trkpt lat="46.62955" lon="5.23058">
        <ele>189.2</ele>
        <time>2022-06-25T07:15:30Z</time>
      </trkpt>
      <trkpt lat="46.62959" lon="5.23053">
        <ele>189.2</ele>
        <time>2022-06-25T07:15:31Z</time>
      </trkpt>
      <trkpt lat="46.62964" lon="5.23048">
        <ele>189.2</ele>
        <time>2022-06-25T07:15:32Z</time>
      </trkpt>
      <trkpt lat="46.62968" lon="5.23042">
        <ele>189.2</ele>
        <time>2022-06-25T07:15:33Z</time>
      </trkpt>
      <trkpt lat="46.62972" lon="5.23038">
        <ele>189.2</ele>
        <time>2022-06-25T07:15:34Z</time>
      </trkpt>
      <trkpt lat="46.62977" lon="5.23033">
        <ele>189.2</ele>
        <time>2022-06-25T07:15:35Z</time>
      </trkpt>
      <trkpt lat="46.62981" lon="5.23028">
        <ele>189.2</ele>
        <time>2022-06-25T07:15:36Z</time>
      </trkpt>
      <trkpt lat="46.62985" lon="5.23024">
        <ele>189.4</ele>
        <time>2022-06-25T07:15:37Z</time>
      </trkpt>
      <trkpt lat="46.6299" lon="5.23019">
        <ele>189.4</ele>
        <time>2022-06-25T07:15:38Z</time>
      </trkpt>
      <trkpt lat="46.62994" lon="5.23015">
        <ele>189.4</ele>
        <time>2022-06-25T07:15:39Z</time>
      </trkpt>
      <trkpt lat="46.62998" lon="5.23011">
        <ele>189.4</ele>
        <time>2022-06-25T07:15:40Z</time>
      </trkpt>
      <trkpt lat="46.63003" lon="5.23006">
        <ele>189.4</ele>
        <time>2022-06-25T07:15:41Z</time>
      </trkpt>
      <trkpt lat="46.63007" lon="5.23002">
        <ele>189.4</ele>
        <time>2022-06-25T07:15:42Z</time>
      </trkpt>
      <trkpt lat="46.63011" lon="5.22999">
        <ele>189.4</ele>
        <time>2022-06-25T07:15:43Z</time>
      </trkpt>
      <trkpt lat="46.63014" lon="5.22996">
        <ele>189.6</ele>
        <time>2022-06-25T07:15:44Z</time>
      </trkpt>
      <trkpt lat="46.63018" lon="5.22993">
        <ele>189.6</ele>
        <time>2022-06-25T07:15:45Z</time>
      </trkpt>
      <trkpt lat="46.6302" lon="5.22991">
        <ele>189.6</ele>
        <time>2022-06-25T07:15:46Z</time>
      </trkpt>
      <trkpt lat="46.63023" lon="5.2299">
        <ele>189.6</ele>
        <time>2022-06-25T07:15:47Z</time>
      </trkpt>
      <trkpt lat="46.63025" lon="5.22988">
        <ele>189.6</ele>
        <time>2022-06-25T07:15:48Z</time>
      </trkpt>
      <trkpt lat="46.63028" lon="5.22987">
        <ele>189.6</ele>
        <time>2022-06-25T07:15:49Z</time>
      </trkpt>
      <trkpt lat="46.63029" lon="5.22985">
        <ele>189.6</ele>
        <time>2022-06-25T07:15:50Z</time>
      </trkpt>
      <trkpt lat="46.63031" lon="5.22984">
        <ele>189.6</ele>
        <time>2022-06-25T07:15:51Z</time>
      </trkpt>
      <trkpt lat="46.63033" lon="5.22983">
        <ele>189.6</ele>
        <time>2022-06-25T07:15:52Z</time>
      </trkpt>
      <trkpt lat="46.63035" lon="5.22982">
        <ele>190</ele>
        <time>2022-06-25T07:15:53Z</time>
      </trkpt>
      <trkpt lat="46.63036" lon="5.22981">
        <ele>190</ele>
        <time>2022-06-25T07:15:54Z</time>
      </trkpt>
      <trkpt lat="46.63038" lon="5.2298">
        <ele>190</ele>
        <time>2022-06-25T07:15:55Z</time>
      </trkpt>
      <trkpt lat="46.63038" lon="5.22979">
        <ele>190</ele>
        <time>2022-06-25T07:15:56Z</time>
      </trkpt>
      <trkpt lat="46.63039" lon="5.22978">
        <ele>190</ele>
        <time>2022-06-25T07:15:57Z</time>
      </trkpt>
      <trkpt lat="46.63039" lon="5.22977">
        <ele>190</ele>
        <time>2022-06-25T07:15:58Z</time>
      </trkpt>
      <trkpt lat="46.6304" lon="5.22977">
        <ele>190</ele>
        <time>2022-06-25T07:15:59Z</time>
      </trkpt>
      <trkpt lat="46.63043" lon="5.22976">
        <ele>190</ele>
        <time>2022-06-25T07:16:00Z</time>
      </trkpt>
      <trkpt lat="46.63044" lon="5.22976">
        <ele>190</ele>
        <time>2022-06-25T07:16:01Z</time>
      </trkpt>
      <trkpt lat="46.63046" lon="5.22975">
        <ele>190</ele>
        <time>2022-06-25T07:16:02Z</time>
      </trkpt>
      <trkpt lat="46.63048" lon="5.22975">
        <ele>190</ele>
        <time>2022-06-25T07:16:03Z</time>
      </trkpt>
      <trkpt lat="46.63049" lon="5.22975">
        <ele>190</ele>
        <time>2022-06-25T07:16:04Z</time>
      </trkpt>
      <trkpt lat="46.6305" lon="5.22976">
        <ele>190</ele>
        <time>2022-06-25T07:16:05Z</time>
      </trkpt>
      <trkpt lat="46.63051" lon="5.22976">
        <ele>190.2</ele>
        <time>2022-06-25T07:16:06Z</time>
      </trkpt>
      <trkpt lat="46.63052" lon="5.22976">
        <ele>190.2</ele>
        <time>2022-06-25T07:16:07Z</time>
      </trkpt>
      <trkpt lat="46.63054" lon="5.22974">
        <ele>190.2</ele>
        <time>2022-06-25T07:16:09Z</time>
      </trkpt>
      <trkpt lat="46.63055" lon="5.22972">
        <ele>190.2</ele>
        <time>2022-06-25T07:16:10Z</time>
      </trkpt>
      <trkpt lat="46.63056" lon="5.22969">
        <ele>190.4</ele>
        <time>2022-06-25T07:16:11Z</time>
      </trkpt>
      <trkpt lat="46.63058" lon="5.22966">
        <ele>190.4</ele>
        <time>2022-06-25T07:16:12Z</time>
      </trkpt>
      <trkpt lat="46.63059" lon="5.22963">
        <ele>190.4</ele>
        <time>2022-06-25T07:16:13Z</time>
      </trkpt>
      <trkpt lat="46.63062" lon="5.22959">
        <ele>190.4</ele>
        <time>2022-06-25T07:16:14Z</time>
      </trkpt>
      <trkpt lat="46.63064" lon="5.22956">
        <ele>190.4</ele>
        <time>2022-06-25T07:16:15Z</time>
      </trkpt>
      <trkpt lat="46.63067" lon="5.22953">
        <ele>190.4</ele>
        <time>2022-06-25T07:16:16Z</time>
      </trkpt>
      <trkpt lat="46.6307" lon="5.2295">
        <ele>190.4</ele>
        <time>2022-06-25T07:16:17Z</time>
      </trkpt>
      <trkpt lat="46.63074" lon="5.22946">
        <ele>190.4</ele>
        <time>2022-06-25T07:16:18Z</time>
      </trkpt>
      <trkpt lat="46.63078" lon="5.22943">
        <ele>190.4</ele>
        <time>2022-06-25T07:16:19Z</time>
      </trkpt>
      <trkpt lat="46.63082" lon="5.22939">
        <ele>190.4</ele>
        <time>2022-06-25T07:16:20Z</time>
      </trkpt>
      <trkpt lat="46.63086" lon="5.22935">
        <ele>190.2</ele>
        <time>2022-06-25T07:16:21Z</time>
      </trkpt>
      <trkpt lat="46.6309" lon="5.22931">
        <ele>190.2</ele>
        <time>2022-06-25T07:16:22Z</time>
      </trkpt>
      <trkpt lat="46.63094" lon="5.22927">
        <ele>190.2</ele>
        <time>2022-06-25T07:16:23Z</time>
      </trkpt>
      <trkpt lat="46.63097" lon="5.22924">
        <ele>190</ele>
        <time>2022-06-25T07:16:24Z</time>
      </trkpt>
      <trkpt lat="46.63101" lon="5.2292">
        <ele>190</ele>
        <time>2022-06-25T07:16:25Z</time>
      </trkpt>
      <trkpt lat="46.63106" lon="5.22916">
        <ele>190</ele>
        <time>2022-06-25T07:16:26Z</time>
      </trkpt>
      <trkpt lat="46.63111" lon="5.22913">
        <ele>190</ele>
        <time>2022-06-25T07:16:27Z</time>
      </trkpt>
      <trkpt lat="46.63115" lon="5.22909">
        <ele>190</ele>
        <time>2022-06-25T07:16:28Z</time>
      </trkpt>
      <trkpt lat="46.6312" lon="5.22904">
        <ele>189.6</ele>
        <time>2022-06-25T07:16:29Z</time>
      </trkpt>
      <trkpt lat="46.63125" lon="5.229">
        <ele>189.6</ele>
        <time>2022-06-25T07:16:30Z</time>
      </trkpt>
      <trkpt lat="46.63129" lon="5.22894">
        <ele>189.6</ele>
        <time>2022-06-25T07:16:31Z</time>
      </trkpt>
      <trkpt lat="46.63133" lon="5.22889">
        <ele>189.4</ele>
        <time>2022-06-25T07:16:32Z</time>
      </trkpt>
      <trkpt lat="46.63137" lon="5.22884">
        <ele>189.4</ele>
        <time>2022-06-25T07:16:33Z</time>
      </trkpt>
      <trkpt lat="46.63141" lon="5.22878">
        <ele>189.4</ele>
        <time>2022-06-25T07:16:34Z</time>
      </trkpt>
      <trkpt lat="46.63145" lon="5.22873">
        <ele>189.4</ele>
        <time>2022-06-25T07:16:35Z</time>
      </trkpt>
      <trkpt lat="46.6315" lon="5.22867">
        <ele>189.2</ele>
        <time>2022-06-25T07:16:36Z</time>
      </trkpt>
      <trkpt lat="46.63154" lon="5.22861">
        <ele>189.2</ele>
        <time>2022-06-25T07:16:37Z</time>
      </trkpt>
      <trkpt lat="46.63158" lon="5.22856">
        <ele>189.2</ele>
        <time>2022-06-25T07:16:38Z</time>
      </trkpt>
      <trkpt lat="46.63163" lon="5.2285">
        <ele>189.2</ele>
        <time>2022-06-25T07:16:39Z</time>
      </trkpt>
      <trkpt lat="46.63168" lon="5.22844">
        <ele>189.2</ele>
        <time>2022-06-25T07:16:40Z</time>
      </trkpt>
      <trkpt lat="46.63172" lon="5.22839">
        <ele>189</ele>
        <time>2022-06-25T07:16:41Z</time>
      </trkpt>
      <trkpt lat="46.63177" lon="5.22833">
        <ele>189</ele>
        <time>2022-06-25T07:16:42Z</time>
      </trkpt>
      <trkpt lat="46.63181" lon="5.22827">
        <ele>189</ele>
        <time>2022-06-25T07:16:43Z</time>
      </trkpt>
      <trkpt lat="46.63186" lon="5.2282">
        <ele>188.8</ele>
        <time>2022-06-25T07:16:44Z</time>
      </trkpt>
      <trkpt lat="46.6319" lon="5.22813">
        <ele>188.8</ele>
        <time>2022-06-25T07:16:45Z</time>
      </trkpt>
      <trkpt lat="46.63194" lon="5.22806">
        <ele>188.8</ele>
        <time>2022-06-25T07:16:46Z</time>
      </trkpt>
      <trkpt lat="46.63198" lon="5.22799">
        <ele>188.8</ele>
        <time>2022-06-25T07:16:47Z</time>
      </trkpt>
      <trkpt lat="46.63203" lon="5.22792">
        <ele>188.4</ele>
        <time>2022-06-25T07:16:48Z</time>
      </trkpt>
      <trkpt lat="46.63207" lon="5.22785">
        <ele>188.4</ele>
        <time>2022-06-25T07:16:49Z</time>
      </trkpt>
      <trkpt lat="46.63211" lon="5.22778">
        <ele>188.4</ele>
        <time>2022-06-25T07:16:50Z</time>
      </trkpt>
      <trkpt lat="46.63216" lon="5.22771">
        <ele>188.4</ele>
        <time>2022-06-25T07:16:51Z</time>
      </trkpt>
      <trkpt lat="46.6322" lon="5.22764">
        <ele>188.2</ele>
        <time>2022-06-25T07:16:52Z</time>
      </trkpt>
      <trkpt lat="46.63223" lon="5.22756">
        <ele>188.2</ele>
        <time>2022-06-25T07:16:53Z</time>
      </trkpt>
      <trkpt lat="46.63227" lon="5.22749">
        <ele>187.8</ele>
        <time>2022-06-25T07:16:54Z</time>
      </trkpt>
      <trkpt lat="46.63231" lon="5.22741">
        <ele>187.8</ele>
        <time>2022-06-25T07:16:55Z</time>
      </trkpt>
      <trkpt lat="46.63235" lon="5.22734">
        <ele>187.6</ele>
        <time>2022-06-25T07:16:56Z</time>
      </trkpt>
      <trkpt lat="46.63239" lon="5.22726">
        <ele>187.6</ele>
        <time>2022-06-25T07:16:57Z</time>
      </trkpt>
      <trkpt lat="46.63242" lon="5.22718">
        <ele>187.6</ele>
        <time>2022-06-25T07:16:58Z</time>
      </trkpt>
      <trkpt lat="46.63245" lon="5.2271">
        <ele>187.6</ele>
        <time>2022-06-25T07:16:59Z</time>
      </trkpt>
      <trkpt lat="46.63248" lon="5.22703">
        <ele>187.6</ele>
        <time>2022-06-25T07:17:00Z</time>
      </trkpt>
      <trkpt lat="46.63251" lon="5.22694">
        <ele>187.6</ele>
        <time>2022-06-25T07:17:01Z</time>
      </trkpt>
      <trkpt lat="46.63254" lon="5.22686">
        <ele>187.4</ele>
        <time>2022-06-25T07:17:02Z</time>
      </trkpt>
      <trkpt lat="46.63257" lon="5.22678">
        <ele>187.4</ele>
        <time>2022-06-25T07:17:03Z</time>
      </trkpt>
      <trkpt lat="46.63259" lon="5.2267">
        <ele>187.4</ele>
        <time>2022-06-25T07:17:04Z</time>
      </trkpt>
      <trkpt lat="46.63262" lon="5.22662">
        <ele>187.4</ele>
        <time>2022-06-25T07:17:05Z</time>
      </trkpt>
      <trkpt lat="46.63264" lon="5.22654">
        <ele>187.4</ele>
        <time>2022-06-25T07:17:06Z</time>
      </trkpt>
      <trkpt lat="46.63267" lon="5.22646">
        <ele>187.2</ele>
        <time>2022-06-25T07:17:07Z</time>
      </trkpt>
      <trkpt lat="46.63269" lon="5.22638">
        <ele>187.2</ele>
        <time>2022-06-25T07:17:08Z</time>
      </trkpt>
      <trkpt lat="46.63271" lon="5.2263">
        <ele>187</ele>
        <time>2022-06-25T07:17:09Z</time>
      </trkpt>
      <trkpt lat="46.63273" lon="5.22622">
        <ele>187</ele>
        <time>2022-06-25T07:17:10Z</time>
      </trkpt>
      <trkpt lat="46.63275" lon="5.22615">
        <ele>187</ele>
        <time>2022-06-25T07:17:11Z</time>
      </trkpt>
      <trkpt lat="46.63277" lon="5.22607">
        <ele>187</ele>
        <time>2022-06-25T07:17:12Z</time>
      </trkpt>
      <trkpt lat="46.63278" lon="5.22599">
        <ele>187</ele>
        <time>2022-06-25T07:17:13Z</time>
      </trkpt>
      <trkpt lat="46.6328" lon="5.22591">
        <ele>187</ele>
        <time>2022-06-25T07:17:14Z</time>
      </trkpt>
      <trkpt lat="46.63281" lon="5.22583">
        <ele>187</ele>
        <time>2022-06-25T07:17:15Z</time>
      </trkpt>
      <trkpt lat="46.63282" lon="5.22575">
        <ele>187</ele>
        <time>2022-06-25T07:17:16Z</time>
      </trkpt>
      <trkpt lat="46.63283" lon="5.22568">
        <ele>187</ele>
        <time>2022-06-25T07:17:17Z</time>
      </trkpt>
      <trkpt lat="46.63285" lon="5.2256">
        <ele>186.8</ele>
        <time>2022-06-25T07:17:18Z</time>
      </trkpt>
      <trkpt lat="46.63286" lon="5.22553">
        <ele>186.8</ele>
        <time>2022-06-25T07:17:19Z</time>
      </trkpt>
      <trkpt lat="46.63287" lon="5.22546">
        <ele>186.8</ele>
        <time>2022-06-25T07:17:20Z</time>
      </trkpt>
      <trkpt lat="46.63288" lon="5.22539">
        <ele>186.8</ele>
        <time>2022-06-25T07:17:21Z</time>
      </trkpt>
      <trkpt lat="46.63288" lon="5.22532">
        <ele>186.8</ele>
        <time>2022-06-25T07:17:22Z</time>
      </trkpt>
      <trkpt lat="46.63289" lon="5.22526">
        <ele>186.8</ele>
        <time>2022-06-25T07:17:23Z</time>
      </trkpt>
      <trkpt lat="46.6329" lon="5.22521">
        <ele>186.8</ele>
        <time>2022-06-25T07:17:24Z</time>
      </trkpt>
      <trkpt lat="46.63291" lon="5.22517">
        <ele>186.6</ele>
        <time>2022-06-25T07:17:25Z</time>
      </trkpt>
      <trkpt lat="46.63293" lon="5.22512">
        <ele>186.6</ele>
        <time>2022-06-25T07:17:26Z</time>
      </trkpt>
      <trkpt lat="46.63294" lon="5.22509">
        <ele>186.6</ele>
        <time>2022-06-25T07:17:27Z</time>
      </trkpt>
      <trkpt lat="46.63296" lon="5.22506">
        <ele>186.2</ele>
        <time>2022-06-25T07:17:28Z</time>
      </trkpt>
      <trkpt lat="46.63296" lon="5.22503">
        <ele>186.2</ele>
        <time>2022-06-25T07:17:29Z</time>
      </trkpt>
      <trkpt lat="46.63296" lon="5.225">
        <ele>186.2</ele>
        <time>2022-06-25T07:17:30Z</time>
      </trkpt>
      <trkpt lat="46.63296" lon="5.22498">
        <ele>186.2</ele>
        <time>2022-06-25T07:17:31Z</time>
      </trkpt>
      <trkpt lat="46.63296" lon="5.22497">
        <ele>186.2</ele>
        <time>2022-06-25T07:17:32Z</time>
      </trkpt>
      <trkpt lat="46.63296" lon="5.22497">
        <ele>186.2</ele>
        <time>2022-06-25T07:17:34Z</time>
      </trkpt>
      <trkpt lat="46.63296" lon="5.22493">
        <ele>186</ele>
        <time>2022-06-25T07:17:39Z</time>
      </trkpt>
      <trkpt lat="46.63295" lon="5.2249">
        <ele>186</ele>
        <time>2022-06-25T07:17:40Z</time>
      </trkpt>
      <trkpt lat="46.63294" lon="5.22487">
        <ele>186</ele>
        <time>2022-06-25T07:17:41Z</time>
      </trkpt>
      <trkpt lat="46.63294" lon="5.22483">
        <ele>186</ele>
        <time>2022-06-25T07:17:42Z</time>
      </trkpt>
      <trkpt lat="46.63294" lon="5.22481">
        <ele>186</ele>
        <time>2022-06-25T07:17:43Z</time>
      </trkpt>
      <trkpt lat="46.63293" lon="5.22478">
        <ele>186.2</ele>
        <time>2022-06-25T07:17:44Z</time>
      </trkpt>
      <trkpt lat="46.63294" lon="5.22475">
        <ele>186.2</ele>
        <time>2022-06-25T07:17:45Z</time>
      </trkpt>
      <trkpt lat="46.63294" lon="5.22472">
        <ele>186.2</ele>
        <time>2022-06-25T07:17:46Z</time>
      </trkpt>
      <trkpt lat="46.63294" lon="5.22469">
        <ele>186.2</ele>
        <time>2022-06-25T07:17:47Z</time>
      </trkpt>
      <trkpt lat="46.63294" lon="5.22467">
        <ele>186.4</ele>
        <time>2022-06-25T07:17:48Z</time>
      </trkpt>
      <trkpt lat="46.63293" lon="5.22465">
        <ele>186.4</ele>
        <time>2022-06-25T07:17:49Z</time>
      </trkpt>
      <trkpt lat="46.63293" lon="5.22463">
        <ele>186.4</ele>
        <time>2022-06-25T07:17:50Z</time>
      </trkpt>
      <trkpt lat="46.63293" lon="5.22459">
        <ele>186.4</ele>
        <time>2022-06-25T07:17:51Z</time>
      </trkpt>
      <trkpt lat="46.63293" lon="5.22456">
        <ele>186.4</ele>
        <time>2022-06-25T07:17:52Z</time>
      </trkpt>
      <trkpt lat="46.63294" lon="5.22452">
        <ele>186.4</ele>
        <time>2022-06-25T07:17:53Z</time>
      </trkpt>
      <trkpt lat="46.63294" lon="5.22447">
        <ele>186.4</ele>
        <time>2022-06-25T07:17:54Z</time>
      </trkpt>
      <trkpt lat="46.63294" lon="5.22442">
        <ele>186.6</ele>
        <time>2022-06-25T07:17:55Z</time>
      </trkpt>
      <trkpt lat="46.63294" lon="5.22437">
        <ele>186.6</ele>
        <time>2022-06-25T07:17:56Z</time>
      </trkpt>
      <trkpt lat="46.63294" lon="5.22432">
        <ele>186.6</ele>
        <time>2022-06-25T07:17:57Z</time>
      </trkpt>
      <trkpt lat="46.63294" lon="5.22426">
        <ele>186.6</ele>
        <time>2022-06-25T07:17:58Z</time>
      </trkpt>
      <trkpt lat="46.63293" lon="5.2242">
        <ele>186.6</ele>
        <time>2022-06-25T07:17:59Z</time>
      </trkpt>
      <trkpt lat="46.63293" lon="5.22414">
        <ele>186.6</ele>
        <time>2022-06-25T07:18:00Z</time>
      </trkpt>
      <trkpt lat="46.63292" lon="5.22408">
        <ele>186.6</ele>
        <time>2022-06-25T07:18:01Z</time>
      </trkpt>
      <trkpt lat="46.63292" lon="5.22401">
        <ele>186.6</ele>
        <time>2022-06-25T07:18:02Z</time>
      </trkpt>
      <trkpt lat="46.63291" lon="5.22395">
        <ele>186.6</ele>
        <time>2022-06-25T07:18:03Z</time>
      </trkpt>
      <trkpt lat="46.6329" lon="5.22388">
        <ele>186.6</ele>
        <time>2022-06-25T07:18:04Z</time>
      </trkpt>
      <trkpt lat="46.6329" lon="5.22382">
        <ele>186.6</ele>
        <time>2022-06-25T07:18:05Z</time>
      </trkpt>
      <trkpt lat="46.63289" lon="5.22375">
        <ele>186.6</ele>
        <time>2022-06-25T07:18:06Z</time>
      </trkpt>
      <trkpt lat="46.63288" lon="5.22369">
        <ele>186.6</ele>
        <time>2022-06-25T07:18:07Z</time>
      </trkpt>
      <trkpt lat="46.63287" lon="5.22363">
        <ele>186.6</ele>
        <time>2022-06-25T07:18:08Z</time>
      </trkpt>
      <trkpt lat="46.63287" lon="5.22357">
        <ele>187</ele>
        <time>2022-06-25T07:18:09Z</time>
      </trkpt>
      <trkpt lat="46.63286" lon="5.2235">
        <ele>187</ele>
        <time>2022-06-25T07:18:10Z</time>
      </trkpt>
      <trkpt lat="46.63285" lon="5.22345">
        <ele>187</ele>
        <time>2022-06-25T07:18:11Z</time>
      </trkpt>
      <trkpt lat="46.63285" lon="5.22338">
        <ele>187</ele>
        <time>2022-06-25T07:18:12Z</time>
      </trkpt>
      <trkpt lat="46.63284" lon="5.22332">
        <ele>187</ele>
        <time>2022-06-25T07:18:13Z</time>
      </trkpt>
      <trkpt lat="46.63283" lon="5.22325">
        <ele>187</ele>
        <time>2022-06-25T07:18:14Z</time>
      </trkpt>
      <trkpt lat="46.63282" lon="5.22319">
        <ele>187</ele>
        <time>2022-06-25T07:18:15Z</time>
      </trkpt>
      <trkpt lat="46.63281" lon="5.22312">
        <ele>187</ele>
        <time>2022-06-25T07:18:16Z</time>
      </trkpt>
      <trkpt lat="46.6328" lon="5.22305">
        <ele>187</ele>
        <time>2022-06-25T07:18:17Z</time>
      </trkpt>
      <trkpt lat="46.63279" lon="5.22298">
        <ele>187</ele>
        <time>2022-06-25T07:18:18Z</time>
      </trkpt>
      <trkpt lat="46.63278" lon="5.22292">
        <ele>187</ele>
        <time>2022-06-25T07:18:19Z</time>
      </trkpt>
      <trkpt lat="46.63277" lon="5.22284">
        <ele>187</ele>
        <time>2022-06-25T07:18:20Z</time>
      </trkpt>
      <trkpt lat="46.63276" lon="5.22277">
        <ele>187</ele>
        <time>2022-06-25T07:18:21Z</time>
      </trkpt>
      <trkpt lat="46.63276" lon="5.2227">
        <ele>187</ele>
        <time>2022-06-25T07:18:22Z</time>
      </trkpt>
      <trkpt lat="46.63275" lon="5.22263">
        <ele>187</ele>
        <time>2022-06-25T07:18:23Z</time>
      </trkpt>
      <trkpt lat="46.63274" lon="5.22256">
        <ele>187</ele>
        <time>2022-06-25T07:18:24Z</time>
      </trkpt>
      <trkpt lat="46.63273" lon="5.22249">
        <ele>187.2</ele>
        <time>2022-06-25T07:18:25Z</time>
      </trkpt>
      <trkpt lat="46.63272" lon="5.22242">
        <ele>187.2</ele>
        <time>2022-06-25T07:18:26Z</time>
      </trkpt>
      <trkpt lat="46.63271" lon="5.22234">
        <ele>187.2</ele>
        <time>2022-06-25T07:18:27Z</time>
      </trkpt>
      <trkpt lat="46.6327" lon="5.22228">
        <ele>187.2</ele>
        <time>2022-06-25T07:18:28Z</time>
      </trkpt>
      <trkpt lat="46.63269" lon="5.22221">
        <ele>187.4</ele>
        <time>2022-06-25T07:18:29Z</time>
      </trkpt>
      <trkpt lat="46.63269" lon="5.22214">
        <ele>187.4</ele>
        <time>2022-06-25T07:18:30Z</time>
      </trkpt>
      <trkpt lat="46.63268" lon="5.22207">
        <ele>187.4</ele>
        <time>2022-06-25T07:18:31Z</time>
      </trkpt>
      <trkpt lat="46.63267" lon="5.22201">
        <ele>187.4</ele>
        <time>2022-06-25T07:18:32Z</time>
      </trkpt>
      <trkpt lat="46.63266" lon="5.22195">
        <ele>187.8</ele>
        <time>2022-06-25T07:18:33Z</time>
      </trkpt>
      <trkpt lat="46.63265" lon="5.22189">
        <ele>187.8</ele>
        <time>2022-06-25T07:18:34Z</time>
      </trkpt>
      <trkpt lat="46.63264" lon="5.22184">
        <ele>187.8</ele>
        <time>2022-06-25T07:18:35Z</time>
      </trkpt>
      <trkpt lat="46.63263" lon="5.22178">
        <ele>187.8</ele>
        <time>2022-06-25T07:18:36Z</time>
      </trkpt>
      <trkpt lat="46.63262" lon="5.22172">
        <ele>188</ele>
        <time>2022-06-25T07:18:37Z</time>
      </trkpt>
      <trkpt lat="46.63261" lon="5.22166">
        <ele>188</ele>
        <time>2022-06-25T07:18:38Z</time>
      </trkpt>
      <trkpt lat="46.6326" lon="5.2216">
        <ele>188</ele>
        <time>2022-06-25T07:18:39Z</time>
      </trkpt>
      <trkpt lat="46.63259" lon="5.22154">
        <ele>188</ele>
        <time>2022-06-25T07:18:40Z</time>
      </trkpt>
      <trkpt lat="46.63258" lon="5.22148">
        <ele>188</ele>
        <time>2022-06-25T07:18:41Z</time>
      </trkpt>
      <trkpt lat="46.63258" lon="5.22142">
        <ele>188</ele>
        <time>2022-06-25T07:18:42Z</time>
      </trkpt>
      <trkpt lat="46.63257" lon="5.22136">
        <ele>188</ele>
        <time>2022-06-25T07:18:43Z</time>
      </trkpt>
      <trkpt lat="46.63256" lon="5.22129">
        <ele>188</ele>
        <time>2022-06-25T07:18:44Z</time>
      </trkpt>
      <trkpt lat="46.63255" lon="5.22123">
        <ele>187.8</ele>
        <time>2022-06-25T07:18:45Z</time>
      </trkpt>
      <trkpt lat="46.63255" lon="5.22116">
        <ele>187.8</ele>
        <time>2022-06-25T07:18:46Z</time>
      </trkpt>
      <trkpt lat="46.63253" lon="5.22109">
        <ele>187.8</ele>
        <time>2022-06-25T07:18:47Z</time>
      </trkpt>
      <trkpt lat="46.63252" lon="5.22102">
        <ele>187.8</ele>
        <time>2022-06-25T07:18:48Z</time>
      </trkpt>
      <trkpt lat="46.63251" lon="5.22095">
        <ele>187.4</ele>
        <time>2022-06-25T07:18:49Z</time>
      </trkpt>
      <trkpt lat="46.6325" lon="5.22088">
        <ele>187.4</ele>
        <time>2022-06-25T07:18:50Z</time>
      </trkpt>
      <trkpt lat="46.63249" lon="5.22081">
        <ele>187.4</ele>
        <time>2022-06-25T07:18:51Z</time>
      </trkpt>
      <trkpt lat="46.63249" lon="5.22073">
        <ele>187.4</ele>
        <time>2022-06-25T07:18:52Z</time>
      </trkpt>
      <trkpt lat="46.63248" lon="5.22065">
        <ele>187.4</ele>
        <time>2022-06-25T07:18:53Z</time>
      </trkpt>
      <trkpt lat="46.63247" lon="5.22058">
        <ele>187.4</ele>
        <time>2022-06-25T07:18:54Z</time>
      </trkpt>
      <trkpt lat="46.63247" lon="5.22051">
        <ele>187.2</ele>
        <time>2022-06-25T07:18:55Z</time>
      </trkpt>
      <trkpt lat="46.63247" lon="5.22044">
        <ele>187.2</ele>
        <time>2022-06-25T07:18:56Z</time>
      </trkpt>
      <trkpt lat="46.63247" lon="5.22037">
        <ele>187.2</ele>
        <time>2022-06-25T07:18:57Z</time>
      </trkpt>
      <trkpt lat="46.63247" lon="5.2203">
        <ele>187.2</ele>
        <time>2022-06-25T07:18:58Z</time>
      </trkpt>
      <trkpt lat="46.63247" lon="5.22024">
        <ele>187.2</ele>
        <time>2022-06-25T07:18:59Z</time>
      </trkpt>
      <trkpt lat="46.63247" lon="5.22018">
        <ele>187</ele>
        <time>2022-06-25T07:19:00Z</time>
      </trkpt>
      <trkpt lat="46.63247" lon="5.22012">
        <ele>187</ele>
        <time>2022-06-25T07:19:01Z</time>
      </trkpt>
      <trkpt lat="46.63247" lon="5.22005">
        <ele>186.8</ele>
        <time>2022-06-25T07:19:02Z</time>
      </trkpt>
      <trkpt lat="46.63247" lon="5.21998">
        <ele>186.8</ele>
        <time>2022-06-25T07:19:03Z</time>
      </trkpt>
      <trkpt lat="46.63247" lon="5.21992">
        <ele>186.8</ele>
        <time>2022-06-25T07:19:04Z</time>
      </trkpt>
      <trkpt lat="46.63247" lon="5.21986">
        <ele>186.6</ele>
        <time>2022-06-25T07:19:05Z</time>
      </trkpt>
      <trkpt lat="46.63247" lon="5.2198">
        <ele>186.6</ele>
        <time>2022-06-25T07:19:06Z</time>
      </trkpt>
      <trkpt lat="46.63248" lon="5.21976">
        <ele>186.6</ele>
        <time>2022-06-25T07:19:07Z</time>
      </trkpt>
      <trkpt lat="46.63248" lon="5.21972">
        <ele>186.2</ele>
        <time>2022-06-25T07:19:08Z</time>
      </trkpt>
      <trkpt lat="46.63249" lon="5.21968">
        <ele>186.2</ele>
        <time>2022-06-25T07:19:09Z</time>
      </trkpt>
      <trkpt lat="46.63249" lon="5.21965">
        <ele>186.2</ele>
        <time>2022-06-25T07:19:10Z</time>
      </trkpt>
      <trkpt lat="46.63249" lon="5.21961">
        <ele>186.2</ele>
        <time>2022-06-25T07:19:11Z</time>
      </trkpt>
      <trkpt lat="46.63249" lon="5.21959">
        <ele>186.2</ele>
        <time>2022-06-25T07:19:12Z</time>
      </trkpt>
      <trkpt lat="46.63249" lon="5.21957">
        <ele>186.2</ele>
        <time>2022-06-25T07:19:13Z</time>
      </trkpt>
      <trkpt lat="46.63249" lon="5.21955">
        <ele>186.2</ele>
        <time>2022-06-25T07:19:14Z</time>
      </trkpt>
      <trkpt lat="46.63249" lon="5.21952">
        <ele>186.2</ele>
        <time>2022-06-25T07:19:15Z</time>
      </trkpt>
      <trkpt lat="46.6325" lon="5.21949">
        <ele>186.2</ele>
        <time>2022-06-25T07:19:16Z</time>
      </trkpt>
      <trkpt lat="46.6325" lon="5.21945">
        <ele>186.2</ele>
        <time>2022-06-25T07:19:17Z</time>
      </trkpt>
      <trkpt lat="46.6325" lon="5.21941">
        <ele>186.2</ele>
        <time>2022-06-25T07:19:18Z</time>
      </trkpt>
      <trkpt lat="46.63251" lon="5.21936">
        <ele>186.2</ele>
        <time>2022-06-25T07:19:19Z</time>
      </trkpt>
      <trkpt lat="46.63251" lon="5.21931">
        <ele>186</ele>
        <time>2022-06-25T07:19:20Z</time>
      </trkpt>
      <trkpt lat="46.63252" lon="5.21926">
        <ele>186</ele>
        <time>2022-06-25T07:19:21Z</time>
      </trkpt>
      <trkpt lat="46.63253" lon="5.21921">
        <ele>186</ele>
        <time>2022-06-25T07:19:22Z</time>
      </trkpt>
      <trkpt lat="46.63253" lon="5.21915">
        <ele>186</ele>
        <time>2022-06-25T07:19:23Z</time>
      </trkpt>
      <trkpt lat="46.63254" lon="5.21909">
        <ele>186</ele>
        <time>2022-06-25T07:19:24Z</time>
      </trkpt>
      <trkpt lat="46.63255" lon="5.21904">
        <ele>186</ele>
        <time>2022-06-25T07:19:25Z</time>
      </trkpt>
      <trkpt lat="46.63255" lon="5.21898">
        <ele>186</ele>
        <time>2022-06-25T07:19:26Z</time>
      </trkpt>
      <trkpt lat="46.63256" lon="5.21892">
        <ele>186</ele>
        <time>2022-06-25T07:19:27Z</time>
      </trkpt>
      <trkpt lat="46.63256" lon="5.21885">
        <ele>186</ele>
        <time>2022-06-25T07:19:28Z</time>
      </trkpt>
      <trkpt lat="46.63257" lon="5.2188">
        <ele>186</ele>
        <time>2022-06-25T07:19:29Z</time>
      </trkpt>
      <trkpt lat="46.63257" lon="5.21875">
        <ele>186</ele>
        <time>2022-06-25T07:19:30Z</time>
      </trkpt>
      <trkpt lat="46.63257" lon="5.2187">
        <ele>186</ele>
        <time>2022-06-25T07:19:31Z</time>
      </trkpt>
      <trkpt lat="46.63258" lon="5.21866">
        <ele>186</ele>
        <time>2022-06-25T07:19:32Z</time>
      </trkpt>
      <trkpt lat="46.63258" lon="5.21861">
        <ele>186.2</ele>
        <time>2022-06-25T07:19:33Z</time>
      </trkpt>
      <trkpt lat="46.63258" lon="5.21857">
        <ele>186.2</ele>
        <time>2022-06-25T07:19:34Z</time>
      </trkpt>
      <trkpt lat="46.63258" lon="5.21852">
        <ele>186.2</ele>
        <time>2022-06-25T07:19:35Z</time>
      </trkpt>
      <trkpt lat="46.6326" lon="5.21849">
        <ele>186.2</ele>
        <time>2022-06-25T07:19:36Z</time>
      </trkpt>
      <trkpt lat="46.63261" lon="5.21846">
        <ele>186.2</ele>
        <time>2022-06-25T07:19:37Z</time>
      </trkpt>
      <trkpt lat="46.63263" lon="5.21844">
        <ele>186.2</ele>
        <time>2022-06-25T07:19:38Z</time>
      </trkpt>
      <trkpt lat="46.63265" lon="5.21842">
        <ele>186.2</ele>
        <time>2022-06-25T07:19:39Z</time>
      </trkpt>
      <trkpt lat="46.63265" lon="5.21841">
        <ele>186.2</ele>
        <time>2022-06-25T07:19:40Z</time>
      </trkpt>
      <trkpt lat="46.63265" lon="5.2184">
        <ele>186.2</ele>
        <time>2022-06-25T07:19:41Z</time>
      </trkpt>
      <trkpt lat="46.63263" lon="5.21834">
        <ele>186.2</ele>
        <time>2022-06-25T07:19:46Z</time>
      </trkpt>
      <trkpt lat="46.63262" lon="5.2183">
        <ele>186.2</ele>
        <time>2022-06-25T07:19:47Z</time>
      </trkpt>
      <trkpt lat="46.63261" lon="5.21827">
        <ele>186.2</ele>
        <time>2022-06-25T07:19:48Z</time>
      </trkpt>
      <trkpt lat="46.63259" lon="5.21823">
        <ele>186.2</ele>
        <time>2022-06-25T07:19:49Z</time>
      </trkpt>
      <trkpt lat="46.63258" lon="5.21819">
        <ele>186.2</ele>
        <time>2022-06-25T07:19:50Z</time>
      </trkpt>
      <trkpt lat="46.63257" lon="5.21816">
        <ele>186.2</ele>
        <time>2022-06-25T07:19:51Z</time>
      </trkpt>
      <trkpt lat="46.63256" lon="5.21813">
        <ele>186.2</ele>
        <time>2022-06-25T07:19:52Z</time>
      </trkpt>
      <trkpt lat="46.63255" lon="5.21809">
        <ele>186.2</ele>
        <time>2022-06-25T07:19:53Z</time>
      </trkpt>
      <trkpt lat="46.63255" lon="5.21805">
        <ele>186.2</ele>
        <time>2022-06-25T07:19:54Z</time>
      </trkpt>
      <trkpt lat="46.63255" lon="5.218">
        <ele>186.2</ele>
        <time>2022-06-25T07:19:55Z</time>
      </trkpt>
      <trkpt lat="46.63255" lon="5.21795">
        <ele>186.6</ele>
        <time>2022-06-25T07:19:56Z</time>
      </trkpt>
      <trkpt lat="46.63255" lon="5.2179">
        <ele>186.6</ele>
        <time>2022-06-25T07:19:57Z</time>
      </trkpt>
      <trkpt lat="46.63255" lon="5.21785">
        <ele>186.6</ele>
        <time>2022-06-25T07:19:58Z</time>
      </trkpt>
      <trkpt lat="46.63255" lon="5.2178">
        <ele>186.6</ele>
        <time>2022-06-25T07:19:59Z</time>
      </trkpt>
      <trkpt lat="46.63254" lon="5.21774">
        <ele>186.6</ele>
        <time>2022-06-25T07:20:00Z</time>
      </trkpt>
      <trkpt lat="46.63254" lon="5.21768">
        <ele>186.6</ele>
        <time>2022-06-25T07:20:01Z</time>
      </trkpt>
      <trkpt lat="46.63254" lon="5.21762">
        <ele>186.6</ele>
        <time>2022-06-25T07:20:02Z</time>
      </trkpt>
      <trkpt lat="46.63254" lon="5.21756">
        <ele>186.6</ele>
        <time>2022-06-25T07:20:03Z</time>
      </trkpt>
      <trkpt lat="46.63254" lon="5.21749">
        <ele>186.6</ele>
        <time>2022-06-25T07:20:04Z</time>
      </trkpt>
      <trkpt lat="46.63253" lon="5.21743">
        <ele>186.6</ele>
        <time>2022-06-25T07:20:05Z</time>
      </trkpt>
      <trkpt lat="46.63253" lon="5.21736">
        <ele>186.6</ele>
        <time>2022-06-25T07:20:06Z</time>
      </trkpt>
      <trkpt lat="46.63253" lon="5.21729">
        <ele>186.6</ele>
        <time>2022-06-25T07:20:07Z</time>
      </trkpt>
      <trkpt lat="46.63253" lon="5.21721">
        <ele>186.6</ele>
        <time>2022-06-25T07:20:08Z</time>
      </trkpt>
      <trkpt lat="46.63253" lon="5.21714">
        <ele>186.6</ele>
        <time>2022-06-25T07:20:09Z</time>
      </trkpt>
      <trkpt lat="46.63253" lon="5.21707">
        <ele>186.6</ele>
        <time>2022-06-25T07:20:10Z</time>
      </trkpt>
      <trkpt lat="46.63253" lon="5.217">
        <ele>186.6</ele>
        <time>2022-06-25T07:20:11Z</time>
      </trkpt>
      <trkpt lat="46.63253" lon="5.21693">
        <ele>186.6</ele>
        <time>2022-06-25T07:20:12Z</time>
      </trkpt>
      <trkpt lat="46.63253" lon="5.21686">
        <ele>186.4</ele>
        <time>2022-06-25T07:20:13Z</time>
      </trkpt>
      <trkpt lat="46.63253" lon="5.21679">
        <ele>186.4</ele>
        <time>2022-06-25T07:20:14Z</time>
      </trkpt>
      <trkpt lat="46.63254" lon="5.21672">
        <ele>186.4</ele>
        <time>2022-06-25T07:20:15Z</time>
      </trkpt>
      <trkpt lat="46.63254" lon="5.21666">
        <ele>186.4</ele>
        <time>2022-06-25T07:20:16Z</time>
      </trkpt>
      <trkpt lat="46.63254" lon="5.21659">
        <ele>186.4</ele>
        <time>2022-06-25T07:20:17Z</time>
      </trkpt>
      <trkpt lat="46.63255" lon="5.21652">
        <ele>186.4</ele>
        <time>2022-06-25T07:20:18Z</time>
      </trkpt>
      <trkpt lat="46.63256" lon="5.21645">
        <ele>186.4</ele>
        <time>2022-06-25T07:20:19Z</time>
      </trkpt>
      <trkpt lat="46.63257" lon="5.21638">
        <ele>186.4</ele>
        <time>2022-06-25T07:20:20Z</time>
      </trkpt>
      <trkpt lat="46.63257" lon="5.21631">
        <ele>186.4</ele>
        <time>2022-06-25T07:20:21Z</time>
      </trkpt>
      <trkpt lat="46.63258" lon="5.21625">
        <ele>186</ele>
        <time>2022-06-25T07:20:22Z</time>
      </trkpt>
      <trkpt lat="46.6326" lon="5.21617">
        <ele>186</ele>
        <time>2022-06-25T07:20:23Z</time>
      </trkpt>
      <trkpt lat="46.63263" lon="5.2161">
        <ele>186</ele>
        <time>2022-06-25T07:20:24Z</time>
      </trkpt>
      <trkpt lat="46.63266" lon="5.21602">
        <ele>185.8</ele>
        <time>2022-06-25T07:20:25Z</time>
      </trkpt>
      <trkpt lat="46.6327" lon="5.21594">
        <ele>185.8</ele>
        <time>2022-06-25T07:20:26Z</time>
      </trkpt>
      <trkpt lat="46.63273" lon="5.21586">
        <ele>185.8</ele>
        <time>2022-06-25T07:20:27Z</time>
      </trkpt>
      <trkpt lat="46.63276" lon="5.21578">
        <ele>185.4</ele>
        <time>2022-06-25T07:20:28Z</time>
      </trkpt>
      <trkpt lat="46.63278" lon="5.2157">
        <ele>185.4</ele>
        <time>2022-06-25T07:20:29Z</time>
      </trkpt>
      <trkpt lat="46.63281" lon="5.21562">
        <ele>185.4</ele>
        <time>2022-06-25T07:20:30Z</time>
      </trkpt>
      <trkpt lat="46.63283" lon="5.21554">
        <ele>185.4</ele>
        <time>2022-06-25T07:20:31Z</time>
      </trkpt>
      <trkpt lat="46.63286" lon="5.21547">
        <ele>185.4</ele>
        <time>2022-06-25T07:20:32Z</time>
      </trkpt>
      <trkpt lat="46.63288" lon="5.2154">
        <ele>185.4</ele>
        <time>2022-06-25T07:20:33Z</time>
      </trkpt>
      <trkpt lat="46.63291" lon="5.21534">
        <ele>185.4</ele>
        <time>2022-06-25T07:20:34Z</time>
      </trkpt>
      <trkpt lat="46.63293" lon="5.21528">
        <ele>185.4</ele>
        <time>2022-06-25T07:20:35Z</time>
      </trkpt>
      <trkpt lat="46.63295" lon="5.21522">
        <ele>185.4</ele>
        <time>2022-06-25T07:20:36Z</time>
      </trkpt>
      <trkpt lat="46.63297" lon="5.21518">
        <ele>185.4</ele>
        <time>2022-06-25T07:20:37Z</time>
      </trkpt>
      <trkpt lat="46.63298" lon="5.21514">
        <ele>185.4</ele>
        <time>2022-06-25T07:20:38Z</time>
      </trkpt>
      <trkpt lat="46.63299" lon="5.21511">
        <ele>185.4</ele>
        <time>2022-06-25T07:20:39Z</time>
      </trkpt>
      <trkpt lat="46.633" lon="5.21509">
        <ele>185.4</ele>
        <time>2022-06-25T07:20:40Z</time>
      </trkpt>
      <trkpt lat="46.63301" lon="5.21506">
        <ele>185.4</ele>
        <time>2022-06-25T07:20:41Z</time>
      </trkpt>
      <trkpt lat="46.63301" lon="5.21504">
        <ele>185.2</ele>
        <time>2022-06-25T07:20:42Z</time>
      </trkpt>
      <trkpt lat="46.63302" lon="5.21502">
        <ele>185.2</ele>
        <time>2022-06-25T07:20:43Z</time>
      </trkpt>
      <trkpt lat="46.63304" lon="5.21499">
        <ele>185.2</ele>
        <time>2022-06-25T07:20:44Z</time>
      </trkpt>
      <trkpt lat="46.63305" lon="5.21497">
        <ele>185.2</ele>
        <time>2022-06-25T07:20:45Z</time>
      </trkpt>
      <trkpt lat="46.63307" lon="5.21494">
        <ele>185.4</ele>
        <time>2022-06-25T07:20:46Z</time>
      </trkpt>
      <trkpt lat="46.63309" lon="5.21491">
        <ele>185.4</ele>
        <time>2022-06-25T07:20:47Z</time>
      </trkpt>
      <trkpt lat="46.63312" lon="5.21489">
        <ele>185.4</ele>
        <time>2022-06-25T07:20:48Z</time>
      </trkpt>
      <trkpt lat="46.63314" lon="5.21486">
        <ele>185.4</ele>
        <time>2022-06-25T07:20:49Z</time>
      </trkpt>
      <trkpt lat="46.63317" lon="5.21483">
        <ele>185.8</ele>
        <time>2022-06-25T07:20:50Z</time>
      </trkpt>
      <trkpt lat="46.6332" lon="5.2148">
        <ele>185.8</ele>
        <time>2022-06-25T07:20:51Z</time>
      </trkpt>
      <trkpt lat="46.63323" lon="5.21476">
        <ele>185.8</ele>
        <time>2022-06-25T07:20:52Z</time>
      </trkpt>
      <trkpt lat="46.63326" lon="5.21473">
        <ele>185.8</ele>
        <time>2022-06-25T07:20:53Z</time>
      </trkpt>
      <trkpt lat="46.6333" lon="5.21469">
        <ele>185.8</ele>
        <time>2022-06-25T07:20:54Z</time>
      </trkpt>
      <trkpt lat="46.63333" lon="5.21466">
        <ele>186</ele>
        <time>2022-06-25T07:20:55Z</time>
      </trkpt>
      <trkpt lat="46.63337" lon="5.21462">
        <ele>186</ele>
        <time>2022-06-25T07:20:56Z</time>
      </trkpt>
      <trkpt lat="46.63341" lon="5.21458">
        <ele>186</ele>
        <time>2022-06-25T07:20:57Z</time>
      </trkpt>
      <trkpt lat="46.63344" lon="5.21454">
        <ele>186</ele>
        <time>2022-06-25T07:20:58Z</time>
      </trkpt>
      <trkpt lat="46.63347" lon="5.21451">
        <ele>186</ele>
        <time>2022-06-25T07:20:59Z</time>
      </trkpt>
      <trkpt lat="46.6335" lon="5.21448">
        <ele>186.2</ele>
        <time>2022-06-25T07:21:00Z</time>
      </trkpt>
      <trkpt lat="46.63352" lon="5.21445">
        <ele>186.2</ele>
        <time>2022-06-25T07:21:01Z</time>
      </trkpt>
      <trkpt lat="46.63354" lon="5.21444">
        <ele>186.2</ele>
        <time>2022-06-25T07:21:02Z</time>
      </trkpt>
      <trkpt lat="46.63356" lon="5.21443">
        <ele>186.2</ele>
        <time>2022-06-25T07:21:03Z</time>
      </trkpt>
      <trkpt lat="46.63358" lon="5.21442">
        <ele>186.2</ele>
        <time>2022-06-25T07:21:04Z</time>
      </trkpt>
      <trkpt lat="46.63359" lon="5.2144">
        <ele>186.2</ele>
        <time>2022-06-25T07:21:05Z</time>
      </trkpt>
      <trkpt lat="46.63361" lon="5.21439">
        <ele>186.2</ele>
        <time>2022-06-25T07:21:06Z</time>
      </trkpt>
      <trkpt lat="46.63362" lon="5.21437">
        <ele>186</ele>
        <time>2022-06-25T07:21:07Z</time>
      </trkpt>
      <trkpt lat="46.63364" lon="5.21435">
        <ele>186</ele>
        <time>2022-06-25T07:21:08Z</time>
      </trkpt>
      <trkpt lat="46.63365" lon="5.21433">
        <ele>186</ele>
        <time>2022-06-25T07:21:09Z</time>
      </trkpt>
      <trkpt lat="46.63367" lon="5.21431">
        <ele>186</ele>
        <time>2022-06-25T07:21:10Z</time>
      </trkpt>
      <trkpt lat="46.63368" lon="5.21429">
        <ele>186</ele>
        <time>2022-06-25T07:21:11Z</time>
      </trkpt>
      <trkpt lat="46.63368" lon="5.21427">
        <ele>186.4</ele>
        <time>2022-06-25T07:21:12Z</time>
      </trkpt>
      <trkpt lat="46.63369" lon="5.21425">
        <ele>186.4</ele>
        <time>2022-06-25T07:21:13Z</time>
      </trkpt>
      <trkpt lat="46.6337" lon="5.21422">
        <ele>186.4</ele>
        <time>2022-06-25T07:21:14Z</time>
      </trkpt>
      <trkpt lat="46.63372" lon="5.21418">
        <ele>186.4</ele>
        <time>2022-06-25T07:21:15Z</time>
      </trkpt>
      <trkpt lat="46.63373" lon="5.21415">
        <ele>186.6</ele>
        <time>2022-06-25T07:21:16Z</time>
      </trkpt>
      <trkpt lat="46.63375" lon="5.21411">
        <ele>186.6</ele>
        <time>2022-06-25T07:21:17Z</time>
      </trkpt>
      <trkpt lat="46.63378" lon="5.21408">
        <ele>186.6</ele>
        <time>2022-06-25T07:21:18Z</time>
      </trkpt>
      <trkpt lat="46.63381" lon="5.21406">
        <ele>186.6</ele>
        <time>2022-06-25T07:21:19Z</time>
      </trkpt>
      <trkpt lat="46.63385" lon="5.21403">
        <ele>186.6</ele>
        <time>2022-06-25T07:21:20Z</time>
      </trkpt>
      <trkpt lat="46.63389" lon="5.21401">
        <ele>186.4</ele>
        <time>2022-06-25T07:21:21Z</time>
      </trkpt>
      <trkpt lat="46.63393" lon="5.21399">
        <ele>186.4</ele>
        <time>2022-06-25T07:21:22Z</time>
      </trkpt>
      <trkpt lat="46.63398" lon="5.21397">
        <ele>186.4</ele>
        <time>2022-06-25T07:21:23Z</time>
      </trkpt>
      <trkpt lat="46.63402" lon="5.21394">
        <ele>186.4</ele>
        <time>2022-06-25T07:21:24Z</time>
      </trkpt>
      <trkpt lat="46.63407" lon="5.21391">
        <ele>186.4</ele>
        <time>2022-06-25T07:21:25Z</time>
      </trkpt>
      <trkpt lat="46.63411" lon="5.21389">
        <ele>186.4</ele>
        <time>2022-06-25T07:21:26Z</time>
      </trkpt>
      <trkpt lat="46.63416" lon="5.21386">
        <ele>186.4</ele>
        <time>2022-06-25T07:21:27Z</time>
      </trkpt>
      <trkpt lat="46.6342" lon="5.21384">
        <ele>186.4</ele>
        <time>2022-06-25T07:21:28Z</time>
      </trkpt>
      <trkpt lat="46.63425" lon="5.21381">
        <ele>186.4</ele>
        <time>2022-06-25T07:21:29Z</time>
      </trkpt>
      <trkpt lat="46.63429" lon="5.21378">
        <ele>186.4</ele>
        <time>2022-06-25T07:21:30Z</time>
      </trkpt>
      <trkpt lat="46.63434" lon="5.21375">
        <ele>186.4</ele>
        <time>2022-06-25T07:21:31Z</time>
      </trkpt>
      <trkpt lat="46.63438" lon="5.21373">
        <ele>186.4</ele>
        <time>2022-06-25T07:21:32Z</time>
      </trkpt>
      <trkpt lat="46.63443" lon="5.2137">
        <ele>186.4</ele>
        <time>2022-06-25T07:21:33Z</time>
      </trkpt>
      <trkpt lat="46.63447" lon="5.21367">
        <ele>186.4</ele>
        <time>2022-06-25T07:21:34Z</time>
      </trkpt>
      <trkpt lat="46.63452" lon="5.21364">
        <ele>186.4</ele>
        <time>2022-06-25T07:21:35Z</time>
      </trkpt>
      <trkpt lat="46.63457" lon="5.21361">
        <ele>186.4</ele>
        <time>2022-06-25T07:21:36Z</time>
      </trkpt>
      <trkpt lat="46.63461" lon="5.21358">
        <ele>186.4</ele>
        <time>2022-06-25T07:21:37Z</time>
      </trkpt>
      <trkpt lat="46.63465" lon="5.21354">
        <ele>186.4</ele>
        <time>2022-06-25T07:21:38Z</time>
      </trkpt>
      <trkpt lat="46.6347" lon="5.2135">
        <ele>186.4</ele>
        <time>2022-06-25T07:21:39Z</time>
      </trkpt>
      <trkpt lat="46.63474" lon="5.21347">
        <ele>186.4</ele>
        <time>2022-06-25T07:21:40Z</time>
      </trkpt>
      <trkpt lat="46.63478" lon="5.21343">
        <ele>186.4</ele>
        <time>2022-06-25T07:21:41Z</time>
      </trkpt>
      <trkpt lat="46.63482" lon="5.21339">
        <ele>186.4</ele>
        <time>2022-06-25T07:21:42Z</time>
      </trkpt>
      <trkpt lat="46.63486" lon="5.21335">
        <ele>186.2</ele>
        <time>2022-06-25T07:21:43Z</time>
      </trkpt>
      <trkpt lat="46.6349" lon="5.21332">
        <ele>186.2</ele>
        <time>2022-06-25T07:21:44Z</time>
      </trkpt>
      <trkpt lat="46.63494" lon="5.21328">
        <ele>186.2</ele>
        <time>2022-06-25T07:21:45Z</time>
      </trkpt>
      <trkpt lat="46.63498" lon="5.21324">
        <ele>186.2</ele>
        <time>2022-06-25T07:21:46Z</time>
      </trkpt>
      <trkpt lat="46.63502" lon="5.2132">
        <ele>186.2</ele>
        <time>2022-06-25T07:21:47Z</time>
      </trkpt>
      <trkpt lat="46.63506" lon="5.21316">
        <ele>186.2</ele>
        <time>2022-06-25T07:21:48Z</time>
      </trkpt>
      <trkpt lat="46.6351" lon="5.21313">
        <ele>186.2</ele>
        <time>2022-06-25T07:21:49Z</time>
      </trkpt>
      <trkpt lat="46.63513" lon="5.21309">
        <ele>186.4</ele>
        <time>2022-06-25T07:21:50Z</time>
      </trkpt>
      <trkpt lat="46.63517" lon="5.21306">
        <ele>186.4</ele>
        <time>2022-06-25T07:21:51Z</time>
      </trkpt>
      <trkpt lat="46.63521" lon="5.21302">
        <ele>186.4</ele>
        <time>2022-06-25T07:21:52Z</time>
      </trkpt>
      <trkpt lat="46.63525" lon="5.21298">
        <ele>186.4</ele>
        <time>2022-06-25T07:21:53Z</time>
      </trkpt>
      <trkpt lat="46.63528" lon="5.21295">
        <ele>186.4</ele>
        <time>2022-06-25T07:21:54Z</time>
      </trkpt>
      <trkpt lat="46.63532" lon="5.21291">
        <ele>186.4</ele>
        <time>2022-06-25T07:21:55Z</time>
      </trkpt>
      <trkpt lat="46.63535" lon="5.21287">
        <ele>186.4</ele>
        <time>2022-06-25T07:21:56Z</time>
      </trkpt>
      <trkpt lat="46.63538" lon="5.21284">
        <ele>186.4</ele>
        <time>2022-06-25T07:21:57Z</time>
      </trkpt>
      <trkpt lat="46.63541" lon="5.2128">
        <ele>186.4</ele>
        <time>2022-06-25T07:21:58Z</time>
      </trkpt>
      <trkpt lat="46.63544" lon="5.21277">
        <ele>186.4</ele>
        <time>2022-06-25T07:21:59Z</time>
      </trkpt>
      <trkpt lat="46.63547" lon="5.21275">
        <ele>186.4</ele>
        <time>2022-06-25T07:22:00Z</time>
      </trkpt>
      <trkpt lat="46.63549" lon="5.21274">
        <ele>186.4</ele>
        <time>2022-06-25T07:22:01Z</time>
      </trkpt>
      <trkpt lat="46.63551" lon="5.21272">
        <ele>186.6</ele>
        <time>2022-06-25T07:22:02Z</time>
      </trkpt>
      <trkpt lat="46.63553" lon="5.21271">
        <ele>186.6</ele>
        <time>2022-06-25T07:22:03Z</time>
      </trkpt>
      <trkpt lat="46.63555" lon="5.21271">
        <ele>186.6</ele>
        <time>2022-06-25T07:22:04Z</time>
      </trkpt>
      <trkpt lat="46.63556" lon="5.21271">
        <ele>186.6</ele>
        <time>2022-06-25T07:22:05Z</time>
      </trkpt>
      <trkpt lat="46.63557" lon="5.21271">
        <ele>186.8</ele>
        <time>2022-06-25T07:22:06Z</time>
      </trkpt>
      <trkpt lat="46.63558" lon="5.21271">
        <ele>186.8</ele>
        <time>2022-06-25T07:22:07Z</time>
      </trkpt>
      <trkpt lat="46.63559" lon="5.2127">
        <ele>186.8</ele>
        <time>2022-06-25T07:22:08Z</time>
      </trkpt>
      <trkpt lat="46.6356" lon="5.2127">
        <ele>187</ele>
        <time>2022-06-25T07:22:09Z</time>
      </trkpt>
      <trkpt lat="46.63561" lon="5.21269">
        <ele>187</ele>
        <time>2022-06-25T07:22:10Z</time>
      </trkpt>
      <trkpt lat="46.63563" lon="5.21268">
        <ele>187</ele>
        <time>2022-06-25T07:22:11Z</time>
      </trkpt>
      <trkpt lat="46.63566" lon="5.21267">
        <ele>187</ele>
        <time>2022-06-25T07:22:12Z</time>
      </trkpt>
      <trkpt lat="46.63568" lon="5.21264">
        <ele>187</ele>
        <time>2022-06-25T07:22:13Z</time>
      </trkpt>
      <trkpt lat="46.63569" lon="5.2126">
        <ele>187</ele>
        <time>2022-06-25T07:22:14Z</time>
      </trkpt>
      <trkpt lat="46.6357" lon="5.21254">
        <ele>187</ele>
        <time>2022-06-25T07:22:15Z</time>
      </trkpt>
      <trkpt lat="46.63571" lon="5.21248">
        <ele>187</ele>
        <time>2022-06-25T07:22:16Z</time>
      </trkpt>
      <trkpt lat="46.63572" lon="5.21242">
        <ele>187</ele>
        <time>2022-06-25T07:22:17Z</time>
      </trkpt>
      <trkpt lat="46.63573" lon="5.21235">
        <ele>187</ele>
        <time>2022-06-25T07:22:18Z</time>
      </trkpt>
      <trkpt lat="46.63574" lon="5.21228">
        <ele>187</ele>
        <time>2022-06-25T07:22:19Z</time>
      </trkpt>
      <trkpt lat="46.63575" lon="5.21221">
        <ele>187</ele>
        <time>2022-06-25T07:22:20Z</time>
      </trkpt>
      <trkpt lat="46.63577" lon="5.21214">
        <ele>187</ele>
        <time>2022-06-25T07:22:21Z</time>
      </trkpt>
      <trkpt lat="46.63578" lon="5.21206">
        <ele>187</ele>
        <time>2022-06-25T07:22:22Z</time>
      </trkpt>
      <trkpt lat="46.6358" lon="5.21198">
        <ele>187</ele>
        <time>2022-06-25T07:22:23Z</time>
      </trkpt>
      <trkpt lat="46.63581" lon="5.2119">
        <ele>187</ele>
        <time>2022-06-25T07:22:24Z</time>
      </trkpt>
      <trkpt lat="46.63583" lon="5.21182">
        <ele>187</ele>
        <time>2022-06-25T07:22:25Z</time>
      </trkpt>
      <trkpt lat="46.63584" lon="5.21174">
        <ele>186.8</ele>
        <time>2022-06-25T07:22:26Z</time>
      </trkpt>
      <trkpt lat="46.63586" lon="5.21165">
        <ele>186.8</ele>
        <time>2022-06-25T07:22:27Z</time>
      </trkpt>
      <trkpt lat="46.63587" lon="5.21156">
        <ele>186.8</ele>
        <time>2022-06-25T07:22:28Z</time>
      </trkpt>
      <trkpt lat="46.63589" lon="5.21148">
        <ele>186.8</ele>
        <time>2022-06-25T07:22:29Z</time>
      </trkpt>
      <trkpt lat="46.63591" lon="5.21139">
        <ele>186.8</ele>
        <time>2022-06-25T07:22:30Z</time>
      </trkpt>
      <trkpt lat="46.63592" lon="5.2113">
        <ele>186.8</ele>
        <time>2022-06-25T07:22:31Z</time>
      </trkpt>
      <trkpt lat="46.63594" lon="5.21121">
        <ele>186.6</ele>
        <time>2022-06-25T07:22:33Z</time>
      </trkpt>
      <trkpt lat="46.63596" lon="5.21111">
        <ele>186.6</ele>
        <time>2022-06-25T07:22:34Z</time>
      </trkpt>
      <trkpt lat="46.63598" lon="5.21102">
        <ele>186.6</ele>
        <time>2022-06-25T07:22:35Z</time>
      </trkpt>
      <trkpt lat="46.636" lon="5.21093">
        <ele>186.6</ele>
        <time>2022-06-25T07:22:36Z</time>
      </trkpt>
      <trkpt lat="46.63601" lon="5.21084">
        <ele>186.6</ele>
        <time>2022-06-25T07:22:37Z</time>
      </trkpt>
      <trkpt lat="46.63603" lon="5.21075">
        <ele>186.6</ele>
        <time>2022-06-25T07:22:38Z</time>
      </trkpt>
      <trkpt lat="46.63605" lon="5.21065">
        <ele>186.6</ele>
        <time>2022-06-25T07:22:39Z</time>
      </trkpt>
      <trkpt lat="46.63607" lon="5.21056">
        <ele>186.6</ele>
        <time>2022-06-25T07:22:40Z</time>
      </trkpt>
      <trkpt lat="46.63609" lon="5.21047">
        <ele>186.6</ele>
        <time>2022-06-25T07:22:41Z</time>
      </trkpt>
      <trkpt lat="46.63612" lon="5.21038">
        <ele>186.6</ele>
        <time>2022-06-25T07:22:42Z</time>
      </trkpt>
      <trkpt lat="46.63614" lon="5.21029">
        <ele>186.6</ele>
        <time>2022-06-25T07:22:43Z</time>
      </trkpt>
      <trkpt lat="46.63617" lon="5.21021">
        <ele>186.6</ele>
        <time>2022-06-25T07:22:44Z</time>
      </trkpt>
      <trkpt lat="46.6362" lon="5.21012">
        <ele>186.6</ele>
        <time>2022-06-25T07:22:45Z</time>
      </trkpt>
      <trkpt lat="46.63624" lon="5.21003">
        <ele>186.6</ele>
        <time>2022-06-25T07:22:46Z</time>
      </trkpt>
      <trkpt lat="46.63627" lon="5.20995">
        <ele>186.6</ele>
        <time>2022-06-25T07:22:47Z</time>
      </trkpt>
      <trkpt lat="46.63631" lon="5.20987">
        <ele>186.6</ele>
        <time>2022-06-25T07:22:48Z</time>
      </trkpt>
      <trkpt lat="46.63634" lon="5.20978">
        <ele>186.6</ele>
        <time>2022-06-25T07:22:49Z</time>
      </trkpt>
      <trkpt lat="46.63638" lon="5.20971">
        <ele>186.6</ele>
        <time>2022-06-25T07:22:50Z</time>
      </trkpt>
      <trkpt lat="46.63642" lon="5.20963">
        <ele>186.6</ele>
        <time>2022-06-25T07:22:51Z</time>
      </trkpt>
      <trkpt lat="46.63646" lon="5.20955">
        <ele>186.6</ele>
        <time>2022-06-25T07:22:52Z</time>
      </trkpt>
      <trkpt lat="46.6365" lon="5.20947">
        <ele>186.6</ele>
        <time>2022-06-25T07:22:53Z</time>
      </trkpt>
      <trkpt lat="46.63654" lon="5.2094">
        <ele>186.6</ele>
        <time>2022-06-25T07:22:54Z</time>
      </trkpt>
      <trkpt lat="46.63658" lon="5.20933">
        <ele>186.6</ele>
        <time>2022-06-25T07:22:55Z</time>
      </trkpt>
      <trkpt lat="46.63663" lon="5.20925">
        <ele>186.6</ele>
        <time>2022-06-25T07:22:56Z</time>
      </trkpt>
      <trkpt lat="46.63667" lon="5.20918">
        <ele>186.6</ele>
        <time>2022-06-25T07:22:57Z</time>
      </trkpt>
      <trkpt lat="46.63671" lon="5.20911">
        <ele>186.6</ele>
        <time>2022-06-25T07:22:58Z</time>
      </trkpt>
      <trkpt lat="46.63675" lon="5.20903">
        <ele>186.6</ele>
        <time>2022-06-25T07:22:59Z</time>
      </trkpt>
      <trkpt lat="46.63679" lon="5.20896">
        <ele>186.6</ele>
        <time>2022-06-25T07:23:00Z</time>
      </trkpt>
      <trkpt lat="46.63683" lon="5.20889">
        <ele>186.6</ele>
        <time>2022-06-25T07:23:01Z</time>
      </trkpt>
      <trkpt lat="46.63688" lon="5.20882">
        <ele>186.6</ele>
        <time>2022-06-25T07:23:02Z</time>
      </trkpt>
      <trkpt lat="46.63692" lon="5.20875">
        <ele>186.6</ele>
        <time>2022-06-25T07:23:03Z</time>
      </trkpt>
      <trkpt lat="46.63696" lon="5.20868">
        <ele>186.6</ele>
        <time>2022-06-25T07:23:04Z</time>
      </trkpt>
      <trkpt lat="46.637" lon="5.20861">
        <ele>186.6</ele>
        <time>2022-06-25T07:23:05Z</time>
      </trkpt>
      <trkpt lat="46.63704" lon="5.20855">
        <ele>186.6</ele>
        <time>2022-06-25T07:23:06Z</time>
      </trkpt>
      <trkpt lat="46.63708" lon="5.20847">
        <ele>186.2</ele>
        <time>2022-06-25T07:23:07Z</time>
      </trkpt>
      <trkpt lat="46.63712" lon="5.2084">
        <ele>186.2</ele>
        <time>2022-06-25T07:23:08Z</time>
      </trkpt>
      <trkpt lat="46.63716" lon="5.20834">
        <ele>186.2</ele>
        <time>2022-06-25T07:23:09Z</time>
      </trkpt>
      <trkpt lat="46.6372" lon="5.20827">
        <ele>186.2</ele>
        <time>2022-06-25T07:23:10Z</time>
      </trkpt>
      <trkpt lat="46.63724" lon="5.20819">
        <ele>186.2</ele>
        <time>2022-06-25T07:23:11Z</time>
      </trkpt>
      <trkpt lat="46.63728" lon="5.20812">
        <ele>186.2</ele>
        <time>2022-06-25T07:23:12Z</time>
      </trkpt>
      <trkpt lat="46.63732" lon="5.20805">
        <ele>186.2</ele>
        <time>2022-06-25T07:23:13Z</time>
      </trkpt>
      <trkpt lat="46.63736" lon="5.20798">
        <ele>186.4</ele>
        <time>2022-06-25T07:23:14Z</time>
      </trkpt>
      <trkpt lat="46.6374" lon="5.20791">
        <ele>186.4</ele>
        <time>2022-06-25T07:23:15Z</time>
      </trkpt>
      <trkpt lat="46.63744" lon="5.20784">
        <ele>186.4</ele>
        <time>2022-06-25T07:23:16Z</time>
      </trkpt>
      <trkpt lat="46.63748" lon="5.20777">
        <ele>186.4</ele>
        <time>2022-06-25T07:23:17Z</time>
      </trkpt>
      <trkpt lat="46.63752" lon="5.2077">
        <ele>186.4</ele>
        <time>2022-06-25T07:23:18Z</time>
      </trkpt>
      <trkpt lat="46.63756" lon="5.20763">
        <ele>186.4</ele>
        <time>2022-06-25T07:23:19Z</time>
      </trkpt>
      <trkpt lat="46.6376" lon="5.20756">
        <ele>186.4</ele>
        <time>2022-06-25T07:23:20Z</time>
      </trkpt>
      <trkpt lat="46.63764" lon="5.2075">
        <ele>186.4</ele>
        <time>2022-06-25T07:23:21Z</time>
      </trkpt>
      <trkpt lat="46.63769" lon="5.20743">
        <ele>186.4</ele>
        <time>2022-06-25T07:23:22Z</time>
      </trkpt>
      <trkpt lat="46.63773" lon="5.20736">
        <ele>186.4</ele>
        <time>2022-06-25T07:23:23Z</time>
      </trkpt>
      <trkpt lat="46.63777" lon="5.2073">
        <ele>186.4</ele>
        <time>2022-06-25T07:23:24Z</time>
      </trkpt>
      <trkpt lat="46.63781" lon="5.20723">
        <ele>186.2</ele>
        <time>2022-06-25T07:23:25Z</time>
      </trkpt>
      <trkpt lat="46.63785" lon="5.20716">
        <ele>186.2</ele>
        <time>2022-06-25T07:23:26Z</time>
      </trkpt>
      <trkpt lat="46.63789" lon="5.20709">
        <ele>186.2</ele>
        <time>2022-06-25T07:23:27Z</time>
      </trkpt>
      <trkpt lat="46.63793" lon="5.20701">
        <ele>186.2</ele>
        <time>2022-06-25T07:23:28Z</time>
      </trkpt>
      <trkpt lat="46.63797" lon="5.20694">
        <ele>186.2</ele>
        <time>2022-06-25T07:23:29Z</time>
      </trkpt>
      <trkpt lat="46.638" lon="5.20687">
        <ele>186.2</ele>
        <time>2022-06-25T07:23:30Z</time>
      </trkpt>
      <trkpt lat="46.63804" lon="5.20679">
        <ele>186.4</ele>
        <time>2022-06-25T07:23:31Z</time>
      </trkpt>
      <trkpt lat="46.63807" lon="5.20671">
        <ele>186.4</ele>
        <time>2022-06-25T07:23:32Z</time>
      </trkpt>
      <trkpt lat="46.6381" lon="5.20663">
        <ele>186.4</ele>
        <time>2022-06-25T07:23:33Z</time>
      </trkpt>
      <trkpt lat="46.63813" lon="5.20655">
        <ele>186.4</ele>
        <time>2022-06-25T07:23:34Z</time>
      </trkpt>
      <trkpt lat="46.63816" lon="5.20646">
        <ele>186.4</ele>
        <time>2022-06-25T07:23:35Z</time>
      </trkpt>
      <trkpt lat="46.63819" lon="5.20637">
        <ele>186.4</ele>
        <time>2022-06-25T07:23:36Z</time>
      </trkpt>
      <trkpt lat="46.63821" lon="5.20629">
        <ele>186.4</ele>
        <time>2022-06-25T07:23:37Z</time>
      </trkpt>
      <trkpt lat="46.63824" lon="5.20619">
        <ele>186.4</ele>
        <time>2022-06-25T07:23:38Z</time>
      </trkpt>
      <trkpt lat="46.63827" lon="5.20611">
        <ele>186.4</ele>
        <time>2022-06-25T07:23:39Z</time>
      </trkpt>
      <trkpt lat="46.6383" lon="5.20602">
        <ele>186.4</ele>
        <time>2022-06-25T07:23:40Z</time>
      </trkpt>
      <trkpt lat="46.63833" lon="5.20593">
        <ele>186.4</ele>
        <time>2022-06-25T07:23:41Z</time>
      </trkpt>
      <trkpt lat="46.63837" lon="5.20584">
        <ele>186.4</ele>
        <time>2022-06-25T07:23:42Z</time>
      </trkpt>
      <trkpt lat="46.6384" lon="5.20575">
        <ele>186.4</ele>
        <time>2022-06-25T07:23:43Z</time>
      </trkpt>
      <trkpt lat="46.63844" lon="5.20567">
        <ele>186.4</ele>
        <time>2022-06-25T07:23:44Z</time>
      </trkpt>
      <trkpt lat="46.63847" lon="5.20558">
        <ele>186.4</ele>
        <time>2022-06-25T07:23:45Z</time>
      </trkpt>
      <trkpt lat="46.63851" lon="5.2055">
        <ele>186.4</ele>
        <time>2022-06-25T07:23:46Z</time>
      </trkpt>
      <trkpt lat="46.63854" lon="5.20541">
        <ele>186.4</ele>
        <time>2022-06-25T07:23:47Z</time>
      </trkpt>
      <trkpt lat="46.63858" lon="5.20533">
        <ele>186.4</ele>
        <time>2022-06-25T07:23:48Z</time>
      </trkpt>
      <trkpt lat="46.63861" lon="5.20525">
        <ele>186.6</ele>
        <time>2022-06-25T07:23:49Z</time>
      </trkpt>
      <trkpt lat="46.63865" lon="5.20517">
        <ele>186.6</ele>
        <time>2022-06-25T07:23:50Z</time>
      </trkpt>
      <trkpt lat="46.63868" lon="5.20509">
        <ele>186.6</ele>
        <time>2022-06-25T07:23:51Z</time>
      </trkpt>
      <trkpt lat="46.63872" lon="5.20501">
        <ele>186.6</ele>
        <time>2022-06-25T07:23:52Z</time>
      </trkpt>
      <trkpt lat="46.63876" lon="5.20493">
        <ele>186.6</ele>
        <time>2022-06-25T07:23:53Z</time>
      </trkpt>
      <trkpt lat="46.6388" lon="5.20485">
        <ele>186.6</ele>
        <time>2022-06-25T07:23:54Z</time>
      </trkpt>
      <trkpt lat="46.63884" lon="5.20478">
        <ele>186.6</ele>
        <time>2022-06-25T07:23:55Z</time>
      </trkpt>
      <trkpt lat="46.63888" lon="5.2047">
        <ele>186.6</ele>
        <time>2022-06-25T07:23:56Z</time>
      </trkpt>
      <trkpt lat="46.63892" lon="5.20463">
        <ele>186.6</ele>
        <time>2022-06-25T07:23:57Z</time>
      </trkpt>
      <trkpt lat="46.63896" lon="5.20455">
        <ele>186.6</ele>
        <time>2022-06-25T07:23:58Z</time>
      </trkpt>
      <trkpt lat="46.639" lon="5.20448">
        <ele>186.6</ele>
        <time>2022-06-25T07:23:59Z</time>
      </trkpt>
      <trkpt lat="46.63904" lon="5.20441">
        <ele>187</ele>
        <time>2022-06-25T07:24:00Z</time>
      </trkpt>
      <trkpt lat="46.63908" lon="5.20433">
        <ele>187</ele>
        <time>2022-06-25T07:24:01Z</time>
      </trkpt>
      <trkpt lat="46.63913" lon="5.20426">
        <ele>187</ele>
        <time>2022-06-25T07:24:02Z</time>
      </trkpt>
      <trkpt lat="46.63917" lon="5.20418">
        <ele>187</ele>
        <time>2022-06-25T07:24:03Z</time>
      </trkpt>
      <trkpt lat="46.63921" lon="5.2041">
        <ele>187</ele>
        <time>2022-06-25T07:24:04Z</time>
      </trkpt>
      <trkpt lat="46.63926" lon="5.20403">
        <ele>187</ele>
        <time>2022-06-25T07:24:05Z</time>
      </trkpt>
      <trkpt lat="46.6393" lon="5.20395">
        <ele>187</ele>
        <time>2022-06-25T07:24:06Z</time>
      </trkpt>
      <trkpt lat="46.63934" lon="5.20388">
        <ele>187</ele>
        <time>2022-06-25T07:24:07Z</time>
      </trkpt>
      <trkpt lat="46.63938" lon="5.20381">
        <ele>187</ele>
        <time>2022-06-25T07:24:08Z</time>
      </trkpt>
      <trkpt lat="46.63943" lon="5.20373">
        <ele>187</ele>
        <time>2022-06-25T07:24:09Z</time>
      </trkpt>
      <trkpt lat="46.63947" lon="5.20366">
        <ele>187</ele>
        <time>2022-06-25T07:24:10Z</time>
      </trkpt>
      <trkpt lat="46.63951" lon="5.20358">
        <ele>187</ele>
        <time>2022-06-25T07:24:11Z</time>
      </trkpt>
      <trkpt lat="46.63956" lon="5.20351">
        <ele>187</ele>
        <time>2022-06-25T07:24:12Z</time>
      </trkpt>
      <trkpt lat="46.6396" lon="5.20343">
        <ele>187</ele>
        <time>2022-06-25T07:24:13Z</time>
      </trkpt>
      <trkpt lat="46.63964" lon="5.20336">
        <ele>186.6</ele>
        <time>2022-06-25T07:24:14Z</time>
      </trkpt>
      <trkpt lat="46.63969" lon="5.20329">
        <ele>186.6</ele>
        <time>2022-06-25T07:24:15Z</time>
      </trkpt>
      <trkpt lat="46.63973" lon="5.20321">
        <ele>186.6</ele>
        <time>2022-06-25T07:24:16Z</time>
      </trkpt>
      <trkpt lat="46.63977" lon="5.20314">
        <ele>186.6</ele>
        <time>2022-06-25T07:24:17Z</time>
      </trkpt>
      <trkpt lat="46.63981" lon="5.20307">
        <ele>186.6</ele>
        <time>2022-06-25T07:24:18Z</time>
      </trkpt>
      <trkpt lat="46.63986" lon="5.20299">
        <ele>186.6</ele>
        <time>2022-06-25T07:24:19Z</time>
      </trkpt>
      <trkpt lat="46.6399" lon="5.20292">
        <ele>186.6</ele>
        <time>2022-06-25T07:24:20Z</time>
      </trkpt>
      <trkpt lat="46.63994" lon="5.20285">
        <ele>186.6</ele>
        <time>2022-06-25T07:24:21Z</time>
      </trkpt>
      <trkpt lat="46.63998" lon="5.20278">
        <ele>186.4</ele>
        <time>2022-06-25T07:24:22Z</time>
      </trkpt>
      <trkpt lat="46.64002" lon="5.20271">
        <ele>186.4</ele>
        <time>2022-06-25T07:24:23Z</time>
      </trkpt>
      <trkpt lat="46.64006" lon="5.20263">
        <ele>186.4</ele>
        <time>2022-06-25T07:24:24Z</time>
      </trkpt>
      <trkpt lat="46.6401" lon="5.20256">
        <ele>186.4</ele>
        <time>2022-06-25T07:24:25Z</time>
      </trkpt>
      <trkpt lat="46.64014" lon="5.20249">
        <ele>186.4</ele>
        <time>2022-06-25T07:24:26Z</time>
      </trkpt>
      <trkpt lat="46.64018" lon="5.20241">
        <ele>186.4</ele>
        <time>2022-06-25T07:24:27Z</time>
      </trkpt>
      <trkpt lat="46.64022" lon="5.20233">
        <ele>186.4</ele>
        <time>2022-06-25T07:24:28Z</time>
      </trkpt>
      <trkpt lat="46.64025" lon="5.20226">
        <ele>186.4</ele>
        <time>2022-06-25T07:24:29Z</time>
      </trkpt>
      <trkpt lat="46.64028" lon="5.20217">
        <ele>186.4</ele>
        <time>2022-06-25T07:24:30Z</time>
      </trkpt>
      <trkpt lat="46.64032" lon="5.20209">
        <ele>186.4</ele>
        <time>2022-06-25T07:24:31Z</time>
      </trkpt>
      <trkpt lat="46.64035" lon="5.20201">
        <ele>186.4</ele>
        <time>2022-06-25T07:24:32Z</time>
      </trkpt>
      <trkpt lat="46.64038" lon="5.20193">
        <ele>186.4</ele>
        <time>2022-06-25T07:24:33Z</time>
      </trkpt>
      <trkpt lat="46.64041" lon="5.20184">
        <ele>186.4</ele>
        <time>2022-06-25T07:24:34Z</time>
      </trkpt>
      <trkpt lat="46.64044" lon="5.20176">
        <ele>186.4</ele>
        <time>2022-06-25T07:24:35Z</time>
      </trkpt>
      <trkpt lat="46.64048" lon="5.20167">
        <ele>186.4</ele>
        <time>2022-06-25T07:24:36Z</time>
      </trkpt>
      <trkpt lat="46.64051" lon="5.20159">
        <ele>186.6</ele>
        <time>2022-06-25T07:24:37Z</time>
      </trkpt>
      <trkpt lat="46.64054" lon="5.2015">
        <ele>186.6</ele>
        <time>2022-06-25T07:24:38Z</time>
      </trkpt>
      <trkpt lat="46.64057" lon="5.20141">
        <ele>186.6</ele>
        <time>2022-06-25T07:24:39Z</time>
      </trkpt>
      <trkpt lat="46.6406" lon="5.20133">
        <ele>186.4</ele>
        <time>2022-06-25T07:24:40Z</time>
      </trkpt>
      <trkpt lat="46.64063" lon="5.20124">
        <ele>186.4</ele>
        <time>2022-06-25T07:24:41Z</time>
      </trkpt>
      <trkpt lat="46.64067" lon="5.20116">
        <ele>186.4</ele>
        <time>2022-06-25T07:24:42Z</time>
      </trkpt>
      <trkpt lat="46.6407" lon="5.20107">
        <ele>186.4</ele>
        <time>2022-06-25T07:24:43Z</time>
      </trkpt>
      <trkpt lat="46.64073" lon="5.20099">
        <ele>186.4</ele>
        <time>2022-06-25T07:24:44Z</time>
      </trkpt>
      <trkpt lat="46.64076" lon="5.20091">
        <ele>186.4</ele>
        <time>2022-06-25T07:24:45Z</time>
      </trkpt>
      <trkpt lat="46.6408" lon="5.20082">
        <ele>186.4</ele>
        <time>2022-06-25T07:24:46Z</time>
      </trkpt>
      <trkpt lat="46.64083" lon="5.20073">
        <ele>186.2</ele>
        <time>2022-06-25T07:24:47Z</time>
      </trkpt>
      <trkpt lat="46.64086" lon="5.20064">
        <ele>186.2</ele>
        <time>2022-06-25T07:24:48Z</time>
      </trkpt>
      <trkpt lat="46.64089" lon="5.20056">
        <ele>186.2</ele>
        <time>2022-06-25T07:24:49Z</time>
      </trkpt>
      <trkpt lat="46.64093" lon="5.20047">
        <ele>186.2</ele>
        <time>2022-06-25T07:24:50Z</time>
      </trkpt>
      <trkpt lat="46.64096" lon="5.20038">
        <ele>186.2</ele>
        <time>2022-06-25T07:24:51Z</time>
      </trkpt>
      <trkpt lat="46.64099" lon="5.20029">
        <ele>186.2</ele>
        <time>2022-06-25T07:24:52Z</time>
      </trkpt>
      <trkpt lat="46.64103" lon="5.2002">
        <ele>186.2</ele>
        <time>2022-06-25T07:24:53Z</time>
      </trkpt>
      <trkpt lat="46.64106" lon="5.20011">
        <ele>186</ele>
        <time>2022-06-25T07:24:54Z</time>
      </trkpt>
      <trkpt lat="46.64109" lon="5.20002">
        <ele>186</ele>
        <time>2022-06-25T07:24:55Z</time>
      </trkpt>
      <trkpt lat="46.64112" lon="5.19992">
        <ele>186</ele>
        <time>2022-06-25T07:24:56Z</time>
      </trkpt>
      <trkpt lat="46.64115" lon="5.19983">
        <ele>185.6</ele>
        <time>2022-06-25T07:24:57Z</time>
      </trkpt>
      <trkpt lat="46.64118" lon="5.19973">
        <ele>185.6</ele>
        <time>2022-06-25T07:24:58Z</time>
      </trkpt>
      <trkpt lat="46.6412" lon="5.19963">
        <ele>185.6</ele>
        <time>2022-06-25T07:24:59Z</time>
      </trkpt>
      <trkpt lat="46.64122" lon="5.19953">
        <ele>185.6</ele>
        <time>2022-06-25T07:25:00Z</time>
      </trkpt>
      <trkpt lat="46.64124" lon="5.19944">
        <ele>185.6</ele>
        <time>2022-06-25T07:25:01Z</time>
      </trkpt>
      <trkpt lat="46.64126" lon="5.19934">
        <ele>185.6</ele>
        <time>2022-06-25T07:25:02Z</time>
      </trkpt>
      <trkpt lat="46.64127" lon="5.19924">
        <ele>185.4</ele>
        <time>2022-06-25T07:25:03Z</time>
      </trkpt>
      <trkpt lat="46.64128" lon="5.19913">
        <ele>185.4</ele>
        <time>2022-06-25T07:25:04Z</time>
      </trkpt>
      <trkpt lat="46.64129" lon="5.19903">
        <ele>185.4</ele>
        <time>2022-06-25T07:25:05Z</time>
      </trkpt>
      <trkpt lat="46.6413" lon="5.19893">
        <ele>185.2</ele>
        <time>2022-06-25T07:25:06Z</time>
      </trkpt>
      <trkpt lat="46.64131" lon="5.19882">
        <ele>185.2</ele>
        <time>2022-06-25T07:25:07Z</time>
      </trkpt>
      <trkpt lat="46.64134" lon="5.19861">
        <ele>185.2</ele>
        <time>2022-06-25T07:25:08Z</time>
      </trkpt>
      <trkpt lat="46.64135" lon="5.19851">
        <ele>185.2</ele>
        <time>2022-06-25T07:25:09Z</time>
      </trkpt>
      <trkpt lat="46.64136" lon="5.19841">
        <ele>185.2</ele>
        <time>2022-06-25T07:25:10Z</time>
      </trkpt>
      <trkpt lat="46.64137" lon="5.1983">
        <ele>185.2</ele>
        <time>2022-06-25T07:25:11Z</time>
      </trkpt>
      <trkpt lat="46.64138" lon="5.19819">
        <ele>185.2</ele>
        <time>2022-06-25T07:25:12Z</time>
      </trkpt>
      <trkpt lat="46.64139" lon="5.19808">
        <ele>185.2</ele>
        <time>2022-06-25T07:25:13Z</time>
      </trkpt>
      <trkpt lat="46.6414" lon="5.19798">
        <ele>185</ele>
        <time>2022-06-25T07:25:14Z</time>
      </trkpt>
      <trkpt lat="46.64141" lon="5.19787">
        <ele>185</ele>
        <time>2022-06-25T07:25:15Z</time>
      </trkpt>
      <trkpt lat="46.64143" lon="5.19776">
        <ele>185</ele>
        <time>2022-06-25T07:25:16Z</time>
      </trkpt>
      <trkpt lat="46.64144" lon="5.19765">
        <ele>185</ele>
        <time>2022-06-25T07:25:17Z</time>
      </trkpt>
      <trkpt lat="46.64145" lon="5.19755">
        <ele>185</ele>
        <time>2022-06-25T07:25:18Z</time>
      </trkpt>
      <trkpt lat="46.64147" lon="5.19744">
        <ele>185</ele>
        <time>2022-06-25T07:25:19Z</time>
      </trkpt>
      <trkpt lat="46.64149" lon="5.19733">
        <ele>185</ele>
        <time>2022-06-25T07:25:20Z</time>
      </trkpt>
      <trkpt lat="46.6415" lon="5.19723">
        <ele>185</ele>
        <time>2022-06-25T07:25:21Z</time>
      </trkpt>
      <trkpt lat="46.64152" lon="5.19712">
        <ele>185</ele>
        <time>2022-06-25T07:25:22Z</time>
      </trkpt>
      <trkpt lat="46.64154" lon="5.19702">
        <ele>185</ele>
        <time>2022-06-25T07:25:23Z</time>
      </trkpt>
      <trkpt lat="46.64156" lon="5.19691">
        <ele>185</ele>
        <time>2022-06-25T07:25:24Z</time>
      </trkpt>
      <trkpt lat="46.64158" lon="5.19681">
        <ele>185</ele>
        <time>2022-06-25T07:25:25Z</time>
      </trkpt>
      <trkpt lat="46.6416" lon="5.19671">
        <ele>185</ele>
        <time>2022-06-25T07:25:26Z</time>
      </trkpt>
      <trkpt lat="46.64162" lon="5.19661">
        <ele>185</ele>
        <time>2022-06-25T07:25:27Z</time>
      </trkpt>
      <trkpt lat="46.64163" lon="5.19651">
        <ele>185</ele>
        <time>2022-06-25T07:25:28Z</time>
      </trkpt>
      <trkpt lat="46.64165" lon="5.19641">
        <ele>185</ele>
        <time>2022-06-25T07:25:29Z</time>
      </trkpt>
      <trkpt lat="46.64167" lon="5.19631">
        <ele>185</ele>
        <time>2022-06-25T07:25:30Z</time>
      </trkpt>
      <trkpt lat="46.64169" lon="5.19622">
        <ele>185</ele>
        <time>2022-06-25T07:25:31Z</time>
      </trkpt>
      <trkpt lat="46.6417" lon="5.19612">
        <ele>185</ele>
        <time>2022-06-25T07:25:32Z</time>
      </trkpt>
      <trkpt lat="46.64173" lon="5.19603">
        <ele>185</ele>
        <time>2022-06-25T07:25:33Z</time>
      </trkpt>
      <trkpt lat="46.64174" lon="5.19593">
        <ele>185</ele>
        <time>2022-06-25T07:25:34Z</time>
      </trkpt>
      <trkpt lat="46.64176" lon="5.19583">
        <ele>185</ele>
        <time>2022-06-25T07:25:35Z</time>
      </trkpt>
      <trkpt lat="46.64178" lon="5.19574">
        <ele>185</ele>
        <time>2022-06-25T07:25:36Z</time>
      </trkpt>
      <trkpt lat="46.64179" lon="5.19564">
        <ele>185</ele>
        <time>2022-06-25T07:25:37Z</time>
      </trkpt>
      <trkpt lat="46.64181" lon="5.19555">
        <ele>185</ele>
        <time>2022-06-25T07:25:38Z</time>
      </trkpt>
      <trkpt lat="46.64183" lon="5.19545">
        <ele>185</ele>
        <time>2022-06-25T07:25:39Z</time>
      </trkpt>
      <trkpt lat="46.64184" lon="5.19536">
        <ele>185</ele>
        <time>2022-06-25T07:25:40Z</time>
      </trkpt>
      <trkpt lat="46.64186" lon="5.19526">
        <ele>185</ele>
        <time>2022-06-25T07:25:41Z</time>
      </trkpt>
      <trkpt lat="46.64188" lon="5.19517">
        <ele>185</ele>
        <time>2022-06-25T07:25:42Z</time>
      </trkpt>
      <trkpt lat="46.6419" lon="5.19507">
        <ele>185</ele>
        <time>2022-06-25T07:25:43Z</time>
      </trkpt>
      <trkpt lat="46.64192" lon="5.19498">
        <ele>184.8</ele>
        <time>2022-06-25T07:25:44Z</time>
      </trkpt>
      <trkpt lat="46.64195" lon="5.19489">
        <ele>184.8</ele>
        <time>2022-06-25T07:25:45Z</time>
      </trkpt>
      <trkpt lat="46.64197" lon="5.1948">
        <ele>184.8</ele>
        <time>2022-06-25T07:25:46Z</time>
      </trkpt>
      <trkpt lat="46.642" lon="5.19471">
        <ele>184.8</ele>
        <time>2022-06-25T07:25:47Z</time>
      </trkpt>
      <trkpt lat="46.64202" lon="5.19462">
        <ele>184.8</ele>
        <time>2022-06-25T07:25:48Z</time>
      </trkpt>
      <trkpt lat="46.64205" lon="5.19453">
        <ele>184.8</ele>
        <time>2022-06-25T07:25:49Z</time>
      </trkpt>
      <trkpt lat="46.64207" lon="5.19444">
        <ele>184.8</ele>
        <time>2022-06-25T07:25:50Z</time>
      </trkpt>
      <trkpt lat="46.6421" lon="5.19435">
        <ele>184.8</ele>
        <time>2022-06-25T07:25:51Z</time>
      </trkpt>
      <trkpt lat="46.64212" lon="5.19426">
        <ele>184.8</ele>
        <time>2022-06-25T07:25:52Z</time>
      </trkpt>
      <trkpt lat="46.64215" lon="5.19417">
        <ele>184.8</ele>
        <time>2022-06-25T07:25:53Z</time>
      </trkpt>
      <trkpt lat="46.64217" lon="5.19407">
        <ele>184.8</ele>
        <time>2022-06-25T07:25:54Z</time>
      </trkpt>
      <trkpt lat="46.6422" lon="5.19398">
        <ele>184.6</ele>
        <time>2022-06-25T07:25:55Z</time>
      </trkpt>
      <trkpt lat="46.64222" lon="5.19389">
        <ele>184.6</ele>
        <time>2022-06-25T07:25:56Z</time>
      </trkpt>
      <trkpt lat="46.64225" lon="5.1938">
        <ele>184.6</ele>
        <time>2022-06-25T07:25:57Z</time>
      </trkpt>
      <trkpt lat="46.64228" lon="5.19371">
        <ele>184.6</ele>
        <time>2022-06-25T07:25:58Z</time>
      </trkpt>
      <trkpt lat="46.6423" lon="5.19362">
        <ele>184.6</ele>
        <time>2022-06-25T07:25:59Z</time>
      </trkpt>
      <trkpt lat="46.64233" lon="5.19352">
        <ele>184.6</ele>
        <time>2022-06-25T07:26:00Z</time>
      </trkpt>
      <trkpt lat="46.64235" lon="5.19343">
        <ele>184.8</ele>
        <time>2022-06-25T07:26:01Z</time>
      </trkpt>
      <trkpt lat="46.64238" lon="5.19334">
        <ele>184.8</ele>
        <time>2022-06-25T07:26:02Z</time>
      </trkpt>
      <trkpt lat="46.64241" lon="5.19325">
        <ele>184.8</ele>
        <time>2022-06-25T07:26:03Z</time>
      </trkpt>
      <trkpt lat="46.64243" lon="5.19316">
        <ele>184.8</ele>
        <time>2022-06-25T07:26:04Z</time>
      </trkpt>
      <trkpt lat="46.64246" lon="5.19307">
        <ele>184.8</ele>
        <time>2022-06-25T07:26:05Z</time>
      </trkpt>
      <trkpt lat="46.64248" lon="5.19298">
        <ele>184.8</ele>
        <time>2022-06-25T07:26:06Z</time>
      </trkpt>
      <trkpt lat="46.64251" lon="5.19288">
        <ele>184.8</ele>
        <time>2022-06-25T07:26:07Z</time>
      </trkpt>
      <trkpt lat="46.64253" lon="5.19279">
        <ele>184.8</ele>
        <time>2022-06-25T07:26:08Z</time>
      </trkpt>
      <trkpt lat="46.64255" lon="5.1927">
        <ele>184.8</ele>
        <time>2022-06-25T07:26:09Z</time>
      </trkpt>
      <trkpt lat="46.64258" lon="5.19261">
        <ele>185</ele>
        <time>2022-06-25T07:26:10Z</time>
      </trkpt>
      <trkpt lat="46.6426" lon="5.19252">
        <ele>185</ele>
        <time>2022-06-25T07:26:11Z</time>
      </trkpt>
      <trkpt lat="46.64262" lon="5.19243">
        <ele>185</ele>
        <time>2022-06-25T07:26:12Z</time>
      </trkpt>
      <trkpt lat="46.64264" lon="5.19233">
        <ele>185</ele>
        <time>2022-06-25T07:26:13Z</time>
      </trkpt>
      <trkpt lat="46.64265" lon="5.19223">
        <ele>185</ele>
        <time>2022-06-25T07:26:14Z</time>
      </trkpt>
      <trkpt lat="46.64267" lon="5.19214">
        <ele>185</ele>
        <time>2022-06-25T07:26:15Z</time>
      </trkpt>
      <trkpt lat="46.64268" lon="5.19204">
        <ele>185</ele>
        <time>2022-06-25T07:26:16Z</time>
      </trkpt>
      <trkpt lat="46.64269" lon="5.19194">
        <ele>185.2</ele>
        <time>2022-06-25T07:26:17Z</time>
      </trkpt>
      <trkpt lat="46.6427" lon="5.19184">
        <ele>185.2</ele>
        <time>2022-06-25T07:26:18Z</time>
      </trkpt>
      <trkpt lat="46.64271" lon="5.19174">
        <ele>185.2</ele>
        <time>2022-06-25T07:26:19Z</time>
      </trkpt>
      <trkpt lat="46.64272" lon="5.19164">
        <ele>185.2</ele>
        <time>2022-06-25T07:26:20Z</time>
      </trkpt>
      <trkpt lat="46.64272" lon="5.19154">
        <ele>185.6</ele>
        <time>2022-06-25T07:26:21Z</time>
      </trkpt>
      <trkpt lat="46.64273" lon="5.19144">
        <ele>185.6</ele>
        <time>2022-06-25T07:26:22Z</time>
      </trkpt>
      <trkpt lat="46.64274" lon="5.19134">
        <ele>185.6</ele>
        <time>2022-06-25T07:26:23Z</time>
      </trkpt>
      <trkpt lat="46.64275" lon="5.19125">
        <ele>185.6</ele>
        <time>2022-06-25T07:26:24Z</time>
      </trkpt>
      <trkpt lat="46.64276" lon="5.19115">
        <ele>185.6</ele>
        <time>2022-06-25T07:26:25Z</time>
      </trkpt>
      <trkpt lat="46.64277" lon="5.19105">
        <ele>185.6</ele>
        <time>2022-06-25T07:26:26Z</time>
      </trkpt>
      <trkpt lat="46.64278" lon="5.19095">
        <ele>185.6</ele>
        <time>2022-06-25T07:26:27Z</time>
      </trkpt>
      <trkpt lat="46.64279" lon="5.19085">
        <ele>185.6</ele>
        <time>2022-06-25T07:26:28Z</time>
      </trkpt>
      <trkpt lat="46.6428" lon="5.19075">
        <ele>185.6</ele>
        <time>2022-06-25T07:26:29Z</time>
      </trkpt>
      <trkpt lat="46.64281" lon="5.19065">
        <ele>185.6</ele>
        <time>2022-06-25T07:26:30Z</time>
      </trkpt>
      <trkpt lat="46.64282" lon="5.19055">
        <ele>185.6</ele>
        <time>2022-06-25T07:26:31Z</time>
      </trkpt>
      <trkpt lat="46.64282" lon="5.19045">
        <ele>185.6</ele>
        <time>2022-06-25T07:26:32Z</time>
      </trkpt>
      <trkpt lat="46.64283" lon="5.19035">
        <ele>185.6</ele>
        <time>2022-06-25T07:26:33Z</time>
      </trkpt>
      <trkpt lat="46.64284" lon="5.19025">
        <ele>185.6</ele>
        <time>2022-06-25T07:26:34Z</time>
      </trkpt>
      <trkpt lat="46.64285" lon="5.19015">
        <ele>185.6</ele>
        <time>2022-06-25T07:26:35Z</time>
      </trkpt>
      <trkpt lat="46.64286" lon="5.19005">
        <ele>185.6</ele>
        <time>2022-06-25T07:26:36Z</time>
      </trkpt>
      <trkpt lat="46.64287" lon="5.18995">
        <ele>185.6</ele>
        <time>2022-06-25T07:26:37Z</time>
      </trkpt>
      <trkpt lat="46.64288" lon="5.18985">
        <ele>185.6</ele>
        <time>2022-06-25T07:26:38Z</time>
      </trkpt>
      <trkpt lat="46.64289" lon="5.18975">
        <ele>185.6</ele>
        <time>2022-06-25T07:26:39Z</time>
      </trkpt>
      <trkpt lat="46.6429" lon="5.18965">
        <ele>185.6</ele>
        <time>2022-06-25T07:26:40Z</time>
      </trkpt>
      <trkpt lat="46.64291" lon="5.18956">
        <ele>185.8</ele>
        <time>2022-06-25T07:26:41Z</time>
      </trkpt>
      <trkpt lat="46.64292" lon="5.18946">
        <ele>185.8</ele>
        <time>2022-06-25T07:26:42Z</time>
      </trkpt>
      <trkpt lat="46.64293" lon="5.18936">
        <ele>185.8</ele>
        <time>2022-06-25T07:26:43Z</time>
      </trkpt>
      <trkpt lat="46.64294" lon="5.18926">
        <ele>185.8</ele>
        <time>2022-06-25T07:26:44Z</time>
      </trkpt>
      <trkpt lat="46.64294" lon="5.18916">
        <ele>185.8</ele>
        <time>2022-06-25T07:26:45Z</time>
      </trkpt>
      <trkpt lat="46.64295" lon="5.18906">
        <ele>185.8</ele>
        <time>2022-06-25T07:26:46Z</time>
      </trkpt>
      <trkpt lat="46.64296" lon="5.18896">
        <ele>185.8</ele>
        <time>2022-06-25T07:26:47Z</time>
      </trkpt>
      <trkpt lat="46.64297" lon="5.18886">
        <ele>186.2</ele>
        <time>2022-06-25T07:26:48Z</time>
      </trkpt>
      <trkpt lat="46.64298" lon="5.18876">
        <ele>186.2</ele>
        <time>2022-06-25T07:26:49Z</time>
      </trkpt>
      <trkpt lat="46.64298" lon="5.18866">
        <ele>186.2</ele>
        <time>2022-06-25T07:26:50Z</time>
      </trkpt>
      <trkpt lat="46.64299" lon="5.18856">
        <ele>186.2</ele>
        <time>2022-06-25T07:26:51Z</time>
      </trkpt>
      <trkpt lat="46.643" lon="5.18846">
        <ele>186.2</ele>
        <time>2022-06-25T07:26:52Z</time>
      </trkpt>
      <trkpt lat="46.643" lon="5.18836">
        <ele>186.4</ele>
        <time>2022-06-25T07:26:53Z</time>
      </trkpt>
      <trkpt lat="46.64301" lon="5.18826">
        <ele>186.4</ele>
        <time>2022-06-25T07:26:54Z</time>
      </trkpt>
      <trkpt lat="46.64302" lon="5.18816">
        <ele>186.4</ele>
        <time>2022-06-25T07:26:55Z</time>
      </trkpt>
      <trkpt lat="46.64302" lon="5.18806">
        <ele>186.4</ele>
        <time>2022-06-25T07:26:56Z</time>
      </trkpt>
      <trkpt lat="46.64303" lon="5.18796">
        <ele>186.4</ele>
        <time>2022-06-25T07:26:57Z</time>
      </trkpt>
      <trkpt lat="46.64304" lon="5.18786">
        <ele>186.4</ele>
        <time>2022-06-25T07:26:58Z</time>
      </trkpt>
      <trkpt lat="46.64304" lon="5.18776">
        <ele>186.4</ele>
        <time>2022-06-25T07:26:59Z</time>
      </trkpt>
      <trkpt lat="46.64305" lon="5.18766">
        <ele>186.4</ele>
        <time>2022-06-25T07:27:00Z</time>
      </trkpt>
      <trkpt lat="46.64305" lon="5.18756">
        <ele>186.4</ele>
        <time>2022-06-25T07:27:01Z</time>
      </trkpt>
      <trkpt lat="46.64306" lon="5.18746">
        <ele>186.4</ele>
        <time>2022-06-25T07:27:02Z</time>
      </trkpt>
      <trkpt lat="46.64306" lon="5.18736">
        <ele>186.4</ele>
        <time>2022-06-25T07:27:03Z</time>
      </trkpt>
      <trkpt lat="46.64307" lon="5.18726">
        <ele>186.4</ele>
        <time>2022-06-25T07:27:04Z</time>
      </trkpt>
      <trkpt lat="46.64308" lon="5.18716">
        <ele>186.4</ele>
        <time>2022-06-25T07:27:05Z</time>
      </trkpt>
      <trkpt lat="46.64308" lon="5.18706">
        <ele>186.6</ele>
        <time>2022-06-25T07:27:06Z</time>
      </trkpt>
      <trkpt lat="46.64309" lon="5.18696">
        <ele>186.6</ele>
        <time>2022-06-25T07:27:07Z</time>
      </trkpt>
      <trkpt lat="46.64309" lon="5.18686">
        <ele>186.6</ele>
        <time>2022-06-25T07:27:08Z</time>
      </trkpt>
      <trkpt lat="46.6431" lon="5.18676">
        <ele>186.6</ele>
        <time>2022-06-25T07:27:09Z</time>
      </trkpt>
      <trkpt lat="46.6431" lon="5.18666">
        <ele>186.8</ele>
        <time>2022-06-25T07:27:10Z</time>
      </trkpt>
      <trkpt lat="46.64311" lon="5.18656">
        <ele>186.8</ele>
        <time>2022-06-25T07:27:11Z</time>
      </trkpt>
      <trkpt lat="46.64312" lon="5.18646">
        <ele>186.8</ele>
        <time>2022-06-25T07:27:12Z</time>
      </trkpt>
      <trkpt lat="46.64312" lon="5.18636">
        <ele>186.8</ele>
        <time>2022-06-25T07:27:13Z</time>
      </trkpt>
      <trkpt lat="46.64313" lon="5.18626">
        <ele>186.8</ele>
        <time>2022-06-25T07:27:14Z</time>
      </trkpt>
      <trkpt lat="46.64314" lon="5.18616">
        <ele>186.8</ele>
        <time>2022-06-25T07:27:15Z</time>
      </trkpt>
      <trkpt lat="46.64314" lon="5.18606">
        <ele>187</ele>
        <time>2022-06-25T07:27:16Z</time>
      </trkpt>
      <trkpt lat="46.64315" lon="5.18596">
        <ele>187</ele>
        <time>2022-06-25T07:27:17Z</time>
      </trkpt>
      <trkpt lat="46.64315" lon="5.18586">
        <ele>187</ele>
        <time>2022-06-25T07:27:18Z</time>
      </trkpt>
      <trkpt lat="46.64315" lon="5.18576">
        <ele>187</ele>
        <time>2022-06-25T07:27:19Z</time>
      </trkpt>
      <trkpt lat="46.64316" lon="5.18565">
        <ele>187</ele>
        <time>2022-06-25T07:27:20Z</time>
      </trkpt>
      <trkpt lat="46.64316" lon="5.18554">
        <ele>187</ele>
        <time>2022-06-25T07:27:21Z</time>
      </trkpt>
      <trkpt lat="46.64317" lon="5.18544">
        <ele>187</ele>
        <time>2022-06-25T07:27:22Z</time>
      </trkpt>
      <trkpt lat="46.64317" lon="5.18533">
        <ele>187</ele>
        <time>2022-06-25T07:27:23Z</time>
      </trkpt>
      <trkpt lat="46.64318" lon="5.18522">
        <ele>187</ele>
        <time>2022-06-25T07:27:24Z</time>
      </trkpt>
      <trkpt lat="46.64319" lon="5.18511">
        <ele>187</ele>
        <time>2022-06-25T07:27:25Z</time>
      </trkpt>
      <trkpt lat="46.64319" lon="5.18499">
        <ele>187</ele>
        <time>2022-06-25T07:27:26Z</time>
      </trkpt>
      <trkpt lat="46.6432" lon="5.18488">
        <ele>187</ele>
        <time>2022-06-25T07:27:27Z</time>
      </trkpt>
      <trkpt lat="46.6432" lon="5.18476">
        <ele>187</ele>
        <time>2022-06-25T07:27:28Z</time>
      </trkpt>
      <trkpt lat="46.64321" lon="5.18465">
        <ele>187</ele>
        <time>2022-06-25T07:27:29Z</time>
      </trkpt>
      <trkpt lat="46.64321" lon="5.18453">
        <ele>187</ele>
        <time>2022-06-25T07:27:30Z</time>
      </trkpt>
      <trkpt lat="46.64321" lon="5.18442">
        <ele>186.8</ele>
        <time>2022-06-25T07:27:31Z</time>
      </trkpt>
      <trkpt lat="46.64321" lon="5.1843">
        <ele>186.6</ele>
        <time>2022-06-25T07:27:32Z</time>
      </trkpt>
      <trkpt lat="46.64321" lon="5.18419">
        <ele>186.6</ele>
        <time>2022-06-25T07:27:33Z</time>
      </trkpt>
      <trkpt lat="46.64322" lon="5.18408">
        <ele>186.4</ele>
        <time>2022-06-25T07:27:34Z</time>
      </trkpt>
      <trkpt lat="46.64322" lon="5.18398">
        <ele>186.4</ele>
        <time>2022-06-25T07:27:35Z</time>
      </trkpt>
      <trkpt lat="46.64322" lon="5.18388">
        <ele>186.4</ele>
        <time>2022-06-25T07:27:36Z</time>
      </trkpt>
      <trkpt lat="46.64322" lon="5.18378">
        <ele>186</ele>
        <time>2022-06-25T07:27:37Z</time>
      </trkpt>
      <trkpt lat="46.64322" lon="5.18369">
        <ele>186</ele>
        <time>2022-06-25T07:27:38Z</time>
      </trkpt>
      <trkpt lat="46.64323" lon="5.1836">
        <ele>185.8</ele>
        <time>2022-06-25T07:27:39Z</time>
      </trkpt>
      <trkpt lat="46.64323" lon="5.18351">
        <ele>185.8</ele>
        <time>2022-06-25T07:27:40Z</time>
      </trkpt>
      <trkpt lat="46.64323" lon="5.18344">
        <ele>185.6</ele>
        <time>2022-06-25T07:27:41Z</time>
      </trkpt>
      <trkpt lat="46.64323" lon="5.18337">
        <ele>185.6</ele>
        <time>2022-06-25T07:27:42Z</time>
      </trkpt>
      <trkpt lat="46.64323" lon="5.1833">
        <ele>185.6</ele>
        <time>2022-06-25T07:27:43Z</time>
      </trkpt>
      <trkpt lat="46.64322" lon="5.18322">
        <ele>185.6</ele>
        <time>2022-06-25T07:27:44Z</time>
      </trkpt>
      <trkpt lat="46.64322" lon="5.18314">
        <ele>185.6</ele>
        <time>2022-06-25T07:27:45Z</time>
      </trkpt>
      <trkpt lat="46.64321" lon="5.18305">
        <ele>185.6</ele>
        <time>2022-06-25T07:27:46Z</time>
      </trkpt>
      <trkpt lat="46.64321" lon="5.18297">
        <ele>185.6</ele>
        <time>2022-06-25T07:27:47Z</time>
      </trkpt>
      <trkpt lat="46.64321" lon="5.18288">
        <ele>185.4</ele>
        <time>2022-06-25T07:27:48Z</time>
      </trkpt>
      <trkpt lat="46.6432" lon="5.18279">
        <ele>185.4</ele>
        <time>2022-06-25T07:27:49Z</time>
      </trkpt>
      <trkpt lat="46.64321" lon="5.1827">
        <ele>185.4</ele>
        <time>2022-06-25T07:27:50Z</time>
      </trkpt>
      <trkpt lat="46.64321" lon="5.18261">
        <ele>185.4</ele>
        <time>2022-06-25T07:27:51Z</time>
      </trkpt>
      <trkpt lat="46.64321" lon="5.18252">
        <ele>185.4</ele>
        <time>2022-06-25T07:27:52Z</time>
      </trkpt>
      <trkpt lat="46.64322" lon="5.18242">
        <ele>185.4</ele>
        <time>2022-06-25T07:27:53Z</time>
      </trkpt>
      <trkpt lat="46.64322" lon="5.18232">
        <ele>185.4</ele>
        <time>2022-06-25T07:27:54Z</time>
      </trkpt>
      <trkpt lat="46.64323" lon="5.18223">
        <ele>185.2</ele>
        <time>2022-06-25T07:27:55Z</time>
      </trkpt>
      <trkpt lat="46.64323" lon="5.18213">
        <ele>185.2</ele>
        <time>2022-06-25T07:27:56Z</time>
      </trkpt>
      <trkpt lat="46.64323" lon="5.18204">
        <ele>185.2</ele>
        <time>2022-06-25T07:27:57Z</time>
      </trkpt>
      <trkpt lat="46.64324" lon="5.18195">
        <ele>185.2</ele>
        <time>2022-06-25T07:27:58Z</time>
      </trkpt>
      <trkpt lat="46.64325" lon="5.18186">
        <ele>185.2</ele>
        <time>2022-06-25T07:27:59Z</time>
      </trkpt>
      <trkpt lat="46.64326" lon="5.18177">
        <ele>185.2</ele>
        <time>2022-06-25T07:28:00Z</time>
      </trkpt>
      <trkpt lat="46.64327" lon="5.18168">
        <ele>185.2</ele>
        <time>2022-06-25T07:28:01Z</time>
      </trkpt>
      <trkpt lat="46.64328" lon="5.1816">
        <ele>185.4</ele>
        <time>2022-06-25T07:28:02Z</time>
      </trkpt>
      <trkpt lat="46.64329" lon="5.18152">
        <ele>185.4</ele>
        <time>2022-06-25T07:28:03Z</time>
      </trkpt>
      <trkpt lat="46.6433" lon="5.18143">
        <ele>185.4</ele>
        <time>2022-06-25T07:28:04Z</time>
      </trkpt>
      <trkpt lat="46.64331" lon="5.18135">
        <ele>185.6</ele>
        <time>2022-06-25T07:28:05Z</time>
      </trkpt>
      <trkpt lat="46.64331" lon="5.18126">
        <ele>185.6</ele>
        <time>2022-06-25T07:28:06Z</time>
      </trkpt>
      <trkpt lat="46.64332" lon="5.18118">
        <ele>185.8</ele>
        <time>2022-06-25T07:28:07Z</time>
      </trkpt>
      <trkpt lat="46.64332" lon="5.1811">
        <ele>185.8</ele>
        <time>2022-06-25T07:28:08Z</time>
      </trkpt>
      <trkpt lat="46.64332" lon="5.18102">
        <ele>186</ele>
        <time>2022-06-25T07:28:09Z</time>
      </trkpt>
      <trkpt lat="46.64333" lon="5.18094">
        <ele>186</ele>
        <time>2022-06-25T07:28:10Z</time>
      </trkpt>
      <trkpt lat="46.64333" lon="5.18085">
        <ele>186</ele>
        <time>2022-06-25T07:28:11Z</time>
      </trkpt>
      <trkpt lat="46.64333" lon="5.18077">
        <ele>186.2</ele>
        <time>2022-06-25T07:28:12Z</time>
      </trkpt>
      <trkpt lat="46.64334" lon="5.18069">
        <ele>186.2</ele>
        <time>2022-06-25T07:28:13Z</time>
      </trkpt>
      <trkpt lat="46.64334" lon="5.18061">
        <ele>186.2</ele>
        <time>2022-06-25T07:28:14Z</time>
      </trkpt>
      <trkpt lat="46.64335" lon="5.18053">
        <ele>186.2</ele>
        <time>2022-06-25T07:28:15Z</time>
      </trkpt>
      <trkpt lat="46.64335" lon="5.18045">
        <ele>186.6</ele>
        <time>2022-06-25T07:28:16Z</time>
      </trkpt>
      <trkpt lat="46.64336" lon="5.18037">
        <ele>186.6</ele>
        <time>2022-06-25T07:28:17Z</time>
      </trkpt>
      <trkpt lat="46.64336" lon="5.18029">
        <ele>186.8</ele>
        <time>2022-06-25T07:28:18Z</time>
      </trkpt>
      <trkpt lat="46.64336" lon="5.18021">
        <ele>186.8</ele>
        <time>2022-06-25T07:28:19Z</time>
      </trkpt>
      <trkpt lat="46.64336" lon="5.18013">
        <ele>186.8</ele>
        <time>2022-06-25T07:28:20Z</time>
      </trkpt>
      <trkpt lat="46.64336" lon="5.18005">
        <ele>186.8</ele>
        <time>2022-06-25T07:28:21Z</time>
      </trkpt>
      <trkpt lat="46.64336" lon="5.17998">
        <ele>186.8</ele>
        <time>2022-06-25T07:28:22Z</time>
      </trkpt>
      <trkpt lat="46.64336" lon="5.1799">
        <ele>186.8</ele>
        <time>2022-06-25T07:28:23Z</time>
      </trkpt>
      <trkpt lat="46.64335" lon="5.17983">
        <ele>186.8</ele>
        <time>2022-06-25T07:28:24Z</time>
      </trkpt>
      <trkpt lat="46.64334" lon="5.17975">
        <ele>186.8</ele>
        <time>2022-06-25T07:28:25Z</time>
      </trkpt>
      <trkpt lat="46.64334" lon="5.17966">
        <ele>186.8</ele>
        <time>2022-06-25T07:28:26Z</time>
      </trkpt>
      <trkpt lat="46.64335" lon="5.17958">
        <ele>186.8</ele>
        <time>2022-06-25T07:28:27Z</time>
      </trkpt>
      <trkpt lat="46.64335" lon="5.17949">
        <ele>186.8</ele>
        <time>2022-06-25T07:28:28Z</time>
      </trkpt>
      <trkpt lat="46.64336" lon="5.1794">
        <ele>186.8</ele>
        <time>2022-06-25T07:28:29Z</time>
      </trkpt>
      <trkpt lat="46.64336" lon="5.17931">
        <ele>186.8</ele>
        <time>2022-06-25T07:28:30Z</time>
      </trkpt>
      <trkpt lat="46.64336" lon="5.17922">
        <ele>186.8</ele>
        <time>2022-06-25T07:28:31Z</time>
      </trkpt>
      <trkpt lat="46.64335" lon="5.17912">
        <ele>186.8</ele>
        <time>2022-06-25T07:28:32Z</time>
      </trkpt>
      <trkpt lat="46.64335" lon="5.17902">
        <ele>186.6</ele>
        <time>2022-06-25T07:28:33Z</time>
      </trkpt>
      <trkpt lat="46.64335" lon="5.17892">
        <ele>186.6</ele>
        <time>2022-06-25T07:28:34Z</time>
      </trkpt>
      <trkpt lat="46.64334" lon="5.17882">
        <ele>186.6</ele>
        <time>2022-06-25T07:28:35Z</time>
      </trkpt>
      <trkpt lat="46.64333" lon="5.17872">
        <ele>186.6</ele>
        <time>2022-06-25T07:28:36Z</time>
      </trkpt>
      <trkpt lat="46.64333" lon="5.17862">
        <ele>186.6</ele>
        <time>2022-06-25T07:28:37Z</time>
      </trkpt>
      <trkpt lat="46.64332" lon="5.17852">
        <ele>186.2</ele>
        <time>2022-06-25T07:28:38Z</time>
      </trkpt>
      <trkpt lat="46.64331" lon="5.17842">
        <ele>186.2</ele>
        <time>2022-06-25T07:28:39Z</time>
      </trkpt>
      <trkpt lat="46.6433" lon="5.17831">
        <ele>186.2</ele>
        <time>2022-06-25T07:28:40Z</time>
      </trkpt>
      <trkpt lat="46.64328" lon="5.1782">
        <ele>186</ele>
        <time>2022-06-25T07:28:41Z</time>
      </trkpt>
      <trkpt lat="46.64326" lon="5.1781">
        <ele>186</ele>
        <time>2022-06-25T07:28:42Z</time>
      </trkpt>
      <trkpt lat="46.64324" lon="5.17799">
        <ele>185.6</ele>
        <time>2022-06-25T07:28:43Z</time>
      </trkpt>
      <trkpt lat="46.64322" lon="5.17788">
        <ele>185.6</ele>
        <time>2022-06-25T07:28:44Z</time>
      </trkpt>
      <trkpt lat="46.64321" lon="5.17777">
        <ele>185.4</ele>
        <time>2022-06-25T07:28:45Z</time>
      </trkpt>
      <trkpt lat="46.64319" lon="5.17765">
        <ele>185</ele>
        <time>2022-06-25T07:28:46Z</time>
      </trkpt>
      <trkpt lat="46.64318" lon="5.17754">
        <ele>184.8</ele>
        <time>2022-06-25T07:28:47Z</time>
      </trkpt>
      <trkpt lat="46.64316" lon="5.17743">
        <ele>184.8</ele>
        <time>2022-06-25T07:28:48Z</time>
      </trkpt>
      <trkpt lat="46.64315" lon="5.17732">
        <ele>184.6</ele>
        <time>2022-06-25T07:28:49Z</time>
      </trkpt>
      <trkpt lat="46.64313" lon="5.17722">
        <ele>184.6</ele>
        <time>2022-06-25T07:28:50Z</time>
      </trkpt>
      <trkpt lat="46.64312" lon="5.1771">
        <ele>184.6</ele>
        <time>2022-06-25T07:28:51Z</time>
      </trkpt>
      <trkpt lat="46.6431" lon="5.17699">
        <ele>184.4</ele>
        <time>2022-06-25T07:28:52Z</time>
      </trkpt>
      <trkpt lat="46.64309" lon="5.17688">
        <ele>184.4</ele>
        <time>2022-06-25T07:28:53Z</time>
      </trkpt>
      <trkpt lat="46.64308" lon="5.17678">
        <ele>184.4</ele>
        <time>2022-06-25T07:28:54Z</time>
      </trkpt>
      <trkpt lat="46.64306" lon="5.17667">
        <ele>184.2</ele>
        <time>2022-06-25T07:28:55Z</time>
      </trkpt>
      <trkpt lat="46.64305" lon="5.17656">
        <ele>184.2</ele>
        <time>2022-06-25T07:28:56Z</time>
      </trkpt>
      <trkpt lat="46.64304" lon="5.17646">
        <ele>184.2</ele>
        <time>2022-06-25T07:28:57Z</time>
      </trkpt>
      <trkpt lat="46.64302" lon="5.17636">
        <ele>184.2</ele>
        <time>2022-06-25T07:28:58Z</time>
      </trkpt>
      <trkpt lat="46.643" lon="5.17626">
        <ele>184.2</ele>
        <time>2022-06-25T07:28:59Z</time>
      </trkpt>
      <trkpt lat="46.64299" lon="5.17616">
        <ele>184.2</ele>
        <time>2022-06-25T07:29:00Z</time>
      </trkpt>
      <trkpt lat="46.64298" lon="5.17606">
        <ele>184.2</ele>
        <time>2022-06-25T07:29:01Z</time>
      </trkpt>
      <trkpt lat="46.64297" lon="5.17598">
        <ele>184.2</ele>
        <time>2022-06-25T07:29:02Z</time>
      </trkpt>
      <trkpt lat="46.64296" lon="5.17591">
        <ele>184.2</ele>
        <time>2022-06-25T07:29:03Z</time>
      </trkpt>
      <trkpt lat="46.64296" lon="5.17585">
        <ele>184.2</ele>
        <time>2022-06-25T07:29:04Z</time>
      </trkpt>
      <trkpt lat="46.64295" lon="5.1758">
        <ele>183.8</ele>
        <time>2022-06-25T07:29:05Z</time>
      </trkpt>
      <trkpt lat="46.64295" lon="5.17577">
        <ele>183.8</ele>
        <time>2022-06-25T07:29:06Z</time>
      </trkpt>
      <trkpt lat="46.64295" lon="5.17574">
        <ele>183.8</ele>
        <time>2022-06-25T07:29:07Z</time>
      </trkpt>
      <trkpt lat="46.64295" lon="5.17573">
        <ele>183.8</ele>
        <time>2022-06-25T07:29:08Z</time>
      </trkpt>
      <trkpt lat="46.64294" lon="5.17573">
        <ele>183.8</ele>
        <time>2022-06-25T07:29:09Z</time>
      </trkpt>
      <trkpt lat="46.64293" lon="5.17575">
        <ele>183.8</ele>
        <time>2022-06-25T07:29:12Z</time>
      </trkpt>
      <trkpt lat="46.64293" lon="5.17577">
        <ele>183.8</ele>
        <time>2022-06-25T07:29:13Z</time>
      </trkpt>
      <trkpt lat="46.64292" lon="5.17579">
        <ele>183.8</ele>
        <time>2022-06-25T07:29:14Z</time>
      </trkpt>
      <trkpt lat="46.64292" lon="5.17582">
        <ele>183.8</ele>
        <time>2022-06-25T07:29:15Z</time>
      </trkpt>
      <trkpt lat="46.64293" lon="5.17585">
        <ele>183.8</ele>
        <time>2022-06-25T07:29:16Z</time>
      </trkpt>
      <trkpt lat="46.64293" lon="5.17588">
        <ele>183.8</ele>
        <time>2022-06-25T07:29:17Z</time>
      </trkpt>
      <trkpt lat="46.64293" lon="5.17592">
        <ele>183.8</ele>
        <time>2022-06-25T07:29:18Z</time>
      </trkpt>
      <trkpt lat="46.64294" lon="5.17596">
        <ele>183.8</ele>
        <time>2022-06-25T07:29:19Z</time>
      </trkpt>
      <trkpt lat="46.64294" lon="5.176">
        <ele>183.8</ele>
        <time>2022-06-25T07:29:20Z</time>
      </trkpt>
      <trkpt lat="46.64295" lon="5.17604">
        <ele>183.8</ele>
        <time>2022-06-25T07:29:21Z</time>
      </trkpt>
      <trkpt lat="46.64295" lon="5.17608">
        <ele>183.8</ele>
        <time>2022-06-25T07:29:22Z</time>
      </trkpt>
      <trkpt lat="46.64294" lon="5.17612">
        <ele>183.8</ele>
        <time>2022-06-25T07:29:23Z</time>
      </trkpt>
      <trkpt lat="46.64293" lon="5.17615">
        <ele>183.8</ele>
        <time>2022-06-25T07:29:24Z</time>
      </trkpt>
      <trkpt lat="46.64292" lon="5.17617">
        <ele>183.6</ele>
        <time>2022-06-25T07:29:25Z</time>
      </trkpt>
      <trkpt lat="46.64292" lon="5.17619">
        <ele>183.6</ele>
        <time>2022-06-25T07:29:26Z</time>
      </trkpt>
      <trkpt lat="46.64292" lon="5.17619">
        <ele>183.6</ele>
        <time>2022-06-25T07:29:28Z</time>
      </trkpt>
      <trkpt lat="46.64292" lon="5.17619">
        <ele>183.6</ele>
        <time>2022-06-25T07:29:30Z</time>
      </trkpt>
      <trkpt lat="46.64292" lon="5.17619">
        <ele>183.6</ele>
        <time>2022-06-25T07:29:32Z</time>
      </trkpt>
      <trkpt lat="46.64292" lon="5.17618">
        <ele>183.6</ele>
        <time>2022-06-25T07:29:33Z</time>
      </trkpt>
      <trkpt lat="46.64293" lon="5.17618">
        <ele>183.6</ele>
        <time>2022-06-25T07:29:35Z</time>
      </trkpt>
      <trkpt lat="46.64293" lon="5.17618">
        <ele>183.6</ele>
        <time>2022-06-25T07:29:36Z</time>
      </trkpt>
      <trkpt lat="46.64293" lon="5.17618">
        <ele>183.6</ele>
        <time>2022-06-25T07:29:38Z</time>
      </trkpt>
      <trkpt lat="46.64293" lon="5.17618">
        <ele>183.6</ele>
        <time>2022-06-25T07:29:41Z</time>
      </trkpt>
      <trkpt lat="46.64293" lon="5.17618">
        <ele>183.6</ele>
        <time>2022-06-25T07:29:43Z</time>
      </trkpt>
      <trkpt lat="46.64293" lon="5.17618">
        <ele>183.6</ele>
        <time>2022-06-25T07:29:45Z</time>
      </trkpt>
      <trkpt lat="46.64294" lon="5.17618">
        <ele>183.6</ele>
        <time>2022-06-25T07:29:46Z</time>
      </trkpt>
      <trkpt lat="46.64294" lon="5.17618">
        <ele>183.6</ele>
        <time>2022-06-25T07:32:26Z</time>
      </trkpt>
      <trkpt lat="46.64294" lon="5.17618">
        <ele>183.6</ele>
        <time>2022-06-25T07:32:28Z</time>
      </trkpt>
      <trkpt lat="46.64294" lon="5.17618">
        <ele>183.6</ele>
        <time>2022-06-25T07:32:30Z</time>
      </trkpt>
      <trkpt lat="46.64294" lon="5.17617">
        <ele>183.6</ele>
        <time>2022-06-25T07:32:32Z</time>
      </trkpt>
      <trkpt lat="46.64294" lon="5.17617">
        <ele>183.6</ele>
        <time>2022-06-25T07:32:34Z</time>
      </trkpt>
      <trkpt lat="46.64295" lon="5.17617">
        <ele>183.6</ele>
        <time>2022-06-25T07:32:35Z</time>
      </trkpt>
      <trkpt lat="46.64295" lon="5.17617">
        <ele>183.8</ele>
        <time>2022-06-25T07:32:46Z</time>
      </trkpt>
      <trkpt lat="46.64295" lon="5.17617">
        <ele>183.8</ele>
        <time>2022-06-25T07:32:48Z</time>
      </trkpt>
      <trkpt lat="46.64295" lon="5.17617">
        <ele>183.8</ele>
        <time>2022-06-25T07:32:50Z</time>
      </trkpt>
      <trkpt lat="46.64295" lon="5.17617">
        <ele>183.8</ele>
        <time>2022-06-25T07:32:52Z</time>
      </trkpt>
      <trkpt lat="46.64296" lon="5.17617">
        <ele>183.8</ele>
        <time>2022-06-25T07:32:54Z</time>
      </trkpt>
      <trkpt lat="46.64296" lon="5.17617">
        <ele>183.8</ele>
        <time>2022-06-25T07:32:55Z</time>
      </trkpt>
      <trkpt lat="46.64296" lon="5.17617">
        <ele>183.8</ele>
        <time>2022-06-25T07:32:57Z</time>
      </trkpt>
      <trkpt lat="46.64296" lon="5.17617">
        <ele>184</ele>
        <time>2022-06-25T07:32:59Z</time>
      </trkpt>
      <trkpt lat="46.64296" lon="5.17616">
        <ele>184</ele>
        <time>2022-06-25T07:33:01Z</time>
      </trkpt>
      <trkpt lat="46.64296" lon="5.17616">
        <ele>184</ele>
        <time>2022-06-25T07:33:02Z</time>
      </trkpt>
      <trkpt lat="46.64297" lon="5.17616">
        <ele>184</ele>
        <time>2022-06-25T07:33:05Z</time>
      </trkpt>
      <trkpt lat="46.64297" lon="5.17616">
        <ele>184</ele>
        <time>2022-06-25T07:33:06Z</time>
      </trkpt>
      <trkpt lat="46.64298" lon="5.17613">
        <ele>184</ele>
        <time>2022-06-25T07:33:08Z</time>
      </trkpt>
      <trkpt lat="46.64298" lon="5.17609">
        <ele>184</ele>
        <time>2022-06-25T07:33:09Z</time>
      </trkpt>
      <trkpt lat="46.64298" lon="5.17605">
        <ele>184</ele>
        <time>2022-06-25T07:33:10Z</time>
      </trkpt>
      <trkpt lat="46.64297" lon="5.176">
        <ele>184</ele>
        <time>2022-06-25T07:33:11Z</time>
      </trkpt>
      <trkpt lat="46.64296" lon="5.17595">
        <ele>184</ele>
        <time>2022-06-25T07:33:12Z</time>
      </trkpt>
      <trkpt lat="46.64295" lon="5.17589">
        <ele>184</ele>
        <time>2022-06-25T07:33:13Z</time>
      </trkpt>
      <trkpt lat="46.64294" lon="5.17584">
        <ele>184</ele>
        <time>2022-06-25T07:33:14Z</time>
      </trkpt>
      <trkpt lat="46.64294" lon="5.17577">
        <ele>184</ele>
        <time>2022-06-25T07:33:15Z</time>
      </trkpt>
      <trkpt lat="46.64293" lon="5.17571">
        <ele>184</ele>
        <time>2022-06-25T07:33:16Z</time>
      </trkpt>
      <trkpt lat="46.64293" lon="5.17564">
        <ele>184</ele>
        <time>2022-06-25T07:33:17Z</time>
      </trkpt>
      <trkpt lat="46.64293" lon="5.17558">
        <ele>184.4</ele>
        <time>2022-06-25T07:33:18Z</time>
      </trkpt>
      <trkpt lat="46.64293" lon="5.17551">
        <ele>184.4</ele>
        <time>2022-06-25T07:33:19Z</time>
      </trkpt>
      <trkpt lat="46.64294" lon="5.17544">
        <ele>184.4</ele>
        <time>2022-06-25T07:33:20Z</time>
      </trkpt>
      <trkpt lat="46.64295" lon="5.17537">
        <ele>184.6</ele>
        <time>2022-06-25T07:33:21Z</time>
      </trkpt>
      <trkpt lat="46.64296" lon="5.1753">
        <ele>184.6</ele>
        <time>2022-06-25T07:33:22Z</time>
      </trkpt>
      <trkpt lat="46.64298" lon="5.17522">
        <ele>184.6</ele>
        <time>2022-06-25T07:33:23Z</time>
      </trkpt>
      <trkpt lat="46.64299" lon="5.17515">
        <ele>184.6</ele>
        <time>2022-06-25T07:33:24Z</time>
      </trkpt>
      <trkpt lat="46.643" lon="5.17507">
        <ele>184.6</ele>
        <time>2022-06-25T07:33:25Z</time>
      </trkpt>
      <trkpt lat="46.64301" lon="5.175">
        <ele>184.6</ele>
        <time>2022-06-25T07:33:26Z</time>
      </trkpt>
      <trkpt lat="46.64302" lon="5.17492">
        <ele>184.6</ele>
        <time>2022-06-25T07:33:27Z</time>
      </trkpt>
      <trkpt lat="46.64304" lon="5.17484">
        <ele>184.6</ele>
        <time>2022-06-25T07:33:28Z</time>
      </trkpt>
      <trkpt lat="46.64305" lon="5.17475">
        <ele>184.6</ele>
        <time>2022-06-25T07:33:29Z</time>
      </trkpt>
      <trkpt lat="46.64306" lon="5.17467">
        <ele>184.6</ele>
        <time>2022-06-25T07:33:30Z</time>
      </trkpt>
      <trkpt lat="46.64308" lon="5.17459">
        <ele>184.6</ele>
        <time>2022-06-25T07:33:31Z</time>
      </trkpt>
      <trkpt lat="46.64309" lon="5.1745">
        <ele>184.6</ele>
        <time>2022-06-25T07:33:32Z</time>
      </trkpt>
      <trkpt lat="46.64311" lon="5.17441">
        <ele>184.6</ele>
        <time>2022-06-25T07:33:33Z</time>
      </trkpt>
      <trkpt lat="46.64312" lon="5.17433">
        <ele>184.6</ele>
        <time>2022-06-25T07:33:34Z</time>
      </trkpt>
      <trkpt lat="46.64313" lon="5.17424">
        <ele>184.6</ele>
        <time>2022-06-25T07:33:35Z</time>
      </trkpt>
      <trkpt lat="46.64315" lon="5.17415">
        <ele>184.6</ele>
        <time>2022-06-25T07:33:36Z</time>
      </trkpt>
      <trkpt lat="46.64316" lon="5.17406">
        <ele>184.6</ele>
        <time>2022-06-25T07:33:37Z</time>
      </trkpt>
      <trkpt lat="46.64317" lon="5.17397">
        <ele>184.6</ele>
        <time>2022-06-25T07:33:38Z</time>
      </trkpt>
      <trkpt lat="46.64319" lon="5.17388">
        <ele>184.6</ele>
        <time>2022-06-25T07:33:39Z</time>
      </trkpt>
      <trkpt lat="46.64321" lon="5.1738">
        <ele>184.6</ele>
        <time>2022-06-25T07:33:40Z</time>
      </trkpt>
      <trkpt lat="46.64322" lon="5.17371">
        <ele>184.6</ele>
        <time>2022-06-25T07:33:41Z</time>
      </trkpt>
      <trkpt lat="46.64324" lon="5.17363">
        <ele>184.6</ele>
        <time>2022-06-25T07:33:42Z</time>
      </trkpt>
      <trkpt lat="46.64326" lon="5.17354">
        <ele>184.6</ele>
        <time>2022-06-25T07:33:43Z</time>
      </trkpt>
      <trkpt lat="46.64328" lon="5.17346">
        <ele>184.6</ele>
        <time>2022-06-25T07:33:44Z</time>
      </trkpt>
      <trkpt lat="46.64329" lon="5.17337">
        <ele>184.6</ele>
        <time>2022-06-25T07:33:45Z</time>
      </trkpt>
      <trkpt lat="46.64331" lon="5.17329">
        <ele>184.6</ele>
        <time>2022-06-25T07:33:46Z</time>
      </trkpt>
      <trkpt lat="46.64333" lon="5.17321">
        <ele>184.6</ele>
        <time>2022-06-25T07:33:47Z</time>
      </trkpt>
      <trkpt lat="46.64335" lon="5.17313">
        <ele>184.6</ele>
        <time>2022-06-25T07:33:48Z</time>
      </trkpt>
      <trkpt lat="46.64337" lon="5.17305">
        <ele>184.6</ele>
        <time>2022-06-25T07:33:49Z</time>
      </trkpt>
      <trkpt lat="46.64339" lon="5.17296">
        <ele>184.6</ele>
        <time>2022-06-25T07:33:50Z</time>
      </trkpt>
      <trkpt lat="46.64341" lon="5.17287">
        <ele>184.6</ele>
        <time>2022-06-25T07:33:51Z</time>
      </trkpt>
      <trkpt lat="46.64343" lon="5.17279">
        <ele>184.6</ele>
        <time>2022-06-25T07:33:52Z</time>
      </trkpt>
      <trkpt lat="46.64345" lon="5.1727">
        <ele>184.6</ele>
        <time>2022-06-25T07:33:53Z</time>
      </trkpt>
      <trkpt lat="46.64347" lon="5.17262">
        <ele>184.6</ele>
        <time>2022-06-25T07:33:54Z</time>
      </trkpt>
      <trkpt lat="46.64349" lon="5.17253">
        <ele>184.6</ele>
        <time>2022-06-25T07:33:55Z</time>
      </trkpt>
      <trkpt lat="46.64351" lon="5.17244">
        <ele>184.6</ele>
        <time>2022-06-25T07:33:56Z</time>
      </trkpt>
      <trkpt lat="46.64352" lon="5.17236">
        <ele>184.6</ele>
        <time>2022-06-25T07:33:57Z</time>
      </trkpt>
      <trkpt lat="46.64354" lon="5.17227">
        <ele>184.6</ele>
        <time>2022-06-25T07:33:58Z</time>
      </trkpt>
      <trkpt lat="46.64357" lon="5.17218">
        <ele>184.6</ele>
        <time>2022-06-25T07:33:59Z</time>
      </trkpt>
      <trkpt lat="46.64358" lon="5.17209">
        <ele>184.6</ele>
        <time>2022-06-25T07:34:00Z</time>
      </trkpt>
      <trkpt lat="46.6436" lon="5.172">
        <ele>184.6</ele>
        <time>2022-06-25T07:34:01Z</time>
      </trkpt>
      <trkpt lat="46.64362" lon="5.17192">
        <ele>184.6</ele>
        <time>2022-06-25T07:34:02Z</time>
      </trkpt>
      <trkpt lat="46.64364" lon="5.17183">
        <ele>184.6</ele>
        <time>2022-06-25T07:34:03Z</time>
      </trkpt>
      <trkpt lat="46.64366" lon="5.17174">
        <ele>184.6</ele>
        <time>2022-06-25T07:34:04Z</time>
      </trkpt>
      <trkpt lat="46.64368" lon="5.17165">
        <ele>184.6</ele>
        <time>2022-06-25T07:34:05Z</time>
      </trkpt>
      <trkpt lat="46.6437" lon="5.17157">
        <ele>184.6</ele>
        <time>2022-06-25T07:34:06Z</time>
      </trkpt>
      <trkpt lat="46.64372" lon="5.17148">
        <ele>184.6</ele>
        <time>2022-06-25T07:34:07Z</time>
      </trkpt>
      <trkpt lat="46.64374" lon="5.1714">
        <ele>184.6</ele>
        <time>2022-06-25T07:34:08Z</time>
      </trkpt>
      <trkpt lat="46.64376" lon="5.17131">
        <ele>184.6</ele>
        <time>2022-06-25T07:34:09Z</time>
      </trkpt>
      <trkpt lat="46.64378" lon="5.17122">
        <ele>184.6</ele>
        <time>2022-06-25T07:34:10Z</time>
      </trkpt>
      <trkpt lat="46.6438" lon="5.17113">
        <ele>184.6</ele>
        <time>2022-06-25T07:34:11Z</time>
      </trkpt>
      <trkpt lat="46.64382" lon="5.17104">
        <ele>184.6</ele>
        <time>2022-06-25T07:34:12Z</time>
      </trkpt>
      <trkpt lat="46.64384" lon="5.17095">
        <ele>184.6</ele>
        <time>2022-06-25T07:34:13Z</time>
      </trkpt>
      <trkpt lat="46.64386" lon="5.17086">
        <ele>184.6</ele>
        <time>2022-06-25T07:34:14Z</time>
      </trkpt>
      <trkpt lat="46.64388" lon="5.17076">
        <ele>184.6</ele>
        <time>2022-06-25T07:34:15Z</time>
      </trkpt>
      <trkpt lat="46.6439" lon="5.17067">
        <ele>184.6</ele>
        <time>2022-06-25T07:34:16Z</time>
      </trkpt>
      <trkpt lat="46.64393" lon="5.17058">
        <ele>184.6</ele>
        <time>2022-06-25T07:34:17Z</time>
      </trkpt>
      <trkpt lat="46.64396" lon="5.1705">
        <ele>184.8</ele>
        <time>2022-06-25T07:34:18Z</time>
      </trkpt>
      <trkpt lat="46.64399" lon="5.17041">
        <ele>184.8</ele>
        <time>2022-06-25T07:34:19Z</time>
      </trkpt>
      <trkpt lat="46.64403" lon="5.17033">
        <ele>184.8</ele>
        <time>2022-06-25T07:34:20Z</time>
      </trkpt>
      <trkpt lat="46.64406" lon="5.17024">
        <ele>184.8</ele>
        <time>2022-06-25T07:34:21Z</time>
      </trkpt>
      <trkpt lat="46.64409" lon="5.17015">
        <ele>184.8</ele>
        <time>2022-06-25T07:34:22Z</time>
      </trkpt>
      <trkpt lat="46.64413" lon="5.17007">
        <ele>185</ele>
        <time>2022-06-25T07:34:23Z</time>
      </trkpt>
      <trkpt lat="46.64416" lon="5.16998">
        <ele>185</ele>
        <time>2022-06-25T07:34:24Z</time>
      </trkpt>
      <trkpt lat="46.64419" lon="5.1699">
        <ele>185</ele>
        <time>2022-06-25T07:34:25Z</time>
      </trkpt>
      <trkpt lat="46.64422" lon="5.16981">
        <ele>185</ele>
        <time>2022-06-25T07:34:26Z</time>
      </trkpt>
      <trkpt lat="46.64425" lon="5.16973">
        <ele>185.2</ele>
        <time>2022-06-25T07:34:27Z</time>
      </trkpt>
      <trkpt lat="46.64428" lon="5.16964">
        <ele>185.2</ele>
        <time>2022-06-25T07:34:28Z</time>
      </trkpt>
      <trkpt lat="46.64431" lon="5.16955">
        <ele>185.2</ele>
        <time>2022-06-25T07:34:29Z</time>
      </trkpt>
      <trkpt lat="46.64434" lon="5.16947">
        <ele>185.2</ele>
        <time>2022-06-25T07:34:30Z</time>
      </trkpt>
      <trkpt lat="46.64438" lon="5.16938">
        <ele>185.2</ele>
        <time>2022-06-25T07:34:31Z</time>
      </trkpt>
      <trkpt lat="46.64441" lon="5.1693">
        <ele>185.2</ele>
        <time>2022-06-25T07:34:32Z</time>
      </trkpt>
      <trkpt lat="46.64444" lon="5.16921">
        <ele>185.4</ele>
        <time>2022-06-25T07:34:33Z</time>
      </trkpt>
      <trkpt lat="46.64447" lon="5.16912">
        <ele>185.4</ele>
        <time>2022-06-25T07:34:34Z</time>
      </trkpt>
      <trkpt lat="46.64451" lon="5.16904">
        <ele>185.4</ele>
        <time>2022-06-25T07:34:35Z</time>
      </trkpt>
      <trkpt lat="46.64454" lon="5.16895">
        <ele>185.4</ele>
        <time>2022-06-25T07:34:36Z</time>
      </trkpt>
      <trkpt lat="46.64457" lon="5.16887">
        <ele>185.4</ele>
        <time>2022-06-25T07:34:37Z</time>
      </trkpt>
      <trkpt lat="46.64461" lon="5.16879">
        <ele>185.4</ele>
        <time>2022-06-25T07:34:38Z</time>
      </trkpt>
      <trkpt lat="46.64464" lon="5.1687">
        <ele>185.4</ele>
        <time>2022-06-25T07:34:39Z</time>
      </trkpt>
      <trkpt lat="46.64468" lon="5.16862">
        <ele>185.4</ele>
        <time>2022-06-25T07:34:40Z</time>
      </trkpt>
      <trkpt lat="46.64471" lon="5.16854">
        <ele>185.4</ele>
        <time>2022-06-25T07:34:41Z</time>
      </trkpt>
      <trkpt lat="46.64475" lon="5.16845">
        <ele>185.4</ele>
        <time>2022-06-25T07:34:42Z</time>
      </trkpt>
      <trkpt lat="46.64478" lon="5.16837">
        <ele>185.8</ele>
        <time>2022-06-25T07:34:43Z</time>
      </trkpt>
      <trkpt lat="46.64481" lon="5.16828">
        <ele>185.8</ele>
        <time>2022-06-25T07:34:44Z</time>
      </trkpt>
      <trkpt lat="46.64484" lon="5.1682">
        <ele>185.8</ele>
        <time>2022-06-25T07:34:45Z</time>
      </trkpt>
      <trkpt lat="46.64488" lon="5.16811">
        <ele>185.8</ele>
        <time>2022-06-25T07:34:46Z</time>
      </trkpt>
      <trkpt lat="46.64491" lon="5.16802">
        <ele>185.8</ele>
        <time>2022-06-25T07:34:47Z</time>
      </trkpt>
      <trkpt lat="46.64494" lon="5.16794">
        <ele>185.8</ele>
        <time>2022-06-25T07:34:48Z</time>
      </trkpt>
      <trkpt lat="46.64497" lon="5.16785">
        <ele>185.8</ele>
        <time>2022-06-25T07:34:49Z</time>
      </trkpt>
      <trkpt lat="46.645" lon="5.16776">
        <ele>185.8</ele>
        <time>2022-06-25T07:34:50Z</time>
      </trkpt>
      <trkpt lat="46.64504" lon="5.16767">
        <ele>185.8</ele>
        <time>2022-06-25T07:34:51Z</time>
      </trkpt>
      <trkpt lat="46.64507" lon="5.16759">
        <ele>185.8</ele>
        <time>2022-06-25T07:34:52Z</time>
      </trkpt>
      <trkpt lat="46.64511" lon="5.1675">
        <ele>185.8</ele>
        <time>2022-06-25T07:34:53Z</time>
      </trkpt>
      <trkpt lat="46.64512" lon="5.16746">
        <ele>185.8</ele>
        <time>2022-06-25T07:34:54Z</time>
      </trkpt>
      <trkpt lat="46.64514" lon="5.16741">
        <ele>185.4</ele>
        <time>2022-06-25T07:34:55Z</time>
      </trkpt>
      <trkpt lat="46.64517" lon="5.16733">
        <ele>185.4</ele>
        <time>2022-06-25T07:34:56Z</time>
      </trkpt>
      <trkpt lat="46.6452" lon="5.16724">
        <ele>185.4</ele>
        <time>2022-06-25T07:34:57Z</time>
      </trkpt>
      <trkpt lat="46.64523" lon="5.16717">
        <ele>185.4</ele>
        <time>2022-06-25T07:34:58Z</time>
      </trkpt>
      <trkpt lat="46.64526" lon="5.16709">
        <ele>185.4</ele>
        <time>2022-06-25T07:34:59Z</time>
      </trkpt>
      <trkpt lat="46.64529" lon="5.16701">
        <ele>185.4</ele>
        <time>2022-06-25T07:35:00Z</time>
      </trkpt>
      <trkpt lat="46.64533" lon="5.16694">
        <ele>185.2</ele>
        <time>2022-06-25T07:35:01Z</time>
      </trkpt>
      <trkpt lat="46.64537" lon="5.16688">
        <ele>185.2</ele>
        <time>2022-06-25T07:35:02Z</time>
      </trkpt>
      <trkpt lat="46.64542" lon="5.16683">
        <ele>185.2</ele>
        <time>2022-06-25T07:35:03Z</time>
      </trkpt>
      <trkpt lat="46.64546" lon="5.16679">
        <ele>185.2</ele>
        <time>2022-06-25T07:35:04Z</time>
      </trkpt>
      <trkpt lat="46.6455" lon="5.16677">
        <ele>185.2</ele>
        <time>2022-06-25T07:35:05Z</time>
      </trkpt>
      <trkpt lat="46.64555" lon="5.16676">
        <ele>185.2</ele>
        <time>2022-06-25T07:35:06Z</time>
      </trkpt>
      <trkpt lat="46.64558" lon="5.16677">
        <ele>185</ele>
        <time>2022-06-25T07:35:07Z</time>
      </trkpt>
      <trkpt lat="46.64562" lon="5.16677">
        <ele>185</ele>
        <time>2022-06-25T07:35:08Z</time>
      </trkpt>
      <trkpt lat="46.64565" lon="5.16676">
        <ele>185</ele>
        <time>2022-06-25T07:35:09Z</time>
      </trkpt>
      <trkpt lat="46.64566" lon="5.16675">
        <ele>185</ele>
        <time>2022-06-25T07:35:10Z</time>
      </trkpt>
      <trkpt lat="46.64566" lon="5.16673">
        <ele>185</ele>
        <time>2022-06-25T07:35:11Z</time>
      </trkpt>
      <trkpt lat="46.64564" lon="5.16671">
        <ele>185</ele>
        <time>2022-06-25T07:35:12Z</time>
      </trkpt>
      <trkpt lat="46.64562" lon="5.1667">
        <ele>185</ele>
        <time>2022-06-25T07:35:13Z</time>
      </trkpt>
      <trkpt lat="46.6456" lon="5.1667">
        <ele>185</ele>
        <time>2022-06-25T07:35:14Z</time>
      </trkpt>
      <trkpt lat="46.64557" lon="5.1667">
        <ele>185</ele>
        <time>2022-06-25T07:35:15Z</time>
      </trkpt>
      <trkpt lat="46.6455" lon="5.16671">
        <ele>185</ele>
        <time>2022-06-25T07:35:16Z</time>
      </trkpt>
      <trkpt lat="46.64547" lon="5.16671">
        <ele>185</ele>
        <time>2022-06-25T07:35:17Z</time>
      </trkpt>
      <trkpt lat="46.64544" lon="5.16669">
        <ele>185</ele>
        <time>2022-06-25T07:35:18Z</time>
      </trkpt>
      <trkpt lat="46.64541" lon="5.16666">
        <ele>185</ele>
        <time>2022-06-25T07:35:19Z</time>
      </trkpt>
      <trkpt lat="46.64538" lon="5.16662">
        <ele>185</ele>
        <time>2022-06-25T07:35:20Z</time>
      </trkpt>
      <trkpt lat="46.64537" lon="5.16656">
        <ele>185</ele>
        <time>2022-06-25T07:35:21Z</time>
      </trkpt>
      <trkpt lat="46.64537" lon="5.1665">
        <ele>185</ele>
        <time>2022-06-25T07:35:22Z</time>
      </trkpt>
      <trkpt lat="46.64538" lon="5.16644">
        <ele>185</ele>
        <time>2022-06-25T07:35:23Z</time>
      </trkpt>
      <trkpt lat="46.64539" lon="5.16637">
        <ele>185</ele>
        <time>2022-06-25T07:35:24Z</time>
      </trkpt>
      <trkpt lat="46.6454" lon="5.1663">
        <ele>185</ele>
        <time>2022-06-25T07:35:25Z</time>
      </trkpt>
      <trkpt lat="46.64541" lon="5.16623">
        <ele>185</ele>
        <time>2022-06-25T07:35:26Z</time>
      </trkpt>
      <trkpt lat="46.64542" lon="5.16615">
        <ele>185</ele>
        <time>2022-06-25T07:35:27Z</time>
      </trkpt>
      <trkpt lat="46.64543" lon="5.16607">
        <ele>185</ele>
        <time>2022-06-25T07:35:28Z</time>
      </trkpt>
      <trkpt lat="46.64544" lon="5.166">
        <ele>185</ele>
        <time>2022-06-25T07:35:29Z</time>
      </trkpt>
      <trkpt lat="46.64544" lon="5.16592">
        <ele>185</ele>
        <time>2022-06-25T07:35:30Z</time>
      </trkpt>
      <trkpt lat="46.64545" lon="5.16583">
        <ele>185</ele>
        <time>2022-06-25T07:35:31Z</time>
      </trkpt>
      <trkpt lat="46.64545" lon="5.16575">
        <ele>185</ele>
        <time>2022-06-25T07:35:32Z</time>
      </trkpt>
      <trkpt lat="46.64546" lon="5.16567">
        <ele>185</ele>
        <time>2022-06-25T07:35:33Z</time>
      </trkpt>
      <trkpt lat="46.64547" lon="5.16559">
        <ele>185.2</ele>
        <time>2022-06-25T07:35:34Z</time>
      </trkpt>
      <trkpt lat="46.64547" lon="5.16551">
        <ele>185.2</ele>
        <time>2022-06-25T07:35:35Z</time>
      </trkpt>
      <trkpt lat="46.64548" lon="5.16543">
        <ele>185.2</ele>
        <time>2022-06-25T07:35:36Z</time>
      </trkpt>
      <trkpt lat="46.64549" lon="5.16534">
        <ele>185.2</ele>
        <time>2022-06-25T07:35:37Z</time>
      </trkpt>
      <trkpt lat="46.6455" lon="5.16525">
        <ele>185.2</ele>
        <time>2022-06-25T07:35:38Z</time>
      </trkpt>
      <trkpt lat="46.64551" lon="5.16516">
        <ele>185.2</ele>
        <time>2022-06-25T07:35:39Z</time>
      </trkpt>
      <trkpt lat="46.64552" lon="5.16507">
        <ele>185.2</ele>
        <time>2022-06-25T07:35:40Z</time>
      </trkpt>
      <trkpt lat="46.64553" lon="5.16497">
        <ele>185.2</ele>
        <time>2022-06-25T07:35:41Z</time>
      </trkpt>
      <trkpt lat="46.64554" lon="5.16488">
        <ele>185.2</ele>
        <time>2022-06-25T07:35:42Z</time>
      </trkpt>
      <trkpt lat="46.64555" lon="5.16478">
        <ele>185.2</ele>
        <time>2022-06-25T07:35:43Z</time>
      </trkpt>
      <trkpt lat="46.64556" lon="5.16468">
        <ele>185</ele>
        <time>2022-06-25T07:35:44Z</time>
      </trkpt>
      <trkpt lat="46.64557" lon="5.16459">
        <ele>185</ele>
        <time>2022-06-25T07:35:45Z</time>
      </trkpt>
      <trkpt lat="46.64557" lon="5.16449">
        <ele>185</ele>
        <time>2022-06-25T07:35:46Z</time>
      </trkpt>
      <trkpt lat="46.64558" lon="5.1644">
        <ele>185</ele>
        <time>2022-06-25T07:35:47Z</time>
      </trkpt>
      <trkpt lat="46.64559" lon="5.1643">
        <ele>185</ele>
        <time>2022-06-25T07:35:48Z</time>
      </trkpt>
      <trkpt lat="46.6456" lon="5.1642">
        <ele>185</ele>
        <time>2022-06-25T07:35:49Z</time>
      </trkpt>
      <trkpt lat="46.6456" lon="5.1641">
        <ele>185</ele>
        <time>2022-06-25T07:35:50Z</time>
      </trkpt>
      <trkpt lat="46.64561" lon="5.164">
        <ele>185</ele>
        <time>2022-06-25T07:35:51Z</time>
      </trkpt>
      <trkpt lat="46.64562" lon="5.16391">
        <ele>185</ele>
        <time>2022-06-25T07:35:52Z</time>
      </trkpt>
      <trkpt lat="46.64563" lon="5.16381">
        <ele>185</ele>
        <time>2022-06-25T07:35:53Z</time>
      </trkpt>
      <trkpt lat="46.64564" lon="5.16372">
        <ele>185</ele>
        <time>2022-06-25T07:35:54Z</time>
      </trkpt>
      <trkpt lat="46.64564" lon="5.16367">
        <ele>184.8</ele>
        <time>2022-06-25T07:35:55Z</time>
      </trkpt>
      <trkpt lat="46.64565" lon="5.16362">
        <ele>184.8</ele>
        <time>2022-06-25T07:35:56Z</time>
      </trkpt>
      <trkpt lat="46.64566" lon="5.16352">
        <ele>184.8</ele>
        <time>2022-06-25T07:35:57Z</time>
      </trkpt>
      <trkpt lat="46.64566" lon="5.16342">
        <ele>184.8</ele>
        <time>2022-06-25T07:35:58Z</time>
      </trkpt>
      <trkpt lat="46.64567" lon="5.16333">
        <ele>184.8</ele>
        <time>2022-06-25T07:35:59Z</time>
      </trkpt>
      <trkpt lat="46.64568" lon="5.16323">
        <ele>184.8</ele>
        <time>2022-06-25T07:36:00Z</time>
      </trkpt>
      <trkpt lat="46.64569" lon="5.16313">
        <ele>184.8</ele>
        <time>2022-06-25T07:36:01Z</time>
      </trkpt>
      <trkpt lat="46.6457" lon="5.16304">
        <ele>184.8</ele>
        <time>2022-06-25T07:36:02Z</time>
      </trkpt>
      <trkpt lat="46.6457" lon="5.16294">
        <ele>184.6</ele>
        <time>2022-06-25T07:36:03Z</time>
      </trkpt>
      <trkpt lat="46.64571" lon="5.16285">
        <ele>184.6</ele>
        <time>2022-06-25T07:36:04Z</time>
      </trkpt>
      <trkpt lat="46.64572" lon="5.16275">
        <ele>184.6</ele>
        <time>2022-06-25T07:36:05Z</time>
      </trkpt>
      <trkpt lat="46.64573" lon="5.16266">
        <ele>184.6</ele>
        <time>2022-06-25T07:36:06Z</time>
      </trkpt>
      <trkpt lat="46.64574" lon="5.16256">
        <ele>184.6</ele>
        <time>2022-06-25T07:36:07Z</time>
      </trkpt>
      <trkpt lat="46.64575" lon="5.16247">
        <ele>184.6</ele>
        <time>2022-06-25T07:36:08Z</time>
      </trkpt>
      <trkpt lat="46.64576" lon="5.16238">
        <ele>184.6</ele>
        <time>2022-06-25T07:36:09Z</time>
      </trkpt>
      <trkpt lat="46.64578" lon="5.16229">
        <ele>184.6</ele>
        <time>2022-06-25T07:36:10Z</time>
      </trkpt>
      <trkpt lat="46.6458" lon="5.1622">
        <ele>184.6</ele>
        <time>2022-06-25T07:36:11Z</time>
      </trkpt>
      <trkpt lat="46.64582" lon="5.16212">
        <ele>184.6</ele>
        <time>2022-06-25T07:36:12Z</time>
      </trkpt>
      <trkpt lat="46.64584" lon="5.16203">
        <ele>184.6</ele>
        <time>2022-06-25T07:36:13Z</time>
      </trkpt>
      <trkpt lat="46.64587" lon="5.16195">
        <ele>184.6</ele>
        <time>2022-06-25T07:36:14Z</time>
      </trkpt>
      <trkpt lat="46.64589" lon="5.16186">
        <ele>184.6</ele>
        <time>2022-06-25T07:36:15Z</time>
      </trkpt>
      <trkpt lat="46.64592" lon="5.16178">
        <ele>184.6</ele>
        <time>2022-06-25T07:36:16Z</time>
      </trkpt>
      <trkpt lat="46.64594" lon="5.1617">
        <ele>184.6</ele>
        <time>2022-06-25T07:36:17Z</time>
      </trkpt>
      <trkpt lat="46.64597" lon="5.16161">
        <ele>184.6</ele>
        <time>2022-06-25T07:36:18Z</time>
      </trkpt>
      <trkpt lat="46.64599" lon="5.16153">
        <ele>184.8</ele>
        <time>2022-06-25T07:36:19Z</time>
      </trkpt>
      <trkpt lat="46.64602" lon="5.16145">
        <ele>184.8</ele>
        <time>2022-06-25T07:36:20Z</time>
      </trkpt>
      <trkpt lat="46.64604" lon="5.16137">
        <ele>184.8</ele>
        <time>2022-06-25T07:36:21Z</time>
      </trkpt>
      <trkpt lat="46.64607" lon="5.16129">
        <ele>184.8</ele>
        <time>2022-06-25T07:36:22Z</time>
      </trkpt>
      <trkpt lat="46.64609" lon="5.1612">
        <ele>184.8</ele>
        <time>2022-06-25T07:36:23Z</time>
      </trkpt>
      <trkpt lat="46.64612" lon="5.16112">
        <ele>185</ele>
        <time>2022-06-25T07:36:24Z</time>
      </trkpt>
      <trkpt lat="46.64614" lon="5.16104">
        <ele>185</ele>
        <time>2022-06-25T07:36:25Z</time>
      </trkpt>
      <trkpt lat="46.64617" lon="5.16096">
        <ele>185</ele>
        <time>2022-06-25T07:36:26Z</time>
      </trkpt>
      <trkpt lat="46.64619" lon="5.16088">
        <ele>185</ele>
        <time>2022-06-25T07:36:27Z</time>
      </trkpt>
      <trkpt lat="46.64622" lon="5.16081">
        <ele>185</ele>
        <time>2022-06-25T07:36:28Z</time>
      </trkpt>
      <trkpt lat="46.64624" lon="5.16073">
        <ele>185</ele>
        <time>2022-06-25T07:36:29Z</time>
      </trkpt>
      <trkpt lat="46.64626" lon="5.16065">
        <ele>185</ele>
        <time>2022-06-25T07:36:30Z</time>
      </trkpt>
      <trkpt lat="46.64629" lon="5.16056">
        <ele>185</ele>
        <time>2022-06-25T07:36:31Z</time>
      </trkpt>
      <trkpt lat="46.64631" lon="5.16048">
        <ele>185</ele>
        <time>2022-06-25T07:36:32Z</time>
      </trkpt>
      <trkpt lat="46.64634" lon="5.1604">
        <ele>185</ele>
        <time>2022-06-25T07:36:33Z</time>
      </trkpt>
      <trkpt lat="46.64636" lon="5.16031">
        <ele>185</ele>
        <time>2022-06-25T07:36:34Z</time>
      </trkpt>
      <trkpt lat="46.64639" lon="5.16023">
        <ele>185</ele>
        <time>2022-06-25T07:36:35Z</time>
      </trkpt>
      <trkpt lat="46.64641" lon="5.16014">
        <ele>185</ele>
        <time>2022-06-25T07:36:36Z</time>
      </trkpt>
      <trkpt lat="46.64644" lon="5.16006">
        <ele>185</ele>
        <time>2022-06-25T07:36:37Z</time>
      </trkpt>
      <trkpt lat="46.64646" lon="5.15997">
        <ele>185</ele>
        <time>2022-06-25T07:36:38Z</time>
      </trkpt>
      <trkpt lat="46.64649" lon="5.15989">
        <ele>185</ele>
        <time>2022-06-25T07:36:39Z</time>
      </trkpt>
      <trkpt lat="46.64651" lon="5.1598">
        <ele>185</ele>
        <time>2022-06-25T07:36:40Z</time>
      </trkpt>
      <trkpt lat="46.64654" lon="5.15972">
        <ele>185</ele>
        <time>2022-06-25T07:36:41Z</time>
      </trkpt>
      <trkpt lat="46.64657" lon="5.15964">
        <ele>185</ele>
        <time>2022-06-25T07:36:42Z</time>
      </trkpt>
      <trkpt lat="46.64659" lon="5.15956">
        <ele>185</ele>
        <time>2022-06-25T07:36:43Z</time>
      </trkpt>
      <trkpt lat="46.64662" lon="5.15947">
        <ele>185</ele>
        <time>2022-06-25T07:36:44Z</time>
      </trkpt>
      <trkpt lat="46.64664" lon="5.15939">
        <ele>185</ele>
        <time>2022-06-25T07:36:45Z</time>
      </trkpt>
      <trkpt lat="46.64667" lon="5.15932">
        <ele>185</ele>
        <time>2022-06-25T07:36:46Z</time>
      </trkpt>
      <trkpt lat="46.64669" lon="5.15924">
        <ele>185</ele>
        <time>2022-06-25T07:36:47Z</time>
      </trkpt>
      <trkpt lat="46.64672" lon="5.15915">
        <ele>185</ele>
        <time>2022-06-25T07:36:48Z</time>
      </trkpt>
      <trkpt lat="46.64674" lon="5.15907">
        <ele>185</ele>
        <time>2022-06-25T07:36:49Z</time>
      </trkpt>
      <trkpt lat="46.64677" lon="5.15899">
        <ele>185</ele>
        <time>2022-06-25T07:36:50Z</time>
      </trkpt>
      <trkpt lat="46.64679" lon="5.1589">
        <ele>185</ele>
        <time>2022-06-25T07:36:51Z</time>
      </trkpt>
      <trkpt lat="46.64681" lon="5.15881">
        <ele>185</ele>
        <time>2022-06-25T07:36:52Z</time>
      </trkpt>
      <trkpt lat="46.64683" lon="5.15873">
        <ele>185.4</ele>
        <time>2022-06-25T07:36:53Z</time>
      </trkpt>
      <trkpt lat="46.64685" lon="5.15864">
        <ele>185.4</ele>
        <time>2022-06-25T07:36:54Z</time>
      </trkpt>
      <trkpt lat="46.64686" lon="5.15855">
        <ele>185.6</ele>
        <time>2022-06-25T07:36:55Z</time>
      </trkpt>
      <trkpt lat="46.64687" lon="5.15846">
        <ele>185.6</ele>
        <time>2022-06-25T07:36:56Z</time>
      </trkpt>
      <trkpt lat="46.64688" lon="5.15837">
        <ele>185.6</ele>
        <time>2022-06-25T07:36:57Z</time>
      </trkpt>
      <trkpt lat="46.64688" lon="5.15829">
        <ele>185.6</ele>
        <time>2022-06-25T07:36:58Z</time>
      </trkpt>
      <trkpt lat="46.64689" lon="5.1582">
        <ele>185.6</ele>
        <time>2022-06-25T07:36:59Z</time>
      </trkpt>
      <trkpt lat="46.64689" lon="5.15811">
        <ele>185.6</ele>
        <time>2022-06-25T07:37:00Z</time>
      </trkpt>
      <trkpt lat="46.64688" lon="5.15802">
        <ele>185.4</ele>
        <time>2022-06-25T07:37:01Z</time>
      </trkpt>
      <trkpt lat="46.64688" lon="5.15793">
        <ele>185.4</ele>
        <time>2022-06-25T07:37:02Z</time>
      </trkpt>
      <trkpt lat="46.64687" lon="5.15784">
        <ele>185.4</ele>
        <time>2022-06-25T07:37:03Z</time>
      </trkpt>
      <trkpt lat="46.64687" lon="5.15775">
        <ele>185.4</ele>
        <time>2022-06-25T07:37:04Z</time>
      </trkpt>
      <trkpt lat="46.64685" lon="5.15766">
        <ele>185.4</ele>
        <time>2022-06-25T07:37:05Z</time>
      </trkpt>
      <trkpt lat="46.64684" lon="5.15756">
        <ele>185.4</ele>
        <time>2022-06-25T07:37:06Z</time>
      </trkpt>
      <trkpt lat="46.64683" lon="5.15747">
        <ele>185.4</ele>
        <time>2022-06-25T07:37:07Z</time>
      </trkpt>
      <trkpt lat="46.64681" lon="5.15738">
        <ele>185.4</ele>
        <time>2022-06-25T07:37:08Z</time>
      </trkpt>
      <trkpt lat="46.6468" lon="5.15728">
        <ele>185.4</ele>
        <time>2022-06-25T07:37:09Z</time>
      </trkpt>
      <trkpt lat="46.64679" lon="5.15719">
        <ele>185.4</ele>
        <time>2022-06-25T07:37:10Z</time>
      </trkpt>
      <trkpt lat="46.64678" lon="5.1571">
        <ele>185.4</ele>
        <time>2022-06-25T07:37:11Z</time>
      </trkpt>
      <trkpt lat="46.64676" lon="5.157">
        <ele>185.4</ele>
        <time>2022-06-25T07:37:12Z</time>
      </trkpt>
      <trkpt lat="46.64675" lon="5.15691">
        <ele>185.4</ele>
        <time>2022-06-25T07:37:13Z</time>
      </trkpt>
      <trkpt lat="46.64674" lon="5.15681">
        <ele>185.4</ele>
        <time>2022-06-25T07:37:14Z</time>
      </trkpt>
      <trkpt lat="46.64673" lon="5.15672">
        <ele>185.4</ele>
        <time>2022-06-25T07:37:15Z</time>
      </trkpt>
      <trkpt lat="46.64671" lon="5.15662">
        <ele>185.4</ele>
        <time>2022-06-25T07:37:16Z</time>
      </trkpt>
      <trkpt lat="46.6467" lon="5.15653">
        <ele>185.4</ele>
        <time>2022-06-25T07:37:17Z</time>
      </trkpt>
      <trkpt lat="46.64668" lon="5.15643">
        <ele>185.4</ele>
        <time>2022-06-25T07:37:18Z</time>
      </trkpt>
      <trkpt lat="46.64667" lon="5.15634">
        <ele>185.4</ele>
        <time>2022-06-25T07:37:19Z</time>
      </trkpt>
      <trkpt lat="46.64666" lon="5.15624">
        <ele>185.4</ele>
        <time>2022-06-25T07:37:20Z</time>
      </trkpt>
      <trkpt lat="46.64664" lon="5.15615">
        <ele>185.4</ele>
        <time>2022-06-25T07:37:21Z</time>
      </trkpt>
      <trkpt lat="46.64663" lon="5.15605">
        <ele>185.4</ele>
        <time>2022-06-25T07:37:22Z</time>
      </trkpt>
      <trkpt lat="46.64662" lon="5.15596">
        <ele>185.4</ele>
        <time>2022-06-25T07:37:23Z</time>
      </trkpt>
      <trkpt lat="46.6466" lon="5.15586">
        <ele>185.4</ele>
        <time>2022-06-25T07:37:24Z</time>
      </trkpt>
      <trkpt lat="46.64659" lon="5.15577">
        <ele>185.4</ele>
        <time>2022-06-25T07:37:25Z</time>
      </trkpt>
      <trkpt lat="46.64657" lon="5.15567">
        <ele>185.4</ele>
        <time>2022-06-25T07:37:26Z</time>
      </trkpt>
      <trkpt lat="46.64656" lon="5.15557">
        <ele>185.6</ele>
        <time>2022-06-25T07:37:27Z</time>
      </trkpt>
      <trkpt lat="46.64654" lon="5.15547">
        <ele>185.6</ele>
        <time>2022-06-25T07:37:28Z</time>
      </trkpt>
      <trkpt lat="46.64653" lon="5.15537">
        <ele>185.6</ele>
        <time>2022-06-25T07:37:29Z</time>
      </trkpt>
      <trkpt lat="46.64652" lon="5.15526">
        <ele>185.6</ele>
        <time>2022-06-25T07:37:30Z</time>
      </trkpt>
      <trkpt lat="46.6465" lon="5.15516">
        <ele>185.6</ele>
        <time>2022-06-25T07:37:31Z</time>
      </trkpt>
      <trkpt lat="46.64648" lon="5.15506">
        <ele>185.6</ele>
        <time>2022-06-25T07:37:32Z</time>
      </trkpt>
      <trkpt lat="46.64647" lon="5.15495">
        <ele>185.6</ele>
        <time>2022-06-25T07:37:33Z</time>
      </trkpt>
      <trkpt lat="46.64645" lon="5.15485">
        <ele>185.6</ele>
        <time>2022-06-25T07:37:34Z</time>
      </trkpt>
      <trkpt lat="46.64644" lon="5.15475">
        <ele>185.6</ele>
        <time>2022-06-25T07:37:35Z</time>
      </trkpt>
      <trkpt lat="46.64643" lon="5.15465">
        <ele>185.6</ele>
        <time>2022-06-25T07:37:36Z</time>
      </trkpt>
      <trkpt lat="46.64641" lon="5.15454">
        <ele>185.6</ele>
        <time>2022-06-25T07:37:37Z</time>
      </trkpt>
      <trkpt lat="46.6464" lon="5.15444">
        <ele>185.6</ele>
        <time>2022-06-25T07:37:38Z</time>
      </trkpt>
      <trkpt lat="46.64638" lon="5.15434">
        <ele>185.6</ele>
        <time>2022-06-25T07:37:39Z</time>
      </trkpt>
      <trkpt lat="46.64637" lon="5.15424">
        <ele>185.6</ele>
        <time>2022-06-25T07:37:40Z</time>
      </trkpt>
      <trkpt lat="46.64635" lon="5.15404">
        <ele>185.6</ele>
        <time>2022-06-25T07:37:41Z</time>
      </trkpt>
      <trkpt lat="46.64634" lon="5.15395">
        <ele>185.6</ele>
        <time>2022-06-25T07:37:42Z</time>
      </trkpt>
      <trkpt lat="46.64633" lon="5.15385">
        <ele>185.8</ele>
        <time>2022-06-25T07:37:43Z</time>
      </trkpt>
      <trkpt lat="46.64632" lon="5.15375">
        <ele>185.8</ele>
        <time>2022-06-25T07:37:44Z</time>
      </trkpt>
      <trkpt lat="46.64632" lon="5.15365">
        <ele>185.8</ele>
        <time>2022-06-25T07:37:45Z</time>
      </trkpt>
      <trkpt lat="46.64632" lon="5.15355">
        <ele>185.8</ele>
        <time>2022-06-25T07:37:46Z</time>
      </trkpt>
      <trkpt lat="46.64632" lon="5.15345">
        <ele>185.8</ele>
        <time>2022-06-25T07:37:47Z</time>
      </trkpt>
      <trkpt lat="46.64632" lon="5.15336">
        <ele>186.2</ele>
        <time>2022-06-25T07:37:48Z</time>
      </trkpt>
      <trkpt lat="46.64632" lon="5.15326">
        <ele>186.2</ele>
        <time>2022-06-25T07:37:49Z</time>
      </trkpt>
      <trkpt lat="46.64632" lon="5.15316">
        <ele>186.4</ele>
        <time>2022-06-25T07:37:50Z</time>
      </trkpt>
      <trkpt lat="46.64631" lon="5.15307">
        <ele>186.4</ele>
        <time>2022-06-25T07:37:51Z</time>
      </trkpt>
      <trkpt lat="46.64631" lon="5.15297">
        <ele>186.4</ele>
        <time>2022-06-25T07:37:52Z</time>
      </trkpt>
      <trkpt lat="46.64631" lon="5.15288">
        <ele>186.4</ele>
        <time>2022-06-25T07:37:53Z</time>
      </trkpt>
      <trkpt lat="46.64631" lon="5.15278">
        <ele>186.6</ele>
        <time>2022-06-25T07:37:54Z</time>
      </trkpt>
      <trkpt lat="46.6463" lon="5.15269">
        <ele>186.6</ele>
        <time>2022-06-25T07:37:55Z</time>
      </trkpt>
      <trkpt lat="46.64629" lon="5.1526">
        <ele>186.6</ele>
        <time>2022-06-25T07:37:56Z</time>
      </trkpt>
      <trkpt lat="46.64628" lon="5.15251">
        <ele>186.6</ele>
        <time>2022-06-25T07:37:57Z</time>
      </trkpt>
      <trkpt lat="46.64626" lon="5.15242">
        <ele>186.6</ele>
        <time>2022-06-25T07:37:58Z</time>
      </trkpt>
      <trkpt lat="46.64625" lon="5.15232">
        <ele>186.6</ele>
        <time>2022-06-25T07:37:59Z</time>
      </trkpt>
      <trkpt lat="46.64623" lon="5.15223">
        <ele>186.8</ele>
        <time>2022-06-25T07:38:00Z</time>
      </trkpt>
      <trkpt lat="46.64621" lon="5.15214">
        <ele>186.8</ele>
        <time>2022-06-25T07:38:01Z</time>
      </trkpt>
      <trkpt lat="46.6462" lon="5.15205">
        <ele>186.8</ele>
        <time>2022-06-25T07:38:02Z</time>
      </trkpt>
      <trkpt lat="46.64618" lon="5.15196">
        <ele>187</ele>
        <time>2022-06-25T07:38:03Z</time>
      </trkpt>
      <trkpt lat="46.64616" lon="5.15187">
        <ele>187</ele>
        <time>2022-06-25T07:38:04Z</time>
      </trkpt>
      <trkpt lat="46.64614" lon="5.15177">
        <ele>187</ele>
        <time>2022-06-25T07:38:05Z</time>
      </trkpt>
      <trkpt lat="46.64613" lon="5.15168">
        <ele>187</ele>
        <time>2022-06-25T07:38:06Z</time>
      </trkpt>
      <trkpt lat="46.64611" lon="5.15159">
        <ele>187</ele>
        <time>2022-06-25T07:38:07Z</time>
      </trkpt>
      <trkpt lat="46.64609" lon="5.1515">
        <ele>187</ele>
        <time>2022-06-25T07:38:08Z</time>
      </trkpt>
      <trkpt lat="46.64607" lon="5.15141">
        <ele>187.4</ele>
        <time>2022-06-25T07:38:09Z</time>
      </trkpt>
      <trkpt lat="46.64605" lon="5.15133">
        <ele>187.4</ele>
        <time>2022-06-25T07:38:10Z</time>
      </trkpt>
      <trkpt lat="46.64603" lon="5.15124">
        <ele>187.6</ele>
        <time>2022-06-25T07:38:11Z</time>
      </trkpt>
      <trkpt lat="46.646" lon="5.15115">
        <ele>187.6</ele>
        <time>2022-06-25T07:38:12Z</time>
      </trkpt>
      <trkpt lat="46.64597" lon="5.15107">
        <ele>187.8</ele>
        <time>2022-06-25T07:38:13Z</time>
      </trkpt>
      <trkpt lat="46.64594" lon="5.15098">
        <ele>187.8</ele>
        <time>2022-06-25T07:38:14Z</time>
      </trkpt>
      <trkpt lat="46.64591" lon="5.15089">
        <ele>187.8</ele>
        <time>2022-06-25T07:38:15Z</time>
      </trkpt>
      <trkpt lat="46.64588" lon="5.15081">
        <ele>187.8</ele>
        <time>2022-06-25T07:38:16Z</time>
      </trkpt>
      <trkpt lat="46.64585" lon="5.15072">
        <ele>188</ele>
        <time>2022-06-25T07:38:17Z</time>
      </trkpt>
      <trkpt lat="46.64582" lon="5.15064">
        <ele>188</ele>
        <time>2022-06-25T07:38:18Z</time>
      </trkpt>
      <trkpt lat="46.64578" lon="5.15055">
        <ele>188</ele>
        <time>2022-06-25T07:38:19Z</time>
      </trkpt>
      <trkpt lat="46.64575" lon="5.15047">
        <ele>188</ele>
        <time>2022-06-25T07:38:20Z</time>
      </trkpt>
      <trkpt lat="46.64571" lon="5.15039">
        <ele>188</ele>
        <time>2022-06-25T07:38:21Z</time>
      </trkpt>
      <trkpt lat="46.64568" lon="5.1503">
        <ele>188.2</ele>
        <time>2022-06-25T07:38:22Z</time>
      </trkpt>
      <trkpt lat="46.64564" lon="5.15022">
        <ele>188.2</ele>
        <time>2022-06-25T07:38:23Z</time>
      </trkpt>
      <trkpt lat="46.64561" lon="5.15013">
        <ele>188.2</ele>
        <time>2022-06-25T07:38:24Z</time>
      </trkpt>
      <trkpt lat="46.64557" lon="5.15005">
        <ele>188.4</ele>
        <time>2022-06-25T07:38:25Z</time>
      </trkpt>
      <trkpt lat="46.64554" lon="5.14996">
        <ele>188.4</ele>
        <time>2022-06-25T07:38:26Z</time>
      </trkpt>
      <trkpt lat="46.64551" lon="5.14988">
        <ele>188.8</ele>
        <time>2022-06-25T07:38:27Z</time>
      </trkpt>
      <trkpt lat="46.64547" lon="5.14979">
        <ele>188.8</ele>
        <time>2022-06-25T07:38:28Z</time>
      </trkpt>
      <trkpt lat="46.64544" lon="5.14971">
        <ele>188.8</ele>
        <time>2022-06-25T07:38:29Z</time>
      </trkpt>
      <trkpt lat="46.6454" lon="5.14963">
        <ele>189</ele>
        <time>2022-06-25T07:38:30Z</time>
      </trkpt>
      <trkpt lat="46.64537" lon="5.14954">
        <ele>189</ele>
        <time>2022-06-25T07:38:31Z</time>
      </trkpt>
      <trkpt lat="46.64534" lon="5.14945">
        <ele>189</ele>
        <time>2022-06-25T07:38:32Z</time>
      </trkpt>
      <trkpt lat="46.64531" lon="5.14937">
        <ele>189</ele>
        <time>2022-06-25T07:38:33Z</time>
      </trkpt>
      <trkpt lat="46.64528" lon="5.14928">
        <ele>189</ele>
        <time>2022-06-25T07:38:34Z</time>
      </trkpt>
      <trkpt lat="46.64526" lon="5.14919">
        <ele>189.2</ele>
        <time>2022-06-25T07:38:35Z</time>
      </trkpt>
      <trkpt lat="46.64523" lon="5.1491">
        <ele>189.2</ele>
        <time>2022-06-25T07:38:36Z</time>
      </trkpt>
      <trkpt lat="46.64521" lon="5.14901">
        <ele>189.2</ele>
        <time>2022-06-25T07:38:37Z</time>
      </trkpt>
      <trkpt lat="46.64519" lon="5.14892">
        <ele>189.4</ele>
        <time>2022-06-25T07:38:38Z</time>
      </trkpt>
      <trkpt lat="46.64517" lon="5.14883">
        <ele>189.4</ele>
        <time>2022-06-25T07:38:39Z</time>
      </trkpt>
      <trkpt lat="46.64515" lon="5.14874">
        <ele>189.6</ele>
        <time>2022-06-25T07:38:40Z</time>
      </trkpt>
      <trkpt lat="46.64513" lon="5.14865">
        <ele>189.6</ele>
        <time>2022-06-25T07:38:41Z</time>
      </trkpt>
      <trkpt lat="46.64511" lon="5.14856">
        <ele>190</ele>
        <time>2022-06-25T07:38:42Z</time>
      </trkpt>
      <trkpt lat="46.64509" lon="5.14847">
        <ele>190</ele>
        <time>2022-06-25T07:38:43Z</time>
      </trkpt>
      <trkpt lat="46.64507" lon="5.14838">
        <ele>190</ele>
        <time>2022-06-25T07:38:44Z</time>
      </trkpt>
      <trkpt lat="46.64505" lon="5.14829">
        <ele>190.2</ele>
        <time>2022-06-25T07:38:45Z</time>
      </trkpt>
      <trkpt lat="46.64504" lon="5.14819">
        <ele>190.2</ele>
        <time>2022-06-25T07:38:46Z</time>
      </trkpt>
      <trkpt lat="46.64502" lon="5.14811">
        <ele>190.2</ele>
        <time>2022-06-25T07:38:47Z</time>
      </trkpt>
      <trkpt lat="46.645" lon="5.14802">
        <ele>190.4</ele>
        <time>2022-06-25T07:38:48Z</time>
      </trkpt>
      <trkpt lat="46.64498" lon="5.14793">
        <ele>190.4</ele>
        <time>2022-06-25T07:38:49Z</time>
      </trkpt>
      <trkpt lat="46.64497" lon="5.14784">
        <ele>190.4</ele>
        <time>2022-06-25T07:38:50Z</time>
      </trkpt>
      <trkpt lat="46.64495" lon="5.14775">
        <ele>190.4</ele>
        <time>2022-06-25T07:38:51Z</time>
      </trkpt>
      <trkpt lat="46.64493" lon="5.14766">
        <ele>190.6</ele>
        <time>2022-06-25T07:38:52Z</time>
      </trkpt>
      <trkpt lat="46.64491" lon="5.14757">
        <ele>190.6</ele>
        <time>2022-06-25T07:38:53Z</time>
      </trkpt>
      <trkpt lat="46.64489" lon="5.14749">
        <ele>190.8</ele>
        <time>2022-06-25T07:38:54Z</time>
      </trkpt>
      <trkpt lat="46.64487" lon="5.1474">
        <ele>190.8</ele>
        <time>2022-06-25T07:38:55Z</time>
      </trkpt>
      <trkpt lat="46.64486" lon="5.14731">
        <ele>190.8</ele>
        <time>2022-06-25T07:38:56Z</time>
      </trkpt>
      <trkpt lat="46.64484" lon="5.14722">
        <ele>191.2</ele>
        <time>2022-06-25T07:38:57Z</time>
      </trkpt>
      <trkpt lat="46.64482" lon="5.14713">
        <ele>191.2</ele>
        <time>2022-06-25T07:38:58Z</time>
      </trkpt>
      <trkpt lat="46.6448" lon="5.14704">
        <ele>191.4</ele>
        <time>2022-06-25T07:38:59Z</time>
      </trkpt>
      <trkpt lat="46.64479" lon="5.14695">
        <ele>191.4</ele>
        <time>2022-06-25T07:39:00Z</time>
      </trkpt>
      <trkpt lat="46.64477" lon="5.14686">
        <ele>191.4</ele>
        <time>2022-06-25T07:39:01Z</time>
      </trkpt>
      <trkpt lat="46.64475" lon="5.14676">
        <ele>191.6</ele>
        <time>2022-06-25T07:39:02Z</time>
      </trkpt>
      <trkpt lat="46.64473" lon="5.14667">
        <ele>191.6</ele>
        <time>2022-06-25T07:39:03Z</time>
      </trkpt>
      <trkpt lat="46.64471" lon="5.14658">
        <ele>191.6</ele>
        <time>2022-06-25T07:39:04Z</time>
      </trkpt>
      <trkpt lat="46.64469" lon="5.14648">
        <ele>191.6</ele>
        <time>2022-06-25T07:39:05Z</time>
      </trkpt>
      <trkpt lat="46.64467" lon="5.14639">
        <ele>191.6</ele>
        <time>2022-06-25T07:39:06Z</time>
      </trkpt>
      <trkpt lat="46.64465" lon="5.14629">
        <ele>191.6</ele>
        <time>2022-06-25T07:39:07Z</time>
      </trkpt>
      <trkpt lat="46.64463" lon="5.14619">
        <ele>192</ele>
        <time>2022-06-25T07:39:08Z</time>
      </trkpt>
      <trkpt lat="46.64461" lon="5.1461">
        <ele>192</ele>
        <time>2022-06-25T07:39:09Z</time>
      </trkpt>
      <trkpt lat="46.64459" lon="5.146">
        <ele>192</ele>
        <time>2022-06-25T07:39:10Z</time>
      </trkpt>
      <trkpt lat="46.64456" lon="5.14591">
        <ele>192.2</ele>
        <time>2022-06-25T07:39:11Z</time>
      </trkpt>
      <trkpt lat="46.64454" lon="5.14581">
        <ele>192.2</ele>
        <time>2022-06-25T07:39:12Z</time>
      </trkpt>
      <trkpt lat="46.64452" lon="5.14572">
        <ele>192.2</ele>
        <time>2022-06-25T07:39:13Z</time>
      </trkpt>
      <trkpt lat="46.64449" lon="5.14563">
        <ele>192.6</ele>
        <time>2022-06-25T07:39:14Z</time>
      </trkpt>
      <trkpt lat="46.64447" lon="5.14555">
        <ele>192.6</ele>
        <time>2022-06-25T07:39:15Z</time>
      </trkpt>
      <trkpt lat="46.64444" lon="5.14546">
        <ele>192.8</ele>
        <time>2022-06-25T07:39:16Z</time>
      </trkpt>
      <trkpt lat="46.64441" lon="5.14538">
        <ele>192.8</ele>
        <time>2022-06-25T07:39:17Z</time>
      </trkpt>
      <trkpt lat="46.64438" lon="5.1453">
        <ele>193</ele>
        <time>2022-06-25T07:39:18Z</time>
      </trkpt>
      <trkpt lat="46.64435" lon="5.14522">
        <ele>193</ele>
        <time>2022-06-25T07:39:19Z</time>
      </trkpt>
      <trkpt lat="46.64431" lon="5.14514">
        <ele>193.4</ele>
        <time>2022-06-25T07:39:20Z</time>
      </trkpt>
      <trkpt lat="46.64428" lon="5.14506">
        <ele>193.4</ele>
        <time>2022-06-25T07:39:21Z</time>
      </trkpt>
      <trkpt lat="46.64424" lon="5.14498">
        <ele>193.4</ele>
        <time>2022-06-25T07:39:22Z</time>
      </trkpt>
      <trkpt lat="46.6442" lon="5.1449">
        <ele>193.4</ele>
        <time>2022-06-25T07:39:23Z</time>
      </trkpt>
      <trkpt lat="46.64416" lon="5.14482">
        <ele>193.4</ele>
        <time>2022-06-25T07:39:24Z</time>
      </trkpt>
      <trkpt lat="46.64412" lon="5.14474">
        <ele>193.6</ele>
        <time>2022-06-25T07:39:25Z</time>
      </trkpt>
      <trkpt lat="46.64408" lon="5.14467">
        <ele>193.6</ele>
        <time>2022-06-25T07:39:26Z</time>
      </trkpt>
      <trkpt lat="46.64403" lon="5.14459">
        <ele>193.6</ele>
        <time>2022-06-25T07:39:27Z</time>
      </trkpt>
      <trkpt lat="46.64399" lon="5.14451">
        <ele>193.6</ele>
        <time>2022-06-25T07:39:28Z</time>
      </trkpt>
      <trkpt lat="46.64394" lon="5.14443">
        <ele>193.6</ele>
        <time>2022-06-25T07:39:29Z</time>
      </trkpt>
      <trkpt lat="46.6439" lon="5.14435">
        <ele>193.6</ele>
        <time>2022-06-25T07:39:30Z</time>
      </trkpt>
      <trkpt lat="46.64385" lon="5.14427">
        <ele>193.6</ele>
        <time>2022-06-25T07:39:31Z</time>
      </trkpt>
      <trkpt lat="46.6438" lon="5.14418">
        <ele>193.2</ele>
        <time>2022-06-25T07:39:32Z</time>
      </trkpt>
      <trkpt lat="46.64375" lon="5.1441">
        <ele>193.2</ele>
        <time>2022-06-25T07:39:33Z</time>
      </trkpt>
      <trkpt lat="46.6437" lon="5.14401">
        <ele>193</ele>
        <time>2022-06-25T07:39:34Z</time>
      </trkpt>
      <trkpt lat="46.64365" lon="5.14392">
        <ele>193</ele>
        <time>2022-06-25T07:39:35Z</time>
      </trkpt>
      <trkpt lat="46.6436" lon="5.14383">
        <ele>192.8</ele>
        <time>2022-06-25T07:39:36Z</time>
      </trkpt>
      <trkpt lat="46.64354" lon="5.14373">
        <ele>192.4</ele>
        <time>2022-06-25T07:39:37Z</time>
      </trkpt>
      <trkpt lat="46.64349" lon="5.14363">
        <ele>192.2</ele>
        <time>2022-06-25T07:39:38Z</time>
      </trkpt>
      <trkpt lat="46.64343" lon="5.14353">
        <ele>192</ele>
        <time>2022-06-25T07:39:39Z</time>
      </trkpt>
      <trkpt lat="46.64337" lon="5.14343">
        <ele>191.6</ele>
        <time>2022-06-25T07:39:40Z</time>
      </trkpt>
      <trkpt lat="46.64331" lon="5.14332">
        <ele>191.4</ele>
        <time>2022-06-25T07:39:41Z</time>
      </trkpt>
      <trkpt lat="46.64324" lon="5.14321">
        <ele>191</ele>
        <time>2022-06-25T07:39:42Z</time>
      </trkpt>
      <trkpt lat="46.64318" lon="5.14308">
        <ele>190.6</ele>
        <time>2022-06-25T07:39:43Z</time>
      </trkpt>
      <trkpt lat="46.64312" lon="5.14296">
        <ele>190.2</ele>
        <time>2022-06-25T07:39:44Z</time>
      </trkpt>
      <trkpt lat="46.64305" lon="5.14285">
        <ele>190</ele>
        <time>2022-06-25T07:39:45Z</time>
      </trkpt>
      <trkpt lat="46.64299" lon="5.14274">
        <ele>189.6</ele>
        <time>2022-06-25T07:39:46Z</time>
      </trkpt>
      <trkpt lat="46.64294" lon="5.14263">
        <ele>189.4</ele>
        <time>2022-06-25T07:39:47Z</time>
      </trkpt>
      <trkpt lat="46.64287" lon="5.14253">
        <ele>189.4</ele>
        <time>2022-06-25T07:39:48Z</time>
      </trkpt>
      <trkpt lat="46.64282" lon="5.14244">
        <ele>189.2</ele>
        <time>2022-06-25T07:39:49Z</time>
      </trkpt>
      <trkpt lat="46.64275" lon="5.14234">
        <ele>189.2</ele>
        <time>2022-06-25T07:39:50Z</time>
      </trkpt>
      <trkpt lat="46.6427" lon="5.14224">
        <ele>188.8</ele>
        <time>2022-06-25T07:39:51Z</time>
      </trkpt>
      <trkpt lat="46.64266" lon="5.14216">
        <ele>188.8</ele>
        <time>2022-06-25T07:39:52Z</time>
      </trkpt>
      <trkpt lat="46.64261" lon="5.14207">
        <ele>189.2</ele>
        <time>2022-06-25T07:39:53Z</time>
      </trkpt>
      <trkpt lat="46.64256" lon="5.14199">
        <ele>189.2</ele>
        <time>2022-06-25T07:39:54Z</time>
      </trkpt>
      <trkpt lat="46.64251" lon="5.1419">
        <ele>189.2</ele>
        <time>2022-06-25T07:39:55Z</time>
      </trkpt>
      <trkpt lat="46.64246" lon="5.14182">
        <ele>189.2</ele>
        <time>2022-06-25T07:39:56Z</time>
      </trkpt>
      <trkpt lat="46.64242" lon="5.14174">
        <ele>189.2</ele>
        <time>2022-06-25T07:39:57Z</time>
      </trkpt>
      <trkpt lat="46.64237" lon="5.14166">
        <ele>189.4</ele>
        <time>2022-06-25T07:39:58Z</time>
      </trkpt>
      <trkpt lat="46.64232" lon="5.14158">
        <ele>189.4</ele>
        <time>2022-06-25T07:39:59Z</time>
      </trkpt>
      <trkpt lat="46.64228" lon="5.1415">
        <ele>189.6</ele>
        <time>2022-06-25T07:40:00Z</time>
      </trkpt>
      <trkpt lat="46.64224" lon="5.14143">
        <ele>189.6</ele>
        <time>2022-06-25T07:40:01Z</time>
      </trkpt>
      <trkpt lat="46.6422" lon="5.14135">
        <ele>190</ele>
        <time>2022-06-25T07:40:02Z</time>
      </trkpt>
      <trkpt lat="46.64216" lon="5.14128">
        <ele>190</ele>
        <time>2022-06-25T07:40:03Z</time>
      </trkpt>
      <trkpt lat="46.64212" lon="5.14121">
        <ele>190.2</ele>
        <time>2022-06-25T07:40:04Z</time>
      </trkpt>
      <trkpt lat="46.64208" lon="5.14114">
        <ele>190.2</ele>
        <time>2022-06-25T07:40:05Z</time>
      </trkpt>
      <trkpt lat="46.64204" lon="5.14107">
        <ele>190.6</ele>
        <time>2022-06-25T07:40:06Z</time>
      </trkpt>
      <trkpt lat="46.642" lon="5.141">
        <ele>190.6</ele>
        <time>2022-06-25T07:40:07Z</time>
      </trkpt>
      <trkpt lat="46.64196" lon="5.14093">
        <ele>190.8</ele>
        <time>2022-06-25T07:40:08Z</time>
      </trkpt>
      <trkpt lat="46.64192" lon="5.14086">
        <ele>190.8</ele>
        <time>2022-06-25T07:40:09Z</time>
      </trkpt>
      <trkpt lat="46.64188" lon="5.14079">
        <ele>190.8</ele>
        <time>2022-06-25T07:40:10Z</time>
      </trkpt>
      <trkpt lat="46.64184" lon="5.14072">
        <ele>190.8</ele>
        <time>2022-06-25T07:40:11Z</time>
      </trkpt>
      <trkpt lat="46.64179" lon="5.14064">
        <ele>191</ele>
        <time>2022-06-25T07:40:12Z</time>
      </trkpt>
      <trkpt lat="46.64175" lon="5.14057">
        <ele>191</ele>
        <time>2022-06-25T07:40:13Z</time>
      </trkpt>
      <trkpt lat="46.64171" lon="5.14049">
        <ele>191</ele>
        <time>2022-06-25T07:40:14Z</time>
      </trkpt>
      <trkpt lat="46.64166" lon="5.14041">
        <ele>191</ele>
        <time>2022-06-25T07:40:15Z</time>
      </trkpt>
      <trkpt lat="46.64162" lon="5.14033">
        <ele>191</ele>
        <time>2022-06-25T07:40:16Z</time>
      </trkpt>
      <trkpt lat="46.64157" lon="5.14025">
        <ele>191</ele>
        <time>2022-06-25T07:40:17Z</time>
      </trkpt>
      <trkpt lat="46.64153" lon="5.14017">
        <ele>191</ele>
        <time>2022-06-25T07:40:18Z</time>
      </trkpt>
      <trkpt lat="46.64148" lon="5.14009">
        <ele>190.8</ele>
        <time>2022-06-25T07:40:19Z</time>
      </trkpt>
      <trkpt lat="46.64143" lon="5.14">
        <ele>190.8</ele>
        <time>2022-06-25T07:40:20Z</time>
      </trkpt>
      <trkpt lat="46.64138" lon="5.13992">
        <ele>190.8</ele>
        <time>2022-06-25T07:40:21Z</time>
      </trkpt>
      <trkpt lat="46.64134" lon="5.13983">
        <ele>190.8</ele>
        <time>2022-06-25T07:40:22Z</time>
      </trkpt>
      <trkpt lat="46.64129" lon="5.13975">
        <ele>190.8</ele>
        <time>2022-06-25T07:40:23Z</time>
      </trkpt>
      <trkpt lat="46.64124" lon="5.13966">
        <ele>190.8</ele>
        <time>2022-06-25T07:40:24Z</time>
      </trkpt>
      <trkpt lat="46.64119" lon="5.13958">
        <ele>190.6</ele>
        <time>2022-06-25T07:40:25Z</time>
      </trkpt>
      <trkpt lat="46.64114" lon="5.13949">
        <ele>190.6</ele>
        <time>2022-06-25T07:40:26Z</time>
      </trkpt>
      <trkpt lat="46.64109" lon="5.13941">
        <ele>190.6</ele>
        <time>2022-06-25T07:40:27Z</time>
      </trkpt>
      <trkpt lat="46.64104" lon="5.13932">
        <ele>190.6</ele>
        <time>2022-06-25T07:40:28Z</time>
      </trkpt>
      <trkpt lat="46.64099" lon="5.13923">
        <ele>190.6</ele>
        <time>2022-06-25T07:40:29Z</time>
      </trkpt>
      <trkpt lat="46.64095" lon="5.13915">
        <ele>190.6</ele>
        <time>2022-06-25T07:40:30Z</time>
      </trkpt>
      <trkpt lat="46.6409" lon="5.13906">
        <ele>190.6</ele>
        <time>2022-06-25T07:40:31Z</time>
      </trkpt>
      <trkpt lat="46.64085" lon="5.13898">
        <ele>190.2</ele>
        <time>2022-06-25T07:40:32Z</time>
      </trkpt>
      <trkpt lat="46.6408" lon="5.13889">
        <ele>190.2</ele>
        <time>2022-06-25T07:40:33Z</time>
      </trkpt>
      <trkpt lat="46.64075" lon="5.1388">
        <ele>190.2</ele>
        <time>2022-06-25T07:40:34Z</time>
      </trkpt>
      <trkpt lat="46.6407" lon="5.13872">
        <ele>190</ele>
        <time>2022-06-25T07:40:35Z</time>
      </trkpt>
      <trkpt lat="46.64065" lon="5.13863">
        <ele>190</ele>
        <time>2022-06-25T07:40:36Z</time>
      </trkpt>
      <trkpt lat="46.6406" lon="5.13854">
        <ele>190</ele>
        <time>2022-06-25T07:40:37Z</time>
      </trkpt>
      <trkpt lat="46.64055" lon="5.13845">
        <ele>190</ele>
        <time>2022-06-25T07:40:38Z</time>
      </trkpt>
      <trkpt lat="46.6405" lon="5.13837">
        <ele>189.8</ele>
        <time>2022-06-25T07:40:39Z</time>
      </trkpt>
      <trkpt lat="46.64045" lon="5.13828">
        <ele>189.8</ele>
        <time>2022-06-25T07:40:40Z</time>
      </trkpt>
      <trkpt lat="46.6404" lon="5.13819">
        <ele>189.8</ele>
        <time>2022-06-25T07:40:41Z</time>
      </trkpt>
      <trkpt lat="46.64035" lon="5.13811">
        <ele>189.8</ele>
        <time>2022-06-25T07:40:42Z</time>
      </trkpt>
      <trkpt lat="46.6403" lon="5.13802">
        <ele>189.4</ele>
        <time>2022-06-25T07:40:43Z</time>
      </trkpt>
      <trkpt lat="46.64026" lon="5.13793">
        <ele>189.4</ele>
        <time>2022-06-25T07:40:44Z</time>
      </trkpt>
      <trkpt lat="46.64021" lon="5.13785">
        <ele>189.4</ele>
        <time>2022-06-25T07:40:45Z</time>
      </trkpt>
      <trkpt lat="46.64016" lon="5.13776">
        <ele>189.2</ele>
        <time>2022-06-25T07:40:46Z</time>
      </trkpt>
      <trkpt lat="46.64011" lon="5.13767">
        <ele>189.2</ele>
        <time>2022-06-25T07:40:47Z</time>
      </trkpt>
      <trkpt lat="46.64006" lon="5.13759">
        <ele>189.2</ele>
        <time>2022-06-25T07:40:48Z</time>
      </trkpt>
      <trkpt lat="46.64001" lon="5.1375">
        <ele>189.2</ele>
        <time>2022-06-25T07:40:49Z</time>
      </trkpt>
      <trkpt lat="46.63996" lon="5.13741">
        <ele>189</ele>
        <time>2022-06-25T07:40:50Z</time>
      </trkpt>
      <trkpt lat="46.63991" lon="5.13732">
        <ele>189</ele>
        <time>2022-06-25T07:40:51Z</time>
      </trkpt>
      <trkpt lat="46.63986" lon="5.13723">
        <ele>189</ele>
        <time>2022-06-25T07:40:52Z</time>
      </trkpt>
      <trkpt lat="46.63981" lon="5.13715">
        <ele>188.8</ele>
        <time>2022-06-25T07:40:53Z</time>
      </trkpt>
      <trkpt lat="46.63976" lon="5.13706">
        <ele>188.8</ele>
        <time>2022-06-25T07:40:54Z</time>
      </trkpt>
      <trkpt lat="46.63971" lon="5.13698">
        <ele>188.8</ele>
        <time>2022-06-25T07:40:55Z</time>
      </trkpt>
      <trkpt lat="46.63965" lon="5.1369">
        <ele>188.8</ele>
        <time>2022-06-25T07:40:56Z</time>
      </trkpt>
      <trkpt lat="46.6396" lon="5.13682">
        <ele>188.8</ele>
        <time>2022-06-25T07:40:57Z</time>
      </trkpt>
      <trkpt lat="46.63953" lon="5.13675">
        <ele>188.8</ele>
        <time>2022-06-25T07:40:58Z</time>
      </trkpt>
      <trkpt lat="46.63947" lon="5.13668">
        <ele>188.6</ele>
        <time>2022-06-25T07:40:59Z</time>
      </trkpt>
      <trkpt lat="46.63941" lon="5.13661">
        <ele>188.6</ele>
        <time>2022-06-25T07:41:00Z</time>
      </trkpt>
      <trkpt lat="46.63934" lon="5.13655">
        <ele>188.6</ele>
        <time>2022-06-25T07:41:01Z</time>
      </trkpt>
      <trkpt lat="46.63928" lon="5.13649">
        <ele>188.6</ele>
        <time>2022-06-25T07:41:02Z</time>
      </trkpt>
      <trkpt lat="46.63921" lon="5.13643">
        <ele>188.6</ele>
        <time>2022-06-25T07:41:03Z</time>
      </trkpt>
      <trkpt lat="46.63914" lon="5.13638">
        <ele>188.2</ele>
        <time>2022-06-25T07:41:04Z</time>
      </trkpt>
      <trkpt lat="46.63908" lon="5.13632">
        <ele>188.2</ele>
        <time>2022-06-25T07:41:05Z</time>
      </trkpt>
      <trkpt lat="46.63901" lon="5.13627">
        <ele>188.2</ele>
        <time>2022-06-25T07:41:06Z</time>
      </trkpt>
      <trkpt lat="46.63895" lon="5.13621">
        <ele>188</ele>
        <time>2022-06-25T07:41:07Z</time>
      </trkpt>
      <trkpt lat="46.63888" lon="5.13615">
        <ele>188</ele>
        <time>2022-06-25T07:41:08Z</time>
      </trkpt>
      <trkpt lat="46.63881" lon="5.1361">
        <ele>188</ele>
        <time>2022-06-25T07:41:09Z</time>
      </trkpt>
      <trkpt lat="46.63875" lon="5.13604">
        <ele>187.8</ele>
        <time>2022-06-25T07:41:10Z</time>
      </trkpt>
      <trkpt lat="46.63869" lon="5.13599">
        <ele>187.8</ele>
        <time>2022-06-25T07:41:11Z</time>
      </trkpt>
      <trkpt lat="46.63862" lon="5.13593">
        <ele>187.8</ele>
        <time>2022-06-25T07:41:12Z</time>
      </trkpt>
      <trkpt lat="46.63855" lon="5.13588">
        <ele>187.6</ele>
        <time>2022-06-25T07:41:13Z</time>
      </trkpt>
      <trkpt lat="46.63849" lon="5.13582">
        <ele>187.6</ele>
        <time>2022-06-25T07:41:14Z</time>
      </trkpt>
      <trkpt lat="46.63842" lon="5.13576">
        <ele>187.6</ele>
        <time>2022-06-25T07:41:15Z</time>
      </trkpt>
      <trkpt lat="46.63836" lon="5.13571">
        <ele>187.6</ele>
        <time>2022-06-25T07:41:16Z</time>
      </trkpt>
      <trkpt lat="46.63829" lon="5.13565">
        <ele>187.6</ele>
        <time>2022-06-25T07:41:17Z</time>
      </trkpt>
      <trkpt lat="46.63823" lon="5.1356">
        <ele>187.2</ele>
        <time>2022-06-25T07:41:18Z</time>
      </trkpt>
      <trkpt lat="46.63816" lon="5.13554">
        <ele>187.2</ele>
        <time>2022-06-25T07:41:19Z</time>
      </trkpt>
      <trkpt lat="46.6381" lon="5.13549">
        <ele>187.2</ele>
        <time>2022-06-25T07:41:20Z</time>
      </trkpt>
      <trkpt lat="46.63803" lon="5.13543">
        <ele>187.2</ele>
        <time>2022-06-25T07:41:21Z</time>
      </trkpt>
      <trkpt lat="46.63796" lon="5.13538">
        <ele>187</ele>
        <time>2022-06-25T07:41:22Z</time>
      </trkpt>
      <trkpt lat="46.6379" lon="5.13532">
        <ele>187</ele>
        <time>2022-06-25T07:41:23Z</time>
      </trkpt>
      <trkpt lat="46.63784" lon="5.13526">
        <ele>187</ele>
        <time>2022-06-25T07:41:24Z</time>
      </trkpt>
      <trkpt lat="46.63777" lon="5.13521">
        <ele>187</ele>
        <time>2022-06-25T07:41:25Z</time>
      </trkpt>
      <trkpt lat="46.63771" lon="5.13515">
        <ele>186.8</ele>
        <time>2022-06-25T07:41:26Z</time>
      </trkpt>
      <trkpt lat="46.63764" lon="5.1351">
        <ele>186.8</ele>
        <time>2022-06-25T07:41:27Z</time>
      </trkpt>
      <trkpt lat="46.63757" lon="5.13505">
        <ele>186.8</ele>
        <time>2022-06-25T07:41:28Z</time>
      </trkpt>
      <trkpt lat="46.6375" lon="5.135">
        <ele>186.8</ele>
        <time>2022-06-25T07:41:29Z</time>
      </trkpt>
      <trkpt lat="46.63744" lon="5.13496">
        <ele>186.8</ele>
        <time>2022-06-25T07:41:30Z</time>
      </trkpt>
      <trkpt lat="46.63737" lon="5.13491">
        <ele>186.8</ele>
        <time>2022-06-25T07:41:31Z</time>
      </trkpt>
      <trkpt lat="46.6373" lon="5.13486">
        <ele>186.8</ele>
        <time>2022-06-25T07:41:32Z</time>
      </trkpt>
      <trkpt lat="46.63723" lon="5.13482">
        <ele>186.8</ele>
        <time>2022-06-25T07:41:33Z</time>
      </trkpt>
      <trkpt lat="46.63716" lon="5.13477">
        <ele>186.8</ele>
        <time>2022-06-25T07:41:34Z</time>
      </trkpt>
      <trkpt lat="46.6371" lon="5.13472">
        <ele>186.8</ele>
        <time>2022-06-25T07:41:35Z</time>
      </trkpt>
      <trkpt lat="46.63703" lon="5.13467">
        <ele>186.6</ele>
        <time>2022-06-25T07:41:36Z</time>
      </trkpt>
      <trkpt lat="46.63696" lon="5.13463">
        <ele>186.6</ele>
        <time>2022-06-25T07:41:37Z</time>
      </trkpt>
      <trkpt lat="46.63689" lon="5.13458">
        <ele>186.6</ele>
        <time>2022-06-25T07:41:38Z</time>
      </trkpt>
      <trkpt lat="46.63682" lon="5.13454">
        <ele>186.6</ele>
        <time>2022-06-25T07:41:39Z</time>
      </trkpt>
      <trkpt lat="46.63675" lon="5.13449">
        <ele>186.6</ele>
        <time>2022-06-25T07:41:40Z</time>
      </trkpt>
      <trkpt lat="46.63669" lon="5.13445">
        <ele>186.6</ele>
        <time>2022-06-25T07:41:41Z</time>
      </trkpt>
      <trkpt lat="46.63662" lon="5.1344">
        <ele>186.6</ele>
        <time>2022-06-25T07:41:42Z</time>
      </trkpt>
      <trkpt lat="46.63655" lon="5.13435">
        <ele>186.6</ele>
        <time>2022-06-25T07:41:43Z</time>
      </trkpt>
      <trkpt lat="46.63648" lon="5.13431">
        <ele>186.6</ele>
        <time>2022-06-25T07:41:44Z</time>
      </trkpt>
      <trkpt lat="46.63641" lon="5.13426">
        <ele>186.6</ele>
        <time>2022-06-25T07:41:45Z</time>
      </trkpt>
      <trkpt lat="46.63634" lon="5.13421">
        <ele>186.6</ele>
        <time>2022-06-25T07:41:46Z</time>
      </trkpt>
      <trkpt lat="46.63627" lon="5.13417">
        <ele>186.6</ele>
        <time>2022-06-25T07:41:47Z</time>
      </trkpt>
      <trkpt lat="46.63621" lon="5.13412">
        <ele>186.6</ele>
        <time>2022-06-25T07:41:48Z</time>
      </trkpt>
      <trkpt lat="46.63614" lon="5.13406">
        <ele>186.6</ele>
        <time>2022-06-25T07:41:49Z</time>
      </trkpt>
      <trkpt lat="46.63608" lon="5.13401">
        <ele>186.4</ele>
        <time>2022-06-25T07:41:50Z</time>
      </trkpt>
      <trkpt lat="46.63602" lon="5.13395">
        <ele>186.4</ele>
        <time>2022-06-25T07:41:51Z</time>
      </trkpt>
      <trkpt lat="46.63596" lon="5.13388">
        <ele>186.4</ele>
        <time>2022-06-25T07:41:52Z</time>
      </trkpt>
      <trkpt lat="46.6359" lon="5.13381">
        <ele>186.4</ele>
        <time>2022-06-25T07:41:53Z</time>
      </trkpt>
      <trkpt lat="46.63585" lon="5.13374">
        <ele>186.4</ele>
        <time>2022-06-25T07:41:54Z</time>
      </trkpt>
      <trkpt lat="46.6358" lon="5.13367">
        <ele>186.2</ele>
        <time>2022-06-25T07:41:55Z</time>
      </trkpt>
      <trkpt lat="46.63574" lon="5.13359">
        <ele>186.2</ele>
        <time>2022-06-25T07:41:56Z</time>
      </trkpt>
      <trkpt lat="46.63569" lon="5.13352">
        <ele>186.2</ele>
        <time>2022-06-25T07:41:57Z</time>
      </trkpt>
      <trkpt lat="46.63565" lon="5.13345">
        <ele>186.2</ele>
        <time>2022-06-25T07:41:58Z</time>
      </trkpt>
      <trkpt lat="46.6356" lon="5.13337">
        <ele>186.2</ele>
        <time>2022-06-25T07:41:59Z</time>
      </trkpt>
      <trkpt lat="46.63555" lon="5.1333">
        <ele>186.2</ele>
        <time>2022-06-25T07:42:00Z</time>
      </trkpt>
      <trkpt lat="46.6355" lon="5.13323">
        <ele>186.2</ele>
        <time>2022-06-25T07:42:01Z</time>
      </trkpt>
      <trkpt lat="46.63546" lon="5.13316">
        <ele>186.2</ele>
        <time>2022-06-25T07:42:02Z</time>
      </trkpt>
      <trkpt lat="46.63541" lon="5.13309">
        <ele>186.2</ele>
        <time>2022-06-25T07:42:03Z</time>
      </trkpt>
      <trkpt lat="46.63536" lon="5.13302">
        <ele>186.2</ele>
        <time>2022-06-25T07:42:04Z</time>
      </trkpt>
      <trkpt lat="46.63531" lon="5.13295">
        <ele>186.2</ele>
        <time>2022-06-25T07:42:05Z</time>
      </trkpt>
      <trkpt lat="46.63527" lon="5.13288">
        <ele>186.2</ele>
        <time>2022-06-25T07:42:06Z</time>
      </trkpt>
      <trkpt lat="46.63522" lon="5.13281">
        <ele>186.2</ele>
        <time>2022-06-25T07:42:07Z</time>
      </trkpt>
      <trkpt lat="46.63517" lon="5.13273">
        <ele>186.2</ele>
        <time>2022-06-25T07:42:08Z</time>
      </trkpt>
      <trkpt lat="46.63512" lon="5.13266">
        <ele>186.2</ele>
        <time>2022-06-25T07:42:09Z</time>
      </trkpt>
      <trkpt lat="46.63508" lon="5.13259">
        <ele>186.2</ele>
        <time>2022-06-25T07:42:10Z</time>
      </trkpt>
      <trkpt lat="46.63503" lon="5.13251">
        <ele>186.2</ele>
        <time>2022-06-25T07:42:11Z</time>
      </trkpt>
      <trkpt lat="46.63499" lon="5.13244">
        <ele>186.2</ele>
        <time>2022-06-25T07:42:12Z</time>
      </trkpt>
      <trkpt lat="46.63494" lon="5.13236">
        <ele>186.2</ele>
        <time>2022-06-25T07:42:13Z</time>
      </trkpt>
      <trkpt lat="46.6349" lon="5.13229">
        <ele>186.2</ele>
        <time>2022-06-25T07:42:14Z</time>
      </trkpt>
      <trkpt lat="46.63485" lon="5.13222">
        <ele>186.2</ele>
        <time>2022-06-25T07:42:15Z</time>
      </trkpt>
      <trkpt lat="46.63481" lon="5.13215">
        <ele>186.2</ele>
        <time>2022-06-25T07:42:16Z</time>
      </trkpt>
      <trkpt lat="46.63476" lon="5.13207">
        <ele>186.2</ele>
        <time>2022-06-25T07:42:17Z</time>
      </trkpt>
      <trkpt lat="46.63472" lon="5.132">
        <ele>186.2</ele>
        <time>2022-06-25T07:42:18Z</time>
      </trkpt>
      <trkpt lat="46.63467" lon="5.13193">
        <ele>186.2</ele>
        <time>2022-06-25T07:42:19Z</time>
      </trkpt>
      <trkpt lat="46.63462" lon="5.13186">
        <ele>186.2</ele>
        <time>2022-06-25T07:42:20Z</time>
      </trkpt>
      <trkpt lat="46.63458" lon="5.13179">
        <ele>186.2</ele>
        <time>2022-06-25T07:42:21Z</time>
      </trkpt>
      <trkpt lat="46.63453" lon="5.13171">
        <ele>186.2</ele>
        <time>2022-06-25T07:42:22Z</time>
      </trkpt>
      <trkpt lat="46.63448" lon="5.13164">
        <ele>186.2</ele>
        <time>2022-06-25T07:42:23Z</time>
      </trkpt>
      <trkpt lat="46.63444" lon="5.13157">
        <ele>186.2</ele>
        <time>2022-06-25T07:42:24Z</time>
      </trkpt>
      <trkpt lat="46.6344" lon="5.1315">
        <ele>186.2</ele>
        <time>2022-06-25T07:42:25Z</time>
      </trkpt>
      <trkpt lat="46.63435" lon="5.13143">
        <ele>186.2</ele>
        <time>2022-06-25T07:42:26Z</time>
      </trkpt>
      <trkpt lat="46.63429" lon="5.13136">
        <ele>186.2</ele>
        <time>2022-06-25T07:42:27Z</time>
      </trkpt>
      <trkpt lat="46.63424" lon="5.13128">
        <ele>186.2</ele>
        <time>2022-06-25T07:42:28Z</time>
      </trkpt>
      <trkpt lat="46.63419" lon="5.13121">
        <ele>186.2</ele>
        <time>2022-06-25T07:42:29Z</time>
      </trkpt>
      <trkpt lat="46.63414" lon="5.13113">
        <ele>186.2</ele>
        <time>2022-06-25T07:42:30Z</time>
      </trkpt>
      <trkpt lat="46.63408" lon="5.13105">
        <ele>186</ele>
        <time>2022-06-25T07:42:31Z</time>
      </trkpt>
      <trkpt lat="46.63402" lon="5.13097">
        <ele>186</ele>
        <time>2022-06-25T07:42:32Z</time>
      </trkpt>
      <trkpt lat="46.63396" lon="5.13089">
        <ele>186</ele>
        <time>2022-06-25T07:42:33Z</time>
      </trkpt>
      <trkpt lat="46.6339" lon="5.13081">
        <ele>185.8</ele>
        <time>2022-06-25T07:42:34Z</time>
      </trkpt>
      <trkpt lat="46.63384" lon="5.13073">
        <ele>185.8</ele>
        <time>2022-06-25T07:42:35Z</time>
      </trkpt>
      <trkpt lat="46.63378" lon="5.13065">
        <ele>185.8</ele>
        <time>2022-06-25T07:42:36Z</time>
      </trkpt>
      <trkpt lat="46.63373" lon="5.13057">
        <ele>185.4</ele>
        <time>2022-06-25T07:42:37Z</time>
      </trkpt>
      <trkpt lat="46.63367" lon="5.13049">
        <ele>185.4</ele>
        <time>2022-06-25T07:42:38Z</time>
      </trkpt>
      <trkpt lat="46.63361" lon="5.13041">
        <ele>185.2</ele>
        <time>2022-06-25T07:42:39Z</time>
      </trkpt>
      <trkpt lat="46.63356" lon="5.13033">
        <ele>185.2</ele>
        <time>2022-06-25T07:42:40Z</time>
      </trkpt>
      <trkpt lat="46.63351" lon="5.13025">
        <ele>185</ele>
        <time>2022-06-25T07:42:41Z</time>
      </trkpt>
      <trkpt lat="46.63345" lon="5.13017">
        <ele>185</ele>
        <time>2022-06-25T07:42:42Z</time>
      </trkpt>
      <trkpt lat="46.6334" lon="5.1301">
        <ele>185</ele>
        <time>2022-06-25T07:42:43Z</time>
      </trkpt>
      <trkpt lat="46.63334" lon="5.13003">
        <ele>185</ele>
        <time>2022-06-25T07:42:44Z</time>
      </trkpt>
      <trkpt lat="46.63329" lon="5.12996">
        <ele>185</ele>
        <time>2022-06-25T07:42:45Z</time>
      </trkpt>
      <trkpt lat="46.63324" lon="5.12989">
        <ele>185.2</ele>
        <time>2022-06-25T07:42:46Z</time>
      </trkpt>
      <trkpt lat="46.63319" lon="5.12983">
        <ele>185.2</ele>
        <time>2022-06-25T07:42:47Z</time>
      </trkpt>
      <trkpt lat="46.63314" lon="5.12977">
        <ele>185.2</ele>
        <time>2022-06-25T07:42:48Z</time>
      </trkpt>
      <trkpt lat="46.63309" lon="5.12972">
        <ele>185.2</ele>
        <time>2022-06-25T07:42:49Z</time>
      </trkpt>
      <trkpt lat="46.63304" lon="5.12968">
        <ele>185.2</ele>
        <time>2022-06-25T07:42:50Z</time>
      </trkpt>
      <trkpt lat="46.63299" lon="5.12963">
        <ele>185.4</ele>
        <time>2022-06-25T07:42:51Z</time>
      </trkpt>
      <trkpt lat="46.63293" lon="5.12959">
        <ele>185.4</ele>
        <time>2022-06-25T07:42:52Z</time>
      </trkpt>
      <trkpt lat="46.63288" lon="5.12956">
        <ele>185.4</ele>
        <time>2022-06-25T07:42:53Z</time>
      </trkpt>
      <trkpt lat="46.63283" lon="5.12952">
        <ele>185.4</ele>
        <time>2022-06-25T07:42:54Z</time>
      </trkpt>
      <trkpt lat="46.63278" lon="5.12949">
        <ele>185.8</ele>
        <time>2022-06-25T07:42:55Z</time>
      </trkpt>
      <trkpt lat="46.63272" lon="5.12945">
        <ele>185.8</ele>
        <time>2022-06-25T07:42:56Z</time>
      </trkpt>
      <trkpt lat="46.63267" lon="5.12942">
        <ele>186</ele>
        <time>2022-06-25T07:42:57Z</time>
      </trkpt>
      <trkpt lat="46.63262" lon="5.12938">
        <ele>186</ele>
        <time>2022-06-25T07:42:58Z</time>
      </trkpt>
      <trkpt lat="46.63257" lon="5.12935">
        <ele>186.4</ele>
        <time>2022-06-25T07:42:59Z</time>
      </trkpt>
      <trkpt lat="46.63253" lon="5.12932">
        <ele>186.4</ele>
        <time>2022-06-25T07:43:00Z</time>
      </trkpt>
      <trkpt lat="46.63248" lon="5.12929">
        <ele>186.6</ele>
        <time>2022-06-25T07:43:01Z</time>
      </trkpt>
      <trkpt lat="46.63243" lon="5.12926">
        <ele>186.6</ele>
        <time>2022-06-25T07:43:02Z</time>
      </trkpt>
      <trkpt lat="46.63238" lon="5.12923">
        <ele>187</ele>
        <time>2022-06-25T07:43:03Z</time>
      </trkpt>
      <trkpt lat="46.63234" lon="5.12919">
        <ele>187.2</ele>
        <time>2022-06-25T07:43:04Z</time>
      </trkpt>
      <trkpt lat="46.63229" lon="5.12916">
        <ele>187.6</ele>
        <time>2022-06-25T07:43:06Z</time>
      </trkpt>
      <trkpt lat="46.63225" lon="5.12913">
        <ele>187.8</ele>
        <time>2022-06-25T07:43:07Z</time>
      </trkpt>
      <trkpt lat="46.6322" lon="5.1291">
        <ele>187.8</ele>
        <time>2022-06-25T07:43:08Z</time>
      </trkpt>
      <trkpt lat="46.63216" lon="5.12907">
        <ele>188.2</ele>
        <time>2022-06-25T07:43:09Z</time>
      </trkpt>
      <trkpt lat="46.63211" lon="5.12904">
        <ele>188.4</ele>
        <time>2022-06-25T07:43:10Z</time>
      </trkpt>
      <trkpt lat="46.63206" lon="5.129">
        <ele>188.4</ele>
        <time>2022-06-25T07:43:11Z</time>
      </trkpt>
      <trkpt lat="46.63202" lon="5.12897">
        <ele>188.8</ele>
        <time>2022-06-25T07:43:12Z</time>
      </trkpt>
      <trkpt lat="46.63197" lon="5.12893">
        <ele>189</ele>
        <time>2022-06-25T07:43:13Z</time>
      </trkpt>
      <trkpt lat="46.63192" lon="5.1289">
        <ele>189</ele>
        <time>2022-06-25T07:43:14Z</time>
      </trkpt>
      <trkpt lat="46.63188" lon="5.12887">
        <ele>189.4</ele>
        <time>2022-06-25T07:43:15Z</time>
      </trkpt>
      <trkpt lat="46.63183" lon="5.12884">
        <ele>189.4</ele>
        <time>2022-06-25T07:43:16Z</time>
      </trkpt>
      <trkpt lat="46.63178" lon="5.12881">
        <ele>189.4</ele>
        <time>2022-06-25T07:43:17Z</time>
      </trkpt>
      <trkpt lat="46.63173" lon="5.12878">
        <ele>189.8</ele>
        <time>2022-06-25T07:43:18Z</time>
      </trkpt>
      <trkpt lat="46.63169" lon="5.12875">
        <ele>189.8</ele>
        <time>2022-06-25T07:43:19Z</time>
      </trkpt>
      <trkpt lat="46.63164" lon="5.12871">
        <ele>189.8</ele>
        <time>2022-06-25T07:43:20Z</time>
      </trkpt>
      <trkpt lat="46.6316" lon="5.12868">
        <ele>190</ele>
        <time>2022-06-25T07:43:21Z</time>
      </trkpt>
      <trkpt lat="46.63155" lon="5.12864">
        <ele>190</ele>
        <time>2022-06-25T07:43:22Z</time>
      </trkpt>
      <trkpt lat="46.6315" lon="5.1286">
        <ele>190</ele>
        <time>2022-06-25T07:43:23Z</time>
      </trkpt>
      <trkpt lat="46.63145" lon="5.12855">
        <ele>190</ele>
        <time>2022-06-25T07:43:24Z</time>
      </trkpt>
      <trkpt lat="46.63141" lon="5.12851">
        <ele>190.2</ele>
        <time>2022-06-25T07:43:25Z</time>
      </trkpt>
      <trkpt lat="46.63137" lon="5.12846">
        <ele>190.2</ele>
        <time>2022-06-25T07:43:26Z</time>
      </trkpt>
      <trkpt lat="46.63133" lon="5.12841">
        <ele>190.6</ele>
        <time>2022-06-25T07:43:27Z</time>
      </trkpt>
      <trkpt lat="46.63129" lon="5.12835">
        <ele>190.6</ele>
        <time>2022-06-25T07:43:28Z</time>
      </trkpt>
      <trkpt lat="46.63127" lon="5.1283">
        <ele>190.8</ele>
        <time>2022-06-25T07:43:29Z</time>
      </trkpt>
      <trkpt lat="46.63124" lon="5.12824">
        <ele>190.8</ele>
        <time>2022-06-25T07:43:30Z</time>
      </trkpt>
      <trkpt lat="46.63121" lon="5.12818">
        <ele>191</ele>
        <time>2022-06-25T07:43:31Z</time>
      </trkpt>
      <trkpt lat="46.63118" lon="5.12811">
        <ele>191</ele>
        <time>2022-06-25T07:43:32Z</time>
      </trkpt>
      <trkpt lat="46.63116" lon="5.12805">
        <ele>191.2</ele>
        <time>2022-06-25T07:43:33Z</time>
      </trkpt>
      <trkpt lat="46.63114" lon="5.12799">
        <ele>191.2</ele>
        <time>2022-06-25T07:43:34Z</time>
      </trkpt>
      <trkpt lat="46.63112" lon="5.12792">
        <ele>191.6</ele>
        <time>2022-06-25T07:43:35Z</time>
      </trkpt>
      <trkpt lat="46.6311" lon="5.12786">
        <ele>191.6</ele>
        <time>2022-06-25T07:43:36Z</time>
      </trkpt>
      <trkpt lat="46.63109" lon="5.1278">
        <ele>192.2</ele>
        <time>2022-06-25T07:43:37Z</time>
      </trkpt>
      <trkpt lat="46.63107" lon="5.12774">
        <ele>192.4</ele>
        <time>2022-06-25T07:43:38Z</time>
      </trkpt>
      <trkpt lat="46.63105" lon="5.12768">
        <ele>192.6</ele>
        <time>2022-06-25T07:43:39Z</time>
      </trkpt>
      <trkpt lat="46.63103" lon="5.12762">
        <ele>192.8</ele>
        <time>2022-06-25T07:43:40Z</time>
      </trkpt>
      <trkpt lat="46.63102" lon="5.12755">
        <ele>192.8</ele>
        <time>2022-06-25T07:43:41Z</time>
      </trkpt>
      <trkpt lat="46.631" lon="5.12749">
        <ele>193.2</ele>
        <time>2022-06-25T07:43:42Z</time>
      </trkpt>
      <trkpt lat="46.63099" lon="5.12742">
        <ele>193.4</ele>
        <time>2022-06-25T07:43:43Z</time>
      </trkpt>
      <trkpt lat="46.63097" lon="5.12735">
        <ele>193.8</ele>
        <time>2022-06-25T07:43:44Z</time>
      </trkpt>
      <trkpt lat="46.63095" lon="5.12728">
        <ele>194</ele>
        <time>2022-06-25T07:43:45Z</time>
      </trkpt>
      <trkpt lat="46.63093" lon="5.12722">
        <ele>194.2</ele>
        <time>2022-06-25T07:43:46Z</time>
      </trkpt>
      <trkpt lat="46.63092" lon="5.12715">
        <ele>194.4</ele>
        <time>2022-06-25T07:43:47Z</time>
      </trkpt>
      <trkpt lat="46.6309" lon="5.12709">
        <ele>194.4</ele>
        <time>2022-06-25T07:43:48Z</time>
      </trkpt>
      <trkpt lat="46.63088" lon="5.12703">
        <ele>194.6</ele>
        <time>2022-06-25T07:43:49Z</time>
      </trkpt>
      <trkpt lat="46.63086" lon="5.12697">
        <ele>194.6</ele>
        <time>2022-06-25T07:43:50Z</time>
      </trkpt>
      <trkpt lat="46.63085" lon="5.12691">
        <ele>195.2</ele>
        <time>2022-06-25T07:43:51Z</time>
      </trkpt>
      <trkpt lat="46.63083" lon="5.12686">
        <ele>195.4</ele>
        <time>2022-06-25T07:43:52Z</time>
      </trkpt>
      <trkpt lat="46.63081" lon="5.1268">
        <ele>195.6</ele>
        <time>2022-06-25T07:43:53Z</time>
      </trkpt>
      <trkpt lat="46.6308" lon="5.12675">
        <ele>195.8</ele>
        <time>2022-06-25T07:43:54Z</time>
      </trkpt>
      <trkpt lat="46.63078" lon="5.12669">
        <ele>195.8</ele>
        <time>2022-06-25T07:43:55Z</time>
      </trkpt>
      <trkpt lat="46.63077" lon="5.12664">
        <ele>196.2</ele>
        <time>2022-06-25T07:43:56Z</time>
      </trkpt>
      <trkpt lat="46.63075" lon="5.12658">
        <ele>196.2</ele>
        <time>2022-06-25T07:43:57Z</time>
      </trkpt>
      <trkpt lat="46.63074" lon="5.12653">
        <ele>196.6</ele>
        <time>2022-06-25T07:43:58Z</time>
      </trkpt>
      <trkpt lat="46.63072" lon="5.12647">
        <ele>196.6</ele>
        <time>2022-06-25T07:43:59Z</time>
      </trkpt>
      <trkpt lat="46.6307" lon="5.12641">
        <ele>196.8</ele>
        <time>2022-06-25T07:44:00Z</time>
      </trkpt>
      <trkpt lat="46.63068" lon="5.12635">
        <ele>197</ele>
        <time>2022-06-25T07:44:01Z</time>
      </trkpt>
      <trkpt lat="46.63067" lon="5.12629">
        <ele>197</ele>
        <time>2022-06-25T07:44:02Z</time>
      </trkpt>
      <trkpt lat="46.63065" lon="5.12623">
        <ele>197.4</ele>
        <time>2022-06-25T07:44:03Z</time>
      </trkpt>
      <trkpt lat="46.63063" lon="5.12616">
        <ele>197.4</ele>
        <time>2022-06-25T07:44:04Z</time>
      </trkpt>
      <trkpt lat="46.63061" lon="5.12609">
        <ele>197.8</ele>
        <time>2022-06-25T07:44:05Z</time>
      </trkpt>
      <trkpt lat="46.63059" lon="5.12603">
        <ele>197.8</ele>
        <time>2022-06-25T07:44:06Z</time>
      </trkpt>
      <trkpt lat="46.63057" lon="5.12596">
        <ele>198</ele>
        <time>2022-06-25T07:44:07Z</time>
      </trkpt>
      <trkpt lat="46.63056" lon="5.12589">
        <ele>198</ele>
        <time>2022-06-25T07:44:08Z</time>
      </trkpt>
      <trkpt lat="46.63054" lon="5.12582">
        <ele>198.2</ele>
        <time>2022-06-25T07:44:09Z</time>
      </trkpt>
      <trkpt lat="46.63052" lon="5.12576">
        <ele>198.2</ele>
        <time>2022-06-25T07:44:10Z</time>
      </trkpt>
      <trkpt lat="46.6305" lon="5.12569">
        <ele>198.6</ele>
        <time>2022-06-25T07:44:11Z</time>
      </trkpt>
      <trkpt lat="46.63048" lon="5.12562">
        <ele>198.6</ele>
        <time>2022-06-25T07:44:12Z</time>
      </trkpt>
      <trkpt lat="46.63046" lon="5.12555">
        <ele>198.8</ele>
        <time>2022-06-25T07:44:13Z</time>
      </trkpt>
      <trkpt lat="46.63044" lon="5.12547">
        <ele>198.8</ele>
        <time>2022-06-25T07:44:14Z</time>
      </trkpt>
      <trkpt lat="46.63042" lon="5.1254">
        <ele>198.8</ele>
        <time>2022-06-25T07:44:15Z</time>
      </trkpt>
      <trkpt lat="46.6304" lon="5.12533">
        <ele>199</ele>
        <time>2022-06-25T07:44:16Z</time>
      </trkpt>
      <trkpt lat="46.63038" lon="5.12525">
        <ele>199</ele>
        <time>2022-06-25T07:44:17Z</time>
      </trkpt>
      <trkpt lat="46.63036" lon="5.12518">
        <ele>199</ele>
        <time>2022-06-25T07:44:18Z</time>
      </trkpt>
      <trkpt lat="46.63034" lon="5.1251">
        <ele>199</ele>
        <time>2022-06-25T07:44:19Z</time>
      </trkpt>
      <trkpt lat="46.63031" lon="5.12502">
        <ele>199.2</ele>
        <time>2022-06-25T07:44:20Z</time>
      </trkpt>
      <trkpt lat="46.63029" lon="5.12494">
        <ele>199.2</ele>
        <time>2022-06-25T07:44:21Z</time>
      </trkpt>
      <trkpt lat="46.63027" lon="5.12487">
        <ele>199.2</ele>
        <time>2022-06-25T07:44:22Z</time>
      </trkpt>
      <trkpt lat="46.63025" lon="5.12479">
        <ele>199.6</ele>
        <time>2022-06-25T07:44:23Z</time>
      </trkpt>
      <trkpt lat="46.63023" lon="5.12472">
        <ele>199.6</ele>
        <time>2022-06-25T07:44:24Z</time>
      </trkpt>
      <trkpt lat="46.6302" lon="5.12464">
        <ele>199.6</ele>
        <time>2022-06-25T07:44:25Z</time>
      </trkpt>
      <trkpt lat="46.63018" lon="5.12456">
        <ele>199.6</ele>
        <time>2022-06-25T07:44:26Z</time>
      </trkpt>
      <trkpt lat="46.63016" lon="5.12449">
        <ele>199.8</ele>
        <time>2022-06-25T07:44:27Z</time>
      </trkpt>
      <trkpt lat="46.63014" lon="5.12441">
        <ele>199.8</ele>
        <time>2022-06-25T07:44:28Z</time>
      </trkpt>
      <trkpt lat="46.63012" lon="5.12434">
        <ele>200.2</ele>
        <time>2022-06-25T07:44:29Z</time>
      </trkpt>
      <trkpt lat="46.6301" lon="5.12427">
        <ele>200.4</ele>
        <time>2022-06-25T07:44:30Z</time>
      </trkpt>
      <trkpt lat="46.63008" lon="5.1242">
        <ele>200.6</ele>
        <time>2022-06-25T07:44:31Z</time>
      </trkpt>
      <trkpt lat="46.63006" lon="5.12414">
        <ele>200.8</ele>
        <time>2022-06-25T07:44:32Z</time>
      </trkpt>
      <trkpt lat="46.63005" lon="5.12408">
        <ele>201</ele>
        <time>2022-06-25T07:44:33Z</time>
      </trkpt>
      <trkpt lat="46.63003" lon="5.12402">
        <ele>201.4</ele>
        <time>2022-06-25T07:44:34Z</time>
      </trkpt>
      <trkpt lat="46.63001" lon="5.12395">
        <ele>201.6</ele>
        <time>2022-06-25T07:44:35Z</time>
      </trkpt>
      <trkpt lat="46.63" lon="5.12389">
        <ele>201.8</ele>
        <time>2022-06-25T07:44:36Z</time>
      </trkpt>
      <trkpt lat="46.62998" lon="5.12383">
        <ele>202</ele>
        <time>2022-06-25T07:44:37Z</time>
      </trkpt>
      <trkpt lat="46.62996" lon="5.12376">
        <ele>202.2</ele>
        <time>2022-06-25T07:44:38Z</time>
      </trkpt>
      <trkpt lat="46.62994" lon="5.12369">
        <ele>202.2</ele>
        <time>2022-06-25T07:44:39Z</time>
      </trkpt>
      <trkpt lat="46.62992" lon="5.12363">
        <ele>202.6</ele>
        <time>2022-06-25T07:44:40Z</time>
      </trkpt>
      <trkpt lat="46.6299" lon="5.12356">
        <ele>202.6</ele>
        <time>2022-06-25T07:44:41Z</time>
      </trkpt>
      <trkpt lat="46.62988" lon="5.12349">
        <ele>203</ele>
        <time>2022-06-25T07:44:42Z</time>
      </trkpt>
      <trkpt lat="46.62986" lon="5.12343">
        <ele>203.2</ele>
        <time>2022-06-25T07:44:43Z</time>
      </trkpt>
      <trkpt lat="46.62985" lon="5.12336">
        <ele>203.4</ele>
        <time>2022-06-25T07:44:44Z</time>
      </trkpt>
      <trkpt lat="46.62983" lon="5.12329">
        <ele>203.8</ele>
        <time>2022-06-25T07:44:45Z</time>
      </trkpt>
      <trkpt lat="46.62981" lon="5.12323">
        <ele>204.2</ele>
        <time>2022-06-25T07:44:46Z</time>
      </trkpt>
      <trkpt lat="46.62979" lon="5.12316">
        <ele>204.4</ele>
        <time>2022-06-25T07:44:47Z</time>
      </trkpt>
      <trkpt lat="46.62977" lon="5.12309">
        <ele>204.6</ele>
        <time>2022-06-25T07:44:48Z</time>
      </trkpt>
      <trkpt lat="46.62976" lon="5.12302">
        <ele>204.6</ele>
        <time>2022-06-25T07:44:49Z</time>
      </trkpt>
      <trkpt lat="46.62974" lon="5.12295">
        <ele>205</ele>
        <time>2022-06-25T07:44:50Z</time>
      </trkpt>
      <trkpt lat="46.62972" lon="5.12288">
        <ele>205</ele>
        <time>2022-06-25T07:44:51Z</time>
      </trkpt>
      <trkpt lat="46.6297" lon="5.12281">
        <ele>205.2</ele>
        <time>2022-06-25T07:44:52Z</time>
      </trkpt>
      <trkpt lat="46.62968" lon="5.12274">
        <ele>205.2</ele>
        <time>2022-06-25T07:44:53Z</time>
      </trkpt>
      <trkpt lat="46.62966" lon="5.12267">
        <ele>205.6</ele>
        <time>2022-06-25T07:44:54Z</time>
      </trkpt>
      <trkpt lat="46.62965" lon="5.12259">
        <ele>205.6</ele>
        <time>2022-06-25T07:44:55Z</time>
      </trkpt>
      <trkpt lat="46.62963" lon="5.12252">
        <ele>205.6</ele>
        <time>2022-06-25T07:44:56Z</time>
      </trkpt>
      <trkpt lat="46.62962" lon="5.12246">
        <ele>205.6</ele>
        <time>2022-06-25T07:44:57Z</time>
      </trkpt>
      <trkpt lat="46.6296" lon="5.12239">
        <ele>205.8</ele>
        <time>2022-06-25T07:44:58Z</time>
      </trkpt>
      <trkpt lat="46.62958" lon="5.12232">
        <ele>205.8</ele>
        <time>2022-06-25T07:44:59Z</time>
      </trkpt>
      <trkpt lat="46.62957" lon="5.12225">
        <ele>205.8</ele>
        <time>2022-06-25T07:45:00Z</time>
      </trkpt>
      <trkpt lat="46.62955" lon="5.12217">
        <ele>205.8</ele>
        <time>2022-06-25T07:45:01Z</time>
      </trkpt>
      <trkpt lat="46.62953" lon="5.12209">
        <ele>205.8</ele>
        <time>2022-06-25T07:45:02Z</time>
      </trkpt>
      <trkpt lat="46.62951" lon="5.12202">
        <ele>205.8</ele>
        <time>2022-06-25T07:45:03Z</time>
      </trkpt>
      <trkpt lat="46.62949" lon="5.12194">
        <ele>205.8</ele>
        <time>2022-06-25T07:45:04Z</time>
      </trkpt>
      <trkpt lat="46.62948" lon="5.12185">
        <ele>205.8</ele>
        <time>2022-06-25T07:45:05Z</time>
      </trkpt>
      <trkpt lat="46.62946" lon="5.12178">
        <ele>205.8</ele>
        <time>2022-06-25T07:45:06Z</time>
      </trkpt>
      <trkpt lat="46.62944" lon="5.1217">
        <ele>205.8</ele>
        <time>2022-06-25T07:45:07Z</time>
      </trkpt>
      <trkpt lat="46.62942" lon="5.12163">
        <ele>205.8</ele>
        <time>2022-06-25T07:45:08Z</time>
      </trkpt>
      <trkpt lat="46.62941" lon="5.12155">
        <ele>205.8</ele>
        <time>2022-06-25T07:45:09Z</time>
      </trkpt>
      <trkpt lat="46.6294" lon="5.12148">
        <ele>205.8</ele>
        <time>2022-06-25T07:45:10Z</time>
      </trkpt>
      <trkpt lat="46.62938" lon="5.12141">
        <ele>205.8</ele>
        <time>2022-06-25T07:45:11Z</time>
      </trkpt>
      <trkpt lat="46.62937" lon="5.12133">
        <ele>205.8</ele>
        <time>2022-06-25T07:45:12Z</time>
      </trkpt>
      <trkpt lat="46.62935" lon="5.12125">
        <ele>205.8</ele>
        <time>2022-06-25T07:45:13Z</time>
      </trkpt>
      <trkpt lat="46.62932" lon="5.12117">
        <ele>205.8</ele>
        <time>2022-06-25T07:45:14Z</time>
      </trkpt>
      <trkpt lat="46.6293" lon="5.12109">
        <ele>205.8</ele>
        <time>2022-06-25T07:45:15Z</time>
      </trkpt>
      <trkpt lat="46.62928" lon="5.12101">
        <ele>205.8</ele>
        <time>2022-06-25T07:45:16Z</time>
      </trkpt>
      <trkpt lat="46.62927" lon="5.12092">
        <ele>205.8</ele>
        <time>2022-06-25T07:45:17Z</time>
      </trkpt>
      <trkpt lat="46.62925" lon="5.12084">
        <ele>205.8</ele>
        <time>2022-06-25T07:45:18Z</time>
      </trkpt>
      <trkpt lat="46.62923" lon="5.12075">
        <ele>205.8</ele>
        <time>2022-06-25T07:45:19Z</time>
      </trkpt>
      <trkpt lat="46.62921" lon="5.12067">
        <ele>205.8</ele>
        <time>2022-06-25T07:45:20Z</time>
      </trkpt>
      <trkpt lat="46.6292" lon="5.12058">
        <ele>205.8</ele>
        <time>2022-06-25T07:45:21Z</time>
      </trkpt>
      <trkpt lat="46.62918" lon="5.12049">
        <ele>205.8</ele>
        <time>2022-06-25T07:45:22Z</time>
      </trkpt>
      <trkpt lat="46.62916" lon="5.1204">
        <ele>205.8</ele>
        <time>2022-06-25T07:45:23Z</time>
      </trkpt>
      <trkpt lat="46.62914" lon="5.12031">
        <ele>205.4</ele>
        <time>2022-06-25T07:45:24Z</time>
      </trkpt>
      <trkpt lat="46.62912" lon="5.12022">
        <ele>205.4</ele>
        <time>2022-06-25T07:45:25Z</time>
      </trkpt>
      <trkpt lat="46.62911" lon="5.12013">
        <ele>205.2</ele>
        <time>2022-06-25T07:45:26Z</time>
      </trkpt>
      <trkpt lat="46.62907" lon="5.11998">
        <ele>204.8</ele>
        <time>2022-06-25T07:45:27Z</time>
      </trkpt>
      <trkpt lat="46.62906" lon="5.11993">
        <ele>204.8</ele>
        <time>2022-06-25T07:45:28Z</time>
      </trkpt>
      <trkpt lat="46.62903" lon="5.11983">
        <ele>204.4</ele>
        <time>2022-06-25T07:45:29Z</time>
      </trkpt>
      <trkpt lat="46.62901" lon="5.11972">
        <ele>204.2</ele>
        <time>2022-06-25T07:45:30Z</time>
      </trkpt>
      <trkpt lat="46.62899" lon="5.11962">
        <ele>204</ele>
        <time>2022-06-25T07:45:31Z</time>
      </trkpt>
      <trkpt lat="46.62897" lon="5.11951">
        <ele>203.6</ele>
        <time>2022-06-25T07:45:32Z</time>
      </trkpt>
      <trkpt lat="46.62894" lon="5.11939">
        <ele>203.4</ele>
        <time>2022-06-25T07:45:33Z</time>
      </trkpt>
      <trkpt lat="46.62892" lon="5.11927">
        <ele>203.2</ele>
        <time>2022-06-25T07:45:34Z</time>
      </trkpt>
      <trkpt lat="46.62889" lon="5.11915">
        <ele>203</ele>
        <time>2022-06-25T07:45:35Z</time>
      </trkpt>
      <trkpt lat="46.62886" lon="5.11903">
        <ele>203</ele>
        <time>2022-06-25T07:45:36Z</time>
      </trkpt>
      <trkpt lat="46.62883" lon="5.1189">
        <ele>202.6</ele>
        <time>2022-06-25T07:45:37Z</time>
      </trkpt>
      <trkpt lat="46.62881" lon="5.11878">
        <ele>202.6</ele>
        <time>2022-06-25T07:45:38Z</time>
      </trkpt>
      <trkpt lat="46.62877" lon="5.11855">
        <ele>202.2</ele>
        <time>2022-06-25T07:45:39Z</time>
      </trkpt>
      <trkpt lat="46.62875" lon="5.11843">
        <ele>202.2</ele>
        <time>2022-06-25T07:45:40Z</time>
      </trkpt>
      <trkpt lat="46.62873" lon="5.11832">
        <ele>202.2</ele>
        <time>2022-06-25T07:45:41Z</time>
      </trkpt>
      <trkpt lat="46.6287" lon="5.11821">
        <ele>202.2</ele>
        <time>2022-06-25T07:45:42Z</time>
      </trkpt>
      <trkpt lat="46.62868" lon="5.1181">
        <ele>202.2</ele>
        <time>2022-06-25T07:45:43Z</time>
      </trkpt>
      <trkpt lat="46.62866" lon="5.118">
        <ele>202.2</ele>
        <time>2022-06-25T07:45:44Z</time>
      </trkpt>
      <trkpt lat="46.62864" lon="5.1179">
        <ele>202.2</ele>
        <time>2022-06-25T07:45:45Z</time>
      </trkpt>
      <trkpt lat="46.62861" lon="5.1178">
        <ele>202.2</ele>
        <time>2022-06-25T07:45:46Z</time>
      </trkpt>
      <trkpt lat="46.62859" lon="5.1177">
        <ele>202.2</ele>
        <time>2022-06-25T07:45:47Z</time>
      </trkpt>
      <trkpt lat="46.62857" lon="5.11761">
        <ele>202.2</ele>
        <time>2022-06-25T07:45:48Z</time>
      </trkpt>
      <trkpt lat="46.62855" lon="5.11751">
        <ele>202.2</ele>
        <time>2022-06-25T07:45:49Z</time>
      </trkpt>
      <trkpt lat="46.62853" lon="5.11741">
        <ele>202.2</ele>
        <time>2022-06-25T07:45:50Z</time>
      </trkpt>
      <trkpt lat="46.62851" lon="5.11732">
        <ele>202.4</ele>
        <time>2022-06-25T07:45:51Z</time>
      </trkpt>
      <trkpt lat="46.62849" lon="5.11723">
        <ele>202.4</ele>
        <time>2022-06-25T07:45:52Z</time>
      </trkpt>
      <trkpt lat="46.62847" lon="5.11714">
        <ele>202.8</ele>
        <time>2022-06-25T07:45:53Z</time>
      </trkpt>
      <trkpt lat="46.62846" lon="5.11705">
        <ele>202.8</ele>
        <time>2022-06-25T07:45:54Z</time>
      </trkpt>
      <trkpt lat="46.62844" lon="5.11697">
        <ele>203</ele>
        <time>2022-06-25T07:45:55Z</time>
      </trkpt>
      <trkpt lat="46.62842" lon="5.11689">
        <ele>203</ele>
        <time>2022-06-25T07:45:56Z</time>
      </trkpt>
      <trkpt lat="46.6284" lon="5.11681">
        <ele>203.4</ele>
        <time>2022-06-25T07:45:57Z</time>
      </trkpt>
      <trkpt lat="46.62839" lon="5.11673">
        <ele>203.4</ele>
        <time>2022-06-25T07:45:58Z</time>
      </trkpt>
      <trkpt lat="46.62837" lon="5.11665">
        <ele>203.6</ele>
        <time>2022-06-25T07:45:59Z</time>
      </trkpt>
      <trkpt lat="46.62836" lon="5.11657">
        <ele>203.6</ele>
        <time>2022-06-25T07:46:00Z</time>
      </trkpt>
      <trkpt lat="46.62834" lon="5.1165">
        <ele>204</ele>
        <time>2022-06-25T07:46:01Z</time>
      </trkpt>
      <trkpt lat="46.62832" lon="5.11642">
        <ele>204.2</ele>
        <time>2022-06-25T07:46:02Z</time>
      </trkpt>
      <trkpt lat="46.62831" lon="5.11635">
        <ele>204.2</ele>
        <time>2022-06-25T07:46:03Z</time>
      </trkpt>
      <trkpt lat="46.62829" lon="5.11628">
        <ele>204.4</ele>
        <time>2022-06-25T07:46:04Z</time>
      </trkpt>
      <trkpt lat="46.62828" lon="5.1162">
        <ele>204.4</ele>
        <time>2022-06-25T07:46:05Z</time>
      </trkpt>
      <trkpt lat="46.62826" lon="5.11613">
        <ele>204.8</ele>
        <time>2022-06-25T07:46:06Z</time>
      </trkpt>
      <trkpt lat="46.62825" lon="5.11606">
        <ele>204.8</ele>
        <time>2022-06-25T07:46:07Z</time>
      </trkpt>
      <trkpt lat="46.62823" lon="5.11598">
        <ele>204.8</ele>
        <time>2022-06-25T07:46:08Z</time>
      </trkpt>
      <trkpt lat="46.62822" lon="5.11591">
        <ele>205</ele>
        <time>2022-06-25T07:46:09Z</time>
      </trkpt>
      <trkpt lat="46.6282" lon="5.11583">
        <ele>205</ele>
        <time>2022-06-25T07:46:10Z</time>
      </trkpt>
      <trkpt lat="46.62818" lon="5.11575">
        <ele>205</ele>
        <time>2022-06-25T07:46:11Z</time>
      </trkpt>
      <trkpt lat="46.62817" lon="5.11567">
        <ele>205</ele>
        <time>2022-06-25T07:46:12Z</time>
      </trkpt>
      <trkpt lat="46.62814" lon="5.11559">
        <ele>205.2</ele>
        <time>2022-06-25T07:46:13Z</time>
      </trkpt>
      <trkpt lat="46.62812" lon="5.11551">
        <ele>205.2</ele>
        <time>2022-06-25T07:46:14Z</time>
      </trkpt>
      <trkpt lat="46.62809" lon="5.11543">
        <ele>205.2</ele>
        <time>2022-06-25T07:46:15Z</time>
      </trkpt>
      <trkpt lat="46.62805" lon="5.11535">
        <ele>205.2</ele>
        <time>2022-06-25T07:46:16Z</time>
      </trkpt>
      <trkpt lat="46.62801" lon="5.11528">
        <ele>205.2</ele>
        <time>2022-06-25T07:46:17Z</time>
      </trkpt>
      <trkpt lat="46.62796" lon="5.11521">
        <ele>205.2</ele>
        <time>2022-06-25T07:46:18Z</time>
      </trkpt>
      <trkpt lat="46.62791" lon="5.11515">
        <ele>205.4</ele>
        <time>2022-06-25T07:46:19Z</time>
      </trkpt>
      <trkpt lat="46.62787" lon="5.11509">
        <ele>205.4</ele>
        <time>2022-06-25T07:46:20Z</time>
      </trkpt>
      <trkpt lat="46.62782" lon="5.11503">
        <ele>205.4</ele>
        <time>2022-06-25T07:46:21Z</time>
      </trkpt>
      <trkpt lat="46.62777" lon="5.11498">
        <ele>205.4</ele>
        <time>2022-06-25T07:46:22Z</time>
      </trkpt>
      <trkpt lat="46.62772" lon="5.11492">
        <ele>205.4</ele>
        <time>2022-06-25T07:46:23Z</time>
      </trkpt>
      <trkpt lat="46.62767" lon="5.11486">
        <ele>205.4</ele>
        <time>2022-06-25T07:46:24Z</time>
      </trkpt>
      <trkpt lat="46.62762" lon="5.11481">
        <ele>205.4</ele>
        <time>2022-06-25T07:46:25Z</time>
      </trkpt>
      <trkpt lat="46.62757" lon="5.11475">
        <ele>205.4</ele>
        <time>2022-06-25T07:46:26Z</time>
      </trkpt>
      <trkpt lat="46.62752" lon="5.11469">
        <ele>205.4</ele>
        <time>2022-06-25T07:46:27Z</time>
      </trkpt>
      <trkpt lat="46.62747" lon="5.11464">
        <ele>205.4</ele>
        <time>2022-06-25T07:46:28Z</time>
      </trkpt>
      <trkpt lat="46.62742" lon="5.11458">
        <ele>205.4</ele>
        <time>2022-06-25T07:46:29Z</time>
      </trkpt>
      <trkpt lat="46.62737" lon="5.11453">
        <ele>205.4</ele>
        <time>2022-06-25T07:46:30Z</time>
      </trkpt>
      <trkpt lat="46.62732" lon="5.11447">
        <ele>205.4</ele>
        <time>2022-06-25T07:46:31Z</time>
      </trkpt>
      <trkpt lat="46.62727" lon="5.11442">
        <ele>205.4</ele>
        <time>2022-06-25T07:46:32Z</time>
      </trkpt>
      <trkpt lat="46.62722" lon="5.11437">
        <ele>205.4</ele>
        <time>2022-06-25T07:46:33Z</time>
      </trkpt>
      <trkpt lat="46.62718" lon="5.11431">
        <ele>205.2</ele>
        <time>2022-06-25T07:46:34Z</time>
      </trkpt>
      <trkpt lat="46.62713" lon="5.11426">
        <ele>205.2</ele>
        <time>2022-06-25T07:46:35Z</time>
      </trkpt>
      <trkpt lat="46.62708" lon="5.1142">
        <ele>205.2</ele>
        <time>2022-06-25T07:46:36Z</time>
      </trkpt>
      <trkpt lat="46.62703" lon="5.11414">
        <ele>205</ele>
        <time>2022-06-25T07:46:37Z</time>
      </trkpt>
      <trkpt lat="46.62697" lon="5.11408">
        <ele>205</ele>
        <time>2022-06-25T07:46:38Z</time>
      </trkpt>
      <trkpt lat="46.62692" lon="5.11402">
        <ele>205</ele>
        <time>2022-06-25T07:46:39Z</time>
      </trkpt>
      <trkpt lat="46.62687" lon="5.11396">
        <ele>205</ele>
        <time>2022-06-25T07:46:40Z</time>
      </trkpt>
      <trkpt lat="46.62681" lon="5.1139">
        <ele>205</ele>
        <time>2022-06-25T07:46:41Z</time>
      </trkpt>
      <trkpt lat="46.62676" lon="5.11384">
        <ele>205</ele>
        <time>2022-06-25T07:46:42Z</time>
      </trkpt>
      <trkpt lat="46.6267" lon="5.11378">
        <ele>205</ele>
        <time>2022-06-25T07:46:43Z</time>
      </trkpt>
      <trkpt lat="46.62665" lon="5.11371">
        <ele>205</ele>
        <time>2022-06-25T07:46:44Z</time>
      </trkpt>
      <trkpt lat="46.6266" lon="5.11364">
        <ele>205</ele>
        <time>2022-06-25T07:46:45Z</time>
      </trkpt>
      <trkpt lat="46.62655" lon="5.11357">
        <ele>205</ele>
        <time>2022-06-25T07:46:46Z</time>
      </trkpt>
      <trkpt lat="46.6265" lon="5.1135">
        <ele>205</ele>
        <time>2022-06-25T07:46:47Z</time>
      </trkpt>
      <trkpt lat="46.62646" lon="5.11342">
        <ele>204.8</ele>
        <time>2022-06-25T07:46:48Z</time>
      </trkpt>
      <trkpt lat="46.62642" lon="5.11334">
        <ele>204.8</ele>
        <time>2022-06-25T07:46:49Z</time>
      </trkpt>
      <trkpt lat="46.62638" lon="5.11326">
        <ele>204.6</ele>
        <time>2022-06-25T07:46:50Z</time>
      </trkpt>
      <trkpt lat="46.62633" lon="5.11317">
        <ele>204.6</ele>
        <time>2022-06-25T07:46:51Z</time>
      </trkpt>
      <trkpt lat="46.62629" lon="5.11308">
        <ele>204.6</ele>
        <time>2022-06-25T07:46:52Z</time>
      </trkpt>
      <trkpt lat="46.62625" lon="5.11299">
        <ele>204.2</ele>
        <time>2022-06-25T07:46:53Z</time>
      </trkpt>
      <trkpt lat="46.62621" lon="5.1129">
        <ele>204.2</ele>
        <time>2022-06-25T07:46:54Z</time>
      </trkpt>
      <trkpt lat="46.62617" lon="5.11281">
        <ele>204</ele>
        <time>2022-06-25T07:46:55Z</time>
      </trkpt>
      <trkpt lat="46.62613" lon="5.11272">
        <ele>203.8</ele>
        <time>2022-06-25T07:46:56Z</time>
      </trkpt>
      <trkpt lat="46.62609" lon="5.11263">
        <ele>203.8</ele>
        <time>2022-06-25T07:46:57Z</time>
      </trkpt>
      <trkpt lat="46.62604" lon="5.11253">
        <ele>203.6</ele>
        <time>2022-06-25T07:46:58Z</time>
      </trkpt>
      <trkpt lat="46.62599" lon="5.11244">
        <ele>203.6</ele>
        <time>2022-06-25T07:46:59Z</time>
      </trkpt>
      <trkpt lat="46.62595" lon="5.11234">
        <ele>203.4</ele>
        <time>2022-06-25T07:47:00Z</time>
      </trkpt>
      <trkpt lat="46.6259" lon="5.11224">
        <ele>203.2</ele>
        <time>2022-06-25T07:47:01Z</time>
      </trkpt>
      <trkpt lat="46.62586" lon="5.11215">
        <ele>203.2</ele>
        <time>2022-06-25T07:47:02Z</time>
      </trkpt>
      <trkpt lat="46.62581" lon="5.11205">
        <ele>203</ele>
        <time>2022-06-25T07:47:03Z</time>
      </trkpt>
      <trkpt lat="46.62577" lon="5.11196">
        <ele>203</ele>
        <time>2022-06-25T07:47:04Z</time>
      </trkpt>
      <trkpt lat="46.62572" lon="5.11187">
        <ele>203</ele>
        <time>2022-06-25T07:47:05Z</time>
      </trkpt>
      <trkpt lat="46.62568" lon="5.11177">
        <ele>203</ele>
        <time>2022-06-25T07:47:06Z</time>
      </trkpt>
      <trkpt lat="46.62564" lon="5.11168">
        <ele>203</ele>
        <time>2022-06-25T07:47:07Z</time>
      </trkpt>
      <trkpt lat="46.6256" lon="5.11159">
        <ele>203</ele>
        <time>2022-06-25T07:47:08Z</time>
      </trkpt>
      <trkpt lat="46.62555" lon="5.1115">
        <ele>203</ele>
        <time>2022-06-25T07:47:09Z</time>
      </trkpt>
      <trkpt lat="46.62551" lon="5.11141">
        <ele>203</ele>
        <time>2022-06-25T07:47:10Z</time>
      </trkpt>
      <trkpt lat="46.62547" lon="5.11133">
        <ele>203</ele>
        <time>2022-06-25T07:47:11Z</time>
      </trkpt>
      <trkpt lat="46.62543" lon="5.11125">
        <ele>203</ele>
        <time>2022-06-25T07:47:12Z</time>
      </trkpt>
      <trkpt lat="46.62539" lon="5.11117">
        <ele>203</ele>
        <time>2022-06-25T07:47:13Z</time>
      </trkpt>
      <trkpt lat="46.62536" lon="5.11109">
        <ele>203</ele>
        <time>2022-06-25T07:47:14Z</time>
      </trkpt>
      <trkpt lat="46.62532" lon="5.11101">
        <ele>203</ele>
        <time>2022-06-25T07:47:15Z</time>
      </trkpt>
      <trkpt lat="46.62528" lon="5.11093">
        <ele>203</ele>
        <time>2022-06-25T07:47:16Z</time>
      </trkpt>
      <trkpt lat="46.62524" lon="5.11085">
        <ele>203</ele>
        <time>2022-06-25T07:47:17Z</time>
      </trkpt>
      <trkpt lat="46.62521" lon="5.11078">
        <ele>203.2</ele>
        <time>2022-06-25T07:47:18Z</time>
      </trkpt>
      <trkpt lat="46.62517" lon="5.1107">
        <ele>203.2</ele>
        <time>2022-06-25T07:47:19Z</time>
      </trkpt>
      <trkpt lat="46.62514" lon="5.11063">
        <ele>203.4</ele>
        <time>2022-06-25T07:47:20Z</time>
      </trkpt>
      <trkpt lat="46.6251" lon="5.11055">
        <ele>203.4</ele>
        <time>2022-06-25T07:47:21Z</time>
      </trkpt>
      <trkpt lat="46.62507" lon="5.11048">
        <ele>203.8</ele>
        <time>2022-06-25T07:47:22Z</time>
      </trkpt>
      <trkpt lat="46.62503" lon="5.1104">
        <ele>203.8</ele>
        <time>2022-06-25T07:47:23Z</time>
      </trkpt>
      <trkpt lat="46.625" lon="5.11033">
        <ele>203.8</ele>
        <time>2022-06-25T07:47:24Z</time>
      </trkpt>
      <trkpt lat="46.62496" lon="5.11025">
        <ele>204</ele>
        <time>2022-06-25T07:47:25Z</time>
      </trkpt>
      <trkpt lat="46.62493" lon="5.11018">
        <ele>204</ele>
        <time>2022-06-25T07:47:26Z</time>
      </trkpt>
      <trkpt lat="46.6249" lon="5.11011">
        <ele>204</ele>
        <time>2022-06-25T07:47:27Z</time>
      </trkpt>
      <trkpt lat="46.62486" lon="5.11003">
        <ele>204.2</ele>
        <time>2022-06-25T07:47:28Z</time>
      </trkpt>
      <trkpt lat="46.62483" lon="5.10996">
        <ele>204.2</ele>
        <time>2022-06-25T07:47:29Z</time>
      </trkpt>
      <trkpt lat="46.62479" lon="5.10988">
        <ele>204.6</ele>
        <time>2022-06-25T07:47:30Z</time>
      </trkpt>
      <trkpt lat="46.62476" lon="5.10981">
        <ele>204.6</ele>
        <time>2022-06-25T07:47:31Z</time>
      </trkpt>
      <trkpt lat="46.62472" lon="5.10973">
        <ele>204.6</ele>
        <time>2022-06-25T07:47:32Z</time>
      </trkpt>
      <trkpt lat="46.62469" lon="5.10966">
        <ele>204.6</ele>
        <time>2022-06-25T07:47:33Z</time>
      </trkpt>
      <trkpt lat="46.62465" lon="5.10959">
        <ele>204.6</ele>
        <time>2022-06-25T07:47:34Z</time>
      </trkpt>
      <trkpt lat="46.62461" lon="5.10951">
        <ele>204.6</ele>
        <time>2022-06-25T07:47:35Z</time>
      </trkpt>
      <trkpt lat="46.62457" lon="5.10943">
        <ele>204.6</ele>
        <time>2022-06-25T07:47:36Z</time>
      </trkpt>
      <trkpt lat="46.62453" lon="5.10935">
        <ele>204.6</ele>
        <time>2022-06-25T07:47:37Z</time>
      </trkpt>
      <trkpt lat="46.62449" lon="5.10927">
        <ele>204.6</ele>
        <time>2022-06-25T07:47:38Z</time>
      </trkpt>
      <trkpt lat="46.62445" lon="5.10919">
        <ele>204.6</ele>
        <time>2022-06-25T07:47:39Z</time>
      </trkpt>
      <trkpt lat="46.62441" lon="5.10911">
        <ele>204.6</ele>
        <time>2022-06-25T07:47:40Z</time>
      </trkpt>
      <trkpt lat="46.62438" lon="5.10903">
        <ele>204.6</ele>
        <time>2022-06-25T07:47:41Z</time>
      </trkpt>
      <trkpt lat="46.62434" lon="5.10895">
        <ele>204.6</ele>
        <time>2022-06-25T07:47:42Z</time>
      </trkpt>
      <trkpt lat="46.6243" lon="5.10887">
        <ele>204.6</ele>
        <time>2022-06-25T07:47:43Z</time>
      </trkpt>
      <trkpt lat="46.62426" lon="5.10879">
        <ele>204.6</ele>
        <time>2022-06-25T07:47:44Z</time>
      </trkpt>
      <trkpt lat="46.62422" lon="5.10871">
        <ele>204.6</ele>
        <time>2022-06-25T07:47:45Z</time>
      </trkpt>
      <trkpt lat="46.62418" lon="5.10863">
        <ele>204.6</ele>
        <time>2022-06-25T07:47:46Z</time>
      </trkpt>
      <trkpt lat="46.62414" lon="5.10855">
        <ele>204.6</ele>
        <time>2022-06-25T07:47:47Z</time>
      </trkpt>
      <trkpt lat="46.6241" lon="5.10846">
        <ele>204.6</ele>
        <time>2022-06-25T07:47:48Z</time>
      </trkpt>
      <trkpt lat="46.62406" lon="5.10838">
        <ele>204.6</ele>
        <time>2022-06-25T07:47:49Z</time>
      </trkpt>
      <trkpt lat="46.62402" lon="5.1083">
        <ele>204.6</ele>
        <time>2022-06-25T07:47:50Z</time>
      </trkpt>
      <trkpt lat="46.62398" lon="5.10822">
        <ele>204.6</ele>
        <time>2022-06-25T07:47:51Z</time>
      </trkpt>
      <trkpt lat="46.62395" lon="5.10814">
        <ele>204.8</ele>
        <time>2022-06-25T07:47:52Z</time>
      </trkpt>
      <trkpt lat="46.62391" lon="5.10807">
        <ele>204.8</ele>
        <time>2022-06-25T07:47:53Z</time>
      </trkpt>
      <trkpt lat="46.62388" lon="5.108">
        <ele>204.8</ele>
        <time>2022-06-25T07:47:54Z</time>
      </trkpt>
      <trkpt lat="46.62384" lon="5.10793">
        <ele>204.8</ele>
        <time>2022-06-25T07:47:55Z</time>
      </trkpt>
      <trkpt lat="46.62381" lon="5.10785">
        <ele>204.8</ele>
        <time>2022-06-25T07:47:56Z</time>
      </trkpt>
      <trkpt lat="46.62378" lon="5.10777">
        <ele>204.8</ele>
        <time>2022-06-25T07:47:57Z</time>
      </trkpt>
      <trkpt lat="46.62375" lon="5.10769">
        <ele>204.8</ele>
        <time>2022-06-25T07:47:58Z</time>
      </trkpt>
      <trkpt lat="46.62372" lon="5.10761">
        <ele>204.8</ele>
        <time>2022-06-25T07:47:59Z</time>
      </trkpt>
      <trkpt lat="46.62369" lon="5.10753">
        <ele>204.8</ele>
        <time>2022-06-25T07:48:00Z</time>
      </trkpt>
      <trkpt lat="46.62366" lon="5.10745">
        <ele>204.8</ele>
        <time>2022-06-25T07:48:01Z</time>
      </trkpt>
      <trkpt lat="46.62363" lon="5.10737">
        <ele>204.8</ele>
        <time>2022-06-25T07:48:02Z</time>
      </trkpt>
      <trkpt lat="46.62361" lon="5.10728">
        <ele>204.8</ele>
        <time>2022-06-25T07:48:03Z</time>
      </trkpt>
      <trkpt lat="46.62358" lon="5.1072">
        <ele>204.8</ele>
        <time>2022-06-25T07:48:04Z</time>
      </trkpt>
      <trkpt lat="46.62355" lon="5.10711">
        <ele>204.8</ele>
        <time>2022-06-25T07:48:05Z</time>
      </trkpt>
      <trkpt lat="46.62353" lon="5.10702">
        <ele>204.8</ele>
        <time>2022-06-25T07:48:06Z</time>
      </trkpt>
      <trkpt lat="46.62351" lon="5.10693">
        <ele>204.8</ele>
        <time>2022-06-25T07:48:07Z</time>
      </trkpt>
      <trkpt lat="46.62348" lon="5.10683">
        <ele>204.4</ele>
        <time>2022-06-25T07:48:08Z</time>
      </trkpt>
      <trkpt lat="46.62346" lon="5.10673">
        <ele>204.4</ele>
        <time>2022-06-25T07:48:09Z</time>
      </trkpt>
      <trkpt lat="46.62343" lon="5.10663">
        <ele>204</ele>
        <time>2022-06-25T07:48:10Z</time>
      </trkpt>
      <trkpt lat="46.6234" lon="5.10652">
        <ele>203.6</ele>
        <time>2022-06-25T07:48:11Z</time>
      </trkpt>
      <trkpt lat="46.62337" lon="5.10641">
        <ele>203.4</ele>
        <time>2022-06-25T07:48:12Z</time>
      </trkpt>
      <trkpt lat="46.62334" lon="5.10629">
        <ele>203</ele>
        <time>2022-06-25T07:48:13Z</time>
      </trkpt>
      <trkpt lat="46.62331" lon="5.10618">
        <ele>202.6</ele>
        <time>2022-06-25T07:48:14Z</time>
      </trkpt>
      <trkpt lat="46.62327" lon="5.10605">
        <ele>202.4</ele>
        <time>2022-06-25T07:48:15Z</time>
      </trkpt>
      <trkpt lat="46.62324" lon="5.10592">
        <ele>202</ele>
        <time>2022-06-25T07:48:16Z</time>
      </trkpt>
      <trkpt lat="46.6232" lon="5.10578">
        <ele>201.8</ele>
        <time>2022-06-25T07:48:17Z</time>
      </trkpt>
      <trkpt lat="46.62316" lon="5.10566">
        <ele>201.4</ele>
        <time>2022-06-25T07:48:18Z</time>
      </trkpt>
      <trkpt lat="46.62312" lon="5.10552">
        <ele>201.2</ele>
        <time>2022-06-25T07:48:19Z</time>
      </trkpt>
      <trkpt lat="46.62308" lon="5.10538">
        <ele>200.8</ele>
        <time>2022-06-25T07:48:20Z</time>
      </trkpt>
      <trkpt lat="46.62304" lon="5.10524">
        <ele>200.4</ele>
        <time>2022-06-25T07:48:21Z</time>
      </trkpt>
      <trkpt lat="46.62299" lon="5.10511">
        <ele>200</ele>
        <time>2022-06-25T07:48:22Z</time>
      </trkpt>
      <trkpt lat="46.62296" lon="5.10498">
        <ele>199.4</ele>
        <time>2022-06-25T07:48:23Z</time>
      </trkpt>
      <trkpt lat="46.62292" lon="5.10484">
        <ele>199</ele>
        <time>2022-06-25T07:48:24Z</time>
      </trkpt>
      <trkpt lat="46.62288" lon="5.1047">
        <ele>198.6</ele>
        <time>2022-06-25T07:48:25Z</time>
      </trkpt>
      <trkpt lat="46.62283" lon="5.10455">
        <ele>198.2</ele>
        <time>2022-06-25T07:48:26Z</time>
      </trkpt>
      <trkpt lat="46.62278" lon="5.10441">
        <ele>197.6</ele>
        <time>2022-06-25T07:48:27Z</time>
      </trkpt>
      <trkpt lat="46.62274" lon="5.10427">
        <ele>197.2</ele>
        <time>2022-06-25T07:48:28Z</time>
      </trkpt>
      <trkpt lat="46.6227" lon="5.10412">
        <ele>196.8</ele>
        <time>2022-06-25T07:48:29Z</time>
      </trkpt>
      <trkpt lat="46.62266" lon="5.10398">
        <ele>196.4</ele>
        <time>2022-06-25T07:48:30Z</time>
      </trkpt>
      <trkpt lat="46.62262" lon="5.10385">
        <ele>196.2</ele>
        <time>2022-06-25T07:48:31Z</time>
      </trkpt>
      <trkpt lat="46.62259" lon="5.10371">
        <ele>196</ele>
        <time>2022-06-25T07:48:32Z</time>
      </trkpt>
      <trkpt lat="46.62255" lon="5.10359">
        <ele>196</ele>
        <time>2022-06-25T07:48:33Z</time>
      </trkpt>
      <trkpt lat="46.62251" lon="5.10347">
        <ele>195.8</ele>
        <time>2022-06-25T07:48:34Z</time>
      </trkpt>
      <trkpt lat="46.62248" lon="5.10335">
        <ele>195.8</ele>
        <time>2022-06-25T07:48:35Z</time>
      </trkpt>
      <trkpt lat="46.62245" lon="5.10323">
        <ele>195.8</ele>
        <time>2022-06-25T07:48:36Z</time>
      </trkpt>
      <trkpt lat="46.62242" lon="5.10312">
        <ele>195.8</ele>
        <time>2022-06-25T07:48:37Z</time>
      </trkpt>
      <trkpt lat="46.6224" lon="5.10302">
        <ele>195.8</ele>
        <time>2022-06-25T07:48:38Z</time>
      </trkpt>
      <trkpt lat="46.62237" lon="5.10293">
        <ele>196.2</ele>
        <time>2022-06-25T07:48:39Z</time>
      </trkpt>
      <trkpt lat="46.62234" lon="5.10285">
        <ele>196.4</ele>
        <time>2022-06-25T07:48:40Z</time>
      </trkpt>
      <trkpt lat="46.62232" lon="5.10277">
        <ele>196.6</ele>
        <time>2022-06-25T07:48:41Z</time>
      </trkpt>
      <trkpt lat="46.62231" lon="5.1027">
        <ele>196.8</ele>
        <time>2022-06-25T07:48:42Z</time>
      </trkpt>
      <trkpt lat="46.62229" lon="5.10263">
        <ele>197.2</ele>
        <time>2022-06-25T07:48:43Z</time>
      </trkpt>
      <trkpt lat="46.62227" lon="5.10256">
        <ele>197.4</ele>
        <time>2022-06-25T07:48:44Z</time>
      </trkpt>
      <trkpt lat="46.62225" lon="5.1025">
        <ele>197.8</ele>
        <time>2022-06-25T07:48:45Z</time>
      </trkpt>
      <trkpt lat="46.62224" lon="5.10245">
        <ele>198</ele>
        <time>2022-06-25T07:48:46Z</time>
      </trkpt>
      <trkpt lat="46.62222" lon="5.10239">
        <ele>198.4</ele>
        <time>2022-06-25T07:48:47Z</time>
      </trkpt>
      <trkpt lat="46.62221" lon="5.10234">
        <ele>198.6</ele>
        <time>2022-06-25T07:48:48Z</time>
      </trkpt>
      <trkpt lat="46.62219" lon="5.10228">
        <ele>199</ele>
        <time>2022-06-25T07:48:49Z</time>
      </trkpt>
      <trkpt lat="46.62218" lon="5.10223">
        <ele>199.4</ele>
        <time>2022-06-25T07:48:50Z</time>
      </trkpt>
      <trkpt lat="46.62217" lon="5.10217">
        <ele>199.6</ele>
        <time>2022-06-25T07:48:51Z</time>
      </trkpt>
      <trkpt lat="46.62216" lon="5.10212">
        <ele>200</ele>
        <time>2022-06-25T07:48:52Z</time>
      </trkpt>
      <trkpt lat="46.62215" lon="5.10206">
        <ele>200.4</ele>
        <time>2022-06-25T07:48:53Z</time>
      </trkpt>
      <trkpt lat="46.62214" lon="5.10201">
        <ele>200.8</ele>
        <time>2022-06-25T07:48:54Z</time>
      </trkpt>
      <trkpt lat="46.62212" lon="5.10196">
        <ele>201</ele>
        <time>2022-06-25T07:48:55Z</time>
      </trkpt>
      <trkpt lat="46.62211" lon="5.1019">
        <ele>201.2</ele>
        <time>2022-06-25T07:48:56Z</time>
      </trkpt>
      <trkpt lat="46.6221" lon="5.10185">
        <ele>201.4</ele>
        <time>2022-06-25T07:48:57Z</time>
      </trkpt>
      <trkpt lat="46.62209" lon="5.10179">
        <ele>201.6</ele>
        <time>2022-06-25T07:48:58Z</time>
      </trkpt>
      <trkpt lat="46.62208" lon="5.10173">
        <ele>202</ele>
        <time>2022-06-25T07:48:59Z</time>
      </trkpt>
      <trkpt lat="46.62207" lon="5.10167">
        <ele>202.2</ele>
        <time>2022-06-25T07:49:00Z</time>
      </trkpt>
      <trkpt lat="46.62207" lon="5.10162">
        <ele>202.4</ele>
        <time>2022-06-25T07:49:01Z</time>
      </trkpt>
      <trkpt lat="46.62206" lon="5.10156">
        <ele>202.6</ele>
        <time>2022-06-25T07:49:02Z</time>
      </trkpt>
      <trkpt lat="46.62206" lon="5.10151">
        <ele>202.8</ele>
        <time>2022-06-25T07:49:03Z</time>
      </trkpt>
      <trkpt lat="46.62206" lon="5.10145">
        <ele>203.2</ele>
        <time>2022-06-25T07:49:04Z</time>
      </trkpt>
      <trkpt lat="46.62205" lon="5.1014">
        <ele>203.4</ele>
        <time>2022-06-25T07:49:05Z</time>
      </trkpt>
      <trkpt lat="46.62205" lon="5.10134">
        <ele>203.6</ele>
        <time>2022-06-25T07:49:06Z</time>
      </trkpt>
      <trkpt lat="46.62205" lon="5.10128">
        <ele>203.8</ele>
        <time>2022-06-25T07:49:07Z</time>
      </trkpt>
      <trkpt lat="46.62206" lon="5.10122">
        <ele>204.2</ele>
        <time>2022-06-25T07:49:08Z</time>
      </trkpt>
      <trkpt lat="46.62206" lon="5.10116">
        <ele>204.2</ele>
        <time>2022-06-25T07:49:09Z</time>
      </trkpt>
      <trkpt lat="46.62207" lon="5.10109">
        <ele>204.4</ele>
        <time>2022-06-25T07:49:10Z</time>
      </trkpt>
      <trkpt lat="46.62208" lon="5.10102">
        <ele>204.4</ele>
        <time>2022-06-25T07:49:11Z</time>
      </trkpt>
      <trkpt lat="46.62209" lon="5.10096">
        <ele>205</ele>
        <time>2022-06-25T07:49:12Z</time>
      </trkpt>
      <trkpt lat="46.62211" lon="5.1009">
        <ele>205.2</ele>
        <time>2022-06-25T07:49:13Z</time>
      </trkpt>
      <trkpt lat="46.62212" lon="5.10083">
        <ele>205.2</ele>
        <time>2022-06-25T07:49:14Z</time>
      </trkpt>
      <trkpt lat="46.62215" lon="5.10077">
        <ele>205.6</ele>
        <time>2022-06-25T07:49:15Z</time>
      </trkpt>
      <trkpt lat="46.62217" lon="5.10071">
        <ele>205.6</ele>
        <time>2022-06-25T07:49:16Z</time>
      </trkpt>
      <trkpt lat="46.6222" lon="5.10064">
        <ele>205.6</ele>
        <time>2022-06-25T07:49:17Z</time>
      </trkpt>
      <trkpt lat="46.62222" lon="5.10058">
        <ele>205.8</ele>
        <time>2022-06-25T07:49:18Z</time>
      </trkpt>
      <trkpt lat="46.62225" lon="5.10051">
        <ele>205.8</ele>
        <time>2022-06-25T07:49:19Z</time>
      </trkpt>
      <trkpt lat="46.62228" lon="5.10044">
        <ele>206.2</ele>
        <time>2022-06-25T07:49:20Z</time>
      </trkpt>
      <trkpt lat="46.62231" lon="5.10038">
        <ele>206.2</ele>
        <time>2022-06-25T07:49:21Z</time>
      </trkpt>
      <trkpt lat="46.62234" lon="5.10031">
        <ele>206.2</ele>
        <time>2022-06-25T07:49:22Z</time>
      </trkpt>
      <trkpt lat="46.62238" lon="5.10025">
        <ele>206.4</ele>
        <time>2022-06-25T07:49:23Z</time>
      </trkpt>
      <trkpt lat="46.62241" lon="5.10018">
        <ele>206.4</ele>
        <time>2022-06-25T07:49:24Z</time>
      </trkpt>
      <trkpt lat="46.62245" lon="5.10012">
        <ele>206.4</ele>
        <time>2022-06-25T07:49:25Z</time>
      </trkpt>
      <trkpt lat="46.62248" lon="5.10005">
        <ele>206.4</ele>
        <time>2022-06-25T07:49:26Z</time>
      </trkpt>
      <trkpt lat="46.62251" lon="5.09998">
        <ele>206.4</ele>
        <time>2022-06-25T07:49:27Z</time>
      </trkpt>
      <trkpt lat="46.62254" lon="5.09991">
        <ele>206.4</ele>
        <time>2022-06-25T07:49:28Z</time>
      </trkpt>
      <trkpt lat="46.62257" lon="5.09985">
        <ele>206.4</ele>
        <time>2022-06-25T07:49:29Z</time>
      </trkpt>
      <trkpt lat="46.62261" lon="5.09978">
        <ele>206.4</ele>
        <time>2022-06-25T07:49:30Z</time>
      </trkpt>
      <trkpt lat="46.62264" lon="5.09971">
        <ele>206.4</ele>
        <time>2022-06-25T07:49:31Z</time>
      </trkpt>
      <trkpt lat="46.62268" lon="5.09964">
        <ele>206.4</ele>
        <time>2022-06-25T07:49:32Z</time>
      </trkpt>
      <trkpt lat="46.62271" lon="5.09957">
        <ele>206.4</ele>
        <time>2022-06-25T07:49:33Z</time>
      </trkpt>
      <trkpt lat="46.62274" lon="5.0995">
        <ele>206.4</ele>
        <time>2022-06-25T07:49:34Z</time>
      </trkpt>
      <trkpt lat="46.62278" lon="5.09943">
        <ele>206.4</ele>
        <time>2022-06-25T07:49:35Z</time>
      </trkpt>
      <trkpt lat="46.62282" lon="5.09936">
        <ele>206.4</ele>
        <time>2022-06-25T07:49:36Z</time>
      </trkpt>
      <trkpt lat="46.62285" lon="5.09929">
        <ele>206.4</ele>
        <time>2022-06-25T07:49:37Z</time>
      </trkpt>
      <trkpt lat="46.62289" lon="5.09922">
        <ele>206.4</ele>
        <time>2022-06-25T07:49:38Z</time>
      </trkpt>
      <trkpt lat="46.62292" lon="5.09915">
        <ele>206.4</ele>
        <time>2022-06-25T07:49:39Z</time>
      </trkpt>
      <trkpt lat="46.62296" lon="5.09907">
        <ele>206.4</ele>
        <time>2022-06-25T07:49:40Z</time>
      </trkpt>
      <trkpt lat="46.62299" lon="5.099">
        <ele>206.4</ele>
        <time>2022-06-25T07:49:41Z</time>
      </trkpt>
      <trkpt lat="46.62303" lon="5.09892">
        <ele>206.4</ele>
        <time>2022-06-25T07:49:42Z</time>
      </trkpt>
      <trkpt lat="46.62307" lon="5.09885">
        <ele>206.4</ele>
        <time>2022-06-25T07:49:43Z</time>
      </trkpt>
      <trkpt lat="46.6231" lon="5.09878">
        <ele>206.4</ele>
        <time>2022-06-25T07:49:44Z</time>
      </trkpt>
      <trkpt lat="46.62314" lon="5.09871">
        <ele>206.4</ele>
        <time>2022-06-25T07:49:45Z</time>
      </trkpt>
      <trkpt lat="46.62318" lon="5.09863">
        <ele>206.4</ele>
        <time>2022-06-25T07:49:46Z</time>
      </trkpt>
      <trkpt lat="46.62322" lon="5.09857">
        <ele>206.6</ele>
        <time>2022-06-25T07:49:47Z</time>
      </trkpt>
      <trkpt lat="46.62325" lon="5.0985">
        <ele>206.6</ele>
        <time>2022-06-25T07:49:48Z</time>
      </trkpt>
      <trkpt lat="46.62329" lon="5.09842">
        <ele>206.6</ele>
        <time>2022-06-25T07:49:49Z</time>
      </trkpt>
      <trkpt lat="46.62332" lon="5.09835">
        <ele>206.6</ele>
        <time>2022-06-25T07:49:50Z</time>
      </trkpt>
      <trkpt lat="46.62336" lon="5.09827">
        <ele>206.6</ele>
        <time>2022-06-25T07:49:51Z</time>
      </trkpt>
      <trkpt lat="46.6234" lon="5.09819">
        <ele>206.6</ele>
        <time>2022-06-25T07:49:52Z</time>
      </trkpt>
      <trkpt lat="46.62343" lon="5.09811">
        <ele>206.6</ele>
        <time>2022-06-25T07:49:53Z</time>
      </trkpt>
      <trkpt lat="46.62347" lon="5.09804">
        <ele>206.2</ele>
        <time>2022-06-25T07:49:54Z</time>
      </trkpt>
      <trkpt lat="46.62351" lon="5.09796">
        <ele>206.2</ele>
        <time>2022-06-25T07:49:55Z</time>
      </trkpt>
      <trkpt lat="46.62354" lon="5.09788">
        <ele>206.2</ele>
        <time>2022-06-25T07:49:56Z</time>
      </trkpt>
      <trkpt lat="46.62357" lon="5.0978">
        <ele>206.2</ele>
        <time>2022-06-25T07:49:57Z</time>
      </trkpt>
      <trkpt lat="46.6236" lon="5.09771">
        <ele>206.2</ele>
        <time>2022-06-25T07:49:58Z</time>
      </trkpt>
      <trkpt lat="46.62363" lon="5.09762">
        <ele>206.2</ele>
        <time>2022-06-25T07:49:59Z</time>
      </trkpt>
      <trkpt lat="46.62365" lon="5.09753">
        <ele>206.2</ele>
        <time>2022-06-25T07:50:00Z</time>
      </trkpt>
      <trkpt lat="46.62368" lon="5.09744">
        <ele>206.2</ele>
        <time>2022-06-25T07:50:01Z</time>
      </trkpt>
      <trkpt lat="46.62371" lon="5.09735">
        <ele>206.2</ele>
        <time>2022-06-25T07:50:02Z</time>
      </trkpt>
      <trkpt lat="46.62373" lon="5.09726">
        <ele>206.2</ele>
        <time>2022-06-25T07:50:03Z</time>
      </trkpt>
      <trkpt lat="46.62376" lon="5.09717">
        <ele>206.2</ele>
        <time>2022-06-25T07:50:04Z</time>
      </trkpt>
      <trkpt lat="46.62378" lon="5.09708">
        <ele>206.6</ele>
        <time>2022-06-25T07:50:05Z</time>
      </trkpt>
      <trkpt lat="46.62381" lon="5.09699">
        <ele>206.6</ele>
        <time>2022-06-25T07:50:06Z</time>
      </trkpt>
      <trkpt lat="46.62383" lon="5.0969">
        <ele>206.6</ele>
        <time>2022-06-25T07:50:07Z</time>
      </trkpt>
      <trkpt lat="46.62385" lon="5.09681">
        <ele>206.6</ele>
        <time>2022-06-25T07:50:08Z</time>
      </trkpt>
      <trkpt lat="46.62388" lon="5.09672">
        <ele>206.6</ele>
        <time>2022-06-25T07:50:09Z</time>
      </trkpt>
      <trkpt lat="46.6239" lon="5.09663">
        <ele>206.6</ele>
        <time>2022-06-25T07:50:10Z</time>
      </trkpt>
      <trkpt lat="46.62392" lon="5.09654">
        <ele>206.6</ele>
        <time>2022-06-25T07:50:11Z</time>
      </trkpt>
      <trkpt lat="46.62395" lon="5.09645">
        <ele>206.8</ele>
        <time>2022-06-25T07:50:12Z</time>
      </trkpt>
      <trkpt lat="46.62397" lon="5.09636">
        <ele>206.8</ele>
        <time>2022-06-25T07:50:13Z</time>
      </trkpt>
      <trkpt lat="46.62399" lon="5.09627">
        <ele>206.8</ele>
        <time>2022-06-25T07:50:14Z</time>
      </trkpt>
      <trkpt lat="46.624" lon="5.09618">
        <ele>206.8</ele>
        <time>2022-06-25T07:50:15Z</time>
      </trkpt>
      <trkpt lat="46.62402" lon="5.09609">
        <ele>206.8</ele>
        <time>2022-06-25T07:50:16Z</time>
      </trkpt>
      <trkpt lat="46.62403" lon="5.096">
        <ele>206.8</ele>
        <time>2022-06-25T07:50:17Z</time>
      </trkpt>
      <trkpt lat="46.62404" lon="5.0959">
        <ele>206.8</ele>
        <time>2022-06-25T07:50:18Z</time>
      </trkpt>
      <trkpt lat="46.62405" lon="5.09581">
        <ele>206.8</ele>
        <time>2022-06-25T07:50:19Z</time>
      </trkpt>
      <trkpt lat="46.62406" lon="5.09571">
        <ele>206.8</ele>
        <time>2022-06-25T07:50:20Z</time>
      </trkpt>
      <trkpt lat="46.62406" lon="5.09562">
        <ele>206.8</ele>
        <time>2022-06-25T07:50:21Z</time>
      </trkpt>
      <trkpt lat="46.62405" lon="5.09552">
        <ele>206.8</ele>
        <time>2022-06-25T07:50:22Z</time>
      </trkpt>
      <trkpt lat="46.62405" lon="5.09542">
        <ele>206.8</ele>
        <time>2022-06-25T07:50:23Z</time>
      </trkpt>
      <trkpt lat="46.62404" lon="5.09532">
        <ele>206.8</ele>
        <time>2022-06-25T07:50:24Z</time>
      </trkpt>
      <trkpt lat="46.62402" lon="5.09522">
        <ele>206.8</ele>
        <time>2022-06-25T07:50:25Z</time>
      </trkpt>
      <trkpt lat="46.62401" lon="5.09512">
        <ele>206.4</ele>
        <time>2022-06-25T07:50:26Z</time>
      </trkpt>
      <trkpt lat="46.62399" lon="5.09501">
        <ele>206.4</ele>
        <time>2022-06-25T07:50:28Z</time>
      </trkpt>
      <trkpt lat="46.62397" lon="5.09491">
        <ele>206.2</ele>
        <time>2022-06-25T07:50:29Z</time>
      </trkpt>
      <trkpt lat="46.62395" lon="5.09481">
        <ele>206.2</ele>
        <time>2022-06-25T07:50:30Z</time>
      </trkpt>
      <trkpt lat="46.62393" lon="5.09471">
        <ele>206.2</ele>
        <time>2022-06-25T07:50:31Z</time>
      </trkpt>
      <trkpt lat="46.62392" lon="5.0946">
        <ele>206.2</ele>
        <time>2022-06-25T07:50:32Z</time>
      </trkpt>
      <trkpt lat="46.6239" lon="5.0945">
        <ele>206.2</ele>
        <time>2022-06-25T07:50:33Z</time>
      </trkpt>
      <trkpt lat="46.62387" lon="5.09439">
        <ele>206</ele>
        <time>2022-06-25T07:50:34Z</time>
      </trkpt>
      <trkpt lat="46.62385" lon="5.09429">
        <ele>206</ele>
        <time>2022-06-25T07:50:35Z</time>
      </trkpt>
      <trkpt lat="46.62383" lon="5.09418">
        <ele>205.6</ele>
        <time>2022-06-25T07:50:36Z</time>
      </trkpt>
      <trkpt lat="46.62381" lon="5.09406">
        <ele>205.6</ele>
        <time>2022-06-25T07:50:37Z</time>
      </trkpt>
      <trkpt lat="46.62379" lon="5.09395">
        <ele>205.4</ele>
        <time>2022-06-25T07:50:38Z</time>
      </trkpt>
      <trkpt lat="46.62377" lon="5.09383">
        <ele>205.4</ele>
        <time>2022-06-25T07:50:39Z</time>
      </trkpt>
      <trkpt lat="46.62375" lon="5.0937">
        <ele>205</ele>
        <time>2022-06-25T07:50:40Z</time>
      </trkpt>
      <trkpt lat="46.62373" lon="5.09358">
        <ele>204.8</ele>
        <time>2022-06-25T07:50:41Z</time>
      </trkpt>
      <trkpt lat="46.6237" lon="5.09345">
        <ele>204.4</ele>
        <time>2022-06-25T07:50:42Z</time>
      </trkpt>
      <trkpt lat="46.62368" lon="5.09333">
        <ele>204.4</ele>
        <time>2022-06-25T07:50:43Z</time>
      </trkpt>
      <trkpt lat="46.62365" lon="5.09321">
        <ele>204.2</ele>
        <time>2022-06-25T07:50:44Z</time>
      </trkpt>
      <trkpt lat="46.62363" lon="5.09309">
        <ele>204.2</ele>
        <time>2022-06-25T07:50:45Z</time>
      </trkpt>
      <trkpt lat="46.62361" lon="5.09297">
        <ele>204.2</ele>
        <time>2022-06-25T07:50:46Z</time>
      </trkpt>
      <trkpt lat="46.62359" lon="5.09286">
        <ele>204.2</ele>
        <time>2022-06-25T07:50:47Z</time>
      </trkpt>
      <trkpt lat="46.62357" lon="5.09275">
        <ele>204.2</ele>
        <time>2022-06-25T07:50:48Z</time>
      </trkpt>
      <trkpt lat="46.62356" lon="5.09265">
        <ele>204.2</ele>
        <time>2022-06-25T07:50:49Z</time>
      </trkpt>
      <trkpt lat="46.62354" lon="5.09255">
        <ele>204.6</ele>
        <time>2022-06-25T07:50:50Z</time>
      </trkpt>
      <trkpt lat="46.62352" lon="5.09245">
        <ele>204.8</ele>
        <time>2022-06-25T07:50:51Z</time>
      </trkpt>
      <trkpt lat="46.6235" lon="5.09236">
        <ele>205.2</ele>
        <time>2022-06-25T07:50:52Z</time>
      </trkpt>
      <trkpt lat="46.62349" lon="5.09228">
        <ele>205.2</ele>
        <time>2022-06-25T07:50:53Z</time>
      </trkpt>
      <trkpt lat="46.62347" lon="5.0922">
        <ele>205.6</ele>
        <time>2022-06-25T07:50:54Z</time>
      </trkpt>
      <trkpt lat="46.62346" lon="5.09212">
        <ele>205.6</ele>
        <time>2022-06-25T07:50:55Z</time>
      </trkpt>
      <trkpt lat="46.62345" lon="5.09204">
        <ele>206</ele>
        <time>2022-06-25T07:50:56Z</time>
      </trkpt>
      <trkpt lat="46.62343" lon="5.09197">
        <ele>206.2</ele>
        <time>2022-06-25T07:50:57Z</time>
      </trkpt>
      <trkpt lat="46.62342" lon="5.0919">
        <ele>206.2</ele>
        <time>2022-06-25T07:50:58Z</time>
      </trkpt>
      <trkpt lat="46.62341" lon="5.09183">
        <ele>206.4</ele>
        <time>2022-06-25T07:50:59Z</time>
      </trkpt>
      <trkpt lat="46.6234" lon="5.09176">
        <ele>206.4</ele>
        <time>2022-06-25T07:51:00Z</time>
      </trkpt>
      <trkpt lat="46.62338" lon="5.09168">
        <ele>206.4</ele>
        <time>2022-06-25T07:51:01Z</time>
      </trkpt>
      <trkpt lat="46.62337" lon="5.09161">
        <ele>206.6</ele>
        <time>2022-06-25T07:51:02Z</time>
      </trkpt>
      <trkpt lat="46.62336" lon="5.09154">
        <ele>206.6</ele>
        <time>2022-06-25T07:51:03Z</time>
      </trkpt>
      <trkpt lat="46.62335" lon="5.09146">
        <ele>206.6</ele>
        <time>2022-06-25T07:51:04Z</time>
      </trkpt>
      <trkpt lat="46.62333" lon="5.09138">
        <ele>207.2</ele>
        <time>2022-06-25T07:51:05Z</time>
      </trkpt>
      <trkpt lat="46.62332" lon="5.09131">
        <ele>207.2</ele>
        <time>2022-06-25T07:51:06Z</time>
      </trkpt>
      <trkpt lat="46.6233" lon="5.09123">
        <ele>207.2</ele>
        <time>2022-06-25T07:51:07Z</time>
      </trkpt>
      <trkpt lat="46.62329" lon="5.09116">
        <ele>207.2</ele>
        <time>2022-06-25T07:51:08Z</time>
      </trkpt>
      <trkpt lat="46.62328" lon="5.09108">
        <ele>207.4</ele>
        <time>2022-06-25T07:51:09Z</time>
      </trkpt>
      <trkpt lat="46.62326" lon="5.091">
        <ele>207.4</ele>
        <time>2022-06-25T07:51:10Z</time>
      </trkpt>
      <trkpt lat="46.62325" lon="5.09092">
        <ele>207.4</ele>
        <time>2022-06-25T07:51:11Z</time>
      </trkpt>
      <trkpt lat="46.62323" lon="5.09084">
        <ele>207.4</ele>
        <time>2022-06-25T07:51:12Z</time>
      </trkpt>
      <trkpt lat="46.62321" lon="5.09076">
        <ele>207.4</ele>
        <time>2022-06-25T07:51:13Z</time>
      </trkpt>
      <trkpt lat="46.6232" lon="5.09068">
        <ele>207.4</ele>
        <time>2022-06-25T07:51:14Z</time>
      </trkpt>
      <trkpt lat="46.62318" lon="5.0906">
        <ele>207.4</ele>
        <time>2022-06-25T07:51:15Z</time>
      </trkpt>
      <trkpt lat="46.62316" lon="5.09051">
        <ele>207</ele>
        <time>2022-06-25T07:51:16Z</time>
      </trkpt>
      <trkpt lat="46.62314" lon="5.09043">
        <ele>207</ele>
        <time>2022-06-25T07:51:17Z</time>
      </trkpt>
      <trkpt lat="46.62312" lon="5.09035">
        <ele>207</ele>
        <time>2022-06-25T07:51:18Z</time>
      </trkpt>
      <trkpt lat="46.6231" lon="5.09026">
        <ele>207</ele>
        <time>2022-06-25T07:51:19Z</time>
      </trkpt>
      <trkpt lat="46.62307" lon="5.09018">
        <ele>207</ele>
        <time>2022-06-25T07:51:20Z</time>
      </trkpt>
      <trkpt lat="46.62305" lon="5.0901">
        <ele>207</ele>
        <time>2022-06-25T07:51:21Z</time>
      </trkpt>
      <trkpt lat="46.62303" lon="5.09002">
        <ele>207</ele>
        <time>2022-06-25T07:51:22Z</time>
      </trkpt>
      <trkpt lat="46.62301" lon="5.08994">
        <ele>207</ele>
        <time>2022-06-25T07:51:23Z</time>
      </trkpt>
      <trkpt lat="46.62299" lon="5.08985">
        <ele>207</ele>
        <time>2022-06-25T07:51:24Z</time>
      </trkpt>
      <trkpt lat="46.62297" lon="5.08977">
        <ele>207</ele>
        <time>2022-06-25T07:51:25Z</time>
      </trkpt>
      <trkpt lat="46.62295" lon="5.08968">
        <ele>207</ele>
        <time>2022-06-25T07:51:26Z</time>
      </trkpt>
      <trkpt lat="46.62292" lon="5.0896">
        <ele>207</ele>
        <time>2022-06-25T07:51:27Z</time>
      </trkpt>
      <trkpt lat="46.6229" lon="5.08951">
        <ele>207</ele>
        <time>2022-06-25T07:51:28Z</time>
      </trkpt>
      <trkpt lat="46.62288" lon="5.08943">
        <ele>207.4</ele>
        <time>2022-06-25T07:51:29Z</time>
      </trkpt>
      <trkpt lat="46.62286" lon="5.08934">
        <ele>207.4</ele>
        <time>2022-06-25T07:51:30Z</time>
      </trkpt>
      <trkpt lat="46.62283" lon="5.08926">
        <ele>207.4</ele>
        <time>2022-06-25T07:51:31Z</time>
      </trkpt>
      <trkpt lat="46.62281" lon="5.08917">
        <ele>207.4</ele>
        <time>2022-06-25T07:51:32Z</time>
      </trkpt>
      <trkpt lat="46.62279" lon="5.08909">
        <ele>207.4</ele>
        <time>2022-06-25T07:51:33Z</time>
      </trkpt>
      <trkpt lat="46.62276" lon="5.089">
        <ele>207.4</ele>
        <time>2022-06-25T07:51:34Z</time>
      </trkpt>
      <trkpt lat="46.62274" lon="5.08891">
        <ele>207.4</ele>
        <time>2022-06-25T07:51:35Z</time>
      </trkpt>
      <trkpt lat="46.62272" lon="5.08883">
        <ele>207.4</ele>
        <time>2022-06-25T07:51:36Z</time>
      </trkpt>
      <trkpt lat="46.62269" lon="5.08874">
        <ele>207.4</ele>
        <time>2022-06-25T07:51:37Z</time>
      </trkpt>
      <trkpt lat="46.62267" lon="5.08865">
        <ele>207.4</ele>
        <time>2022-06-25T07:51:38Z</time>
      </trkpt>
      <trkpt lat="46.62265" lon="5.08856">
        <ele>207.4</ele>
        <time>2022-06-25T07:51:39Z</time>
      </trkpt>
      <trkpt lat="46.62263" lon="5.08847">
        <ele>207.4</ele>
        <time>2022-06-25T07:51:40Z</time>
      </trkpt>
      <trkpt lat="46.6226" lon="5.08838">
        <ele>207.4</ele>
        <time>2022-06-25T07:51:41Z</time>
      </trkpt>
      <trkpt lat="46.62258" lon="5.08828">
        <ele>207.4</ele>
        <time>2022-06-25T07:51:42Z</time>
      </trkpt>
      <trkpt lat="46.62256" lon="5.08819">
        <ele>207.4</ele>
        <time>2022-06-25T07:51:43Z</time>
      </trkpt>
      <trkpt lat="46.62253" lon="5.08809">
        <ele>207.4</ele>
        <time>2022-06-25T07:51:44Z</time>
      </trkpt>
      <trkpt lat="46.62251" lon="5.08799">
        <ele>207.4</ele>
        <time>2022-06-25T07:51:45Z</time>
      </trkpt>
      <trkpt lat="46.62249" lon="5.0879">
        <ele>207.4</ele>
        <time>2022-06-25T07:51:46Z</time>
      </trkpt>
      <trkpt lat="46.62247" lon="5.0878">
        <ele>207.4</ele>
        <time>2022-06-25T07:51:47Z</time>
      </trkpt>
      <trkpt lat="46.62246" lon="5.0877">
        <ele>207.4</ele>
        <time>2022-06-25T07:51:48Z</time>
      </trkpt>
      <trkpt lat="46.62245" lon="5.0876">
        <ele>207.4</ele>
        <time>2022-06-25T07:51:49Z</time>
      </trkpt>
      <trkpt lat="46.62243" lon="5.0875">
        <ele>207.4</ele>
        <time>2022-06-25T07:51:50Z</time>
      </trkpt>
      <trkpt lat="46.62242" lon="5.08741">
        <ele>207.4</ele>
        <time>2022-06-25T07:51:51Z</time>
      </trkpt>
      <trkpt lat="46.62241" lon="5.08731">
        <ele>207.4</ele>
        <time>2022-06-25T07:51:52Z</time>
      </trkpt>
      <trkpt lat="46.6224" lon="5.08722">
        <ele>207.4</ele>
        <time>2022-06-25T07:51:53Z</time>
      </trkpt>
      <trkpt lat="46.62239" lon="5.08712">
        <ele>207.4</ele>
        <time>2022-06-25T07:51:54Z</time>
      </trkpt>
      <trkpt lat="46.62238" lon="5.08702">
        <ele>207.4</ele>
        <time>2022-06-25T07:51:55Z</time>
      </trkpt>
      <trkpt lat="46.62237" lon="5.08692">
        <ele>207.4</ele>
        <time>2022-06-25T07:51:56Z</time>
      </trkpt>
      <trkpt lat="46.62236" lon="5.08682">
        <ele>207.4</ele>
        <time>2022-06-25T07:51:57Z</time>
      </trkpt>
      <trkpt lat="46.62235" lon="5.08672">
        <ele>207.4</ele>
        <time>2022-06-25T07:51:58Z</time>
      </trkpt>
      <trkpt lat="46.62234" lon="5.08662">
        <ele>207.4</ele>
        <time>2022-06-25T07:51:59Z</time>
      </trkpt>
      <trkpt lat="46.62232" lon="5.08652">
        <ele>207.4</ele>
        <time>2022-06-25T07:52:00Z</time>
      </trkpt>
      <trkpt lat="46.62231" lon="5.08642">
        <ele>207.4</ele>
        <time>2022-06-25T07:52:01Z</time>
      </trkpt>
      <trkpt lat="46.6223" lon="5.08632">
        <ele>207.4</ele>
        <time>2022-06-25T07:52:02Z</time>
      </trkpt>
      <trkpt lat="46.62229" lon="5.08622">
        <ele>207.4</ele>
        <time>2022-06-25T07:52:03Z</time>
      </trkpt>
      <trkpt lat="46.62228" lon="5.08611">
        <ele>207.4</ele>
        <time>2022-06-25T07:52:04Z</time>
      </trkpt>
      <trkpt lat="46.62227" lon="5.08601">
        <ele>207</ele>
        <time>2022-06-25T07:52:05Z</time>
      </trkpt>
      <trkpt lat="46.62226" lon="5.0859">
        <ele>207</ele>
        <time>2022-06-25T07:52:06Z</time>
      </trkpt>
      <trkpt lat="46.62225" lon="5.08579">
        <ele>207</ele>
        <time>2022-06-25T07:52:07Z</time>
      </trkpt>
      <trkpt lat="46.62223" lon="5.08569">
        <ele>206.8</ele>
        <time>2022-06-25T07:52:08Z</time>
      </trkpt>
      <trkpt lat="46.62222" lon="5.08557">
        <ele>206.8</ele>
        <time>2022-06-25T07:52:09Z</time>
      </trkpt>
      <trkpt lat="46.62221" lon="5.08546">
        <ele>206.8</ele>
        <time>2022-06-25T07:52:10Z</time>
      </trkpt>
      <trkpt lat="46.62219" lon="5.08535">
        <ele>206.8</ele>
        <time>2022-06-25T07:52:11Z</time>
      </trkpt>
      <trkpt lat="46.62218" lon="5.08524">
        <ele>206.6</ele>
        <time>2022-06-25T07:52:12Z</time>
      </trkpt>
      <trkpt lat="46.62217" lon="5.08513">
        <ele>206.6</ele>
        <time>2022-06-25T07:52:13Z</time>
      </trkpt>
      <trkpt lat="46.62215" lon="5.08501">
        <ele>206.6</ele>
        <time>2022-06-25T07:52:14Z</time>
      </trkpt>
      <trkpt lat="46.62213" lon="5.0849">
        <ele>206.6</ele>
        <time>2022-06-25T07:52:15Z</time>
      </trkpt>
      <trkpt lat="46.62211" lon="5.08479">
        <ele>206.6</ele>
        <time>2022-06-25T07:52:16Z</time>
      </trkpt>
      <trkpt lat="46.62209" lon="5.08468">
        <ele>206.4</ele>
        <time>2022-06-25T07:52:17Z</time>
      </trkpt>
      <trkpt lat="46.62206" lon="5.08456">
        <ele>206.4</ele>
        <time>2022-06-25T07:52:18Z</time>
      </trkpt>
      <trkpt lat="46.62202" lon="5.08445">
        <ele>206</ele>
        <time>2022-06-25T07:52:19Z</time>
      </trkpt>
      <trkpt lat="46.62198" lon="5.08434">
        <ele>205.6</ele>
        <time>2022-06-25T07:52:20Z</time>
      </trkpt>
      <trkpt lat="46.62194" lon="5.08423">
        <ele>205.6</ele>
        <time>2022-06-25T07:52:21Z</time>
      </trkpt>
      <trkpt lat="46.6219" lon="5.08412">
        <ele>205.2</ele>
        <time>2022-06-25T07:52:22Z</time>
      </trkpt>
      <trkpt lat="46.62185" lon="5.08401">
        <ele>205.2</ele>
        <time>2022-06-25T07:52:23Z</time>
      </trkpt>
      <trkpt lat="46.62181" lon="5.0839">
        <ele>204.8</ele>
        <time>2022-06-25T07:52:24Z</time>
      </trkpt>
      <trkpt lat="46.62177" lon="5.08379">
        <ele>204.6</ele>
        <time>2022-06-25T07:52:25Z</time>
      </trkpt>
      <trkpt lat="46.62172" lon="5.08368">
        <ele>204.2</ele>
        <time>2022-06-25T07:52:26Z</time>
      </trkpt>
      <trkpt lat="46.62168" lon="5.08357">
        <ele>204.2</ele>
        <time>2022-06-25T07:52:27Z</time>
      </trkpt>
      <trkpt lat="46.62163" lon="5.08346">
        <ele>204</ele>
        <time>2022-06-25T07:52:28Z</time>
      </trkpt>
      <trkpt lat="46.62159" lon="5.08336">
        <ele>203.8</ele>
        <time>2022-06-25T07:52:29Z</time>
      </trkpt>
      <trkpt lat="46.62155" lon="5.08325">
        <ele>203.8</ele>
        <time>2022-06-25T07:52:30Z</time>
      </trkpt>
      <trkpt lat="46.62151" lon="5.08315">
        <ele>203.6</ele>
        <time>2022-06-25T07:52:31Z</time>
      </trkpt>
      <trkpt lat="46.62146" lon="5.08305">
        <ele>203.6</ele>
        <time>2022-06-25T07:52:32Z</time>
      </trkpt>
      <trkpt lat="46.62142" lon="5.08295">
        <ele>203.4</ele>
        <time>2022-06-25T07:52:33Z</time>
      </trkpt>
      <trkpt lat="46.62138" lon="5.08285">
        <ele>203.2</ele>
        <time>2022-06-25T07:52:34Z</time>
      </trkpt>
      <trkpt lat="46.62134" lon="5.08275">
        <ele>203.2</ele>
        <time>2022-06-25T07:52:35Z</time>
      </trkpt>
      <trkpt lat="46.62131" lon="5.08265">
        <ele>203</ele>
        <time>2022-06-25T07:52:36Z</time>
      </trkpt>
      <trkpt lat="46.62127" lon="5.08255">
        <ele>203</ele>
        <time>2022-06-25T07:52:37Z</time>
      </trkpt>
      <trkpt lat="46.62123" lon="5.08246">
        <ele>203</ele>
        <time>2022-06-25T07:52:38Z</time>
      </trkpt>
      <trkpt lat="46.62119" lon="5.08236">
        <ele>202.8</ele>
        <time>2022-06-25T07:52:39Z</time>
      </trkpt>
      <trkpt lat="46.62115" lon="5.08227">
        <ele>202.8</ele>
        <time>2022-06-25T07:52:40Z</time>
      </trkpt>
      <trkpt lat="46.62111" lon="5.08218">
        <ele>202.8</ele>
        <time>2022-06-25T07:52:41Z</time>
      </trkpt>
      <trkpt lat="46.62107" lon="5.08209">
        <ele>202.8</ele>
        <time>2022-06-25T07:52:42Z</time>
      </trkpt>
      <trkpt lat="46.62104" lon="5.082">
        <ele>203</ele>
        <time>2022-06-25T07:52:43Z</time>
      </trkpt>
      <trkpt lat="46.621" lon="5.08191">
        <ele>203</ele>
        <time>2022-06-25T07:52:44Z</time>
      </trkpt>
      <trkpt lat="46.62097" lon="5.08182">
        <ele>203</ele>
        <time>2022-06-25T07:52:45Z</time>
      </trkpt>
      <trkpt lat="46.62093" lon="5.08174">
        <ele>203.2</ele>
        <time>2022-06-25T07:52:46Z</time>
      </trkpt>
      <trkpt lat="46.6209" lon="5.08166">
        <ele>203.2</ele>
        <time>2022-06-25T07:52:47Z</time>
      </trkpt>
      <trkpt lat="46.62086" lon="5.08158">
        <ele>203.2</ele>
        <time>2022-06-25T07:52:48Z</time>
      </trkpt>
      <trkpt lat="46.62083" lon="5.0815">
        <ele>203.4</ele>
        <time>2022-06-25T07:52:49Z</time>
      </trkpt>
      <trkpt lat="46.6208" lon="5.08142">
        <ele>203.4</ele>
        <time>2022-06-25T07:52:50Z</time>
      </trkpt>
      <trkpt lat="46.62077" lon="5.08135">
        <ele>203.4</ele>
        <time>2022-06-25T07:52:51Z</time>
      </trkpt>
      <trkpt lat="46.62074" lon="5.08127">
        <ele>203.8</ele>
        <time>2022-06-25T07:52:52Z</time>
      </trkpt>
      <trkpt lat="46.62071" lon="5.0812">
        <ele>203.8</ele>
        <time>2022-06-25T07:52:53Z</time>
      </trkpt>
      <trkpt lat="46.62068" lon="5.08112">
        <ele>203.8</ele>
        <time>2022-06-25T07:52:54Z</time>
      </trkpt>
      <trkpt lat="46.62065" lon="5.08104">
        <ele>203.8</ele>
        <time>2022-06-25T07:52:55Z</time>
      </trkpt>
      <trkpt lat="46.62062" lon="5.08097">
        <ele>203.8</ele>
        <time>2022-06-25T07:52:56Z</time>
      </trkpt>
      <trkpt lat="46.62059" lon="5.08089">
        <ele>203.8</ele>
        <time>2022-06-25T07:52:57Z</time>
      </trkpt>
      <trkpt lat="46.62056" lon="5.08081">
        <ele>203.8</ele>
        <time>2022-06-25T07:52:58Z</time>
      </trkpt>
      <trkpt lat="46.62053" lon="5.08073">
        <ele>203.8</ele>
        <time>2022-06-25T07:52:59Z</time>
      </trkpt>
      <trkpt lat="46.62049" lon="5.08065">
        <ele>203.8</ele>
        <time>2022-06-25T07:53:00Z</time>
      </trkpt>
      <trkpt lat="46.62046" lon="5.08056">
        <ele>203.8</ele>
        <time>2022-06-25T07:53:01Z</time>
      </trkpt>
      <trkpt lat="46.62043" lon="5.08048">
        <ele>203.8</ele>
        <time>2022-06-25T07:53:02Z</time>
      </trkpt>
      <trkpt lat="46.6204" lon="5.08039">
        <ele>203.8</ele>
        <time>2022-06-25T07:53:03Z</time>
      </trkpt>
      <trkpt lat="46.62038" lon="5.0803">
        <ele>203.4</ele>
        <time>2022-06-25T07:53:04Z</time>
      </trkpt>
      <trkpt lat="46.62035" lon="5.08021">
        <ele>203.4</ele>
        <time>2022-06-25T07:53:05Z</time>
      </trkpt>
      <trkpt lat="46.62033" lon="5.08012">
        <ele>203.2</ele>
        <time>2022-06-25T07:53:06Z</time>
      </trkpt>
      <trkpt lat="46.62032" lon="5.08002">
        <ele>203.2</ele>
        <time>2022-06-25T07:53:07Z</time>
      </trkpt>
      <trkpt lat="46.62031" lon="5.07991">
        <ele>203</ele>
        <time>2022-06-25T07:53:08Z</time>
      </trkpt>
      <trkpt lat="46.62031" lon="5.07981">
        <ele>202.6</ele>
        <time>2022-06-25T07:53:09Z</time>
      </trkpt>
      <trkpt lat="46.62031" lon="5.0797">
        <ele>202.4</ele>
        <time>2022-06-25T07:53:10Z</time>
      </trkpt>
      <trkpt lat="46.62032" lon="5.0796">
        <ele>202</ele>
        <time>2022-06-25T07:53:11Z</time>
      </trkpt>
      <trkpt lat="46.62034" lon="5.07949">
        <ele>201.8</ele>
        <time>2022-06-25T07:53:12Z</time>
      </trkpt>
      <trkpt lat="46.62036" lon="5.07939">
        <ele>201.8</ele>
        <time>2022-06-25T07:53:13Z</time>
      </trkpt>
      <trkpt lat="46.62039" lon="5.07929">
        <ele>201.4</ele>
        <time>2022-06-25T07:53:14Z</time>
      </trkpt>
      <trkpt lat="46.62043" lon="5.07919">
        <ele>201.4</ele>
        <time>2022-06-25T07:53:15Z</time>
      </trkpt>
      <trkpt lat="46.62047" lon="5.0791">
        <ele>201.2</ele>
        <time>2022-06-25T07:53:16Z</time>
      </trkpt>
      <trkpt lat="46.62052" lon="5.07901">
        <ele>201.2</ele>
        <time>2022-06-25T07:53:17Z</time>
      </trkpt>
      <trkpt lat="46.62057" lon="5.07892">
        <ele>201.2</ele>
        <time>2022-06-25T07:53:18Z</time>
      </trkpt>
      <trkpt lat="46.62061" lon="5.07883">
        <ele>200.8</ele>
        <time>2022-06-25T07:53:19Z</time>
      </trkpt>
      <trkpt lat="46.62066" lon="5.07874">
        <ele>200.8</ele>
        <time>2022-06-25T07:53:20Z</time>
      </trkpt>
      <trkpt lat="46.62071" lon="5.07866">
        <ele>200.4</ele>
        <time>2022-06-25T07:53:21Z</time>
      </trkpt>
      <trkpt lat="46.62076" lon="5.07857">
        <ele>200</ele>
        <time>2022-06-25T07:53:22Z</time>
      </trkpt>
      <trkpt lat="46.62087" lon="5.07838">
        <ele>200</ele>
        <time>2022-06-25T07:53:23Z</time>
      </trkpt>
      <trkpt lat="46.62092" lon="5.07829">
        <ele>199.6</ele>
        <time>2022-06-25T07:53:24Z</time>
      </trkpt>
      <trkpt lat="46.62098" lon="5.07819">
        <ele>199.2</ele>
        <time>2022-06-25T07:53:25Z</time>
      </trkpt>
      <trkpt lat="46.62103" lon="5.07809">
        <ele>199</ele>
        <time>2022-06-25T07:53:26Z</time>
      </trkpt>
      <trkpt lat="46.62109" lon="5.07798">
        <ele>198.6</ele>
        <time>2022-06-25T07:53:27Z</time>
      </trkpt>
      <trkpt lat="46.62116" lon="5.07787">
        <ele>198.2</ele>
        <time>2022-06-25T07:53:28Z</time>
      </trkpt>
      <trkpt lat="46.62122" lon="5.07776">
        <ele>197.8</ele>
        <time>2022-06-25T07:53:29Z</time>
      </trkpt>
      <trkpt lat="46.62128" lon="5.07766">
        <ele>197.4</ele>
        <time>2022-06-25T07:53:30Z</time>
      </trkpt>
      <trkpt lat="46.62134" lon="5.07754">
        <ele>196.8</ele>
        <time>2022-06-25T07:53:31Z</time>
      </trkpt>
      <trkpt lat="46.6214" lon="5.07741">
        <ele>196.2</ele>
        <time>2022-06-25T07:53:32Z</time>
      </trkpt>
      <trkpt lat="46.62146" lon="5.07727">
        <ele>195.4</ele>
        <time>2022-06-25T07:53:33Z</time>
      </trkpt>
      <trkpt lat="46.62153" lon="5.07713">
        <ele>194.8</ele>
        <time>2022-06-25T07:53:34Z</time>
      </trkpt>
      <trkpt lat="46.6216" lon="5.07699">
        <ele>194.2</ele>
        <time>2022-06-25T07:53:35Z</time>
      </trkpt>
      <trkpt lat="46.62168" lon="5.07685">
        <ele>193.4</ele>
        <time>2022-06-25T07:53:36Z</time>
      </trkpt>
      <trkpt lat="46.62177" lon="5.07672">
        <ele>192.6</ele>
        <time>2022-06-25T07:53:37Z</time>
      </trkpt>
      <trkpt lat="46.62185" lon="5.07658">
        <ele>191.8</ele>
        <time>2022-06-25T07:53:38Z</time>
      </trkpt>
      <trkpt lat="46.62194" lon="5.07644">
        <ele>190.8</ele>
        <time>2022-06-25T07:53:39Z</time>
      </trkpt>
      <trkpt lat="46.62202" lon="5.0763">
        <ele>190.2</ele>
        <time>2022-06-25T07:53:40Z</time>
      </trkpt>
      <trkpt lat="46.6221" lon="5.07615">
        <ele>189.4</ele>
        <time>2022-06-25T07:53:41Z</time>
      </trkpt>
      <trkpt lat="46.62218" lon="5.076">
        <ele>188.8</ele>
        <time>2022-06-25T07:53:42Z</time>
      </trkpt>
      <trkpt lat="46.62225" lon="5.07585">
        <ele>188.4</ele>
        <time>2022-06-25T07:53:43Z</time>
      </trkpt>
      <trkpt lat="46.62232" lon="5.07572">
        <ele>188.2</ele>
        <time>2022-06-25T07:53:44Z</time>
      </trkpt>
      <trkpt lat="46.6224" lon="5.07559">
        <ele>188</ele>
        <time>2022-06-25T07:53:45Z</time>
      </trkpt>
      <trkpt lat="46.62247" lon="5.07547">
        <ele>187.6</ele>
        <time>2022-06-25T07:53:46Z</time>
      </trkpt>
      <trkpt lat="46.62253" lon="5.07535">
        <ele>187.4</ele>
        <time>2022-06-25T07:53:47Z</time>
      </trkpt>
      <trkpt lat="46.62259" lon="5.07525">
        <ele>187.4</ele>
        <time>2022-06-25T07:53:48Z</time>
      </trkpt>
      <trkpt lat="46.62264" lon="5.07514">
        <ele>187.2</ele>
        <time>2022-06-25T07:53:49Z</time>
      </trkpt>
      <trkpt lat="46.62269" lon="5.07504">
        <ele>187.2</ele>
        <time>2022-06-25T07:53:50Z</time>
      </trkpt>
      <trkpt lat="46.62274" lon="5.07495">
        <ele>187.4</ele>
        <time>2022-06-25T07:53:51Z</time>
      </trkpt>
      <trkpt lat="46.62279" lon="5.07486">
        <ele>187.4</ele>
        <time>2022-06-25T07:53:52Z</time>
      </trkpt>
      <trkpt lat="46.62283" lon="5.07478">
        <ele>187.8</ele>
        <time>2022-06-25T07:53:53Z</time>
      </trkpt>
      <trkpt lat="46.62287" lon="5.0747">
        <ele>188</ele>
        <time>2022-06-25T07:53:54Z</time>
      </trkpt>
      <trkpt lat="46.62291" lon="5.07463">
        <ele>188.2</ele>
        <time>2022-06-25T07:53:55Z</time>
      </trkpt>
      <trkpt lat="46.62294" lon="5.07455">
        <ele>188.2</ele>
        <time>2022-06-25T07:53:56Z</time>
      </trkpt>
      <trkpt lat="46.62296" lon="5.07447">
        <ele>188.6</ele>
        <time>2022-06-25T07:53:57Z</time>
      </trkpt>
      <trkpt lat="46.62298" lon="5.0744">
        <ele>189</ele>
        <time>2022-06-25T07:53:58Z</time>
      </trkpt>
      <trkpt lat="46.623" lon="5.07433">
        <ele>189</ele>
        <time>2022-06-25T07:53:59Z</time>
      </trkpt>
      <trkpt lat="46.62302" lon="5.07425">
        <ele>189.2</ele>
        <time>2022-06-25T07:54:00Z</time>
      </trkpt>
      <trkpt lat="46.62303" lon="5.07418">
        <ele>189.2</ele>
        <time>2022-06-25T07:54:01Z</time>
      </trkpt>
      <trkpt lat="46.62305" lon="5.07412">
        <ele>189.6</ele>
        <time>2022-06-25T07:54:02Z</time>
      </trkpt>
      <trkpt lat="46.62307" lon="5.07405">
        <ele>189.8</ele>
        <time>2022-06-25T07:54:03Z</time>
      </trkpt>
      <trkpt lat="46.62308" lon="5.07398">
        <ele>190</ele>
        <time>2022-06-25T07:54:04Z</time>
      </trkpt>
      <trkpt lat="46.62309" lon="5.07392">
        <ele>190.4</ele>
        <time>2022-06-25T07:54:05Z</time>
      </trkpt>
      <trkpt lat="46.6231" lon="5.07385">
        <ele>190.6</ele>
        <time>2022-06-25T07:54:06Z</time>
      </trkpt>
      <trkpt lat="46.62312" lon="5.07378">
        <ele>191</ele>
        <time>2022-06-25T07:54:07Z</time>
      </trkpt>
      <trkpt lat="46.62313" lon="5.07372">
        <ele>191</ele>
        <time>2022-06-25T07:54:08Z</time>
      </trkpt>
      <trkpt lat="46.62314" lon="5.07366">
        <ele>191.4</ele>
        <time>2022-06-25T07:54:09Z</time>
      </trkpt>
      <trkpt lat="46.62315" lon="5.0736">
        <ele>191.6</ele>
        <time>2022-06-25T07:54:10Z</time>
      </trkpt>
      <trkpt lat="46.62316" lon="5.07354">
        <ele>191.8</ele>
        <time>2022-06-25T07:54:11Z</time>
      </trkpt>
      <trkpt lat="46.62317" lon="5.07348">
        <ele>192</ele>
        <time>2022-06-25T07:54:12Z</time>
      </trkpt>
      <trkpt lat="46.62319" lon="5.07342">
        <ele>192</ele>
        <time>2022-06-25T07:54:13Z</time>
      </trkpt>
      <trkpt lat="46.62319" lon="5.07337">
        <ele>192.4</ele>
        <time>2022-06-25T07:54:14Z</time>
      </trkpt>
      <trkpt lat="46.6232" lon="5.07331">
        <ele>192.6</ele>
        <time>2022-06-25T07:54:15Z</time>
      </trkpt>
      <trkpt lat="46.62321" lon="5.07325">
        <ele>193</ele>
        <time>2022-06-25T07:54:16Z</time>
      </trkpt>
      <trkpt lat="46.62323" lon="5.0732">
        <ele>193.2</ele>
        <time>2022-06-25T07:54:17Z</time>
      </trkpt>
      <trkpt lat="46.62324" lon="5.07314">
        <ele>193.2</ele>
        <time>2022-06-25T07:54:18Z</time>
      </trkpt>
      <trkpt lat="46.62325" lon="5.07308">
        <ele>193.6</ele>
        <time>2022-06-25T07:54:19Z</time>
      </trkpt>
      <trkpt lat="46.62327" lon="5.07302">
        <ele>193.8</ele>
        <time>2022-06-25T07:54:20Z</time>
      </trkpt>
      <trkpt lat="46.62328" lon="5.07295">
        <ele>194</ele>
        <time>2022-06-25T07:54:21Z</time>
      </trkpt>
      <trkpt lat="46.62329" lon="5.07289">
        <ele>194.2</ele>
        <time>2022-06-25T07:54:22Z</time>
      </trkpt>
      <trkpt lat="46.6233" lon="5.07283">
        <ele>194.4</ele>
        <time>2022-06-25T07:54:23Z</time>
      </trkpt>
      <trkpt lat="46.62332" lon="5.07277">
        <ele>194.4</ele>
        <time>2022-06-25T07:54:24Z</time>
      </trkpt>
      <trkpt lat="46.62333" lon="5.07271">
        <ele>194.8</ele>
        <time>2022-06-25T07:54:25Z</time>
      </trkpt>
      <trkpt lat="46.62335" lon="5.07264">
        <ele>194.8</ele>
        <time>2022-06-25T07:54:26Z</time>
      </trkpt>
      <trkpt lat="46.62336" lon="5.07258">
        <ele>194.8</ele>
        <time>2022-06-25T07:54:27Z</time>
      </trkpt>
      <trkpt lat="46.62338" lon="5.07251">
        <ele>195</ele>
        <time>2022-06-25T07:54:28Z</time>
      </trkpt>
      <trkpt lat="46.62339" lon="5.07245">
        <ele>195</ele>
        <time>2022-06-25T07:54:29Z</time>
      </trkpt>
      <trkpt lat="46.6234" lon="5.07238">
        <ele>195</ele>
        <time>2022-06-25T07:54:30Z</time>
      </trkpt>
      <trkpt lat="46.62342" lon="5.07231">
        <ele>195.4</ele>
        <time>2022-06-25T07:54:31Z</time>
      </trkpt>
      <trkpt lat="46.62343" lon="5.07224">
        <ele>195.4</ele>
        <time>2022-06-25T07:54:32Z</time>
      </trkpt>
      <trkpt lat="46.62344" lon="5.07217">
        <ele>195.4</ele>
        <time>2022-06-25T07:54:33Z</time>
      </trkpt>
      <trkpt lat="46.62346" lon="5.07209">
        <ele>195.4</ele>
        <time>2022-06-25T07:54:34Z</time>
      </trkpt>
      <trkpt lat="46.62348" lon="5.07202">
        <ele>195.6</ele>
        <time>2022-06-25T07:54:35Z</time>
      </trkpt>
      <trkpt lat="46.62349" lon="5.07194">
        <ele>195.6</ele>
        <time>2022-06-25T07:54:36Z</time>
      </trkpt>
      <trkpt lat="46.62351" lon="5.07187">
        <ele>195.6</ele>
        <time>2022-06-25T07:54:37Z</time>
      </trkpt>
      <trkpt lat="46.62352" lon="5.07179">
        <ele>195.6</ele>
        <time>2022-06-25T07:54:38Z</time>
      </trkpt>
      <trkpt lat="46.62354" lon="5.07171">
        <ele>195.6</ele>
        <time>2022-06-25T07:54:39Z</time>
      </trkpt>
      <trkpt lat="46.62356" lon="5.07164">
        <ele>195.6</ele>
        <time>2022-06-25T07:54:40Z</time>
      </trkpt>
      <trkpt lat="46.62358" lon="5.07156">
        <ele>195.2</ele>
        <time>2022-06-25T07:54:41Z</time>
      </trkpt>
      <trkpt lat="46.6236" lon="5.07147">
        <ele>195.2</ele>
        <time>2022-06-25T07:54:42Z</time>
      </trkpt>
      <trkpt lat="46.62361" lon="5.07139">
        <ele>195.2</ele>
        <time>2022-06-25T07:54:43Z</time>
      </trkpt>
      <trkpt lat="46.62363" lon="5.07131">
        <ele>194.8</ele>
        <time>2022-06-25T07:54:44Z</time>
      </trkpt>
      <trkpt lat="46.62365" lon="5.07124">
        <ele>194.8</ele>
        <time>2022-06-25T07:54:45Z</time>
      </trkpt>
      <trkpt lat="46.62366" lon="5.07116">
        <ele>194.4</ele>
        <time>2022-06-25T07:54:46Z</time>
      </trkpt>
      <trkpt lat="46.62367" lon="5.07107">
        <ele>194.2</ele>
        <time>2022-06-25T07:54:47Z</time>
      </trkpt>
      <trkpt lat="46.62368" lon="5.07098">
        <ele>194</ele>
        <time>2022-06-25T07:54:48Z</time>
      </trkpt>
      <trkpt lat="46.62368" lon="5.07089">
        <ele>193.6</ele>
        <time>2022-06-25T07:54:49Z</time>
      </trkpt>
      <trkpt lat="46.62368" lon="5.0708">
        <ele>193.4</ele>
        <time>2022-06-25T07:54:50Z</time>
      </trkpt>
      <trkpt lat="46.62366" lon="5.07071">
        <ele>193</ele>
        <time>2022-06-25T07:54:51Z</time>
      </trkpt>
      <trkpt lat="46.62363" lon="5.07063">
        <ele>192.8</ele>
        <time>2022-06-25T07:54:52Z</time>
      </trkpt>
      <trkpt lat="46.62359" lon="5.07055">
        <ele>192.8</ele>
        <time>2022-06-25T07:54:53Z</time>
      </trkpt>
      <trkpt lat="46.62354" lon="5.07047">
        <ele>192.4</ele>
        <time>2022-06-25T07:54:54Z</time>
      </trkpt>
      <trkpt lat="46.62349" lon="5.07038">
        <ele>192.4</ele>
        <time>2022-06-25T07:54:55Z</time>
      </trkpt>
      <trkpt lat="46.62343" lon="5.0703">
        <ele>192.2</ele>
        <time>2022-06-25T07:54:56Z</time>
      </trkpt>
      <trkpt lat="46.62339" lon="5.07024">
        <ele>192.2</ele>
        <time>2022-06-25T07:54:57Z</time>
      </trkpt>
      <trkpt lat="46.62336" lon="5.07019">
        <ele>191.8</ele>
        <time>2022-06-25T07:54:58Z</time>
      </trkpt>
      <trkpt lat="46.62333" lon="5.07014">
        <ele>191.8</ele>
        <time>2022-06-25T07:54:59Z</time>
      </trkpt>
      <trkpt lat="46.6233" lon="5.07011">
        <ele>191.8</ele>
        <time>2022-06-25T07:55:00Z</time>
      </trkpt>
      <trkpt lat="46.62329" lon="5.07009">
        <ele>191.8</ele>
        <time>2022-06-25T07:55:01Z</time>
      </trkpt>
      <trkpt lat="46.62328" lon="5.07007">
        <ele>191.8</ele>
        <time>2022-06-25T07:55:02Z</time>
      </trkpt>
      <trkpt lat="46.62327" lon="5.07007">
        <ele>191.6</ele>
        <time>2022-06-25T07:55:04Z</time>
      </trkpt>
      <trkpt lat="46.62327" lon="5.07007">
        <ele>191.6</ele>
        <time>2022-06-25T07:55:05Z</time>
      </trkpt>
      <trkpt lat="46.62327" lon="5.07006">
        <ele>191.6</ele>
        <time>2022-06-25T07:55:06Z</time>
      </trkpt>
      <trkpt lat="46.62327" lon="5.07006">
        <ele>191.6</ele>
        <time>2022-06-25T07:55:08Z</time>
      </trkpt>
      <trkpt lat="46.62326" lon="5.07006">
        <ele>191.4</ele>
        <time>2022-06-25T07:55:14Z</time>
      </trkpt>
      <trkpt lat="46.62326" lon="5.07005">
        <ele>191.4</ele>
        <time>2022-06-25T07:55:15Z</time>
      </trkpt>
      <trkpt lat="46.62326" lon="5.07005">
        <ele>191.4</ele>
        <time>2022-06-25T07:55:17Z</time>
      </trkpt>
      <trkpt lat="46.62325" lon="5.07004">
        <ele>191.2</ele>
        <time>2022-06-25T07:55:19Z</time>
      </trkpt>
      <trkpt lat="46.62325" lon="5.07004">
        <ele>191.2</ele>
        <time>2022-06-25T07:55:20Z</time>
      </trkpt>
      <trkpt lat="46.62325" lon="5.07004">
        <ele>191.2</ele>
        <time>2022-06-25T07:55:22Z</time>
      </trkpt>
      <trkpt lat="46.62324" lon="5.07003">
        <ele>191.8</ele>
        <time>2022-06-25T07:56:15Z</time>
      </trkpt>
      <trkpt lat="46.62324" lon="5.07003">
        <ele>191.8</ele>
        <time>2022-06-25T07:56:16Z</time>
      </trkpt>
      <trkpt lat="46.62324" lon="5.07003">
        <ele>191.8</ele>
        <time>2022-06-25T07:56:18Z</time>
      </trkpt>
      <trkpt lat="46.62324" lon="5.07002">
        <ele>191.8</ele>
        <time>2022-06-25T07:56:19Z</time>
      </trkpt>
      <trkpt lat="46.62323" lon="5.07002">
        <ele>191.8</ele>
        <time>2022-06-25T07:56:24Z</time>
      </trkpt>
      <trkpt lat="46.62323" lon="5.07002">
        <ele>191.8</ele>
        <time>2022-06-25T07:56:26Z</time>
      </trkpt>
      <trkpt lat="46.62323" lon="5.07001">
        <ele>191.8</ele>
        <time>2022-06-25T07:56:28Z</time>
      </trkpt>
      <trkpt lat="46.62322" lon="5.07">
        <ele>191.8</ele>
        <time>2022-06-25T07:56:29Z</time>
      </trkpt>
      <trkpt lat="46.62321" lon="5.06998">
        <ele>191.8</ele>
        <time>2022-06-25T07:56:30Z</time>
      </trkpt>
      <trkpt lat="46.62319" lon="5.06995">
        <ele>191.8</ele>
        <time>2022-06-25T07:56:31Z</time>
      </trkpt>
      <trkpt lat="46.62317" lon="5.06993">
        <ele>191.8</ele>
        <time>2022-06-25T07:56:32Z</time>
      </trkpt>
      <trkpt lat="46.62314" lon="5.06991">
        <ele>191.8</ele>
        <time>2022-06-25T07:56:33Z</time>
      </trkpt>
      <trkpt lat="46.62312" lon="5.06988">
        <ele>191.8</ele>
        <time>2022-06-25T07:56:34Z</time>
      </trkpt>
      <trkpt lat="46.6231" lon="5.06985">
        <ele>191.8</ele>
        <time>2022-06-25T07:56:35Z</time>
      </trkpt>
      <trkpt lat="46.62308" lon="5.06983">
        <ele>191.8</ele>
        <time>2022-06-25T07:56:36Z</time>
      </trkpt>
      <trkpt lat="46.62305" lon="5.0698">
        <ele>191.8</ele>
        <time>2022-06-25T07:56:37Z</time>
      </trkpt>
      <trkpt lat="46.62303" lon="5.06978">
        <ele>192</ele>
        <time>2022-06-25T07:56:38Z</time>
      </trkpt>
      <trkpt lat="46.62299" lon="5.06975">
        <ele>192</ele>
        <time>2022-06-25T07:56:39Z</time>
      </trkpt>
      <trkpt lat="46.62297" lon="5.06972">
        <ele>192</ele>
        <time>2022-06-25T07:56:40Z</time>
      </trkpt>
      <trkpt lat="46.62294" lon="5.06968">
        <ele>192</ele>
        <time>2022-06-25T07:56:41Z</time>
      </trkpt>
      <trkpt lat="46.62289" lon="5.06964">
        <ele>192</ele>
        <time>2022-06-25T07:56:42Z</time>
      </trkpt>
      <trkpt lat="46.62285" lon="5.06959">
        <ele>192.2</ele>
        <time>2022-06-25T07:56:43Z</time>
      </trkpt>
      <trkpt lat="46.62281" lon="5.06955">
        <ele>192.4</ele>
        <time>2022-06-25T07:56:44Z</time>
      </trkpt>
      <trkpt lat="46.62277" lon="5.06951">
        <ele>192.4</ele>
        <time>2022-06-25T07:56:45Z</time>
      </trkpt>
      <trkpt lat="46.62274" lon="5.06948">
        <ele>192.8</ele>
        <time>2022-06-25T07:56:46Z</time>
      </trkpt>
      <trkpt lat="46.6227" lon="5.06945">
        <ele>193</ele>
        <time>2022-06-25T07:56:47Z</time>
      </trkpt>
      <trkpt lat="46.62268" lon="5.06943">
        <ele>193.4</ele>
        <time>2022-06-25T07:56:48Z</time>
      </trkpt>
      <trkpt lat="46.62264" lon="5.06939">
        <ele>193.6</ele>
        <time>2022-06-25T07:56:49Z</time>
      </trkpt>
      <trkpt lat="46.62261" lon="5.06936">
        <ele>193.8</ele>
        <time>2022-06-25T07:56:50Z</time>
      </trkpt>
      <trkpt lat="46.62259" lon="5.06935">
        <ele>194</ele>
        <time>2022-06-25T07:56:51Z</time>
      </trkpt>
      <trkpt lat="46.62256" lon="5.06933">
        <ele>194.2</ele>
        <time>2022-06-25T07:56:52Z</time>
      </trkpt>
      <trkpt lat="46.62253" lon="5.06932">
        <ele>194.6</ele>
        <time>2022-06-25T07:56:53Z</time>
      </trkpt>
      <trkpt lat="46.62251" lon="5.06931">
        <ele>194.8</ele>
        <time>2022-06-25T07:56:54Z</time>
      </trkpt>
      <trkpt lat="46.62249" lon="5.0693">
        <ele>195.2</ele>
        <time>2022-06-25T07:56:55Z</time>
      </trkpt>
      <trkpt lat="46.62247" lon="5.06929">
        <ele>195.4</ele>
        <time>2022-06-25T07:56:56Z</time>
      </trkpt>
      <trkpt lat="46.62245" lon="5.06927">
        <ele>195.6</ele>
        <time>2022-06-25T07:56:57Z</time>
      </trkpt>
      <trkpt lat="46.62243" lon="5.06925">
        <ele>195.8</ele>
        <time>2022-06-25T07:56:58Z</time>
      </trkpt>
      <trkpt lat="46.62239" lon="5.06922">
        <ele>196.2</ele>
        <time>2022-06-25T07:56:59Z</time>
      </trkpt>
      <trkpt lat="46.62237" lon="5.0692">
        <ele>196.4</ele>
        <time>2022-06-25T07:57:00Z</time>
      </trkpt>
      <trkpt lat="46.62235" lon="5.0692">
        <ele>196.8</ele>
        <time>2022-06-25T07:57:01Z</time>
      </trkpt>
      <trkpt lat="46.62233" lon="5.06919">
        <ele>197</ele>
        <time>2022-06-25T07:57:02Z</time>
      </trkpt>
      <trkpt lat="46.6223" lon="5.06917">
        <ele>197.2</ele>
        <time>2022-06-25T07:57:03Z</time>
      </trkpt>
      <trkpt lat="46.62226" lon="5.06915">
        <ele>197.4</ele>
        <time>2022-06-25T07:57:04Z</time>
      </trkpt>
      <trkpt lat="46.62223" lon="5.06913">
        <ele>197.6</ele>
        <time>2022-06-25T07:57:05Z</time>
      </trkpt>
      <trkpt lat="46.6222" lon="5.0691">
        <ele>198</ele>
        <time>2022-06-25T07:57:06Z</time>
      </trkpt>
      <trkpt lat="46.62217" lon="5.06909">
        <ele>198.2</ele>
        <time>2022-06-25T07:57:07Z</time>
      </trkpt>
      <trkpt lat="46.62215" lon="5.06908">
        <ele>198.2</ele>
        <time>2022-06-25T07:57:08Z</time>
      </trkpt>
      <trkpt lat="46.6221" lon="5.06903">
        <ele>198.6</ele>
        <time>2022-06-25T07:57:09Z</time>
      </trkpt>
      <trkpt lat="46.62206" lon="5.069">
        <ele>198.6</ele>
        <time>2022-06-25T07:57:10Z</time>
      </trkpt>
      <trkpt lat="46.62201" lon="5.06899">
        <ele>199</ele>
        <time>2022-06-25T07:57:11Z</time>
      </trkpt>
      <trkpt lat="46.62197" lon="5.06898">
        <ele>199</ele>
        <time>2022-06-25T07:57:12Z</time>
      </trkpt>
      <trkpt lat="46.62193" lon="5.06897">
        <ele>199.2</ele>
        <time>2022-06-25T07:57:13Z</time>
      </trkpt>
      <trkpt lat="46.6219" lon="5.06896">
        <ele>199.2</ele>
        <time>2022-06-25T07:57:14Z</time>
      </trkpt>
      <trkpt lat="46.62186" lon="5.06894">
        <ele>199.6</ele>
        <time>2022-06-25T07:57:15Z</time>
      </trkpt>
      <trkpt lat="46.62182" lon="5.06892">
        <ele>199.6</ele>
        <time>2022-06-25T07:57:16Z</time>
      </trkpt>
      <trkpt lat="46.62178" lon="5.0689">
        <ele>199.8</ele>
        <time>2022-06-25T07:57:17Z</time>
      </trkpt>
      <trkpt lat="46.62174" lon="5.06888">
        <ele>199.8</ele>
        <time>2022-06-25T07:57:18Z</time>
      </trkpt>
      <trkpt lat="46.6217" lon="5.06887">
        <ele>200</ele>
        <time>2022-06-25T07:57:19Z</time>
      </trkpt>
      <trkpt lat="46.62166" lon="5.06886">
        <ele>200</ele>
        <time>2022-06-25T07:57:20Z</time>
      </trkpt>
      <trkpt lat="46.62162" lon="5.06884">
        <ele>200</ele>
        <time>2022-06-25T07:57:21Z</time>
      </trkpt>
      <trkpt lat="46.62157" lon="5.06883">
        <ele>200</ele>
        <time>2022-06-25T07:57:22Z</time>
      </trkpt>
      <trkpt lat="46.62153" lon="5.06882">
        <ele>200</ele>
        <time>2022-06-25T07:57:23Z</time>
      </trkpt>
      <trkpt lat="46.62147" lon="5.06881">
        <ele>200</ele>
        <time>2022-06-25T07:57:24Z</time>
      </trkpt>
      <trkpt lat="46.62141" lon="5.06881">
        <ele>199.8</ele>
        <time>2022-06-25T07:57:25Z</time>
      </trkpt>
      <trkpt lat="46.62135" lon="5.0688">
        <ele>199.8</ele>
        <time>2022-06-25T07:57:26Z</time>
      </trkpt>
      <trkpt lat="46.62129" lon="5.0688">
        <ele>199.4</ele>
        <time>2022-06-25T07:57:27Z</time>
      </trkpt>
      <trkpt lat="46.62122" lon="5.0688">
        <ele>199.2</ele>
        <time>2022-06-25T07:57:28Z</time>
      </trkpt>
      <trkpt lat="46.62115" lon="5.06881">
        <ele>198.8</ele>
        <time>2022-06-25T07:57:29Z</time>
      </trkpt>
      <trkpt lat="46.62107" lon="5.06882">
        <ele>198.4</ele>
        <time>2022-06-25T07:57:30Z</time>
      </trkpt>
      <trkpt lat="46.62099" lon="5.06884">
        <ele>197.8</ele>
        <time>2022-06-25T07:57:31Z</time>
      </trkpt>
      <trkpt lat="46.6209" lon="5.06885">
        <ele>197.4</ele>
        <time>2022-06-25T07:57:32Z</time>
      </trkpt>
      <trkpt lat="46.6208" lon="5.06886">
        <ele>196.8</ele>
        <time>2022-06-25T07:57:33Z</time>
      </trkpt>
      <trkpt lat="46.6207" lon="5.06886">
        <ele>196.4</ele>
        <time>2022-06-25T07:57:34Z</time>
      </trkpt>
      <trkpt lat="46.6206" lon="5.06886">
        <ele>196</ele>
        <time>2022-06-25T07:57:35Z</time>
      </trkpt>
      <trkpt lat="46.6205" lon="5.06885">
        <ele>195.6</ele>
        <time>2022-06-25T07:57:36Z</time>
      </trkpt>
      <trkpt lat="46.62042" lon="5.06883">
        <ele>195.4</ele>
        <time>2022-06-25T07:57:37Z</time>
      </trkpt>
      <trkpt lat="46.62033" lon="5.06882">
        <ele>195.2</ele>
        <time>2022-06-25T07:57:38Z</time>
      </trkpt>
      <trkpt lat="46.62024" lon="5.06881">
        <ele>195.2</ele>
        <time>2022-06-25T07:57:39Z</time>
      </trkpt>
      <trkpt lat="46.62016" lon="5.0688">
        <ele>194.8</ele>
        <time>2022-06-25T07:57:40Z</time>
      </trkpt>
      <trkpt lat="46.62007" lon="5.06879">
        <ele>194.8</ele>
        <time>2022-06-25T07:57:41Z</time>
      </trkpt>
      <trkpt lat="46.61999" lon="5.06878">
        <ele>194.8</ele>
        <time>2022-06-25T07:57:42Z</time>
      </trkpt>
      <trkpt lat="46.61991" lon="5.06878">
        <ele>194.8</ele>
        <time>2022-06-25T07:57:43Z</time>
      </trkpt>
      <trkpt lat="46.61983" lon="5.06877">
        <ele>194.8</ele>
        <time>2022-06-25T07:57:44Z</time>
      </trkpt>
      <trkpt lat="46.61975" lon="5.06875">
        <ele>194.8</ele>
        <time>2022-06-25T07:57:45Z</time>
      </trkpt>
      <trkpt lat="46.61967" lon="5.06873">
        <ele>194.8</ele>
        <time>2022-06-25T07:57:46Z</time>
      </trkpt>
      <trkpt lat="46.6196" lon="5.06872">
        <ele>194.8</ele>
        <time>2022-06-25T07:57:47Z</time>
      </trkpt>
      <trkpt lat="46.61954" lon="5.06871">
        <ele>194.8</ele>
        <time>2022-06-25T07:57:48Z</time>
      </trkpt>
      <trkpt lat="46.61947" lon="5.0687">
        <ele>195</ele>
        <time>2022-06-25T07:57:49Z</time>
      </trkpt>
      <trkpt lat="46.61942" lon="5.06869">
        <ele>195</ele>
        <time>2022-06-25T07:57:50Z</time>
      </trkpt>
      <trkpt lat="46.61936" lon="5.06867">
        <ele>195.4</ele>
        <time>2022-06-25T07:57:51Z</time>
      </trkpt>
      <trkpt lat="46.6193" lon="5.06866">
        <ele>195.6</ele>
        <time>2022-06-25T07:57:52Z</time>
      </trkpt>
      <trkpt lat="46.61924" lon="5.06865">
        <ele>195.8</ele>
        <time>2022-06-25T07:57:53Z</time>
      </trkpt>
      <trkpt lat="46.61919" lon="5.06864">
        <ele>196</ele>
        <time>2022-06-25T07:57:54Z</time>
      </trkpt>
      <trkpt lat="46.61914" lon="5.06864">
        <ele>196.2</ele>
        <time>2022-06-25T07:57:55Z</time>
      </trkpt>
      <trkpt lat="46.61908" lon="5.06863">
        <ele>196.4</ele>
        <time>2022-06-25T07:57:56Z</time>
      </trkpt>
      <trkpt lat="46.61904" lon="5.06862">
        <ele>196.8</ele>
        <time>2022-06-25T07:57:57Z</time>
      </trkpt>
      <trkpt lat="46.61899" lon="5.06862">
        <ele>197</ele>
        <time>2022-06-25T07:57:58Z</time>
      </trkpt>
      <trkpt lat="46.61893" lon="5.06862">
        <ele>197.2</ele>
        <time>2022-06-25T07:57:59Z</time>
      </trkpt>
      <trkpt lat="46.61888" lon="5.06862">
        <ele>197.2</ele>
        <time>2022-06-25T07:58:00Z</time>
      </trkpt>
      <trkpt lat="46.61883" lon="5.06861">
        <ele>197.6</ele>
        <time>2022-06-25T07:58:01Z</time>
      </trkpt>
      <trkpt lat="46.61877" lon="5.06859">
        <ele>197.6</ele>
        <time>2022-06-25T07:58:02Z</time>
      </trkpt>
      <trkpt lat="46.61872" lon="5.06858">
        <ele>197.8</ele>
        <time>2022-06-25T07:58:03Z</time>
      </trkpt>
      <trkpt lat="46.61867" lon="5.06858">
        <ele>198.2</ele>
        <time>2022-06-25T07:58:04Z</time>
      </trkpt>
      <trkpt lat="46.61863" lon="5.06857">
        <ele>198.2</ele>
        <time>2022-06-25T07:58:05Z</time>
      </trkpt>
      <trkpt lat="46.61858" lon="5.06857">
        <ele>198.6</ele>
        <time>2022-06-25T07:58:06Z</time>
      </trkpt>
      <trkpt lat="46.61854" lon="5.06857">
        <ele>198.6</ele>
        <time>2022-06-25T07:58:07Z</time>
      </trkpt>
      <trkpt lat="46.6185" lon="5.06856">
        <ele>198.8</ele>
        <time>2022-06-25T07:58:08Z</time>
      </trkpt>
      <trkpt lat="46.61846" lon="5.06855">
        <ele>199</ele>
        <time>2022-06-25T07:58:09Z</time>
      </trkpt>
      <trkpt lat="46.61842" lon="5.06855">
        <ele>199.2</ele>
        <time>2022-06-25T07:58:10Z</time>
      </trkpt>
      <trkpt lat="46.61837" lon="5.06855">
        <ele>199.6</ele>
        <time>2022-06-25T07:58:11Z</time>
      </trkpt>
      <trkpt lat="46.61833" lon="5.06855">
        <ele>199.8</ele>
        <time>2022-06-25T07:58:12Z</time>
      </trkpt>
      <trkpt lat="46.61829" lon="5.06854">
        <ele>199.8</ele>
        <time>2022-06-25T07:58:13Z</time>
      </trkpt>
      <trkpt lat="46.61825" lon="5.06854">
        <ele>200</ele>
        <time>2022-06-25T07:58:14Z</time>
      </trkpt>
      <trkpt lat="46.61821" lon="5.06854">
        <ele>200</ele>
        <time>2022-06-25T07:58:15Z</time>
      </trkpt>
      <trkpt lat="46.61817" lon="5.06853">
        <ele>200.4</ele>
        <time>2022-06-25T07:58:16Z</time>
      </trkpt>
      <trkpt lat="46.61813" lon="5.06853">
        <ele>200.4</ele>
        <time>2022-06-25T07:58:17Z</time>
      </trkpt>
      <trkpt lat="46.61809" lon="5.06852">
        <ele>200.6</ele>
        <time>2022-06-25T07:58:18Z</time>
      </trkpt>
      <trkpt lat="46.61804" lon="5.06851">
        <ele>200.6</ele>
        <time>2022-06-25T07:58:19Z</time>
      </trkpt>
      <trkpt lat="46.61799" lon="5.06851">
        <ele>200.6</ele>
        <time>2022-06-25T07:58:20Z</time>
      </trkpt>
      <trkpt lat="46.61795" lon="5.0685">
        <ele>200.8</ele>
        <time>2022-06-25T07:58:21Z</time>
      </trkpt>
      <trkpt lat="46.61789" lon="5.0685">
        <ele>200.8</ele>
        <time>2022-06-25T07:58:22Z</time>
      </trkpt>
      <trkpt lat="46.61784" lon="5.06849">
        <ele>200.8</ele>
        <time>2022-06-25T07:58:23Z</time>
      </trkpt>
      <trkpt lat="46.61779" lon="5.06848">
        <ele>200.8</ele>
        <time>2022-06-25T07:58:24Z</time>
      </trkpt>
      <trkpt lat="46.61774" lon="5.06848">
        <ele>200.8</ele>
        <time>2022-06-25T07:58:25Z</time>
      </trkpt>
      <trkpt lat="46.61768" lon="5.06847">
        <ele>201</ele>
        <time>2022-06-25T07:58:26Z</time>
      </trkpt>
      <trkpt lat="46.61763" lon="5.06846">
        <ele>201</ele>
        <time>2022-06-25T07:58:27Z</time>
      </trkpt>
      <trkpt lat="46.61757" lon="5.06846">
        <ele>201</ele>
        <time>2022-06-25T07:58:28Z</time>
      </trkpt>
      <trkpt lat="46.61751" lon="5.06845">
        <ele>201</ele>
        <time>2022-06-25T07:58:29Z</time>
      </trkpt>
      <trkpt lat="46.61745" lon="5.06844">
        <ele>201</ele>
        <time>2022-06-25T07:58:30Z</time>
      </trkpt>
      <trkpt lat="46.61739" lon="5.06844">
        <ele>201</ele>
        <time>2022-06-25T07:58:31Z</time>
      </trkpt>
      <trkpt lat="46.61733" lon="5.06843">
        <ele>201</ele>
        <time>2022-06-25T07:58:32Z</time>
      </trkpt>
      <trkpt lat="46.61726" lon="5.06842">
        <ele>201</ele>
        <time>2022-06-25T07:58:33Z</time>
      </trkpt>
      <trkpt lat="46.6172" lon="5.06841">
        <ele>201</ele>
        <time>2022-06-25T07:58:34Z</time>
      </trkpt>
      <trkpt lat="46.61713" lon="5.06841">
        <ele>201</ele>
        <time>2022-06-25T07:58:35Z</time>
      </trkpt>
      <trkpt lat="46.61707" lon="5.0684">
        <ele>201</ele>
        <time>2022-06-25T07:58:36Z</time>
      </trkpt>
      <trkpt lat="46.61701" lon="5.06839">
        <ele>201</ele>
        <time>2022-06-25T07:58:37Z</time>
      </trkpt>
      <trkpt lat="46.61694" lon="5.06838">
        <ele>201</ele>
        <time>2022-06-25T07:58:38Z</time>
      </trkpt>
      <trkpt lat="46.61687" lon="5.06837">
        <ele>200.8</ele>
        <time>2022-06-25T07:58:39Z</time>
      </trkpt>
      <trkpt lat="46.61681" lon="5.06837">
        <ele>200.8</ele>
        <time>2022-06-25T07:58:40Z</time>
      </trkpt>
      <trkpt lat="46.61674" lon="5.06836">
        <ele>200.8</ele>
        <time>2022-06-25T07:58:41Z</time>
      </trkpt>
      <trkpt lat="46.61668" lon="5.06835">
        <ele>200.8</ele>
        <time>2022-06-25T07:58:42Z</time>
      </trkpt>
      <trkpt lat="46.61661" lon="5.06834">
        <ele>200.8</ele>
        <time>2022-06-25T07:58:43Z</time>
      </trkpt>
      <trkpt lat="46.61655" lon="5.06833">
        <ele>200.8</ele>
        <time>2022-06-25T07:58:44Z</time>
      </trkpt>
      <trkpt lat="46.61648" lon="5.06833">
        <ele>200.8</ele>
        <time>2022-06-25T07:58:45Z</time>
      </trkpt>
      <trkpt lat="46.61642" lon="5.06832">
        <ele>200.8</ele>
        <time>2022-06-25T07:58:46Z</time>
      </trkpt>
      <trkpt lat="46.61635" lon="5.06831">
        <ele>200.8</ele>
        <time>2022-06-25T07:58:47Z</time>
      </trkpt>
      <trkpt lat="46.61628" lon="5.06831">
        <ele>200.8</ele>
        <time>2022-06-25T07:58:48Z</time>
      </trkpt>
      <trkpt lat="46.61622" lon="5.0683">
        <ele>200.8</ele>
        <time>2022-06-25T07:58:49Z</time>
      </trkpt>
      <trkpt lat="46.61616" lon="5.06829">
        <ele>200.8</ele>
        <time>2022-06-25T07:58:50Z</time>
      </trkpt>
      <trkpt lat="46.6161" lon="5.06828">
        <ele>200.8</ele>
        <time>2022-06-25T07:58:51Z</time>
      </trkpt>
      <trkpt lat="46.61603" lon="5.06828">
        <ele>200.8</ele>
        <time>2022-06-25T07:58:52Z</time>
      </trkpt>
      <trkpt lat="46.61597" lon="5.06827">
        <ele>200.8</ele>
        <time>2022-06-25T07:58:53Z</time>
      </trkpt>
      <trkpt lat="46.61591" lon="5.06827">
        <ele>200.8</ele>
        <time>2022-06-25T07:58:54Z</time>
      </trkpt>
      <trkpt lat="46.61585" lon="5.06826">
        <ele>200.8</ele>
        <time>2022-06-25T07:58:55Z</time>
      </trkpt>
      <trkpt lat="46.6158" lon="5.06826">
        <ele>200.8</ele>
        <time>2022-06-25T07:58:56Z</time>
      </trkpt>
      <trkpt lat="46.61574" lon="5.06825">
        <ele>200.8</ele>
        <time>2022-06-25T07:58:57Z</time>
      </trkpt>
      <trkpt lat="46.61568" lon="5.06824">
        <ele>201</ele>
        <time>2022-06-25T07:58:58Z</time>
      </trkpt>
      <trkpt lat="46.61562" lon="5.06823">
        <ele>201</ele>
        <time>2022-06-25T07:58:59Z</time>
      </trkpt>
      <trkpt lat="46.61557" lon="5.06822">
        <ele>201.2</ele>
        <time>2022-06-25T07:59:00Z</time>
      </trkpt>
      <trkpt lat="46.61551" lon="5.06821">
        <ele>201.2</ele>
        <time>2022-06-25T07:59:01Z</time>
      </trkpt>
      <trkpt lat="46.61546" lon="5.06819">
        <ele>201.2</ele>
        <time>2022-06-25T07:59:02Z</time>
      </trkpt>
      <trkpt lat="46.61541" lon="5.06818">
        <ele>201.4</ele>
        <time>2022-06-25T07:59:03Z</time>
      </trkpt>
      <trkpt lat="46.61535" lon="5.06816">
        <ele>201.4</ele>
        <time>2022-06-25T07:59:04Z</time>
      </trkpt>
      <trkpt lat="46.6153" lon="5.06813">
        <ele>201.6</ele>
        <time>2022-06-25T07:59:05Z</time>
      </trkpt>
      <trkpt lat="46.61525" lon="5.06811">
        <ele>201.6</ele>
        <time>2022-06-25T07:59:06Z</time>
      </trkpt>
      <trkpt lat="46.61519" lon="5.06808">
        <ele>201.6</ele>
        <time>2022-06-25T07:59:07Z</time>
      </trkpt>
      <trkpt lat="46.61514" lon="5.06805">
        <ele>201.6</ele>
        <time>2022-06-25T07:59:08Z</time>
      </trkpt>
      <trkpt lat="46.61509" lon="5.06802">
        <ele>201.6</ele>
        <time>2022-06-25T07:59:09Z</time>
      </trkpt>
      <trkpt lat="46.61503" lon="5.06799">
        <ele>201.6</ele>
        <time>2022-06-25T07:59:10Z</time>
      </trkpt>
      <trkpt lat="46.61497" lon="5.06794">
        <ele>201.6</ele>
        <time>2022-06-25T07:59:11Z</time>
      </trkpt>
      <trkpt lat="46.61491" lon="5.0679">
        <ele>201.6</ele>
        <time>2022-06-25T07:59:12Z</time>
      </trkpt>
      <trkpt lat="46.61485" lon="5.06785">
        <ele>201.4</ele>
        <time>2022-06-25T07:59:13Z</time>
      </trkpt>
      <trkpt lat="46.61479" lon="5.06781">
        <ele>201.2</ele>
        <time>2022-06-25T07:59:14Z</time>
      </trkpt>
      <trkpt lat="46.61472" lon="5.06776">
        <ele>200.8</ele>
        <time>2022-06-25T07:59:15Z</time>
      </trkpt>
      <trkpt lat="46.61464" lon="5.06771">
        <ele>200.6</ele>
        <time>2022-06-25T07:59:16Z</time>
      </trkpt>
      <trkpt lat="46.61457" lon="5.06765">
        <ele>200.2</ele>
        <time>2022-06-25T07:59:17Z</time>
      </trkpt>
      <trkpt lat="46.61449" lon="5.06759">
        <ele>199.8</ele>
        <time>2022-06-25T07:59:18Z</time>
      </trkpt>
      <trkpt lat="46.61441" lon="5.06754">
        <ele>199.6</ele>
        <time>2022-06-25T07:59:19Z</time>
      </trkpt>
      <trkpt lat="46.61432" lon="5.06746">
        <ele>199.2</ele>
        <time>2022-06-25T07:59:20Z</time>
      </trkpt>
      <trkpt lat="46.61423" lon="5.0674">
        <ele>198.6</ele>
        <time>2022-06-25T07:59:21Z</time>
      </trkpt>
      <trkpt lat="46.61414" lon="5.06734">
        <ele>198.2</ele>
        <time>2022-06-25T07:59:22Z</time>
      </trkpt>
      <trkpt lat="46.61406" lon="5.06729">
        <ele>197.8</ele>
        <time>2022-06-25T07:59:23Z</time>
      </trkpt>
      <trkpt lat="46.61397" lon="5.06722">
        <ele>196.8</ele>
        <time>2022-06-25T07:59:24Z</time>
      </trkpt>
      <trkpt lat="46.61389" lon="5.06715">
        <ele>196.4</ele>
        <time>2022-06-25T07:59:25Z</time>
      </trkpt>
      <trkpt lat="46.61381" lon="5.06708">
        <ele>196.2</ele>
        <time>2022-06-25T07:59:26Z</time>
      </trkpt>
      <trkpt lat="46.61371" lon="5.06702">
        <ele>195.8</ele>
        <time>2022-06-25T07:59:27Z</time>
      </trkpt>
      <trkpt lat="46.61363" lon="5.06696">
        <ele>195.6</ele>
        <time>2022-06-25T07:59:28Z</time>
      </trkpt>
      <trkpt lat="46.61355" lon="5.0669">
        <ele>195.2</ele>
        <time>2022-06-25T07:59:29Z</time>
      </trkpt>
      <trkpt lat="46.61348" lon="5.06685">
        <ele>195.2</ele>
        <time>2022-06-25T07:59:30Z</time>
      </trkpt>
      <trkpt lat="46.6134" lon="5.06679">
        <ele>195</ele>
        <time>2022-06-25T07:59:31Z</time>
      </trkpt>
      <trkpt lat="46.61333" lon="5.06674">
        <ele>195</ele>
        <time>2022-06-25T07:59:32Z</time>
      </trkpt>
      <trkpt lat="46.61327" lon="5.06669">
        <ele>195</ele>
        <time>2022-06-25T07:59:33Z</time>
      </trkpt>
      <trkpt lat="46.61321" lon="5.06665">
        <ele>195.2</ele>
        <time>2022-06-25T07:59:34Z</time>
      </trkpt>
      <trkpt lat="46.61315" lon="5.06661">
        <ele>195.4</ele>
        <time>2022-06-25T07:59:35Z</time>
      </trkpt>
      <trkpt lat="46.6131" lon="5.06656">
        <ele>195.6</ele>
        <time>2022-06-25T07:59:36Z</time>
      </trkpt>
      <trkpt lat="46.61305" lon="5.06653">
        <ele>196</ele>
        <time>2022-06-25T07:59:37Z</time>
      </trkpt>
      <trkpt lat="46.61301" lon="5.06649">
        <ele>196.4</ele>
        <time>2022-06-25T07:59:38Z</time>
      </trkpt>
      <trkpt lat="46.61296" lon="5.06646">
        <ele>196.6</ele>
        <time>2022-06-25T07:59:39Z</time>
      </trkpt>
      <trkpt lat="46.61292" lon="5.06643">
        <ele>197.2</ele>
        <time>2022-06-25T07:59:40Z</time>
      </trkpt>
      <trkpt lat="46.61288" lon="5.0664">
        <ele>197.4</ele>
        <time>2022-06-25T07:59:41Z</time>
      </trkpt>
      <trkpt lat="46.61284" lon="5.06637">
        <ele>197.8</ele>
        <time>2022-06-25T07:59:42Z</time>
      </trkpt>
      <trkpt lat="46.61281" lon="5.06634">
        <ele>198.2</ele>
        <time>2022-06-25T07:59:43Z</time>
      </trkpt>
      <trkpt lat="46.61277" lon="5.06632">
        <ele>198.4</ele>
        <time>2022-06-25T07:59:44Z</time>
      </trkpt>
      <trkpt lat="46.61274" lon="5.06629">
        <ele>198.6</ele>
        <time>2022-06-25T07:59:45Z</time>
      </trkpt>
      <trkpt lat="46.6127" lon="5.06627">
        <ele>199</ele>
        <time>2022-06-25T07:59:46Z</time>
      </trkpt>
      <trkpt lat="46.61267" lon="5.06625">
        <ele>199.2</ele>
        <time>2022-06-25T07:59:47Z</time>
      </trkpt>
      <trkpt lat="46.61264" lon="5.06622">
        <ele>199.6</ele>
        <time>2022-06-25T07:59:48Z</time>
      </trkpt>
      <trkpt lat="46.61261" lon="5.06619">
        <ele>199.8</ele>
        <time>2022-06-25T07:59:49Z</time>
      </trkpt>
      <trkpt lat="46.61257" lon="5.06617">
        <ele>200.2</ele>
        <time>2022-06-25T07:59:50Z</time>
      </trkpt>
      <trkpt lat="46.61254" lon="5.06615">
        <ele>200.4</ele>
        <time>2022-06-25T07:59:51Z</time>
      </trkpt>
      <trkpt lat="46.61251" lon="5.06613">
        <ele>200.8</ele>
        <time>2022-06-25T07:59:52Z</time>
      </trkpt>
      <trkpt lat="46.61248" lon="5.06611">
        <ele>201</ele>
        <time>2022-06-25T07:59:53Z</time>
      </trkpt>
      <trkpt lat="46.61245" lon="5.06608">
        <ele>201.4</ele>
        <time>2022-06-25T07:59:54Z</time>
      </trkpt>
      <trkpt lat="46.61242" lon="5.06606">
        <ele>201.6</ele>
        <time>2022-06-25T07:59:55Z</time>
      </trkpt>
      <trkpt lat="46.61238" lon="5.06604">
        <ele>201.8</ele>
        <time>2022-06-25T07:59:56Z</time>
      </trkpt>
      <trkpt lat="46.61234" lon="5.06601">
        <ele>201.8</ele>
        <time>2022-06-25T07:59:57Z</time>
      </trkpt>
      <trkpt lat="46.6123" lon="5.06598">
        <ele>202</ele>
        <time>2022-06-25T07:59:58Z</time>
      </trkpt>
      <trkpt lat="46.61226" lon="5.06596">
        <ele>202</ele>
        <time>2022-06-25T07:59:59Z</time>
      </trkpt>
      <trkpt lat="46.61222" lon="5.06593">
        <ele>202.2</ele>
        <time>2022-06-25T08:00:00Z</time>
      </trkpt>
      <trkpt lat="46.61218" lon="5.0659">
        <ele>202.2</ele>
        <time>2022-06-25T08:00:01Z</time>
      </trkpt>
      <trkpt lat="46.61213" lon="5.06587">
        <ele>202.2</ele>
        <time>2022-06-25T08:00:02Z</time>
      </trkpt>
      <trkpt lat="46.61209" lon="5.06584">
        <ele>202.2</ele>
        <time>2022-06-25T08:00:03Z</time>
      </trkpt>
      <trkpt lat="46.61204" lon="5.06582">
        <ele>202.2</ele>
        <time>2022-06-25T08:00:04Z</time>
      </trkpt>
      <trkpt lat="46.61199" lon="5.0658">
        <ele>202.4</ele>
        <time>2022-06-25T08:00:05Z</time>
      </trkpt>
      <trkpt lat="46.61194" lon="5.06577">
        <ele>202.4</ele>
        <time>2022-06-25T08:00:06Z</time>
      </trkpt>
      <trkpt lat="46.61189" lon="5.06575">
        <ele>202.4</ele>
        <time>2022-06-25T08:00:07Z</time>
      </trkpt>
      <trkpt lat="46.61184" lon="5.06572">
        <ele>202.4</ele>
        <time>2022-06-25T08:00:08Z</time>
      </trkpt>
      <trkpt lat="46.61178" lon="5.0657">
        <ele>202.4</ele>
        <time>2022-06-25T08:00:09Z</time>
      </trkpt>
      <trkpt lat="46.61173" lon="5.06569">
        <ele>202.4</ele>
        <time>2022-06-25T08:00:10Z</time>
      </trkpt>
      <trkpt lat="46.61168" lon="5.06567">
        <ele>202.4</ele>
        <time>2022-06-25T08:00:11Z</time>
      </trkpt>
      <trkpt lat="46.61162" lon="5.06565">
        <ele>202.4</ele>
        <time>2022-06-25T08:00:12Z</time>
      </trkpt>
      <trkpt lat="46.61156" lon="5.06563">
        <ele>202.4</ele>
        <time>2022-06-25T08:00:13Z</time>
      </trkpt>
      <trkpt lat="46.6115" lon="5.06561">
        <ele>202.4</ele>
        <time>2022-06-25T08:00:14Z</time>
      </trkpt>
      <trkpt lat="46.61144" lon="5.06559">
        <ele>202.4</ele>
        <time>2022-06-25T08:00:15Z</time>
      </trkpt>
      <trkpt lat="46.61139" lon="5.06558">
        <ele>202.2</ele>
        <time>2022-06-25T08:00:16Z</time>
      </trkpt>
      <trkpt lat="46.61133" lon="5.06556">
        <ele>202.2</ele>
        <time>2022-06-25T08:00:17Z</time>
      </trkpt>
      <trkpt lat="46.61127" lon="5.06554">
        <ele>202.2</ele>
        <time>2022-06-25T08:00:18Z</time>
      </trkpt>
      <trkpt lat="46.61121" lon="5.06552">
        <ele>202.2</ele>
        <time>2022-06-25T08:00:19Z</time>
      </trkpt>
      <trkpt lat="46.61115" lon="5.06551">
        <ele>202.2</ele>
        <time>2022-06-25T08:00:20Z</time>
      </trkpt>
      <trkpt lat="46.61109" lon="5.06549">
        <ele>202.2</ele>
        <time>2022-06-25T08:00:21Z</time>
      </trkpt>
      <trkpt lat="46.61103" lon="5.06547">
        <ele>202.2</ele>
        <time>2022-06-25T08:00:22Z</time>
      </trkpt>
      <trkpt lat="46.61096" lon="5.06545">
        <ele>202.2</ele>
        <time>2022-06-25T08:00:23Z</time>
      </trkpt>
      <trkpt lat="46.6109" lon="5.06543">
        <ele>202.2</ele>
        <time>2022-06-25T08:00:24Z</time>
      </trkpt>
      <trkpt lat="46.61084" lon="5.06541">
        <ele>202.2</ele>
        <time>2022-06-25T08:00:25Z</time>
      </trkpt>
      <trkpt lat="46.61078" lon="5.06539">
        <ele>202.2</ele>
        <time>2022-06-25T08:00:26Z</time>
      </trkpt>
      <trkpt lat="46.61071" lon="5.06537">
        <ele>202.2</ele>
        <time>2022-06-25T08:00:27Z</time>
      </trkpt>
      <trkpt lat="46.61065" lon="5.06535">
        <ele>202.2</ele>
        <time>2022-06-25T08:00:28Z</time>
      </trkpt>
      <trkpt lat="46.61059" lon="5.06533">
        <ele>202.2</ele>
        <time>2022-06-25T08:00:29Z</time>
      </trkpt>
      <trkpt lat="46.61052" lon="5.06531">
        <ele>202.2</ele>
        <time>2022-06-25T08:00:30Z</time>
      </trkpt>
      <trkpt lat="46.61046" lon="5.0653">
        <ele>202.2</ele>
        <time>2022-06-25T08:00:31Z</time>
      </trkpt>
      <trkpt lat="46.6104" lon="5.06528">
        <ele>202.2</ele>
        <time>2022-06-25T08:00:32Z</time>
      </trkpt>
      <trkpt lat="46.61033" lon="5.06526">
        <ele>202.2</ele>
        <time>2022-06-25T08:00:33Z</time>
      </trkpt>
      <trkpt lat="46.61027" lon="5.06524">
        <ele>202.2</ele>
        <time>2022-06-25T08:00:34Z</time>
      </trkpt>
      <trkpt lat="46.6102" lon="5.06522">
        <ele>202.2</ele>
        <time>2022-06-25T08:00:35Z</time>
      </trkpt>
      <trkpt lat="46.61013" lon="5.0652">
        <ele>202.2</ele>
        <time>2022-06-25T08:00:36Z</time>
      </trkpt>
      <trkpt lat="46.61007" lon="5.06518">
        <ele>202.2</ele>
        <time>2022-06-25T08:00:37Z</time>
      </trkpt>
      <trkpt lat="46.61" lon="5.06516">
        <ele>202.4</ele>
        <time>2022-06-25T08:00:38Z</time>
      </trkpt>
      <trkpt lat="46.60993" lon="5.06514">
        <ele>202.4</ele>
        <time>2022-06-25T08:00:39Z</time>
      </trkpt>
      <trkpt lat="46.60987" lon="5.06512">
        <ele>202.4</ele>
        <time>2022-06-25T08:00:40Z</time>
      </trkpt>
      <trkpt lat="46.6098" lon="5.0651">
        <ele>202.4</ele>
        <time>2022-06-25T08:00:41Z</time>
      </trkpt>
      <trkpt lat="46.60974" lon="5.06508">
        <ele>202.4</ele>
        <time>2022-06-25T08:00:42Z</time>
      </trkpt>
      <trkpt lat="46.60967" lon="5.06506">
        <ele>202.4</ele>
        <time>2022-06-25T08:00:43Z</time>
      </trkpt>
      <trkpt lat="46.60961" lon="5.06504">
        <ele>202.4</ele>
        <time>2022-06-25T08:00:44Z</time>
      </trkpt>
      <trkpt lat="46.60954" lon="5.06502">
        <ele>202.6</ele>
        <time>2022-06-25T08:00:45Z</time>
      </trkpt>
      <trkpt lat="46.60948" lon="5.065">
        <ele>202.6</ele>
        <time>2022-06-25T08:00:46Z</time>
      </trkpt>
      <trkpt lat="46.60941" lon="5.06499">
        <ele>202.6</ele>
        <time>2022-06-25T08:00:47Z</time>
      </trkpt>
      <trkpt lat="46.60935" lon="5.06497">
        <ele>202.6</ele>
        <time>2022-06-25T08:00:48Z</time>
      </trkpt>
      <trkpt lat="46.60929" lon="5.06495">
        <ele>202.8</ele>
        <time>2022-06-25T08:00:49Z</time>
      </trkpt>
      <trkpt lat="46.60923" lon="5.06493">
        <ele>202.8</ele>
        <time>2022-06-25T08:00:50Z</time>
      </trkpt>
      <trkpt lat="46.60916" lon="5.06491">
        <ele>202.8</ele>
        <time>2022-06-25T08:00:51Z</time>
      </trkpt>
      <trkpt lat="46.6091" lon="5.06489">
        <ele>202.8</ele>
        <time>2022-06-25T08:00:52Z</time>
      </trkpt>
      <trkpt lat="46.60904" lon="5.06487">
        <ele>202.8</ele>
        <time>2022-06-25T08:00:53Z</time>
      </trkpt>
      <trkpt lat="46.60898" lon="5.06485">
        <ele>203</ele>
        <time>2022-06-25T08:00:54Z</time>
      </trkpt>
      <trkpt lat="46.60891" lon="5.06484">
        <ele>203</ele>
        <time>2022-06-25T08:00:55Z</time>
      </trkpt>
      <trkpt lat="46.60885" lon="5.06482">
        <ele>203</ele>
        <time>2022-06-25T08:00:56Z</time>
      </trkpt>
      <trkpt lat="46.60879" lon="5.0648">
        <ele>203</ele>
        <time>2022-06-25T08:00:57Z</time>
      </trkpt>
      <trkpt lat="46.60873" lon="5.06478">
        <ele>203</ele>
        <time>2022-06-25T08:00:58Z</time>
      </trkpt>
      <trkpt lat="46.60867" lon="5.06477">
        <ele>203</ele>
        <time>2022-06-25T08:00:59Z</time>
      </trkpt>
      <trkpt lat="46.60861" lon="5.06475">
        <ele>203</ele>
        <time>2022-06-25T08:01:00Z</time>
      </trkpt>
      <trkpt lat="46.60855" lon="5.06473">
        <ele>203</ele>
        <time>2022-06-25T08:01:01Z</time>
      </trkpt>
      <trkpt lat="46.6085" lon="5.06471">
        <ele>203</ele>
        <time>2022-06-25T08:01:02Z</time>
      </trkpt>
      <trkpt lat="46.60844" lon="5.06469">
        <ele>203</ele>
        <time>2022-06-25T08:01:03Z</time>
      </trkpt>
      <trkpt lat="46.60838" lon="5.06468">
        <ele>203</ele>
        <time>2022-06-25T08:01:04Z</time>
      </trkpt>
      <trkpt lat="46.60832" lon="5.06466">
        <ele>203.4</ele>
        <time>2022-06-25T08:01:05Z</time>
      </trkpt>
      <trkpt lat="46.60826" lon="5.06464">
        <ele>203.4</ele>
        <time>2022-06-25T08:01:06Z</time>
      </trkpt>
      <trkpt lat="46.6082" lon="5.06462">
        <ele>203.4</ele>
        <time>2022-06-25T08:01:07Z</time>
      </trkpt>
      <trkpt lat="46.60815" lon="5.0646">
        <ele>203.6</ele>
        <time>2022-06-25T08:01:08Z</time>
      </trkpt>
      <trkpt lat="46.60809" lon="5.06459">
        <ele>203.6</ele>
        <time>2022-06-25T08:01:09Z</time>
      </trkpt>
      <trkpt lat="46.60803" lon="5.06457">
        <ele>203.6</ele>
        <time>2022-06-25T08:01:10Z</time>
      </trkpt>
      <trkpt lat="46.60797" lon="5.06455">
        <ele>203.6</ele>
        <time>2022-06-25T08:01:11Z</time>
      </trkpt>
      <trkpt lat="46.60791" lon="5.06453">
        <ele>203.6</ele>
        <time>2022-06-25T08:01:12Z</time>
      </trkpt>
      <trkpt lat="46.60785" lon="5.06451">
        <ele>203.6</ele>
        <time>2022-06-25T08:01:13Z</time>
      </trkpt>
      <trkpt lat="46.60779" lon="5.0645">
        <ele>203.6</ele>
        <time>2022-06-25T08:01:14Z</time>
      </trkpt>
      <trkpt lat="46.60773" lon="5.06448">
        <ele>203.8</ele>
        <time>2022-06-25T08:01:15Z</time>
      </trkpt>
      <trkpt lat="46.60767" lon="5.06446">
        <ele>203.8</ele>
        <time>2022-06-25T08:01:16Z</time>
      </trkpt>
      <trkpt lat="46.60761" lon="5.06444">
        <ele>204.2</ele>
        <time>2022-06-25T08:01:17Z</time>
      </trkpt>
      <trkpt lat="46.60756" lon="5.06442">
        <ele>204.2</ele>
        <time>2022-06-25T08:01:18Z</time>
      </trkpt>
      <trkpt lat="46.6075" lon="5.06441">
        <ele>204.2</ele>
        <time>2022-06-25T08:01:19Z</time>
      </trkpt>
      <trkpt lat="46.60744" lon="5.06439">
        <ele>204.4</ele>
        <time>2022-06-25T08:01:20Z</time>
      </trkpt>
      <trkpt lat="46.60738" lon="5.06438">
        <ele>204.4</ele>
        <time>2022-06-25T08:01:21Z</time>
      </trkpt>
      <trkpt lat="46.60732" lon="5.06437">
        <ele>204.4</ele>
        <time>2022-06-25T08:01:22Z</time>
      </trkpt>
      <trkpt lat="46.60726" lon="5.06437">
        <ele>204.4</ele>
        <time>2022-06-25T08:01:23Z</time>
      </trkpt>
      <trkpt lat="46.6072" lon="5.06437">
        <ele>204.4</ele>
        <time>2022-06-25T08:01:24Z</time>
      </trkpt>
      <trkpt lat="46.60714" lon="5.06437">
        <ele>204.4</ele>
        <time>2022-06-25T08:01:25Z</time>
      </trkpt>
      <trkpt lat="46.60708" lon="5.06438">
        <ele>204.8</ele>
        <time>2022-06-25T08:01:26Z</time>
      </trkpt>
      <trkpt lat="46.60702" lon="5.0644">
        <ele>204.8</ele>
        <time>2022-06-25T08:01:27Z</time>
      </trkpt>
      <trkpt lat="46.60696" lon="5.06442">
        <ele>204.8</ele>
        <time>2022-06-25T08:01:28Z</time>
      </trkpt>
      <trkpt lat="46.6069" lon="5.06444">
        <ele>204.8</ele>
        <time>2022-06-25T08:01:29Z</time>
      </trkpt>
      <trkpt lat="46.60684" lon="5.06445">
        <ele>204.8</ele>
        <time>2022-06-25T08:01:30Z</time>
      </trkpt>
      <trkpt lat="46.60678" lon="5.06447">
        <ele>204.6</ele>
        <time>2022-06-25T08:01:32Z</time>
      </trkpt>
      <trkpt lat="46.60672" lon="5.06449">
        <ele>204.2</ele>
        <time>2022-06-25T08:01:33Z</time>
      </trkpt>
      <trkpt lat="46.60666" lon="5.06451">
        <ele>204.2</ele>
        <time>2022-06-25T08:01:34Z</time>
      </trkpt>
      <trkpt lat="46.60659" lon="5.06453">
        <ele>203.8</ele>
        <time>2022-06-25T08:01:35Z</time>
      </trkpt>
      <trkpt lat="46.60653" lon="5.06455">
        <ele>203.6</ele>
        <time>2022-06-25T08:01:36Z</time>
      </trkpt>
      <trkpt lat="46.60646" lon="5.06458">
        <ele>203.4</ele>
        <time>2022-06-25T08:01:37Z</time>
      </trkpt>
      <trkpt lat="46.60638" lon="5.06462">
        <ele>203</ele>
        <time>2022-06-25T08:01:38Z</time>
      </trkpt>
      <trkpt lat="46.60631" lon="5.06465">
        <ele>202.6</ele>
        <time>2022-06-25T08:01:39Z</time>
      </trkpt>
      <trkpt lat="46.60624" lon="5.0647">
        <ele>202.2</ele>
        <time>2022-06-25T08:01:40Z</time>
      </trkpt>
      <trkpt lat="46.60617" lon="5.06475">
        <ele>201.8</ele>
        <time>2022-06-25T08:01:41Z</time>
      </trkpt>
      <trkpt lat="46.60609" lon="5.06479">
        <ele>201.4</ele>
        <time>2022-06-25T08:01:42Z</time>
      </trkpt>
      <trkpt lat="46.60601" lon="5.06484">
        <ele>201</ele>
        <time>2022-06-25T08:01:43Z</time>
      </trkpt>
      <trkpt lat="46.60593" lon="5.06489">
        <ele>200.6</ele>
        <time>2022-06-25T08:01:44Z</time>
      </trkpt>
      <trkpt lat="46.60585" lon="5.06494">
        <ele>200.2</ele>
        <time>2022-06-25T08:01:45Z</time>
      </trkpt>
      <trkpt lat="46.60576" lon="5.06499">
        <ele>199.6</ele>
        <time>2022-06-25T08:01:46Z</time>
      </trkpt>
      <trkpt lat="46.60567" lon="5.06502">
        <ele>199.2</ele>
        <time>2022-06-25T08:01:47Z</time>
      </trkpt>
      <trkpt lat="46.60557" lon="5.06504">
        <ele>198.6</ele>
        <time>2022-06-25T08:01:48Z</time>
      </trkpt>
      <trkpt lat="46.60547" lon="5.06506">
        <ele>198</ele>
        <time>2022-06-25T08:01:49Z</time>
      </trkpt>
      <trkpt lat="46.60536" lon="5.06506">
        <ele>197.4</ele>
        <time>2022-06-25T08:01:50Z</time>
      </trkpt>
      <trkpt lat="46.60525" lon="5.06505">
        <ele>196.8</ele>
        <time>2022-06-25T08:01:51Z</time>
      </trkpt>
      <trkpt lat="46.60514" lon="5.06504">
        <ele>196.2</ele>
        <time>2022-06-25T08:01:52Z</time>
      </trkpt>
      <trkpt lat="46.60502" lon="5.06504">
        <ele>195.6</ele>
        <time>2022-06-25T08:01:53Z</time>
      </trkpt>
      <trkpt lat="46.6049" lon="5.06503">
        <ele>194.8</ele>
        <time>2022-06-25T08:01:54Z</time>
      </trkpt>
      <trkpt lat="46.60478" lon="5.06504">
        <ele>194.2</ele>
        <time>2022-06-25T08:01:55Z</time>
      </trkpt>
      <trkpt lat="46.60466" lon="5.06504">
        <ele>193.4</ele>
        <time>2022-06-25T08:01:56Z</time>
      </trkpt>
      <trkpt lat="46.60453" lon="5.06504">
        <ele>192.6</ele>
        <time>2022-06-25T08:01:57Z</time>
      </trkpt>
      <trkpt lat="46.60441" lon="5.06505">
        <ele>191.8</ele>
        <time>2022-06-25T08:01:58Z</time>
      </trkpt>
      <trkpt lat="46.60427" lon="5.06506">
        <ele>191.2</ele>
        <time>2022-06-25T08:01:59Z</time>
      </trkpt>
      <trkpt lat="46.60413" lon="5.06507">
        <ele>190.6</ele>
        <time>2022-06-25T08:02:00Z</time>
      </trkpt>
      <trkpt lat="46.604" lon="5.06508">
        <ele>189.6</ele>
        <time>2022-06-25T08:02:01Z</time>
      </trkpt>
      <trkpt lat="46.60387" lon="5.06508">
        <ele>189</ele>
        <time>2022-06-25T08:02:02Z</time>
      </trkpt>
      <trkpt lat="46.60376" lon="5.06509">
        <ele>188.4</ele>
        <time>2022-06-25T08:02:03Z</time>
      </trkpt>
      <trkpt lat="46.60364" lon="5.06511">
        <ele>187.8</ele>
        <time>2022-06-25T08:02:04Z</time>
      </trkpt>
      <trkpt lat="46.60354" lon="5.06513">
        <ele>187.4</ele>
        <time>2022-06-25T08:02:05Z</time>
      </trkpt>
      <trkpt lat="46.60344" lon="5.06515">
        <ele>187</ele>
        <time>2022-06-25T08:02:06Z</time>
      </trkpt>
      <trkpt lat="46.60335" lon="5.0652">
        <ele>186.6</ele>
        <time>2022-06-25T08:02:07Z</time>
      </trkpt>
      <trkpt lat="46.60328" lon="5.06528">
        <ele>186.4</ele>
        <time>2022-06-25T08:02:08Z</time>
      </trkpt>
      <trkpt lat="46.6032" lon="5.06535">
        <ele>186.4</ele>
        <time>2022-06-25T08:02:09Z</time>
      </trkpt>
      <trkpt lat="46.60314" lon="5.06543">
        <ele>186</ele>
        <time>2022-06-25T08:02:10Z</time>
      </trkpt>
      <trkpt lat="46.60308" lon="5.06552">
        <ele>186</ele>
        <time>2022-06-25T08:02:11Z</time>
      </trkpt>
      <trkpt lat="46.60302" lon="5.06561">
        <ele>186</ele>
        <time>2022-06-25T08:02:12Z</time>
      </trkpt>
      <trkpt lat="46.60296" lon="5.06569">
        <ele>186</ele>
        <time>2022-06-25T08:02:13Z</time>
      </trkpt>
      <trkpt lat="46.60291" lon="5.06578">
        <ele>186</ele>
        <time>2022-06-25T08:02:14Z</time>
      </trkpt>
      <trkpt lat="46.60286" lon="5.06586">
        <ele>186.4</ele>
        <time>2022-06-25T08:02:15Z</time>
      </trkpt>
      <trkpt lat="46.60281" lon="5.06594">
        <ele>186.4</ele>
        <time>2022-06-25T08:02:16Z</time>
      </trkpt>
      <trkpt lat="46.60276" lon="5.06601">
        <ele>186.4</ele>
        <time>2022-06-25T08:02:17Z</time>
      </trkpt>
      <trkpt lat="46.60271" lon="5.06608">
        <ele>186.4</ele>
        <time>2022-06-25T08:02:18Z</time>
      </trkpt>
      <trkpt lat="46.60266" lon="5.06615">
        <ele>186.6</ele>
        <time>2022-06-25T08:02:19Z</time>
      </trkpt>
      <trkpt lat="46.60262" lon="5.06622">
        <ele>186.6</ele>
        <time>2022-06-25T08:02:20Z</time>
      </trkpt>
      <trkpt lat="46.60257" lon="5.06628">
        <ele>186.6</ele>
        <time>2022-06-25T08:02:21Z</time>
      </trkpt>
      <trkpt lat="46.60253" lon="5.06634">
        <ele>186.8</ele>
        <time>2022-06-25T08:02:22Z</time>
      </trkpt>
      <trkpt lat="46.60247" lon="5.06645">
        <ele>186.8</ele>
        <time>2022-06-25T08:02:23Z</time>
      </trkpt>
      <trkpt lat="46.60244" lon="5.06649">
        <ele>186.8</ele>
        <time>2022-06-25T08:02:24Z</time>
      </trkpt>
      <trkpt lat="46.60239" lon="5.06659">
        <ele>186.8</ele>
        <time>2022-06-25T08:02:25Z</time>
      </trkpt>
      <trkpt lat="46.60235" lon="5.06664">
        <ele>187.2</ele>
        <time>2022-06-25T08:02:26Z</time>
      </trkpt>
      <trkpt lat="46.60232" lon="5.0667">
        <ele>187.2</ele>
        <time>2022-06-25T08:02:27Z</time>
      </trkpt>
      <trkpt lat="46.60228" lon="5.06675">
        <ele>187.4</ele>
        <time>2022-06-25T08:02:28Z</time>
      </trkpt>
      <trkpt lat="46.60224" lon="5.06679">
        <ele>187.4</ele>
        <time>2022-06-25T08:02:29Z</time>
      </trkpt>
      <trkpt lat="46.6022" lon="5.06684">
        <ele>187.6</ele>
        <time>2022-06-25T08:02:30Z</time>
      </trkpt>
      <trkpt lat="46.60216" lon="5.06688">
        <ele>187.6</ele>
        <time>2022-06-25T08:02:31Z</time>
      </trkpt>
      <trkpt lat="46.60212" lon="5.06693">
        <ele>187.6</ele>
        <time>2022-06-25T08:02:32Z</time>
      </trkpt>
      <trkpt lat="46.60207" lon="5.06697">
        <ele>187.6</ele>
        <time>2022-06-25T08:02:33Z</time>
      </trkpt>
      <trkpt lat="46.60202" lon="5.06702">
        <ele>187.6</ele>
        <time>2022-06-25T08:02:34Z</time>
      </trkpt>
      <trkpt lat="46.60196" lon="5.06706">
        <ele>187.6</ele>
        <time>2022-06-25T08:02:35Z</time>
      </trkpt>
      <trkpt lat="46.60191" lon="5.0671">
        <ele>187.6</ele>
        <time>2022-06-25T08:02:36Z</time>
      </trkpt>
      <trkpt lat="46.60185" lon="5.06713">
        <ele>187.6</ele>
        <time>2022-06-25T08:02:37Z</time>
      </trkpt>
      <trkpt lat="46.60179" lon="5.06716">
        <ele>187.4</ele>
        <time>2022-06-25T08:02:38Z</time>
      </trkpt>
      <trkpt lat="46.60173" lon="5.06719">
        <ele>187.4</ele>
        <time>2022-06-25T08:02:39Z</time>
      </trkpt>
      <trkpt lat="46.60167" lon="5.06722">
        <ele>187.4</ele>
        <time>2022-06-25T08:02:40Z</time>
      </trkpt>
      <trkpt lat="46.60161" lon="5.06724">
        <ele>187.4</ele>
        <time>2022-06-25T08:02:41Z</time>
      </trkpt>
      <trkpt lat="46.60155" lon="5.06727">
        <ele>187.4</ele>
        <time>2022-06-25T08:02:42Z</time>
      </trkpt>
      <trkpt lat="46.60149" lon="5.0673">
        <ele>187.2</ele>
        <time>2022-06-25T08:02:43Z</time>
      </trkpt>
      <trkpt lat="46.60142" lon="5.06733">
        <ele>187.2</ele>
        <time>2022-06-25T08:02:44Z</time>
      </trkpt>
      <trkpt lat="46.60136" lon="5.06735">
        <ele>187.2</ele>
        <time>2022-06-25T08:02:45Z</time>
      </trkpt>
      <trkpt lat="46.60129" lon="5.06738">
        <ele>187</ele>
        <time>2022-06-25T08:02:46Z</time>
      </trkpt>
      <trkpt lat="46.60122" lon="5.06741">
        <ele>187</ele>
        <time>2022-06-25T08:02:47Z</time>
      </trkpt>
      <trkpt lat="46.60115" lon="5.06745">
        <ele>186.6</ele>
        <time>2022-06-25T08:02:48Z</time>
      </trkpt>
      <trkpt lat="46.60109" lon="5.06748">
        <ele>186.6</ele>
        <time>2022-06-25T08:02:49Z</time>
      </trkpt>
      <trkpt lat="46.60102" lon="5.0675">
        <ele>186.6</ele>
        <time>2022-06-25T08:02:50Z</time>
      </trkpt>
      <trkpt lat="46.60095" lon="5.06754">
        <ele>186.4</ele>
        <time>2022-06-25T08:02:51Z</time>
      </trkpt>
      <trkpt lat="46.60088" lon="5.06757">
        <ele>186.4</ele>
        <time>2022-06-25T08:02:52Z</time>
      </trkpt>
      <trkpt lat="46.60081" lon="5.0676">
        <ele>186.4</ele>
        <time>2022-06-25T08:02:53Z</time>
      </trkpt>
      <trkpt lat="46.60074" lon="5.06764">
        <ele>186.4</ele>
        <time>2022-06-25T08:02:54Z</time>
      </trkpt>
      <trkpt lat="46.60067" lon="5.06767">
        <ele>186</ele>
        <time>2022-06-25T08:02:55Z</time>
      </trkpt>
      <trkpt lat="46.60059" lon="5.0677">
        <ele>186</ele>
        <time>2022-06-25T08:02:56Z</time>
      </trkpt>
      <trkpt lat="46.60052" lon="5.06774">
        <ele>185.8</ele>
        <time>2022-06-25T08:02:57Z</time>
      </trkpt>
      <trkpt lat="46.60044" lon="5.06776">
        <ele>185.8</ele>
        <time>2022-06-25T08:02:58Z</time>
      </trkpt>
      <trkpt lat="46.60037" lon="5.06779">
        <ele>185.8</ele>
        <time>2022-06-25T08:02:59Z</time>
      </trkpt>
      <trkpt lat="46.60029" lon="5.06782">
        <ele>185.8</ele>
        <time>2022-06-25T08:03:00Z</time>
      </trkpt>
      <trkpt lat="46.60022" lon="5.06784">
        <ele>185.8</ele>
        <time>2022-06-25T08:03:01Z</time>
      </trkpt>
      <trkpt lat="46.60014" lon="5.06786">
        <ele>185.4</ele>
        <time>2022-06-25T08:03:02Z</time>
      </trkpt>
      <trkpt lat="46.60006" lon="5.06786">
        <ele>185.4</ele>
        <time>2022-06-25T08:03:03Z</time>
      </trkpt>
      <trkpt lat="46.59998" lon="5.06785">
        <ele>185.4</ele>
        <time>2022-06-25T08:03:04Z</time>
      </trkpt>
      <trkpt lat="46.59991" lon="5.06784">
        <ele>185.2</ele>
        <time>2022-06-25T08:03:05Z</time>
      </trkpt>
      <trkpt lat="46.59983" lon="5.06781">
        <ele>185.2</ele>
        <time>2022-06-25T08:03:06Z</time>
      </trkpt>
      <trkpt lat="46.59976" lon="5.06778">
        <ele>185.2</ele>
        <time>2022-06-25T08:03:07Z</time>
      </trkpt>
      <trkpt lat="46.59969" lon="5.06776">
        <ele>185.2</ele>
        <time>2022-06-25T08:03:08Z</time>
      </trkpt>
      <trkpt lat="46.59962" lon="5.06773">
        <ele>185.2</ele>
        <time>2022-06-25T08:03:09Z</time>
      </trkpt>
      <trkpt lat="46.59955" lon="5.06772">
        <ele>185.2</ele>
        <time>2022-06-25T08:03:10Z</time>
      </trkpt>
      <trkpt lat="46.59948" lon="5.0677">
        <ele>185.6</ele>
        <time>2022-06-25T08:03:11Z</time>
      </trkpt>
      <trkpt lat="46.59941" lon="5.06769">
        <ele>185.6</ele>
        <time>2022-06-25T08:03:12Z</time>
      </trkpt>
      <trkpt lat="46.59935" lon="5.06768">
        <ele>185.8</ele>
        <time>2022-06-25T08:03:13Z</time>
      </trkpt>
      <trkpt lat="46.59928" lon="5.06767">
        <ele>185.8</ele>
        <time>2022-06-25T08:03:14Z</time>
      </trkpt>
      <trkpt lat="46.59922" lon="5.06766">
        <ele>186</ele>
        <time>2022-06-25T08:03:15Z</time>
      </trkpt>
      <trkpt lat="46.59916" lon="5.06765">
        <ele>186</ele>
        <time>2022-06-25T08:03:16Z</time>
      </trkpt>
      <trkpt lat="46.5991" lon="5.06764">
        <ele>186</ele>
        <time>2022-06-25T08:03:17Z</time>
      </trkpt>
      <trkpt lat="46.59904" lon="5.06763">
        <ele>186</ele>
        <time>2022-06-25T08:03:18Z</time>
      </trkpt>
      <trkpt lat="46.59898" lon="5.06761">
        <ele>186</ele>
        <time>2022-06-25T08:03:19Z</time>
      </trkpt>
      <trkpt lat="46.59892" lon="5.0676">
        <ele>186</ele>
        <time>2022-06-25T08:03:20Z</time>
      </trkpt>
      <trkpt lat="46.59886" lon="5.06758">
        <ele>186</ele>
        <time>2022-06-25T08:03:21Z</time>
      </trkpt>
      <trkpt lat="46.5988" lon="5.06755">
        <ele>186.2</ele>
        <time>2022-06-25T08:03:22Z</time>
      </trkpt>
      <trkpt lat="46.59874" lon="5.06752">
        <ele>186.2</ele>
        <time>2022-06-25T08:03:23Z</time>
      </trkpt>
      <trkpt lat="46.59869" lon="5.06749">
        <ele>186.2</ele>
        <time>2022-06-25T08:03:24Z</time>
      </trkpt>
      <trkpt lat="46.59864" lon="5.06745">
        <ele>186.4</ele>
        <time>2022-06-25T08:03:25Z</time>
      </trkpt>
      <trkpt lat="46.59859" lon="5.06741">
        <ele>186.4</ele>
        <time>2022-06-25T08:03:26Z</time>
      </trkpt>
      <trkpt lat="46.59853" lon="5.06736">
        <ele>186.4</ele>
        <time>2022-06-25T08:03:27Z</time>
      </trkpt>
      <trkpt lat="46.59849" lon="5.06732">
        <ele>186.4</ele>
        <time>2022-06-25T08:03:28Z</time>
      </trkpt>
      <trkpt lat="46.59844" lon="5.06727">
        <ele>186.8</ele>
        <time>2022-06-25T08:03:29Z</time>
      </trkpt>
      <trkpt lat="46.5984" lon="5.06722">
        <ele>186.8</ele>
        <time>2022-06-25T08:03:30Z</time>
      </trkpt>
      <trkpt lat="46.59835" lon="5.06717">
        <ele>187</ele>
        <time>2022-06-25T08:03:31Z</time>
      </trkpt>
      <trkpt lat="46.59831" lon="5.06712">
        <ele>187</ele>
        <time>2022-06-25T08:03:32Z</time>
      </trkpt>
      <trkpt lat="46.59827" lon="5.06707">
        <ele>187.4</ele>
        <time>2022-06-25T08:03:33Z</time>
      </trkpt>
      <trkpt lat="46.59822" lon="5.06702">
        <ele>187.4</ele>
        <time>2022-06-25T08:03:34Z</time>
      </trkpt>
      <trkpt lat="46.59818" lon="5.06698">
        <ele>187.8</ele>
        <time>2022-06-25T08:03:35Z</time>
      </trkpt>
      <trkpt lat="46.59814" lon="5.06693">
        <ele>187.8</ele>
        <time>2022-06-25T08:03:36Z</time>
      </trkpt>
      <trkpt lat="46.5981" lon="5.06688">
        <ele>188</ele>
        <time>2022-06-25T08:03:37Z</time>
      </trkpt>
      <trkpt lat="46.59806" lon="5.06684">
        <ele>188</ele>
        <time>2022-06-25T08:03:38Z</time>
      </trkpt>
      <trkpt lat="46.59802" lon="5.06679">
        <ele>188.2</ele>
        <time>2022-06-25T08:03:39Z</time>
      </trkpt>
      <trkpt lat="46.59798" lon="5.06675">
        <ele>188.2</ele>
        <time>2022-06-25T08:03:40Z</time>
      </trkpt>
      <trkpt lat="46.59793" lon="5.06671">
        <ele>188.2</ele>
        <time>2022-06-25T08:03:41Z</time>
      </trkpt>
      <trkpt lat="46.59789" lon="5.06667">
        <ele>188.6</ele>
        <time>2022-06-25T08:03:42Z</time>
      </trkpt>
      <trkpt lat="46.59784" lon="5.06664">
        <ele>188.6</ele>
        <time>2022-06-25T08:03:43Z</time>
      </trkpt>
      <trkpt lat="46.5978" lon="5.06661">
        <ele>188.8</ele>
        <time>2022-06-25T08:03:44Z</time>
      </trkpt>
      <trkpt lat="46.59775" lon="5.06658">
        <ele>188.8</ele>
        <time>2022-06-25T08:03:45Z</time>
      </trkpt>
      <trkpt lat="46.5977" lon="5.06655">
        <ele>188.8</ele>
        <time>2022-06-25T08:03:46Z</time>
      </trkpt>
      <trkpt lat="46.59766" lon="5.06653">
        <ele>189</ele>
        <time>2022-06-25T08:03:47Z</time>
      </trkpt>
      <trkpt lat="46.59761" lon="5.06651">
        <ele>189</ele>
        <time>2022-06-25T08:03:48Z</time>
      </trkpt>
      <trkpt lat="46.59756" lon="5.06648">
        <ele>189.2</ele>
        <time>2022-06-25T08:03:49Z</time>
      </trkpt>
      <trkpt lat="46.59751" lon="5.06646">
        <ele>189.2</ele>
        <time>2022-06-25T08:03:50Z</time>
      </trkpt>
      <trkpt lat="46.59746" lon="5.06643">
        <ele>189.2</ele>
        <time>2022-06-25T08:03:51Z</time>
      </trkpt>
      <trkpt lat="46.5974" lon="5.06641">
        <ele>189.6</ele>
        <time>2022-06-25T08:03:52Z</time>
      </trkpt>
      <trkpt lat="46.59735" lon="5.06639">
        <ele>189.6</ele>
        <time>2022-06-25T08:03:53Z</time>
      </trkpt>
      <trkpt lat="46.5973" lon="5.06636">
        <ele>189.8</ele>
        <time>2022-06-25T08:03:54Z</time>
      </trkpt>
      <trkpt lat="46.59725" lon="5.06634">
        <ele>189.8</ele>
        <time>2022-06-25T08:03:55Z</time>
      </trkpt>
      <trkpt lat="46.59719" lon="5.06631">
        <ele>190</ele>
        <time>2022-06-25T08:03:56Z</time>
      </trkpt>
      <trkpt lat="46.59714" lon="5.06628">
        <ele>190</ele>
        <time>2022-06-25T08:03:57Z</time>
      </trkpt>
      <trkpt lat="46.59709" lon="5.06625">
        <ele>190</ele>
        <time>2022-06-25T08:03:58Z</time>
      </trkpt>
      <trkpt lat="46.59705" lon="5.06622">
        <ele>190</ele>
        <time>2022-06-25T08:03:59Z</time>
      </trkpt>
      <trkpt lat="46.597" lon="5.06618">
        <ele>190.4</ele>
        <time>2022-06-25T08:04:00Z</time>
      </trkpt>
      <trkpt lat="46.59695" lon="5.06615">
        <ele>190.4</ele>
        <time>2022-06-25T08:04:01Z</time>
      </trkpt>
      <trkpt lat="46.5969" lon="5.06611">
        <ele>190.6</ele>
        <time>2022-06-25T08:04:02Z</time>
      </trkpt>
      <trkpt lat="46.59686" lon="5.06608">
        <ele>190.6</ele>
        <time>2022-06-25T08:04:03Z</time>
      </trkpt>
      <trkpt lat="46.59682" lon="5.06604">
        <ele>190.8</ele>
        <time>2022-06-25T08:04:04Z</time>
      </trkpt>
      <trkpt lat="46.59678" lon="5.066">
        <ele>190.8</ele>
        <time>2022-06-25T08:04:05Z</time>
      </trkpt>
      <trkpt lat="46.59674" lon="5.06597">
        <ele>191.4</ele>
        <time>2022-06-25T08:04:06Z</time>
      </trkpt>
      <trkpt lat="46.5967" lon="5.06593">
        <ele>191.4</ele>
        <time>2022-06-25T08:04:07Z</time>
      </trkpt>
      <trkpt lat="46.59666" lon="5.0659">
        <ele>191.6</ele>
        <time>2022-06-25T08:04:08Z</time>
      </trkpt>
      <trkpt lat="46.59662" lon="5.06587">
        <ele>191.6</ele>
        <time>2022-06-25T08:04:09Z</time>
      </trkpt>
      <trkpt lat="46.59658" lon="5.06583">
        <ele>192</ele>
        <time>2022-06-25T08:04:10Z</time>
      </trkpt>
      <trkpt lat="46.59654" lon="5.0658">
        <ele>192.2</ele>
        <time>2022-06-25T08:04:11Z</time>
      </trkpt>
      <trkpt lat="46.59651" lon="5.06577">
        <ele>192.4</ele>
        <time>2022-06-25T08:04:12Z</time>
      </trkpt>
      <trkpt lat="46.59647" lon="5.06574">
        <ele>192.8</ele>
        <time>2022-06-25T08:04:13Z</time>
      </trkpt>
      <trkpt lat="46.59644" lon="5.06571">
        <ele>193</ele>
        <time>2022-06-25T08:04:14Z</time>
      </trkpt>
      <trkpt lat="46.59641" lon="5.06567">
        <ele>193</ele>
        <time>2022-06-25T08:04:15Z</time>
      </trkpt>
      <trkpt lat="46.59638" lon="5.06564">
        <ele>193.4</ele>
        <time>2022-06-25T08:04:16Z</time>
      </trkpt>
      <trkpt lat="46.59634" lon="5.0656">
        <ele>193.4</ele>
        <time>2022-06-25T08:04:17Z</time>
      </trkpt>
      <trkpt lat="46.59631" lon="5.06556">
        <ele>193.6</ele>
        <time>2022-06-25T08:04:18Z</time>
      </trkpt>
      <trkpt lat="46.59628" lon="5.06552">
        <ele>193.6</ele>
        <time>2022-06-25T08:04:19Z</time>
      </trkpt>
      <trkpt lat="46.59624" lon="5.06547">
        <ele>194</ele>
        <time>2022-06-25T08:04:20Z</time>
      </trkpt>
      <trkpt lat="46.59621" lon="5.06542">
        <ele>194</ele>
        <time>2022-06-25T08:04:21Z</time>
      </trkpt>
      <trkpt lat="46.59617" lon="5.06537">
        <ele>194</ele>
        <time>2022-06-25T08:04:22Z</time>
      </trkpt>
      <trkpt lat="46.59614" lon="5.06531">
        <ele>194</ele>
        <time>2022-06-25T08:04:23Z</time>
      </trkpt>
      <trkpt lat="46.5961" lon="5.06525">
        <ele>194</ele>
        <time>2022-06-25T08:04:24Z</time>
      </trkpt>
      <trkpt lat="46.59607" lon="5.06519">
        <ele>194.2</ele>
        <time>2022-06-25T08:04:25Z</time>
      </trkpt>
      <trkpt lat="46.59603" lon="5.06513">
        <ele>194.2</ele>
        <time>2022-06-25T08:04:26Z</time>
      </trkpt>
      <trkpt lat="46.596" lon="5.06506">
        <ele>194.2</ele>
        <time>2022-06-25T08:04:27Z</time>
      </trkpt>
      <trkpt lat="46.59597" lon="5.065">
        <ele>194.2</ele>
        <time>2022-06-25T08:04:28Z</time>
      </trkpt>
      <trkpt lat="46.59594" lon="5.06493">
        <ele>194.4</ele>
        <time>2022-06-25T08:04:29Z</time>
      </trkpt>
      <trkpt lat="46.59591" lon="5.06486">
        <ele>194.4</ele>
        <time>2022-06-25T08:04:30Z</time>
      </trkpt>
      <trkpt lat="46.59587" lon="5.06479">
        <ele>194.4</ele>
        <time>2022-06-25T08:04:31Z</time>
      </trkpt>
      <trkpt lat="46.59584" lon="5.06472">
        <ele>194.4</ele>
        <time>2022-06-25T08:04:32Z</time>
      </trkpt>
      <trkpt lat="46.59581" lon="5.06465">
        <ele>194.6</ele>
        <time>2022-06-25T08:04:33Z</time>
      </trkpt>
      <trkpt lat="46.59578" lon="5.06458">
        <ele>194.6</ele>
        <time>2022-06-25T08:04:34Z</time>
      </trkpt>
      <trkpt lat="46.59574" lon="5.06451">
        <ele>194.6</ele>
        <time>2022-06-25T08:04:35Z</time>
      </trkpt>
      <trkpt lat="46.59571" lon="5.06445">
        <ele>194.6</ele>
        <time>2022-06-25T08:04:36Z</time>
      </trkpt>
      <trkpt lat="46.59568" lon="5.06438">
        <ele>194.6</ele>
        <time>2022-06-25T08:04:37Z</time>
      </trkpt>
      <trkpt lat="46.59565" lon="5.06431">
        <ele>194.6</ele>
        <time>2022-06-25T08:04:38Z</time>
      </trkpt>
      <trkpt lat="46.59561" lon="5.06424">
        <ele>194.6</ele>
        <time>2022-06-25T08:04:39Z</time>
      </trkpt>
      <trkpt lat="46.59558" lon="5.06417">
        <ele>194.8</ele>
        <time>2022-06-25T08:04:40Z</time>
      </trkpt>
      <trkpt lat="46.59555" lon="5.0641">
        <ele>194.8</ele>
        <time>2022-06-25T08:04:41Z</time>
      </trkpt>
      <trkpt lat="46.59551" lon="5.06403">
        <ele>194.8</ele>
        <time>2022-06-25T08:04:42Z</time>
      </trkpt>
      <trkpt lat="46.59548" lon="5.06395">
        <ele>194.8</ele>
        <time>2022-06-25T08:04:43Z</time>
      </trkpt>
      <trkpt lat="46.59544" lon="5.06388">
        <ele>194.8</ele>
        <time>2022-06-25T08:04:44Z</time>
      </trkpt>
      <trkpt lat="46.59541" lon="5.06381">
        <ele>194.8</ele>
        <time>2022-06-25T08:04:45Z</time>
      </trkpt>
      <trkpt lat="46.59537" lon="5.06374">
        <ele>194.8</ele>
        <time>2022-06-25T08:04:46Z</time>
      </trkpt>
      <trkpt lat="46.59534" lon="5.06366">
        <ele>194.8</ele>
        <time>2022-06-25T08:04:47Z</time>
      </trkpt>
      <trkpt lat="46.5953" lon="5.06358">
        <ele>194.8</ele>
        <time>2022-06-25T08:04:48Z</time>
      </trkpt>
      <trkpt lat="46.59527" lon="5.0635">
        <ele>194.8</ele>
        <time>2022-06-25T08:04:49Z</time>
      </trkpt>
      <trkpt lat="46.59523" lon="5.06343">
        <ele>194.6</ele>
        <time>2022-06-25T08:04:50Z</time>
      </trkpt>
      <trkpt lat="46.5952" lon="5.06335">
        <ele>194.6</ele>
        <time>2022-06-25T08:04:51Z</time>
      </trkpt>
      <trkpt lat="46.59516" lon="5.06327">
        <ele>194.6</ele>
        <time>2022-06-25T08:04:52Z</time>
      </trkpt>
      <trkpt lat="46.59512" lon="5.06319">
        <ele>194.6</ele>
        <time>2022-06-25T08:04:53Z</time>
      </trkpt>
      <trkpt lat="46.59509" lon="5.06312">
        <ele>194.6</ele>
        <time>2022-06-25T08:04:54Z</time>
      </trkpt>
      <trkpt lat="46.59505" lon="5.06304">
        <ele>194.6</ele>
        <time>2022-06-25T08:04:55Z</time>
      </trkpt>
      <trkpt lat="46.59501" lon="5.06296">
        <ele>194.6</ele>
        <time>2022-06-25T08:04:56Z</time>
      </trkpt>
      <trkpt lat="46.59498" lon="5.06288">
        <ele>194.6</ele>
        <time>2022-06-25T08:04:57Z</time>
      </trkpt>
      <trkpt lat="46.59494" lon="5.0628">
        <ele>194.6</ele>
        <time>2022-06-25T08:04:58Z</time>
      </trkpt>
      <trkpt lat="46.59491" lon="5.06272">
        <ele>194.6</ele>
        <time>2022-06-25T08:04:59Z</time>
      </trkpt>
      <trkpt lat="46.59487" lon="5.06264">
        <ele>194.6</ele>
        <time>2022-06-25T08:05:00Z</time>
      </trkpt>
      <trkpt lat="46.59484" lon="5.06256">
        <ele>194.6</ele>
        <time>2022-06-25T08:05:01Z</time>
      </trkpt>
      <trkpt lat="46.59481" lon="5.06248">
        <ele>194.2</ele>
        <time>2022-06-25T08:05:02Z</time>
      </trkpt>
      <trkpt lat="46.59478" lon="5.0624">
        <ele>194.2</ele>
        <time>2022-06-25T08:05:03Z</time>
      </trkpt>
      <trkpt lat="46.59475" lon="5.06232">
        <ele>194.2</ele>
        <time>2022-06-25T08:05:04Z</time>
      </trkpt>
      <trkpt lat="46.59472" lon="5.06224">
        <ele>194.2</ele>
        <time>2022-06-25T08:05:05Z</time>
      </trkpt>
      <trkpt lat="46.59469" lon="5.06216">
        <ele>194.2</ele>
        <time>2022-06-25T08:05:06Z</time>
      </trkpt>
      <trkpt lat="46.59466" lon="5.06208">
        <ele>194.2</ele>
        <time>2022-06-25T08:05:07Z</time>
      </trkpt>
      <trkpt lat="46.59463" lon="5.06199">
        <ele>194.2</ele>
        <time>2022-06-25T08:05:08Z</time>
      </trkpt>
      <trkpt lat="46.5946" lon="5.06191">
        <ele>194.2</ele>
        <time>2022-06-25T08:05:09Z</time>
      </trkpt>
      <trkpt lat="46.59457" lon="5.06183">
        <ele>194.2</ele>
        <time>2022-06-25T08:05:10Z</time>
      </trkpt>
      <trkpt lat="46.59454" lon="5.06175">
        <ele>194.2</ele>
        <time>2022-06-25T08:05:11Z</time>
      </trkpt>
      <trkpt lat="46.59451" lon="5.06166">
        <ele>194.2</ele>
        <time>2022-06-25T08:05:12Z</time>
      </trkpt>
      <trkpt lat="46.59448" lon="5.06158">
        <ele>194.2</ele>
        <time>2022-06-25T08:05:13Z</time>
      </trkpt>
      <trkpt lat="46.59445" lon="5.0615">
        <ele>194.4</ele>
        <time>2022-06-25T08:05:14Z</time>
      </trkpt>
      <trkpt lat="46.59442" lon="5.06141">
        <ele>194.4</ele>
        <time>2022-06-25T08:05:15Z</time>
      </trkpt>
      <trkpt lat="46.59439" lon="5.06133">
        <ele>194.4</ele>
        <time>2022-06-25T08:05:16Z</time>
      </trkpt>
      <trkpt lat="46.59436" lon="5.06125">
        <ele>194.4</ele>
        <time>2022-06-25T08:05:17Z</time>
      </trkpt>
      <trkpt lat="46.59433" lon="5.06116">
        <ele>194.4</ele>
        <time>2022-06-25T08:05:18Z</time>
      </trkpt>
      <trkpt lat="46.5943" lon="5.06108">
        <ele>194.4</ele>
        <time>2022-06-25T08:05:20Z</time>
      </trkpt>
      <trkpt lat="46.59428" lon="5.061">
        <ele>194.8</ele>
        <time>2022-06-25T08:05:21Z</time>
      </trkpt>
      <trkpt lat="46.59425" lon="5.06091">
        <ele>194.8</ele>
        <time>2022-06-25T08:05:22Z</time>
      </trkpt>
      <trkpt lat="46.59422" lon="5.06083">
        <ele>194.8</ele>
        <time>2022-06-25T08:05:23Z</time>
      </trkpt>
      <trkpt lat="46.59419" lon="5.06074">
        <ele>194.8</ele>
        <time>2022-06-25T08:05:24Z</time>
      </trkpt>
      <trkpt lat="46.59417" lon="5.06066">
        <ele>194.8</ele>
        <time>2022-06-25T08:05:25Z</time>
      </trkpt>
      <trkpt lat="46.59415" lon="5.06057">
        <ele>194.8</ele>
        <time>2022-06-25T08:05:26Z</time>
      </trkpt>
      <trkpt lat="46.59412" lon="5.06049">
        <ele>194.8</ele>
        <time>2022-06-25T08:05:27Z</time>
      </trkpt>
      <trkpt lat="46.5941" lon="5.0604">
        <ele>194.8</ele>
        <time>2022-06-25T08:05:28Z</time>
      </trkpt>
      <trkpt lat="46.59408" lon="5.06032">
        <ele>195</ele>
        <time>2022-06-25T08:05:29Z</time>
      </trkpt>
      <trkpt lat="46.59405" lon="5.06024">
        <ele>195</ele>
        <time>2022-06-25T08:05:30Z</time>
      </trkpt>
      <trkpt lat="46.59402" lon="5.06016">
        <ele>195</ele>
        <time>2022-06-25T08:05:31Z</time>
      </trkpt>
      <trkpt lat="46.59399" lon="5.06008">
        <ele>195</ele>
        <time>2022-06-25T08:05:32Z</time>
      </trkpt>
      <trkpt lat="46.59395" lon="5.06">
        <ele>195</ele>
        <time>2022-06-25T08:05:33Z</time>
      </trkpt>
      <trkpt lat="46.59391" lon="5.05992">
        <ele>195</ele>
        <time>2022-06-25T08:05:34Z</time>
      </trkpt>
      <trkpt lat="46.59387" lon="5.05985">
        <ele>194.6</ele>
        <time>2022-06-25T08:05:35Z</time>
      </trkpt>
      <trkpt lat="46.59381" lon="5.05977">
        <ele>194.6</ele>
        <time>2022-06-25T08:05:36Z</time>
      </trkpt>
      <trkpt lat="46.59376" lon="5.0597">
        <ele>194.4</ele>
        <time>2022-06-25T08:05:37Z</time>
      </trkpt>
      <trkpt lat="46.5937" lon="5.05963">
        <ele>194.4</ele>
        <time>2022-06-25T08:05:38Z</time>
      </trkpt>
      <trkpt lat="46.59365" lon="5.05956">
        <ele>194</ele>
        <time>2022-06-25T08:05:39Z</time>
      </trkpt>
      <trkpt lat="46.59359" lon="5.05949">
        <ele>194</ele>
        <time>2022-06-25T08:05:40Z</time>
      </trkpt>
      <trkpt lat="46.59353" lon="5.05941">
        <ele>193.6</ele>
        <time>2022-06-25T08:05:41Z</time>
      </trkpt>
      <trkpt lat="46.59347" lon="5.05934">
        <ele>193.4</ele>
        <time>2022-06-25T08:05:42Z</time>
      </trkpt>
      <trkpt lat="46.59341" lon="5.05926">
        <ele>193.4</ele>
        <time>2022-06-25T08:05:43Z</time>
      </trkpt>
      <trkpt lat="46.59335" lon="5.05917">
        <ele>193</ele>
        <time>2022-06-25T08:05:44Z</time>
      </trkpt>
      <trkpt lat="46.5933" lon="5.05909">
        <ele>193</ele>
        <time>2022-06-25T08:05:45Z</time>
      </trkpt>
      <trkpt lat="46.59326" lon="5.05901">
        <ele>193</ele>
        <time>2022-06-25T08:05:46Z</time>
      </trkpt>
      <trkpt lat="46.59321" lon="5.05893">
        <ele>193</ele>
        <time>2022-06-25T08:05:47Z</time>
      </trkpt>
      <trkpt lat="46.59317" lon="5.05885">
        <ele>193</ele>
        <time>2022-06-25T08:05:48Z</time>
      </trkpt>
      <trkpt lat="46.59313" lon="5.05877">
        <ele>193</ele>
        <time>2022-06-25T08:05:49Z</time>
      </trkpt>
      <trkpt lat="46.5931" lon="5.0587">
        <ele>193.4</ele>
        <time>2022-06-25T08:05:50Z</time>
      </trkpt>
      <trkpt lat="46.59306" lon="5.05862">
        <ele>193.4</ele>
        <time>2022-06-25T08:05:51Z</time>
      </trkpt>
      <trkpt lat="46.59304" lon="5.05856">
        <ele>193.8</ele>
        <time>2022-06-25T08:05:52Z</time>
      </trkpt>
      <trkpt lat="46.59301" lon="5.05849">
        <ele>194</ele>
        <time>2022-06-25T08:05:53Z</time>
      </trkpt>
      <trkpt lat="46.59298" lon="5.05842">
        <ele>194.4</ele>
        <time>2022-06-25T08:05:54Z</time>
      </trkpt>
      <trkpt lat="46.59295" lon="5.05836">
        <ele>194.8</ele>
        <time>2022-06-25T08:05:55Z</time>
      </trkpt>
      <trkpt lat="46.59292" lon="5.0583">
        <ele>195</ele>
        <time>2022-06-25T08:05:56Z</time>
      </trkpt>
      <trkpt lat="46.5929" lon="5.05824">
        <ele>195.4</ele>
        <time>2022-06-25T08:05:57Z</time>
      </trkpt>
      <trkpt lat="46.59287" lon="5.05819">
        <ele>195.6</ele>
        <time>2022-06-25T08:05:58Z</time>
      </trkpt>
      <trkpt lat="46.59285" lon="5.05813">
        <ele>196</ele>
        <time>2022-06-25T08:05:59Z</time>
      </trkpt>
      <trkpt lat="46.59283" lon="5.05807">
        <ele>196.2</ele>
        <time>2022-06-25T08:06:00Z</time>
      </trkpt>
      <trkpt lat="46.59281" lon="5.05801">
        <ele>196.6</ele>
        <time>2022-06-25T08:06:01Z</time>
      </trkpt>
      <trkpt lat="46.59279" lon="5.05796">
        <ele>196.8</ele>
        <time>2022-06-25T08:06:02Z</time>
      </trkpt>
      <trkpt lat="46.59277" lon="5.0579">
        <ele>197</ele>
        <time>2022-06-25T08:06:03Z</time>
      </trkpt>
      <trkpt lat="46.59274" lon="5.05785">
        <ele>197</ele>
        <time>2022-06-25T08:06:04Z</time>
      </trkpt>
      <trkpt lat="46.59272" lon="5.05779">
        <ele>197.6</ele>
        <time>2022-06-25T08:06:05Z</time>
      </trkpt>
      <trkpt lat="46.5927" lon="5.05773">
        <ele>197.8</ele>
        <time>2022-06-25T08:06:06Z</time>
      </trkpt>
      <trkpt lat="46.59267" lon="5.05767">
        <ele>198</ele>
        <time>2022-06-25T08:06:07Z</time>
      </trkpt>
      <trkpt lat="46.59265" lon="5.05762">
        <ele>198.2</ele>
        <time>2022-06-25T08:06:08Z</time>
      </trkpt>
      <trkpt lat="46.59263" lon="5.05756">
        <ele>198.6</ele>
        <time>2022-06-25T08:06:09Z</time>
      </trkpt>
      <trkpt lat="46.59261" lon="5.0575">
        <ele>198.8</ele>
        <time>2022-06-25T08:06:10Z</time>
      </trkpt>
      <trkpt lat="46.59259" lon="5.05745">
        <ele>198.8</ele>
        <time>2022-06-25T08:06:11Z</time>
      </trkpt>
      <trkpt lat="46.59258" lon="5.05739">
        <ele>199.2</ele>
        <time>2022-06-25T08:06:12Z</time>
      </trkpt>
      <trkpt lat="46.59255" lon="5.05734">
        <ele>199.4</ele>
        <time>2022-06-25T08:06:13Z</time>
      </trkpt>
      <trkpt lat="46.59253" lon="5.05729">
        <ele>199.4</ele>
        <time>2022-06-25T08:06:14Z</time>
      </trkpt>
      <trkpt lat="46.59251" lon="5.05723">
        <ele>199.8</ele>
        <time>2022-06-25T08:06:15Z</time>
      </trkpt>
      <trkpt lat="46.59249" lon="5.05718">
        <ele>200</ele>
        <time>2022-06-25T08:06:16Z</time>
      </trkpt>
      <trkpt lat="46.59247" lon="5.05712">
        <ele>200.2</ele>
        <time>2022-06-25T08:06:17Z</time>
      </trkpt>
      <trkpt lat="46.59245" lon="5.05706">
        <ele>200.6</ele>
        <time>2022-06-25T08:06:18Z</time>
      </trkpt>
      <trkpt lat="46.59244" lon="5.05701">
        <ele>200.8</ele>
        <time>2022-06-25T08:06:19Z</time>
      </trkpt>
      <trkpt lat="46.59242" lon="5.05695">
        <ele>200.8</ele>
        <time>2022-06-25T08:06:20Z</time>
      </trkpt>
      <trkpt lat="46.59241" lon="5.0569">
        <ele>201.2</ele>
        <time>2022-06-25T08:06:21Z</time>
      </trkpt>
      <trkpt lat="46.59239" lon="5.05684">
        <ele>201.2</ele>
        <time>2022-06-25T08:06:22Z</time>
      </trkpt>
      <trkpt lat="46.59237" lon="5.05677">
        <ele>201.6</ele>
        <time>2022-06-25T08:06:23Z</time>
      </trkpt>
      <trkpt lat="46.59236" lon="5.05671">
        <ele>201.8</ele>
        <time>2022-06-25T08:06:24Z</time>
      </trkpt>
      <trkpt lat="46.59234" lon="5.05665">
        <ele>202.2</ele>
        <time>2022-06-25T08:06:25Z</time>
      </trkpt>
      <trkpt lat="46.59233" lon="5.05658">
        <ele>202.4</ele>
        <time>2022-06-25T08:06:26Z</time>
      </trkpt>
      <trkpt lat="46.59231" lon="5.05652">
        <ele>202.6</ele>
        <time>2022-06-25T08:06:27Z</time>
      </trkpt>
      <trkpt lat="46.5923" lon="5.05645">
        <ele>202.8</ele>
        <time>2022-06-25T08:06:28Z</time>
      </trkpt>
      <trkpt lat="46.59229" lon="5.05639">
        <ele>203.2</ele>
        <time>2022-06-25T08:06:29Z</time>
      </trkpt>
      <trkpt lat="46.59228" lon="5.05632">
        <ele>203.2</ele>
        <time>2022-06-25T08:06:30Z</time>
      </trkpt>
      <trkpt lat="46.59227" lon="5.05626">
        <ele>203.6</ele>
        <time>2022-06-25T08:06:31Z</time>
      </trkpt>
      <trkpt lat="46.59226" lon="5.0562">
        <ele>203.8</ele>
        <time>2022-06-25T08:06:32Z</time>
      </trkpt>
      <trkpt lat="46.59225" lon="5.05614">
        <ele>204</ele>
        <time>2022-06-25T08:06:33Z</time>
      </trkpt>
      <trkpt lat="46.59223" lon="5.05609">
        <ele>204.2</ele>
        <time>2022-06-25T08:06:34Z</time>
      </trkpt>
      <trkpt lat="46.59222" lon="5.05603">
        <ele>204.4</ele>
        <time>2022-06-25T08:06:35Z</time>
      </trkpt>
      <trkpt lat="46.59222" lon="5.05597">
        <ele>204.8</ele>
        <time>2022-06-25T08:06:36Z</time>
      </trkpt>
      <trkpt lat="46.59221" lon="5.05592">
        <ele>204.8</ele>
        <time>2022-06-25T08:06:37Z</time>
      </trkpt>
      <trkpt lat="46.5922" lon="5.05586">
        <ele>205</ele>
        <time>2022-06-25T08:06:38Z</time>
      </trkpt>
      <trkpt lat="46.59219" lon="5.0558">
        <ele>205</ele>
        <time>2022-06-25T08:06:39Z</time>
      </trkpt>
      <trkpt lat="46.59218" lon="5.05574">
        <ele>205.4</ele>
        <time>2022-06-25T08:06:40Z</time>
      </trkpt>
      <trkpt lat="46.59217" lon="5.05568">
        <ele>205.4</ele>
        <time>2022-06-25T08:06:41Z</time>
      </trkpt>
      <trkpt lat="46.59216" lon="5.05562">
        <ele>205.6</ele>
        <time>2022-06-25T08:06:42Z</time>
      </trkpt>
      <trkpt lat="46.59216" lon="5.05555">
        <ele>205.6</ele>
        <time>2022-06-25T08:06:43Z</time>
      </trkpt>
      <trkpt lat="46.59215" lon="5.05549">
        <ele>206</ele>
        <time>2022-06-25T08:06:44Z</time>
      </trkpt>
      <trkpt lat="46.59213" lon="5.05543">
        <ele>206</ele>
        <time>2022-06-25T08:06:45Z</time>
      </trkpt>
      <trkpt lat="46.59212" lon="5.05537">
        <ele>206.2</ele>
        <time>2022-06-25T08:06:46Z</time>
      </trkpt>
      <trkpt lat="46.59211" lon="5.0553">
        <ele>206.2</ele>
        <time>2022-06-25T08:06:47Z</time>
      </trkpt>
      <trkpt lat="46.59211" lon="5.05524">
        <ele>206.6</ele>
        <time>2022-06-25T08:06:48Z</time>
      </trkpt>
      <trkpt lat="46.5921" lon="5.05517">
        <ele>206.6</ele>
        <time>2022-06-25T08:06:49Z</time>
      </trkpt>
      <trkpt lat="46.59209" lon="5.05511">
        <ele>206.8</ele>
        <time>2022-06-25T08:06:50Z</time>
      </trkpt>
      <trkpt lat="46.59207" lon="5.05504">
        <ele>206.8</ele>
        <time>2022-06-25T08:06:51Z</time>
      </trkpt>
      <trkpt lat="46.59206" lon="5.05498">
        <ele>207</ele>
        <time>2022-06-25T08:06:52Z</time>
      </trkpt>
      <trkpt lat="46.59205" lon="5.05491">
        <ele>207</ele>
        <time>2022-06-25T08:06:53Z</time>
      </trkpt>
      <trkpt lat="46.59204" lon="5.05485">
        <ele>207</ele>
        <time>2022-06-25T08:06:54Z</time>
      </trkpt>
      <trkpt lat="46.59203" lon="5.05478">
        <ele>207</ele>
        <time>2022-06-25T08:06:55Z</time>
      </trkpt>
      <trkpt lat="46.59202" lon="5.05471">
        <ele>207.2</ele>
        <time>2022-06-25T08:06:56Z</time>
      </trkpt>
      <trkpt lat="46.59201" lon="5.05463">
        <ele>207.2</ele>
        <time>2022-06-25T08:06:57Z</time>
      </trkpt>
      <trkpt lat="46.592" lon="5.05456">
        <ele>207.2</ele>
        <time>2022-06-25T08:06:58Z</time>
      </trkpt>
      <trkpt lat="46.59199" lon="5.05449">
        <ele>207.6</ele>
        <time>2022-06-25T08:06:59Z</time>
      </trkpt>
      <trkpt lat="46.59198" lon="5.05442">
        <ele>207.6</ele>
        <time>2022-06-25T08:07:00Z</time>
      </trkpt>
      <trkpt lat="46.59197" lon="5.05435">
        <ele>207.6</ele>
        <time>2022-06-25T08:07:01Z</time>
      </trkpt>
      <trkpt lat="46.59195" lon="5.05428">
        <ele>207.8</ele>
        <time>2022-06-25T08:07:02Z</time>
      </trkpt>
      <trkpt lat="46.59194" lon="5.05421">
        <ele>207.8</ele>
        <time>2022-06-25T08:07:03Z</time>
      </trkpt>
      <trkpt lat="46.59193" lon="5.05414">
        <ele>207.8</ele>
        <time>2022-06-25T08:07:04Z</time>
      </trkpt>
      <trkpt lat="46.59192" lon="5.05407">
        <ele>208</ele>
        <time>2022-06-25T08:07:05Z</time>
      </trkpt>
      <trkpt lat="46.59192" lon="5.054">
        <ele>208</ele>
        <time>2022-06-25T08:07:06Z</time>
      </trkpt>
      <trkpt lat="46.59191" lon="5.05392">
        <ele>208</ele>
        <time>2022-06-25T08:07:07Z</time>
      </trkpt>
      <trkpt lat="46.5919" lon="5.05385">
        <ele>208.2</ele>
        <time>2022-06-25T08:07:08Z</time>
      </trkpt>
      <trkpt lat="46.59189" lon="5.05378">
        <ele>208.2</ele>
        <time>2022-06-25T08:07:09Z</time>
      </trkpt>
      <trkpt lat="46.59187" lon="5.0537">
        <ele>208.2</ele>
        <time>2022-06-25T08:07:10Z</time>
      </trkpt>
      <trkpt lat="46.59186" lon="5.05363">
        <ele>208.2</ele>
        <time>2022-06-25T08:07:11Z</time>
      </trkpt>
      <trkpt lat="46.59185" lon="5.05356">
        <ele>208.4</ele>
        <time>2022-06-25T08:07:12Z</time>
      </trkpt>
      <trkpt lat="46.59184" lon="5.05348">
        <ele>208.4</ele>
        <time>2022-06-25T08:07:13Z</time>
      </trkpt>
      <trkpt lat="46.59183" lon="5.0534">
        <ele>208.4</ele>
        <time>2022-06-25T08:07:14Z</time>
      </trkpt>
      <trkpt lat="46.59182" lon="5.05332">
        <ele>208.8</ele>
        <time>2022-06-25T08:07:15Z</time>
      </trkpt>
      <trkpt lat="46.59182" lon="5.05325">
        <ele>208.8</ele>
        <time>2022-06-25T08:07:16Z</time>
      </trkpt>
      <trkpt lat="46.5918" lon="5.05317">
        <ele>209</ele>
        <time>2022-06-25T08:07:17Z</time>
      </trkpt>
      <trkpt lat="46.59179" lon="5.05309">
        <ele>209</ele>
        <time>2022-06-25T08:07:18Z</time>
      </trkpt>
      <trkpt lat="46.59178" lon="5.05302">
        <ele>209.2</ele>
        <time>2022-06-25T08:07:19Z</time>
      </trkpt>
      <trkpt lat="46.59178" lon="5.05294">
        <ele>209.2</ele>
        <time>2022-06-25T08:07:20Z</time>
      </trkpt>
      <trkpt lat="46.59177" lon="5.05287">
        <ele>209.2</ele>
        <time>2022-06-25T08:07:21Z</time>
      </trkpt>
      <trkpt lat="46.59176" lon="5.05279">
        <ele>209.6</ele>
        <time>2022-06-25T08:07:22Z</time>
      </trkpt>
      <trkpt lat="46.59174" lon="5.05265">
        <ele>209.6</ele>
        <time>2022-06-25T08:07:23Z</time>
      </trkpt>
      <trkpt lat="46.59173" lon="5.05257">
        <ele>210</ele>
        <time>2022-06-25T08:07:24Z</time>
      </trkpt>
      <trkpt lat="46.59172" lon="5.0525">
        <ele>210</ele>
        <time>2022-06-25T08:07:25Z</time>
      </trkpt>
      <trkpt lat="46.59171" lon="5.05243">
        <ele>210</ele>
        <time>2022-06-25T08:07:26Z</time>
      </trkpt>
      <trkpt lat="46.5917" lon="5.05236">
        <ele>210.2</ele>
        <time>2022-06-25T08:07:27Z</time>
      </trkpt>
      <trkpt lat="46.59169" lon="5.05229">
        <ele>210.2</ele>
        <time>2022-06-25T08:07:28Z</time>
      </trkpt>
      <trkpt lat="46.59168" lon="5.05222">
        <ele>210.2</ele>
        <time>2022-06-25T08:07:29Z</time>
      </trkpt>
      <trkpt lat="46.59167" lon="5.05214">
        <ele>210.4</ele>
        <time>2022-06-25T08:07:30Z</time>
      </trkpt>
      <trkpt lat="46.59166" lon="5.05206">
        <ele>210.4</ele>
        <time>2022-06-25T08:07:31Z</time>
      </trkpt>
      <trkpt lat="46.59165" lon="5.05199">
        <ele>210.4</ele>
        <time>2022-06-25T08:07:32Z</time>
      </trkpt>
      <trkpt lat="46.59164" lon="5.05191">
        <ele>210.6</ele>
        <time>2022-06-25T08:07:33Z</time>
      </trkpt>
      <trkpt lat="46.59163" lon="5.05183">
        <ele>210.6</ele>
        <time>2022-06-25T08:07:34Z</time>
      </trkpt>
      <trkpt lat="46.59162" lon="5.05176">
        <ele>210.6</ele>
        <time>2022-06-25T08:07:35Z</time>
      </trkpt>
      <trkpt lat="46.59161" lon="5.05168">
        <ele>210.6</ele>
        <time>2022-06-25T08:07:36Z</time>
      </trkpt>
      <trkpt lat="46.59161" lon="5.05159">
        <ele>210.6</ele>
        <time>2022-06-25T08:07:37Z</time>
      </trkpt>
      <trkpt lat="46.5916" lon="5.05151">
        <ele>210.6</ele>
        <time>2022-06-25T08:07:38Z</time>
      </trkpt>
      <trkpt lat="46.5916" lon="5.05143">
        <ele>210.6</ele>
        <time>2022-06-25T08:07:39Z</time>
      </trkpt>
      <trkpt lat="46.5916" lon="5.05134">
        <ele>210.6</ele>
        <time>2022-06-25T08:07:40Z</time>
      </trkpt>
      <trkpt lat="46.5916" lon="5.05125">
        <ele>210.6</ele>
        <time>2022-06-25T08:07:41Z</time>
      </trkpt>
      <trkpt lat="46.5916" lon="5.05116">
        <ele>210.6</ele>
        <time>2022-06-25T08:07:42Z</time>
      </trkpt>
      <trkpt lat="46.5916" lon="5.05108">
        <ele>210.6</ele>
        <time>2022-06-25T08:07:43Z</time>
      </trkpt>
      <trkpt lat="46.5916" lon="5.05099">
        <ele>210.6</ele>
        <time>2022-06-25T08:07:44Z</time>
      </trkpt>
      <trkpt lat="46.5916" lon="5.0509">
        <ele>211</ele>
        <time>2022-06-25T08:07:45Z</time>
      </trkpt>
      <trkpt lat="46.5916" lon="5.05082">
        <ele>211</ele>
        <time>2022-06-25T08:07:46Z</time>
      </trkpt>
      <trkpt lat="46.59161" lon="5.05073">
        <ele>211.2</ele>
        <time>2022-06-25T08:07:47Z</time>
      </trkpt>
      <trkpt lat="46.59161" lon="5.05065">
        <ele>211.2</ele>
        <time>2022-06-25T08:07:48Z</time>
      </trkpt>
      <trkpt lat="46.59161" lon="5.05057">
        <ele>211.2</ele>
        <time>2022-06-25T08:07:49Z</time>
      </trkpt>
      <trkpt lat="46.59161" lon="5.05048">
        <ele>211.2</ele>
        <time>2022-06-25T08:07:50Z</time>
      </trkpt>
      <trkpt lat="46.59161" lon="5.0504">
        <ele>211.2</ele>
        <time>2022-06-25T08:07:51Z</time>
      </trkpt>
      <trkpt lat="46.59161" lon="5.05032">
        <ele>211.4</ele>
        <time>2022-06-25T08:07:52Z</time>
      </trkpt>
      <trkpt lat="46.59161" lon="5.05024">
        <ele>211.4</ele>
        <time>2022-06-25T08:07:53Z</time>
      </trkpt>
      <trkpt lat="46.59162" lon="5.05016">
        <ele>211.4</ele>
        <time>2022-06-25T08:07:54Z</time>
      </trkpt>
      <trkpt lat="46.59162" lon="5.05007">
        <ele>211.6</ele>
        <time>2022-06-25T08:07:55Z</time>
      </trkpt>
      <trkpt lat="46.59163" lon="5.04998">
        <ele>211.6</ele>
        <time>2022-06-25T08:07:56Z</time>
      </trkpt>
      <trkpt lat="46.59163" lon="5.0499">
        <ele>211.6</ele>
        <time>2022-06-25T08:07:57Z</time>
      </trkpt>
      <trkpt lat="46.59163" lon="5.04982">
        <ele>211.6</ele>
        <time>2022-06-25T08:07:58Z</time>
      </trkpt>
      <trkpt lat="46.59163" lon="5.04973">
        <ele>211.6</ele>
        <time>2022-06-25T08:07:59Z</time>
      </trkpt>
      <trkpt lat="46.59163" lon="5.04965">
        <ele>212</ele>
        <time>2022-06-25T08:08:00Z</time>
      </trkpt>
      <trkpt lat="46.59163" lon="5.04957">
        <ele>212</ele>
        <time>2022-06-25T08:08:01Z</time>
      </trkpt>
      <trkpt lat="46.59164" lon="5.04949">
        <ele>212</ele>
        <time>2022-06-25T08:08:02Z</time>
      </trkpt>
      <trkpt lat="46.59164" lon="5.0494">
        <ele>212</ele>
        <time>2022-06-25T08:08:03Z</time>
      </trkpt>
      <trkpt lat="46.59165" lon="5.04932">
        <ele>212.2</ele>
        <time>2022-06-25T08:08:04Z</time>
      </trkpt>
      <trkpt lat="46.59165" lon="5.04924">
        <ele>212.2</ele>
        <time>2022-06-25T08:08:05Z</time>
      </trkpt>
      <trkpt lat="46.59165" lon="5.04916">
        <ele>212.2</ele>
        <time>2022-06-25T08:08:06Z</time>
      </trkpt>
      <trkpt lat="46.59166" lon="5.04908">
        <ele>212.6</ele>
        <time>2022-06-25T08:08:07Z</time>
      </trkpt>
      <trkpt lat="46.59166" lon="5.049">
        <ele>212.6</ele>
        <time>2022-06-25T08:08:08Z</time>
      </trkpt>
      <trkpt lat="46.59166" lon="5.04892">
        <ele>212.6</ele>
        <time>2022-06-25T08:08:09Z</time>
      </trkpt>
      <trkpt lat="46.59167" lon="5.04883">
        <ele>212.8</ele>
        <time>2022-06-25T08:08:10Z</time>
      </trkpt>
      <trkpt lat="46.59167" lon="5.04875">
        <ele>212.8</ele>
        <time>2022-06-25T08:08:11Z</time>
      </trkpt>
      <trkpt lat="46.59167" lon="5.04867">
        <ele>212.8</ele>
        <time>2022-06-25T08:08:12Z</time>
      </trkpt>
      <trkpt lat="46.59168" lon="5.04859">
        <ele>212.8</ele>
        <time>2022-06-25T08:08:13Z</time>
      </trkpt>
      <trkpt lat="46.59168" lon="5.04851">
        <ele>212.8</ele>
        <time>2022-06-25T08:08:14Z</time>
      </trkpt>
      <trkpt lat="46.59168" lon="5.04842">
        <ele>212.8</ele>
        <time>2022-06-25T08:08:15Z</time>
      </trkpt>
      <trkpt lat="46.59168" lon="5.04834">
        <ele>213</ele>
        <time>2022-06-25T08:08:16Z</time>
      </trkpt>
      <trkpt lat="46.59168" lon="5.04825">
        <ele>213</ele>
        <time>2022-06-25T08:08:17Z</time>
      </trkpt>
      <trkpt lat="46.59169" lon="5.04817">
        <ele>213</ele>
        <time>2022-06-25T08:08:18Z</time>
      </trkpt>
      <trkpt lat="46.59169" lon="5.04808">
        <ele>213.4</ele>
        <time>2022-06-25T08:08:19Z</time>
      </trkpt>
      <trkpt lat="46.59169" lon="5.048">
        <ele>213.4</ele>
        <time>2022-06-25T08:08:20Z</time>
      </trkpt>
      <trkpt lat="46.59169" lon="5.04791">
        <ele>213.6</ele>
        <time>2022-06-25T08:08:21Z</time>
      </trkpt>
      <trkpt lat="46.5917" lon="5.04783">
        <ele>213.6</ele>
        <time>2022-06-25T08:08:22Z</time>
      </trkpt>
      <trkpt lat="46.5917" lon="5.04775">
        <ele>213.6</ele>
        <time>2022-06-25T08:08:23Z</time>
      </trkpt>
      <trkpt lat="46.5917" lon="5.04767">
        <ele>213.8</ele>
        <time>2022-06-25T08:08:24Z</time>
      </trkpt>
      <trkpt lat="46.59171" lon="5.04759">
        <ele>213.8</ele>
        <time>2022-06-25T08:08:25Z</time>
      </trkpt>
      <trkpt lat="46.59171" lon="5.04751">
        <ele>213.8</ele>
        <time>2022-06-25T08:08:26Z</time>
      </trkpt>
      <trkpt lat="46.59171" lon="5.04742">
        <ele>213.8</ele>
        <time>2022-06-25T08:08:27Z</time>
      </trkpt>
      <trkpt lat="46.59171" lon="5.04734">
        <ele>213.8</ele>
        <time>2022-06-25T08:08:28Z</time>
      </trkpt>
      <trkpt lat="46.59172" lon="5.04725">
        <ele>213.8</ele>
        <time>2022-06-25T08:08:29Z</time>
      </trkpt>
      <trkpt lat="46.59172" lon="5.04716">
        <ele>214</ele>
        <time>2022-06-25T08:08:30Z</time>
      </trkpt>
      <trkpt lat="46.59172" lon="5.04708">
        <ele>214</ele>
        <time>2022-06-25T08:08:31Z</time>
      </trkpt>
      <trkpt lat="46.59173" lon="5.04699">
        <ele>214</ele>
        <time>2022-06-25T08:08:32Z</time>
      </trkpt>
      <trkpt lat="46.59173" lon="5.0469">
        <ele>214</ele>
        <time>2022-06-25T08:08:33Z</time>
      </trkpt>
      <trkpt lat="46.59173" lon="5.04681">
        <ele>214</ele>
        <time>2022-06-25T08:08:34Z</time>
      </trkpt>
      <trkpt lat="46.59173" lon="5.04672">
        <ele>214</ele>
        <time>2022-06-25T08:08:35Z</time>
      </trkpt>
      <trkpt lat="46.59173" lon="5.04663">
        <ele>214</ele>
        <time>2022-06-25T08:08:36Z</time>
      </trkpt>
      <trkpt lat="46.59174" lon="5.04653">
        <ele>214</ele>
        <time>2022-06-25T08:08:37Z</time>
      </trkpt>
      <trkpt lat="46.59174" lon="5.04644">
        <ele>214</ele>
        <time>2022-06-25T08:08:38Z</time>
      </trkpt>
      <trkpt lat="46.59175" lon="5.04634">
        <ele>213.8</ele>
        <time>2022-06-25T08:08:39Z</time>
      </trkpt>
      <trkpt lat="46.59175" lon="5.04624">
        <ele>213.8</ele>
        <time>2022-06-25T08:08:40Z</time>
      </trkpt>
      <trkpt lat="46.59175" lon="5.04613">
        <ele>213.4</ele>
        <time>2022-06-25T08:08:41Z</time>
      </trkpt>
      <trkpt lat="46.59175" lon="5.04603">
        <ele>213.4</ele>
        <time>2022-06-25T08:08:42Z</time>
      </trkpt>
      <trkpt lat="46.59176" lon="5.04593">
        <ele>213.4</ele>
        <time>2022-06-25T08:08:43Z</time>
      </trkpt>
      <trkpt lat="46.59176" lon="5.04583">
        <ele>213.4</ele>
        <time>2022-06-25T08:08:44Z</time>
      </trkpt>
      <trkpt lat="46.59177" lon="5.04574">
        <ele>213.4</ele>
        <time>2022-06-25T08:08:45Z</time>
      </trkpt>
      <trkpt lat="46.59177" lon="5.04565">
        <ele>213.4</ele>
        <time>2022-06-25T08:08:46Z</time>
      </trkpt>
      <trkpt lat="46.59178" lon="5.04557">
        <ele>213.8</ele>
        <time>2022-06-25T08:08:47Z</time>
      </trkpt>
      <trkpt lat="46.59178" lon="5.04549">
        <ele>213.8</ele>
        <time>2022-06-25T08:08:48Z</time>
      </trkpt>
      <trkpt lat="46.59178" lon="5.04542">
        <ele>214</ele>
        <time>2022-06-25T08:08:49Z</time>
      </trkpt>
      <trkpt lat="46.59178" lon="5.04534">
        <ele>214</ele>
        <time>2022-06-25T08:08:50Z</time>
      </trkpt>
      <trkpt lat="46.59179" lon="5.04526">
        <ele>214.2</ele>
        <time>2022-06-25T08:08:51Z</time>
      </trkpt>
      <trkpt lat="46.59179" lon="5.04518">
        <ele>214.2</ele>
        <time>2022-06-25T08:08:52Z</time>
      </trkpt>
      <trkpt lat="46.59179" lon="5.0451">
        <ele>214.6</ele>
        <time>2022-06-25T08:08:53Z</time>
      </trkpt>
      <trkpt lat="46.5918" lon="5.04502">
        <ele>214.6</ele>
        <time>2022-06-25T08:08:54Z</time>
      </trkpt>
      <trkpt lat="46.5918" lon="5.04494">
        <ele>214.6</ele>
        <time>2022-06-25T08:08:55Z</time>
      </trkpt>
      <trkpt lat="46.59181" lon="5.04486">
        <ele>214.6</ele>
        <time>2022-06-25T08:08:56Z</time>
      </trkpt>
      <trkpt lat="46.59181" lon="5.04478">
        <ele>214.8</ele>
        <time>2022-06-25T08:08:57Z</time>
      </trkpt>
      <trkpt lat="46.59181" lon="5.04469">
        <ele>214.8</ele>
        <time>2022-06-25T08:08:58Z</time>
      </trkpt>
      <trkpt lat="46.59181" lon="5.04461">
        <ele>214.8</ele>
        <time>2022-06-25T08:08:59Z</time>
      </trkpt>
      <trkpt lat="46.59181" lon="5.04452">
        <ele>214.8</ele>
        <time>2022-06-25T08:09:00Z</time>
      </trkpt>
      <trkpt lat="46.59182" lon="5.04442">
        <ele>214.8</ele>
        <time>2022-06-25T08:09:01Z</time>
      </trkpt>
      <trkpt lat="46.59182" lon="5.04433">
        <ele>214.4</ele>
        <time>2022-06-25T08:09:02Z</time>
      </trkpt>
      <trkpt lat="46.59182" lon="5.04423">
        <ele>214.4</ele>
        <time>2022-06-25T08:09:03Z</time>
      </trkpt>
      <trkpt lat="46.59182" lon="5.04414">
        <ele>214.4</ele>
        <time>2022-06-25T08:09:04Z</time>
      </trkpt>
      <trkpt lat="46.59183" lon="5.04403">
        <ele>214.2</ele>
        <time>2022-06-25T08:09:05Z</time>
      </trkpt>
      <trkpt lat="46.59183" lon="5.04393">
        <ele>214</ele>
        <time>2022-06-25T08:09:06Z</time>
      </trkpt>
      <trkpt lat="46.59184" lon="5.04383">
        <ele>213.6</ele>
        <time>2022-06-25T08:09:07Z</time>
      </trkpt>
      <trkpt lat="46.59184" lon="5.04372">
        <ele>213.4</ele>
        <time>2022-06-25T08:09:08Z</time>
      </trkpt>
      <trkpt lat="46.59185" lon="5.04361">
        <ele>213.4</ele>
        <time>2022-06-25T08:09:09Z</time>
      </trkpt>
      <trkpt lat="46.59186" lon="5.04349">
        <ele>213</ele>
        <time>2022-06-25T08:09:10Z</time>
      </trkpt>
      <trkpt lat="46.59186" lon="5.04337">
        <ele>212.8</ele>
        <time>2022-06-25T08:09:11Z</time>
      </trkpt>
      <trkpt lat="46.59186" lon="5.04325">
        <ele>212.4</ele>
        <time>2022-06-25T08:09:12Z</time>
      </trkpt>
      <trkpt lat="46.59186" lon="5.04312">
        <ele>212.2</ele>
        <time>2022-06-25T08:09:13Z</time>
      </trkpt>
      <trkpt lat="46.59187" lon="5.043">
        <ele>212.2</ele>
        <time>2022-06-25T08:09:14Z</time>
      </trkpt>
      <trkpt lat="46.59187" lon="5.04287">
        <ele>211.6</ele>
        <time>2022-06-25T08:09:15Z</time>
      </trkpt>
      <trkpt lat="46.59187" lon="5.04275">
        <ele>211.4</ele>
        <time>2022-06-25T08:09:16Z</time>
      </trkpt>
      <trkpt lat="46.59188" lon="5.04262">
        <ele>211.4</ele>
        <time>2022-06-25T08:09:17Z</time>
      </trkpt>
      <trkpt lat="46.59189" lon="5.0425">
        <ele>211</ele>
        <time>2022-06-25T08:09:18Z</time>
      </trkpt>
      <trkpt lat="46.59189" lon="5.04238">
        <ele>211</ele>
        <time>2022-06-25T08:09:19Z</time>
      </trkpt>
      <trkpt lat="46.59189" lon="5.04226">
        <ele>210.6</ele>
        <time>2022-06-25T08:09:20Z</time>
      </trkpt>
      <trkpt lat="46.5919" lon="5.04214">
        <ele>210.6</ele>
        <time>2022-06-25T08:09:21Z</time>
      </trkpt>
      <trkpt lat="46.5919" lon="5.04202">
        <ele>210.4</ele>
        <time>2022-06-25T08:09:22Z</time>
      </trkpt>
      <trkpt lat="46.5919" lon="5.0419">
        <ele>210.4</ele>
        <time>2022-06-25T08:09:23Z</time>
      </trkpt>
      <trkpt lat="46.59191" lon="5.04178">
        <ele>210</ele>
        <time>2022-06-25T08:09:24Z</time>
      </trkpt>
      <trkpt lat="46.59191" lon="5.04167">
        <ele>210</ele>
        <time>2022-06-25T08:09:25Z</time>
      </trkpt>
      <trkpt lat="46.59192" lon="5.04156">
        <ele>210</ele>
        <time>2022-06-25T08:09:26Z</time>
      </trkpt>
      <trkpt lat="46.59192" lon="5.04146">
        <ele>210</ele>
        <time>2022-06-25T08:09:27Z</time>
      </trkpt>
      <trkpt lat="46.59193" lon="5.04135">
        <ele>210</ele>
        <time>2022-06-25T08:09:28Z</time>
      </trkpt>
      <trkpt lat="46.59193" lon="5.04125">
        <ele>210</ele>
        <time>2022-06-25T08:09:29Z</time>
      </trkpt>
      <trkpt lat="46.59194" lon="5.04116">
        <ele>210</ele>
        <time>2022-06-25T08:09:30Z</time>
      </trkpt>
      <trkpt lat="46.59194" lon="5.04106">
        <ele>210</ele>
        <time>2022-06-25T08:09:31Z</time>
      </trkpt>
      <trkpt lat="46.59194" lon="5.04097">
        <ele>210.2</ele>
        <time>2022-06-25T08:09:32Z</time>
      </trkpt>
      <trkpt lat="46.59194" lon="5.04088">
        <ele>210.2</ele>
        <time>2022-06-25T08:09:33Z</time>
      </trkpt>
      <trkpt lat="46.59192" lon="5.04079">
        <ele>210.2</ele>
        <time>2022-06-25T08:09:34Z</time>
      </trkpt>
      <trkpt lat="46.59191" lon="5.0407">
        <ele>210.2</ele>
        <time>2022-06-25T08:09:35Z</time>
      </trkpt>
      <trkpt lat="46.5919" lon="5.04062">
        <ele>210.2</ele>
        <time>2022-06-25T08:09:36Z</time>
      </trkpt>
      <trkpt lat="46.59188" lon="5.04053">
        <ele>210.6</ele>
        <time>2022-06-25T08:09:37Z</time>
      </trkpt>
      <trkpt lat="46.59187" lon="5.04045">
        <ele>210.6</ele>
        <time>2022-06-25T08:09:38Z</time>
      </trkpt>
      <trkpt lat="46.59185" lon="5.04036">
        <ele>210.6</ele>
        <time>2022-06-25T08:09:39Z</time>
      </trkpt>
      <trkpt lat="46.59183" lon="5.04028">
        <ele>210.8</ele>
        <time>2022-06-25T08:09:40Z</time>
      </trkpt>
      <trkpt lat="46.59181" lon="5.0402">
        <ele>210.8</ele>
        <time>2022-06-25T08:09:41Z</time>
      </trkpt>
      <trkpt lat="46.5918" lon="5.04011">
        <ele>211</ele>
        <time>2022-06-25T08:09:42Z</time>
      </trkpt>
      <trkpt lat="46.59179" lon="5.04003">
        <ele>211</ele>
        <time>2022-06-25T08:09:43Z</time>
      </trkpt>
      <trkpt lat="46.59177" lon="5.03996">
        <ele>211.2</ele>
        <time>2022-06-25T08:09:44Z</time>
      </trkpt>
      <trkpt lat="46.59175" lon="5.03988">
        <ele>211.2</ele>
        <time>2022-06-25T08:09:45Z</time>
      </trkpt>
      <trkpt lat="46.59174" lon="5.03981">
        <ele>211.6</ele>
        <time>2022-06-25T08:09:46Z</time>
      </trkpt>
      <trkpt lat="46.59172" lon="5.03973">
        <ele>211.6</ele>
        <time>2022-06-25T08:09:47Z</time>
      </trkpt>
      <trkpt lat="46.59171" lon="5.03966">
        <ele>212</ele>
        <time>2022-06-25T08:09:48Z</time>
      </trkpt>
      <trkpt lat="46.59169" lon="5.03959">
        <ele>212</ele>
        <time>2022-06-25T08:09:49Z</time>
      </trkpt>
      <trkpt lat="46.59168" lon="5.03951">
        <ele>212.2</ele>
        <time>2022-06-25T08:09:50Z</time>
      </trkpt>
      <trkpt lat="46.59167" lon="5.03944">
        <ele>212.2</ele>
        <time>2022-06-25T08:09:51Z</time>
      </trkpt>
      <trkpt lat="46.59166" lon="5.03937">
        <ele>212.4</ele>
        <time>2022-06-25T08:09:52Z</time>
      </trkpt>
      <trkpt lat="46.59164" lon="5.0393">
        <ele>212.4</ele>
        <time>2022-06-25T08:09:53Z</time>
      </trkpt>
      <trkpt lat="46.59163" lon="5.03923">
        <ele>212.4</ele>
        <time>2022-06-25T08:09:54Z</time>
      </trkpt>
      <trkpt lat="46.59162" lon="5.03915">
        <ele>212.8</ele>
        <time>2022-06-25T08:09:55Z</time>
      </trkpt>
      <trkpt lat="46.5916" lon="5.03908">
        <ele>212.8</ele>
        <time>2022-06-25T08:09:56Z</time>
      </trkpt>
      <trkpt lat="46.59159" lon="5.03901">
        <ele>213</ele>
        <time>2022-06-25T08:09:57Z</time>
      </trkpt>
      <trkpt lat="46.59158" lon="5.03894">
        <ele>213</ele>
        <time>2022-06-25T08:09:58Z</time>
      </trkpt>
      <trkpt lat="46.59156" lon="5.03886">
        <ele>213</ele>
        <time>2022-06-25T08:09:59Z</time>
      </trkpt>
      <trkpt lat="46.59155" lon="5.03879">
        <ele>213.2</ele>
        <time>2022-06-25T08:10:00Z</time>
      </trkpt>
      <trkpt lat="46.59153" lon="5.03871">
        <ele>213.2</ele>
        <time>2022-06-25T08:10:01Z</time>
      </trkpt>
      <trkpt lat="46.59152" lon="5.03864">
        <ele>213.2</ele>
        <time>2022-06-25T08:10:02Z</time>
      </trkpt>
      <trkpt lat="46.59151" lon="5.03856">
        <ele>213.4</ele>
        <time>2022-06-25T08:10:03Z</time>
      </trkpt>
      <trkpt lat="46.59149" lon="5.03848">
        <ele>213.4</ele>
        <time>2022-06-25T08:10:04Z</time>
      </trkpt>
      <trkpt lat="46.59148" lon="5.0384">
        <ele>213.4</ele>
        <time>2022-06-25T08:10:05Z</time>
      </trkpt>
      <trkpt lat="46.59147" lon="5.03832">
        <ele>213.6</ele>
        <time>2022-06-25T08:10:06Z</time>
      </trkpt>
      <trkpt lat="46.59146" lon="5.03825">
        <ele>213.6</ele>
        <time>2022-06-25T08:10:07Z</time>
      </trkpt>
      <trkpt lat="46.59144" lon="5.03817">
        <ele>213.6</ele>
        <time>2022-06-25T08:10:08Z</time>
      </trkpt>
      <trkpt lat="46.59142" lon="5.03809">
        <ele>214</ele>
        <time>2022-06-25T08:10:09Z</time>
      </trkpt>
      <trkpt lat="46.59141" lon="5.03802">
        <ele>214</ele>
        <time>2022-06-25T08:10:10Z</time>
      </trkpt>
      <trkpt lat="46.59139" lon="5.03794">
        <ele>214</ele>
        <time>2022-06-25T08:10:11Z</time>
      </trkpt>
      <trkpt lat="46.59138" lon="5.03787">
        <ele>214.2</ele>
        <time>2022-06-25T08:10:12Z</time>
      </trkpt>
      <trkpt lat="46.59136" lon="5.0378">
        <ele>214.2</ele>
        <time>2022-06-25T08:10:13Z</time>
      </trkpt>
      <trkpt lat="46.59135" lon="5.03773">
        <ele>214.2</ele>
        <time>2022-06-25T08:10:14Z</time>
      </trkpt>
      <trkpt lat="46.59133" lon="5.03766">
        <ele>214.4</ele>
        <time>2022-06-25T08:10:15Z</time>
      </trkpt>
      <trkpt lat="46.59132" lon="5.03758">
        <ele>214.4</ele>
        <time>2022-06-25T08:10:16Z</time>
      </trkpt>
      <trkpt lat="46.59131" lon="5.03751">
        <ele>214.4</ele>
        <time>2022-06-25T08:10:17Z</time>
      </trkpt>
      <trkpt lat="46.59129" lon="5.03744">
        <ele>214.8</ele>
        <time>2022-06-25T08:10:18Z</time>
      </trkpt>
      <trkpt lat="46.59128" lon="5.03737">
        <ele>214.8</ele>
        <time>2022-06-25T08:10:19Z</time>
      </trkpt>
      <trkpt lat="46.59126" lon="5.0373">
        <ele>215</ele>
        <time>2022-06-25T08:10:20Z</time>
      </trkpt>
      <trkpt lat="46.59125" lon="5.03723">
        <ele>215</ele>
        <time>2022-06-25T08:10:21Z</time>
      </trkpt>
      <trkpt lat="46.59124" lon="5.03716">
        <ele>215</ele>
        <time>2022-06-25T08:10:22Z</time>
      </trkpt>
      <trkpt lat="46.59122" lon="5.03708">
        <ele>215.4</ele>
        <time>2022-06-25T08:10:23Z</time>
      </trkpt>
      <trkpt lat="46.59121" lon="5.03701">
        <ele>215.4</ele>
        <time>2022-06-25T08:10:24Z</time>
      </trkpt>
      <trkpt lat="46.59119" lon="5.03693">
        <ele>215.6</ele>
        <time>2022-06-25T08:10:25Z</time>
      </trkpt>
      <trkpt lat="46.59118" lon="5.03686">
        <ele>215.6</ele>
        <time>2022-06-25T08:10:26Z</time>
      </trkpt>
      <trkpt lat="46.59116" lon="5.03679">
        <ele>215.8</ele>
        <time>2022-06-25T08:10:27Z</time>
      </trkpt>
      <trkpt lat="46.59115" lon="5.03671">
        <ele>215.8</ele>
        <time>2022-06-25T08:10:28Z</time>
      </trkpt>
      <trkpt lat="46.59114" lon="5.03664">
        <ele>215.8</ele>
        <time>2022-06-25T08:10:29Z</time>
      </trkpt>
      <trkpt lat="46.59113" lon="5.03657">
        <ele>216.2</ele>
        <time>2022-06-25T08:10:30Z</time>
      </trkpt>
      <trkpt lat="46.59111" lon="5.0365">
        <ele>216.2</ele>
        <time>2022-06-25T08:10:31Z</time>
      </trkpt>
      <trkpt lat="46.5911" lon="5.03642">
        <ele>216.6</ele>
        <time>2022-06-25T08:10:32Z</time>
      </trkpt>
      <trkpt lat="46.59108" lon="5.03635">
        <ele>216.6</ele>
        <time>2022-06-25T08:10:33Z</time>
      </trkpt>
      <trkpt lat="46.59107" lon="5.03628">
        <ele>216.8</ele>
        <time>2022-06-25T08:10:34Z</time>
      </trkpt>
      <trkpt lat="46.59105" lon="5.03621">
        <ele>216.8</ele>
        <time>2022-06-25T08:10:35Z</time>
      </trkpt>
      <trkpt lat="46.59104" lon="5.03613">
        <ele>216.8</ele>
        <time>2022-06-25T08:10:36Z</time>
      </trkpt>
      <trkpt lat="46.59103" lon="5.03605">
        <ele>216.8</ele>
        <time>2022-06-25T08:10:37Z</time>
      </trkpt>
      <trkpt lat="46.59101" lon="5.03598">
        <ele>216.8</ele>
        <time>2022-06-25T08:10:38Z</time>
      </trkpt>
      <trkpt lat="46.591" lon="5.0359">
        <ele>217</ele>
        <time>2022-06-25T08:10:39Z</time>
      </trkpt>
      <trkpt lat="46.59099" lon="5.03582">
        <ele>217</ele>
        <time>2022-06-25T08:10:40Z</time>
      </trkpt>
      <trkpt lat="46.59097" lon="5.03575">
        <ele>217</ele>
        <time>2022-06-25T08:10:41Z</time>
      </trkpt>
      <trkpt lat="46.59096" lon="5.03567">
        <ele>217</ele>
        <time>2022-06-25T08:10:42Z</time>
      </trkpt>
      <trkpt lat="46.59094" lon="5.03559">
        <ele>217</ele>
        <time>2022-06-25T08:10:43Z</time>
      </trkpt>
      <trkpt lat="46.59093" lon="5.03551">
        <ele>217</ele>
        <time>2022-06-25T08:10:44Z</time>
      </trkpt>
      <trkpt lat="46.59091" lon="5.03544">
        <ele>217.2</ele>
        <time>2022-06-25T08:10:45Z</time>
      </trkpt>
      <trkpt lat="46.5909" lon="5.03536">
        <ele>217.2</ele>
        <time>2022-06-25T08:10:46Z</time>
      </trkpt>
      <trkpt lat="46.59088" lon="5.03528">
        <ele>217.2</ele>
        <time>2022-06-25T08:10:47Z</time>
      </trkpt>
      <trkpt lat="46.59086" lon="5.0352">
        <ele>217.2</ele>
        <time>2022-06-25T08:10:48Z</time>
      </trkpt>
      <trkpt lat="46.59085" lon="5.03512">
        <ele>217.4</ele>
        <time>2022-06-25T08:10:49Z</time>
      </trkpt>
      <trkpt lat="46.59083" lon="5.03504">
        <ele>217.4</ele>
        <time>2022-06-25T08:10:50Z</time>
      </trkpt>
      <trkpt lat="46.59082" lon="5.03496">
        <ele>217.4</ele>
        <time>2022-06-25T08:10:51Z</time>
      </trkpt>
      <trkpt lat="46.59081" lon="5.03488">
        <ele>217.4</ele>
        <time>2022-06-25T08:10:52Z</time>
      </trkpt>
      <trkpt lat="46.59079" lon="5.0348">
        <ele>217.4</ele>
        <time>2022-06-25T08:10:53Z</time>
      </trkpt>
      <trkpt lat="46.59078" lon="5.03472">
        <ele>217.4</ele>
        <time>2022-06-25T08:10:54Z</time>
      </trkpt>
      <trkpt lat="46.59076" lon="5.03464">
        <ele>217.6</ele>
        <time>2022-06-25T08:10:55Z</time>
      </trkpt>
      <trkpt lat="46.59074" lon="5.03456">
        <ele>217.6</ele>
        <time>2022-06-25T08:10:56Z</time>
      </trkpt>
      <trkpt lat="46.59073" lon="5.03448">
        <ele>217.6</ele>
        <time>2022-06-25T08:10:57Z</time>
      </trkpt>
      <trkpt lat="46.59071" lon="5.03439">
        <ele>217.6</ele>
        <time>2022-06-25T08:10:58Z</time>
      </trkpt>
      <trkpt lat="46.5907" lon="5.03431">
        <ele>217.8</ele>
        <time>2022-06-25T08:10:59Z</time>
      </trkpt>
      <trkpt lat="46.59068" lon="5.03423">
        <ele>217.8</ele>
        <time>2022-06-25T08:11:00Z</time>
      </trkpt>
      <trkpt lat="46.59066" lon="5.03415">
        <ele>218</ele>
        <time>2022-06-25T08:11:01Z</time>
      </trkpt>
      <trkpt lat="46.59065" lon="5.03407">
        <ele>218</ele>
        <time>2022-06-25T08:11:02Z</time>
      </trkpt>
      <trkpt lat="46.59063" lon="5.03399">
        <ele>218.4</ele>
        <time>2022-06-25T08:11:03Z</time>
      </trkpt>
      <trkpt lat="46.59061" lon="5.03391">
        <ele>218.4</ele>
        <time>2022-06-25T08:11:04Z</time>
      </trkpt>
      <trkpt lat="46.5906" lon="5.03383">
        <ele>218.4</ele>
        <time>2022-06-25T08:11:05Z</time>
      </trkpt>
      <trkpt lat="46.59057" lon="5.03376">
        <ele>218.4</ele>
        <time>2022-06-25T08:11:06Z</time>
      </trkpt>
      <trkpt lat="46.59055" lon="5.03368">
        <ele>218.6</ele>
        <time>2022-06-25T08:11:07Z</time>
      </trkpt>
      <trkpt lat="46.59053" lon="5.0336">
        <ele>218.6</ele>
        <time>2022-06-25T08:11:08Z</time>
      </trkpt>
      <trkpt lat="46.5905" lon="5.03353">
        <ele>218.6</ele>
        <time>2022-06-25T08:11:09Z</time>
      </trkpt>
      <trkpt lat="46.59047" lon="5.03346">
        <ele>218.6</ele>
        <time>2022-06-25T08:11:10Z</time>
      </trkpt>
      <trkpt lat="46.59044" lon="5.03339">
        <ele>218.8</ele>
        <time>2022-06-25T08:11:11Z</time>
      </trkpt>
      <trkpt lat="46.59041" lon="5.03332">
        <ele>218.8</ele>
        <time>2022-06-25T08:11:12Z</time>
      </trkpt>
      <trkpt lat="46.59038" lon="5.03324">
        <ele>218.8</ele>
        <time>2022-06-25T08:11:13Z</time>
      </trkpt>
      <trkpt lat="46.59035" lon="5.03317">
        <ele>218.8</ele>
        <time>2022-06-25T08:11:14Z</time>
      </trkpt>
      <trkpt lat="46.59032" lon="5.0331">
        <ele>219.2</ele>
        <time>2022-06-25T08:11:15Z</time>
      </trkpt>
      <trkpt lat="46.5903" lon="5.03302">
        <ele>219.2</ele>
        <time>2022-06-25T08:11:16Z</time>
      </trkpt>
      <trkpt lat="46.59027" lon="5.03295">
        <ele>219.4</ele>
        <time>2022-06-25T08:11:17Z</time>
      </trkpt>
      <trkpt lat="46.59024" lon="5.03288">
        <ele>219.4</ele>
        <time>2022-06-25T08:11:18Z</time>
      </trkpt>
      <trkpt lat="46.59021" lon="5.03281">
        <ele>219.6</ele>
        <time>2022-06-25T08:11:19Z</time>
      </trkpt>
      <trkpt lat="46.59019" lon="5.03273">
        <ele>219.6</ele>
        <time>2022-06-25T08:11:20Z</time>
      </trkpt>
      <trkpt lat="46.59016" lon="5.03266">
        <ele>219.6</ele>
        <time>2022-06-25T08:11:21Z</time>
      </trkpt>
      <trkpt lat="46.59014" lon="5.03259">
        <ele>219.8</ele>
        <time>2022-06-25T08:11:22Z</time>
      </trkpt>
      <trkpt lat="46.59011" lon="5.03252">
        <ele>219.8</ele>
        <time>2022-06-25T08:11:23Z</time>
      </trkpt>
      <trkpt lat="46.59009" lon="5.03244">
        <ele>220</ele>
        <time>2022-06-25T08:11:24Z</time>
      </trkpt>
      <trkpt lat="46.59006" lon="5.03237">
        <ele>220</ele>
        <time>2022-06-25T08:11:25Z</time>
      </trkpt>
      <trkpt lat="46.59004" lon="5.0323">
        <ele>220.4</ele>
        <time>2022-06-25T08:11:26Z</time>
      </trkpt>
      <trkpt lat="46.59002" lon="5.03224">
        <ele>220.4</ele>
        <time>2022-06-25T08:11:27Z</time>
      </trkpt>
      <trkpt lat="46.59" lon="5.03216">
        <ele>220.4</ele>
        <time>2022-06-25T08:11:28Z</time>
      </trkpt>
      <trkpt lat="46.58998" lon="5.03209">
        <ele>220.6</ele>
        <time>2022-06-25T08:11:29Z</time>
      </trkpt>
      <trkpt lat="46.58996" lon="5.03202">
        <ele>220.6</ele>
        <time>2022-06-25T08:11:30Z</time>
      </trkpt>
      <trkpt lat="46.58994" lon="5.03195">
        <ele>220.6</ele>
        <time>2022-06-25T08:11:31Z</time>
      </trkpt>
      <trkpt lat="46.58992" lon="5.03188">
        <ele>220.6</ele>
        <time>2022-06-25T08:11:32Z</time>
      </trkpt>
      <trkpt lat="46.58991" lon="5.0318">
        <ele>220.6</ele>
        <time>2022-06-25T08:11:33Z</time>
      </trkpt>
      <trkpt lat="46.58989" lon="5.03173">
        <ele>221</ele>
        <time>2022-06-25T08:11:34Z</time>
      </trkpt>
      <trkpt lat="46.58987" lon="5.03165">
        <ele>221</ele>
        <time>2022-06-25T08:11:35Z</time>
      </trkpt>
      <trkpt lat="46.58985" lon="5.03158">
        <ele>221</ele>
        <time>2022-06-25T08:11:36Z</time>
      </trkpt>
      <trkpt lat="46.58983" lon="5.0315">
        <ele>221</ele>
        <time>2022-06-25T08:11:37Z</time>
      </trkpt>
      <trkpt lat="46.58982" lon="5.03142">
        <ele>221</ele>
        <time>2022-06-25T08:11:38Z</time>
      </trkpt>
      <trkpt lat="46.5898" lon="5.03135">
        <ele>221</ele>
        <time>2022-06-25T08:11:39Z</time>
      </trkpt>
      <trkpt lat="46.58978" lon="5.03127">
        <ele>221</ele>
        <time>2022-06-25T08:11:40Z</time>
      </trkpt>
      <trkpt lat="46.58977" lon="5.03119">
        <ele>221</ele>
        <time>2022-06-25T08:11:41Z</time>
      </trkpt>
      <trkpt lat="46.58975" lon="5.03111">
        <ele>221</ele>
        <time>2022-06-25T08:11:42Z</time>
      </trkpt>
      <trkpt lat="46.58973" lon="5.03103">
        <ele>221</ele>
        <time>2022-06-25T08:11:43Z</time>
      </trkpt>
      <trkpt lat="46.58972" lon="5.03095">
        <ele>221</ele>
        <time>2022-06-25T08:11:44Z</time>
      </trkpt>
      <trkpt lat="46.5897" lon="5.03088">
        <ele>221</ele>
        <time>2022-06-25T08:11:45Z</time>
      </trkpt>
      <trkpt lat="46.58969" lon="5.0308">
        <ele>221</ele>
        <time>2022-06-25T08:11:46Z</time>
      </trkpt>
      <trkpt lat="46.58967" lon="5.03072">
        <ele>221</ele>
        <time>2022-06-25T08:11:47Z</time>
      </trkpt>
      <trkpt lat="46.58965" lon="5.03064">
        <ele>221</ele>
        <time>2022-06-25T08:11:48Z</time>
      </trkpt>
      <trkpt lat="46.58964" lon="5.03056">
        <ele>221</ele>
        <time>2022-06-25T08:11:49Z</time>
      </trkpt>
      <trkpt lat="46.58962" lon="5.03048">
        <ele>221</ele>
        <time>2022-06-25T08:11:50Z</time>
      </trkpt>
      <trkpt lat="46.58959" lon="5.0304">
        <ele>221</ele>
        <time>2022-06-25T08:11:51Z</time>
      </trkpt>
      <trkpt lat="46.58957" lon="5.03032">
        <ele>221</ele>
        <time>2022-06-25T08:11:52Z</time>
      </trkpt>
      <trkpt lat="46.58953" lon="5.03025">
        <ele>221</ele>
        <time>2022-06-25T08:11:53Z</time>
      </trkpt>
      <trkpt lat="46.58949" lon="5.03018">
        <ele>221</ele>
        <time>2022-06-25T08:11:54Z</time>
      </trkpt>
      <trkpt lat="46.58944" lon="5.03012">
        <ele>220.6</ele>
        <time>2022-06-25T08:11:55Z</time>
      </trkpt>
      <trkpt lat="46.58939" lon="5.03006">
        <ele>220.6</ele>
        <time>2022-06-25T08:11:56Z</time>
      </trkpt>
      <trkpt lat="46.58934" lon="5.03001">
        <ele>220.6</ele>
        <time>2022-06-25T08:11:57Z</time>
      </trkpt>
      <trkpt lat="46.58928" lon="5.02997">
        <ele>220.6</ele>
        <time>2022-06-25T08:11:58Z</time>
      </trkpt>
      <trkpt lat="46.58922" lon="5.02994">
        <ele>220.6</ele>
        <time>2022-06-25T08:11:59Z</time>
      </trkpt>
      <trkpt lat="46.58916" lon="5.02992">
        <ele>220.4</ele>
        <time>2022-06-25T08:12:00Z</time>
      </trkpt>
      <trkpt lat="46.58909" lon="5.02991">
        <ele>220.4</ele>
        <time>2022-06-25T08:12:01Z</time>
      </trkpt>
      <trkpt lat="46.58902" lon="5.02991">
        <ele>220.4</ele>
        <time>2022-06-25T08:12:02Z</time>
      </trkpt>
      <trkpt lat="46.58896" lon="5.02993">
        <ele>220.4</ele>
        <time>2022-06-25T08:12:03Z</time>
      </trkpt>
      <trkpt lat="46.58889" lon="5.02995">
        <ele>220.2</ele>
        <time>2022-06-25T08:12:04Z</time>
      </trkpt>
      <trkpt lat="46.58883" lon="5.02998">
        <ele>220.2</ele>
        <time>2022-06-25T08:12:05Z</time>
      </trkpt>
      <trkpt lat="46.58877" lon="5.03001">
        <ele>220.2</ele>
        <time>2022-06-25T08:12:06Z</time>
      </trkpt>
      <trkpt lat="46.58871" lon="5.03005">
        <ele>220.2</ele>
        <time>2022-06-25T08:12:07Z</time>
      </trkpt>
      <trkpt lat="46.58865" lon="5.03009">
        <ele>220.2</ele>
        <time>2022-06-25T08:12:08Z</time>
      </trkpt>
      <trkpt lat="46.58858" lon="5.03012">
        <ele>220.2</ele>
        <time>2022-06-25T08:12:09Z</time>
      </trkpt>
      <trkpt lat="46.58852" lon="5.03016">
        <ele>220.2</ele>
        <time>2022-06-25T08:12:10Z</time>
      </trkpt>
      <trkpt lat="46.58846" lon="5.0302">
        <ele>220.2</ele>
        <time>2022-06-25T08:12:11Z</time>
      </trkpt>
      <trkpt lat="46.5884" lon="5.03023">
        <ele>220.2</ele>
        <time>2022-06-25T08:12:12Z</time>
      </trkpt>
      <trkpt lat="46.58834" lon="5.03027">
        <ele>220.2</ele>
        <time>2022-06-25T08:12:13Z</time>
      </trkpt>
      <trkpt lat="46.58829" lon="5.03031">
        <ele>220.2</ele>
        <time>2022-06-25T08:12:14Z</time>
      </trkpt>
      <trkpt lat="46.58823" lon="5.03035">
        <ele>220.2</ele>
        <time>2022-06-25T08:12:15Z</time>
      </trkpt>
      <trkpt lat="46.58817" lon="5.03038">
        <ele>220.2</ele>
        <time>2022-06-25T08:12:16Z</time>
      </trkpt>
      <trkpt lat="46.58811" lon="5.03042">
        <ele>220.2</ele>
        <time>2022-06-25T08:12:17Z</time>
      </trkpt>
      <trkpt lat="46.58806" lon="5.03045">
        <ele>220.2</ele>
        <time>2022-06-25T08:12:18Z</time>
      </trkpt>
      <trkpt lat="46.588" lon="5.03049">
        <ele>220.2</ele>
        <time>2022-06-25T08:12:19Z</time>
      </trkpt>
      <trkpt lat="46.58794" lon="5.03052">
        <ele>220.2</ele>
        <time>2022-06-25T08:12:20Z</time>
      </trkpt>
      <trkpt lat="46.58789" lon="5.03056">
        <ele>220.2</ele>
        <time>2022-06-25T08:12:21Z</time>
      </trkpt>
      <trkpt lat="46.58783" lon="5.03059">
        <ele>220.2</ele>
        <time>2022-06-25T08:12:22Z</time>
      </trkpt>
      <trkpt lat="46.58778" lon="5.03063">
        <ele>220.2</ele>
        <time>2022-06-25T08:12:23Z</time>
      </trkpt>
      <trkpt lat="46.58772" lon="5.03067">
        <ele>220.2</ele>
        <time>2022-06-25T08:12:24Z</time>
      </trkpt>
      <trkpt lat="46.58767" lon="5.03071">
        <ele>220.2</ele>
        <time>2022-06-25T08:12:25Z</time>
      </trkpt>
      <trkpt lat="46.58761" lon="5.03074">
        <ele>220.2</ele>
        <time>2022-06-25T08:12:26Z</time>
      </trkpt>
      <trkpt lat="46.58756" lon="5.03077">
        <ele>220.2</ele>
        <time>2022-06-25T08:12:27Z</time>
      </trkpt>
      <trkpt lat="46.5875" lon="5.03081">
        <ele>220.2</ele>
        <time>2022-06-25T08:12:28Z</time>
      </trkpt>
      <trkpt lat="46.58744" lon="5.03084">
        <ele>220.2</ele>
        <time>2022-06-25T08:12:29Z</time>
      </trkpt>
      <trkpt lat="46.58739" lon="5.03087">
        <ele>220.2</ele>
        <time>2022-06-25T08:12:30Z</time>
      </trkpt>
      <trkpt lat="46.58733" lon="5.0309">
        <ele>220.2</ele>
        <time>2022-06-25T08:12:31Z</time>
      </trkpt>
      <trkpt lat="46.58728" lon="5.03093">
        <ele>220.2</ele>
        <time>2022-06-25T08:12:32Z</time>
      </trkpt>
      <trkpt lat="46.58722" lon="5.03096">
        <ele>220.2</ele>
        <time>2022-06-25T08:12:33Z</time>
      </trkpt>
      <trkpt lat="46.58716" lon="5.03099">
        <ele>220.2</ele>
        <time>2022-06-25T08:12:34Z</time>
      </trkpt>
      <trkpt lat="46.5871" lon="5.03102">
        <ele>220.2</ele>
        <time>2022-06-25T08:12:35Z</time>
      </trkpt>
      <trkpt lat="46.58704" lon="5.03104">
        <ele>220.2</ele>
        <time>2022-06-25T08:12:36Z</time>
      </trkpt>
      <trkpt lat="46.58698" lon="5.03106">
        <ele>220.2</ele>
        <time>2022-06-25T08:12:37Z</time>
      </trkpt>
      <trkpt lat="46.58692" lon="5.03107">
        <ele>220.2</ele>
        <time>2022-06-25T08:12:38Z</time>
      </trkpt>
      <trkpt lat="46.58685" lon="5.03108">
        <ele>220.2</ele>
        <time>2022-06-25T08:12:39Z</time>
      </trkpt>
      <trkpt lat="46.58679" lon="5.03109">
        <ele>220.2</ele>
        <time>2022-06-25T08:12:41Z</time>
      </trkpt>
      <trkpt lat="46.58673" lon="5.03109">
        <ele>220.2</ele>
        <time>2022-06-25T08:12:42Z</time>
      </trkpt>
      <trkpt lat="46.58667" lon="5.03109">
        <ele>220.2</ele>
        <time>2022-06-25T08:12:43Z</time>
      </trkpt>
      <trkpt lat="46.58661" lon="5.03108">
        <ele>220.2</ele>
        <time>2022-06-25T08:12:44Z</time>
      </trkpt>
      <trkpt lat="46.58655" lon="5.03107">
        <ele>220.2</ele>
        <time>2022-06-25T08:12:45Z</time>
      </trkpt>
      <trkpt lat="46.58649" lon="5.03104">
        <ele>220.2</ele>
        <time>2022-06-25T08:12:46Z</time>
      </trkpt>
      <trkpt lat="46.58643" lon="5.03102">
        <ele>220.2</ele>
        <time>2022-06-25T08:12:47Z</time>
      </trkpt>
      <trkpt lat="46.58637" lon="5.03099">
        <ele>220.2</ele>
        <time>2022-06-25T08:12:48Z</time>
      </trkpt>
      <trkpt lat="46.58631" lon="5.03096">
        <ele>220.2</ele>
        <time>2022-06-25T08:12:49Z</time>
      </trkpt>
      <trkpt lat="46.58625" lon="5.03093">
        <ele>220.2</ele>
        <time>2022-06-25T08:12:50Z</time>
      </trkpt>
      <trkpt lat="46.5862" lon="5.0309">
        <ele>220.4</ele>
        <time>2022-06-25T08:12:51Z</time>
      </trkpt>
      <trkpt lat="46.58614" lon="5.03087">
        <ele>220.4</ele>
        <time>2022-06-25T08:12:52Z</time>
      </trkpt>
      <trkpt lat="46.58609" lon="5.03083">
        <ele>220.4</ele>
        <time>2022-06-25T08:12:53Z</time>
      </trkpt>
      <trkpt lat="46.58604" lon="5.0308">
        <ele>220.4</ele>
        <time>2022-06-25T08:12:54Z</time>
      </trkpt>
      <trkpt lat="46.58598" lon="5.03076">
        <ele>220.4</ele>
        <time>2022-06-25T08:12:55Z</time>
      </trkpt>
      <trkpt lat="46.58593" lon="5.03073">
        <ele>220.4</ele>
        <time>2022-06-25T08:12:56Z</time>
      </trkpt>
      <trkpt lat="46.58587" lon="5.0307">
        <ele>220.4</ele>
        <time>2022-06-25T08:12:57Z</time>
      </trkpt>
      <trkpt lat="46.58582" lon="5.03067">
        <ele>220.8</ele>
        <time>2022-06-25T08:12:58Z</time>
      </trkpt>
      <trkpt lat="46.58577" lon="5.03063">
        <ele>220.8</ele>
        <time>2022-06-25T08:12:59Z</time>
      </trkpt>
      <trkpt lat="46.58571" lon="5.0306">
        <ele>220.8</ele>
        <time>2022-06-25T08:13:00Z</time>
      </trkpt>
      <trkpt lat="46.58566" lon="5.03056">
        <ele>220.8</ele>
        <time>2022-06-25T08:13:01Z</time>
      </trkpt>
      <trkpt lat="46.5856" lon="5.03053">
        <ele>220.8</ele>
        <time>2022-06-25T08:13:02Z</time>
      </trkpt>
      <trkpt lat="46.58555" lon="5.0305">
        <ele>220.8</ele>
        <time>2022-06-25T08:13:03Z</time>
      </trkpt>
      <trkpt lat="46.58549" lon="5.03046">
        <ele>220.8</ele>
        <time>2022-06-25T08:13:04Z</time>
      </trkpt>
      <trkpt lat="46.58543" lon="5.03043">
        <ele>220.8</ele>
        <time>2022-06-25T08:13:05Z</time>
      </trkpt>
      <trkpt lat="46.58537" lon="5.03039">
        <ele>220.8</ele>
        <time>2022-06-25T08:13:06Z</time>
      </trkpt>
      <trkpt lat="46.58532" lon="5.03036">
        <ele>220.8</ele>
        <time>2022-06-25T08:13:07Z</time>
      </trkpt>
      <trkpt lat="46.58526" lon="5.03032">
        <ele>220.8</ele>
        <time>2022-06-25T08:13:08Z</time>
      </trkpt>
      <trkpt lat="46.5852" lon="5.03028">
        <ele>220.8</ele>
        <time>2022-06-25T08:13:09Z</time>
      </trkpt>
      <trkpt lat="46.58514" lon="5.03025">
        <ele>220.8</ele>
        <time>2022-06-25T08:13:10Z</time>
      </trkpt>
      <trkpt lat="46.58508" lon="5.03021">
        <ele>220.8</ele>
        <time>2022-06-25T08:13:11Z</time>
      </trkpt>
      <trkpt lat="46.58502" lon="5.03018">
        <ele>220.8</ele>
        <time>2022-06-25T08:13:12Z</time>
      </trkpt>
      <trkpt lat="46.58496" lon="5.03014">
        <ele>220.8</ele>
        <time>2022-06-25T08:13:13Z</time>
      </trkpt>
      <trkpt lat="46.58491" lon="5.03011">
        <ele>220.4</ele>
        <time>2022-06-25T08:13:14Z</time>
      </trkpt>
      <trkpt lat="46.58485" lon="5.03007">
        <ele>220.4</ele>
        <time>2022-06-25T08:13:15Z</time>
      </trkpt>
      <trkpt lat="46.58479" lon="5.03004">
        <ele>220.4</ele>
        <time>2022-06-25T08:13:16Z</time>
      </trkpt>
      <trkpt lat="46.58473" lon="5.03001">
        <ele>220.4</ele>
        <time>2022-06-25T08:13:17Z</time>
      </trkpt>
      <trkpt lat="46.58467" lon="5.02997">
        <ele>220.4</ele>
        <time>2022-06-25T08:13:18Z</time>
      </trkpt>
      <trkpt lat="46.58461" lon="5.02994">
        <ele>220.4</ele>
        <time>2022-06-25T08:13:19Z</time>
      </trkpt>
      <trkpt lat="46.58456" lon="5.02991">
        <ele>220.4</ele>
        <time>2022-06-25T08:13:20Z</time>
      </trkpt>
      <trkpt lat="46.5845" lon="5.02987">
        <ele>220.4</ele>
        <time>2022-06-25T08:13:21Z</time>
      </trkpt>
      <trkpt lat="46.58444" lon="5.02983">
        <ele>220.4</ele>
        <time>2022-06-25T08:13:22Z</time>
      </trkpt>
      <trkpt lat="46.58438" lon="5.02979">
        <ele>220.4</ele>
        <time>2022-06-25T08:13:23Z</time>
      </trkpt>
      <trkpt lat="46.58432" lon="5.02976">
        <ele>220.4</ele>
        <time>2022-06-25T08:13:24Z</time>
      </trkpt>
      <trkpt lat="46.58426" lon="5.02972">
        <ele>220.4</ele>
        <time>2022-06-25T08:13:25Z</time>
      </trkpt>
      <trkpt lat="46.5842" lon="5.02968">
        <ele>220.4</ele>
        <time>2022-06-25T08:13:26Z</time>
      </trkpt>
      <trkpt lat="46.58414" lon="5.02964">
        <ele>220.4</ele>
        <time>2022-06-25T08:13:27Z</time>
      </trkpt>
      <trkpt lat="46.58408" lon="5.0296">
        <ele>220.4</ele>
        <time>2022-06-25T08:13:28Z</time>
      </trkpt>
      <trkpt lat="46.58402" lon="5.02957">
        <ele>220.4</ele>
        <time>2022-06-25T08:13:29Z</time>
      </trkpt>
      <trkpt lat="46.58396" lon="5.02953">
        <ele>220.4</ele>
        <time>2022-06-25T08:13:30Z</time>
      </trkpt>
      <trkpt lat="46.5839" lon="5.0295">
        <ele>220.4</ele>
        <time>2022-06-25T08:13:31Z</time>
      </trkpt>
      <trkpt lat="46.58384" lon="5.02946">
        <ele>220.4</ele>
        <time>2022-06-25T08:13:32Z</time>
      </trkpt>
      <trkpt lat="46.58379" lon="5.02943">
        <ele>220.4</ele>
        <time>2022-06-25T08:13:33Z</time>
      </trkpt>
      <trkpt lat="46.58373" lon="5.02939">
        <ele>220.4</ele>
        <time>2022-06-25T08:13:34Z</time>
      </trkpt>
      <trkpt lat="46.58367" lon="5.02935">
        <ele>220.4</ele>
        <time>2022-06-25T08:13:35Z</time>
      </trkpt>
      <trkpt lat="46.58361" lon="5.02931">
        <ele>220.4</ele>
        <time>2022-06-25T08:13:36Z</time>
      </trkpt>
      <trkpt lat="46.58356" lon="5.02928">
        <ele>220.4</ele>
        <time>2022-06-25T08:13:37Z</time>
      </trkpt>
      <trkpt lat="46.5835" lon="5.02924">
        <ele>220.4</ele>
        <time>2022-06-25T08:13:38Z</time>
      </trkpt>
      <trkpt lat="46.58345" lon="5.02921">
        <ele>220.4</ele>
        <time>2022-06-25T08:13:39Z</time>
      </trkpt>
      <trkpt lat="46.58339" lon="5.02917">
        <ele>220.4</ele>
        <time>2022-06-25T08:13:40Z</time>
      </trkpt>
      <trkpt lat="46.58334" lon="5.02914">
        <ele>220.8</ele>
        <time>2022-06-25T08:13:41Z</time>
      </trkpt>
      <trkpt lat="46.58329" lon="5.0291">
        <ele>220.8</ele>
        <time>2022-06-25T08:13:42Z</time>
      </trkpt>
      <trkpt lat="46.58323" lon="5.02907">
        <ele>220.8</ele>
        <time>2022-06-25T08:13:43Z</time>
      </trkpt>
      <trkpt lat="46.58318" lon="5.02904">
        <ele>220.8</ele>
        <time>2022-06-25T08:13:44Z</time>
      </trkpt>
      <trkpt lat="46.58313" lon="5.029">
        <ele>221</ele>
        <time>2022-06-25T08:13:45Z</time>
      </trkpt>
      <trkpt lat="46.58308" lon="5.02896">
        <ele>221</ele>
        <time>2022-06-25T08:13:46Z</time>
      </trkpt>
      <trkpt lat="46.58303" lon="5.02891">
        <ele>221</ele>
        <time>2022-06-25T08:13:47Z</time>
      </trkpt>
      <trkpt lat="46.58298" lon="5.02887">
        <ele>221</ele>
        <time>2022-06-25T08:13:48Z</time>
      </trkpt>
      <trkpt lat="46.58294" lon="5.02882">
        <ele>221</ele>
        <time>2022-06-25T08:13:49Z</time>
      </trkpt>
      <trkpt lat="46.58289" lon="5.02877">
        <ele>221</ele>
        <time>2022-06-25T08:13:50Z</time>
      </trkpt>
      <trkpt lat="46.58285" lon="5.02872">
        <ele>221</ele>
        <time>2022-06-25T08:13:51Z</time>
      </trkpt>
      <trkpt lat="46.58281" lon="5.02867">
        <ele>221</ele>
        <time>2022-06-25T08:13:52Z</time>
      </trkpt>
      <trkpt lat="46.58278" lon="5.02861">
        <ele>221</ele>
        <time>2022-06-25T08:13:53Z</time>
      </trkpt>
      <trkpt lat="46.58274" lon="5.02855">
        <ele>221</ele>
        <time>2022-06-25T08:13:54Z</time>
      </trkpt>
      <trkpt lat="46.5827" lon="5.02848">
        <ele>221</ele>
        <time>2022-06-25T08:13:55Z</time>
      </trkpt>
      <trkpt lat="46.58266" lon="5.02842">
        <ele>221</ele>
        <time>2022-06-25T08:13:56Z</time>
      </trkpt>
      <trkpt lat="46.58262" lon="5.02836">
        <ele>221</ele>
        <time>2022-06-25T08:13:57Z</time>
      </trkpt>
      <trkpt lat="46.58258" lon="5.02829">
        <ele>220.8</ele>
        <time>2022-06-25T08:13:58Z</time>
      </trkpt>
      <trkpt lat="46.58254" lon="5.02822">
        <ele>220.8</ele>
        <time>2022-06-25T08:13:59Z</time>
      </trkpt>
      <trkpt lat="46.5825" lon="5.02815">
        <ele>220.6</ele>
        <time>2022-06-25T08:14:00Z</time>
      </trkpt>
      <trkpt lat="46.58245" lon="5.02808">
        <ele>220.6</ele>
        <time>2022-06-25T08:14:01Z</time>
      </trkpt>
      <trkpt lat="46.58241" lon="5.028">
        <ele>220.6</ele>
        <time>2022-06-25T08:14:02Z</time>
      </trkpt>
      <trkpt lat="46.58237" lon="5.02793">
        <ele>220.2</ele>
        <time>2022-06-25T08:14:03Z</time>
      </trkpt>
      <trkpt lat="46.58234" lon="5.02785">
        <ele>220.2</ele>
        <time>2022-06-25T08:14:04Z</time>
      </trkpt>
      <trkpt lat="46.5823" lon="5.02777">
        <ele>220.2</ele>
        <time>2022-06-25T08:14:05Z</time>
      </trkpt>
      <trkpt lat="46.58227" lon="5.02769">
        <ele>220.2</ele>
        <time>2022-06-25T08:14:06Z</time>
      </trkpt>
      <trkpt lat="46.58224" lon="5.02761">
        <ele>220</ele>
        <time>2022-06-25T08:14:07Z</time>
      </trkpt>
      <trkpt lat="46.5822" lon="5.02753">
        <ele>220</ele>
        <time>2022-06-25T08:14:08Z</time>
      </trkpt>
      <trkpt lat="46.58217" lon="5.02745">
        <ele>220</ele>
        <time>2022-06-25T08:14:09Z</time>
      </trkpt>
      <trkpt lat="46.58214" lon="5.02737">
        <ele>220.2</ele>
        <time>2022-06-25T08:14:10Z</time>
      </trkpt>
      <trkpt lat="46.58211" lon="5.02729">
        <ele>220.2</ele>
        <time>2022-06-25T08:14:11Z</time>
      </trkpt>
      <trkpt lat="46.58209" lon="5.02721">
        <ele>220.2</ele>
        <time>2022-06-25T08:14:12Z</time>
      </trkpt>
      <trkpt lat="46.58206" lon="5.02714">
        <ele>220.2</ele>
        <time>2022-06-25T08:14:13Z</time>
      </trkpt>
      <trkpt lat="46.58203" lon="5.02706">
        <ele>220.2</ele>
        <time>2022-06-25T08:14:14Z</time>
      </trkpt>
      <trkpt lat="46.58201" lon="5.02699">
        <ele>220.6</ele>
        <time>2022-06-25T08:14:15Z</time>
      </trkpt>
      <trkpt lat="46.58198" lon="5.02692">
        <ele>220.6</ele>
        <time>2022-06-25T08:14:16Z</time>
      </trkpt>
      <trkpt lat="46.58195" lon="5.02684">
        <ele>220.6</ele>
        <time>2022-06-25T08:14:17Z</time>
      </trkpt>
      <trkpt lat="46.58192" lon="5.02677">
        <ele>220.6</ele>
        <time>2022-06-25T08:14:18Z</time>
      </trkpt>
      <trkpt lat="46.5819" lon="5.0267">
        <ele>220.6</ele>
        <time>2022-06-25T08:14:19Z</time>
      </trkpt>
      <trkpt lat="46.58187" lon="5.02662">
        <ele>220.6</ele>
        <time>2022-06-25T08:14:20Z</time>
      </trkpt>
      <trkpt lat="46.58185" lon="5.02654">
        <ele>220.6</ele>
        <time>2022-06-25T08:14:21Z</time>
      </trkpt>
      <trkpt lat="46.58182" lon="5.02646">
        <ele>220.6</ele>
        <time>2022-06-25T08:14:22Z</time>
      </trkpt>
      <trkpt lat="46.58179" lon="5.02639">
        <ele>220.6</ele>
        <time>2022-06-25T08:14:23Z</time>
      </trkpt>
      <trkpt lat="46.58176" lon="5.02631">
        <ele>220.6</ele>
        <time>2022-06-25T08:14:24Z</time>
      </trkpt>
      <trkpt lat="46.58174" lon="5.02623">
        <ele>220.6</ele>
        <time>2022-06-25T08:14:25Z</time>
      </trkpt>
      <trkpt lat="46.58171" lon="5.02615">
        <ele>220.6</ele>
        <time>2022-06-25T08:14:26Z</time>
      </trkpt>
      <trkpt lat="46.58168" lon="5.02606">
        <ele>220.2</ele>
        <time>2022-06-25T08:14:27Z</time>
      </trkpt>
      <trkpt lat="46.58165" lon="5.02598">
        <ele>220.2</ele>
        <time>2022-06-25T08:14:28Z</time>
      </trkpt>
      <trkpt lat="46.58162" lon="5.02589">
        <ele>220</ele>
        <time>2022-06-25T08:14:29Z</time>
      </trkpt>
      <trkpt lat="46.58159" lon="5.02581">
        <ele>220</ele>
        <time>2022-06-25T08:14:30Z</time>
      </trkpt>
      <trkpt lat="46.58156" lon="5.02573">
        <ele>220</ele>
        <time>2022-06-25T08:14:31Z</time>
      </trkpt>
      <trkpt lat="46.58153" lon="5.02564">
        <ele>219.8</ele>
        <time>2022-06-25T08:14:32Z</time>
      </trkpt>
      <trkpt lat="46.5815" lon="5.02556">
        <ele>219.8</ele>
        <time>2022-06-25T08:14:33Z</time>
      </trkpt>
      <trkpt lat="46.58147" lon="5.02547">
        <ele>219.8</ele>
        <time>2022-06-25T08:14:34Z</time>
      </trkpt>
      <trkpt lat="46.58144" lon="5.02539">
        <ele>219.4</ele>
        <time>2022-06-25T08:14:35Z</time>
      </trkpt>
      <trkpt lat="46.58141" lon="5.0253">
        <ele>219</ele>
        <time>2022-06-25T08:14:36Z</time>
      </trkpt>
      <trkpt lat="46.58138" lon="5.0252">
        <ele>218.8</ele>
        <time>2022-06-25T08:14:37Z</time>
      </trkpt>
      <trkpt lat="46.58134" lon="5.0251">
        <ele>218.6</ele>
        <time>2022-06-25T08:14:38Z</time>
      </trkpt>
      <trkpt lat="46.58131" lon="5.025">
        <ele>218.4</ele>
        <time>2022-06-25T08:14:39Z</time>
      </trkpt>
      <trkpt lat="46.58128" lon="5.0249">
        <ele>218</ele>
        <time>2022-06-25T08:14:40Z</time>
      </trkpt>
      <trkpt lat="46.58124" lon="5.0248">
        <ele>217.8</ele>
        <time>2022-06-25T08:14:41Z</time>
      </trkpt>
      <trkpt lat="46.58121" lon="5.0247">
        <ele>217.6</ele>
        <time>2022-06-25T08:14:42Z</time>
      </trkpt>
      <trkpt lat="46.58117" lon="5.02459">
        <ele>217.2</ele>
        <time>2022-06-25T08:14:43Z</time>
      </trkpt>
      <trkpt lat="46.58113" lon="5.02448">
        <ele>217</ele>
        <time>2022-06-25T08:14:44Z</time>
      </trkpt>
      <trkpt lat="46.5811" lon="5.02436">
        <ele>216.6</ele>
        <time>2022-06-25T08:14:45Z</time>
      </trkpt>
      <trkpt lat="46.58106" lon="5.02425">
        <ele>216.2</ele>
        <time>2022-06-25T08:14:46Z</time>
      </trkpt>
      <trkpt lat="46.58102" lon="5.02413">
        <ele>215.8</ele>
        <time>2022-06-25T08:14:47Z</time>
      </trkpt>
      <trkpt lat="46.58097" lon="5.02402">
        <ele>215.4</ele>
        <time>2022-06-25T08:14:48Z</time>
      </trkpt>
      <trkpt lat="46.58093" lon="5.02389">
        <ele>215</ele>
        <time>2022-06-25T08:14:49Z</time>
      </trkpt>
      <trkpt lat="46.58088" lon="5.02376">
        <ele>214.6</ele>
        <time>2022-06-25T08:14:50Z</time>
      </trkpt>
      <trkpt lat="46.58083" lon="5.02363">
        <ele>214.2</ele>
        <time>2022-06-25T08:14:51Z</time>
      </trkpt>
      <trkpt lat="46.58079" lon="5.02349">
        <ele>213.6</ele>
        <time>2022-06-25T08:14:52Z</time>
      </trkpt>
      <trkpt lat="46.58075" lon="5.02335">
        <ele>213</ele>
        <time>2022-06-25T08:14:53Z</time>
      </trkpt>
      <trkpt lat="46.5807" lon="5.02322">
        <ele>212.4</ele>
        <time>2022-06-25T08:14:54Z</time>
      </trkpt>
      <trkpt lat="46.58066" lon="5.02306">
        <ele>211.6</ele>
        <time>2022-06-25T08:14:55Z</time>
      </trkpt>
      <trkpt lat="46.58062" lon="5.02291">
        <ele>210.8</ele>
        <time>2022-06-25T08:14:56Z</time>
      </trkpt>
      <trkpt lat="46.58057" lon="5.02276">
        <ele>210.2</ele>
        <time>2022-06-25T08:14:57Z</time>
      </trkpt>
      <trkpt lat="46.58051" lon="5.02262">
        <ele>209.4</ele>
        <time>2022-06-25T08:14:58Z</time>
      </trkpt>
      <trkpt lat="46.58046" lon="5.02245">
        <ele>208.8</ele>
        <time>2022-06-25T08:14:59Z</time>
      </trkpt>
      <trkpt lat="46.58041" lon="5.02229">
        <ele>208.2</ele>
        <time>2022-06-25T08:15:00Z</time>
      </trkpt>
      <trkpt lat="46.58035" lon="5.02213">
        <ele>207.6</ele>
        <time>2022-06-25T08:15:01Z</time>
      </trkpt>
      <trkpt lat="46.58031" lon="5.02197">
        <ele>207</ele>
        <time>2022-06-25T08:15:02Z</time>
      </trkpt>
      <trkpt lat="46.58025" lon="5.0218">
        <ele>206.2</ele>
        <time>2022-06-25T08:15:03Z</time>
      </trkpt>
      <trkpt lat="46.58019" lon="5.02165">
        <ele>205.2</ele>
        <time>2022-06-25T08:15:04Z</time>
      </trkpt>
      <trkpt lat="46.58014" lon="5.02148">
        <ele>204.4</ele>
        <time>2022-06-25T08:15:05Z</time>
      </trkpt>
      <trkpt lat="46.58007" lon="5.02131">
        <ele>203.6</ele>
        <time>2022-06-25T08:15:06Z</time>
      </trkpt>
      <trkpt lat="46.58002" lon="5.02114">
        <ele>202.6</ele>
        <time>2022-06-25T08:15:07Z</time>
      </trkpt>
      <trkpt lat="46.57996" lon="5.02097">
        <ele>201.4</ele>
        <time>2022-06-25T08:15:08Z</time>
      </trkpt>
      <trkpt lat="46.5799" lon="5.0208">
        <ele>200.4</ele>
        <time>2022-06-25T08:15:09Z</time>
      </trkpt>
      <trkpt lat="46.57985" lon="5.02063">
        <ele>199.4</ele>
        <time>2022-06-25T08:15:10Z</time>
      </trkpt>
      <trkpt lat="46.57979" lon="5.02044">
        <ele>198.4</ele>
        <time>2022-06-25T08:15:11Z</time>
      </trkpt>
      <trkpt lat="46.57973" lon="5.02027">
        <ele>197.4</ele>
        <time>2022-06-25T08:15:12Z</time>
      </trkpt>
      <trkpt lat="46.57967" lon="5.0201">
        <ele>196.4</ele>
        <time>2022-06-25T08:15:13Z</time>
      </trkpt>
      <trkpt lat="46.57961" lon="5.01991">
        <ele>195.8</ele>
        <time>2022-06-25T08:15:14Z</time>
      </trkpt>
      <trkpt lat="46.57954" lon="5.01974">
        <ele>195</ele>
        <time>2022-06-25T08:15:15Z</time>
      </trkpt>
      <trkpt lat="46.57948" lon="5.01955">
        <ele>194.4</ele>
        <time>2022-06-25T08:15:16Z</time>
      </trkpt>
      <trkpt lat="46.57943" lon="5.01939">
        <ele>194</ele>
        <time>2022-06-25T08:15:17Z</time>
      </trkpt>
      <trkpt lat="46.57938" lon="5.01921">
        <ele>193.4</ele>
        <time>2022-06-25T08:15:18Z</time>
      </trkpt>
      <trkpt lat="46.57933" lon="5.01903">
        <ele>193</ele>
        <time>2022-06-25T08:15:19Z</time>
      </trkpt>
      <trkpt lat="46.57927" lon="5.01888">
        <ele>192.4</ele>
        <time>2022-06-25T08:15:20Z</time>
      </trkpt>
      <trkpt lat="46.57922" lon="5.01871">
        <ele>191.8</ele>
        <time>2022-06-25T08:15:21Z</time>
      </trkpt>
      <trkpt lat="46.57917" lon="5.01854">
        <ele>191.4</ele>
        <time>2022-06-25T08:15:22Z</time>
      </trkpt>
      <trkpt lat="46.57912" lon="5.01838">
        <ele>191</ele>
        <time>2022-06-25T08:15:23Z</time>
      </trkpt>
      <trkpt lat="46.57907" lon="5.01822">
        <ele>190.6</ele>
        <time>2022-06-25T08:15:24Z</time>
      </trkpt>
      <trkpt lat="46.57902" lon="5.01806">
        <ele>190.4</ele>
        <time>2022-06-25T08:15:25Z</time>
      </trkpt>
      <trkpt lat="46.57897" lon="5.01791">
        <ele>190</ele>
        <time>2022-06-25T08:15:26Z</time>
      </trkpt>
      <trkpt lat="46.57892" lon="5.01776">
        <ele>189.6</ele>
        <time>2022-06-25T08:15:27Z</time>
      </trkpt>
      <trkpt lat="46.57888" lon="5.01762">
        <ele>189.4</ele>
        <time>2022-06-25T08:15:28Z</time>
      </trkpt>
      <trkpt lat="46.57882" lon="5.01748">
        <ele>189</ele>
        <time>2022-06-25T08:15:29Z</time>
      </trkpt>
      <trkpt lat="46.57877" lon="5.01733">
        <ele>188.8</ele>
        <time>2022-06-25T08:15:30Z</time>
      </trkpt>
      <trkpt lat="46.57874" lon="5.01719">
        <ele>188.4</ele>
        <time>2022-06-25T08:15:31Z</time>
      </trkpt>
      <trkpt lat="46.57864" lon="5.01689">
        <ele>188.2</ele>
        <time>2022-06-25T08:15:32Z</time>
      </trkpt>
      <trkpt lat="46.57859" lon="5.01675">
        <ele>188.2</ele>
        <time>2022-06-25T08:15:33Z</time>
      </trkpt>
      <trkpt lat="46.57855" lon="5.01662">
        <ele>188.2</ele>
        <time>2022-06-25T08:15:34Z</time>
      </trkpt>
      <trkpt lat="46.57851" lon="5.0165">
        <ele>188.2</ele>
        <time>2022-06-25T08:15:35Z</time>
      </trkpt>
      <trkpt lat="46.57846" lon="5.01638">
        <ele>188</ele>
        <time>2022-06-25T08:15:36Z</time>
      </trkpt>
      <trkpt lat="46.57842" lon="5.01626">
        <ele>187.6</ele>
        <time>2022-06-25T08:15:37Z</time>
      </trkpt>
      <trkpt lat="46.57838" lon="5.01614">
        <ele>187.6</ele>
        <time>2022-06-25T08:15:38Z</time>
      </trkpt>
      <trkpt lat="46.57834" lon="5.01601">
        <ele>187.4</ele>
        <time>2022-06-25T08:15:39Z</time>
      </trkpt>
      <trkpt lat="46.5783" lon="5.01588">
        <ele>187.4</ele>
        <time>2022-06-25T08:15:40Z</time>
      </trkpt>
      <trkpt lat="46.57826" lon="5.01576">
        <ele>187.4</ele>
        <time>2022-06-25T08:15:41Z</time>
      </trkpt>
      <trkpt lat="46.57822" lon="5.01564">
        <ele>187.2</ele>
        <time>2022-06-25T08:15:42Z</time>
      </trkpt>
      <trkpt lat="46.57818" lon="5.01553">
        <ele>187.2</ele>
        <time>2022-06-25T08:15:43Z</time>
      </trkpt>
      <trkpt lat="46.57814" lon="5.01542">
        <ele>187.2</ele>
        <time>2022-06-25T08:15:44Z</time>
      </trkpt>
      <trkpt lat="46.57811" lon="5.01531">
        <ele>186.8</ele>
        <time>2022-06-25T08:15:45Z</time>
      </trkpt>
      <trkpt lat="46.57807" lon="5.0152">
        <ele>186.8</ele>
        <time>2022-06-25T08:15:46Z</time>
      </trkpt>
      <trkpt lat="46.57803" lon="5.01509">
        <ele>186.6</ele>
        <time>2022-06-25T08:15:47Z</time>
      </trkpt>
      <trkpt lat="46.578" lon="5.01499">
        <ele>186.6</ele>
        <time>2022-06-25T08:15:48Z</time>
      </trkpt>
      <trkpt lat="46.57797" lon="5.01488">
        <ele>186.6</ele>
        <time>2022-06-25T08:15:49Z</time>
      </trkpt>
      <trkpt lat="46.57793" lon="5.01477">
        <ele>186.4</ele>
        <time>2022-06-25T08:15:50Z</time>
      </trkpt>
      <trkpt lat="46.5779" lon="5.01467">
        <ele>186.4</ele>
        <time>2022-06-25T08:15:51Z</time>
      </trkpt>
      <trkpt lat="46.57787" lon="5.01457">
        <ele>186.4</ele>
        <time>2022-06-25T08:15:52Z</time>
      </trkpt>
      <trkpt lat="46.57784" lon="5.01447">
        <ele>186.4</ele>
        <time>2022-06-25T08:15:53Z</time>
      </trkpt>
      <trkpt lat="46.57781" lon="5.01437">
        <ele>186.4</ele>
        <time>2022-06-25T08:15:54Z</time>
      </trkpt>
      <trkpt lat="46.57778" lon="5.01427">
        <ele>186.4</ele>
        <time>2022-06-25T08:15:55Z</time>
      </trkpt>
      <trkpt lat="46.57775" lon="5.01417">
        <ele>186.4</ele>
        <time>2022-06-25T08:15:56Z</time>
      </trkpt>
      <trkpt lat="46.57772" lon="5.01407">
        <ele>186.4</ele>
        <time>2022-06-25T08:15:57Z</time>
      </trkpt>
      <trkpt lat="46.57769" lon="5.01397">
        <ele>186.4</ele>
        <time>2022-06-25T08:15:58Z</time>
      </trkpt>
      <trkpt lat="46.57767" lon="5.01388">
        <ele>186.4</ele>
        <time>2022-06-25T08:15:59Z</time>
      </trkpt>
      <trkpt lat="46.57764" lon="5.01378">
        <ele>186.4</ele>
        <time>2022-06-25T08:16:00Z</time>
      </trkpt>
      <trkpt lat="46.57762" lon="5.01369">
        <ele>186.4</ele>
        <time>2022-06-25T08:16:01Z</time>
      </trkpt>
      <trkpt lat="46.5776" lon="5.01359">
        <ele>186.4</ele>
        <time>2022-06-25T08:16:02Z</time>
      </trkpt>
      <trkpt lat="46.57758" lon="5.01349">
        <ele>186.2</ele>
        <time>2022-06-25T08:16:03Z</time>
      </trkpt>
      <trkpt lat="46.57757" lon="5.01339">
        <ele>186.2</ele>
        <time>2022-06-25T08:16:04Z</time>
      </trkpt>
      <trkpt lat="46.57755" lon="5.01329">
        <ele>186.2</ele>
        <time>2022-06-25T08:16:05Z</time>
      </trkpt>
      <trkpt lat="46.57753" lon="5.0132">
        <ele>186.2</ele>
        <time>2022-06-25T08:16:06Z</time>
      </trkpt>
      <trkpt lat="46.57752" lon="5.0131">
        <ele>186.2</ele>
        <time>2022-06-25T08:16:07Z</time>
      </trkpt>
      <trkpt lat="46.5775" lon="5.013">
        <ele>186.2</ele>
        <time>2022-06-25T08:16:08Z</time>
      </trkpt>
      <trkpt lat="46.57748" lon="5.0129">
        <ele>186.2</ele>
        <time>2022-06-25T08:16:09Z</time>
      </trkpt>
      <trkpt lat="46.57747" lon="5.01281">
        <ele>186.2</ele>
        <time>2022-06-25T08:16:10Z</time>
      </trkpt>
      <trkpt lat="46.57745" lon="5.01272">
        <ele>186.4</ele>
        <time>2022-06-25T08:16:11Z</time>
      </trkpt>
      <trkpt lat="46.57743" lon="5.01262">
        <ele>186.4</ele>
        <time>2022-06-25T08:16:12Z</time>
      </trkpt>
      <trkpt lat="46.57741" lon="5.01253">
        <ele>186.4</ele>
        <time>2022-06-25T08:16:13Z</time>
      </trkpt>
      <trkpt lat="46.5774" lon="5.01243">
        <ele>186.4</ele>
        <time>2022-06-25T08:16:14Z</time>
      </trkpt>
      <trkpt lat="46.57738" lon="5.01234">
        <ele>186.4</ele>
        <time>2022-06-25T08:16:15Z</time>
      </trkpt>
      <trkpt lat="46.57736" lon="5.01224">
        <ele>186.4</ele>
        <time>2022-06-25T08:16:16Z</time>
      </trkpt>
      <trkpt lat="46.57735" lon="5.01215">
        <ele>186.4</ele>
        <time>2022-06-25T08:16:17Z</time>
      </trkpt>
      <trkpt lat="46.57733" lon="5.01205">
        <ele>186.4</ele>
        <time>2022-06-25T08:16:18Z</time>
      </trkpt>
      <trkpt lat="46.57731" lon="5.01195">
        <ele>186.4</ele>
        <time>2022-06-25T08:16:19Z</time>
      </trkpt>
      <trkpt lat="46.57729" lon="5.01186">
        <ele>186.4</ele>
        <time>2022-06-25T08:16:20Z</time>
      </trkpt>
      <trkpt lat="46.57727" lon="5.01176">
        <ele>186.4</ele>
        <time>2022-06-25T08:16:21Z</time>
      </trkpt>
      <trkpt lat="46.57726" lon="5.01167">
        <ele>186.4</ele>
        <time>2022-06-25T08:16:22Z</time>
      </trkpt>
      <trkpt lat="46.57724" lon="5.01157">
        <ele>186.6</ele>
        <time>2022-06-25T08:16:23Z</time>
      </trkpt>
      <trkpt lat="46.57722" lon="5.01147">
        <ele>186.6</ele>
        <time>2022-06-25T08:16:24Z</time>
      </trkpt>
      <trkpt lat="46.5772" lon="5.01138">
        <ele>186.6</ele>
        <time>2022-06-25T08:16:25Z</time>
      </trkpt>
      <trkpt lat="46.57719" lon="5.01129">
        <ele>186.6</ele>
        <time>2022-06-25T08:16:26Z</time>
      </trkpt>
      <trkpt lat="46.57717" lon="5.01119">
        <ele>186.6</ele>
        <time>2022-06-25T08:16:27Z</time>
      </trkpt>
      <trkpt lat="46.57715" lon="5.0111">
        <ele>186.6</ele>
        <time>2022-06-25T08:16:28Z</time>
      </trkpt>
      <trkpt lat="46.57714" lon="5.011">
        <ele>186.6</ele>
        <time>2022-06-25T08:16:29Z</time>
      </trkpt>
      <trkpt lat="46.57712" lon="5.0109">
        <ele>186.6</ele>
        <time>2022-06-25T08:16:30Z</time>
      </trkpt>
      <trkpt lat="46.5771" lon="5.01081">
        <ele>186.6</ele>
        <time>2022-06-25T08:16:31Z</time>
      </trkpt>
      <trkpt lat="46.57708" lon="5.01071">
        <ele>186.6</ele>
        <time>2022-06-25T08:16:32Z</time>
      </trkpt>
      <trkpt lat="46.57706" lon="5.01061">
        <ele>186.6</ele>
        <time>2022-06-25T08:16:33Z</time>
      </trkpt>
      <trkpt lat="46.57704" lon="5.01051">
        <ele>186.6</ele>
        <time>2022-06-25T08:16:34Z</time>
      </trkpt>
      <trkpt lat="46.57702" lon="5.01042">
        <ele>186.6</ele>
        <time>2022-06-25T08:16:35Z</time>
      </trkpt>
      <trkpt lat="46.57701" lon="5.01032">
        <ele>186.6</ele>
        <time>2022-06-25T08:16:36Z</time>
      </trkpt>
      <trkpt lat="46.57699" lon="5.01022">
        <ele>186.6</ele>
        <time>2022-06-25T08:16:37Z</time>
      </trkpt>
      <trkpt lat="46.57697" lon="5.01012">
        <ele>186.6</ele>
        <time>2022-06-25T08:16:38Z</time>
      </trkpt>
      <trkpt lat="46.57695" lon="5.01003">
        <ele>186.6</ele>
        <time>2022-06-25T08:16:39Z</time>
      </trkpt>
      <trkpt lat="46.57694" lon="5.00993">
        <ele>186.6</ele>
        <time>2022-06-25T08:16:40Z</time>
      </trkpt>
      <trkpt lat="46.57692" lon="5.00983">
        <ele>186.6</ele>
        <time>2022-06-25T08:16:41Z</time>
      </trkpt>
      <trkpt lat="46.5769" lon="5.00973">
        <ele>186.6</ele>
        <time>2022-06-25T08:16:42Z</time>
      </trkpt>
      <trkpt lat="46.57688" lon="5.00963">
        <ele>186.6</ele>
        <time>2022-06-25T08:16:43Z</time>
      </trkpt>
      <trkpt lat="46.57686" lon="5.00954">
        <ele>186.4</ele>
        <time>2022-06-25T08:16:44Z</time>
      </trkpt>
      <trkpt lat="46.57685" lon="5.00944">
        <ele>186.4</ele>
        <time>2022-06-25T08:16:45Z</time>
      </trkpt>
      <trkpt lat="46.57683" lon="5.00934">
        <ele>186.4</ele>
        <time>2022-06-25T08:16:46Z</time>
      </trkpt>
      <trkpt lat="46.57681" lon="5.00924">
        <ele>186.4</ele>
        <time>2022-06-25T08:16:47Z</time>
      </trkpt>
      <trkpt lat="46.57679" lon="5.00914">
        <ele>186.2</ele>
        <time>2022-06-25T08:16:48Z</time>
      </trkpt>
      <trkpt lat="46.57677" lon="5.00904">
        <ele>186.2</ele>
        <time>2022-06-25T08:16:49Z</time>
      </trkpt>
      <trkpt lat="46.57675" lon="5.00894">
        <ele>186.2</ele>
        <time>2022-06-25T08:16:50Z</time>
      </trkpt>
      <trkpt lat="46.57673" lon="5.00884">
        <ele>186.2</ele>
        <time>2022-06-25T08:16:51Z</time>
      </trkpt>
      <trkpt lat="46.57671" lon="5.00874">
        <ele>186.2</ele>
        <time>2022-06-25T08:16:52Z</time>
      </trkpt>
      <trkpt lat="46.5767" lon="5.00864">
        <ele>186.2</ele>
        <time>2022-06-25T08:16:53Z</time>
      </trkpt>
      <trkpt lat="46.57668" lon="5.00854">
        <ele>186</ele>
        <time>2022-06-25T08:16:54Z</time>
      </trkpt>
      <trkpt lat="46.57666" lon="5.00844">
        <ele>186</ele>
        <time>2022-06-25T08:16:55Z</time>
      </trkpt>
      <trkpt lat="46.57664" lon="5.00835">
        <ele>186</ele>
        <time>2022-06-25T08:16:56Z</time>
      </trkpt>
      <trkpt lat="46.57662" lon="5.00825">
        <ele>185.6</ele>
        <time>2022-06-25T08:16:57Z</time>
      </trkpt>
      <trkpt lat="46.57661" lon="5.0082">
        <ele>185.6</ele>
        <time>2022-06-25T08:16:58Z</time>
      </trkpt>
      <trkpt lat="46.5766" lon="5.00815">
        <ele>185.6</ele>
        <time>2022-06-25T08:16:59Z</time>
      </trkpt>
      <trkpt lat="46.57658" lon="5.00806">
        <ele>185.6</ele>
        <time>2022-06-25T08:17:00Z</time>
      </trkpt>
      <trkpt lat="46.57656" lon="5.00796">
        <ele>185.6</ele>
        <time>2022-06-25T08:17:01Z</time>
      </trkpt>
      <trkpt lat="46.57653" lon="5.00787">
        <ele>185.6</ele>
        <time>2022-06-25T08:17:02Z</time>
      </trkpt>
      <trkpt lat="46.57651" lon="5.00777">
        <ele>185.6</ele>
        <time>2022-06-25T08:17:03Z</time>
      </trkpt>
      <trkpt lat="46.57648" lon="5.00768">
        <ele>185.6</ele>
        <time>2022-06-25T08:17:04Z</time>
      </trkpt>
      <trkpt lat="46.57645" lon="5.00759">
        <ele>185.6</ele>
        <time>2022-06-25T08:17:05Z</time>
      </trkpt>
      <trkpt lat="46.57642" lon="5.0075">
        <ele>185.6</ele>
        <time>2022-06-25T08:17:06Z</time>
      </trkpt>
      <trkpt lat="46.57639" lon="5.00741">
        <ele>185.6</ele>
        <time>2022-06-25T08:17:07Z</time>
      </trkpt>
      <trkpt lat="46.57636" lon="5.00732">
        <ele>185.6</ele>
        <time>2022-06-25T08:17:08Z</time>
      </trkpt>
      <trkpt lat="46.57633" lon="5.00723">
        <ele>185.8</ele>
        <time>2022-06-25T08:17:09Z</time>
      </trkpt>
      <trkpt lat="46.5763" lon="5.00714">
        <ele>185.8</ele>
        <time>2022-06-25T08:17:10Z</time>
      </trkpt>
      <trkpt lat="46.57627" lon="5.00705">
        <ele>185.8</ele>
        <time>2022-06-25T08:17:11Z</time>
      </trkpt>
      <trkpt lat="46.57623" lon="5.00696">
        <ele>185.8</ele>
        <time>2022-06-25T08:17:12Z</time>
      </trkpt>
      <trkpt lat="46.5762" lon="5.00687">
        <ele>185.6</ele>
        <time>2022-06-25T08:17:13Z</time>
      </trkpt>
      <trkpt lat="46.57617" lon="5.00678">
        <ele>185.6</ele>
        <time>2022-06-25T08:17:14Z</time>
      </trkpt>
      <trkpt lat="46.57613" lon="5.00669">
        <ele>185.6</ele>
        <time>2022-06-25T08:17:15Z</time>
      </trkpt>
      <trkpt lat="46.5761" lon="5.0066">
        <ele>185.6</ele>
        <time>2022-06-25T08:17:16Z</time>
      </trkpt>
      <trkpt lat="46.57607" lon="5.00651">
        <ele>185.6</ele>
        <time>2022-06-25T08:17:17Z</time>
      </trkpt>
      <trkpt lat="46.57604" lon="5.00642">
        <ele>185.6</ele>
        <time>2022-06-25T08:17:18Z</time>
      </trkpt>
      <trkpt lat="46.576" lon="5.00633">
        <ele>185.6</ele>
        <time>2022-06-25T08:17:19Z</time>
      </trkpt>
      <trkpt lat="46.57594" lon="5.00615">
        <ele>185.6</ele>
        <time>2022-06-25T08:17:20Z</time>
      </trkpt>
      <trkpt lat="46.5759" lon="5.00606">
        <ele>185.6</ele>
        <time>2022-06-25T08:17:21Z</time>
      </trkpt>
      <trkpt lat="46.57587" lon="5.00597">
        <ele>185.6</ele>
        <time>2022-06-25T08:17:22Z</time>
      </trkpt>
      <trkpt lat="46.57584" lon="5.00588">
        <ele>185.6</ele>
        <time>2022-06-25T08:17:23Z</time>
      </trkpt>
      <trkpt lat="46.5758" lon="5.00579">
        <ele>185.6</ele>
        <time>2022-06-25T08:17:24Z</time>
      </trkpt>
      <trkpt lat="46.57577" lon="5.0057">
        <ele>185.6</ele>
        <time>2022-06-25T08:17:25Z</time>
      </trkpt>
      <trkpt lat="46.57575" lon="5.00561">
        <ele>185.6</ele>
        <time>2022-06-25T08:17:26Z</time>
      </trkpt>
      <trkpt lat="46.57572" lon="5.00552">
        <ele>185.6</ele>
        <time>2022-06-25T08:17:27Z</time>
      </trkpt>
      <trkpt lat="46.57569" lon="5.00543">
        <ele>185.6</ele>
        <time>2022-06-25T08:17:28Z</time>
      </trkpt>
      <trkpt lat="46.57566" lon="5.00534">
        <ele>185.6</ele>
        <time>2022-06-25T08:17:29Z</time>
      </trkpt>
      <trkpt lat="46.57564" lon="5.00525">
        <ele>185.6</ele>
        <time>2022-06-25T08:17:30Z</time>
      </trkpt>
      <trkpt lat="46.57561" lon="5.00515">
        <ele>185.6</ele>
        <time>2022-06-25T08:17:31Z</time>
      </trkpt>
      <trkpt lat="46.57559" lon="5.00506">
        <ele>185.6</ele>
        <time>2022-06-25T08:17:32Z</time>
      </trkpt>
      <trkpt lat="46.57556" lon="5.00497">
        <ele>185.8</ele>
        <time>2022-06-25T08:17:33Z</time>
      </trkpt>
      <trkpt lat="46.57554" lon="5.00488">
        <ele>185.8</ele>
        <time>2022-06-25T08:17:34Z</time>
      </trkpt>
      <trkpt lat="46.57552" lon="5.00478">
        <ele>185.8</ele>
        <time>2022-06-25T08:17:35Z</time>
      </trkpt>
      <trkpt lat="46.5755" lon="5.00469">
        <ele>185.8</ele>
        <time>2022-06-25T08:17:36Z</time>
      </trkpt>
      <trkpt lat="46.57547" lon="5.00459">
        <ele>185.8</ele>
        <time>2022-06-25T08:17:37Z</time>
      </trkpt>
      <trkpt lat="46.57545" lon="5.0045">
        <ele>185.8</ele>
        <time>2022-06-25T08:17:38Z</time>
      </trkpt>
      <trkpt lat="46.57542" lon="5.00441">
        <ele>185.8</ele>
        <time>2022-06-25T08:17:39Z</time>
      </trkpt>
      <trkpt lat="46.5754" lon="5.00432">
        <ele>185.8</ele>
        <time>2022-06-25T08:17:40Z</time>
      </trkpt>
      <trkpt lat="46.57538" lon="5.00423">
        <ele>185.8</ele>
        <time>2022-06-25T08:17:41Z</time>
      </trkpt>
      <trkpt lat="46.57535" lon="5.00414">
        <ele>185.8</ele>
        <time>2022-06-25T08:17:42Z</time>
      </trkpt>
      <trkpt lat="46.57533" lon="5.00404">
        <ele>185.8</ele>
        <time>2022-06-25T08:17:43Z</time>
      </trkpt>
      <trkpt lat="46.57531" lon="5.00395">
        <ele>185.8</ele>
        <time>2022-06-25T08:17:44Z</time>
      </trkpt>
      <trkpt lat="46.57529" lon="5.00386">
        <ele>185.8</ele>
        <time>2022-06-25T08:17:45Z</time>
      </trkpt>
      <trkpt lat="46.57526" lon="5.00377">
        <ele>185.8</ele>
        <time>2022-06-25T08:17:46Z</time>
      </trkpt>
      <trkpt lat="46.57524" lon="5.00368">
        <ele>185.8</ele>
        <time>2022-06-25T08:17:47Z</time>
      </trkpt>
      <trkpt lat="46.57522" lon="5.00358">
        <ele>185.8</ele>
        <time>2022-06-25T08:17:48Z</time>
      </trkpt>
      <trkpt lat="46.5752" lon="5.00349">
        <ele>185.8</ele>
        <time>2022-06-25T08:17:49Z</time>
      </trkpt>
      <trkpt lat="46.57517" lon="5.0034">
        <ele>185.8</ele>
        <time>2022-06-25T08:17:50Z</time>
      </trkpt>
      <trkpt lat="46.57515" lon="5.00331">
        <ele>185.8</ele>
        <time>2022-06-25T08:17:51Z</time>
      </trkpt>
      <trkpt lat="46.57512" lon="5.00323">
        <ele>185.8</ele>
        <time>2022-06-25T08:17:52Z</time>
      </trkpt>
      <trkpt lat="46.57509" lon="5.00314">
        <ele>185.8</ele>
        <time>2022-06-25T08:17:53Z</time>
      </trkpt>
      <trkpt lat="46.57506" lon="5.00305">
        <ele>185.8</ele>
        <time>2022-06-25T08:17:54Z</time>
      </trkpt>
      <trkpt lat="46.57502" lon="5.00297">
        <ele>186</ele>
        <time>2022-06-25T08:17:55Z</time>
      </trkpt>
      <trkpt lat="46.57498" lon="5.00289">
        <ele>186</ele>
        <time>2022-06-25T08:17:56Z</time>
      </trkpt>
      <trkpt lat="46.57494" lon="5.00281">
        <ele>186</ele>
        <time>2022-06-25T08:17:57Z</time>
      </trkpt>
      <trkpt lat="46.5749" lon="5.00274">
        <ele>186</ele>
        <time>2022-06-25T08:17:58Z</time>
      </trkpt>
      <trkpt lat="46.57486" lon="5.00267">
        <ele>186</ele>
        <time>2022-06-25T08:17:59Z</time>
      </trkpt>
      <trkpt lat="46.57481" lon="5.0026">
        <ele>186</ele>
        <time>2022-06-25T08:18:00Z</time>
      </trkpt>
      <trkpt lat="46.57476" lon="5.00253">
        <ele>186</ele>
        <time>2022-06-25T08:18:01Z</time>
      </trkpt>
      <trkpt lat="46.57471" lon="5.00246">
        <ele>186</ele>
        <time>2022-06-25T08:18:02Z</time>
      </trkpt>
      <trkpt lat="46.57467" lon="5.00239">
        <ele>186</ele>
        <time>2022-06-25T08:18:03Z</time>
      </trkpt>
      <trkpt lat="46.57462" lon="5.00233">
        <ele>186</ele>
        <time>2022-06-25T08:18:04Z</time>
      </trkpt>
      <trkpt lat="46.57457" lon="5.00226">
        <ele>186</ele>
        <time>2022-06-25T08:18:05Z</time>
      </trkpt>
      <trkpt lat="46.57453" lon="5.00219">
        <ele>186</ele>
        <time>2022-06-25T08:18:06Z</time>
      </trkpt>
      <trkpt lat="46.57448" lon="5.00212">
        <ele>186</ele>
        <time>2022-06-25T08:18:07Z</time>
      </trkpt>
      <trkpt lat="46.57443" lon="5.00206">
        <ele>186</ele>
        <time>2022-06-25T08:18:08Z</time>
      </trkpt>
      <trkpt lat="46.57438" lon="5.00199">
        <ele>186</ele>
        <time>2022-06-25T08:18:09Z</time>
      </trkpt>
      <trkpt lat="46.57433" lon="5.00192">
        <ele>186.4</ele>
        <time>2022-06-25T08:18:10Z</time>
      </trkpt>
      <trkpt lat="46.57429" lon="5.00186">
        <ele>186.4</ele>
        <time>2022-06-25T08:18:11Z</time>
      </trkpt>
      <trkpt lat="46.57424" lon="5.00179">
        <ele>186.4</ele>
        <time>2022-06-25T08:18:12Z</time>
      </trkpt>
      <trkpt lat="46.57419" lon="5.00173">
        <ele>186.4</ele>
        <time>2022-06-25T08:18:13Z</time>
      </trkpt>
      <trkpt lat="46.57414" lon="5.00166">
        <ele>186.4</ele>
        <time>2022-06-25T08:18:14Z</time>
      </trkpt>
      <trkpt lat="46.57409" lon="5.00159">
        <ele>186.6</ele>
        <time>2022-06-25T08:18:15Z</time>
      </trkpt>
      <trkpt lat="46.57405" lon="5.00152">
        <ele>186.6</ele>
        <time>2022-06-25T08:18:16Z</time>
      </trkpt>
      <trkpt lat="46.574" lon="5.00146">
        <ele>186.8</ele>
        <time>2022-06-25T08:18:17Z</time>
      </trkpt>
      <trkpt lat="46.57396" lon="5.00139">
        <ele>186.8</ele>
        <time>2022-06-25T08:18:18Z</time>
      </trkpt>
      <trkpt lat="46.57391" lon="5.00133">
        <ele>186.8</ele>
        <time>2022-06-25T08:18:19Z</time>
      </trkpt>
      <trkpt lat="46.57386" lon="5.00127">
        <ele>186.8</ele>
        <time>2022-06-25T08:18:20Z</time>
      </trkpt>
      <trkpt lat="46.57382" lon="5.0012">
        <ele>187</ele>
        <time>2022-06-25T08:18:21Z</time>
      </trkpt>
      <trkpt lat="46.57377" lon="5.00114">
        <ele>187</ele>
        <time>2022-06-25T08:18:22Z</time>
      </trkpt>
      <trkpt lat="46.57373" lon="5.00108">
        <ele>187</ele>
        <time>2022-06-25T08:18:23Z</time>
      </trkpt>
      <trkpt lat="46.57368" lon="5.00101">
        <ele>187</ele>
        <time>2022-06-25T08:18:24Z</time>
      </trkpt>
      <trkpt lat="46.57363" lon="5.00095">
        <ele>187</ele>
        <time>2022-06-25T08:18:25Z</time>
      </trkpt>
      <trkpt lat="46.57359" lon="5.00088">
        <ele>187</ele>
        <time>2022-06-25T08:18:26Z</time>
      </trkpt>
      <trkpt lat="46.57354" lon="5.00081">
        <ele>187</ele>
        <time>2022-06-25T08:18:27Z</time>
      </trkpt>
      <trkpt lat="46.5735" lon="5.00075">
        <ele>187</ele>
        <time>2022-06-25T08:18:28Z</time>
      </trkpt>
      <trkpt lat="46.57345" lon="5.00068">
        <ele>187</ele>
        <time>2022-06-25T08:18:29Z</time>
      </trkpt>
      <trkpt lat="46.5734" lon="5.00061">
        <ele>187</ele>
        <time>2022-06-25T08:18:30Z</time>
      </trkpt>
      <trkpt lat="46.57336" lon="5.00055">
        <ele>187</ele>
        <time>2022-06-25T08:18:31Z</time>
      </trkpt>
      <trkpt lat="46.57331" lon="5.00048">
        <ele>187</ele>
        <time>2022-06-25T08:18:32Z</time>
      </trkpt>
      <trkpt lat="46.57326" lon="5.00041">
        <ele>187</ele>
        <time>2022-06-25T08:18:33Z</time>
      </trkpt>
      <trkpt lat="46.57322" lon="5.00035">
        <ele>187</ele>
        <time>2022-06-25T08:18:34Z</time>
      </trkpt>
      <trkpt lat="46.57317" lon="5.00028">
        <ele>187</ele>
        <time>2022-06-25T08:18:35Z</time>
      </trkpt>
      <trkpt lat="46.57312" lon="5.00021">
        <ele>187</ele>
        <time>2022-06-25T08:18:36Z</time>
      </trkpt>
      <trkpt lat="46.57307" lon="5.00014">
        <ele>187</ele>
        <time>2022-06-25T08:18:37Z</time>
      </trkpt>
      <trkpt lat="46.57302" lon="5.00008">
        <ele>187</ele>
        <time>2022-06-25T08:18:38Z</time>
      </trkpt>
      <trkpt lat="46.57298" lon="5">
        <ele>187</ele>
        <time>2022-06-25T08:18:39Z</time>
      </trkpt>
      <trkpt lat="46.57294" lon="4.99993">
        <ele>187</ele>
        <time>2022-06-25T08:18:40Z</time>
      </trkpt>
      <trkpt lat="46.57289" lon="4.99985">
        <ele>187</ele>
        <time>2022-06-25T08:18:41Z</time>
      </trkpt>
      <trkpt lat="46.57286" lon="4.99977">
        <ele>187</ele>
        <time>2022-06-25T08:18:42Z</time>
      </trkpt>
      <trkpt lat="46.57282" lon="4.99969">
        <ele>187</ele>
        <time>2022-06-25T08:18:43Z</time>
      </trkpt>
      <trkpt lat="46.57279" lon="4.99961">
        <ele>187</ele>
        <time>2022-06-25T08:18:44Z</time>
      </trkpt>
      <trkpt lat="46.57276" lon="4.99952">
        <ele>187</ele>
        <time>2022-06-25T08:18:45Z</time>
      </trkpt>
      <trkpt lat="46.57273" lon="4.99943">
        <ele>187</ele>
        <time>2022-06-25T08:18:46Z</time>
      </trkpt>
      <trkpt lat="46.5727" lon="4.99935">
        <ele>187</ele>
        <time>2022-06-25T08:18:47Z</time>
      </trkpt>
      <trkpt lat="46.57267" lon="4.99926">
        <ele>187</ele>
        <time>2022-06-25T08:18:48Z</time>
      </trkpt>
      <trkpt lat="46.57265" lon="4.99917">
        <ele>187</ele>
        <time>2022-06-25T08:18:49Z</time>
      </trkpt>
      <trkpt lat="46.57262" lon="4.99909">
        <ele>187</ele>
        <time>2022-06-25T08:18:50Z</time>
      </trkpt>
      <trkpt lat="46.5726" lon="4.999">
        <ele>187</ele>
        <time>2022-06-25T08:18:51Z</time>
      </trkpt>
      <trkpt lat="46.57257" lon="4.99891">
        <ele>187.2</ele>
        <time>2022-06-25T08:18:52Z</time>
      </trkpt>
      <trkpt lat="46.57254" lon="4.99883">
        <ele>187.2</ele>
        <time>2022-06-25T08:18:53Z</time>
      </trkpt>
      <trkpt lat="46.57252" lon="4.99874">
        <ele>187.2</ele>
        <time>2022-06-25T08:18:54Z</time>
      </trkpt>
      <trkpt lat="46.57249" lon="4.99866">
        <ele>187.2</ele>
        <time>2022-06-25T08:18:55Z</time>
      </trkpt>
      <trkpt lat="46.57247" lon="4.99857">
        <ele>187.2</ele>
        <time>2022-06-25T08:18:56Z</time>
      </trkpt>
      <trkpt lat="46.57245" lon="4.99848">
        <ele>187.6</ele>
        <time>2022-06-25T08:18:57Z</time>
      </trkpt>
      <trkpt lat="46.57242" lon="4.9984">
        <ele>187.6</ele>
        <time>2022-06-25T08:18:58Z</time>
      </trkpt>
      <trkpt lat="46.5724" lon="4.99832">
        <ele>187.6</ele>
        <time>2022-06-25T08:18:59Z</time>
      </trkpt>
      <trkpt lat="46.57238" lon="4.99823">
        <ele>187.8</ele>
        <time>2022-06-25T08:19:00Z</time>
      </trkpt>
      <trkpt lat="46.57235" lon="4.99815">
        <ele>187.8</ele>
        <time>2022-06-25T08:19:01Z</time>
      </trkpt>
      <trkpt lat="46.57233" lon="4.99807">
        <ele>187.8</ele>
        <time>2022-06-25T08:19:02Z</time>
      </trkpt>
      <trkpt lat="46.5723" lon="4.99799">
        <ele>188.2</ele>
        <time>2022-06-25T08:19:03Z</time>
      </trkpt>
      <trkpt lat="46.57228" lon="4.99791">
        <ele>188.2</ele>
        <time>2022-06-25T08:19:04Z</time>
      </trkpt>
      <trkpt lat="46.57226" lon="4.99783">
        <ele>188.2</ele>
        <time>2022-06-25T08:19:05Z</time>
      </trkpt>
      <trkpt lat="46.57224" lon="4.99776">
        <ele>188.4</ele>
        <time>2022-06-25T08:19:06Z</time>
      </trkpt>
      <trkpt lat="46.57222" lon="4.99769">
        <ele>188.4</ele>
        <time>2022-06-25T08:19:07Z</time>
      </trkpt>
      <trkpt lat="46.5722" lon="4.99761">
        <ele>188.8</ele>
        <time>2022-06-25T08:19:08Z</time>
      </trkpt>
      <trkpt lat="46.57218" lon="4.99755">
        <ele>188.8</ele>
        <time>2022-06-25T08:19:09Z</time>
      </trkpt>
      <trkpt lat="46.57216" lon="4.99748">
        <ele>189</ele>
        <time>2022-06-25T08:19:10Z</time>
      </trkpt>
      <trkpt lat="46.57214" lon="4.99742">
        <ele>189</ele>
        <time>2022-06-25T08:19:11Z</time>
      </trkpt>
      <trkpt lat="46.57212" lon="4.99735">
        <ele>189.4</ele>
        <time>2022-06-25T08:19:12Z</time>
      </trkpt>
      <trkpt lat="46.5721" lon="4.99729">
        <ele>189.8</ele>
        <time>2022-06-25T08:19:13Z</time>
      </trkpt>
      <trkpt lat="46.57208" lon="4.99723">
        <ele>189.8</ele>
        <time>2022-06-25T08:19:14Z</time>
      </trkpt>
      <trkpt lat="46.57207" lon="4.99718">
        <ele>190.2</ele>
        <time>2022-06-25T08:19:15Z</time>
      </trkpt>
      <trkpt lat="46.57205" lon="4.99712">
        <ele>190.2</ele>
        <time>2022-06-25T08:19:16Z</time>
      </trkpt>
      <trkpt lat="46.57203" lon="4.99707">
        <ele>190.6</ele>
        <time>2022-06-25T08:19:17Z</time>
      </trkpt>
      <trkpt lat="46.57202" lon="4.99702">
        <ele>190.8</ele>
        <time>2022-06-25T08:19:18Z</time>
      </trkpt>
      <trkpt lat="46.572" lon="4.99697">
        <ele>190.8</ele>
        <time>2022-06-25T08:19:19Z</time>
      </trkpt>
      <trkpt lat="46.57199" lon="4.99692">
        <ele>191.2</ele>
        <time>2022-06-25T08:19:20Z</time>
      </trkpt>
      <trkpt lat="46.57198" lon="4.99688">
        <ele>191.4</ele>
        <time>2022-06-25T08:19:21Z</time>
      </trkpt>
      <trkpt lat="46.57197" lon="4.99683">
        <ele>191.4</ele>
        <time>2022-06-25T08:19:22Z</time>
      </trkpt>
      <trkpt lat="46.57195" lon="4.99678">
        <ele>191.8</ele>
        <time>2022-06-25T08:19:23Z</time>
      </trkpt>
      <trkpt lat="46.57194" lon="4.99674">
        <ele>191.8</ele>
        <time>2022-06-25T08:19:24Z</time>
      </trkpt>
      <trkpt lat="46.57193" lon="4.99669">
        <ele>192.2</ele>
        <time>2022-06-25T08:19:25Z</time>
      </trkpt>
      <trkpt lat="46.57192" lon="4.99665">
        <ele>192.4</ele>
        <time>2022-06-25T08:19:26Z</time>
      </trkpt>
      <trkpt lat="46.57191" lon="4.99661">
        <ele>192.8</ele>
        <time>2022-06-25T08:19:27Z</time>
      </trkpt>
      <trkpt lat="46.57189" lon="4.99657">
        <ele>193</ele>
        <time>2022-06-25T08:19:28Z</time>
      </trkpt>
      <trkpt lat="46.57188" lon="4.99653">
        <ele>193.4</ele>
        <time>2022-06-25T08:19:29Z</time>
      </trkpt>
      <trkpt lat="46.57187" lon="4.99649">
        <ele>193.6</ele>
        <time>2022-06-25T08:19:30Z</time>
      </trkpt>
      <trkpt lat="46.57186" lon="4.99645">
        <ele>193.8</ele>
        <time>2022-06-25T08:19:31Z</time>
      </trkpt>
      <trkpt lat="46.57185" lon="4.99641">
        <ele>194.2</ele>
        <time>2022-06-25T08:19:32Z</time>
      </trkpt>
      <trkpt lat="46.57184" lon="4.99637">
        <ele>194.4</ele>
        <time>2022-06-25T08:19:33Z</time>
      </trkpt>
      <trkpt lat="46.57183" lon="4.99634">
        <ele>194.6</ele>
        <time>2022-06-25T08:19:34Z</time>
      </trkpt>
      <trkpt lat="46.57182" lon="4.9963">
        <ele>195</ele>
        <time>2022-06-25T08:19:35Z</time>
      </trkpt>
      <trkpt lat="46.57181" lon="4.99627">
        <ele>195.2</ele>
        <time>2022-06-25T08:19:36Z</time>
      </trkpt>
      <trkpt lat="46.57179" lon="4.99624">
        <ele>195.4</ele>
        <time>2022-06-25T08:19:37Z</time>
      </trkpt>
      <trkpt lat="46.57178" lon="4.9962">
        <ele>195.8</ele>
        <time>2022-06-25T08:19:38Z</time>
      </trkpt>
      <trkpt lat="46.57178" lon="4.99617">
        <ele>196</ele>
        <time>2022-06-25T08:19:39Z</time>
      </trkpt>
      <trkpt lat="46.57177" lon="4.99613">
        <ele>196.2</ele>
        <time>2022-06-25T08:19:40Z</time>
      </trkpt>
      <trkpt lat="46.57176" lon="4.9961">
        <ele>196.4</ele>
        <time>2022-06-25T08:19:41Z</time>
      </trkpt>
      <trkpt lat="46.57175" lon="4.99606">
        <ele>196.6</ele>
        <time>2022-06-25T08:19:42Z</time>
      </trkpt>
      <trkpt lat="46.57174" lon="4.99603">
        <ele>196.8</ele>
        <time>2022-06-25T08:19:43Z</time>
      </trkpt>
      <trkpt lat="46.57173" lon="4.996">
        <ele>196.8</ele>
        <time>2022-06-25T08:19:44Z</time>
      </trkpt>
      <trkpt lat="46.57172" lon="4.99596">
        <ele>197.2</ele>
        <time>2022-06-25T08:19:45Z</time>
      </trkpt>
      <trkpt lat="46.57171" lon="4.99593">
        <ele>197.4</ele>
        <time>2022-06-25T08:19:46Z</time>
      </trkpt>
      <trkpt lat="46.57171" lon="4.99589">
        <ele>197.4</ele>
        <time>2022-06-25T08:19:47Z</time>
      </trkpt>
      <trkpt lat="46.5717" lon="4.99586">
        <ele>197.8</ele>
        <time>2022-06-25T08:19:48Z</time>
      </trkpt>
      <trkpt lat="46.57169" lon="4.99582">
        <ele>198</ele>
        <time>2022-06-25T08:19:49Z</time>
      </trkpt>
      <trkpt lat="46.57168" lon="4.99579">
        <ele>198.2</ele>
        <time>2022-06-25T08:19:50Z</time>
      </trkpt>
      <trkpt lat="46.57167" lon="4.99575">
        <ele>198.4</ele>
        <time>2022-06-25T08:19:51Z</time>
      </trkpt>
      <trkpt lat="46.57166" lon="4.99571">
        <ele>198.4</ele>
        <time>2022-06-25T08:19:52Z</time>
      </trkpt>
      <trkpt lat="46.57165" lon="4.99568">
        <ele>198.8</ele>
        <time>2022-06-25T08:19:53Z</time>
      </trkpt>
      <trkpt lat="46.57164" lon="4.99564">
        <ele>199</ele>
        <time>2022-06-25T08:19:54Z</time>
      </trkpt>
      <trkpt lat="46.57163" lon="4.9956">
        <ele>199.2</ele>
        <time>2022-06-25T08:19:55Z</time>
      </trkpt>
      <trkpt lat="46.57162" lon="4.99556">
        <ele>199.2</ele>
        <time>2022-06-25T08:19:56Z</time>
      </trkpt>
      <trkpt lat="46.57162" lon="4.99553">
        <ele>199.6</ele>
        <time>2022-06-25T08:19:57Z</time>
      </trkpt>
      <trkpt lat="46.57161" lon="4.99549">
        <ele>199.8</ele>
        <time>2022-06-25T08:19:58Z</time>
      </trkpt>
      <trkpt lat="46.5716" lon="4.99545">
        <ele>199.8</ele>
        <time>2022-06-25T08:19:59Z</time>
      </trkpt>
      <trkpt lat="46.57159" lon="4.99542">
        <ele>200.2</ele>
        <time>2022-06-25T08:20:00Z</time>
      </trkpt>
      <trkpt lat="46.57158" lon="4.99538">
        <ele>200.4</ele>
        <time>2022-06-25T08:20:01Z</time>
      </trkpt>
      <trkpt lat="46.57157" lon="4.99535">
        <ele>200.6</ele>
        <time>2022-06-25T08:20:02Z</time>
      </trkpt>
      <trkpt lat="46.57157" lon="4.99531">
        <ele>200.6</ele>
        <time>2022-06-25T08:20:03Z</time>
      </trkpt>
      <trkpt lat="46.57156" lon="4.99528">
        <ele>201</ele>
        <time>2022-06-25T08:20:04Z</time>
      </trkpt>
      <trkpt lat="46.57155" lon="4.99524">
        <ele>201.2</ele>
        <time>2022-06-25T08:20:05Z</time>
      </trkpt>
      <trkpt lat="46.57154" lon="4.99521">
        <ele>201.2</ele>
        <time>2022-06-25T08:20:06Z</time>
      </trkpt>
      <trkpt lat="46.57153" lon="4.99518">
        <ele>201.6</ele>
        <time>2022-06-25T08:20:07Z</time>
      </trkpt>
      <trkpt lat="46.57152" lon="4.99514">
        <ele>201.6</ele>
        <time>2022-06-25T08:20:08Z</time>
      </trkpt>
      <trkpt lat="46.57151" lon="4.99511">
        <ele>201.8</ele>
        <time>2022-06-25T08:20:09Z</time>
      </trkpt>
      <trkpt lat="46.5715" lon="4.99507">
        <ele>201.8</ele>
        <time>2022-06-25T08:20:10Z</time>
      </trkpt>
      <trkpt lat="46.57149" lon="4.99504">
        <ele>202.2</ele>
        <time>2022-06-25T08:20:11Z</time>
      </trkpt>
      <trkpt lat="46.57148" lon="4.99501">
        <ele>202.2</ele>
        <time>2022-06-25T08:20:12Z</time>
      </trkpt>
      <trkpt lat="46.57148" lon="4.99497">
        <ele>202.6</ele>
        <time>2022-06-25T08:20:13Z</time>
      </trkpt>
      <trkpt lat="46.57147" lon="4.99493">
        <ele>202.6</ele>
        <time>2022-06-25T08:20:14Z</time>
      </trkpt>
      <trkpt lat="46.57146" lon="4.9949">
        <ele>203</ele>
        <time>2022-06-25T08:20:15Z</time>
      </trkpt>
      <trkpt lat="46.57146" lon="4.99486">
        <ele>203</ele>
        <time>2022-06-25T08:20:16Z</time>
      </trkpt>
      <trkpt lat="46.57145" lon="4.99482">
        <ele>203.2</ele>
        <time>2022-06-25T08:20:17Z</time>
      </trkpt>
      <trkpt lat="46.57144" lon="4.99478">
        <ele>203.2</ele>
        <time>2022-06-25T08:20:18Z</time>
      </trkpt>
      <trkpt lat="46.57143" lon="4.99474">
        <ele>203.4</ele>
        <time>2022-06-25T08:20:19Z</time>
      </trkpt>
      <trkpt lat="46.57143" lon="4.9947">
        <ele>203.4</ele>
        <time>2022-06-25T08:20:20Z</time>
      </trkpt>
      <trkpt lat="46.57142" lon="4.99465">
        <ele>203.6</ele>
        <time>2022-06-25T08:20:21Z</time>
      </trkpt>
      <trkpt lat="46.57141" lon="4.99461">
        <ele>203.6</ele>
        <time>2022-06-25T08:20:22Z</time>
      </trkpt>
      <trkpt lat="46.57141" lon="4.99457">
        <ele>204</ele>
        <time>2022-06-25T08:20:23Z</time>
      </trkpt>
      <trkpt lat="46.5714" lon="4.99452">
        <ele>204</ele>
        <time>2022-06-25T08:20:24Z</time>
      </trkpt>
      <trkpt lat="46.5714" lon="4.99448">
        <ele>204.2</ele>
        <time>2022-06-25T08:20:25Z</time>
      </trkpt>
      <trkpt lat="46.57139" lon="4.99443">
        <ele>204.2</ele>
        <time>2022-06-25T08:20:26Z</time>
      </trkpt>
      <trkpt lat="46.57138" lon="4.99438">
        <ele>204.4</ele>
        <time>2022-06-25T08:20:27Z</time>
      </trkpt>
      <trkpt lat="46.57138" lon="4.99434">
        <ele>204.4</ele>
        <time>2022-06-25T08:20:28Z</time>
      </trkpt>
      <trkpt lat="46.57137" lon="4.99429">
        <ele>204.8</ele>
        <time>2022-06-25T08:20:29Z</time>
      </trkpt>
      <trkpt lat="46.57136" lon="4.99424">
        <ele>204.8</ele>
        <time>2022-06-25T08:20:30Z</time>
      </trkpt>
      <trkpt lat="46.57136" lon="4.99418">
        <ele>204.8</ele>
        <time>2022-06-25T08:20:31Z</time>
      </trkpt>
      <trkpt lat="46.57135" lon="4.99413">
        <ele>205</ele>
        <time>2022-06-25T08:20:32Z</time>
      </trkpt>
      <trkpt lat="46.57134" lon="4.99408">
        <ele>205</ele>
        <time>2022-06-25T08:20:33Z</time>
      </trkpt>
      <trkpt lat="46.57133" lon="4.99403">
        <ele>205</ele>
        <time>2022-06-25T08:20:34Z</time>
      </trkpt>
      <trkpt lat="46.57133" lon="4.99398">
        <ele>205.2</ele>
        <time>2022-06-25T08:20:35Z</time>
      </trkpt>
      <trkpt lat="46.57132" lon="4.99392">
        <ele>205.2</ele>
        <time>2022-06-25T08:20:36Z</time>
      </trkpt>
      <trkpt lat="46.57131" lon="4.99387">
        <ele>205.2</ele>
        <time>2022-06-25T08:20:37Z</time>
      </trkpt>
      <trkpt lat="46.57131" lon="4.99381">
        <ele>205.4</ele>
        <time>2022-06-25T08:20:38Z</time>
      </trkpt>
      <trkpt lat="46.5713" lon="4.99375">
        <ele>205.4</ele>
        <time>2022-06-25T08:20:39Z</time>
      </trkpt>
      <trkpt lat="46.57129" lon="4.99369">
        <ele>205.4</ele>
        <time>2022-06-25T08:20:40Z</time>
      </trkpt>
      <trkpt lat="46.57128" lon="4.99363">
        <ele>205.4</ele>
        <time>2022-06-25T08:20:41Z</time>
      </trkpt>
      <trkpt lat="46.57127" lon="4.99357">
        <ele>205.4</ele>
        <time>2022-06-25T08:20:42Z</time>
      </trkpt>
      <trkpt lat="46.57126" lon="4.99351">
        <ele>205.8</ele>
        <time>2022-06-25T08:20:43Z</time>
      </trkpt>
      <trkpt lat="46.57126" lon="4.99345">
        <ele>205.8</ele>
        <time>2022-06-25T08:20:44Z</time>
      </trkpt>
      <trkpt lat="46.57125" lon="4.99339">
        <ele>206</ele>
        <time>2022-06-25T08:20:45Z</time>
      </trkpt>
      <trkpt lat="46.57124" lon="4.99333">
        <ele>206</ele>
        <time>2022-06-25T08:20:46Z</time>
      </trkpt>
      <trkpt lat="46.57124" lon="4.99327">
        <ele>206.2</ele>
        <time>2022-06-25T08:20:47Z</time>
      </trkpt>
      <trkpt lat="46.57123" lon="4.99321">
        <ele>206.2</ele>
        <time>2022-06-25T08:20:48Z</time>
      </trkpt>
      <trkpt lat="46.57123" lon="4.99315">
        <ele>206.2</ele>
        <time>2022-06-25T08:20:49Z</time>
      </trkpt>
      <trkpt lat="46.57122" lon="4.99308">
        <ele>206.6</ele>
        <time>2022-06-25T08:20:50Z</time>
      </trkpt>
      <trkpt lat="46.57121" lon="4.99302">
        <ele>206.6</ele>
        <time>2022-06-25T08:20:51Z</time>
      </trkpt>
      <trkpt lat="46.5712" lon="4.99296">
        <ele>206.6</ele>
        <time>2022-06-25T08:20:52Z</time>
      </trkpt>
      <trkpt lat="46.5712" lon="4.99289">
        <ele>206.8</ele>
        <time>2022-06-25T08:20:53Z</time>
      </trkpt>
      <trkpt lat="46.57119" lon="4.99283">
        <ele>206.8</ele>
        <time>2022-06-25T08:20:54Z</time>
      </trkpt>
      <trkpt lat="46.57118" lon="4.99277">
        <ele>206.8</ele>
        <time>2022-06-25T08:20:55Z</time>
      </trkpt>
      <trkpt lat="46.57118" lon="4.99271">
        <ele>206.8</ele>
        <time>2022-06-25T08:20:56Z</time>
      </trkpt>
      <trkpt lat="46.57118" lon="4.99265">
        <ele>207</ele>
        <time>2022-06-25T08:20:57Z</time>
      </trkpt>
      <trkpt lat="46.57117" lon="4.99259">
        <ele>207</ele>
        <time>2022-06-25T08:20:58Z</time>
      </trkpt>
      <trkpt lat="46.57117" lon="4.99253">
        <ele>207</ele>
        <time>2022-06-25T08:20:59Z</time>
      </trkpt>
      <trkpt lat="46.57117" lon="4.99247">
        <ele>207</ele>
        <time>2022-06-25T08:21:00Z</time>
      </trkpt>
      <trkpt lat="46.57118" lon="4.9924">
        <ele>207</ele>
        <time>2022-06-25T08:21:01Z</time>
      </trkpt>
      <trkpt lat="46.57118" lon="4.99234">
        <ele>207</ele>
        <time>2022-06-25T08:21:02Z</time>
      </trkpt>
      <trkpt lat="46.57118" lon="4.99227">
        <ele>207</ele>
        <time>2022-06-25T08:21:03Z</time>
      </trkpt>
      <trkpt lat="46.57118" lon="4.9922">
        <ele>207</ele>
        <time>2022-06-25T08:21:04Z</time>
      </trkpt>
      <trkpt lat="46.57118" lon="4.99213">
        <ele>207</ele>
        <time>2022-06-25T08:21:05Z</time>
      </trkpt>
      <trkpt lat="46.57118" lon="4.99205">
        <ele>207.2</ele>
        <time>2022-06-25T08:21:06Z</time>
      </trkpt>
      <trkpt lat="46.57118" lon="4.99198">
        <ele>207.2</ele>
        <time>2022-06-25T08:21:07Z</time>
      </trkpt>
      <trkpt lat="46.57118" lon="4.9919">
        <ele>207.2</ele>
        <time>2022-06-25T08:21:08Z</time>
      </trkpt>
      <trkpt lat="46.57119" lon="4.99182">
        <ele>207.2</ele>
        <time>2022-06-25T08:21:09Z</time>
      </trkpt>
      <trkpt lat="46.57119" lon="4.99174">
        <ele>207.2</ele>
        <time>2022-06-25T08:21:10Z</time>
      </trkpt>
      <trkpt lat="46.57119" lon="4.99166">
        <ele>207.2</ele>
        <time>2022-06-25T08:21:11Z</time>
      </trkpt>
      <trkpt lat="46.5712" lon="4.99158">
        <ele>207.2</ele>
        <time>2022-06-25T08:21:12Z</time>
      </trkpt>
      <trkpt lat="46.5712" lon="4.99149">
        <ele>207.2</ele>
        <time>2022-06-25T08:21:13Z</time>
      </trkpt>
      <trkpt lat="46.5712" lon="4.99141">
        <ele>207.2</ele>
        <time>2022-06-25T08:21:14Z</time>
      </trkpt>
      <trkpt lat="46.5712" lon="4.99131">
        <ele>207.2</ele>
        <time>2022-06-25T08:21:15Z</time>
      </trkpt>
      <trkpt lat="46.57121" lon="4.99122">
        <ele>207.2</ele>
        <time>2022-06-25T08:21:16Z</time>
      </trkpt>
      <trkpt lat="46.57121" lon="4.99113">
        <ele>207.2</ele>
        <time>2022-06-25T08:21:17Z</time>
      </trkpt>
      <trkpt lat="46.57122" lon="4.99103">
        <ele>207.2</ele>
        <time>2022-06-25T08:21:18Z</time>
      </trkpt>
      <trkpt lat="46.57122" lon="4.99094">
        <ele>207.2</ele>
        <time>2022-06-25T08:21:19Z</time>
      </trkpt>
      <trkpt lat="46.57122" lon="4.99084">
        <ele>207.2</ele>
        <time>2022-06-25T08:21:20Z</time>
      </trkpt>
      <trkpt lat="46.57123" lon="4.99074">
        <ele>207.2</ele>
        <time>2022-06-25T08:21:21Z</time>
      </trkpt>
      <trkpt lat="46.57123" lon="4.99064">
        <ele>207.2</ele>
        <time>2022-06-25T08:21:22Z</time>
      </trkpt>
      <trkpt lat="46.57124" lon="4.99054">
        <ele>207.2</ele>
        <time>2022-06-25T08:21:23Z</time>
      </trkpt>
      <trkpt lat="46.57124" lon="4.99044">
        <ele>207</ele>
        <time>2022-06-25T08:21:24Z</time>
      </trkpt>
      <trkpt lat="46.57124" lon="4.99034">
        <ele>207</ele>
        <time>2022-06-25T08:21:25Z</time>
      </trkpt>
      <trkpt lat="46.57125" lon="4.99024">
        <ele>207</ele>
        <time>2022-06-25T08:21:26Z</time>
      </trkpt>
      <trkpt lat="46.57125" lon="4.99013">
        <ele>207</ele>
        <time>2022-06-25T08:21:27Z</time>
      </trkpt>
      <trkpt lat="46.57125" lon="4.99003">
        <ele>206.6</ele>
        <time>2022-06-25T08:21:28Z</time>
      </trkpt>
      <trkpt lat="46.57126" lon="4.98992">
        <ele>206.6</ele>
        <time>2022-06-25T08:21:29Z</time>
      </trkpt>
      <trkpt lat="46.57126" lon="4.98982">
        <ele>206.6</ele>
        <time>2022-06-25T08:21:30Z</time>
      </trkpt>
      <trkpt lat="46.57127" lon="4.98971">
        <ele>206.4</ele>
        <time>2022-06-25T08:21:31Z</time>
      </trkpt>
      <trkpt lat="46.57127" lon="4.98961">
        <ele>206.4</ele>
        <time>2022-06-25T08:21:32Z</time>
      </trkpt>
      <trkpt lat="46.57128" lon="4.9895">
        <ele>206.4</ele>
        <time>2022-06-25T08:21:33Z</time>
      </trkpt>
      <trkpt lat="46.57128" lon="4.9894">
        <ele>206.4</ele>
        <time>2022-06-25T08:21:34Z</time>
      </trkpt>
      <trkpt lat="46.57128" lon="4.98929">
        <ele>206.2</ele>
        <time>2022-06-25T08:21:35Z</time>
      </trkpt>
      <trkpt lat="46.57128" lon="4.98918">
        <ele>206.2</ele>
        <time>2022-06-25T08:21:36Z</time>
      </trkpt>
      <trkpt lat="46.57128" lon="4.98908">
        <ele>206.2</ele>
        <time>2022-06-25T08:21:37Z</time>
      </trkpt>
      <trkpt lat="46.57128" lon="4.98897">
        <ele>205.8</ele>
        <time>2022-06-25T08:21:38Z</time>
      </trkpt>
      <trkpt lat="46.57128" lon="4.98886">
        <ele>205.8</ele>
        <time>2022-06-25T08:21:39Z</time>
      </trkpt>
      <trkpt lat="46.57127" lon="4.98875">
        <ele>205.8</ele>
        <time>2022-06-25T08:21:40Z</time>
      </trkpt>
      <trkpt lat="46.57127" lon="4.98865">
        <ele>205.8</ele>
        <time>2022-06-25T08:21:41Z</time>
      </trkpt>
      <trkpt lat="46.57126" lon="4.98854">
        <ele>205.8</ele>
        <time>2022-06-25T08:21:42Z</time>
      </trkpt>
      <trkpt lat="46.57126" lon="4.98844">
        <ele>205.6</ele>
        <time>2022-06-25T08:21:43Z</time>
      </trkpt>
      <trkpt lat="46.57126" lon="4.98833">
        <ele>205.6</ele>
        <time>2022-06-25T08:21:44Z</time>
      </trkpt>
      <trkpt lat="46.57126" lon="4.98822">
        <ele>205.6</ele>
        <time>2022-06-25T08:21:45Z</time>
      </trkpt>
      <trkpt lat="46.57125" lon="4.98812">
        <ele>205.4</ele>
        <time>2022-06-25T08:21:46Z</time>
      </trkpt>
      <trkpt lat="46.57125" lon="4.98802">
        <ele>205.4</ele>
        <time>2022-06-25T08:21:47Z</time>
      </trkpt>
      <trkpt lat="46.57125" lon="4.98792">
        <ele>205.4</ele>
        <time>2022-06-25T08:21:48Z</time>
      </trkpt>
      <trkpt lat="46.57124" lon="4.98783">
        <ele>205.4</ele>
        <time>2022-06-25T08:21:49Z</time>
      </trkpt>
      <trkpt lat="46.57124" lon="4.98773">
        <ele>205.2</ele>
        <time>2022-06-25T08:21:50Z</time>
      </trkpt>
      <trkpt lat="46.57124" lon="4.98764">
        <ele>205.2</ele>
        <time>2022-06-25T08:21:51Z</time>
      </trkpt>
      <trkpt lat="46.57124" lon="4.98754">
        <ele>205.2</ele>
        <time>2022-06-25T08:21:52Z</time>
      </trkpt>
      <trkpt lat="46.57123" lon="4.98745">
        <ele>205.2</ele>
        <time>2022-06-25T08:21:53Z</time>
      </trkpt>
      <trkpt lat="46.57123" lon="4.98735">
        <ele>205.2</ele>
        <time>2022-06-25T08:21:54Z</time>
      </trkpt>
      <trkpt lat="46.57122" lon="4.98726">
        <ele>205.2</ele>
        <time>2022-06-25T08:21:55Z</time>
      </trkpt>
      <trkpt lat="46.5712" lon="4.98717">
        <ele>205.2</ele>
        <time>2022-06-25T08:21:56Z</time>
      </trkpt>
      <trkpt lat="46.57119" lon="4.98708">
        <ele>204.8</ele>
        <time>2022-06-25T08:21:57Z</time>
      </trkpt>
      <trkpt lat="46.57117" lon="4.98699">
        <ele>204.8</ele>
        <time>2022-06-25T08:21:59Z</time>
      </trkpt>
      <trkpt lat="46.57115" lon="4.98691">
        <ele>204.8</ele>
        <time>2022-06-25T08:22:00Z</time>
      </trkpt>
      <trkpt lat="46.57112" lon="4.98683">
        <ele>204.6</ele>
        <time>2022-06-25T08:22:01Z</time>
      </trkpt>
      <trkpt lat="46.57109" lon="4.98676">
        <ele>204.6</ele>
        <time>2022-06-25T08:22:02Z</time>
      </trkpt>
      <trkpt lat="46.57107" lon="4.98668">
        <ele>204.6</ele>
        <time>2022-06-25T08:22:03Z</time>
      </trkpt>
      <trkpt lat="46.57105" lon="4.98661">
        <ele>204.6</ele>
        <time>2022-06-25T08:22:04Z</time>
      </trkpt>
      <trkpt lat="46.57103" lon="4.98654">
        <ele>204.6</ele>
        <time>2022-06-25T08:22:05Z</time>
      </trkpt>
      <trkpt lat="46.57102" lon="4.98647">
        <ele>204.6</ele>
        <time>2022-06-25T08:22:06Z</time>
      </trkpt>
      <trkpt lat="46.571" lon="4.9864">
        <ele>204.6</ele>
        <time>2022-06-25T08:22:07Z</time>
      </trkpt>
      <trkpt lat="46.57099" lon="4.98634">
        <ele>204.6</ele>
        <time>2022-06-25T08:22:08Z</time>
      </trkpt>
      <trkpt lat="46.57098" lon="4.98629">
        <ele>204.2</ele>
        <time>2022-06-25T08:22:09Z</time>
      </trkpt>
      <trkpt lat="46.57097" lon="4.98625">
        <ele>204.2</ele>
        <time>2022-06-25T08:22:10Z</time>
      </trkpt>
      <trkpt lat="46.57097" lon="4.98622">
        <ele>204.2</ele>
        <time>2022-06-25T08:22:11Z</time>
      </trkpt>
      <trkpt lat="46.57096" lon="4.98621">
        <ele>204.2</ele>
        <time>2022-06-25T08:22:12Z</time>
      </trkpt>
      <trkpt lat="46.57096" lon="4.98622">
        <ele>204</ele>
        <time>2022-06-25T08:22:14Z</time>
      </trkpt>
      <trkpt lat="46.57095" lon="4.9862">
        <ele>204</ele>
        <time>2022-06-25T08:22:18Z</time>
      </trkpt>
      <trkpt lat="46.57095" lon="4.98617">
        <ele>204</ele>
        <time>2022-06-25T08:22:19Z</time>
      </trkpt>
      <trkpt lat="46.57094" lon="4.98614">
        <ele>204</ele>
        <time>2022-06-25T08:22:20Z</time>
      </trkpt>
      <trkpt lat="46.57093" lon="4.9861">
        <ele>204</ele>
        <time>2022-06-25T08:22:21Z</time>
      </trkpt>
      <trkpt lat="46.57091" lon="4.98606">
        <ele>204.4</ele>
        <time>2022-06-25T08:22:22Z</time>
      </trkpt>
      <trkpt lat="46.57089" lon="4.98602">
        <ele>204.4</ele>
        <time>2022-06-25T08:22:23Z</time>
      </trkpt>
      <trkpt lat="46.57087" lon="4.98597">
        <ele>204.4</ele>
        <time>2022-06-25T08:22:24Z</time>
      </trkpt>
      <trkpt lat="46.57085" lon="4.98591">
        <ele>204.4</ele>
        <time>2022-06-25T08:22:25Z</time>
      </trkpt>
      <trkpt lat="46.57083" lon="4.98585">
        <ele>204.4</ele>
        <time>2022-06-25T08:22:26Z</time>
      </trkpt>
      <trkpt lat="46.57081" lon="4.98577">
        <ele>204.4</ele>
        <time>2022-06-25T08:22:27Z</time>
      </trkpt>
      <trkpt lat="46.5708" lon="4.9857">
        <ele>204.4</ele>
        <time>2022-06-25T08:22:28Z</time>
      </trkpt>
      <trkpt lat="46.57078" lon="4.98562">
        <ele>204.4</ele>
        <time>2022-06-25T08:22:29Z</time>
      </trkpt>
      <trkpt lat="46.57078" lon="4.98554">
        <ele>204.4</ele>
        <time>2022-06-25T08:22:30Z</time>
      </trkpt>
      <trkpt lat="46.57078" lon="4.98546">
        <ele>204</ele>
        <time>2022-06-25T08:22:31Z</time>
      </trkpt>
      <trkpt lat="46.57079" lon="4.98539">
        <ele>204</ele>
        <time>2022-06-25T08:22:32Z</time>
      </trkpt>
      <trkpt lat="46.57079" lon="4.9853">
        <ele>203.8</ele>
        <time>2022-06-25T08:22:33Z</time>
      </trkpt>
      <trkpt lat="46.5708" lon="4.98522">
        <ele>203.8</ele>
        <time>2022-06-25T08:22:34Z</time>
      </trkpt>
      <trkpt lat="46.57081" lon="4.98513">
        <ele>203.8</ele>
        <time>2022-06-25T08:22:35Z</time>
      </trkpt>
      <trkpt lat="46.57081" lon="4.98505">
        <ele>203.4</ele>
        <time>2022-06-25T08:22:36Z</time>
      </trkpt>
      <trkpt lat="46.57082" lon="4.98497">
        <ele>203.4</ele>
        <time>2022-06-25T08:22:37Z</time>
      </trkpt>
      <trkpt lat="46.57083" lon="4.98488">
        <ele>203.4</ele>
        <time>2022-06-25T08:22:38Z</time>
      </trkpt>
      <trkpt lat="46.57083" lon="4.9848">
        <ele>203.4</ele>
        <time>2022-06-25T08:22:39Z</time>
      </trkpt>
      <trkpt lat="46.57082" lon="4.98472">
        <ele>203.4</ele>
        <time>2022-06-25T08:22:40Z</time>
      </trkpt>
      <trkpt lat="46.57082" lon="4.98464">
        <ele>203.4</ele>
        <time>2022-06-25T08:22:41Z</time>
      </trkpt>
      <trkpt lat="46.57081" lon="4.98456">
        <ele>203.4</ele>
        <time>2022-06-25T08:22:42Z</time>
      </trkpt>
      <trkpt lat="46.5708" lon="4.98447">
        <ele>203.4</ele>
        <time>2022-06-25T08:22:43Z</time>
      </trkpt>
      <trkpt lat="46.57079" lon="4.98438">
        <ele>203.4</ele>
        <time>2022-06-25T08:22:44Z</time>
      </trkpt>
      <trkpt lat="46.57078" lon="4.98429">
        <ele>203.4</ele>
        <time>2022-06-25T08:22:45Z</time>
      </trkpt>
      <trkpt lat="46.57077" lon="4.9842">
        <ele>203.4</ele>
        <time>2022-06-25T08:22:46Z</time>
      </trkpt>
      <trkpt lat="46.57076" lon="4.9841">
        <ele>203.4</ele>
        <time>2022-06-25T08:22:47Z</time>
      </trkpt>
      <trkpt lat="46.57075" lon="4.98401">
        <ele>203.4</ele>
        <time>2022-06-25T08:22:48Z</time>
      </trkpt>
      <trkpt lat="46.57074" lon="4.98392">
        <ele>203.4</ele>
        <time>2022-06-25T08:22:49Z</time>
      </trkpt>
      <trkpt lat="46.57074" lon="4.98383">
        <ele>203.4</ele>
        <time>2022-06-25T08:22:50Z</time>
      </trkpt>
      <trkpt lat="46.57073" lon="4.98373">
        <ele>203.4</ele>
        <time>2022-06-25T08:22:51Z</time>
      </trkpt>
      <trkpt lat="46.57072" lon="4.98364">
        <ele>203.4</ele>
        <time>2022-06-25T08:22:52Z</time>
      </trkpt>
      <trkpt lat="46.57071" lon="4.98354">
        <ele>203.4</ele>
        <time>2022-06-25T08:22:53Z</time>
      </trkpt>
      <trkpt lat="46.5707" lon="4.98345">
        <ele>203.4</ele>
        <time>2022-06-25T08:22:54Z</time>
      </trkpt>
      <trkpt lat="46.57069" lon="4.98335">
        <ele>203.4</ele>
        <time>2022-06-25T08:22:55Z</time>
      </trkpt>
      <trkpt lat="46.57069" lon="4.98326">
        <ele>203.4</ele>
        <time>2022-06-25T08:22:56Z</time>
      </trkpt>
      <trkpt lat="46.57068" lon="4.98316">
        <ele>203.4</ele>
        <time>2022-06-25T08:22:57Z</time>
      </trkpt>
      <trkpt lat="46.57067" lon="4.98307">
        <ele>203.4</ele>
        <time>2022-06-25T08:22:58Z</time>
      </trkpt>
      <trkpt lat="46.57066" lon="4.98297">
        <ele>203.4</ele>
        <time>2022-06-25T08:22:59Z</time>
      </trkpt>
      <trkpt lat="46.57066" lon="4.98288">
        <ele>203.4</ele>
        <time>2022-06-25T08:23:00Z</time>
      </trkpt>
      <trkpt lat="46.57065" lon="4.98278">
        <ele>203.4</ele>
        <time>2022-06-25T08:23:01Z</time>
      </trkpt>
      <trkpt lat="46.57064" lon="4.98269">
        <ele>203.4</ele>
        <time>2022-06-25T08:23:02Z</time>
      </trkpt>
      <trkpt lat="46.57063" lon="4.9826">
        <ele>203.4</ele>
        <time>2022-06-25T08:23:03Z</time>
      </trkpt>
      <trkpt lat="46.57062" lon="4.98251">
        <ele>203.4</ele>
        <time>2022-06-25T08:23:04Z</time>
      </trkpt>
      <trkpt lat="46.57062" lon="4.98241">
        <ele>203.4</ele>
        <time>2022-06-25T08:23:05Z</time>
      </trkpt>
      <trkpt lat="46.57061" lon="4.98232">
        <ele>203.4</ele>
        <time>2022-06-25T08:23:06Z</time>
      </trkpt>
      <trkpt lat="46.5706" lon="4.98223">
        <ele>203.4</ele>
        <time>2022-06-25T08:23:07Z</time>
      </trkpt>
      <trkpt lat="46.5706" lon="4.98213">
        <ele>203.4</ele>
        <time>2022-06-25T08:23:08Z</time>
      </trkpt>
      <trkpt lat="46.57059" lon="4.98204">
        <ele>203.4</ele>
        <time>2022-06-25T08:23:09Z</time>
      </trkpt>
      <trkpt lat="46.57058" lon="4.98195">
        <ele>203.4</ele>
        <time>2022-06-25T08:23:10Z</time>
      </trkpt>
      <trkpt lat="46.57058" lon="4.98186">
        <ele>203.4</ele>
        <time>2022-06-25T08:23:11Z</time>
      </trkpt>
      <trkpt lat="46.57057" lon="4.98177">
        <ele>203.4</ele>
        <time>2022-06-25T08:23:12Z</time>
      </trkpt>
      <trkpt lat="46.57056" lon="4.98168">
        <ele>203.4</ele>
        <time>2022-06-25T08:23:13Z</time>
      </trkpt>
      <trkpt lat="46.57056" lon="4.9816">
        <ele>203.4</ele>
        <time>2022-06-25T08:23:14Z</time>
      </trkpt>
      <trkpt lat="46.57055" lon="4.98151">
        <ele>203.4</ele>
        <time>2022-06-25T08:23:15Z</time>
      </trkpt>
      <trkpt lat="46.57055" lon="4.98142">
        <ele>203.4</ele>
        <time>2022-06-25T08:23:16Z</time>
      </trkpt>
      <trkpt lat="46.57054" lon="4.98133">
        <ele>203.4</ele>
        <time>2022-06-25T08:23:17Z</time>
      </trkpt>
      <trkpt lat="46.57053" lon="4.98124">
        <ele>203.4</ele>
        <time>2022-06-25T08:23:18Z</time>
      </trkpt>
      <trkpt lat="46.57053" lon="4.98115">
        <ele>203.4</ele>
        <time>2022-06-25T08:23:19Z</time>
      </trkpt>
      <trkpt lat="46.57052" lon="4.98106">
        <ele>203.4</ele>
        <time>2022-06-25T08:23:20Z</time>
      </trkpt>
      <trkpt lat="46.57051" lon="4.98097">
        <ele>203.4</ele>
        <time>2022-06-25T08:23:21Z</time>
      </trkpt>
      <trkpt lat="46.5705" lon="4.98088">
        <ele>203.4</ele>
        <time>2022-06-25T08:23:22Z</time>
      </trkpt>
      <trkpt lat="46.5705" lon="4.98079">
        <ele>203.4</ele>
        <time>2022-06-25T08:23:23Z</time>
      </trkpt>
      <trkpt lat="46.57049" lon="4.98071">
        <ele>203.4</ele>
        <time>2022-06-25T08:23:24Z</time>
      </trkpt>
      <trkpt lat="46.57048" lon="4.98062">
        <ele>203.4</ele>
        <time>2022-06-25T08:23:25Z</time>
      </trkpt>
      <trkpt lat="46.57048" lon="4.98053">
        <ele>203.6</ele>
        <time>2022-06-25T08:23:26Z</time>
      </trkpt>
      <trkpt lat="46.57047" lon="4.98044">
        <ele>203.6</ele>
        <time>2022-06-25T08:23:27Z</time>
      </trkpt>
      <trkpt lat="46.57047" lon="4.98035">
        <ele>203.6</ele>
        <time>2022-06-25T08:23:28Z</time>
      </trkpt>
      <trkpt lat="46.57046" lon="4.98027">
        <ele>203.6</ele>
        <time>2022-06-25T08:23:29Z</time>
      </trkpt>
      <trkpt lat="46.57046" lon="4.98018">
        <ele>203.6</ele>
        <time>2022-06-25T08:23:30Z</time>
      </trkpt>
      <trkpt lat="46.57045" lon="4.98009">
        <ele>203.6</ele>
        <time>2022-06-25T08:23:31Z</time>
      </trkpt>
      <trkpt lat="46.57044" lon="4.98">
        <ele>204</ele>
        <time>2022-06-25T08:23:32Z</time>
      </trkpt>
      <trkpt lat="46.57044" lon="4.97991">
        <ele>204</ele>
        <time>2022-06-25T08:23:33Z</time>
      </trkpt>
      <trkpt lat="46.57043" lon="4.97982">
        <ele>204</ele>
        <time>2022-06-25T08:23:34Z</time>
      </trkpt>
      <trkpt lat="46.57042" lon="4.97973">
        <ele>204</ele>
        <time>2022-06-25T08:23:35Z</time>
      </trkpt>
      <trkpt lat="46.57041" lon="4.97963">
        <ele>204.2</ele>
        <time>2022-06-25T08:23:36Z</time>
      </trkpt>
      <trkpt lat="46.5704" lon="4.97954">
        <ele>204.2</ele>
        <time>2022-06-25T08:23:37Z</time>
      </trkpt>
      <trkpt lat="46.5704" lon="4.97946">
        <ele>204.4</ele>
        <time>2022-06-25T08:23:38Z</time>
      </trkpt>
      <trkpt lat="46.57039" lon="4.97937">
        <ele>204.4</ele>
        <time>2022-06-25T08:23:39Z</time>
      </trkpt>
      <trkpt lat="46.57038" lon="4.97928">
        <ele>204.4</ele>
        <time>2022-06-25T08:23:40Z</time>
      </trkpt>
      <trkpt lat="46.57038" lon="4.97919">
        <ele>204.4</ele>
        <time>2022-06-25T08:23:41Z</time>
      </trkpt>
      <trkpt lat="46.57037" lon="4.9791">
        <ele>204.4</ele>
        <time>2022-06-25T08:23:42Z</time>
      </trkpt>
      <trkpt lat="46.57036" lon="4.97901">
        <ele>204.4</ele>
        <time>2022-06-25T08:23:43Z</time>
      </trkpt>
      <trkpt lat="46.57036" lon="4.97892">
        <ele>204.6</ele>
        <time>2022-06-25T08:23:44Z</time>
      </trkpt>
      <trkpt lat="46.57035" lon="4.97884">
        <ele>204.6</ele>
        <time>2022-06-25T08:23:45Z</time>
      </trkpt>
      <trkpt lat="46.57034" lon="4.97875">
        <ele>204.6</ele>
        <time>2022-06-25T08:23:46Z</time>
      </trkpt>
      <trkpt lat="46.57033" lon="4.97866">
        <ele>204.6</ele>
        <time>2022-06-25T08:23:47Z</time>
      </trkpt>
      <trkpt lat="46.57032" lon="4.97857">
        <ele>204.6</ele>
        <time>2022-06-25T08:23:48Z</time>
      </trkpt>
      <trkpt lat="46.57032" lon="4.97849">
        <ele>204.6</ele>
        <time>2022-06-25T08:23:49Z</time>
      </trkpt>
      <trkpt lat="46.57031" lon="4.9784">
        <ele>204.6</ele>
        <time>2022-06-25T08:23:50Z</time>
      </trkpt>
      <trkpt lat="46.5703" lon="4.97831">
        <ele>204.6</ele>
        <time>2022-06-25T08:23:51Z</time>
      </trkpt>
      <trkpt lat="46.57029" lon="4.97822">
        <ele>204.6</ele>
        <time>2022-06-25T08:23:52Z</time>
      </trkpt>
      <trkpt lat="46.57028" lon="4.97813">
        <ele>204.6</ele>
        <time>2022-06-25T08:23:53Z</time>
      </trkpt>
      <trkpt lat="46.57027" lon="4.97804">
        <ele>204.6</ele>
        <time>2022-06-25T08:23:54Z</time>
      </trkpt>
      <trkpt lat="46.57026" lon="4.97795">
        <ele>204.6</ele>
        <time>2022-06-25T08:23:55Z</time>
      </trkpt>
      <trkpt lat="46.57026" lon="4.97786">
        <ele>204.8</ele>
        <time>2022-06-25T08:23:56Z</time>
      </trkpt>
      <trkpt lat="46.57025" lon="4.97777">
        <ele>204.8</ele>
        <time>2022-06-25T08:23:57Z</time>
      </trkpt>
      <trkpt lat="46.57024" lon="4.97768">
        <ele>204.8</ele>
        <time>2022-06-25T08:23:58Z</time>
      </trkpt>
      <trkpt lat="46.57023" lon="4.97759">
        <ele>204.8</ele>
        <time>2022-06-25T08:23:59Z</time>
      </trkpt>
      <trkpt lat="46.57022" lon="4.9775">
        <ele>204.8</ele>
        <time>2022-06-25T08:24:00Z</time>
      </trkpt>
      <trkpt lat="46.57021" lon="4.97741">
        <ele>205</ele>
        <time>2022-06-25T08:24:01Z</time>
      </trkpt>
      <trkpt lat="46.57021" lon="4.97732">
        <ele>205</ele>
        <time>2022-06-25T08:24:02Z</time>
      </trkpt>
      <trkpt lat="46.5702" lon="4.97723">
        <ele>205</ele>
        <time>2022-06-25T08:24:03Z</time>
      </trkpt>
      <trkpt lat="46.5702" lon="4.97714">
        <ele>205</ele>
        <time>2022-06-25T08:24:04Z</time>
      </trkpt>
      <trkpt lat="46.57019" lon="4.97705">
        <ele>205</ele>
        <time>2022-06-25T08:24:05Z</time>
      </trkpt>
      <trkpt lat="46.57018" lon="4.97695">
        <ele>205.2</ele>
        <time>2022-06-25T08:24:06Z</time>
      </trkpt>
      <trkpt lat="46.57017" lon="4.97686">
        <ele>205.2</ele>
        <time>2022-06-25T08:24:07Z</time>
      </trkpt>
      <trkpt lat="46.57017" lon="4.97677">
        <ele>205.2</ele>
        <time>2022-06-25T08:24:08Z</time>
      </trkpt>
      <trkpt lat="46.57016" lon="4.97668">
        <ele>205.2</ele>
        <time>2022-06-25T08:24:09Z</time>
      </trkpt>
      <trkpt lat="46.57015" lon="4.97658">
        <ele>205.2</ele>
        <time>2022-06-25T08:24:10Z</time>
      </trkpt>
      <trkpt lat="46.57014" lon="4.97649">
        <ele>205.2</ele>
        <time>2022-06-25T08:24:11Z</time>
      </trkpt>
      <trkpt lat="46.57014" lon="4.97639">
        <ele>205.2</ele>
        <time>2022-06-25T08:24:12Z</time>
      </trkpt>
      <trkpt lat="46.57013" lon="4.9763">
        <ele>205.2</ele>
        <time>2022-06-25T08:24:13Z</time>
      </trkpt>
      <trkpt lat="46.57012" lon="4.9762">
        <ele>205.2</ele>
        <time>2022-06-25T08:24:14Z</time>
      </trkpt>
      <trkpt lat="46.57011" lon="4.9761">
        <ele>205.2</ele>
        <time>2022-06-25T08:24:15Z</time>
      </trkpt>
      <trkpt lat="46.5701" lon="4.97601">
        <ele>205.2</ele>
        <time>2022-06-25T08:24:16Z</time>
      </trkpt>
      <trkpt lat="46.5701" lon="4.97591">
        <ele>205.4</ele>
        <time>2022-06-25T08:24:17Z</time>
      </trkpt>
      <trkpt lat="46.57009" lon="4.97582">
        <ele>205.4</ele>
        <time>2022-06-25T08:24:18Z</time>
      </trkpt>
      <trkpt lat="46.57009" lon="4.97572">
        <ele>205.4</ele>
        <time>2022-06-25T08:24:19Z</time>
      </trkpt>
      <trkpt lat="46.57008" lon="4.97562">
        <ele>205.4</ele>
        <time>2022-06-25T08:24:20Z</time>
      </trkpt>
      <trkpt lat="46.57007" lon="4.97553">
        <ele>205.4</ele>
        <time>2022-06-25T08:24:21Z</time>
      </trkpt>
      <trkpt lat="46.57006" lon="4.97543">
        <ele>205.4</ele>
        <time>2022-06-25T08:24:22Z</time>
      </trkpt>
      <trkpt lat="46.57005" lon="4.97533">
        <ele>205.4</ele>
        <time>2022-06-25T08:24:23Z</time>
      </trkpt>
      <trkpt lat="46.57005" lon="4.97524">
        <ele>205.4</ele>
        <time>2022-06-25T08:24:24Z</time>
      </trkpt>
      <trkpt lat="46.57004" lon="4.97514">
        <ele>205.4</ele>
        <time>2022-06-25T08:24:25Z</time>
      </trkpt>
      <trkpt lat="46.57003" lon="4.97505">
        <ele>205.8</ele>
        <time>2022-06-25T08:24:26Z</time>
      </trkpt>
      <trkpt lat="46.57003" lon="4.97496">
        <ele>205.8</ele>
        <time>2022-06-25T08:24:27Z</time>
      </trkpt>
      <trkpt lat="46.57002" lon="4.97486">
        <ele>205.8</ele>
        <time>2022-06-25T08:24:28Z</time>
      </trkpt>
      <trkpt lat="46.57001" lon="4.97477">
        <ele>205.8</ele>
        <time>2022-06-25T08:24:29Z</time>
      </trkpt>
      <trkpt lat="46.57" lon="4.97467">
        <ele>205.8</ele>
        <time>2022-06-25T08:24:30Z</time>
      </trkpt>
      <trkpt lat="46.56999" lon="4.97458">
        <ele>206</ele>
        <time>2022-06-25T08:24:31Z</time>
      </trkpt>
      <trkpt lat="46.56998" lon="4.97449">
        <ele>206</ele>
        <time>2022-06-25T08:24:32Z</time>
      </trkpt>
      <trkpt lat="46.56997" lon="4.97439">
        <ele>206</ele>
        <time>2022-06-25T08:24:33Z</time>
      </trkpt>
      <trkpt lat="46.56997" lon="4.9743">
        <ele>206</ele>
        <time>2022-06-25T08:24:34Z</time>
      </trkpt>
      <trkpt lat="46.56996" lon="4.97421">
        <ele>206</ele>
        <time>2022-06-25T08:24:35Z</time>
      </trkpt>
      <trkpt lat="46.56995" lon="4.97412">
        <ele>206.2</ele>
        <time>2022-06-25T08:24:36Z</time>
      </trkpt>
      <trkpt lat="46.56995" lon="4.97402">
        <ele>206.2</ele>
        <time>2022-06-25T08:24:37Z</time>
      </trkpt>
      <trkpt lat="46.56994" lon="4.97393">
        <ele>206.2</ele>
        <time>2022-06-25T08:24:38Z</time>
      </trkpt>
      <trkpt lat="46.56993" lon="4.97384">
        <ele>206.2</ele>
        <time>2022-06-25T08:24:39Z</time>
      </trkpt>
      <trkpt lat="46.56992" lon="4.97375">
        <ele>206.2</ele>
        <time>2022-06-25T08:24:40Z</time>
      </trkpt>
      <trkpt lat="46.56992" lon="4.97366">
        <ele>206.2</ele>
        <time>2022-06-25T08:24:41Z</time>
      </trkpt>
      <trkpt lat="46.56991" lon="4.97357">
        <ele>206.2</ele>
        <time>2022-06-25T08:24:42Z</time>
      </trkpt>
      <trkpt lat="46.56991" lon="4.97348">
        <ele>206.2</ele>
        <time>2022-06-25T08:24:43Z</time>
      </trkpt>
      <trkpt lat="46.5699" lon="4.97339">
        <ele>206.2</ele>
        <time>2022-06-25T08:24:44Z</time>
      </trkpt>
      <trkpt lat="46.56989" lon="4.97329">
        <ele>206.2</ele>
        <time>2022-06-25T08:24:45Z</time>
      </trkpt>
      <trkpt lat="46.56988" lon="4.9732">
        <ele>206.2</ele>
        <time>2022-06-25T08:24:46Z</time>
      </trkpt>
      <trkpt lat="46.56988" lon="4.97311">
        <ele>206.2</ele>
        <time>2022-06-25T08:24:47Z</time>
      </trkpt>
      <trkpt lat="46.56987" lon="4.97302">
        <ele>206.4</ele>
        <time>2022-06-25T08:24:48Z</time>
      </trkpt>
      <trkpt lat="46.56986" lon="4.97293">
        <ele>206.4</ele>
        <time>2022-06-25T08:24:49Z</time>
      </trkpt>
      <trkpt lat="46.56985" lon="4.97284">
        <ele>206.4</ele>
        <time>2022-06-25T08:24:50Z</time>
      </trkpt>
      <trkpt lat="46.56984" lon="4.97275">
        <ele>206.4</ele>
        <time>2022-06-25T08:24:51Z</time>
      </trkpt>
      <trkpt lat="46.56984" lon="4.97266">
        <ele>206.4</ele>
        <time>2022-06-25T08:24:52Z</time>
      </trkpt>
      <trkpt lat="46.56983" lon="4.97257">
        <ele>206.4</ele>
        <time>2022-06-25T08:24:53Z</time>
      </trkpt>
      <trkpt lat="46.56982" lon="4.97248">
        <ele>206.4</ele>
        <time>2022-06-25T08:24:54Z</time>
      </trkpt>
      <trkpt lat="46.56982" lon="4.9724">
        <ele>206.4</ele>
        <time>2022-06-25T08:24:55Z</time>
      </trkpt>
      <trkpt lat="46.56981" lon="4.97231">
        <ele>206.4</ele>
        <time>2022-06-25T08:24:56Z</time>
      </trkpt>
      <trkpt lat="46.5698" lon="4.97222">
        <ele>206.4</ele>
        <time>2022-06-25T08:24:57Z</time>
      </trkpt>
      <trkpt lat="46.5698" lon="4.97213">
        <ele>206.4</ele>
        <time>2022-06-25T08:24:58Z</time>
      </trkpt>
      <trkpt lat="46.56979" lon="4.97204">
        <ele>206.4</ele>
        <time>2022-06-25T08:24:59Z</time>
      </trkpt>
      <trkpt lat="46.56978" lon="4.97196">
        <ele>206.4</ele>
        <time>2022-06-25T08:25:00Z</time>
      </trkpt>
      <trkpt lat="46.56977" lon="4.97187">
        <ele>206.6</ele>
        <time>2022-06-25T08:25:01Z</time>
      </trkpt>
      <trkpt lat="46.56977" lon="4.97178">
        <ele>206.6</ele>
        <time>2022-06-25T08:25:02Z</time>
      </trkpt>
      <trkpt lat="46.56976" lon="4.97169">
        <ele>206.6</ele>
        <time>2022-06-25T08:25:03Z</time>
      </trkpt>
      <trkpt lat="46.56975" lon="4.97161">
        <ele>206.6</ele>
        <time>2022-06-25T08:25:04Z</time>
      </trkpt>
      <trkpt lat="46.56974" lon="4.97152">
        <ele>206.8</ele>
        <time>2022-06-25T08:25:05Z</time>
      </trkpt>
      <trkpt lat="46.56973" lon="4.97143">
        <ele>206.8</ele>
        <time>2022-06-25T08:25:06Z</time>
      </trkpt>
      <trkpt lat="46.56973" lon="4.97134">
        <ele>206.8</ele>
        <time>2022-06-25T08:25:07Z</time>
      </trkpt>
      <trkpt lat="46.56972" lon="4.97125">
        <ele>206.8</ele>
        <time>2022-06-25T08:25:08Z</time>
      </trkpt>
      <trkpt lat="46.56971" lon="4.97116">
        <ele>206.8</ele>
        <time>2022-06-25T08:25:09Z</time>
      </trkpt>
      <trkpt lat="46.56971" lon="4.97106">
        <ele>206.8</ele>
        <time>2022-06-25T08:25:10Z</time>
      </trkpt>
      <trkpt lat="46.5697" lon="4.97097">
        <ele>206.8</ele>
        <time>2022-06-25T08:25:11Z</time>
      </trkpt>
      <trkpt lat="46.56969" lon="4.97088">
        <ele>206.8</ele>
        <time>2022-06-25T08:25:12Z</time>
      </trkpt>
      <trkpt lat="46.56968" lon="4.97079">
        <ele>206.8</ele>
        <time>2022-06-25T08:25:13Z</time>
      </trkpt>
      <trkpt lat="46.56967" lon="4.9707">
        <ele>206.8</ele>
        <time>2022-06-25T08:25:14Z</time>
      </trkpt>
      <trkpt lat="46.56967" lon="4.97061">
        <ele>206.8</ele>
        <time>2022-06-25T08:25:15Z</time>
      </trkpt>
      <trkpt lat="46.56966" lon="4.97053">
        <ele>207</ele>
        <time>2022-06-25T08:25:16Z</time>
      </trkpt>
      <trkpt lat="46.56965" lon="4.97044">
        <ele>207</ele>
        <time>2022-06-25T08:25:17Z</time>
      </trkpt>
      <trkpt lat="46.56965" lon="4.97035">
        <ele>207</ele>
        <time>2022-06-25T08:25:18Z</time>
      </trkpt>
      <trkpt lat="46.56963" lon="4.97026">
        <ele>207</ele>
        <time>2022-06-25T08:25:19Z</time>
      </trkpt>
      <trkpt lat="46.56962" lon="4.97017">
        <ele>207</ele>
        <time>2022-06-25T08:25:20Z</time>
      </trkpt>
      <trkpt lat="46.56961" lon="4.97008">
        <ele>207</ele>
        <time>2022-06-25T08:25:21Z</time>
      </trkpt>
      <trkpt lat="46.56961" lon="4.96999">
        <ele>207</ele>
        <time>2022-06-25T08:25:22Z</time>
      </trkpt>
      <trkpt lat="46.5696" lon="4.9699">
        <ele>207</ele>
        <time>2022-06-25T08:25:23Z</time>
      </trkpt>
      <trkpt lat="46.56959" lon="4.9698">
        <ele>207</ele>
        <time>2022-06-25T08:25:24Z</time>
      </trkpt>
      <trkpt lat="46.56958" lon="4.96971">
        <ele>207</ele>
        <time>2022-06-25T08:25:25Z</time>
      </trkpt>
      <trkpt lat="46.56957" lon="4.96961">
        <ele>207</ele>
        <time>2022-06-25T08:25:26Z</time>
      </trkpt>
      <trkpt lat="46.56956" lon="4.96952">
        <ele>207</ele>
        <time>2022-06-25T08:25:27Z</time>
      </trkpt>
      <trkpt lat="46.56955" lon="4.96943">
        <ele>207</ele>
        <time>2022-06-25T08:25:28Z</time>
      </trkpt>
      <trkpt lat="46.56954" lon="4.96933">
        <ele>207</ele>
        <time>2022-06-25T08:25:29Z</time>
      </trkpt>
      <trkpt lat="46.56953" lon="4.96924">
        <ele>207</ele>
        <time>2022-06-25T08:25:30Z</time>
      </trkpt>
      <trkpt lat="46.56952" lon="4.96915">
        <ele>207</ele>
        <time>2022-06-25T08:25:31Z</time>
      </trkpt>
      <trkpt lat="46.56952" lon="4.96906">
        <ele>207</ele>
        <time>2022-06-25T08:25:32Z</time>
      </trkpt>
      <trkpt lat="46.56951" lon="4.96896">
        <ele>207</ele>
        <time>2022-06-25T08:25:33Z</time>
      </trkpt>
      <trkpt lat="46.56951" lon="4.96887">
        <ele>206.8</ele>
        <time>2022-06-25T08:25:34Z</time>
      </trkpt>
      <trkpt lat="46.56951" lon="4.96878">
        <ele>206.8</ele>
        <time>2022-06-25T08:25:35Z</time>
      </trkpt>
      <trkpt lat="46.56951" lon="4.96869">
        <ele>206.8</ele>
        <time>2022-06-25T08:25:36Z</time>
      </trkpt>
      <trkpt lat="46.5695" lon="4.9686">
        <ele>206.8</ele>
        <time>2022-06-25T08:25:37Z</time>
      </trkpt>
      <trkpt lat="46.56949" lon="4.9685">
        <ele>206.8</ele>
        <time>2022-06-25T08:25:38Z</time>
      </trkpt>
      <trkpt lat="46.56949" lon="4.96841">
        <ele>206.8</ele>
        <time>2022-06-25T08:25:39Z</time>
      </trkpt>
      <trkpt lat="46.56948" lon="4.96831">
        <ele>206.8</ele>
        <time>2022-06-25T08:25:40Z</time>
      </trkpt>
      <trkpt lat="46.56947" lon="4.96821">
        <ele>206.6</ele>
        <time>2022-06-25T08:25:41Z</time>
      </trkpt>
      <trkpt lat="46.56946" lon="4.96811">
        <ele>206.6</ele>
        <time>2022-06-25T08:25:42Z</time>
      </trkpt>
      <trkpt lat="46.56946" lon="4.96801">
        <ele>206.6</ele>
        <time>2022-06-25T08:25:43Z</time>
      </trkpt>
      <trkpt lat="46.56945" lon="4.96791">
        <ele>206.6</ele>
        <time>2022-06-25T08:25:44Z</time>
      </trkpt>
      <trkpt lat="46.56944" lon="4.96781">
        <ele>206.6</ele>
        <time>2022-06-25T08:25:45Z</time>
      </trkpt>
      <trkpt lat="46.56943" lon="4.96771">
        <ele>206.2</ele>
        <time>2022-06-25T08:25:46Z</time>
      </trkpt>
      <trkpt lat="46.56942" lon="4.96761">
        <ele>206.2</ele>
        <time>2022-06-25T08:25:47Z</time>
      </trkpt>
      <trkpt lat="46.56941" lon="4.96751">
        <ele>206.2</ele>
        <time>2022-06-25T08:25:48Z</time>
      </trkpt>
      <trkpt lat="46.56941" lon="4.96742">
        <ele>206</ele>
        <time>2022-06-25T08:25:49Z</time>
      </trkpt>
      <trkpt lat="46.5694" lon="4.96732">
        <ele>206</ele>
        <time>2022-06-25T08:25:50Z</time>
      </trkpt>
      <trkpt lat="46.56939" lon="4.96723">
        <ele>206</ele>
        <time>2022-06-25T08:25:51Z</time>
      </trkpt>
      <trkpt lat="46.56938" lon="4.96713">
        <ele>205.6</ele>
        <time>2022-06-25T08:25:52Z</time>
      </trkpt>
      <trkpt lat="46.56937" lon="4.96704">
        <ele>205.6</ele>
        <time>2022-06-25T08:25:53Z</time>
      </trkpt>
      <trkpt lat="46.56937" lon="4.96694">
        <ele>205.4</ele>
        <time>2022-06-25T08:25:54Z</time>
      </trkpt>
      <trkpt lat="46.56936" lon="4.96685">
        <ele>205.2</ele>
        <time>2022-06-25T08:25:55Z</time>
      </trkpt>
      <trkpt lat="46.56935" lon="4.96676">
        <ele>205.2</ele>
        <time>2022-06-25T08:25:56Z</time>
      </trkpt>
      <trkpt lat="46.56934" lon="4.96667">
        <ele>205.2</ele>
        <time>2022-06-25T08:25:57Z</time>
      </trkpt>
      <trkpt lat="46.56933" lon="4.96658">
        <ele>205.2</ele>
        <time>2022-06-25T08:25:58Z</time>
      </trkpt>
      <trkpt lat="46.56932" lon="4.96648">
        <ele>205.2</ele>
        <time>2022-06-25T08:25:59Z</time>
      </trkpt>
      <trkpt lat="46.56932" lon="4.96639">
        <ele>205.2</ele>
        <time>2022-06-25T08:26:00Z</time>
      </trkpt>
      <trkpt lat="46.56931" lon="4.96629">
        <ele>205</ele>
        <time>2022-06-25T08:26:01Z</time>
      </trkpt>
      <trkpt lat="46.5693" lon="4.9662">
        <ele>205</ele>
        <time>2022-06-25T08:26:02Z</time>
      </trkpt>
      <trkpt lat="46.56929" lon="4.9661">
        <ele>205</ele>
        <time>2022-06-25T08:26:03Z</time>
      </trkpt>
      <trkpt lat="46.56928" lon="4.966">
        <ele>204.6</ele>
        <time>2022-06-25T08:26:04Z</time>
      </trkpt>
      <trkpt lat="46.56927" lon="4.9659">
        <ele>204.6</ele>
        <time>2022-06-25T08:26:05Z</time>
      </trkpt>
      <trkpt lat="46.56926" lon="4.96581">
        <ele>204.6</ele>
        <time>2022-06-25T08:26:06Z</time>
      </trkpt>
      <trkpt lat="46.56925" lon="4.96571">
        <ele>204.4</ele>
        <time>2022-06-25T08:26:07Z</time>
      </trkpt>
      <trkpt lat="46.56924" lon="4.96562">
        <ele>204.4</ele>
        <time>2022-06-25T08:26:08Z</time>
      </trkpt>
      <trkpt lat="46.56924" lon="4.96552">
        <ele>204.4</ele>
        <time>2022-06-25T08:26:09Z</time>
      </trkpt>
      <trkpt lat="46.56923" lon="4.96542">
        <ele>204.4</ele>
        <time>2022-06-25T08:26:10Z</time>
      </trkpt>
      <trkpt lat="46.56923" lon="4.96533">
        <ele>204.4</ele>
        <time>2022-06-25T08:26:11Z</time>
      </trkpt>
      <trkpt lat="46.56922" lon="4.96523">
        <ele>204.4</ele>
        <time>2022-06-25T08:26:12Z</time>
      </trkpt>
      <trkpt lat="46.56922" lon="4.96514">
        <ele>204.4</ele>
        <time>2022-06-25T08:26:13Z</time>
      </trkpt>
      <trkpt lat="46.56921" lon="4.96504">
        <ele>204.4</ele>
        <time>2022-06-25T08:26:14Z</time>
      </trkpt>
      <trkpt lat="46.56921" lon="4.96494">
        <ele>204.2</ele>
        <time>2022-06-25T08:26:15Z</time>
      </trkpt>
      <trkpt lat="46.56921" lon="4.96484">
        <ele>204.2</ele>
        <time>2022-06-25T08:26:16Z</time>
      </trkpt>
      <trkpt lat="46.56921" lon="4.96474">
        <ele>204.2</ele>
        <time>2022-06-25T08:26:17Z</time>
      </trkpt>
      <trkpt lat="46.5692" lon="4.96464">
        <ele>204</ele>
        <time>2022-06-25T08:26:18Z</time>
      </trkpt>
      <trkpt lat="46.5692" lon="4.96454">
        <ele>204</ele>
        <time>2022-06-25T08:26:19Z</time>
      </trkpt>
      <trkpt lat="46.5692" lon="4.96444">
        <ele>204</ele>
        <time>2022-06-25T08:26:20Z</time>
      </trkpt>
      <trkpt lat="46.56919" lon="4.96433">
        <ele>203.6</ele>
        <time>2022-06-25T08:26:21Z</time>
      </trkpt>
      <trkpt lat="46.56919" lon="4.96423">
        <ele>203.6</ele>
        <time>2022-06-25T08:26:22Z</time>
      </trkpt>
      <trkpt lat="46.56919" lon="4.96413">
        <ele>203.6</ele>
        <time>2022-06-25T08:26:23Z</time>
      </trkpt>
      <trkpt lat="46.56918" lon="4.96403">
        <ele>203.6</ele>
        <time>2022-06-25T08:26:24Z</time>
      </trkpt>
      <trkpt lat="46.56918" lon="4.96393">
        <ele>203.4</ele>
        <time>2022-06-25T08:26:25Z</time>
      </trkpt>
      <trkpt lat="46.56918" lon="4.96383">
        <ele>203.4</ele>
        <time>2022-06-25T08:26:26Z</time>
      </trkpt>
      <trkpt lat="46.56917" lon="4.96372">
        <ele>203.4</ele>
        <time>2022-06-25T08:26:27Z</time>
      </trkpt>
      <trkpt lat="46.56917" lon="4.96362">
        <ele>203.4</ele>
        <time>2022-06-25T08:26:28Z</time>
      </trkpt>
      <trkpt lat="46.56917" lon="4.96351">
        <ele>203.2</ele>
        <time>2022-06-25T08:26:29Z</time>
      </trkpt>
      <trkpt lat="46.56917" lon="4.96341">
        <ele>203.2</ele>
        <time>2022-06-25T08:26:30Z</time>
      </trkpt>
      <trkpt lat="46.56916" lon="4.9633">
        <ele>203.2</ele>
        <time>2022-06-25T08:26:31Z</time>
      </trkpt>
      <trkpt lat="46.56916" lon="4.9632">
        <ele>203</ele>
        <time>2022-06-25T08:26:32Z</time>
      </trkpt>
      <trkpt lat="46.56916" lon="4.96309">
        <ele>203</ele>
        <time>2022-06-25T08:26:33Z</time>
      </trkpt>
      <trkpt lat="46.56915" lon="4.96299">
        <ele>202.8</ele>
        <time>2022-06-25T08:26:34Z</time>
      </trkpt>
      <trkpt lat="46.56915" lon="4.96288">
        <ele>202.8</ele>
        <time>2022-06-25T08:26:35Z</time>
      </trkpt>
      <trkpt lat="46.56915" lon="4.96278">
        <ele>202.8</ele>
        <time>2022-06-25T08:26:36Z</time>
      </trkpt>
      <trkpt lat="46.56914" lon="4.96267">
        <ele>202.8</ele>
        <time>2022-06-25T08:26:37Z</time>
      </trkpt>
      <trkpt lat="46.56914" lon="4.96256">
        <ele>202.8</ele>
        <time>2022-06-25T08:26:38Z</time>
      </trkpt>
      <trkpt lat="46.56914" lon="4.96246">
        <ele>202.4</ele>
        <time>2022-06-25T08:26:39Z</time>
      </trkpt>
      <trkpt lat="46.56914" lon="4.96235">
        <ele>202.4</ele>
        <time>2022-06-25T08:26:40Z</time>
      </trkpt>
      <trkpt lat="46.56914" lon="4.96225">
        <ele>202.4</ele>
        <time>2022-06-25T08:26:41Z</time>
      </trkpt>
      <trkpt lat="46.56914" lon="4.96214">
        <ele>202.2</ele>
        <time>2022-06-25T08:26:42Z</time>
      </trkpt>
      <trkpt lat="46.56914" lon="4.96204">
        <ele>202.2</ele>
        <time>2022-06-25T08:26:43Z</time>
      </trkpt>
      <trkpt lat="46.56913" lon="4.96193">
        <ele>202.2</ele>
        <time>2022-06-25T08:26:44Z</time>
      </trkpt>
      <trkpt lat="46.56913" lon="4.96183">
        <ele>202</ele>
        <time>2022-06-25T08:26:45Z</time>
      </trkpt>
      <trkpt lat="46.56912" lon="4.96172">
        <ele>202</ele>
        <time>2022-06-25T08:26:46Z</time>
      </trkpt>
      <trkpt lat="46.56912" lon="4.96162">
        <ele>202</ele>
        <time>2022-06-25T08:26:47Z</time>
      </trkpt>
      <trkpt lat="46.56911" lon="4.96152">
        <ele>202</ele>
        <time>2022-06-25T08:26:48Z</time>
      </trkpt>
      <trkpt lat="46.56911" lon="4.96142">
        <ele>202</ele>
        <time>2022-06-25T08:26:49Z</time>
      </trkpt>
      <trkpt lat="46.5691" lon="4.96132">
        <ele>202</ele>
        <time>2022-06-25T08:26:50Z</time>
      </trkpt>
      <trkpt lat="46.5691" lon="4.96122">
        <ele>201.8</ele>
        <time>2022-06-25T08:26:51Z</time>
      </trkpt>
      <trkpt lat="46.5691" lon="4.96112">
        <ele>201.8</ele>
        <time>2022-06-25T08:26:52Z</time>
      </trkpt>
      <trkpt lat="46.56909" lon="4.96102">
        <ele>201.6</ele>
        <time>2022-06-25T08:26:53Z</time>
      </trkpt>
      <trkpt lat="46.56909" lon="4.96092">
        <ele>201.6</ele>
        <time>2022-06-25T08:26:54Z</time>
      </trkpt>
      <trkpt lat="46.56908" lon="4.96081">
        <ele>201.6</ele>
        <time>2022-06-25T08:26:55Z</time>
      </trkpt>
      <trkpt lat="46.56908" lon="4.96071">
        <ele>201.4</ele>
        <time>2022-06-25T08:26:57Z</time>
      </trkpt>
      <trkpt lat="46.56908" lon="4.9606">
        <ele>201</ele>
        <time>2022-06-25T08:26:58Z</time>
      </trkpt>
      <trkpt lat="46.56907" lon="4.9605">
        <ele>201</ele>
        <time>2022-06-25T08:26:59Z</time>
      </trkpt>
      <trkpt lat="46.56907" lon="4.96039">
        <ele>200.8</ele>
        <time>2022-06-25T08:27:00Z</time>
      </trkpt>
      <trkpt lat="46.56907" lon="4.96028">
        <ele>200.8</ele>
        <time>2022-06-25T08:27:01Z</time>
      </trkpt>
      <trkpt lat="46.56907" lon="4.96018">
        <ele>200.8</ele>
        <time>2022-06-25T08:27:02Z</time>
      </trkpt>
      <trkpt lat="46.56906" lon="4.96008">
        <ele>200.8</ele>
        <time>2022-06-25T08:27:03Z</time>
      </trkpt>
      <trkpt lat="46.56905" lon="4.95998">
        <ele>200.6</ele>
        <time>2022-06-25T08:27:04Z</time>
      </trkpt>
      <trkpt lat="46.56904" lon="4.95988">
        <ele>200.6</ele>
        <time>2022-06-25T08:27:05Z</time>
      </trkpt>
      <trkpt lat="46.56903" lon="4.95978">
        <ele>200.6</ele>
        <time>2022-06-25T08:27:06Z</time>
      </trkpt>
      <trkpt lat="46.56901" lon="4.95968">
        <ele>200.6</ele>
        <time>2022-06-25T08:27:07Z</time>
      </trkpt>
      <trkpt lat="46.56899" lon="4.95959">
        <ele>200.6</ele>
        <time>2022-06-25T08:27:08Z</time>
      </trkpt>
      <trkpt lat="46.56896" lon="4.95949">
        <ele>200.4</ele>
        <time>2022-06-25T08:27:09Z</time>
      </trkpt>
      <trkpt lat="46.56892" lon="4.95941">
        <ele>200.4</ele>
        <time>2022-06-25T08:27:10Z</time>
      </trkpt>
      <trkpt lat="46.56889" lon="4.95932">
        <ele>200.2</ele>
        <time>2022-06-25T08:27:11Z</time>
      </trkpt>
      <trkpt lat="46.56885" lon="4.95923">
        <ele>200.2</ele>
        <time>2022-06-25T08:27:12Z</time>
      </trkpt>
      <trkpt lat="46.56882" lon="4.95914">
        <ele>199.8</ele>
        <time>2022-06-25T08:27:13Z</time>
      </trkpt>
      <trkpt lat="46.56878" lon="4.95905">
        <ele>199.4</ele>
        <time>2022-06-25T08:27:14Z</time>
      </trkpt>
      <trkpt lat="46.56874" lon="4.95896">
        <ele>199.2</ele>
        <time>2022-06-25T08:27:15Z</time>
      </trkpt>
      <trkpt lat="46.5687" lon="4.95886">
        <ele>199</ele>
        <time>2022-06-25T08:27:16Z</time>
      </trkpt>
      <trkpt lat="46.56866" lon="4.95877">
        <ele>198.8</ele>
        <time>2022-06-25T08:27:17Z</time>
      </trkpt>
      <trkpt lat="46.56862" lon="4.95867">
        <ele>198.4</ele>
        <time>2022-06-25T08:27:18Z</time>
      </trkpt>
      <trkpt lat="46.56858" lon="4.95857">
        <ele>198.2</ele>
        <time>2022-06-25T08:27:19Z</time>
      </trkpt>
      <trkpt lat="46.56854" lon="4.95847">
        <ele>198</ele>
        <time>2022-06-25T08:27:20Z</time>
      </trkpt>
      <trkpt lat="46.56849" lon="4.95837">
        <ele>197.6</ele>
        <time>2022-06-25T08:27:21Z</time>
      </trkpt>
      <trkpt lat="46.56845" lon="4.95826">
        <ele>197.4</ele>
        <time>2022-06-25T08:27:22Z</time>
      </trkpt>
      <trkpt lat="46.5684" lon="4.95816">
        <ele>197.2</ele>
        <time>2022-06-25T08:27:23Z</time>
      </trkpt>
      <trkpt lat="46.56836" lon="4.95806">
        <ele>196.8</ele>
        <time>2022-06-25T08:27:24Z</time>
      </trkpt>
      <trkpt lat="46.56831" lon="4.95795">
        <ele>196.8</ele>
        <time>2022-06-25T08:27:25Z</time>
      </trkpt>
      <trkpt lat="46.56826" lon="4.95785">
        <ele>196.6</ele>
        <time>2022-06-25T08:27:26Z</time>
      </trkpt>
      <trkpt lat="46.56822" lon="4.95775">
        <ele>196.6</ele>
        <time>2022-06-25T08:27:27Z</time>
      </trkpt>
      <trkpt lat="46.56818" lon="4.95764">
        <ele>196.2</ele>
        <time>2022-06-25T08:27:28Z</time>
      </trkpt>
      <trkpt lat="46.56813" lon="4.95752">
        <ele>196</ele>
        <time>2022-06-25T08:27:29Z</time>
      </trkpt>
      <trkpt lat="46.56809" lon="4.95741">
        <ele>195.6</ele>
        <time>2022-06-25T08:27:30Z</time>
      </trkpt>
      <trkpt lat="46.56805" lon="4.9573">
        <ele>195.2</ele>
        <time>2022-06-25T08:27:31Z</time>
      </trkpt>
      <trkpt lat="46.568" lon="4.95718">
        <ele>194.8</ele>
        <time>2022-06-25T08:27:32Z</time>
      </trkpt>
      <trkpt lat="46.56796" lon="4.95706">
        <ele>194.6</ele>
        <time>2022-06-25T08:27:33Z</time>
      </trkpt>
      <trkpt lat="46.56792" lon="4.95693">
        <ele>194.6</ele>
        <time>2022-06-25T08:27:34Z</time>
      </trkpt>
      <trkpt lat="46.56789" lon="4.95682">
        <ele>194.2</ele>
        <time>2022-06-25T08:27:35Z</time>
      </trkpt>
      <trkpt lat="46.56786" lon="4.95669">
        <ele>194</ele>
        <time>2022-06-25T08:27:36Z</time>
      </trkpt>
      <trkpt lat="46.56783" lon="4.95657">
        <ele>194</ele>
        <time>2022-06-25T08:27:37Z</time>
      </trkpt>
      <trkpt lat="46.5678" lon="4.95644">
        <ele>193.6</ele>
        <time>2022-06-25T08:27:38Z</time>
      </trkpt>
      <trkpt lat="46.56777" lon="4.95632">
        <ele>193.2</ele>
        <time>2022-06-25T08:27:39Z</time>
      </trkpt>
      <trkpt lat="46.56773" lon="4.9562">
        <ele>193.2</ele>
        <time>2022-06-25T08:27:40Z</time>
      </trkpt>
      <trkpt lat="46.5677" lon="4.95609">
        <ele>192.8</ele>
        <time>2022-06-25T08:27:41Z</time>
      </trkpt>
      <trkpt lat="46.56767" lon="4.95597">
        <ele>192.8</ele>
        <time>2022-06-25T08:27:42Z</time>
      </trkpt>
      <trkpt lat="46.56763" lon="4.95586">
        <ele>192.6</ele>
        <time>2022-06-25T08:27:43Z</time>
      </trkpt>
      <trkpt lat="46.5676" lon="4.95574">
        <ele>192.6</ele>
        <time>2022-06-25T08:27:44Z</time>
      </trkpt>
      <trkpt lat="46.56757" lon="4.95563">
        <ele>192.6</ele>
        <time>2022-06-25T08:27:45Z</time>
      </trkpt>
      <trkpt lat="46.56754" lon="4.95551">
        <ele>192.2</ele>
        <time>2022-06-25T08:27:46Z</time>
      </trkpt>
      <trkpt lat="46.56751" lon="4.9554">
        <ele>192.2</ele>
        <time>2022-06-25T08:27:47Z</time>
      </trkpt>
      <trkpt lat="46.56748" lon="4.95529">
        <ele>192.2</ele>
        <time>2022-06-25T08:27:48Z</time>
      </trkpt>
      <trkpt lat="46.56745" lon="4.95519">
        <ele>192.2</ele>
        <time>2022-06-25T08:27:49Z</time>
      </trkpt>
      <trkpt lat="46.56743" lon="4.95508">
        <ele>192</ele>
        <time>2022-06-25T08:27:50Z</time>
      </trkpt>
      <trkpt lat="46.56741" lon="4.95497">
        <ele>192</ele>
        <time>2022-06-25T08:27:51Z</time>
      </trkpt>
      <trkpt lat="46.5674" lon="4.95486">
        <ele>191.8</ele>
        <time>2022-06-25T08:27:52Z</time>
      </trkpt>
      <trkpt lat="46.5674" lon="4.95475">
        <ele>191.8</ele>
        <time>2022-06-25T08:27:53Z</time>
      </trkpt>
      <trkpt lat="46.5674" lon="4.95465">
        <ele>191.8</ele>
        <time>2022-06-25T08:27:54Z</time>
      </trkpt>
      <trkpt lat="46.56741" lon="4.95455">
        <ele>191.8</ele>
        <time>2022-06-25T08:27:55Z</time>
      </trkpt>
      <trkpt lat="46.56742" lon="4.95445">
        <ele>191.8</ele>
        <time>2022-06-25T08:27:56Z</time>
      </trkpt>
      <trkpt lat="46.56744" lon="4.95435">
        <ele>191.8</ele>
        <time>2022-06-25T08:27:57Z</time>
      </trkpt>
      <trkpt lat="46.56745" lon="4.95425">
        <ele>191.8</ele>
        <time>2022-06-25T08:27:58Z</time>
      </trkpt>
      <trkpt lat="46.56747" lon="4.95416">
        <ele>191.8</ele>
        <time>2022-06-25T08:27:59Z</time>
      </trkpt>
      <trkpt lat="46.56749" lon="4.95406">
        <ele>191.8</ele>
        <time>2022-06-25T08:28:00Z</time>
      </trkpt>
      <trkpt lat="46.56751" lon="4.95397">
        <ele>191.8</ele>
        <time>2022-06-25T08:28:01Z</time>
      </trkpt>
      <trkpt lat="46.56752" lon="4.95388">
        <ele>191.8</ele>
        <time>2022-06-25T08:28:02Z</time>
      </trkpt>
      <trkpt lat="46.56754" lon="4.95379">
        <ele>191.6</ele>
        <time>2022-06-25T08:28:03Z</time>
      </trkpt>
      <trkpt lat="46.56755" lon="4.9537">
        <ele>191.6</ele>
        <time>2022-06-25T08:28:04Z</time>
      </trkpt>
      <trkpt lat="46.56757" lon="4.95361">
        <ele>191.6</ele>
        <time>2022-06-25T08:28:05Z</time>
      </trkpt>
      <trkpt lat="46.56759" lon="4.95353">
        <ele>191.6</ele>
        <time>2022-06-25T08:28:06Z</time>
      </trkpt>
      <trkpt lat="46.56761" lon="4.95344">
        <ele>191.6</ele>
        <time>2022-06-25T08:28:07Z</time>
      </trkpt>
      <trkpt lat="46.56762" lon="4.95335">
        <ele>191.2</ele>
        <time>2022-06-25T08:28:08Z</time>
      </trkpt>
      <trkpt lat="46.56764" lon="4.95326">
        <ele>191.2</ele>
        <time>2022-06-25T08:28:09Z</time>
      </trkpt>
      <trkpt lat="46.56766" lon="4.95317">
        <ele>191.2</ele>
        <time>2022-06-25T08:28:10Z</time>
      </trkpt>
      <trkpt lat="46.56768" lon="4.95308">
        <ele>191.2</ele>
        <time>2022-06-25T08:28:11Z</time>
      </trkpt>
      <trkpt lat="46.56769" lon="4.95299">
        <ele>191.2</ele>
        <time>2022-06-25T08:28:12Z</time>
      </trkpt>
      <trkpt lat="46.56771" lon="4.9529">
        <ele>191.2</ele>
        <time>2022-06-25T08:28:13Z</time>
      </trkpt>
      <trkpt lat="46.56773" lon="4.95281">
        <ele>191.2</ele>
        <time>2022-06-25T08:28:14Z</time>
      </trkpt>
      <trkpt lat="46.56775" lon="4.95272">
        <ele>191.2</ele>
        <time>2022-06-25T08:28:15Z</time>
      </trkpt>
      <trkpt lat="46.56776" lon="4.95263">
        <ele>191.2</ele>
        <time>2022-06-25T08:28:16Z</time>
      </trkpt>
      <trkpt lat="46.56778" lon="4.95254">
        <ele>191.2</ele>
        <time>2022-06-25T08:28:17Z</time>
      </trkpt>
      <trkpt lat="46.56779" lon="4.95245">
        <ele>191.2</ele>
        <time>2022-06-25T08:28:18Z</time>
      </trkpt>
      <trkpt lat="46.56781" lon="4.95236">
        <ele>191.2</ele>
        <time>2022-06-25T08:28:19Z</time>
      </trkpt>
      <trkpt lat="46.56783" lon="4.95227">
        <ele>191.2</ele>
        <time>2022-06-25T08:28:20Z</time>
      </trkpt>
      <trkpt lat="46.56784" lon="4.95219">
        <ele>191.2</ele>
        <time>2022-06-25T08:28:21Z</time>
      </trkpt>
      <trkpt lat="46.56786" lon="4.9521">
        <ele>191.2</ele>
        <time>2022-06-25T08:28:22Z</time>
      </trkpt>
      <trkpt lat="46.56787" lon="4.95201">
        <ele>191</ele>
        <time>2022-06-25T08:28:23Z</time>
      </trkpt>
      <trkpt lat="46.56789" lon="4.95192">
        <ele>191</ele>
        <time>2022-06-25T08:28:24Z</time>
      </trkpt>
      <trkpt lat="46.5679" lon="4.95184">
        <ele>191</ele>
        <time>2022-06-25T08:28:25Z</time>
      </trkpt>
      <trkpt lat="46.56791" lon="4.95175">
        <ele>191</ele>
        <time>2022-06-25T08:28:26Z</time>
      </trkpt>
      <trkpt lat="46.56793" lon="4.95167">
        <ele>190.8</ele>
        <time>2022-06-25T08:28:27Z</time>
      </trkpt>
      <trkpt lat="46.56794" lon="4.95158">
        <ele>190.8</ele>
        <time>2022-06-25T08:28:28Z</time>
      </trkpt>
      <trkpt lat="46.56795" lon="4.9515">
        <ele>190.8</ele>
        <time>2022-06-25T08:28:29Z</time>
      </trkpt>
      <trkpt lat="46.56796" lon="4.95142">
        <ele>190.8</ele>
        <time>2022-06-25T08:28:30Z</time>
      </trkpt>
      <trkpt lat="46.56797" lon="4.95134">
        <ele>190.8</ele>
        <time>2022-06-25T08:28:31Z</time>
      </trkpt>
      <trkpt lat="46.56798" lon="4.95127">
        <ele>190.8</ele>
        <time>2022-06-25T08:28:32Z</time>
      </trkpt>
      <trkpt lat="46.56798" lon="4.95119">
        <ele>190.8</ele>
        <time>2022-06-25T08:28:33Z</time>
      </trkpt>
      <trkpt lat="46.56799" lon="4.95111">
        <ele>190.8</ele>
        <time>2022-06-25T08:28:34Z</time>
      </trkpt>
      <trkpt lat="46.568" lon="4.95104">
        <ele>190.8</ele>
        <time>2022-06-25T08:28:35Z</time>
      </trkpt>
      <trkpt lat="46.568" lon="4.95096">
        <ele>190.8</ele>
        <time>2022-06-25T08:28:36Z</time>
      </trkpt>
      <trkpt lat="46.56801" lon="4.95089">
        <ele>190.8</ele>
        <time>2022-06-25T08:28:37Z</time>
      </trkpt>
      <trkpt lat="46.56801" lon="4.95082">
        <ele>190.8</ele>
        <time>2022-06-25T08:28:38Z</time>
      </trkpt>
      <trkpt lat="46.56801" lon="4.95075">
        <ele>190.8</ele>
        <time>2022-06-25T08:28:39Z</time>
      </trkpt>
      <trkpt lat="46.56802" lon="4.95067">
        <ele>190.8</ele>
        <time>2022-06-25T08:28:40Z</time>
      </trkpt>
      <trkpt lat="46.56803" lon="4.9506">
        <ele>190.6</ele>
        <time>2022-06-25T08:28:41Z</time>
      </trkpt>
      <trkpt lat="46.56803" lon="4.95053">
        <ele>190.6</ele>
        <time>2022-06-25T08:28:42Z</time>
      </trkpt>
      <trkpt lat="46.56804" lon="4.95045">
        <ele>190.6</ele>
        <time>2022-06-25T08:28:43Z</time>
      </trkpt>
      <trkpt lat="46.56804" lon="4.95038">
        <ele>190.6</ele>
        <time>2022-06-25T08:28:44Z</time>
      </trkpt>
      <trkpt lat="46.56804" lon="4.9503">
        <ele>190.6</ele>
        <time>2022-06-25T08:28:45Z</time>
      </trkpt>
      <trkpt lat="46.56805" lon="4.95022">
        <ele>190.6</ele>
        <time>2022-06-25T08:28:46Z</time>
      </trkpt>
      <trkpt lat="46.56805" lon="4.95015">
        <ele>190.6</ele>
        <time>2022-06-25T08:28:47Z</time>
      </trkpt>
      <trkpt lat="46.56806" lon="4.95007">
        <ele>190.6</ele>
        <time>2022-06-25T08:28:48Z</time>
      </trkpt>
      <trkpt lat="46.56806" lon="4.94999">
        <ele>190.4</ele>
        <time>2022-06-25T08:28:49Z</time>
      </trkpt>
      <trkpt lat="46.56807" lon="4.9499">
        <ele>190.4</ele>
        <time>2022-06-25T08:28:50Z</time>
      </trkpt>
      <trkpt lat="46.56807" lon="4.94982">
        <ele>190.4</ele>
        <time>2022-06-25T08:28:51Z</time>
      </trkpt>
      <trkpt lat="46.56808" lon="4.94974">
        <ele>190.4</ele>
        <time>2022-06-25T08:28:52Z</time>
      </trkpt>
      <trkpt lat="46.56808" lon="4.94965">
        <ele>190.4</ele>
        <time>2022-06-25T08:28:53Z</time>
      </trkpt>
      <trkpt lat="46.56809" lon="4.94957">
        <ele>190.4</ele>
        <time>2022-06-25T08:28:54Z</time>
      </trkpt>
      <trkpt lat="46.5681" lon="4.94949">
        <ele>190.4</ele>
        <time>2022-06-25T08:28:55Z</time>
      </trkpt>
      <trkpt lat="46.5681" lon="4.9494">
        <ele>190.4</ele>
        <time>2022-06-25T08:28:56Z</time>
      </trkpt>
      <trkpt lat="46.56811" lon="4.94927">
        <ele>190.4</ele>
        <time>2022-06-25T08:28:57Z</time>
      </trkpt>
      <trkpt lat="46.56811" lon="4.94923">
        <ele>190.4</ele>
        <time>2022-06-25T08:28:58Z</time>
      </trkpt>
      <trkpt lat="46.56812" lon="4.94915">
        <ele>190</ele>
        <time>2022-06-25T08:28:59Z</time>
      </trkpt>
      <trkpt lat="46.56812" lon="4.94906">
        <ele>190</ele>
        <time>2022-06-25T08:29:00Z</time>
      </trkpt>
      <trkpt lat="46.56813" lon="4.94898">
        <ele>189.8</ele>
        <time>2022-06-25T08:29:01Z</time>
      </trkpt>
      <trkpt lat="46.56813" lon="4.94889">
        <ele>189.8</ele>
        <time>2022-06-25T08:29:02Z</time>
      </trkpt>
      <trkpt lat="46.56814" lon="4.9488">
        <ele>189.6</ele>
        <time>2022-06-25T08:29:03Z</time>
      </trkpt>
      <trkpt lat="46.56815" lon="4.94872">
        <ele>189.6</ele>
        <time>2022-06-25T08:29:04Z</time>
      </trkpt>
      <trkpt lat="46.56815" lon="4.94863">
        <ele>189.4</ele>
        <time>2022-06-25T08:29:05Z</time>
      </trkpt>
      <trkpt lat="46.56816" lon="4.94855">
        <ele>189.4</ele>
        <time>2022-06-25T08:29:06Z</time>
      </trkpt>
      <trkpt lat="46.56817" lon="4.94846">
        <ele>189.4</ele>
        <time>2022-06-25T08:29:07Z</time>
      </trkpt>
      <trkpt lat="46.56817" lon="4.94837">
        <ele>189</ele>
        <time>2022-06-25T08:29:08Z</time>
      </trkpt>
      <trkpt lat="46.56818" lon="4.94828">
        <ele>189</ele>
        <time>2022-06-25T08:29:09Z</time>
      </trkpt>
      <trkpt lat="46.56818" lon="4.94819">
        <ele>189</ele>
        <time>2022-06-25T08:29:10Z</time>
      </trkpt>
      <trkpt lat="46.56819" lon="4.9481">
        <ele>189</ele>
        <time>2022-06-25T08:29:11Z</time>
      </trkpt>
      <trkpt lat="46.56819" lon="4.94801">
        <ele>188.8</ele>
        <time>2022-06-25T08:29:12Z</time>
      </trkpt>
      <trkpt lat="46.5682" lon="4.94792">
        <ele>188.8</ele>
        <time>2022-06-25T08:29:13Z</time>
      </trkpt>
      <trkpt lat="46.56821" lon="4.94783">
        <ele>188.8</ele>
        <time>2022-06-25T08:29:14Z</time>
      </trkpt>
      <trkpt lat="46.56821" lon="4.94774">
        <ele>188.8</ele>
        <time>2022-06-25T08:29:15Z</time>
      </trkpt>
      <trkpt lat="46.56822" lon="4.94765">
        <ele>188.8</ele>
        <time>2022-06-25T08:29:16Z</time>
      </trkpt>
      <trkpt lat="46.56822" lon="4.94755">
        <ele>188.8</ele>
        <time>2022-06-25T08:29:17Z</time>
      </trkpt>
      <trkpt lat="46.56823" lon="4.94746">
        <ele>188.8</ele>
        <time>2022-06-25T08:29:18Z</time>
      </trkpt>
      <trkpt lat="46.56823" lon="4.94737">
        <ele>188.8</ele>
        <time>2022-06-25T08:29:19Z</time>
      </trkpt>
      <trkpt lat="46.56825" lon="4.94718">
        <ele>188.8</ele>
        <time>2022-06-25T08:29:20Z</time>
      </trkpt>
      <trkpt lat="46.56825" lon="4.94709">
        <ele>188.8</ele>
        <time>2022-06-25T08:29:21Z</time>
      </trkpt>
      <trkpt lat="46.56826" lon="4.947">
        <ele>188.6</ele>
        <time>2022-06-25T08:29:22Z</time>
      </trkpt>
      <trkpt lat="46.56827" lon="4.94691">
        <ele>188.6</ele>
        <time>2022-06-25T08:29:23Z</time>
      </trkpt>
      <trkpt lat="46.56827" lon="4.94682">
        <ele>188.6</ele>
        <time>2022-06-25T08:29:24Z</time>
      </trkpt>
      <trkpt lat="46.56828" lon="4.94673">
        <ele>188.6</ele>
        <time>2022-06-25T08:29:25Z</time>
      </trkpt>
      <trkpt lat="46.56828" lon="4.94664">
        <ele>188.6</ele>
        <time>2022-06-25T08:29:26Z</time>
      </trkpt>
      <trkpt lat="46.56829" lon="4.94656">
        <ele>188.6</ele>
        <time>2022-06-25T08:29:27Z</time>
      </trkpt>
      <trkpt lat="46.5683" lon="4.94647">
        <ele>188.6</ele>
        <time>2022-06-25T08:29:28Z</time>
      </trkpt>
      <trkpt lat="46.56831" lon="4.94638">
        <ele>188.6</ele>
        <time>2022-06-25T08:29:29Z</time>
      </trkpt>
      <trkpt lat="46.56832" lon="4.94629">
        <ele>188.4</ele>
        <time>2022-06-25T08:29:30Z</time>
      </trkpt>
      <trkpt lat="46.56832" lon="4.94621">
        <ele>188.4</ele>
        <time>2022-06-25T08:29:31Z</time>
      </trkpt>
      <trkpt lat="46.56833" lon="4.94612">
        <ele>188.4</ele>
        <time>2022-06-25T08:29:32Z</time>
      </trkpt>
      <trkpt lat="46.56833" lon="4.94604">
        <ele>188.4</ele>
        <time>2022-06-25T08:29:33Z</time>
      </trkpt>
      <trkpt lat="46.56834" lon="4.94596">
        <ele>188.4</ele>
        <time>2022-06-25T08:29:34Z</time>
      </trkpt>
      <trkpt lat="46.56834" lon="4.94588">
        <ele>188.4</ele>
        <time>2022-06-25T08:29:35Z</time>
      </trkpt>
      <trkpt lat="46.56835" lon="4.94581">
        <ele>188.4</ele>
        <time>2022-06-25T08:29:36Z</time>
      </trkpt>
      <trkpt lat="46.56835" lon="4.94573">
        <ele>188.4</ele>
        <time>2022-06-25T08:29:37Z</time>
      </trkpt>
      <trkpt lat="46.56835" lon="4.94566">
        <ele>188.4</ele>
        <time>2022-06-25T08:29:38Z</time>
      </trkpt>
      <trkpt lat="46.56836" lon="4.94559">
        <ele>188.4</ele>
        <time>2022-06-25T08:29:39Z</time>
      </trkpt>
      <trkpt lat="46.56836" lon="4.94552">
        <ele>188.4</ele>
        <time>2022-06-25T08:29:40Z</time>
      </trkpt>
      <trkpt lat="46.56837" lon="4.94546">
        <ele>188.4</ele>
        <time>2022-06-25T08:29:41Z</time>
      </trkpt>
      <trkpt lat="46.56837" lon="4.94539">
        <ele>188.4</ele>
        <time>2022-06-25T08:29:42Z</time>
      </trkpt>
      <trkpt lat="46.56838" lon="4.94533">
        <ele>188.4</ele>
        <time>2022-06-25T08:29:43Z</time>
      </trkpt>
      <trkpt lat="46.56838" lon="4.94526">
        <ele>188.4</ele>
        <time>2022-06-25T08:29:44Z</time>
      </trkpt>
      <trkpt lat="46.56838" lon="4.9452">
        <ele>188.4</ele>
        <time>2022-06-25T08:29:45Z</time>
      </trkpt>
      <trkpt lat="46.56838" lon="4.94514">
        <ele>188.4</ele>
        <time>2022-06-25T08:29:46Z</time>
      </trkpt>
      <trkpt lat="46.56839" lon="4.94508">
        <ele>188.4</ele>
        <time>2022-06-25T08:29:47Z</time>
      </trkpt>
      <trkpt lat="46.56839" lon="4.94502">
        <ele>188.4</ele>
        <time>2022-06-25T08:29:48Z</time>
      </trkpt>
      <trkpt lat="46.56839" lon="4.94496">
        <ele>188.4</ele>
        <time>2022-06-25T08:29:49Z</time>
      </trkpt>
      <trkpt lat="46.56839" lon="4.9449">
        <ele>188.4</ele>
        <time>2022-06-25T08:29:50Z</time>
      </trkpt>
      <trkpt lat="46.56839" lon="4.94484">
        <ele>188.4</ele>
        <time>2022-06-25T08:29:51Z</time>
      </trkpt>
      <trkpt lat="46.5684" lon="4.94478">
        <ele>188.4</ele>
        <time>2022-06-25T08:29:52Z</time>
      </trkpt>
      <trkpt lat="46.56841" lon="4.94473">
        <ele>188.4</ele>
        <time>2022-06-25T08:29:53Z</time>
      </trkpt>
      <trkpt lat="46.56842" lon="4.94469">
        <ele>188.4</ele>
        <time>2022-06-25T08:29:54Z</time>
      </trkpt>
      <trkpt lat="46.56843" lon="4.94465">
        <ele>188.4</ele>
        <time>2022-06-25T08:29:55Z</time>
      </trkpt>
      <trkpt lat="46.56844" lon="4.94462">
        <ele>188.4</ele>
        <time>2022-06-25T08:29:56Z</time>
      </trkpt>
      <trkpt lat="46.56846" lon="4.94458">
        <ele>188.4</ele>
        <time>2022-06-25T08:29:57Z</time>
      </trkpt>
      <trkpt lat="46.56847" lon="4.94455">
        <ele>188</ele>
        <time>2022-06-25T08:29:58Z</time>
      </trkpt>
      <trkpt lat="46.56847" lon="4.94451">
        <ele>188</ele>
        <time>2022-06-25T08:30:00Z</time>
      </trkpt>
      <trkpt lat="46.56847" lon="4.9445">
        <ele>188</ele>
        <time>2022-06-25T08:30:02Z</time>
      </trkpt>
      <trkpt lat="46.56846" lon="4.9445">
        <ele>188</ele>
        <time>2022-06-25T08:30:03Z</time>
      </trkpt>
      <trkpt lat="46.56846" lon="4.94449">
        <ele>188</ele>
        <time>2022-06-25T08:30:06Z</time>
      </trkpt>
      <trkpt lat="46.56846" lon="4.94449">
        <ele>188</ele>
        <time>2022-06-25T08:30:07Z</time>
      </trkpt>
      <trkpt lat="46.56846" lon="4.94448">
        <ele>187.8</ele>
        <time>2022-06-25T08:30:09Z</time>
      </trkpt>
      <trkpt lat="46.56845" lon="4.94448">
        <ele>187.8</ele>
        <time>2022-06-25T08:30:10Z</time>
      </trkpt>
      <trkpt lat="46.56845" lon="4.94447">
        <ele>187.8</ele>
        <time>2022-06-25T08:30:12Z</time>
      </trkpt>
      <trkpt lat="46.56845" lon="4.94447">
        <ele>187.8</ele>
        <time>2022-06-25T08:30:13Z</time>
      </trkpt>
      <trkpt lat="46.56845" lon="4.94446">
        <ele>187.8</ele>
        <time>2022-06-25T08:30:15Z</time>
      </trkpt>
      <trkpt lat="46.56844" lon="4.94446">
        <ele>187.8</ele>
        <time>2022-06-25T08:30:59Z</time>
      </trkpt>
      <trkpt lat="46.56844" lon="4.94445">
        <ele>187.8</ele>
        <time>2022-06-25T08:31:00Z</time>
      </trkpt>
      <trkpt lat="46.56844" lon="4.94444">
        <ele>187.8</ele>
        <time>2022-06-25T08:31:02Z</time>
      </trkpt>
      <trkpt lat="46.56844" lon="4.94444">
        <ele>187.8</ele>
        <time>2022-06-25T08:31:03Z</time>
      </trkpt>
      <trkpt lat="46.56844" lon="4.94443">
        <ele>187.8</ele>
        <time>2022-06-25T08:31:06Z</time>
      </trkpt>
      <trkpt lat="46.56843" lon="4.94443">
        <ele>187.8</ele>
        <time>2022-06-25T08:31:07Z</time>
      </trkpt>
      <trkpt lat="46.56843" lon="4.94442">
        <ele>187.8</ele>
        <time>2022-06-25T08:31:09Z</time>
      </trkpt>
      <trkpt lat="46.56843" lon="4.94442">
        <ele>187.8</ele>
        <time>2022-06-25T08:31:10Z</time>
      </trkpt>
      <trkpt lat="46.56841" lon="4.9444">
        <ele>187.8</ele>
        <time>2022-06-25T08:31:11Z</time>
      </trkpt>
      <trkpt lat="46.56839" lon="4.94438">
        <ele>188</ele>
        <time>2022-06-25T08:31:12Z</time>
      </trkpt>
      <trkpt lat="46.56837" lon="4.94435">
        <ele>188</ele>
        <time>2022-06-25T08:31:13Z</time>
      </trkpt>
      <trkpt lat="46.56835" lon="4.94431">
        <ele>188</ele>
        <time>2022-06-25T08:31:14Z</time>
      </trkpt>
      <trkpt lat="46.56833" lon="4.94428">
        <ele>188</ele>
        <time>2022-06-25T08:31:15Z</time>
      </trkpt>
      <trkpt lat="46.5683" lon="4.94424">
        <ele>188</ele>
        <time>2022-06-25T08:31:16Z</time>
      </trkpt>
      <trkpt lat="46.56828" lon="4.9442">
        <ele>188</ele>
        <time>2022-06-25T08:31:17Z</time>
      </trkpt>
      <trkpt lat="46.56826" lon="4.94415">
        <ele>188</ele>
        <time>2022-06-25T08:31:18Z</time>
      </trkpt>
      <trkpt lat="46.56823" lon="4.9441">
        <ele>188</ele>
        <time>2022-06-25T08:31:19Z</time>
      </trkpt>
      <trkpt lat="46.56821" lon="4.94404">
        <ele>188.2</ele>
        <time>2022-06-25T08:31:20Z</time>
      </trkpt>
      <trkpt lat="46.56818" lon="4.94398">
        <ele>188.2</ele>
        <time>2022-06-25T08:31:21Z</time>
      </trkpt>
      <trkpt lat="46.56816" lon="4.94392">
        <ele>188.2</ele>
        <time>2022-06-25T08:31:22Z</time>
      </trkpt>
      <trkpt lat="46.56814" lon="4.94385">
        <ele>188.2</ele>
        <time>2022-06-25T08:31:23Z</time>
      </trkpt>
      <trkpt lat="46.56811" lon="4.94378">
        <ele>188.2</ele>
        <time>2022-06-25T08:31:24Z</time>
      </trkpt>
      <trkpt lat="46.56809" lon="4.94371">
        <ele>188.4</ele>
        <time>2022-06-25T08:31:25Z</time>
      </trkpt>
      <trkpt lat="46.56806" lon="4.94364">
        <ele>188.4</ele>
        <time>2022-06-25T08:31:26Z</time>
      </trkpt>
      <trkpt lat="46.56804" lon="4.94357">
        <ele>188.4</ele>
        <time>2022-06-25T08:31:27Z</time>
      </trkpt>
      <trkpt lat="46.56802" lon="4.94351">
        <ele>188.4</ele>
        <time>2022-06-25T08:31:28Z</time>
      </trkpt>
      <trkpt lat="46.56799" lon="4.94344">
        <ele>188.4</ele>
        <time>2022-06-25T08:31:29Z</time>
      </trkpt>
      <trkpt lat="46.56797" lon="4.94337">
        <ele>188.2</ele>
        <time>2022-06-25T08:31:30Z</time>
      </trkpt>
      <trkpt lat="46.56794" lon="4.94329">
        <ele>188.2</ele>
        <time>2022-06-25T08:31:31Z</time>
      </trkpt>
      <trkpt lat="46.56792" lon="4.94322">
        <ele>188.2</ele>
        <time>2022-06-25T08:31:32Z</time>
      </trkpt>
      <trkpt lat="46.56789" lon="4.94314">
        <ele>188.2</ele>
        <time>2022-06-25T08:31:33Z</time>
      </trkpt>
      <trkpt lat="46.56786" lon="4.94307">
        <ele>188.2</ele>
        <time>2022-06-25T08:31:34Z</time>
      </trkpt>
      <trkpt lat="46.56784" lon="4.94299">
        <ele>188.2</ele>
        <time>2022-06-25T08:31:35Z</time>
      </trkpt>
      <trkpt lat="46.56781" lon="4.94291">
        <ele>188.2</ele>
        <time>2022-06-25T08:31:36Z</time>
      </trkpt>
      <trkpt lat="46.56779" lon="4.94283">
        <ele>188</ele>
        <time>2022-06-25T08:31:37Z</time>
      </trkpt>
      <trkpt lat="46.56776" lon="4.94276">
        <ele>188</ele>
        <time>2022-06-25T08:31:38Z</time>
      </trkpt>
      <trkpt lat="46.56773" lon="4.94268">
        <ele>188</ele>
        <time>2022-06-25T08:31:39Z</time>
      </trkpt>
      <trkpt lat="46.56771" lon="4.9426">
        <ele>188</ele>
        <time>2022-06-25T08:31:40Z</time>
      </trkpt>
      <trkpt lat="46.56768" lon="4.94253">
        <ele>188</ele>
        <time>2022-06-25T08:31:41Z</time>
      </trkpt>
      <trkpt lat="46.56765" lon="4.94245">
        <ele>188</ele>
        <time>2022-06-25T08:31:42Z</time>
      </trkpt>
      <trkpt lat="46.56763" lon="4.94237">
        <ele>188</ele>
        <time>2022-06-25T08:31:43Z</time>
      </trkpt>
      <trkpt lat="46.5676" lon="4.9423">
        <ele>188</ele>
        <time>2022-06-25T08:31:44Z</time>
      </trkpt>
      <trkpt lat="46.56757" lon="4.94222">
        <ele>188</ele>
        <time>2022-06-25T08:31:45Z</time>
      </trkpt>
      <trkpt lat="46.56755" lon="4.94214">
        <ele>188</ele>
        <time>2022-06-25T08:31:46Z</time>
      </trkpt>
      <trkpt lat="46.56752" lon="4.94206">
        <ele>188</ele>
        <time>2022-06-25T08:31:47Z</time>
      </trkpt>
      <trkpt lat="46.56749" lon="4.94198">
        <ele>188</ele>
        <time>2022-06-25T08:31:48Z</time>
      </trkpt>
      <trkpt lat="46.56746" lon="4.9419">
        <ele>188</ele>
        <time>2022-06-25T08:31:49Z</time>
      </trkpt>
      <trkpt lat="46.56743" lon="4.94181">
        <ele>188</ele>
        <time>2022-06-25T08:31:50Z</time>
      </trkpt>
      <trkpt lat="46.56741" lon="4.94173">
        <ele>187.8</ele>
        <time>2022-06-25T08:31:51Z</time>
      </trkpt>
      <trkpt lat="46.56738" lon="4.94165">
        <ele>187.8</ele>
        <time>2022-06-25T08:31:52Z</time>
      </trkpt>
      <trkpt lat="46.56735" lon="4.94156">
        <ele>187.8</ele>
        <time>2022-06-25T08:31:53Z</time>
      </trkpt>
      <trkpt lat="46.56732" lon="4.94148">
        <ele>187.4</ele>
        <time>2022-06-25T08:31:54Z</time>
      </trkpt>
      <trkpt lat="46.56729" lon="4.9414">
        <ele>187.4</ele>
        <time>2022-06-25T08:31:55Z</time>
      </trkpt>
      <trkpt lat="46.56726" lon="4.94131">
        <ele>187.2</ele>
        <time>2022-06-25T08:31:56Z</time>
      </trkpt>
      <trkpt lat="46.56723" lon="4.94123">
        <ele>187.2</ele>
        <time>2022-06-25T08:31:57Z</time>
      </trkpt>
      <trkpt lat="46.5672" lon="4.94114">
        <ele>187.2</ele>
        <time>2022-06-25T08:31:58Z</time>
      </trkpt>
      <trkpt lat="46.56718" lon="4.94105">
        <ele>187.2</ele>
        <time>2022-06-25T08:31:59Z</time>
      </trkpt>
      <trkpt lat="46.56714" lon="4.94096">
        <ele>187.2</ele>
        <time>2022-06-25T08:32:00Z</time>
      </trkpt>
      <trkpt lat="46.56711" lon="4.94088">
        <ele>187.2</ele>
        <time>2022-06-25T08:32:01Z</time>
      </trkpt>
      <trkpt lat="46.56708" lon="4.94079">
        <ele>187.2</ele>
        <time>2022-06-25T08:32:02Z</time>
      </trkpt>
      <trkpt lat="46.56705" lon="4.9407">
        <ele>187.2</ele>
        <time>2022-06-25T08:32:03Z</time>
      </trkpt>
      <trkpt lat="46.56702" lon="4.94061">
        <ele>187.2</ele>
        <time>2022-06-25T08:32:04Z</time>
      </trkpt>
      <trkpt lat="46.56699" lon="4.94052">
        <ele>187.6</ele>
        <time>2022-06-25T08:32:05Z</time>
      </trkpt>
      <trkpt lat="46.56696" lon="4.94043">
        <ele>187.2</ele>
        <time>2022-06-25T08:32:06Z</time>
      </trkpt>
      <trkpt lat="46.56693" lon="4.94033">
        <ele>187.2</ele>
        <time>2022-06-25T08:32:07Z</time>
      </trkpt>
      <trkpt lat="46.5669" lon="4.94024">
        <ele>187.2</ele>
        <time>2022-06-25T08:32:08Z</time>
      </trkpt>
      <trkpt lat="46.56687" lon="4.94015">
        <ele>187.2</ele>
        <time>2022-06-25T08:32:09Z</time>
      </trkpt>
      <trkpt lat="46.56684" lon="4.94006">
        <ele>187</ele>
        <time>2022-06-25T08:32:10Z</time>
      </trkpt>
      <trkpt lat="46.56681" lon="4.93997">
        <ele>187</ele>
        <time>2022-06-25T08:32:11Z</time>
      </trkpt>
      <trkpt lat="46.56677" lon="4.93988">
        <ele>187</ele>
        <time>2022-06-25T08:32:12Z</time>
      </trkpt>
      <trkpt lat="46.56674" lon="4.93979">
        <ele>187.2</ele>
        <time>2022-06-25T08:32:13Z</time>
      </trkpt>
      <trkpt lat="46.56671" lon="4.9397">
        <ele>187.2</ele>
        <time>2022-06-25T08:32:14Z</time>
      </trkpt>
      <trkpt lat="46.56668" lon="4.93961">
        <ele>187.2</ele>
        <time>2022-06-25T08:32:15Z</time>
      </trkpt>
      <trkpt lat="46.56665" lon="4.93951">
        <ele>187.2</ele>
        <time>2022-06-25T08:32:16Z</time>
      </trkpt>
      <trkpt lat="46.56662" lon="4.93942">
        <ele>187.2</ele>
        <time>2022-06-25T08:32:17Z</time>
      </trkpt>
      <trkpt lat="46.56658" lon="4.93933">
        <ele>187.2</ele>
        <time>2022-06-25T08:32:18Z</time>
      </trkpt>
      <trkpt lat="46.56655" lon="4.93924">
        <ele>187.2</ele>
        <time>2022-06-25T08:32:19Z</time>
      </trkpt>
      <trkpt lat="46.56652" lon="4.93915">
        <ele>187.2</ele>
        <time>2022-06-25T08:32:20Z</time>
      </trkpt>
      <trkpt lat="46.56649" lon="4.93905">
        <ele>187.2</ele>
        <time>2022-06-25T08:32:21Z</time>
      </trkpt>
      <trkpt lat="46.56646" lon="4.93896">
        <ele>187.2</ele>
        <time>2022-06-25T08:32:22Z</time>
      </trkpt>
      <trkpt lat="46.56643" lon="4.93887">
        <ele>187.2</ele>
        <time>2022-06-25T08:32:23Z</time>
      </trkpt>
      <trkpt lat="46.5664" lon="4.93878">
        <ele>187.2</ele>
        <time>2022-06-25T08:32:24Z</time>
      </trkpt>
      <trkpt lat="46.56637" lon="4.93869">
        <ele>187.2</ele>
        <time>2022-06-25T08:32:25Z</time>
      </trkpt>
      <trkpt lat="46.56634" lon="4.93861">
        <ele>187.4</ele>
        <time>2022-06-25T08:32:26Z</time>
      </trkpt>
      <trkpt lat="46.56631" lon="4.93852">
        <ele>187.4</ele>
        <time>2022-06-25T08:32:27Z</time>
      </trkpt>
      <trkpt lat="46.56628" lon="4.93844">
        <ele>187.4</ele>
        <time>2022-06-25T08:32:28Z</time>
      </trkpt>
      <trkpt lat="46.56625" lon="4.93835">
        <ele>187.6</ele>
        <time>2022-06-25T08:32:29Z</time>
      </trkpt>
      <trkpt lat="46.56623" lon="4.93827">
        <ele>187.6</ele>
        <time>2022-06-25T08:32:30Z</time>
      </trkpt>
      <trkpt lat="46.5662" lon="4.93819">
        <ele>187.6</ele>
        <time>2022-06-25T08:32:31Z</time>
      </trkpt>
      <trkpt lat="46.56617" lon="4.93811">
        <ele>187.6</ele>
        <time>2022-06-25T08:32:32Z</time>
      </trkpt>
      <trkpt lat="46.56614" lon="4.93803">
        <ele>187.6</ele>
        <time>2022-06-25T08:32:33Z</time>
      </trkpt>
      <trkpt lat="46.56612" lon="4.93796">
        <ele>187.6</ele>
        <time>2022-06-25T08:32:34Z</time>
      </trkpt>
      <trkpt lat="46.56609" lon="4.93788">
        <ele>188</ele>
        <time>2022-06-25T08:32:35Z</time>
      </trkpt>
      <trkpt lat="46.56607" lon="4.9378">
        <ele>188</ele>
        <time>2022-06-25T08:32:36Z</time>
      </trkpt>
      <trkpt lat="46.56604" lon="4.93773">
        <ele>188.2</ele>
        <time>2022-06-25T08:32:37Z</time>
      </trkpt>
      <trkpt lat="46.56601" lon="4.93765">
        <ele>188.2</ele>
        <time>2022-06-25T08:32:38Z</time>
      </trkpt>
      <trkpt lat="46.56599" lon="4.93758">
        <ele>188.2</ele>
        <time>2022-06-25T08:32:39Z</time>
      </trkpt>
      <trkpt lat="46.56596" lon="4.9375">
        <ele>188.4</ele>
        <time>2022-06-25T08:32:40Z</time>
      </trkpt>
      <trkpt lat="46.56594" lon="4.93743">
        <ele>188.4</ele>
        <time>2022-06-25T08:32:41Z</time>
      </trkpt>
      <trkpt lat="46.56591" lon="4.93736">
        <ele>188.4</ele>
        <time>2022-06-25T08:32:42Z</time>
      </trkpt>
      <trkpt lat="46.56589" lon="4.93728">
        <ele>188.6</ele>
        <time>2022-06-25T08:32:43Z</time>
      </trkpt>
      <trkpt lat="46.56586" lon="4.93721">
        <ele>188.6</ele>
        <time>2022-06-25T08:32:44Z</time>
      </trkpt>
      <trkpt lat="46.56584" lon="4.93713">
        <ele>188.6</ele>
        <time>2022-06-25T08:32:45Z</time>
      </trkpt>
      <trkpt lat="46.56581" lon="4.93706">
        <ele>188.6</ele>
        <time>2022-06-25T08:32:46Z</time>
      </trkpt>
      <trkpt lat="46.56579" lon="4.93698">
        <ele>188.8</ele>
        <time>2022-06-25T08:32:47Z</time>
      </trkpt>
      <trkpt lat="46.56576" lon="4.93691">
        <ele>188.8</ele>
        <time>2022-06-25T08:32:48Z</time>
      </trkpt>
      <trkpt lat="46.56574" lon="4.93684">
        <ele>188.8</ele>
        <time>2022-06-25T08:32:49Z</time>
      </trkpt>
      <trkpt lat="46.56571" lon="4.93677">
        <ele>188.8</ele>
        <time>2022-06-25T08:32:50Z</time>
      </trkpt>
      <trkpt lat="46.56569" lon="4.93669">
        <ele>189</ele>
        <time>2022-06-25T08:32:51Z</time>
      </trkpt>
      <trkpt lat="46.56566" lon="4.93662">
        <ele>189</ele>
        <time>2022-06-25T08:32:52Z</time>
      </trkpt>
      <trkpt lat="46.56564" lon="4.93655">
        <ele>189.4</ele>
        <time>2022-06-25T08:32:53Z</time>
      </trkpt>
      <trkpt lat="46.56561" lon="4.93647">
        <ele>189.4</ele>
        <time>2022-06-25T08:32:54Z</time>
      </trkpt>
      <trkpt lat="46.56559" lon="4.9364">
        <ele>189.4</ele>
        <time>2022-06-25T08:32:55Z</time>
      </trkpt>
      <trkpt lat="46.56556" lon="4.93633">
        <ele>189.4</ele>
        <time>2022-06-25T08:32:56Z</time>
      </trkpt>
      <trkpt lat="46.56553" lon="4.93625">
        <ele>189.4</ele>
        <time>2022-06-25T08:32:57Z</time>
      </trkpt>
      <trkpt lat="46.56551" lon="4.93618">
        <ele>189.4</ele>
        <time>2022-06-25T08:32:58Z</time>
      </trkpt>
      <trkpt lat="46.56548" lon="4.93611">
        <ele>189.6</ele>
        <time>2022-06-25T08:32:59Z</time>
      </trkpt>
      <trkpt lat="46.56546" lon="4.93603">
        <ele>189.6</ele>
        <time>2022-06-25T08:33:00Z</time>
      </trkpt>
      <trkpt lat="46.56543" lon="4.93596">
        <ele>189.6</ele>
        <time>2022-06-25T08:33:01Z</time>
      </trkpt>
      <trkpt lat="46.56541" lon="4.93588">
        <ele>189.6</ele>
        <time>2022-06-25T08:33:02Z</time>
      </trkpt>
      <trkpt lat="46.56538" lon="4.9358">
        <ele>189.6</ele>
        <time>2022-06-25T08:33:03Z</time>
      </trkpt>
      <trkpt lat="46.56535" lon="4.93573">
        <ele>189.6</ele>
        <time>2022-06-25T08:33:04Z</time>
      </trkpt>
      <trkpt lat="46.56533" lon="4.93565">
        <ele>189.6</ele>
        <time>2022-06-25T08:33:05Z</time>
      </trkpt>
      <trkpt lat="46.5653" lon="4.93557">
        <ele>189.6</ele>
        <time>2022-06-25T08:33:06Z</time>
      </trkpt>
      <trkpt lat="46.56527" lon="4.93549">
        <ele>189.6</ele>
        <time>2022-06-25T08:33:07Z</time>
      </trkpt>
      <trkpt lat="46.56525" lon="4.93541">
        <ele>189.6</ele>
        <time>2022-06-25T08:33:08Z</time>
      </trkpt>
      <trkpt lat="46.56522" lon="4.93533">
        <ele>189.6</ele>
        <time>2022-06-25T08:33:09Z</time>
      </trkpt>
      <trkpt lat="46.56519" lon="4.93525">
        <ele>189.6</ele>
        <time>2022-06-25T08:33:10Z</time>
      </trkpt>
      <trkpt lat="46.56516" lon="4.93517">
        <ele>189.6</ele>
        <time>2022-06-25T08:33:11Z</time>
      </trkpt>
      <trkpt lat="46.56513" lon="4.93509">
        <ele>189.6</ele>
        <time>2022-06-25T08:33:12Z</time>
      </trkpt>
      <trkpt lat="46.5651" lon="4.935">
        <ele>189.6</ele>
        <time>2022-06-25T08:33:13Z</time>
      </trkpt>
      <trkpt lat="46.56507" lon="4.93492">
        <ele>189.6</ele>
        <time>2022-06-25T08:33:14Z</time>
      </trkpt>
      <trkpt lat="46.56504" lon="4.93484">
        <ele>189.6</ele>
        <time>2022-06-25T08:33:15Z</time>
      </trkpt>
      <trkpt lat="46.56501" lon="4.93475">
        <ele>189.6</ele>
        <time>2022-06-25T08:33:16Z</time>
      </trkpt>
      <trkpt lat="46.56498" lon="4.93467">
        <ele>189.6</ele>
        <time>2022-06-25T08:33:17Z</time>
      </trkpt>
      <trkpt lat="46.56495" lon="4.93458">
        <ele>189.6</ele>
        <time>2022-06-25T08:33:18Z</time>
      </trkpt>
      <trkpt lat="46.56492" lon="4.9345">
        <ele>189.6</ele>
        <time>2022-06-25T08:33:19Z</time>
      </trkpt>
      <trkpt lat="46.56489" lon="4.93441">
        <ele>189.6</ele>
        <time>2022-06-25T08:33:20Z</time>
      </trkpt>
      <trkpt lat="46.56485" lon="4.93432">
        <ele>189.6</ele>
        <time>2022-06-25T08:33:21Z</time>
      </trkpt>
      <trkpt lat="46.56482" lon="4.93424">
        <ele>189.6</ele>
        <time>2022-06-25T08:33:22Z</time>
      </trkpt>
      <trkpt lat="46.56479" lon="4.93415">
        <ele>189.6</ele>
        <time>2022-06-25T08:33:23Z</time>
      </trkpt>
      <trkpt lat="46.56475" lon="4.93407">
        <ele>189.2</ele>
        <time>2022-06-25T08:33:24Z</time>
      </trkpt>
      <trkpt lat="46.56472" lon="4.93398">
        <ele>189.2</ele>
        <time>2022-06-25T08:33:25Z</time>
      </trkpt>
      <trkpt lat="46.56468" lon="4.93389">
        <ele>189.2</ele>
        <time>2022-06-25T08:33:26Z</time>
      </trkpt>
      <trkpt lat="46.56465" lon="4.9338">
        <ele>189</ele>
        <time>2022-06-25T08:33:27Z</time>
      </trkpt>
      <trkpt lat="46.56461" lon="4.93371">
        <ele>189</ele>
        <time>2022-06-25T08:33:28Z</time>
      </trkpt>
      <trkpt lat="46.56457" lon="4.93362">
        <ele>189</ele>
        <time>2022-06-25T08:33:29Z</time>
      </trkpt>
      <trkpt lat="46.56453" lon="4.93353">
        <ele>189</ele>
        <time>2022-06-25T08:33:30Z</time>
      </trkpt>
      <trkpt lat="46.56449" lon="4.93345">
        <ele>188.6</ele>
        <time>2022-06-25T08:33:31Z</time>
      </trkpt>
      <trkpt lat="46.56444" lon="4.93337">
        <ele>188.6</ele>
        <time>2022-06-25T08:33:32Z</time>
      </trkpt>
      <trkpt lat="46.5644" lon="4.93329">
        <ele>188.6</ele>
        <time>2022-06-25T08:33:33Z</time>
      </trkpt>
      <trkpt lat="46.56435" lon="4.93321">
        <ele>188.6</ele>
        <time>2022-06-25T08:33:34Z</time>
      </trkpt>
      <trkpt lat="46.56431" lon="4.93313">
        <ele>188.6</ele>
        <time>2022-06-25T08:33:35Z</time>
      </trkpt>
      <trkpt lat="46.56426" lon="4.93305">
        <ele>188.4</ele>
        <time>2022-06-25T08:33:36Z</time>
      </trkpt>
      <trkpt lat="46.56422" lon="4.93297">
        <ele>188.4</ele>
        <time>2022-06-25T08:33:37Z</time>
      </trkpt>
      <trkpt lat="46.56417" lon="4.93289">
        <ele>188.4</ele>
        <time>2022-06-25T08:33:38Z</time>
      </trkpt>
      <trkpt lat="46.56413" lon="4.93281">
        <ele>188.4</ele>
        <time>2022-06-25T08:33:39Z</time>
      </trkpt>
      <trkpt lat="46.56409" lon="4.93274">
        <ele>188.4</ele>
        <time>2022-06-25T08:33:40Z</time>
      </trkpt>
      <trkpt lat="46.56405" lon="4.93266">
        <ele>188.2</ele>
        <time>2022-06-25T08:33:41Z</time>
      </trkpt>
      <trkpt lat="46.564" lon="4.93258">
        <ele>188.2</ele>
        <time>2022-06-25T08:33:42Z</time>
      </trkpt>
      <trkpt lat="46.56396" lon="4.93251">
        <ele>188.2</ele>
        <time>2022-06-25T08:33:43Z</time>
      </trkpt>
      <trkpt lat="46.56391" lon="4.93243">
        <ele>188.2</ele>
        <time>2022-06-25T08:33:44Z</time>
      </trkpt>
      <trkpt lat="46.56387" lon="4.93236">
        <ele>188.2</ele>
        <time>2022-06-25T08:33:45Z</time>
      </trkpt>
      <trkpt lat="46.56383" lon="4.93228">
        <ele>188.6</ele>
        <time>2022-06-25T08:33:46Z</time>
      </trkpt>
      <trkpt lat="46.56379" lon="4.93221">
        <ele>188.4</ele>
        <time>2022-06-25T08:33:47Z</time>
      </trkpt>
      <trkpt lat="46.56374" lon="4.93214">
        <ele>188.2</ele>
        <time>2022-06-25T08:33:48Z</time>
      </trkpt>
      <trkpt lat="46.5637" lon="4.93206">
        <ele>188.2</ele>
        <time>2022-06-25T08:33:49Z</time>
      </trkpt>
      <trkpt lat="46.56366" lon="4.93199">
        <ele>188</ele>
        <time>2022-06-25T08:33:50Z</time>
      </trkpt>
      <trkpt lat="46.56361" lon="4.93192">
        <ele>188</ele>
        <time>2022-06-25T08:33:51Z</time>
      </trkpt>
      <trkpt lat="46.56357" lon="4.93185">
        <ele>188</ele>
        <time>2022-06-25T08:33:52Z</time>
      </trkpt>
      <trkpt lat="46.56352" lon="4.93179">
        <ele>188</ele>
        <time>2022-06-25T08:33:53Z</time>
      </trkpt>
      <trkpt lat="46.56347" lon="4.93173">
        <ele>188</ele>
        <time>2022-06-25T08:33:54Z</time>
      </trkpt>
      <trkpt lat="46.56342" lon="4.93167">
        <ele>188</ele>
        <time>2022-06-25T08:33:55Z</time>
      </trkpt>
      <trkpt lat="46.56338" lon="4.93161">
        <ele>188</ele>
        <time>2022-06-25T08:33:56Z</time>
      </trkpt>
      <trkpt lat="46.56333" lon="4.93155">
        <ele>188.2</ele>
        <time>2022-06-25T08:33:57Z</time>
      </trkpt>
      <trkpt lat="46.56328" lon="4.93149">
        <ele>188.2</ele>
        <time>2022-06-25T08:33:58Z</time>
      </trkpt>
      <trkpt lat="46.56323" lon="4.93144">
        <ele>188.2</ele>
        <time>2022-06-25T08:33:59Z</time>
      </trkpt>
      <trkpt lat="46.56318" lon="4.93139">
        <ele>188.2</ele>
        <time>2022-06-25T08:34:00Z</time>
      </trkpt>
      <trkpt lat="46.56313" lon="4.93134">
        <ele>188.2</ele>
        <time>2022-06-25T08:34:01Z</time>
      </trkpt>
      <trkpt lat="46.56307" lon="4.93129">
        <ele>188.2</ele>
        <time>2022-06-25T08:34:02Z</time>
      </trkpt>
      <trkpt lat="46.56302" lon="4.93123">
        <ele>188.2</ele>
        <time>2022-06-25T08:34:03Z</time>
      </trkpt>
      <trkpt lat="46.56297" lon="4.93118">
        <ele>188.2</ele>
        <time>2022-06-25T08:34:04Z</time>
      </trkpt>
      <trkpt lat="46.56292" lon="4.93113">
        <ele>188.2</ele>
        <time>2022-06-25T08:34:05Z</time>
      </trkpt>
      <trkpt lat="46.56286" lon="4.93108">
        <ele>188.2</ele>
        <time>2022-06-25T08:34:06Z</time>
      </trkpt>
      <trkpt lat="46.56281" lon="4.93103">
        <ele>188.2</ele>
        <time>2022-06-25T08:34:07Z</time>
      </trkpt>
      <trkpt lat="46.56275" lon="4.93097">
        <ele>188.2</ele>
        <time>2022-06-25T08:34:08Z</time>
      </trkpt>
      <trkpt lat="46.5627" lon="4.93091">
        <ele>188.2</ele>
        <time>2022-06-25T08:34:09Z</time>
      </trkpt>
      <trkpt lat="46.56264" lon="4.93086">
        <ele>188.2</ele>
        <time>2022-06-25T08:34:10Z</time>
      </trkpt>
      <trkpt lat="46.56258" lon="4.9308">
        <ele>188</ele>
        <time>2022-06-25T08:34:11Z</time>
      </trkpt>
      <trkpt lat="46.56253" lon="4.93074">
        <ele>188</ele>
        <time>2022-06-25T08:34:12Z</time>
      </trkpt>
      <trkpt lat="46.56247" lon="4.93068">
        <ele>188</ele>
        <time>2022-06-25T08:34:13Z</time>
      </trkpt>
      <trkpt lat="46.56241" lon="4.93063">
        <ele>188</ele>
        <time>2022-06-25T08:34:14Z</time>
      </trkpt>
      <trkpt lat="46.56236" lon="4.93057">
        <ele>188</ele>
        <time>2022-06-25T08:34:15Z</time>
      </trkpt>
      <trkpt lat="46.5623" lon="4.93051">
        <ele>187.6</ele>
        <time>2022-06-25T08:34:16Z</time>
      </trkpt>
      <trkpt lat="46.56225" lon="4.93046">
        <ele>187.6</ele>
        <time>2022-06-25T08:34:17Z</time>
      </trkpt>
      <trkpt lat="46.56219" lon="4.9304">
        <ele>187.4</ele>
        <time>2022-06-25T08:34:18Z</time>
      </trkpt>
      <trkpt lat="46.56213" lon="4.93035">
        <ele>187.4</ele>
        <time>2022-06-25T08:34:19Z</time>
      </trkpt>
      <trkpt lat="46.56208" lon="4.9303">
        <ele>187.4</ele>
        <time>2022-06-25T08:34:20Z</time>
      </trkpt>
      <trkpt lat="46.56203" lon="4.93024">
        <ele>187.4</ele>
        <time>2022-06-25T08:34:21Z</time>
      </trkpt>
      <trkpt lat="46.56197" lon="4.93019">
        <ele>187.2</ele>
        <time>2022-06-25T08:34:22Z</time>
      </trkpt>
      <trkpt lat="46.56192" lon="4.93014">
        <ele>187.2</ele>
        <time>2022-06-25T08:34:23Z</time>
      </trkpt>
      <trkpt lat="46.56186" lon="4.93009">
        <ele>187.2</ele>
        <time>2022-06-25T08:34:24Z</time>
      </trkpt>
      <trkpt lat="46.56181" lon="4.93004">
        <ele>187.2</ele>
        <time>2022-06-25T08:34:25Z</time>
      </trkpt>
      <trkpt lat="46.56175" lon="4.92998">
        <ele>187.2</ele>
        <time>2022-06-25T08:34:26Z</time>
      </trkpt>
      <trkpt lat="46.5617" lon="4.92993">
        <ele>187</ele>
        <time>2022-06-25T08:34:27Z</time>
      </trkpt>
      <trkpt lat="46.56164" lon="4.92987">
        <ele>187</ele>
        <time>2022-06-25T08:34:28Z</time>
      </trkpt>
      <trkpt lat="46.56159" lon="4.92983">
        <ele>187</ele>
        <time>2022-06-25T08:34:29Z</time>
      </trkpt>
      <trkpt lat="46.56153" lon="4.92978">
        <ele>186.8</ele>
        <time>2022-06-25T08:34:30Z</time>
      </trkpt>
      <trkpt lat="46.56148" lon="4.92973">
        <ele>186.8</ele>
        <time>2022-06-25T08:34:31Z</time>
      </trkpt>
      <trkpt lat="46.56143" lon="4.92969">
        <ele>186.8</ele>
        <time>2022-06-25T08:34:32Z</time>
      </trkpt>
      <trkpt lat="46.56138" lon="4.92964">
        <ele>186.8</ele>
        <time>2022-06-25T08:34:33Z</time>
      </trkpt>
      <trkpt lat="46.56133" lon="4.9296">
        <ele>186.8</ele>
        <time>2022-06-25T08:34:34Z</time>
      </trkpt>
      <trkpt lat="46.56128" lon="4.92955">
        <ele>186.8</ele>
        <time>2022-06-25T08:34:35Z</time>
      </trkpt>
      <trkpt lat="46.56123" lon="4.92951">
        <ele>186.8</ele>
        <time>2022-06-25T08:34:36Z</time>
      </trkpt>
      <trkpt lat="46.56117" lon="4.92947">
        <ele>186.6</ele>
        <time>2022-06-25T08:34:37Z</time>
      </trkpt>
      <trkpt lat="46.56112" lon="4.92943">
        <ele>186.6</ele>
        <time>2022-06-25T08:34:38Z</time>
      </trkpt>
      <trkpt lat="46.56107" lon="4.92939">
        <ele>186.6</ele>
        <time>2022-06-25T08:34:39Z</time>
      </trkpt>
      <trkpt lat="46.56102" lon="4.92934">
        <ele>186.6</ele>
        <time>2022-06-25T08:34:40Z</time>
      </trkpt>
      <trkpt lat="46.56097" lon="4.9293">
        <ele>186.6</ele>
        <time>2022-06-25T08:34:41Z</time>
      </trkpt>
      <trkpt lat="46.56091" lon="4.92926">
        <ele>186.6</ele>
        <time>2022-06-25T08:34:42Z</time>
      </trkpt>
      <trkpt lat="46.56086" lon="4.92922">
        <ele>186.6</ele>
        <time>2022-06-25T08:34:43Z</time>
      </trkpt>
      <trkpt lat="46.56081" lon="4.92918">
        <ele>186.6</ele>
        <time>2022-06-25T08:34:44Z</time>
      </trkpt>
      <trkpt lat="46.56077" lon="4.92913">
        <ele>186.6</ele>
        <time>2022-06-25T08:34:45Z</time>
      </trkpt>
      <trkpt lat="46.56072" lon="4.9291">
        <ele>186.6</ele>
        <time>2022-06-25T08:34:46Z</time>
      </trkpt>
      <trkpt lat="46.56068" lon="4.92905">
        <ele>186.6</ele>
        <time>2022-06-25T08:34:47Z</time>
      </trkpt>
      <trkpt lat="46.56064" lon="4.92901">
        <ele>186.6</ele>
        <time>2022-06-25T08:34:48Z</time>
      </trkpt>
      <trkpt lat="46.5606" lon="4.92895">
        <ele>186.6</ele>
        <time>2022-06-25T08:34:49Z</time>
      </trkpt>
      <trkpt lat="46.56057" lon="4.92889">
        <ele>186.6</ele>
        <time>2022-06-25T08:34:50Z</time>
      </trkpt>
      <trkpt lat="46.56056" lon="4.92883">
        <ele>186.6</ele>
        <time>2022-06-25T08:34:51Z</time>
      </trkpt>
      <trkpt lat="46.56055" lon="4.92876">
        <ele>186.6</ele>
        <time>2022-06-25T08:34:52Z</time>
      </trkpt>
      <trkpt lat="46.56056" lon="4.92869">
        <ele>186.8</ele>
        <time>2022-06-25T08:34:53Z</time>
      </trkpt>
      <trkpt lat="46.56059" lon="4.92863">
        <ele>186.8</ele>
        <time>2022-06-25T08:34:54Z</time>
      </trkpt>
      <trkpt lat="46.56061" lon="4.92856">
        <ele>186.8</ele>
        <time>2022-06-25T08:34:55Z</time>
      </trkpt>
      <trkpt lat="46.56063" lon="4.92849">
        <ele>187</ele>
        <time>2022-06-25T08:34:56Z</time>
      </trkpt>
      <trkpt lat="46.56065" lon="4.92842">
        <ele>187</ele>
        <time>2022-06-25T08:34:57Z</time>
      </trkpt>
      <trkpt lat="46.56068" lon="4.92834">
        <ele>187</ele>
        <time>2022-06-25T08:34:58Z</time>
      </trkpt>
      <trkpt lat="46.5607" lon="4.92826">
        <ele>187</ele>
        <time>2022-06-25T08:34:59Z</time>
      </trkpt>
      <trkpt lat="46.56072" lon="4.92818">
        <ele>187</ele>
        <time>2022-06-25T08:35:00Z</time>
      </trkpt>
      <trkpt lat="46.56075" lon="4.9281">
        <ele>187</ele>
        <time>2022-06-25T08:35:01Z</time>
      </trkpt>
      <trkpt lat="46.56077" lon="4.92802">
        <ele>187</ele>
        <time>2022-06-25T08:35:02Z</time>
      </trkpt>
      <trkpt lat="46.5608" lon="4.92793">
        <ele>187</ele>
        <time>2022-06-25T08:35:03Z</time>
      </trkpt>
      <trkpt lat="46.56082" lon="4.92785">
        <ele>187</ele>
        <time>2022-06-25T08:35:04Z</time>
      </trkpt>
      <trkpt lat="46.56084" lon="4.92777">
        <ele>187</ele>
        <time>2022-06-25T08:35:05Z</time>
      </trkpt>
      <trkpt lat="46.56087" lon="4.92768">
        <ele>187</ele>
        <time>2022-06-25T08:35:06Z</time>
      </trkpt>
      <trkpt lat="46.56089" lon="4.92759">
        <ele>187</ele>
        <time>2022-06-25T08:35:07Z</time>
      </trkpt>
      <trkpt lat="46.56092" lon="4.92751">
        <ele>187</ele>
        <time>2022-06-25T08:35:08Z</time>
      </trkpt>
      <trkpt lat="46.56094" lon="4.92742">
        <ele>187</ele>
        <time>2022-06-25T08:35:09Z</time>
      </trkpt>
      <trkpt lat="46.56097" lon="4.92733">
        <ele>187</ele>
        <time>2022-06-25T08:35:10Z</time>
      </trkpt>
      <trkpt lat="46.56099" lon="4.92724">
        <ele>187</ele>
        <time>2022-06-25T08:35:11Z</time>
      </trkpt>
      <trkpt lat="46.56102" lon="4.92716">
        <ele>187</ele>
        <time>2022-06-25T08:35:12Z</time>
      </trkpt>
      <trkpt lat="46.56105" lon="4.92707">
        <ele>186.8</ele>
        <time>2022-06-25T08:35:13Z</time>
      </trkpt>
      <trkpt lat="46.56107" lon="4.92698">
        <ele>186.8</ele>
        <time>2022-06-25T08:35:14Z</time>
      </trkpt>
      <trkpt lat="46.5611" lon="4.92689">
        <ele>186.8</ele>
        <time>2022-06-25T08:35:15Z</time>
      </trkpt>
      <trkpt lat="46.56112" lon="4.92681">
        <ele>186.8</ele>
        <time>2022-06-25T08:35:16Z</time>
      </trkpt>
      <trkpt lat="46.56115" lon="4.92672">
        <ele>186.8</ele>
        <time>2022-06-25T08:35:17Z</time>
      </trkpt>
      <trkpt lat="46.56118" lon="4.92663">
        <ele>186.8</ele>
        <time>2022-06-25T08:35:18Z</time>
      </trkpt>
      <trkpt lat="46.5612" lon="4.92654">
        <ele>186.8</ele>
        <time>2022-06-25T08:35:19Z</time>
      </trkpt>
      <trkpt lat="46.56123" lon="4.92645">
        <ele>186.8</ele>
        <time>2022-06-25T08:35:20Z</time>
      </trkpt>
      <trkpt lat="46.56126" lon="4.92636">
        <ele>186.8</ele>
        <time>2022-06-25T08:35:21Z</time>
      </trkpt>
      <trkpt lat="46.56128" lon="4.92627">
        <ele>186.8</ele>
        <time>2022-06-25T08:35:22Z</time>
      </trkpt>
      <trkpt lat="46.56131" lon="4.92618">
        <ele>186.8</ele>
        <time>2022-06-25T08:35:23Z</time>
      </trkpt>
      <trkpt lat="46.56133" lon="4.92608">
        <ele>186.6</ele>
        <time>2022-06-25T08:35:25Z</time>
      </trkpt>
      <trkpt lat="46.56136" lon="4.92599">
        <ele>186.6</ele>
        <time>2022-06-25T08:35:26Z</time>
      </trkpt>
      <trkpt lat="46.56139" lon="4.9259">
        <ele>186.6</ele>
        <time>2022-06-25T08:35:27Z</time>
      </trkpt>
      <trkpt lat="46.56142" lon="4.92581">
        <ele>186.6</ele>
        <time>2022-06-25T08:35:28Z</time>
      </trkpt>
      <trkpt lat="46.56144" lon="4.92572">
        <ele>186.6</ele>
        <time>2022-06-25T08:35:29Z</time>
      </trkpt>
      <trkpt lat="46.56147" lon="4.92562">
        <ele>186.6</ele>
        <time>2022-06-25T08:35:30Z</time>
      </trkpt>
      <trkpt lat="46.56149" lon="4.92553">
        <ele>186.6</ele>
        <time>2022-06-25T08:35:31Z</time>
      </trkpt>
      <trkpt lat="46.56152" lon="4.92544">
        <ele>186.6</ele>
        <time>2022-06-25T08:35:32Z</time>
      </trkpt>
      <trkpt lat="46.56155" lon="4.92535">
        <ele>186.6</ele>
        <time>2022-06-25T08:35:33Z</time>
      </trkpt>
      <trkpt lat="46.56158" lon="4.92526">
        <ele>186.6</ele>
        <time>2022-06-25T08:35:34Z</time>
      </trkpt>
      <trkpt lat="46.5616" lon="4.92516">
        <ele>186.6</ele>
        <time>2022-06-25T08:35:35Z</time>
      </trkpt>
      <trkpt lat="46.56163" lon="4.92507">
        <ele>187</ele>
        <time>2022-06-25T08:35:36Z</time>
      </trkpt>
      <trkpt lat="46.56166" lon="4.92498">
        <ele>187</ele>
        <time>2022-06-25T08:35:37Z</time>
      </trkpt>
      <trkpt lat="46.56168" lon="4.92489">
        <ele>187</ele>
        <time>2022-06-25T08:35:38Z</time>
      </trkpt>
      <trkpt lat="46.56171" lon="4.92479">
        <ele>187</ele>
        <time>2022-06-25T08:35:39Z</time>
      </trkpt>
      <trkpt lat="46.56174" lon="4.9247">
        <ele>187</ele>
        <time>2022-06-25T08:35:40Z</time>
      </trkpt>
      <trkpt lat="46.56176" lon="4.92461">
        <ele>187</ele>
        <time>2022-06-25T08:35:41Z</time>
      </trkpt>
      <trkpt lat="46.56179" lon="4.92452">
        <ele>187</ele>
        <time>2022-06-25T08:35:42Z</time>
      </trkpt>
      <trkpt lat="46.56181" lon="4.92443">
        <ele>187</ele>
        <time>2022-06-25T08:35:43Z</time>
      </trkpt>
      <trkpt lat="46.56184" lon="4.92434">
        <ele>187</ele>
        <time>2022-06-25T08:35:44Z</time>
      </trkpt>
      <trkpt lat="46.56187" lon="4.92425">
        <ele>187</ele>
        <time>2022-06-25T08:35:45Z</time>
      </trkpt>
      <trkpt lat="46.56189" lon="4.92416">
        <ele>187</ele>
        <time>2022-06-25T08:35:46Z</time>
      </trkpt>
      <trkpt lat="46.56192" lon="4.92408">
        <ele>187</ele>
        <time>2022-06-25T08:35:47Z</time>
      </trkpt>
      <trkpt lat="46.56194" lon="4.92399">
        <ele>187</ele>
        <time>2022-06-25T08:35:48Z</time>
      </trkpt>
      <trkpt lat="46.56197" lon="4.9239">
        <ele>187</ele>
        <time>2022-06-25T08:35:49Z</time>
      </trkpt>
      <trkpt lat="46.562" lon="4.92381">
        <ele>187</ele>
        <time>2022-06-25T08:35:50Z</time>
      </trkpt>
      <trkpt lat="46.56202" lon="4.92372">
        <ele>187</ele>
        <time>2022-06-25T08:35:51Z</time>
      </trkpt>
      <trkpt lat="46.56205" lon="4.92363">
        <ele>187</ele>
        <time>2022-06-25T08:35:52Z</time>
      </trkpt>
      <trkpt lat="46.56208" lon="4.92354">
        <ele>187</ele>
        <time>2022-06-25T08:35:53Z</time>
      </trkpt>
      <trkpt lat="46.5621" lon="4.92345">
        <ele>187</ele>
        <time>2022-06-25T08:35:54Z</time>
      </trkpt>
      <trkpt lat="46.56213" lon="4.92336">
        <ele>187</ele>
        <time>2022-06-25T08:35:55Z</time>
      </trkpt>
      <trkpt lat="46.56215" lon="4.92327">
        <ele>187</ele>
        <time>2022-06-25T08:35:56Z</time>
      </trkpt>
      <trkpt lat="46.56218" lon="4.92319">
        <ele>187</ele>
        <time>2022-06-25T08:35:57Z</time>
      </trkpt>
      <trkpt lat="46.5622" lon="4.9231">
        <ele>187</ele>
        <time>2022-06-25T08:35:58Z</time>
      </trkpt>
      <trkpt lat="46.56223" lon="4.92301">
        <ele>187</ele>
        <time>2022-06-25T08:35:59Z</time>
      </trkpt>
      <trkpt lat="46.56225" lon="4.92293">
        <ele>187</ele>
        <time>2022-06-25T08:36:00Z</time>
      </trkpt>
      <trkpt lat="46.56228" lon="4.92285">
        <ele>187</ele>
        <time>2022-06-25T08:36:01Z</time>
      </trkpt>
      <trkpt lat="46.5623" lon="4.92277">
        <ele>187</ele>
        <time>2022-06-25T08:36:02Z</time>
      </trkpt>
      <trkpt lat="46.56232" lon="4.92269">
        <ele>187</ele>
        <time>2022-06-25T08:36:03Z</time>
      </trkpt>
      <trkpt lat="46.56235" lon="4.92261">
        <ele>187</ele>
        <time>2022-06-25T08:36:04Z</time>
      </trkpt>
      <trkpt lat="46.56237" lon="4.92253">
        <ele>187</ele>
        <time>2022-06-25T08:36:05Z</time>
      </trkpt>
      <trkpt lat="46.56239" lon="4.92245">
        <ele>187</ele>
        <time>2022-06-25T08:36:06Z</time>
      </trkpt>
      <trkpt lat="46.56242" lon="4.92237">
        <ele>187</ele>
        <time>2022-06-25T08:36:07Z</time>
      </trkpt>
      <trkpt lat="46.56244" lon="4.92229">
        <ele>187</ele>
        <time>2022-06-25T08:36:08Z</time>
      </trkpt>
      <trkpt lat="46.56247" lon="4.9222">
        <ele>187</ele>
        <time>2022-06-25T08:36:09Z</time>
      </trkpt>
      <trkpt lat="46.56249" lon="4.92212">
        <ele>187</ele>
        <time>2022-06-25T08:36:10Z</time>
      </trkpt>
      <trkpt lat="46.56251" lon="4.92204">
        <ele>187</ele>
        <time>2022-06-25T08:36:11Z</time>
      </trkpt>
      <trkpt lat="46.56253" lon="4.92195">
        <ele>187</ele>
        <time>2022-06-25T08:36:12Z</time>
      </trkpt>
      <trkpt lat="46.56256" lon="4.92187">
        <ele>187</ele>
        <time>2022-06-25T08:36:13Z</time>
      </trkpt>
      <trkpt lat="46.56258" lon="4.92178">
        <ele>187</ele>
        <time>2022-06-25T08:36:14Z</time>
      </trkpt>
      <trkpt lat="46.56261" lon="4.9217">
        <ele>187</ele>
        <time>2022-06-25T08:36:15Z</time>
      </trkpt>
      <trkpt lat="46.56263" lon="4.92161">
        <ele>187</ele>
        <time>2022-06-25T08:36:16Z</time>
      </trkpt>
      <trkpt lat="46.56266" lon="4.92153">
        <ele>187</ele>
        <time>2022-06-25T08:36:17Z</time>
      </trkpt>
      <trkpt lat="46.56268" lon="4.92144">
        <ele>187.2</ele>
        <time>2022-06-25T08:36:18Z</time>
      </trkpt>
      <trkpt lat="46.56271" lon="4.92136">
        <ele>187.2</ele>
        <time>2022-06-25T08:36:19Z</time>
      </trkpt>
      <trkpt lat="46.56273" lon="4.92127">
        <ele>187.2</ele>
        <time>2022-06-25T08:36:20Z</time>
      </trkpt>
      <trkpt lat="46.56276" lon="4.92119">
        <ele>187.2</ele>
        <time>2022-06-25T08:36:21Z</time>
      </trkpt>
      <trkpt lat="46.56278" lon="4.9211">
        <ele>187.2</ele>
        <time>2022-06-25T08:36:22Z</time>
      </trkpt>
      <trkpt lat="46.56281" lon="4.92102">
        <ele>187.2</ele>
        <time>2022-06-25T08:36:23Z</time>
      </trkpt>
      <trkpt lat="46.56283" lon="4.92093">
        <ele>187.2</ele>
        <time>2022-06-25T08:36:24Z</time>
      </trkpt>
      <trkpt lat="46.56286" lon="4.92085">
        <ele>187.2</ele>
        <time>2022-06-25T08:36:25Z</time>
      </trkpt>
      <trkpt lat="46.56288" lon="4.92076">
        <ele>187</ele>
        <time>2022-06-25T08:36:26Z</time>
      </trkpt>
      <trkpt lat="46.56291" lon="4.92067">
        <ele>187</ele>
        <time>2022-06-25T08:36:27Z</time>
      </trkpt>
      <trkpt lat="46.56293" lon="4.92059">
        <ele>187</ele>
        <time>2022-06-25T08:36:28Z</time>
      </trkpt>
      <trkpt lat="46.56296" lon="4.9205">
        <ele>187</ele>
        <time>2022-06-25T08:36:29Z</time>
      </trkpt>
      <trkpt lat="46.56301" lon="4.92033">
        <ele>187</ele>
        <time>2022-06-25T08:36:30Z</time>
      </trkpt>
      <trkpt lat="46.56303" lon="4.92024">
        <ele>187.2</ele>
        <time>2022-06-25T08:36:31Z</time>
      </trkpt>
      <trkpt lat="46.56306" lon="4.92016">
        <ele>187.2</ele>
        <time>2022-06-25T08:36:32Z</time>
      </trkpt>
      <trkpt lat="46.56308" lon="4.92007">
        <ele>187.2</ele>
        <time>2022-06-25T08:36:33Z</time>
      </trkpt>
      <trkpt lat="46.5631" lon="4.91999">
        <ele>187.2</ele>
        <time>2022-06-25T08:36:34Z</time>
      </trkpt>
      <trkpt lat="46.56313" lon="4.9199">
        <ele>187.2</ele>
        <time>2022-06-25T08:36:35Z</time>
      </trkpt>
      <trkpt lat="46.56315" lon="4.91981">
        <ele>187.2</ele>
        <time>2022-06-25T08:36:36Z</time>
      </trkpt>
      <trkpt lat="46.56317" lon="4.91972">
        <ele>187.2</ele>
        <time>2022-06-25T08:36:37Z</time>
      </trkpt>
      <trkpt lat="46.5632" lon="4.91963">
        <ele>187.2</ele>
        <time>2022-06-25T08:36:38Z</time>
      </trkpt>
      <trkpt lat="46.56322" lon="4.91954">
        <ele>187.2</ele>
        <time>2022-06-25T08:36:39Z</time>
      </trkpt>
      <trkpt lat="46.56325" lon="4.91945">
        <ele>187.2</ele>
        <time>2022-06-25T08:36:40Z</time>
      </trkpt>
      <trkpt lat="46.56327" lon="4.91936">
        <ele>187.2</ele>
        <time>2022-06-25T08:36:41Z</time>
      </trkpt>
      <trkpt lat="46.5633" lon="4.91927">
        <ele>187.2</ele>
        <time>2022-06-25T08:36:42Z</time>
      </trkpt>
      <trkpt lat="46.56333" lon="4.91918">
        <ele>187.2</ele>
        <time>2022-06-25T08:36:43Z</time>
      </trkpt>
      <trkpt lat="46.56336" lon="4.91909">
        <ele>187.2</ele>
        <time>2022-06-25T08:36:44Z</time>
      </trkpt>
      <trkpt lat="46.56339" lon="4.919">
        <ele>187</ele>
        <time>2022-06-25T08:36:45Z</time>
      </trkpt>
      <trkpt lat="46.56341" lon="4.91891">
        <ele>187</ele>
        <time>2022-06-25T08:36:46Z</time>
      </trkpt>
      <trkpt lat="46.56344" lon="4.91882">
        <ele>187</ele>
        <time>2022-06-25T08:36:47Z</time>
      </trkpt>
      <trkpt lat="46.56347" lon="4.91872">
        <ele>187</ele>
        <time>2022-06-25T08:36:48Z</time>
      </trkpt>
      <trkpt lat="46.56349" lon="4.91863">
        <ele>187</ele>
        <time>2022-06-25T08:36:49Z</time>
      </trkpt>
      <trkpt lat="46.56352" lon="4.91854">
        <ele>187.2</ele>
        <time>2022-06-25T08:36:50Z</time>
      </trkpt>
      <trkpt lat="46.56355" lon="4.91845">
        <ele>187.2</ele>
        <time>2022-06-25T08:36:51Z</time>
      </trkpt>
      <trkpt lat="46.56357" lon="4.91835">
        <ele>187.2</ele>
        <time>2022-06-25T08:36:52Z</time>
      </trkpt>
      <trkpt lat="46.5636" lon="4.91826">
        <ele>187.2</ele>
        <time>2022-06-25T08:36:53Z</time>
      </trkpt>
      <trkpt lat="46.56363" lon="4.91817">
        <ele>187.4</ele>
        <time>2022-06-25T08:36:54Z</time>
      </trkpt>
      <trkpt lat="46.56366" lon="4.91808">
        <ele>187.4</ele>
        <time>2022-06-25T08:36:55Z</time>
      </trkpt>
      <trkpt lat="46.56369" lon="4.91799">
        <ele>187.4</ele>
        <time>2022-06-25T08:36:56Z</time>
      </trkpt>
      <trkpt lat="46.56371" lon="4.9179">
        <ele>187.4</ele>
        <time>2022-06-25T08:36:57Z</time>
      </trkpt>
      <trkpt lat="46.56374" lon="4.91781">
        <ele>187.4</ele>
        <time>2022-06-25T08:36:58Z</time>
      </trkpt>
      <trkpt lat="46.56376" lon="4.91772">
        <ele>187.4</ele>
        <time>2022-06-25T08:36:59Z</time>
      </trkpt>
      <trkpt lat="46.56379" lon="4.91762">
        <ele>187.4</ele>
        <time>2022-06-25T08:37:00Z</time>
      </trkpt>
      <trkpt lat="46.56381" lon="4.91753">
        <ele>187.4</ele>
        <time>2022-06-25T08:37:01Z</time>
      </trkpt>
      <trkpt lat="46.56384" lon="4.91744">
        <ele>187.4</ele>
        <time>2022-06-25T08:37:02Z</time>
      </trkpt>
      <trkpt lat="46.56387" lon="4.91735">
        <ele>187.4</ele>
        <time>2022-06-25T08:37:03Z</time>
      </trkpt>
      <trkpt lat="46.5639" lon="4.91726">
        <ele>187.4</ele>
        <time>2022-06-25T08:37:04Z</time>
      </trkpt>
      <trkpt lat="46.56392" lon="4.91716">
        <ele>187.6</ele>
        <time>2022-06-25T08:37:05Z</time>
      </trkpt>
      <trkpt lat="46.56395" lon="4.91707">
        <ele>187.6</ele>
        <time>2022-06-25T08:37:06Z</time>
      </trkpt>
      <trkpt lat="46.56398" lon="4.91698">
        <ele>187.6</ele>
        <time>2022-06-25T08:37:07Z</time>
      </trkpt>
      <trkpt lat="46.564" lon="4.91689">
        <ele>187.6</ele>
        <time>2022-06-25T08:37:08Z</time>
      </trkpt>
      <trkpt lat="46.56403" lon="4.9168">
        <ele>187.6</ele>
        <time>2022-06-25T08:37:09Z</time>
      </trkpt>
      <trkpt lat="46.56406" lon="4.91671">
        <ele>187.4</ele>
        <time>2022-06-25T08:37:10Z</time>
      </trkpt>
      <trkpt lat="46.56408" lon="4.91662">
        <ele>187.4</ele>
        <time>2022-06-25T08:37:11Z</time>
      </trkpt>
      <trkpt lat="46.56411" lon="4.91653">
        <ele>187.4</ele>
        <time>2022-06-25T08:37:12Z</time>
      </trkpt>
      <trkpt lat="46.56413" lon="4.91644">
        <ele>187.4</ele>
        <time>2022-06-25T08:37:13Z</time>
      </trkpt>
      <trkpt lat="46.56416" lon="4.91636">
        <ele>187.4</ele>
        <time>2022-06-25T08:37:14Z</time>
      </trkpt>
      <trkpt lat="46.56418" lon="4.91627">
        <ele>187.4</ele>
        <time>2022-06-25T08:37:15Z</time>
      </trkpt>
      <trkpt lat="46.56421" lon="4.91619">
        <ele>187.4</ele>
        <time>2022-06-25T08:37:16Z</time>
      </trkpt>
      <trkpt lat="46.56423" lon="4.9161">
        <ele>187.4</ele>
        <time>2022-06-25T08:37:17Z</time>
      </trkpt>
      <trkpt lat="46.56426" lon="4.91602">
        <ele>187.4</ele>
        <time>2022-06-25T08:37:18Z</time>
      </trkpt>
      <trkpt lat="46.56428" lon="4.91593">
        <ele>187.4</ele>
        <time>2022-06-25T08:37:19Z</time>
      </trkpt>
      <trkpt lat="46.56431" lon="4.91585">
        <ele>187.6</ele>
        <time>2022-06-25T08:37:20Z</time>
      </trkpt>
      <trkpt lat="46.56433" lon="4.91576">
        <ele>187.6</ele>
        <time>2022-06-25T08:37:21Z</time>
      </trkpt>
      <trkpt lat="46.56436" lon="4.91568">
        <ele>187.6</ele>
        <time>2022-06-25T08:37:22Z</time>
      </trkpt>
      <trkpt lat="46.56438" lon="4.9156">
        <ele>187.6</ele>
        <time>2022-06-25T08:37:23Z</time>
      </trkpt>
      <trkpt lat="46.5644" lon="4.91552">
        <ele>188</ele>
        <time>2022-06-25T08:37:24Z</time>
      </trkpt>
      <trkpt lat="46.56443" lon="4.91544">
        <ele>188</ele>
        <time>2022-06-25T08:37:25Z</time>
      </trkpt>
      <trkpt lat="46.56445" lon="4.91536">
        <ele>188</ele>
        <time>2022-06-25T08:37:26Z</time>
      </trkpt>
      <trkpt lat="46.56447" lon="4.91528">
        <ele>188</ele>
        <time>2022-06-25T08:37:27Z</time>
      </trkpt>
      <trkpt lat="46.5645" lon="4.9152">
        <ele>188</ele>
        <time>2022-06-25T08:37:28Z</time>
      </trkpt>
      <trkpt lat="46.56452" lon="4.91513">
        <ele>188.2</ele>
        <time>2022-06-25T08:37:29Z</time>
      </trkpt>
      <trkpt lat="46.56454" lon="4.91505">
        <ele>188.2</ele>
        <time>2022-06-25T08:37:30Z</time>
      </trkpt>
      <trkpt lat="46.56456" lon="4.91498">
        <ele>188.2</ele>
        <time>2022-06-25T08:37:31Z</time>
      </trkpt>
      <trkpt lat="46.56458" lon="4.9149">
        <ele>188.6</ele>
        <time>2022-06-25T08:37:32Z</time>
      </trkpt>
      <trkpt lat="46.56459" lon="4.91483">
        <ele>188.6</ele>
        <time>2022-06-25T08:37:33Z</time>
      </trkpt>
      <trkpt lat="46.56461" lon="4.91476">
        <ele>188.8</ele>
        <time>2022-06-25T08:37:34Z</time>
      </trkpt>
      <trkpt lat="46.56462" lon="4.91468">
        <ele>188.8</ele>
        <time>2022-06-25T08:37:35Z</time>
      </trkpt>
      <trkpt lat="46.56464" lon="4.91461">
        <ele>189.2</ele>
        <time>2022-06-25T08:37:36Z</time>
      </trkpt>
      <trkpt lat="46.56465" lon="4.91454">
        <ele>189.2</ele>
        <time>2022-06-25T08:37:37Z</time>
      </trkpt>
      <trkpt lat="46.56466" lon="4.91447">
        <ele>189.4</ele>
        <time>2022-06-25T08:37:38Z</time>
      </trkpt>
      <trkpt lat="46.56466" lon="4.9144">
        <ele>189.4</ele>
        <time>2022-06-25T08:37:39Z</time>
      </trkpt>
      <trkpt lat="46.56466" lon="4.91433">
        <ele>189.6</ele>
        <time>2022-06-25T08:37:40Z</time>
      </trkpt>
      <trkpt lat="46.56466" lon="4.91426">
        <ele>189.6</ele>
        <time>2022-06-25T08:37:41Z</time>
      </trkpt>
      <trkpt lat="46.56465" lon="4.91419">
        <ele>190</ele>
        <time>2022-06-25T08:37:42Z</time>
      </trkpt>
      <trkpt lat="46.56464" lon="4.91412">
        <ele>190</ele>
        <time>2022-06-25T08:37:43Z</time>
      </trkpt>
      <trkpt lat="46.56462" lon="4.91406">
        <ele>190.2</ele>
        <time>2022-06-25T08:37:44Z</time>
      </trkpt>
      <trkpt lat="46.56461" lon="4.914">
        <ele>190.2</ele>
        <time>2022-06-25T08:37:45Z</time>
      </trkpt>
      <trkpt lat="46.56459" lon="4.91394">
        <ele>190.6</ele>
        <time>2022-06-25T08:37:46Z</time>
      </trkpt>
      <trkpt lat="46.56457" lon="4.91388">
        <ele>191</ele>
        <time>2022-06-25T08:37:47Z</time>
      </trkpt>
      <trkpt lat="46.56455" lon="4.91382">
        <ele>191.2</ele>
        <time>2022-06-25T08:37:48Z</time>
      </trkpt>
      <trkpt lat="46.56454" lon="4.91376">
        <ele>191.4</ele>
        <time>2022-06-25T08:37:49Z</time>
      </trkpt>
      <trkpt lat="46.56452" lon="4.9137">
        <ele>191.4</ele>
        <time>2022-06-25T08:37:50Z</time>
      </trkpt>
      <trkpt lat="46.5645" lon="4.91364">
        <ele>191.6</ele>
        <time>2022-06-25T08:37:51Z</time>
      </trkpt>
      <trkpt lat="46.56449" lon="4.91358">
        <ele>191.8</ele>
        <time>2022-06-25T08:37:52Z</time>
      </trkpt>
      <trkpt lat="46.56447" lon="4.91352">
        <ele>191.8</ele>
        <time>2022-06-25T08:37:53Z</time>
      </trkpt>
      <trkpt lat="46.56446" lon="4.91347">
        <ele>192.2</ele>
        <time>2022-06-25T08:37:54Z</time>
      </trkpt>
      <trkpt lat="46.56444" lon="4.91342">
        <ele>192.2</ele>
        <time>2022-06-25T08:37:55Z</time>
      </trkpt>
      <trkpt lat="46.56443" lon="4.91337">
        <ele>192.6</ele>
        <time>2022-06-25T08:37:56Z</time>
      </trkpt>
      <trkpt lat="46.56442" lon="4.91332">
        <ele>193</ele>
        <time>2022-06-25T08:37:57Z</time>
      </trkpt>
      <trkpt lat="46.5644" lon="4.91328">
        <ele>193</ele>
        <time>2022-06-25T08:37:58Z</time>
      </trkpt>
      <trkpt lat="46.56439" lon="4.91323">
        <ele>193.2</ele>
        <time>2022-06-25T08:37:59Z</time>
      </trkpt>
      <trkpt lat="46.56438" lon="4.91319">
        <ele>193.2</ele>
        <time>2022-06-25T08:38:00Z</time>
      </trkpt>
      <trkpt lat="46.56436" lon="4.91315">
        <ele>193.2</ele>
        <time>2022-06-25T08:38:01Z</time>
      </trkpt>
      <trkpt lat="46.56435" lon="4.9131">
        <ele>193.4</ele>
        <time>2022-06-25T08:38:02Z</time>
      </trkpt>
      <trkpt lat="46.56434" lon="4.91307">
        <ele>193.4</ele>
        <time>2022-06-25T08:38:03Z</time>
      </trkpt>
      <trkpt lat="46.56433" lon="4.91304">
        <ele>193.4</ele>
        <time>2022-06-25T08:38:04Z</time>
      </trkpt>
      <trkpt lat="46.56432" lon="4.91302">
        <ele>193.4</ele>
        <time>2022-06-25T08:38:05Z</time>
      </trkpt>
      <trkpt lat="46.56432" lon="4.91302">
        <ele>193.6</ele>
        <time>2022-06-25T08:38:07Z</time>
      </trkpt>
      <trkpt lat="46.56432" lon="4.91301">
        <ele>193.6</ele>
        <time>2022-06-25T08:38:08Z</time>
      </trkpt>
      <trkpt lat="46.56432" lon="4.91301">
        <ele>193.6</ele>
        <time>2022-06-25T08:38:11Z</time>
      </trkpt>
      <trkpt lat="46.56432" lon="4.913">
        <ele>193.6</ele>
        <time>2022-06-25T08:38:13Z</time>
      </trkpt>
      <trkpt lat="46.56432" lon="4.913">
        <ele>193.6</ele>
        <time>2022-06-25T08:38:16Z</time>
      </trkpt>
      <trkpt lat="46.56432" lon="4.913">
        <ele>193.6</ele>
        <time>2022-06-25T08:38:18Z</time>
      </trkpt>
      <trkpt lat="46.56432" lon="4.91299">
        <ele>193.6</ele>
        <time>2022-06-25T08:38:20Z</time>
      </trkpt>
      <trkpt lat="46.56431" lon="4.91299">
        <ele>193.6</ele>
        <time>2022-06-25T08:38:22Z</time>
      </trkpt>
      <trkpt lat="46.56431" lon="4.91298">
        <ele>193.6</ele>
        <time>2022-06-25T08:38:23Z</time>
      </trkpt>
      <trkpt lat="46.56431" lon="4.91298">
        <ele>193.6</ele>
        <time>2022-06-25T08:38:25Z</time>
      </trkpt>
      <trkpt lat="46.56431" lon="4.91297">
        <ele>193.6</ele>
        <time>2022-06-25T08:38:28Z</time>
      </trkpt>
      <trkpt lat="46.56431" lon="4.91297">
        <ele>193.6</ele>
        <time>2022-06-25T08:38:29Z</time>
      </trkpt>
      <trkpt lat="46.56431" lon="4.91297">
        <ele>193.6</ele>
        <time>2022-06-25T08:38:32Z</time>
      </trkpt>
      <trkpt lat="46.56431" lon="4.91296">
        <ele>193.6</ele>
        <time>2022-06-25T08:38:33Z</time>
      </trkpt>
      <trkpt lat="46.56431" lon="4.91296">
        <ele>193.8</ele>
        <time>2022-06-25T08:39:16Z</time>
      </trkpt>
      <trkpt lat="46.56431" lon="4.91295">
        <ele>193.8</ele>
        <time>2022-06-25T08:39:17Z</time>
      </trkpt>
      <trkpt lat="46.5643" lon="4.91295">
        <ele>193.8</ele>
        <time>2022-06-25T08:39:18Z</time>
      </trkpt>
      <trkpt lat="46.5643" lon="4.91295">
        <ele>193.8</ele>
        <time>2022-06-25T08:39:23Z</time>
      </trkpt>
      <trkpt lat="46.5643" lon="4.91294">
        <ele>193.8</ele>
        <time>2022-06-25T08:39:24Z</time>
      </trkpt>
      <trkpt lat="46.5643" lon="4.91294">
        <ele>193.8</ele>
        <time>2022-06-25T08:39:28Z</time>
      </trkpt>
      <trkpt lat="46.5643" lon="4.91293">
        <ele>193.8</ele>
        <time>2022-06-25T08:39:29Z</time>
      </trkpt>
      <trkpt lat="46.5643" lon="4.91293">
        <ele>193.8</ele>
        <time>2022-06-25T08:39:31Z</time>
      </trkpt>
      <trkpt lat="46.5643" lon="4.91292">
        <ele>193.8</ele>
        <time>2022-06-25T08:39:33Z</time>
      </trkpt>
      <trkpt lat="46.56429" lon="4.9129">
        <ele>193.8</ele>
        <time>2022-06-25T08:39:34Z</time>
      </trkpt>
      <trkpt lat="46.56428" lon="4.91287">
        <ele>193.8</ele>
        <time>2022-06-25T08:39:35Z</time>
      </trkpt>
      <trkpt lat="46.56427" lon="4.91283">
        <ele>193.6</ele>
        <time>2022-06-25T08:39:36Z</time>
      </trkpt>
      <trkpt lat="46.56426" lon="4.9128">
        <ele>193.6</ele>
        <time>2022-06-25T08:39:37Z</time>
      </trkpt>
      <trkpt lat="46.56425" lon="4.91276">
        <ele>193.6</ele>
        <time>2022-06-25T08:39:38Z</time>
      </trkpt>
      <trkpt lat="46.56424" lon="4.91272">
        <ele>193.4</ele>
        <time>2022-06-25T08:39:39Z</time>
      </trkpt>
      <trkpt lat="46.56422" lon="4.91268">
        <ele>193.4</ele>
        <time>2022-06-25T08:39:40Z</time>
      </trkpt>
      <trkpt lat="46.56421" lon="4.91264">
        <ele>193.4</ele>
        <time>2022-06-25T08:39:41Z</time>
      </trkpt>
      <trkpt lat="46.5642" lon="4.9126">
        <ele>193</ele>
        <time>2022-06-25T08:39:42Z</time>
      </trkpt>
      <trkpt lat="46.56419" lon="4.91256">
        <ele>193</ele>
        <time>2022-06-25T08:39:43Z</time>
      </trkpt>
      <trkpt lat="46.56418" lon="4.91252">
        <ele>192.6</ele>
        <time>2022-06-25T08:39:44Z</time>
      </trkpt>
      <trkpt lat="46.56417" lon="4.91248">
        <ele>192.6</ele>
        <time>2022-06-25T08:39:45Z</time>
      </trkpt>
      <trkpt lat="46.56416" lon="4.91245">
        <ele>192.6</ele>
        <time>2022-06-25T08:39:46Z</time>
      </trkpt>
      <trkpt lat="46.56415" lon="4.91241">
        <ele>192.2</ele>
        <time>2022-06-25T08:39:47Z</time>
      </trkpt>
      <trkpt lat="46.56414" lon="4.91237">
        <ele>192.2</ele>
        <time>2022-06-25T08:39:48Z</time>
      </trkpt>
      <trkpt lat="46.56413" lon="4.91234">
        <ele>191.8</ele>
        <time>2022-06-25T08:39:49Z</time>
      </trkpt>
      <trkpt lat="46.56412" lon="4.91231">
        <ele>191.8</ele>
        <time>2022-06-25T08:39:50Z</time>
      </trkpt>
      <trkpt lat="46.56411" lon="4.91228">
        <ele>191.4</ele>
        <time>2022-06-25T08:39:51Z</time>
      </trkpt>
      <trkpt lat="46.5641" lon="4.91226">
        <ele>191.4</ele>
        <time>2022-06-25T08:39:52Z</time>
      </trkpt>
      <trkpt lat="46.5641" lon="4.91225">
        <ele>191.2</ele>
        <time>2022-06-25T08:39:53Z</time>
      </trkpt>
      <trkpt lat="46.5641" lon="4.91225">
        <ele>191.2</ele>
        <time>2022-06-25T08:39:55Z</time>
      </trkpt>
      <trkpt lat="46.5641" lon="4.9122">
        <ele>191</ele>
        <time>2022-06-25T08:39:58Z</time>
      </trkpt>
      <trkpt lat="46.56409" lon="4.91219">
        <ele>191</ele>
        <time>2022-06-25T08:39:59Z</time>
      </trkpt>
      <trkpt lat="46.56409" lon="4.91218">
        <ele>190.8</ele>
        <time>2022-06-25T08:40:00Z</time>
      </trkpt>
      <trkpt lat="46.56408" lon="4.91215">
        <ele>190.6</ele>
        <time>2022-06-25T08:40:06Z</time>
      </trkpt>
      <trkpt lat="46.56407" lon="4.91213">
        <ele>190.6</ele>
        <time>2022-06-25T08:40:07Z</time>
      </trkpt>
      <trkpt lat="46.56406" lon="4.91211">
        <ele>190.6</ele>
        <time>2022-06-25T08:40:08Z</time>
      </trkpt>
      <trkpt lat="46.56405" lon="4.91208">
        <ele>190.6</ele>
        <time>2022-06-25T08:40:09Z</time>
      </trkpt>
      <trkpt lat="46.56403" lon="4.91204">
        <ele>190.6</ele>
        <time>2022-06-25T08:40:10Z</time>
      </trkpt>
      <trkpt lat="46.56402" lon="4.912">
        <ele>190.6</ele>
        <time>2022-06-25T08:40:11Z</time>
      </trkpt>
      <trkpt lat="46.56401" lon="4.91196">
        <ele>190.6</ele>
        <time>2022-06-25T08:40:12Z</time>
      </trkpt>
      <trkpt lat="46.56399" lon="4.91192">
        <ele>190.6</ele>
        <time>2022-06-25T08:40:13Z</time>
      </trkpt>
      <trkpt lat="46.56398" lon="4.91188">
        <ele>190.8</ele>
        <time>2022-06-25T08:40:14Z</time>
      </trkpt>
      <trkpt lat="46.56397" lon="4.91184">
        <ele>190.8</ele>
        <time>2022-06-25T08:40:15Z</time>
      </trkpt>
      <trkpt lat="46.56397" lon="4.9118">
        <ele>190.8</ele>
        <time>2022-06-25T08:40:16Z</time>
      </trkpt>
      <trkpt lat="46.56396" lon="4.91176">
        <ele>190.8</ele>
        <time>2022-06-25T08:40:17Z</time>
      </trkpt>
      <trkpt lat="46.56395" lon="4.91172">
        <ele>191</ele>
        <time>2022-06-25T08:40:18Z</time>
      </trkpt>
      <trkpt lat="46.56393" lon="4.91168">
        <ele>191</ele>
        <time>2022-06-25T08:40:19Z</time>
      </trkpt>
      <trkpt lat="46.56392" lon="4.91165">
        <ele>191</ele>
        <time>2022-06-25T08:40:20Z</time>
      </trkpt>
      <trkpt lat="46.56391" lon="4.91161">
        <ele>191</ele>
        <time>2022-06-25T08:40:21Z</time>
      </trkpt>
      <trkpt lat="46.5639" lon="4.91156">
        <ele>191.2</ele>
        <time>2022-06-25T08:40:22Z</time>
      </trkpt>
      <trkpt lat="46.56389" lon="4.91152">
        <ele>191.2</ele>
        <time>2022-06-25T08:40:23Z</time>
      </trkpt>
      <trkpt lat="46.56387" lon="4.91149">
        <ele>191.2</ele>
        <time>2022-06-25T08:40:24Z</time>
      </trkpt>
      <trkpt lat="46.56386" lon="4.91145">
        <ele>191.2</ele>
        <time>2022-06-25T08:40:25Z</time>
      </trkpt>
      <trkpt lat="46.56385" lon="4.91142">
        <ele>191.4</ele>
        <time>2022-06-25T08:40:26Z</time>
      </trkpt>
      <trkpt lat="46.56384" lon="4.91138">
        <ele>191.4</ele>
        <time>2022-06-25T08:40:27Z</time>
      </trkpt>
      <trkpt lat="46.56383" lon="4.91135">
        <ele>191.4</ele>
        <time>2022-06-25T08:40:28Z</time>
      </trkpt>
      <trkpt lat="46.56382" lon="4.91132">
        <ele>191.4</ele>
        <time>2022-06-25T08:40:29Z</time>
      </trkpt>
      <trkpt lat="46.56381" lon="4.91128">
        <ele>191.4</ele>
        <time>2022-06-25T08:40:30Z</time>
      </trkpt>
      <trkpt lat="46.56381" lon="4.91125">
        <ele>191.8</ele>
        <time>2022-06-25T08:40:31Z</time>
      </trkpt>
      <trkpt lat="46.5638" lon="4.91122">
        <ele>191.8</ele>
        <time>2022-06-25T08:40:32Z</time>
      </trkpt>
      <trkpt lat="46.56378" lon="4.91119">
        <ele>191.8</ele>
        <time>2022-06-25T08:40:33Z</time>
      </trkpt>
      <trkpt lat="46.56378" lon="4.91116">
        <ele>191.8</ele>
        <time>2022-06-25T08:40:34Z</time>
      </trkpt>
      <trkpt lat="46.56377" lon="4.91112">
        <ele>191.8</ele>
        <time>2022-06-25T08:40:35Z</time>
      </trkpt>
      <trkpt lat="46.56376" lon="4.91109">
        <ele>192</ele>
        <time>2022-06-25T08:40:36Z</time>
      </trkpt>
      <trkpt lat="46.56375" lon="4.91107">
        <ele>192</ele>
        <time>2022-06-25T08:40:37Z</time>
      </trkpt>
      <trkpt lat="46.56374" lon="4.91106">
        <ele>192</ele>
        <time>2022-06-25T08:40:38Z</time>
      </trkpt>
      <trkpt lat="46.56374" lon="4.91106">
        <ele>192</ele>
        <time>2022-06-25T08:40:40Z</time>
      </trkpt>
      <trkpt lat="46.56374" lon="4.91106">
        <ele>192</ele>
        <time>2022-06-25T08:40:42Z</time>
      </trkpt>
      <trkpt lat="46.56373" lon="4.91107">
        <ele>192</ele>
        <time>2022-06-25T08:40:44Z</time>
      </trkpt>
      <trkpt lat="46.56373" lon="4.91107">
        <ele>192</ele>
        <time>2022-06-25T08:40:45Z</time>
      </trkpt>
      <trkpt lat="46.56373" lon="4.91107">
        <ele>192</ele>
        <time>2022-06-25T08:40:54Z</time>
      </trkpt>
      <trkpt lat="46.56373" lon="4.91108">
        <ele>192</ele>
        <time>2022-06-25T08:40:56Z</time>
      </trkpt>
      <trkpt lat="46.56373" lon="4.91108">
        <ele>192</ele>
        <time>2022-06-25T08:40:57Z</time>
      </trkpt>
      <trkpt lat="46.56373" lon="4.91108">
        <ele>192</ele>
        <time>2022-06-25T08:41:00Z</time>
      </trkpt>
      <trkpt lat="46.56373" lon="4.91108">
        <ele>191.8</ele>
        <time>2022-06-25T08:41:06Z</time>
      </trkpt>
      <trkpt lat="46.56372" lon="4.91109">
        <ele>191.8</ele>
        <time>2022-06-25T08:41:07Z</time>
      </trkpt>
      <trkpt lat="46.56372" lon="4.91109">
        <ele>191.6</ele>
        <time>2022-06-25T08:41:10Z</time>
      </trkpt>
      <trkpt lat="46.56372" lon="4.91109">
        <ele>191.6</ele>
        <time>2022-06-25T08:41:12Z</time>
      </trkpt>
      <trkpt lat="46.56372" lon="4.9111">
        <ele>191.6</ele>
        <time>2022-06-25T08:41:13Z</time>
      </trkpt>
      <trkpt lat="46.56372" lon="4.9111">
        <ele>191.6</ele>
        <time>2022-06-25T08:41:20Z</time>
      </trkpt>
      <trkpt lat="46.56372" lon="4.9111">
        <ele>191.6</ele>
        <time>2022-06-25T08:41:22Z</time>
      </trkpt>
      <trkpt lat="46.56371" lon="4.91111">
        <ele>191.6</ele>
        <time>2022-06-25T08:41:24Z</time>
      </trkpt>
      <trkpt lat="46.56371" lon="4.91111">
        <ele>191.6</ele>
        <time>2022-06-25T08:41:25Z</time>
      </trkpt>
      <trkpt lat="46.56371" lon="4.91111">
        <ele>191.2</ele>
        <time>2022-06-25T08:41:28Z</time>
      </trkpt>
      <trkpt lat="46.56371" lon="4.91111">
        <ele>191.2</ele>
        <time>2022-06-25T08:41:31Z</time>
      </trkpt>
      <trkpt lat="46.56371" lon="4.91112">
        <ele>191.2</ele>
        <time>2022-06-25T08:41:32Z</time>
      </trkpt>
      <trkpt lat="46.56371" lon="4.91112">
        <ele>191.2</ele>
        <time>2022-06-25T08:41:34Z</time>
      </trkpt>
      <trkpt lat="46.56371" lon="4.91112">
        <ele>191.2</ele>
        <time>2022-06-25T08:41:36Z</time>
      </trkpt>
      <trkpt lat="46.5637" lon="4.91113">
        <ele>191.2</ele>
        <time>2022-06-25T08:41:37Z</time>
      </trkpt>
      <trkpt lat="46.5637" lon="4.91113">
        <ele>191.2</ele>
        <time>2022-06-25T08:41:39Z</time>
      </trkpt>
      <trkpt lat="46.5637" lon="4.91113">
        <ele>191.2</ele>
        <time>2022-06-25T08:41:41Z</time>
      </trkpt>
      <trkpt lat="46.5637" lon="4.91114">
        <ele>191</ele>
        <time>2022-06-25T08:41:49Z</time>
      </trkpt>
      <trkpt lat="46.5637" lon="4.91114">
        <ele>191</ele>
        <time>2022-06-25T08:41:50Z</time>
      </trkpt>
      <trkpt lat="46.5637" lon="4.91114">
        <ele>191</ele>
        <time>2022-06-25T08:41:52Z</time>
      </trkpt>
      <trkpt lat="46.56369" lon="4.91115">
        <ele>191</ele>
        <time>2022-06-25T08:41:54Z</time>
      </trkpt>
      <trkpt lat="46.56369" lon="4.91115">
        <ele>191</ele>
        <time>2022-06-25T08:41:55Z</time>
      </trkpt>
      <trkpt lat="46.56369" lon="4.91115">
        <ele>191</ele>
        <time>2022-06-25T08:41:57Z</time>
      </trkpt>
      <trkpt lat="46.56369" lon="4.91115">
        <ele>191</ele>
        <time>2022-06-25T08:41:59Z</time>
      </trkpt>
      <trkpt lat="46.56369" lon="4.91116">
        <ele>191</ele>
        <time>2022-06-25T08:42:00Z</time>
      </trkpt>
      <trkpt lat="46.56369" lon="4.91116">
        <ele>191</ele>
        <time>2022-06-25T08:42:02Z</time>
      </trkpt>
      <trkpt lat="46.56369" lon="4.91116">
        <ele>191</ele>
        <time>2022-06-25T08:42:04Z</time>
      </trkpt>
      <trkpt lat="46.56368" lon="4.91117">
        <ele>191</ele>
        <time>2022-06-25T08:42:05Z</time>
      </trkpt>
      <trkpt lat="46.56368" lon="4.91117">
        <ele>191</ele>
        <time>2022-06-25T08:42:07Z</time>
      </trkpt>
      <trkpt lat="46.56368" lon="4.91118">
        <ele>191</ele>
        <time>2022-06-25T08:42:09Z</time>
      </trkpt>
      <trkpt lat="46.56367" lon="4.91118">
        <ele>191</ele>
        <time>2022-06-25T08:42:10Z</time>
      </trkpt>
      <trkpt lat="46.56367" lon="4.91119">
        <ele>191</ele>
        <time>2022-06-25T08:42:12Z</time>
      </trkpt>
      <trkpt lat="46.56367" lon="4.91119">
        <ele>191</ele>
        <time>2022-06-25T08:42:14Z</time>
      </trkpt>
      <trkpt lat="46.56366" lon="4.91119">
        <ele>191</ele>
        <time>2022-06-25T08:42:16Z</time>
      </trkpt>
      <trkpt lat="46.56366" lon="4.9112">
        <ele>191</ele>
        <time>2022-06-25T08:42:17Z</time>
      </trkpt>
      <trkpt lat="46.56366" lon="4.9112">
        <ele>191</ele>
        <time>2022-06-25T08:42:19Z</time>
      </trkpt>
      <trkpt lat="46.56365" lon="4.9112">
        <ele>191</ele>
        <time>2022-06-25T08:42:20Z</time>
      </trkpt>
      <trkpt lat="46.56365" lon="4.91121">
        <ele>191</ele>
        <time>2022-06-25T08:42:21Z</time>
      </trkpt>
      <trkpt lat="46.56364" lon="4.91122">
        <ele>191</ele>
        <time>2022-06-25T08:42:23Z</time>
      </trkpt>
      <trkpt lat="46.56364" lon="4.91122">
        <ele>191</ele>
        <time>2022-06-25T08:42:24Z</time>
      </trkpt>
      <trkpt lat="46.56364" lon="4.91122">
        <ele>191</ele>
        <time>2022-06-25T08:42:27Z</time>
      </trkpt>
      <trkpt lat="46.56363" lon="4.91122">
        <ele>190.8</ele>
        <time>2022-06-25T08:42:29Z</time>
      </trkpt>
      <trkpt lat="46.56363" lon="4.91122">
        <ele>190.8</ele>
        <time>2022-06-25T08:42:30Z</time>
      </trkpt>
      <trkpt lat="46.56363" lon="4.91123">
        <ele>190.8</ele>
        <time>2022-06-25T08:42:32Z</time>
      </trkpt>
      <trkpt lat="46.56363" lon="4.91123">
        <ele>190.6</ele>
        <time>2022-06-25T08:42:34Z</time>
      </trkpt>
      <trkpt lat="46.56363" lon="4.91123">
        <ele>190.6</ele>
        <time>2022-06-25T08:42:37Z</time>
      </trkpt>
      <trkpt lat="46.56363" lon="4.91123">
        <ele>190.6</ele>
        <time>2022-06-25T08:42:39Z</time>
      </trkpt>
      <trkpt lat="46.56363" lon="4.91123">
        <ele>190.6</ele>
        <time>2022-06-25T08:42:41Z</time>
      </trkpt>
      <trkpt lat="46.56362" lon="4.91123">
        <ele>190.2</ele>
        <time>2022-06-25T08:42:42Z</time>
      </trkpt>
      <trkpt lat="46.56362" lon="4.91123">
        <ele>190.2</ele>
        <time>2022-06-25T08:42:44Z</time>
      </trkpt>
      <trkpt lat="46.56362" lon="4.91123">
        <ele>190.2</ele>
        <time>2022-06-25T08:42:47Z</time>
      </trkpt>
      <trkpt lat="46.56362" lon="4.91123">
        <ele>190</ele>
        <time>2022-06-25T08:42:49Z</time>
      </trkpt>
      <trkpt lat="46.56362" lon="4.91123">
        <ele>190</ele>
        <time>2022-06-25T08:42:51Z</time>
      </trkpt>
      <trkpt lat="46.56362" lon="4.91123">
        <ele>190</ele>
        <time>2022-06-25T08:42:53Z</time>
      </trkpt>
      <trkpt lat="46.56361" lon="4.91124">
        <ele>190</ele>
        <time>2022-06-25T08:42:54Z</time>
      </trkpt>
      <trkpt lat="46.56361" lon="4.91124">
        <ele>190</ele>
        <time>2022-06-25T08:42:56Z</time>
      </trkpt>
      <trkpt lat="46.56361" lon="4.91124">
        <ele>190</ele>
        <time>2022-06-25T08:42:58Z</time>
      </trkpt>
      <trkpt lat="46.56361" lon="4.91124">
        <ele>190</ele>
        <time>2022-06-25T08:43:00Z</time>
      </trkpt>
      <trkpt lat="46.56361" lon="4.91124">
        <ele>190</ele>
        <time>2022-06-25T08:43:03Z</time>
      </trkpt>
      <trkpt lat="46.56361" lon="4.91124">
        <ele>190</ele>
        <time>2022-06-25T08:43:10Z</time>
      </trkpt>
      <trkpt lat="46.5636" lon="4.91124">
        <ele>190</ele>
        <time>2022-06-25T08:43:12Z</time>
      </trkpt>
      <trkpt lat="46.5636" lon="4.91124">
        <ele>190</ele>
        <time>2022-06-25T08:43:13Z</time>
      </trkpt>
      <trkpt lat="46.5636" lon="4.91124">
        <ele>190</ele>
        <time>2022-06-25T08:43:15Z</time>
      </trkpt>
      <trkpt lat="46.5636" lon="4.91124">
        <ele>190</ele>
        <time>2022-06-25T08:43:17Z</time>
      </trkpt>
      <trkpt lat="46.5636" lon="4.91124">
        <ele>190</ele>
        <time>2022-06-25T08:43:19Z</time>
      </trkpt>
      <trkpt lat="46.5636" lon="4.91125">
        <ele>190</ele>
        <time>2022-06-25T08:43:20Z</time>
      </trkpt>
      <trkpt lat="46.5636" lon="4.91125">
        <ele>190</ele>
        <time>2022-06-25T08:43:22Z</time>
      </trkpt>
      <trkpt lat="46.56359" lon="4.91125">
        <ele>190</ele>
        <time>2022-06-25T08:43:24Z</time>
      </trkpt>
      <trkpt lat="46.56359" lon="4.91125">
        <ele>189.8</ele>
        <time>2022-06-25T08:43:27Z</time>
      </trkpt>
      <trkpt lat="46.56359" lon="4.91125">
        <ele>189.8</ele>
        <time>2022-06-25T08:43:30Z</time>
      </trkpt>
      <trkpt lat="46.56359" lon="4.91125">
        <ele>189.8</ele>
        <time>2022-06-25T08:43:32Z</time>
      </trkpt>
      <trkpt lat="46.56359" lon="4.91125">
        <ele>189.8</ele>
        <time>2022-06-25T08:43:35Z</time>
      </trkpt>
      <trkpt lat="46.56359" lon="4.91125">
        <ele>189.8</ele>
        <time>2022-06-25T08:43:37Z</time>
      </trkpt>
      <trkpt lat="46.56358" lon="4.91125">
        <ele>189.8</ele>
        <time>2022-06-25T08:43:38Z</time>
      </trkpt>
      <trkpt lat="46.56358" lon="4.91125">
        <ele>189.8</ele>
        <time>2022-06-25T08:43:40Z</time>
      </trkpt>
      <trkpt lat="46.56358" lon="4.91125">
        <ele>189.8</ele>
        <time>2022-06-25T08:43:42Z</time>
      </trkpt>
      <trkpt lat="46.56358" lon="4.91126">
        <ele>189.8</ele>
        <time>2022-06-25T08:43:43Z</time>
      </trkpt>
      <trkpt lat="46.56358" lon="4.91126">
        <ele>189.6</ele>
        <time>2022-06-25T08:43:46Z</time>
      </trkpt>
      <trkpt lat="46.56358" lon="4.91126">
        <ele>189.6</ele>
        <time>2022-06-25T08:43:50Z</time>
      </trkpt>
      <trkpt lat="46.56357" lon="4.91126">
        <ele>189.6</ele>
        <time>2022-06-25T08:43:53Z</time>
      </trkpt>
      <trkpt lat="46.56357" lon="4.91126">
        <ele>189.6</ele>
        <time>2022-06-25T08:43:54Z</time>
      </trkpt>
      <trkpt lat="46.56357" lon="4.91126">
        <ele>189.6</ele>
        <time>2022-06-25T08:43:56Z</time>
      </trkpt>
      <trkpt lat="46.56357" lon="4.91126">
        <ele>189.6</ele>
        <time>2022-06-25T08:44:02Z</time>
      </trkpt>
      <trkpt lat="46.56357" lon="4.91126">
        <ele>189.6</ele>
        <time>2022-06-25T08:44:04Z</time>
      </trkpt>
      <trkpt lat="46.56357" lon="4.91126">
        <ele>189.8</ele>
        <time>2022-06-25T08:44:07Z</time>
      </trkpt>
      <trkpt lat="46.56356" lon="4.91126">
        <ele>189.8</ele>
        <time>2022-06-25T08:44:10Z</time>
      </trkpt>
      <trkpt lat="46.56356" lon="4.91127">
        <ele>190</ele>
        <time>2022-06-25T08:44:12Z</time>
      </trkpt>
      <trkpt lat="46.56356" lon="4.91127">
        <ele>190</ele>
        <time>2022-06-25T08:44:14Z</time>
      </trkpt>
      <trkpt lat="46.56356" lon="4.91127">
        <ele>190</ele>
        <time>2022-06-25T08:44:22Z</time>
      </trkpt>
      <trkpt lat="46.56356" lon="4.91127">
        <ele>190</ele>
        <time>2022-06-25T08:44:26Z</time>
      </trkpt>
      <trkpt lat="46.56356" lon="4.91127">
        <ele>190</ele>
        <time>2022-06-25T08:44:28Z</time>
      </trkpt>
      <trkpt lat="46.56355" lon="4.91127">
        <ele>190.2</ele>
        <time>2022-06-25T08:44:30Z</time>
      </trkpt>
      <trkpt lat="46.56355" lon="4.91127">
        <ele>190.2</ele>
        <time>2022-06-25T08:44:33Z</time>
      </trkpt>
      <trkpt lat="46.56355" lon="4.91127">
        <ele>190.2</ele>
        <time>2022-06-25T08:44:35Z</time>
      </trkpt>
      <trkpt lat="46.56355" lon="4.91127">
        <ele>190.2</ele>
        <time>2022-06-25T08:44:37Z</time>
      </trkpt>
      <trkpt lat="46.56355" lon="4.91127">
        <ele>190.2</ele>
        <time>2022-06-25T08:44:39Z</time>
      </trkpt>
      <trkpt lat="46.56355" lon="4.91128">
        <ele>190.2</ele>
        <time>2022-06-25T08:44:44Z</time>
      </trkpt>
      <trkpt lat="46.56355" lon="4.91128">
        <ele>190.2</ele>
        <time>2022-06-25T08:44:49Z</time>
      </trkpt>
      <trkpt lat="46.56354" lon="4.91128">
        <ele>190.2</ele>
        <time>2022-06-25T08:44:50Z</time>
      </trkpt>
      <trkpt lat="46.56354" lon="4.91128">
        <ele>190.2</ele>
        <time>2022-06-25T08:44:52Z</time>
      </trkpt>
      <trkpt lat="46.56354" lon="4.91128">
        <ele>190.2</ele>
        <time>2022-06-25T08:44:54Z</time>
      </trkpt>
      <trkpt lat="46.56354" lon="4.91128">
        <ele>190.2</ele>
        <time>2022-06-25T08:44:56Z</time>
      </trkpt>
      <trkpt lat="46.56354" lon="4.91128">
        <ele>190.2</ele>
        <time>2022-06-25T08:44:58Z</time>
      </trkpt>
      <trkpt lat="46.56354" lon="4.91128">
        <ele>190.2</ele>
        <time>2022-06-25T08:45:00Z</time>
      </trkpt>
      <trkpt lat="46.56353" lon="4.91128">
        <ele>190.2</ele>
        <time>2022-06-25T08:45:06Z</time>
      </trkpt>
      <trkpt lat="46.56353" lon="4.91128">
        <ele>190.2</ele>
        <time>2022-06-25T08:45:07Z</time>
      </trkpt>
      <trkpt lat="46.56353" lon="4.91128">
        <ele>190.2</ele>
        <time>2022-06-25T08:45:09Z</time>
      </trkpt>
      <trkpt lat="46.56353" lon="4.91128">
        <ele>190.2</ele>
        <time>2022-06-25T08:45:11Z</time>
      </trkpt>
      <trkpt lat="46.56353" lon="4.91129">
        <ele>190.2</ele>
        <time>2022-06-25T08:45:12Z</time>
      </trkpt>
      <trkpt lat="46.56353" lon="4.91129">
        <ele>190.2</ele>
        <time>2022-06-25T08:45:14Z</time>
      </trkpt>
      <trkpt lat="46.56353" lon="4.91129">
        <ele>190.2</ele>
        <time>2022-06-25T08:45:16Z</time>
      </trkpt>
      <trkpt lat="46.56352" lon="4.91129">
        <ele>190.2</ele>
        <time>2022-06-25T08:45:18Z</time>
      </trkpt>
      <trkpt lat="46.56352" lon="4.91129">
        <ele>190.2</ele>
        <time>2022-06-25T08:45:19Z</time>
      </trkpt>
      <trkpt lat="46.56352" lon="4.91129">
        <ele>190.2</ele>
        <time>2022-06-25T08:45:21Z</time>
      </trkpt>
      <trkpt lat="46.56352" lon="4.91129">
        <ele>190.2</ele>
        <time>2022-06-25T08:45:26Z</time>
      </trkpt>
      <trkpt lat="46.56352" lon="4.91129">
        <ele>190.6</ele>
        <time>2022-06-25T08:45:29Z</time>
      </trkpt>
      <trkpt lat="46.56352" lon="4.91129">
        <ele>190.6</ele>
        <time>2022-06-25T08:45:33Z</time>
      </trkpt>
      <trkpt lat="46.56351" lon="4.91129">
        <ele>190.6</ele>
        <time>2022-06-25T08:45:35Z</time>
      </trkpt>
      <trkpt lat="46.56351" lon="4.91129">
        <ele>190.6</ele>
        <time>2022-06-25T08:45:37Z</time>
      </trkpt>
      <trkpt lat="46.56351" lon="4.9113">
        <ele>190.6</ele>
        <time>2022-06-25T08:45:39Z</time>
      </trkpt>
      <trkpt lat="46.56351" lon="4.9113">
        <ele>190.6</ele>
        <time>2022-06-25T08:45:40Z</time>
      </trkpt>
      <trkpt lat="46.56351" lon="4.9113">
        <ele>190.6</ele>
        <time>2022-06-25T08:45:42Z</time>
      </trkpt>
      <trkpt lat="46.56351" lon="4.9113">
        <ele>190.6</ele>
        <time>2022-06-25T08:45:44Z</time>
      </trkpt>
      <trkpt lat="46.56351" lon="4.9113">
        <ele>190.6</ele>
        <time>2022-06-25T08:45:47Z</time>
      </trkpt>
      <trkpt lat="46.5635" lon="4.9113">
        <ele>190.6</ele>
        <time>2022-06-25T08:45:48Z</time>
      </trkpt>
      <trkpt lat="46.5635" lon="4.9113">
        <ele>190.6</ele>
        <time>2022-06-25T08:45:50Z</time>
      </trkpt>
      <trkpt lat="46.5635" lon="4.9113">
        <ele>190.6</ele>
        <time>2022-06-25T08:45:54Z</time>
      </trkpt>
      <trkpt lat="46.5635" lon="4.9113">
        <ele>190.6</ele>
        <time>2022-06-25T08:45:56Z</time>
      </trkpt>
      <trkpt lat="46.5635" lon="4.9113">
        <ele>190.6</ele>
        <time>2022-06-25T08:45:58Z</time>
      </trkpt>
      <trkpt lat="46.5635" lon="4.9113">
        <ele>190.6</ele>
        <time>2022-06-25T08:46:00Z</time>
      </trkpt>
      <trkpt lat="46.56349" lon="4.91131">
        <ele>190.6</ele>
        <time>2022-06-25T08:46:01Z</time>
      </trkpt>
      <trkpt lat="46.56349" lon="4.91131">
        <ele>190.6</ele>
        <time>2022-06-25T08:46:04Z</time>
      </trkpt>
      <trkpt lat="46.56349" lon="4.91131">
        <ele>190.6</ele>
        <time>2022-06-25T08:46:06Z</time>
      </trkpt>
      <trkpt lat="46.56349" lon="4.91131">
        <ele>190.6</ele>
        <time>2022-06-25T08:46:09Z</time>
      </trkpt>
      <trkpt lat="46.56349" lon="4.91131">
        <ele>190.6</ele>
        <time>2022-06-25T08:46:11Z</time>
      </trkpt>
      <trkpt lat="46.56348" lon="4.91131">
        <ele>190.6</ele>
        <time>2022-06-25T08:46:14Z</time>
      </trkpt>
      <trkpt lat="46.56348" lon="4.91131">
        <ele>190.6</ele>
        <time>2022-06-25T08:46:15Z</time>
      </trkpt>
      <trkpt lat="46.56348" lon="4.91131">
        <ele>190.6</ele>
        <time>2022-06-25T08:46:17Z</time>
      </trkpt>
      <trkpt lat="46.56348" lon="4.91131">
        <ele>190.6</ele>
        <time>2022-06-25T08:46:19Z</time>
      </trkpt>
      <trkpt lat="46.56348" lon="4.91131">
        <ele>190.6</ele>
        <time>2022-06-25T08:46:21Z</time>
      </trkpt>
      <trkpt lat="46.56348" lon="4.91132">
        <ele>190.6</ele>
        <time>2022-06-25T08:46:22Z</time>
      </trkpt>
      <trkpt lat="46.56347" lon="4.91131">
        <ele>190.6</ele>
        <time>2022-06-25T08:46:24Z</time>
      </trkpt>
      <trkpt lat="46.56347" lon="4.91132">
        <ele>190.6</ele>
        <time>2022-06-25T08:46:25Z</time>
      </trkpt>
      <trkpt lat="46.56347" lon="4.91132">
        <ele>190.6</ele>
        <time>2022-06-25T08:46:27Z</time>
      </trkpt>
      <trkpt lat="46.56347" lon="4.91132">
        <ele>190.6</ele>
        <time>2022-06-25T08:46:29Z</time>
      </trkpt>
      <trkpt lat="46.56347" lon="4.91132">
        <ele>190.6</ele>
        <time>2022-06-25T08:46:31Z</time>
      </trkpt>
      <trkpt lat="46.56347" lon="4.91132">
        <ele>190.6</ele>
        <time>2022-06-25T08:46:33Z</time>
      </trkpt>
      <trkpt lat="46.56347" lon="4.91133">
        <ele>190.6</ele>
        <time>2022-06-25T08:46:35Z</time>
      </trkpt>
      <trkpt lat="46.56347" lon="4.91133">
        <ele>190.6</ele>
        <time>2022-06-25T08:46:36Z</time>
      </trkpt>
      <trkpt lat="46.56347" lon="4.91133">
        <ele>190.6</ele>
        <time>2022-06-25T08:46:40Z</time>
      </trkpt>
      <trkpt lat="46.56347" lon="4.91133">
        <ele>190.6</ele>
        <time>2022-06-25T08:46:42Z</time>
      </trkpt>
      <trkpt lat="46.56347" lon="4.91133">
        <ele>190.6</ele>
        <time>2022-06-25T08:46:44Z</time>
      </trkpt>
      <trkpt lat="46.56347" lon="4.91133">
        <ele>190.6</ele>
        <time>2022-06-25T08:46:46Z</time>
      </trkpt>
      <trkpt lat="46.56347" lon="4.91134">
        <ele>190.6</ele>
        <time>2022-06-25T08:46:47Z</time>
      </trkpt>
      <trkpt lat="46.56347" lon="4.91134">
        <ele>190.6</ele>
        <time>2022-06-25T08:46:49Z</time>
      </trkpt>
      <trkpt lat="46.56347" lon="4.91134">
        <ele>190.6</ele>
        <time>2022-06-25T08:46:51Z</time>
      </trkpt>
      <trkpt lat="46.56347" lon="4.91134">
        <ele>190.6</ele>
        <time>2022-06-25T08:46:53Z</time>
      </trkpt>
      <trkpt lat="46.56347" lon="4.91134">
        <ele>190.6</ele>
        <time>2022-06-25T08:46:55Z</time>
      </trkpt>
      <trkpt lat="46.56347" lon="4.91135">
        <ele>190.6</ele>
        <time>2022-06-25T08:46:59Z</time>
      </trkpt>
      <trkpt lat="46.56347" lon="4.91135">
        <ele>190.6</ele>
        <time>2022-06-25T08:47:00Z</time>
      </trkpt>
      <trkpt lat="46.56347" lon="4.91135">
        <ele>190.6</ele>
        <time>2022-06-25T08:47:02Z</time>
      </trkpt>
      <trkpt lat="46.56347" lon="4.91135">
        <ele>190.6</ele>
        <time>2022-06-25T08:47:04Z</time>
      </trkpt>
      <trkpt lat="46.56347" lon="4.91135">
        <ele>190.6</ele>
        <time>2022-06-25T08:47:06Z</time>
      </trkpt>
      <trkpt lat="46.56347" lon="4.91135">
        <ele>190.6</ele>
        <time>2022-06-25T08:47:08Z</time>
      </trkpt>
      <trkpt lat="46.56347" lon="4.91136">
        <ele>190.6</ele>
        <time>2022-06-25T08:47:09Z</time>
      </trkpt>
      <trkpt lat="46.56347" lon="4.91136">
        <ele>190.6</ele>
        <time>2022-06-25T08:47:11Z</time>
      </trkpt>
      <trkpt lat="46.56347" lon="4.91136">
        <ele>190.6</ele>
        <time>2022-06-25T08:47:13Z</time>
      </trkpt>
      <trkpt lat="46.56347" lon="4.91136">
        <ele>190.6</ele>
        <time>2022-06-25T08:47:15Z</time>
      </trkpt>
      <trkpt lat="46.56347" lon="4.91136">
        <ele>190.6</ele>
        <time>2022-06-25T08:47:21Z</time>
      </trkpt>
      <trkpt lat="46.56348" lon="4.91136">
        <ele>190.6</ele>
        <time>2022-06-25T08:47:22Z</time>
      </trkpt>
      <trkpt lat="46.56348" lon="4.91137">
        <ele>190.6</ele>
        <time>2022-06-25T08:47:23Z</time>
      </trkpt>
      <trkpt lat="46.56348" lon="4.91137">
        <ele>190.6</ele>
        <time>2022-06-25T08:47:25Z</time>
      </trkpt>
      <trkpt lat="46.56348" lon="4.91137">
        <ele>190.6</ele>
        <time>2022-06-25T08:47:33Z</time>
      </trkpt>
      <trkpt lat="46.56348" lon="4.91137">
        <ele>190.6</ele>
        <time>2022-06-25T08:47:36Z</time>
      </trkpt>
      <trkpt lat="46.56348" lon="4.91137">
        <ele>190.6</ele>
        <time>2022-06-25T08:47:38Z</time>
      </trkpt>
      <trkpt lat="46.56348" lon="4.91138">
        <ele>190.6</ele>
        <time>2022-06-25T08:47:41Z</time>
      </trkpt>
      <trkpt lat="46.56348" lon="4.91138">
        <ele>190.6</ele>
        <time>2022-06-25T08:47:42Z</time>
      </trkpt>
      <trkpt lat="46.56348" lon="4.91138">
        <ele>190.6</ele>
        <time>2022-06-25T08:47:44Z</time>
      </trkpt>
      <trkpt lat="46.56348" lon="4.91138">
        <ele>190.6</ele>
        <time>2022-06-25T08:47:46Z</time>
      </trkpt>
      <trkpt lat="46.56348" lon="4.91138">
        <ele>190.6</ele>
        <time>2022-06-25T08:47:53Z</time>
      </trkpt>
      <trkpt lat="46.56348" lon="4.91138">
        <ele>190.6</ele>
        <time>2022-06-25T08:47:57Z</time>
      </trkpt>
      <trkpt lat="46.56348" lon="4.91139">
        <ele>190.6</ele>
        <time>2022-06-25T08:47:58Z</time>
      </trkpt>
      <trkpt lat="46.56348" lon="4.91139">
        <ele>190.6</ele>
        <time>2022-06-25T08:48:02Z</time>
      </trkpt>
      <trkpt lat="46.56348" lon="4.91139">
        <ele>190.6</ele>
        <time>2022-06-25T08:48:04Z</time>
      </trkpt>
      <trkpt lat="46.56348" lon="4.91139">
        <ele>190.6</ele>
        <time>2022-06-25T08:48:09Z</time>
      </trkpt>
      <trkpt lat="46.56348" lon="4.91139">
        <ele>190.6</ele>
        <time>2022-06-25T08:48:11Z</time>
      </trkpt>
      <trkpt lat="46.56348" lon="4.9114">
        <ele>190.6</ele>
        <time>2022-06-25T08:48:13Z</time>
      </trkpt>
      <trkpt lat="46.56348" lon="4.9114">
        <ele>190.6</ele>
        <time>2022-06-25T08:48:14Z</time>
      </trkpt>
      <trkpt lat="46.56348" lon="4.9114">
        <ele>190.6</ele>
        <time>2022-06-25T08:48:18Z</time>
      </trkpt>
      <trkpt lat="46.56348" lon="4.9114">
        <ele>190.6</ele>
        <time>2022-06-25T08:48:20Z</time>
      </trkpt>
      <trkpt lat="46.56348" lon="4.9114">
        <ele>190.6</ele>
        <time>2022-06-25T08:48:22Z</time>
      </trkpt>
      <trkpt lat="46.56348" lon="4.9114">
        <ele>190.6</ele>
        <time>2022-06-25T08:48:24Z</time>
      </trkpt>
      <trkpt lat="46.56348" lon="4.91141">
        <ele>190.6</ele>
        <time>2022-06-25T08:48:26Z</time>
      </trkpt>
      <trkpt lat="46.56348" lon="4.91141">
        <ele>190.6</ele>
        <time>2022-06-25T08:48:28Z</time>
      </trkpt>
      <trkpt lat="46.56348" lon="4.91141">
        <ele>190.6</ele>
        <time>2022-06-25T08:48:30Z</time>
      </trkpt>
      <trkpt lat="46.56348" lon="4.91141">
        <ele>190.6</ele>
        <time>2022-06-25T08:48:32Z</time>
      </trkpt>
      <trkpt lat="46.56348" lon="4.91141">
        <ele>190.6</ele>
        <time>2022-06-25T08:48:34Z</time>
      </trkpt>
      <trkpt lat="46.56348" lon="4.91142">
        <ele>190.6</ele>
        <time>2022-06-25T08:48:38Z</time>
      </trkpt>
      <trkpt lat="46.56348" lon="4.91142">
        <ele>190.6</ele>
        <time>2022-06-25T08:48:39Z</time>
      </trkpt>
      <trkpt lat="46.56348" lon="4.91142">
        <ele>190.6</ele>
        <time>2022-06-25T08:48:41Z</time>
      </trkpt>
      <trkpt lat="46.56348" lon="4.91142">
        <ele>190.6</ele>
        <time>2022-06-25T08:48:43Z</time>
      </trkpt>
      <trkpt lat="46.56348" lon="4.91142">
        <ele>190.6</ele>
        <time>2022-06-25T08:48:45Z</time>
      </trkpt>
      <trkpt lat="46.56348" lon="4.91142">
        <ele>190.6</ele>
        <time>2022-06-25T08:48:47Z</time>
      </trkpt>
      <trkpt lat="46.56348" lon="4.91143">
        <ele>190.6</ele>
        <time>2022-06-25T08:48:48Z</time>
      </trkpt>
      <trkpt lat="46.56348" lon="4.91143">
        <ele>190.6</ele>
        <time>2022-06-25T08:48:50Z</time>
      </trkpt>
      <trkpt lat="46.56348" lon="4.91143">
        <ele>190.6</ele>
        <time>2022-06-25T08:48:52Z</time>
      </trkpt>
      <trkpt lat="46.56348" lon="4.91143">
        <ele>190.6</ele>
        <time>2022-06-25T08:48:54Z</time>
      </trkpt>
      <trkpt lat="46.56348" lon="4.91143">
        <ele>190.6</ele>
        <time>2022-06-25T08:48:56Z</time>
      </trkpt>
      <trkpt lat="46.56348" lon="4.91144">
        <ele>190.6</ele>
        <time>2022-06-25T08:48:58Z</time>
      </trkpt>
      <trkpt lat="46.56348" lon="4.91144">
        <ele>190.6</ele>
        <time>2022-06-25T08:48:59Z</time>
      </trkpt>
      <trkpt lat="46.56348" lon="4.91144">
        <ele>190.6</ele>
        <time>2022-06-25T08:49:01Z</time>
      </trkpt>
      <trkpt lat="46.56348" lon="4.91144">
        <ele>190.8</ele>
        <time>2022-06-25T08:49:07Z</time>
      </trkpt>
      <trkpt lat="46.56348" lon="4.91144">
        <ele>191</ele>
        <time>2022-06-25T08:49:09Z</time>
      </trkpt>
      <trkpt lat="46.56348" lon="4.91144">
        <ele>191</ele>
        <time>2022-06-25T08:49:11Z</time>
      </trkpt>
      <trkpt lat="46.56348" lon="4.91145">
        <ele>191</ele>
        <time>2022-06-25T08:49:12Z</time>
      </trkpt>
      <trkpt lat="46.56348" lon="4.91145">
        <ele>191</ele>
        <time>2022-06-25T08:49:14Z</time>
      </trkpt>
      <trkpt lat="46.56348" lon="4.91145">
        <ele>191</ele>
        <time>2022-06-25T08:49:16Z</time>
      </trkpt>
      <trkpt lat="46.56348" lon="4.91145">
        <ele>191</ele>
        <time>2022-06-25T08:49:20Z</time>
      </trkpt>
      <trkpt lat="46.56348" lon="4.91145">
        <ele>191</ele>
        <time>2022-06-25T08:49:24Z</time>
      </trkpt>
      <trkpt lat="46.56348" lon="4.91148">
        <ele>191</ele>
        <time>2022-06-25T08:49:25Z</time>
      </trkpt>
      <trkpt lat="46.56349" lon="4.91149">
        <ele>191</ele>
        <time>2022-06-25T08:49:26Z</time>
      </trkpt>
      <trkpt lat="46.56349" lon="4.9115">
        <ele>191</ele>
        <time>2022-06-25T08:49:27Z</time>
      </trkpt>
      <trkpt lat="46.56349" lon="4.91151">
        <ele>191</ele>
        <time>2022-06-25T08:49:28Z</time>
      </trkpt>
      <trkpt lat="46.56349" lon="4.91152">
        <ele>191</ele>
        <time>2022-06-25T08:49:35Z</time>
      </trkpt>
      <trkpt lat="46.56349" lon="4.91153">
        <ele>191</ele>
        <time>2022-06-25T08:49:36Z</time>
      </trkpt>
      <trkpt lat="46.56349" lon="4.91154">
        <ele>191</ele>
        <time>2022-06-25T08:49:37Z</time>
      </trkpt>
      <trkpt lat="46.56349" lon="4.91156">
        <ele>191</ele>
        <time>2022-06-25T08:49:38Z</time>
      </trkpt>
      <trkpt lat="46.56349" lon="4.91157">
        <ele>191</ele>
        <time>2022-06-25T08:49:39Z</time>
      </trkpt>
      <trkpt lat="46.56349" lon="4.91158">
        <ele>191</ele>
        <time>2022-06-25T08:49:41Z</time>
      </trkpt>
      <trkpt lat="46.56349" lon="4.91159">
        <ele>191</ele>
        <time>2022-06-25T08:49:42Z</time>
      </trkpt>
      <trkpt lat="46.56349" lon="4.9116">
        <ele>191</ele>
        <time>2022-06-25T08:49:43Z</time>
      </trkpt>
      <trkpt lat="46.56349" lon="4.91161">
        <ele>191</ele>
        <time>2022-06-25T08:49:44Z</time>
      </trkpt>
      <trkpt lat="46.56349" lon="4.91162">
        <ele>191</ele>
        <time>2022-06-25T08:49:45Z</time>
      </trkpt>
      <trkpt lat="46.56349" lon="4.91163">
        <ele>191</ele>
        <time>2022-06-25T08:49:46Z</time>
      </trkpt>
      <trkpt lat="46.5635" lon="4.91164">
        <ele>191</ele>
        <time>2022-06-25T08:49:47Z</time>
      </trkpt>
      <trkpt lat="46.56351" lon="4.91166">
        <ele>191</ele>
        <time>2022-06-25T08:49:48Z</time>
      </trkpt>
      <trkpt lat="46.56351" lon="4.91167">
        <ele>191</ele>
        <time>2022-06-25T08:49:49Z</time>
      </trkpt>
      <trkpt lat="46.56352" lon="4.91168">
        <ele>191</ele>
        <time>2022-06-25T08:49:50Z</time>
      </trkpt>
      <trkpt lat="46.56352" lon="4.91168">
        <ele>191</ele>
        <time>2022-06-25T08:49:52Z</time>
      </trkpt>
      <trkpt lat="46.56352" lon="4.91168">
        <ele>190.8</ele>
        <time>2022-06-25T08:53:20Z</time>
      </trkpt>
      <trkpt lat="46.56352" lon="4.91168">
        <ele>190.8</ele>
        <time>2022-06-25T08:56:01Z</time>
      </trkpt>
      <trkpt lat="46.56352" lon="4.91165">
        <ele>190.8</ele>
        <time>2022-06-25T08:57:07Z</time>
      </trkpt>
      <trkpt lat="46.56352" lon="4.91163">
        <ele>190.8</ele>
        <time>2022-06-25T08:57:08Z</time>
      </trkpt>
      <trkpt lat="46.56352" lon="4.91162">
        <ele>190.8</ele>
        <time>2022-06-25T08:57:09Z</time>
      </trkpt>
      <trkpt lat="46.56351" lon="4.9116">
        <ele>190.8</ele>
        <time>2022-06-25T08:57:10Z</time>
      </trkpt>
      <trkpt lat="46.56351" lon="4.91159">
        <ele>190.8</ele>
        <time>2022-06-25T08:57:11Z</time>
      </trkpt>
      <trkpt lat="46.56351" lon="4.91157">
        <ele>190.8</ele>
        <time>2022-06-25T08:57:12Z</time>
      </trkpt>
      <trkpt lat="46.5635" lon="4.91156">
        <ele>190.8</ele>
        <time>2022-06-25T08:57:13Z</time>
      </trkpt>
      <trkpt lat="46.56349" lon="4.91155">
        <ele>190.6</ele>
        <time>2022-06-25T08:57:14Z</time>
      </trkpt>
      <trkpt lat="46.56349" lon="4.91154">
        <ele>190.6</ele>
        <time>2022-06-25T08:57:15Z</time>
      </trkpt>
      <trkpt lat="46.56348" lon="4.91152">
        <ele>190.6</ele>
        <time>2022-06-25T08:57:16Z</time>
      </trkpt>
      <trkpt lat="46.56348" lon="4.91151">
        <ele>190.6</ele>
        <time>2022-06-25T08:57:17Z</time>
      </trkpt>
      <trkpt lat="46.56347" lon="4.9115">
        <ele>190.6</ele>
        <time>2022-06-25T08:57:18Z</time>
      </trkpt>
      <trkpt lat="46.56347" lon="4.91149">
        <ele>190.6</ele>
        <time>2022-06-25T08:57:19Z</time>
      </trkpt>
      <trkpt lat="46.56346" lon="4.91148">
        <ele>190.6</ele>
        <time>2022-06-25T08:57:20Z</time>
      </trkpt>
      <trkpt lat="46.56345" lon="4.91147">
        <ele>190.4</ele>
        <time>2022-06-25T08:57:21Z</time>
      </trkpt>
      <trkpt lat="46.56345" lon="4.91146">
        <ele>190.4</ele>
        <time>2022-06-25T08:57:22Z</time>
      </trkpt>
      <trkpt lat="46.56344" lon="4.91145">
        <ele>190.4</ele>
        <time>2022-06-25T08:57:23Z</time>
      </trkpt>
      <trkpt lat="46.56343" lon="4.91144">
        <ele>190.4</ele>
        <time>2022-06-25T08:57:24Z</time>
      </trkpt>
      <trkpt lat="46.56343" lon="4.91143">
        <ele>190.4</ele>
        <time>2022-06-25T08:57:25Z</time>
      </trkpt>
      <trkpt lat="46.56347" lon="4.91133">
        <ele>190.6</ele>
        <time>2022-06-25T08:57:37Z</time>
      </trkpt>
      <trkpt lat="46.56347" lon="4.91132">
        <ele>190.6</ele>
        <time>2022-06-25T08:57:38Z</time>
      </trkpt>
      <trkpt lat="46.56347" lon="4.91131">
        <ele>190.6</ele>
        <time>2022-06-25T08:57:39Z</time>
      </trkpt>
      <trkpt lat="46.56348" lon="4.91129">
        <ele>190.6</ele>
        <time>2022-06-25T08:57:41Z</time>
      </trkpt>
      <trkpt lat="46.56348" lon="4.91129">
        <ele>190.6</ele>
        <time>2022-06-25T08:57:42Z</time>
      </trkpt>
      <trkpt lat="46.56348" lon="4.91128">
        <ele>190.8</ele>
        <time>2022-06-25T08:57:43Z</time>
      </trkpt>
      <trkpt lat="46.56349" lon="4.91127">
        <ele>190.8</ele>
        <time>2022-06-25T08:57:44Z</time>
      </trkpt>
      <trkpt lat="46.56351" lon="4.91125">
        <ele>190.8</ele>
        <time>2022-06-25T08:57:47Z</time>
      </trkpt>
      <trkpt lat="46.56353" lon="4.91123">
        <ele>190.8</ele>
        <time>2022-06-25T08:57:48Z</time>
      </trkpt>
      <trkpt lat="46.56353" lon="4.91122">
        <ele>190.8</ele>
        <time>2022-06-25T08:57:49Z</time>
      </trkpt>
      <trkpt lat="46.56354" lon="4.91121">
        <ele>191</ele>
        <time>2022-06-25T08:57:51Z</time>
      </trkpt>
      <trkpt lat="46.56354" lon="4.9112">
        <ele>191</ele>
        <time>2022-06-25T08:57:52Z</time>
      </trkpt>
      <trkpt lat="46.56354" lon="4.91119">
        <ele>191.2</ele>
        <time>2022-06-25T08:57:53Z</time>
      </trkpt>
      <trkpt lat="46.56355" lon="4.91119">
        <ele>191.2</ele>
        <time>2022-06-25T08:57:54Z</time>
      </trkpt>
      <trkpt lat="46.56355" lon="4.91118">
        <ele>191.2</ele>
        <time>2022-06-25T08:57:55Z</time>
      </trkpt>
      <trkpt lat="46.56356" lon="4.91117">
        <ele>191.6</ele>
        <time>2022-06-25T08:57:56Z</time>
      </trkpt>
      <trkpt lat="46.56356" lon="4.91116">
        <ele>191.6</ele>
        <time>2022-06-25T08:57:57Z</time>
      </trkpt>
      <trkpt lat="46.56357" lon="4.91115">
        <ele>191.6</ele>
        <time>2022-06-25T08:57:59Z</time>
      </trkpt>
      <trkpt lat="46.56357" lon="4.91114">
        <ele>191.6</ele>
        <time>2022-06-25T08:58:00Z</time>
      </trkpt>
      <trkpt lat="46.56358" lon="4.91113">
        <ele>191.6</ele>
        <time>2022-06-25T08:58:02Z</time>
      </trkpt>
      <trkpt lat="46.56358" lon="4.91112">
        <ele>191.6</ele>
        <time>2022-06-25T08:58:03Z</time>
      </trkpt>
      <trkpt lat="46.56358" lon="4.91111">
        <ele>191.6</ele>
        <time>2022-06-25T08:58:04Z</time>
      </trkpt>
      <trkpt lat="46.56359" lon="4.91111">
        <ele>191.6</ele>
        <time>2022-06-25T08:58:05Z</time>
      </trkpt>
      <trkpt lat="46.56359" lon="4.9111">
        <ele>191.8</ele>
        <time>2022-06-25T08:58:06Z</time>
      </trkpt>
      <trkpt lat="46.5636" lon="4.91109">
        <ele>191.8</ele>
        <time>2022-06-25T08:58:07Z</time>
      </trkpt>
      <trkpt lat="46.5636" lon="4.91108">
        <ele>191.8</ele>
        <time>2022-06-25T08:58:08Z</time>
      </trkpt>
      <trkpt lat="46.56361" lon="4.91107">
        <ele>191.8</ele>
        <time>2022-06-25T08:58:10Z</time>
      </trkpt>
      <trkpt lat="46.56361" lon="4.91106">
        <ele>192</ele>
        <time>2022-06-25T08:58:11Z</time>
      </trkpt>
      <trkpt lat="46.56361" lon="4.91105">
        <ele>192</ele>
        <time>2022-06-25T08:58:12Z</time>
      </trkpt>
      <trkpt lat="46.56362" lon="4.91105">
        <ele>192</ele>
        <time>2022-06-25T08:58:13Z</time>
      </trkpt>
      <trkpt lat="46.56362" lon="4.91104">
        <ele>192</ele>
        <time>2022-06-25T08:58:14Z</time>
      </trkpt>
      <trkpt lat="46.56363" lon="4.91103">
        <ele>192.2</ele>
        <time>2022-06-25T08:58:15Z</time>
      </trkpt>
      <trkpt lat="46.56363" lon="4.91102">
        <ele>192.2</ele>
        <time>2022-06-25T08:58:16Z</time>
      </trkpt>
      <trkpt lat="46.56364" lon="4.91101">
        <ele>192.2</ele>
        <time>2022-06-25T08:58:18Z</time>
      </trkpt>
      <trkpt lat="46.56364" lon="4.911">
        <ele>192.2</ele>
        <time>2022-06-25T08:58:19Z</time>
      </trkpt>
      <trkpt lat="46.56364" lon="4.91099">
        <ele>192.2</ele>
        <time>2022-06-25T08:58:20Z</time>
      </trkpt>
      <trkpt lat="46.56365" lon="4.91099">
        <ele>192.2</ele>
        <time>2022-06-25T08:58:46Z</time>
      </trkpt>
      <trkpt lat="46.56365" lon="4.91098">
        <ele>192.2</ele>
        <time>2022-06-25T08:58:47Z</time>
      </trkpt>
      <trkpt lat="46.56365" lon="4.91097">
        <ele>192.2</ele>
        <time>2022-06-25T08:58:48Z</time>
      </trkpt>
      <trkpt lat="46.56366" lon="4.91096">
        <ele>192.2</ele>
        <time>2022-06-25T08:58:49Z</time>
      </trkpt>
      <trkpt lat="46.56367" lon="4.91095">
        <ele>192.2</ele>
        <time>2022-06-25T08:58:51Z</time>
      </trkpt>
      <trkpt lat="46.56367" lon="4.91094">
        <ele>192.2</ele>
        <time>2022-06-25T08:58:53Z</time>
      </trkpt>
      <trkpt lat="46.56368" lon="4.91093">
        <ele>192.2</ele>
        <time>2022-06-25T08:58:55Z</time>
      </trkpt>
      <trkpt lat="46.56368" lon="4.91092">
        <ele>192.2</ele>
        <time>2022-06-25T08:58:56Z</time>
      </trkpt>
      <trkpt lat="46.56367" lon="4.91089">
        <ele>192.2</ele>
        <time>2022-06-25T08:58:57Z</time>
      </trkpt>
      <trkpt lat="46.56367" lon="4.91088">
        <ele>192.2</ele>
        <time>2022-06-25T08:58:58Z</time>
      </trkpt>
      <trkpt lat="46.56366" lon="4.91087">
        <ele>192.2</ele>
        <time>2022-06-25T08:58:59Z</time>
      </trkpt>
      <trkpt lat="46.56366" lon="4.91086">
        <ele>192.2</ele>
        <time>2022-06-25T08:59:00Z</time>
      </trkpt>
      <trkpt lat="46.56364" lon="4.91083">
        <ele>192.2</ele>
        <time>2022-06-25T08:59:01Z</time>
      </trkpt>
      <trkpt lat="46.56364" lon="4.91081">
        <ele>192.2</ele>
        <time>2022-06-25T08:59:02Z</time>
      </trkpt>
      <trkpt lat="46.56363" lon="4.91078">
        <ele>192.6</ele>
        <time>2022-06-25T08:59:03Z</time>
      </trkpt>
      <trkpt lat="46.56362" lon="4.91075">
        <ele>192.6</ele>
        <time>2022-06-25T08:59:04Z</time>
      </trkpt>
      <trkpt lat="46.56361" lon="4.91072">
        <ele>192.6</ele>
        <time>2022-06-25T08:59:05Z</time>
      </trkpt>
      <trkpt lat="46.5636" lon="4.91068">
        <ele>192.6</ele>
        <time>2022-06-25T08:59:06Z</time>
      </trkpt>
      <trkpt lat="46.56359" lon="4.91064">
        <ele>192.6</ele>
        <time>2022-06-25T08:59:07Z</time>
      </trkpt>
      <trkpt lat="46.56358" lon="4.9106">
        <ele>192.6</ele>
        <time>2022-06-25T08:59:08Z</time>
      </trkpt>
      <trkpt lat="46.56357" lon="4.91056">
        <ele>192.8</ele>
        <time>2022-06-25T08:59:09Z</time>
      </trkpt>
      <trkpt lat="46.56355" lon="4.91051">
        <ele>192.8</ele>
        <time>2022-06-25T08:59:10Z</time>
      </trkpt>
      <trkpt lat="46.56354" lon="4.91047">
        <ele>192.8</ele>
        <time>2022-06-25T08:59:11Z</time>
      </trkpt>
      <trkpt lat="46.56353" lon="4.91044">
        <ele>193</ele>
        <time>2022-06-25T08:59:12Z</time>
      </trkpt>
      <trkpt lat="46.56352" lon="4.9104">
        <ele>193</ele>
        <time>2022-06-25T08:59:13Z</time>
      </trkpt>
      <trkpt lat="46.56351" lon="4.91035">
        <ele>193</ele>
        <time>2022-06-25T08:59:14Z</time>
      </trkpt>
      <trkpt lat="46.5635" lon="4.9103">
        <ele>193</ele>
        <time>2022-06-25T08:59:15Z</time>
      </trkpt>
      <trkpt lat="46.56349" lon="4.91025">
        <ele>193.2</ele>
        <time>2022-06-25T08:59:16Z</time>
      </trkpt>
      <trkpt lat="46.56348" lon="4.9102">
        <ele>193.2</ele>
        <time>2022-06-25T08:59:17Z</time>
      </trkpt>
      <trkpt lat="46.56347" lon="4.91015">
        <ele>193.2</ele>
        <time>2022-06-25T08:59:18Z</time>
      </trkpt>
      <trkpt lat="46.56346" lon="4.91009">
        <ele>193.2</ele>
        <time>2022-06-25T08:59:19Z</time>
      </trkpt>
      <trkpt lat="46.56345" lon="4.91004">
        <ele>193.2</ele>
        <time>2022-06-25T08:59:20Z</time>
      </trkpt>
      <trkpt lat="46.56344" lon="4.91">
        <ele>193.2</ele>
        <time>2022-06-25T08:59:21Z</time>
      </trkpt>
      <trkpt lat="46.56342" lon="4.90995">
        <ele>193.2</ele>
        <time>2022-06-25T08:59:22Z</time>
      </trkpt>
      <trkpt lat="46.5634" lon="4.9099">
        <ele>193.2</ele>
        <time>2022-06-25T08:59:23Z</time>
      </trkpt>
      <trkpt lat="46.56338" lon="4.90985">
        <ele>193.2</ele>
        <time>2022-06-25T08:59:24Z</time>
      </trkpt>
      <trkpt lat="46.56336" lon="4.9098">
        <ele>193.2</ele>
        <time>2022-06-25T08:59:25Z</time>
      </trkpt>
      <trkpt lat="46.56334" lon="4.90974">
        <ele>193.2</ele>
        <time>2022-06-25T08:59:26Z</time>
      </trkpt>
      <trkpt lat="46.56332" lon="4.90969">
        <ele>193.4</ele>
        <time>2022-06-25T08:59:27Z</time>
      </trkpt>
      <trkpt lat="46.5633" lon="4.90963">
        <ele>193.4</ele>
        <time>2022-06-25T08:59:28Z</time>
      </trkpt>
      <trkpt lat="46.56328" lon="4.90958">
        <ele>193.8</ele>
        <time>2022-06-25T08:59:29Z</time>
      </trkpt>
      <trkpt lat="46.56327" lon="4.90953">
        <ele>193.8</ele>
        <time>2022-06-25T08:59:30Z</time>
      </trkpt>
      <trkpt lat="46.56327" lon="4.90948">
        <ele>193.8</ele>
        <time>2022-06-25T08:59:31Z</time>
      </trkpt>
      <trkpt lat="46.56327" lon="4.90944">
        <ele>194</ele>
        <time>2022-06-25T08:59:32Z</time>
      </trkpt>
      <trkpt lat="46.56327" lon="4.9094">
        <ele>194</ele>
        <time>2022-06-25T08:59:33Z</time>
      </trkpt>
      <trkpt lat="46.56327" lon="4.90937">
        <ele>194</ele>
        <time>2022-06-25T08:59:34Z</time>
      </trkpt>
      <trkpt lat="46.56326" lon="4.90934">
        <ele>194</ele>
        <time>2022-06-25T08:59:35Z</time>
      </trkpt>
      <trkpt lat="46.56326" lon="4.90931">
        <ele>194</ele>
        <time>2022-06-25T08:59:36Z</time>
      </trkpt>
      <trkpt lat="46.56325" lon="4.90929">
        <ele>194.2</ele>
        <time>2022-06-25T08:59:37Z</time>
      </trkpt>
      <trkpt lat="46.56324" lon="4.90927">
        <ele>194.2</ele>
        <time>2022-06-25T08:59:38Z</time>
      </trkpt>
      <trkpt lat="46.56323" lon="4.90925">
        <ele>194.2</ele>
        <time>2022-06-25T08:59:39Z</time>
      </trkpt>
      <trkpt lat="46.56321" lon="4.90925">
        <ele>194.2</ele>
        <time>2022-06-25T08:59:40Z</time>
      </trkpt>
      <trkpt lat="46.56319" lon="4.90925">
        <ele>194.2</ele>
        <time>2022-06-25T08:59:41Z</time>
      </trkpt>
      <trkpt lat="46.56316" lon="4.90926">
        <ele>194.2</ele>
        <time>2022-06-25T08:59:42Z</time>
      </trkpt>
      <trkpt lat="46.56314" lon="4.90928">
        <ele>193.8</ele>
        <time>2022-06-25T08:59:43Z</time>
      </trkpt>
      <trkpt lat="46.56311" lon="4.9093">
        <ele>193.8</ele>
        <time>2022-06-25T08:59:44Z</time>
      </trkpt>
      <trkpt lat="46.56308" lon="4.90932">
        <ele>193.4</ele>
        <time>2022-06-25T08:59:45Z</time>
      </trkpt>
      <trkpt lat="46.56305" lon="4.90933">
        <ele>193.2</ele>
        <time>2022-06-25T08:59:46Z</time>
      </trkpt>
      <trkpt lat="46.56302" lon="4.90936">
        <ele>193</ele>
        <time>2022-06-25T08:59:47Z</time>
      </trkpt>
      <trkpt lat="46.56299" lon="4.90938">
        <ele>192.8</ele>
        <time>2022-06-25T08:59:48Z</time>
      </trkpt>
      <trkpt lat="46.56295" lon="4.9094">
        <ele>192.8</ele>
        <time>2022-06-25T08:59:49Z</time>
      </trkpt>
      <trkpt lat="46.56292" lon="4.90944">
        <ele>192.4</ele>
        <time>2022-06-25T08:59:50Z</time>
      </trkpt>
      <trkpt lat="46.56288" lon="4.90947">
        <ele>192.4</ele>
        <time>2022-06-25T08:59:51Z</time>
      </trkpt>
      <trkpt lat="46.56284" lon="4.90951">
        <ele>192.2</ele>
        <time>2022-06-25T08:59:52Z</time>
      </trkpt>
      <trkpt lat="46.5628" lon="4.90955">
        <ele>192.2</ele>
        <time>2022-06-25T08:59:53Z</time>
      </trkpt>
      <trkpt lat="46.56276" lon="4.90957">
        <ele>192</ele>
        <time>2022-06-25T08:59:54Z</time>
      </trkpt>
      <trkpt lat="46.56272" lon="4.90959">
        <ele>192</ele>
        <time>2022-06-25T08:59:55Z</time>
      </trkpt>
      <trkpt lat="46.56268" lon="4.90959">
        <ele>191.6</ele>
        <time>2022-06-25T08:59:56Z</time>
      </trkpt>
      <trkpt lat="46.56265" lon="4.90958">
        <ele>191.6</ele>
        <time>2022-06-25T08:59:57Z</time>
      </trkpt>
      <trkpt lat="46.56262" lon="4.90956">
        <ele>191.6</ele>
        <time>2022-06-25T08:59:58Z</time>
      </trkpt>
      <trkpt lat="46.56261" lon="4.90952">
        <ele>191.6</ele>
        <time>2022-06-25T08:59:59Z</time>
      </trkpt>
      <trkpt lat="46.56259" lon="4.90948">
        <ele>191.6</ele>
        <time>2022-06-25T09:00:00Z</time>
      </trkpt>
      <trkpt lat="46.56258" lon="4.90944">
        <ele>191.6</ele>
        <time>2022-06-25T09:00:01Z</time>
      </trkpt>
      <trkpt lat="46.56257" lon="4.9094">
        <ele>191.6</ele>
        <time>2022-06-25T09:00:02Z</time>
      </trkpt>
      <trkpt lat="46.56257" lon="4.90937">
        <ele>191.6</ele>
        <time>2022-06-25T09:00:03Z</time>
      </trkpt>
      <trkpt lat="46.56256" lon="4.90934">
        <ele>191.6</ele>
        <time>2022-06-25T09:00:04Z</time>
      </trkpt>
      <trkpt lat="46.56256" lon="4.90932">
        <ele>191.6</ele>
        <time>2022-06-25T09:00:05Z</time>
      </trkpt>
      <trkpt lat="46.56256" lon="4.9093">
        <ele>191.6</ele>
        <time>2022-06-25T09:00:06Z</time>
      </trkpt>
      <trkpt lat="46.56255" lon="4.90929">
        <ele>191.6</ele>
        <time>2022-06-25T09:00:07Z</time>
      </trkpt>
      <trkpt lat="46.56255" lon="4.90929">
        <ele>191.8</ele>
        <time>2022-06-25T09:00:40Z</time>
      </trkpt>
      <trkpt lat="46.56255" lon="4.90925">
        <ele>192</ele>
        <time>2022-06-25T09:01:12Z</time>
      </trkpt>
      <trkpt lat="46.56255" lon="4.90922">
        <ele>192</ele>
        <time>2022-06-25T09:01:13Z</time>
      </trkpt>
      <trkpt lat="46.56255" lon="4.9092">
        <ele>192</ele>
        <time>2022-06-25T09:01:14Z</time>
      </trkpt>
      <trkpt lat="46.56256" lon="4.90917">
        <ele>192.2</ele>
        <time>2022-06-25T09:01:15Z</time>
      </trkpt>
      <trkpt lat="46.56257" lon="4.90913">
        <ele>192.2</ele>
        <time>2022-06-25T09:01:16Z</time>
      </trkpt>
      <trkpt lat="46.56258" lon="4.9091">
        <ele>192.2</ele>
        <time>2022-06-25T09:01:17Z</time>
      </trkpt>
      <trkpt lat="46.56258" lon="4.90906">
        <ele>192.2</ele>
        <time>2022-06-25T09:01:18Z</time>
      </trkpt>
      <trkpt lat="46.56258" lon="4.90901">
        <ele>192.2</ele>
        <time>2022-06-25T09:01:19Z</time>
      </trkpt>
      <trkpt lat="46.56258" lon="4.90895">
        <ele>192.2</ele>
        <time>2022-06-25T09:01:20Z</time>
      </trkpt>
      <trkpt lat="46.56258" lon="4.9089">
        <ele>192.4</ele>
        <time>2022-06-25T09:01:21Z</time>
      </trkpt>
      <trkpt lat="46.56258" lon="4.90884">
        <ele>192.4</ele>
        <time>2022-06-25T09:01:22Z</time>
      </trkpt>
      <trkpt lat="46.56258" lon="4.90879">
        <ele>192.4</ele>
        <time>2022-06-25T09:01:23Z</time>
      </trkpt>
      <trkpt lat="46.56258" lon="4.90873">
        <ele>192.4</ele>
        <time>2022-06-25T09:01:24Z</time>
      </trkpt>
      <trkpt lat="46.56258" lon="4.90868">
        <ele>192.4</ele>
        <time>2022-06-25T09:01:25Z</time>
      </trkpt>
      <trkpt lat="46.56259" lon="4.90862">
        <ele>192.4</ele>
        <time>2022-06-25T09:01:26Z</time>
      </trkpt>
      <trkpt lat="46.5626" lon="4.90856">
        <ele>192.4</ele>
        <time>2022-06-25T09:01:27Z</time>
      </trkpt>
      <trkpt lat="46.5626" lon="4.9085">
        <ele>192.4</ele>
        <time>2022-06-25T09:01:28Z</time>
      </trkpt>
      <trkpt lat="46.56261" lon="4.90843">
        <ele>192.4</ele>
        <time>2022-06-25T09:01:29Z</time>
      </trkpt>
      <trkpt lat="46.56262" lon="4.90837">
        <ele>192.4</ele>
        <time>2022-06-25T09:01:30Z</time>
      </trkpt>
      <trkpt lat="46.56263" lon="4.90831">
        <ele>192.4</ele>
        <time>2022-06-25T09:01:31Z</time>
      </trkpt>
      <trkpt lat="46.56264" lon="4.90824">
        <ele>192.4</ele>
        <time>2022-06-25T09:01:32Z</time>
      </trkpt>
      <trkpt lat="46.56265" lon="4.90818">
        <ele>192.4</ele>
        <time>2022-06-25T09:01:33Z</time>
      </trkpt>
      <trkpt lat="46.56265" lon="4.90812">
        <ele>192.4</ele>
        <time>2022-06-25T09:01:34Z</time>
      </trkpt>
      <trkpt lat="46.56267" lon="4.90806">
        <ele>192.6</ele>
        <time>2022-06-25T09:01:35Z</time>
      </trkpt>
      <trkpt lat="46.56267" lon="4.908">
        <ele>192.6</ele>
        <time>2022-06-25T09:01:36Z</time>
      </trkpt>
      <trkpt lat="46.56268" lon="4.90794">
        <ele>192.6</ele>
        <time>2022-06-25T09:01:37Z</time>
      </trkpt>
      <trkpt lat="46.56269" lon="4.90787">
        <ele>192.6</ele>
        <time>2022-06-25T09:01:38Z</time>
      </trkpt>
      <trkpt lat="46.5627" lon="4.9078">
        <ele>192.6</ele>
        <time>2022-06-25T09:01:39Z</time>
      </trkpt>
      <trkpt lat="46.56272" lon="4.90773">
        <ele>192.6</ele>
        <time>2022-06-25T09:01:40Z</time>
      </trkpt>
      <trkpt lat="46.56273" lon="4.90766">
        <ele>192.6</ele>
        <time>2022-06-25T09:01:41Z</time>
      </trkpt>
      <trkpt lat="46.56275" lon="4.90758">
        <ele>192.6</ele>
        <time>2022-06-25T09:01:42Z</time>
      </trkpt>
      <trkpt lat="46.56276" lon="4.9075">
        <ele>192.6</ele>
        <time>2022-06-25T09:01:43Z</time>
      </trkpt>
      <trkpt lat="46.56278" lon="4.90741">
        <ele>192.6</ele>
        <time>2022-06-25T09:01:44Z</time>
      </trkpt>
      <trkpt lat="46.56279" lon="4.90733">
        <ele>192.6</ele>
        <time>2022-06-25T09:01:45Z</time>
      </trkpt>
      <trkpt lat="46.5628" lon="4.90726">
        <ele>192.6</ele>
        <time>2022-06-25T09:01:46Z</time>
      </trkpt>
      <trkpt lat="46.56281" lon="4.90719">
        <ele>192.6</ele>
        <time>2022-06-25T09:01:47Z</time>
      </trkpt>
      <trkpt lat="46.56282" lon="4.90711">
        <ele>193</ele>
        <time>2022-06-25T09:01:48Z</time>
      </trkpt>
      <trkpt lat="46.5628" lon="4.90702">
        <ele>193</ele>
        <time>2022-06-25T09:01:49Z</time>
      </trkpt>
      <trkpt lat="46.5628" lon="4.90694">
        <ele>193</ele>
        <time>2022-06-25T09:01:50Z</time>
      </trkpt>
      <trkpt lat="46.56278" lon="4.90686">
        <ele>193</ele>
        <time>2022-06-25T09:01:51Z</time>
      </trkpt>
      <trkpt lat="46.56277" lon="4.90679">
        <ele>193.2</ele>
        <time>2022-06-25T09:01:52Z</time>
      </trkpt>
      <trkpt lat="46.56276" lon="4.90672">
        <ele>193.2</ele>
        <time>2022-06-25T09:01:53Z</time>
      </trkpt>
      <trkpt lat="46.56276" lon="4.90665">
        <ele>193.4</ele>
        <time>2022-06-25T09:01:54Z</time>
      </trkpt>
      <trkpt lat="46.56275" lon="4.90658">
        <ele>193.4</ele>
        <time>2022-06-25T09:01:55Z</time>
      </trkpt>
      <trkpt lat="46.56274" lon="4.90651">
        <ele>193.6</ele>
        <time>2022-06-25T09:01:56Z</time>
      </trkpt>
      <trkpt lat="46.56273" lon="4.90644">
        <ele>193.6</ele>
        <time>2022-06-25T09:01:57Z</time>
      </trkpt>
      <trkpt lat="46.56272" lon="4.90637">
        <ele>194</ele>
        <time>2022-06-25T09:01:58Z</time>
      </trkpt>
      <trkpt lat="46.56271" lon="4.9063">
        <ele>194</ele>
        <time>2022-06-25T09:01:59Z</time>
      </trkpt>
      <trkpt lat="46.5627" lon="4.90623">
        <ele>194.2</ele>
        <time>2022-06-25T09:02:00Z</time>
      </trkpt>
      <trkpt lat="46.56269" lon="4.90617">
        <ele>194.2</ele>
        <time>2022-06-25T09:02:01Z</time>
      </trkpt>
      <trkpt lat="46.56268" lon="4.9061">
        <ele>194.6</ele>
        <time>2022-06-25T09:02:02Z</time>
      </trkpt>
      <trkpt lat="46.56268" lon="4.90603">
        <ele>194.6</ele>
        <time>2022-06-25T09:02:03Z</time>
      </trkpt>
      <trkpt lat="46.56267" lon="4.90596">
        <ele>194.8</ele>
        <time>2022-06-25T09:02:04Z</time>
      </trkpt>
      <trkpt lat="46.56267" lon="4.9059">
        <ele>194.8</ele>
        <time>2022-06-25T09:02:05Z</time>
      </trkpt>
      <trkpt lat="46.56266" lon="4.90584">
        <ele>195.2</ele>
        <time>2022-06-25T09:02:06Z</time>
      </trkpt>
      <trkpt lat="46.56266" lon="4.90578">
        <ele>195.2</ele>
        <time>2022-06-25T09:02:07Z</time>
      </trkpt>
      <trkpt lat="46.56265" lon="4.90572">
        <ele>195.6</ele>
        <time>2022-06-25T09:02:08Z</time>
      </trkpt>
      <trkpt lat="46.56265" lon="4.90566">
        <ele>195.6</ele>
        <time>2022-06-25T09:02:09Z</time>
      </trkpt>
      <trkpt lat="46.56265" lon="4.9056">
        <ele>195.8</ele>
        <time>2022-06-25T09:02:10Z</time>
      </trkpt>
      <trkpt lat="46.56265" lon="4.90554">
        <ele>195.8</ele>
        <time>2022-06-25T09:02:11Z</time>
      </trkpt>
      <trkpt lat="46.56264" lon="4.90549">
        <ele>196.2</ele>
        <time>2022-06-25T09:02:12Z</time>
      </trkpt>
      <trkpt lat="46.56265" lon="4.90543">
        <ele>196.2</ele>
        <time>2022-06-25T09:02:13Z</time>
      </trkpt>
      <trkpt lat="46.56265" lon="4.90537">
        <ele>196.4</ele>
        <time>2022-06-25T09:02:14Z</time>
      </trkpt>
      <trkpt lat="46.56265" lon="4.90532">
        <ele>196.4</ele>
        <time>2022-06-25T09:02:15Z</time>
      </trkpt>
      <trkpt lat="46.56265" lon="4.90527">
        <ele>196.6</ele>
        <time>2022-06-25T09:02:16Z</time>
      </trkpt>
      <trkpt lat="46.56265" lon="4.90521">
        <ele>196.6</ele>
        <time>2022-06-25T09:02:17Z</time>
      </trkpt>
      <trkpt lat="46.56265" lon="4.90516">
        <ele>196.6</ele>
        <time>2022-06-25T09:02:18Z</time>
      </trkpt>
      <trkpt lat="46.56265" lon="4.90511">
        <ele>197</ele>
        <time>2022-06-25T09:02:19Z</time>
      </trkpt>
      <trkpt lat="46.56265" lon="4.90506">
        <ele>197</ele>
        <time>2022-06-25T09:02:20Z</time>
      </trkpt>
      <trkpt lat="46.56265" lon="4.905">
        <ele>197</ele>
        <time>2022-06-25T09:02:21Z</time>
      </trkpt>
      <trkpt lat="46.56265" lon="4.90495">
        <ele>197.2</ele>
        <time>2022-06-25T09:02:22Z</time>
      </trkpt>
      <trkpt lat="46.56266" lon="4.9049">
        <ele>197.2</ele>
        <time>2022-06-25T09:02:23Z</time>
      </trkpt>
      <trkpt lat="46.56266" lon="4.90484">
        <ele>197.4</ele>
        <time>2022-06-25T09:02:24Z</time>
      </trkpt>
      <trkpt lat="46.56265" lon="4.90479">
        <ele>197.4</ele>
        <time>2022-06-25T09:02:25Z</time>
      </trkpt>
      <trkpt lat="46.56265" lon="4.90474">
        <ele>197.8</ele>
        <time>2022-06-25T09:02:26Z</time>
      </trkpt>
      <trkpt lat="46.56265" lon="4.90469">
        <ele>197.8</ele>
        <time>2022-06-25T09:02:27Z</time>
      </trkpt>
      <trkpt lat="46.56265" lon="4.90463">
        <ele>198</ele>
        <time>2022-06-25T09:02:28Z</time>
      </trkpt>
      <trkpt lat="46.56265" lon="4.90458">
        <ele>198</ele>
        <time>2022-06-25T09:02:29Z</time>
      </trkpt>
      <trkpt lat="46.56264" lon="4.90453">
        <ele>198.4</ele>
        <time>2022-06-25T09:02:30Z</time>
      </trkpt>
      <trkpt lat="46.56263" lon="4.90448">
        <ele>198.4</ele>
        <time>2022-06-25T09:02:31Z</time>
      </trkpt>
      <trkpt lat="46.56262" lon="4.90443">
        <ele>198.6</ele>
        <time>2022-06-25T09:02:32Z</time>
      </trkpt>
      <trkpt lat="46.5626" lon="4.90438">
        <ele>198.6</ele>
        <time>2022-06-25T09:02:33Z</time>
      </trkpt>
      <trkpt lat="46.56259" lon="4.90433">
        <ele>198.8</ele>
        <time>2022-06-25T09:02:34Z</time>
      </trkpt>
      <trkpt lat="46.56257" lon="4.90428">
        <ele>198.8</ele>
        <time>2022-06-25T09:02:35Z</time>
      </trkpt>
      <trkpt lat="46.56255" lon="4.90424">
        <ele>199</ele>
        <time>2022-06-25T09:02:36Z</time>
      </trkpt>
      <trkpt lat="46.56253" lon="4.9042">
        <ele>199.2</ele>
        <time>2022-06-25T09:02:37Z</time>
      </trkpt>
      <trkpt lat="46.5625" lon="4.90417">
        <ele>199.2</ele>
        <time>2022-06-25T09:02:38Z</time>
      </trkpt>
      <trkpt lat="46.56247" lon="4.90413">
        <ele>199.6</ele>
        <time>2022-06-25T09:02:39Z</time>
      </trkpt>
      <trkpt lat="46.56244" lon="4.9041">
        <ele>199.6</ele>
        <time>2022-06-25T09:02:40Z</time>
      </trkpt>
      <trkpt lat="46.56241" lon="4.90407">
        <ele>200</ele>
        <time>2022-06-25T09:02:41Z</time>
      </trkpt>
      <trkpt lat="46.56238" lon="4.90405">
        <ele>200.2</ele>
        <time>2022-06-25T09:02:42Z</time>
      </trkpt>
      <trkpt lat="46.56234" lon="4.90403">
        <ele>200.4</ele>
        <time>2022-06-25T09:02:43Z</time>
      </trkpt>
      <trkpt lat="46.56231" lon="4.90402">
        <ele>200.6</ele>
        <time>2022-06-25T09:02:44Z</time>
      </trkpt>
      <trkpt lat="46.56228" lon="4.904">
        <ele>200.6</ele>
        <time>2022-06-25T09:02:45Z</time>
      </trkpt>
      <trkpt lat="46.56224" lon="4.90399">
        <ele>201.2</ele>
        <time>2022-06-25T09:02:46Z</time>
      </trkpt>
      <trkpt lat="46.56221" lon="4.90399">
        <ele>201.4</ele>
        <time>2022-06-25T09:02:47Z</time>
      </trkpt>
      <trkpt lat="46.56218" lon="4.90398">
        <ele>201.6</ele>
        <time>2022-06-25T09:02:48Z</time>
      </trkpt>
      <trkpt lat="46.56214" lon="4.90398">
        <ele>202</ele>
        <time>2022-06-25T09:02:49Z</time>
      </trkpt>
      <trkpt lat="46.56211" lon="4.90398">
        <ele>202.2</ele>
        <time>2022-06-25T09:02:50Z</time>
      </trkpt>
      <trkpt lat="46.56208" lon="4.90398">
        <ele>202.6</ele>
        <time>2022-06-25T09:02:51Z</time>
      </trkpt>
      <trkpt lat="46.56205" lon="4.90398">
        <ele>202.8</ele>
        <time>2022-06-25T09:02:52Z</time>
      </trkpt>
      <trkpt lat="46.56202" lon="4.90398">
        <ele>203.2</ele>
        <time>2022-06-25T09:02:53Z</time>
      </trkpt>
      <trkpt lat="46.56199" lon="4.90399">
        <ele>203.4</ele>
        <time>2022-06-25T09:02:54Z</time>
      </trkpt>
      <trkpt lat="46.56196" lon="4.90399">
        <ele>203.8</ele>
        <time>2022-06-25T09:02:55Z</time>
      </trkpt>
      <trkpt lat="46.56192" lon="4.90399">
        <ele>203.8</ele>
        <time>2022-06-25T09:02:56Z</time>
      </trkpt>
      <trkpt lat="46.56189" lon="4.90399">
        <ele>204.2</ele>
        <time>2022-06-25T09:02:57Z</time>
      </trkpt>
      <trkpt lat="46.56185" lon="4.90399">
        <ele>204.2</ele>
        <time>2022-06-25T09:02:58Z</time>
      </trkpt>
      <trkpt lat="46.56182" lon="4.90399">
        <ele>204.6</ele>
        <time>2022-06-25T09:02:59Z</time>
      </trkpt>
      <trkpt lat="46.56179" lon="4.90398">
        <ele>204.8</ele>
        <time>2022-06-25T09:03:00Z</time>
      </trkpt>
      <trkpt lat="46.56175" lon="4.90398">
        <ele>205</ele>
        <time>2022-06-25T09:03:01Z</time>
      </trkpt>
      <trkpt lat="46.56172" lon="4.90398">
        <ele>205.4</ele>
        <time>2022-06-25T09:03:02Z</time>
      </trkpt>
      <trkpt lat="46.56168" lon="4.90398">
        <ele>205.6</ele>
        <time>2022-06-25T09:03:03Z</time>
      </trkpt>
      <trkpt lat="46.56164" lon="4.90398">
        <ele>205.8</ele>
        <time>2022-06-25T09:03:04Z</time>
      </trkpt>
      <trkpt lat="46.56161" lon="4.90398">
        <ele>205.8</ele>
        <time>2022-06-25T09:03:05Z</time>
      </trkpt>
      <trkpt lat="46.56157" lon="4.90397">
        <ele>206.4</ele>
        <time>2022-06-25T09:03:06Z</time>
      </trkpt>
      <trkpt lat="46.56154" lon="4.90396">
        <ele>206.4</ele>
        <time>2022-06-25T09:03:07Z</time>
      </trkpt>
      <trkpt lat="46.56151" lon="4.90396">
        <ele>206.6</ele>
        <time>2022-06-25T09:03:08Z</time>
      </trkpt>
      <trkpt lat="46.56148" lon="4.90396">
        <ele>206.8</ele>
        <time>2022-06-25T09:03:09Z</time>
      </trkpt>
      <trkpt lat="46.56145" lon="4.90395">
        <ele>206.8</ele>
        <time>2022-06-25T09:03:10Z</time>
      </trkpt>
      <trkpt lat="46.56141" lon="4.90395">
        <ele>207.2</ele>
        <time>2022-06-25T09:03:11Z</time>
      </trkpt>
      <trkpt lat="46.56138" lon="4.90394">
        <ele>207.2</ele>
        <time>2022-06-25T09:03:12Z</time>
      </trkpt>
      <trkpt lat="46.56135" lon="4.90394">
        <ele>207.6</ele>
        <time>2022-06-25T09:03:13Z</time>
      </trkpt>
      <trkpt lat="46.56132" lon="4.90394">
        <ele>207.6</ele>
        <time>2022-06-25T09:03:14Z</time>
      </trkpt>
      <trkpt lat="46.56128" lon="4.90394">
        <ele>208</ele>
        <time>2022-06-25T09:03:15Z</time>
      </trkpt>
      <trkpt lat="46.56124" lon="4.90394">
        <ele>208.2</ele>
        <time>2022-06-25T09:03:16Z</time>
      </trkpt>
      <trkpt lat="46.5612" lon="4.90394">
        <ele>208.2</ele>
        <time>2022-06-25T09:03:17Z</time>
      </trkpt>
      <trkpt lat="46.56116" lon="4.90394">
        <ele>208.6</ele>
        <time>2022-06-25T09:03:18Z</time>
      </trkpt>
      <trkpt lat="46.56112" lon="4.90393">
        <ele>208.6</ele>
        <time>2022-06-25T09:03:19Z</time>
      </trkpt>
      <trkpt lat="46.56108" lon="4.90392">
        <ele>208.8</ele>
        <time>2022-06-25T09:03:20Z</time>
      </trkpt>
      <trkpt lat="46.56103" lon="4.90392">
        <ele>208.8</ele>
        <time>2022-06-25T09:03:21Z</time>
      </trkpt>
      <trkpt lat="46.56099" lon="4.90391">
        <ele>209</ele>
        <time>2022-06-25T09:03:22Z</time>
      </trkpt>
      <trkpt lat="46.56094" lon="4.90391">
        <ele>209</ele>
        <time>2022-06-25T09:03:23Z</time>
      </trkpt>
      <trkpt lat="46.5609" lon="4.9039">
        <ele>209</ele>
        <time>2022-06-25T09:03:24Z</time>
      </trkpt>
      <trkpt lat="46.56086" lon="4.9039">
        <ele>209</ele>
        <time>2022-06-25T09:03:25Z</time>
      </trkpt>
      <trkpt lat="46.56082" lon="4.90389">
        <ele>209</ele>
        <time>2022-06-25T09:03:26Z</time>
      </trkpt>
      <trkpt lat="46.56079" lon="4.90388">
        <ele>209</ele>
        <time>2022-06-25T09:03:27Z</time>
      </trkpt>
      <trkpt lat="46.56075" lon="4.90388">
        <ele>209</ele>
        <time>2022-06-25T09:03:28Z</time>
      </trkpt>
      <trkpt lat="46.5607" lon="4.90387">
        <ele>209</ele>
        <time>2022-06-25T09:03:29Z</time>
      </trkpt>
      <trkpt lat="46.56066" lon="4.90386">
        <ele>209</ele>
        <time>2022-06-25T09:03:30Z</time>
      </trkpt>
      <trkpt lat="46.56062" lon="4.90386">
        <ele>209</ele>
        <time>2022-06-25T09:03:31Z</time>
      </trkpt>
      <trkpt lat="46.56058" lon="4.90386">
        <ele>209</ele>
        <time>2022-06-25T09:03:32Z</time>
      </trkpt>
      <trkpt lat="46.56054" lon="4.90387">
        <ele>209</ele>
        <time>2022-06-25T09:03:33Z</time>
      </trkpt>
      <trkpt lat="46.5605" lon="4.90387">
        <ele>209</ele>
        <time>2022-06-25T09:03:34Z</time>
      </trkpt>
      <trkpt lat="46.56046" lon="4.90387">
        <ele>209</ele>
        <time>2022-06-25T09:03:35Z</time>
      </trkpt>
      <trkpt lat="46.56041" lon="4.90387">
        <ele>208.8</ele>
        <time>2022-06-25T09:03:36Z</time>
      </trkpt>
      <trkpt lat="46.56037" lon="4.90386">
        <ele>208.8</ele>
        <time>2022-06-25T09:03:37Z</time>
      </trkpt>
      <trkpt lat="46.56033" lon="4.90386">
        <ele>208.8</ele>
        <time>2022-06-25T09:03:38Z</time>
      </trkpt>
      <trkpt lat="46.56029" lon="4.90386">
        <ele>208.8</ele>
        <time>2022-06-25T09:03:39Z</time>
      </trkpt>
      <trkpt lat="46.56025" lon="4.90384">
        <ele>208.8</ele>
        <time>2022-06-25T09:03:40Z</time>
      </trkpt>
      <trkpt lat="46.56021" lon="4.90382">
        <ele>208.4</ele>
        <time>2022-06-25T09:03:41Z</time>
      </trkpt>
      <trkpt lat="46.56018" lon="4.90378">
        <ele>208.4</ele>
        <time>2022-06-25T09:03:42Z</time>
      </trkpt>
      <trkpt lat="46.56016" lon="4.90374">
        <ele>208.4</ele>
        <time>2022-06-25T09:03:43Z</time>
      </trkpt>
      <trkpt lat="46.56016" lon="4.90369">
        <ele>208.4</ele>
        <time>2022-06-25T09:03:44Z</time>
      </trkpt>
      <trkpt lat="46.56015" lon="4.90363">
        <ele>208.4</ele>
        <time>2022-06-25T09:03:45Z</time>
      </trkpt>
      <trkpt lat="46.56015" lon="4.90357">
        <ele>208.4</ele>
        <time>2022-06-25T09:03:46Z</time>
      </trkpt>
      <trkpt lat="46.56015" lon="4.9035">
        <ele>208.4</ele>
        <time>2022-06-25T09:03:47Z</time>
      </trkpt>
      <trkpt lat="46.56015" lon="4.90344">
        <ele>208.4</ele>
        <time>2022-06-25T09:03:48Z</time>
      </trkpt>
      <trkpt lat="46.56016" lon="4.90337">
        <ele>208.4</ele>
        <time>2022-06-25T09:03:49Z</time>
      </trkpt>
      <trkpt lat="46.56016" lon="4.90331">
        <ele>208.4</ele>
        <time>2022-06-25T09:03:50Z</time>
      </trkpt>
      <trkpt lat="46.56016" lon="4.90324">
        <ele>208.4</ele>
        <time>2022-06-25T09:03:51Z</time>
      </trkpt>
      <trkpt lat="46.56017" lon="4.90318">
        <ele>208.4</ele>
        <time>2022-06-25T09:03:52Z</time>
      </trkpt>
      <trkpt lat="46.56017" lon="4.90312">
        <ele>208.8</ele>
        <time>2022-06-25T09:03:53Z</time>
      </trkpt>
      <trkpt lat="46.56017" lon="4.90305">
        <ele>208.8</ele>
        <time>2022-06-25T09:03:54Z</time>
      </trkpt>
      <trkpt lat="46.56018" lon="4.90299">
        <ele>208.8</ele>
        <time>2022-06-25T09:03:55Z</time>
      </trkpt>
      <trkpt lat="46.56018" lon="4.90292">
        <ele>208.8</ele>
        <time>2022-06-25T09:03:56Z</time>
      </trkpt>
      <trkpt lat="46.56019" lon="4.90286">
        <ele>209</ele>
        <time>2022-06-25T09:03:57Z</time>
      </trkpt>
      <trkpt lat="46.56019" lon="4.90279">
        <ele>209</ele>
        <time>2022-06-25T09:03:58Z</time>
      </trkpt>
      <trkpt lat="46.56019" lon="4.90272">
        <ele>209.2</ele>
        <time>2022-06-25T09:03:59Z</time>
      </trkpt>
      <trkpt lat="46.56019" lon="4.90266">
        <ele>209.2</ele>
        <time>2022-06-25T09:04:00Z</time>
      </trkpt>
      <trkpt lat="46.56019" lon="4.9026">
        <ele>209.6</ele>
        <time>2022-06-25T09:04:01Z</time>
      </trkpt>
      <trkpt lat="46.5602" lon="4.90254">
        <ele>209.6</ele>
        <time>2022-06-25T09:04:02Z</time>
      </trkpt>
      <trkpt lat="46.5602" lon="4.90247">
        <ele>209.8</ele>
        <time>2022-06-25T09:04:03Z</time>
      </trkpt>
      <trkpt lat="46.56021" lon="4.90241">
        <ele>209.8</ele>
        <time>2022-06-25T09:04:04Z</time>
      </trkpt>
      <trkpt lat="46.56021" lon="4.90234">
        <ele>209.8</ele>
        <time>2022-06-25T09:04:05Z</time>
      </trkpt>
      <trkpt lat="46.56021" lon="4.90228">
        <ele>210</ele>
        <time>2022-06-25T09:04:06Z</time>
      </trkpt>
      <trkpt lat="46.56022" lon="4.90222">
        <ele>210</ele>
        <time>2022-06-25T09:04:07Z</time>
      </trkpt>
      <trkpt lat="46.56022" lon="4.90216">
        <ele>210</ele>
        <time>2022-06-25T09:04:08Z</time>
      </trkpt>
      <trkpt lat="46.56022" lon="4.9021">
        <ele>210</ele>
        <time>2022-06-25T09:04:09Z</time>
      </trkpt>
      <trkpt lat="46.56023" lon="4.90204">
        <ele>210.2</ele>
        <time>2022-06-25T09:04:10Z</time>
      </trkpt>
      <trkpt lat="46.56023" lon="4.90198">
        <ele>210.2</ele>
        <time>2022-06-25T09:04:11Z</time>
      </trkpt>
      <trkpt lat="46.56023" lon="4.90191">
        <ele>210.4</ele>
        <time>2022-06-25T09:04:12Z</time>
      </trkpt>
      <trkpt lat="46.56023" lon="4.90185">
        <ele>210.4</ele>
        <time>2022-06-25T09:04:13Z</time>
      </trkpt>
      <trkpt lat="46.56023" lon="4.90178">
        <ele>210.6</ele>
        <time>2022-06-25T09:04:14Z</time>
      </trkpt>
      <trkpt lat="46.56023" lon="4.90172">
        <ele>210.6</ele>
        <time>2022-06-25T09:04:15Z</time>
      </trkpt>
      <trkpt lat="46.56023" lon="4.90165">
        <ele>211</ele>
        <time>2022-06-25T09:04:16Z</time>
      </trkpt>
      <trkpt lat="46.56023" lon="4.90159">
        <ele>211</ele>
        <time>2022-06-25T09:04:17Z</time>
      </trkpt>
      <trkpt lat="46.56024" lon="4.90152">
        <ele>211</ele>
        <time>2022-06-25T09:04:18Z</time>
      </trkpt>
      <trkpt lat="46.56024" lon="4.90146">
        <ele>211.2</ele>
        <time>2022-06-25T09:04:19Z</time>
      </trkpt>
      <trkpt lat="46.56024" lon="4.9014">
        <ele>211.2</ele>
        <time>2022-06-25T09:04:20Z</time>
      </trkpt>
      <trkpt lat="46.56024" lon="4.90133">
        <ele>211.4</ele>
        <time>2022-06-25T09:04:21Z</time>
      </trkpt>
      <trkpt lat="46.56024" lon="4.90127">
        <ele>211.4</ele>
        <time>2022-06-25T09:04:22Z</time>
      </trkpt>
      <trkpt lat="46.56024" lon="4.90121">
        <ele>211.4</ele>
        <time>2022-06-25T09:04:23Z</time>
      </trkpt>
      <trkpt lat="46.56024" lon="4.90115">
        <ele>211.6</ele>
        <time>2022-06-25T09:04:24Z</time>
      </trkpt>
      <trkpt lat="46.56023" lon="4.90109">
        <ele>211.6</ele>
        <time>2022-06-25T09:04:25Z</time>
      </trkpt>
      <trkpt lat="46.56023" lon="4.90103">
        <ele>211.6</ele>
        <time>2022-06-25T09:04:26Z</time>
      </trkpt>
      <trkpt lat="46.56023" lon="4.90098">
        <ele>212</ele>
        <time>2022-06-25T09:04:27Z</time>
      </trkpt>
      <trkpt lat="46.56024" lon="4.90092">
        <ele>212</ele>
        <time>2022-06-25T09:04:28Z</time>
      </trkpt>
      <trkpt lat="46.56024" lon="4.90086">
        <ele>212</ele>
        <time>2022-06-25T09:04:29Z</time>
      </trkpt>
      <trkpt lat="46.56024" lon="4.9008">
        <ele>212.2</ele>
        <time>2022-06-25T09:04:30Z</time>
      </trkpt>
      <trkpt lat="46.56024" lon="4.90074">
        <ele>212.2</ele>
        <time>2022-06-25T09:04:31Z</time>
      </trkpt>
      <trkpt lat="46.56024" lon="4.90068">
        <ele>212.6</ele>
        <time>2022-06-25T09:04:32Z</time>
      </trkpt>
      <trkpt lat="46.56024" lon="4.90062">
        <ele>212.6</ele>
        <time>2022-06-25T09:04:33Z</time>
      </trkpt>
      <trkpt lat="46.56024" lon="4.90056">
        <ele>212.8</ele>
        <time>2022-06-25T09:04:34Z</time>
      </trkpt>
      <trkpt lat="46.56024" lon="4.9005">
        <ele>212.8</ele>
        <time>2022-06-25T09:04:35Z</time>
      </trkpt>
      <trkpt lat="46.56024" lon="4.90044">
        <ele>213</ele>
        <time>2022-06-25T09:04:36Z</time>
      </trkpt>
      <trkpt lat="46.56025" lon="4.90038">
        <ele>213</ele>
        <time>2022-06-25T09:04:37Z</time>
      </trkpt>
      <trkpt lat="46.56025" lon="4.90032">
        <ele>213.4</ele>
        <time>2022-06-25T09:04:38Z</time>
      </trkpt>
      <trkpt lat="46.56025" lon="4.90026">
        <ele>213.4</ele>
        <time>2022-06-25T09:04:39Z</time>
      </trkpt>
      <trkpt lat="46.56025" lon="4.9002">
        <ele>213.4</ele>
        <time>2022-06-25T09:04:40Z</time>
      </trkpt>
      <trkpt lat="46.56025" lon="4.90014">
        <ele>213.6</ele>
        <time>2022-06-25T09:04:41Z</time>
      </trkpt>
      <trkpt lat="46.56025" lon="4.90008">
        <ele>213.6</ele>
        <time>2022-06-25T09:04:42Z</time>
      </trkpt>
      <trkpt lat="46.56025" lon="4.90002">
        <ele>213.8</ele>
        <time>2022-06-25T09:04:43Z</time>
      </trkpt>
      <trkpt lat="46.56025" lon="4.89996">
        <ele>213.8</ele>
        <time>2022-06-25T09:04:44Z</time>
      </trkpt>
      <trkpt lat="46.56026" lon="4.8999">
        <ele>214</ele>
        <time>2022-06-25T09:04:45Z</time>
      </trkpt>
      <trkpt lat="46.56026" lon="4.89984">
        <ele>214</ele>
        <time>2022-06-25T09:04:46Z</time>
      </trkpt>
      <trkpt lat="46.56026" lon="4.89978">
        <ele>214.4</ele>
        <time>2022-06-25T09:04:47Z</time>
      </trkpt>
      <trkpt lat="46.56026" lon="4.89972">
        <ele>214.4</ele>
        <time>2022-06-25T09:04:48Z</time>
      </trkpt>
      <trkpt lat="46.56026" lon="4.89966">
        <ele>214.6</ele>
        <time>2022-06-25T09:04:49Z</time>
      </trkpt>
      <trkpt lat="46.56027" lon="4.8996">
        <ele>214.6</ele>
        <time>2022-06-25T09:04:50Z</time>
      </trkpt>
      <trkpt lat="46.56027" lon="4.89955">
        <ele>215</ele>
        <time>2022-06-25T09:04:51Z</time>
      </trkpt>
      <trkpt lat="46.56027" lon="4.89949">
        <ele>215</ele>
        <time>2022-06-25T09:04:52Z</time>
      </trkpt>
      <trkpt lat="46.56027" lon="4.89943">
        <ele>215.4</ele>
        <time>2022-06-25T09:04:53Z</time>
      </trkpt>
      <trkpt lat="46.56027" lon="4.89937">
        <ele>215.4</ele>
        <time>2022-06-25T09:04:54Z</time>
      </trkpt>
      <trkpt lat="46.56027" lon="4.89931">
        <ele>215.8</ele>
        <time>2022-06-25T09:04:55Z</time>
      </trkpt>
      <trkpt lat="46.56027" lon="4.89926">
        <ele>215.8</ele>
        <time>2022-06-25T09:04:56Z</time>
      </trkpt>
      <trkpt lat="46.56027" lon="4.8992">
        <ele>216</ele>
        <time>2022-06-25T09:04:57Z</time>
      </trkpt>
      <trkpt lat="46.56027" lon="4.89914">
        <ele>216</ele>
        <time>2022-06-25T09:04:58Z</time>
      </trkpt>
      <trkpt lat="46.56027" lon="4.89908">
        <ele>216.4</ele>
        <time>2022-06-25T09:04:59Z</time>
      </trkpt>
      <trkpt lat="46.56027" lon="4.89903">
        <ele>216.6</ele>
        <time>2022-06-25T09:05:00Z</time>
      </trkpt>
      <trkpt lat="46.56027" lon="4.89897">
        <ele>217</ele>
        <time>2022-06-25T09:05:01Z</time>
      </trkpt>
      <trkpt lat="46.56027" lon="4.89892">
        <ele>217.2</ele>
        <time>2022-06-25T09:05:02Z</time>
      </trkpt>
      <trkpt lat="46.56028" lon="4.89886">
        <ele>217.2</ele>
        <time>2022-06-25T09:05:03Z</time>
      </trkpt>
      <trkpt lat="46.56028" lon="4.8988">
        <ele>217.6</ele>
        <time>2022-06-25T09:05:04Z</time>
      </trkpt>
      <trkpt lat="46.56028" lon="4.89874">
        <ele>217.6</ele>
        <time>2022-06-25T09:05:05Z</time>
      </trkpt>
      <trkpt lat="46.56028" lon="4.89869">
        <ele>218</ele>
        <time>2022-06-25T09:05:06Z</time>
      </trkpt>
      <trkpt lat="46.56028" lon="4.89863">
        <ele>218</ele>
        <time>2022-06-25T09:05:07Z</time>
      </trkpt>
      <trkpt lat="46.56028" lon="4.89857">
        <ele>218.4</ele>
        <time>2022-06-25T09:05:08Z</time>
      </trkpt>
      <trkpt lat="46.56028" lon="4.89851">
        <ele>218.6</ele>
        <time>2022-06-25T09:05:09Z</time>
      </trkpt>
      <trkpt lat="46.56028" lon="4.89846">
        <ele>218.8</ele>
        <time>2022-06-25T09:05:10Z</time>
      </trkpt>
      <trkpt lat="46.56028" lon="4.8984">
        <ele>219</ele>
        <time>2022-06-25T09:05:11Z</time>
      </trkpt>
      <trkpt lat="46.56028" lon="4.89835">
        <ele>219.2</ele>
        <time>2022-06-25T09:05:12Z</time>
      </trkpt>
      <trkpt lat="46.56028" lon="4.8983">
        <ele>219.4</ele>
        <time>2022-06-25T09:05:13Z</time>
      </trkpt>
      <trkpt lat="46.56028" lon="4.89825">
        <ele>219.4</ele>
        <time>2022-06-25T09:05:14Z</time>
      </trkpt>
      <trkpt lat="46.56028" lon="4.8982">
        <ele>220</ele>
        <time>2022-06-25T09:05:15Z</time>
      </trkpt>
      <trkpt lat="46.56029" lon="4.89815">
        <ele>220.2</ele>
        <time>2022-06-25T09:05:16Z</time>
      </trkpt>
      <trkpt lat="46.56029" lon="4.8981">
        <ele>220.4</ele>
        <time>2022-06-25T09:05:17Z</time>
      </trkpt>
      <trkpt lat="46.56028" lon="4.89805">
        <ele>220.6</ele>
        <time>2022-06-25T09:05:18Z</time>
      </trkpt>
      <trkpt lat="46.56028" lon="4.898">
        <ele>220.6</ele>
        <time>2022-06-25T09:05:19Z</time>
      </trkpt>
      <trkpt lat="46.56028" lon="4.89796">
        <ele>221</ele>
        <time>2022-06-25T09:05:20Z</time>
      </trkpt>
      <trkpt lat="46.56028" lon="4.89791">
        <ele>221</ele>
        <time>2022-06-25T09:05:21Z</time>
      </trkpt>
      <trkpt lat="46.56028" lon="4.89786">
        <ele>221.2</ele>
        <time>2022-06-25T09:05:22Z</time>
      </trkpt>
      <trkpt lat="46.56028" lon="4.89781">
        <ele>221.2</ele>
        <time>2022-06-25T09:05:23Z</time>
      </trkpt>
      <trkpt lat="46.56028" lon="4.89776">
        <ele>221.6</ele>
        <time>2022-06-25T09:05:24Z</time>
      </trkpt>
      <trkpt lat="46.56028" lon="4.89771">
        <ele>221.6</ele>
        <time>2022-06-25T09:05:25Z</time>
      </trkpt>
      <trkpt lat="46.56028" lon="4.89766">
        <ele>221.8</ele>
        <time>2022-06-25T09:05:26Z</time>
      </trkpt>
      <trkpt lat="46.56028" lon="4.89761">
        <ele>221.8</ele>
        <time>2022-06-25T09:05:27Z</time>
      </trkpt>
      <trkpt lat="46.56028" lon="4.89755">
        <ele>221.8</ele>
        <time>2022-06-25T09:05:28Z</time>
      </trkpt>
      <trkpt lat="46.56028" lon="4.8975">
        <ele>222.2</ele>
        <time>2022-06-25T09:05:29Z</time>
      </trkpt>
      <trkpt lat="46.56029" lon="4.89744">
        <ele>222.2</ele>
        <time>2022-06-25T09:05:30Z</time>
      </trkpt>
      <trkpt lat="46.56029" lon="4.89739">
        <ele>222.4</ele>
        <time>2022-06-25T09:05:31Z</time>
      </trkpt>
      <trkpt lat="46.56029" lon="4.89733">
        <ele>222.4</ele>
        <time>2022-06-25T09:05:32Z</time>
      </trkpt>
      <trkpt lat="46.56028" lon="4.89727">
        <ele>222.4</ele>
        <time>2022-06-25T09:05:33Z</time>
      </trkpt>
      <trkpt lat="46.56028" lon="4.89721">
        <ele>222.6</ele>
        <time>2022-06-25T09:05:34Z</time>
      </trkpt>
      <trkpt lat="46.56028" lon="4.89715">
        <ele>222.6</ele>
        <time>2022-06-25T09:05:35Z</time>
      </trkpt>
      <trkpt lat="46.56029" lon="4.89709">
        <ele>222.6</ele>
        <time>2022-06-25T09:05:36Z</time>
      </trkpt>
      <trkpt lat="46.56029" lon="4.89702">
        <ele>222.6</ele>
        <time>2022-06-25T09:05:37Z</time>
      </trkpt>
      <trkpt lat="46.56029" lon="4.89695">
        <ele>222.6</ele>
        <time>2022-06-25T09:05:38Z</time>
      </trkpt>
      <trkpt lat="46.56028" lon="4.89688">
        <ele>222.6</ele>
        <time>2022-06-25T09:05:39Z</time>
      </trkpt>
      <trkpt lat="46.56028" lon="4.89681">
        <ele>222.6</ele>
        <time>2022-06-25T09:05:40Z</time>
      </trkpt>
      <trkpt lat="46.56028" lon="4.89674">
        <ele>222.6</ele>
        <time>2022-06-25T09:05:41Z</time>
      </trkpt>
      <trkpt lat="46.56029" lon="4.89667">
        <ele>222.6</ele>
        <time>2022-06-25T09:05:42Z</time>
      </trkpt>
      <trkpt lat="46.56029" lon="4.8966">
        <ele>222.6</ele>
        <time>2022-06-25T09:05:43Z</time>
      </trkpt>
      <trkpt lat="46.56029" lon="4.89653">
        <ele>222.6</ele>
        <time>2022-06-25T09:05:44Z</time>
      </trkpt>
      <trkpt lat="46.56029" lon="4.89645">
        <ele>222.6</ele>
        <time>2022-06-25T09:05:46Z</time>
      </trkpt>
      <trkpt lat="46.56029" lon="4.89638">
        <ele>222.4</ele>
        <time>2022-06-25T09:05:47Z</time>
      </trkpt>
      <trkpt lat="46.5603" lon="4.89631">
        <ele>222.4</ele>
        <time>2022-06-25T09:05:48Z</time>
      </trkpt>
      <trkpt lat="46.5603" lon="4.89624">
        <ele>222.4</ele>
        <time>2022-06-25T09:05:49Z</time>
      </trkpt>
      <trkpt lat="46.5603" lon="4.89616">
        <ele>222.4</ele>
        <time>2022-06-25T09:05:50Z</time>
      </trkpt>
      <trkpt lat="46.5603" lon="4.89609">
        <ele>222.4</ele>
        <time>2022-06-25T09:05:51Z</time>
      </trkpt>
      <trkpt lat="46.5603" lon="4.89601">
        <ele>222.4</ele>
        <time>2022-06-25T09:05:52Z</time>
      </trkpt>
      <trkpt lat="46.5603" lon="4.89594">
        <ele>222.4</ele>
        <time>2022-06-25T09:05:53Z</time>
      </trkpt>
      <trkpt lat="46.5603" lon="4.89586">
        <ele>222.4</ele>
        <time>2022-06-25T09:05:54Z</time>
      </trkpt>
      <trkpt lat="46.5603" lon="4.89579">
        <ele>222.4</ele>
        <time>2022-06-25T09:05:55Z</time>
      </trkpt>
      <trkpt lat="46.56031" lon="4.89571">
        <ele>222.4</ele>
        <time>2022-06-25T09:05:56Z</time>
      </trkpt>
      <trkpt lat="46.56031" lon="4.89564">
        <ele>222.4</ele>
        <time>2022-06-25T09:05:57Z</time>
      </trkpt>
      <trkpt lat="46.56031" lon="4.89557">
        <ele>222.4</ele>
        <time>2022-06-25T09:05:58Z</time>
      </trkpt>
      <trkpt lat="46.56032" lon="4.8955">
        <ele>222.4</ele>
        <time>2022-06-25T09:05:59Z</time>
      </trkpt>
      <trkpt lat="46.56032" lon="4.89543">
        <ele>222.6</ele>
        <time>2022-06-25T09:06:00Z</time>
      </trkpt>
      <trkpt lat="46.56032" lon="4.89536">
        <ele>222.6</ele>
        <time>2022-06-25T09:06:01Z</time>
      </trkpt>
      <trkpt lat="46.56033" lon="4.89529">
        <ele>222.6</ele>
        <time>2022-06-25T09:06:02Z</time>
      </trkpt>
      <trkpt lat="46.56033" lon="4.89523">
        <ele>222.6</ele>
        <time>2022-06-25T09:06:03Z</time>
      </trkpt>
      <trkpt lat="46.56032" lon="4.89516">
        <ele>223</ele>
        <time>2022-06-25T09:06:04Z</time>
      </trkpt>
      <trkpt lat="46.56032" lon="4.89509">
        <ele>223</ele>
        <time>2022-06-25T09:06:05Z</time>
      </trkpt>
      <trkpt lat="46.56032" lon="4.89502">
        <ele>223.2</ele>
        <time>2022-06-25T09:06:06Z</time>
      </trkpt>
      <trkpt lat="46.56031" lon="4.89496">
        <ele>223.2</ele>
        <time>2022-06-25T09:06:07Z</time>
      </trkpt>
      <trkpt lat="46.56029" lon="4.89489">
        <ele>223.2</ele>
        <time>2022-06-25T09:06:08Z</time>
      </trkpt>
      <trkpt lat="46.56027" lon="4.89483">
        <ele>223.4</ele>
        <time>2022-06-25T09:06:09Z</time>
      </trkpt>
      <trkpt lat="46.56026" lon="4.89477">
        <ele>223.4</ele>
        <time>2022-06-25T09:06:10Z</time>
      </trkpt>
      <trkpt lat="46.56024" lon="4.89472">
        <ele>223.4</ele>
        <time>2022-06-25T09:06:11Z</time>
      </trkpt>
      <trkpt lat="46.56022" lon="4.89466">
        <ele>223.6</ele>
        <time>2022-06-25T09:06:12Z</time>
      </trkpt>
      <trkpt lat="46.56021" lon="4.89461">
        <ele>223.6</ele>
        <time>2022-06-25T09:06:13Z</time>
      </trkpt>
      <trkpt lat="46.56019" lon="4.89456">
        <ele>223.8</ele>
        <time>2022-06-25T09:06:14Z</time>
      </trkpt>
      <trkpt lat="46.56018" lon="4.8945">
        <ele>223.8</ele>
        <time>2022-06-25T09:06:15Z</time>
      </trkpt>
      <trkpt lat="46.56016" lon="4.89444">
        <ele>224</ele>
        <time>2022-06-25T09:06:16Z</time>
      </trkpt>
      <trkpt lat="46.56015" lon="4.89438">
        <ele>224</ele>
        <time>2022-06-25T09:06:17Z</time>
      </trkpt>
      <trkpt lat="46.56014" lon="4.89432">
        <ele>224.4</ele>
        <time>2022-06-25T09:06:18Z</time>
      </trkpt>
      <trkpt lat="46.56012" lon="4.89427">
        <ele>224.4</ele>
        <time>2022-06-25T09:06:19Z</time>
      </trkpt>
      <trkpt lat="46.56011" lon="4.89421">
        <ele>224.6</ele>
        <time>2022-06-25T09:06:20Z</time>
      </trkpt>
      <trkpt lat="46.5601" lon="4.89415">
        <ele>224.8</ele>
        <time>2022-06-25T09:06:21Z</time>
      </trkpt>
      <trkpt lat="46.56008" lon="4.89409">
        <ele>225</ele>
        <time>2022-06-25T09:06:22Z</time>
      </trkpt>
      <trkpt lat="46.56007" lon="4.89404">
        <ele>225.2</ele>
        <time>2022-06-25T09:06:23Z</time>
      </trkpt>
      <trkpt lat="46.56006" lon="4.89398">
        <ele>225.6</ele>
        <time>2022-06-25T09:06:24Z</time>
      </trkpt>
      <trkpt lat="46.56004" lon="4.89393">
        <ele>225.8</ele>
        <time>2022-06-25T09:06:25Z</time>
      </trkpt>
      <trkpt lat="46.56003" lon="4.89388">
        <ele>226</ele>
        <time>2022-06-25T09:06:26Z</time>
      </trkpt>
      <trkpt lat="46.56002" lon="4.89383">
        <ele>226.4</ele>
        <time>2022-06-25T09:06:27Z</time>
      </trkpt>
      <trkpt lat="46.56" lon="4.89379">
        <ele>226.6</ele>
        <time>2022-06-25T09:06:28Z</time>
      </trkpt>
      <trkpt lat="46.55999" lon="4.89375">
        <ele>227</ele>
        <time>2022-06-25T09:06:29Z</time>
      </trkpt>
      <trkpt lat="46.55997" lon="4.89371">
        <ele>227.2</ele>
        <time>2022-06-25T09:06:30Z</time>
      </trkpt>
      <trkpt lat="46.55996" lon="4.89366">
        <ele>227.4</ele>
        <time>2022-06-25T09:06:31Z</time>
      </trkpt>
      <trkpt lat="46.55995" lon="4.89362">
        <ele>227.8</ele>
        <time>2022-06-25T09:06:32Z</time>
      </trkpt>
      <trkpt lat="46.55994" lon="4.89357">
        <ele>228</ele>
        <time>2022-06-25T09:06:33Z</time>
      </trkpt>
      <trkpt lat="46.55993" lon="4.89353">
        <ele>228.4</ele>
        <time>2022-06-25T09:06:34Z</time>
      </trkpt>
      <trkpt lat="46.55992" lon="4.89348">
        <ele>228.6</ele>
        <time>2022-06-25T09:06:35Z</time>
      </trkpt>
      <trkpt lat="46.55992" lon="4.89344">
        <ele>228.8</ele>
        <time>2022-06-25T09:06:36Z</time>
      </trkpt>
      <trkpt lat="46.55991" lon="4.89339">
        <ele>229</ele>
        <time>2022-06-25T09:06:37Z</time>
      </trkpt>
      <trkpt lat="46.55989" lon="4.89334">
        <ele>229</ele>
        <time>2022-06-25T09:06:38Z</time>
      </trkpt>
      <trkpt lat="46.55988" lon="4.8933">
        <ele>229.4</ele>
        <time>2022-06-25T09:06:39Z</time>
      </trkpt>
      <trkpt lat="46.55987" lon="4.89326">
        <ele>229.8</ele>
        <time>2022-06-25T09:06:40Z</time>
      </trkpt>
      <trkpt lat="46.55986" lon="4.89322">
        <ele>229.8</ele>
        <time>2022-06-25T09:06:41Z</time>
      </trkpt>
      <trkpt lat="46.55985" lon="4.89318">
        <ele>230</ele>
        <time>2022-06-25T09:06:42Z</time>
      </trkpt>
      <trkpt lat="46.55984" lon="4.89314">
        <ele>230</ele>
        <time>2022-06-25T09:06:43Z</time>
      </trkpt>
      <trkpt lat="46.55983" lon="4.8931">
        <ele>230.2</ele>
        <time>2022-06-25T09:06:44Z</time>
      </trkpt>
      <trkpt lat="46.55982" lon="4.89306">
        <ele>230.2</ele>
        <time>2022-06-25T09:06:45Z</time>
      </trkpt>
      <trkpt lat="46.55981" lon="4.89303">
        <ele>230.2</ele>
        <time>2022-06-25T09:06:46Z</time>
      </trkpt>
      <trkpt lat="46.5598" lon="4.89303">
        <ele>230.4</ele>
        <time>2022-06-25T09:06:47Z</time>
      </trkpt>
      <trkpt lat="46.5598" lon="4.89302">
        <ele>230.4</ele>
        <time>2022-06-25T09:06:48Z</time>
      </trkpt>
      <trkpt lat="46.5598" lon="4.89301">
        <ele>230.4</ele>
        <time>2022-06-25T09:06:52Z</time>
      </trkpt>
      <trkpt lat="46.5598" lon="4.89301">
        <ele>230.4</ele>
        <time>2022-06-25T09:06:53Z</time>
      </trkpt>
      <trkpt lat="46.5598" lon="4.893">
        <ele>230.4</ele>
        <time>2022-06-25T09:06:54Z</time>
      </trkpt>
      <trkpt lat="46.55979" lon="4.893">
        <ele>230.4</ele>
        <time>2022-06-25T09:06:55Z</time>
      </trkpt>
      <trkpt lat="46.55979" lon="4.89299">
        <ele>230.4</ele>
        <time>2022-06-25T09:06:59Z</time>
      </trkpt>
      <trkpt lat="46.55979" lon="4.89299">
        <ele>230.4</ele>
        <time>2022-06-25T09:07:00Z</time>
      </trkpt>
      <trkpt lat="46.55979" lon="4.89298">
        <ele>230.4</ele>
        <time>2022-06-25T09:07:01Z</time>
      </trkpt>
      <trkpt lat="46.55979" lon="4.89297">
        <ele>230.6</ele>
        <time>2022-06-25T09:07:31Z</time>
      </trkpt>
      <trkpt lat="46.55978" lon="4.89297">
        <ele>231</ele>
        <time>2022-06-25T09:07:40Z</time>
      </trkpt>
      <trkpt lat="46.55978" lon="4.89296">
        <ele>231</ele>
        <time>2022-06-25T09:07:41Z</time>
      </trkpt>
      <trkpt lat="46.55978" lon="4.89296">
        <ele>231</ele>
        <time>2022-06-25T09:07:51Z</time>
      </trkpt>
      <trkpt lat="46.55978" lon="4.89295">
        <ele>231</ele>
        <time>2022-06-25T09:07:52Z</time>
      </trkpt>
      <trkpt lat="46.55978" lon="4.89294">
        <ele>231</ele>
        <time>2022-06-25T09:07:54Z</time>
      </trkpt>
      <trkpt lat="46.55977" lon="4.89294">
        <ele>231</ele>
        <time>2022-06-25T09:07:55Z</time>
      </trkpt>
      <trkpt lat="46.55977" lon="4.89293">
        <ele>231</ele>
        <time>2022-06-25T09:07:56Z</time>
      </trkpt>
      <trkpt lat="46.55976" lon="4.8929">
        <ele>231</ele>
        <time>2022-06-25T09:07:58Z</time>
      </trkpt>
      <trkpt lat="46.55976" lon="4.89287">
        <ele>231</ele>
        <time>2022-06-25T09:07:59Z</time>
      </trkpt>
      <trkpt lat="46.55975" lon="4.89283">
        <ele>231</ele>
        <time>2022-06-25T09:08:00Z</time>
      </trkpt>
      <trkpt lat="46.55974" lon="4.8928">
        <ele>231.2</ele>
        <time>2022-06-25T09:08:01Z</time>
      </trkpt>
      <trkpt lat="46.55973" lon="4.89277">
        <ele>231.2</ele>
        <time>2022-06-25T09:08:02Z</time>
      </trkpt>
      <trkpt lat="46.55972" lon="4.89273">
        <ele>231.2</ele>
        <time>2022-06-25T09:08:03Z</time>
      </trkpt>
      <trkpt lat="46.55971" lon="4.8927">
        <ele>231.2</ele>
        <time>2022-06-25T09:08:04Z</time>
      </trkpt>
      <trkpt lat="46.5597" lon="4.89266">
        <ele>231.6</ele>
        <time>2022-06-25T09:08:05Z</time>
      </trkpt>
      <trkpt lat="46.55969" lon="4.89262">
        <ele>231.6</ele>
        <time>2022-06-25T09:08:06Z</time>
      </trkpt>
      <trkpt lat="46.55968" lon="4.89258">
        <ele>231.6</ele>
        <time>2022-06-25T09:08:07Z</time>
      </trkpt>
      <trkpt lat="46.55967" lon="4.89254">
        <ele>231.8</ele>
        <time>2022-06-25T09:08:08Z</time>
      </trkpt>
      <trkpt lat="46.55966" lon="4.8925">
        <ele>231.8</ele>
        <time>2022-06-25T09:08:09Z</time>
      </trkpt>
      <trkpt lat="46.55965" lon="4.89246">
        <ele>231.8</ele>
        <time>2022-06-25T09:08:10Z</time>
      </trkpt>
      <trkpt lat="46.55964" lon="4.89241">
        <ele>231.8</ele>
        <time>2022-06-25T09:08:11Z</time>
      </trkpt>
      <trkpt lat="46.55963" lon="4.89237">
        <ele>232</ele>
        <time>2022-06-25T09:08:12Z</time>
      </trkpt>
      <trkpt lat="46.55963" lon="4.89232">
        <ele>232</ele>
        <time>2022-06-25T09:08:13Z</time>
      </trkpt>
      <trkpt lat="46.55962" lon="4.89228">
        <ele>232</ele>
        <time>2022-06-25T09:08:14Z</time>
      </trkpt>
      <trkpt lat="46.5596" lon="4.89223">
        <ele>232</ele>
        <time>2022-06-25T09:08:15Z</time>
      </trkpt>
      <trkpt lat="46.55959" lon="4.89218">
        <ele>232.2</ele>
        <time>2022-06-25T09:08:16Z</time>
      </trkpt>
      <trkpt lat="46.55958" lon="4.89213">
        <ele>232.2</ele>
        <time>2022-06-25T09:08:17Z</time>
      </trkpt>
      <trkpt lat="46.55957" lon="4.89208">
        <ele>232.2</ele>
        <time>2022-06-25T09:08:18Z</time>
      </trkpt>
      <trkpt lat="46.55955" lon="4.89203">
        <ele>232.2</ele>
        <time>2022-06-25T09:08:19Z</time>
      </trkpt>
      <trkpt lat="46.55954" lon="4.89197">
        <ele>232.4</ele>
        <time>2022-06-25T09:08:20Z</time>
      </trkpt>
      <trkpt lat="46.55953" lon="4.89192">
        <ele>232.4</ele>
        <time>2022-06-25T09:08:21Z</time>
      </trkpt>
      <trkpt lat="46.55951" lon="4.89187">
        <ele>232.4</ele>
        <time>2022-06-25T09:08:22Z</time>
      </trkpt>
      <trkpt lat="46.5595" lon="4.89182">
        <ele>232.4</ele>
        <time>2022-06-25T09:08:23Z</time>
      </trkpt>
      <trkpt lat="46.55948" lon="4.89176">
        <ele>232.8</ele>
        <time>2022-06-25T09:08:24Z</time>
      </trkpt>
      <trkpt lat="46.55946" lon="4.89171">
        <ele>232.8</ele>
        <time>2022-06-25T09:08:25Z</time>
      </trkpt>
      <trkpt lat="46.55944" lon="4.89166">
        <ele>232.8</ele>
        <time>2022-06-25T09:08:26Z</time>
      </trkpt>
      <trkpt lat="46.55942" lon="4.89161">
        <ele>232.8</ele>
        <time>2022-06-25T09:08:27Z</time>
      </trkpt>
      <trkpt lat="46.55941" lon="4.89156">
        <ele>233</ele>
        <time>2022-06-25T09:08:28Z</time>
      </trkpt>
      <trkpt lat="46.55939" lon="4.89151">
        <ele>233</ele>
        <time>2022-06-25T09:08:29Z</time>
      </trkpt>
      <trkpt lat="46.55937" lon="4.89146">
        <ele>233</ele>
        <time>2022-06-25T09:08:30Z</time>
      </trkpt>
      <trkpt lat="46.55935" lon="4.89141">
        <ele>233.2</ele>
        <time>2022-06-25T09:08:31Z</time>
      </trkpt>
      <trkpt lat="46.55933" lon="4.89136">
        <ele>233.2</ele>
        <time>2022-06-25T09:08:32Z</time>
      </trkpt>
      <trkpt lat="46.55932" lon="4.89132">
        <ele>233.6</ele>
        <time>2022-06-25T09:08:33Z</time>
      </trkpt>
      <trkpt lat="46.5593" lon="4.89127">
        <ele>233.6</ele>
        <time>2022-06-25T09:08:34Z</time>
      </trkpt>
      <trkpt lat="46.55928" lon="4.89123">
        <ele>233.8</ele>
        <time>2022-06-25T09:08:35Z</time>
      </trkpt>
      <trkpt lat="46.55927" lon="4.89118">
        <ele>233.8</ele>
        <time>2022-06-25T09:08:36Z</time>
      </trkpt>
      <trkpt lat="46.55926" lon="4.89113">
        <ele>234.2</ele>
        <time>2022-06-25T09:08:37Z</time>
      </trkpt>
      <trkpt lat="46.55924" lon="4.89108">
        <ele>234.2</ele>
        <time>2022-06-25T09:08:38Z</time>
      </trkpt>
      <trkpt lat="46.55923" lon="4.89103">
        <ele>234.4</ele>
        <time>2022-06-25T09:08:39Z</time>
      </trkpt>
      <trkpt lat="46.55922" lon="4.89098">
        <ele>234.4</ele>
        <time>2022-06-25T09:08:40Z</time>
      </trkpt>
      <trkpt lat="46.55921" lon="4.89093">
        <ele>234.6</ele>
        <time>2022-06-25T09:08:41Z</time>
      </trkpt>
      <trkpt lat="46.55919" lon="4.89088">
        <ele>234.6</ele>
        <time>2022-06-25T09:08:42Z</time>
      </trkpt>
      <trkpt lat="46.55918" lon="4.89083">
        <ele>235</ele>
        <time>2022-06-25T09:08:43Z</time>
      </trkpt>
      <trkpt lat="46.55917" lon="4.89079">
        <ele>235</ele>
        <time>2022-06-25T09:08:44Z</time>
      </trkpt>
      <trkpt lat="46.55916" lon="4.89074">
        <ele>235.2</ele>
        <time>2022-06-25T09:08:45Z</time>
      </trkpt>
      <trkpt lat="46.55915" lon="4.89069">
        <ele>235.2</ele>
        <time>2022-06-25T09:08:46Z</time>
      </trkpt>
      <trkpt lat="46.55914" lon="4.89064">
        <ele>235.6</ele>
        <time>2022-06-25T09:08:47Z</time>
      </trkpt>
      <trkpt lat="46.55912" lon="4.89059">
        <ele>235.6</ele>
        <time>2022-06-25T09:08:48Z</time>
      </trkpt>
      <trkpt lat="46.55911" lon="4.89054">
        <ele>235.8</ele>
        <time>2022-06-25T09:08:49Z</time>
      </trkpt>
      <trkpt lat="46.5591" lon="4.89049">
        <ele>235.8</ele>
        <time>2022-06-25T09:08:50Z</time>
      </trkpt>
      <trkpt lat="46.55909" lon="4.89044">
        <ele>235.8</ele>
        <time>2022-06-25T09:08:51Z</time>
      </trkpt>
      <trkpt lat="46.55908" lon="4.89038">
        <ele>236</ele>
        <time>2022-06-25T09:08:52Z</time>
      </trkpt>
      <trkpt lat="46.55907" lon="4.89033">
        <ele>236</ele>
        <time>2022-06-25T09:08:53Z</time>
      </trkpt>
      <trkpt lat="46.55905" lon="4.89028">
        <ele>236</ele>
        <time>2022-06-25T09:08:54Z</time>
      </trkpt>
      <trkpt lat="46.55904" lon="4.89022">
        <ele>236.4</ele>
        <time>2022-06-25T09:08:55Z</time>
      </trkpt>
      <trkpt lat="46.55902" lon="4.89017">
        <ele>236.4</ele>
        <time>2022-06-25T09:08:56Z</time>
      </trkpt>
      <trkpt lat="46.559" lon="4.89012">
        <ele>236.8</ele>
        <time>2022-06-25T09:08:57Z</time>
      </trkpt>
      <trkpt lat="46.55899" lon="4.89007">
        <ele>237</ele>
        <time>2022-06-25T09:08:58Z</time>
      </trkpt>
      <trkpt lat="46.55897" lon="4.89001">
        <ele>237</ele>
        <time>2022-06-25T09:08:59Z</time>
      </trkpt>
      <trkpt lat="46.55896" lon="4.88996">
        <ele>237.4</ele>
        <time>2022-06-25T09:09:00Z</time>
      </trkpt>
      <trkpt lat="46.55894" lon="4.88991">
        <ele>237.6</ele>
        <time>2022-06-25T09:09:01Z</time>
      </trkpt>
      <trkpt lat="46.55893" lon="4.88985">
        <ele>237.8</ele>
        <time>2022-06-25T09:09:02Z</time>
      </trkpt>
      <trkpt lat="46.55891" lon="4.8898">
        <ele>237.8</ele>
        <time>2022-06-25T09:09:03Z</time>
      </trkpt>
      <trkpt lat="46.5589" lon="4.88975">
        <ele>238.2</ele>
        <time>2022-06-25T09:09:04Z</time>
      </trkpt>
      <trkpt lat="46.55889" lon="4.8897">
        <ele>238.2</ele>
        <time>2022-06-25T09:09:05Z</time>
      </trkpt>
      <trkpt lat="46.55887" lon="4.88965">
        <ele>238.6</ele>
        <time>2022-06-25T09:09:06Z</time>
      </trkpt>
      <trkpt lat="46.55886" lon="4.8896">
        <ele>238.8</ele>
        <time>2022-06-25T09:09:07Z</time>
      </trkpt>
      <trkpt lat="46.55884" lon="4.88955">
        <ele>238.8</ele>
        <time>2022-06-25T09:09:08Z</time>
      </trkpt>
      <trkpt lat="46.55883" lon="4.8895">
        <ele>238.8</ele>
        <time>2022-06-25T09:09:09Z</time>
      </trkpt>
      <trkpt lat="46.55882" lon="4.88945">
        <ele>239</ele>
        <time>2022-06-25T09:09:10Z</time>
      </trkpt>
      <trkpt lat="46.5588" lon="4.8894">
        <ele>239</ele>
        <time>2022-06-25T09:09:11Z</time>
      </trkpt>
      <trkpt lat="46.55879" lon="4.88936">
        <ele>239.4</ele>
        <time>2022-06-25T09:09:12Z</time>
      </trkpt>
      <trkpt lat="46.55878" lon="4.88932">
        <ele>239.4</ele>
        <time>2022-06-25T09:09:13Z</time>
      </trkpt>
      <trkpt lat="46.55876" lon="4.88927">
        <ele>239.6</ele>
        <time>2022-06-25T09:09:14Z</time>
      </trkpt>
      <trkpt lat="46.55875" lon="4.88923">
        <ele>240</ele>
        <time>2022-06-25T09:09:15Z</time>
      </trkpt>
      <trkpt lat="46.55874" lon="4.88919">
        <ele>240.2</ele>
        <time>2022-06-25T09:09:16Z</time>
      </trkpt>
      <trkpt lat="46.55872" lon="4.88915">
        <ele>240.2</ele>
        <time>2022-06-25T09:09:17Z</time>
      </trkpt>
      <trkpt lat="46.5587" lon="4.88911">
        <ele>240.4</ele>
        <time>2022-06-25T09:09:18Z</time>
      </trkpt>
      <trkpt lat="46.55868" lon="4.88907">
        <ele>240.6</ele>
        <time>2022-06-25T09:09:19Z</time>
      </trkpt>
      <trkpt lat="46.55866" lon="4.88903">
        <ele>240.8</ele>
        <time>2022-06-25T09:09:20Z</time>
      </trkpt>
      <trkpt lat="46.55865" lon="4.88899">
        <ele>240.8</ele>
        <time>2022-06-25T09:09:21Z</time>
      </trkpt>
      <trkpt lat="46.55863" lon="4.88894">
        <ele>241.2</ele>
        <time>2022-06-25T09:09:22Z</time>
      </trkpt>
      <trkpt lat="46.55861" lon="4.8889">
        <ele>241.2</ele>
        <time>2022-06-25T09:09:23Z</time>
      </trkpt>
      <trkpt lat="46.55859" lon="4.88885">
        <ele>241.4</ele>
        <time>2022-06-25T09:09:24Z</time>
      </trkpt>
      <trkpt lat="46.55857" lon="4.88881">
        <ele>241.4</ele>
        <time>2022-06-25T09:09:25Z</time>
      </trkpt>
      <trkpt lat="46.55855" lon="4.88877">
        <ele>241.8</ele>
        <time>2022-06-25T09:09:26Z</time>
      </trkpt>
      <trkpt lat="46.55853" lon="4.88872">
        <ele>241.8</ele>
        <time>2022-06-25T09:09:27Z</time>
      </trkpt>
      <trkpt lat="46.55851" lon="4.88867">
        <ele>242</ele>
        <time>2022-06-25T09:09:28Z</time>
      </trkpt>
      <trkpt lat="46.55849" lon="4.88861">
        <ele>242</ele>
        <time>2022-06-25T09:09:29Z</time>
      </trkpt>
      <trkpt lat="46.55847" lon="4.88856">
        <ele>242.2</ele>
        <time>2022-06-25T09:09:30Z</time>
      </trkpt>
      <trkpt lat="46.55845" lon="4.8885">
        <ele>242.2</ele>
        <time>2022-06-25T09:09:31Z</time>
      </trkpt>
      <trkpt lat="46.55843" lon="4.88844">
        <ele>242.2</ele>
        <time>2022-06-25T09:09:32Z</time>
      </trkpt>
      <trkpt lat="46.55841" lon="4.88837">
        <ele>242.2</ele>
        <time>2022-06-25T09:09:33Z</time>
      </trkpt>
      <trkpt lat="46.55839" lon="4.88831">
        <ele>242.2</ele>
        <time>2022-06-25T09:09:34Z</time>
      </trkpt>
      <trkpt lat="46.55838" lon="4.88824">
        <ele>242.2</ele>
        <time>2022-06-25T09:09:35Z</time>
      </trkpt>
      <trkpt lat="46.55836" lon="4.88817">
        <ele>242.2</ele>
        <time>2022-06-25T09:09:36Z</time>
      </trkpt>
      <trkpt lat="46.55834" lon="4.8881">
        <ele>242.2</ele>
        <time>2022-06-25T09:09:37Z</time>
      </trkpt>
      <trkpt lat="46.55833" lon="4.88804">
        <ele>242.2</ele>
        <time>2022-06-25T09:09:38Z</time>
      </trkpt>
      <trkpt lat="46.55831" lon="4.88797">
        <ele>242.2</ele>
        <time>2022-06-25T09:09:39Z</time>
      </trkpt>
      <trkpt lat="46.5583" lon="4.8879">
        <ele>242.2</ele>
        <time>2022-06-25T09:09:40Z</time>
      </trkpt>
      <trkpt lat="46.55829" lon="4.88784">
        <ele>242.2</ele>
        <time>2022-06-25T09:09:41Z</time>
      </trkpt>
      <trkpt lat="46.55827" lon="4.88777">
        <ele>242.2</ele>
        <time>2022-06-25T09:09:42Z</time>
      </trkpt>
      <trkpt lat="46.55826" lon="4.8877">
        <ele>242.2</ele>
        <time>2022-06-25T09:09:43Z</time>
      </trkpt>
      <trkpt lat="46.55824" lon="4.88764">
        <ele>242.2</ele>
        <time>2022-06-25T09:09:44Z</time>
      </trkpt>
      <trkpt lat="46.55823" lon="4.88757">
        <ele>242.2</ele>
        <time>2022-06-25T09:09:45Z</time>
      </trkpt>
      <trkpt lat="46.55822" lon="4.8875">
        <ele>242.2</ele>
        <time>2022-06-25T09:09:46Z</time>
      </trkpt>
      <trkpt lat="46.55821" lon="4.88744">
        <ele>242.4</ele>
        <time>2022-06-25T09:09:47Z</time>
      </trkpt>
      <trkpt lat="46.5582" lon="4.88737">
        <ele>242.6</ele>
        <time>2022-06-25T09:09:48Z</time>
      </trkpt>
      <trkpt lat="46.55819" lon="4.88731">
        <ele>242.6</ele>
        <time>2022-06-25T09:09:49Z</time>
      </trkpt>
      <trkpt lat="46.55817" lon="4.88725">
        <ele>242.6</ele>
        <time>2022-06-25T09:09:50Z</time>
      </trkpt>
      <trkpt lat="46.55816" lon="4.88719">
        <ele>243</ele>
        <time>2022-06-25T09:09:51Z</time>
      </trkpt>
      <trkpt lat="46.55815" lon="4.88713">
        <ele>243</ele>
        <time>2022-06-25T09:09:52Z</time>
      </trkpt>
      <trkpt lat="46.55814" lon="4.88708">
        <ele>243.2</ele>
        <time>2022-06-25T09:09:53Z</time>
      </trkpt>
      <trkpt lat="46.55812" lon="4.88702">
        <ele>243.2</ele>
        <time>2022-06-25T09:09:54Z</time>
      </trkpt>
      <trkpt lat="46.55811" lon="4.88697">
        <ele>243.8</ele>
        <time>2022-06-25T09:09:55Z</time>
      </trkpt>
      <trkpt lat="46.55809" lon="4.88692">
        <ele>244</ele>
        <time>2022-06-25T09:09:56Z</time>
      </trkpt>
      <trkpt lat="46.55808" lon="4.88686">
        <ele>244</ele>
        <time>2022-06-25T09:09:57Z</time>
      </trkpt>
      <trkpt lat="46.55806" lon="4.88681">
        <ele>244.4</ele>
        <time>2022-06-25T09:09:58Z</time>
      </trkpt>
      <trkpt lat="46.55804" lon="4.88676">
        <ele>244.6</ele>
        <time>2022-06-25T09:09:59Z</time>
      </trkpt>
      <trkpt lat="46.55802" lon="4.88672">
        <ele>244.8</ele>
        <time>2022-06-25T09:10:00Z</time>
      </trkpt>
      <trkpt lat="46.558" lon="4.88667">
        <ele>245.2</ele>
        <time>2022-06-25T09:10:01Z</time>
      </trkpt>
      <trkpt lat="46.55798" lon="4.88663">
        <ele>245.6</ele>
        <time>2022-06-25T09:10:02Z</time>
      </trkpt>
      <trkpt lat="46.55797" lon="4.88659">
        <ele>245.8</ele>
        <time>2022-06-25T09:10:03Z</time>
      </trkpt>
      <trkpt lat="46.55795" lon="4.88655">
        <ele>246.2</ele>
        <time>2022-06-25T09:10:04Z</time>
      </trkpt>
      <trkpt lat="46.55794" lon="4.88651">
        <ele>246.4</ele>
        <time>2022-06-25T09:10:05Z</time>
      </trkpt>
      <trkpt lat="46.55793" lon="4.88647">
        <ele>246.6</ele>
        <time>2022-06-25T09:10:06Z</time>
      </trkpt>
      <trkpt lat="46.55791" lon="4.88643">
        <ele>247</ele>
        <time>2022-06-25T09:10:07Z</time>
      </trkpt>
      <trkpt lat="46.5579" lon="4.88639">
        <ele>247.4</ele>
        <time>2022-06-25T09:10:08Z</time>
      </trkpt>
      <trkpt lat="46.55788" lon="4.88635">
        <ele>247.6</ele>
        <time>2022-06-25T09:10:09Z</time>
      </trkpt>
      <trkpt lat="46.55787" lon="4.88631">
        <ele>248</ele>
        <time>2022-06-25T09:10:10Z</time>
      </trkpt>
      <trkpt lat="46.55786" lon="4.88626">
        <ele>248.2</ele>
        <time>2022-06-25T09:10:11Z</time>
      </trkpt>
      <trkpt lat="46.55784" lon="4.88622">
        <ele>248.6</ele>
        <time>2022-06-25T09:10:12Z</time>
      </trkpt>
      <trkpt lat="46.55783" lon="4.88618">
        <ele>248.8</ele>
        <time>2022-06-25T09:10:13Z</time>
      </trkpt>
      <trkpt lat="46.55782" lon="4.88614">
        <ele>249</ele>
        <time>2022-06-25T09:10:14Z</time>
      </trkpt>
      <trkpt lat="46.5578" lon="4.8861">
        <ele>249.2</ele>
        <time>2022-06-25T09:10:15Z</time>
      </trkpt>
      <trkpt lat="46.55779" lon="4.88606">
        <ele>249.2</ele>
        <time>2022-06-25T09:10:16Z</time>
      </trkpt>
      <trkpt lat="46.55778" lon="4.88602">
        <ele>249.8</ele>
        <time>2022-06-25T09:10:17Z</time>
      </trkpt>
      <trkpt lat="46.55776" lon="4.88598">
        <ele>249.8</ele>
        <time>2022-06-25T09:10:18Z</time>
      </trkpt>
      <trkpt lat="46.55775" lon="4.88595">
        <ele>250</ele>
        <time>2022-06-25T09:10:19Z</time>
      </trkpt>
      <trkpt lat="46.55774" lon="4.88592">
        <ele>250</ele>
        <time>2022-06-25T09:10:20Z</time>
      </trkpt>
      <trkpt lat="46.55772" lon="4.88588">
        <ele>250.4</ele>
        <time>2022-06-25T09:10:21Z</time>
      </trkpt>
      <trkpt lat="46.55771" lon="4.88585">
        <ele>250.4</ele>
        <time>2022-06-25T09:10:22Z</time>
      </trkpt>
      <trkpt lat="46.5577" lon="4.88581">
        <ele>250.6</ele>
        <time>2022-06-25T09:10:23Z</time>
      </trkpt>
      <trkpt lat="46.55769" lon="4.88577">
        <ele>250.6</ele>
        <time>2022-06-25T09:10:24Z</time>
      </trkpt>
      <trkpt lat="46.55767" lon="4.88574">
        <ele>251</ele>
        <time>2022-06-25T09:10:25Z</time>
      </trkpt>
      <trkpt lat="46.55767" lon="4.88571">
        <ele>251</ele>
        <time>2022-06-25T09:10:26Z</time>
      </trkpt>
      <trkpt lat="46.55765" lon="4.88568">
        <ele>251.4</ele>
        <time>2022-06-25T09:10:27Z</time>
      </trkpt>
      <trkpt lat="46.55764" lon="4.88564">
        <ele>251.6</ele>
        <time>2022-06-25T09:10:28Z</time>
      </trkpt>
      <trkpt lat="46.55763" lon="4.8856">
        <ele>251.8</ele>
        <time>2022-06-25T09:10:29Z</time>
      </trkpt>
      <trkpt lat="46.55761" lon="4.88556">
        <ele>252</ele>
        <time>2022-06-25T09:10:30Z</time>
      </trkpt>
      <trkpt lat="46.5576" lon="4.88552">
        <ele>252</ele>
        <time>2022-06-25T09:10:31Z</time>
      </trkpt>
      <trkpt lat="46.55758" lon="4.88548">
        <ele>252.4</ele>
        <time>2022-06-25T09:10:32Z</time>
      </trkpt>
      <trkpt lat="46.55757" lon="4.88544">
        <ele>252.6</ele>
        <time>2022-06-25T09:10:33Z</time>
      </trkpt>
      <trkpt lat="46.55756" lon="4.8854">
        <ele>252.8</ele>
        <time>2022-06-25T09:10:34Z</time>
      </trkpt>
      <trkpt lat="46.55754" lon="4.88537">
        <ele>252.8</ele>
        <time>2022-06-25T09:10:35Z</time>
      </trkpt>
      <trkpt lat="46.55753" lon="4.88533">
        <ele>253.4</ele>
        <time>2022-06-25T09:10:36Z</time>
      </trkpt>
      <trkpt lat="46.55751" lon="4.8853">
        <ele>253.4</ele>
        <time>2022-06-25T09:10:37Z</time>
      </trkpt>
      <trkpt lat="46.5575" lon="4.88527">
        <ele>253.8</ele>
        <time>2022-06-25T09:10:38Z</time>
      </trkpt>
      <trkpt lat="46.55749" lon="4.88523">
        <ele>253.8</ele>
        <time>2022-06-25T09:10:39Z</time>
      </trkpt>
      <trkpt lat="46.55748" lon="4.8852">
        <ele>254.2</ele>
        <time>2022-06-25T09:10:40Z</time>
      </trkpt>
      <trkpt lat="46.55747" lon="4.88517">
        <ele>254.4</ele>
        <time>2022-06-25T09:10:41Z</time>
      </trkpt>
      <trkpt lat="46.55746" lon="4.88514">
        <ele>254.8</ele>
        <time>2022-06-25T09:10:42Z</time>
      </trkpt>
      <trkpt lat="46.55744" lon="4.88511">
        <ele>255</ele>
        <time>2022-06-25T09:10:43Z</time>
      </trkpt>
      <trkpt lat="46.55743" lon="4.88508">
        <ele>255.2</ele>
        <time>2022-06-25T09:10:44Z</time>
      </trkpt>
      <trkpt lat="46.55742" lon="4.88506">
        <ele>255.4</ele>
        <time>2022-06-25T09:10:45Z</time>
      </trkpt>
      <trkpt lat="46.55741" lon="4.88503">
        <ele>255.8</ele>
        <time>2022-06-25T09:10:46Z</time>
      </trkpt>
      <trkpt lat="46.5574" lon="4.885">
        <ele>256</ele>
        <time>2022-06-25T09:10:47Z</time>
      </trkpt>
      <trkpt lat="46.55739" lon="4.88498">
        <ele>256.2</ele>
        <time>2022-06-25T09:10:48Z</time>
      </trkpt>
      <trkpt lat="46.55738" lon="4.88495">
        <ele>256.2</ele>
        <time>2022-06-25T09:10:49Z</time>
      </trkpt>
      <trkpt lat="46.55737" lon="4.88492">
        <ele>256.6</ele>
        <time>2022-06-25T09:10:50Z</time>
      </trkpt>
      <trkpt lat="46.55736" lon="4.8849">
        <ele>256.6</ele>
        <time>2022-06-25T09:10:51Z</time>
      </trkpt>
      <trkpt lat="46.55735" lon="4.88487">
        <ele>256.8</ele>
        <time>2022-06-25T09:10:52Z</time>
      </trkpt>
      <trkpt lat="46.55734" lon="4.88484">
        <ele>257</ele>
        <time>2022-06-25T09:10:53Z</time>
      </trkpt>
      <trkpt lat="46.55733" lon="4.88481">
        <ele>257</ele>
        <time>2022-06-25T09:10:54Z</time>
      </trkpt>
      <trkpt lat="46.55732" lon="4.88478">
        <ele>257.4</ele>
        <time>2022-06-25T09:10:55Z</time>
      </trkpt>
      <trkpt lat="46.55731" lon="4.88475">
        <ele>257.4</ele>
        <time>2022-06-25T09:10:56Z</time>
      </trkpt>
      <trkpt lat="46.55729" lon="4.88472">
        <ele>257.6</ele>
        <time>2022-06-25T09:10:57Z</time>
      </trkpt>
      <trkpt lat="46.55727" lon="4.88469">
        <ele>257.6</ele>
        <time>2022-06-25T09:10:58Z</time>
      </trkpt>
      <trkpt lat="46.55726" lon="4.88466">
        <ele>258</ele>
        <time>2022-06-25T09:10:59Z</time>
      </trkpt>
      <trkpt lat="46.55724" lon="4.88463">
        <ele>258</ele>
        <time>2022-06-25T09:11:00Z</time>
      </trkpt>
      <trkpt lat="46.55722" lon="4.88461">
        <ele>258.4</ele>
        <time>2022-06-25T09:11:01Z</time>
      </trkpt>
      <trkpt lat="46.55721" lon="4.88458">
        <ele>258.4</ele>
        <time>2022-06-25T09:11:02Z</time>
      </trkpt>
      <trkpt lat="46.5572" lon="4.88456">
        <ele>258.6</ele>
        <time>2022-06-25T09:11:03Z</time>
      </trkpt>
      <trkpt lat="46.55718" lon="4.88453">
        <ele>258.6</ele>
        <time>2022-06-25T09:11:04Z</time>
      </trkpt>
      <trkpt lat="46.55717" lon="4.8845">
        <ele>259</ele>
        <time>2022-06-25T09:11:05Z</time>
      </trkpt>
      <trkpt lat="46.55716" lon="4.88448">
        <ele>259</ele>
        <time>2022-06-25T09:11:06Z</time>
      </trkpt>
      <trkpt lat="46.55715" lon="4.88445">
        <ele>259.2</ele>
        <time>2022-06-25T09:11:07Z</time>
      </trkpt>
      <trkpt lat="46.55713" lon="4.88443">
        <ele>259.4</ele>
        <time>2022-06-25T09:11:08Z</time>
      </trkpt>
      <trkpt lat="46.55712" lon="4.8844">
        <ele>259.8</ele>
        <time>2022-06-25T09:11:09Z</time>
      </trkpt>
      <trkpt lat="46.55711" lon="4.88438">
        <ele>259.8</ele>
        <time>2022-06-25T09:11:10Z</time>
      </trkpt>
      <trkpt lat="46.55709" lon="4.88435">
        <ele>260.2</ele>
        <time>2022-06-25T09:11:11Z</time>
      </trkpt>
      <trkpt lat="46.55708" lon="4.88433">
        <ele>260.4</ele>
        <time>2022-06-25T09:11:12Z</time>
      </trkpt>
      <trkpt lat="46.55707" lon="4.8843">
        <ele>260.6</ele>
        <time>2022-06-25T09:11:13Z</time>
      </trkpt>
      <trkpt lat="46.55705" lon="4.88427">
        <ele>260.8</ele>
        <time>2022-06-25T09:11:14Z</time>
      </trkpt>
      <trkpt lat="46.55704" lon="4.88424">
        <ele>260.8</ele>
        <time>2022-06-25T09:11:15Z</time>
      </trkpt>
      <trkpt lat="46.55703" lon="4.88421">
        <ele>261.2</ele>
        <time>2022-06-25T09:11:16Z</time>
      </trkpt>
      <trkpt lat="46.55701" lon="4.88417">
        <ele>261.2</ele>
        <time>2022-06-25T09:11:17Z</time>
      </trkpt>
      <trkpt lat="46.557" lon="4.88414">
        <ele>261.6</ele>
        <time>2022-06-25T09:11:18Z</time>
      </trkpt>
      <trkpt lat="46.55699" lon="4.8841">
        <ele>261.8</ele>
        <time>2022-06-25T09:11:19Z</time>
      </trkpt>
      <trkpt lat="46.55698" lon="4.88408">
        <ele>261.8</ele>
        <time>2022-06-25T09:11:20Z</time>
      </trkpt>
      <trkpt lat="46.55696" lon="4.88405">
        <ele>262</ele>
        <time>2022-06-25T09:11:21Z</time>
      </trkpt>
      <trkpt lat="46.55694" lon="4.88402">
        <ele>262.2</ele>
        <time>2022-06-25T09:11:22Z</time>
      </trkpt>
      <trkpt lat="46.55692" lon="4.88398">
        <ele>262.6</ele>
        <time>2022-06-25T09:11:23Z</time>
      </trkpt>
      <trkpt lat="46.5569" lon="4.88396">
        <ele>262.6</ele>
        <time>2022-06-25T09:11:24Z</time>
      </trkpt>
      <trkpt lat="46.55688" lon="4.88392">
        <ele>262.8</ele>
        <time>2022-06-25T09:11:25Z</time>
      </trkpt>
      <trkpt lat="46.55687" lon="4.88389">
        <ele>262.8</ele>
        <time>2022-06-25T09:11:26Z</time>
      </trkpt>
      <trkpt lat="46.55685" lon="4.88386">
        <ele>263.2</ele>
        <time>2022-06-25T09:11:27Z</time>
      </trkpt>
      <trkpt lat="46.55683" lon="4.88382">
        <ele>263.2</ele>
        <time>2022-06-25T09:11:28Z</time>
      </trkpt>
      <trkpt lat="46.5568" lon="4.88378">
        <ele>263.4</ele>
        <time>2022-06-25T09:11:29Z</time>
      </trkpt>
      <trkpt lat="46.55678" lon="4.88374">
        <ele>263.4</ele>
        <time>2022-06-25T09:11:30Z</time>
      </trkpt>
      <trkpt lat="46.55676" lon="4.8837">
        <ele>263.4</ele>
        <time>2022-06-25T09:11:31Z</time>
      </trkpt>
      <trkpt lat="46.55673" lon="4.88367">
        <ele>263.8</ele>
        <time>2022-06-25T09:11:32Z</time>
      </trkpt>
      <trkpt lat="46.55671" lon="4.88363">
        <ele>263.8</ele>
        <time>2022-06-25T09:11:33Z</time>
      </trkpt>
      <trkpt lat="46.55669" lon="4.88359">
        <ele>264</ele>
        <time>2022-06-25T09:11:34Z</time>
      </trkpt>
      <trkpt lat="46.55667" lon="4.88355">
        <ele>264.2</ele>
        <time>2022-06-25T09:11:35Z</time>
      </trkpt>
      <trkpt lat="46.55664" lon="4.88351">
        <ele>264.2</ele>
        <time>2022-06-25T09:11:36Z</time>
      </trkpt>
      <trkpt lat="46.55663" lon="4.88347">
        <ele>264.6</ele>
        <time>2022-06-25T09:11:37Z</time>
      </trkpt>
      <trkpt lat="46.55661" lon="4.88343">
        <ele>264.8</ele>
        <time>2022-06-25T09:11:38Z</time>
      </trkpt>
      <trkpt lat="46.55659" lon="4.88338">
        <ele>264.8</ele>
        <time>2022-06-25T09:11:39Z</time>
      </trkpt>
      <trkpt lat="46.55657" lon="4.88334">
        <ele>265</ele>
        <time>2022-06-25T09:11:40Z</time>
      </trkpt>
      <trkpt lat="46.55655" lon="4.8833">
        <ele>265</ele>
        <time>2022-06-25T09:11:41Z</time>
      </trkpt>
      <trkpt lat="46.55653" lon="4.88325">
        <ele>265.4</ele>
        <time>2022-06-25T09:11:42Z</time>
      </trkpt>
      <trkpt lat="46.55651" lon="4.88321">
        <ele>265.6</ele>
        <time>2022-06-25T09:11:43Z</time>
      </trkpt>
      <trkpt lat="46.55649" lon="4.88317">
        <ele>265.6</ele>
        <time>2022-06-25T09:11:44Z</time>
      </trkpt>
      <trkpt lat="46.55647" lon="4.88313">
        <ele>266</ele>
        <time>2022-06-25T09:11:45Z</time>
      </trkpt>
      <trkpt lat="46.55645" lon="4.8831">
        <ele>266</ele>
        <time>2022-06-25T09:11:46Z</time>
      </trkpt>
      <trkpt lat="46.55643" lon="4.88306">
        <ele>266.2</ele>
        <time>2022-06-25T09:11:47Z</time>
      </trkpt>
      <trkpt lat="46.55641" lon="4.88302">
        <ele>266.2</ele>
        <time>2022-06-25T09:11:48Z</time>
      </trkpt>
      <trkpt lat="46.55639" lon="4.88298">
        <ele>266.4</ele>
        <time>2022-06-25T09:11:49Z</time>
      </trkpt>
      <trkpt lat="46.55637" lon="4.88295">
        <ele>266.8</ele>
        <time>2022-06-25T09:11:50Z</time>
      </trkpt>
      <trkpt lat="46.55635" lon="4.88291">
        <ele>266.8</ele>
        <time>2022-06-25T09:11:51Z</time>
      </trkpt>
      <trkpt lat="46.55633" lon="4.88288">
        <ele>267</ele>
        <time>2022-06-25T09:11:52Z</time>
      </trkpt>
      <trkpt lat="46.55631" lon="4.88286">
        <ele>267</ele>
        <time>2022-06-25T09:11:53Z</time>
      </trkpt>
      <trkpt lat="46.55629" lon="4.88283">
        <ele>267.2</ele>
        <time>2022-06-25T09:11:54Z</time>
      </trkpt>
      <trkpt lat="46.55627" lon="4.8828">
        <ele>267.2</ele>
        <time>2022-06-25T09:11:55Z</time>
      </trkpt>
      <trkpt lat="46.55625" lon="4.88277">
        <ele>267.2</ele>
        <time>2022-06-25T09:11:56Z</time>
      </trkpt>
      <trkpt lat="46.55623" lon="4.88274">
        <ele>267.6</ele>
        <time>2022-06-25T09:11:57Z</time>
      </trkpt>
      <trkpt lat="46.55621" lon="4.88271">
        <ele>267.6</ele>
        <time>2022-06-25T09:11:58Z</time>
      </trkpt>
      <trkpt lat="46.55619" lon="4.88267">
        <ele>267.8</ele>
        <time>2022-06-25T09:11:59Z</time>
      </trkpt>
      <trkpt lat="46.55617" lon="4.88264">
        <ele>267.8</ele>
        <time>2022-06-25T09:12:00Z</time>
      </trkpt>
      <trkpt lat="46.55614" lon="4.88261">
        <ele>268</ele>
        <time>2022-06-25T09:12:01Z</time>
      </trkpt>
      <trkpt lat="46.55613" lon="4.88258">
        <ele>268</ele>
        <time>2022-06-25T09:12:02Z</time>
      </trkpt>
      <trkpt lat="46.55611" lon="4.88255">
        <ele>268.4</ele>
        <time>2022-06-25T09:12:03Z</time>
      </trkpt>
      <trkpt lat="46.55609" lon="4.88252">
        <ele>268.4</ele>
        <time>2022-06-25T09:12:04Z</time>
      </trkpt>
      <trkpt lat="46.55607" lon="4.8825">
        <ele>268.6</ele>
        <time>2022-06-25T09:12:05Z</time>
      </trkpt>
      <trkpt lat="46.55605" lon="4.88247">
        <ele>268.6</ele>
        <time>2022-06-25T09:12:06Z</time>
      </trkpt>
      <trkpt lat="46.55603" lon="4.88243">
        <ele>268.8</ele>
        <time>2022-06-25T09:12:07Z</time>
      </trkpt>
      <trkpt lat="46.55601" lon="4.88241">
        <ele>269</ele>
        <time>2022-06-25T09:12:08Z</time>
      </trkpt>
      <trkpt lat="46.556" lon="4.88238">
        <ele>269</ele>
        <time>2022-06-25T09:12:09Z</time>
      </trkpt>
      <trkpt lat="46.556" lon="4.88237">
        <ele>269.4</ele>
        <time>2022-06-25T09:12:10Z</time>
      </trkpt>
      <trkpt lat="46.55599" lon="4.88236">
        <ele>269.4</ele>
        <time>2022-06-25T09:12:11Z</time>
      </trkpt>
      <trkpt lat="46.55599" lon="4.88235">
        <ele>269.4</ele>
        <time>2022-06-25T09:12:12Z</time>
      </trkpt>
      <trkpt lat="46.55597" lon="4.88232">
        <ele>270</ele>
        <time>2022-06-25T09:12:50Z</time>
      </trkpt>
      <trkpt lat="46.55595" lon="4.8823">
        <ele>270</ele>
        <time>2022-06-25T09:12:51Z</time>
      </trkpt>
      <trkpt lat="46.55594" lon="4.88229">
        <ele>270</ele>
        <time>2022-06-25T09:12:52Z</time>
      </trkpt>
      <trkpt lat="46.55592" lon="4.88227">
        <ele>270</ele>
        <time>2022-06-25T09:12:53Z</time>
      </trkpt>
      <trkpt lat="46.55591" lon="4.88225">
        <ele>270</ele>
        <time>2022-06-25T09:12:54Z</time>
      </trkpt>
      <trkpt lat="46.5559" lon="4.88222">
        <ele>270</ele>
        <time>2022-06-25T09:12:55Z</time>
      </trkpt>
      <trkpt lat="46.55588" lon="4.88219">
        <ele>270.2</ele>
        <time>2022-06-25T09:12:56Z</time>
      </trkpt>
      <trkpt lat="46.55587" lon="4.88217">
        <ele>270.2</ele>
        <time>2022-06-25T09:12:57Z</time>
      </trkpt>
      <trkpt lat="46.55585" lon="4.88214">
        <ele>270.4</ele>
        <time>2022-06-25T09:12:58Z</time>
      </trkpt>
      <trkpt lat="46.55583" lon="4.88211">
        <ele>270.4</ele>
        <time>2022-06-25T09:12:59Z</time>
      </trkpt>
      <trkpt lat="46.55581" lon="4.88209">
        <ele>270.6</ele>
        <time>2022-06-25T09:13:00Z</time>
      </trkpt>
      <trkpt lat="46.55579" lon="4.88206">
        <ele>270.6</ele>
        <time>2022-06-25T09:13:01Z</time>
      </trkpt>
      <trkpt lat="46.55577" lon="4.88204">
        <ele>270.8</ele>
        <time>2022-06-25T09:13:02Z</time>
      </trkpt>
      <trkpt lat="46.55575" lon="4.88202">
        <ele>270.8</ele>
        <time>2022-06-25T09:13:03Z</time>
      </trkpt>
      <trkpt lat="46.55574" lon="4.88199">
        <ele>270.8</ele>
        <time>2022-06-25T09:13:04Z</time>
      </trkpt>
      <trkpt lat="46.55572" lon="4.88197">
        <ele>271.2</ele>
        <time>2022-06-25T09:13:05Z</time>
      </trkpt>
      <trkpt lat="46.5557" lon="4.88194">
        <ele>271.2</ele>
        <time>2022-06-25T09:13:06Z</time>
      </trkpt>
      <trkpt lat="46.55569" lon="4.88191">
        <ele>271.4</ele>
        <time>2022-06-25T09:13:07Z</time>
      </trkpt>
      <trkpt lat="46.55567" lon="4.88189">
        <ele>271.4</ele>
        <time>2022-06-25T09:13:08Z</time>
      </trkpt>
      <trkpt lat="46.55565" lon="4.88187">
        <ele>271.8</ele>
        <time>2022-06-25T09:13:09Z</time>
      </trkpt>
      <trkpt lat="46.55562" lon="4.88184">
        <ele>271.8</ele>
        <time>2022-06-25T09:13:10Z</time>
      </trkpt>
      <trkpt lat="46.5556" lon="4.88181">
        <ele>272</ele>
        <time>2022-06-25T09:13:11Z</time>
      </trkpt>
      <trkpt lat="46.55558" lon="4.88178">
        <ele>272</ele>
        <time>2022-06-25T09:13:12Z</time>
      </trkpt>
      <trkpt lat="46.55556" lon="4.88175">
        <ele>272.2</ele>
        <time>2022-06-25T09:13:13Z</time>
      </trkpt>
      <trkpt lat="46.55554" lon="4.88172">
        <ele>272.2</ele>
        <time>2022-06-25T09:13:14Z</time>
      </trkpt>
      <trkpt lat="46.55552" lon="4.88169">
        <ele>272.4</ele>
        <time>2022-06-25T09:13:15Z</time>
      </trkpt>
      <trkpt lat="46.55549" lon="4.88166">
        <ele>272.4</ele>
        <time>2022-06-25T09:13:16Z</time>
      </trkpt>
      <trkpt lat="46.55547" lon="4.88163">
        <ele>272.4</ele>
        <time>2022-06-25T09:13:17Z</time>
      </trkpt>
      <trkpt lat="46.55544" lon="4.8816">
        <ele>272.6</ele>
        <time>2022-06-25T09:13:18Z</time>
      </trkpt>
      <trkpt lat="46.55542" lon="4.88157">
        <ele>272.6</ele>
        <time>2022-06-25T09:13:19Z</time>
      </trkpt>
      <trkpt lat="46.5554" lon="4.88153">
        <ele>272.6</ele>
        <time>2022-06-25T09:13:20Z</time>
      </trkpt>
      <trkpt lat="46.55538" lon="4.8815">
        <ele>272.6</ele>
        <time>2022-06-25T09:13:21Z</time>
      </trkpt>
      <trkpt lat="46.55537" lon="4.88148">
        <ele>272.6</ele>
        <time>2022-06-25T09:13:22Z</time>
      </trkpt>
      <trkpt lat="46.55536" lon="4.88146">
        <ele>272.6</ele>
        <time>2022-06-25T09:13:23Z</time>
      </trkpt>
      <trkpt lat="46.55534" lon="4.88142">
        <ele>272.6</ele>
        <time>2022-06-25T09:13:24Z</time>
      </trkpt>
      <trkpt lat="46.55532" lon="4.88138">
        <ele>272.6</ele>
        <time>2022-06-25T09:13:25Z</time>
      </trkpt>
      <trkpt lat="46.5553" lon="4.88134">
        <ele>272.6</ele>
        <time>2022-06-25T09:13:26Z</time>
      </trkpt>
      <trkpt lat="46.55528" lon="4.88129">
        <ele>272.4</ele>
        <time>2022-06-25T09:13:27Z</time>
      </trkpt>
      <trkpt lat="46.55526" lon="4.88124">
        <ele>272.4</ele>
        <time>2022-06-25T09:13:28Z</time>
      </trkpt>
      <trkpt lat="46.55524" lon="4.88119">
        <ele>271.8</ele>
        <time>2022-06-25T09:13:29Z</time>
      </trkpt>
      <trkpt lat="46.55521" lon="4.88113">
        <ele>271.8</ele>
        <time>2022-06-25T09:13:30Z</time>
      </trkpt>
      <trkpt lat="46.55517" lon="4.88106">
        <ele>271.6</ele>
        <time>2022-06-25T09:13:31Z</time>
      </trkpt>
      <trkpt lat="46.55514" lon="4.88099">
        <ele>271.4</ele>
        <time>2022-06-25T09:13:32Z</time>
      </trkpt>
      <trkpt lat="46.55511" lon="4.88091">
        <ele>271</ele>
        <time>2022-06-25T09:13:33Z</time>
      </trkpt>
      <trkpt lat="46.55508" lon="4.88083">
        <ele>270.6</ele>
        <time>2022-06-25T09:13:34Z</time>
      </trkpt>
      <trkpt lat="46.55505" lon="4.88074">
        <ele>270.4</ele>
        <time>2022-06-25T09:13:35Z</time>
      </trkpt>
      <trkpt lat="46.555" lon="4.88066">
        <ele>270.2</ele>
        <time>2022-06-25T09:13:36Z</time>
      </trkpt>
      <trkpt lat="46.55496" lon="4.88057">
        <ele>269.8</ele>
        <time>2022-06-25T09:13:37Z</time>
      </trkpt>
      <trkpt lat="46.5549" lon="4.88048">
        <ele>269.4</ele>
        <time>2022-06-25T09:13:38Z</time>
      </trkpt>
      <trkpt lat="46.55484" lon="4.8804">
        <ele>269</ele>
        <time>2022-06-25T09:13:39Z</time>
      </trkpt>
      <trkpt lat="46.55477" lon="4.88032">
        <ele>268.8</ele>
        <time>2022-06-25T09:13:40Z</time>
      </trkpt>
      <trkpt lat="46.5547" lon="4.88025">
        <ele>268.4</ele>
        <time>2022-06-25T09:13:41Z</time>
      </trkpt>
      <trkpt lat="46.55462" lon="4.88019">
        <ele>268</ele>
        <time>2022-06-25T09:13:42Z</time>
      </trkpt>
      <trkpt lat="46.55454" lon="4.88014">
        <ele>267.4</ele>
        <time>2022-06-25T09:13:43Z</time>
      </trkpt>
      <trkpt lat="46.55445" lon="4.88009">
        <ele>266.8</ele>
        <time>2022-06-25T09:13:44Z</time>
      </trkpt>
      <trkpt lat="46.55434" lon="4.88003">
        <ele>266.6</ele>
        <time>2022-06-25T09:13:45Z</time>
      </trkpt>
      <trkpt lat="46.55424" lon="4.87998">
        <ele>266</ele>
        <time>2022-06-25T09:13:46Z</time>
      </trkpt>
      <trkpt lat="46.55414" lon="4.87993">
        <ele>265.6</ele>
        <time>2022-06-25T09:13:47Z</time>
      </trkpt>
      <trkpt lat="46.55405" lon="4.87988">
        <ele>265.2</ele>
        <time>2022-06-25T09:13:48Z</time>
      </trkpt>
      <trkpt lat="46.55395" lon="4.87983">
        <ele>265</ele>
        <time>2022-06-25T09:13:49Z</time>
      </trkpt>
      <trkpt lat="46.55387" lon="4.87975">
        <ele>264.6</ele>
        <time>2022-06-25T09:13:50Z</time>
      </trkpt>
      <trkpt lat="46.55379" lon="4.87968">
        <ele>264.4</ele>
        <time>2022-06-25T09:13:51Z</time>
      </trkpt>
      <trkpt lat="46.55372" lon="4.87959">
        <ele>264.2</ele>
        <time>2022-06-25T09:13:52Z</time>
      </trkpt>
      <trkpt lat="46.55366" lon="4.8795">
        <ele>264.2</ele>
        <time>2022-06-25T09:13:53Z</time>
      </trkpt>
      <trkpt lat="46.55359" lon="4.87942">
        <ele>264.2</ele>
        <time>2022-06-25T09:13:54Z</time>
      </trkpt>
      <trkpt lat="46.55352" lon="4.87933">
        <ele>264.2</ele>
        <time>2022-06-25T09:13:55Z</time>
      </trkpt>
      <trkpt lat="46.55346" lon="4.87924">
        <ele>263.8</ele>
        <time>2022-06-25T09:13:56Z</time>
      </trkpt>
      <trkpt lat="46.55341" lon="4.87916">
        <ele>263.8</ele>
        <time>2022-06-25T09:13:57Z</time>
      </trkpt>
      <trkpt lat="46.55336" lon="4.87907">
        <ele>263.8</ele>
        <time>2022-06-25T09:13:58Z</time>
      </trkpt>
      <trkpt lat="46.55332" lon="4.87899">
        <ele>263.8</ele>
        <time>2022-06-25T09:13:59Z</time>
      </trkpt>
      <trkpt lat="46.55327" lon="4.87892">
        <ele>263.8</ele>
        <time>2022-06-25T09:14:00Z</time>
      </trkpt>
      <trkpt lat="46.55322" lon="4.87885">
        <ele>263.8</ele>
        <time>2022-06-25T09:14:01Z</time>
      </trkpt>
      <trkpt lat="46.55317" lon="4.8788">
        <ele>263.8</ele>
        <time>2022-06-25T09:14:02Z</time>
      </trkpt>
      <trkpt lat="46.55312" lon="4.87875">
        <ele>263.8</ele>
        <time>2022-06-25T09:14:03Z</time>
      </trkpt>
      <trkpt lat="46.55307" lon="4.87871">
        <ele>263.8</ele>
        <time>2022-06-25T09:14:04Z</time>
      </trkpt>
      <trkpt lat="46.55302" lon="4.87868">
        <ele>263.8</ele>
        <time>2022-06-25T09:14:05Z</time>
      </trkpt>
      <trkpt lat="46.55297" lon="4.87865">
        <ele>264.2</ele>
        <time>2022-06-25T09:14:06Z</time>
      </trkpt>
      <trkpt lat="46.55293" lon="4.87862">
        <ele>264.2</ele>
        <time>2022-06-25T09:14:07Z</time>
      </trkpt>
      <trkpt lat="46.55288" lon="4.87861">
        <ele>264.2</ele>
        <time>2022-06-25T09:14:08Z</time>
      </trkpt>
      <trkpt lat="46.55284" lon="4.87859">
        <ele>264.4</ele>
        <time>2022-06-25T09:14:09Z</time>
      </trkpt>
      <trkpt lat="46.5528" lon="4.87857">
        <ele>264.6</ele>
        <time>2022-06-25T09:14:10Z</time>
      </trkpt>
      <trkpt lat="46.55276" lon="4.87855">
        <ele>264.8</ele>
        <time>2022-06-25T09:14:11Z</time>
      </trkpt>
      <trkpt lat="46.55273" lon="4.87853">
        <ele>265</ele>
        <time>2022-06-25T09:14:12Z</time>
      </trkpt>
      <trkpt lat="46.5527" lon="4.87851">
        <ele>265.4</ele>
        <time>2022-06-25T09:14:13Z</time>
      </trkpt>
      <trkpt lat="46.55267" lon="4.87849">
        <ele>265.6</ele>
        <time>2022-06-25T09:14:14Z</time>
      </trkpt>
      <trkpt lat="46.55264" lon="4.87847">
        <ele>266</ele>
        <time>2022-06-25T09:14:15Z</time>
      </trkpt>
      <trkpt lat="46.55262" lon="4.87844">
        <ele>266.2</ele>
        <time>2022-06-25T09:14:16Z</time>
      </trkpt>
      <trkpt lat="46.55259" lon="4.87841">
        <ele>266.4</ele>
        <time>2022-06-25T09:14:17Z</time>
      </trkpt>
      <trkpt lat="46.55256" lon="4.87839">
        <ele>266.4</ele>
        <time>2022-06-25T09:14:18Z</time>
      </trkpt>
      <trkpt lat="46.55254" lon="4.87836">
        <ele>266.8</ele>
        <time>2022-06-25T09:14:19Z</time>
      </trkpt>
      <trkpt lat="46.55251" lon="4.87834">
        <ele>267.2</ele>
        <time>2022-06-25T09:14:20Z</time>
      </trkpt>
      <trkpt lat="46.55249" lon="4.87831">
        <ele>267.4</ele>
        <time>2022-06-25T09:14:21Z</time>
      </trkpt>
      <trkpt lat="46.55246" lon="4.87829">
        <ele>267.8</ele>
        <time>2022-06-25T09:14:22Z</time>
      </trkpt>
      <trkpt lat="46.55244" lon="4.87827">
        <ele>268</ele>
        <time>2022-06-25T09:14:23Z</time>
      </trkpt>
      <trkpt lat="46.55241" lon="4.87825">
        <ele>268.4</ele>
        <time>2022-06-25T09:14:24Z</time>
      </trkpt>
      <trkpt lat="46.55239" lon="4.87823">
        <ele>268.8</ele>
        <time>2022-06-25T09:14:25Z</time>
      </trkpt>
      <trkpt lat="46.55237" lon="4.8782">
        <ele>269</ele>
        <time>2022-06-25T09:14:26Z</time>
      </trkpt>
      <trkpt lat="46.55234" lon="4.87818">
        <ele>269.4</ele>
        <time>2022-06-25T09:14:27Z</time>
      </trkpt>
      <trkpt lat="46.55232" lon="4.87815">
        <ele>269.8</ele>
        <time>2022-06-25T09:14:28Z</time>
      </trkpt>
      <trkpt lat="46.5523" lon="4.87813">
        <ele>270</ele>
        <time>2022-06-25T09:14:29Z</time>
      </trkpt>
      <trkpt lat="46.55227" lon="4.8781">
        <ele>270.4</ele>
        <time>2022-06-25T09:14:30Z</time>
      </trkpt>
      <trkpt lat="46.55226" lon="4.87807">
        <ele>270.6</ele>
        <time>2022-06-25T09:14:31Z</time>
      </trkpt>
      <trkpt lat="46.55224" lon="4.87803">
        <ele>270.8</ele>
        <time>2022-06-25T09:14:32Z</time>
      </trkpt>
      <trkpt lat="46.55222" lon="4.878">
        <ele>271.2</ele>
        <time>2022-06-25T09:14:33Z</time>
      </trkpt>
      <trkpt lat="46.5522" lon="4.87796">
        <ele>271.4</ele>
        <time>2022-06-25T09:14:34Z</time>
      </trkpt>
      <trkpt lat="46.55218" lon="4.87792">
        <ele>271.4</ele>
        <time>2022-06-25T09:14:35Z</time>
      </trkpt>
      <trkpt lat="46.55215" lon="4.87789">
        <ele>271.8</ele>
        <time>2022-06-25T09:14:36Z</time>
      </trkpt>
      <trkpt lat="46.55213" lon="4.87786">
        <ele>272</ele>
        <time>2022-06-25T09:14:37Z</time>
      </trkpt>
      <trkpt lat="46.55211" lon="4.87782">
        <ele>272.2</ele>
        <time>2022-06-25T09:14:38Z</time>
      </trkpt>
      <trkpt lat="46.55209" lon="4.87779">
        <ele>272.2</ele>
        <time>2022-06-25T09:14:39Z</time>
      </trkpt>
      <trkpt lat="46.55207" lon="4.87775">
        <ele>272.6</ele>
        <time>2022-06-25T09:14:40Z</time>
      </trkpt>
      <trkpt lat="46.55205" lon="4.87772">
        <ele>273</ele>
        <time>2022-06-25T09:14:41Z</time>
      </trkpt>
      <trkpt lat="46.55203" lon="4.87768">
        <ele>273</ele>
        <time>2022-06-25T09:14:42Z</time>
      </trkpt>
      <trkpt lat="46.552" lon="4.87765">
        <ele>273.4</ele>
        <time>2022-06-25T09:14:43Z</time>
      </trkpt>
      <trkpt lat="46.55199" lon="4.87762">
        <ele>273.4</ele>
        <time>2022-06-25T09:14:44Z</time>
      </trkpt>
      <trkpt lat="46.55197" lon="4.87759">
        <ele>273.6</ele>
        <time>2022-06-25T09:14:45Z</time>
      </trkpt>
      <trkpt lat="46.55195" lon="4.87756">
        <ele>273.6</ele>
        <time>2022-06-25T09:14:46Z</time>
      </trkpt>
      <trkpt lat="46.55194" lon="4.87754">
        <ele>274</ele>
        <time>2022-06-25T09:14:47Z</time>
      </trkpt>
      <trkpt lat="46.55192" lon="4.87751">
        <ele>274.2</ele>
        <time>2022-06-25T09:14:48Z</time>
      </trkpt>
      <trkpt lat="46.5519" lon="4.87749">
        <ele>274.4</ele>
        <time>2022-06-25T09:14:49Z</time>
      </trkpt>
      <trkpt lat="46.55189" lon="4.87746">
        <ele>274.4</ele>
        <time>2022-06-25T09:14:50Z</time>
      </trkpt>
      <trkpt lat="46.55187" lon="4.87744">
        <ele>274.8</ele>
        <time>2022-06-25T09:14:51Z</time>
      </trkpt>
      <trkpt lat="46.55185" lon="4.87741">
        <ele>275.2</ele>
        <time>2022-06-25T09:14:52Z</time>
      </trkpt>
      <trkpt lat="46.55184" lon="4.87738">
        <ele>275.2</ele>
        <time>2022-06-25T09:14:53Z</time>
      </trkpt>
      <trkpt lat="46.55182" lon="4.87735">
        <ele>275.6</ele>
        <time>2022-06-25T09:14:54Z</time>
      </trkpt>
      <trkpt lat="46.55179" lon="4.87732">
        <ele>275.8</ele>
        <time>2022-06-25T09:14:55Z</time>
      </trkpt>
      <trkpt lat="46.55177" lon="4.87729">
        <ele>276</ele>
        <time>2022-06-25T09:14:56Z</time>
      </trkpt>
      <trkpt lat="46.55175" lon="4.87727">
        <ele>276.4</ele>
        <time>2022-06-25T09:14:57Z</time>
      </trkpt>
      <trkpt lat="46.55173" lon="4.87724">
        <ele>276.6</ele>
        <time>2022-06-25T09:14:58Z</time>
      </trkpt>
      <trkpt lat="46.55171" lon="4.87721">
        <ele>276.8</ele>
        <time>2022-06-25T09:14:59Z</time>
      </trkpt>
      <trkpt lat="46.55169" lon="4.87718">
        <ele>277</ele>
        <time>2022-06-25T09:15:00Z</time>
      </trkpt>
      <trkpt lat="46.55168" lon="4.87715">
        <ele>277.2</ele>
        <time>2022-06-25T09:15:01Z</time>
      </trkpt>
      <trkpt lat="46.55166" lon="4.87712">
        <ele>277.6</ele>
        <time>2022-06-25T09:15:02Z</time>
      </trkpt>
      <trkpt lat="46.55164" lon="4.87709">
        <ele>277.8</ele>
        <time>2022-06-25T09:15:03Z</time>
      </trkpt>
      <trkpt lat="46.55162" lon="4.87707">
        <ele>278</ele>
        <time>2022-06-25T09:15:04Z</time>
      </trkpt>
      <trkpt lat="46.55159" lon="4.87705">
        <ele>278.4</ele>
        <time>2022-06-25T09:15:05Z</time>
      </trkpt>
      <trkpt lat="46.55157" lon="4.87702">
        <ele>278.6</ele>
        <time>2022-06-25T09:15:06Z</time>
      </trkpt>
      <trkpt lat="46.55155" lon="4.877">
        <ele>278.6</ele>
        <time>2022-06-25T09:15:07Z</time>
      </trkpt>
      <trkpt lat="46.55153" lon="4.87697">
        <ele>279</ele>
        <time>2022-06-25T09:15:08Z</time>
      </trkpt>
      <trkpt lat="46.55151" lon="4.87694">
        <ele>279</ele>
        <time>2022-06-25T09:15:09Z</time>
      </trkpt>
      <trkpt lat="46.55149" lon="4.87691">
        <ele>279.4</ele>
        <time>2022-06-25T09:15:10Z</time>
      </trkpt>
      <trkpt lat="46.55147" lon="4.87688">
        <ele>279.4</ele>
        <time>2022-06-25T09:15:11Z</time>
      </trkpt>
      <trkpt lat="46.55145" lon="4.87685">
        <ele>279.8</ele>
        <time>2022-06-25T09:15:12Z</time>
      </trkpt>
      <trkpt lat="46.55143" lon="4.87683">
        <ele>279.8</ele>
        <time>2022-06-25T09:15:13Z</time>
      </trkpt>
      <trkpt lat="46.55141" lon="4.8768">
        <ele>280.2</ele>
        <time>2022-06-25T09:15:14Z</time>
      </trkpt>
      <trkpt lat="46.55139" lon="4.87678">
        <ele>280.4</ele>
        <time>2022-06-25T09:15:15Z</time>
      </trkpt>
      <trkpt lat="46.55137" lon="4.87675">
        <ele>280.6</ele>
        <time>2022-06-25T09:15:16Z</time>
      </trkpt>
      <trkpt lat="46.55134" lon="4.87672">
        <ele>281</ele>
        <time>2022-06-25T09:15:17Z</time>
      </trkpt>
      <trkpt lat="46.55132" lon="4.87669">
        <ele>281.2</ele>
        <time>2022-06-25T09:15:18Z</time>
      </trkpt>
      <trkpt lat="46.5513" lon="4.87666">
        <ele>281.2</ele>
        <time>2022-06-25T09:15:19Z</time>
      </trkpt>
      <trkpt lat="46.55127" lon="4.87663">
        <ele>281.4</ele>
        <time>2022-06-25T09:15:20Z</time>
      </trkpt>
      <trkpt lat="46.55122" lon="4.87657">
        <ele>281.6</ele>
        <time>2022-06-25T09:15:21Z</time>
      </trkpt>
      <trkpt lat="46.5512" lon="4.87653">
        <ele>281.6</ele>
        <time>2022-06-25T09:15:22Z</time>
      </trkpt>
      <trkpt lat="46.55118" lon="4.8765">
        <ele>282</ele>
        <time>2022-06-25T09:15:23Z</time>
      </trkpt>
      <trkpt lat="46.55115" lon="4.87647">
        <ele>282</ele>
        <time>2022-06-25T09:15:24Z</time>
      </trkpt>
      <trkpt lat="46.55113" lon="4.87644">
        <ele>282.4</ele>
        <time>2022-06-25T09:15:25Z</time>
      </trkpt>
      <trkpt lat="46.55111" lon="4.87641">
        <ele>282.4</ele>
        <time>2022-06-25T09:15:26Z</time>
      </trkpt>
      <trkpt lat="46.55108" lon="4.87637">
        <ele>282.6</ele>
        <time>2022-06-25T09:15:27Z</time>
      </trkpt>
      <trkpt lat="46.55106" lon="4.87634">
        <ele>282.6</ele>
        <time>2022-06-25T09:15:28Z</time>
      </trkpt>
      <trkpt lat="46.55104" lon="4.87631">
        <ele>283</ele>
        <time>2022-06-25T09:15:29Z</time>
      </trkpt>
      <trkpt lat="46.55102" lon="4.87627">
        <ele>283</ele>
        <time>2022-06-25T09:15:30Z</time>
      </trkpt>
      <trkpt lat="46.551" lon="4.87624">
        <ele>283.2</ele>
        <time>2022-06-25T09:15:31Z</time>
      </trkpt>
      <trkpt lat="46.55097" lon="4.87621">
        <ele>283.2</ele>
        <time>2022-06-25T09:15:32Z</time>
      </trkpt>
      <trkpt lat="46.55095" lon="4.87617">
        <ele>283.6</ele>
        <time>2022-06-25T09:15:33Z</time>
      </trkpt>
      <trkpt lat="46.55093" lon="4.87614">
        <ele>283.8</ele>
        <time>2022-06-25T09:15:34Z</time>
      </trkpt>
      <trkpt lat="46.55091" lon="4.87611">
        <ele>283.8</ele>
        <time>2022-06-25T09:15:35Z</time>
      </trkpt>
      <trkpt lat="46.5509" lon="4.87607">
        <ele>284.2</ele>
        <time>2022-06-25T09:15:36Z</time>
      </trkpt>
      <trkpt lat="46.55088" lon="4.87604">
        <ele>284.2</ele>
        <time>2022-06-25T09:15:37Z</time>
      </trkpt>
      <trkpt lat="46.55086" lon="4.87601">
        <ele>284.6</ele>
        <time>2022-06-25T09:15:38Z</time>
      </trkpt>
      <trkpt lat="46.55084" lon="4.87598">
        <ele>284.6</ele>
        <time>2022-06-25T09:15:39Z</time>
      </trkpt>
      <trkpt lat="46.55083" lon="4.87595">
        <ele>285</ele>
        <time>2022-06-25T09:15:40Z</time>
      </trkpt>
      <trkpt lat="46.55081" lon="4.87592">
        <ele>285</ele>
        <time>2022-06-25T09:15:41Z</time>
      </trkpt>
      <trkpt lat="46.55079" lon="4.87589">
        <ele>285.2</ele>
        <time>2022-06-25T09:15:42Z</time>
      </trkpt>
      <trkpt lat="46.55078" lon="4.87586">
        <ele>285.4</ele>
        <time>2022-06-25T09:15:43Z</time>
      </trkpt>
      <trkpt lat="46.55076" lon="4.87583">
        <ele>285.8</ele>
        <time>2022-06-25T09:15:44Z</time>
      </trkpt>
      <trkpt lat="46.55075" lon="4.8758">
        <ele>286</ele>
        <time>2022-06-25T09:15:45Z</time>
      </trkpt>
      <trkpt lat="46.55073" lon="4.87577">
        <ele>286</ele>
        <time>2022-06-25T09:15:46Z</time>
      </trkpt>
      <trkpt lat="46.55071" lon="4.87574">
        <ele>286.4</ele>
        <time>2022-06-25T09:15:47Z</time>
      </trkpt>
      <trkpt lat="46.5507" lon="4.87571">
        <ele>286.4</ele>
        <time>2022-06-25T09:15:48Z</time>
      </trkpt>
      <trkpt lat="46.55068" lon="4.87568">
        <ele>286.6</ele>
        <time>2022-06-25T09:15:49Z</time>
      </trkpt>
      <trkpt lat="46.55067" lon="4.87565">
        <ele>286.6</ele>
        <time>2022-06-25T09:15:50Z</time>
      </trkpt>
      <trkpt lat="46.55066" lon="4.87563">
        <ele>287</ele>
        <time>2022-06-25T09:15:51Z</time>
      </trkpt>
      <trkpt lat="46.55064" lon="4.8756">
        <ele>287</ele>
        <time>2022-06-25T09:15:52Z</time>
      </trkpt>
      <trkpt lat="46.55063" lon="4.87558">
        <ele>287.4</ele>
        <time>2022-06-25T09:15:53Z</time>
      </trkpt>
      <trkpt lat="46.55062" lon="4.87555">
        <ele>287.4</ele>
        <time>2022-06-25T09:15:54Z</time>
      </trkpt>
      <trkpt lat="46.5506" lon="4.87552">
        <ele>287.8</ele>
        <time>2022-06-25T09:15:55Z</time>
      </trkpt>
      <trkpt lat="46.55059" lon="4.87549">
        <ele>287.8</ele>
        <time>2022-06-25T09:15:56Z</time>
      </trkpt>
      <trkpt lat="46.55058" lon="4.87547">
        <ele>288.2</ele>
        <time>2022-06-25T09:15:57Z</time>
      </trkpt>
      <trkpt lat="46.55057" lon="4.87544">
        <ele>288.4</ele>
        <time>2022-06-25T09:15:58Z</time>
      </trkpt>
      <trkpt lat="46.55055" lon="4.87541">
        <ele>288.6</ele>
        <time>2022-06-25T09:15:59Z</time>
      </trkpt>
      <trkpt lat="46.55054" lon="4.87538">
        <ele>288.8</ele>
        <time>2022-06-25T09:16:00Z</time>
      </trkpt>
      <trkpt lat="46.55053" lon="4.87535">
        <ele>289.2</ele>
        <time>2022-06-25T09:16:01Z</time>
      </trkpt>
      <trkpt lat="46.55051" lon="4.87532">
        <ele>289.4</ele>
        <time>2022-06-25T09:16:02Z</time>
      </trkpt>
      <trkpt lat="46.5505" lon="4.8753">
        <ele>289.8</ele>
        <time>2022-06-25T09:16:03Z</time>
      </trkpt>
      <trkpt lat="46.55049" lon="4.87527">
        <ele>290.2</ele>
        <time>2022-06-25T09:16:04Z</time>
      </trkpt>
      <trkpt lat="46.55047" lon="4.87524">
        <ele>290.4</ele>
        <time>2022-06-25T09:16:05Z</time>
      </trkpt>
      <trkpt lat="46.55046" lon="4.87521">
        <ele>290.8</ele>
        <time>2022-06-25T09:16:06Z</time>
      </trkpt>
      <trkpt lat="46.55045" lon="4.87518">
        <ele>291</ele>
        <time>2022-06-25T09:16:07Z</time>
      </trkpt>
      <trkpt lat="46.55044" lon="4.87515">
        <ele>291.4</ele>
        <time>2022-06-25T09:16:08Z</time>
      </trkpt>
      <trkpt lat="46.55043" lon="4.87512">
        <ele>291.6</ele>
        <time>2022-06-25T09:16:09Z</time>
      </trkpt>
      <trkpt lat="46.55042" lon="4.8751">
        <ele>292</ele>
        <time>2022-06-25T09:16:10Z</time>
      </trkpt>
      <trkpt lat="46.55041" lon="4.87508">
        <ele>292.4</ele>
        <time>2022-06-25T09:16:11Z</time>
      </trkpt>
      <trkpt lat="46.55041" lon="4.87506">
        <ele>292.6</ele>
        <time>2022-06-25T09:16:12Z</time>
      </trkpt>
      <trkpt lat="46.5504" lon="4.87503">
        <ele>293</ele>
        <time>2022-06-25T09:16:13Z</time>
      </trkpt>
      <trkpt lat="46.55039" lon="4.87501">
        <ele>293.2</ele>
        <time>2022-06-25T09:16:14Z</time>
      </trkpt>
      <trkpt lat="46.55039" lon="4.87499">
        <ele>293.6</ele>
        <time>2022-06-25T09:16:15Z</time>
      </trkpt>
      <trkpt lat="46.55038" lon="4.87497">
        <ele>293.8</ele>
        <time>2022-06-25T09:16:16Z</time>
      </trkpt>
      <trkpt lat="46.55038" lon="4.87495">
        <ele>294.2</ele>
        <time>2022-06-25T09:16:17Z</time>
      </trkpt>
      <trkpt lat="46.55037" lon="4.87493">
        <ele>294.4</ele>
        <time>2022-06-25T09:16:18Z</time>
      </trkpt>
      <trkpt lat="46.55036" lon="4.87492">
        <ele>294.8</ele>
        <time>2022-06-25T09:16:19Z</time>
      </trkpt>
      <trkpt lat="46.55035" lon="4.8749">
        <ele>295.2</ele>
        <time>2022-06-25T09:16:20Z</time>
      </trkpt>
      <trkpt lat="46.55035" lon="4.87489">
        <ele>295.4</ele>
        <time>2022-06-25T09:16:21Z</time>
      </trkpt>
      <trkpt lat="46.55034" lon="4.87488">
        <ele>295.8</ele>
        <time>2022-06-25T09:16:22Z</time>
      </trkpt>
      <trkpt lat="46.55032" lon="4.87486">
        <ele>296</ele>
        <time>2022-06-25T09:16:23Z</time>
      </trkpt>
      <trkpt lat="46.55031" lon="4.87485">
        <ele>296.2</ele>
        <time>2022-06-25T09:16:24Z</time>
      </trkpt>
      <trkpt lat="46.5503" lon="4.87482">
        <ele>296.4</ele>
        <time>2022-06-25T09:16:25Z</time>
      </trkpt>
      <trkpt lat="46.55029" lon="4.8748">
        <ele>296.8</ele>
        <time>2022-06-25T09:16:26Z</time>
      </trkpt>
      <trkpt lat="46.55027" lon="4.87478">
        <ele>297</ele>
        <time>2022-06-25T09:16:27Z</time>
      </trkpt>
      <trkpt lat="46.55027" lon="4.87476">
        <ele>297.4</ele>
        <time>2022-06-25T09:16:28Z</time>
      </trkpt>
      <trkpt lat="46.55026" lon="4.87474">
        <ele>297.8</ele>
        <time>2022-06-25T09:16:29Z</time>
      </trkpt>
      <trkpt lat="46.55025" lon="4.87472">
        <ele>298.2</ele>
        <time>2022-06-25T09:16:30Z</time>
      </trkpt>
      <trkpt lat="46.55025" lon="4.8747">
        <ele>298.4</ele>
        <time>2022-06-25T09:16:31Z</time>
      </trkpt>
      <trkpt lat="46.55024" lon="4.87468">
        <ele>298.6</ele>
        <time>2022-06-25T09:16:32Z</time>
      </trkpt>
      <trkpt lat="46.55024" lon="4.87467">
        <ele>299</ele>
        <time>2022-06-25T09:16:33Z</time>
      </trkpt>
      <trkpt lat="46.55023" lon="4.87465">
        <ele>299.2</ele>
        <time>2022-06-25T09:16:34Z</time>
      </trkpt>
      <trkpt lat="46.55022" lon="4.87464">
        <ele>299.6</ele>
        <time>2022-06-25T09:16:35Z</time>
      </trkpt>
      <trkpt lat="46.5502" lon="4.87461">
        <ele>299.8</ele>
        <time>2022-06-25T09:16:36Z</time>
      </trkpt>
      <trkpt lat="46.55018" lon="4.87459">
        <ele>300.2</ele>
        <time>2022-06-25T09:16:37Z</time>
      </trkpt>
      <trkpt lat="46.55017" lon="4.87456">
        <ele>300.6</ele>
        <time>2022-06-25T09:16:38Z</time>
      </trkpt>
      <trkpt lat="46.55016" lon="4.87454">
        <ele>300.8</ele>
        <time>2022-06-25T09:16:39Z</time>
      </trkpt>
      <trkpt lat="46.55015" lon="4.87452">
        <ele>301.2</ele>
        <time>2022-06-25T09:16:40Z</time>
      </trkpt>
      <trkpt lat="46.55014" lon="4.8745">
        <ele>301.6</ele>
        <time>2022-06-25T09:16:41Z</time>
      </trkpt>
      <trkpt lat="46.55013" lon="4.87447">
        <ele>301.8</ele>
        <time>2022-06-25T09:16:42Z</time>
      </trkpt>
      <trkpt lat="46.55013" lon="4.87445">
        <ele>302.2</ele>
        <time>2022-06-25T09:16:43Z</time>
      </trkpt>
      <trkpt lat="46.55012" lon="4.87442">
        <ele>302.6</ele>
        <time>2022-06-25T09:16:44Z</time>
      </trkpt>
      <trkpt lat="46.55011" lon="4.87439">
        <ele>303</ele>
        <time>2022-06-25T09:16:45Z</time>
      </trkpt>
      <trkpt lat="46.5501" lon="4.87436">
        <ele>303.4</ele>
        <time>2022-06-25T09:16:46Z</time>
      </trkpt>
      <trkpt lat="46.5501" lon="4.87433">
        <ele>303.6</ele>
        <time>2022-06-25T09:16:47Z</time>
      </trkpt>
      <trkpt lat="46.55009" lon="4.8743">
        <ele>303.8</ele>
        <time>2022-06-25T09:16:48Z</time>
      </trkpt>
      <trkpt lat="46.55009" lon="4.87427">
        <ele>304.2</ele>
        <time>2022-06-25T09:16:49Z</time>
      </trkpt>
      <trkpt lat="46.55009" lon="4.87424">
        <ele>304.6</ele>
        <time>2022-06-25T09:16:50Z</time>
      </trkpt>
      <trkpt lat="46.55009" lon="4.87421">
        <ele>304.8</ele>
        <time>2022-06-25T09:16:51Z</time>
      </trkpt>
      <trkpt lat="46.55008" lon="4.87418">
        <ele>305.2</ele>
        <time>2022-06-25T09:16:52Z</time>
      </trkpt>
      <trkpt lat="46.55007" lon="4.87414">
        <ele>305.4</ele>
        <time>2022-06-25T09:16:53Z</time>
      </trkpt>
      <trkpt lat="46.55007" lon="4.87412">
        <ele>305.8</ele>
        <time>2022-06-25T09:16:54Z</time>
      </trkpt>
      <trkpt lat="46.55006" lon="4.87408">
        <ele>305.8</ele>
        <time>2022-06-25T09:16:55Z</time>
      </trkpt>
      <trkpt lat="46.55005" lon="4.87405">
        <ele>306</ele>
        <time>2022-06-25T09:16:56Z</time>
      </trkpt>
      <trkpt lat="46.55005" lon="4.87403">
        <ele>306.2</ele>
        <time>2022-06-25T09:16:57Z</time>
      </trkpt>
      <trkpt lat="46.55005" lon="4.87399">
        <ele>306.6</ele>
        <time>2022-06-25T09:16:58Z</time>
      </trkpt>
      <trkpt lat="46.55005" lon="4.87396">
        <ele>306.8</ele>
        <time>2022-06-25T09:16:59Z</time>
      </trkpt>
      <trkpt lat="46.55005" lon="4.87394">
        <ele>307.2</ele>
        <time>2022-06-25T09:17:00Z</time>
      </trkpt>
      <trkpt lat="46.55005" lon="4.87391">
        <ele>307.4</ele>
        <time>2022-06-25T09:17:01Z</time>
      </trkpt>
      <trkpt lat="46.55005" lon="4.87388">
        <ele>307.8</ele>
        <time>2022-06-25T09:17:02Z</time>
      </trkpt>
      <trkpt lat="46.55006" lon="4.87386">
        <ele>308</ele>
        <time>2022-06-25T09:17:03Z</time>
      </trkpt>
      <trkpt lat="46.55006" lon="4.87383">
        <ele>308.2</ele>
        <time>2022-06-25T09:17:04Z</time>
      </trkpt>
      <trkpt lat="46.55006" lon="4.8738">
        <ele>308.6</ele>
        <time>2022-06-25T09:17:05Z</time>
      </trkpt>
      <trkpt lat="46.55006" lon="4.87378">
        <ele>308.8</ele>
        <time>2022-06-25T09:17:06Z</time>
      </trkpt>
      <trkpt lat="46.55006" lon="4.87374">
        <ele>309.2</ele>
        <time>2022-06-25T09:17:07Z</time>
      </trkpt>
      <trkpt lat="46.55005" lon="4.87371">
        <ele>309.4</ele>
        <time>2022-06-25T09:17:08Z</time>
      </trkpt>
      <trkpt lat="46.55005" lon="4.87369">
        <ele>309.6</ele>
        <time>2022-06-25T09:17:09Z</time>
      </trkpt>
      <trkpt lat="46.55004" lon="4.87366">
        <ele>309.8</ele>
        <time>2022-06-25T09:17:10Z</time>
      </trkpt>
      <trkpt lat="46.55003" lon="4.87364">
        <ele>310</ele>
        <time>2022-06-25T09:17:11Z</time>
      </trkpt>
      <trkpt lat="46.55002" lon="4.87361">
        <ele>310.4</ele>
        <time>2022-06-25T09:17:12Z</time>
      </trkpt>
      <trkpt lat="46.55" lon="4.87358">
        <ele>310.6</ele>
        <time>2022-06-25T09:17:13Z</time>
      </trkpt>
      <trkpt lat="46.54999" lon="4.87355">
        <ele>310.8</ele>
        <time>2022-06-25T09:17:14Z</time>
      </trkpt>
      <trkpt lat="46.54998" lon="4.87353">
        <ele>310.8</ele>
        <time>2022-06-25T09:17:15Z</time>
      </trkpt>
      <trkpt lat="46.54998" lon="4.8735">
        <ele>311.2</ele>
        <time>2022-06-25T09:17:16Z</time>
      </trkpt>
      <trkpt lat="46.54996" lon="4.87348">
        <ele>311.2</ele>
        <time>2022-06-25T09:17:17Z</time>
      </trkpt>
      <trkpt lat="46.54995" lon="4.87345">
        <ele>311.4</ele>
        <time>2022-06-25T09:17:18Z</time>
      </trkpt>
      <trkpt lat="46.54994" lon="4.87342">
        <ele>311.4</ele>
        <time>2022-06-25T09:17:19Z</time>
      </trkpt>
      <trkpt lat="46.54993" lon="4.8734">
        <ele>311.8</ele>
        <time>2022-06-25T09:17:20Z</time>
      </trkpt>
      <trkpt lat="46.54992" lon="4.87338">
        <ele>312</ele>
        <time>2022-06-25T09:17:21Z</time>
      </trkpt>
      <trkpt lat="46.54991" lon="4.87336">
        <ele>312</ele>
        <time>2022-06-25T09:17:22Z</time>
      </trkpt>
      <trkpt lat="46.54991" lon="4.87333">
        <ele>312.4</ele>
        <time>2022-06-25T09:17:23Z</time>
      </trkpt>
      <trkpt lat="46.5499" lon="4.87331">
        <ele>312.4</ele>
        <time>2022-06-25T09:17:24Z</time>
      </trkpt>
      <trkpt lat="46.5499" lon="4.87328">
        <ele>312.6</ele>
        <time>2022-06-25T09:17:25Z</time>
      </trkpt>
      <trkpt lat="46.54989" lon="4.87325">
        <ele>312.6</ele>
        <time>2022-06-25T09:17:26Z</time>
      </trkpt>
      <trkpt lat="46.54989" lon="4.87322">
        <ele>313</ele>
        <time>2022-06-25T09:17:27Z</time>
      </trkpt>
      <trkpt lat="46.54989" lon="4.87319">
        <ele>313.2</ele>
        <time>2022-06-25T09:17:28Z</time>
      </trkpt>
      <trkpt lat="46.54988" lon="4.87316">
        <ele>313.6</ele>
        <time>2022-06-25T09:17:29Z</time>
      </trkpt>
      <trkpt lat="46.54987" lon="4.87312">
        <ele>313.6</ele>
        <time>2022-06-25T09:17:30Z</time>
      </trkpt>
      <trkpt lat="46.54986" lon="4.87309">
        <ele>313.8</ele>
        <time>2022-06-25T09:17:31Z</time>
      </trkpt>
      <trkpt lat="46.54985" lon="4.87306">
        <ele>313.8</ele>
        <time>2022-06-25T09:17:32Z</time>
      </trkpt>
      <trkpt lat="46.54984" lon="4.87302">
        <ele>314</ele>
        <time>2022-06-25T09:17:33Z</time>
      </trkpt>
      <trkpt lat="46.54983" lon="4.87299">
        <ele>314</ele>
        <time>2022-06-25T09:17:34Z</time>
      </trkpt>
      <trkpt lat="46.54982" lon="4.87295">
        <ele>314</ele>
        <time>2022-06-25T09:17:35Z</time>
      </trkpt>
      <trkpt lat="46.54981" lon="4.87292">
        <ele>314.2</ele>
        <time>2022-06-25T09:17:36Z</time>
      </trkpt>
      <trkpt lat="46.5498" lon="4.87288">
        <ele>314.2</ele>
        <time>2022-06-25T09:17:37Z</time>
      </trkpt>
      <trkpt lat="46.54978" lon="4.87284">
        <ele>314.6</ele>
        <time>2022-06-25T09:17:38Z</time>
      </trkpt>
      <trkpt lat="46.54978" lon="4.87281">
        <ele>314.6</ele>
        <time>2022-06-25T09:17:39Z</time>
      </trkpt>
      <trkpt lat="46.54977" lon="4.87277">
        <ele>314.8</ele>
        <time>2022-06-25T09:17:40Z</time>
      </trkpt>
      <trkpt lat="46.54977" lon="4.87273">
        <ele>314.8</ele>
        <time>2022-06-25T09:17:41Z</time>
      </trkpt>
      <trkpt lat="46.54976" lon="4.87269">
        <ele>314.8</ele>
        <time>2022-06-25T09:17:42Z</time>
      </trkpt>
      <trkpt lat="46.54976" lon="4.87265">
        <ele>314.8</ele>
        <time>2022-06-25T09:17:43Z</time>
      </trkpt>
      <trkpt lat="46.54977" lon="4.87261">
        <ele>315</ele>
        <time>2022-06-25T09:17:44Z</time>
      </trkpt>
      <trkpt lat="46.54977" lon="4.87257">
        <ele>315</ele>
        <time>2022-06-25T09:17:45Z</time>
      </trkpt>
      <trkpt lat="46.54978" lon="4.87252">
        <ele>315.4</ele>
        <time>2022-06-25T09:17:46Z</time>
      </trkpt>
      <trkpt lat="46.54979" lon="4.87248">
        <ele>315.4</ele>
        <time>2022-06-25T09:17:47Z</time>
      </trkpt>
      <trkpt lat="46.5498" lon="4.87243">
        <ele>315.4</ele>
        <time>2022-06-25T09:17:48Z</time>
      </trkpt>
      <trkpt lat="46.54981" lon="4.87239">
        <ele>315.4</ele>
        <time>2022-06-25T09:17:49Z</time>
      </trkpt>
      <trkpt lat="46.54982" lon="4.87234">
        <ele>315.4</ele>
        <time>2022-06-25T09:17:50Z</time>
      </trkpt>
      <trkpt lat="46.54984" lon="4.87229">
        <ele>315.4</ele>
        <time>2022-06-25T09:17:51Z</time>
      </trkpt>
      <trkpt lat="46.54986" lon="4.87224">
        <ele>315.4</ele>
        <time>2022-06-25T09:17:52Z</time>
      </trkpt>
      <trkpt lat="46.54988" lon="4.87219">
        <ele>315.4</ele>
        <time>2022-06-25T09:17:53Z</time>
      </trkpt>
      <trkpt lat="46.5499" lon="4.87213">
        <ele>315</ele>
        <time>2022-06-25T09:17:54Z</time>
      </trkpt>
      <trkpt lat="46.54992" lon="4.87207">
        <ele>315</ele>
        <time>2022-06-25T09:17:55Z</time>
      </trkpt>
      <trkpt lat="46.54995" lon="4.87201">
        <ele>315</ele>
        <time>2022-06-25T09:17:56Z</time>
      </trkpt>
      <trkpt lat="46.54998" lon="4.87194">
        <ele>314.8</ele>
        <time>2022-06-25T09:17:57Z</time>
      </trkpt>
      <trkpt lat="46.55001" lon="4.87188">
        <ele>314.8</ele>
        <time>2022-06-25T09:17:58Z</time>
      </trkpt>
      <trkpt lat="46.55004" lon="4.87181">
        <ele>314.6</ele>
        <time>2022-06-25T09:17:59Z</time>
      </trkpt>
      <trkpt lat="46.55007" lon="4.87174">
        <ele>314.6</ele>
        <time>2022-06-25T09:18:00Z</time>
      </trkpt>
      <trkpt lat="46.5501" lon="4.87166">
        <ele>314.2</ele>
        <time>2022-06-25T09:18:01Z</time>
      </trkpt>
      <trkpt lat="46.55013" lon="4.87159">
        <ele>314.2</ele>
        <time>2022-06-25T09:18:02Z</time>
      </trkpt>
      <trkpt lat="46.55017" lon="4.87151">
        <ele>314</ele>
        <time>2022-06-25T09:18:03Z</time>
      </trkpt>
      <trkpt lat="46.55021" lon="4.87143">
        <ele>314</ele>
        <time>2022-06-25T09:18:04Z</time>
      </trkpt>
      <trkpt lat="46.55025" lon="4.87135">
        <ele>313.6</ele>
        <time>2022-06-25T09:18:05Z</time>
      </trkpt>
      <trkpt lat="46.55029" lon="4.87126">
        <ele>313.4</ele>
        <time>2022-06-25T09:18:06Z</time>
      </trkpt>
      <trkpt lat="46.55034" lon="4.87118">
        <ele>313.4</ele>
        <time>2022-06-25T09:18:07Z</time>
      </trkpt>
      <trkpt lat="46.55039" lon="4.87111">
        <ele>313.2</ele>
        <time>2022-06-25T09:18:08Z</time>
      </trkpt>
      <trkpt lat="46.55045" lon="4.87103">
        <ele>312.8</ele>
        <time>2022-06-25T09:18:09Z</time>
      </trkpt>
      <trkpt lat="46.55051" lon="4.87096">
        <ele>312.6</ele>
        <time>2022-06-25T09:18:10Z</time>
      </trkpt>
      <trkpt lat="46.55057" lon="4.8709">
        <ele>312.2</ele>
        <time>2022-06-25T09:18:11Z</time>
      </trkpt>
      <trkpt lat="46.55064" lon="4.87083">
        <ele>312</ele>
        <time>2022-06-25T09:18:12Z</time>
      </trkpt>
      <trkpt lat="46.55071" lon="4.87077">
        <ele>311.8</ele>
        <time>2022-06-25T09:18:13Z</time>
      </trkpt>
      <trkpt lat="46.55078" lon="4.87071">
        <ele>311.4</ele>
        <time>2022-06-25T09:18:14Z</time>
      </trkpt>
      <trkpt lat="46.55085" lon="4.87065">
        <ele>311</ele>
        <time>2022-06-25T09:18:15Z</time>
      </trkpt>
      <trkpt lat="46.55093" lon="4.87059">
        <ele>310.6</ele>
        <time>2022-06-25T09:18:16Z</time>
      </trkpt>
      <trkpt lat="46.55101" lon="4.87053">
        <ele>310.2</ele>
        <time>2022-06-25T09:18:17Z</time>
      </trkpt>
      <trkpt lat="46.55109" lon="4.87047">
        <ele>310</ele>
        <time>2022-06-25T09:18:18Z</time>
      </trkpt>
      <trkpt lat="46.55117" lon="4.8704">
        <ele>309.6</ele>
        <time>2022-06-25T09:18:19Z</time>
      </trkpt>
      <trkpt lat="46.55125" lon="4.87033">
        <ele>309</ele>
        <time>2022-06-25T09:18:20Z</time>
      </trkpt>
      <trkpt lat="46.55133" lon="4.87024">
        <ele>308.6</ele>
        <time>2022-06-25T09:18:21Z</time>
      </trkpt>
      <trkpt lat="46.5514" lon="4.87014">
        <ele>308.2</ele>
        <time>2022-06-25T09:18:22Z</time>
      </trkpt>
      <trkpt lat="46.55147" lon="4.87003">
        <ele>307.8</ele>
        <time>2022-06-25T09:18:23Z</time>
      </trkpt>
      <trkpt lat="46.55154" lon="4.86991">
        <ele>307.4</ele>
        <time>2022-06-25T09:18:24Z</time>
      </trkpt>
      <trkpt lat="46.55159" lon="4.86977">
        <ele>307</ele>
        <time>2022-06-25T09:18:25Z</time>
      </trkpt>
      <trkpt lat="46.55163" lon="4.86962">
        <ele>306.6</ele>
        <time>2022-06-25T09:18:26Z</time>
      </trkpt>
      <trkpt lat="46.55167" lon="4.86948">
        <ele>306</ele>
        <time>2022-06-25T09:18:27Z</time>
      </trkpt>
      <trkpt lat="46.5517" lon="4.86933">
        <ele>305.6</ele>
        <time>2022-06-25T09:18:28Z</time>
      </trkpt>
      <trkpt lat="46.55174" lon="4.86918">
        <ele>305</ele>
        <time>2022-06-25T09:18:29Z</time>
      </trkpt>
      <trkpt lat="46.55178" lon="4.86903">
        <ele>304.6</ele>
        <time>2022-06-25T09:18:30Z</time>
      </trkpt>
      <trkpt lat="46.55182" lon="4.86888">
        <ele>304.2</ele>
        <time>2022-06-25T09:18:31Z</time>
      </trkpt>
      <trkpt lat="46.55186" lon="4.86873">
        <ele>303.8</ele>
        <time>2022-06-25T09:18:32Z</time>
      </trkpt>
      <trkpt lat="46.5519" lon="4.86859">
        <ele>303.4</ele>
        <time>2022-06-25T09:18:33Z</time>
      </trkpt>
      <trkpt lat="46.55193" lon="4.86846">
        <ele>303</ele>
        <time>2022-06-25T09:18:34Z</time>
      </trkpt>
      <trkpt lat="46.55196" lon="4.86832">
        <ele>302.6</ele>
        <time>2022-06-25T09:18:35Z</time>
      </trkpt>
      <trkpt lat="46.55198" lon="4.86818">
        <ele>302.2</ele>
        <time>2022-06-25T09:18:36Z</time>
      </trkpt>
      <trkpt lat="46.55199" lon="4.86803">
        <ele>302</ele>
        <time>2022-06-25T09:18:37Z</time>
      </trkpt>
      <trkpt lat="46.552" lon="4.8679">
        <ele>301.8</ele>
        <time>2022-06-25T09:18:38Z</time>
      </trkpt>
      <trkpt lat="46.55199" lon="4.86777">
        <ele>301.2</ele>
        <time>2022-06-25T09:18:39Z</time>
      </trkpt>
      <trkpt lat="46.55196" lon="4.86765">
        <ele>300.8</ele>
        <time>2022-06-25T09:18:40Z</time>
      </trkpt>
      <trkpt lat="46.55193" lon="4.86753">
        <ele>300.2</ele>
        <time>2022-06-25T09:18:41Z</time>
      </trkpt>
      <trkpt lat="46.55189" lon="4.86742">
        <ele>299.6</ele>
        <time>2022-06-25T09:18:42Z</time>
      </trkpt>
      <trkpt lat="46.55185" lon="4.8673">
        <ele>299.2</ele>
        <time>2022-06-25T09:18:43Z</time>
      </trkpt>
      <trkpt lat="46.55181" lon="4.86717">
        <ele>298.6</ele>
        <time>2022-06-25T09:18:44Z</time>
      </trkpt>
      <trkpt lat="46.55177" lon="4.86705">
        <ele>298</ele>
        <time>2022-06-25T09:18:45Z</time>
      </trkpt>
      <trkpt lat="46.55173" lon="4.86693">
        <ele>297.6</ele>
        <time>2022-06-25T09:18:46Z</time>
      </trkpt>
      <trkpt lat="46.55168" lon="4.86679">
        <ele>297</ele>
        <time>2022-06-25T09:18:47Z</time>
      </trkpt>
      <trkpt lat="46.55162" lon="4.86664">
        <ele>296.8</ele>
        <time>2022-06-25T09:18:48Z</time>
      </trkpt>
      <trkpt lat="46.55156" lon="4.86649">
        <ele>296.4</ele>
        <time>2022-06-25T09:18:49Z</time>
      </trkpt>
      <trkpt lat="46.55151" lon="4.86635">
        <ele>296.2</ele>
        <time>2022-06-25T09:18:50Z</time>
      </trkpt>
      <trkpt lat="46.55147" lon="4.86622">
        <ele>295.8</ele>
        <time>2022-06-25T09:18:51Z</time>
      </trkpt>
      <trkpt lat="46.55142" lon="4.86609">
        <ele>295.4</ele>
        <time>2022-06-25T09:18:52Z</time>
      </trkpt>
      <trkpt lat="46.55137" lon="4.86596">
        <ele>294.8</ele>
        <time>2022-06-25T09:18:53Z</time>
      </trkpt>
      <trkpt lat="46.55132" lon="4.86584">
        <ele>294.6</ele>
        <time>2022-06-25T09:18:54Z</time>
      </trkpt>
      <trkpt lat="46.55128" lon="4.8657">
        <ele>294</ele>
        <time>2022-06-25T09:18:55Z</time>
      </trkpt>
      <trkpt lat="46.5512" lon="4.86555">
        <ele>293.6</ele>
        <time>2022-06-25T09:18:56Z</time>
      </trkpt>
      <trkpt lat="46.55113" lon="4.86542">
        <ele>293.2</ele>
        <time>2022-06-25T09:18:57Z</time>
      </trkpt>
      <trkpt lat="46.55106" lon="4.86528">
        <ele>292.6</ele>
        <time>2022-06-25T09:18:58Z</time>
      </trkpt>
      <trkpt lat="46.55098" lon="4.86515">
        <ele>292</ele>
        <time>2022-06-25T09:18:59Z</time>
      </trkpt>
      <trkpt lat="46.55089" lon="4.86502">
        <ele>291.6</ele>
        <time>2022-06-25T09:19:00Z</time>
      </trkpt>
      <trkpt lat="46.55081" lon="4.8649">
        <ele>291</ele>
        <time>2022-06-25T09:19:01Z</time>
      </trkpt>
      <trkpt lat="46.55074" lon="4.8648">
        <ele>290.6</ele>
        <time>2022-06-25T09:19:02Z</time>
      </trkpt>
      <trkpt lat="46.55067" lon="4.86468">
        <ele>290</ele>
        <time>2022-06-25T09:19:03Z</time>
      </trkpt>
      <trkpt lat="46.5506" lon="4.86457">
        <ele>289.6</ele>
        <time>2022-06-25T09:19:04Z</time>
      </trkpt>
      <trkpt lat="46.55054" lon="4.86445">
        <ele>289</ele>
        <time>2022-06-25T09:19:05Z</time>
      </trkpt>
      <trkpt lat="46.55049" lon="4.86432">
        <ele>288.4</ele>
        <time>2022-06-25T09:19:06Z</time>
      </trkpt>
      <trkpt lat="46.55046" lon="4.86418">
        <ele>288</ele>
        <time>2022-06-25T09:19:07Z</time>
      </trkpt>
      <trkpt lat="46.55045" lon="4.86403">
        <ele>287.4</ele>
        <time>2022-06-25T09:19:08Z</time>
      </trkpt>
      <trkpt lat="46.55044" lon="4.86387">
        <ele>286.8</ele>
        <time>2022-06-25T09:19:09Z</time>
      </trkpt>
      <trkpt lat="46.55044" lon="4.86371">
        <ele>286.4</ele>
        <time>2022-06-25T09:19:10Z</time>
      </trkpt>
      <trkpt lat="46.55044" lon="4.86354">
        <ele>286</ele>
        <time>2022-06-25T09:19:11Z</time>
      </trkpt>
      <trkpt lat="46.55044" lon="4.86339">
        <ele>285.6</ele>
        <time>2022-06-25T09:19:12Z</time>
      </trkpt>
      <trkpt lat="46.55043" lon="4.86324">
        <ele>285.2</ele>
        <time>2022-06-25T09:19:13Z</time>
      </trkpt>
      <trkpt lat="46.55041" lon="4.8631">
        <ele>284.6</ele>
        <time>2022-06-25T09:19:14Z</time>
      </trkpt>
      <trkpt lat="46.55039" lon="4.86296">
        <ele>284.2</ele>
        <time>2022-06-25T09:19:15Z</time>
      </trkpt>
      <trkpt lat="46.55035" lon="4.86283">
        <ele>283.8</ele>
        <time>2022-06-25T09:19:16Z</time>
      </trkpt>
      <trkpt lat="46.55031" lon="4.8627">
        <ele>283.4</ele>
        <time>2022-06-25T09:19:17Z</time>
      </trkpt>
      <trkpt lat="46.55026" lon="4.86257">
        <ele>282.8</ele>
        <time>2022-06-25T09:19:18Z</time>
      </trkpt>
      <trkpt lat="46.5502" lon="4.86243">
        <ele>282.2</ele>
        <time>2022-06-25T09:19:19Z</time>
      </trkpt>
      <trkpt lat="46.5501" lon="4.8623">
        <ele>281.6</ele>
        <time>2022-06-25T09:19:20Z</time>
      </trkpt>
      <trkpt lat="46.55002" lon="4.86219">
        <ele>281</ele>
        <time>2022-06-25T09:19:21Z</time>
      </trkpt>
      <trkpt lat="46.54992" lon="4.86208">
        <ele>280.6</ele>
        <time>2022-06-25T09:19:22Z</time>
      </trkpt>
      <trkpt lat="46.54982" lon="4.86197">
        <ele>279.6</ele>
        <time>2022-06-25T09:19:23Z</time>
      </trkpt>
      <trkpt lat="46.54972" lon="4.86186">
        <ele>279</ele>
        <time>2022-06-25T09:19:24Z</time>
      </trkpt>
      <trkpt lat="46.54961" lon="4.86175">
        <ele>278.6</ele>
        <time>2022-06-25T09:19:25Z</time>
      </trkpt>
      <trkpt lat="46.54952" lon="4.86166">
        <ele>278.2</ele>
        <time>2022-06-25T09:19:26Z</time>
      </trkpt>
      <trkpt lat="46.54943" lon="4.86158">
        <ele>277.8</ele>
        <time>2022-06-25T09:19:27Z</time>
      </trkpt>
      <trkpt lat="46.54933" lon="4.86149">
        <ele>277.4</ele>
        <time>2022-06-25T09:19:28Z</time>
      </trkpt>
      <trkpt lat="46.54924" lon="4.8614">
        <ele>277</ele>
        <time>2022-06-25T09:19:29Z</time>
      </trkpt>
      <trkpt lat="46.54914" lon="4.8613">
        <ele>276.6</ele>
        <time>2022-06-25T09:19:30Z</time>
      </trkpt>
      <trkpt lat="46.54906" lon="4.86119">
        <ele>276.2</ele>
        <time>2022-06-25T09:19:31Z</time>
      </trkpt>
      <trkpt lat="46.549" lon="4.86107">
        <ele>275.8</ele>
        <time>2022-06-25T09:19:32Z</time>
      </trkpt>
      <trkpt lat="46.54896" lon="4.86093">
        <ele>275.4</ele>
        <time>2022-06-25T09:19:33Z</time>
      </trkpt>
      <trkpt lat="46.54892" lon="4.86077">
        <ele>274.8</ele>
        <time>2022-06-25T09:19:34Z</time>
      </trkpt>
      <trkpt lat="46.5489" lon="4.8606">
        <ele>274.4</ele>
        <time>2022-06-25T09:19:35Z</time>
      </trkpt>
      <trkpt lat="46.54889" lon="4.86043">
        <ele>274</ele>
        <time>2022-06-25T09:19:36Z</time>
      </trkpt>
      <trkpt lat="46.54889" lon="4.86026">
        <ele>273.8</ele>
        <time>2022-06-25T09:19:37Z</time>
      </trkpt>
      <trkpt lat="46.5489" lon="4.8601">
        <ele>273.2</ele>
        <time>2022-06-25T09:19:38Z</time>
      </trkpt>
      <trkpt lat="46.54891" lon="4.85992">
        <ele>272.8</ele>
        <time>2022-06-25T09:19:39Z</time>
      </trkpt>
      <trkpt lat="46.54891" lon="4.85975">
        <ele>272.4</ele>
        <time>2022-06-25T09:19:40Z</time>
      </trkpt>
      <trkpt lat="46.54892" lon="4.85959">
        <ele>272</ele>
        <time>2022-06-25T09:19:41Z</time>
      </trkpt>
      <trkpt lat="46.54893" lon="4.85943">
        <ele>271.6</ele>
        <time>2022-06-25T09:19:42Z</time>
      </trkpt>
      <trkpt lat="46.54894" lon="4.85928">
        <ele>271.2</ele>
        <time>2022-06-25T09:19:43Z</time>
      </trkpt>
      <trkpt lat="46.54894" lon="4.85913">
        <ele>270.6</ele>
        <time>2022-06-25T09:19:44Z</time>
      </trkpt>
      <trkpt lat="46.54895" lon="4.85897">
        <ele>270.2</ele>
        <time>2022-06-25T09:19:45Z</time>
      </trkpt>
      <trkpt lat="46.54897" lon="4.85882">
        <ele>269.6</ele>
        <time>2022-06-25T09:19:46Z</time>
      </trkpt>
      <trkpt lat="46.54899" lon="4.85867">
        <ele>269.2</ele>
        <time>2022-06-25T09:19:47Z</time>
      </trkpt>
      <trkpt lat="46.549" lon="4.85852">
        <ele>268.6</ele>
        <time>2022-06-25T09:19:48Z</time>
      </trkpt>
      <trkpt lat="46.54902" lon="4.85836">
        <ele>268.2</ele>
        <time>2022-06-25T09:19:49Z</time>
      </trkpt>
      <trkpt lat="46.54904" lon="4.85821">
        <ele>267.6</ele>
        <time>2022-06-25T09:19:50Z</time>
      </trkpt>
      <trkpt lat="46.54905" lon="4.85806">
        <ele>267.2</ele>
        <time>2022-06-25T09:19:51Z</time>
      </trkpt>
      <trkpt lat="46.54903" lon="4.8579">
        <ele>266.6</ele>
        <time>2022-06-25T09:19:52Z</time>
      </trkpt>
      <trkpt lat="46.54899" lon="4.85776">
        <ele>266.2</ele>
        <time>2022-06-25T09:19:53Z</time>
      </trkpt>
      <trkpt lat="46.54893" lon="4.85764">
        <ele>265.6</ele>
        <time>2022-06-25T09:19:54Z</time>
      </trkpt>
      <trkpt lat="46.54887" lon="4.85751">
        <ele>265.2</ele>
        <time>2022-06-25T09:19:55Z</time>
      </trkpt>
      <trkpt lat="46.54878" lon="4.85741">
        <ele>264.8</ele>
        <time>2022-06-25T09:19:56Z</time>
      </trkpt>
      <trkpt lat="46.54868" lon="4.85733">
        <ele>264.4</ele>
        <time>2022-06-25T09:19:57Z</time>
      </trkpt>
      <trkpt lat="46.54858" lon="4.85728">
        <ele>264</ele>
        <time>2022-06-25T09:19:58Z</time>
      </trkpt>
      <trkpt lat="46.54848" lon="4.85725">
        <ele>263.8</ele>
        <time>2022-06-25T09:19:59Z</time>
      </trkpt>
      <trkpt lat="46.54837" lon="4.85722">
        <ele>263.4</ele>
        <time>2022-06-25T09:20:00Z</time>
      </trkpt>
      <trkpt lat="46.54826" lon="4.85717">
        <ele>263</ele>
        <time>2022-06-25T09:20:01Z</time>
      </trkpt>
      <trkpt lat="46.54816" lon="4.85714">
        <ele>262.6</ele>
        <time>2022-06-25T09:20:02Z</time>
      </trkpt>
      <trkpt lat="46.54805" lon="4.85711">
        <ele>262.2</ele>
        <time>2022-06-25T09:20:03Z</time>
      </trkpt>
      <trkpt lat="46.54795" lon="4.85708">
        <ele>261.8</ele>
        <time>2022-06-25T09:20:04Z</time>
      </trkpt>
      <trkpt lat="46.54784" lon="4.85705">
        <ele>261.4</ele>
        <time>2022-06-25T09:20:05Z</time>
      </trkpt>
      <trkpt lat="46.54773" lon="4.85702">
        <ele>261</ele>
        <time>2022-06-25T09:20:06Z</time>
      </trkpt>
      <trkpt lat="46.54762" lon="4.85699">
        <ele>260.6</ele>
        <time>2022-06-25T09:20:07Z</time>
      </trkpt>
      <trkpt lat="46.54752" lon="4.85695">
        <ele>260.2</ele>
        <time>2022-06-25T09:20:08Z</time>
      </trkpt>
      <trkpt lat="46.54741" lon="4.85693">
        <ele>259.8</ele>
        <time>2022-06-25T09:20:09Z</time>
      </trkpt>
      <trkpt lat="46.54731" lon="4.8569">
        <ele>259.4</ele>
        <time>2022-06-25T09:20:10Z</time>
      </trkpt>
      <trkpt lat="46.5472" lon="4.85686">
        <ele>259.2</ele>
        <time>2022-06-25T09:20:11Z</time>
      </trkpt>
      <trkpt lat="46.54709" lon="4.85683">
        <ele>258.8</ele>
        <time>2022-06-25T09:20:12Z</time>
      </trkpt>
      <trkpt lat="46.54698" lon="4.85679">
        <ele>258.6</ele>
        <time>2022-06-25T09:20:13Z</time>
      </trkpt>
      <trkpt lat="46.54688" lon="4.85676">
        <ele>258</ele>
        <time>2022-06-25T09:20:14Z</time>
      </trkpt>
      <trkpt lat="46.54677" lon="4.85672">
        <ele>257.4</ele>
        <time>2022-06-25T09:20:15Z</time>
      </trkpt>
      <trkpt lat="46.54667" lon="4.85667">
        <ele>256.8</ele>
        <time>2022-06-25T09:20:16Z</time>
      </trkpt>
      <trkpt lat="46.54657" lon="4.85662">
        <ele>256.2</ele>
        <time>2022-06-25T09:20:17Z</time>
      </trkpt>
      <trkpt lat="46.54647" lon="4.85655">
        <ele>255.8</ele>
        <time>2022-06-25T09:20:18Z</time>
      </trkpt>
      <trkpt lat="46.54637" lon="4.85647">
        <ele>255.2</ele>
        <time>2022-06-25T09:20:19Z</time>
      </trkpt>
      <trkpt lat="46.54628" lon="4.85638">
        <ele>254.6</ele>
        <time>2022-06-25T09:20:20Z</time>
      </trkpt>
      <trkpt lat="46.54619" lon="4.85629">
        <ele>254.4</ele>
        <time>2022-06-25T09:20:21Z</time>
      </trkpt>
      <trkpt lat="46.5461" lon="4.85621">
        <ele>253.8</ele>
        <time>2022-06-25T09:20:22Z</time>
      </trkpt>
      <trkpt lat="46.546" lon="4.8561">
        <ele>253.4</ele>
        <time>2022-06-25T09:20:23Z</time>
      </trkpt>
      <trkpt lat="46.54591" lon="4.85601">
        <ele>252.8</ele>
        <time>2022-06-25T09:20:24Z</time>
      </trkpt>
      <trkpt lat="46.54582" lon="4.85591">
        <ele>252.2</ele>
        <time>2022-06-25T09:20:25Z</time>
      </trkpt>
      <trkpt lat="46.54574" lon="4.85582">
        <ele>251.6</ele>
        <time>2022-06-25T09:20:26Z</time>
      </trkpt>
      <trkpt lat="46.54566" lon="4.85571">
        <ele>251.2</ele>
        <time>2022-06-25T09:20:27Z</time>
      </trkpt>
      <trkpt lat="46.54558" lon="4.8556">
        <ele>250.8</ele>
        <time>2022-06-25T09:20:28Z</time>
      </trkpt>
      <trkpt lat="46.54552" lon="4.85548">
        <ele>250.4</ele>
        <time>2022-06-25T09:20:29Z</time>
      </trkpt>
      <trkpt lat="46.54546" lon="4.85537">
        <ele>250</ele>
        <time>2022-06-25T09:20:30Z</time>
      </trkpt>
      <trkpt lat="46.5454" lon="4.85524">
        <ele>249.6</ele>
        <time>2022-06-25T09:20:31Z</time>
      </trkpt>
      <trkpt lat="46.54535" lon="4.85511">
        <ele>249.4</ele>
        <time>2022-06-25T09:20:32Z</time>
      </trkpt>
      <trkpt lat="46.5453" lon="4.85498">
        <ele>249.2</ele>
        <time>2022-06-25T09:20:33Z</time>
      </trkpt>
      <trkpt lat="46.54525" lon="4.85486">
        <ele>248.8</ele>
        <time>2022-06-25T09:20:34Z</time>
      </trkpt>
      <trkpt lat="46.54519" lon="4.85474">
        <ele>248.6</ele>
        <time>2022-06-25T09:20:35Z</time>
      </trkpt>
      <trkpt lat="46.54513" lon="4.85463">
        <ele>248.4</ele>
        <time>2022-06-25T09:20:36Z</time>
      </trkpt>
      <trkpt lat="46.54508" lon="4.85452">
        <ele>248</ele>
        <time>2022-06-25T09:20:37Z</time>
      </trkpt>
      <trkpt lat="46.54503" lon="4.8544">
        <ele>248</ele>
        <time>2022-06-25T09:20:38Z</time>
      </trkpt>
      <trkpt lat="46.54498" lon="4.85429">
        <ele>247.6</ele>
        <time>2022-06-25T09:20:39Z</time>
      </trkpt>
      <trkpt lat="46.54491" lon="4.85418">
        <ele>247.4</ele>
        <time>2022-06-25T09:20:40Z</time>
      </trkpt>
      <trkpt lat="46.54486" lon="4.85407">
        <ele>247</ele>
        <time>2022-06-25T09:20:41Z</time>
      </trkpt>
      <trkpt lat="46.54481" lon="4.85396">
        <ele>246.8</ele>
        <time>2022-06-25T09:20:42Z</time>
      </trkpt>
      <trkpt lat="46.54476" lon="4.85386">
        <ele>246.4</ele>
        <time>2022-06-25T09:20:43Z</time>
      </trkpt>
      <trkpt lat="46.5447" lon="4.85375">
        <ele>246.2</ele>
        <time>2022-06-25T09:20:44Z</time>
      </trkpt>
      <trkpt lat="46.54465" lon="4.85365">
        <ele>246</ele>
        <time>2022-06-25T09:20:45Z</time>
      </trkpt>
      <trkpt lat="46.5446" lon="4.85355">
        <ele>245.8</ele>
        <time>2022-06-25T09:20:46Z</time>
      </trkpt>
      <trkpt lat="46.54454" lon="4.85345">
        <ele>245.4</ele>
        <time>2022-06-25T09:20:47Z</time>
      </trkpt>
      <trkpt lat="46.54449" lon="4.85335">
        <ele>245.4</ele>
        <time>2022-06-25T09:20:48Z</time>
      </trkpt>
      <trkpt lat="46.54444" lon="4.85326">
        <ele>245</ele>
        <time>2022-06-25T09:20:49Z</time>
      </trkpt>
      <trkpt lat="46.54439" lon="4.85316">
        <ele>245</ele>
        <time>2022-06-25T09:20:50Z</time>
      </trkpt>
      <trkpt lat="46.54434" lon="4.85306">
        <ele>244.8</ele>
        <time>2022-06-25T09:20:51Z</time>
      </trkpt>
      <trkpt lat="46.54429" lon="4.85297">
        <ele>244.8</ele>
        <time>2022-06-25T09:20:52Z</time>
      </trkpt>
      <trkpt lat="46.54424" lon="4.85288">
        <ele>244.8</ele>
        <time>2022-06-25T09:20:53Z</time>
      </trkpt>
      <trkpt lat="46.54419" lon="4.85279">
        <ele>244.8</ele>
        <time>2022-06-25T09:20:55Z</time>
      </trkpt>
      <trkpt lat="46.54414" lon="4.8527">
        <ele>244.6</ele>
        <time>2022-06-25T09:20:56Z</time>
      </trkpt>
      <trkpt lat="46.54408" lon="4.85261">
        <ele>244.6</ele>
        <time>2022-06-25T09:20:57Z</time>
      </trkpt>
      <trkpt lat="46.54403" lon="4.85253">
        <ele>244.6</ele>
        <time>2022-06-25T09:20:58Z</time>
      </trkpt>
      <trkpt lat="46.54398" lon="4.85245">
        <ele>244.6</ele>
        <time>2022-06-25T09:20:59Z</time>
      </trkpt>
      <trkpt lat="46.54392" lon="4.85237">
        <ele>244.6</ele>
        <time>2022-06-25T09:21:00Z</time>
      </trkpt>
      <trkpt lat="46.54386" lon="4.8523">
        <ele>244.6</ele>
        <time>2022-06-25T09:21:01Z</time>
      </trkpt>
      <trkpt lat="46.54381" lon="4.85224">
        <ele>244.6</ele>
        <time>2022-06-25T09:21:02Z</time>
      </trkpt>
      <trkpt lat="46.54375" lon="4.85217">
        <ele>244.4</ele>
        <time>2022-06-25T09:21:03Z</time>
      </trkpt>
      <trkpt lat="46.5437" lon="4.8521">
        <ele>244.4</ele>
        <time>2022-06-25T09:21:04Z</time>
      </trkpt>
      <trkpt lat="46.54365" lon="4.85203">
        <ele>244.4</ele>
        <time>2022-06-25T09:21:05Z</time>
      </trkpt>
      <trkpt lat="46.54359" lon="4.85197">
        <ele>244.4</ele>
        <time>2022-06-25T09:21:06Z</time>
      </trkpt>
      <trkpt lat="46.54354" lon="4.85191">
        <ele>244.4</ele>
        <time>2022-06-25T09:21:07Z</time>
      </trkpt>
      <trkpt lat="46.54348" lon="4.85184">
        <ele>244.4</ele>
        <time>2022-06-25T09:21:08Z</time>
      </trkpt>
      <trkpt lat="46.54336" lon="4.85172">
        <ele>244</ele>
        <time>2022-06-25T09:21:09Z</time>
      </trkpt>
      <trkpt lat="46.54331" lon="4.85166">
        <ele>244</ele>
        <time>2022-06-25T09:21:10Z</time>
      </trkpt>
      <trkpt lat="46.54326" lon="4.85159">
        <ele>244</ele>
        <time>2022-06-25T09:21:11Z</time>
      </trkpt>
      <trkpt lat="46.54321" lon="4.85153">
        <ele>244</ele>
        <time>2022-06-25T09:21:12Z</time>
      </trkpt>
      <trkpt lat="46.54316" lon="4.85148">
        <ele>243.8</ele>
        <time>2022-06-25T09:21:13Z</time>
      </trkpt>
      <trkpt lat="46.54311" lon="4.85143">
        <ele>243.8</ele>
        <time>2022-06-25T09:21:14Z</time>
      </trkpt>
      <trkpt lat="46.54306" lon="4.85138">
        <ele>243.8</ele>
        <time>2022-06-25T09:21:15Z</time>
      </trkpt>
      <trkpt lat="46.54301" lon="4.85133">
        <ele>243.6</ele>
        <time>2022-06-25T09:21:16Z</time>
      </trkpt>
      <trkpt lat="46.54296" lon="4.85128">
        <ele>243.6</ele>
        <time>2022-06-25T09:21:17Z</time>
      </trkpt>
      <trkpt lat="46.54291" lon="4.85122">
        <ele>243.6</ele>
        <time>2022-06-25T09:21:18Z</time>
      </trkpt>
      <trkpt lat="46.54287" lon="4.85117">
        <ele>243.6</ele>
        <time>2022-06-25T09:21:19Z</time>
      </trkpt>
      <trkpt lat="46.54283" lon="4.8511">
        <ele>243.6</ele>
        <time>2022-06-25T09:21:20Z</time>
      </trkpt>
      <trkpt lat="46.5428" lon="4.85103">
        <ele>243.4</ele>
        <time>2022-06-25T09:21:21Z</time>
      </trkpt>
      <trkpt lat="46.54278" lon="4.85095">
        <ele>243.4</ele>
        <time>2022-06-25T09:21:22Z</time>
      </trkpt>
      <trkpt lat="46.54276" lon="4.85086">
        <ele>243.2</ele>
        <time>2022-06-25T09:21:23Z</time>
      </trkpt>
      <trkpt lat="46.54276" lon="4.85077">
        <ele>243.2</ele>
        <time>2022-06-25T09:21:24Z</time>
      </trkpt>
      <trkpt lat="46.54276" lon="4.85069">
        <ele>242.8</ele>
        <time>2022-06-25T09:21:25Z</time>
      </trkpt>
      <trkpt lat="46.54278" lon="4.85061">
        <ele>242.8</ele>
        <time>2022-06-25T09:21:26Z</time>
      </trkpt>
      <trkpt lat="46.54279" lon="4.85052">
        <ele>242.8</ele>
        <time>2022-06-25T09:21:27Z</time>
      </trkpt>
      <trkpt lat="46.54282" lon="4.85045">
        <ele>242.8</ele>
        <time>2022-06-25T09:21:28Z</time>
      </trkpt>
      <trkpt lat="46.54284" lon="4.85037">
        <ele>242.8</ele>
        <time>2022-06-25T09:21:29Z</time>
      </trkpt>
      <trkpt lat="46.54285" lon="4.85029">
        <ele>242.6</ele>
        <time>2022-06-25T09:21:30Z</time>
      </trkpt>
      <trkpt lat="46.54286" lon="4.85023">
        <ele>242.6</ele>
        <time>2022-06-25T09:21:31Z</time>
      </trkpt>
      <trkpt lat="46.54287" lon="4.85017">
        <ele>242.6</ele>
        <time>2022-06-25T09:21:32Z</time>
      </trkpt>
      <trkpt lat="46.54288" lon="4.85012">
        <ele>242.6</ele>
        <time>2022-06-25T09:21:33Z</time>
      </trkpt>
      <trkpt lat="46.54288" lon="4.85008">
        <ele>242.4</ele>
        <time>2022-06-25T09:21:34Z</time>
      </trkpt>
      <trkpt lat="46.54289" lon="4.85005">
        <ele>242.4</ele>
        <time>2022-06-25T09:21:35Z</time>
      </trkpt>
      <trkpt lat="46.54289" lon="4.85003">
        <ele>242.4</ele>
        <time>2022-06-25T09:21:36Z</time>
      </trkpt>
      <trkpt lat="46.54289" lon="4.85002">
        <ele>242.4</ele>
        <time>2022-06-25T09:21:37Z</time>
      </trkpt>
      <trkpt lat="46.54289" lon="4.85001">
        <ele>242.4</ele>
        <time>2022-06-25T09:21:38Z</time>
      </trkpt>
      <trkpt lat="46.54291" lon="4.84999">
        <ele>242</ele>
        <time>2022-06-25T09:22:32Z</time>
      </trkpt>
      <trkpt lat="46.54292" lon="4.84997">
        <ele>242</ele>
        <time>2022-06-25T09:22:33Z</time>
      </trkpt>
      <trkpt lat="46.54294" lon="4.84995">
        <ele>242</ele>
        <time>2022-06-25T09:22:34Z</time>
      </trkpt>
      <trkpt lat="46.54295" lon="4.84992">
        <ele>242</ele>
        <time>2022-06-25T09:22:35Z</time>
      </trkpt>
      <trkpt lat="46.54297" lon="4.84989">
        <ele>242</ele>
        <time>2022-06-25T09:22:36Z</time>
      </trkpt>
      <trkpt lat="46.54299" lon="4.84986">
        <ele>242</ele>
        <time>2022-06-25T09:22:37Z</time>
      </trkpt>
      <trkpt lat="46.54301" lon="4.84983">
        <ele>242</ele>
        <time>2022-06-25T09:22:38Z</time>
      </trkpt>
      <trkpt lat="46.54302" lon="4.84979">
        <ele>242.2</ele>
        <time>2022-06-25T09:22:39Z</time>
      </trkpt>
      <trkpt lat="46.54303" lon="4.84975">
        <ele>242.2</ele>
        <time>2022-06-25T09:22:40Z</time>
      </trkpt>
      <trkpt lat="46.54304" lon="4.84972">
        <ele>242.2</ele>
        <time>2022-06-25T09:22:41Z</time>
      </trkpt>
      <trkpt lat="46.54306" lon="4.84968">
        <ele>242.2</ele>
        <time>2022-06-25T09:22:42Z</time>
      </trkpt>
      <trkpt lat="46.54307" lon="4.84964">
        <ele>242.6</ele>
        <time>2022-06-25T09:22:43Z</time>
      </trkpt>
      <trkpt lat="46.54309" lon="4.8496">
        <ele>242.6</ele>
        <time>2022-06-25T09:22:44Z</time>
      </trkpt>
      <trkpt lat="46.5431" lon="4.84956">
        <ele>242.6</ele>
        <time>2022-06-25T09:22:45Z</time>
      </trkpt>
      <trkpt lat="46.54312" lon="4.84952">
        <ele>242.8</ele>
        <time>2022-06-25T09:22:46Z</time>
      </trkpt>
      <trkpt lat="46.54313" lon="4.84947">
        <ele>242.8</ele>
        <time>2022-06-25T09:22:47Z</time>
      </trkpt>
      <trkpt lat="46.54315" lon="4.84943">
        <ele>242.8</ele>
        <time>2022-06-25T09:22:48Z</time>
      </trkpt>
      <trkpt lat="46.54317" lon="4.84938">
        <ele>243.2</ele>
        <time>2022-06-25T09:22:49Z</time>
      </trkpt>
      <trkpt lat="46.54318" lon="4.84934">
        <ele>243.2</ele>
        <time>2022-06-25T09:22:50Z</time>
      </trkpt>
      <trkpt lat="46.5432" lon="4.84929">
        <ele>243.2</ele>
        <time>2022-06-25T09:22:51Z</time>
      </trkpt>
      <trkpt lat="46.54322" lon="4.84924">
        <ele>243.4</ele>
        <time>2022-06-25T09:22:52Z</time>
      </trkpt>
      <trkpt lat="46.54323" lon="4.8492">
        <ele>243.4</ele>
        <time>2022-06-25T09:22:53Z</time>
      </trkpt>
      <trkpt lat="46.54325" lon="4.84916">
        <ele>243.8</ele>
        <time>2022-06-25T09:22:54Z</time>
      </trkpt>
      <trkpt lat="46.54327" lon="4.84911">
        <ele>243.8</ele>
        <time>2022-06-25T09:22:55Z</time>
      </trkpt>
      <trkpt lat="46.54328" lon="4.84907">
        <ele>244</ele>
        <time>2022-06-25T09:22:56Z</time>
      </trkpt>
      <trkpt lat="46.5433" lon="4.84902">
        <ele>244</ele>
        <time>2022-06-25T09:22:57Z</time>
      </trkpt>
      <trkpt lat="46.54332" lon="4.84897">
        <ele>244.4</ele>
        <time>2022-06-25T09:22:58Z</time>
      </trkpt>
      <trkpt lat="46.54334" lon="4.84893">
        <ele>244.4</ele>
        <time>2022-06-25T09:22:59Z</time>
      </trkpt>
      <trkpt lat="46.54335" lon="4.84888">
        <ele>244.8</ele>
        <time>2022-06-25T09:23:00Z</time>
      </trkpt>
      <trkpt lat="46.54336" lon="4.84883">
        <ele>245</ele>
        <time>2022-06-25T09:23:01Z</time>
      </trkpt>
      <trkpt lat="46.54338" lon="4.84878">
        <ele>245.2</ele>
        <time>2022-06-25T09:23:02Z</time>
      </trkpt>
      <trkpt lat="46.54339" lon="4.84872">
        <ele>245.2</ele>
        <time>2022-06-25T09:23:03Z</time>
      </trkpt>
      <trkpt lat="46.54339" lon="4.84866">
        <ele>245.2</ele>
        <time>2022-06-25T09:23:04Z</time>
      </trkpt>
      <trkpt lat="46.54339" lon="4.8486">
        <ele>245.6</ele>
        <time>2022-06-25T09:23:05Z</time>
      </trkpt>
      <trkpt lat="46.54339" lon="4.84854">
        <ele>245.6</ele>
        <time>2022-06-25T09:23:06Z</time>
      </trkpt>
      <trkpt lat="46.54338" lon="4.84849">
        <ele>246</ele>
        <time>2022-06-25T09:23:07Z</time>
      </trkpt>
      <trkpt lat="46.54336" lon="4.84843">
        <ele>246</ele>
        <time>2022-06-25T09:23:08Z</time>
      </trkpt>
      <trkpt lat="46.54335" lon="4.84838">
        <ele>246.2</ele>
        <time>2022-06-25T09:23:09Z</time>
      </trkpt>
      <trkpt lat="46.54334" lon="4.84832">
        <ele>246.2</ele>
        <time>2022-06-25T09:23:10Z</time>
      </trkpt>
      <trkpt lat="46.54332" lon="4.84826">
        <ele>246.6</ele>
        <time>2022-06-25T09:23:11Z</time>
      </trkpt>
      <trkpt lat="46.54331" lon="4.8482">
        <ele>246.6</ele>
        <time>2022-06-25T09:23:12Z</time>
      </trkpt>
      <trkpt lat="46.5433" lon="4.84814">
        <ele>246.8</ele>
        <time>2022-06-25T09:23:13Z</time>
      </trkpt>
      <trkpt lat="46.54328" lon="4.84808">
        <ele>246.8</ele>
        <time>2022-06-25T09:23:14Z</time>
      </trkpt>
      <trkpt lat="46.54326" lon="4.84802">
        <ele>247.2</ele>
        <time>2022-06-25T09:23:15Z</time>
      </trkpt>
      <trkpt lat="46.54324" lon="4.84795">
        <ele>247.2</ele>
        <time>2022-06-25T09:23:16Z</time>
      </trkpt>
      <trkpt lat="46.54321" lon="4.84789">
        <ele>247.4</ele>
        <time>2022-06-25T09:23:17Z</time>
      </trkpt>
      <trkpt lat="46.54319" lon="4.84782">
        <ele>247.4</ele>
        <time>2022-06-25T09:23:18Z</time>
      </trkpt>
      <trkpt lat="46.54317" lon="4.84775">
        <ele>247.4</ele>
        <time>2022-06-25T09:23:19Z</time>
      </trkpt>
      <trkpt lat="46.54314" lon="4.84768">
        <ele>247.6</ele>
        <time>2022-06-25T09:23:20Z</time>
      </trkpt>
      <trkpt lat="46.54312" lon="4.8476">
        <ele>247.6</ele>
        <time>2022-06-25T09:23:21Z</time>
      </trkpt>
      <trkpt lat="46.54309" lon="4.84753">
        <ele>247.6</ele>
        <time>2022-06-25T09:23:22Z</time>
      </trkpt>
      <trkpt lat="46.54306" lon="4.84745">
        <ele>247.6</ele>
        <time>2022-06-25T09:23:23Z</time>
      </trkpt>
      <trkpt lat="46.54303" lon="4.84738">
        <ele>247.6</ele>
        <time>2022-06-25T09:23:24Z</time>
      </trkpt>
      <trkpt lat="46.54301" lon="4.8473">
        <ele>247.6</ele>
        <time>2022-06-25T09:23:25Z</time>
      </trkpt>
      <trkpt lat="46.54298" lon="4.84723">
        <ele>247.6</ele>
        <time>2022-06-25T09:23:26Z</time>
      </trkpt>
      <trkpt lat="46.54296" lon="4.84716">
        <ele>247.4</ele>
        <time>2022-06-25T09:23:27Z</time>
      </trkpt>
      <trkpt lat="46.54293" lon="4.84709">
        <ele>247.4</ele>
        <time>2022-06-25T09:23:28Z</time>
      </trkpt>
      <trkpt lat="46.54291" lon="4.84702">
        <ele>247.4</ele>
        <time>2022-06-25T09:23:29Z</time>
      </trkpt>
      <trkpt lat="46.54289" lon="4.84694">
        <ele>247.4</ele>
        <time>2022-06-25T09:23:30Z</time>
      </trkpt>
      <trkpt lat="46.54286" lon="4.84686">
        <ele>247.4</ele>
        <time>2022-06-25T09:23:31Z</time>
      </trkpt>
      <trkpt lat="46.54284" lon="4.84678">
        <ele>247.4</ele>
        <time>2022-06-25T09:23:32Z</time>
      </trkpt>
      <trkpt lat="46.54283" lon="4.8467">
        <ele>247.4</ele>
        <time>2022-06-25T09:23:33Z</time>
      </trkpt>
      <trkpt lat="46.54282" lon="4.84661">
        <ele>247.4</ele>
        <time>2022-06-25T09:23:34Z</time>
      </trkpt>
      <trkpt lat="46.54282" lon="4.84652">
        <ele>247.4</ele>
        <time>2022-06-25T09:23:35Z</time>
      </trkpt>
      <trkpt lat="46.54283" lon="4.84643">
        <ele>247.4</ele>
        <time>2022-06-25T09:23:36Z</time>
      </trkpt>
      <trkpt lat="46.54285" lon="4.84634">
        <ele>247.4</ele>
        <time>2022-06-25T09:23:37Z</time>
      </trkpt>
      <trkpt lat="46.54287" lon="4.84626">
        <ele>247.4</ele>
        <time>2022-06-25T09:23:38Z</time>
      </trkpt>
      <trkpt lat="46.5429" lon="4.84617">
        <ele>247.4</ele>
        <time>2022-06-25T09:23:39Z</time>
      </trkpt>
      <trkpt lat="46.54294" lon="4.8461">
        <ele>247.4</ele>
        <time>2022-06-25T09:23:40Z</time>
      </trkpt>
      <trkpt lat="46.54299" lon="4.84603">
        <ele>247.4</ele>
        <time>2022-06-25T09:23:41Z</time>
      </trkpt>
      <trkpt lat="46.54304" lon="4.84598">
        <ele>247.4</ele>
        <time>2022-06-25T09:23:42Z</time>
      </trkpt>
      <trkpt lat="46.54309" lon="4.84592">
        <ele>247.4</ele>
        <time>2022-06-25T09:23:43Z</time>
      </trkpt>
      <trkpt lat="46.54314" lon="4.84587">
        <ele>247.4</ele>
        <time>2022-06-25T09:23:44Z</time>
      </trkpt>
      <trkpt lat="46.54319" lon="4.84581">
        <ele>247.4</ele>
        <time>2022-06-25T09:23:45Z</time>
      </trkpt>
      <trkpt lat="46.54324" lon="4.84576">
        <ele>247.4</ele>
        <time>2022-06-25T09:23:46Z</time>
      </trkpt>
      <trkpt lat="46.5433" lon="4.8457">
        <ele>247.4</ele>
        <time>2022-06-25T09:23:47Z</time>
      </trkpt>
      <trkpt lat="46.54335" lon="4.84564">
        <ele>247.4</ele>
        <time>2022-06-25T09:23:48Z</time>
      </trkpt>
      <trkpt lat="46.5434" lon="4.84558">
        <ele>247.4</ele>
        <time>2022-06-25T09:23:49Z</time>
      </trkpt>
      <trkpt lat="46.54346" lon="4.84553">
        <ele>247.6</ele>
        <time>2022-06-25T09:23:50Z</time>
      </trkpt>
      <trkpt lat="46.54351" lon="4.84547">
        <ele>247.6</ele>
        <time>2022-06-25T09:23:51Z</time>
      </trkpt>
      <trkpt lat="46.54356" lon="4.84542">
        <ele>247.6</ele>
        <time>2022-06-25T09:23:52Z</time>
      </trkpt>
      <trkpt lat="46.54361" lon="4.84536">
        <ele>247.6</ele>
        <time>2022-06-25T09:23:53Z</time>
      </trkpt>
      <trkpt lat="46.54366" lon="4.84531">
        <ele>247.6</ele>
        <time>2022-06-25T09:23:54Z</time>
      </trkpt>
      <trkpt lat="46.54371" lon="4.84527">
        <ele>247.6</ele>
        <time>2022-06-25T09:23:55Z</time>
      </trkpt>
      <trkpt lat="46.54375" lon="4.84523">
        <ele>247.4</ele>
        <time>2022-06-25T09:23:56Z</time>
      </trkpt>
      <trkpt lat="46.54379" lon="4.84518">
        <ele>247.4</ele>
        <time>2022-06-25T09:23:57Z</time>
      </trkpt>
      <trkpt lat="46.54384" lon="4.84514">
        <ele>247.4</ele>
        <time>2022-06-25T09:23:58Z</time>
      </trkpt>
      <trkpt lat="46.54387" lon="4.8451">
        <ele>247.4</ele>
        <time>2022-06-25T09:23:59Z</time>
      </trkpt>
      <trkpt lat="46.5439" lon="4.84504">
        <ele>247.4</ele>
        <time>2022-06-25T09:24:00Z</time>
      </trkpt>
      <trkpt lat="46.54391" lon="4.84497">
        <ele>247.4</ele>
        <time>2022-06-25T09:24:01Z</time>
      </trkpt>
      <trkpt lat="46.54391" lon="4.8449">
        <ele>247.4</ele>
        <time>2022-06-25T09:24:02Z</time>
      </trkpt>
      <trkpt lat="46.54391" lon="4.84483">
        <ele>247.4</ele>
        <time>2022-06-25T09:24:03Z</time>
      </trkpt>
      <trkpt lat="46.5439" lon="4.84475">
        <ele>247</ele>
        <time>2022-06-25T09:24:04Z</time>
      </trkpt>
      <trkpt lat="46.54388" lon="4.84468">
        <ele>247</ele>
        <time>2022-06-25T09:24:05Z</time>
      </trkpt>
      <trkpt lat="46.54386" lon="4.8446">
        <ele>247</ele>
        <time>2022-06-25T09:24:06Z</time>
      </trkpt>
      <trkpt lat="46.54383" lon="4.84453">
        <ele>247</ele>
        <time>2022-06-25T09:24:07Z</time>
      </trkpt>
      <trkpt lat="46.54379" lon="4.84446">
        <ele>247</ele>
        <time>2022-06-25T09:24:08Z</time>
      </trkpt>
      <trkpt lat="46.54375" lon="4.8444">
        <ele>246.8</ele>
        <time>2022-06-25T09:24:09Z</time>
      </trkpt>
      <trkpt lat="46.5437" lon="4.84434">
        <ele>246.8</ele>
        <time>2022-06-25T09:24:10Z</time>
      </trkpt>
      <trkpt lat="46.54366" lon="4.84428">
        <ele>246.8</ele>
        <time>2022-06-25T09:24:11Z</time>
      </trkpt>
      <trkpt lat="46.5436" lon="4.84424">
        <ele>246.8</ele>
        <time>2022-06-25T09:24:12Z</time>
      </trkpt>
      <trkpt lat="46.54355" lon="4.84421">
        <ele>246.8</ele>
        <time>2022-06-25T09:24:13Z</time>
      </trkpt>
      <trkpt lat="46.54349" lon="4.84418">
        <ele>246.8</ele>
        <time>2022-06-25T09:24:14Z</time>
      </trkpt>
      <trkpt lat="46.54344" lon="4.84415">
        <ele>246.8</ele>
        <time>2022-06-25T09:24:15Z</time>
      </trkpt>
      <trkpt lat="46.54338" lon="4.84412">
        <ele>246.8</ele>
        <time>2022-06-25T09:24:16Z</time>
      </trkpt>
      <trkpt lat="46.54333" lon="4.84409">
        <ele>246.8</ele>
        <time>2022-06-25T09:24:17Z</time>
      </trkpt>
      <trkpt lat="46.54327" lon="4.84406">
        <ele>246.8</ele>
        <time>2022-06-25T09:24:18Z</time>
      </trkpt>
      <trkpt lat="46.54322" lon="4.84402">
        <ele>246.8</ele>
        <time>2022-06-25T09:24:19Z</time>
      </trkpt>
      <trkpt lat="46.54317" lon="4.84399">
        <ele>247</ele>
        <time>2022-06-25T09:24:20Z</time>
      </trkpt>
      <trkpt lat="46.54312" lon="4.84396">
        <ele>247</ele>
        <time>2022-06-25T09:24:21Z</time>
      </trkpt>
      <trkpt lat="46.54308" lon="4.84393">
        <ele>247</ele>
        <time>2022-06-25T09:24:22Z</time>
      </trkpt>
      <trkpt lat="46.54303" lon="4.8439">
        <ele>247</ele>
        <time>2022-06-25T09:24:23Z</time>
      </trkpt>
      <trkpt lat="46.54298" lon="4.84386">
        <ele>247.4</ele>
        <time>2022-06-25T09:24:24Z</time>
      </trkpt>
      <trkpt lat="46.54294" lon="4.84383">
        <ele>247.4</ele>
        <time>2022-06-25T09:24:25Z</time>
      </trkpt>
      <trkpt lat="46.5429" lon="4.84379">
        <ele>247.6</ele>
        <time>2022-06-25T09:24:26Z</time>
      </trkpt>
      <trkpt lat="46.54286" lon="4.84375">
        <ele>248</ele>
        <time>2022-06-25T09:24:27Z</time>
      </trkpt>
      <trkpt lat="46.54283" lon="4.84371">
        <ele>248</ele>
        <time>2022-06-25T09:24:28Z</time>
      </trkpt>
      <trkpt lat="46.5428" lon="4.84367">
        <ele>248.2</ele>
        <time>2022-06-25T09:24:29Z</time>
      </trkpt>
      <trkpt lat="46.54278" lon="4.84363">
        <ele>248.2</ele>
        <time>2022-06-25T09:24:30Z</time>
      </trkpt>
      <trkpt lat="46.54275" lon="4.84359">
        <ele>248.8</ele>
        <time>2022-06-25T09:24:31Z</time>
      </trkpt>
      <trkpt lat="46.54273" lon="4.84356">
        <ele>249</ele>
        <time>2022-06-25T09:24:32Z</time>
      </trkpt>
      <trkpt lat="46.54271" lon="4.84352">
        <ele>249.2</ele>
        <time>2022-06-25T09:24:33Z</time>
      </trkpt>
      <trkpt lat="46.54269" lon="4.84349">
        <ele>249.2</ele>
        <time>2022-06-25T09:24:34Z</time>
      </trkpt>
      <trkpt lat="46.54267" lon="4.84346">
        <ele>249.6</ele>
        <time>2022-06-25T09:24:35Z</time>
      </trkpt>
      <trkpt lat="46.54265" lon="4.84343">
        <ele>249.6</ele>
        <time>2022-06-25T09:24:36Z</time>
      </trkpt>
      <trkpt lat="46.54263" lon="4.8434">
        <ele>250</ele>
        <time>2022-06-25T09:24:37Z</time>
      </trkpt>
      <trkpt lat="46.54261" lon="4.84337">
        <ele>250</ele>
        <time>2022-06-25T09:24:38Z</time>
      </trkpt>
      <trkpt lat="46.54259" lon="4.84333">
        <ele>250.2</ele>
        <time>2022-06-25T09:24:39Z</time>
      </trkpt>
      <trkpt lat="46.54256" lon="4.84329">
        <ele>250.2</ele>
        <time>2022-06-25T09:24:40Z</time>
      </trkpt>
      <trkpt lat="46.54253" lon="4.84326">
        <ele>250.4</ele>
        <time>2022-06-25T09:24:41Z</time>
      </trkpt>
      <trkpt lat="46.54249" lon="4.84322">
        <ele>250.4</ele>
        <time>2022-06-25T09:24:42Z</time>
      </trkpt>
      <trkpt lat="46.54245" lon="4.84319">
        <ele>250.8</ele>
        <time>2022-06-25T09:24:43Z</time>
      </trkpt>
      <trkpt lat="46.54243" lon="4.84316">
        <ele>250.8</ele>
        <time>2022-06-25T09:24:44Z</time>
      </trkpt>
      <trkpt lat="46.5424" lon="4.84312">
        <ele>251.2</ele>
        <time>2022-06-25T09:24:45Z</time>
      </trkpt>
      <trkpt lat="46.54237" lon="4.84309">
        <ele>251.2</ele>
        <time>2022-06-25T09:24:46Z</time>
      </trkpt>
      <trkpt lat="46.54234" lon="4.84306">
        <ele>251.4</ele>
        <time>2022-06-25T09:24:47Z</time>
      </trkpt>
      <trkpt lat="46.5423" lon="4.84303">
        <ele>251.4</ele>
        <time>2022-06-25T09:24:48Z</time>
      </trkpt>
      <trkpt lat="46.54223" lon="4.84297">
        <ele>251.6</ele>
        <time>2022-06-25T09:24:49Z</time>
      </trkpt>
      <trkpt lat="46.54219" lon="4.84293">
        <ele>252</ele>
        <time>2022-06-25T09:24:50Z</time>
      </trkpt>
      <trkpt lat="46.54213" lon="4.84289">
        <ele>252</ele>
        <time>2022-06-25T09:24:51Z</time>
      </trkpt>
      <trkpt lat="46.54207" lon="4.84284">
        <ele>252.2</ele>
        <time>2022-06-25T09:24:52Z</time>
      </trkpt>
      <trkpt lat="46.54203" lon="4.8428">
        <ele>252.4</ele>
        <time>2022-06-25T09:24:53Z</time>
      </trkpt>
      <trkpt lat="46.54198" lon="4.84277">
        <ele>252.4</ele>
        <time>2022-06-25T09:24:54Z</time>
      </trkpt>
      <trkpt lat="46.54194" lon="4.84273">
        <ele>252.8</ele>
        <time>2022-06-25T09:24:55Z</time>
      </trkpt>
      <trkpt lat="46.54189" lon="4.8427">
        <ele>252.8</ele>
        <time>2022-06-25T09:24:56Z</time>
      </trkpt>
      <trkpt lat="46.54184" lon="4.84266">
        <ele>253</ele>
        <time>2022-06-25T09:24:57Z</time>
      </trkpt>
      <trkpt lat="46.54178" lon="4.84263">
        <ele>253</ele>
        <time>2022-06-25T09:24:58Z</time>
      </trkpt>
      <trkpt lat="46.54173" lon="4.8426">
        <ele>253.4</ele>
        <time>2022-06-25T09:24:59Z</time>
      </trkpt>
      <trkpt lat="46.54168" lon="4.84258">
        <ele>253.4</ele>
        <time>2022-06-25T09:25:00Z</time>
      </trkpt>
      <trkpt lat="46.54163" lon="4.84255">
        <ele>253.6</ele>
        <time>2022-06-25T09:25:01Z</time>
      </trkpt>
      <trkpt lat="46.54158" lon="4.84253">
        <ele>253.6</ele>
        <time>2022-06-25T09:25:02Z</time>
      </trkpt>
      <trkpt lat="46.54153" lon="4.84251">
        <ele>254</ele>
        <time>2022-06-25T09:25:03Z</time>
      </trkpt>
      <trkpt lat="46.54149" lon="4.84248">
        <ele>254</ele>
        <time>2022-06-25T09:25:04Z</time>
      </trkpt>
      <trkpt lat="46.54144" lon="4.84246">
        <ele>254.4</ele>
        <time>2022-06-25T09:25:05Z</time>
      </trkpt>
      <trkpt lat="46.54139" lon="4.84244">
        <ele>254.4</ele>
        <time>2022-06-25T09:25:06Z</time>
      </trkpt>
      <trkpt lat="46.54135" lon="4.84242">
        <ele>254.6</ele>
        <time>2022-06-25T09:25:07Z</time>
      </trkpt>
      <trkpt lat="46.5413" lon="4.8424">
        <ele>254.8</ele>
        <time>2022-06-25T09:25:08Z</time>
      </trkpt>
      <trkpt lat="46.54124" lon="4.84238">
        <ele>254.8</ele>
        <time>2022-06-25T09:25:09Z</time>
      </trkpt>
      <trkpt lat="46.54122" lon="4.84237">
        <ele>255.2</ele>
        <time>2022-06-25T09:25:10Z</time>
      </trkpt>
      <trkpt lat="46.54117" lon="4.84236">
        <ele>255.2</ele>
        <time>2022-06-25T09:25:11Z</time>
      </trkpt>
      <trkpt lat="46.54112" lon="4.84235">
        <ele>255.6</ele>
        <time>2022-06-25T09:25:12Z</time>
      </trkpt>
      <trkpt lat="46.54108" lon="4.84233">
        <ele>255.6</ele>
        <time>2022-06-25T09:25:13Z</time>
      </trkpt>
      <trkpt lat="46.54103" lon="4.84232">
        <ele>256</ele>
        <time>2022-06-25T09:25:14Z</time>
      </trkpt>
      <trkpt lat="46.54098" lon="4.84231">
        <ele>256</ele>
        <time>2022-06-25T09:25:15Z</time>
      </trkpt>
      <trkpt lat="46.54093" lon="4.84229">
        <ele>256.2</ele>
        <time>2022-06-25T09:25:16Z</time>
      </trkpt>
      <trkpt lat="46.54086" lon="4.84227">
        <ele>256.2</ele>
        <time>2022-06-25T09:25:17Z</time>
      </trkpt>
      <trkpt lat="46.54084" lon="4.84227">
        <ele>256.4</ele>
        <time>2022-06-25T09:25:18Z</time>
      </trkpt>
      <trkpt lat="46.54077" lon="4.84224">
        <ele>256.4</ele>
        <time>2022-06-25T09:25:19Z</time>
      </trkpt>
      <trkpt lat="46.54074" lon="4.84223">
        <ele>256.8</ele>
        <time>2022-06-25T09:25:20Z</time>
      </trkpt>
      <trkpt lat="46.54067" lon="4.84221">
        <ele>256.8</ele>
        <time>2022-06-25T09:25:21Z</time>
      </trkpt>
      <trkpt lat="46.54065" lon="4.8422">
        <ele>257.2</ele>
        <time>2022-06-25T09:25:22Z</time>
      </trkpt>
      <trkpt lat="46.5406" lon="4.84219">
        <ele>257.2</ele>
        <time>2022-06-25T09:25:23Z</time>
      </trkpt>
      <trkpt lat="46.54056" lon="4.84218">
        <ele>257.4</ele>
        <time>2022-06-25T09:25:24Z</time>
      </trkpt>
      <trkpt lat="46.54051" lon="4.84217">
        <ele>257.4</ele>
        <time>2022-06-25T09:25:25Z</time>
      </trkpt>
      <trkpt lat="46.54047" lon="4.84217">
        <ele>258</ele>
        <time>2022-06-25T09:25:26Z</time>
      </trkpt>
      <trkpt lat="46.5404" lon="4.84218">
        <ele>258.2</ele>
        <time>2022-06-25T09:25:27Z</time>
      </trkpt>
      <trkpt lat="46.54038" lon="4.84219">
        <ele>258.4</ele>
        <time>2022-06-25T09:25:28Z</time>
      </trkpt>
      <trkpt lat="46.54031" lon="4.84222">
        <ele>258.4</ele>
        <time>2022-06-25T09:25:29Z</time>
      </trkpt>
      <trkpt lat="46.54029" lon="4.84224">
        <ele>258.8</ele>
        <time>2022-06-25T09:25:30Z</time>
      </trkpt>
      <trkpt lat="46.54025" lon="4.84226">
        <ele>258.8</ele>
        <time>2022-06-25T09:25:31Z</time>
      </trkpt>
      <trkpt lat="46.54021" lon="4.84229">
        <ele>258.8</ele>
        <time>2022-06-25T09:25:32Z</time>
      </trkpt>
      <trkpt lat="46.54017" lon="4.84232">
        <ele>259</ele>
        <time>2022-06-25T09:25:33Z</time>
      </trkpt>
      <trkpt lat="46.54013" lon="4.84234">
        <ele>259</ele>
        <time>2022-06-25T09:25:34Z</time>
      </trkpt>
      <trkpt lat="46.54007" lon="4.84236">
        <ele>259.4</ele>
        <time>2022-06-25T09:25:35Z</time>
      </trkpt>
      <trkpt lat="46.54004" lon="4.84236">
        <ele>259.6</ele>
        <time>2022-06-25T09:25:36Z</time>
      </trkpt>
      <trkpt lat="46.54" lon="4.84236">
        <ele>259.6</ele>
        <time>2022-06-25T09:25:37Z</time>
      </trkpt>
      <trkpt lat="46.53996" lon="4.84236">
        <ele>260</ele>
        <time>2022-06-25T09:25:38Z</time>
      </trkpt>
      <trkpt lat="46.53989" lon="4.84236">
        <ele>260</ele>
        <time>2022-06-25T09:25:39Z</time>
      </trkpt>
      <trkpt lat="46.53987" lon="4.84236">
        <ele>260.2</ele>
        <time>2022-06-25T09:25:40Z</time>
      </trkpt>
      <trkpt lat="46.5398" lon="4.84235">
        <ele>260.4</ele>
        <time>2022-06-25T09:25:41Z</time>
      </trkpt>
      <trkpt lat="46.53978" lon="4.84235">
        <ele>260.4</ele>
        <time>2022-06-25T09:25:42Z</time>
      </trkpt>
      <trkpt lat="46.53974" lon="4.84234">
        <ele>260.8</ele>
        <time>2022-06-25T09:25:43Z</time>
      </trkpt>
      <trkpt lat="46.53969" lon="4.84234">
        <ele>260.8</ele>
        <time>2022-06-25T09:25:44Z</time>
      </trkpt>
      <trkpt lat="46.53965" lon="4.84234">
        <ele>261</ele>
        <time>2022-06-25T09:25:45Z</time>
      </trkpt>
      <trkpt lat="46.53961" lon="4.84233">
        <ele>261</ele>
        <time>2022-06-25T09:25:46Z</time>
      </trkpt>
      <trkpt lat="46.53954" lon="4.84232">
        <ele>261.4</ele>
        <time>2022-06-25T09:25:47Z</time>
      </trkpt>
      <trkpt lat="46.53952" lon="4.84231">
        <ele>261.4</ele>
        <time>2022-06-25T09:25:48Z</time>
      </trkpt>
      <trkpt lat="46.53947" lon="4.8423">
        <ele>261.8</ele>
        <time>2022-06-25T09:25:49Z</time>
      </trkpt>
      <trkpt lat="46.53943" lon="4.84228">
        <ele>261.8</ele>
        <time>2022-06-25T09:25:50Z</time>
      </trkpt>
      <trkpt lat="46.53938" lon="4.84227">
        <ele>261.8</ele>
        <time>2022-06-25T09:25:51Z</time>
      </trkpt>
      <trkpt lat="46.53931" lon="4.84224">
        <ele>261.8</ele>
        <time>2022-06-25T09:25:52Z</time>
      </trkpt>
      <trkpt lat="46.53929" lon="4.84223">
        <ele>262</ele>
        <time>2022-06-25T09:25:53Z</time>
      </trkpt>
      <trkpt lat="46.53924" lon="4.84221">
        <ele>262</ele>
        <time>2022-06-25T09:25:54Z</time>
      </trkpt>
      <trkpt lat="46.53919" lon="4.84218">
        <ele>262</ele>
        <time>2022-06-25T09:25:55Z</time>
      </trkpt>
      <trkpt lat="46.53914" lon="4.84215">
        <ele>262</ele>
        <time>2022-06-25T09:25:56Z</time>
      </trkpt>
      <trkpt lat="46.53907" lon="4.84211">
        <ele>262.4</ele>
        <time>2022-06-25T09:25:57Z</time>
      </trkpt>
      <trkpt lat="46.53904" lon="4.8421">
        <ele>262.4</ele>
        <time>2022-06-25T09:25:58Z</time>
      </trkpt>
      <trkpt lat="46.53897" lon="4.84206">
        <ele>262.4</ele>
        <time>2022-06-25T09:25:59Z</time>
      </trkpt>
      <trkpt lat="46.53894" lon="4.84205">
        <ele>262.6</ele>
        <time>2022-06-25T09:26:00Z</time>
      </trkpt>
      <trkpt lat="46.53889" lon="4.84202">
        <ele>262.6</ele>
        <time>2022-06-25T09:26:01Z</time>
      </trkpt>
      <trkpt lat="46.53882" lon="4.84198">
        <ele>262.6</ele>
        <time>2022-06-25T09:26:02Z</time>
      </trkpt>
      <trkpt lat="46.53879" lon="4.84197">
        <ele>262.8</ele>
        <time>2022-06-25T09:26:03Z</time>
      </trkpt>
      <trkpt lat="46.53875" lon="4.84194">
        <ele>262.8</ele>
        <time>2022-06-25T09:26:04Z</time>
      </trkpt>
      <trkpt lat="46.53867" lon="4.8419">
        <ele>262.8</ele>
        <time>2022-06-25T09:26:05Z</time>
      </trkpt>
      <trkpt lat="46.53865" lon="4.84189">
        <ele>262.8</ele>
        <time>2022-06-25T09:26:06Z</time>
      </trkpt>
      <trkpt lat="46.53858" lon="4.84185">
        <ele>262.8</ele>
        <time>2022-06-25T09:26:07Z</time>
      </trkpt>
      <trkpt lat="46.53855" lon="4.84184">
        <ele>262.8</ele>
        <time>2022-06-25T09:26:08Z</time>
      </trkpt>
      <trkpt lat="46.53851" lon="4.84182">
        <ele>262.8</ele>
        <time>2022-06-25T09:26:09Z</time>
      </trkpt>
      <trkpt lat="46.53846" lon="4.8418">
        <ele>262.8</ele>
        <time>2022-06-25T09:26:10Z</time>
      </trkpt>
      <trkpt lat="46.53838" lon="4.84177">
        <ele>262.8</ele>
        <time>2022-06-25T09:26:11Z</time>
      </trkpt>
      <trkpt lat="46.53836" lon="4.84176">
        <ele>263</ele>
        <time>2022-06-25T09:26:12Z</time>
      </trkpt>
      <trkpt lat="46.5383" lon="4.84174">
        <ele>263</ele>
        <time>2022-06-25T09:26:13Z</time>
      </trkpt>
      <trkpt lat="46.53825" lon="4.84172">
        <ele>263</ele>
        <time>2022-06-25T09:26:14Z</time>
      </trkpt>
      <trkpt lat="46.5382" lon="4.8417">
        <ele>263</ele>
        <time>2022-06-25T09:26:15Z</time>
      </trkpt>
      <trkpt lat="46.53815" lon="4.84168">
        <ele>263</ele>
        <time>2022-06-25T09:26:16Z</time>
      </trkpt>
      <trkpt lat="46.53807" lon="4.84165">
        <ele>263</ele>
        <time>2022-06-25T09:26:17Z</time>
      </trkpt>
      <trkpt lat="46.53804" lon="4.84164">
        <ele>263</ele>
        <time>2022-06-25T09:26:18Z</time>
      </trkpt>
      <trkpt lat="46.53799" lon="4.84162">
        <ele>263</ele>
        <time>2022-06-25T09:26:19Z</time>
      </trkpt>
      <trkpt lat="46.53792" lon="4.8416">
        <ele>263</ele>
        <time>2022-06-25T09:26:20Z</time>
      </trkpt>
      <trkpt lat="46.53789" lon="4.8416">
        <ele>263.2</ele>
        <time>2022-06-25T09:26:21Z</time>
      </trkpt>
      <trkpt lat="46.53781" lon="4.84158">
        <ele>263.2</ele>
        <time>2022-06-25T09:26:22Z</time>
      </trkpt>
      <trkpt lat="46.53779" lon="4.84157">
        <ele>263.2</ele>
        <time>2022-06-25T09:26:23Z</time>
      </trkpt>
      <trkpt lat="46.53773" lon="4.84156">
        <ele>263.2</ele>
        <time>2022-06-25T09:26:24Z</time>
      </trkpt>
      <trkpt lat="46.53768" lon="4.84155">
        <ele>263.2</ele>
        <time>2022-06-25T09:26:25Z</time>
      </trkpt>
      <trkpt lat="46.5376" lon="4.84154">
        <ele>263.2</ele>
        <time>2022-06-25T09:26:26Z</time>
      </trkpt>
      <trkpt lat="46.53758" lon="4.84154">
        <ele>263.2</ele>
        <time>2022-06-25T09:26:27Z</time>
      </trkpt>
      <trkpt lat="46.53752" lon="4.84153">
        <ele>263.2</ele>
        <time>2022-06-25T09:26:28Z</time>
      </trkpt>
      <trkpt lat="46.53744" lon="4.84152">
        <ele>263.2</ele>
        <time>2022-06-25T09:26:29Z</time>
      </trkpt>
      <trkpt lat="46.53741" lon="4.84152">
        <ele>263.2</ele>
        <time>2022-06-25T09:26:30Z</time>
      </trkpt>
      <trkpt lat="46.53735" lon="4.84151">
        <ele>263.2</ele>
        <time>2022-06-25T09:26:31Z</time>
      </trkpt>
      <trkpt lat="46.53727" lon="4.8415">
        <ele>263.2</ele>
        <time>2022-06-25T09:26:32Z</time>
      </trkpt>
      <trkpt lat="46.53724" lon="4.8415">
        <ele>263.2</ele>
        <time>2022-06-25T09:26:33Z</time>
      </trkpt>
      <trkpt lat="46.53718" lon="4.84149">
        <ele>263.2</ele>
        <time>2022-06-25T09:26:34Z</time>
      </trkpt>
      <trkpt lat="46.5371" lon="4.84148">
        <ele>263.2</ele>
        <time>2022-06-25T09:26:35Z</time>
      </trkpt>
      <trkpt lat="46.53707" lon="4.84148">
        <ele>263.4</ele>
        <time>2022-06-25T09:26:36Z</time>
      </trkpt>
      <trkpt lat="46.53699" lon="4.84146">
        <ele>263.4</ele>
        <time>2022-06-25T09:26:37Z</time>
      </trkpt>
      <trkpt lat="46.53696" lon="4.84146">
        <ele>263.4</ele>
        <time>2022-06-25T09:26:38Z</time>
      </trkpt>
      <trkpt lat="46.5369" lon="4.84145">
        <ele>263.4</ele>
        <time>2022-06-25T09:26:39Z</time>
      </trkpt>
      <trkpt lat="46.53685" lon="4.84143">
        <ele>263.4</ele>
        <time>2022-06-25T09:26:40Z</time>
      </trkpt>
      <trkpt lat="46.53677" lon="4.84142">
        <ele>263.8</ele>
        <time>2022-06-25T09:26:41Z</time>
      </trkpt>
      <trkpt lat="46.53674" lon="4.84141">
        <ele>263.8</ele>
        <time>2022-06-25T09:26:42Z</time>
      </trkpt>
      <trkpt lat="46.53668" lon="4.8414">
        <ele>263.8</ele>
        <time>2022-06-25T09:26:43Z</time>
      </trkpt>
      <trkpt lat="46.53663" lon="4.84138">
        <ele>263.8</ele>
        <time>2022-06-25T09:26:44Z</time>
      </trkpt>
      <trkpt lat="46.53654" lon="4.84135">
        <ele>263.8</ele>
        <time>2022-06-25T09:26:45Z</time>
      </trkpt>
      <trkpt lat="46.53652" lon="4.84134">
        <ele>264</ele>
        <time>2022-06-25T09:26:46Z</time>
      </trkpt>
      <trkpt lat="46.53643" lon="4.84131">
        <ele>264</ele>
        <time>2022-06-25T09:26:47Z</time>
      </trkpt>
      <trkpt lat="46.53641" lon="4.8413">
        <ele>264</ele>
        <time>2022-06-25T09:26:48Z</time>
      </trkpt>
      <trkpt lat="46.53635" lon="4.84127">
        <ele>264</ele>
        <time>2022-06-25T09:26:49Z</time>
      </trkpt>
      <trkpt lat="46.5363" lon="4.84124">
        <ele>264</ele>
        <time>2022-06-25T09:26:50Z</time>
      </trkpt>
      <trkpt lat="46.53624" lon="4.84121">
        <ele>264</ele>
        <time>2022-06-25T09:26:51Z</time>
      </trkpt>
      <trkpt lat="46.53617" lon="4.84116">
        <ele>264</ele>
        <time>2022-06-25T09:26:52Z</time>
      </trkpt>
      <trkpt lat="46.53614" lon="4.84115">
        <ele>264</ele>
        <time>2022-06-25T09:26:53Z</time>
      </trkpt>
      <trkpt lat="46.53609" lon="4.84112">
        <ele>264</ele>
        <time>2022-06-25T09:26:54Z</time>
      </trkpt>
      <trkpt lat="46.53601" lon="4.84108">
        <ele>264.2</ele>
        <time>2022-06-25T09:26:55Z</time>
      </trkpt>
      <trkpt lat="46.53598" lon="4.84106">
        <ele>264.2</ele>
        <time>2022-06-25T09:26:56Z</time>
      </trkpt>
      <trkpt lat="46.53593" lon="4.84103">
        <ele>264.2</ele>
        <time>2022-06-25T09:26:57Z</time>
      </trkpt>
      <trkpt lat="46.53587" lon="4.841">
        <ele>264.2</ele>
        <time>2022-06-25T09:26:58Z</time>
      </trkpt>
      <trkpt lat="46.53579" lon="4.84097">
        <ele>264.4</ele>
        <time>2022-06-25T09:26:59Z</time>
      </trkpt>
      <trkpt lat="46.53576" lon="4.84096">
        <ele>264.4</ele>
        <time>2022-06-25T09:27:00Z</time>
      </trkpt>
      <trkpt lat="46.53571" lon="4.84093">
        <ele>264.6</ele>
        <time>2022-06-25T09:27:01Z</time>
      </trkpt>
      <trkpt lat="46.53566" lon="4.84091">
        <ele>264.6</ele>
        <time>2022-06-25T09:27:02Z</time>
      </trkpt>
      <trkpt lat="46.5356" lon="4.84089">
        <ele>264.6</ele>
        <time>2022-06-25T09:27:03Z</time>
      </trkpt>
      <trkpt lat="46.53555" lon="4.84087">
        <ele>264.6</ele>
        <time>2022-06-25T09:27:04Z</time>
      </trkpt>
      <trkpt lat="46.53546" lon="4.84085">
        <ele>264.8</ele>
        <time>2022-06-25T09:27:05Z</time>
      </trkpt>
      <trkpt lat="46.53543" lon="4.84084">
        <ele>264.8</ele>
        <time>2022-06-25T09:27:06Z</time>
      </trkpt>
      <trkpt lat="46.53538" lon="4.84082">
        <ele>264.8</ele>
        <time>2022-06-25T09:27:07Z</time>
      </trkpt>
      <trkpt lat="46.53532" lon="4.8408">
        <ele>264.8</ele>
        <time>2022-06-25T09:27:08Z</time>
      </trkpt>
      <trkpt lat="46.53524" lon="4.84077">
        <ele>265</ele>
        <time>2022-06-25T09:27:09Z</time>
      </trkpt>
      <trkpt lat="46.53521" lon="4.84076">
        <ele>265</ele>
        <time>2022-06-25T09:27:10Z</time>
      </trkpt>
      <trkpt lat="46.53512" lon="4.84074">
        <ele>265</ele>
        <time>2022-06-25T09:27:11Z</time>
      </trkpt>
      <trkpt lat="46.53509" lon="4.84073">
        <ele>265</ele>
        <time>2022-06-25T09:27:12Z</time>
      </trkpt>
      <trkpt lat="46.53504" lon="4.84072">
        <ele>265</ele>
        <time>2022-06-25T09:27:13Z</time>
      </trkpt>
      <trkpt lat="46.53498" lon="4.8407">
        <ele>265</ele>
        <time>2022-06-25T09:27:14Z</time>
      </trkpt>
      <trkpt lat="46.5349" lon="4.84068">
        <ele>265</ele>
        <time>2022-06-25T09:27:15Z</time>
      </trkpt>
      <trkpt lat="46.53487" lon="4.84068">
        <ele>265</ele>
        <time>2022-06-25T09:27:16Z</time>
      </trkpt>
      <trkpt lat="46.53478" lon="4.84067">
        <ele>265</ele>
        <time>2022-06-25T09:27:17Z</time>
      </trkpt>
      <trkpt lat="46.53476" lon="4.84066">
        <ele>265.2</ele>
        <time>2022-06-25T09:27:18Z</time>
      </trkpt>
      <trkpt lat="46.5347" lon="4.84066">
        <ele>265.2</ele>
        <time>2022-06-25T09:27:19Z</time>
      </trkpt>
      <trkpt lat="46.53464" lon="4.84066">
        <ele>265.4</ele>
        <time>2022-06-25T09:27:20Z</time>
      </trkpt>
      <trkpt lat="46.53459" lon="4.84066">
        <ele>265.4</ele>
        <time>2022-06-25T09:27:21Z</time>
      </trkpt>
      <trkpt lat="46.53453" lon="4.84066">
        <ele>265.4</ele>
        <time>2022-06-25T09:27:22Z</time>
      </trkpt>
      <trkpt lat="46.53445" lon="4.84065">
        <ele>265.8</ele>
        <time>2022-06-25T09:27:23Z</time>
      </trkpt>
      <trkpt lat="46.53442" lon="4.84065">
        <ele>265.8</ele>
        <time>2022-06-25T09:27:24Z</time>
      </trkpt>
      <trkpt lat="46.53436" lon="4.84065">
        <ele>265.8</ele>
        <time>2022-06-25T09:27:25Z</time>
      </trkpt>
      <trkpt lat="46.53431" lon="4.84065">
        <ele>266</ele>
        <time>2022-06-25T09:27:26Z</time>
      </trkpt>
      <trkpt lat="46.53425" lon="4.84065">
        <ele>266</ele>
        <time>2022-06-25T09:27:27Z</time>
      </trkpt>
      <trkpt lat="46.53419" lon="4.84065">
        <ele>266.2</ele>
        <time>2022-06-25T09:27:28Z</time>
      </trkpt>
      <trkpt lat="46.53411" lon="4.84065">
        <ele>266.2</ele>
        <time>2022-06-25T09:27:29Z</time>
      </trkpt>
      <trkpt lat="46.53408" lon="4.84065">
        <ele>266.2</ele>
        <time>2022-06-25T09:27:30Z</time>
      </trkpt>
      <trkpt lat="46.53402" lon="4.84065">
        <ele>266.2</ele>
        <time>2022-06-25T09:27:31Z</time>
      </trkpt>
      <trkpt lat="46.53396" lon="4.84064">
        <ele>266.2</ele>
        <time>2022-06-25T09:27:32Z</time>
      </trkpt>
      <trkpt lat="46.53387" lon="4.84063">
        <ele>266.2</ele>
        <time>2022-06-25T09:27:33Z</time>
      </trkpt>
      <trkpt lat="46.53384" lon="4.84062">
        <ele>266.2</ele>
        <time>2022-06-25T09:27:34Z</time>
      </trkpt>
      <trkpt lat="46.53375" lon="4.84061">
        <ele>266.2</ele>
        <time>2022-06-25T09:27:35Z</time>
      </trkpt>
      <trkpt lat="46.53371" lon="4.8406">
        <ele>266.2</ele>
        <time>2022-06-25T09:27:36Z</time>
      </trkpt>
      <trkpt lat="46.53365" lon="4.84059">
        <ele>266.4</ele>
        <time>2022-06-25T09:27:37Z</time>
      </trkpt>
      <trkpt lat="46.53356" lon="4.84057">
        <ele>266.4</ele>
        <time>2022-06-25T09:27:38Z</time>
      </trkpt>
      <trkpt lat="46.53353" lon="4.84056">
        <ele>266.4</ele>
        <time>2022-06-25T09:27:39Z</time>
      </trkpt>
      <trkpt lat="46.53347" lon="4.84055">
        <ele>266.4</ele>
        <time>2022-06-25T09:27:40Z</time>
      </trkpt>
      <trkpt lat="46.53338" lon="4.84052">
        <ele>266.4</ele>
        <time>2022-06-25T09:27:41Z</time>
      </trkpt>
      <trkpt lat="46.53335" lon="4.84051">
        <ele>266.4</ele>
        <time>2022-06-25T09:27:42Z</time>
      </trkpt>
      <trkpt lat="46.53326" lon="4.84048">
        <ele>266.4</ele>
        <time>2022-06-25T09:27:43Z</time>
      </trkpt>
      <trkpt lat="46.53323" lon="4.84047">
        <ele>266.4</ele>
        <time>2022-06-25T09:27:44Z</time>
      </trkpt>
      <trkpt lat="46.53313" lon="4.84045">
        <ele>266.4</ele>
        <time>2022-06-25T09:27:45Z</time>
      </trkpt>
      <trkpt lat="46.5331" lon="4.84044">
        <ele>266.4</ele>
        <time>2022-06-25T09:27:46Z</time>
      </trkpt>
      <trkpt lat="46.53304" lon="4.84042">
        <ele>266.4</ele>
        <time>2022-06-25T09:27:47Z</time>
      </trkpt>
      <trkpt lat="46.53298" lon="4.8404">
        <ele>266.4</ele>
        <time>2022-06-25T09:27:48Z</time>
      </trkpt>
      <trkpt lat="46.53291" lon="4.84037">
        <ele>266.4</ele>
        <time>2022-06-25T09:27:49Z</time>
      </trkpt>
      <trkpt lat="46.53282" lon="4.84033">
        <ele>266.4</ele>
        <time>2022-06-25T09:27:50Z</time>
      </trkpt>
      <trkpt lat="46.53279" lon="4.84032">
        <ele>266.6</ele>
        <time>2022-06-25T09:27:51Z</time>
      </trkpt>
      <trkpt lat="46.5327" lon="4.84028">
        <ele>266.6</ele>
        <time>2022-06-25T09:27:52Z</time>
      </trkpt>
      <trkpt lat="46.53267" lon="4.84026">
        <ele>266.6</ele>
        <time>2022-06-25T09:27:53Z</time>
      </trkpt>
      <trkpt lat="46.53259" lon="4.84022">
        <ele>266.6</ele>
        <time>2022-06-25T09:27:54Z</time>
      </trkpt>
      <trkpt lat="46.53256" lon="4.8402">
        <ele>266.6</ele>
        <time>2022-06-25T09:27:55Z</time>
      </trkpt>
      <trkpt lat="46.53249" lon="4.84017">
        <ele>266.6</ele>
        <time>2022-06-25T09:27:56Z</time>
      </trkpt>
      <trkpt lat="46.53243" lon="4.84014">
        <ele>266.6</ele>
        <time>2022-06-25T09:27:57Z</time>
      </trkpt>
      <trkpt lat="46.53237" lon="4.84011">
        <ele>266.6</ele>
        <time>2022-06-25T09:27:58Z</time>
      </trkpt>
      <trkpt lat="46.53231" lon="4.84008">
        <ele>266.6</ele>
        <time>2022-06-25T09:27:59Z</time>
      </trkpt>
      <trkpt lat="46.53221" lon="4.84003">
        <ele>266.4</ele>
        <time>2022-06-25T09:28:00Z</time>
      </trkpt>
      <trkpt lat="46.53218" lon="4.84001">
        <ele>266.4</ele>
        <time>2022-06-25T09:28:01Z</time>
      </trkpt>
      <trkpt lat="46.53209" lon="4.83996">
        <ele>266</ele>
        <time>2022-06-25T09:28:02Z</time>
      </trkpt>
      <trkpt lat="46.53205" lon="4.83994">
        <ele>266</ele>
        <time>2022-06-25T09:28:03Z</time>
      </trkpt>
      <trkpt lat="46.53199" lon="4.8399">
        <ele>266</ele>
        <time>2022-06-25T09:28:04Z</time>
      </trkpt>
      <trkpt lat="46.53192" lon="4.83987">
        <ele>266</ele>
        <time>2022-06-25T09:28:05Z</time>
      </trkpt>
      <trkpt lat="46.53186" lon="4.83983">
        <ele>266</ele>
        <time>2022-06-25T09:28:06Z</time>
      </trkpt>
      <trkpt lat="46.53179" lon="4.8398">
        <ele>265.8</ele>
        <time>2022-06-25T09:28:07Z</time>
      </trkpt>
      <trkpt lat="46.53173" lon="4.83976">
        <ele>265.8</ele>
        <time>2022-06-25T09:28:08Z</time>
      </trkpt>
      <trkpt lat="46.5316" lon="4.83969">
        <ele>265.8</ele>
        <time>2022-06-25T09:28:10Z</time>
      </trkpt>
      <trkpt lat="46.53153" lon="4.83965">
        <ele>265.6</ele>
        <time>2022-06-25T09:28:11Z</time>
      </trkpt>
      <trkpt lat="46.53147" lon="4.83962">
        <ele>265.6</ele>
        <time>2022-06-25T09:28:12Z</time>
      </trkpt>
      <trkpt lat="46.5314" lon="4.83958">
        <ele>265.6</ele>
        <time>2022-06-25T09:28:13Z</time>
      </trkpt>
      <trkpt lat="46.5313" lon="4.83953">
        <ele>265.6</ele>
        <time>2022-06-25T09:28:14Z</time>
      </trkpt>
      <trkpt lat="46.53127" lon="4.83951">
        <ele>265.6</ele>
        <time>2022-06-25T09:28:15Z</time>
      </trkpt>
      <trkpt lat="46.53121" lon="4.83948">
        <ele>265.6</ele>
        <time>2022-06-25T09:28:16Z</time>
      </trkpt>
      <trkpt lat="46.53115" lon="4.83945">
        <ele>265.6</ele>
        <time>2022-06-25T09:28:17Z</time>
      </trkpt>
      <trkpt lat="46.53109" lon="4.83942">
        <ele>265.6</ele>
        <time>2022-06-25T09:28:18Z</time>
      </trkpt>
      <trkpt lat="46.53103" lon="4.83939">
        <ele>265.6</ele>
        <time>2022-06-25T09:28:19Z</time>
      </trkpt>
      <trkpt lat="46.53097" lon="4.83935">
        <ele>265.6</ele>
        <time>2022-06-25T09:28:20Z</time>
      </trkpt>
      <trkpt lat="46.53092" lon="4.83932">
        <ele>265.6</ele>
        <time>2022-06-25T09:28:21Z</time>
      </trkpt>
      <trkpt lat="46.53086" lon="4.83929">
        <ele>265.6</ele>
        <time>2022-06-25T09:28:22Z</time>
      </trkpt>
      <trkpt lat="46.53078" lon="4.83924">
        <ele>265.6</ele>
        <time>2022-06-25T09:28:23Z</time>
      </trkpt>
      <trkpt lat="46.53076" lon="4.83923">
        <ele>265.6</ele>
        <time>2022-06-25T09:28:24Z</time>
      </trkpt>
      <trkpt lat="46.53068" lon="4.8392">
        <ele>265.6</ele>
        <time>2022-06-25T09:28:25Z</time>
      </trkpt>
      <trkpt lat="46.53066" lon="4.8392">
        <ele>265.8</ele>
        <time>2022-06-25T09:28:26Z</time>
      </trkpt>
      <trkpt lat="46.53059" lon="4.83922">
        <ele>265.8</ele>
        <time>2022-06-25T09:28:27Z</time>
      </trkpt>
      <trkpt lat="46.53057" lon="4.83923">
        <ele>266.2</ele>
        <time>2022-06-25T09:28:28Z</time>
      </trkpt>
      <trkpt lat="46.53054" lon="4.83926">
        <ele>266.2</ele>
        <time>2022-06-25T09:28:29Z</time>
      </trkpt>
      <trkpt lat="46.53051" lon="4.83931">
        <ele>266.4</ele>
        <time>2022-06-25T09:28:30Z</time>
      </trkpt>
      <trkpt lat="46.53049" lon="4.83937">
        <ele>266.4</ele>
        <time>2022-06-25T09:28:31Z</time>
      </trkpt>
      <trkpt lat="46.53046" lon="4.83942">
        <ele>266.4</ele>
        <time>2022-06-25T09:28:32Z</time>
      </trkpt>
      <trkpt lat="46.53042" lon="4.83951">
        <ele>266.4</ele>
        <time>2022-06-25T09:28:33Z</time>
      </trkpt>
      <trkpt lat="46.53041" lon="4.83954">
        <ele>266.6</ele>
        <time>2022-06-25T09:28:34Z</time>
      </trkpt>
      <trkpt lat="46.53039" lon="4.8396">
        <ele>266.6</ele>
        <time>2022-06-25T09:28:35Z</time>
      </trkpt>
      <trkpt lat="46.53034" lon="4.8397">
        <ele>266.6</ele>
        <time>2022-06-25T09:28:36Z</time>
      </trkpt>
      <trkpt lat="46.53032" lon="4.83975">
        <ele>266.6</ele>
        <time>2022-06-25T09:28:37Z</time>
      </trkpt>
      <trkpt lat="46.5303" lon="4.83979">
        <ele>266.8</ele>
        <time>2022-06-25T09:28:38Z</time>
      </trkpt>
      <trkpt lat="46.53028" lon="4.83983">
        <ele>266.8</ele>
        <time>2022-06-25T09:28:39Z</time>
      </trkpt>
      <trkpt lat="46.53025" lon="4.83986">
        <ele>267.2</ele>
        <time>2022-06-25T09:28:40Z</time>
      </trkpt>
      <trkpt lat="46.53023" lon="4.83989">
        <ele>267.2</ele>
        <time>2022-06-25T09:28:41Z</time>
      </trkpt>
      <trkpt lat="46.53021" lon="4.83992">
        <ele>267.2</ele>
        <time>2022-06-25T09:28:42Z</time>
      </trkpt>
      <trkpt lat="46.53018" lon="4.83994">
        <ele>267.2</ele>
        <time>2022-06-25T09:28:43Z</time>
      </trkpt>
      <trkpt lat="46.53016" lon="4.83997">
        <ele>267.4</ele>
        <time>2022-06-25T09:28:44Z</time>
      </trkpt>
      <trkpt lat="46.53014" lon="4.83999">
        <ele>267.4</ele>
        <time>2022-06-25T09:28:45Z</time>
      </trkpt>
      <trkpt lat="46.53011" lon="4.84001">
        <ele>267.4</ele>
        <time>2022-06-25T09:28:46Z</time>
      </trkpt>
      <trkpt lat="46.53008" lon="4.84003">
        <ele>267.4</ele>
        <time>2022-06-25T09:28:47Z</time>
      </trkpt>
      <trkpt lat="46.53006" lon="4.84005">
        <ele>267.4</ele>
        <time>2022-06-25T09:28:48Z</time>
      </trkpt>
      <trkpt lat="46.53004" lon="4.84006">
        <ele>267.4</ele>
        <time>2022-06-25T09:28:49Z</time>
      </trkpt>
      <trkpt lat="46.53001" lon="4.84007">
        <ele>267.4</ele>
        <time>2022-06-25T09:28:50Z</time>
      </trkpt>
      <trkpt lat="46.52999" lon="4.84008">
        <ele>267.4</ele>
        <time>2022-06-25T09:28:51Z</time>
      </trkpt>
      <trkpt lat="46.52997" lon="4.84008">
        <ele>267.4</ele>
        <time>2022-06-25T09:28:52Z</time>
      </trkpt>
      <trkpt lat="46.52996" lon="4.84009">
        <ele>267.4</ele>
        <time>2022-06-25T09:28:53Z</time>
      </trkpt>
      <trkpt lat="46.52994" lon="4.84009">
        <ele>267.4</ele>
        <time>2022-06-25T09:28:54Z</time>
      </trkpt>
      <trkpt lat="46.52992" lon="4.8401">
        <ele>267.4</ele>
        <time>2022-06-25T09:28:55Z</time>
      </trkpt>
      <trkpt lat="46.5299" lon="4.8401">
        <ele>267.6</ele>
        <time>2022-06-25T09:28:56Z</time>
      </trkpt>
      <trkpt lat="46.52988" lon="4.8401">
        <ele>267.6</ele>
        <time>2022-06-25T09:28:57Z</time>
      </trkpt>
      <trkpt lat="46.52986" lon="4.84011">
        <ele>267.6</ele>
        <time>2022-06-25T09:28:58Z</time>
      </trkpt>
      <trkpt lat="46.52984" lon="4.8401">
        <ele>267.8</ele>
        <time>2022-06-25T09:28:59Z</time>
      </trkpt>
      <trkpt lat="46.52982" lon="4.8401">
        <ele>267.8</ele>
        <time>2022-06-25T09:29:00Z</time>
      </trkpt>
      <trkpt lat="46.52979" lon="4.8401">
        <ele>267.8</ele>
        <time>2022-06-25T09:29:01Z</time>
      </trkpt>
      <trkpt lat="46.52977" lon="4.84011">
        <ele>267.8</ele>
        <time>2022-06-25T09:29:02Z</time>
      </trkpt>
      <trkpt lat="46.52974" lon="4.84011">
        <ele>267.8</ele>
        <time>2022-06-25T09:29:03Z</time>
      </trkpt>
      <trkpt lat="46.52971" lon="4.84011">
        <ele>268</ele>
        <time>2022-06-25T09:29:04Z</time>
      </trkpt>
      <trkpt lat="46.52968" lon="4.84012">
        <ele>268</ele>
        <time>2022-06-25T09:29:05Z</time>
      </trkpt>
      <trkpt lat="46.52965" lon="4.84012">
        <ele>268</ele>
        <time>2022-06-25T09:29:06Z</time>
      </trkpt>
      <trkpt lat="46.52961" lon="4.84013">
        <ele>268</ele>
        <time>2022-06-25T09:29:07Z</time>
      </trkpt>
      <trkpt lat="46.52958" lon="4.84013">
        <ele>268</ele>
        <time>2022-06-25T09:29:08Z</time>
      </trkpt>
      <trkpt lat="46.52954" lon="4.84013">
        <ele>268</ele>
        <time>2022-06-25T09:29:09Z</time>
      </trkpt>
      <trkpt lat="46.5295" lon="4.84014">
        <ele>268.2</ele>
        <time>2022-06-25T09:29:10Z</time>
      </trkpt>
      <trkpt lat="46.52946" lon="4.84015">
        <ele>268.2</ele>
        <time>2022-06-25T09:29:11Z</time>
      </trkpt>
      <trkpt lat="46.52943" lon="4.84015">
        <ele>268.4</ele>
        <time>2022-06-25T09:29:12Z</time>
      </trkpt>
      <trkpt lat="46.52938" lon="4.84016">
        <ele>268.4</ele>
        <time>2022-06-25T09:29:13Z</time>
      </trkpt>
      <trkpt lat="46.52934" lon="4.84017">
        <ele>268.6</ele>
        <time>2022-06-25T09:29:14Z</time>
      </trkpt>
      <trkpt lat="46.5293" lon="4.84017">
        <ele>268.6</ele>
        <time>2022-06-25T09:29:15Z</time>
      </trkpt>
      <trkpt lat="46.52926" lon="4.84018">
        <ele>268.8</ele>
        <time>2022-06-25T09:29:16Z</time>
      </trkpt>
      <trkpt lat="46.52921" lon="4.84019">
        <ele>268.8</ele>
        <time>2022-06-25T09:29:17Z</time>
      </trkpt>
      <trkpt lat="46.52917" lon="4.84019">
        <ele>268.8</ele>
        <time>2022-06-25T09:29:18Z</time>
      </trkpt>
      <trkpt lat="46.52913" lon="4.84019">
        <ele>268.8</ele>
        <time>2022-06-25T09:29:19Z</time>
      </trkpt>
      <trkpt lat="46.52908" lon="4.84019">
        <ele>269</ele>
        <time>2022-06-25T09:29:20Z</time>
      </trkpt>
      <trkpt lat="46.52904" lon="4.8402">
        <ele>269</ele>
        <time>2022-06-25T09:29:21Z</time>
      </trkpt>
      <trkpt lat="46.52899" lon="4.8402">
        <ele>269.4</ele>
        <time>2022-06-25T09:29:22Z</time>
      </trkpt>
      <trkpt lat="46.52895" lon="4.84021">
        <ele>269.4</ele>
        <time>2022-06-25T09:29:23Z</time>
      </trkpt>
      <trkpt lat="46.5289" lon="4.84022">
        <ele>269.6</ele>
        <time>2022-06-25T09:29:24Z</time>
      </trkpt>
      <trkpt lat="46.52885" lon="4.84022">
        <ele>269.6</ele>
        <time>2022-06-25T09:29:25Z</time>
      </trkpt>
      <trkpt lat="46.52881" lon="4.84022">
        <ele>269.6</ele>
        <time>2022-06-25T09:29:26Z</time>
      </trkpt>
      <trkpt lat="46.52876" lon="4.84023">
        <ele>269.8</ele>
        <time>2022-06-25T09:29:27Z</time>
      </trkpt>
      <trkpt lat="46.52871" lon="4.84023">
        <ele>269.8</ele>
        <time>2022-06-25T09:29:28Z</time>
      </trkpt>
      <trkpt lat="46.52867" lon="4.84024">
        <ele>269.8</ele>
        <time>2022-06-25T09:29:29Z</time>
      </trkpt>
      <trkpt lat="46.52862" lon="4.84024">
        <ele>270</ele>
        <time>2022-06-25T09:29:30Z</time>
      </trkpt>
      <trkpt lat="46.52858" lon="4.84024">
        <ele>270</ele>
        <time>2022-06-25T09:29:31Z</time>
      </trkpt>
      <trkpt lat="46.52854" lon="4.84024">
        <ele>270</ele>
        <time>2022-06-25T09:29:32Z</time>
      </trkpt>
      <trkpt lat="46.52849" lon="4.84024">
        <ele>270</ele>
        <time>2022-06-25T09:29:33Z</time>
      </trkpt>
      <trkpt lat="46.52845" lon="4.84023">
        <ele>270</ele>
        <time>2022-06-25T09:29:34Z</time>
      </trkpt>
      <trkpt lat="46.5284" lon="4.84023">
        <ele>270.4</ele>
        <time>2022-06-25T09:29:35Z</time>
      </trkpt>
      <trkpt lat="46.52836" lon="4.84023">
        <ele>270.4</ele>
        <time>2022-06-25T09:29:36Z</time>
      </trkpt>
      <trkpt lat="46.52831" lon="4.84022">
        <ele>270.4</ele>
        <time>2022-06-25T09:29:37Z</time>
      </trkpt>
      <trkpt lat="46.52826" lon="4.84021">
        <ele>270.4</ele>
        <time>2022-06-25T09:29:38Z</time>
      </trkpt>
      <trkpt lat="46.52821" lon="4.8402">
        <ele>270.6</ele>
        <time>2022-06-25T09:29:39Z</time>
      </trkpt>
      <trkpt lat="46.52816" lon="4.84019">
        <ele>270.6</ele>
        <time>2022-06-25T09:29:40Z</time>
      </trkpt>
      <trkpt lat="46.52811" lon="4.84019">
        <ele>270.6</ele>
        <time>2022-06-25T09:29:41Z</time>
      </trkpt>
      <trkpt lat="46.52806" lon="4.84018">
        <ele>271</ele>
        <time>2022-06-25T09:29:42Z</time>
      </trkpt>
      <trkpt lat="46.52801" lon="4.84017">
        <ele>271</ele>
        <time>2022-06-25T09:29:43Z</time>
      </trkpt>
      <trkpt lat="46.52797" lon="4.84017">
        <ele>271</ele>
        <time>2022-06-25T09:29:44Z</time>
      </trkpt>
      <trkpt lat="46.52792" lon="4.84016">
        <ele>271.4</ele>
        <time>2022-06-25T09:29:45Z</time>
      </trkpt>
      <trkpt lat="46.52788" lon="4.84016">
        <ele>271.4</ele>
        <time>2022-06-25T09:29:46Z</time>
      </trkpt>
      <trkpt lat="46.52783" lon="4.84015">
        <ele>271.4</ele>
        <time>2022-06-25T09:29:47Z</time>
      </trkpt>
      <trkpt lat="46.52779" lon="4.84014">
        <ele>271.6</ele>
        <time>2022-06-25T09:29:48Z</time>
      </trkpt>
      <trkpt lat="46.52775" lon="4.84013">
        <ele>271.6</ele>
        <time>2022-06-25T09:29:49Z</time>
      </trkpt>
      <trkpt lat="46.52771" lon="4.84012">
        <ele>271.6</ele>
        <time>2022-06-25T09:29:50Z</time>
      </trkpt>
      <trkpt lat="46.52767" lon="4.84011">
        <ele>272</ele>
        <time>2022-06-25T09:29:51Z</time>
      </trkpt>
      <trkpt lat="46.52762" lon="4.8401">
        <ele>272</ele>
        <time>2022-06-25T09:29:52Z</time>
      </trkpt>
      <trkpt lat="46.52758" lon="4.84009">
        <ele>272</ele>
        <time>2022-06-25T09:29:53Z</time>
      </trkpt>
      <trkpt lat="46.52754" lon="4.84009">
        <ele>272.2</ele>
        <time>2022-06-25T09:29:54Z</time>
      </trkpt>
      <trkpt lat="46.5275" lon="4.84008">
        <ele>272.2</ele>
        <time>2022-06-25T09:29:55Z</time>
      </trkpt>
      <trkpt lat="46.52746" lon="4.84007">
        <ele>272.4</ele>
        <time>2022-06-25T09:29:56Z</time>
      </trkpt>
      <trkpt lat="46.52741" lon="4.84006">
        <ele>272.4</ele>
        <time>2022-06-25T09:29:57Z</time>
      </trkpt>
      <trkpt lat="46.52737" lon="4.84005">
        <ele>272.6</ele>
        <time>2022-06-25T09:29:58Z</time>
      </trkpt>
      <trkpt lat="46.52733" lon="4.84004">
        <ele>272.6</ele>
        <time>2022-06-25T09:29:59Z</time>
      </trkpt>
      <trkpt lat="46.52729" lon="4.84004">
        <ele>272.6</ele>
        <time>2022-06-25T09:30:00Z</time>
      </trkpt>
      <trkpt lat="46.52724" lon="4.84003">
        <ele>273</ele>
        <time>2022-06-25T09:30:01Z</time>
      </trkpt>
      <trkpt lat="46.5272" lon="4.84002">
        <ele>273</ele>
        <time>2022-06-25T09:30:02Z</time>
      </trkpt>
      <trkpt lat="46.52716" lon="4.84002">
        <ele>273.2</ele>
        <time>2022-06-25T09:30:03Z</time>
      </trkpt>
      <trkpt lat="46.52712" lon="4.84001">
        <ele>273.2</ele>
        <time>2022-06-25T09:30:04Z</time>
      </trkpt>
      <trkpt lat="46.52708" lon="4.84">
        <ele>273.6</ele>
        <time>2022-06-25T09:30:05Z</time>
      </trkpt>
      <trkpt lat="46.52704" lon="4.83999">
        <ele>273.6</ele>
        <time>2022-06-25T09:30:06Z</time>
      </trkpt>
      <trkpt lat="46.527" lon="4.83998">
        <ele>273.8</ele>
        <time>2022-06-25T09:30:07Z</time>
      </trkpt>
      <trkpt lat="46.52696" lon="4.83998">
        <ele>273.8</ele>
        <time>2022-06-25T09:30:08Z</time>
      </trkpt>
      <trkpt lat="46.52692" lon="4.83997">
        <ele>274.2</ele>
        <time>2022-06-25T09:30:09Z</time>
      </trkpt>
      <trkpt lat="46.52688" lon="4.83996">
        <ele>274.2</ele>
        <time>2022-06-25T09:30:10Z</time>
      </trkpt>
      <trkpt lat="46.52684" lon="4.83995">
        <ele>274.2</ele>
        <time>2022-06-25T09:30:11Z</time>
      </trkpt>
      <trkpt lat="46.5268" lon="4.83994">
        <ele>274.4</ele>
        <time>2022-06-25T09:30:12Z</time>
      </trkpt>
      <trkpt lat="46.52676" lon="4.83994">
        <ele>274.4</ele>
        <time>2022-06-25T09:30:13Z</time>
      </trkpt>
      <trkpt lat="46.52672" lon="4.83993">
        <ele>274.8</ele>
        <time>2022-06-25T09:30:14Z</time>
      </trkpt>
      <trkpt lat="46.52668" lon="4.83993">
        <ele>274.8</ele>
        <time>2022-06-25T09:30:15Z</time>
      </trkpt>
      <trkpt lat="46.52664" lon="4.83991">
        <ele>275</ele>
        <time>2022-06-25T09:30:16Z</time>
      </trkpt>
      <trkpt lat="46.5266" lon="4.8399">
        <ele>275</ele>
        <time>2022-06-25T09:30:17Z</time>
      </trkpt>
      <trkpt lat="46.52657" lon="4.83989">
        <ele>275.4</ele>
        <time>2022-06-25T09:30:18Z</time>
      </trkpt>
      <trkpt lat="46.52652" lon="4.83987">
        <ele>275.4</ele>
        <time>2022-06-25T09:30:19Z</time>
      </trkpt>
      <trkpt lat="46.52648" lon="4.83987">
        <ele>275.6</ele>
        <time>2022-06-25T09:30:20Z</time>
      </trkpt>
      <trkpt lat="46.52644" lon="4.83986">
        <ele>275.6</ele>
        <time>2022-06-25T09:30:21Z</time>
      </trkpt>
      <trkpt lat="46.5264" lon="4.83986">
        <ele>275.8</ele>
        <time>2022-06-25T09:30:22Z</time>
      </trkpt>
      <trkpt lat="46.52636" lon="4.83985">
        <ele>275.8</ele>
        <time>2022-06-25T09:30:23Z</time>
      </trkpt>
      <trkpt lat="46.52631" lon="4.83984">
        <ele>276.2</ele>
        <time>2022-06-25T09:30:24Z</time>
      </trkpt>
      <trkpt lat="46.52627" lon="4.83984">
        <ele>276.2</ele>
        <time>2022-06-25T09:30:25Z</time>
      </trkpt>
      <trkpt lat="46.52623" lon="4.83983">
        <ele>276.6</ele>
        <time>2022-06-25T09:30:27Z</time>
      </trkpt>
      <trkpt lat="46.52618" lon="4.83982">
        <ele>276.8</ele>
        <time>2022-06-25T09:30:28Z</time>
      </trkpt>
      <trkpt lat="46.52614" lon="4.83981">
        <ele>276.8</ele>
        <time>2022-06-25T09:30:29Z</time>
      </trkpt>
      <trkpt lat="46.5261" lon="4.8398">
        <ele>277.2</ele>
        <time>2022-06-25T09:30:30Z</time>
      </trkpt>
      <trkpt lat="46.52606" lon="4.83979">
        <ele>277.2</ele>
        <time>2022-06-25T09:30:31Z</time>
      </trkpt>
      <trkpt lat="46.52602" lon="4.83979">
        <ele>277.4</ele>
        <time>2022-06-25T09:30:32Z</time>
      </trkpt>
      <trkpt lat="46.52597" lon="4.83978">
        <ele>277.4</ele>
        <time>2022-06-25T09:30:33Z</time>
      </trkpt>
      <trkpt lat="46.52593" lon="4.83977">
        <ele>277.4</ele>
        <time>2022-06-25T09:30:34Z</time>
      </trkpt>
      <trkpt lat="46.52589" lon="4.83976">
        <ele>277.6</ele>
        <time>2022-06-25T09:30:35Z</time>
      </trkpt>
      <trkpt lat="46.52584" lon="4.83975">
        <ele>277.6</ele>
        <time>2022-06-25T09:30:36Z</time>
      </trkpt>
      <trkpt lat="46.5258" lon="4.83974">
        <ele>277.8</ele>
        <time>2022-06-25T09:30:37Z</time>
      </trkpt>
      <trkpt lat="46.52576" lon="4.83972">
        <ele>277.8</ele>
        <time>2022-06-25T09:30:38Z</time>
      </trkpt>
      <trkpt lat="46.52571" lon="4.83971">
        <ele>278.2</ele>
        <time>2022-06-25T09:30:39Z</time>
      </trkpt>
      <trkpt lat="46.52567" lon="4.83969">
        <ele>278.2</ele>
        <time>2022-06-25T09:30:40Z</time>
      </trkpt>
      <trkpt lat="46.52563" lon="4.83967">
        <ele>278.2</ele>
        <time>2022-06-25T09:30:41Z</time>
      </trkpt>
      <trkpt lat="46.52559" lon="4.83965">
        <ele>278.6</ele>
        <time>2022-06-25T09:30:42Z</time>
      </trkpt>
      <trkpt lat="46.52555" lon="4.83963">
        <ele>278.6</ele>
        <time>2022-06-25T09:30:43Z</time>
      </trkpt>
      <trkpt lat="46.52551" lon="4.83961">
        <ele>278.8</ele>
        <time>2022-06-25T09:30:44Z</time>
      </trkpt>
      <trkpt lat="46.52547" lon="4.83959">
        <ele>278.8</ele>
        <time>2022-06-25T09:30:45Z</time>
      </trkpt>
      <trkpt lat="46.52543" lon="4.83957">
        <ele>279</ele>
        <time>2022-06-25T09:30:46Z</time>
      </trkpt>
      <trkpt lat="46.52539" lon="4.83954">
        <ele>279</ele>
        <time>2022-06-25T09:30:47Z</time>
      </trkpt>
      <trkpt lat="46.52535" lon="4.83951">
        <ele>279</ele>
        <time>2022-06-25T09:30:48Z</time>
      </trkpt>
      <trkpt lat="46.52531" lon="4.83949">
        <ele>279</ele>
        <time>2022-06-25T09:30:49Z</time>
      </trkpt>
      <trkpt lat="46.52527" lon="4.83947">
        <ele>279</ele>
        <time>2022-06-25T09:30:50Z</time>
      </trkpt>
      <trkpt lat="46.52524" lon="4.83944">
        <ele>279.2</ele>
        <time>2022-06-25T09:30:51Z</time>
      </trkpt>
      <trkpt lat="46.5252" lon="4.83941">
        <ele>279.2</ele>
        <time>2022-06-25T09:30:52Z</time>
      </trkpt>
      <trkpt lat="46.52517" lon="4.83938">
        <ele>279.4</ele>
        <time>2022-06-25T09:30:53Z</time>
      </trkpt>
      <trkpt lat="46.52513" lon="4.83935">
        <ele>279.4</ele>
        <time>2022-06-25T09:30:54Z</time>
      </trkpt>
      <trkpt lat="46.52509" lon="4.83932">
        <ele>279.8</ele>
        <time>2022-06-25T09:30:55Z</time>
      </trkpt>
      <trkpt lat="46.52506" lon="4.8393">
        <ele>279.8</ele>
        <time>2022-06-25T09:30:56Z</time>
      </trkpt>
      <trkpt lat="46.52502" lon="4.83927">
        <ele>280</ele>
        <time>2022-06-25T09:30:57Z</time>
      </trkpt>
      <trkpt lat="46.52499" lon="4.83925">
        <ele>280</ele>
        <time>2022-06-25T09:30:58Z</time>
      </trkpt>
      <trkpt lat="46.52495" lon="4.83922">
        <ele>280.2</ele>
        <time>2022-06-25T09:30:59Z</time>
      </trkpt>
      <trkpt lat="46.52492" lon="4.8392">
        <ele>280.2</ele>
        <time>2022-06-25T09:31:00Z</time>
      </trkpt>
      <trkpt lat="46.52488" lon="4.83917">
        <ele>280.6</ele>
        <time>2022-06-25T09:31:01Z</time>
      </trkpt>
      <trkpt lat="46.52484" lon="4.83914">
        <ele>280.6</ele>
        <time>2022-06-25T09:31:02Z</time>
      </trkpt>
      <trkpt lat="46.52481" lon="4.83911">
        <ele>280.8</ele>
        <time>2022-06-25T09:31:03Z</time>
      </trkpt>
      <trkpt lat="46.52477" lon="4.83909">
        <ele>280.8</ele>
        <time>2022-06-25T09:31:04Z</time>
      </trkpt>
      <trkpt lat="46.52473" lon="4.83906">
        <ele>281</ele>
        <time>2022-06-25T09:31:05Z</time>
      </trkpt>
      <trkpt lat="46.5247" lon="4.83903">
        <ele>281</ele>
        <time>2022-06-25T09:31:06Z</time>
      </trkpt>
      <trkpt lat="46.52466" lon="4.839">
        <ele>281.4</ele>
        <time>2022-06-25T09:31:07Z</time>
      </trkpt>
      <trkpt lat="46.52462" lon="4.83898">
        <ele>281.4</ele>
        <time>2022-06-25T09:31:08Z</time>
      </trkpt>
      <trkpt lat="46.52458" lon="4.83895">
        <ele>281.8</ele>
        <time>2022-06-25T09:31:09Z</time>
      </trkpt>
      <trkpt lat="46.52455" lon="4.83893">
        <ele>281.8</ele>
        <time>2022-06-25T09:31:10Z</time>
      </trkpt>
      <trkpt lat="46.52451" lon="4.8389">
        <ele>282</ele>
        <time>2022-06-25T09:31:11Z</time>
      </trkpt>
      <trkpt lat="46.52447" lon="4.83887">
        <ele>282</ele>
        <time>2022-06-25T09:31:12Z</time>
      </trkpt>
      <trkpt lat="46.52444" lon="4.83884">
        <ele>282.2</ele>
        <time>2022-06-25T09:31:13Z</time>
      </trkpt>
      <trkpt lat="46.5244" lon="4.83881">
        <ele>282.2</ele>
        <time>2022-06-25T09:31:14Z</time>
      </trkpt>
      <trkpt lat="46.52437" lon="4.83878">
        <ele>282.2</ele>
        <time>2022-06-25T09:31:15Z</time>
      </trkpt>
      <trkpt lat="46.52433" lon="4.83875">
        <ele>282.4</ele>
        <time>2022-06-25T09:31:16Z</time>
      </trkpt>
      <trkpt lat="46.5243" lon="4.83871">
        <ele>282.4</ele>
        <time>2022-06-25T09:31:17Z</time>
      </trkpt>
      <trkpt lat="46.52426" lon="4.83868">
        <ele>282.8</ele>
        <time>2022-06-25T09:31:18Z</time>
      </trkpt>
      <trkpt lat="46.52423" lon="4.83866">
        <ele>282.8</ele>
        <time>2022-06-25T09:31:19Z</time>
      </trkpt>
      <trkpt lat="46.52419" lon="4.83863">
        <ele>282.8</ele>
        <time>2022-06-25T09:31:20Z</time>
      </trkpt>
      <trkpt lat="46.52415" lon="4.8386">
        <ele>283</ele>
        <time>2022-06-25T09:31:21Z</time>
      </trkpt>
      <trkpt lat="46.52411" lon="4.83857">
        <ele>283</ele>
        <time>2022-06-25T09:31:22Z</time>
      </trkpt>
      <trkpt lat="46.52408" lon="4.83854">
        <ele>283.4</ele>
        <time>2022-06-25T09:31:23Z</time>
      </trkpt>
      <trkpt lat="46.52404" lon="4.83852">
        <ele>283.4</ele>
        <time>2022-06-25T09:31:24Z</time>
      </trkpt>
      <trkpt lat="46.524" lon="4.83849">
        <ele>283.4</ele>
        <time>2022-06-25T09:31:25Z</time>
      </trkpt>
      <trkpt lat="46.52396" lon="4.83847">
        <ele>283.6</ele>
        <time>2022-06-25T09:31:26Z</time>
      </trkpt>
      <trkpt lat="46.52392" lon="4.83845">
        <ele>283.6</ele>
        <time>2022-06-25T09:31:27Z</time>
      </trkpt>
      <trkpt lat="46.52388" lon="4.83844">
        <ele>284</ele>
        <time>2022-06-25T09:31:28Z</time>
      </trkpt>
      <trkpt lat="46.52384" lon="4.83843">
        <ele>284</ele>
        <time>2022-06-25T09:31:29Z</time>
      </trkpt>
      <trkpt lat="46.5238" lon="4.83844">
        <ele>284.2</ele>
        <time>2022-06-25T09:31:30Z</time>
      </trkpt>
      <trkpt lat="46.52377" lon="4.83847">
        <ele>284.2</ele>
        <time>2022-06-25T09:31:31Z</time>
      </trkpt>
      <trkpt lat="46.52374" lon="4.8385">
        <ele>284.4</ele>
        <time>2022-06-25T09:31:32Z</time>
      </trkpt>
      <trkpt lat="46.52371" lon="4.83854">
        <ele>284.6</ele>
        <time>2022-06-25T09:31:33Z</time>
      </trkpt>
      <trkpt lat="46.52368" lon="4.83858">
        <ele>284.6</ele>
        <time>2022-06-25T09:31:34Z</time>
      </trkpt>
      <trkpt lat="46.52365" lon="4.83861">
        <ele>285</ele>
        <time>2022-06-25T09:31:35Z</time>
      </trkpt>
      <trkpt lat="46.52361" lon="4.83863">
        <ele>285.2</ele>
        <time>2022-06-25T09:31:36Z</time>
      </trkpt>
      <trkpt lat="46.52357" lon="4.83865">
        <ele>285.4</ele>
        <time>2022-06-25T09:31:37Z</time>
      </trkpt>
      <trkpt lat="46.52354" lon="4.83865">
        <ele>285.4</ele>
        <time>2022-06-25T09:31:38Z</time>
      </trkpt>
      <trkpt lat="46.5235" lon="4.83864">
        <ele>285.8</ele>
        <time>2022-06-25T09:31:39Z</time>
      </trkpt>
      <trkpt lat="46.52347" lon="4.83862">
        <ele>285.8</ele>
        <time>2022-06-25T09:31:40Z</time>
      </trkpt>
      <trkpt lat="46.52344" lon="4.8386">
        <ele>286.2</ele>
        <time>2022-06-25T09:31:41Z</time>
      </trkpt>
      <trkpt lat="46.5234" lon="4.83858">
        <ele>286.2</ele>
        <time>2022-06-25T09:31:42Z</time>
      </trkpt>
      <trkpt lat="46.52337" lon="4.83855">
        <ele>286.6</ele>
        <time>2022-06-25T09:31:43Z</time>
      </trkpt>
      <trkpt lat="46.52333" lon="4.83853">
        <ele>286.6</ele>
        <time>2022-06-25T09:31:44Z</time>
      </trkpt>
      <trkpt lat="46.5233" lon="4.8385">
        <ele>287</ele>
        <time>2022-06-25T09:31:45Z</time>
      </trkpt>
      <trkpt lat="46.52326" lon="4.83847">
        <ele>287</ele>
        <time>2022-06-25T09:31:46Z</time>
      </trkpt>
      <trkpt lat="46.52322" lon="4.83845">
        <ele>287.2</ele>
        <time>2022-06-25T09:31:47Z</time>
      </trkpt>
      <trkpt lat="46.52318" lon="4.83843">
        <ele>287.2</ele>
        <time>2022-06-25T09:31:48Z</time>
      </trkpt>
      <trkpt lat="46.52315" lon="4.8384">
        <ele>287.4</ele>
        <time>2022-06-25T09:31:49Z</time>
      </trkpt>
      <trkpt lat="46.52311" lon="4.83837">
        <ele>287.4</ele>
        <time>2022-06-25T09:31:50Z</time>
      </trkpt>
      <trkpt lat="46.52308" lon="4.83835">
        <ele>287.8</ele>
        <time>2022-06-25T09:31:51Z</time>
      </trkpt>
      <trkpt lat="46.52304" lon="4.83832">
        <ele>287.8</ele>
        <time>2022-06-25T09:31:52Z</time>
      </trkpt>
      <trkpt lat="46.52301" lon="4.83829">
        <ele>288.2</ele>
        <time>2022-06-25T09:31:53Z</time>
      </trkpt>
      <trkpt lat="46.52297" lon="4.83827">
        <ele>288.2</ele>
        <time>2022-06-25T09:31:54Z</time>
      </trkpt>
      <trkpt lat="46.52294" lon="4.83824">
        <ele>288.4</ele>
        <time>2022-06-25T09:31:55Z</time>
      </trkpt>
      <trkpt lat="46.5229" lon="4.83821">
        <ele>288.4</ele>
        <time>2022-06-25T09:31:56Z</time>
      </trkpt>
      <trkpt lat="46.52287" lon="4.83819">
        <ele>288.4</ele>
        <time>2022-06-25T09:31:57Z</time>
      </trkpt>
      <trkpt lat="46.52284" lon="4.83816">
        <ele>288.8</ele>
        <time>2022-06-25T09:31:58Z</time>
      </trkpt>
      <trkpt lat="46.5228" lon="4.83813">
        <ele>288.8</ele>
        <time>2022-06-25T09:31:59Z</time>
      </trkpt>
      <trkpt lat="46.52277" lon="4.8381">
        <ele>289</ele>
        <time>2022-06-25T09:32:00Z</time>
      </trkpt>
      <trkpt lat="46.52273" lon="4.83807">
        <ele>289</ele>
        <time>2022-06-25T09:32:01Z</time>
      </trkpt>
      <trkpt lat="46.5227" lon="4.83804">
        <ele>289.2</ele>
        <time>2022-06-25T09:32:02Z</time>
      </trkpt>
      <trkpt lat="46.52267" lon="4.83801">
        <ele>289.2</ele>
        <time>2022-06-25T09:32:03Z</time>
      </trkpt>
      <trkpt lat="46.52263" lon="4.83798">
        <ele>289.4</ele>
        <time>2022-06-25T09:32:04Z</time>
      </trkpt>
      <trkpt lat="46.5226" lon="4.83795">
        <ele>289.6</ele>
        <time>2022-06-25T09:32:05Z</time>
      </trkpt>
      <trkpt lat="46.52256" lon="4.83792">
        <ele>290</ele>
        <time>2022-06-25T09:32:06Z</time>
      </trkpt>
      <trkpt lat="46.52253" lon="4.83789">
        <ele>290.2</ele>
        <time>2022-06-25T09:32:07Z</time>
      </trkpt>
      <trkpt lat="46.52249" lon="4.83786">
        <ele>290.2</ele>
        <time>2022-06-25T09:32:08Z</time>
      </trkpt>
      <trkpt lat="46.52245" lon="4.83783">
        <ele>290.4</ele>
        <time>2022-06-25T09:32:09Z</time>
      </trkpt>
      <trkpt lat="46.52242" lon="4.8378">
        <ele>290.4</ele>
        <time>2022-06-25T09:32:10Z</time>
      </trkpt>
      <trkpt lat="46.52238" lon="4.83777">
        <ele>290.8</ele>
        <time>2022-06-25T09:32:11Z</time>
      </trkpt>
      <trkpt lat="46.52235" lon="4.83773">
        <ele>290.8</ele>
        <time>2022-06-25T09:32:12Z</time>
      </trkpt>
      <trkpt lat="46.52231" lon="4.8377">
        <ele>291</ele>
        <time>2022-06-25T09:32:13Z</time>
      </trkpt>
      <trkpt lat="46.52227" lon="4.83767">
        <ele>291</ele>
        <time>2022-06-25T09:32:14Z</time>
      </trkpt>
      <trkpt lat="46.52223" lon="4.83764">
        <ele>291.4</ele>
        <time>2022-06-25T09:32:15Z</time>
      </trkpt>
      <trkpt lat="46.52219" lon="4.83761">
        <ele>291.6</ele>
        <time>2022-06-25T09:32:16Z</time>
      </trkpt>
      <trkpt lat="46.52216" lon="4.83758">
        <ele>291.6</ele>
        <time>2022-06-25T09:32:17Z</time>
      </trkpt>
      <trkpt lat="46.52212" lon="4.83754">
        <ele>291.8</ele>
        <time>2022-06-25T09:32:18Z</time>
      </trkpt>
      <trkpt lat="46.52208" lon="4.83751">
        <ele>291.8</ele>
        <time>2022-06-25T09:32:19Z</time>
      </trkpt>
      <trkpt lat="46.52204" lon="4.83748">
        <ele>292.2</ele>
        <time>2022-06-25T09:32:20Z</time>
      </trkpt>
      <trkpt lat="46.522" lon="4.83745">
        <ele>292.4</ele>
        <time>2022-06-25T09:32:21Z</time>
      </trkpt>
      <trkpt lat="46.52197" lon="4.83742">
        <ele>292.4</ele>
        <time>2022-06-25T09:32:22Z</time>
      </trkpt>
      <trkpt lat="46.52193" lon="4.83739">
        <ele>292.8</ele>
        <time>2022-06-25T09:32:23Z</time>
      </trkpt>
      <trkpt lat="46.52189" lon="4.83736">
        <ele>292.8</ele>
        <time>2022-06-25T09:32:24Z</time>
      </trkpt>
      <trkpt lat="46.52185" lon="4.83733">
        <ele>293</ele>
        <time>2022-06-25T09:32:25Z</time>
      </trkpt>
      <trkpt lat="46.52182" lon="4.83731">
        <ele>293</ele>
        <time>2022-06-25T09:32:26Z</time>
      </trkpt>
      <trkpt lat="46.52177" lon="4.83728">
        <ele>293.4</ele>
        <time>2022-06-25T09:32:27Z</time>
      </trkpt>
      <trkpt lat="46.52173" lon="4.83725">
        <ele>293.4</ele>
        <time>2022-06-25T09:32:28Z</time>
      </trkpt>
      <trkpt lat="46.52169" lon="4.83723">
        <ele>293.8</ele>
        <time>2022-06-25T09:32:29Z</time>
      </trkpt>
      <trkpt lat="46.52166" lon="4.83721">
        <ele>293.8</ele>
        <time>2022-06-25T09:32:30Z</time>
      </trkpt>
      <trkpt lat="46.52162" lon="4.83718">
        <ele>294</ele>
        <time>2022-06-25T09:32:31Z</time>
      </trkpt>
      <trkpt lat="46.52158" lon="4.83715">
        <ele>294</ele>
        <time>2022-06-25T09:32:32Z</time>
      </trkpt>
      <trkpt lat="46.52154" lon="4.83713">
        <ele>294.4</ele>
        <time>2022-06-25T09:32:33Z</time>
      </trkpt>
      <trkpt lat="46.5215" lon="4.83711">
        <ele>294.4</ele>
        <time>2022-06-25T09:32:34Z</time>
      </trkpt>
      <trkpt lat="46.52146" lon="4.83709">
        <ele>294.6</ele>
        <time>2022-06-25T09:32:35Z</time>
      </trkpt>
      <trkpt lat="46.52142" lon="4.83707">
        <ele>294.6</ele>
        <time>2022-06-25T09:32:36Z</time>
      </trkpt>
      <trkpt lat="46.52135" lon="4.83703">
        <ele>295</ele>
        <time>2022-06-25T09:32:37Z</time>
      </trkpt>
      <trkpt lat="46.52131" lon="4.837">
        <ele>295</ele>
        <time>2022-06-25T09:32:38Z</time>
      </trkpt>
      <trkpt lat="46.52127" lon="4.83698">
        <ele>295.4</ele>
        <time>2022-06-25T09:32:39Z</time>
      </trkpt>
      <trkpt lat="46.52123" lon="4.83696">
        <ele>295.4</ele>
        <time>2022-06-25T09:32:40Z</time>
      </trkpt>
      <trkpt lat="46.52119" lon="4.83694">
        <ele>295.6</ele>
        <time>2022-06-25T09:32:41Z</time>
      </trkpt>
      <trkpt lat="46.52115" lon="4.83691">
        <ele>295.6</ele>
        <time>2022-06-25T09:32:42Z</time>
      </trkpt>
      <trkpt lat="46.52111" lon="4.8369">
        <ele>295.8</ele>
        <time>2022-06-25T09:32:43Z</time>
      </trkpt>
      <trkpt lat="46.52107" lon="4.83688">
        <ele>295.8</ele>
        <time>2022-06-25T09:32:44Z</time>
      </trkpt>
      <trkpt lat="46.52103" lon="4.83686">
        <ele>296.2</ele>
        <time>2022-06-25T09:32:45Z</time>
      </trkpt>
      <trkpt lat="46.52099" lon="4.83683">
        <ele>296.2</ele>
        <time>2022-06-25T09:32:46Z</time>
      </trkpt>
      <trkpt lat="46.52095" lon="4.83681">
        <ele>296.4</ele>
        <time>2022-06-25T09:32:47Z</time>
      </trkpt>
      <trkpt lat="46.52091" lon="4.83679">
        <ele>296.6</ele>
        <time>2022-06-25T09:32:48Z</time>
      </trkpt>
      <trkpt lat="46.52087" lon="4.83677">
        <ele>296.6</ele>
        <time>2022-06-25T09:32:49Z</time>
      </trkpt>
      <trkpt lat="46.52084" lon="4.83675">
        <ele>297</ele>
        <time>2022-06-25T09:32:50Z</time>
      </trkpt>
      <trkpt lat="46.5208" lon="4.83673">
        <ele>297</ele>
        <time>2022-06-25T09:32:51Z</time>
      </trkpt>
      <trkpt lat="46.52077" lon="4.83671">
        <ele>297.2</ele>
        <time>2022-06-25T09:32:52Z</time>
      </trkpt>
      <trkpt lat="46.52073" lon="4.83669">
        <ele>297.6</ele>
        <time>2022-06-25T09:32:53Z</time>
      </trkpt>
      <trkpt lat="46.52069" lon="4.83667">
        <ele>297.6</ele>
        <time>2022-06-25T09:32:54Z</time>
      </trkpt>
      <trkpt lat="46.52066" lon="4.83665">
        <ele>297.8</ele>
        <time>2022-06-25T09:32:55Z</time>
      </trkpt>
      <trkpt lat="46.52062" lon="4.83663">
        <ele>297.8</ele>
        <time>2022-06-25T09:32:56Z</time>
      </trkpt>
      <trkpt lat="46.52058" lon="4.83661">
        <ele>298.4</ele>
        <time>2022-06-25T09:32:57Z</time>
      </trkpt>
      <trkpt lat="46.52054" lon="4.83659">
        <ele>298.4</ele>
        <time>2022-06-25T09:32:58Z</time>
      </trkpt>
      <trkpt lat="46.5205" lon="4.83657">
        <ele>298.6</ele>
        <time>2022-06-25T09:32:59Z</time>
      </trkpt>
      <trkpt lat="46.52046" lon="4.83655">
        <ele>298.6</ele>
        <time>2022-06-25T09:33:00Z</time>
      </trkpt>
      <trkpt lat="46.52043" lon="4.83652">
        <ele>299</ele>
        <time>2022-06-25T09:33:01Z</time>
      </trkpt>
      <trkpt lat="46.52039" lon="4.8365">
        <ele>299</ele>
        <time>2022-06-25T09:33:02Z</time>
      </trkpt>
      <trkpt lat="46.52035" lon="4.83648">
        <ele>299.2</ele>
        <time>2022-06-25T09:33:03Z</time>
      </trkpt>
      <trkpt lat="46.52032" lon="4.83645">
        <ele>299.2</ele>
        <time>2022-06-25T09:33:04Z</time>
      </trkpt>
      <trkpt lat="46.52028" lon="4.83643">
        <ele>299.6</ele>
        <time>2022-06-25T09:33:05Z</time>
      </trkpt>
      <trkpt lat="46.52025" lon="4.8364">
        <ele>299.8</ele>
        <time>2022-06-25T09:33:06Z</time>
      </trkpt>
      <trkpt lat="46.52021" lon="4.83638">
        <ele>299.8</ele>
        <time>2022-06-25T09:33:07Z</time>
      </trkpt>
      <trkpt lat="46.52017" lon="4.83636">
        <ele>300</ele>
        <time>2022-06-25T09:33:08Z</time>
      </trkpt>
      <trkpt lat="46.52014" lon="4.83634">
        <ele>300</ele>
        <time>2022-06-25T09:33:09Z</time>
      </trkpt>
      <trkpt lat="46.5201" lon="4.83631">
        <ele>300.2</ele>
        <time>2022-06-25T09:33:10Z</time>
      </trkpt>
      <trkpt lat="46.52007" lon="4.83629">
        <ele>300.2</ele>
        <time>2022-06-25T09:33:11Z</time>
      </trkpt>
      <trkpt lat="46.52003" lon="4.83626">
        <ele>300.4</ele>
        <time>2022-06-25T09:33:12Z</time>
      </trkpt>
      <trkpt lat="46.52" lon="4.83623">
        <ele>300.4</ele>
        <time>2022-06-25T09:33:13Z</time>
      </trkpt>
      <trkpt lat="46.51996" lon="4.83621">
        <ele>300.8</ele>
        <time>2022-06-25T09:33:14Z</time>
      </trkpt>
      <trkpt lat="46.51993" lon="4.83618">
        <ele>300.8</ele>
        <time>2022-06-25T09:33:15Z</time>
      </trkpt>
      <trkpt lat="46.51989" lon="4.83616">
        <ele>301.2</ele>
        <time>2022-06-25T09:33:16Z</time>
      </trkpt>
      <trkpt lat="46.51986" lon="4.83614">
        <ele>301.2</ele>
        <time>2022-06-25T09:33:17Z</time>
      </trkpt>
      <trkpt lat="46.51982" lon="4.83612">
        <ele>301.4</ele>
        <time>2022-06-25T09:33:18Z</time>
      </trkpt>
      <trkpt lat="46.51978" lon="4.8361">
        <ele>301.4</ele>
        <time>2022-06-25T09:33:19Z</time>
      </trkpt>
      <trkpt lat="46.51975" lon="4.83608">
        <ele>301.8</ele>
        <time>2022-06-25T09:33:20Z</time>
      </trkpt>
      <trkpt lat="46.51971" lon="4.83606">
        <ele>301.8</ele>
        <time>2022-06-25T09:33:21Z</time>
      </trkpt>
      <trkpt lat="46.51968" lon="4.83604">
        <ele>302.2</ele>
        <time>2022-06-25T09:33:22Z</time>
      </trkpt>
      <trkpt lat="46.51964" lon="4.83602">
        <ele>302.2</ele>
        <time>2022-06-25T09:33:23Z</time>
      </trkpt>
      <trkpt lat="46.51961" lon="4.836">
        <ele>302.4</ele>
        <time>2022-06-25T09:33:24Z</time>
      </trkpt>
      <trkpt lat="46.51958" lon="4.83598">
        <ele>302.4</ele>
        <time>2022-06-25T09:33:25Z</time>
      </trkpt>
      <trkpt lat="46.51954" lon="4.83597">
        <ele>302.8</ele>
        <time>2022-06-25T09:33:26Z</time>
      </trkpt>
      <trkpt lat="46.51951" lon="4.83595">
        <ele>302.8</ele>
        <time>2022-06-25T09:33:27Z</time>
      </trkpt>
      <trkpt lat="46.51948" lon="4.83593">
        <ele>303.2</ele>
        <time>2022-06-25T09:33:28Z</time>
      </trkpt>
      <trkpt lat="46.51945" lon="4.83592">
        <ele>303.2</ele>
        <time>2022-06-25T09:33:29Z</time>
      </trkpt>
      <trkpt lat="46.51943" lon="4.83591">
        <ele>303.4</ele>
        <time>2022-06-25T09:33:30Z</time>
      </trkpt>
      <trkpt lat="46.51941" lon="4.83591">
        <ele>303.4</ele>
        <time>2022-06-25T09:33:31Z</time>
      </trkpt>
      <trkpt lat="46.51939" lon="4.8359">
        <ele>303.4</ele>
        <time>2022-06-25T09:33:32Z</time>
      </trkpt>
      <trkpt lat="46.51937" lon="4.8359">
        <ele>303.6</ele>
        <time>2022-06-25T09:33:33Z</time>
      </trkpt>
      <trkpt lat="46.51935" lon="4.83589">
        <ele>303.6</ele>
        <time>2022-06-25T09:33:34Z</time>
      </trkpt>
      <trkpt lat="46.51932" lon="4.83588">
        <ele>304</ele>
        <time>2022-06-25T09:33:35Z</time>
      </trkpt>
      <trkpt lat="46.5193" lon="4.83587">
        <ele>304</ele>
        <time>2022-06-25T09:33:36Z</time>
      </trkpt>
      <trkpt lat="46.51928" lon="4.83586">
        <ele>304.2</ele>
        <time>2022-06-25T09:33:37Z</time>
      </trkpt>
      <trkpt lat="46.51926" lon="4.83584">
        <ele>304.2</ele>
        <time>2022-06-25T09:33:38Z</time>
      </trkpt>
      <trkpt lat="46.51924" lon="4.83583">
        <ele>304.4</ele>
        <time>2022-06-25T09:33:39Z</time>
      </trkpt>
      <trkpt lat="46.51921" lon="4.83581">
        <ele>304.6</ele>
        <time>2022-06-25T09:33:41Z</time>
      </trkpt>
      <trkpt lat="46.51919" lon="4.8358">
        <ele>304.6</ele>
        <time>2022-06-25T09:33:42Z</time>
      </trkpt>
      <trkpt lat="46.51916" lon="4.83579">
        <ele>305</ele>
        <time>2022-06-25T09:33:43Z</time>
      </trkpt>
      <trkpt lat="46.51913" lon="4.83578">
        <ele>305</ele>
        <time>2022-06-25T09:33:44Z</time>
      </trkpt>
      <trkpt lat="46.51911" lon="4.83576">
        <ele>305.2</ele>
        <time>2022-06-25T09:33:45Z</time>
      </trkpt>
      <trkpt lat="46.51908" lon="4.83574">
        <ele>305.2</ele>
        <time>2022-06-25T09:33:46Z</time>
      </trkpt>
      <trkpt lat="46.51905" lon="4.83573">
        <ele>305.4</ele>
        <time>2022-06-25T09:33:47Z</time>
      </trkpt>
      <trkpt lat="46.51902" lon="4.83571">
        <ele>305.4</ele>
        <time>2022-06-25T09:33:48Z</time>
      </trkpt>
      <trkpt lat="46.519" lon="4.8357">
        <ele>305.8</ele>
        <time>2022-06-25T09:33:49Z</time>
      </trkpt>
      <trkpt lat="46.51897" lon="4.83569">
        <ele>305.8</ele>
        <time>2022-06-25T09:33:50Z</time>
      </trkpt>
      <trkpt lat="46.51894" lon="4.83568">
        <ele>306.2</ele>
        <time>2022-06-25T09:33:51Z</time>
      </trkpt>
      <trkpt lat="46.51891" lon="4.83567">
        <ele>306.2</ele>
        <time>2022-06-25T09:33:52Z</time>
      </trkpt>
      <trkpt lat="46.51889" lon="4.83565">
        <ele>306.4</ele>
        <time>2022-06-25T09:33:53Z</time>
      </trkpt>
      <trkpt lat="46.51886" lon="4.83564">
        <ele>306.6</ele>
        <time>2022-06-25T09:33:54Z</time>
      </trkpt>
      <trkpt lat="46.51884" lon="4.83562">
        <ele>306.6</ele>
        <time>2022-06-25T09:33:55Z</time>
      </trkpt>
      <trkpt lat="46.51881" lon="4.8356">
        <ele>307</ele>
        <time>2022-06-25T09:33:56Z</time>
      </trkpt>
      <trkpt lat="46.51878" lon="4.83558">
        <ele>307</ele>
        <time>2022-06-25T09:33:57Z</time>
      </trkpt>
      <trkpt lat="46.51876" lon="4.83557">
        <ele>307.6</ele>
        <time>2022-06-25T09:33:58Z</time>
      </trkpt>
      <trkpt lat="46.51873" lon="4.83555">
        <ele>307.8</ele>
        <time>2022-06-25T09:33:59Z</time>
      </trkpt>
      <trkpt lat="46.5187" lon="4.83554">
        <ele>308</ele>
        <time>2022-06-25T09:34:00Z</time>
      </trkpt>
      <trkpt lat="46.51867" lon="4.83552">
        <ele>308</ele>
        <time>2022-06-25T09:34:01Z</time>
      </trkpt>
      <trkpt lat="46.51865" lon="4.83551">
        <ele>308.4</ele>
        <time>2022-06-25T09:34:02Z</time>
      </trkpt>
      <trkpt lat="46.51862" lon="4.8355">
        <ele>308.4</ele>
        <time>2022-06-25T09:34:03Z</time>
      </trkpt>
      <trkpt lat="46.51859" lon="4.83549">
        <ele>308.8</ele>
        <time>2022-06-25T09:34:04Z</time>
      </trkpt>
      <trkpt lat="46.51856" lon="4.83547">
        <ele>308.8</ele>
        <time>2022-06-25T09:34:05Z</time>
      </trkpt>
      <trkpt lat="46.51854" lon="4.83546">
        <ele>308.8</ele>
        <time>2022-06-25T09:34:06Z</time>
      </trkpt>
      <trkpt lat="46.51851" lon="4.83545">
        <ele>309</ele>
        <time>2022-06-25T09:34:07Z</time>
      </trkpt>
      <trkpt lat="46.51848" lon="4.83543">
        <ele>309</ele>
        <time>2022-06-25T09:34:08Z</time>
      </trkpt>
      <trkpt lat="46.51846" lon="4.83541">
        <ele>309.4</ele>
        <time>2022-06-25T09:34:09Z</time>
      </trkpt>
      <trkpt lat="46.51843" lon="4.83539">
        <ele>309.4</ele>
        <time>2022-06-25T09:34:10Z</time>
      </trkpt>
      <trkpt lat="46.5184" lon="4.83538">
        <ele>309.8</ele>
        <time>2022-06-25T09:34:11Z</time>
      </trkpt>
      <trkpt lat="46.51837" lon="4.83536">
        <ele>309.8</ele>
        <time>2022-06-25T09:34:12Z</time>
      </trkpt>
      <trkpt lat="46.51835" lon="4.83535">
        <ele>310</ele>
        <time>2022-06-25T09:34:13Z</time>
      </trkpt>
      <trkpt lat="46.51832" lon="4.83534">
        <ele>310</ele>
        <time>2022-06-25T09:34:14Z</time>
      </trkpt>
      <trkpt lat="46.51829" lon="4.83532">
        <ele>310.4</ele>
        <time>2022-06-25T09:34:15Z</time>
      </trkpt>
      <trkpt lat="46.51827" lon="4.83531">
        <ele>310.4</ele>
        <time>2022-06-25T09:34:16Z</time>
      </trkpt>
      <trkpt lat="46.51824" lon="4.83529">
        <ele>310.6</ele>
        <time>2022-06-25T09:34:17Z</time>
      </trkpt>
      <trkpt lat="46.51821" lon="4.83528">
        <ele>310.6</ele>
        <time>2022-06-25T09:34:18Z</time>
      </trkpt>
      <trkpt lat="46.51819" lon="4.83527">
        <ele>310.8</ele>
        <time>2022-06-25T09:34:19Z</time>
      </trkpt>
      <trkpt lat="46.51816" lon="4.83526">
        <ele>310.8</ele>
        <time>2022-06-25T09:34:20Z</time>
      </trkpt>
      <trkpt lat="46.51813" lon="4.83525">
        <ele>311.2</ele>
        <time>2022-06-25T09:34:21Z</time>
      </trkpt>
      <trkpt lat="46.51811" lon="4.83523">
        <ele>311.2</ele>
        <time>2022-06-25T09:34:22Z</time>
      </trkpt>
      <trkpt lat="46.51808" lon="4.83521">
        <ele>311.6</ele>
        <time>2022-06-25T09:34:23Z</time>
      </trkpt>
      <trkpt lat="46.51805" lon="4.8352">
        <ele>311.6</ele>
        <time>2022-06-25T09:34:24Z</time>
      </trkpt>
      <trkpt lat="46.51802" lon="4.83518">
        <ele>311.8</ele>
        <time>2022-06-25T09:34:25Z</time>
      </trkpt>
      <trkpt lat="46.518" lon="4.83517">
        <ele>312</ele>
        <time>2022-06-25T09:34:26Z</time>
      </trkpt>
      <trkpt lat="46.51797" lon="4.83515">
        <ele>312</ele>
        <time>2022-06-25T09:34:27Z</time>
      </trkpt>
      <trkpt lat="46.51795" lon="4.83514">
        <ele>312.4</ele>
        <time>2022-06-25T09:34:28Z</time>
      </trkpt>
      <trkpt lat="46.51792" lon="4.83512">
        <ele>312.4</ele>
        <time>2022-06-25T09:34:29Z</time>
      </trkpt>
      <trkpt lat="46.51789" lon="4.83511">
        <ele>312.6</ele>
        <time>2022-06-25T09:34:30Z</time>
      </trkpt>
      <trkpt lat="46.51786" lon="4.8351">
        <ele>312.6</ele>
        <time>2022-06-25T09:34:31Z</time>
      </trkpt>
      <trkpt lat="46.51784" lon="4.83509">
        <ele>313</ele>
        <time>2022-06-25T09:34:32Z</time>
      </trkpt>
      <trkpt lat="46.51781" lon="4.83508">
        <ele>313</ele>
        <time>2022-06-25T09:34:33Z</time>
      </trkpt>
      <trkpt lat="46.51778" lon="4.83507">
        <ele>313.2</ele>
        <time>2022-06-25T09:34:34Z</time>
      </trkpt>
      <trkpt lat="46.51775" lon="4.83505">
        <ele>313.2</ele>
        <time>2022-06-25T09:34:35Z</time>
      </trkpt>
      <trkpt lat="46.51772" lon="4.83503">
        <ele>313.6</ele>
        <time>2022-06-25T09:34:36Z</time>
      </trkpt>
      <trkpt lat="46.5177" lon="4.83501">
        <ele>313.6</ele>
        <time>2022-06-25T09:34:37Z</time>
      </trkpt>
      <trkpt lat="46.51767" lon="4.83499">
        <ele>314</ele>
        <time>2022-06-25T09:34:38Z</time>
      </trkpt>
      <trkpt lat="46.51764" lon="4.83497">
        <ele>314</ele>
        <time>2022-06-25T09:34:39Z</time>
      </trkpt>
      <trkpt lat="46.51761" lon="4.83496">
        <ele>314.2</ele>
        <time>2022-06-25T09:34:40Z</time>
      </trkpt>
      <trkpt lat="46.51758" lon="4.83494">
        <ele>314.4</ele>
        <time>2022-06-25T09:34:41Z</time>
      </trkpt>
      <trkpt lat="46.51755" lon="4.83492">
        <ele>314.4</ele>
        <time>2022-06-25T09:34:42Z</time>
      </trkpt>
      <trkpt lat="46.51752" lon="4.8349">
        <ele>314.8</ele>
        <time>2022-06-25T09:34:43Z</time>
      </trkpt>
      <trkpt lat="46.5175" lon="4.83488">
        <ele>314.8</ele>
        <time>2022-06-25T09:34:44Z</time>
      </trkpt>
      <trkpt lat="46.51747" lon="4.83486">
        <ele>315.2</ele>
        <time>2022-06-25T09:34:45Z</time>
      </trkpt>
      <trkpt lat="46.51744" lon="4.83484">
        <ele>315.2</ele>
        <time>2022-06-25T09:34:46Z</time>
      </trkpt>
      <trkpt lat="46.51742" lon="4.83482">
        <ele>315.4</ele>
        <time>2022-06-25T09:34:47Z</time>
      </trkpt>
      <trkpt lat="46.51739" lon="4.8348">
        <ele>315.4</ele>
        <time>2022-06-25T09:34:48Z</time>
      </trkpt>
      <trkpt lat="46.51737" lon="4.83477">
        <ele>315.6</ele>
        <time>2022-06-25T09:34:49Z</time>
      </trkpt>
      <trkpt lat="46.51734" lon="4.83475">
        <ele>315.8</ele>
        <time>2022-06-25T09:34:50Z</time>
      </trkpt>
      <trkpt lat="46.51731" lon="4.83473">
        <ele>316</ele>
        <time>2022-06-25T09:34:51Z</time>
      </trkpt>
      <trkpt lat="46.51729" lon="4.83471">
        <ele>316</ele>
        <time>2022-06-25T09:34:52Z</time>
      </trkpt>
      <trkpt lat="46.51726" lon="4.83468">
        <ele>316.4</ele>
        <time>2022-06-25T09:34:53Z</time>
      </trkpt>
      <trkpt lat="46.51724" lon="4.83466">
        <ele>316.6</ele>
        <time>2022-06-25T09:34:54Z</time>
      </trkpt>
      <trkpt lat="46.51722" lon="4.83464">
        <ele>316.6</ele>
        <time>2022-06-25T09:34:55Z</time>
      </trkpt>
      <trkpt lat="46.51719" lon="4.83461">
        <ele>317</ele>
        <time>2022-06-25T09:34:56Z</time>
      </trkpt>
      <trkpt lat="46.51717" lon="4.83459">
        <ele>317.2</ele>
        <time>2022-06-25T09:34:57Z</time>
      </trkpt>
      <trkpt lat="46.51715" lon="4.83456">
        <ele>317.6</ele>
        <time>2022-06-25T09:34:58Z</time>
      </trkpt>
      <trkpt lat="46.51714" lon="4.83452">
        <ele>317.6</ele>
        <time>2022-06-25T09:34:59Z</time>
      </trkpt>
      <trkpt lat="46.51712" lon="4.83448">
        <ele>317.8</ele>
        <time>2022-06-25T09:35:00Z</time>
      </trkpt>
      <trkpt lat="46.5171" lon="4.83445">
        <ele>317.8</ele>
        <time>2022-06-25T09:35:01Z</time>
      </trkpt>
      <trkpt lat="46.51709" lon="4.83441">
        <ele>318.2</ele>
        <time>2022-06-25T09:35:02Z</time>
      </trkpt>
      <trkpt lat="46.51707" lon="4.83437">
        <ele>318.4</ele>
        <time>2022-06-25T09:35:03Z</time>
      </trkpt>
      <trkpt lat="46.51706" lon="4.83433">
        <ele>318.8</ele>
        <time>2022-06-25T09:35:04Z</time>
      </trkpt>
      <trkpt lat="46.51705" lon="4.83429">
        <ele>319</ele>
        <time>2022-06-25T09:35:05Z</time>
      </trkpt>
      <trkpt lat="46.51704" lon="4.83425">
        <ele>319.2</ele>
        <time>2022-06-25T09:35:06Z</time>
      </trkpt>
      <trkpt lat="46.51704" lon="4.83421">
        <ele>319.6</ele>
        <time>2022-06-25T09:35:07Z</time>
      </trkpt>
      <trkpt lat="46.51703" lon="4.83417">
        <ele>319.6</ele>
        <time>2022-06-25T09:35:08Z</time>
      </trkpt>
      <trkpt lat="46.51703" lon="4.83412">
        <ele>320</ele>
        <time>2022-06-25T09:35:09Z</time>
      </trkpt>
      <trkpt lat="46.51703" lon="4.83408">
        <ele>320.2</ele>
        <time>2022-06-25T09:35:10Z</time>
      </trkpt>
      <trkpt lat="46.51703" lon="4.83403">
        <ele>320.4</ele>
        <time>2022-06-25T09:35:11Z</time>
      </trkpt>
      <trkpt lat="46.51702" lon="4.83399">
        <ele>320.8</ele>
        <time>2022-06-25T09:35:12Z</time>
      </trkpt>
      <trkpt lat="46.51701" lon="4.83395">
        <ele>321</ele>
        <time>2022-06-25T09:35:13Z</time>
      </trkpt>
      <trkpt lat="46.51701" lon="4.83391">
        <ele>321.2</ele>
        <time>2022-06-25T09:35:14Z</time>
      </trkpt>
      <trkpt lat="46.51701" lon="4.83387">
        <ele>321.2</ele>
        <time>2022-06-25T09:35:15Z</time>
      </trkpt>
      <trkpt lat="46.51701" lon="4.83383">
        <ele>321.4</ele>
        <time>2022-06-25T09:35:16Z</time>
      </trkpt>
      <trkpt lat="46.51701" lon="4.83379">
        <ele>321.4</ele>
        <time>2022-06-25T09:35:17Z</time>
      </trkpt>
      <trkpt lat="46.51701" lon="4.83375">
        <ele>321.8</ele>
        <time>2022-06-25T09:35:18Z</time>
      </trkpt>
      <trkpt lat="46.51701" lon="4.8337">
        <ele>321.8</ele>
        <time>2022-06-25T09:35:19Z</time>
      </trkpt>
      <trkpt lat="46.517" lon="4.83366">
        <ele>322</ele>
        <time>2022-06-25T09:35:20Z</time>
      </trkpt>
      <trkpt lat="46.51699" lon="4.83362">
        <ele>322</ele>
        <time>2022-06-25T09:35:21Z</time>
      </trkpt>
      <trkpt lat="46.51697" lon="4.83358">
        <ele>322.4</ele>
        <time>2022-06-25T09:35:22Z</time>
      </trkpt>
      <trkpt lat="46.51696" lon="4.83355">
        <ele>322.4</ele>
        <time>2022-06-25T09:35:23Z</time>
      </trkpt>
      <trkpt lat="46.51694" lon="4.83351">
        <ele>322.8</ele>
        <time>2022-06-25T09:35:24Z</time>
      </trkpt>
      <trkpt lat="46.51692" lon="4.83349">
        <ele>323</ele>
        <time>2022-06-25T09:35:25Z</time>
      </trkpt>
      <trkpt lat="46.5169" lon="4.83346">
        <ele>323.2</ele>
        <time>2022-06-25T09:35:26Z</time>
      </trkpt>
      <trkpt lat="46.51687" lon="4.83344">
        <ele>323.2</ele>
        <time>2022-06-25T09:35:27Z</time>
      </trkpt>
      <trkpt lat="46.51685" lon="4.83341">
        <ele>323.6</ele>
        <time>2022-06-25T09:35:28Z</time>
      </trkpt>
      <trkpt lat="46.51682" lon="4.83339">
        <ele>323.6</ele>
        <time>2022-06-25T09:35:29Z</time>
      </trkpt>
      <trkpt lat="46.5168" lon="4.83337">
        <ele>323.8</ele>
        <time>2022-06-25T09:35:30Z</time>
      </trkpt>
      <trkpt lat="46.51677" lon="4.83335">
        <ele>323.8</ele>
        <time>2022-06-25T09:35:31Z</time>
      </trkpt>
      <trkpt lat="46.51674" lon="4.83334">
        <ele>324</ele>
        <time>2022-06-25T09:35:32Z</time>
      </trkpt>
      <trkpt lat="46.51671" lon="4.83332">
        <ele>324</ele>
        <time>2022-06-25T09:35:33Z</time>
      </trkpt>
      <trkpt lat="46.51669" lon="4.83331">
        <ele>324.4</ele>
        <time>2022-06-25T09:35:34Z</time>
      </trkpt>
      <trkpt lat="46.51666" lon="4.83329">
        <ele>324.4</ele>
        <time>2022-06-25T09:35:35Z</time>
      </trkpt>
      <trkpt lat="46.51663" lon="4.83328">
        <ele>324.8</ele>
        <time>2022-06-25T09:35:36Z</time>
      </trkpt>
      <trkpt lat="46.51658" lon="4.83326">
        <ele>325</ele>
        <time>2022-06-25T09:35:37Z</time>
      </trkpt>
      <trkpt lat="46.51655" lon="4.83325">
        <ele>325.2</ele>
        <time>2022-06-25T09:35:38Z</time>
      </trkpt>
      <trkpt lat="46.51653" lon="4.83323">
        <ele>325.4</ele>
        <time>2022-06-25T09:35:39Z</time>
      </trkpt>
      <trkpt lat="46.51651" lon="4.83321">
        <ele>325.4</ele>
        <time>2022-06-25T09:35:40Z</time>
      </trkpt>
      <trkpt lat="46.51648" lon="4.8332">
        <ele>325.8</ele>
        <time>2022-06-25T09:35:41Z</time>
      </trkpt>
      <trkpt lat="46.51646" lon="4.83319">
        <ele>325.8</ele>
        <time>2022-06-25T09:35:42Z</time>
      </trkpt>
      <trkpt lat="46.51643" lon="4.83318">
        <ele>326.2</ele>
        <time>2022-06-25T09:35:43Z</time>
      </trkpt>
      <trkpt lat="46.51641" lon="4.83316">
        <ele>326.2</ele>
        <time>2022-06-25T09:35:44Z</time>
      </trkpt>
      <trkpt lat="46.51638" lon="4.83315">
        <ele>326.4</ele>
        <time>2022-06-25T09:35:45Z</time>
      </trkpt>
      <trkpt lat="46.51636" lon="4.83314">
        <ele>326.4</ele>
        <time>2022-06-25T09:35:46Z</time>
      </trkpt>
      <trkpt lat="46.51633" lon="4.83313">
        <ele>326.8</ele>
        <time>2022-06-25T09:35:47Z</time>
      </trkpt>
      <trkpt lat="46.51631" lon="4.83312">
        <ele>326.8</ele>
        <time>2022-06-25T09:35:48Z</time>
      </trkpt>
      <trkpt lat="46.51629" lon="4.83311">
        <ele>327</ele>
        <time>2022-06-25T09:35:49Z</time>
      </trkpt>
      <trkpt lat="46.51626" lon="4.8331">
        <ele>327</ele>
        <time>2022-06-25T09:35:50Z</time>
      </trkpt>
      <trkpt lat="46.51624" lon="4.83309">
        <ele>327</ele>
        <time>2022-06-25T09:35:51Z</time>
      </trkpt>
      <trkpt lat="46.51622" lon="4.83307">
        <ele>327</ele>
        <time>2022-06-25T09:35:52Z</time>
      </trkpt>
      <trkpt lat="46.5162" lon="4.83306">
        <ele>327</ele>
        <time>2022-06-25T09:35:53Z</time>
      </trkpt>
      <trkpt lat="46.51618" lon="4.83305">
        <ele>327</ele>
        <time>2022-06-25T09:35:54Z</time>
      </trkpt>
      <trkpt lat="46.51617" lon="4.83305">
        <ele>327</ele>
        <time>2022-06-25T09:35:55Z</time>
      </trkpt>
      <trkpt lat="46.51616" lon="4.83305">
        <ele>327</ele>
        <time>2022-06-25T09:35:56Z</time>
      </trkpt>
      <trkpt lat="46.51615" lon="4.83305">
        <ele>327</ele>
        <time>2022-06-25T09:35:57Z</time>
      </trkpt>
      <trkpt lat="46.51612" lon="4.83305">
        <ele>327</ele>
        <time>2022-06-25T09:36:31Z</time>
      </trkpt>
      <trkpt lat="46.51609" lon="4.83304">
        <ele>327</ele>
        <time>2022-06-25T09:36:32Z</time>
      </trkpt>
      <trkpt lat="46.51607" lon="4.83304">
        <ele>327</ele>
        <time>2022-06-25T09:36:33Z</time>
      </trkpt>
      <trkpt lat="46.51604" lon="4.83303">
        <ele>327</ele>
        <time>2022-06-25T09:36:34Z</time>
      </trkpt>
      <trkpt lat="46.51601" lon="4.83303">
        <ele>326.8</ele>
        <time>2022-06-25T09:36:35Z</time>
      </trkpt>
      <trkpt lat="46.51597" lon="4.83302">
        <ele>326.8</ele>
        <time>2022-06-25T09:36:36Z</time>
      </trkpt>
      <trkpt lat="46.51593" lon="4.833">
        <ele>326.6</ele>
        <time>2022-06-25T09:36:37Z</time>
      </trkpt>
      <trkpt lat="46.51589" lon="4.83299">
        <ele>326.6</ele>
        <time>2022-06-25T09:36:38Z</time>
      </trkpt>
      <trkpt lat="46.51584" lon="4.83298">
        <ele>326.4</ele>
        <time>2022-06-25T09:36:39Z</time>
      </trkpt>
      <trkpt lat="46.51579" lon="4.83296">
        <ele>326.4</ele>
        <time>2022-06-25T09:36:40Z</time>
      </trkpt>
      <trkpt lat="46.51573" lon="4.83295">
        <ele>326</ele>
        <time>2022-06-25T09:36:41Z</time>
      </trkpt>
      <trkpt lat="46.51567" lon="4.83294">
        <ele>326</ele>
        <time>2022-06-25T09:36:42Z</time>
      </trkpt>
      <trkpt lat="46.51561" lon="4.83292">
        <ele>325.6</ele>
        <time>2022-06-25T09:36:43Z</time>
      </trkpt>
      <trkpt lat="46.51554" lon="4.8329">
        <ele>325.4</ele>
        <time>2022-06-25T09:36:44Z</time>
      </trkpt>
      <trkpt lat="46.51548" lon="4.83289">
        <ele>325</ele>
        <time>2022-06-25T09:36:45Z</time>
      </trkpt>
      <trkpt lat="46.5154" lon="4.83287">
        <ele>324.8</ele>
        <time>2022-06-25T09:36:46Z</time>
      </trkpt>
      <trkpt lat="46.51533" lon="4.83285">
        <ele>324.6</ele>
        <time>2022-06-25T09:36:47Z</time>
      </trkpt>
      <trkpt lat="46.51525" lon="4.83283">
        <ele>324.2</ele>
        <time>2022-06-25T09:36:48Z</time>
      </trkpt>
      <trkpt lat="46.51517" lon="4.83281">
        <ele>324</ele>
        <time>2022-06-25T09:36:49Z</time>
      </trkpt>
      <trkpt lat="46.51508" lon="4.83278">
        <ele>323.6</ele>
        <time>2022-06-25T09:36:50Z</time>
      </trkpt>
      <trkpt lat="46.515" lon="4.83276">
        <ele>323.4</ele>
        <time>2022-06-25T09:36:51Z</time>
      </trkpt>
      <trkpt lat="46.51491" lon="4.83274">
        <ele>323</ele>
        <time>2022-06-25T09:36:52Z</time>
      </trkpt>
      <trkpt lat="46.51482" lon="4.83271">
        <ele>322.6</ele>
        <time>2022-06-25T09:36:53Z</time>
      </trkpt>
      <trkpt lat="46.51473" lon="4.83269">
        <ele>322</ele>
        <time>2022-06-25T09:36:54Z</time>
      </trkpt>
      <trkpt lat="46.51462" lon="4.83267">
        <ele>321.8</ele>
        <time>2022-06-25T09:36:55Z</time>
      </trkpt>
      <trkpt lat="46.51452" lon="4.83265">
        <ele>321.4</ele>
        <time>2022-06-25T09:36:56Z</time>
      </trkpt>
      <trkpt lat="46.51441" lon="4.83261">
        <ele>321.2</ele>
        <time>2022-06-25T09:36:57Z</time>
      </trkpt>
      <trkpt lat="46.51431" lon="4.83258">
        <ele>320.8</ele>
        <time>2022-06-25T09:36:58Z</time>
      </trkpt>
      <trkpt lat="46.51421" lon="4.83254">
        <ele>320.6</ele>
        <time>2022-06-25T09:36:59Z</time>
      </trkpt>
      <trkpt lat="46.51411" lon="4.83252">
        <ele>320.2</ele>
        <time>2022-06-25T09:37:00Z</time>
      </trkpt>
      <trkpt lat="46.51401" lon="4.83249">
        <ele>319.6</ele>
        <time>2022-06-25T09:37:01Z</time>
      </trkpt>
      <trkpt lat="46.51391" lon="4.83245">
        <ele>319.4</ele>
        <time>2022-06-25T09:37:02Z</time>
      </trkpt>
      <trkpt lat="46.5138" lon="4.83242">
        <ele>318.8</ele>
        <time>2022-06-25T09:37:03Z</time>
      </trkpt>
      <trkpt lat="46.5137" lon="4.83239">
        <ele>318</ele>
        <time>2022-06-25T09:37:04Z</time>
      </trkpt>
      <trkpt lat="46.5136" lon="4.83237">
        <ele>317.2</ele>
        <time>2022-06-25T09:37:05Z</time>
      </trkpt>
      <trkpt lat="46.51349" lon="4.83233">
        <ele>316.2</ele>
        <time>2022-06-25T09:37:06Z</time>
      </trkpt>
      <trkpt lat="46.51338" lon="4.83231">
        <ele>315.6</ele>
        <time>2022-06-25T09:37:07Z</time>
      </trkpt>
      <trkpt lat="46.51327" lon="4.83228">
        <ele>315</ele>
        <time>2022-06-25T09:37:08Z</time>
      </trkpt>
      <trkpt lat="46.51316" lon="4.83225">
        <ele>314</ele>
        <time>2022-06-25T09:37:09Z</time>
      </trkpt>
      <trkpt lat="46.51304" lon="4.83223">
        <ele>313.2</ele>
        <time>2022-06-25T09:37:10Z</time>
      </trkpt>
      <trkpt lat="46.51293" lon="4.8322">
        <ele>312.4</ele>
        <time>2022-06-25T09:37:11Z</time>
      </trkpt>
      <trkpt lat="46.51281" lon="4.83217">
        <ele>311.8</ele>
        <time>2022-06-25T09:37:12Z</time>
      </trkpt>
      <trkpt lat="46.5127" lon="4.83214">
        <ele>311</ele>
        <time>2022-06-25T09:37:13Z</time>
      </trkpt>
      <trkpt lat="46.51258" lon="4.8321">
        <ele>310.6</ele>
        <time>2022-06-25T09:37:14Z</time>
      </trkpt>
      <trkpt lat="46.51246" lon="4.83206">
        <ele>310</ele>
        <time>2022-06-25T09:37:15Z</time>
      </trkpt>
      <trkpt lat="46.51234" lon="4.83203">
        <ele>309.2</ele>
        <time>2022-06-25T09:37:16Z</time>
      </trkpt>
      <trkpt lat="46.51222" lon="4.832">
        <ele>308.4</ele>
        <time>2022-06-25T09:37:17Z</time>
      </trkpt>
      <trkpt lat="46.51209" lon="4.83197">
        <ele>307.8</ele>
        <time>2022-06-25T09:37:18Z</time>
      </trkpt>
      <trkpt lat="46.51198" lon="4.83194">
        <ele>307</ele>
        <time>2022-06-25T09:37:19Z</time>
      </trkpt>
      <trkpt lat="46.51187" lon="4.83191">
        <ele>306.4</ele>
        <time>2022-06-25T09:37:20Z</time>
      </trkpt>
      <trkpt lat="46.51174" lon="4.83188">
        <ele>305.8</ele>
        <time>2022-06-25T09:37:21Z</time>
      </trkpt>
      <trkpt lat="46.51162" lon="4.83183">
        <ele>304.8</ele>
        <time>2022-06-25T09:37:22Z</time>
      </trkpt>
      <trkpt lat="46.5115" lon="4.8318">
        <ele>304</ele>
        <time>2022-06-25T09:37:23Z</time>
      </trkpt>
      <trkpt lat="46.51139" lon="4.83176">
        <ele>303.4</ele>
        <time>2022-06-25T09:37:24Z</time>
      </trkpt>
      <trkpt lat="46.51127" lon="4.83169">
        <ele>302.8</ele>
        <time>2022-06-25T09:37:25Z</time>
      </trkpt>
      <trkpt lat="46.51115" lon="4.83163">
        <ele>302.2</ele>
        <time>2022-06-25T09:37:26Z</time>
      </trkpt>
      <trkpt lat="46.51103" lon="4.83156">
        <ele>301.4</ele>
        <time>2022-06-25T09:37:27Z</time>
      </trkpt>
      <trkpt lat="46.51092" lon="4.8315">
        <ele>301</ele>
        <time>2022-06-25T09:37:28Z</time>
      </trkpt>
      <trkpt lat="46.5108" lon="4.83144">
        <ele>300.4</ele>
        <time>2022-06-25T09:37:29Z</time>
      </trkpt>
      <trkpt lat="46.51067" lon="4.83139">
        <ele>299.4</ele>
        <time>2022-06-25T09:37:30Z</time>
      </trkpt>
      <trkpt lat="46.51055" lon="4.83135">
        <ele>299</ele>
        <time>2022-06-25T09:37:31Z</time>
      </trkpt>
      <trkpt lat="46.51043" lon="4.83132">
        <ele>298.2</ele>
        <time>2022-06-25T09:37:32Z</time>
      </trkpt>
      <trkpt lat="46.51031" lon="4.83127">
        <ele>297.2</ele>
        <time>2022-06-25T09:37:33Z</time>
      </trkpt>
      <trkpt lat="46.51019" lon="4.83124">
        <ele>296.6</ele>
        <time>2022-06-25T09:37:34Z</time>
      </trkpt>
      <trkpt lat="46.51007" lon="4.83121">
        <ele>296.2</ele>
        <time>2022-06-25T09:37:35Z</time>
      </trkpt>
      <trkpt lat="46.50995" lon="4.83121">
        <ele>295.4</ele>
        <time>2022-06-25T09:37:36Z</time>
      </trkpt>
      <trkpt lat="46.50984" lon="4.83119">
        <ele>294.6</ele>
        <time>2022-06-25T09:37:37Z</time>
      </trkpt>
      <trkpt lat="46.50972" lon="4.83117">
        <ele>294</ele>
        <time>2022-06-25T09:37:38Z</time>
      </trkpt>
      <trkpt lat="46.50961" lon="4.83116">
        <ele>293.4</ele>
        <time>2022-06-25T09:37:39Z</time>
      </trkpt>
      <trkpt lat="46.50949" lon="4.83117">
        <ele>292.6</ele>
        <time>2022-06-25T09:37:40Z</time>
      </trkpt>
      <trkpt lat="46.50939" lon="4.83118">
        <ele>292</ele>
        <time>2022-06-25T09:37:41Z</time>
      </trkpt>
      <trkpt lat="46.50928" lon="4.83116">
        <ele>291.4</ele>
        <time>2022-06-25T09:37:42Z</time>
      </trkpt>
      <trkpt lat="46.50917" lon="4.83113">
        <ele>291</ele>
        <time>2022-06-25T09:37:43Z</time>
      </trkpt>
      <trkpt lat="46.50906" lon="4.83109">
        <ele>290.4</ele>
        <time>2022-06-25T09:37:44Z</time>
      </trkpt>
      <trkpt lat="46.50895" lon="4.83106">
        <ele>290</ele>
        <time>2022-06-25T09:37:45Z</time>
      </trkpt>
      <trkpt lat="46.50885" lon="4.83103">
        <ele>289.8</ele>
        <time>2022-06-25T09:37:46Z</time>
      </trkpt>
      <trkpt lat="46.50875" lon="4.83101">
        <ele>289.2</ele>
        <time>2022-06-25T09:37:47Z</time>
      </trkpt>
      <trkpt lat="46.50864" lon="4.83098">
        <ele>288.8</ele>
        <time>2022-06-25T09:37:48Z</time>
      </trkpt>
      <trkpt lat="46.50854" lon="4.83096">
        <ele>288.4</ele>
        <time>2022-06-25T09:37:49Z</time>
      </trkpt>
      <trkpt lat="46.50843" lon="4.83093">
        <ele>288</ele>
        <time>2022-06-25T09:37:50Z</time>
      </trkpt>
      <trkpt lat="46.50833" lon="4.8309">
        <ele>287.6</ele>
        <time>2022-06-25T09:37:51Z</time>
      </trkpt>
      <trkpt lat="46.50823" lon="4.83087">
        <ele>287.4</ele>
        <time>2022-06-25T09:37:52Z</time>
      </trkpt>
      <trkpt lat="46.50813" lon="4.83084">
        <ele>287</ele>
        <time>2022-06-25T09:37:53Z</time>
      </trkpt>
      <trkpt lat="46.50803" lon="4.83082">
        <ele>286.8</ele>
        <time>2022-06-25T09:37:54Z</time>
      </trkpt>
      <trkpt lat="46.50794" lon="4.8308">
        <ele>286.4</ele>
        <time>2022-06-25T09:37:55Z</time>
      </trkpt>
      <trkpt lat="46.50784" lon="4.83078">
        <ele>286</ele>
        <time>2022-06-25T09:37:56Z</time>
      </trkpt>
      <trkpt lat="46.50775" lon="4.83077">
        <ele>285.8</ele>
        <time>2022-06-25T09:37:57Z</time>
      </trkpt>
      <trkpt lat="46.50765" lon="4.83076">
        <ele>285.8</ele>
        <time>2022-06-25T09:37:58Z</time>
      </trkpt>
      <trkpt lat="46.50756" lon="4.83076">
        <ele>285.4</ele>
        <time>2022-06-25T09:37:59Z</time>
      </trkpt>
      <trkpt lat="46.50747" lon="4.83077">
        <ele>285.4</ele>
        <time>2022-06-25T09:38:00Z</time>
      </trkpt>
      <trkpt lat="46.50738" lon="4.83078">
        <ele>285.2</ele>
        <time>2022-06-25T09:38:01Z</time>
      </trkpt>
      <trkpt lat="46.5073" lon="4.83079">
        <ele>285.2</ele>
        <time>2022-06-25T09:38:02Z</time>
      </trkpt>
      <trkpt lat="46.50721" lon="4.8308">
        <ele>284.8</ele>
        <time>2022-06-25T09:38:03Z</time>
      </trkpt>
      <trkpt lat="46.50713" lon="4.83081">
        <ele>284.8</ele>
        <time>2022-06-25T09:38:04Z</time>
      </trkpt>
      <trkpt lat="46.50705" lon="4.83082">
        <ele>284.6</ele>
        <time>2022-06-25T09:38:05Z</time>
      </trkpt>
      <trkpt lat="46.50697" lon="4.83083">
        <ele>284.6</ele>
        <time>2022-06-25T09:38:06Z</time>
      </trkpt>
      <trkpt lat="46.50689" lon="4.83084">
        <ele>284.6</ele>
        <time>2022-06-25T09:38:07Z</time>
      </trkpt>
      <trkpt lat="46.50681" lon="4.83085">
        <ele>284.6</ele>
        <time>2022-06-25T09:38:08Z</time>
      </trkpt>
      <trkpt lat="46.50673" lon="4.83086">
        <ele>284.2</ele>
        <time>2022-06-25T09:38:09Z</time>
      </trkpt>
      <trkpt lat="46.50665" lon="4.83087">
        <ele>284.2</ele>
        <time>2022-06-25T09:38:10Z</time>
      </trkpt>
      <trkpt lat="46.50658" lon="4.83087">
        <ele>284</ele>
        <time>2022-06-25T09:38:11Z</time>
      </trkpt>
      <trkpt lat="46.5065" lon="4.83087">
        <ele>284</ele>
        <time>2022-06-25T09:38:12Z</time>
      </trkpt>
      <trkpt lat="46.50642" lon="4.83086">
        <ele>283.6</ele>
        <time>2022-06-25T09:38:13Z</time>
      </trkpt>
      <trkpt lat="46.50634" lon="4.83086">
        <ele>283.4</ele>
        <time>2022-06-25T09:38:14Z</time>
      </trkpt>
      <trkpt lat="46.50627" lon="4.83086">
        <ele>283.2</ele>
        <time>2022-06-25T09:38:15Z</time>
      </trkpt>
      <trkpt lat="46.50619" lon="4.83085">
        <ele>283.2</ele>
        <time>2022-06-25T09:38:16Z</time>
      </trkpt>
      <trkpt lat="46.50611" lon="4.83085">
        <ele>283</ele>
        <time>2022-06-25T09:38:17Z</time>
      </trkpt>
      <trkpt lat="46.50604" lon="4.83085">
        <ele>282.6</ele>
        <time>2022-06-25T09:38:18Z</time>
      </trkpt>
      <trkpt lat="46.50596" lon="4.83085">
        <ele>282.6</ele>
        <time>2022-06-25T09:38:19Z</time>
      </trkpt>
      <trkpt lat="46.50588" lon="4.83085">
        <ele>282.4</ele>
        <time>2022-06-25T09:38:20Z</time>
      </trkpt>
      <trkpt lat="46.50581" lon="4.83085">
        <ele>282.2</ele>
        <time>2022-06-25T09:38:21Z</time>
      </trkpt>
      <trkpt lat="46.50573" lon="4.83086">
        <ele>281.8</ele>
        <time>2022-06-25T09:38:22Z</time>
      </trkpt>
      <trkpt lat="46.50565" lon="4.83087">
        <ele>281.4</ele>
        <time>2022-06-25T09:38:23Z</time>
      </trkpt>
      <trkpt lat="46.50557" lon="4.83089">
        <ele>281</ele>
        <time>2022-06-25T09:38:24Z</time>
      </trkpt>
      <trkpt lat="46.5055" lon="4.83091">
        <ele>280.6</ele>
        <time>2022-06-25T09:38:25Z</time>
      </trkpt>
      <trkpt lat="46.50542" lon="4.83092">
        <ele>280.4</ele>
        <time>2022-06-25T09:38:26Z</time>
      </trkpt>
      <trkpt lat="46.50534" lon="4.83093">
        <ele>280.2</ele>
        <time>2022-06-25T09:38:27Z</time>
      </trkpt>
      <trkpt lat="46.50527" lon="4.83094">
        <ele>279.6</ele>
        <time>2022-06-25T09:38:28Z</time>
      </trkpt>
      <trkpt lat="46.50519" lon="4.83095">
        <ele>279.2</ele>
        <time>2022-06-25T09:38:29Z</time>
      </trkpt>
      <trkpt lat="46.50512" lon="4.83096">
        <ele>278.8</ele>
        <time>2022-06-25T09:38:30Z</time>
      </trkpt>
      <trkpt lat="46.50505" lon="4.83097">
        <ele>278.4</ele>
        <time>2022-06-25T09:38:31Z</time>
      </trkpt>
      <trkpt lat="46.50499" lon="4.83098">
        <ele>278.2</ele>
        <time>2022-06-25T09:38:32Z</time>
      </trkpt>
      <trkpt lat="46.50493" lon="4.83098">
        <ele>277.8</ele>
        <time>2022-06-25T09:38:33Z</time>
      </trkpt>
      <trkpt lat="46.50487" lon="4.83098">
        <ele>277.6</ele>
        <time>2022-06-25T09:38:34Z</time>
      </trkpt>
      <trkpt lat="46.50481" lon="4.83096">
        <ele>277.2</ele>
        <time>2022-06-25T09:38:35Z</time>
      </trkpt>
      <trkpt lat="46.50474" lon="4.83095">
        <ele>277</ele>
        <time>2022-06-25T09:38:36Z</time>
      </trkpt>
      <trkpt lat="46.50467" lon="4.83094">
        <ele>276.8</ele>
        <time>2022-06-25T09:38:37Z</time>
      </trkpt>
      <trkpt lat="46.5046" lon="4.83092">
        <ele>276.4</ele>
        <time>2022-06-25T09:38:38Z</time>
      </trkpt>
      <trkpt lat="46.50453" lon="4.8309">
        <ele>276</ele>
        <time>2022-06-25T09:38:39Z</time>
      </trkpt>
      <trkpt lat="46.50445" lon="4.83088">
        <ele>275.6</ele>
        <time>2022-06-25T09:38:40Z</time>
      </trkpt>
      <trkpt lat="46.50437" lon="4.83086">
        <ele>275.2</ele>
        <time>2022-06-25T09:38:41Z</time>
      </trkpt>
      <trkpt lat="46.5043" lon="4.83084">
        <ele>274.8</ele>
        <time>2022-06-25T09:38:42Z</time>
      </trkpt>
      <trkpt lat="46.50422" lon="4.83081">
        <ele>274.8</ele>
        <time>2022-06-25T09:38:43Z</time>
      </trkpt>
      <trkpt lat="46.50415" lon="4.83079">
        <ele>274.4</ele>
        <time>2022-06-25T09:38:44Z</time>
      </trkpt>
      <trkpt lat="46.50408" lon="4.83077">
        <ele>274</ele>
        <time>2022-06-25T09:38:45Z</time>
      </trkpt>
      <trkpt lat="46.50401" lon="4.83075">
        <ele>273.6</ele>
        <time>2022-06-25T09:38:46Z</time>
      </trkpt>
      <trkpt lat="46.50393" lon="4.83073">
        <ele>273.4</ele>
        <time>2022-06-25T09:38:47Z</time>
      </trkpt>
      <trkpt lat="46.50386" lon="4.83071">
        <ele>273.2</ele>
        <time>2022-06-25T09:38:48Z</time>
      </trkpt>
      <trkpt lat="46.50379" lon="4.8307">
        <ele>272.8</ele>
        <time>2022-06-25T09:38:49Z</time>
      </trkpt>
      <trkpt lat="46.50371" lon="4.83068">
        <ele>272.8</ele>
        <time>2022-06-25T09:38:50Z</time>
      </trkpt>
      <trkpt lat="46.50364" lon="4.83065">
        <ele>272.4</ele>
        <time>2022-06-25T09:38:51Z</time>
      </trkpt>
      <trkpt lat="46.50356" lon="4.83063">
        <ele>272.4</ele>
        <time>2022-06-25T09:38:52Z</time>
      </trkpt>
      <trkpt lat="46.50349" lon="4.83061">
        <ele>272.2</ele>
        <time>2022-06-25T09:38:53Z</time>
      </trkpt>
      <trkpt lat="46.50341" lon="4.83059">
        <ele>272.2</ele>
        <time>2022-06-25T09:38:54Z</time>
      </trkpt>
      <trkpt lat="46.50333" lon="4.83058">
        <ele>271.8</ele>
        <time>2022-06-25T09:38:55Z</time>
      </trkpt>
      <trkpt lat="46.50326" lon="4.83057">
        <ele>271.8</ele>
        <time>2022-06-25T09:38:56Z</time>
      </trkpt>
      <trkpt lat="46.50318" lon="4.83057">
        <ele>271.4</ele>
        <time>2022-06-25T09:38:57Z</time>
      </trkpt>
      <trkpt lat="46.50311" lon="4.83057">
        <ele>271.2</ele>
        <time>2022-06-25T09:38:58Z</time>
      </trkpt>
      <trkpt lat="46.50303" lon="4.83058">
        <ele>271.2</ele>
        <time>2022-06-25T09:38:59Z</time>
      </trkpt>
      <trkpt lat="46.50296" lon="4.83059">
        <ele>271</ele>
        <time>2022-06-25T09:39:00Z</time>
      </trkpt>
      <trkpt lat="46.50288" lon="4.83059">
        <ele>271</ele>
        <time>2022-06-25T09:39:01Z</time>
      </trkpt>
      <trkpt lat="46.50281" lon="4.8306">
        <ele>271</ele>
        <time>2022-06-25T09:39:02Z</time>
      </trkpt>
      <trkpt lat="46.50274" lon="4.83061">
        <ele>270.8</ele>
        <time>2022-06-25T09:39:03Z</time>
      </trkpt>
      <trkpt lat="46.50267" lon="4.83061">
        <ele>270.8</ele>
        <time>2022-06-25T09:39:04Z</time>
      </trkpt>
      <trkpt lat="46.5026" lon="4.83062">
        <ele>270.8</ele>
        <time>2022-06-25T09:39:05Z</time>
      </trkpt>
      <trkpt lat="46.50253" lon="4.83062">
        <ele>270.8</ele>
        <time>2022-06-25T09:39:06Z</time>
      </trkpt>
      <trkpt lat="46.50246" lon="4.83063">
        <ele>270.8</ele>
        <time>2022-06-25T09:39:08Z</time>
      </trkpt>
      <trkpt lat="46.50239" lon="4.83064">
        <ele>270.8</ele>
        <time>2022-06-25T09:39:09Z</time>
      </trkpt>
      <trkpt lat="46.50232" lon="4.83064">
        <ele>270.8</ele>
        <time>2022-06-25T09:39:10Z</time>
      </trkpt>
      <trkpt lat="46.50225" lon="4.83064">
        <ele>270.8</ele>
        <time>2022-06-25T09:39:11Z</time>
      </trkpt>
      <trkpt lat="46.50218" lon="4.83065">
        <ele>270.8</ele>
        <time>2022-06-25T09:39:12Z</time>
      </trkpt>
      <trkpt lat="46.50211" lon="4.83066">
        <ele>270.8</ele>
        <time>2022-06-25T09:39:13Z</time>
      </trkpt>
      <trkpt lat="46.50204" lon="4.83066">
        <ele>270.8</ele>
        <time>2022-06-25T09:39:14Z</time>
      </trkpt>
      <trkpt lat="46.50197" lon="4.83066">
        <ele>270.8</ele>
        <time>2022-06-25T09:39:15Z</time>
      </trkpt>
      <trkpt lat="46.5019" lon="4.83066">
        <ele>270.8</ele>
        <time>2022-06-25T09:39:16Z</time>
      </trkpt>
      <trkpt lat="46.50183" lon="4.83066">
        <ele>270.8</ele>
        <time>2022-06-25T09:39:17Z</time>
      </trkpt>
      <trkpt lat="46.50176" lon="4.83067">
        <ele>270.8</ele>
        <time>2022-06-25T09:39:18Z</time>
      </trkpt>
      <trkpt lat="46.50169" lon="4.83068">
        <ele>270.6</ele>
        <time>2022-06-25T09:39:19Z</time>
      </trkpt>
      <trkpt lat="46.50162" lon="4.83069">
        <ele>270.6</ele>
        <time>2022-06-25T09:39:20Z</time>
      </trkpt>
      <trkpt lat="46.50155" lon="4.8307">
        <ele>270.6</ele>
        <time>2022-06-25T09:39:21Z</time>
      </trkpt>
      <trkpt lat="46.50148" lon="4.83071">
        <ele>270.6</ele>
        <time>2022-06-25T09:39:22Z</time>
      </trkpt>
      <trkpt lat="46.50141" lon="4.83072">
        <ele>270.6</ele>
        <time>2022-06-25T09:39:23Z</time>
      </trkpt>
      <trkpt lat="46.50134" lon="4.83074">
        <ele>270.6</ele>
        <time>2022-06-25T09:39:24Z</time>
      </trkpt>
      <trkpt lat="46.50128" lon="4.83075">
        <ele>270.6</ele>
        <time>2022-06-25T09:39:25Z</time>
      </trkpt>
      <trkpt lat="46.50121" lon="4.83077">
        <ele>270.6</ele>
        <time>2022-06-25T09:39:26Z</time>
      </trkpt>
      <trkpt lat="46.50114" lon="4.83079">
        <ele>270.6</ele>
        <time>2022-06-25T09:39:27Z</time>
      </trkpt>
      <trkpt lat="46.50108" lon="4.83081">
        <ele>270.6</ele>
        <time>2022-06-25T09:39:28Z</time>
      </trkpt>
      <trkpt lat="46.50102" lon="4.83083">
        <ele>270.6</ele>
        <time>2022-06-25T09:39:29Z</time>
      </trkpt>
      <trkpt lat="46.50095" lon="4.83085">
        <ele>270.6</ele>
        <time>2022-06-25T09:39:30Z</time>
      </trkpt>
      <trkpt lat="46.50089" lon="4.83087">
        <ele>270.8</ele>
        <time>2022-06-25T09:39:31Z</time>
      </trkpt>
      <trkpt lat="46.50083" lon="4.83089">
        <ele>270.8</ele>
        <time>2022-06-25T09:39:32Z</time>
      </trkpt>
      <trkpt lat="46.50077" lon="4.83091">
        <ele>271.2</ele>
        <time>2022-06-25T09:39:33Z</time>
      </trkpt>
      <trkpt lat="46.50072" lon="4.83093">
        <ele>271.4</ele>
        <time>2022-06-25T09:39:34Z</time>
      </trkpt>
      <trkpt lat="46.50066" lon="4.83094">
        <ele>271.4</ele>
        <time>2022-06-25T09:39:35Z</time>
      </trkpt>
      <trkpt lat="46.50061" lon="4.83096">
        <ele>271.6</ele>
        <time>2022-06-25T09:39:36Z</time>
      </trkpt>
      <trkpt lat="46.50056" lon="4.83098">
        <ele>271.6</ele>
        <time>2022-06-25T09:39:37Z</time>
      </trkpt>
      <trkpt lat="46.50051" lon="4.83099">
        <ele>272</ele>
        <time>2022-06-25T09:39:38Z</time>
      </trkpt>
      <trkpt lat="46.50046" lon="4.83101">
        <ele>272</ele>
        <time>2022-06-25T09:39:39Z</time>
      </trkpt>
      <trkpt lat="46.50041" lon="4.83103">
        <ele>272.2</ele>
        <time>2022-06-25T09:39:40Z</time>
      </trkpt>
      <trkpt lat="46.50036" lon="4.83105">
        <ele>272.2</ele>
        <time>2022-06-25T09:39:41Z</time>
      </trkpt>
      <trkpt lat="46.50031" lon="4.83106">
        <ele>272.6</ele>
        <time>2022-06-25T09:39:42Z</time>
      </trkpt>
      <trkpt lat="46.50027" lon="4.83107">
        <ele>272.8</ele>
        <time>2022-06-25T09:39:43Z</time>
      </trkpt>
      <trkpt lat="46.50022" lon="4.83109">
        <ele>273</ele>
        <time>2022-06-25T09:39:44Z</time>
      </trkpt>
      <trkpt lat="46.50018" lon="4.8311">
        <ele>273</ele>
        <time>2022-06-25T09:39:45Z</time>
      </trkpt>
      <trkpt lat="46.50013" lon="4.83112">
        <ele>273.4</ele>
        <time>2022-06-25T09:39:46Z</time>
      </trkpt>
      <trkpt lat="46.50009" lon="4.83113">
        <ele>273.6</ele>
        <time>2022-06-25T09:39:47Z</time>
      </trkpt>
      <trkpt lat="46.50005" lon="4.83114">
        <ele>274</ele>
        <time>2022-06-25T09:39:48Z</time>
      </trkpt>
      <trkpt lat="46.50001" lon="4.83116">
        <ele>274.2</ele>
        <time>2022-06-25T09:39:49Z</time>
      </trkpt>
      <trkpt lat="46.49996" lon="4.83117">
        <ele>274.4</ele>
        <time>2022-06-25T09:39:50Z</time>
      </trkpt>
      <trkpt lat="46.49992" lon="4.83119">
        <ele>274.6</ele>
        <time>2022-06-25T09:39:51Z</time>
      </trkpt>
      <trkpt lat="46.49988" lon="4.8312">
        <ele>274.8</ele>
        <time>2022-06-25T09:39:52Z</time>
      </trkpt>
      <trkpt lat="46.49983" lon="4.83121">
        <ele>275</ele>
        <time>2022-06-25T09:39:53Z</time>
      </trkpt>
      <trkpt lat="46.49978" lon="4.83122">
        <ele>275.2</ele>
        <time>2022-06-25T09:39:54Z</time>
      </trkpt>
      <trkpt lat="46.49974" lon="4.83122">
        <ele>275.6</ele>
        <time>2022-06-25T09:39:55Z</time>
      </trkpt>
      <trkpt lat="46.4997" lon="4.83122">
        <ele>275.8</ele>
        <time>2022-06-25T09:39:56Z</time>
      </trkpt>
      <trkpt lat="46.49965" lon="4.83122">
        <ele>275.8</ele>
        <time>2022-06-25T09:39:57Z</time>
      </trkpt>
      <trkpt lat="46.49961" lon="4.83123">
        <ele>276</ele>
        <time>2022-06-25T09:39:58Z</time>
      </trkpt>
      <trkpt lat="46.49957" lon="4.83123">
        <ele>276.4</ele>
        <time>2022-06-25T09:39:59Z</time>
      </trkpt>
      <trkpt lat="46.49952" lon="4.83122">
        <ele>276.6</ele>
        <time>2022-06-25T09:40:00Z</time>
      </trkpt>
      <trkpt lat="46.49948" lon="4.83122">
        <ele>276.6</ele>
        <time>2022-06-25T09:40:01Z</time>
      </trkpt>
      <trkpt lat="46.49944" lon="4.83121">
        <ele>277</ele>
        <time>2022-06-25T09:40:02Z</time>
      </trkpt>
      <trkpt lat="46.4994" lon="4.8312">
        <ele>277.2</ele>
        <time>2022-06-25T09:40:03Z</time>
      </trkpt>
      <trkpt lat="46.49936" lon="4.83119">
        <ele>277.2</ele>
        <time>2022-06-25T09:40:04Z</time>
      </trkpt>
      <trkpt lat="46.49933" lon="4.83117">
        <ele>277.6</ele>
        <time>2022-06-25T09:40:05Z</time>
      </trkpt>
      <trkpt lat="46.49929" lon="4.83116">
        <ele>277.6</ele>
        <time>2022-06-25T09:40:06Z</time>
      </trkpt>
      <trkpt lat="46.49925" lon="4.83115">
        <ele>278</ele>
        <time>2022-06-25T09:40:07Z</time>
      </trkpt>
      <trkpt lat="46.49922" lon="4.83114">
        <ele>278</ele>
        <time>2022-06-25T09:40:08Z</time>
      </trkpt>
      <trkpt lat="46.49918" lon="4.83113">
        <ele>278.4</ele>
        <time>2022-06-25T09:40:09Z</time>
      </trkpt>
      <trkpt lat="46.49914" lon="4.83113">
        <ele>278.4</ele>
        <time>2022-06-25T09:40:10Z</time>
      </trkpt>
      <trkpt lat="46.49911" lon="4.83113">
        <ele>278.8</ele>
        <time>2022-06-25T09:40:11Z</time>
      </trkpt>
      <trkpt lat="46.49908" lon="4.83113">
        <ele>279</ele>
        <time>2022-06-25T09:40:12Z</time>
      </trkpt>
      <trkpt lat="46.49905" lon="4.83114">
        <ele>279</ele>
        <time>2022-06-25T09:40:13Z</time>
      </trkpt>
      <trkpt lat="46.49902" lon="4.83116">
        <ele>279</ele>
        <time>2022-06-25T09:40:14Z</time>
      </trkpt>
      <trkpt lat="46.49899" lon="4.83117">
        <ele>279.2</ele>
        <time>2022-06-25T09:40:15Z</time>
      </trkpt>
      <trkpt lat="46.49896" lon="4.83118">
        <ele>279.2</ele>
        <time>2022-06-25T09:40:16Z</time>
      </trkpt>
      <trkpt lat="46.49894" lon="4.83118">
        <ele>279.2</ele>
        <time>2022-06-25T09:40:17Z</time>
      </trkpt>
      <trkpt lat="46.49891" lon="4.83118">
        <ele>279.2</ele>
        <time>2022-06-25T09:40:18Z</time>
      </trkpt>
      <trkpt lat="46.49889" lon="4.83117">
        <ele>279.2</ele>
        <time>2022-06-25T09:40:19Z</time>
      </trkpt>
      <trkpt lat="46.49886" lon="4.83118">
        <ele>279.2</ele>
        <time>2022-06-25T09:40:20Z</time>
      </trkpt>
      <trkpt lat="46.49883" lon="4.83118">
        <ele>279.2</ele>
        <time>2022-06-25T09:40:21Z</time>
      </trkpt>
      <trkpt lat="46.4988" lon="4.83118">
        <ele>279.2</ele>
        <time>2022-06-25T09:40:22Z</time>
      </trkpt>
      <trkpt lat="46.49877" lon="4.83116">
        <ele>279.2</ele>
        <time>2022-06-25T09:40:23Z</time>
      </trkpt>
      <trkpt lat="46.49873" lon="4.83113">
        <ele>279.2</ele>
        <time>2022-06-25T09:40:24Z</time>
      </trkpt>
      <trkpt lat="46.49869" lon="4.8311">
        <ele>279.2</ele>
        <time>2022-06-25T09:40:25Z</time>
      </trkpt>
      <trkpt lat="46.49865" lon="4.83106">
        <ele>279</ele>
        <time>2022-06-25T09:40:27Z</time>
      </trkpt>
      <trkpt lat="46.4986" lon="4.83103">
        <ele>279</ele>
        <time>2022-06-25T09:40:28Z</time>
      </trkpt>
      <trkpt lat="46.49855" lon="4.83099">
        <ele>278.8</ele>
        <time>2022-06-25T09:40:29Z</time>
      </trkpt>
      <trkpt lat="46.4985" lon="4.83095">
        <ele>278.8</ele>
        <time>2022-06-25T09:40:30Z</time>
      </trkpt>
      <trkpt lat="46.49844" lon="4.8309">
        <ele>278.6</ele>
        <time>2022-06-25T09:40:31Z</time>
      </trkpt>
      <trkpt lat="46.49838" lon="4.83086">
        <ele>278</ele>
        <time>2022-06-25T09:40:32Z</time>
      </trkpt>
      <trkpt lat="46.49832" lon="4.83081">
        <ele>277.8</ele>
        <time>2022-06-25T09:40:33Z</time>
      </trkpt>
      <trkpt lat="46.49826" lon="4.83076">
        <ele>277.8</ele>
        <time>2022-06-25T09:40:34Z</time>
      </trkpt>
      <trkpt lat="46.49819" lon="4.8307">
        <ele>277.4</ele>
        <time>2022-06-25T09:40:35Z</time>
      </trkpt>
      <trkpt lat="46.49813" lon="4.83065">
        <ele>277.4</ele>
        <time>2022-06-25T09:40:36Z</time>
      </trkpt>
      <trkpt lat="46.49806" lon="4.83059">
        <ele>277</ele>
        <time>2022-06-25T09:40:37Z</time>
      </trkpt>
      <trkpt lat="46.49799" lon="4.83053">
        <ele>276.6</ele>
        <time>2022-06-25T09:40:38Z</time>
      </trkpt>
      <trkpt lat="46.49792" lon="4.83048">
        <ele>276.4</ele>
        <time>2022-06-25T09:40:39Z</time>
      </trkpt>
      <trkpt lat="46.49786" lon="4.83042">
        <ele>276.2</ele>
        <time>2022-06-25T09:40:40Z</time>
      </trkpt>
      <trkpt lat="46.49772" lon="4.83031">
        <ele>275.8</ele>
        <time>2022-06-25T09:40:41Z</time>
      </trkpt>
      <trkpt lat="46.49765" lon="4.83025">
        <ele>275.6</ele>
        <time>2022-06-25T09:40:42Z</time>
      </trkpt>
      <trkpt lat="46.49758" lon="4.83018">
        <ele>275.2</ele>
        <time>2022-06-25T09:40:43Z</time>
      </trkpt>
      <trkpt lat="46.4975" lon="4.83012">
        <ele>275.2</ele>
        <time>2022-06-25T09:40:44Z</time>
      </trkpt>
      <trkpt lat="46.49743" lon="4.83007">
        <ele>274.8</ele>
        <time>2022-06-25T09:40:45Z</time>
      </trkpt>
      <trkpt lat="46.49736" lon="4.83001">
        <ele>274.4</ele>
        <time>2022-06-25T09:40:46Z</time>
      </trkpt>
      <trkpt lat="46.49728" lon="4.82995">
        <ele>274</ele>
        <time>2022-06-25T09:40:47Z</time>
      </trkpt>
      <trkpt lat="46.49721" lon="4.82988">
        <ele>273.6</ele>
        <time>2022-06-25T09:40:48Z</time>
      </trkpt>
      <trkpt lat="46.49713" lon="4.82982">
        <ele>273.4</ele>
        <time>2022-06-25T09:40:49Z</time>
      </trkpt>
      <trkpt lat="46.49706" lon="4.82976">
        <ele>273.2</ele>
        <time>2022-06-25T09:40:50Z</time>
      </trkpt>
      <trkpt lat="46.49698" lon="4.8297">
        <ele>272.8</ele>
        <time>2022-06-25T09:40:51Z</time>
      </trkpt>
      <trkpt lat="46.4969" lon="4.82963">
        <ele>272.4</ele>
        <time>2022-06-25T09:40:52Z</time>
      </trkpt>
      <trkpt lat="46.49683" lon="4.82957">
        <ele>272.2</ele>
        <time>2022-06-25T09:40:53Z</time>
      </trkpt>
      <trkpt lat="46.49675" lon="4.8295">
        <ele>271.6</ele>
        <time>2022-06-25T09:40:54Z</time>
      </trkpt>
      <trkpt lat="46.49667" lon="4.82944">
        <ele>271.4</ele>
        <time>2022-06-25T09:40:55Z</time>
      </trkpt>
      <trkpt lat="46.49659" lon="4.82937">
        <ele>271</ele>
        <time>2022-06-25T09:40:56Z</time>
      </trkpt>
      <trkpt lat="46.49651" lon="4.82931">
        <ele>270.8</ele>
        <time>2022-06-25T09:40:57Z</time>
      </trkpt>
      <trkpt lat="46.49643" lon="4.82924">
        <ele>270.4</ele>
        <time>2022-06-25T09:40:58Z</time>
      </trkpt>
      <trkpt lat="46.49635" lon="4.82917">
        <ele>270</ele>
        <time>2022-06-25T09:40:59Z</time>
      </trkpt>
      <trkpt lat="46.49627" lon="4.82911">
        <ele>269.6</ele>
        <time>2022-06-25T09:41:00Z</time>
      </trkpt>
      <trkpt lat="46.49619" lon="4.82904">
        <ele>269.2</ele>
        <time>2022-06-25T09:41:01Z</time>
      </trkpt>
      <trkpt lat="46.4961" lon="4.82897">
        <ele>268.8</ele>
        <time>2022-06-25T09:41:02Z</time>
      </trkpt>
      <trkpt lat="46.49602" lon="4.82891">
        <ele>268.2</ele>
        <time>2022-06-25T09:41:03Z</time>
      </trkpt>
      <trkpt lat="46.49593" lon="4.82884">
        <ele>267.8</ele>
        <time>2022-06-25T09:41:04Z</time>
      </trkpt>
      <trkpt lat="46.49585" lon="4.82877">
        <ele>267.2</ele>
        <time>2022-06-25T09:41:05Z</time>
      </trkpt>
      <trkpt lat="46.49576" lon="4.8287">
        <ele>266.8</ele>
        <time>2022-06-25T09:41:06Z</time>
      </trkpt>
      <trkpt lat="46.49568" lon="4.82862">
        <ele>266.2</ele>
        <time>2022-06-25T09:41:07Z</time>
      </trkpt>
      <trkpt lat="46.49559" lon="4.82855">
        <ele>265.8</ele>
        <time>2022-06-25T09:41:08Z</time>
      </trkpt>
      <trkpt lat="46.4955" lon="4.82848">
        <ele>265.4</ele>
        <time>2022-06-25T09:41:09Z</time>
      </trkpt>
      <trkpt lat="46.49541" lon="4.82841">
        <ele>265</ele>
        <time>2022-06-25T09:41:10Z</time>
      </trkpt>
      <trkpt lat="46.49533" lon="4.82834">
        <ele>264.6</ele>
        <time>2022-06-25T09:41:11Z</time>
      </trkpt>
      <trkpt lat="46.49524" lon="4.82826">
        <ele>264.2</ele>
        <time>2022-06-25T09:41:12Z</time>
      </trkpt>
      <trkpt lat="46.49515" lon="4.82819">
        <ele>263.8</ele>
        <time>2022-06-25T09:41:13Z</time>
      </trkpt>
      <trkpt lat="46.49506" lon="4.82812">
        <ele>263.4</ele>
        <time>2022-06-25T09:41:14Z</time>
      </trkpt>
      <trkpt lat="46.49497" lon="4.82804">
        <ele>262.2</ele>
        <time>2022-06-25T09:41:15Z</time>
      </trkpt>
      <trkpt lat="46.49487" lon="4.82796">
        <ele>262.2</ele>
        <time>2022-06-25T09:41:16Z</time>
      </trkpt>
      <trkpt lat="46.49477" lon="4.82787">
        <ele>261.8</ele>
        <time>2022-06-25T09:41:17Z</time>
      </trkpt>
      <trkpt lat="46.49468" lon="4.8278">
        <ele>261.4</ele>
        <time>2022-06-25T09:41:18Z</time>
      </trkpt>
      <trkpt lat="46.49459" lon="4.82772">
        <ele>260.8</ele>
        <time>2022-06-25T09:41:19Z</time>
      </trkpt>
      <trkpt lat="46.4945" lon="4.82765">
        <ele>260.4</ele>
        <time>2022-06-25T09:41:20Z</time>
      </trkpt>
      <trkpt lat="46.49441" lon="4.82757">
        <ele>259.8</ele>
        <time>2022-06-25T09:41:21Z</time>
      </trkpt>
      <trkpt lat="46.49432" lon="4.82749">
        <ele>259.6</ele>
        <time>2022-06-25T09:41:22Z</time>
      </trkpt>
      <trkpt lat="46.49423" lon="4.8274">
        <ele>259</ele>
        <time>2022-06-25T09:41:23Z</time>
      </trkpt>
      <trkpt lat="46.49414" lon="4.82732">
        <ele>258.4</ele>
        <time>2022-06-25T09:41:24Z</time>
      </trkpt>
      <trkpt lat="46.49405" lon="4.82724">
        <ele>257.6</ele>
        <time>2022-06-25T09:41:25Z</time>
      </trkpt>
      <trkpt lat="46.49396" lon="4.82715">
        <ele>257.2</ele>
        <time>2022-06-25T09:41:26Z</time>
      </trkpt>
      <trkpt lat="46.49387" lon="4.82707">
        <ele>256.8</ele>
        <time>2022-06-25T09:41:27Z</time>
      </trkpt>
      <trkpt lat="46.49378" lon="4.82698">
        <ele>256.4</ele>
        <time>2022-06-25T09:41:28Z</time>
      </trkpt>
      <trkpt lat="46.49369" lon="4.82689">
        <ele>256</ele>
        <time>2022-06-25T09:41:29Z</time>
      </trkpt>
      <trkpt lat="46.49361" lon="4.8268">
        <ele>255.6</ele>
        <time>2022-06-25T09:41:30Z</time>
      </trkpt>
      <trkpt lat="46.49352" lon="4.82671">
        <ele>255</ele>
        <time>2022-06-25T09:41:31Z</time>
      </trkpt>
      <trkpt lat="46.49342" lon="4.82662">
        <ele>254.6</ele>
        <time>2022-06-25T09:41:32Z</time>
      </trkpt>
      <trkpt lat="46.49334" lon="4.82655">
        <ele>254.2</ele>
        <time>2022-06-25T09:41:33Z</time>
      </trkpt>
      <trkpt lat="46.49325" lon="4.82647">
        <ele>253.8</ele>
        <time>2022-06-25T09:41:34Z</time>
      </trkpt>
      <trkpt lat="46.49317" lon="4.82638">
        <ele>253.6</ele>
        <time>2022-06-25T09:41:35Z</time>
      </trkpt>
      <trkpt lat="46.49309" lon="4.82629">
        <ele>253.2</ele>
        <time>2022-06-25T09:41:36Z</time>
      </trkpt>
      <trkpt lat="46.49301" lon="4.82621">
        <ele>253</ele>
        <time>2022-06-25T09:41:37Z</time>
      </trkpt>
      <trkpt lat="46.49293" lon="4.82612">
        <ele>252.6</ele>
        <time>2022-06-25T09:41:38Z</time>
      </trkpt>
      <trkpt lat="46.49285" lon="4.82603">
        <ele>252.2</ele>
        <time>2022-06-25T09:41:39Z</time>
      </trkpt>
      <trkpt lat="46.49277" lon="4.82594">
        <ele>251.8</ele>
        <time>2022-06-25T09:41:40Z</time>
      </trkpt>
      <trkpt lat="46.49269" lon="4.82587">
        <ele>251.4</ele>
        <time>2022-06-25T09:41:41Z</time>
      </trkpt>
      <trkpt lat="46.49261" lon="4.82579">
        <ele>251</ele>
        <time>2022-06-25T09:41:42Z</time>
      </trkpt>
      <trkpt lat="46.49253" lon="4.82571">
        <ele>251</ele>
        <time>2022-06-25T09:41:43Z</time>
      </trkpt>
      <trkpt lat="46.49244" lon="4.82562">
        <ele>250.6</ele>
        <time>2022-06-25T09:41:44Z</time>
      </trkpt>
      <trkpt lat="46.49237" lon="4.82554">
        <ele>250.6</ele>
        <time>2022-06-25T09:41:45Z</time>
      </trkpt>
      <trkpt lat="46.49229" lon="4.82547">
        <ele>250.2</ele>
        <time>2022-06-25T09:41:46Z</time>
      </trkpt>
      <trkpt lat="46.49221" lon="4.8254">
        <ele>250.2</ele>
        <time>2022-06-25T09:41:47Z</time>
      </trkpt>
      <trkpt lat="46.49214" lon="4.82533">
        <ele>250.2</ele>
        <time>2022-06-25T09:41:48Z</time>
      </trkpt>
      <trkpt lat="46.49207" lon="4.82526">
        <ele>250</ele>
        <time>2022-06-25T09:41:49Z</time>
      </trkpt>
      <trkpt lat="46.492" lon="4.82519">
        <ele>250</ele>
        <time>2022-06-25T09:41:50Z</time>
      </trkpt>
      <trkpt lat="46.49193" lon="4.82513">
        <ele>249.8</ele>
        <time>2022-06-25T09:41:51Z</time>
      </trkpt>
      <trkpt lat="46.49186" lon="4.82506">
        <ele>249.8</ele>
        <time>2022-06-25T09:41:52Z</time>
      </trkpt>
      <trkpt lat="46.49179" lon="4.825">
        <ele>249.6</ele>
        <time>2022-06-25T09:41:53Z</time>
      </trkpt>
      <trkpt lat="46.49173" lon="4.82494">
        <ele>249.6</ele>
        <time>2022-06-25T09:41:54Z</time>
      </trkpt>
      <trkpt lat="46.49166" lon="4.82488">
        <ele>249.6</ele>
        <time>2022-06-25T09:41:55Z</time>
      </trkpt>
      <trkpt lat="46.4916" lon="4.82482">
        <ele>249.4</ele>
        <time>2022-06-25T09:41:56Z</time>
      </trkpt>
      <trkpt lat="46.49154" lon="4.82476">
        <ele>249.4</ele>
        <time>2022-06-25T09:41:57Z</time>
      </trkpt>
      <trkpt lat="46.49147" lon="4.8247">
        <ele>249.4</ele>
        <time>2022-06-25T09:41:58Z</time>
      </trkpt>
      <trkpt lat="46.49142" lon="4.82464">
        <ele>249.4</ele>
        <time>2022-06-25T09:41:59Z</time>
      </trkpt>
      <trkpt lat="46.49136" lon="4.82458">
        <ele>249.2</ele>
        <time>2022-06-25T09:42:00Z</time>
      </trkpt>
      <trkpt lat="46.4913" lon="4.82452">
        <ele>249.2</ele>
        <time>2022-06-25T09:42:01Z</time>
      </trkpt>
      <trkpt lat="46.49124" lon="4.82446">
        <ele>249.2</ele>
        <time>2022-06-25T09:42:02Z</time>
      </trkpt>
      <trkpt lat="46.49119" lon="4.82441">
        <ele>249.2</ele>
        <time>2022-06-25T09:42:03Z</time>
      </trkpt>
      <trkpt lat="46.49113" lon="4.82435">
        <ele>249.2</ele>
        <time>2022-06-25T09:42:04Z</time>
      </trkpt>
      <trkpt lat="46.49107" lon="4.82429">
        <ele>249.2</ele>
        <time>2022-06-25T09:42:05Z</time>
      </trkpt>
      <trkpt lat="46.49102" lon="4.82424">
        <ele>249.2</ele>
        <time>2022-06-25T09:42:06Z</time>
      </trkpt>
      <trkpt lat="46.49097" lon="4.82418">
        <ele>249.2</ele>
        <time>2022-06-25T09:42:07Z</time>
      </trkpt>
      <trkpt lat="46.49092" lon="4.82413">
        <ele>249.4</ele>
        <time>2022-06-25T09:42:08Z</time>
      </trkpt>
      <trkpt lat="46.49086" lon="4.82408">
        <ele>249.6</ele>
        <time>2022-06-25T09:42:09Z</time>
      </trkpt>
      <trkpt lat="46.49081" lon="4.82404">
        <ele>249.6</ele>
        <time>2022-06-25T09:42:10Z</time>
      </trkpt>
      <trkpt lat="46.49076" lon="4.824">
        <ele>249.6</ele>
        <time>2022-06-25T09:42:11Z</time>
      </trkpt>
      <trkpt lat="46.4907" lon="4.82396">
        <ele>249.6</ele>
        <time>2022-06-25T09:42:12Z</time>
      </trkpt>
      <trkpt lat="46.49064" lon="4.82392">
        <ele>249.6</ele>
        <time>2022-06-25T09:42:13Z</time>
      </trkpt>
      <trkpt lat="46.49059" lon="4.82389">
        <ele>249.6</ele>
        <time>2022-06-25T09:42:14Z</time>
      </trkpt>
      <trkpt lat="46.49053" lon="4.82386">
        <ele>249.6</ele>
        <time>2022-06-25T09:42:15Z</time>
      </trkpt>
      <trkpt lat="46.49047" lon="4.82383">
        <ele>249.6</ele>
        <time>2022-06-25T09:42:16Z</time>
      </trkpt>
      <trkpt lat="46.49042" lon="4.82381">
        <ele>249.6</ele>
        <time>2022-06-25T09:42:17Z</time>
      </trkpt>
      <trkpt lat="46.49036" lon="4.82379">
        <ele>249.8</ele>
        <time>2022-06-25T09:42:18Z</time>
      </trkpt>
      <trkpt lat="46.49031" lon="4.82376">
        <ele>249.8</ele>
        <time>2022-06-25T09:42:19Z</time>
      </trkpt>
      <trkpt lat="46.49025" lon="4.82373">
        <ele>250</ele>
        <time>2022-06-25T09:42:20Z</time>
      </trkpt>
      <trkpt lat="46.4902" lon="4.82371">
        <ele>250</ele>
        <time>2022-06-25T09:42:21Z</time>
      </trkpt>
      <trkpt lat="46.49015" lon="4.82368">
        <ele>250.4</ele>
        <time>2022-06-25T09:42:22Z</time>
      </trkpt>
      <trkpt lat="46.4901" lon="4.82366">
        <ele>250.4</ele>
        <time>2022-06-25T09:42:23Z</time>
      </trkpt>
      <trkpt lat="46.49006" lon="4.82363">
        <ele>250.6</ele>
        <time>2022-06-25T09:42:24Z</time>
      </trkpt>
      <trkpt lat="46.49001" lon="4.82361">
        <ele>250.6</ele>
        <time>2022-06-25T09:42:25Z</time>
      </trkpt>
      <trkpt lat="46.48996" lon="4.82359">
        <ele>250.8</ele>
        <time>2022-06-25T09:42:26Z</time>
      </trkpt>
      <trkpt lat="46.48992" lon="4.82357">
        <ele>250.8</ele>
        <time>2022-06-25T09:42:27Z</time>
      </trkpt>
      <trkpt lat="46.48988" lon="4.82354">
        <ele>251.2</ele>
        <time>2022-06-25T09:42:28Z</time>
      </trkpt>
      <trkpt lat="46.48984" lon="4.82352">
        <ele>251.2</ele>
        <time>2022-06-25T09:42:29Z</time>
      </trkpt>
      <trkpt lat="46.4898" lon="4.8235">
        <ele>251.2</ele>
        <time>2022-06-25T09:42:30Z</time>
      </trkpt>
      <trkpt lat="46.48976" lon="4.82348">
        <ele>251.4</ele>
        <time>2022-06-25T09:42:31Z</time>
      </trkpt>
      <trkpt lat="46.48971" lon="4.82347">
        <ele>251.4</ele>
        <time>2022-06-25T09:42:32Z</time>
      </trkpt>
      <trkpt lat="46.48967" lon="4.82345">
        <ele>251.8</ele>
        <time>2022-06-25T09:42:33Z</time>
      </trkpt>
      <trkpt lat="46.48963" lon="4.82343">
        <ele>251.8</ele>
        <time>2022-06-25T09:42:34Z</time>
      </trkpt>
      <trkpt lat="46.48959" lon="4.82341">
        <ele>252.2</ele>
        <time>2022-06-25T09:42:35Z</time>
      </trkpt>
      <trkpt lat="46.48955" lon="4.82339">
        <ele>252.2</ele>
        <time>2022-06-25T09:42:36Z</time>
      </trkpt>
      <trkpt lat="46.48951" lon="4.82337">
        <ele>252.4</ele>
        <time>2022-06-25T09:42:37Z</time>
      </trkpt>
      <trkpt lat="46.48947" lon="4.82336">
        <ele>252.4</ele>
        <time>2022-06-25T09:42:38Z</time>
      </trkpt>
      <trkpt lat="46.48944" lon="4.82334">
        <ele>252.6</ele>
        <time>2022-06-25T09:42:39Z</time>
      </trkpt>
      <trkpt lat="46.4894" lon="4.82332">
        <ele>252.6</ele>
        <time>2022-06-25T09:42:40Z</time>
      </trkpt>
      <trkpt lat="46.48936" lon="4.82331">
        <ele>252.8</ele>
        <time>2022-06-25T09:42:41Z</time>
      </trkpt>
      <trkpt lat="46.48932" lon="4.82329">
        <ele>252.8</ele>
        <time>2022-06-25T09:42:42Z</time>
      </trkpt>
      <trkpt lat="46.48928" lon="4.82327">
        <ele>253.2</ele>
        <time>2022-06-25T09:42:43Z</time>
      </trkpt>
      <trkpt lat="46.48925" lon="4.82325">
        <ele>253.2</ele>
        <time>2022-06-25T09:42:44Z</time>
      </trkpt>
      <trkpt lat="46.48921" lon="4.82323">
        <ele>253.4</ele>
        <time>2022-06-25T09:42:45Z</time>
      </trkpt>
      <trkpt lat="46.48917" lon="4.82321">
        <ele>253.4</ele>
        <time>2022-06-25T09:42:46Z</time>
      </trkpt>
      <trkpt lat="46.48914" lon="4.82319">
        <ele>253.8</ele>
        <time>2022-06-25T09:42:47Z</time>
      </trkpt>
      <trkpt lat="46.4891" lon="4.82318">
        <ele>253.8</ele>
        <time>2022-06-25T09:42:48Z</time>
      </trkpt>
      <trkpt lat="46.48907" lon="4.82316">
        <ele>254</ele>
        <time>2022-06-25T09:42:49Z</time>
      </trkpt>
      <trkpt lat="46.48903" lon="4.82315">
        <ele>254</ele>
        <time>2022-06-25T09:42:50Z</time>
      </trkpt>
      <trkpt lat="46.48899" lon="4.82313">
        <ele>254.2</ele>
        <time>2022-06-25T09:42:51Z</time>
      </trkpt>
      <trkpt lat="46.48896" lon="4.82311">
        <ele>254.2</ele>
        <time>2022-06-25T09:42:52Z</time>
      </trkpt>
      <trkpt lat="46.48892" lon="4.82309">
        <ele>254.6</ele>
        <time>2022-06-25T09:42:53Z</time>
      </trkpt>
      <trkpt lat="46.48889" lon="4.82308">
        <ele>254.6</ele>
        <time>2022-06-25T09:42:54Z</time>
      </trkpt>
      <trkpt lat="46.48885" lon="4.82306">
        <ele>254.8</ele>
        <time>2022-06-25T09:42:55Z</time>
      </trkpt>
      <trkpt lat="46.48881" lon="4.82305">
        <ele>254.8</ele>
        <time>2022-06-25T09:42:56Z</time>
      </trkpt>
      <trkpt lat="46.48878" lon="4.82303">
        <ele>255</ele>
        <time>2022-06-25T09:42:57Z</time>
      </trkpt>
      <trkpt lat="46.48874" lon="4.82301">
        <ele>255</ele>
        <time>2022-06-25T09:42:58Z</time>
      </trkpt>
      <trkpt lat="46.48871" lon="4.82299">
        <ele>255.2</ele>
        <time>2022-06-25T09:42:59Z</time>
      </trkpt>
      <trkpt lat="46.48867" lon="4.82298">
        <ele>255.2</ele>
        <time>2022-06-25T09:43:00Z</time>
      </trkpt>
      <trkpt lat="46.48863" lon="4.82296">
        <ele>255.6</ele>
        <time>2022-06-25T09:43:01Z</time>
      </trkpt>
      <trkpt lat="46.48859" lon="4.82294">
        <ele>255.6</ele>
        <time>2022-06-25T09:43:02Z</time>
      </trkpt>
      <trkpt lat="46.48855" lon="4.82292">
        <ele>255.6</ele>
        <time>2022-06-25T09:43:03Z</time>
      </trkpt>
      <trkpt lat="46.48851" lon="4.8229">
        <ele>255.8</ele>
        <time>2022-06-25T09:43:04Z</time>
      </trkpt>
      <trkpt lat="46.48847" lon="4.82288">
        <ele>255.8</ele>
        <time>2022-06-25T09:43:05Z</time>
      </trkpt>
      <trkpt lat="46.48843" lon="4.82286">
        <ele>256.2</ele>
        <time>2022-06-25T09:43:06Z</time>
      </trkpt>
      <trkpt lat="46.48839" lon="4.82283">
        <ele>256.2</ele>
        <time>2022-06-25T09:43:07Z</time>
      </trkpt>
      <trkpt lat="46.48835" lon="4.82281">
        <ele>256.4</ele>
        <time>2022-06-25T09:43:08Z</time>
      </trkpt>
      <trkpt lat="46.4883" lon="4.82279">
        <ele>256.4</ele>
        <time>2022-06-25T09:43:09Z</time>
      </trkpt>
      <trkpt lat="46.48826" lon="4.82277">
        <ele>256.8</ele>
        <time>2022-06-25T09:43:10Z</time>
      </trkpt>
      <trkpt lat="46.48822" lon="4.82275">
        <ele>256.8</ele>
        <time>2022-06-25T09:43:11Z</time>
      </trkpt>
      <trkpt lat="46.48818" lon="4.82273">
        <ele>257</ele>
        <time>2022-06-25T09:43:12Z</time>
      </trkpt>
      <trkpt lat="46.48813" lon="4.82271">
        <ele>257</ele>
        <time>2022-06-25T09:43:13Z</time>
      </trkpt>
      <trkpt lat="46.48809" lon="4.82269">
        <ele>257.4</ele>
        <time>2022-06-25T09:43:14Z</time>
      </trkpt>
      <trkpt lat="46.48805" lon="4.82266">
        <ele>257.4</ele>
        <time>2022-06-25T09:43:15Z</time>
      </trkpt>
      <trkpt lat="46.48801" lon="4.82264">
        <ele>257.8</ele>
        <time>2022-06-25T09:43:16Z</time>
      </trkpt>
      <trkpt lat="46.48797" lon="4.82263">
        <ele>257.8</ele>
        <time>2022-06-25T09:43:17Z</time>
      </trkpt>
      <trkpt lat="46.48792" lon="4.82261">
        <ele>258</ele>
        <time>2022-06-25T09:43:18Z</time>
      </trkpt>
      <trkpt lat="46.48788" lon="4.82259">
        <ele>258</ele>
        <time>2022-06-25T09:43:19Z</time>
      </trkpt>
      <trkpt lat="46.48784" lon="4.82257">
        <ele>258</ele>
        <time>2022-06-25T09:43:20Z</time>
      </trkpt>
      <trkpt lat="46.4878" lon="4.82255">
        <ele>258.2</ele>
        <time>2022-06-25T09:43:21Z</time>
      </trkpt>
      <trkpt lat="46.48776" lon="4.82253">
        <ele>258.2</ele>
        <time>2022-06-25T09:43:22Z</time>
      </trkpt>
      <trkpt lat="46.48772" lon="4.8225">
        <ele>258.2</ele>
        <time>2022-06-25T09:43:23Z</time>
      </trkpt>
      <trkpt lat="46.48767" lon="4.82248">
        <ele>258.6</ele>
        <time>2022-06-25T09:43:24Z</time>
      </trkpt>
      <trkpt lat="46.48763" lon="4.82246">
        <ele>258.6</ele>
        <time>2022-06-25T09:43:25Z</time>
      </trkpt>
      <trkpt lat="46.48759" lon="4.82244">
        <ele>258.8</ele>
        <time>2022-06-25T09:43:26Z</time>
      </trkpt>
      <trkpt lat="46.48755" lon="4.82242">
        <ele>258.8</ele>
        <time>2022-06-25T09:43:27Z</time>
      </trkpt>
      <trkpt lat="46.48751" lon="4.8224">
        <ele>258.8</ele>
        <time>2022-06-25T09:43:28Z</time>
      </trkpt>
      <trkpt lat="46.48747" lon="4.82238">
        <ele>259.2</ele>
        <time>2022-06-25T09:43:29Z</time>
      </trkpt>
      <trkpt lat="46.48743" lon="4.82236">
        <ele>259.2</ele>
        <time>2022-06-25T09:43:30Z</time>
      </trkpt>
      <trkpt lat="46.48739" lon="4.82234">
        <ele>259.6</ele>
        <time>2022-06-25T09:43:31Z</time>
      </trkpt>
      <trkpt lat="46.48735" lon="4.82231">
        <ele>259.6</ele>
        <time>2022-06-25T09:43:32Z</time>
      </trkpt>
      <trkpt lat="46.48731" lon="4.82229">
        <ele>260</ele>
        <time>2022-06-25T09:43:33Z</time>
      </trkpt>
      <trkpt lat="46.48728" lon="4.82226">
        <ele>260</ele>
        <time>2022-06-25T09:43:34Z</time>
      </trkpt>
      <trkpt lat="46.48724" lon="4.82224">
        <ele>260.2</ele>
        <time>2022-06-25T09:43:35Z</time>
      </trkpt>
      <trkpt lat="46.48719" lon="4.82221">
        <ele>260.2</ele>
        <time>2022-06-25T09:43:36Z</time>
      </trkpt>
      <trkpt lat="46.48716" lon="4.82219">
        <ele>260.6</ele>
        <time>2022-06-25T09:43:37Z</time>
      </trkpt>
      <trkpt lat="46.48712" lon="4.82216">
        <ele>260.6</ele>
        <time>2022-06-25T09:43:38Z</time>
      </trkpt>
      <trkpt lat="46.48708" lon="4.82213">
        <ele>260.8</ele>
        <time>2022-06-25T09:43:39Z</time>
      </trkpt>
      <trkpt lat="46.48704" lon="4.8221">
        <ele>260.8</ele>
        <time>2022-06-25T09:43:40Z</time>
      </trkpt>
      <trkpt lat="46.487" lon="4.82208">
        <ele>261</ele>
        <time>2022-06-25T09:43:41Z</time>
      </trkpt>
      <trkpt lat="46.48696" lon="4.82205">
        <ele>261</ele>
        <time>2022-06-25T09:43:42Z</time>
      </trkpt>
      <trkpt lat="46.48692" lon="4.82202">
        <ele>261.2</ele>
        <time>2022-06-25T09:43:43Z</time>
      </trkpt>
      <trkpt lat="46.48687" lon="4.82199">
        <ele>261.2</ele>
        <time>2022-06-25T09:43:44Z</time>
      </trkpt>
      <trkpt lat="46.48683" lon="4.82197">
        <ele>261.6</ele>
        <time>2022-06-25T09:43:45Z</time>
      </trkpt>
      <trkpt lat="46.48679" lon="4.82194">
        <ele>261.6</ele>
        <time>2022-06-25T09:43:46Z</time>
      </trkpt>
      <trkpt lat="46.48675" lon="4.82191">
        <ele>261.8</ele>
        <time>2022-06-25T09:43:47Z</time>
      </trkpt>
      <trkpt lat="46.48671" lon="4.82188">
        <ele>262.2</ele>
        <time>2022-06-25T09:43:48Z</time>
      </trkpt>
      <trkpt lat="46.48667" lon="4.82185">
        <ele>262.2</ele>
        <time>2022-06-25T09:43:49Z</time>
      </trkpt>
      <trkpt lat="46.48663" lon="4.82183">
        <ele>262.4</ele>
        <time>2022-06-25T09:43:50Z</time>
      </trkpt>
      <trkpt lat="46.48658" lon="4.8218">
        <ele>262.4</ele>
        <time>2022-06-25T09:43:51Z</time>
      </trkpt>
      <trkpt lat="46.48654" lon="4.82177">
        <ele>262.4</ele>
        <time>2022-06-25T09:43:52Z</time>
      </trkpt>
      <trkpt lat="46.4865" lon="4.82174">
        <ele>262.4</ele>
        <time>2022-06-25T09:43:53Z</time>
      </trkpt>
      <trkpt lat="46.48645" lon="4.82171">
        <ele>262.4</ele>
        <time>2022-06-25T09:43:54Z</time>
      </trkpt>
      <trkpt lat="46.48641" lon="4.82169">
        <ele>262.4</ele>
        <time>2022-06-25T09:43:55Z</time>
      </trkpt>
      <trkpt lat="46.48636" lon="4.82166">
        <ele>262.4</ele>
        <time>2022-06-25T09:43:56Z</time>
      </trkpt>
      <trkpt lat="46.48632" lon="4.82163">
        <ele>262.6</ele>
        <time>2022-06-25T09:43:57Z</time>
      </trkpt>
      <trkpt lat="46.48627" lon="4.8216">
        <ele>262.6</ele>
        <time>2022-06-25T09:43:58Z</time>
      </trkpt>
      <trkpt lat="46.48623" lon="4.82157">
        <ele>262.8</ele>
        <time>2022-06-25T09:43:59Z</time>
      </trkpt>
      <trkpt lat="46.48618" lon="4.82153">
        <ele>262.8</ele>
        <time>2022-06-25T09:44:00Z</time>
      </trkpt>
      <trkpt lat="46.48613" lon="4.8215">
        <ele>262.8</ele>
        <time>2022-06-25T09:44:01Z</time>
      </trkpt>
      <trkpt lat="46.48608" lon="4.82147">
        <ele>262.8</ele>
        <time>2022-06-25T09:44:02Z</time>
      </trkpt>
      <trkpt lat="46.48602" lon="4.82144">
        <ele>262.8</ele>
        <time>2022-06-25T09:44:03Z</time>
      </trkpt>
      <trkpt lat="46.48597" lon="4.8214">
        <ele>263</ele>
        <time>2022-06-25T09:44:04Z</time>
      </trkpt>
      <trkpt lat="46.48591" lon="4.82136">
        <ele>263</ele>
        <time>2022-06-25T09:44:05Z</time>
      </trkpt>
      <trkpt lat="46.48586" lon="4.82132">
        <ele>263</ele>
        <time>2022-06-25T09:44:06Z</time>
      </trkpt>
      <trkpt lat="46.4858" lon="4.82129">
        <ele>263</ele>
        <time>2022-06-25T09:44:07Z</time>
      </trkpt>
      <trkpt lat="46.48573" lon="4.82125">
        <ele>263</ele>
        <time>2022-06-25T09:44:08Z</time>
      </trkpt>
      <trkpt lat="46.48567" lon="4.8212">
        <ele>262.8</ele>
        <time>2022-06-25T09:44:09Z</time>
      </trkpt>
      <trkpt lat="46.4856" lon="4.82116">
        <ele>262.8</ele>
        <time>2022-06-25T09:44:10Z</time>
      </trkpt>
      <trkpt lat="46.48553" lon="4.82112">
        <ele>262.8</ele>
        <time>2022-06-25T09:44:11Z</time>
      </trkpt>
      <trkpt lat="46.48546" lon="4.82107">
        <ele>262.4</ele>
        <time>2022-06-25T09:44:12Z</time>
      </trkpt>
      <trkpt lat="46.48539" lon="4.82102">
        <ele>262.2</ele>
        <time>2022-06-25T09:44:13Z</time>
      </trkpt>
      <trkpt lat="46.48531" lon="4.82098">
        <ele>261.8</ele>
        <time>2022-06-25T09:44:14Z</time>
      </trkpt>
      <trkpt lat="46.48523" lon="4.82093">
        <ele>261.8</ele>
        <time>2022-06-25T09:44:15Z</time>
      </trkpt>
      <trkpt lat="46.48515" lon="4.82088">
        <ele>261.8</ele>
        <time>2022-06-25T09:44:16Z</time>
      </trkpt>
      <trkpt lat="46.48508" lon="4.82083">
        <ele>261.4</ele>
        <time>2022-06-25T09:44:17Z</time>
      </trkpt>
      <trkpt lat="46.485" lon="4.82078">
        <ele>261</ele>
        <time>2022-06-25T09:44:18Z</time>
      </trkpt>
      <trkpt lat="46.48492" lon="4.82073">
        <ele>260.8</ele>
        <time>2022-06-25T09:44:19Z</time>
      </trkpt>
      <trkpt lat="46.48484" lon="4.82068">
        <ele>260.4</ele>
        <time>2022-06-25T09:44:20Z</time>
      </trkpt>
      <trkpt lat="46.48476" lon="4.82063">
        <ele>260</ele>
        <time>2022-06-25T09:44:21Z</time>
      </trkpt>
      <trkpt lat="46.48467" lon="4.82058">
        <ele>259.8</ele>
        <time>2022-06-25T09:44:22Z</time>
      </trkpt>
      <trkpt lat="46.48459" lon="4.82053">
        <ele>259.4</ele>
        <time>2022-06-25T09:44:23Z</time>
      </trkpt>
      <trkpt lat="46.48451" lon="4.82049">
        <ele>259</ele>
        <time>2022-06-25T09:44:24Z</time>
      </trkpt>
      <trkpt lat="46.48443" lon="4.82044">
        <ele>258.6</ele>
        <time>2022-06-25T09:44:25Z</time>
      </trkpt>
      <trkpt lat="46.48435" lon="4.8204">
        <ele>258.4</ele>
        <time>2022-06-25T09:44:26Z</time>
      </trkpt>
      <trkpt lat="46.48426" lon="4.82036">
        <ele>258</ele>
        <time>2022-06-25T09:44:27Z</time>
      </trkpt>
      <trkpt lat="46.48418" lon="4.82031">
        <ele>257.8</ele>
        <time>2022-06-25T09:44:28Z</time>
      </trkpt>
      <trkpt lat="46.48409" lon="4.82027">
        <ele>257.4</ele>
        <time>2022-06-25T09:44:29Z</time>
      </trkpt>
      <trkpt lat="46.48401" lon="4.82023">
        <ele>257.4</ele>
        <time>2022-06-25T09:44:30Z</time>
      </trkpt>
      <trkpt lat="46.48393" lon="4.82018">
        <ele>257.2</ele>
        <time>2022-06-25T09:44:31Z</time>
      </trkpt>
      <trkpt lat="46.48384" lon="4.82014">
        <ele>257.2</ele>
        <time>2022-06-25T09:44:32Z</time>
      </trkpt>
      <trkpt lat="46.48376" lon="4.82009">
        <ele>256.8</ele>
        <time>2022-06-25T09:44:33Z</time>
      </trkpt>
      <trkpt lat="46.48367" lon="4.82004">
        <ele>256.6</ele>
        <time>2022-06-25T09:44:34Z</time>
      </trkpt>
      <trkpt lat="46.48359" lon="4.81999">
        <ele>256.6</ele>
        <time>2022-06-25T09:44:35Z</time>
      </trkpt>
      <trkpt lat="46.48351" lon="4.81994">
        <ele>256.4</ele>
        <time>2022-06-25T09:44:36Z</time>
      </trkpt>
      <trkpt lat="46.48343" lon="4.81989">
        <ele>256.2</ele>
        <time>2022-06-25T09:44:37Z</time>
      </trkpt>
      <trkpt lat="46.48335" lon="4.81983">
        <ele>255.8</ele>
        <time>2022-06-25T09:44:38Z</time>
      </trkpt>
      <trkpt lat="46.48327" lon="4.81978">
        <ele>255.8</ele>
        <time>2022-06-25T09:44:39Z</time>
      </trkpt>
      <trkpt lat="46.48319" lon="4.81973">
        <ele>255.6</ele>
        <time>2022-06-25T09:44:40Z</time>
      </trkpt>
      <trkpt lat="46.48311" lon="4.81967">
        <ele>255.6</ele>
        <time>2022-06-25T09:44:41Z</time>
      </trkpt>
      <trkpt lat="46.48304" lon="4.81962">
        <ele>255.2</ele>
        <time>2022-06-25T09:44:42Z</time>
      </trkpt>
      <trkpt lat="46.48296" lon="4.81957">
        <ele>254.8</ele>
        <time>2022-06-25T09:44:43Z</time>
      </trkpt>
      <trkpt lat="46.48288" lon="4.81952">
        <ele>254.6</ele>
        <time>2022-06-25T09:44:44Z</time>
      </trkpt>
      <trkpt lat="46.4828" lon="4.81946">
        <ele>254.2</ele>
        <time>2022-06-25T09:44:45Z</time>
      </trkpt>
      <trkpt lat="46.48273" lon="4.81941">
        <ele>254</ele>
        <time>2022-06-25T09:44:46Z</time>
      </trkpt>
      <trkpt lat="46.48265" lon="4.81936">
        <ele>253.6</ele>
        <time>2022-06-25T09:44:47Z</time>
      </trkpt>
      <trkpt lat="46.48257" lon="4.8193">
        <ele>253.4</ele>
        <time>2022-06-25T09:44:48Z</time>
      </trkpt>
      <trkpt lat="46.4825" lon="4.81924">
        <ele>253.4</ele>
        <time>2022-06-25T09:44:49Z</time>
      </trkpt>
      <trkpt lat="46.48243" lon="4.81918">
        <ele>253</ele>
        <time>2022-06-25T09:44:50Z</time>
      </trkpt>
      <trkpt lat="46.48236" lon="4.81911">
        <ele>253</ele>
        <time>2022-06-25T09:44:51Z</time>
      </trkpt>
      <trkpt lat="46.48229" lon="4.81904">
        <ele>252.6</ele>
        <time>2022-06-25T09:44:52Z</time>
      </trkpt>
      <trkpt lat="46.48222" lon="4.81896">
        <ele>252.6</ele>
        <time>2022-06-25T09:44:53Z</time>
      </trkpt>
      <trkpt lat="46.48216" lon="4.81888">
        <ele>252.4</ele>
        <time>2022-06-25T09:44:54Z</time>
      </trkpt>
      <trkpt lat="46.4821" lon="4.8188">
        <ele>252.4</ele>
        <time>2022-06-25T09:44:55Z</time>
      </trkpt>
      <trkpt lat="46.48205" lon="4.81871">
        <ele>252.2</ele>
        <time>2022-06-25T09:44:56Z</time>
      </trkpt>
      <trkpt lat="46.48199" lon="4.81862">
        <ele>252.2</ele>
        <time>2022-06-25T09:44:57Z</time>
      </trkpt>
      <trkpt lat="46.48194" lon="4.81852">
        <ele>251.8</ele>
        <time>2022-06-25T09:44:58Z</time>
      </trkpt>
      <trkpt lat="46.48189" lon="4.81843">
        <ele>251.8</ele>
        <time>2022-06-25T09:44:59Z</time>
      </trkpt>
      <trkpt lat="46.48183" lon="4.81834">
        <ele>251.6</ele>
        <time>2022-06-25T09:45:00Z</time>
      </trkpt>
      <trkpt lat="46.48178" lon="4.81825">
        <ele>251.4</ele>
        <time>2022-06-25T09:45:01Z</time>
      </trkpt>
      <trkpt lat="46.48172" lon="4.81816">
        <ele>251.4</ele>
        <time>2022-06-25T09:45:02Z</time>
      </trkpt>
      <trkpt lat="46.48166" lon="4.81808">
        <ele>251</ele>
        <time>2022-06-25T09:45:03Z</time>
      </trkpt>
      <trkpt lat="46.48159" lon="4.818">
        <ele>250.6</ele>
        <time>2022-06-25T09:45:04Z</time>
      </trkpt>
      <trkpt lat="46.48153" lon="4.81792">
        <ele>250.4</ele>
        <time>2022-06-25T09:45:05Z</time>
      </trkpt>
      <trkpt lat="46.48146" lon="4.81785">
        <ele>250.2</ele>
        <time>2022-06-25T09:45:06Z</time>
      </trkpt>
      <trkpt lat="46.48139" lon="4.81778">
        <ele>249.8</ele>
        <time>2022-06-25T09:45:07Z</time>
      </trkpt>
      <trkpt lat="46.48132" lon="4.81771">
        <ele>249.8</ele>
        <time>2022-06-25T09:45:08Z</time>
      </trkpt>
      <trkpt lat="46.48125" lon="4.81764">
        <ele>249.4</ele>
        <time>2022-06-25T09:45:09Z</time>
      </trkpt>
      <trkpt lat="46.48119" lon="4.81757">
        <ele>249.4</ele>
        <time>2022-06-25T09:45:10Z</time>
      </trkpt>
      <trkpt lat="46.48112" lon="4.8175">
        <ele>249</ele>
        <time>2022-06-25T09:45:11Z</time>
      </trkpt>
      <trkpt lat="46.48105" lon="4.81743">
        <ele>249</ele>
        <time>2022-06-25T09:45:12Z</time>
      </trkpt>
      <trkpt lat="46.48099" lon="4.81736">
        <ele>248.6</ele>
        <time>2022-06-25T09:45:13Z</time>
      </trkpt>
      <trkpt lat="46.48093" lon="4.81728">
        <ele>248.6</ele>
        <time>2022-06-25T09:45:14Z</time>
      </trkpt>
      <trkpt lat="46.48087" lon="4.81721">
        <ele>248.6</ele>
        <time>2022-06-25T09:45:15Z</time>
      </trkpt>
      <trkpt lat="46.48081" lon="4.81713">
        <ele>248.2</ele>
        <time>2022-06-25T09:45:16Z</time>
      </trkpt>
      <trkpt lat="46.48076" lon="4.81705">
        <ele>248</ele>
        <time>2022-06-25T09:45:17Z</time>
      </trkpt>
      <trkpt lat="46.48071" lon="4.81695">
        <ele>247.6</ele>
        <time>2022-06-25T09:45:18Z</time>
      </trkpt>
      <trkpt lat="46.48066" lon="4.81685">
        <ele>247.2</ele>
        <time>2022-06-25T09:45:19Z</time>
      </trkpt>
      <trkpt lat="46.48062" lon="4.81675">
        <ele>246.8</ele>
        <time>2022-06-25T09:45:20Z</time>
      </trkpt>
      <trkpt lat="46.48058" lon="4.81664">
        <ele>246.4</ele>
        <time>2022-06-25T09:45:21Z</time>
      </trkpt>
      <trkpt lat="46.48055" lon="4.81652">
        <ele>246</ele>
        <time>2022-06-25T09:45:22Z</time>
      </trkpt>
      <trkpt lat="46.48051" lon="4.8164">
        <ele>245.6</ele>
        <time>2022-06-25T09:45:23Z</time>
      </trkpt>
      <trkpt lat="46.48047" lon="4.81629">
        <ele>245.2</ele>
        <time>2022-06-25T09:45:24Z</time>
      </trkpt>
      <trkpt lat="46.48044" lon="4.81617">
        <ele>245</ele>
        <time>2022-06-25T09:45:25Z</time>
      </trkpt>
      <trkpt lat="46.4804" lon="4.81606">
        <ele>244.4</ele>
        <time>2022-06-25T09:45:26Z</time>
      </trkpt>
      <trkpt lat="46.48035" lon="4.81595">
        <ele>244.2</ele>
        <time>2022-06-25T09:45:27Z</time>
      </trkpt>
      <trkpt lat="46.4803" lon="4.81585">
        <ele>244.2</ele>
        <time>2022-06-25T09:45:28Z</time>
      </trkpt>
      <trkpt lat="46.48025" lon="4.81575">
        <ele>243.8</ele>
        <time>2022-06-25T09:45:29Z</time>
      </trkpt>
      <trkpt lat="46.4802" lon="4.81565">
        <ele>243.6</ele>
        <time>2022-06-25T09:45:30Z</time>
      </trkpt>
      <trkpt lat="46.48015" lon="4.81556">
        <ele>243.2</ele>
        <time>2022-06-25T09:45:31Z</time>
      </trkpt>
      <trkpt lat="46.4801" lon="4.81546">
        <ele>242.8</ele>
        <time>2022-06-25T09:45:32Z</time>
      </trkpt>
      <trkpt lat="46.48005" lon="4.81537">
        <ele>242.4</ele>
        <time>2022-06-25T09:45:33Z</time>
      </trkpt>
      <trkpt lat="46.48" lon="4.81528">
        <ele>242</ele>
        <time>2022-06-25T09:45:34Z</time>
      </trkpt>
      <trkpt lat="46.47994" lon="4.81519">
        <ele>241.8</ele>
        <time>2022-06-25T09:45:35Z</time>
      </trkpt>
      <trkpt lat="46.47989" lon="4.81511">
        <ele>241.4</ele>
        <time>2022-06-25T09:45:36Z</time>
      </trkpt>
      <trkpt lat="46.47983" lon="4.81503">
        <ele>241.2</ele>
        <time>2022-06-25T09:45:37Z</time>
      </trkpt>
      <trkpt lat="46.47978" lon="4.81495">
        <ele>241.2</ele>
        <time>2022-06-25T09:45:38Z</time>
      </trkpt>
      <trkpt lat="46.47972" lon="4.81487">
        <ele>241</ele>
        <time>2022-06-25T09:45:39Z</time>
      </trkpt>
      <trkpt lat="46.47967" lon="4.8148">
        <ele>241</ele>
        <time>2022-06-25T09:45:40Z</time>
      </trkpt>
      <trkpt lat="46.47962" lon="4.81472">
        <ele>241</ele>
        <time>2022-06-25T09:45:41Z</time>
      </trkpt>
      <trkpt lat="46.47957" lon="4.81465">
        <ele>240.8</ele>
        <time>2022-06-25T09:45:42Z</time>
      </trkpt>
      <trkpt lat="46.47952" lon="4.81457">
        <ele>240.8</ele>
        <time>2022-06-25T09:45:43Z</time>
      </trkpt>
      <trkpt lat="46.47947" lon="4.81449">
        <ele>240.6</ele>
        <time>2022-06-25T09:45:44Z</time>
      </trkpt>
      <trkpt lat="46.47942" lon="4.81441">
        <ele>240.6</ele>
        <time>2022-06-25T09:45:45Z</time>
      </trkpt>
      <trkpt lat="46.47938" lon="4.81433">
        <ele>240.6</ele>
        <time>2022-06-25T09:45:46Z</time>
      </trkpt>
      <trkpt lat="46.47933" lon="4.81425">
        <ele>240.6</ele>
        <time>2022-06-25T09:45:47Z</time>
      </trkpt>
      <trkpt lat="46.47929" lon="4.81417">
        <ele>240.2</ele>
        <time>2022-06-25T09:45:48Z</time>
      </trkpt>
      <trkpt lat="46.47926" lon="4.81409">
        <ele>240.2</ele>
        <time>2022-06-25T09:45:49Z</time>
      </trkpt>
      <trkpt lat="46.47923" lon="4.814">
        <ele>240.2</ele>
        <time>2022-06-25T09:45:50Z</time>
      </trkpt>
      <trkpt lat="46.47921" lon="4.81392">
        <ele>240.2</ele>
        <time>2022-06-25T09:45:51Z</time>
      </trkpt>
      <trkpt lat="46.47918" lon="4.81383">
        <ele>240.2</ele>
        <time>2022-06-25T09:45:52Z</time>
      </trkpt>
      <trkpt lat="46.47915" lon="4.81375">
        <ele>240.2</ele>
        <time>2022-06-25T09:45:53Z</time>
      </trkpt>
      <trkpt lat="46.47912" lon="4.81367">
        <ele>240.2</ele>
        <time>2022-06-25T09:45:54Z</time>
      </trkpt>
      <trkpt lat="46.47909" lon="4.8136">
        <ele>239.8</ele>
        <time>2022-06-25T09:45:55Z</time>
      </trkpt>
      <trkpt lat="46.47905" lon="4.81353">
        <ele>239.8</ele>
        <time>2022-06-25T09:45:56Z</time>
      </trkpt>
      <trkpt lat="46.47902" lon="4.81347">
        <ele>239.8</ele>
        <time>2022-06-25T09:45:57Z</time>
      </trkpt>
      <trkpt lat="46.47899" lon="4.81341">
        <ele>240.2</ele>
        <time>2022-06-25T09:45:58Z</time>
      </trkpt>
      <trkpt lat="46.47895" lon="4.81336">
        <ele>240.2</ele>
        <time>2022-06-25T09:45:59Z</time>
      </trkpt>
      <trkpt lat="46.47893" lon="4.81331">
        <ele>240.2</ele>
        <time>2022-06-25T09:46:00Z</time>
      </trkpt>
      <trkpt lat="46.4789" lon="4.81326">
        <ele>240.4</ele>
        <time>2022-06-25T09:46:01Z</time>
      </trkpt>
      <trkpt lat="46.47887" lon="4.81322">
        <ele>240.4</ele>
        <time>2022-06-25T09:46:02Z</time>
      </trkpt>
      <trkpt lat="46.47884" lon="4.81319">
        <ele>240.8</ele>
        <time>2022-06-25T09:46:03Z</time>
      </trkpt>
      <trkpt lat="46.47882" lon="4.81316">
        <ele>240.8</ele>
        <time>2022-06-25T09:46:04Z</time>
      </trkpt>
      <trkpt lat="46.47878" lon="4.81313">
        <ele>241.2</ele>
        <time>2022-06-25T09:46:05Z</time>
      </trkpt>
      <trkpt lat="46.47874" lon="4.8131">
        <ele>241.2</ele>
        <time>2022-06-25T09:46:06Z</time>
      </trkpt>
      <trkpt lat="46.4787" lon="4.81309">
        <ele>241.4</ele>
        <time>2022-06-25T09:46:07Z</time>
      </trkpt>
      <trkpt lat="46.47865" lon="4.81309">
        <ele>241.4</ele>
        <time>2022-06-25T09:46:08Z</time>
      </trkpt>
      <trkpt lat="46.47861" lon="4.81309">
        <ele>241.8</ele>
        <time>2022-06-25T09:46:09Z</time>
      </trkpt>
      <trkpt lat="46.47857" lon="4.81308">
        <ele>241.8</ele>
        <time>2022-06-25T09:46:10Z</time>
      </trkpt>
      <trkpt lat="46.47853" lon="4.81307">
        <ele>242</ele>
        <time>2022-06-25T09:46:11Z</time>
      </trkpt>
      <trkpt lat="46.47848" lon="4.81307">
        <ele>242</ele>
        <time>2022-06-25T09:46:12Z</time>
      </trkpt>
      <trkpt lat="46.47844" lon="4.81307">
        <ele>242.4</ele>
        <time>2022-06-25T09:46:13Z</time>
      </trkpt>
      <trkpt lat="46.47839" lon="4.81306">
        <ele>242.4</ele>
        <time>2022-06-25T09:46:14Z</time>
      </trkpt>
      <trkpt lat="46.47834" lon="4.81306">
        <ele>242.6</ele>
        <time>2022-06-25T09:46:15Z</time>
      </trkpt>
      <trkpt lat="46.4783" lon="4.81306">
        <ele>242.6</ele>
        <time>2022-06-25T09:46:16Z</time>
      </trkpt>
      <trkpt lat="46.47825" lon="4.81306">
        <ele>242.8</ele>
        <time>2022-06-25T09:46:17Z</time>
      </trkpt>
      <trkpt lat="46.47821" lon="4.81306">
        <ele>242.8</ele>
        <time>2022-06-25T09:46:18Z</time>
      </trkpt>
      <trkpt lat="46.47816" lon="4.81306">
        <ele>242.8</ele>
        <time>2022-06-25T09:46:19Z</time>
      </trkpt>
      <trkpt lat="46.47812" lon="4.81306">
        <ele>242.8</ele>
        <time>2022-06-25T09:46:20Z</time>
      </trkpt>
      <trkpt lat="46.47807" lon="4.81306">
        <ele>243</ele>
        <time>2022-06-25T09:46:21Z</time>
      </trkpt>
      <trkpt lat="46.47802" lon="4.81306">
        <ele>243</ele>
        <time>2022-06-25T09:46:22Z</time>
      </trkpt>
      <trkpt lat="46.47797" lon="4.81306">
        <ele>243</ele>
        <time>2022-06-25T09:46:23Z</time>
      </trkpt>
      <trkpt lat="46.47792" lon="4.81306">
        <ele>243</ele>
        <time>2022-06-25T09:46:24Z</time>
      </trkpt>
      <trkpt lat="46.47787" lon="4.81307">
        <ele>243</ele>
        <time>2022-06-25T09:46:25Z</time>
      </trkpt>
      <trkpt lat="46.47782" lon="4.81307">
        <ele>243</ele>
        <time>2022-06-25T09:46:26Z</time>
      </trkpt>
      <trkpt lat="46.47776" lon="4.81307">
        <ele>243</ele>
        <time>2022-06-25T09:46:27Z</time>
      </trkpt>
      <trkpt lat="46.47771" lon="4.81308">
        <ele>243.2</ele>
        <time>2022-06-25T09:46:28Z</time>
      </trkpt>
      <trkpt lat="46.47766" lon="4.81308">
        <ele>243.2</ele>
        <time>2022-06-25T09:46:29Z</time>
      </trkpt>
      <trkpt lat="46.47761" lon="4.81308">
        <ele>243.2</ele>
        <time>2022-06-25T09:46:30Z</time>
      </trkpt>
      <trkpt lat="46.47755" lon="4.81307">
        <ele>243.4</ele>
        <time>2022-06-25T09:46:31Z</time>
      </trkpt>
      <trkpt lat="46.4775" lon="4.81307">
        <ele>243.4</ele>
        <time>2022-06-25T09:46:32Z</time>
      </trkpt>
      <trkpt lat="46.47745" lon="4.81307">
        <ele>243.4</ele>
        <time>2022-06-25T09:46:33Z</time>
      </trkpt>
      <trkpt lat="46.4774" lon="4.81307">
        <ele>243.8</ele>
        <time>2022-06-25T09:46:34Z</time>
      </trkpt>
      <trkpt lat="46.47735" lon="4.81306">
        <ele>243.8</ele>
        <time>2022-06-25T09:46:35Z</time>
      </trkpt>
      <trkpt lat="46.47729" lon="4.81306">
        <ele>243.8</ele>
        <time>2022-06-25T09:46:36Z</time>
      </trkpt>
      <trkpt lat="46.47724" lon="4.81306">
        <ele>243.8</ele>
        <time>2022-06-25T09:46:37Z</time>
      </trkpt>
      <trkpt lat="46.47719" lon="4.81306">
        <ele>244</ele>
        <time>2022-06-25T09:46:38Z</time>
      </trkpt>
      <trkpt lat="46.47714" lon="4.81305">
        <ele>244</ele>
        <time>2022-06-25T09:46:39Z</time>
      </trkpt>
      <trkpt lat="46.47709" lon="4.81304">
        <ele>244</ele>
        <time>2022-06-25T09:46:40Z</time>
      </trkpt>
      <trkpt lat="46.47703" lon="4.81304">
        <ele>244.4</ele>
        <time>2022-06-25T09:46:41Z</time>
      </trkpt>
      <trkpt lat="46.47698" lon="4.81303">
        <ele>244.4</ele>
        <time>2022-06-25T09:46:42Z</time>
      </trkpt>
      <trkpt lat="46.47693" lon="4.81303">
        <ele>244.4</ele>
        <time>2022-06-25T09:46:43Z</time>
      </trkpt>
      <trkpt lat="46.47688" lon="4.81302">
        <ele>244.6</ele>
        <time>2022-06-25T09:46:44Z</time>
      </trkpt>
      <trkpt lat="46.47682" lon="4.81301">
        <ele>244.6</ele>
        <time>2022-06-25T09:46:45Z</time>
      </trkpt>
      <trkpt lat="46.47677" lon="4.813">
        <ele>244.6</ele>
        <time>2022-06-25T09:46:46Z</time>
      </trkpt>
      <trkpt lat="46.47672" lon="4.813">
        <ele>245</ele>
        <time>2022-06-25T09:46:47Z</time>
      </trkpt>
      <trkpt lat="46.47666" lon="4.81299">
        <ele>245</ele>
        <time>2022-06-25T09:46:48Z</time>
      </trkpt>
      <trkpt lat="46.47661" lon="4.81299">
        <ele>245</ele>
        <time>2022-06-25T09:46:49Z</time>
      </trkpt>
      <trkpt lat="46.47656" lon="4.81298">
        <ele>245</ele>
        <time>2022-06-25T09:46:50Z</time>
      </trkpt>
      <trkpt lat="46.4765" lon="4.81297">
        <ele>245.2</ele>
        <time>2022-06-25T09:46:51Z</time>
      </trkpt>
      <trkpt lat="46.47645" lon="4.81297">
        <ele>245.4</ele>
        <time>2022-06-25T09:46:52Z</time>
      </trkpt>
      <trkpt lat="46.47639" lon="4.81296">
        <ele>245.4</ele>
        <time>2022-06-25T09:46:53Z</time>
      </trkpt>
      <trkpt lat="46.47634" lon="4.81295">
        <ele>245.4</ele>
        <time>2022-06-25T09:46:54Z</time>
      </trkpt>
      <trkpt lat="46.47628" lon="4.81294">
        <ele>245.6</ele>
        <time>2022-06-25T09:46:55Z</time>
      </trkpt>
      <trkpt lat="46.47623" lon="4.81294">
        <ele>245.6</ele>
        <time>2022-06-25T09:46:56Z</time>
      </trkpt>
      <trkpt lat="46.47617" lon="4.81293">
        <ele>245.6</ele>
        <time>2022-06-25T09:46:57Z</time>
      </trkpt>
      <trkpt lat="46.47612" lon="4.81292">
        <ele>245.6</ele>
        <time>2022-06-25T09:46:58Z</time>
      </trkpt>
      <trkpt lat="46.47606" lon="4.81292">
        <ele>245.6</ele>
        <time>2022-06-25T09:46:59Z</time>
      </trkpt>
      <trkpt lat="46.47601" lon="4.81291">
        <ele>245.8</ele>
        <time>2022-06-25T09:47:01Z</time>
      </trkpt>
      <trkpt lat="46.47595" lon="4.8129">
        <ele>245.8</ele>
        <time>2022-06-25T09:47:02Z</time>
      </trkpt>
      <trkpt lat="46.4759" lon="4.81289">
        <ele>245.8</ele>
        <time>2022-06-25T09:47:03Z</time>
      </trkpt>
      <trkpt lat="46.47584" lon="4.81288">
        <ele>245.8</ele>
        <time>2022-06-25T09:47:04Z</time>
      </trkpt>
      <trkpt lat="46.47579" lon="4.81288">
        <ele>245.8</ele>
        <time>2022-06-25T09:47:05Z</time>
      </trkpt>
      <trkpt lat="46.47573" lon="4.81287">
        <ele>245.8</ele>
        <time>2022-06-25T09:47:06Z</time>
      </trkpt>
      <trkpt lat="46.47567" lon="4.81286">
        <ele>245.8</ele>
        <time>2022-06-25T09:47:07Z</time>
      </trkpt>
      <trkpt lat="46.47562" lon="4.81284">
        <ele>245.8</ele>
        <time>2022-06-25T09:47:08Z</time>
      </trkpt>
      <trkpt lat="46.47556" lon="4.81282">
        <ele>246</ele>
        <time>2022-06-25T09:47:09Z</time>
      </trkpt>
      <trkpt lat="46.4755" lon="4.8128">
        <ele>246</ele>
        <time>2022-06-25T09:47:10Z</time>
      </trkpt>
      <trkpt lat="46.47545" lon="4.81277">
        <ele>246</ele>
        <time>2022-06-25T09:47:11Z</time>
      </trkpt>
      <trkpt lat="46.47539" lon="4.81275">
        <ele>246</ele>
        <time>2022-06-25T09:47:12Z</time>
      </trkpt>
      <trkpt lat="46.47533" lon="4.81272">
        <ele>246</ele>
        <time>2022-06-25T09:47:13Z</time>
      </trkpt>
      <trkpt lat="46.47527" lon="4.81269">
        <ele>246</ele>
        <time>2022-06-25T09:47:14Z</time>
      </trkpt>
      <trkpt lat="46.47521" lon="4.81266">
        <ele>246</ele>
        <time>2022-06-25T09:47:15Z</time>
      </trkpt>
      <trkpt lat="46.47509" lon="4.81258">
        <ele>245.8</ele>
        <time>2022-06-25T09:47:16Z</time>
      </trkpt>
      <trkpt lat="46.47503" lon="4.81254">
        <ele>245.8</ele>
        <time>2022-06-25T09:47:17Z</time>
      </trkpt>
      <trkpt lat="46.47497" lon="4.8125">
        <ele>245.6</ele>
        <time>2022-06-25T09:47:18Z</time>
      </trkpt>
      <trkpt lat="46.4749" lon="4.81246">
        <ele>245.6</ele>
        <time>2022-06-25T09:47:19Z</time>
      </trkpt>
      <trkpt lat="46.47484" lon="4.81242">
        <ele>245.6</ele>
        <time>2022-06-25T09:47:20Z</time>
      </trkpt>
      <trkpt lat="46.47479" lon="4.81237">
        <ele>245.2</ele>
        <time>2022-06-25T09:47:21Z</time>
      </trkpt>
      <trkpt lat="46.47473" lon="4.81232">
        <ele>245.2</ele>
        <time>2022-06-25T09:47:22Z</time>
      </trkpt>
      <trkpt lat="46.47468" lon="4.81226">
        <ele>245</ele>
        <time>2022-06-25T09:47:23Z</time>
      </trkpt>
      <trkpt lat="46.47463" lon="4.81219">
        <ele>245</ele>
        <time>2022-06-25T09:47:24Z</time>
      </trkpt>
      <trkpt lat="46.47459" lon="4.81212">
        <ele>245</ele>
        <time>2022-06-25T09:47:25Z</time>
      </trkpt>
      <trkpt lat="46.47455" lon="4.81204">
        <ele>244.8</ele>
        <time>2022-06-25T09:47:26Z</time>
      </trkpt>
      <trkpt lat="46.47451" lon="4.81195">
        <ele>244.8</ele>
        <time>2022-06-25T09:47:27Z</time>
      </trkpt>
      <trkpt lat="46.47448" lon="4.81187">
        <ele>244.8</ele>
        <time>2022-06-25T09:47:28Z</time>
      </trkpt>
      <trkpt lat="46.47446" lon="4.81178">
        <ele>244.8</ele>
        <time>2022-06-25T09:47:29Z</time>
      </trkpt>
      <trkpt lat="46.47444" lon="4.81169">
        <ele>244.8</ele>
        <time>2022-06-25T09:47:30Z</time>
      </trkpt>
      <trkpt lat="46.47441" lon="4.8116">
        <ele>244.6</ele>
        <time>2022-06-25T09:47:31Z</time>
      </trkpt>
      <trkpt lat="46.47439" lon="4.81152">
        <ele>244.6</ele>
        <time>2022-06-25T09:47:32Z</time>
      </trkpt>
      <trkpt lat="46.47437" lon="4.81143">
        <ele>244.6</ele>
        <time>2022-06-25T09:47:33Z</time>
      </trkpt>
      <trkpt lat="46.47435" lon="4.81135">
        <ele>244.6</ele>
        <time>2022-06-25T09:47:34Z</time>
      </trkpt>
      <trkpt lat="46.47432" lon="4.81126">
        <ele>244.6</ele>
        <time>2022-06-25T09:47:35Z</time>
      </trkpt>
      <trkpt lat="46.4743" lon="4.81118">
        <ele>244.6</ele>
        <time>2022-06-25T09:47:36Z</time>
      </trkpt>
      <trkpt lat="46.47428" lon="4.8111">
        <ele>244.6</ele>
        <time>2022-06-25T09:47:37Z</time>
      </trkpt>
      <trkpt lat="46.47426" lon="4.81102">
        <ele>244.6</ele>
        <time>2022-06-25T09:47:38Z</time>
      </trkpt>
      <trkpt lat="46.47424" lon="4.81094">
        <ele>244.6</ele>
        <time>2022-06-25T09:47:39Z</time>
      </trkpt>
      <trkpt lat="46.47422" lon="4.81086">
        <ele>244.6</ele>
        <time>2022-06-25T09:47:40Z</time>
      </trkpt>
      <trkpt lat="46.47421" lon="4.81078">
        <ele>244.6</ele>
        <time>2022-06-25T09:47:41Z</time>
      </trkpt>
      <trkpt lat="46.47419" lon="4.8107">
        <ele>244.6</ele>
        <time>2022-06-25T09:47:42Z</time>
      </trkpt>
      <trkpt lat="46.47417" lon="4.81061">
        <ele>244.6</ele>
        <time>2022-06-25T09:47:43Z</time>
      </trkpt>
      <trkpt lat="46.47415" lon="4.81053">
        <ele>244.6</ele>
        <time>2022-06-25T09:47:44Z</time>
      </trkpt>
      <trkpt lat="46.47413" lon="4.81044">
        <ele>244.6</ele>
        <time>2022-06-25T09:47:45Z</time>
      </trkpt>
      <trkpt lat="46.47412" lon="4.81035">
        <ele>244.6</ele>
        <time>2022-06-25T09:47:46Z</time>
      </trkpt>
      <trkpt lat="46.4741" lon="4.81025">
        <ele>244.6</ele>
        <time>2022-06-25T09:47:47Z</time>
      </trkpt>
      <trkpt lat="46.47408" lon="4.81016">
        <ele>244.4</ele>
        <time>2022-06-25T09:47:48Z</time>
      </trkpt>
      <trkpt lat="46.47407" lon="4.81007">
        <ele>244.4</ele>
        <time>2022-06-25T09:47:49Z</time>
      </trkpt>
      <trkpt lat="46.47405" lon="4.80997">
        <ele>244.2</ele>
        <time>2022-06-25T09:47:50Z</time>
      </trkpt>
      <trkpt lat="46.47404" lon="4.80989">
        <ele>244.2</ele>
        <time>2022-06-25T09:47:51Z</time>
      </trkpt>
      <trkpt lat="46.47403" lon="4.8098">
        <ele>244.2</ele>
        <time>2022-06-25T09:47:52Z</time>
      </trkpt>
      <trkpt lat="46.47402" lon="4.80971">
        <ele>244.4</ele>
        <time>2022-06-25T09:47:53Z</time>
      </trkpt>
      <trkpt lat="46.47402" lon="4.80963">
        <ele>244.4</ele>
        <time>2022-06-25T09:47:54Z</time>
      </trkpt>
      <trkpt lat="46.47401" lon="4.80956">
        <ele>244.8</ele>
        <time>2022-06-25T09:47:55Z</time>
      </trkpt>
      <trkpt lat="46.47401" lon="4.80948">
        <ele>245.2</ele>
        <time>2022-06-25T09:47:56Z</time>
      </trkpt>
      <trkpt lat="46.474" lon="4.80941">
        <ele>245.4</ele>
        <time>2022-06-25T09:47:57Z</time>
      </trkpt>
      <trkpt lat="46.47399" lon="4.80934">
        <ele>245.6</ele>
        <time>2022-06-25T09:47:58Z</time>
      </trkpt>
      <trkpt lat="46.47399" lon="4.80928">
        <ele>245.8</ele>
        <time>2022-06-25T09:47:59Z</time>
      </trkpt>
      <trkpt lat="46.47398" lon="4.80922">
        <ele>246.2</ele>
        <time>2022-06-25T09:48:00Z</time>
      </trkpt>
      <trkpt lat="46.47397" lon="4.80916">
        <ele>246.4</ele>
        <time>2022-06-25T09:48:01Z</time>
      </trkpt>
      <trkpt lat="46.47396" lon="4.80911">
        <ele>246.4</ele>
        <time>2022-06-25T09:48:02Z</time>
      </trkpt>
      <trkpt lat="46.47396" lon="4.80905">
        <ele>246.8</ele>
        <time>2022-06-25T09:48:03Z</time>
      </trkpt>
      <trkpt lat="46.47395" lon="4.809">
        <ele>246.8</ele>
        <time>2022-06-25T09:48:04Z</time>
      </trkpt>
      <trkpt lat="46.47394" lon="4.80894">
        <ele>247.2</ele>
        <time>2022-06-25T09:48:05Z</time>
      </trkpt>
      <trkpt lat="46.47393" lon="4.80889">
        <ele>247.2</ele>
        <time>2022-06-25T09:48:06Z</time>
      </trkpt>
      <trkpt lat="46.47392" lon="4.80884">
        <ele>247.4</ele>
        <time>2022-06-25T09:48:07Z</time>
      </trkpt>
      <trkpt lat="46.47392" lon="4.80878">
        <ele>247.4</ele>
        <time>2022-06-25T09:48:08Z</time>
      </trkpt>
      <trkpt lat="46.47392" lon="4.80873">
        <ele>247.6</ele>
        <time>2022-06-25T09:48:09Z</time>
      </trkpt>
      <trkpt lat="46.47392" lon="4.80868">
        <ele>247.6</ele>
        <time>2022-06-25T09:48:10Z</time>
      </trkpt>
      <trkpt lat="46.47392" lon="4.80862">
        <ele>247.6</ele>
        <time>2022-06-25T09:48:11Z</time>
      </trkpt>
      <trkpt lat="46.47391" lon="4.80855">
        <ele>247.6</ele>
        <time>2022-06-25T09:48:12Z</time>
      </trkpt>
      <trkpt lat="46.47391" lon="4.80848">
        <ele>247.6</ele>
        <time>2022-06-25T09:48:13Z</time>
      </trkpt>
      <trkpt lat="46.4739" lon="4.8084">
        <ele>247.6</ele>
        <time>2022-06-25T09:48:14Z</time>
      </trkpt>
      <trkpt lat="46.47391" lon="4.80833">
        <ele>247.6</ele>
        <time>2022-06-25T09:48:15Z</time>
      </trkpt>
      <trkpt lat="46.47391" lon="4.80825">
        <ele>247.6</ele>
        <time>2022-06-25T09:48:16Z</time>
      </trkpt>
      <trkpt lat="46.47391" lon="4.80817">
        <ele>247.4</ele>
        <time>2022-06-25T09:48:17Z</time>
      </trkpt>
      <trkpt lat="46.47391" lon="4.80808">
        <ele>247.4</ele>
        <time>2022-06-25T09:48:18Z</time>
      </trkpt>
      <trkpt lat="46.47392" lon="4.808">
        <ele>247</ele>
        <time>2022-06-25T09:48:19Z</time>
      </trkpt>
      <trkpt lat="46.47394" lon="4.80791">
        <ele>247</ele>
        <time>2022-06-25T09:48:20Z</time>
      </trkpt>
      <trkpt lat="46.47394" lon="4.80781">
        <ele>246.6</ele>
        <time>2022-06-25T09:48:21Z</time>
      </trkpt>
      <trkpt lat="46.47396" lon="4.80771">
        <ele>246.6</ele>
        <time>2022-06-25T09:48:22Z</time>
      </trkpt>
      <trkpt lat="46.47397" lon="4.80762">
        <ele>246.4</ele>
        <time>2022-06-25T09:48:23Z</time>
      </trkpt>
      <trkpt lat="46.47399" lon="4.80753">
        <ele>246.2</ele>
        <time>2022-06-25T09:48:24Z</time>
      </trkpt>
      <trkpt lat="46.47401" lon="4.80744">
        <ele>245.8</ele>
        <time>2022-06-25T09:48:25Z</time>
      </trkpt>
      <trkpt lat="46.47404" lon="4.80735">
        <ele>245.8</ele>
        <time>2022-06-25T09:48:26Z</time>
      </trkpt>
      <trkpt lat="46.47408" lon="4.80726">
        <ele>245.6</ele>
        <time>2022-06-25T09:48:27Z</time>
      </trkpt>
      <trkpt lat="46.47412" lon="4.80719">
        <ele>245.6</ele>
        <time>2022-06-25T09:48:28Z</time>
      </trkpt>
      <trkpt lat="46.47417" lon="4.80713">
        <ele>245.6</ele>
        <time>2022-06-25T09:48:29Z</time>
      </trkpt>
      <trkpt lat="46.47422" lon="4.80708">
        <ele>245.6</ele>
        <time>2022-06-25T09:48:30Z</time>
      </trkpt>
      <trkpt lat="46.47428" lon="4.80703">
        <ele>245.6</ele>
        <time>2022-06-25T09:48:31Z</time>
      </trkpt>
      <trkpt lat="46.47433" lon="4.80699">
        <ele>245.6</ele>
        <time>2022-06-25T09:48:32Z</time>
      </trkpt>
      <trkpt lat="46.47438" lon="4.80696">
        <ele>245.6</ele>
        <time>2022-06-25T09:48:33Z</time>
      </trkpt>
      <trkpt lat="46.47444" lon="4.80692">
        <ele>245.6</ele>
        <time>2022-06-25T09:48:34Z</time>
      </trkpt>
      <trkpt lat="46.4745" lon="4.8069">
        <ele>245.6</ele>
        <time>2022-06-25T09:48:35Z</time>
      </trkpt>
      <trkpt lat="46.47456" lon="4.80687">
        <ele>245.6</ele>
        <time>2022-06-25T09:48:36Z</time>
      </trkpt>
      <trkpt lat="46.47462" lon="4.80685">
        <ele>245.6</ele>
        <time>2022-06-25T09:48:37Z</time>
      </trkpt>
      <trkpt lat="46.47467" lon="4.80683">
        <ele>245.6</ele>
        <time>2022-06-25T09:48:38Z</time>
      </trkpt>
      <trkpt lat="46.47473" lon="4.80683">
        <ele>245.6</ele>
        <time>2022-06-25T09:48:39Z</time>
      </trkpt>
      <trkpt lat="46.47479" lon="4.80682">
        <ele>245.6</ele>
        <time>2022-06-25T09:48:40Z</time>
      </trkpt>
      <trkpt lat="46.47484" lon="4.80682">
        <ele>245.6</ele>
        <time>2022-06-25T09:48:41Z</time>
      </trkpt>
      <trkpt lat="46.47489" lon="4.80682">
        <ele>245.6</ele>
        <time>2022-06-25T09:48:42Z</time>
      </trkpt>
      <trkpt lat="46.47494" lon="4.80684">
        <ele>245.6</ele>
        <time>2022-06-25T09:48:43Z</time>
      </trkpt>
      <trkpt lat="46.47499" lon="4.80685">
        <ele>245.8</ele>
        <time>2022-06-25T09:48:44Z</time>
      </trkpt>
      <trkpt lat="46.47504" lon="4.80686">
        <ele>245.8</ele>
        <time>2022-06-25T09:48:45Z</time>
      </trkpt>
      <trkpt lat="46.47509" lon="4.80688">
        <ele>245.8</ele>
        <time>2022-06-25T09:48:46Z</time>
      </trkpt>
      <trkpt lat="46.47515" lon="4.80689">
        <ele>246</ele>
        <time>2022-06-25T09:48:47Z</time>
      </trkpt>
      <trkpt lat="46.4752" lon="4.8069">
        <ele>246</ele>
        <time>2022-06-25T09:48:48Z</time>
      </trkpt>
      <trkpt lat="46.47526" lon="4.80691">
        <ele>246</ele>
        <time>2022-06-25T09:48:49Z</time>
      </trkpt>
      <trkpt lat="46.47531" lon="4.80691">
        <ele>246.2</ele>
        <time>2022-06-25T09:48:50Z</time>
      </trkpt>
      <trkpt lat="46.47537" lon="4.80691">
        <ele>246.2</ele>
        <time>2022-06-25T09:48:51Z</time>
      </trkpt>
      <trkpt lat="46.47542" lon="4.80688">
        <ele>246.2</ele>
        <time>2022-06-25T09:48:52Z</time>
      </trkpt>
      <trkpt lat="46.47547" lon="4.80686">
        <ele>246.6</ele>
        <time>2022-06-25T09:48:53Z</time>
      </trkpt>
      <trkpt lat="46.47552" lon="4.80683">
        <ele>246.6</ele>
        <time>2022-06-25T09:48:54Z</time>
      </trkpt>
      <trkpt lat="46.47557" lon="4.8068">
        <ele>246.8</ele>
        <time>2022-06-25T09:48:55Z</time>
      </trkpt>
      <trkpt lat="46.47562" lon="4.80677">
        <ele>246.8</ele>
        <time>2022-06-25T09:48:56Z</time>
      </trkpt>
      <trkpt lat="46.47566" lon="4.80673">
        <ele>247.2</ele>
        <time>2022-06-25T09:48:57Z</time>
      </trkpt>
      <trkpt lat="46.4757" lon="4.80669">
        <ele>247.2</ele>
        <time>2022-06-25T09:48:58Z</time>
      </trkpt>
      <trkpt lat="46.47575" lon="4.80664">
        <ele>247.4</ele>
        <time>2022-06-25T09:48:59Z</time>
      </trkpt>
      <trkpt lat="46.47578" lon="4.8066">
        <ele>247.4</ele>
        <time>2022-06-25T09:49:00Z</time>
      </trkpt>
      <trkpt lat="46.47582" lon="4.80656">
        <ele>247.4</ele>
        <time>2022-06-25T09:49:01Z</time>
      </trkpt>
      <trkpt lat="46.47586" lon="4.80652">
        <ele>247.8</ele>
        <time>2022-06-25T09:49:02Z</time>
      </trkpt>
      <trkpt lat="46.4759" lon="4.80648">
        <ele>247.8</ele>
        <time>2022-06-25T09:49:03Z</time>
      </trkpt>
      <trkpt lat="46.47594" lon="4.80644">
        <ele>248</ele>
        <time>2022-06-25T09:49:04Z</time>
      </trkpt>
      <trkpt lat="46.47598" lon="4.80639">
        <ele>248</ele>
        <time>2022-06-25T09:49:05Z</time>
      </trkpt>
      <trkpt lat="46.47602" lon="4.80635">
        <ele>248.2</ele>
        <time>2022-06-25T09:49:06Z</time>
      </trkpt>
      <trkpt lat="46.47605" lon="4.8063">
        <ele>248.2</ele>
        <time>2022-06-25T09:49:07Z</time>
      </trkpt>
      <trkpt lat="46.47609" lon="4.80625">
        <ele>248.2</ele>
        <time>2022-06-25T09:49:08Z</time>
      </trkpt>
      <trkpt lat="46.47612" lon="4.80619">
        <ele>248.4</ele>
        <time>2022-06-25T09:49:09Z</time>
      </trkpt>
      <trkpt lat="46.47616" lon="4.80613">
        <ele>248.4</ele>
        <time>2022-06-25T09:49:10Z</time>
      </trkpt>
      <trkpt lat="46.4762" lon="4.80607">
        <ele>248.4</ele>
        <time>2022-06-25T09:49:11Z</time>
      </trkpt>
      <trkpt lat="46.47624" lon="4.80601">
        <ele>248.8</ele>
        <time>2022-06-25T09:49:12Z</time>
      </trkpt>
      <trkpt lat="46.47628" lon="4.80595">
        <ele>248.8</ele>
        <time>2022-06-25T09:49:13Z</time>
      </trkpt>
      <trkpt lat="46.47632" lon="4.80591">
        <ele>249</ele>
        <time>2022-06-25T09:49:14Z</time>
      </trkpt>
      <trkpt lat="46.47637" lon="4.80587">
        <ele>249</ele>
        <time>2022-06-25T09:49:15Z</time>
      </trkpt>
      <trkpt lat="46.47641" lon="4.80583">
        <ele>249.2</ele>
        <time>2022-06-25T09:49:16Z</time>
      </trkpt>
      <trkpt lat="46.47646" lon="4.8058">
        <ele>249.2</ele>
        <time>2022-06-25T09:49:17Z</time>
      </trkpt>
      <trkpt lat="46.47651" lon="4.80578">
        <ele>249.4</ele>
        <time>2022-06-25T09:49:18Z</time>
      </trkpt>
      <trkpt lat="46.47656" lon="4.80576">
        <ele>249.4</ele>
        <time>2022-06-25T09:49:19Z</time>
      </trkpt>
      <trkpt lat="46.47661" lon="4.80575">
        <ele>249.8</ele>
        <time>2022-06-25T09:49:20Z</time>
      </trkpt>
      <trkpt lat="46.47666" lon="4.80574">
        <ele>249.8</ele>
        <time>2022-06-25T09:49:21Z</time>
      </trkpt>
      <trkpt lat="46.47671" lon="4.80574">
        <ele>249.8</ele>
        <time>2022-06-25T09:49:22Z</time>
      </trkpt>
      <trkpt lat="46.47676" lon="4.80574">
        <ele>250</ele>
        <time>2022-06-25T09:49:23Z</time>
      </trkpt>
      <trkpt lat="46.47681" lon="4.80575">
        <ele>250</ele>
        <time>2022-06-25T09:49:24Z</time>
      </trkpt>
      <trkpt lat="46.47686" lon="4.80574">
        <ele>250.4</ele>
        <time>2022-06-25T09:49:25Z</time>
      </trkpt>
      <trkpt lat="46.47691" lon="4.80574">
        <ele>250.4</ele>
        <time>2022-06-25T09:49:26Z</time>
      </trkpt>
      <trkpt lat="46.47696" lon="4.80574">
        <ele>250.8</ele>
        <time>2022-06-25T09:49:27Z</time>
      </trkpt>
      <trkpt lat="46.47702" lon="4.80574">
        <ele>250.8</ele>
        <time>2022-06-25T09:49:28Z</time>
      </trkpt>
      <trkpt lat="46.47708" lon="4.80573">
        <ele>251</ele>
        <time>2022-06-25T09:49:29Z</time>
      </trkpt>
      <trkpt lat="46.47713" lon="4.80572">
        <ele>251</ele>
        <time>2022-06-25T09:49:30Z</time>
      </trkpt>
      <trkpt lat="46.47718" lon="4.80571">
        <ele>251</ele>
        <time>2022-06-25T09:49:31Z</time>
      </trkpt>
      <trkpt lat="46.47724" lon="4.80569">
        <ele>251.2</ele>
        <time>2022-06-25T09:49:32Z</time>
      </trkpt>
      <trkpt lat="46.47729" lon="4.80565">
        <ele>251.2</ele>
        <time>2022-06-25T09:49:33Z</time>
      </trkpt>
      <trkpt lat="46.47734" lon="4.80561">
        <ele>251.2</ele>
        <time>2022-06-25T09:49:34Z</time>
      </trkpt>
      <trkpt lat="46.47739" lon="4.80556">
        <ele>251.4</ele>
        <time>2022-06-25T09:49:35Z</time>
      </trkpt>
      <trkpt lat="46.47743" lon="4.80551">
        <ele>251.4</ele>
        <time>2022-06-25T09:49:36Z</time>
      </trkpt>
      <trkpt lat="46.47746" lon="4.80545">
        <ele>251.4</ele>
        <time>2022-06-25T09:49:37Z</time>
      </trkpt>
      <trkpt lat="46.47749" lon="4.80538">
        <ele>251.8</ele>
        <time>2022-06-25T09:49:38Z</time>
      </trkpt>
      <trkpt lat="46.47752" lon="4.8053">
        <ele>251.8</ele>
        <time>2022-06-25T09:49:39Z</time>
      </trkpt>
      <trkpt lat="46.47754" lon="4.80523">
        <ele>252</ele>
        <time>2022-06-25T09:49:40Z</time>
      </trkpt>
      <trkpt lat="46.47756" lon="4.80515">
        <ele>252</ele>
        <time>2022-06-25T09:49:41Z</time>
      </trkpt>
      <trkpt lat="46.47758" lon="4.80508">
        <ele>252</ele>
        <time>2022-06-25T09:49:42Z</time>
      </trkpt>
      <trkpt lat="46.4776" lon="4.805">
        <ele>252.2</ele>
        <time>2022-06-25T09:49:43Z</time>
      </trkpt>
      <trkpt lat="46.47762" lon="4.80493">
        <ele>252.2</ele>
        <time>2022-06-25T09:49:44Z</time>
      </trkpt>
      <trkpt lat="46.47764" lon="4.80485">
        <ele>252.2</ele>
        <time>2022-06-25T09:49:45Z</time>
      </trkpt>
      <trkpt lat="46.47766" lon="4.80478">
        <ele>252.4</ele>
        <time>2022-06-25T09:49:46Z</time>
      </trkpt>
      <trkpt lat="46.47768" lon="4.8047">
        <ele>252.4</ele>
        <time>2022-06-25T09:49:47Z</time>
      </trkpt>
      <trkpt lat="46.47769" lon="4.80462">
        <ele>252.4</ele>
        <time>2022-06-25T09:49:48Z</time>
      </trkpt>
      <trkpt lat="46.47771" lon="4.80454">
        <ele>252.8</ele>
        <time>2022-06-25T09:49:49Z</time>
      </trkpt>
      <trkpt lat="46.47773" lon="4.80446">
        <ele>252.8</ele>
        <time>2022-06-25T09:49:50Z</time>
      </trkpt>
      <trkpt lat="46.47775" lon="4.80438">
        <ele>252.8</ele>
        <time>2022-06-25T09:49:51Z</time>
      </trkpt>
      <trkpt lat="46.47777" lon="4.80431">
        <ele>253</ele>
        <time>2022-06-25T09:49:52Z</time>
      </trkpt>
      <trkpt lat="46.47778" lon="4.80423">
        <ele>253</ele>
        <time>2022-06-25T09:49:53Z</time>
      </trkpt>
      <trkpt lat="46.4778" lon="4.80416">
        <ele>253.2</ele>
        <time>2022-06-25T09:49:54Z</time>
      </trkpt>
      <trkpt lat="46.47782" lon="4.80409">
        <ele>253.2</ele>
        <time>2022-06-25T09:49:55Z</time>
      </trkpt>
      <trkpt lat="46.47784" lon="4.80402">
        <ele>253.2</ele>
        <time>2022-06-25T09:49:56Z</time>
      </trkpt>
      <trkpt lat="46.47786" lon="4.80394">
        <ele>253.6</ele>
        <time>2022-06-25T09:49:57Z</time>
      </trkpt>
      <trkpt lat="46.47788" lon="4.80387">
        <ele>253.6</ele>
        <time>2022-06-25T09:49:58Z</time>
      </trkpt>
      <trkpt lat="46.4779" lon="4.80379">
        <ele>253.6</ele>
        <time>2022-06-25T09:49:59Z</time>
      </trkpt>
      <trkpt lat="46.47792" lon="4.80372">
        <ele>253.8</ele>
        <time>2022-06-25T09:50:00Z</time>
      </trkpt>
      <trkpt lat="46.47794" lon="4.80365">
        <ele>253.8</ele>
        <time>2022-06-25T09:50:01Z</time>
      </trkpt>
      <trkpt lat="46.47796" lon="4.80357">
        <ele>253.8</ele>
        <time>2022-06-25T09:50:02Z</time>
      </trkpt>
      <trkpt lat="46.47798" lon="4.8035">
        <ele>254.2</ele>
        <time>2022-06-25T09:50:03Z</time>
      </trkpt>
      <trkpt lat="46.478" lon="4.80342">
        <ele>254.2</ele>
        <time>2022-06-25T09:50:04Z</time>
      </trkpt>
      <trkpt lat="46.47802" lon="4.80335">
        <ele>254.2</ele>
        <time>2022-06-25T09:50:05Z</time>
      </trkpt>
      <trkpt lat="46.47803" lon="4.80328">
        <ele>254.4</ele>
        <time>2022-06-25T09:50:06Z</time>
      </trkpt>
      <trkpt lat="46.47805" lon="4.80321">
        <ele>254.4</ele>
        <time>2022-06-25T09:50:07Z</time>
      </trkpt>
      <trkpt lat="46.47807" lon="4.80314">
        <ele>254.8</ele>
        <time>2022-06-25T09:50:08Z</time>
      </trkpt>
      <trkpt lat="46.47809" lon="4.80307">
        <ele>254.8</ele>
        <time>2022-06-25T09:50:09Z</time>
      </trkpt>
      <trkpt lat="46.47811" lon="4.80301">
        <ele>255</ele>
        <time>2022-06-25T09:50:10Z</time>
      </trkpt>
      <trkpt lat="46.47813" lon="4.80294">
        <ele>255.2</ele>
        <time>2022-06-25T09:50:11Z</time>
      </trkpt>
      <trkpt lat="46.47814" lon="4.80288">
        <ele>255.2</ele>
        <time>2022-06-25T09:50:12Z</time>
      </trkpt>
      <trkpt lat="46.47815" lon="4.80281">
        <ele>255.6</ele>
        <time>2022-06-25T09:50:13Z</time>
      </trkpt>
      <trkpt lat="46.47816" lon="4.80275">
        <ele>255.6</ele>
        <time>2022-06-25T09:50:14Z</time>
      </trkpt>
      <trkpt lat="46.47817" lon="4.80268">
        <ele>255.8</ele>
        <time>2022-06-25T09:50:15Z</time>
      </trkpt>
      <trkpt lat="46.47819" lon="4.80262">
        <ele>255.8</ele>
        <time>2022-06-25T09:50:16Z</time>
      </trkpt>
      <trkpt lat="46.4782" lon="4.80255">
        <ele>256.2</ele>
        <time>2022-06-25T09:50:17Z</time>
      </trkpt>
      <trkpt lat="46.47821" lon="4.80249">
        <ele>256.2</ele>
        <time>2022-06-25T09:50:18Z</time>
      </trkpt>
      <trkpt lat="46.47822" lon="4.80241">
        <ele>256.4</ele>
        <time>2022-06-25T09:50:19Z</time>
      </trkpt>
      <trkpt lat="46.47823" lon="4.80234">
        <ele>256.8</ele>
        <time>2022-06-25T09:50:20Z</time>
      </trkpt>
      <trkpt lat="46.47823" lon="4.80227">
        <ele>256.8</ele>
        <time>2022-06-25T09:50:21Z</time>
      </trkpt>
      <trkpt lat="46.47824" lon="4.80219">
        <ele>257</ele>
        <time>2022-06-25T09:50:22Z</time>
      </trkpt>
      <trkpt lat="46.47824" lon="4.80212">
        <ele>257</ele>
        <time>2022-06-25T09:50:23Z</time>
      </trkpt>
      <trkpt lat="46.47824" lon="4.80205">
        <ele>257.2</ele>
        <time>2022-06-25T09:50:24Z</time>
      </trkpt>
      <trkpt lat="46.47824" lon="4.80198">
        <ele>257.2</ele>
        <time>2022-06-25T09:50:25Z</time>
      </trkpt>
      <trkpt lat="46.47824" lon="4.80191">
        <ele>257.6</ele>
        <time>2022-06-25T09:50:26Z</time>
      </trkpt>
      <trkpt lat="46.47823" lon="4.80185">
        <ele>257.6</ele>
        <time>2022-06-25T09:50:27Z</time>
      </trkpt>
      <trkpt lat="46.47822" lon="4.80178">
        <ele>257.8</ele>
        <time>2022-06-25T09:50:28Z</time>
      </trkpt>
      <trkpt lat="46.47822" lon="4.80171">
        <ele>257.8</ele>
        <time>2022-06-25T09:50:29Z</time>
      </trkpt>
      <trkpt lat="46.47821" lon="4.80165">
        <ele>258.4</ele>
        <time>2022-06-25T09:50:30Z</time>
      </trkpt>
      <trkpt lat="46.4782" lon="4.80158">
        <ele>258.4</ele>
        <time>2022-06-25T09:50:31Z</time>
      </trkpt>
      <trkpt lat="46.47819" lon="4.80151">
        <ele>258.6</ele>
        <time>2022-06-25T09:50:32Z</time>
      </trkpt>
      <trkpt lat="46.47818" lon="4.80145">
        <ele>258.6</ele>
        <time>2022-06-25T09:50:33Z</time>
      </trkpt>
      <trkpt lat="46.47817" lon="4.80139">
        <ele>258.6</ele>
        <time>2022-06-25T09:50:34Z</time>
      </trkpt>
      <trkpt lat="46.47816" lon="4.80132">
        <ele>259</ele>
        <time>2022-06-25T09:50:35Z</time>
      </trkpt>
      <trkpt lat="46.47816" lon="4.80126">
        <ele>259</ele>
        <time>2022-06-25T09:50:36Z</time>
      </trkpt>
      <trkpt lat="46.47815" lon="4.80119">
        <ele>259.4</ele>
        <time>2022-06-25T09:50:37Z</time>
      </trkpt>
      <trkpt lat="46.47815" lon="4.80112">
        <ele>259.4</ele>
        <time>2022-06-25T09:50:38Z</time>
      </trkpt>
      <trkpt lat="46.47814" lon="4.80106">
        <ele>259.6</ele>
        <time>2022-06-25T09:50:39Z</time>
      </trkpt>
      <trkpt lat="46.47814" lon="4.801">
        <ele>259.6</ele>
        <time>2022-06-25T09:50:40Z</time>
      </trkpt>
      <trkpt lat="46.47813" lon="4.80094">
        <ele>259.6</ele>
        <time>2022-06-25T09:50:41Z</time>
      </trkpt>
      <trkpt lat="46.47813" lon="4.80088">
        <ele>259.8</ele>
        <time>2022-06-25T09:50:42Z</time>
      </trkpt>
      <trkpt lat="46.47812" lon="4.80082">
        <ele>259.8</ele>
        <time>2022-06-25T09:50:43Z</time>
      </trkpt>
      <trkpt lat="46.47812" lon="4.80076">
        <ele>260</ele>
        <time>2022-06-25T09:50:44Z</time>
      </trkpt>
      <trkpt lat="46.47811" lon="4.8007">
        <ele>260</ele>
        <time>2022-06-25T09:50:45Z</time>
      </trkpt>
      <trkpt lat="46.47811" lon="4.80065">
        <ele>260.4</ele>
        <time>2022-06-25T09:50:46Z</time>
      </trkpt>
      <trkpt lat="46.47811" lon="4.80059">
        <ele>260.4</ele>
        <time>2022-06-25T09:50:47Z</time>
      </trkpt>
      <trkpt lat="46.4781" lon="4.80053">
        <ele>260.6</ele>
        <time>2022-06-25T09:50:48Z</time>
      </trkpt>
      <trkpt lat="46.4781" lon="4.80047">
        <ele>260.6</ele>
        <time>2022-06-25T09:50:49Z</time>
      </trkpt>
      <trkpt lat="46.4781" lon="4.80041">
        <ele>260.8</ele>
        <time>2022-06-25T09:50:50Z</time>
      </trkpt>
      <trkpt lat="46.47809" lon="4.80035">
        <ele>260.8</ele>
        <time>2022-06-25T09:50:51Z</time>
      </trkpt>
      <trkpt lat="46.47809" lon="4.80029">
        <ele>261</ele>
        <time>2022-06-25T09:50:52Z</time>
      </trkpt>
      <trkpt lat="46.47809" lon="4.80023">
        <ele>261</ele>
        <time>2022-06-25T09:50:53Z</time>
      </trkpt>
      <trkpt lat="46.47808" lon="4.80017">
        <ele>261.2</ele>
        <time>2022-06-25T09:50:54Z</time>
      </trkpt>
      <trkpt lat="46.47807" lon="4.80011">
        <ele>261.2</ele>
        <time>2022-06-25T09:50:55Z</time>
      </trkpt>
      <trkpt lat="46.47805" lon="4.80005">
        <ele>261.6</ele>
        <time>2022-06-25T09:50:56Z</time>
      </trkpt>
      <trkpt lat="46.47805" lon="4.79999">
        <ele>261.6</ele>
        <time>2022-06-25T09:50:57Z</time>
      </trkpt>
      <trkpt lat="46.47804" lon="4.79993">
        <ele>261.8</ele>
        <time>2022-06-25T09:50:58Z</time>
      </trkpt>
      <trkpt lat="46.47803" lon="4.79987">
        <ele>261.8</ele>
        <time>2022-06-25T09:50:59Z</time>
      </trkpt>
      <trkpt lat="46.47803" lon="4.79981">
        <ele>262.2</ele>
        <time>2022-06-25T09:51:00Z</time>
      </trkpt>
      <trkpt lat="46.47802" lon="4.79975">
        <ele>262.2</ele>
        <time>2022-06-25T09:51:01Z</time>
      </trkpt>
      <trkpt lat="46.47801" lon="4.7997">
        <ele>262.2</ele>
        <time>2022-06-25T09:51:02Z</time>
      </trkpt>
      <trkpt lat="46.478" lon="4.79964">
        <ele>262.2</ele>
        <time>2022-06-25T09:51:03Z</time>
      </trkpt>
      <trkpt lat="46.47799" lon="4.79958">
        <ele>262.2</ele>
        <time>2022-06-25T09:51:04Z</time>
      </trkpt>
      <trkpt lat="46.47798" lon="4.79951">
        <ele>262.4</ele>
        <time>2022-06-25T09:51:05Z</time>
      </trkpt>
      <trkpt lat="46.47798" lon="4.79945">
        <ele>262.4</ele>
        <time>2022-06-25T09:51:06Z</time>
      </trkpt>
      <trkpt lat="46.47798" lon="4.79939">
        <ele>262.4</ele>
        <time>2022-06-25T09:51:07Z</time>
      </trkpt>
      <trkpt lat="46.47797" lon="4.79933">
        <ele>262.6</ele>
        <time>2022-06-25T09:51:08Z</time>
      </trkpt>
      <trkpt lat="46.47796" lon="4.79927">
        <ele>262.6</ele>
        <time>2022-06-25T09:51:09Z</time>
      </trkpt>
      <trkpt lat="46.47796" lon="4.79921">
        <ele>262.6</ele>
        <time>2022-06-25T09:51:10Z</time>
      </trkpt>
      <trkpt lat="46.47795" lon="4.79915">
        <ele>262.6</ele>
        <time>2022-06-25T09:51:11Z</time>
      </trkpt>
      <trkpt lat="46.47794" lon="4.79908">
        <ele>262.8</ele>
        <time>2022-06-25T09:51:12Z</time>
      </trkpt>
      <trkpt lat="46.47793" lon="4.79903">
        <ele>262.8</ele>
        <time>2022-06-25T09:51:13Z</time>
      </trkpt>
      <trkpt lat="46.47792" lon="4.79896">
        <ele>262.8</ele>
        <time>2022-06-25T09:51:14Z</time>
      </trkpt>
      <trkpt lat="46.47791" lon="4.7989">
        <ele>263.2</ele>
        <time>2022-06-25T09:51:15Z</time>
      </trkpt>
      <trkpt lat="46.4779" lon="4.79883">
        <ele>263.2</ele>
        <time>2022-06-25T09:51:16Z</time>
      </trkpt>
      <trkpt lat="46.47789" lon="4.79878">
        <ele>263.2</ele>
        <time>2022-06-25T09:51:17Z</time>
      </trkpt>
      <trkpt lat="46.47788" lon="4.79872">
        <ele>263.4</ele>
        <time>2022-06-25T09:51:18Z</time>
      </trkpt>
      <trkpt lat="46.47787" lon="4.79866">
        <ele>263.4</ele>
        <time>2022-06-25T09:51:19Z</time>
      </trkpt>
      <trkpt lat="46.47786" lon="4.7986">
        <ele>263.4</ele>
        <time>2022-06-25T09:51:20Z</time>
      </trkpt>
      <trkpt lat="46.47785" lon="4.79854">
        <ele>263.4</ele>
        <time>2022-06-25T09:51:21Z</time>
      </trkpt>
      <trkpt lat="46.47784" lon="4.79848">
        <ele>263.6</ele>
        <time>2022-06-25T09:51:22Z</time>
      </trkpt>
      <trkpt lat="46.47783" lon="4.79842">
        <ele>263.6</ele>
        <time>2022-06-25T09:51:23Z</time>
      </trkpt>
      <trkpt lat="46.47782" lon="4.79835">
        <ele>263.6</ele>
        <time>2022-06-25T09:51:24Z</time>
      </trkpt>
      <trkpt lat="46.47781" lon="4.79827">
        <ele>263.6</ele>
        <time>2022-06-25T09:51:25Z</time>
      </trkpt>
      <trkpt lat="46.4778" lon="4.7982">
        <ele>263.6</ele>
        <time>2022-06-25T09:51:26Z</time>
      </trkpt>
      <trkpt lat="46.47779" lon="4.79812">
        <ele>263.6</ele>
        <time>2022-06-25T09:51:27Z</time>
      </trkpt>
      <trkpt lat="46.47778" lon="4.79804">
        <ele>263.6</ele>
        <time>2022-06-25T09:51:28Z</time>
      </trkpt>
      <trkpt lat="46.47777" lon="4.79796">
        <ele>263.6</ele>
        <time>2022-06-25T09:51:29Z</time>
      </trkpt>
      <trkpt lat="46.47776" lon="4.79787">
        <ele>263.6</ele>
        <time>2022-06-25T09:51:30Z</time>
      </trkpt>
      <trkpt lat="46.47775" lon="4.79779">
        <ele>263.6</ele>
        <time>2022-06-25T09:51:31Z</time>
      </trkpt>
      <trkpt lat="46.47773" lon="4.7977">
        <ele>263.4</ele>
        <time>2022-06-25T09:51:32Z</time>
      </trkpt>
      <trkpt lat="46.47772" lon="4.79761">
        <ele>263.4</ele>
        <time>2022-06-25T09:51:33Z</time>
      </trkpt>
      <trkpt lat="46.4777" lon="4.79752">
        <ele>263.4</ele>
        <time>2022-06-25T09:51:34Z</time>
      </trkpt>
      <trkpt lat="46.47769" lon="4.79742">
        <ele>263.4</ele>
        <time>2022-06-25T09:51:35Z</time>
      </trkpt>
      <trkpt lat="46.47768" lon="4.79733">
        <ele>263.4</ele>
        <time>2022-06-25T09:51:36Z</time>
      </trkpt>
      <trkpt lat="46.47766" lon="4.79724">
        <ele>263.4</ele>
        <time>2022-06-25T09:51:37Z</time>
      </trkpt>
      <trkpt lat="46.47764" lon="4.79714">
        <ele>263</ele>
        <time>2022-06-25T09:51:38Z</time>
      </trkpt>
      <trkpt lat="46.47763" lon="4.79705">
        <ele>263</ele>
        <time>2022-06-25T09:51:39Z</time>
      </trkpt>
      <trkpt lat="46.47761" lon="4.79695">
        <ele>262.8</ele>
        <time>2022-06-25T09:51:40Z</time>
      </trkpt>
      <trkpt lat="46.4776" lon="4.79686">
        <ele>262.8</ele>
        <time>2022-06-25T09:51:41Z</time>
      </trkpt>
      <trkpt lat="46.47758" lon="4.79676">
        <ele>262.8</ele>
        <time>2022-06-25T09:51:42Z</time>
      </trkpt>
      <trkpt lat="46.47757" lon="4.79667">
        <ele>262.6</ele>
        <time>2022-06-25T09:51:43Z</time>
      </trkpt>
      <trkpt lat="46.47755" lon="4.79658">
        <ele>262.6</ele>
        <time>2022-06-25T09:51:44Z</time>
      </trkpt>
      <trkpt lat="46.47754" lon="4.79649">
        <ele>262.6</ele>
        <time>2022-06-25T09:51:45Z</time>
      </trkpt>
      <trkpt lat="46.47752" lon="4.79639">
        <ele>262.6</ele>
        <time>2022-06-25T09:51:46Z</time>
      </trkpt>
      <trkpt lat="46.4775" lon="4.7963">
        <ele>262.6</ele>
        <time>2022-06-25T09:51:47Z</time>
      </trkpt>
      <trkpt lat="46.47749" lon="4.79621">
        <ele>262.6</ele>
        <time>2022-06-25T09:51:48Z</time>
      </trkpt>
      <trkpt lat="46.47747" lon="4.79613">
        <ele>262.6</ele>
        <time>2022-06-25T09:51:49Z</time>
      </trkpt>
      <trkpt lat="46.47746" lon="4.79604">
        <ele>262.6</ele>
        <time>2022-06-25T09:51:50Z</time>
      </trkpt>
      <trkpt lat="46.47745" lon="4.79596">
        <ele>262.8</ele>
        <time>2022-06-25T09:51:51Z</time>
      </trkpt>
      <trkpt lat="46.47744" lon="4.79588">
        <ele>262.8</ele>
        <time>2022-06-25T09:51:52Z</time>
      </trkpt>
      <trkpt lat="46.47742" lon="4.79579">
        <ele>263.2</ele>
        <time>2022-06-25T09:51:53Z</time>
      </trkpt>
      <trkpt lat="46.4774" lon="4.7957">
        <ele>263.2</ele>
        <time>2022-06-25T09:51:54Z</time>
      </trkpt>
      <trkpt lat="46.47739" lon="4.79561">
        <ele>263.2</ele>
        <time>2022-06-25T09:51:55Z</time>
      </trkpt>
      <trkpt lat="46.47738" lon="4.79553">
        <ele>263.2</ele>
        <time>2022-06-25T09:51:56Z</time>
      </trkpt>
      <trkpt lat="46.47736" lon="4.79544">
        <ele>263.4</ele>
        <time>2022-06-25T09:51:57Z</time>
      </trkpt>
      <trkpt lat="46.47735" lon="4.79534">
        <ele>263.4</ele>
        <time>2022-06-25T09:51:58Z</time>
      </trkpt>
      <trkpt lat="46.47734" lon="4.79525">
        <ele>263.4</ele>
        <time>2022-06-25T09:51:59Z</time>
      </trkpt>
      <trkpt lat="46.47733" lon="4.79516">
        <ele>263.4</ele>
        <time>2022-06-25T09:52:00Z</time>
      </trkpt>
      <trkpt lat="46.47732" lon="4.79507">
        <ele>263.4</ele>
        <time>2022-06-25T09:52:01Z</time>
      </trkpt>
      <trkpt lat="46.47731" lon="4.79499">
        <ele>263.4</ele>
        <time>2022-06-25T09:52:02Z</time>
      </trkpt>
      <trkpt lat="46.47731" lon="4.7949">
        <ele>263.6</ele>
        <time>2022-06-25T09:52:03Z</time>
      </trkpt>
      <trkpt lat="46.47731" lon="4.79481">
        <ele>263.6</ele>
        <time>2022-06-25T09:52:04Z</time>
      </trkpt>
      <trkpt lat="46.47731" lon="4.79472">
        <ele>264</ele>
        <time>2022-06-25T09:52:05Z</time>
      </trkpt>
      <trkpt lat="46.47732" lon="4.79464">
        <ele>264</ele>
        <time>2022-06-25T09:52:06Z</time>
      </trkpt>
      <trkpt lat="46.47733" lon="4.79456">
        <ele>264</ele>
        <time>2022-06-25T09:52:07Z</time>
      </trkpt>
      <trkpt lat="46.47734" lon="4.79448">
        <ele>264.2</ele>
        <time>2022-06-25T09:52:08Z</time>
      </trkpt>
      <trkpt lat="46.47735" lon="4.7944">
        <ele>264.2</ele>
        <time>2022-06-25T09:52:09Z</time>
      </trkpt>
      <trkpt lat="46.47737" lon="4.79433">
        <ele>264.2</ele>
        <time>2022-06-25T09:52:10Z</time>
      </trkpt>
      <trkpt lat="46.47739" lon="4.79426">
        <ele>264.6</ele>
        <time>2022-06-25T09:52:11Z</time>
      </trkpt>
      <trkpt lat="46.47741" lon="4.79419">
        <ele>264.6</ele>
        <time>2022-06-25T09:52:12Z</time>
      </trkpt>
      <trkpt lat="46.47744" lon="4.79412">
        <ele>264.6</ele>
        <time>2022-06-25T09:52:13Z</time>
      </trkpt>
      <trkpt lat="46.47747" lon="4.79406">
        <ele>264.8</ele>
        <time>2022-06-25T09:52:14Z</time>
      </trkpt>
      <trkpt lat="46.4775" lon="4.79401">
        <ele>264.8</ele>
        <time>2022-06-25T09:52:15Z</time>
      </trkpt>
      <trkpt lat="46.47754" lon="4.79395">
        <ele>264.8</ele>
        <time>2022-06-25T09:52:16Z</time>
      </trkpt>
      <trkpt lat="46.47758" lon="4.7939">
        <ele>265</ele>
        <time>2022-06-25T09:52:17Z</time>
      </trkpt>
      <trkpt lat="46.47763" lon="4.79386">
        <ele>265</ele>
        <time>2022-06-25T09:52:18Z</time>
      </trkpt>
      <trkpt lat="46.47767" lon="4.79382">
        <ele>265.2</ele>
        <time>2022-06-25T09:52:19Z</time>
      </trkpt>
      <trkpt lat="46.47771" lon="4.79378">
        <ele>265.2</ele>
        <time>2022-06-25T09:52:20Z</time>
      </trkpt>
      <trkpt lat="46.47775" lon="4.79374">
        <ele>265.4</ele>
        <time>2022-06-25T09:52:21Z</time>
      </trkpt>
      <trkpt lat="46.47779" lon="4.7937">
        <ele>265.4</ele>
        <time>2022-06-25T09:52:22Z</time>
      </trkpt>
      <trkpt lat="46.47782" lon="4.79366">
        <ele>265.6</ele>
        <time>2022-06-25T09:52:23Z</time>
      </trkpt>
      <trkpt lat="46.47786" lon="4.79362">
        <ele>265.6</ele>
        <time>2022-06-25T09:52:24Z</time>
      </trkpt>
      <trkpt lat="46.47789" lon="4.79358">
        <ele>266</ele>
        <time>2022-06-25T09:52:25Z</time>
      </trkpt>
      <trkpt lat="46.47793" lon="4.79354">
        <ele>266.2</ele>
        <time>2022-06-25T09:52:26Z</time>
      </trkpt>
      <trkpt lat="46.47796" lon="4.7935">
        <ele>266.4</ele>
        <time>2022-06-25T09:52:27Z</time>
      </trkpt>
      <trkpt lat="46.47799" lon="4.79347">
        <ele>266.6</ele>
        <time>2022-06-25T09:52:28Z</time>
      </trkpt>
      <trkpt lat="46.47802" lon="4.79343">
        <ele>266.6</ele>
        <time>2022-06-25T09:52:29Z</time>
      </trkpt>
      <trkpt lat="46.47806" lon="4.79339">
        <ele>267</ele>
        <time>2022-06-25T09:52:30Z</time>
      </trkpt>
      <trkpt lat="46.47809" lon="4.79335">
        <ele>267.2</ele>
        <time>2022-06-25T09:52:31Z</time>
      </trkpt>
      <trkpt lat="46.47812" lon="4.79331">
        <ele>267.2</ele>
        <time>2022-06-25T09:52:32Z</time>
      </trkpt>
      <trkpt lat="46.47815" lon="4.79327">
        <ele>267.4</ele>
        <time>2022-06-25T09:52:33Z</time>
      </trkpt>
      <trkpt lat="46.47818" lon="4.79322">
        <ele>267.4</ele>
        <time>2022-06-25T09:52:34Z</time>
      </trkpt>
      <trkpt lat="46.47821" lon="4.79318">
        <ele>267.8</ele>
        <time>2022-06-25T09:52:35Z</time>
      </trkpt>
      <trkpt lat="46.47824" lon="4.79313">
        <ele>267.8</ele>
        <time>2022-06-25T09:52:36Z</time>
      </trkpt>
      <trkpt lat="46.47827" lon="4.79308">
        <ele>267.8</ele>
        <time>2022-06-25T09:52:37Z</time>
      </trkpt>
      <trkpt lat="46.47829" lon="4.79303">
        <ele>268</ele>
        <time>2022-06-25T09:52:38Z</time>
      </trkpt>
      <trkpt lat="46.47832" lon="4.79297">
        <ele>268</ele>
        <time>2022-06-25T09:52:39Z</time>
      </trkpt>
      <trkpt lat="46.47835" lon="4.79292">
        <ele>268.2</ele>
        <time>2022-06-25T09:52:40Z</time>
      </trkpt>
      <trkpt lat="46.47838" lon="4.79286">
        <ele>268.2</ele>
        <time>2022-06-25T09:52:41Z</time>
      </trkpt>
      <trkpt lat="46.47841" lon="4.79281">
        <ele>268.2</ele>
        <time>2022-06-25T09:52:42Z</time>
      </trkpt>
      <trkpt lat="46.47844" lon="4.79275">
        <ele>268.6</ele>
        <time>2022-06-25T09:52:43Z</time>
      </trkpt>
      <trkpt lat="46.47847" lon="4.79269">
        <ele>268.6</ele>
        <time>2022-06-25T09:52:44Z</time>
      </trkpt>
      <trkpt lat="46.4785" lon="4.79263">
        <ele>268.8</ele>
        <time>2022-06-25T09:52:45Z</time>
      </trkpt>
      <trkpt lat="46.47853" lon="4.79256">
        <ele>268.8</ele>
        <time>2022-06-25T09:52:46Z</time>
      </trkpt>
      <trkpt lat="46.47856" lon="4.7925">
        <ele>268.8</ele>
        <time>2022-06-25T09:52:47Z</time>
      </trkpt>
      <trkpt lat="46.4786" lon="4.79244">
        <ele>268.8</ele>
        <time>2022-06-25T09:52:48Z</time>
      </trkpt>
      <trkpt lat="46.47863" lon="4.79238">
        <ele>268.8</ele>
        <time>2022-06-25T09:52:49Z</time>
      </trkpt>
      <trkpt lat="46.47866" lon="4.79231">
        <ele>268.8</ele>
        <time>2022-06-25T09:52:50Z</time>
      </trkpt>
      <trkpt lat="46.47869" lon="4.79225">
        <ele>269</ele>
        <time>2022-06-25T09:52:51Z</time>
      </trkpt>
      <trkpt lat="46.47872" lon="4.79219">
        <ele>269</ele>
        <time>2022-06-25T09:52:52Z</time>
      </trkpt>
      <trkpt lat="46.47875" lon="4.79213">
        <ele>269.2</ele>
        <time>2022-06-25T09:52:53Z</time>
      </trkpt>
      <trkpt lat="46.47879" lon="4.79206">
        <ele>269.2</ele>
        <time>2022-06-25T09:52:54Z</time>
      </trkpt>
      <trkpt lat="46.47882" lon="4.792">
        <ele>269.2</ele>
        <time>2022-06-25T09:52:55Z</time>
      </trkpt>
      <trkpt lat="46.47885" lon="4.79193">
        <ele>269.2</ele>
        <time>2022-06-25T09:52:56Z</time>
      </trkpt>
      <trkpt lat="46.47889" lon="4.79187">
        <ele>269.2</ele>
        <time>2022-06-25T09:52:57Z</time>
      </trkpt>
      <trkpt lat="46.47892" lon="4.7918">
        <ele>269.2</ele>
        <time>2022-06-25T09:52:58Z</time>
      </trkpt>
      <trkpt lat="46.47895" lon="4.79172">
        <ele>269.2</ele>
        <time>2022-06-25T09:52:59Z</time>
      </trkpt>
      <trkpt lat="46.47899" lon="4.79165">
        <ele>269.2</ele>
        <time>2022-06-25T09:53:00Z</time>
      </trkpt>
      <trkpt lat="46.47902" lon="4.79158">
        <ele>269.2</ele>
        <time>2022-06-25T09:53:01Z</time>
      </trkpt>
      <trkpt lat="46.47905" lon="4.7915">
        <ele>269.2</ele>
        <time>2022-06-25T09:53:02Z</time>
      </trkpt>
      <trkpt lat="46.47908" lon="4.79142">
        <ele>269</ele>
        <time>2022-06-25T09:53:03Z</time>
      </trkpt>
      <trkpt lat="46.47911" lon="4.79135">
        <ele>269</ele>
        <time>2022-06-25T09:53:04Z</time>
      </trkpt>
      <trkpt lat="46.47914" lon="4.79126">
        <ele>269</ele>
        <time>2022-06-25T09:53:05Z</time>
      </trkpt>
      <trkpt lat="46.47918" lon="4.79119">
        <ele>269</ele>
        <time>2022-06-25T09:53:06Z</time>
      </trkpt>
      <trkpt lat="46.47921" lon="4.79111">
        <ele>269</ele>
        <time>2022-06-25T09:53:07Z</time>
      </trkpt>
      <trkpt lat="46.47924" lon="4.79103">
        <ele>268.8</ele>
        <time>2022-06-25T09:53:08Z</time>
      </trkpt>
      <trkpt lat="46.47927" lon="4.79094">
        <ele>268.8</ele>
        <time>2022-06-25T09:53:09Z</time>
      </trkpt>
      <trkpt lat="46.47931" lon="4.79086">
        <ele>268.8</ele>
        <time>2022-06-25T09:53:10Z</time>
      </trkpt>
      <trkpt lat="46.47934" lon="4.79078">
        <ele>268.8</ele>
        <time>2022-06-25T09:53:11Z</time>
      </trkpt>
      <trkpt lat="46.47937" lon="4.7907">
        <ele>268.8</ele>
        <time>2022-06-25T09:53:12Z</time>
      </trkpt>
      <trkpt lat="46.47941" lon="4.79062">
        <ele>268.8</ele>
        <time>2022-06-25T09:53:13Z</time>
      </trkpt>
      <trkpt lat="46.47944" lon="4.79053">
        <ele>268.4</ele>
        <time>2022-06-25T09:53:14Z</time>
      </trkpt>
      <trkpt lat="46.47948" lon="4.79045">
        <ele>268.4</ele>
        <time>2022-06-25T09:53:15Z</time>
      </trkpt>
      <trkpt lat="46.47952" lon="4.79037">
        <ele>268.4</ele>
        <time>2022-06-25T09:53:16Z</time>
      </trkpt>
      <trkpt lat="46.47955" lon="4.79029">
        <ele>268.4</ele>
        <time>2022-06-25T09:53:17Z</time>
      </trkpt>
      <trkpt lat="46.47959" lon="4.79021">
        <ele>268.4</ele>
        <time>2022-06-25T09:53:18Z</time>
      </trkpt>
      <trkpt lat="46.47963" lon="4.79013">
        <ele>268.4</ele>
        <time>2022-06-25T09:53:19Z</time>
      </trkpt>
      <trkpt lat="46.47967" lon="4.79005">
        <ele>268.2</ele>
        <time>2022-06-25T09:53:20Z</time>
      </trkpt>
      <trkpt lat="46.4797" lon="4.78999">
        <ele>268.2</ele>
        <time>2022-06-25T09:53:21Z</time>
      </trkpt>
      <trkpt lat="46.47973" lon="4.78993">
        <ele>268</ele>
        <time>2022-06-25T09:53:22Z</time>
      </trkpt>
      <trkpt lat="46.47975" lon="4.78989">
        <ele>268</ele>
        <time>2022-06-25T09:53:23Z</time>
      </trkpt>
      <trkpt lat="46.47977" lon="4.78985">
        <ele>268</ele>
        <time>2022-06-25T09:53:24Z</time>
      </trkpt>
      <trkpt lat="46.47979" lon="4.78982">
        <ele>268</ele>
        <time>2022-06-25T09:53:25Z</time>
      </trkpt>
      <trkpt lat="46.47981" lon="4.7898">
        <ele>267.8</ele>
        <time>2022-06-25T09:53:26Z</time>
      </trkpt>
      <trkpt lat="46.47982" lon="4.78978">
        <ele>267.8</ele>
        <time>2022-06-25T09:53:27Z</time>
      </trkpt>
      <trkpt lat="46.47983" lon="4.78978">
        <ele>267.8</ele>
        <time>2022-06-25T09:53:28Z</time>
      </trkpt>
      <trkpt lat="46.47983" lon="4.78977">
        <ele>267.6</ele>
        <time>2022-06-25T09:53:29Z</time>
      </trkpt>
      <trkpt lat="46.47983" lon="4.78977">
        <ele>267.4</ele>
        <time>2022-06-25T09:55:23Z</time>
      </trkpt>
      <trkpt lat="46.47984" lon="4.78973">
        <ele>267.4</ele>
        <time>2022-06-25T09:55:30Z</time>
      </trkpt>
      <trkpt lat="46.47985" lon="4.78971">
        <ele>267.4</ele>
        <time>2022-06-25T09:55:31Z</time>
      </trkpt>
      <trkpt lat="46.47986" lon="4.78968">
        <ele>267.6</ele>
        <time>2022-06-25T09:55:32Z</time>
      </trkpt>
      <trkpt lat="46.47988" lon="4.78965">
        <ele>267.6</ele>
        <time>2022-06-25T09:55:33Z</time>
      </trkpt>
      <trkpt lat="46.47989" lon="4.78961">
        <ele>267.6</ele>
        <time>2022-06-25T09:55:34Z</time>
      </trkpt>
      <trkpt lat="46.47992" lon="4.78957">
        <ele>267.6</ele>
        <time>2022-06-25T09:55:35Z</time>
      </trkpt>
      <trkpt lat="46.47994" lon="4.78953">
        <ele>267.6</ele>
        <time>2022-06-25T09:55:36Z</time>
      </trkpt>
      <trkpt lat="46.47996" lon="4.78949">
        <ele>267.6</ele>
        <time>2022-06-25T09:55:37Z</time>
      </trkpt>
      <trkpt lat="46.47998" lon="4.78945">
        <ele>267.6</ele>
        <time>2022-06-25T09:55:38Z</time>
      </trkpt>
      <trkpt lat="46.48001" lon="4.7894">
        <ele>267.6</ele>
        <time>2022-06-25T09:55:39Z</time>
      </trkpt>
      <trkpt lat="46.48003" lon="4.78936">
        <ele>267.6</ele>
        <time>2022-06-25T09:55:40Z</time>
      </trkpt>
      <trkpt lat="46.48005" lon="4.78931">
        <ele>267.6</ele>
        <time>2022-06-25T09:55:41Z</time>
      </trkpt>
      <trkpt lat="46.48008" lon="4.78926">
        <ele>267.6</ele>
        <time>2022-06-25T09:55:42Z</time>
      </trkpt>
      <trkpt lat="46.48011" lon="4.78921">
        <ele>267.6</ele>
        <time>2022-06-25T09:55:43Z</time>
      </trkpt>
      <trkpt lat="46.48013" lon="4.78916">
        <ele>267.6</ele>
        <time>2022-06-25T09:55:44Z</time>
      </trkpt>
      <trkpt lat="46.48016" lon="4.7891">
        <ele>267.6</ele>
        <time>2022-06-25T09:55:45Z</time>
      </trkpt>
      <trkpt lat="46.48019" lon="4.78905">
        <ele>267.6</ele>
        <time>2022-06-25T09:55:46Z</time>
      </trkpt>
      <trkpt lat="46.48021" lon="4.78899">
        <ele>267.8</ele>
        <time>2022-06-25T09:55:47Z</time>
      </trkpt>
      <trkpt lat="46.48024" lon="4.78894">
        <ele>267.8</ele>
        <time>2022-06-25T09:55:48Z</time>
      </trkpt>
      <trkpt lat="46.48026" lon="4.78888">
        <ele>267.8</ele>
        <time>2022-06-25T09:55:49Z</time>
      </trkpt>
      <trkpt lat="46.48029" lon="4.78882">
        <ele>267.8</ele>
        <time>2022-06-25T09:55:50Z</time>
      </trkpt>
      <trkpt lat="46.48031" lon="4.78876">
        <ele>267.8</ele>
        <time>2022-06-25T09:55:51Z</time>
      </trkpt>
      <trkpt lat="46.48034" lon="4.7887">
        <ele>267.8</ele>
        <time>2022-06-25T09:55:52Z</time>
      </trkpt>
      <trkpt lat="46.48036" lon="4.78864">
        <ele>267.8</ele>
        <time>2022-06-25T09:55:53Z</time>
      </trkpt>
      <trkpt lat="46.48039" lon="4.78857">
        <ele>267.8</ele>
        <time>2022-06-25T09:55:54Z</time>
      </trkpt>
      <trkpt lat="46.48041" lon="4.78851">
        <ele>268</ele>
        <time>2022-06-25T09:55:55Z</time>
      </trkpt>
      <trkpt lat="46.48043" lon="4.78845">
        <ele>268</ele>
        <time>2022-06-25T09:55:56Z</time>
      </trkpt>
      <trkpt lat="46.48045" lon="4.78839">
        <ele>268</ele>
        <time>2022-06-25T09:55:57Z</time>
      </trkpt>
      <trkpt lat="46.48048" lon="4.78833">
        <ele>268</ele>
        <time>2022-06-25T09:55:58Z</time>
      </trkpt>
      <trkpt lat="46.4805" lon="4.78827">
        <ele>268.4</ele>
        <time>2022-06-25T09:55:59Z</time>
      </trkpt>
      <trkpt lat="46.48052" lon="4.78821">
        <ele>268.4</ele>
        <time>2022-06-25T09:56:00Z</time>
      </trkpt>
      <trkpt lat="46.48055" lon="4.78815">
        <ele>268.4</ele>
        <time>2022-06-25T09:56:01Z</time>
      </trkpt>
      <trkpt lat="46.48057" lon="4.78809">
        <ele>268.4</ele>
        <time>2022-06-25T09:56:02Z</time>
      </trkpt>
      <trkpt lat="46.4806" lon="4.78802">
        <ele>268.6</ele>
        <time>2022-06-25T09:56:03Z</time>
      </trkpt>
      <trkpt lat="46.48062" lon="4.78797">
        <ele>268.6</ele>
        <time>2022-06-25T09:56:04Z</time>
      </trkpt>
      <trkpt lat="46.48064" lon="4.78791">
        <ele>268.6</ele>
        <time>2022-06-25T09:56:05Z</time>
      </trkpt>
      <trkpt lat="46.48067" lon="4.78785">
        <ele>268.6</ele>
        <time>2022-06-25T09:56:06Z</time>
      </trkpt>
      <trkpt lat="46.48069" lon="4.7878">
        <ele>268.6</ele>
        <time>2022-06-25T09:56:07Z</time>
      </trkpt>
      <trkpt lat="46.48069" lon="4.78772">
        <ele>268.6</ele>
        <time>2022-06-25T09:56:08Z</time>
      </trkpt>
      <trkpt lat="46.48071" lon="4.78765">
        <ele>268.8</ele>
        <time>2022-06-25T09:56:09Z</time>
      </trkpt>
      <trkpt lat="46.48073" lon="4.78759">
        <ele>268.8</ele>
        <time>2022-06-25T09:56:10Z</time>
      </trkpt>
      <trkpt lat="46.48075" lon="4.78752">
        <ele>269</ele>
        <time>2022-06-25T09:56:11Z</time>
      </trkpt>
      <trkpt lat="46.48077" lon="4.78747">
        <ele>269</ele>
        <time>2022-06-25T09:56:12Z</time>
      </trkpt>
      <trkpt lat="46.48079" lon="4.78741">
        <ele>269.2</ele>
        <time>2022-06-25T09:56:13Z</time>
      </trkpt>
      <trkpt lat="46.4808" lon="4.78734">
        <ele>269.2</ele>
        <time>2022-06-25T09:56:14Z</time>
      </trkpt>
      <trkpt lat="46.48082" lon="4.78726">
        <ele>269.6</ele>
        <time>2022-06-25T09:56:15Z</time>
      </trkpt>
      <trkpt lat="46.48083" lon="4.78719">
        <ele>269.6</ele>
        <time>2022-06-25T09:56:16Z</time>
      </trkpt>
      <trkpt lat="46.48085" lon="4.78712">
        <ele>269.6</ele>
        <time>2022-06-25T09:56:17Z</time>
      </trkpt>
      <trkpt lat="46.48085" lon="4.78704">
        <ele>269.6</ele>
        <time>2022-06-25T09:56:18Z</time>
      </trkpt>
      <trkpt lat="46.48085" lon="4.78696">
        <ele>269.6</ele>
        <time>2022-06-25T09:56:19Z</time>
      </trkpt>
      <trkpt lat="46.48084" lon="4.78688">
        <ele>269.8</ele>
        <time>2022-06-25T09:56:20Z</time>
      </trkpt>
      <trkpt lat="46.48082" lon="4.78681">
        <ele>269.8</ele>
        <time>2022-06-25T09:56:21Z</time>
      </trkpt>
      <trkpt lat="46.48079" lon="4.78674">
        <ele>269.8</ele>
        <time>2022-06-25T09:56:22Z</time>
      </trkpt>
      <trkpt lat="46.48075" lon="4.78667">
        <ele>269.8</ele>
        <time>2022-06-25T09:56:23Z</time>
      </trkpt>
      <trkpt lat="46.48072" lon="4.78662">
        <ele>269.8</ele>
        <time>2022-06-25T09:56:24Z</time>
      </trkpt>
      <trkpt lat="46.48068" lon="4.78658">
        <ele>269.8</ele>
        <time>2022-06-25T09:56:25Z</time>
      </trkpt>
      <trkpt lat="46.48064" lon="4.78653">
        <ele>270</ele>
        <time>2022-06-25T09:56:26Z</time>
      </trkpt>
      <trkpt lat="46.4806" lon="4.78649">
        <ele>270</ele>
        <time>2022-06-25T09:56:27Z</time>
      </trkpt>
      <trkpt lat="46.48057" lon="4.78645">
        <ele>270</ele>
        <time>2022-06-25T09:56:28Z</time>
      </trkpt>
      <trkpt lat="46.48053" lon="4.78641">
        <ele>270.4</ele>
        <time>2022-06-25T09:56:29Z</time>
      </trkpt>
      <trkpt lat="46.4805" lon="4.78637">
        <ele>270.4</ele>
        <time>2022-06-25T09:56:30Z</time>
      </trkpt>
      <trkpt lat="46.48047" lon="4.78633">
        <ele>270.4</ele>
        <time>2022-06-25T09:56:31Z</time>
      </trkpt>
      <trkpt lat="46.48043" lon="4.78628">
        <ele>270.6</ele>
        <time>2022-06-25T09:56:32Z</time>
      </trkpt>
      <trkpt lat="46.4804" lon="4.78624">
        <ele>270.6</ele>
        <time>2022-06-25T09:56:33Z</time>
      </trkpt>
      <trkpt lat="46.48037" lon="4.7862">
        <ele>270.8</ele>
        <time>2022-06-25T09:56:34Z</time>
      </trkpt>
      <trkpt lat="46.48033" lon="4.78617">
        <ele>270.8</ele>
        <time>2022-06-25T09:56:35Z</time>
      </trkpt>
      <trkpt lat="46.4803" lon="4.78613">
        <ele>271</ele>
        <time>2022-06-25T09:56:36Z</time>
      </trkpt>
      <trkpt lat="46.48028" lon="4.78609">
        <ele>271</ele>
        <time>2022-06-25T09:56:37Z</time>
      </trkpt>
      <trkpt lat="46.48025" lon="4.78606">
        <ele>271.4</ele>
        <time>2022-06-25T09:56:38Z</time>
      </trkpt>
      <trkpt lat="46.48022" lon="4.78602">
        <ele>271.4</ele>
        <time>2022-06-25T09:56:39Z</time>
      </trkpt>
      <trkpt lat="46.48019" lon="4.78599">
        <ele>271.8</ele>
        <time>2022-06-25T09:56:40Z</time>
      </trkpt>
      <trkpt lat="46.48016" lon="4.78595">
        <ele>272</ele>
        <time>2022-06-25T09:56:41Z</time>
      </trkpt>
      <trkpt lat="46.48014" lon="4.78592">
        <ele>272</ele>
        <time>2022-06-25T09:56:42Z</time>
      </trkpt>
      <trkpt lat="46.48011" lon="4.78588">
        <ele>272.2</ele>
        <time>2022-06-25T09:56:43Z</time>
      </trkpt>
      <trkpt lat="46.48008" lon="4.78585">
        <ele>272.2</ele>
        <time>2022-06-25T09:56:44Z</time>
      </trkpt>
      <trkpt lat="46.48006" lon="4.78582">
        <ele>272.6</ele>
        <time>2022-06-25T09:56:45Z</time>
      </trkpt>
      <trkpt lat="46.48003" lon="4.78578">
        <ele>272.6</ele>
        <time>2022-06-25T09:56:46Z</time>
      </trkpt>
      <trkpt lat="46.48001" lon="4.78575">
        <ele>273</ele>
        <time>2022-06-25T09:56:47Z</time>
      </trkpt>
      <trkpt lat="46.47998" lon="4.78573">
        <ele>273</ele>
        <time>2022-06-25T09:56:48Z</time>
      </trkpt>
      <trkpt lat="46.47995" lon="4.7857">
        <ele>273.4</ele>
        <time>2022-06-25T09:56:49Z</time>
      </trkpt>
      <trkpt lat="46.47992" lon="4.78568">
        <ele>273.6</ele>
        <time>2022-06-25T09:56:50Z</time>
      </trkpt>
      <trkpt lat="46.47989" lon="4.78565">
        <ele>273.6</ele>
        <time>2022-06-25T09:56:51Z</time>
      </trkpt>
      <trkpt lat="46.47985" lon="4.78563">
        <ele>273.8</ele>
        <time>2022-06-25T09:56:52Z</time>
      </trkpt>
      <trkpt lat="46.47982" lon="4.78561">
        <ele>273.8</ele>
        <time>2022-06-25T09:56:53Z</time>
      </trkpt>
      <trkpt lat="46.47979" lon="4.78559">
        <ele>274.2</ele>
        <time>2022-06-25T09:56:54Z</time>
      </trkpt>
      <trkpt lat="46.47976" lon="4.78556">
        <ele>274.2</ele>
        <time>2022-06-25T09:56:55Z</time>
      </trkpt>
      <trkpt lat="46.47973" lon="4.78553">
        <ele>274.4</ele>
        <time>2022-06-25T09:56:56Z</time>
      </trkpt>
      <trkpt lat="46.4797" lon="4.78551">
        <ele>274.4</ele>
        <time>2022-06-25T09:56:57Z</time>
      </trkpt>
      <trkpt lat="46.47967" lon="4.78548">
        <ele>274.6</ele>
        <time>2022-06-25T09:56:58Z</time>
      </trkpt>
      <trkpt lat="46.47963" lon="4.78546">
        <ele>274.6</ele>
        <time>2022-06-25T09:56:59Z</time>
      </trkpt>
      <trkpt lat="46.4796" lon="4.78544">
        <ele>275</ele>
        <time>2022-06-25T09:57:00Z</time>
      </trkpt>
      <trkpt lat="46.47956" lon="4.78542">
        <ele>275</ele>
        <time>2022-06-25T09:57:01Z</time>
      </trkpt>
      <trkpt lat="46.47953" lon="4.78539">
        <ele>275.2</ele>
        <time>2022-06-25T09:57:02Z</time>
      </trkpt>
      <trkpt lat="46.47949" lon="4.78537">
        <ele>275.2</ele>
        <time>2022-06-25T09:57:03Z</time>
      </trkpt>
      <trkpt lat="46.47946" lon="4.78535">
        <ele>275.4</ele>
        <time>2022-06-25T09:57:04Z</time>
      </trkpt>
      <trkpt lat="46.47943" lon="4.78533">
        <ele>275.4</ele>
        <time>2022-06-25T09:57:05Z</time>
      </trkpt>
      <trkpt lat="46.4794" lon="4.7853">
        <ele>275.8</ele>
        <time>2022-06-25T09:57:06Z</time>
      </trkpt>
      <trkpt lat="46.47937" lon="4.78529">
        <ele>276</ele>
        <time>2022-06-25T09:57:07Z</time>
      </trkpt>
      <trkpt lat="46.47933" lon="4.78527">
        <ele>276</ele>
        <time>2022-06-25T09:57:08Z</time>
      </trkpt>
      <trkpt lat="46.4793" lon="4.78525">
        <ele>276.4</ele>
        <time>2022-06-25T09:57:09Z</time>
      </trkpt>
      <trkpt lat="46.47927" lon="4.78522">
        <ele>276.4</ele>
        <time>2022-06-25T09:57:10Z</time>
      </trkpt>
      <trkpt lat="46.47924" lon="4.78519">
        <ele>276.6</ele>
        <time>2022-06-25T09:57:11Z</time>
      </trkpt>
      <trkpt lat="46.47921" lon="4.78516">
        <ele>276.6</ele>
        <time>2022-06-25T09:57:12Z</time>
      </trkpt>
      <trkpt lat="46.47918" lon="4.78513">
        <ele>276.8</ele>
        <time>2022-06-25T09:57:13Z</time>
      </trkpt>
      <trkpt lat="46.47915" lon="4.7851">
        <ele>276.8</ele>
        <time>2022-06-25T09:57:14Z</time>
      </trkpt>
      <trkpt lat="46.47912" lon="4.78506">
        <ele>277.2</ele>
        <time>2022-06-25T09:57:15Z</time>
      </trkpt>
      <trkpt lat="46.4791" lon="4.78502">
        <ele>277.4</ele>
        <time>2022-06-25T09:57:16Z</time>
      </trkpt>
      <trkpt lat="46.47908" lon="4.78498">
        <ele>277.6</ele>
        <time>2022-06-25T09:57:17Z</time>
      </trkpt>
      <trkpt lat="46.47906" lon="4.78494">
        <ele>277.6</ele>
        <time>2022-06-25T09:57:18Z</time>
      </trkpt>
      <trkpt lat="46.47905" lon="4.7849">
        <ele>277.8</ele>
        <time>2022-06-25T09:57:19Z</time>
      </trkpt>
      <trkpt lat="46.47903" lon="4.78485">
        <ele>277.8</ele>
        <time>2022-06-25T09:57:20Z</time>
      </trkpt>
      <trkpt lat="46.47902" lon="4.78481">
        <ele>278.2</ele>
        <time>2022-06-25T09:57:21Z</time>
      </trkpt>
      <trkpt lat="46.47901" lon="4.78477">
        <ele>278.2</ele>
        <time>2022-06-25T09:57:22Z</time>
      </trkpt>
      <trkpt lat="46.479" lon="4.78472">
        <ele>278.6</ele>
        <time>2022-06-25T09:57:23Z</time>
      </trkpt>
      <trkpt lat="46.47899" lon="4.78468">
        <ele>278.6</ele>
        <time>2022-06-25T09:57:24Z</time>
      </trkpt>
      <trkpt lat="46.47898" lon="4.78463">
        <ele>278.8</ele>
        <time>2022-06-25T09:57:25Z</time>
      </trkpt>
      <trkpt lat="46.47896" lon="4.78459">
        <ele>279</ele>
        <time>2022-06-25T09:57:26Z</time>
      </trkpt>
      <trkpt lat="46.47895" lon="4.78455">
        <ele>279.2</ele>
        <time>2022-06-25T09:57:27Z</time>
      </trkpt>
      <trkpt lat="46.47893" lon="4.78451">
        <ele>279.4</ele>
        <time>2022-06-25T09:57:28Z</time>
      </trkpt>
      <trkpt lat="46.4789" lon="4.78447">
        <ele>279.4</ele>
        <time>2022-06-25T09:57:29Z</time>
      </trkpt>
      <trkpt lat="46.47888" lon="4.78443">
        <ele>279.8</ele>
        <time>2022-06-25T09:57:30Z</time>
      </trkpt>
      <trkpt lat="46.47886" lon="4.78439">
        <ele>279.8</ele>
        <time>2022-06-25T09:57:31Z</time>
      </trkpt>
      <trkpt lat="46.47884" lon="4.78435">
        <ele>280.2</ele>
        <time>2022-06-25T09:57:32Z</time>
      </trkpt>
      <trkpt lat="46.47881" lon="4.78431">
        <ele>280.2</ele>
        <time>2022-06-25T09:57:33Z</time>
      </trkpt>
      <trkpt lat="46.47879" lon="4.78428">
        <ele>280.4</ele>
        <time>2022-06-25T09:57:34Z</time>
      </trkpt>
      <trkpt lat="46.47876" lon="4.78425">
        <ele>280.4</ele>
        <time>2022-06-25T09:57:35Z</time>
      </trkpt>
      <trkpt lat="46.47873" lon="4.78421">
        <ele>280.8</ele>
        <time>2022-06-25T09:57:36Z</time>
      </trkpt>
      <trkpt lat="46.4787" lon="4.78418">
        <ele>280.8</ele>
        <time>2022-06-25T09:57:37Z</time>
      </trkpt>
      <trkpt lat="46.47867" lon="4.78415">
        <ele>281</ele>
        <time>2022-06-25T09:57:38Z</time>
      </trkpt>
      <trkpt lat="46.47864" lon="4.78412">
        <ele>281</ele>
        <time>2022-06-25T09:57:39Z</time>
      </trkpt>
      <trkpt lat="46.47861" lon="4.78409">
        <ele>281</ele>
        <time>2022-06-25T09:57:40Z</time>
      </trkpt>
      <trkpt lat="46.47858" lon="4.78406">
        <ele>281.2</ele>
        <time>2022-06-25T09:57:41Z</time>
      </trkpt>
      <trkpt lat="46.47854" lon="4.78403">
        <ele>281.2</ele>
        <time>2022-06-25T09:57:42Z</time>
      </trkpt>
      <trkpt lat="46.47851" lon="4.78401">
        <ele>281.6</ele>
        <time>2022-06-25T09:57:43Z</time>
      </trkpt>
      <trkpt lat="46.47847" lon="4.78398">
        <ele>281.6</ele>
        <time>2022-06-25T09:57:44Z</time>
      </trkpt>
      <trkpt lat="46.47844" lon="4.78395">
        <ele>281.8</ele>
        <time>2022-06-25T09:57:45Z</time>
      </trkpt>
      <trkpt lat="46.47841" lon="4.78392">
        <ele>281.8</ele>
        <time>2022-06-25T09:57:46Z</time>
      </trkpt>
      <trkpt lat="46.47837" lon="4.7839">
        <ele>282.2</ele>
        <time>2022-06-25T09:57:47Z</time>
      </trkpt>
      <trkpt lat="46.47834" lon="4.78387">
        <ele>282.2</ele>
        <time>2022-06-25T09:57:48Z</time>
      </trkpt>
      <trkpt lat="46.4783" lon="4.78385">
        <ele>282.4</ele>
        <time>2022-06-25T09:57:49Z</time>
      </trkpt>
      <trkpt lat="46.47827" lon="4.78383">
        <ele>282.4</ele>
        <time>2022-06-25T09:57:50Z</time>
      </trkpt>
      <trkpt lat="46.47823" lon="4.78381">
        <ele>282.8</ele>
        <time>2022-06-25T09:57:51Z</time>
      </trkpt>
      <trkpt lat="46.47819" lon="4.78378">
        <ele>282.8</ele>
        <time>2022-06-25T09:57:52Z</time>
      </trkpt>
      <trkpt lat="46.47816" lon="4.78376">
        <ele>282.8</ele>
        <time>2022-06-25T09:57:53Z</time>
      </trkpt>
      <trkpt lat="46.47812" lon="4.78374">
        <ele>283</ele>
        <time>2022-06-25T09:57:54Z</time>
      </trkpt>
      <trkpt lat="46.47808" lon="4.78372">
        <ele>283</ele>
        <time>2022-06-25T09:57:55Z</time>
      </trkpt>
      <trkpt lat="46.47804" lon="4.7837">
        <ele>283</ele>
        <time>2022-06-25T09:57:56Z</time>
      </trkpt>
      <trkpt lat="46.478" lon="4.78368">
        <ele>283</ele>
        <time>2022-06-25T09:57:57Z</time>
      </trkpt>
      <trkpt lat="46.47796" lon="4.78366">
        <ele>283</ele>
        <time>2022-06-25T09:57:58Z</time>
      </trkpt>
      <trkpt lat="46.47791" lon="4.78363">
        <ele>283</ele>
        <time>2022-06-25T09:57:59Z</time>
      </trkpt>
      <trkpt lat="46.47787" lon="4.78361">
        <ele>283</ele>
        <time>2022-06-25T09:58:00Z</time>
      </trkpt>
      <trkpt lat="46.47782" lon="4.78358">
        <ele>283</ele>
        <time>2022-06-25T09:58:01Z</time>
      </trkpt>
      <trkpt lat="46.47777" lon="4.78356">
        <ele>283</ele>
        <time>2022-06-25T09:58:02Z</time>
      </trkpt>
      <trkpt lat="46.47772" lon="4.78353">
        <ele>283</ele>
        <time>2022-06-25T09:58:03Z</time>
      </trkpt>
      <trkpt lat="46.47767" lon="4.7835">
        <ele>283</ele>
        <time>2022-06-25T09:58:04Z</time>
      </trkpt>
      <trkpt lat="46.47762" lon="4.78347">
        <ele>283</ele>
        <time>2022-06-25T09:58:05Z</time>
      </trkpt>
      <trkpt lat="46.47757" lon="4.78344">
        <ele>283</ele>
        <time>2022-06-25T09:58:06Z</time>
      </trkpt>
      <trkpt lat="46.47752" lon="4.78341">
        <ele>283</ele>
        <time>2022-06-25T09:58:07Z</time>
      </trkpt>
      <trkpt lat="46.47747" lon="4.78337">
        <ele>283</ele>
        <time>2022-06-25T09:58:08Z</time>
      </trkpt>
      <trkpt lat="46.47741" lon="4.78334">
        <ele>283</ele>
        <time>2022-06-25T09:58:09Z</time>
      </trkpt>
      <trkpt lat="46.47736" lon="4.7833">
        <ele>283</ele>
        <time>2022-06-25T09:58:10Z</time>
      </trkpt>
      <trkpt lat="46.47731" lon="4.78327">
        <ele>283</ele>
        <time>2022-06-25T09:58:11Z</time>
      </trkpt>
      <trkpt lat="46.47725" lon="4.78323">
        <ele>283</ele>
        <time>2022-06-25T09:58:12Z</time>
      </trkpt>
      <trkpt lat="46.47719" lon="4.78319">
        <ele>283</ele>
        <time>2022-06-25T09:58:13Z</time>
      </trkpt>
      <trkpt lat="46.47714" lon="4.78316">
        <ele>283</ele>
        <time>2022-06-25T09:58:14Z</time>
      </trkpt>
      <trkpt lat="46.47708" lon="4.78312">
        <ele>283</ele>
        <time>2022-06-25T09:58:15Z</time>
      </trkpt>
      <trkpt lat="46.47702" lon="4.78308">
        <ele>283</ele>
        <time>2022-06-25T09:58:16Z</time>
      </trkpt>
      <trkpt lat="46.47696" lon="4.78304">
        <ele>283</ele>
        <time>2022-06-25T09:58:17Z</time>
      </trkpt>
      <trkpt lat="46.47691" lon="4.78301">
        <ele>283</ele>
        <time>2022-06-25T09:58:18Z</time>
      </trkpt>
      <trkpt lat="46.47685" lon="4.78297">
        <ele>283</ele>
        <time>2022-06-25T09:58:19Z</time>
      </trkpt>
      <trkpt lat="46.47679" lon="4.78294">
        <ele>283.2</ele>
        <time>2022-06-25T09:58:20Z</time>
      </trkpt>
      <trkpt lat="46.47673" lon="4.78291">
        <ele>283.2</ele>
        <time>2022-06-25T09:58:21Z</time>
      </trkpt>
      <trkpt lat="46.47667" lon="4.78288">
        <ele>283.2</ele>
        <time>2022-06-25T09:58:22Z</time>
      </trkpt>
      <trkpt lat="46.47662" lon="4.78285">
        <ele>283.2</ele>
        <time>2022-06-25T09:58:23Z</time>
      </trkpt>
      <trkpt lat="46.47656" lon="4.78283">
        <ele>283.2</ele>
        <time>2022-06-25T09:58:24Z</time>
      </trkpt>
      <trkpt lat="46.4765" lon="4.78281">
        <ele>283.2</ele>
        <time>2022-06-25T09:58:25Z</time>
      </trkpt>
      <trkpt lat="46.47644" lon="4.78279">
        <ele>283.2</ele>
        <time>2022-06-25T09:58:26Z</time>
      </trkpt>
      <trkpt lat="46.47638" lon="4.78278">
        <ele>283.6</ele>
        <time>2022-06-25T09:58:27Z</time>
      </trkpt>
      <trkpt lat="46.47633" lon="4.78277">
        <ele>283.6</ele>
        <time>2022-06-25T09:58:28Z</time>
      </trkpt>
      <trkpt lat="46.47627" lon="4.78277">
        <ele>283.6</ele>
        <time>2022-06-25T09:58:29Z</time>
      </trkpt>
      <trkpt lat="46.47621" lon="4.78276">
        <ele>283.8</ele>
        <time>2022-06-25T09:58:30Z</time>
      </trkpt>
      <trkpt lat="46.47616" lon="4.78275">
        <ele>283.8</ele>
        <time>2022-06-25T09:58:31Z</time>
      </trkpt>
      <trkpt lat="46.4761" lon="4.78273">
        <ele>283.8</ele>
        <time>2022-06-25T09:58:32Z</time>
      </trkpt>
      <trkpt lat="46.47604" lon="4.78272">
        <ele>283.8</ele>
        <time>2022-06-25T09:58:33Z</time>
      </trkpt>
      <trkpt lat="46.47598" lon="4.7827">
        <ele>283.8</ele>
        <time>2022-06-25T09:58:34Z</time>
      </trkpt>
      <trkpt lat="46.47592" lon="4.78268">
        <ele>283.8</ele>
        <time>2022-06-25T09:58:35Z</time>
      </trkpt>
      <trkpt lat="46.47586" lon="4.78266">
        <ele>283.8</ele>
        <time>2022-06-25T09:58:36Z</time>
      </trkpt>
      <trkpt lat="46.4758" lon="4.78263">
        <ele>283.8</ele>
        <time>2022-06-25T09:58:37Z</time>
      </trkpt>
      <trkpt lat="46.47574" lon="4.78261">
        <ele>283.8</ele>
        <time>2022-06-25T09:58:38Z</time>
      </trkpt>
      <trkpt lat="46.47568" lon="4.78258">
        <ele>283.8</ele>
        <time>2022-06-25T09:58:39Z</time>
      </trkpt>
      <trkpt lat="46.47562" lon="4.78255">
        <ele>283.8</ele>
        <time>2022-06-25T09:58:40Z</time>
      </trkpt>
      <trkpt lat="46.47555" lon="4.78251">
        <ele>283.8</ele>
        <time>2022-06-25T09:58:41Z</time>
      </trkpt>
      <trkpt lat="46.47549" lon="4.78248">
        <ele>283.6</ele>
        <time>2022-06-25T09:58:42Z</time>
      </trkpt>
      <trkpt lat="46.47543" lon="4.78245">
        <ele>283.6</ele>
        <time>2022-06-25T09:58:43Z</time>
      </trkpt>
      <trkpt lat="46.47536" lon="4.78242">
        <ele>283.6</ele>
        <time>2022-06-25T09:58:44Z</time>
      </trkpt>
      <trkpt lat="46.4753" lon="4.78238">
        <ele>283.6</ele>
        <time>2022-06-25T09:58:45Z</time>
      </trkpt>
      <trkpt lat="46.47524" lon="4.78234">
        <ele>283.6</ele>
        <time>2022-06-25T09:58:46Z</time>
      </trkpt>
      <trkpt lat="46.47518" lon="4.78229">
        <ele>283.4</ele>
        <time>2022-06-25T09:58:47Z</time>
      </trkpt>
      <trkpt lat="46.47512" lon="4.78224">
        <ele>283.4</ele>
        <time>2022-06-25T09:58:48Z</time>
      </trkpt>
      <trkpt lat="46.47507" lon="4.78218">
        <ele>283.4</ele>
        <time>2022-06-25T09:58:49Z</time>
      </trkpt>
      <trkpt lat="46.47502" lon="4.78212">
        <ele>283.4</ele>
        <time>2022-06-25T09:58:50Z</time>
      </trkpt>
      <trkpt lat="46.47497" lon="4.78206">
        <ele>283.4</ele>
        <time>2022-06-25T09:58:51Z</time>
      </trkpt>
      <trkpt lat="46.47493" lon="4.78199">
        <ele>283.4</ele>
        <time>2022-06-25T09:58:52Z</time>
      </trkpt>
      <trkpt lat="46.47489" lon="4.78193">
        <ele>283.4</ele>
        <time>2022-06-25T09:58:53Z</time>
      </trkpt>
      <trkpt lat="46.47484" lon="4.78187">
        <ele>283.4</ele>
        <time>2022-06-25T09:58:54Z</time>
      </trkpt>
      <trkpt lat="46.4748" lon="4.78181">
        <ele>283.4</ele>
        <time>2022-06-25T09:58:55Z</time>
      </trkpt>
      <trkpt lat="46.47475" lon="4.78175">
        <ele>283.6</ele>
        <time>2022-06-25T09:58:56Z</time>
      </trkpt>
      <trkpt lat="46.4747" lon="4.78169">
        <ele>283.6</ele>
        <time>2022-06-25T09:58:57Z</time>
      </trkpt>
      <trkpt lat="46.47465" lon="4.78164">
        <ele>283.6</ele>
        <time>2022-06-25T09:58:58Z</time>
      </trkpt>
      <trkpt lat="46.47459" lon="4.7816">
        <ele>283.6</ele>
        <time>2022-06-25T09:58:59Z</time>
      </trkpt>
      <trkpt lat="46.47453" lon="4.78157">
        <ele>283.6</ele>
        <time>2022-06-25T09:59:00Z</time>
      </trkpt>
      <trkpt lat="46.47447" lon="4.78154">
        <ele>283.2</ele>
        <time>2022-06-25T09:59:01Z</time>
      </trkpt>
      <trkpt lat="46.4744" lon="4.78151">
        <ele>283</ele>
        <time>2022-06-25T09:59:02Z</time>
      </trkpt>
      <trkpt lat="46.47433" lon="4.78149">
        <ele>282.6</ele>
        <time>2022-06-25T09:59:03Z</time>
      </trkpt>
      <trkpt lat="46.47426" lon="4.78148">
        <ele>282.4</ele>
        <time>2022-06-25T09:59:04Z</time>
      </trkpt>
      <trkpt lat="46.47418" lon="4.78147">
        <ele>282</ele>
        <time>2022-06-25T09:59:05Z</time>
      </trkpt>
      <trkpt lat="46.4741" lon="4.78147">
        <ele>281.8</ele>
        <time>2022-06-25T09:59:06Z</time>
      </trkpt>
      <trkpt lat="46.47402" lon="4.78147">
        <ele>281.8</ele>
        <time>2022-06-25T09:59:07Z</time>
      </trkpt>
      <trkpt lat="46.47395" lon="4.78148">
        <ele>281.4</ele>
        <time>2022-06-25T09:59:08Z</time>
      </trkpt>
      <trkpt lat="46.47388" lon="4.7815">
        <ele>281.2</ele>
        <time>2022-06-25T09:59:09Z</time>
      </trkpt>
      <trkpt lat="46.4738" lon="4.78151">
        <ele>280.8</ele>
        <time>2022-06-25T09:59:10Z</time>
      </trkpt>
      <trkpt lat="46.47373" lon="4.78153">
        <ele>280.8</ele>
        <time>2022-06-25T09:59:11Z</time>
      </trkpt>
      <trkpt lat="46.47367" lon="4.78153">
        <ele>280.8</ele>
        <time>2022-06-25T09:59:12Z</time>
      </trkpt>
      <trkpt lat="46.4736" lon="4.78153">
        <ele>280.8</ele>
        <time>2022-06-25T09:59:13Z</time>
      </trkpt>
      <trkpt lat="46.47353" lon="4.78152">
        <ele>280.8</ele>
        <time>2022-06-25T09:59:14Z</time>
      </trkpt>
      <trkpt lat="46.47347" lon="4.78151">
        <ele>280.8</ele>
        <time>2022-06-25T09:59:15Z</time>
      </trkpt>
      <trkpt lat="46.47341" lon="4.7815">
        <ele>280.8</ele>
        <time>2022-06-25T09:59:16Z</time>
      </trkpt>
      <trkpt lat="46.47335" lon="4.78149">
        <ele>281.2</ele>
        <time>2022-06-25T09:59:17Z</time>
      </trkpt>
      <trkpt lat="46.4733" lon="4.78148">
        <ele>281.2</ele>
        <time>2022-06-25T09:59:18Z</time>
      </trkpt>
      <trkpt lat="46.47325" lon="4.78147">
        <ele>281.4</ele>
        <time>2022-06-25T09:59:19Z</time>
      </trkpt>
      <trkpt lat="46.4732" lon="4.78146">
        <ele>281.4</ele>
        <time>2022-06-25T09:59:20Z</time>
      </trkpt>
      <trkpt lat="46.47315" lon="4.78146">
        <ele>281.8</ele>
        <time>2022-06-25T09:59:21Z</time>
      </trkpt>
      <trkpt lat="46.4731" lon="4.78145">
        <ele>281.8</ele>
        <time>2022-06-25T09:59:22Z</time>
      </trkpt>
      <trkpt lat="46.47306" lon="4.78144">
        <ele>282</ele>
        <time>2022-06-25T09:59:23Z</time>
      </trkpt>
      <trkpt lat="46.47302" lon="4.78143">
        <ele>282</ele>
        <time>2022-06-25T09:59:24Z</time>
      </trkpt>
      <trkpt lat="46.473" lon="4.78143">
        <ele>282.2</ele>
        <time>2022-06-25T09:59:25Z</time>
      </trkpt>
      <trkpt lat="46.47298" lon="4.78142">
        <ele>282.2</ele>
        <time>2022-06-25T09:59:26Z</time>
      </trkpt>
      <trkpt lat="46.47294" lon="4.78142">
        <ele>282.6</ele>
        <time>2022-06-25T09:59:27Z</time>
      </trkpt>
      <trkpt lat="46.4729" lon="4.78141">
        <ele>282.6</ele>
        <time>2022-06-25T09:59:28Z</time>
      </trkpt>
      <trkpt lat="46.47286" lon="4.7814">
        <ele>282.8</ele>
        <time>2022-06-25T09:59:29Z</time>
      </trkpt>
      <trkpt lat="46.47282" lon="4.7814">
        <ele>282.8</ele>
        <time>2022-06-25T09:59:30Z</time>
      </trkpt>
      <trkpt lat="46.47278" lon="4.78139">
        <ele>283.2</ele>
        <time>2022-06-25T09:59:31Z</time>
      </trkpt>
      <trkpt lat="46.47275" lon="4.78138">
        <ele>283.2</ele>
        <time>2022-06-25T09:59:32Z</time>
      </trkpt>
      <trkpt lat="46.47271" lon="4.78137">
        <ele>283.6</ele>
        <time>2022-06-25T09:59:33Z</time>
      </trkpt>
      <trkpt lat="46.47267" lon="4.78136">
        <ele>283.6</ele>
        <time>2022-06-25T09:59:34Z</time>
      </trkpt>
      <trkpt lat="46.47263" lon="4.78134">
        <ele>284</ele>
        <time>2022-06-25T09:59:35Z</time>
      </trkpt>
      <trkpt lat="46.47259" lon="4.78133">
        <ele>284.2</ele>
        <time>2022-06-25T09:59:36Z</time>
      </trkpt>
      <trkpt lat="46.47252" lon="4.78129">
        <ele>284.2</ele>
        <time>2022-06-25T09:59:37Z</time>
      </trkpt>
      <trkpt lat="46.47249" lon="4.78127">
        <ele>284.4</ele>
        <time>2022-06-25T09:59:38Z</time>
      </trkpt>
      <trkpt lat="46.47245" lon="4.78125">
        <ele>284.4</ele>
        <time>2022-06-25T09:59:39Z</time>
      </trkpt>
      <trkpt lat="46.47241" lon="4.78123">
        <ele>284.6</ele>
        <time>2022-06-25T09:59:40Z</time>
      </trkpt>
      <trkpt lat="46.47238" lon="4.78121">
        <ele>284.6</ele>
        <time>2022-06-25T09:59:41Z</time>
      </trkpt>
      <trkpt lat="46.47234" lon="4.78118">
        <ele>284.8</ele>
        <time>2022-06-25T09:59:42Z</time>
      </trkpt>
      <trkpt lat="46.47231" lon="4.78116">
        <ele>284.8</ele>
        <time>2022-06-25T09:59:43Z</time>
      </trkpt>
      <trkpt lat="46.47227" lon="4.78113">
        <ele>285.2</ele>
        <time>2022-06-25T09:59:44Z</time>
      </trkpt>
      <trkpt lat="46.47224" lon="4.78111">
        <ele>285.4</ele>
        <time>2022-06-25T09:59:45Z</time>
      </trkpt>
      <trkpt lat="46.4722" lon="4.78108">
        <ele>285.4</ele>
        <time>2022-06-25T09:59:46Z</time>
      </trkpt>
      <trkpt lat="46.47217" lon="4.78105">
        <ele>285.6</ele>
        <time>2022-06-25T09:59:47Z</time>
      </trkpt>
      <trkpt lat="46.47214" lon="4.78102">
        <ele>285.6</ele>
        <time>2022-06-25T09:59:48Z</time>
      </trkpt>
      <trkpt lat="46.47211" lon="4.78099">
        <ele>286</ele>
        <time>2022-06-25T09:59:49Z</time>
      </trkpt>
      <trkpt lat="46.47207" lon="4.78095">
        <ele>286</ele>
        <time>2022-06-25T09:59:50Z</time>
      </trkpt>
      <trkpt lat="46.47204" lon="4.78092">
        <ele>286.4</ele>
        <time>2022-06-25T09:59:51Z</time>
      </trkpt>
      <trkpt lat="46.47201" lon="4.78089">
        <ele>286.4</ele>
        <time>2022-06-25T09:59:52Z</time>
      </trkpt>
      <trkpt lat="46.47198" lon="4.78085">
        <ele>286.6</ele>
        <time>2022-06-25T09:59:53Z</time>
      </trkpt>
      <trkpt lat="46.47194" lon="4.78082">
        <ele>286.6</ele>
        <time>2022-06-25T09:59:54Z</time>
      </trkpt>
      <trkpt lat="46.47191" lon="4.78078">
        <ele>286.6</ele>
        <time>2022-06-25T09:59:55Z</time>
      </trkpt>
      <trkpt lat="46.47188" lon="4.78074">
        <ele>287</ele>
        <time>2022-06-25T09:59:56Z</time>
      </trkpt>
      <trkpt lat="46.47184" lon="4.7807">
        <ele>287</ele>
        <time>2022-06-25T09:59:57Z</time>
      </trkpt>
      <trkpt lat="46.47181" lon="4.78065">
        <ele>287</ele>
        <time>2022-06-25T09:59:58Z</time>
      </trkpt>
      <trkpt lat="46.47177" lon="4.78061">
        <ele>287</ele>
        <time>2022-06-25T09:59:59Z</time>
      </trkpt>
      <trkpt lat="46.47174" lon="4.78056">
        <ele>287.2</ele>
        <time>2022-06-25T10:00:00Z</time>
      </trkpt>
      <trkpt lat="46.4717" lon="4.78052">
        <ele>287.2</ele>
        <time>2022-06-25T10:00:01Z</time>
      </trkpt>
      <trkpt lat="46.47166" lon="4.78048">
        <ele>287.2</ele>
        <time>2022-06-25T10:00:02Z</time>
      </trkpt>
      <trkpt lat="46.47162" lon="4.78043">
        <ele>287.2</ele>
        <time>2022-06-25T10:00:03Z</time>
      </trkpt>
      <trkpt lat="46.47158" lon="4.78039">
        <ele>287.2</ele>
        <time>2022-06-25T10:00:04Z</time>
      </trkpt>
      <trkpt lat="46.47154" lon="4.78035">
        <ele>287.2</ele>
        <time>2022-06-25T10:00:05Z</time>
      </trkpt>
      <trkpt lat="46.47149" lon="4.78031">
        <ele>287.2</ele>
        <time>2022-06-25T10:00:06Z</time>
      </trkpt>
      <trkpt lat="46.47144" lon="4.78028">
        <ele>287.2</ele>
        <time>2022-06-25T10:00:07Z</time>
      </trkpt>
      <trkpt lat="46.47139" lon="4.78026">
        <ele>287</ele>
        <time>2022-06-25T10:00:08Z</time>
      </trkpt>
      <trkpt lat="46.47134" lon="4.78024">
        <ele>287</ele>
        <time>2022-06-25T10:00:09Z</time>
      </trkpt>
      <trkpt lat="46.47129" lon="4.78022">
        <ele>287</ele>
        <time>2022-06-25T10:00:10Z</time>
      </trkpt>
      <trkpt lat="46.47124" lon="4.7802">
        <ele>287</ele>
        <time>2022-06-25T10:00:11Z</time>
      </trkpt>
      <trkpt lat="46.47119" lon="4.78019">
        <ele>287</ele>
        <time>2022-06-25T10:00:12Z</time>
      </trkpt>
      <trkpt lat="46.47114" lon="4.78018">
        <ele>287</ele>
        <time>2022-06-25T10:00:13Z</time>
      </trkpt>
      <trkpt lat="46.4711" lon="4.78018">
        <ele>287.4</ele>
        <time>2022-06-25T10:00:14Z</time>
      </trkpt>
      <trkpt lat="46.47106" lon="4.78017">
        <ele>287.4</ele>
        <time>2022-06-25T10:00:15Z</time>
      </trkpt>
      <trkpt lat="46.47101" lon="4.78017">
        <ele>287.4</ele>
        <time>2022-06-25T10:00:16Z</time>
      </trkpt>
      <trkpt lat="46.47097" lon="4.78016">
        <ele>287.6</ele>
        <time>2022-06-25T10:00:17Z</time>
      </trkpt>
      <trkpt lat="46.47094" lon="4.78015">
        <ele>287.6</ele>
        <time>2022-06-25T10:00:18Z</time>
      </trkpt>
      <trkpt lat="46.4709" lon="4.78013">
        <ele>287.8</ele>
        <time>2022-06-25T10:00:19Z</time>
      </trkpt>
      <trkpt lat="46.47086" lon="4.78012">
        <ele>287.8</ele>
        <time>2022-06-25T10:00:20Z</time>
      </trkpt>
      <trkpt lat="46.47082" lon="4.7801">
        <ele>288.2</ele>
        <time>2022-06-25T10:00:21Z</time>
      </trkpt>
      <trkpt lat="46.47079" lon="4.78009">
        <ele>288.2</ele>
        <time>2022-06-25T10:00:22Z</time>
      </trkpt>
      <trkpt lat="46.47075" lon="4.78007">
        <ele>288.6</ele>
        <time>2022-06-25T10:00:23Z</time>
      </trkpt>
      <trkpt lat="46.47072" lon="4.78005">
        <ele>288.6</ele>
        <time>2022-06-25T10:00:24Z</time>
      </trkpt>
      <trkpt lat="46.47069" lon="4.78002">
        <ele>289</ele>
        <time>2022-06-25T10:00:25Z</time>
      </trkpt>
      <trkpt lat="46.47065" lon="4.78">
        <ele>289</ele>
        <time>2022-06-25T10:00:26Z</time>
      </trkpt>
      <trkpt lat="46.47062" lon="4.77997">
        <ele>289.2</ele>
        <time>2022-06-25T10:00:27Z</time>
      </trkpt>
      <trkpt lat="46.47059" lon="4.77994">
        <ele>289.2</ele>
        <time>2022-06-25T10:00:28Z</time>
      </trkpt>
      <trkpt lat="46.47056" lon="4.77991">
        <ele>289.6</ele>
        <time>2022-06-25T10:00:29Z</time>
      </trkpt>
      <trkpt lat="46.47053" lon="4.77988">
        <ele>289.6</ele>
        <time>2022-06-25T10:00:30Z</time>
      </trkpt>
      <trkpt lat="46.4705" lon="4.77984">
        <ele>289.8</ele>
        <time>2022-06-25T10:00:31Z</time>
      </trkpt>
      <trkpt lat="46.47047" lon="4.77981">
        <ele>289.8</ele>
        <time>2022-06-25T10:00:32Z</time>
      </trkpt>
      <trkpt lat="46.47044" lon="4.77977">
        <ele>290</ele>
        <time>2022-06-25T10:00:33Z</time>
      </trkpt>
      <trkpt lat="46.4704" lon="4.77974">
        <ele>290</ele>
        <time>2022-06-25T10:00:34Z</time>
      </trkpt>
      <trkpt lat="46.47037" lon="4.7797">
        <ele>290.4</ele>
        <time>2022-06-25T10:00:35Z</time>
      </trkpt>
      <trkpt lat="46.47034" lon="4.77966">
        <ele>290.4</ele>
        <time>2022-06-25T10:00:36Z</time>
      </trkpt>
      <trkpt lat="46.47032" lon="4.77962">
        <ele>290.6</ele>
        <time>2022-06-25T10:00:37Z</time>
      </trkpt>
      <trkpt lat="46.47029" lon="4.77957">
        <ele>290.6</ele>
        <time>2022-06-25T10:00:38Z</time>
      </trkpt>
      <trkpt lat="46.47027" lon="4.77953">
        <ele>290.8</ele>
        <time>2022-06-25T10:00:39Z</time>
      </trkpt>
      <trkpt lat="46.47025" lon="4.77948">
        <ele>291.2</ele>
        <time>2022-06-25T10:00:40Z</time>
      </trkpt>
      <trkpt lat="46.47023" lon="4.77944">
        <ele>291.2</ele>
        <time>2022-06-25T10:00:41Z</time>
      </trkpt>
      <trkpt lat="46.4702" lon="4.77939">
        <ele>291.4</ele>
        <time>2022-06-25T10:00:42Z</time>
      </trkpt>
      <trkpt lat="46.47018" lon="4.77935">
        <ele>291.4</ele>
        <time>2022-06-25T10:00:43Z</time>
      </trkpt>
      <trkpt lat="46.47016" lon="4.77931">
        <ele>291.8</ele>
        <time>2022-06-25T10:00:44Z</time>
      </trkpt>
      <trkpt lat="46.47013" lon="4.77926">
        <ele>291.8</ele>
        <time>2022-06-25T10:00:45Z</time>
      </trkpt>
      <trkpt lat="46.47011" lon="4.77922">
        <ele>292</ele>
        <time>2022-06-25T10:00:46Z</time>
      </trkpt>
      <trkpt lat="46.47009" lon="4.77918">
        <ele>292</ele>
        <time>2022-06-25T10:00:47Z</time>
      </trkpt>
      <trkpt lat="46.47006" lon="4.77914">
        <ele>292.4</ele>
        <time>2022-06-25T10:00:48Z</time>
      </trkpt>
      <trkpt lat="46.47004" lon="4.7791">
        <ele>292.6</ele>
        <time>2022-06-25T10:00:49Z</time>
      </trkpt>
      <trkpt lat="46.47001" lon="4.77906">
        <ele>292.6</ele>
        <time>2022-06-25T10:00:50Z</time>
      </trkpt>
      <trkpt lat="46.46999" lon="4.77902">
        <ele>293</ele>
        <time>2022-06-25T10:00:51Z</time>
      </trkpt>
      <trkpt lat="46.46996" lon="4.77898">
        <ele>293</ele>
        <time>2022-06-25T10:00:52Z</time>
      </trkpt>
      <trkpt lat="46.46993" lon="4.77895">
        <ele>293.2</ele>
        <time>2022-06-25T10:00:53Z</time>
      </trkpt>
      <trkpt lat="46.4699" lon="4.77892">
        <ele>293.2</ele>
        <time>2022-06-25T10:00:54Z</time>
      </trkpt>
      <trkpt lat="46.46987" lon="4.77889">
        <ele>293.6</ele>
        <time>2022-06-25T10:00:55Z</time>
      </trkpt>
      <trkpt lat="46.46984" lon="4.77886">
        <ele>293.6</ele>
        <time>2022-06-25T10:00:56Z</time>
      </trkpt>
      <trkpt lat="46.4698" lon="4.77884">
        <ele>293.8</ele>
        <time>2022-06-25T10:00:57Z</time>
      </trkpt>
      <trkpt lat="46.46976" lon="4.77882">
        <ele>294</ele>
        <time>2022-06-25T10:00:58Z</time>
      </trkpt>
      <trkpt lat="46.46973" lon="4.77879">
        <ele>294</ele>
        <time>2022-06-25T10:00:59Z</time>
      </trkpt>
      <trkpt lat="46.4697" lon="4.77877">
        <ele>294.4</ele>
        <time>2022-06-25T10:01:00Z</time>
      </trkpt>
      <trkpt lat="46.46966" lon="4.77874">
        <ele>294.4</ele>
        <time>2022-06-25T10:01:01Z</time>
      </trkpt>
      <trkpt lat="46.46963" lon="4.77871">
        <ele>294.8</ele>
        <time>2022-06-25T10:01:02Z</time>
      </trkpt>
      <trkpt lat="46.4696" lon="4.77869">
        <ele>294.8</ele>
        <time>2022-06-25T10:01:03Z</time>
      </trkpt>
      <trkpt lat="46.46957" lon="4.77867">
        <ele>294.8</ele>
        <time>2022-06-25T10:01:04Z</time>
      </trkpt>
      <trkpt lat="46.46953" lon="4.77864">
        <ele>295.2</ele>
        <time>2022-06-25T10:01:05Z</time>
      </trkpt>
      <trkpt lat="46.4695" lon="4.77862">
        <ele>295.2</ele>
        <time>2022-06-25T10:01:06Z</time>
      </trkpt>
      <trkpt lat="46.46947" lon="4.7786">
        <ele>295.4</ele>
        <time>2022-06-25T10:01:07Z</time>
      </trkpt>
      <trkpt lat="46.46944" lon="4.77857">
        <ele>295.4</ele>
        <time>2022-06-25T10:01:08Z</time>
      </trkpt>
      <trkpt lat="46.46941" lon="4.77855">
        <ele>295.8</ele>
        <time>2022-06-25T10:01:09Z</time>
      </trkpt>
      <trkpt lat="46.46937" lon="4.77853">
        <ele>295.8</ele>
        <time>2022-06-25T10:01:10Z</time>
      </trkpt>
      <trkpt lat="46.46934" lon="4.7785">
        <ele>296.2</ele>
        <time>2022-06-25T10:01:11Z</time>
      </trkpt>
      <trkpt lat="46.46931" lon="4.77848">
        <ele>296.2</ele>
        <time>2022-06-25T10:01:12Z</time>
      </trkpt>
      <trkpt lat="46.46928" lon="4.77846">
        <ele>296.6</ele>
        <time>2022-06-25T10:01:13Z</time>
      </trkpt>
      <trkpt lat="46.46924" lon="4.77843">
        <ele>296.6</ele>
        <time>2022-06-25T10:01:14Z</time>
      </trkpt>
      <trkpt lat="46.46921" lon="4.7784">
        <ele>297</ele>
        <time>2022-06-25T10:01:15Z</time>
      </trkpt>
      <trkpt lat="46.46918" lon="4.77838">
        <ele>297</ele>
        <time>2022-06-25T10:01:16Z</time>
      </trkpt>
      <trkpt lat="46.46915" lon="4.77835">
        <ele>297.2</ele>
        <time>2022-06-25T10:01:17Z</time>
      </trkpt>
      <trkpt lat="46.46911" lon="4.77832">
        <ele>297.2</ele>
        <time>2022-06-25T10:01:18Z</time>
      </trkpt>
      <trkpt lat="46.46908" lon="4.7783">
        <ele>297.6</ele>
        <time>2022-06-25T10:01:19Z</time>
      </trkpt>
      <trkpt lat="46.46905" lon="4.77827">
        <ele>297.6</ele>
        <time>2022-06-25T10:01:20Z</time>
      </trkpt>
      <trkpt lat="46.46902" lon="4.77824">
        <ele>297.6</ele>
        <time>2022-06-25T10:01:21Z</time>
      </trkpt>
      <trkpt lat="46.46899" lon="4.77822">
        <ele>298</ele>
        <time>2022-06-25T10:01:22Z</time>
      </trkpt>
      <trkpt lat="46.46896" lon="4.77819">
        <ele>298</ele>
        <time>2022-06-25T10:01:23Z</time>
      </trkpt>
      <trkpt lat="46.46893" lon="4.77816">
        <ele>298.2</ele>
        <time>2022-06-25T10:01:24Z</time>
      </trkpt>
      <trkpt lat="46.46889" lon="4.77813">
        <ele>298.2</ele>
        <time>2022-06-25T10:01:25Z</time>
      </trkpt>
      <trkpt lat="46.46886" lon="4.7781">
        <ele>298.6</ele>
        <time>2022-06-25T10:01:26Z</time>
      </trkpt>
      <trkpt lat="46.46883" lon="4.77808">
        <ele>298.6</ele>
        <time>2022-06-25T10:01:27Z</time>
      </trkpt>
      <trkpt lat="46.4688" lon="4.77804">
        <ele>299</ele>
        <time>2022-06-25T10:01:28Z</time>
      </trkpt>
      <trkpt lat="46.46878" lon="4.77801">
        <ele>299</ele>
        <time>2022-06-25T10:01:29Z</time>
      </trkpt>
      <trkpt lat="46.46875" lon="4.77797">
        <ele>299.2</ele>
        <time>2022-06-25T10:01:30Z</time>
      </trkpt>
      <trkpt lat="46.46873" lon="4.77793">
        <ele>299.2</ele>
        <time>2022-06-25T10:01:31Z</time>
      </trkpt>
      <trkpt lat="46.4687" lon="4.7779">
        <ele>299.4</ele>
        <time>2022-06-25T10:01:32Z</time>
      </trkpt>
      <trkpt lat="46.46867" lon="4.77785">
        <ele>299.4</ele>
        <time>2022-06-25T10:01:33Z</time>
      </trkpt>
      <trkpt lat="46.46865" lon="4.77781">
        <ele>299.8</ele>
        <time>2022-06-25T10:01:34Z</time>
      </trkpt>
      <trkpt lat="46.46862" lon="4.77777">
        <ele>299.8</ele>
        <time>2022-06-25T10:01:35Z</time>
      </trkpt>
      <trkpt lat="46.4686" lon="4.77773">
        <ele>300</ele>
        <time>2022-06-25T10:01:36Z</time>
      </trkpt>
      <trkpt lat="46.46858" lon="4.77768">
        <ele>300</ele>
        <time>2022-06-25T10:01:37Z</time>
      </trkpt>
      <trkpt lat="46.46855" lon="4.77764">
        <ele>300.4</ele>
        <time>2022-06-25T10:01:38Z</time>
      </trkpt>
      <trkpt lat="46.46852" lon="4.7776">
        <ele>300.4</ele>
        <time>2022-06-25T10:01:39Z</time>
      </trkpt>
      <trkpt lat="46.4685" lon="4.77756">
        <ele>300.6</ele>
        <time>2022-06-25T10:01:40Z</time>
      </trkpt>
      <trkpt lat="46.46848" lon="4.77751">
        <ele>300.6</ele>
        <time>2022-06-25T10:01:41Z</time>
      </trkpt>
      <trkpt lat="46.46845" lon="4.77747">
        <ele>301</ele>
        <time>2022-06-25T10:01:42Z</time>
      </trkpt>
      <trkpt lat="46.46843" lon="4.77743">
        <ele>301.2</ele>
        <time>2022-06-25T10:01:43Z</time>
      </trkpt>
      <trkpt lat="46.46841" lon="4.77739">
        <ele>301.2</ele>
        <time>2022-06-25T10:01:44Z</time>
      </trkpt>
      <trkpt lat="46.46838" lon="4.77734">
        <ele>301.4</ele>
        <time>2022-06-25T10:01:45Z</time>
      </trkpt>
      <trkpt lat="46.46836" lon="4.7773">
        <ele>301.4</ele>
        <time>2022-06-25T10:01:46Z</time>
      </trkpt>
      <trkpt lat="46.46833" lon="4.77727">
        <ele>301.8</ele>
        <time>2022-06-25T10:01:47Z</time>
      </trkpt>
      <trkpt lat="46.46831" lon="4.77723">
        <ele>301.8</ele>
        <time>2022-06-25T10:01:48Z</time>
      </trkpt>
      <trkpt lat="46.46829" lon="4.77719">
        <ele>302.2</ele>
        <time>2022-06-25T10:01:49Z</time>
      </trkpt>
      <trkpt lat="46.46826" lon="4.77715">
        <ele>302.4</ele>
        <time>2022-06-25T10:01:50Z</time>
      </trkpt>
      <trkpt lat="46.46824" lon="4.7771">
        <ele>302.4</ele>
        <time>2022-06-25T10:01:51Z</time>
      </trkpt>
      <trkpt lat="46.46821" lon="4.77706">
        <ele>302.8</ele>
        <time>2022-06-25T10:01:52Z</time>
      </trkpt>
      <trkpt lat="46.46819" lon="4.77702">
        <ele>302.8</ele>
        <time>2022-06-25T10:01:53Z</time>
      </trkpt>
      <trkpt lat="46.46817" lon="4.77698">
        <ele>303.2</ele>
        <time>2022-06-25T10:01:54Z</time>
      </trkpt>
      <trkpt lat="46.46814" lon="4.77694">
        <ele>303.4</ele>
        <time>2022-06-25T10:01:55Z</time>
      </trkpt>
      <trkpt lat="46.46812" lon="4.7769">
        <ele>303.6</ele>
        <time>2022-06-25T10:01:56Z</time>
      </trkpt>
      <trkpt lat="46.46809" lon="4.77687">
        <ele>303.8</ele>
        <time>2022-06-25T10:01:57Z</time>
      </trkpt>
      <trkpt lat="46.46806" lon="4.77683">
        <ele>303.8</ele>
        <time>2022-06-25T10:01:58Z</time>
      </trkpt>
      <trkpt lat="46.46804" lon="4.7768">
        <ele>304</ele>
        <time>2022-06-25T10:01:59Z</time>
      </trkpt>
      <trkpt lat="46.46801" lon="4.77676">
        <ele>304</ele>
        <time>2022-06-25T10:02:00Z</time>
      </trkpt>
      <trkpt lat="46.46798" lon="4.77673">
        <ele>304.4</ele>
        <time>2022-06-25T10:02:01Z</time>
      </trkpt>
      <trkpt lat="46.46795" lon="4.7767">
        <ele>304.4</ele>
        <time>2022-06-25T10:02:02Z</time>
      </trkpt>
      <trkpt lat="46.46791" lon="4.77667">
        <ele>304.6</ele>
        <time>2022-06-25T10:02:03Z</time>
      </trkpt>
      <trkpt lat="46.46788" lon="4.77665">
        <ele>304.6</ele>
        <time>2022-06-25T10:02:04Z</time>
      </trkpt>
      <trkpt lat="46.46784" lon="4.77662">
        <ele>305</ele>
        <time>2022-06-25T10:02:05Z</time>
      </trkpt>
      <trkpt lat="46.4678" lon="4.7766">
        <ele>305</ele>
        <time>2022-06-25T10:02:06Z</time>
      </trkpt>
      <trkpt lat="46.46777" lon="4.77657">
        <ele>305.4</ele>
        <time>2022-06-25T10:02:07Z</time>
      </trkpt>
      <trkpt lat="46.46774" lon="4.77654">
        <ele>305.4</ele>
        <time>2022-06-25T10:02:08Z</time>
      </trkpt>
      <trkpt lat="46.4677" lon="4.77651">
        <ele>305.6</ele>
        <time>2022-06-25T10:02:09Z</time>
      </trkpt>
      <trkpt lat="46.46767" lon="4.77649">
        <ele>305.6</ele>
        <time>2022-06-25T10:02:10Z</time>
      </trkpt>
      <trkpt lat="46.46763" lon="4.77646">
        <ele>306</ele>
        <time>2022-06-25T10:02:11Z</time>
      </trkpt>
      <trkpt lat="46.4676" lon="4.77643">
        <ele>306</ele>
        <time>2022-06-25T10:02:12Z</time>
      </trkpt>
      <trkpt lat="46.46757" lon="4.77641">
        <ele>306.4</ele>
        <time>2022-06-25T10:02:13Z</time>
      </trkpt>
      <trkpt lat="46.46753" lon="4.77638">
        <ele>306.6</ele>
        <time>2022-06-25T10:02:14Z</time>
      </trkpt>
      <trkpt lat="46.4675" lon="4.77635">
        <ele>306.6</ele>
        <time>2022-06-25T10:02:15Z</time>
      </trkpt>
      <trkpt lat="46.46746" lon="4.77633">
        <ele>306.8</ele>
        <time>2022-06-25T10:02:16Z</time>
      </trkpt>
      <trkpt lat="46.46743" lon="4.7763">
        <ele>306.8</ele>
        <time>2022-06-25T10:02:17Z</time>
      </trkpt>
      <trkpt lat="46.4674" lon="4.77627">
        <ele>307.2</ele>
        <time>2022-06-25T10:02:18Z</time>
      </trkpt>
      <trkpt lat="46.46737" lon="4.77624">
        <ele>307.2</ele>
        <time>2022-06-25T10:02:19Z</time>
      </trkpt>
      <trkpt lat="46.46734" lon="4.77622">
        <ele>307.4</ele>
        <time>2022-06-25T10:02:20Z</time>
      </trkpt>
      <trkpt lat="46.46731" lon="4.77619">
        <ele>307.4</ele>
        <time>2022-06-25T10:02:21Z</time>
      </trkpt>
      <trkpt lat="46.46728" lon="4.77616">
        <ele>307.6</ele>
        <time>2022-06-25T10:02:22Z</time>
      </trkpt>
      <trkpt lat="46.46724" lon="4.77614">
        <ele>307.8</ele>
        <time>2022-06-25T10:02:23Z</time>
      </trkpt>
      <trkpt lat="46.46721" lon="4.77611">
        <ele>307.8</ele>
        <time>2022-06-25T10:02:24Z</time>
      </trkpt>
      <trkpt lat="46.46718" lon="4.77609">
        <ele>308.2</ele>
        <time>2022-06-25T10:02:25Z</time>
      </trkpt>
      <trkpt lat="46.46715" lon="4.77606">
        <ele>308.2</ele>
        <time>2022-06-25T10:02:26Z</time>
      </trkpt>
      <trkpt lat="46.46711" lon="4.77604">
        <ele>308.4</ele>
        <time>2022-06-25T10:02:27Z</time>
      </trkpt>
      <trkpt lat="46.46708" lon="4.77602">
        <ele>308.4</ele>
        <time>2022-06-25T10:02:28Z</time>
      </trkpt>
      <trkpt lat="46.46704" lon="4.776">
        <ele>308.6</ele>
        <time>2022-06-25T10:02:29Z</time>
      </trkpt>
      <trkpt lat="46.46701" lon="4.77597">
        <ele>308.6</ele>
        <time>2022-06-25T10:02:30Z</time>
      </trkpt>
      <trkpt lat="46.46697" lon="4.77595">
        <ele>309</ele>
        <time>2022-06-25T10:02:31Z</time>
      </trkpt>
      <trkpt lat="46.46693" lon="4.77593">
        <ele>309</ele>
        <time>2022-06-25T10:02:32Z</time>
      </trkpt>
      <trkpt lat="46.46689" lon="4.77591">
        <ele>309</ele>
        <time>2022-06-25T10:02:33Z</time>
      </trkpt>
      <trkpt lat="46.46685" lon="4.77589">
        <ele>309</ele>
        <time>2022-06-25T10:02:34Z</time>
      </trkpt>
      <trkpt lat="46.46681" lon="4.77587">
        <ele>309</ele>
        <time>2022-06-25T10:02:35Z</time>
      </trkpt>
      <trkpt lat="46.46677" lon="4.77584">
        <ele>309</ele>
        <time>2022-06-25T10:02:36Z</time>
      </trkpt>
      <trkpt lat="46.46673" lon="4.77582">
        <ele>309</ele>
        <time>2022-06-25T10:02:37Z</time>
      </trkpt>
      <trkpt lat="46.46669" lon="4.7758">
        <ele>309</ele>
        <time>2022-06-25T10:02:38Z</time>
      </trkpt>
      <trkpt lat="46.46664" lon="4.77577">
        <ele>309</ele>
        <time>2022-06-25T10:02:39Z</time>
      </trkpt>
      <trkpt lat="46.4666" lon="4.77574">
        <ele>308.6</ele>
        <time>2022-06-25T10:02:40Z</time>
      </trkpt>
      <trkpt lat="46.46655" lon="4.77572">
        <ele>308.6</ele>
        <time>2022-06-25T10:02:41Z</time>
      </trkpt>
      <trkpt lat="46.4665" lon="4.77569">
        <ele>308.4</ele>
        <time>2022-06-25T10:02:42Z</time>
      </trkpt>
      <trkpt lat="46.46645" lon="4.77566">
        <ele>308.4</ele>
        <time>2022-06-25T10:02:43Z</time>
      </trkpt>
      <trkpt lat="46.4664" lon="4.77563">
        <ele>308.4</ele>
        <time>2022-06-25T10:02:44Z</time>
      </trkpt>
      <trkpt lat="46.46635" lon="4.7756">
        <ele>308.2</ele>
        <time>2022-06-25T10:02:45Z</time>
      </trkpt>
      <trkpt lat="46.46629" lon="4.77558">
        <ele>308.2</ele>
        <time>2022-06-25T10:02:46Z</time>
      </trkpt>
      <trkpt lat="46.46624" lon="4.77555">
        <ele>308.2</ele>
        <time>2022-06-25T10:02:47Z</time>
      </trkpt>
      <trkpt lat="46.46618" lon="4.77552">
        <ele>308.2</ele>
        <time>2022-06-25T10:02:48Z</time>
      </trkpt>
      <trkpt lat="46.46612" lon="4.77549">
        <ele>308</ele>
        <time>2022-06-25T10:02:49Z</time>
      </trkpt>
      <trkpt lat="46.46606" lon="4.77546">
        <ele>308</ele>
        <time>2022-06-25T10:02:50Z</time>
      </trkpt>
      <trkpt lat="46.46599" lon="4.77543">
        <ele>307.6</ele>
        <time>2022-06-25T10:02:51Z</time>
      </trkpt>
      <trkpt lat="46.46593" lon="4.77539">
        <ele>307.6</ele>
        <time>2022-06-25T10:02:52Z</time>
      </trkpt>
      <trkpt lat="46.46586" lon="4.77536">
        <ele>307</ele>
        <time>2022-06-25T10:02:53Z</time>
      </trkpt>
      <trkpt lat="46.46579" lon="4.77533">
        <ele>306.4</ele>
        <time>2022-06-25T10:02:54Z</time>
      </trkpt>
      <trkpt lat="46.46572" lon="4.7753">
        <ele>306.2</ele>
        <time>2022-06-25T10:02:55Z</time>
      </trkpt>
      <trkpt lat="46.46565" lon="4.77527">
        <ele>306</ele>
        <time>2022-06-25T10:02:56Z</time>
      </trkpt>
      <trkpt lat="46.46558" lon="4.77524">
        <ele>306</ele>
        <time>2022-06-25T10:02:57Z</time>
      </trkpt>
      <trkpt lat="46.46551" lon="4.77521">
        <ele>305.4</ele>
        <time>2022-06-25T10:02:58Z</time>
      </trkpt>
      <trkpt lat="46.46543" lon="4.77518">
        <ele>305.2</ele>
        <time>2022-06-25T10:02:59Z</time>
      </trkpt>
      <trkpt lat="46.46536" lon="4.77515">
        <ele>304.8</ele>
        <time>2022-06-25T10:03:00Z</time>
      </trkpt>
      <trkpt lat="46.46528" lon="4.77511">
        <ele>304.4</ele>
        <time>2022-06-25T10:03:01Z</time>
      </trkpt>
      <trkpt lat="46.4652" lon="4.77507">
        <ele>304.2</ele>
        <time>2022-06-25T10:03:02Z</time>
      </trkpt>
      <trkpt lat="46.46512" lon="4.77504">
        <ele>304</ele>
        <time>2022-06-25T10:03:03Z</time>
      </trkpt>
      <trkpt lat="46.46505" lon="4.775">
        <ele>303.8</ele>
        <time>2022-06-25T10:03:04Z</time>
      </trkpt>
      <trkpt lat="46.46497" lon="4.77496">
        <ele>303.4</ele>
        <time>2022-06-25T10:03:05Z</time>
      </trkpt>
      <trkpt lat="46.46489" lon="4.77493">
        <ele>303.2</ele>
        <time>2022-06-25T10:03:06Z</time>
      </trkpt>
      <trkpt lat="46.46481" lon="4.77488">
        <ele>302.8</ele>
        <time>2022-06-25T10:03:07Z</time>
      </trkpt>
      <trkpt lat="46.46473" lon="4.77484">
        <ele>302.4</ele>
        <time>2022-06-25T10:03:08Z</time>
      </trkpt>
      <trkpt lat="46.46466" lon="4.7748">
        <ele>302</ele>
        <time>2022-06-25T10:03:09Z</time>
      </trkpt>
      <trkpt lat="46.46458" lon="4.77477">
        <ele>301.8</ele>
        <time>2022-06-25T10:03:10Z</time>
      </trkpt>
      <trkpt lat="46.4645" lon="4.77473">
        <ele>301.4</ele>
        <time>2022-06-25T10:03:11Z</time>
      </trkpt>
      <trkpt lat="46.46442" lon="4.7747">
        <ele>301.2</ele>
        <time>2022-06-25T10:03:12Z</time>
      </trkpt>
      <trkpt lat="46.46435" lon="4.77467">
        <ele>300.8</ele>
        <time>2022-06-25T10:03:13Z</time>
      </trkpt>
      <trkpt lat="46.46427" lon="4.77464">
        <ele>300.6</ele>
        <time>2022-06-25T10:03:14Z</time>
      </trkpt>
      <trkpt lat="46.4642" lon="4.77461">
        <ele>300.4</ele>
        <time>2022-06-25T10:03:15Z</time>
      </trkpt>
      <trkpt lat="46.46413" lon="4.77458">
        <ele>300</ele>
        <time>2022-06-25T10:03:16Z</time>
      </trkpt>
      <trkpt lat="46.46407" lon="4.77455">
        <ele>300</ele>
        <time>2022-06-25T10:03:17Z</time>
      </trkpt>
      <trkpt lat="46.46402" lon="4.77452">
        <ele>299.6</ele>
        <time>2022-06-25T10:03:18Z</time>
      </trkpt>
      <trkpt lat="46.46398" lon="4.7745">
        <ele>299.4</ele>
        <time>2022-06-25T10:03:19Z</time>
      </trkpt>
      <trkpt lat="46.46393" lon="4.77448">
        <ele>299</ele>
        <time>2022-06-25T10:03:20Z</time>
      </trkpt>
      <trkpt lat="46.46388" lon="4.77447">
        <ele>298.8</ele>
        <time>2022-06-25T10:03:21Z</time>
      </trkpt>
      <trkpt lat="46.46384" lon="4.77445">
        <ele>298.4</ele>
        <time>2022-06-25T10:03:22Z</time>
      </trkpt>
      <trkpt lat="46.4638" lon="4.77444">
        <ele>298.2</ele>
        <time>2022-06-25T10:03:23Z</time>
      </trkpt>
      <trkpt lat="46.46376" lon="4.77442">
        <ele>298</ele>
        <time>2022-06-25T10:03:24Z</time>
      </trkpt>
      <trkpt lat="46.46372" lon="4.7744">
        <ele>298</ele>
        <time>2022-06-25T10:03:25Z</time>
      </trkpt>
      <trkpt lat="46.46368" lon="4.77438">
        <ele>297.6</ele>
        <time>2022-06-25T10:03:26Z</time>
      </trkpt>
      <trkpt lat="46.46365" lon="4.77436">
        <ele>297.6</ele>
        <time>2022-06-25T10:03:27Z</time>
      </trkpt>
      <trkpt lat="46.46362" lon="4.77435">
        <ele>297.2</ele>
        <time>2022-06-25T10:03:28Z</time>
      </trkpt>
      <trkpt lat="46.46359" lon="4.77433">
        <ele>297.2</ele>
        <time>2022-06-25T10:03:29Z</time>
      </trkpt>
      <trkpt lat="46.46356" lon="4.77432">
        <ele>297.2</ele>
        <time>2022-06-25T10:03:30Z</time>
      </trkpt>
      <trkpt lat="46.46354" lon="4.77431">
        <ele>297</ele>
        <time>2022-06-25T10:03:31Z</time>
      </trkpt>
      <trkpt lat="46.46352" lon="4.77431">
        <ele>297</ele>
        <time>2022-06-25T10:03:32Z</time>
      </trkpt>
      <trkpt lat="46.4635" lon="4.7743">
        <ele>297</ele>
        <time>2022-06-25T10:03:33Z</time>
      </trkpt>
      <trkpt lat="46.46348" lon="4.77429">
        <ele>296.8</ele>
        <time>2022-06-25T10:03:34Z</time>
      </trkpt>
      <trkpt lat="46.46346" lon="4.77428">
        <ele>296.8</ele>
        <time>2022-06-25T10:03:35Z</time>
      </trkpt>
      <trkpt lat="46.46343" lon="4.77426">
        <ele>296.8</ele>
        <time>2022-06-25T10:03:36Z</time>
      </trkpt>
      <trkpt lat="46.46341" lon="4.77425">
        <ele>296.8</ele>
        <time>2022-06-25T10:03:37Z</time>
      </trkpt>
      <trkpt lat="46.46338" lon="4.77424">
        <ele>296.8</ele>
        <time>2022-06-25T10:03:38Z</time>
      </trkpt>
      <trkpt lat="46.46337" lon="4.77422">
        <ele>296.6</ele>
        <time>2022-06-25T10:03:39Z</time>
      </trkpt>
      <trkpt lat="46.46336" lon="4.77421">
        <ele>296.6</ele>
        <time>2022-06-25T10:03:40Z</time>
      </trkpt>
      <trkpt lat="46.46335" lon="4.77419">
        <ele>296.6</ele>
        <time>2022-06-25T10:03:41Z</time>
      </trkpt>
      <trkpt lat="46.46334" lon="4.77419">
        <ele>296.6</ele>
        <time>2022-06-25T10:03:42Z</time>
      </trkpt>
      <trkpt lat="46.46333" lon="4.77418">
        <ele>296.4</ele>
        <time>2022-06-25T10:03:43Z</time>
      </trkpt>
      <trkpt lat="46.46332" lon="4.77417">
        <ele>296.4</ele>
        <time>2022-06-25T10:03:44Z</time>
      </trkpt>
      <trkpt lat="46.4633" lon="4.77417">
        <ele>296.4</ele>
        <time>2022-06-25T10:03:45Z</time>
      </trkpt>
      <trkpt lat="46.46328" lon="4.77416">
        <ele>296.4</ele>
        <time>2022-06-25T10:03:46Z</time>
      </trkpt>
      <trkpt lat="46.46326" lon="4.77415">
        <ele>296.4</ele>
        <time>2022-06-25T10:03:47Z</time>
      </trkpt>
      <trkpt lat="46.46324" lon="4.77414">
        <ele>296.4</ele>
        <time>2022-06-25T10:03:48Z</time>
      </trkpt>
      <trkpt lat="46.4632" lon="4.77413">
        <ele>296.4</ele>
        <time>2022-06-25T10:03:49Z</time>
      </trkpt>
      <trkpt lat="46.46317" lon="4.77412">
        <ele>296.4</ele>
        <time>2022-06-25T10:03:50Z</time>
      </trkpt>
      <trkpt lat="46.46313" lon="4.77411">
        <ele>296.4</ele>
        <time>2022-06-25T10:03:51Z</time>
      </trkpt>
      <trkpt lat="46.46309" lon="4.7741">
        <ele>296.4</ele>
        <time>2022-06-25T10:03:52Z</time>
      </trkpt>
      <trkpt lat="46.46305" lon="4.77409">
        <ele>296.4</ele>
        <time>2022-06-25T10:03:53Z</time>
      </trkpt>
      <trkpt lat="46.463" lon="4.77408">
        <ele>296.4</ele>
        <time>2022-06-25T10:03:54Z</time>
      </trkpt>
      <trkpt lat="46.46296" lon="4.77407">
        <ele>296.4</ele>
        <time>2022-06-25T10:03:55Z</time>
      </trkpt>
      <trkpt lat="46.46293" lon="4.77407">
        <ele>296.4</ele>
        <time>2022-06-25T10:03:56Z</time>
      </trkpt>
      <trkpt lat="46.4629" lon="4.77407">
        <ele>296.4</ele>
        <time>2022-06-25T10:03:57Z</time>
      </trkpt>
      <trkpt lat="46.46288" lon="4.77408">
        <ele>296.4</ele>
        <time>2022-06-25T10:03:58Z</time>
      </trkpt>
      <trkpt lat="46.46287" lon="4.77408">
        <ele>296.4</ele>
        <time>2022-06-25T10:03:59Z</time>
      </trkpt>
      <trkpt lat="46.46285" lon="4.77408">
        <ele>296.4</ele>
        <time>2022-06-25T10:04:00Z</time>
      </trkpt>
      <trkpt lat="46.46284" lon="4.77408">
        <ele>296.4</ele>
        <time>2022-06-25T10:04:01Z</time>
      </trkpt>
      <trkpt lat="46.46283" lon="4.77408">
        <ele>296.4</ele>
        <time>2022-06-25T10:04:02Z</time>
      </trkpt>
      <trkpt lat="46.46282" lon="4.77409">
        <ele>296.4</ele>
        <time>2022-06-25T10:04:03Z</time>
      </trkpt>
      <trkpt lat="46.46279" lon="4.7741">
        <ele>296.4</ele>
        <time>2022-06-25T10:04:08Z</time>
      </trkpt>
      <trkpt lat="46.46277" lon="4.7741">
        <ele>296.4</ele>
        <time>2022-06-25T10:04:09Z</time>
      </trkpt>
      <trkpt lat="46.46275" lon="4.7741">
        <ele>296.4</ele>
        <time>2022-06-25T10:04:10Z</time>
      </trkpt>
      <trkpt lat="46.46273" lon="4.7741">
        <ele>296.4</ele>
        <time>2022-06-25T10:04:11Z</time>
      </trkpt>
      <trkpt lat="46.46271" lon="4.7741">
        <ele>296.6</ele>
        <time>2022-06-25T10:04:12Z</time>
      </trkpt>
      <trkpt lat="46.46268" lon="4.7741">
        <ele>296.6</ele>
        <time>2022-06-25T10:04:13Z</time>
      </trkpt>
      <trkpt lat="46.46266" lon="4.7741">
        <ele>296.6</ele>
        <time>2022-06-25T10:04:14Z</time>
      </trkpt>
      <trkpt lat="46.46263" lon="4.7741">
        <ele>296.6</ele>
        <time>2022-06-25T10:04:15Z</time>
      </trkpt>
      <trkpt lat="46.4626" lon="4.77409">
        <ele>296.6</ele>
        <time>2022-06-25T10:04:16Z</time>
      </trkpt>
      <trkpt lat="46.46256" lon="4.77409">
        <ele>296.6</ele>
        <time>2022-06-25T10:04:17Z</time>
      </trkpt>
      <trkpt lat="46.46253" lon="4.77408">
        <ele>296.8</ele>
        <time>2022-06-25T10:04:18Z</time>
      </trkpt>
      <trkpt lat="46.4625" lon="4.77407">
        <ele>296.8</ele>
        <time>2022-06-25T10:04:19Z</time>
      </trkpt>
      <trkpt lat="46.46246" lon="4.77405">
        <ele>296.8</ele>
        <time>2022-06-25T10:04:20Z</time>
      </trkpt>
      <trkpt lat="46.46242" lon="4.77402">
        <ele>296.8</ele>
        <time>2022-06-25T10:04:21Z</time>
      </trkpt>
      <trkpt lat="46.4624" lon="4.77399">
        <ele>296.8</ele>
        <time>2022-06-25T10:04:22Z</time>
      </trkpt>
      <trkpt lat="46.46237" lon="4.77395">
        <ele>297</ele>
        <time>2022-06-25T10:04:23Z</time>
      </trkpt>
      <trkpt lat="46.46235" lon="4.77391">
        <ele>297</ele>
        <time>2022-06-25T10:04:24Z</time>
      </trkpt>
      <trkpt lat="46.46233" lon="4.77388">
        <ele>297.4</ele>
        <time>2022-06-25T10:04:25Z</time>
      </trkpt>
      <trkpt lat="46.46231" lon="4.77384">
        <ele>297.4</ele>
        <time>2022-06-25T10:04:26Z</time>
      </trkpt>
      <trkpt lat="46.46229" lon="4.77379">
        <ele>297.6</ele>
        <time>2022-06-25T10:04:27Z</time>
      </trkpt>
      <trkpt lat="46.46227" lon="4.77375">
        <ele>297.6</ele>
        <time>2022-06-25T10:04:28Z</time>
      </trkpt>
      <trkpt lat="46.46225" lon="4.7737">
        <ele>297.6</ele>
        <time>2022-06-25T10:04:29Z</time>
      </trkpt>
      <trkpt lat="46.46223" lon="4.77364">
        <ele>298</ele>
        <time>2022-06-25T10:04:30Z</time>
      </trkpt>
      <trkpt lat="46.46221" lon="4.77358">
        <ele>298</ele>
        <time>2022-06-25T10:04:31Z</time>
      </trkpt>
      <trkpt lat="46.46219" lon="4.77352">
        <ele>298</ele>
        <time>2022-06-25T10:04:32Z</time>
      </trkpt>
      <trkpt lat="46.46216" lon="4.77345">
        <ele>298.2</ele>
        <time>2022-06-25T10:04:33Z</time>
      </trkpt>
      <trkpt lat="46.46214" lon="4.77339">
        <ele>298.2</ele>
        <time>2022-06-25T10:04:34Z</time>
      </trkpt>
      <trkpt lat="46.46211" lon="4.77333">
        <ele>298.2</ele>
        <time>2022-06-25T10:04:35Z</time>
      </trkpt>
      <trkpt lat="46.46207" lon="4.77327">
        <ele>298.4</ele>
        <time>2022-06-25T10:04:36Z</time>
      </trkpt>
      <trkpt lat="46.46203" lon="4.77321">
        <ele>298.4</ele>
        <time>2022-06-25T10:04:37Z</time>
      </trkpt>
      <trkpt lat="46.46198" lon="4.77316">
        <ele>298.4</ele>
        <time>2022-06-25T10:04:38Z</time>
      </trkpt>
      <trkpt lat="46.46193" lon="4.77311">
        <ele>298.4</ele>
        <time>2022-06-25T10:04:39Z</time>
      </trkpt>
      <trkpt lat="46.46188" lon="4.77307">
        <ele>298.4</ele>
        <time>2022-06-25T10:04:40Z</time>
      </trkpt>
      <trkpt lat="46.46182" lon="4.77303">
        <ele>298.4</ele>
        <time>2022-06-25T10:04:41Z</time>
      </trkpt>
      <trkpt lat="46.46176" lon="4.77299">
        <ele>298.2</ele>
        <time>2022-06-25T10:04:42Z</time>
      </trkpt>
      <trkpt lat="46.46169" lon="4.77296">
        <ele>298.2</ele>
        <time>2022-06-25T10:04:43Z</time>
      </trkpt>
      <trkpt lat="46.46162" lon="4.77292">
        <ele>297.8</ele>
        <time>2022-06-25T10:04:44Z</time>
      </trkpt>
      <trkpt lat="46.46155" lon="4.77288">
        <ele>297.6</ele>
        <time>2022-06-25T10:04:45Z</time>
      </trkpt>
      <trkpt lat="46.46148" lon="4.77284">
        <ele>297.6</ele>
        <time>2022-06-25T10:04:46Z</time>
      </trkpt>
      <trkpt lat="46.4614" lon="4.77279">
        <ele>297</ele>
        <time>2022-06-25T10:04:47Z</time>
      </trkpt>
      <trkpt lat="46.46133" lon="4.77275">
        <ele>296.8</ele>
        <time>2022-06-25T10:04:48Z</time>
      </trkpt>
      <trkpt lat="46.46126" lon="4.77269">
        <ele>296.8</ele>
        <time>2022-06-25T10:04:49Z</time>
      </trkpt>
      <trkpt lat="46.46118" lon="4.77264">
        <ele>296.8</ele>
        <time>2022-06-25T10:04:50Z</time>
      </trkpt>
      <trkpt lat="46.46111" lon="4.77258">
        <ele>296.4</ele>
        <time>2022-06-25T10:04:51Z</time>
      </trkpt>
      <trkpt lat="46.46103" lon="4.77252">
        <ele>296.4</ele>
        <time>2022-06-25T10:04:52Z</time>
      </trkpt>
      <trkpt lat="46.46096" lon="4.77245">
        <ele>296.2</ele>
        <time>2022-06-25T10:04:53Z</time>
      </trkpt>
      <trkpt lat="46.46089" lon="4.77239">
        <ele>296</ele>
        <time>2022-06-25T10:04:54Z</time>
      </trkpt>
      <trkpt lat="46.46081" lon="4.77233">
        <ele>295.6</ele>
        <time>2022-06-25T10:04:55Z</time>
      </trkpt>
      <trkpt lat="46.46074" lon="4.77227">
        <ele>295.4</ele>
        <time>2022-06-25T10:04:56Z</time>
      </trkpt>
      <trkpt lat="46.46066" lon="4.7722">
        <ele>295.4</ele>
        <time>2022-06-25T10:04:57Z</time>
      </trkpt>
      <trkpt lat="46.46059" lon="4.77214">
        <ele>295</ele>
        <time>2022-06-25T10:04:58Z</time>
      </trkpt>
      <trkpt lat="46.46052" lon="4.77208">
        <ele>295</ele>
        <time>2022-06-25T10:04:59Z</time>
      </trkpt>
      <trkpt lat="46.46045" lon="4.77201">
        <ele>295</ele>
        <time>2022-06-25T10:05:00Z</time>
      </trkpt>
      <trkpt lat="46.46037" lon="4.77195">
        <ele>294.6</ele>
        <time>2022-06-25T10:05:01Z</time>
      </trkpt>
      <trkpt lat="46.4603" lon="4.77189">
        <ele>294.6</ele>
        <time>2022-06-25T10:05:02Z</time>
      </trkpt>
      <trkpt lat="46.46022" lon="4.77183">
        <ele>294.6</ele>
        <time>2022-06-25T10:05:03Z</time>
      </trkpt>
      <trkpt lat="46.46015" lon="4.77177">
        <ele>294.6</ele>
        <time>2022-06-25T10:05:04Z</time>
      </trkpt>
      <trkpt lat="46.46008" lon="4.77172">
        <ele>294.6</ele>
        <time>2022-06-25T10:05:05Z</time>
      </trkpt>
      <trkpt lat="46.46" lon="4.77165">
        <ele>294.6</ele>
        <time>2022-06-25T10:05:06Z</time>
      </trkpt>
      <trkpt lat="46.45993" lon="4.77159">
        <ele>294.4</ele>
        <time>2022-06-25T10:05:07Z</time>
      </trkpt>
      <trkpt lat="46.45986" lon="4.77153">
        <ele>294.4</ele>
        <time>2022-06-25T10:05:08Z</time>
      </trkpt>
      <trkpt lat="46.45979" lon="4.77146">
        <ele>294.4</ele>
        <time>2022-06-25T10:05:09Z</time>
      </trkpt>
      <trkpt lat="46.45973" lon="4.7714">
        <ele>294.4</ele>
        <time>2022-06-25T10:05:10Z</time>
      </trkpt>
      <trkpt lat="46.45965" lon="4.77134">
        <ele>294.4</ele>
        <time>2022-06-25T10:05:11Z</time>
      </trkpt>
      <trkpt lat="46.45958" lon="4.77128">
        <ele>294.4</ele>
        <time>2022-06-25T10:05:12Z</time>
      </trkpt>
      <trkpt lat="46.45951" lon="4.77123">
        <ele>294.4</ele>
        <time>2022-06-25T10:05:13Z</time>
      </trkpt>
      <trkpt lat="46.45943" lon="4.77119">
        <ele>294.4</ele>
        <time>2022-06-25T10:05:14Z</time>
      </trkpt>
      <trkpt lat="46.45936" lon="4.77114">
        <ele>294.4</ele>
        <time>2022-06-25T10:05:15Z</time>
      </trkpt>
      <trkpt lat="46.45929" lon="4.7711">
        <ele>294.4</ele>
        <time>2022-06-25T10:05:16Z</time>
      </trkpt>
      <trkpt lat="46.45922" lon="4.77107">
        <ele>294.2</ele>
        <time>2022-06-25T10:05:17Z</time>
      </trkpt>
      <trkpt lat="46.45914" lon="4.77103">
        <ele>294.2</ele>
        <time>2022-06-25T10:05:18Z</time>
      </trkpt>
      <trkpt lat="46.45907" lon="4.771">
        <ele>294.2</ele>
        <time>2022-06-25T10:05:19Z</time>
      </trkpt>
      <trkpt lat="46.459" lon="4.77097">
        <ele>294.2</ele>
        <time>2022-06-25T10:05:20Z</time>
      </trkpt>
      <trkpt lat="46.45893" lon="4.77095">
        <ele>294.2</ele>
        <time>2022-06-25T10:05:21Z</time>
      </trkpt>
      <trkpt lat="46.45886" lon="4.77092">
        <ele>294.2</ele>
        <time>2022-06-25T10:05:22Z</time>
      </trkpt>
      <trkpt lat="46.45879" lon="4.7709">
        <ele>294.2</ele>
        <time>2022-06-25T10:05:23Z</time>
      </trkpt>
      <trkpt lat="46.45873" lon="4.77087">
        <ele>293.8</ele>
        <time>2022-06-25T10:05:24Z</time>
      </trkpt>
      <trkpt lat="46.45866" lon="4.77085">
        <ele>293.8</ele>
        <time>2022-06-25T10:05:25Z</time>
      </trkpt>
      <trkpt lat="46.45859" lon="4.77083">
        <ele>293.8</ele>
        <time>2022-06-25T10:05:26Z</time>
      </trkpt>
      <trkpt lat="46.45853" lon="4.77081">
        <ele>293.8</ele>
        <time>2022-06-25T10:05:27Z</time>
      </trkpt>
      <trkpt lat="46.45846" lon="4.77078">
        <ele>293.8</ele>
        <time>2022-06-25T10:05:28Z</time>
      </trkpt>
      <trkpt lat="46.4584" lon="4.77076">
        <ele>294</ele>
        <time>2022-06-25T10:05:29Z</time>
      </trkpt>
      <trkpt lat="46.45833" lon="4.77074">
        <ele>294</ele>
        <time>2022-06-25T10:05:30Z</time>
      </trkpt>
      <trkpt lat="46.45827" lon="4.77072">
        <ele>294</ele>
        <time>2022-06-25T10:05:31Z</time>
      </trkpt>
      <trkpt lat="46.45821" lon="4.7707">
        <ele>294</ele>
        <time>2022-06-25T10:05:32Z</time>
      </trkpt>
      <trkpt lat="46.45815" lon="4.77068">
        <ele>294.4</ele>
        <time>2022-06-25T10:05:33Z</time>
      </trkpt>
      <trkpt lat="46.45808" lon="4.77066">
        <ele>294.4</ele>
        <time>2022-06-25T10:05:34Z</time>
      </trkpt>
      <trkpt lat="46.45802" lon="4.77064">
        <ele>294.4</ele>
        <time>2022-06-25T10:05:35Z</time>
      </trkpt>
      <trkpt lat="46.45796" lon="4.77062">
        <ele>294.6</ele>
        <time>2022-06-25T10:05:36Z</time>
      </trkpt>
      <trkpt lat="46.4579" lon="4.7706">
        <ele>294.6</ele>
        <time>2022-06-25T10:05:37Z</time>
      </trkpt>
      <trkpt lat="46.45784" lon="4.77058">
        <ele>294.8</ele>
        <time>2022-06-25T10:05:38Z</time>
      </trkpt>
      <trkpt lat="46.45777" lon="4.77057">
        <ele>294.8</ele>
        <time>2022-06-25T10:05:39Z</time>
      </trkpt>
      <trkpt lat="46.45771" lon="4.77055">
        <ele>295</ele>
        <time>2022-06-25T10:05:40Z</time>
      </trkpt>
      <trkpt lat="46.45765" lon="4.77053">
        <ele>295</ele>
        <time>2022-06-25T10:05:41Z</time>
      </trkpt>
      <trkpt lat="46.45759" lon="4.7705">
        <ele>295</ele>
        <time>2022-06-25T10:05:42Z</time>
      </trkpt>
      <trkpt lat="46.45752" lon="4.77048">
        <ele>295.4</ele>
        <time>2022-06-25T10:05:43Z</time>
      </trkpt>
      <trkpt lat="46.45745" lon="4.77046">
        <ele>295.4</ele>
        <time>2022-06-25T10:05:44Z</time>
      </trkpt>
      <trkpt lat="46.45738" lon="4.77045">
        <ele>295</ele>
        <time>2022-06-25T10:05:45Z</time>
      </trkpt>
      <trkpt lat="46.45731" lon="4.77042">
        <ele>295</ele>
        <time>2022-06-25T10:05:46Z</time>
      </trkpt>
      <trkpt lat="46.45724" lon="4.7704">
        <ele>294.6</ele>
        <time>2022-06-25T10:05:47Z</time>
      </trkpt>
      <trkpt lat="46.45717" lon="4.77038">
        <ele>294.6</ele>
        <time>2022-06-25T10:05:48Z</time>
      </trkpt>
      <trkpt lat="46.45709" lon="4.77036">
        <ele>294.4</ele>
        <time>2022-06-25T10:05:49Z</time>
      </trkpt>
      <trkpt lat="46.45701" lon="4.77035">
        <ele>294.4</ele>
        <time>2022-06-25T10:05:50Z</time>
      </trkpt>
      <trkpt lat="46.45693" lon="4.77033">
        <ele>294</ele>
        <time>2022-06-25T10:05:51Z</time>
      </trkpt>
      <trkpt lat="46.45684" lon="4.77033">
        <ele>293.6</ele>
        <time>2022-06-25T10:05:52Z</time>
      </trkpt>
      <trkpt lat="46.45675" lon="4.77032">
        <ele>293.2</ele>
        <time>2022-06-25T10:05:53Z</time>
      </trkpt>
      <trkpt lat="46.45666" lon="4.77031">
        <ele>293</ele>
        <time>2022-06-25T10:05:54Z</time>
      </trkpt>
      <trkpt lat="46.45658" lon="4.7703">
        <ele>292.6</ele>
        <time>2022-06-25T10:05:55Z</time>
      </trkpt>
      <trkpt lat="46.45649" lon="4.77028">
        <ele>292.2</ele>
        <time>2022-06-25T10:05:56Z</time>
      </trkpt>
      <trkpt lat="46.45639" lon="4.77026">
        <ele>291.6</ele>
        <time>2022-06-25T10:05:57Z</time>
      </trkpt>
      <trkpt lat="46.4563" lon="4.77025">
        <ele>291.4</ele>
        <time>2022-06-25T10:05:58Z</time>
      </trkpt>
      <trkpt lat="46.45621" lon="4.77022">
        <ele>291.4</ele>
        <time>2022-06-25T10:05:59Z</time>
      </trkpt>
      <trkpt lat="46.45612" lon="4.7702">
        <ele>291</ele>
        <time>2022-06-25T10:06:00Z</time>
      </trkpt>
      <trkpt lat="46.45601" lon="4.77017">
        <ele>290.6</ele>
        <time>2022-06-25T10:06:01Z</time>
      </trkpt>
      <trkpt lat="46.45592" lon="4.77015">
        <ele>290.2</ele>
        <time>2022-06-25T10:06:02Z</time>
      </trkpt>
      <trkpt lat="46.45583" lon="4.77012">
        <ele>290</ele>
        <time>2022-06-25T10:06:03Z</time>
      </trkpt>
      <trkpt lat="46.45574" lon="4.7701">
        <ele>289.8</ele>
        <time>2022-06-25T10:06:04Z</time>
      </trkpt>
      <trkpt lat="46.45565" lon="4.77008">
        <ele>289.4</ele>
        <time>2022-06-25T10:06:05Z</time>
      </trkpt>
      <trkpt lat="46.45556" lon="4.77007">
        <ele>289.2</ele>
        <time>2022-06-25T10:06:06Z</time>
      </trkpt>
      <trkpt lat="46.45546" lon="4.77005">
        <ele>289</ele>
        <time>2022-06-25T10:06:07Z</time>
      </trkpt>
      <trkpt lat="46.45538" lon="4.77002">
        <ele>288.6</ele>
        <time>2022-06-25T10:06:08Z</time>
      </trkpt>
      <trkpt lat="46.45529" lon="4.77">
        <ele>288.2</ele>
        <time>2022-06-25T10:06:09Z</time>
      </trkpt>
      <trkpt lat="46.4552" lon="4.76997">
        <ele>287.8</ele>
        <time>2022-06-25T10:06:10Z</time>
      </trkpt>
      <trkpt lat="46.45512" lon="4.76993">
        <ele>287.6</ele>
        <time>2022-06-25T10:06:11Z</time>
      </trkpt>
      <trkpt lat="46.45504" lon="4.76988">
        <ele>287.2</ele>
        <time>2022-06-25T10:06:12Z</time>
      </trkpt>
      <trkpt lat="46.45496" lon="4.76983">
        <ele>287.2</ele>
        <time>2022-06-25T10:06:13Z</time>
      </trkpt>
      <trkpt lat="46.45489" lon="4.76978">
        <ele>287</ele>
        <time>2022-06-25T10:06:14Z</time>
      </trkpt>
      <trkpt lat="46.45483" lon="4.76972">
        <ele>287</ele>
        <time>2022-06-25T10:06:15Z</time>
      </trkpt>
      <trkpt lat="46.45476" lon="4.76966">
        <ele>287</ele>
        <time>2022-06-25T10:06:16Z</time>
      </trkpt>
      <trkpt lat="46.4547" lon="4.76961">
        <ele>287</ele>
        <time>2022-06-25T10:06:17Z</time>
      </trkpt>
      <trkpt lat="46.45464" lon="4.76957">
        <ele>287.4</ele>
        <time>2022-06-25T10:06:18Z</time>
      </trkpt>
      <trkpt lat="46.45458" lon="4.76954">
        <ele>287.6</ele>
        <time>2022-06-25T10:06:19Z</time>
      </trkpt>
      <trkpt lat="46.45452" lon="4.76951">
        <ele>287.6</ele>
        <time>2022-06-25T10:06:20Z</time>
      </trkpt>
      <trkpt lat="46.45447" lon="4.76948">
        <ele>287.8</ele>
        <time>2022-06-25T10:06:21Z</time>
      </trkpt>
      <trkpt lat="46.45441" lon="4.76945">
        <ele>287.8</ele>
        <time>2022-06-25T10:06:22Z</time>
      </trkpt>
      <trkpt lat="46.45436" lon="4.76943">
        <ele>288.2</ele>
        <time>2022-06-25T10:06:23Z</time>
      </trkpt>
      <trkpt lat="46.4543" lon="4.7694">
        <ele>288.2</ele>
        <time>2022-06-25T10:06:24Z</time>
      </trkpt>
      <trkpt lat="46.45425" lon="4.76939">
        <ele>288.4</ele>
        <time>2022-06-25T10:06:25Z</time>
      </trkpt>
      <trkpt lat="46.4542" lon="4.76937">
        <ele>288.4</ele>
        <time>2022-06-25T10:06:26Z</time>
      </trkpt>
      <trkpt lat="46.45414" lon="4.76936">
        <ele>288.6</ele>
        <time>2022-06-25T10:06:27Z</time>
      </trkpt>
      <trkpt lat="46.45409" lon="4.76935">
        <ele>288.6</ele>
        <time>2022-06-25T10:06:28Z</time>
      </trkpt>
      <trkpt lat="46.45403" lon="4.76933">
        <ele>288.6</ele>
        <time>2022-06-25T10:06:29Z</time>
      </trkpt>
      <trkpt lat="46.45397" lon="4.76932">
        <ele>288.8</ele>
        <time>2022-06-25T10:06:30Z</time>
      </trkpt>
      <trkpt lat="46.45391" lon="4.76931">
        <ele>288.8</ele>
        <time>2022-06-25T10:06:31Z</time>
      </trkpt>
      <trkpt lat="46.45386" lon="4.7693">
        <ele>288.8</ele>
        <time>2022-06-25T10:06:32Z</time>
      </trkpt>
      <trkpt lat="46.4538" lon="4.76931">
        <ele>288.8</ele>
        <time>2022-06-25T10:06:33Z</time>
      </trkpt>
      <trkpt lat="46.45375" lon="4.76933">
        <ele>288.8</ele>
        <time>2022-06-25T10:06:34Z</time>
      </trkpt>
      <trkpt lat="46.4537" lon="4.76937">
        <ele>289.2</ele>
        <time>2022-06-25T10:06:35Z</time>
      </trkpt>
      <trkpt lat="46.45365" lon="4.76942">
        <ele>289.2</ele>
        <time>2022-06-25T10:06:36Z</time>
      </trkpt>
      <trkpt lat="46.4536" lon="4.76948">
        <ele>289.2</ele>
        <time>2022-06-25T10:06:37Z</time>
      </trkpt>
      <trkpt lat="46.45357" lon="4.76955">
        <ele>289.2</ele>
        <time>2022-06-25T10:06:38Z</time>
      </trkpt>
      <trkpt lat="46.45353" lon="4.76962">
        <ele>289.2</ele>
        <time>2022-06-25T10:06:39Z</time>
      </trkpt>
      <trkpt lat="46.45348" lon="4.76969">
        <ele>289.2</ele>
        <time>2022-06-25T10:06:40Z</time>
      </trkpt>
      <trkpt lat="46.45344" lon="4.76976">
        <ele>289.2</ele>
        <time>2022-06-25T10:06:41Z</time>
      </trkpt>
      <trkpt lat="46.45339" lon="4.76983">
        <ele>289.2</ele>
        <time>2022-06-25T10:06:42Z</time>
      </trkpt>
      <trkpt lat="46.45334" lon="4.76989">
        <ele>289.2</ele>
        <time>2022-06-25T10:06:43Z</time>
      </trkpt>
      <trkpt lat="46.45329" lon="4.76994">
        <ele>289.2</ele>
        <time>2022-06-25T10:06:44Z</time>
      </trkpt>
      <trkpt lat="46.45323" lon="4.76997">
        <ele>289.2</ele>
        <time>2022-06-25T10:06:45Z</time>
      </trkpt>
      <trkpt lat="46.45317" lon="4.77">
        <ele>289.2</ele>
        <time>2022-06-25T10:06:46Z</time>
      </trkpt>
      <trkpt lat="46.4531" lon="4.77002">
        <ele>289.2</ele>
        <time>2022-06-25T10:06:47Z</time>
      </trkpt>
      <trkpt lat="46.45304" lon="4.77002">
        <ele>289.2</ele>
        <time>2022-06-25T10:06:48Z</time>
      </trkpt>
      <trkpt lat="46.45298" lon="4.77003">
        <ele>289.2</ele>
        <time>2022-06-25T10:06:49Z</time>
      </trkpt>
      <trkpt lat="46.45292" lon="4.77005">
        <ele>289.2</ele>
        <time>2022-06-25T10:06:50Z</time>
      </trkpt>
      <trkpt lat="46.45286" lon="4.77006">
        <ele>289.4</ele>
        <time>2022-06-25T10:06:51Z</time>
      </trkpt>
      <trkpt lat="46.4528" lon="4.77007">
        <ele>289.4</ele>
        <time>2022-06-25T10:06:52Z</time>
      </trkpt>
      <trkpt lat="46.45275" lon="4.77008">
        <ele>289.4</ele>
        <time>2022-06-25T10:06:53Z</time>
      </trkpt>
      <trkpt lat="46.45269" lon="4.77009">
        <ele>289.8</ele>
        <time>2022-06-25T10:06:54Z</time>
      </trkpt>
      <trkpt lat="46.45264" lon="4.7701">
        <ele>289.8</ele>
        <time>2022-06-25T10:06:55Z</time>
      </trkpt>
      <trkpt lat="46.45258" lon="4.77011">
        <ele>290</ele>
        <time>2022-06-25T10:06:56Z</time>
      </trkpt>
      <trkpt lat="46.45253" lon="4.77011">
        <ele>290</ele>
        <time>2022-06-25T10:06:57Z</time>
      </trkpt>
      <trkpt lat="46.45248" lon="4.77012">
        <ele>290.2</ele>
        <time>2022-06-25T10:06:58Z</time>
      </trkpt>
      <trkpt lat="46.45243" lon="4.77013">
        <ele>290.2</ele>
        <time>2022-06-25T10:06:59Z</time>
      </trkpt>
      <trkpt lat="46.45238" lon="4.77014">
        <ele>290.6</ele>
        <time>2022-06-25T10:07:00Z</time>
      </trkpt>
      <trkpt lat="46.45233" lon="4.77014">
        <ele>290.6</ele>
        <time>2022-06-25T10:07:01Z</time>
      </trkpt>
      <trkpt lat="46.45228" lon="4.77015">
        <ele>291</ele>
        <time>2022-06-25T10:07:02Z</time>
      </trkpt>
      <trkpt lat="46.45223" lon="4.77016">
        <ele>291</ele>
        <time>2022-06-25T10:07:03Z</time>
      </trkpt>
      <trkpt lat="46.45218" lon="4.77017">
        <ele>291.2</ele>
        <time>2022-06-25T10:07:04Z</time>
      </trkpt>
      <trkpt lat="46.45213" lon="4.77018">
        <ele>291.2</ele>
        <time>2022-06-25T10:07:05Z</time>
      </trkpt>
      <trkpt lat="46.45208" lon="4.77019">
        <ele>291.4</ele>
        <time>2022-06-25T10:07:06Z</time>
      </trkpt>
      <trkpt lat="46.45203" lon="4.77021">
        <ele>291.6</ele>
        <time>2022-06-25T10:07:07Z</time>
      </trkpt>
      <trkpt lat="46.45198" lon="4.77022">
        <ele>291.8</ele>
        <time>2022-06-25T10:07:08Z</time>
      </trkpt>
      <trkpt lat="46.45192" lon="4.77023">
        <ele>291.8</ele>
        <time>2022-06-25T10:07:09Z</time>
      </trkpt>
      <trkpt lat="46.45187" lon="4.77025">
        <ele>291.8</ele>
        <time>2022-06-25T10:07:10Z</time>
      </trkpt>
      <trkpt lat="46.45181" lon="4.77027">
        <ele>291.8</ele>
        <time>2022-06-25T10:07:11Z</time>
      </trkpt>
      <trkpt lat="46.45176" lon="4.77029">
        <ele>291.8</ele>
        <time>2022-06-25T10:07:12Z</time>
      </trkpt>
      <trkpt lat="46.4517" lon="4.7703">
        <ele>291.6</ele>
        <time>2022-06-25T10:07:13Z</time>
      </trkpt>
      <trkpt lat="46.45164" lon="4.77032">
        <ele>291.6</ele>
        <time>2022-06-25T10:07:14Z</time>
      </trkpt>
      <trkpt lat="46.45158" lon="4.77034">
        <ele>291.4</ele>
        <time>2022-06-25T10:07:15Z</time>
      </trkpt>
      <trkpt lat="46.45152" lon="4.77035">
        <ele>291.4</ele>
        <time>2022-06-25T10:07:16Z</time>
      </trkpt>
      <trkpt lat="46.45146" lon="4.77037">
        <ele>291</ele>
        <time>2022-06-25T10:07:17Z</time>
      </trkpt>
      <trkpt lat="46.4514" lon="4.77039">
        <ele>290.8</ele>
        <time>2022-06-25T10:07:18Z</time>
      </trkpt>
      <trkpt lat="46.45133" lon="4.77039">
        <ele>290.6</ele>
        <time>2022-06-25T10:07:19Z</time>
      </trkpt>
      <trkpt lat="46.45126" lon="4.7704">
        <ele>290.4</ele>
        <time>2022-06-25T10:07:20Z</time>
      </trkpt>
      <trkpt lat="46.45119" lon="4.77039">
        <ele>290.4</ele>
        <time>2022-06-25T10:07:21Z</time>
      </trkpt>
      <trkpt lat="46.45111" lon="4.77039">
        <ele>290</ele>
        <time>2022-06-25T10:07:22Z</time>
      </trkpt>
      <trkpt lat="46.45104" lon="4.77038">
        <ele>289.8</ele>
        <time>2022-06-25T10:07:23Z</time>
      </trkpt>
      <trkpt lat="46.45097" lon="4.77038">
        <ele>289.6</ele>
        <time>2022-06-25T10:07:24Z</time>
      </trkpt>
      <trkpt lat="46.45089" lon="4.77037">
        <ele>289.6</ele>
        <time>2022-06-25T10:07:25Z</time>
      </trkpt>
      <trkpt lat="46.45081" lon="4.77036">
        <ele>289.2</ele>
        <time>2022-06-25T10:07:26Z</time>
      </trkpt>
      <trkpt lat="46.45073" lon="4.77035">
        <ele>289</ele>
        <time>2022-06-25T10:07:27Z</time>
      </trkpt>
      <trkpt lat="46.45066" lon="4.77035">
        <ele>288.6</ele>
        <time>2022-06-25T10:07:28Z</time>
      </trkpt>
      <trkpt lat="46.45058" lon="4.77034">
        <ele>288.4</ele>
        <time>2022-06-25T10:07:29Z</time>
      </trkpt>
      <trkpt lat="46.4505" lon="4.77034">
        <ele>288.4</ele>
        <time>2022-06-25T10:07:30Z</time>
      </trkpt>
      <trkpt lat="46.45042" lon="4.77034">
        <ele>288.4</ele>
        <time>2022-06-25T10:07:31Z</time>
      </trkpt>
      <trkpt lat="46.45035" lon="4.77035">
        <ele>288.4</ele>
        <time>2022-06-25T10:07:32Z</time>
      </trkpt>
      <trkpt lat="46.45027" lon="4.77035">
        <ele>288.4</ele>
        <time>2022-06-25T10:07:33Z</time>
      </trkpt>
      <trkpt lat="46.4502" lon="4.77037">
        <ele>288.4</ele>
        <time>2022-06-25T10:07:34Z</time>
      </trkpt>
      <trkpt lat="46.45013" lon="4.77038">
        <ele>288.2</ele>
        <time>2022-06-25T10:07:35Z</time>
      </trkpt>
      <trkpt lat="46.45005" lon="4.77039">
        <ele>288.2</ele>
        <time>2022-06-25T10:07:36Z</time>
      </trkpt>
      <trkpt lat="46.44998" lon="4.7704">
        <ele>288.2</ele>
        <time>2022-06-25T10:07:37Z</time>
      </trkpt>
      <trkpt lat="46.44991" lon="4.77041">
        <ele>288.2</ele>
        <time>2022-06-25T10:07:38Z</time>
      </trkpt>
      <trkpt lat="46.44984" lon="4.77043">
        <ele>288.2</ele>
        <time>2022-06-25T10:07:39Z</time>
      </trkpt>
      <trkpt lat="46.44977" lon="4.77044">
        <ele>288.2</ele>
        <time>2022-06-25T10:07:40Z</time>
      </trkpt>
      <trkpt lat="46.4497" lon="4.77045">
        <ele>288</ele>
        <time>2022-06-25T10:07:41Z</time>
      </trkpt>
      <trkpt lat="46.44963" lon="4.77046">
        <ele>288</ele>
        <time>2022-06-25T10:07:42Z</time>
      </trkpt>
      <trkpt lat="46.44956" lon="4.77046">
        <ele>288</ele>
        <time>2022-06-25T10:07:43Z</time>
      </trkpt>
      <trkpt lat="46.44949" lon="4.77047">
        <ele>288</ele>
        <time>2022-06-25T10:07:44Z</time>
      </trkpt>
      <trkpt lat="46.44942" lon="4.77048">
        <ele>288</ele>
        <time>2022-06-25T10:07:45Z</time>
      </trkpt>
      <trkpt lat="46.44935" lon="4.77049">
        <ele>288</ele>
        <time>2022-06-25T10:07:46Z</time>
      </trkpt>
      <trkpt lat="46.44928" lon="4.7705">
        <ele>288</ele>
        <time>2022-06-25T10:07:47Z</time>
      </trkpt>
      <trkpt lat="46.44921" lon="4.77051">
        <ele>287.6</ele>
        <time>2022-06-25T10:07:48Z</time>
      </trkpt>
      <trkpt lat="46.44914" lon="4.77052">
        <ele>287.6</ele>
        <time>2022-06-25T10:07:49Z</time>
      </trkpt>
      <trkpt lat="46.44907" lon="4.77052">
        <ele>287.4</ele>
        <time>2022-06-25T10:07:50Z</time>
      </trkpt>
      <trkpt lat="46.44899" lon="4.77052">
        <ele>287.4</ele>
        <time>2022-06-25T10:07:51Z</time>
      </trkpt>
      <trkpt lat="46.44891" lon="4.77051">
        <ele>287</ele>
        <time>2022-06-25T10:07:52Z</time>
      </trkpt>
      <trkpt lat="46.44884" lon="4.7705">
        <ele>287</ele>
        <time>2022-06-25T10:07:53Z</time>
      </trkpt>
      <trkpt lat="46.44876" lon="4.77049">
        <ele>287</ele>
        <time>2022-06-25T10:07:54Z</time>
      </trkpt>
      <trkpt lat="46.44868" lon="4.77048">
        <ele>286.8</ele>
        <time>2022-06-25T10:07:55Z</time>
      </trkpt>
      <trkpt lat="46.44861" lon="4.77046">
        <ele>286.8</ele>
        <time>2022-06-25T10:07:56Z</time>
      </trkpt>
      <trkpt lat="46.44854" lon="4.77044">
        <ele>286.8</ele>
        <time>2022-06-25T10:07:57Z</time>
      </trkpt>
      <trkpt lat="46.44847" lon="4.77042">
        <ele>286.8</ele>
        <time>2022-06-25T10:07:58Z</time>
      </trkpt>
      <trkpt lat="46.4484" lon="4.7704">
        <ele>286.6</ele>
        <time>2022-06-25T10:07:59Z</time>
      </trkpt>
      <trkpt lat="46.44833" lon="4.77038">
        <ele>286.6</ele>
        <time>2022-06-25T10:08:00Z</time>
      </trkpt>
      <trkpt lat="46.44826" lon="4.77035">
        <ele>286.6</ele>
        <time>2022-06-25T10:08:01Z</time>
      </trkpt>
      <trkpt lat="46.44819" lon="4.77033">
        <ele>286.4</ele>
        <time>2022-06-25T10:08:02Z</time>
      </trkpt>
      <trkpt lat="46.44813" lon="4.7703">
        <ele>286.4</ele>
        <time>2022-06-25T10:08:03Z</time>
      </trkpt>
      <trkpt lat="46.44806" lon="4.77027">
        <ele>286.4</ele>
        <time>2022-06-25T10:08:04Z</time>
      </trkpt>
      <trkpt lat="46.448" lon="4.77024">
        <ele>286.4</ele>
        <time>2022-06-25T10:08:05Z</time>
      </trkpt>
      <trkpt lat="46.44794" lon="4.7702">
        <ele>286.6</ele>
        <time>2022-06-25T10:08:06Z</time>
      </trkpt>
      <trkpt lat="46.44788" lon="4.77017">
        <ele>286.6</ele>
        <time>2022-06-25T10:08:07Z</time>
      </trkpt>
      <trkpt lat="46.44782" lon="4.77014">
        <ele>286.6</ele>
        <time>2022-06-25T10:08:08Z</time>
      </trkpt>
      <trkpt lat="46.44776" lon="4.7701">
        <ele>286.6</ele>
        <time>2022-06-25T10:08:09Z</time>
      </trkpt>
      <trkpt lat="46.44771" lon="4.77007">
        <ele>286.6</ele>
        <time>2022-06-25T10:08:10Z</time>
      </trkpt>
      <trkpt lat="46.44765" lon="4.77003">
        <ele>286.8</ele>
        <time>2022-06-25T10:08:11Z</time>
      </trkpt>
      <trkpt lat="46.4476" lon="4.76999">
        <ele>286.8</ele>
        <time>2022-06-25T10:08:12Z</time>
      </trkpt>
      <trkpt lat="46.44754" lon="4.76996">
        <ele>287</ele>
        <time>2022-06-25T10:08:13Z</time>
      </trkpt>
      <trkpt lat="46.44749" lon="4.76992">
        <ele>287</ele>
        <time>2022-06-25T10:08:14Z</time>
      </trkpt>
      <trkpt lat="46.44744" lon="4.76989">
        <ele>287</ele>
        <time>2022-06-25T10:08:15Z</time>
      </trkpt>
      <trkpt lat="46.44739" lon="4.76985">
        <ele>287.2</ele>
        <time>2022-06-25T10:08:16Z</time>
      </trkpt>
      <trkpt lat="46.44734" lon="4.76982">
        <ele>287.2</ele>
        <time>2022-06-25T10:08:17Z</time>
      </trkpt>
      <trkpt lat="46.44729" lon="4.76978">
        <ele>287.6</ele>
        <time>2022-06-25T10:08:18Z</time>
      </trkpt>
      <trkpt lat="46.44724" lon="4.76974">
        <ele>287.6</ele>
        <time>2022-06-25T10:08:19Z</time>
      </trkpt>
      <trkpt lat="46.44719" lon="4.76971">
        <ele>287.8</ele>
        <time>2022-06-25T10:08:20Z</time>
      </trkpt>
      <trkpt lat="46.44714" lon="4.76967">
        <ele>287.8</ele>
        <time>2022-06-25T10:08:21Z</time>
      </trkpt>
      <trkpt lat="46.44709" lon="4.76964">
        <ele>287.8</ele>
        <time>2022-06-25T10:08:22Z</time>
      </trkpt>
      <trkpt lat="46.44704" lon="4.7696">
        <ele>288.2</ele>
        <time>2022-06-25T10:08:23Z</time>
      </trkpt>
      <trkpt lat="46.44699" lon="4.76957">
        <ele>288.2</ele>
        <time>2022-06-25T10:08:24Z</time>
      </trkpt>
      <trkpt lat="46.44694" lon="4.76953">
        <ele>288.4</ele>
        <time>2022-06-25T10:08:25Z</time>
      </trkpt>
      <trkpt lat="46.44689" lon="4.76949">
        <ele>288.4</ele>
        <time>2022-06-25T10:08:26Z</time>
      </trkpt>
      <trkpt lat="46.44684" lon="4.76946">
        <ele>288.6</ele>
        <time>2022-06-25T10:08:27Z</time>
      </trkpt>
      <trkpt lat="46.44679" lon="4.76942">
        <ele>288.6</ele>
        <time>2022-06-25T10:08:28Z</time>
      </trkpt>
      <trkpt lat="46.44674" lon="4.76938">
        <ele>289</ele>
        <time>2022-06-25T10:08:29Z</time>
      </trkpt>
      <trkpt lat="46.4467" lon="4.76934">
        <ele>289.2</ele>
        <time>2022-06-25T10:08:30Z</time>
      </trkpt>
      <trkpt lat="46.44665" lon="4.7693">
        <ele>289.2</ele>
        <time>2022-06-25T10:08:31Z</time>
      </trkpt>
      <trkpt lat="46.4466" lon="4.76926">
        <ele>289.2</ele>
        <time>2022-06-25T10:08:32Z</time>
      </trkpt>
      <trkpt lat="46.44655" lon="4.76922">
        <ele>289.6</ele>
        <time>2022-06-25T10:08:33Z</time>
      </trkpt>
      <trkpt lat="46.4465" lon="4.76917">
        <ele>289.6</ele>
        <time>2022-06-25T10:08:34Z</time>
      </trkpt>
      <trkpt lat="46.44645" lon="4.76913">
        <ele>289.8</ele>
        <time>2022-06-25T10:08:35Z</time>
      </trkpt>
      <trkpt lat="46.44639" lon="4.76909">
        <ele>289.8</ele>
        <time>2022-06-25T10:08:36Z</time>
      </trkpt>
      <trkpt lat="46.44634" lon="4.76905">
        <ele>289.8</ele>
        <time>2022-06-25T10:08:37Z</time>
      </trkpt>
      <trkpt lat="46.44629" lon="4.769">
        <ele>289.8</ele>
        <time>2022-06-25T10:08:38Z</time>
      </trkpt>
      <trkpt lat="46.44624" lon="4.76896">
        <ele>289.8</ele>
        <time>2022-06-25T10:08:39Z</time>
      </trkpt>
      <trkpt lat="46.44619" lon="4.76892">
        <ele>289.8</ele>
        <time>2022-06-25T10:08:40Z</time>
      </trkpt>
      <trkpt lat="46.44614" lon="4.76887">
        <ele>289.8</ele>
        <time>2022-06-25T10:08:41Z</time>
      </trkpt>
      <trkpt lat="46.44608" lon="4.76883">
        <ele>289.8</ele>
        <time>2022-06-25T10:08:42Z</time>
      </trkpt>
      <trkpt lat="46.44603" lon="4.76878">
        <ele>289.8</ele>
        <time>2022-06-25T10:08:43Z</time>
      </trkpt>
      <trkpt lat="46.44598" lon="4.76874">
        <ele>289.8</ele>
        <time>2022-06-25T10:08:44Z</time>
      </trkpt>
      <trkpt lat="46.44593" lon="4.76869">
        <ele>289.8</ele>
        <time>2022-06-25T10:08:45Z</time>
      </trkpt>
      <trkpt lat="46.44587" lon="4.76865">
        <ele>289.8</ele>
        <time>2022-06-25T10:08:46Z</time>
      </trkpt>
      <trkpt lat="46.44582" lon="4.76861">
        <ele>289.8</ele>
        <time>2022-06-25T10:08:47Z</time>
      </trkpt>
      <trkpt lat="46.44577" lon="4.76857">
        <ele>289.8</ele>
        <time>2022-06-25T10:08:48Z</time>
      </trkpt>
      <trkpt lat="46.44571" lon="4.76853">
        <ele>289.8</ele>
        <time>2022-06-25T10:08:49Z</time>
      </trkpt>
      <trkpt lat="46.44566" lon="4.7685">
        <ele>289.8</ele>
        <time>2022-06-25T10:08:50Z</time>
      </trkpt>
      <trkpt lat="46.4456" lon="4.76846">
        <ele>290</ele>
        <time>2022-06-25T10:08:51Z</time>
      </trkpt>
      <trkpt lat="46.44555" lon="4.76843">
        <ele>290</ele>
        <time>2022-06-25T10:08:52Z</time>
      </trkpt>
      <trkpt lat="46.4455" lon="4.7684">
        <ele>290</ele>
        <time>2022-06-25T10:08:53Z</time>
      </trkpt>
      <trkpt lat="46.44544" lon="4.76836">
        <ele>290</ele>
        <time>2022-06-25T10:08:54Z</time>
      </trkpt>
      <trkpt lat="46.44539" lon="4.76833">
        <ele>290</ele>
        <time>2022-06-25T10:08:55Z</time>
      </trkpt>
      <trkpt lat="46.44533" lon="4.7683">
        <ele>290.6</ele>
        <time>2022-06-25T10:08:56Z</time>
      </trkpt>
      <trkpt lat="46.44528" lon="4.76828">
        <ele>290.6</ele>
        <time>2022-06-25T10:08:57Z</time>
      </trkpt>
      <trkpt lat="46.44522" lon="4.76825">
        <ele>290.6</ele>
        <time>2022-06-25T10:08:58Z</time>
      </trkpt>
      <trkpt lat="46.44517" lon="4.76822">
        <ele>290.4</ele>
        <time>2022-06-25T10:08:59Z</time>
      </trkpt>
      <trkpt lat="46.44511" lon="4.76819">
        <ele>290.4</ele>
        <time>2022-06-25T10:09:00Z</time>
      </trkpt>
      <trkpt lat="46.44506" lon="4.76817">
        <ele>290.4</ele>
        <time>2022-06-25T10:09:01Z</time>
      </trkpt>
      <trkpt lat="46.445" lon="4.76814">
        <ele>290.2</ele>
        <time>2022-06-25T10:09:02Z</time>
      </trkpt>
      <trkpt lat="46.44494" lon="4.76811">
        <ele>290.2</ele>
        <time>2022-06-25T10:09:03Z</time>
      </trkpt>
      <trkpt lat="46.44488" lon="4.76808">
        <ele>290.2</ele>
        <time>2022-06-25T10:09:04Z</time>
      </trkpt>
      <trkpt lat="46.44482" lon="4.76805">
        <ele>290.2</ele>
        <time>2022-06-25T10:09:05Z</time>
      </trkpt>
      <trkpt lat="46.44476" lon="4.76802">
        <ele>290.2</ele>
        <time>2022-06-25T10:09:06Z</time>
      </trkpt>
      <trkpt lat="46.4447" lon="4.76799">
        <ele>290.2</ele>
        <time>2022-06-25T10:09:07Z</time>
      </trkpt>
      <trkpt lat="46.44464" lon="4.76796">
        <ele>290.2</ele>
        <time>2022-06-25T10:09:08Z</time>
      </trkpt>
      <trkpt lat="46.44458" lon="4.76793">
        <ele>290.2</ele>
        <time>2022-06-25T10:09:09Z</time>
      </trkpt>
      <trkpt lat="46.44451" lon="4.7679">
        <ele>290.2</ele>
        <time>2022-06-25T10:09:10Z</time>
      </trkpt>
      <trkpt lat="46.44445" lon="4.76787">
        <ele>290</ele>
        <time>2022-06-25T10:09:11Z</time>
      </trkpt>
      <trkpt lat="46.44439" lon="4.76784">
        <ele>290</ele>
        <time>2022-06-25T10:09:12Z</time>
      </trkpt>
      <trkpt lat="46.44433" lon="4.76781">
        <ele>290</ele>
        <time>2022-06-25T10:09:13Z</time>
      </trkpt>
      <trkpt lat="46.44426" lon="4.76778">
        <ele>290</ele>
        <time>2022-06-25T10:09:14Z</time>
      </trkpt>
      <trkpt lat="46.4442" lon="4.76775">
        <ele>290</ele>
        <time>2022-06-25T10:09:15Z</time>
      </trkpt>
      <trkpt lat="46.44414" lon="4.76772">
        <ele>290</ele>
        <time>2022-06-25T10:09:16Z</time>
      </trkpt>
      <trkpt lat="46.44407" lon="4.76769">
        <ele>290</ele>
        <time>2022-06-25T10:09:17Z</time>
      </trkpt>
      <trkpt lat="46.44401" lon="4.76765">
        <ele>289.8</ele>
        <time>2022-06-25T10:09:18Z</time>
      </trkpt>
      <trkpt lat="46.44394" lon="4.76762">
        <ele>289.8</ele>
        <time>2022-06-25T10:09:19Z</time>
      </trkpt>
      <trkpt lat="46.44388" lon="4.7676">
        <ele>289.8</ele>
        <time>2022-06-25T10:09:20Z</time>
      </trkpt>
      <trkpt lat="46.44381" lon="4.76757">
        <ele>289.4</ele>
        <time>2022-06-25T10:09:21Z</time>
      </trkpt>
      <trkpt lat="46.44375" lon="4.76754">
        <ele>289.4</ele>
        <time>2022-06-25T10:09:22Z</time>
      </trkpt>
      <trkpt lat="46.44368" lon="4.76751">
        <ele>289.4</ele>
        <time>2022-06-25T10:09:23Z</time>
      </trkpt>
      <trkpt lat="46.44361" lon="4.76748">
        <ele>289.2</ele>
        <time>2022-06-25T10:09:24Z</time>
      </trkpt>
      <trkpt lat="46.44354" lon="4.76745">
        <ele>289.2</ele>
        <time>2022-06-25T10:09:25Z</time>
      </trkpt>
      <trkpt lat="46.44347" lon="4.76742">
        <ele>289</ele>
        <time>2022-06-25T10:09:26Z</time>
      </trkpt>
      <trkpt lat="46.4434" lon="4.76739">
        <ele>289</ele>
        <time>2022-06-25T10:09:27Z</time>
      </trkpt>
      <trkpt lat="46.44333" lon="4.76735">
        <ele>288.6</ele>
        <time>2022-06-25T10:09:28Z</time>
      </trkpt>
      <trkpt lat="46.44326" lon="4.76732">
        <ele>288.6</ele>
        <time>2022-06-25T10:09:29Z</time>
      </trkpt>
      <trkpt lat="46.44318" lon="4.76729">
        <ele>288.4</ele>
        <time>2022-06-25T10:09:30Z</time>
      </trkpt>
      <trkpt lat="46.44311" lon="4.76727">
        <ele>288.4</ele>
        <time>2022-06-25T10:09:31Z</time>
      </trkpt>
      <trkpt lat="46.44303" lon="4.76724">
        <ele>288</ele>
        <time>2022-06-25T10:09:32Z</time>
      </trkpt>
      <trkpt lat="46.44295" lon="4.76721">
        <ele>288</ele>
        <time>2022-06-25T10:09:33Z</time>
      </trkpt>
      <trkpt lat="46.44287" lon="4.76717">
        <ele>287.6</ele>
        <time>2022-06-25T10:09:34Z</time>
      </trkpt>
      <trkpt lat="46.44279" lon="4.76714">
        <ele>287.2</ele>
        <time>2022-06-25T10:09:35Z</time>
      </trkpt>
      <trkpt lat="46.44272" lon="4.76711">
        <ele>287</ele>
        <time>2022-06-25T10:09:36Z</time>
      </trkpt>
      <trkpt lat="46.44264" lon="4.76707">
        <ele>286.8</ele>
        <time>2022-06-25T10:09:37Z</time>
      </trkpt>
      <trkpt lat="46.44256" lon="4.76704">
        <ele>286.4</ele>
        <time>2022-06-25T10:09:38Z</time>
      </trkpt>
      <trkpt lat="46.44249" lon="4.767">
        <ele>286.2</ele>
        <time>2022-06-25T10:09:39Z</time>
      </trkpt>
      <trkpt lat="46.44241" lon="4.76696">
        <ele>286</ele>
        <time>2022-06-25T10:09:40Z</time>
      </trkpt>
      <trkpt lat="46.44233" lon="4.76691">
        <ele>285.6</ele>
        <time>2022-06-25T10:09:41Z</time>
      </trkpt>
      <trkpt lat="46.44226" lon="4.76687">
        <ele>285.4</ele>
        <time>2022-06-25T10:09:42Z</time>
      </trkpt>
      <trkpt lat="46.44218" lon="4.76683">
        <ele>285</ele>
        <time>2022-06-25T10:09:43Z</time>
      </trkpt>
      <trkpt lat="46.4421" lon="4.76678">
        <ele>284.8</ele>
        <time>2022-06-25T10:09:44Z</time>
      </trkpt>
      <trkpt lat="46.44203" lon="4.76673">
        <ele>284.6</ele>
        <time>2022-06-25T10:09:45Z</time>
      </trkpt>
      <trkpt lat="46.44195" lon="4.76668">
        <ele>284.4</ele>
        <time>2022-06-25T10:09:46Z</time>
      </trkpt>
      <trkpt lat="46.44187" lon="4.76664">
        <ele>284</ele>
        <time>2022-06-25T10:09:47Z</time>
      </trkpt>
      <trkpt lat="46.44179" lon="4.76659">
        <ele>283.8</ele>
        <time>2022-06-25T10:09:48Z</time>
      </trkpt>
      <trkpt lat="46.44171" lon="4.76654">
        <ele>283.4</ele>
        <time>2022-06-25T10:09:49Z</time>
      </trkpt>
      <trkpt lat="46.44163" lon="4.76648">
        <ele>283.2</ele>
        <time>2022-06-25T10:09:50Z</time>
      </trkpt>
      <trkpt lat="46.44155" lon="4.76643">
        <ele>282.8</ele>
        <time>2022-06-25T10:09:51Z</time>
      </trkpt>
      <trkpt lat="46.44147" lon="4.76638">
        <ele>282.4</ele>
        <time>2022-06-25T10:09:52Z</time>
      </trkpt>
      <trkpt lat="46.44139" lon="4.76633">
        <ele>282.2</ele>
        <time>2022-06-25T10:09:53Z</time>
      </trkpt>
      <trkpt lat="46.44131" lon="4.76628">
        <ele>281.8</ele>
        <time>2022-06-25T10:09:54Z</time>
      </trkpt>
      <trkpt lat="46.44122" lon="4.76623">
        <ele>281.4</ele>
        <time>2022-06-25T10:09:55Z</time>
      </trkpt>
      <trkpt lat="46.44114" lon="4.76617">
        <ele>281</ele>
        <time>2022-06-25T10:09:56Z</time>
      </trkpt>
      <trkpt lat="46.44105" lon="4.76613">
        <ele>280.6</ele>
        <time>2022-06-25T10:09:57Z</time>
      </trkpt>
      <trkpt lat="46.44097" lon="4.76607">
        <ele>280.2</ele>
        <time>2022-06-25T10:09:58Z</time>
      </trkpt>
      <trkpt lat="46.44088" lon="4.76601">
        <ele>279.8</ele>
        <time>2022-06-25T10:09:59Z</time>
      </trkpt>
      <trkpt lat="46.44079" lon="4.76595">
        <ele>279.4</ele>
        <time>2022-06-25T10:10:00Z</time>
      </trkpt>
      <trkpt lat="46.44071" lon="4.76589">
        <ele>278.8</ele>
        <time>2022-06-25T10:10:01Z</time>
      </trkpt>
      <trkpt lat="46.44063" lon="4.76585">
        <ele>278.4</ele>
        <time>2022-06-25T10:10:02Z</time>
      </trkpt>
      <trkpt lat="46.44054" lon="4.7658">
        <ele>278.2</ele>
        <time>2022-06-25T10:10:03Z</time>
      </trkpt>
      <trkpt lat="46.44046" lon="4.76577">
        <ele>278.2</ele>
        <time>2022-06-25T10:10:04Z</time>
      </trkpt>
      <trkpt lat="46.44038" lon="4.76573">
        <ele>277.6</ele>
        <time>2022-06-25T10:10:05Z</time>
      </trkpt>
      <trkpt lat="46.4403" lon="4.7657">
        <ele>277.2</ele>
        <time>2022-06-25T10:10:06Z</time>
      </trkpt>
      <trkpt lat="46.44022" lon="4.76567">
        <ele>277.2</ele>
        <time>2022-06-25T10:10:07Z</time>
      </trkpt>
      <trkpt lat="46.44014" lon="4.76564">
        <ele>277</ele>
        <time>2022-06-25T10:10:08Z</time>
      </trkpt>
      <trkpt lat="46.44006" lon="4.76563">
        <ele>276.6</ele>
        <time>2022-06-25T10:10:09Z</time>
      </trkpt>
      <trkpt lat="46.43998" lon="4.76562">
        <ele>275.6</ele>
        <time>2022-06-25T10:10:11Z</time>
      </trkpt>
      <trkpt lat="46.43989" lon="4.76562">
        <ele>275.4</ele>
        <time>2022-06-25T10:10:12Z</time>
      </trkpt>
      <trkpt lat="46.43981" lon="4.76564">
        <ele>275</ele>
        <time>2022-06-25T10:10:13Z</time>
      </trkpt>
      <trkpt lat="46.43973" lon="4.76567">
        <ele>274.6</ele>
        <time>2022-06-25T10:10:14Z</time>
      </trkpt>
      <trkpt lat="46.43965" lon="4.7657">
        <ele>274</ele>
        <time>2022-06-25T10:10:15Z</time>
      </trkpt>
      <trkpt lat="46.43957" lon="4.76574">
        <ele>273.6</ele>
        <time>2022-06-25T10:10:16Z</time>
      </trkpt>
      <trkpt lat="46.43949" lon="4.76579">
        <ele>273.2</ele>
        <time>2022-06-25T10:10:17Z</time>
      </trkpt>
      <trkpt lat="46.43942" lon="4.76585">
        <ele>272.8</ele>
        <time>2022-06-25T10:10:18Z</time>
      </trkpt>
      <trkpt lat="46.43934" lon="4.76589">
        <ele>272.4</ele>
        <time>2022-06-25T10:10:19Z</time>
      </trkpt>
      <trkpt lat="46.43927" lon="4.76594">
        <ele>271.8</ele>
        <time>2022-06-25T10:10:20Z</time>
      </trkpt>
      <trkpt lat="46.4392" lon="4.76599">
        <ele>271.4</ele>
        <time>2022-06-25T10:10:21Z</time>
      </trkpt>
      <trkpt lat="46.43914" lon="4.76603">
        <ele>271</ele>
        <time>2022-06-25T10:10:22Z</time>
      </trkpt>
      <trkpt lat="46.43908" lon="4.76607">
        <ele>270.6</ele>
        <time>2022-06-25T10:10:23Z</time>
      </trkpt>
      <trkpt lat="46.43902" lon="4.7661">
        <ele>270.2</ele>
        <time>2022-06-25T10:10:24Z</time>
      </trkpt>
      <trkpt lat="46.43896" lon="4.76612">
        <ele>269.8</ele>
        <time>2022-06-25T10:10:25Z</time>
      </trkpt>
      <trkpt lat="46.43886" lon="4.76611">
        <ele>269.4</ele>
        <time>2022-06-25T10:10:26Z</time>
      </trkpt>
      <trkpt lat="46.43882" lon="4.76609">
        <ele>269</ele>
        <time>2022-06-25T10:10:27Z</time>
      </trkpt>
      <trkpt lat="46.43879" lon="4.76605">
        <ele>268.8</ele>
        <time>2022-06-25T10:10:28Z</time>
      </trkpt>
      <trkpt lat="46.43877" lon="4.76599">
        <ele>268.6</ele>
        <time>2022-06-25T10:10:29Z</time>
      </trkpt>
      <trkpt lat="46.43876" lon="4.76592">
        <ele>268.4</ele>
        <time>2022-06-25T10:10:30Z</time>
      </trkpt>
      <trkpt lat="46.43875" lon="4.76585">
        <ele>268.2</ele>
        <time>2022-06-25T10:10:31Z</time>
      </trkpt>
      <trkpt lat="46.43874" lon="4.76577">
        <ele>268.2</ele>
        <time>2022-06-25T10:10:32Z</time>
      </trkpt>
      <trkpt lat="46.43872" lon="4.76569">
        <ele>267.6</ele>
        <time>2022-06-25T10:10:33Z</time>
      </trkpt>
      <trkpt lat="46.43871" lon="4.76562">
        <ele>267.4</ele>
        <time>2022-06-25T10:10:35Z</time>
      </trkpt>
      <trkpt lat="46.43869" lon="4.76553">
        <ele>267.2</ele>
        <time>2022-06-25T10:10:36Z</time>
      </trkpt>
      <trkpt lat="46.43867" lon="4.76545">
        <ele>267.2</ele>
        <time>2022-06-25T10:10:37Z</time>
      </trkpt>
      <trkpt lat="46.43865" lon="4.76536">
        <ele>266.8</ele>
        <time>2022-06-25T10:10:38Z</time>
      </trkpt>
      <trkpt lat="46.43862" lon="4.76528">
        <ele>266.6</ele>
        <time>2022-06-25T10:10:39Z</time>
      </trkpt>
      <trkpt lat="46.43858" lon="4.7652">
        <ele>266.6</ele>
        <time>2022-06-25T10:10:40Z</time>
      </trkpt>
      <trkpt lat="46.43854" lon="4.76511">
        <ele>266.2</ele>
        <time>2022-06-25T10:10:41Z</time>
      </trkpt>
      <trkpt lat="46.4385" lon="4.76503">
        <ele>266</ele>
        <time>2022-06-25T10:10:42Z</time>
      </trkpt>
      <trkpt lat="46.43845" lon="4.76495">
        <ele>266</ele>
        <time>2022-06-25T10:10:43Z</time>
      </trkpt>
      <trkpt lat="46.4384" lon="4.76487">
        <ele>265.4</ele>
        <time>2022-06-25T10:10:44Z</time>
      </trkpt>
      <trkpt lat="46.43835" lon="4.7648">
        <ele>265.2</ele>
        <time>2022-06-25T10:10:45Z</time>
      </trkpt>
      <trkpt lat="46.43829" lon="4.76472">
        <ele>264.8</ele>
        <time>2022-06-25T10:10:46Z</time>
      </trkpt>
      <trkpt lat="46.43823" lon="4.76465">
        <ele>264.6</ele>
        <time>2022-06-25T10:10:47Z</time>
      </trkpt>
      <trkpt lat="46.43817" lon="4.76457">
        <ele>264.2</ele>
        <time>2022-06-25T10:10:48Z</time>
      </trkpt>
      <trkpt lat="46.43811" lon="4.76449">
        <ele>263.8</ele>
        <time>2022-06-25T10:10:49Z</time>
      </trkpt>
      <trkpt lat="46.43805" lon="4.76441">
        <ele>263.6</ele>
        <time>2022-06-25T10:10:50Z</time>
      </trkpt>
      <trkpt lat="46.438" lon="4.76432">
        <ele>263.2</ele>
        <time>2022-06-25T10:10:51Z</time>
      </trkpt>
      <trkpt lat="46.43794" lon="4.76422">
        <ele>263</ele>
        <time>2022-06-25T10:10:52Z</time>
      </trkpt>
      <trkpt lat="46.43789" lon="4.76412">
        <ele>262.8</ele>
        <time>2022-06-25T10:10:53Z</time>
      </trkpt>
      <trkpt lat="46.43784" lon="4.76402">
        <ele>262.6</ele>
        <time>2022-06-25T10:10:54Z</time>
      </trkpt>
      <trkpt lat="46.43779" lon="4.76392">
        <ele>262.6</ele>
        <time>2022-06-25T10:10:55Z</time>
      </trkpt>
      <trkpt lat="46.43774" lon="4.76382">
        <ele>262.2</ele>
        <time>2022-06-25T10:10:56Z</time>
      </trkpt>
      <trkpt lat="46.43768" lon="4.76372">
        <ele>262.2</ele>
        <time>2022-06-25T10:10:57Z</time>
      </trkpt>
      <trkpt lat="46.43763" lon="4.76363">
        <ele>261.8</ele>
        <time>2022-06-25T10:10:58Z</time>
      </trkpt>
      <trkpt lat="46.43757" lon="4.76355">
        <ele>261.6</ele>
        <time>2022-06-25T10:10:59Z</time>
      </trkpt>
      <trkpt lat="46.43752" lon="4.76346">
        <ele>261.6</ele>
        <time>2022-06-25T10:11:00Z</time>
      </trkpt>
      <trkpt lat="46.43747" lon="4.76339">
        <ele>261.2</ele>
        <time>2022-06-25T10:11:01Z</time>
      </trkpt>
      <trkpt lat="46.43742" lon="4.76331">
        <ele>260.8</ele>
        <time>2022-06-25T10:11:02Z</time>
      </trkpt>
      <trkpt lat="46.43734" lon="4.76318">
        <ele>260.8</ele>
        <time>2022-06-25T10:11:03Z</time>
      </trkpt>
      <trkpt lat="46.43731" lon="4.76313">
        <ele>260.8</ele>
        <time>2022-06-25T10:11:04Z</time>
      </trkpt>
      <trkpt lat="46.43724" lon="4.76303">
        <ele>260.8</ele>
        <time>2022-06-25T10:11:05Z</time>
      </trkpt>
      <trkpt lat="46.4372" lon="4.76296">
        <ele>260.8</ele>
        <time>2022-06-25T10:11:06Z</time>
      </trkpt>
      <trkpt lat="46.43716" lon="4.7629">
        <ele>260.8</ele>
        <time>2022-06-25T10:11:07Z</time>
      </trkpt>
      <trkpt lat="46.43711" lon="4.76284">
        <ele>260.8</ele>
        <time>2022-06-25T10:11:08Z</time>
      </trkpt>
      <trkpt lat="46.43707" lon="4.76278">
        <ele>260.8</ele>
        <time>2022-06-25T10:11:09Z</time>
      </trkpt>
      <trkpt lat="46.43703" lon="4.76271">
        <ele>260.8</ele>
        <time>2022-06-25T10:11:10Z</time>
      </trkpt>
      <trkpt lat="46.43699" lon="4.76265">
        <ele>260.8</ele>
        <time>2022-06-25T10:11:11Z</time>
      </trkpt>
      <trkpt lat="46.43696" lon="4.76259">
        <ele>261</ele>
        <time>2022-06-25T10:11:12Z</time>
      </trkpt>
      <trkpt lat="46.43692" lon="4.76253">
        <ele>261</ele>
        <time>2022-06-25T10:11:13Z</time>
      </trkpt>
      <trkpt lat="46.43688" lon="4.76247">
        <ele>261</ele>
        <time>2022-06-25T10:11:14Z</time>
      </trkpt>
      <trkpt lat="46.43685" lon="4.76241">
        <ele>261</ele>
        <time>2022-06-25T10:11:15Z</time>
      </trkpt>
      <trkpt lat="46.43681" lon="4.76235">
        <ele>261</ele>
        <time>2022-06-25T10:11:16Z</time>
      </trkpt>
      <trkpt lat="46.43677" lon="4.76229">
        <ele>261.2</ele>
        <time>2022-06-25T10:11:17Z</time>
      </trkpt>
      <trkpt lat="46.43673" lon="4.76224">
        <ele>261.2</ele>
        <time>2022-06-25T10:11:18Z</time>
      </trkpt>
      <trkpt lat="46.43669" lon="4.7622">
        <ele>261.2</ele>
        <time>2022-06-25T10:11:19Z</time>
      </trkpt>
      <trkpt lat="46.43664" lon="4.76215">
        <ele>261.4</ele>
        <time>2022-06-25T10:11:20Z</time>
      </trkpt>
      <trkpt lat="46.4366" lon="4.76212">
        <ele>261.4</ele>
        <time>2022-06-25T10:11:21Z</time>
      </trkpt>
      <trkpt lat="46.43654" lon="4.76209">
        <ele>261.4</ele>
        <time>2022-06-25T10:11:22Z</time>
      </trkpt>
      <trkpt lat="46.43649" lon="4.76207">
        <ele>261.4</ele>
        <time>2022-06-25T10:11:23Z</time>
      </trkpt>
      <trkpt lat="46.43644" lon="4.76205">
        <ele>261.8</ele>
        <time>2022-06-25T10:11:24Z</time>
      </trkpt>
      <trkpt lat="46.43639" lon="4.76203">
        <ele>261.8</ele>
        <time>2022-06-25T10:11:25Z</time>
      </trkpt>
      <trkpt lat="46.43634" lon="4.76202">
        <ele>262.2</ele>
        <time>2022-06-25T10:11:26Z</time>
      </trkpt>
      <trkpt lat="46.4363" lon="4.762">
        <ele>262.2</ele>
        <time>2022-06-25T10:11:27Z</time>
      </trkpt>
      <trkpt lat="46.43625" lon="4.76198">
        <ele>262.4</ele>
        <time>2022-06-25T10:11:28Z</time>
      </trkpt>
      <trkpt lat="46.43621" lon="4.76196">
        <ele>262.4</ele>
        <time>2022-06-25T10:11:29Z</time>
      </trkpt>
      <trkpt lat="46.43616" lon="4.76195">
        <ele>262.8</ele>
        <time>2022-06-25T10:11:30Z</time>
      </trkpt>
      <trkpt lat="46.43612" lon="4.76194">
        <ele>262.8</ele>
        <time>2022-06-25T10:11:31Z</time>
      </trkpt>
      <trkpt lat="46.43608" lon="4.76192">
        <ele>262.8</ele>
        <time>2022-06-25T10:11:32Z</time>
      </trkpt>
      <trkpt lat="46.43603" lon="4.7619">
        <ele>263</ele>
        <time>2022-06-25T10:11:33Z</time>
      </trkpt>
      <trkpt lat="46.43598" lon="4.76188">
        <ele>263</ele>
        <time>2022-06-25T10:11:34Z</time>
      </trkpt>
      <trkpt lat="46.43593" lon="4.76186">
        <ele>263</ele>
        <time>2022-06-25T10:11:35Z</time>
      </trkpt>
      <trkpt lat="46.43588" lon="4.76185">
        <ele>263</ele>
        <time>2022-06-25T10:11:36Z</time>
      </trkpt>
      <trkpt lat="46.43582" lon="4.76183">
        <ele>263</ele>
        <time>2022-06-25T10:11:37Z</time>
      </trkpt>
      <trkpt lat="46.43577" lon="4.76182">
        <ele>262.8</ele>
        <time>2022-06-25T10:11:38Z</time>
      </trkpt>
      <trkpt lat="46.43571" lon="4.7618">
        <ele>262.8</ele>
        <time>2022-06-25T10:11:39Z</time>
      </trkpt>
      <trkpt lat="46.43565" lon="4.76179">
        <ele>262.8</ele>
        <time>2022-06-25T10:11:40Z</time>
      </trkpt>
      <trkpt lat="46.43559" lon="4.76177">
        <ele>262.8</ele>
        <time>2022-06-25T10:11:41Z</time>
      </trkpt>
      <trkpt lat="46.43553" lon="4.76175">
        <ele>262.8</ele>
        <time>2022-06-25T10:11:42Z</time>
      </trkpt>
      <trkpt lat="46.43547" lon="4.76174">
        <ele>262.8</ele>
        <time>2022-06-25T10:11:43Z</time>
      </trkpt>
      <trkpt lat="46.43541" lon="4.76172">
        <ele>262.8</ele>
        <time>2022-06-25T10:11:44Z</time>
      </trkpt>
      <trkpt lat="46.43535" lon="4.7617">
        <ele>262.8</ele>
        <time>2022-06-25T10:11:45Z</time>
      </trkpt>
      <trkpt lat="46.43529" lon="4.76168">
        <ele>262.8</ele>
        <time>2022-06-25T10:11:46Z</time>
      </trkpt>
      <trkpt lat="46.43523" lon="4.76166">
        <ele>262.8</ele>
        <time>2022-06-25T10:11:47Z</time>
      </trkpt>
      <trkpt lat="46.43517" lon="4.76164">
        <ele>262.8</ele>
        <time>2022-06-25T10:11:48Z</time>
      </trkpt>
      <trkpt lat="46.4351" lon="4.76163">
        <ele>262.8</ele>
        <time>2022-06-25T10:11:49Z</time>
      </trkpt>
      <trkpt lat="46.43504" lon="4.76162">
        <ele>262.8</ele>
        <time>2022-06-25T10:11:50Z</time>
      </trkpt>
      <trkpt lat="46.43498" lon="4.7616">
        <ele>262.8</ele>
        <time>2022-06-25T10:11:51Z</time>
      </trkpt>
      <trkpt lat="46.43492" lon="4.76159">
        <ele>262.8</ele>
        <time>2022-06-25T10:11:52Z</time>
      </trkpt>
      <trkpt lat="46.43486" lon="4.76157">
        <ele>262.8</ele>
        <time>2022-06-25T10:11:53Z</time>
      </trkpt>
      <trkpt lat="46.4348" lon="4.76156">
        <ele>262.8</ele>
        <time>2022-06-25T10:11:54Z</time>
      </trkpt>
      <trkpt lat="46.43474" lon="4.76154">
        <ele>262.8</ele>
        <time>2022-06-25T10:11:55Z</time>
      </trkpt>
      <trkpt lat="46.43468" lon="4.76153">
        <ele>262.8</ele>
        <time>2022-06-25T10:11:56Z</time>
      </trkpt>
      <trkpt lat="46.43463" lon="4.76151">
        <ele>262.8</ele>
        <time>2022-06-25T10:11:57Z</time>
      </trkpt>
      <trkpt lat="46.43457" lon="4.7615">
        <ele>262.8</ele>
        <time>2022-06-25T10:11:58Z</time>
      </trkpt>
      <trkpt lat="46.43451" lon="4.76148">
        <ele>262.8</ele>
        <time>2022-06-25T10:11:59Z</time>
      </trkpt>
      <trkpt lat="46.43445" lon="4.76146">
        <ele>263.2</ele>
        <time>2022-06-25T10:12:00Z</time>
      </trkpt>
      <trkpt lat="46.4344" lon="4.76144">
        <ele>263.2</ele>
        <time>2022-06-25T10:12:01Z</time>
      </trkpt>
      <trkpt lat="46.43435" lon="4.76143">
        <ele>263.4</ele>
        <time>2022-06-25T10:12:02Z</time>
      </trkpt>
      <trkpt lat="46.43429" lon="4.76141">
        <ele>263.4</ele>
        <time>2022-06-25T10:12:03Z</time>
      </trkpt>
      <trkpt lat="46.43424" lon="4.7614">
        <ele>263.4</ele>
        <time>2022-06-25T10:12:04Z</time>
      </trkpt>
      <trkpt lat="46.43419" lon="4.76138">
        <ele>263.4</ele>
        <time>2022-06-25T10:12:05Z</time>
      </trkpt>
      <trkpt lat="46.43413" lon="4.76137">
        <ele>263.4</ele>
        <time>2022-06-25T10:12:06Z</time>
      </trkpt>
      <trkpt lat="46.43408" lon="4.76135">
        <ele>263.4</ele>
        <time>2022-06-25T10:12:07Z</time>
      </trkpt>
      <trkpt lat="46.43403" lon="4.76134">
        <ele>263.4</ele>
        <time>2022-06-25T10:12:08Z</time>
      </trkpt>
      <trkpt lat="46.43397" lon="4.76132">
        <ele>263.6</ele>
        <time>2022-06-25T10:12:09Z</time>
      </trkpt>
      <trkpt lat="46.43392" lon="4.76131">
        <ele>263.6</ele>
        <time>2022-06-25T10:12:10Z</time>
      </trkpt>
      <trkpt lat="46.43387" lon="4.76129">
        <ele>263.6</ele>
        <time>2022-06-25T10:12:11Z</time>
      </trkpt>
      <trkpt lat="46.43382" lon="4.76128">
        <ele>263.6</ele>
        <time>2022-06-25T10:12:12Z</time>
      </trkpt>
      <trkpt lat="46.43376" lon="4.76126">
        <ele>263.8</ele>
        <time>2022-06-25T10:12:13Z</time>
      </trkpt>
      <trkpt lat="46.43371" lon="4.76124">
        <ele>263.8</ele>
        <time>2022-06-25T10:12:14Z</time>
      </trkpt>
      <trkpt lat="46.43366" lon="4.76122">
        <ele>263.8</ele>
        <time>2022-06-25T10:12:15Z</time>
      </trkpt>
      <trkpt lat="46.4336" lon="4.76121">
        <ele>263.8</ele>
        <time>2022-06-25T10:12:16Z</time>
      </trkpt>
      <trkpt lat="46.43355" lon="4.7612">
        <ele>263.8</ele>
        <time>2022-06-25T10:12:17Z</time>
      </trkpt>
      <trkpt lat="46.43349" lon="4.76118">
        <ele>263.8</ele>
        <time>2022-06-25T10:12:18Z</time>
      </trkpt>
      <trkpt lat="46.43344" lon="4.76116">
        <ele>263.8</ele>
        <time>2022-06-25T10:12:19Z</time>
      </trkpt>
      <trkpt lat="46.43338" lon="4.76114">
        <ele>263.8</ele>
        <time>2022-06-25T10:12:20Z</time>
      </trkpt>
      <trkpt lat="46.43332" lon="4.76112">
        <ele>263.8</ele>
        <time>2022-06-25T10:12:21Z</time>
      </trkpt>
      <trkpt lat="46.43327" lon="4.7611">
        <ele>263.8</ele>
        <time>2022-06-25T10:12:22Z</time>
      </trkpt>
      <trkpt lat="46.43321" lon="4.76109">
        <ele>263.8</ele>
        <time>2022-06-25T10:12:23Z</time>
      </trkpt>
      <trkpt lat="46.43315" lon="4.76107">
        <ele>263.8</ele>
        <time>2022-06-25T10:12:24Z</time>
      </trkpt>
      <trkpt lat="46.43309" lon="4.76106">
        <ele>263.8</ele>
        <time>2022-06-25T10:12:25Z</time>
      </trkpt>
      <trkpt lat="46.43304" lon="4.76104">
        <ele>263.6</ele>
        <time>2022-06-25T10:12:26Z</time>
      </trkpt>
      <trkpt lat="46.43298" lon="4.76103">
        <ele>263.6</ele>
        <time>2022-06-25T10:12:27Z</time>
      </trkpt>
      <trkpt lat="46.43292" lon="4.76101">
        <ele>263.6</ele>
        <time>2022-06-25T10:12:28Z</time>
      </trkpt>
      <trkpt lat="46.43287" lon="4.761">
        <ele>263.6</ele>
        <time>2022-06-25T10:12:29Z</time>
      </trkpt>
      <trkpt lat="46.43281" lon="4.76098">
        <ele>263.6</ele>
        <time>2022-06-25T10:12:30Z</time>
      </trkpt>
      <trkpt lat="46.43276" lon="4.76097">
        <ele>263.6</ele>
        <time>2022-06-25T10:12:31Z</time>
      </trkpt>
      <trkpt lat="46.4327" lon="4.76096">
        <ele>263.6</ele>
        <time>2022-06-25T10:12:32Z</time>
      </trkpt>
      <trkpt lat="46.43265" lon="4.76095">
        <ele>263.4</ele>
        <time>2022-06-25T10:12:33Z</time>
      </trkpt>
      <trkpt lat="46.43261" lon="4.76095">
        <ele>263.4</ele>
        <time>2022-06-25T10:12:34Z</time>
      </trkpt>
      <trkpt lat="46.43256" lon="4.76094">
        <ele>263.2</ele>
        <time>2022-06-25T10:12:35Z</time>
      </trkpt>
      <trkpt lat="46.43253" lon="4.76093">
        <ele>263.2</ele>
        <time>2022-06-25T10:12:36Z</time>
      </trkpt>
      <trkpt lat="46.43249" lon="4.76093">
        <ele>263</ele>
        <time>2022-06-25T10:12:37Z</time>
      </trkpt>
      <trkpt lat="46.43245" lon="4.76092">
        <ele>263</ele>
        <time>2022-06-25T10:12:38Z</time>
      </trkpt>
      <trkpt lat="46.43242" lon="4.76091">
        <ele>263</ele>
        <time>2022-06-25T10:12:39Z</time>
      </trkpt>
      <trkpt lat="46.43239" lon="4.76091">
        <ele>262.8</ele>
        <time>2022-06-25T10:12:40Z</time>
      </trkpt>
      <trkpt lat="46.43236" lon="4.7609">
        <ele>262.8</ele>
        <time>2022-06-25T10:12:41Z</time>
      </trkpt>
      <trkpt lat="46.43234" lon="4.76089">
        <ele>262.8</ele>
        <time>2022-06-25T10:12:42Z</time>
      </trkpt>
      <trkpt lat="46.43231" lon="4.76088">
        <ele>262.4</ele>
        <time>2022-06-25T10:12:43Z</time>
      </trkpt>
      <trkpt lat="46.43229" lon="4.76088">
        <ele>262.4</ele>
        <time>2022-06-25T10:12:44Z</time>
      </trkpt>
      <trkpt lat="46.43226" lon="4.76087">
        <ele>262.4</ele>
        <time>2022-06-25T10:12:45Z</time>
      </trkpt>
      <trkpt lat="46.43223" lon="4.76086">
        <ele>262.4</ele>
        <time>2022-06-25T10:12:46Z</time>
      </trkpt>
      <trkpt lat="46.4322" lon="4.76085">
        <ele>262.4</ele>
        <time>2022-06-25T10:12:47Z</time>
      </trkpt>
      <trkpt lat="46.43217" lon="4.76085">
        <ele>262.2</ele>
        <time>2022-06-25T10:12:48Z</time>
      </trkpt>
      <trkpt lat="46.43214" lon="4.76084">
        <ele>262.2</ele>
        <time>2022-06-25T10:12:49Z</time>
      </trkpt>
      <trkpt lat="46.4321" lon="4.76084">
        <ele>262.2</ele>
        <time>2022-06-25T10:12:50Z</time>
      </trkpt>
      <trkpt lat="46.43207" lon="4.76084">
        <ele>262</ele>
        <time>2022-06-25T10:12:51Z</time>
      </trkpt>
      <trkpt lat="46.43203" lon="4.76084">
        <ele>262</ele>
        <time>2022-06-25T10:12:52Z</time>
      </trkpt>
      <trkpt lat="46.43199" lon="4.76084">
        <ele>262</ele>
        <time>2022-06-25T10:12:53Z</time>
      </trkpt>
      <trkpt lat="46.43196" lon="4.76085">
        <ele>261.6</ele>
        <time>2022-06-25T10:12:54Z</time>
      </trkpt>
      <trkpt lat="46.43192" lon="4.76085">
        <ele>261.6</ele>
        <time>2022-06-25T10:12:55Z</time>
      </trkpt>
      <trkpt lat="46.43188" lon="4.76086">
        <ele>261.4</ele>
        <time>2022-06-25T10:12:56Z</time>
      </trkpt>
      <trkpt lat="46.43184" lon="4.76088">
        <ele>261.4</ele>
        <time>2022-06-25T10:12:57Z</time>
      </trkpt>
      <trkpt lat="46.43181" lon="4.76089">
        <ele>261.4</ele>
        <time>2022-06-25T10:12:58Z</time>
      </trkpt>
      <trkpt lat="46.43177" lon="4.76092">
        <ele>261.2</ele>
        <time>2022-06-25T10:12:59Z</time>
      </trkpt>
      <trkpt lat="46.43174" lon="4.76094">
        <ele>261.2</ele>
        <time>2022-06-25T10:13:00Z</time>
      </trkpt>
      <trkpt lat="46.4317" lon="4.76097">
        <ele>261.2</ele>
        <time>2022-06-25T10:13:01Z</time>
      </trkpt>
      <trkpt lat="46.43167" lon="4.761">
        <ele>261.2</ele>
        <time>2022-06-25T10:13:02Z</time>
      </trkpt>
      <trkpt lat="46.43165" lon="4.76104">
        <ele>261</ele>
        <time>2022-06-25T10:13:03Z</time>
      </trkpt>
      <trkpt lat="46.43163" lon="4.76109">
        <ele>261</ele>
        <time>2022-06-25T10:13:04Z</time>
      </trkpt>
      <trkpt lat="46.43161" lon="4.76114">
        <ele>261</ele>
        <time>2022-06-25T10:13:05Z</time>
      </trkpt>
      <trkpt lat="46.43159" lon="4.76119">
        <ele>261</ele>
        <time>2022-06-25T10:13:06Z</time>
      </trkpt>
      <trkpt lat="46.43157" lon="4.76123">
        <ele>260.6</ele>
        <time>2022-06-25T10:13:07Z</time>
      </trkpt>
      <trkpt lat="46.43155" lon="4.76128">
        <ele>260.6</ele>
        <time>2022-06-25T10:13:08Z</time>
      </trkpt>
      <trkpt lat="46.43153" lon="4.76133">
        <ele>260.4</ele>
        <time>2022-06-25T10:13:09Z</time>
      </trkpt>
      <trkpt lat="46.43151" lon="4.76137">
        <ele>260.2</ele>
        <time>2022-06-25T10:13:10Z</time>
      </trkpt>
      <trkpt lat="46.43149" lon="4.76141">
        <ele>260.2</ele>
        <time>2022-06-25T10:13:11Z</time>
      </trkpt>
      <trkpt lat="46.43147" lon="4.76145">
        <ele>259.8</ele>
        <time>2022-06-25T10:13:12Z</time>
      </trkpt>
      <trkpt lat="46.43145" lon="4.76148">
        <ele>259.8</ele>
        <time>2022-06-25T10:13:13Z</time>
      </trkpt>
      <trkpt lat="46.43143" lon="4.76151">
        <ele>259.8</ele>
        <time>2022-06-25T10:13:14Z</time>
      </trkpt>
      <trkpt lat="46.4314" lon="4.76153">
        <ele>259.8</ele>
        <time>2022-06-25T10:13:15Z</time>
      </trkpt>
      <trkpt lat="46.43137" lon="4.76154">
        <ele>259.8</ele>
        <time>2022-06-25T10:13:16Z</time>
      </trkpt>
      <trkpt lat="46.43133" lon="4.76156">
        <ele>259.6</ele>
        <time>2022-06-25T10:13:17Z</time>
      </trkpt>
      <trkpt lat="46.43129" lon="4.76157">
        <ele>259.6</ele>
        <time>2022-06-25T10:13:18Z</time>
      </trkpt>
      <trkpt lat="46.43125" lon="4.76157">
        <ele>259.6</ele>
        <time>2022-06-25T10:13:19Z</time>
      </trkpt>
      <trkpt lat="46.43121" lon="4.76158">
        <ele>259.6</ele>
        <time>2022-06-25T10:13:20Z</time>
      </trkpt>
      <trkpt lat="46.43118" lon="4.76159">
        <ele>259.2</ele>
        <time>2022-06-25T10:13:21Z</time>
      </trkpt>
      <trkpt lat="46.43115" lon="4.7616">
        <ele>259.2</ele>
        <time>2022-06-25T10:13:22Z</time>
      </trkpt>
      <trkpt lat="46.43113" lon="4.76163">
        <ele>259.2</ele>
        <time>2022-06-25T10:13:23Z</time>
      </trkpt>
      <trkpt lat="46.43112" lon="4.76166">
        <ele>259.2</ele>
        <time>2022-06-25T10:13:24Z</time>
      </trkpt>
      <trkpt lat="46.43112" lon="4.76169">
        <ele>259</ele>
        <time>2022-06-25T10:13:25Z</time>
      </trkpt>
      <trkpt lat="46.43113" lon="4.76172">
        <ele>259</ele>
        <time>2022-06-25T10:13:26Z</time>
      </trkpt>
      <trkpt lat="46.43115" lon="4.76173">
        <ele>258.6</ele>
        <time>2022-06-25T10:13:27Z</time>
      </trkpt>
      <trkpt lat="46.43117" lon="4.76172">
        <ele>258.6</ele>
        <time>2022-06-25T10:13:28Z</time>
      </trkpt>
      <trkpt lat="46.43118" lon="4.7617">
        <ele>258.6</ele>
        <time>2022-06-25T10:13:29Z</time>
      </trkpt>
      <trkpt lat="46.4312" lon="4.76169">
        <ele>258.6</ele>
        <time>2022-06-25T10:13:30Z</time>
      </trkpt>
      <trkpt lat="46.43122" lon="4.76168">
        <ele>258.6</ele>
        <time>2022-06-25T10:13:31Z</time>
      </trkpt>
      <trkpt lat="46.43123" lon="4.76166">
        <ele>258.6</ele>
        <time>2022-06-25T10:13:32Z</time>
      </trkpt>
      <trkpt lat="46.43125" lon="4.76165">
        <ele>258.6</ele>
        <time>2022-06-25T10:13:33Z</time>
      </trkpt>
      <trkpt lat="46.43127" lon="4.76164">
        <ele>258.6</ele>
        <time>2022-06-25T10:13:34Z</time>
      </trkpt>
      <trkpt lat="46.43128" lon="4.76164">
        <ele>258.6</ele>
        <time>2022-06-25T10:13:35Z</time>
      </trkpt>
      <trkpt lat="46.43129" lon="4.76163">
        <ele>258.6</ele>
        <time>2022-06-25T10:13:36Z</time>
      </trkpt>
      <trkpt lat="46.4313" lon="4.76163">
        <ele>259</ele>
        <time>2022-06-25T10:13:37Z</time>
      </trkpt>
      <trkpt lat="46.43133" lon="4.76162">
        <ele>259.2</ele>
        <time>2022-06-25T10:13:49Z</time>
      </trkpt>
      <trkpt lat="46.43135" lon="4.76162">
        <ele>259.2</ele>
        <time>2022-06-25T10:13:50Z</time>
      </trkpt>
      <trkpt lat="46.43137" lon="4.76162">
        <ele>259.2</ele>
        <time>2022-06-25T10:13:51Z</time>
      </trkpt>
      <trkpt lat="46.43139" lon="4.76161">
        <ele>259.2</ele>
        <time>2022-06-25T10:13:52Z</time>
      </trkpt>
      <trkpt lat="46.43142" lon="4.7616">
        <ele>259.2</ele>
        <time>2022-06-25T10:13:53Z</time>
      </trkpt>
      <trkpt lat="46.43144" lon="4.76158">
        <ele>259.4</ele>
        <time>2022-06-25T10:13:54Z</time>
      </trkpt>
      <trkpt lat="46.43146" lon="4.76155">
        <ele>259.4</ele>
        <time>2022-06-25T10:13:55Z</time>
      </trkpt>
      <trkpt lat="46.43148" lon="4.76151">
        <ele>259.4</ele>
        <time>2022-06-25T10:13:56Z</time>
      </trkpt>
      <trkpt lat="46.4315" lon="4.76147">
        <ele>259.4</ele>
        <time>2022-06-25T10:13:57Z</time>
      </trkpt>
      <trkpt lat="46.43152" lon="4.76142">
        <ele>259.6</ele>
        <time>2022-06-25T10:13:58Z</time>
      </trkpt>
      <trkpt lat="46.43154" lon="4.76138">
        <ele>259.6</ele>
        <time>2022-06-25T10:13:59Z</time>
      </trkpt>
      <trkpt lat="46.43156" lon="4.76133">
        <ele>259.6</ele>
        <time>2022-06-25T10:14:00Z</time>
      </trkpt>
      <trkpt lat="46.43157" lon="4.76128">
        <ele>259.6</ele>
        <time>2022-06-25T10:14:01Z</time>
      </trkpt>
      <trkpt lat="46.43159" lon="4.76124">
        <ele>259.6</ele>
        <time>2022-06-25T10:14:02Z</time>
      </trkpt>
      <trkpt lat="46.4316" lon="4.7612">
        <ele>259.6</ele>
        <time>2022-06-25T10:14:03Z</time>
      </trkpt>
      <trkpt lat="46.43162" lon="4.76116">
        <ele>259.6</ele>
        <time>2022-06-25T10:14:04Z</time>
      </trkpt>
      <trkpt lat="46.43163" lon="4.76113">
        <ele>259.8</ele>
        <time>2022-06-25T10:14:05Z</time>
      </trkpt>
      <trkpt lat="46.43165" lon="4.7611">
        <ele>259.8</ele>
        <time>2022-06-25T10:14:06Z</time>
      </trkpt>
      <trkpt lat="46.43167" lon="4.76107">
        <ele>259.8</ele>
        <time>2022-06-25T10:14:07Z</time>
      </trkpt>
      <trkpt lat="46.43169" lon="4.76104">
        <ele>259.8</ele>
        <time>2022-06-25T10:14:08Z</time>
      </trkpt>
      <trkpt lat="46.43171" lon="4.76102">
        <ele>259.8</ele>
        <time>2022-06-25T10:14:09Z</time>
      </trkpt>
      <trkpt lat="46.43174" lon="4.76102">
        <ele>259.8</ele>
        <time>2022-06-25T10:14:10Z</time>
      </trkpt>
      <trkpt lat="46.43177" lon="4.76101">
        <ele>260.2</ele>
        <time>2022-06-25T10:14:11Z</time>
      </trkpt>
      <trkpt lat="46.43179" lon="4.761">
        <ele>260.2</ele>
        <time>2022-06-25T10:14:12Z</time>
      </trkpt>
      <trkpt lat="46.43181" lon="4.761">
        <ele>260.2</ele>
        <time>2022-06-25T10:14:13Z</time>
      </trkpt>
      <trkpt lat="46.43183" lon="4.76099">
        <ele>260.2</ele>
        <time>2022-06-25T10:14:14Z</time>
      </trkpt>
      <trkpt lat="46.43185" lon="4.76099">
        <ele>260.2</ele>
        <time>2022-06-25T10:14:15Z</time>
      </trkpt>
      <trkpt lat="46.43186" lon="4.76098">
        <ele>260.4</ele>
        <time>2022-06-25T10:14:16Z</time>
      </trkpt>
      <trkpt lat="46.43187" lon="4.76098">
        <ele>260.4</ele>
        <time>2022-06-25T10:14:17Z</time>
      </trkpt>
      <trkpt lat="46.43188" lon="4.76096">
        <ele>260.4</ele>
        <time>2022-06-25T10:14:18Z</time>
      </trkpt>
      <trkpt lat="46.43187" lon="4.76093">
        <ele>260.4</ele>
        <time>2022-06-25T10:14:19Z</time>
      </trkpt>
      <trkpt lat="46.43186" lon="4.76091">
        <ele>260.4</ele>
        <time>2022-06-25T10:14:20Z</time>
      </trkpt>
      <trkpt lat="46.43185" lon="4.76089">
        <ele>260.4</ele>
        <time>2022-06-25T10:14:21Z</time>
      </trkpt>
      <trkpt lat="46.43185" lon="4.76088">
        <ele>260.4</ele>
        <time>2022-06-25T10:14:23Z</time>
      </trkpt>
      <trkpt lat="46.43185" lon="4.76088">
        <ele>260.4</ele>
        <time>2022-06-25T10:14:24Z</time>
      </trkpt>
      <trkpt lat="46.43185" lon="4.76088">
        <ele>261</ele>
        <time>2022-06-25T10:14:31Z</time>
      </trkpt>
      <trkpt lat="46.43185" lon="4.76088">
        <ele>261</ele>
        <time>2022-06-25T10:14:35Z</time>
      </trkpt>
      <trkpt lat="46.43185" lon="4.76088">
        <ele>261.2</ele>
        <time>2022-06-25T10:14:39Z</time>
      </trkpt>
      <trkpt lat="46.43185" lon="4.76087">
        <ele>261.2</ele>
        <time>2022-06-25T10:14:41Z</time>
      </trkpt>
      <trkpt lat="46.43185" lon="4.76087">
        <ele>261</ele>
        <time>2022-06-25T10:14:43Z</time>
      </trkpt>
      <trkpt lat="46.43185" lon="4.76087">
        <ele>260.8</ele>
        <time>2022-06-25T10:14:46Z</time>
      </trkpt>
      <trkpt lat="46.43185" lon="4.76087">
        <ele>260.8</ele>
        <time>2022-06-25T10:14:50Z</time>
      </trkpt>
      <trkpt lat="46.43184" lon="4.76087">
        <ele>260.8</ele>
        <time>2022-06-25T10:14:51Z</time>
      </trkpt>
      <trkpt lat="46.43184" lon="4.76086">
        <ele>260.8</ele>
        <time>2022-06-25T10:14:52Z</time>
      </trkpt>
      <trkpt lat="46.43184" lon="4.76086">
        <ele>260.6</ele>
        <time>2022-06-25T10:15:14Z</time>
      </trkpt>
      <trkpt lat="46.43184" lon="4.76086">
        <ele>260.6</ele>
        <time>2022-06-25T10:15:16Z</time>
      </trkpt>
      <trkpt lat="46.43184" lon="4.76086">
        <ele>260.8</ele>
        <time>2022-06-25T10:15:18Z</time>
      </trkpt>
      <trkpt lat="46.43184" lon="4.76085">
        <ele>261.4</ele>
        <time>2022-06-25T10:16:03Z</time>
      </trkpt>
      <trkpt lat="46.43184" lon="4.76085">
        <ele>261.4</ele>
        <time>2022-06-25T10:16:04Z</time>
      </trkpt>
      <trkpt lat="46.43184" lon="4.76085">
        <ele>261.4</ele>
        <time>2022-06-25T10:16:06Z</time>
      </trkpt>
      <trkpt lat="46.43184" lon="4.76085">
        <ele>261.4</ele>
        <time>2022-06-25T10:16:11Z</time>
      </trkpt>
      <trkpt lat="46.43184" lon="4.76084">
        <ele>261.2</ele>
        <time>2022-06-25T10:16:24Z</time>
      </trkpt>
      <trkpt lat="46.43184" lon="4.76084">
        <ele>261.2</ele>
        <time>2022-06-25T10:16:25Z</time>
      </trkpt>
      <trkpt lat="46.43184" lon="4.76084">
        <ele>261.2</ele>
        <time>2022-06-25T10:16:27Z</time>
      </trkpt>
      <trkpt lat="46.43183" lon="4.76084">
        <ele>261.2</ele>
        <time>2022-06-25T10:16:28Z</time>
      </trkpt>
      <trkpt lat="46.43183" lon="4.76084">
        <ele>261.2</ele>
        <time>2022-06-25T10:16:57Z</time>
      </trkpt>
      <trkpt lat="46.43183" lon="4.76083">
        <ele>261.2</ele>
        <time>2022-06-25T10:16:59Z</time>
      </trkpt>
      <trkpt lat="46.43183" lon="4.76083">
        <ele>261.2</ele>
        <time>2022-06-25T10:17:00Z</time>
      </trkpt>
      <trkpt lat="46.43183" lon="4.76083">
        <ele>261.2</ele>
        <time>2022-06-25T10:17:02Z</time>
      </trkpt>
      <trkpt lat="46.43183" lon="4.76083">
        <ele>261.2</ele>
        <time>2022-06-25T10:17:46Z</time>
      </trkpt>
      <trkpt lat="46.43183" lon="4.76083">
        <ele>261.2</ele>
        <time>2022-06-25T10:17:48Z</time>
      </trkpt>
      <trkpt lat="46.43183" lon="4.76082">
        <ele>261.2</ele>
        <time>2022-06-25T10:18:00Z</time>
      </trkpt>
      <trkpt lat="46.43183" lon="4.76082">
        <ele>261.2</ele>
        <time>2022-06-25T10:18:02Z</time>
      </trkpt>
      <trkpt lat="46.43183" lon="4.76082">
        <ele>261.2</ele>
        <time>2022-06-25T10:18:04Z</time>
      </trkpt>
      <trkpt lat="46.43183" lon="4.76082">
        <ele>261.2</ele>
        <time>2022-06-25T10:18:06Z</time>
      </trkpt>
      <trkpt lat="46.43183" lon="4.76081">
        <ele>261.2</ele>
        <time>2022-06-25T10:18:07Z</time>
      </trkpt>
      <trkpt lat="46.43182" lon="4.76081">
        <ele>261.2</ele>
        <time>2022-06-25T10:18:08Z</time>
      </trkpt>
      <trkpt lat="46.43182" lon="4.76081">
        <ele>261.2</ele>
        <time>2022-06-25T10:18:10Z</time>
      </trkpt>
      <trkpt lat="46.43182" lon="4.76081">
        <ele>261.2</ele>
        <time>2022-06-25T10:18:12Z</time>
      </trkpt>
      <trkpt lat="46.43182" lon="4.76081">
        <ele>261.2</ele>
        <time>2022-06-25T10:18:15Z</time>
      </trkpt>
      <trkpt lat="46.43182" lon="4.7608">
        <ele>261.2</ele>
        <time>2022-06-25T10:18:16Z</time>
      </trkpt>
      <trkpt lat="46.43182" lon="4.7608">
        <ele>261.2</ele>
        <time>2022-06-25T10:18:18Z</time>
      </trkpt>
      <trkpt lat="46.43182" lon="4.7608">
        <ele>261.2</ele>
        <time>2022-06-25T10:18:20Z</time>
      </trkpt>
      <trkpt lat="46.43182" lon="4.7608">
        <ele>261.2</ele>
        <time>2022-06-25T10:18:22Z</time>
      </trkpt>
      <trkpt lat="46.43182" lon="4.76079">
        <ele>261.2</ele>
        <time>2022-06-25T10:18:24Z</time>
      </trkpt>
      <trkpt lat="46.43182" lon="4.76079">
        <ele>261.2</ele>
        <time>2022-06-25T10:18:25Z</time>
      </trkpt>
      <trkpt lat="46.43182" lon="4.76079">
        <ele>261.2</ele>
        <time>2022-06-25T10:18:40Z</time>
      </trkpt>
      <trkpt lat="46.43181" lon="4.76079">
        <ele>261.2</ele>
        <time>2022-06-25T10:18:41Z</time>
      </trkpt>
      <trkpt lat="46.43181" lon="4.76079">
        <ele>261.2</ele>
        <time>2022-06-25T10:18:43Z</time>
      </trkpt>
      <trkpt lat="46.43181" lon="4.76078">
        <ele>261.2</ele>
        <time>2022-06-25T10:18:45Z</time>
      </trkpt>
      <trkpt lat="46.43181" lon="4.76078">
        <ele>261.2</ele>
        <time>2022-06-25T10:18:48Z</time>
      </trkpt>
      <trkpt lat="46.43181" lon="4.76078">
        <ele>261.2</ele>
        <time>2022-06-25T10:18:50Z</time>
      </trkpt>
      <trkpt lat="46.43181" lon="4.76078">
        <ele>261.2</ele>
        <time>2022-06-25T10:18:52Z</time>
      </trkpt>
      <trkpt lat="46.43181" lon="4.76077">
        <ele>261.2</ele>
        <time>2022-06-25T10:18:54Z</time>
      </trkpt>
      <trkpt lat="46.43181" lon="4.76077">
        <ele>261.6</ele>
        <time>2022-06-25T10:18:59Z</time>
      </trkpt>
      <trkpt lat="46.43181" lon="4.76077">
        <ele>261.6</ele>
        <time>2022-06-25T10:19:01Z</time>
      </trkpt>
      <trkpt lat="46.43181" lon="4.76077">
        <ele>261.6</ele>
        <time>2022-06-25T10:19:03Z</time>
      </trkpt>
      <trkpt lat="46.43181" lon="4.76077">
        <ele>261.8</ele>
        <time>2022-06-25T10:19:05Z</time>
      </trkpt>
      <trkpt lat="46.43181" lon="4.76076">
        <ele>261.8</ele>
        <time>2022-06-25T10:19:23Z</time>
      </trkpt>
      <trkpt lat="46.4318" lon="4.76076">
        <ele>261.8</ele>
        <time>2022-06-25T10:19:24Z</time>
      </trkpt>
      <trkpt lat="46.4318" lon="4.76076">
        <ele>261.8</ele>
        <time>2022-06-25T10:19:26Z</time>
      </trkpt>
      <trkpt lat="46.43181" lon="4.76076">
        <ele>262</ele>
        <time>2022-06-25T10:19:29Z</time>
      </trkpt>
      <trkpt lat="46.43181" lon="4.76076">
        <ele>261.6</ele>
        <time>2022-06-25T10:21:09Z</time>
      </trkpt>
      <trkpt lat="46.43181" lon="4.76063">
        <ele>262</ele>
        <time>2022-06-25T10:22:03Z</time>
      </trkpt>
      <trkpt lat="46.43181" lon="4.76062">
        <ele>262</ele>
        <time>2022-06-25T10:22:05Z</time>
      </trkpt>
      <trkpt lat="46.43181" lon="4.76062">
        <ele>262</ele>
        <time>2022-06-25T10:23:01Z</time>
      </trkpt>
      <trkpt lat="46.43181" lon="4.76062">
        <ele>261.6</ele>
        <time>2022-06-25T10:24:43Z</time>
      </trkpt>
      <trkpt lat="46.43181" lon="4.76062">
        <ele>262.4</ele>
        <time>2022-06-25T10:26:31Z</time>
      </trkpt>
      <trkpt lat="46.43182" lon="4.76049">
        <ele>262.4</ele>
        <time>2022-06-25T10:26:46Z</time>
      </trkpt>
      <trkpt lat="46.43182" lon="4.76049">
        <ele>262.4</ele>
        <time>2022-06-25T10:26:48Z</time>
      </trkpt>
      <trkpt lat="46.43182" lon="4.76049">
        <ele>262.6</ele>
        <time>2022-06-25T10:27:30Z</time>
      </trkpt>
      <trkpt lat="46.43182" lon="4.76049">
        <ele>262.2</ele>
        <time>2022-06-25T10:28:30Z</time>
      </trkpt>
      <trkpt lat="46.4318" lon="4.76036">
        <ele>262.6</ele>
        <time>2022-06-25T10:29:14Z</time>
      </trkpt>
      <trkpt lat="46.43181" lon="4.76036">
        <ele>262.6</ele>
        <time>2022-06-25T10:29:15Z</time>
      </trkpt>
      <trkpt lat="46.43181" lon="4.76036">
        <ele>262.6</ele>
        <time>2022-06-25T10:29:56Z</time>
      </trkpt>
      <trkpt lat="46.43181" lon="4.76036">
        <ele>262.8</ele>
        <time>2022-06-25T10:30:34Z</time>
      </trkpt>
      <trkpt lat="46.43181" lon="4.76036">
        <ele>263</ele>
        <time>2022-06-25T10:32:30Z</time>
      </trkpt>
      <trkpt lat="46.43181" lon="4.76036">
        <ele>263</ele>
        <time>2022-06-25T10:34:17Z</time>
      </trkpt>
      <trkpt lat="46.43181" lon="4.76036">
        <ele>262.8</ele>
        <time>2022-06-25T10:34:54Z</time>
      </trkpt>
      <trkpt lat="46.43181" lon="4.76036">
        <ele>263</ele>
        <time>2022-06-25T10:35:29Z</time>
      </trkpt>
      <trkpt lat="46.43181" lon="4.76036">
        <ele>263</ele>
        <time>2022-06-25T10:36:12Z</time>
      </trkpt>
      <trkpt lat="46.43182" lon="4.76023">
        <ele>263.2</ele>
        <time>2022-06-25T10:37:11Z</time>
      </trkpt>
      <trkpt lat="46.43183" lon="4.76023">
        <ele>263.2</ele>
        <time>2022-06-25T10:37:12Z</time>
      </trkpt>
      <trkpt lat="46.43183" lon="4.76023">
        <ele>263.2</ele>
        <time>2022-06-25T10:37:40Z</time>
      </trkpt>
      <trkpt lat="46.43183" lon="4.76023">
        <ele>263.6</ele>
        <time>2022-06-25T10:38:44Z</time>
      </trkpt>
      <trkpt lat="46.43183" lon="4.76023">
        <ele>263.4</ele>
        <time>2022-06-25T10:39:44Z</time>
      </trkpt>
      <trkpt lat="46.43183" lon="4.76023">
        <ele>263.8</ele>
        <time>2022-06-25T10:40:53Z</time>
      </trkpt>
      <trkpt lat="46.43183" lon="4.76023">
        <ele>263.2</ele>
        <time>2022-06-25T10:41:46Z</time>
      </trkpt>
      <trkpt lat="46.43184" lon="4.76037">
        <ele>263.2</ele>
        <time>2022-06-25T10:42:32Z</time>
      </trkpt>
      <trkpt lat="46.43183" lon="4.7604">
        <ele>263.2</ele>
        <time>2022-06-25T10:42:33Z</time>
      </trkpt>
      <trkpt lat="46.43182" lon="4.76042">
        <ele>263.2</ele>
        <time>2022-06-25T10:42:34Z</time>
      </trkpt>
      <trkpt lat="46.43181" lon="4.76043">
        <ele>263.2</ele>
        <time>2022-06-25T10:42:36Z</time>
      </trkpt>
      <trkpt lat="46.43181" lon="4.76043">
        <ele>263.2</ele>
        <time>2022-06-25T10:42:37Z</time>
      </trkpt>
      <trkpt lat="46.4318" lon="4.76043">
        <ele>263.2</ele>
        <time>2022-06-25T10:42:38Z</time>
      </trkpt>
      <trkpt lat="46.43179" lon="4.76044">
        <ele>263.2</ele>
        <time>2022-06-25T10:42:41Z</time>
      </trkpt>
      <trkpt lat="46.43179" lon="4.76044">
        <ele>263.2</ele>
        <time>2022-06-25T10:42:42Z</time>
      </trkpt>
      <trkpt lat="46.43178" lon="4.76044">
        <ele>263.2</ele>
        <time>2022-06-25T10:42:45Z</time>
      </trkpt>
      <trkpt lat="46.43177" lon="4.76045">
        <ele>263.2</ele>
        <time>2022-06-25T10:42:46Z</time>
      </trkpt>
      <trkpt lat="46.43176" lon="4.76046">
        <ele>263.2</ele>
        <time>2022-06-25T10:42:47Z</time>
      </trkpt>
      <trkpt lat="46.43175" lon="4.76047">
        <ele>263.2</ele>
        <time>2022-06-25T10:42:49Z</time>
      </trkpt>
      <trkpt lat="46.43175" lon="4.76048">
        <ele>263.2</ele>
        <time>2022-06-25T10:42:50Z</time>
      </trkpt>
      <trkpt lat="46.43175" lon="4.76049">
        <ele>263.2</ele>
        <time>2022-06-25T10:42:51Z</time>
      </trkpt>
      <trkpt lat="46.43174" lon="4.76049">
        <ele>263.2</ele>
        <time>2022-06-25T10:42:52Z</time>
      </trkpt>
      <trkpt lat="46.43174" lon="4.7605">
        <ele>263.2</ele>
        <time>2022-06-25T10:42:53Z</time>
      </trkpt>
      <trkpt lat="46.43173" lon="4.76051">
        <ele>263.2</ele>
        <time>2022-06-25T10:42:54Z</time>
      </trkpt>
      <trkpt lat="46.43173" lon="4.76052">
        <ele>263.2</ele>
        <time>2022-06-25T10:42:57Z</time>
      </trkpt>
      <trkpt lat="46.43172" lon="4.76053">
        <ele>263.2</ele>
        <time>2022-06-25T10:42:58Z</time>
      </trkpt>
      <trkpt lat="46.43172" lon="4.76054">
        <ele>263.2</ele>
        <time>2022-06-25T10:42:59Z</time>
      </trkpt>
      <trkpt lat="46.43171" lon="4.76054">
        <ele>263.2</ele>
        <time>2022-06-25T10:43:00Z</time>
      </trkpt>
      <trkpt lat="46.43171" lon="4.76055">
        <ele>263.2</ele>
        <time>2022-06-25T10:43:01Z</time>
      </trkpt>
      <trkpt lat="46.43171" lon="4.76056">
        <ele>263.2</ele>
        <time>2022-06-25T10:43:02Z</time>
      </trkpt>
      <trkpt lat="46.4317" lon="4.76057">
        <ele>263.2</ele>
        <time>2022-06-25T10:43:03Z</time>
      </trkpt>
      <trkpt lat="46.43169" lon="4.76058">
        <ele>263.2</ele>
        <time>2022-06-25T10:43:05Z</time>
      </trkpt>
      <trkpt lat="46.43169" lon="4.76059">
        <ele>263.2</ele>
        <time>2022-06-25T10:43:06Z</time>
      </trkpt>
      <trkpt lat="46.43168" lon="4.76061">
        <ele>263.2</ele>
        <time>2022-06-25T10:43:07Z</time>
      </trkpt>
      <trkpt lat="46.43168" lon="4.76063">
        <ele>263.2</ele>
        <time>2022-06-25T10:43:08Z</time>
      </trkpt>
      <trkpt lat="46.43167" lon="4.76064">
        <ele>263.2</ele>
        <time>2022-06-25T10:43:09Z</time>
      </trkpt>
      <trkpt lat="46.43167" lon="4.76065">
        <ele>263.2</ele>
        <time>2022-06-25T10:43:10Z</time>
      </trkpt>
      <trkpt lat="46.43166" lon="4.76066">
        <ele>263.2</ele>
        <time>2022-06-25T10:43:11Z</time>
      </trkpt>
      <trkpt lat="46.43166" lon="4.76067">
        <ele>263.2</ele>
        <time>2022-06-25T10:43:12Z</time>
      </trkpt>
      <trkpt lat="46.43166" lon="4.76068">
        <ele>263.2</ele>
        <time>2022-06-25T10:43:13Z</time>
      </trkpt>
      <trkpt lat="46.43165" lon="4.76069">
        <ele>263.2</ele>
        <time>2022-06-25T10:43:14Z</time>
      </trkpt>
      <trkpt lat="46.43165" lon="4.7607">
        <ele>263.2</ele>
        <time>2022-06-25T10:43:15Z</time>
      </trkpt>
      <trkpt lat="46.43164" lon="4.76071">
        <ele>263.2</ele>
        <time>2022-06-25T10:43:16Z</time>
      </trkpt>
      <trkpt lat="46.43164" lon="4.76072">
        <ele>263.2</ele>
        <time>2022-06-25T10:43:17Z</time>
      </trkpt>
      <trkpt lat="46.43163" lon="4.76073">
        <ele>263.2</ele>
        <time>2022-06-25T10:43:18Z</time>
      </trkpt>
      <trkpt lat="46.43163" lon="4.76074">
        <ele>263.2</ele>
        <time>2022-06-25T10:43:19Z</time>
      </trkpt>
      <trkpt lat="46.43162" lon="4.76075">
        <ele>263.2</ele>
        <time>2022-06-25T10:43:20Z</time>
      </trkpt>
      <trkpt lat="46.43162" lon="4.76076">
        <ele>263.2</ele>
        <time>2022-06-25T10:43:21Z</time>
      </trkpt>
      <trkpt lat="46.43162" lon="4.76077">
        <ele>263.2</ele>
        <time>2022-06-25T10:43:22Z</time>
      </trkpt>
      <trkpt lat="46.43161" lon="4.76079">
        <ele>263.2</ele>
        <time>2022-06-25T10:43:23Z</time>
      </trkpt>
      <trkpt lat="46.43161" lon="4.7608">
        <ele>263</ele>
        <time>2022-06-25T10:43:24Z</time>
      </trkpt>
      <trkpt lat="46.4316" lon="4.76081">
        <ele>263</ele>
        <time>2022-06-25T10:43:25Z</time>
      </trkpt>
      <trkpt lat="46.4316" lon="4.76082">
        <ele>263</ele>
        <time>2022-06-25T10:43:26Z</time>
      </trkpt>
      <trkpt lat="46.43159" lon="4.76083">
        <ele>262.8</ele>
        <time>2022-06-25T10:43:27Z</time>
      </trkpt>
      <trkpt lat="46.43159" lon="4.76084">
        <ele>262.8</ele>
        <time>2022-06-25T10:43:28Z</time>
      </trkpt>
      <trkpt lat="46.43158" lon="4.76085">
        <ele>262.8</ele>
        <time>2022-06-25T10:43:29Z</time>
      </trkpt>
      <trkpt lat="46.43158" lon="4.76086">
        <ele>262.4</ele>
        <time>2022-06-25T10:43:30Z</time>
      </trkpt>
      <trkpt lat="46.43158" lon="4.76087">
        <ele>262.4</ele>
        <time>2022-06-25T10:43:31Z</time>
      </trkpt>
      <trkpt lat="46.43157" lon="4.76088">
        <ele>262.2</ele>
        <time>2022-06-25T10:43:32Z</time>
      </trkpt>
      <trkpt lat="46.43157" lon="4.76089">
        <ele>262.2</ele>
        <time>2022-06-25T10:43:34Z</time>
      </trkpt>
      <trkpt lat="46.43156" lon="4.7609">
        <ele>262.2</ele>
        <time>2022-06-25T10:43:35Z</time>
      </trkpt>
      <trkpt lat="46.43156" lon="4.76091">
        <ele>262.2</ele>
        <time>2022-06-25T10:43:36Z</time>
      </trkpt>
      <trkpt lat="46.43155" lon="4.76092">
        <ele>262.2</ele>
        <time>2022-06-25T10:43:37Z</time>
      </trkpt>
      <trkpt lat="46.43155" lon="4.76093">
        <ele>262.2</ele>
        <time>2022-06-25T10:43:38Z</time>
      </trkpt>
      <trkpt lat="46.43154" lon="4.76095">
        <ele>262.2</ele>
        <time>2022-06-25T10:43:39Z</time>
      </trkpt>
      <trkpt lat="46.43154" lon="4.76096">
        <ele>262.2</ele>
        <time>2022-06-25T10:43:40Z</time>
      </trkpt>
      <trkpt lat="46.43153" lon="4.76097">
        <ele>262.2</ele>
        <time>2022-06-25T10:43:41Z</time>
      </trkpt>
      <trkpt lat="46.43153" lon="4.76098">
        <ele>262.2</ele>
        <time>2022-06-25T10:43:42Z</time>
      </trkpt>
      <trkpt lat="46.43152" lon="4.76098">
        <ele>262.2</ele>
        <time>2022-06-25T10:43:43Z</time>
      </trkpt>
      <trkpt lat="46.43152" lon="4.76099">
        <ele>262.2</ele>
        <time>2022-06-25T10:43:45Z</time>
      </trkpt>
      <trkpt lat="46.43152" lon="4.76099">
        <ele>262.2</ele>
        <time>2022-06-25T10:43:46Z</time>
      </trkpt>
      <trkpt lat="46.43152" lon="4.76099">
        <ele>262.2</ele>
        <time>2022-06-25T10:43:48Z</time>
      </trkpt>
      <trkpt lat="46.43152" lon="4.76099">
        <ele>262.2</ele>
        <time>2022-06-25T10:43:50Z</time>
      </trkpt>
      <trkpt lat="46.43152" lon="4.761">
        <ele>262.2</ele>
        <time>2022-06-25T10:43:55Z</time>
      </trkpt>
      <trkpt lat="46.43152" lon="4.761">
        <ele>262.2</ele>
        <time>2022-06-25T10:43:57Z</time>
      </trkpt>
      <trkpt lat="46.43152" lon="4.761">
        <ele>262.2</ele>
        <time>2022-06-25T10:43:59Z</time>
      </trkpt>
      <trkpt lat="46.43152" lon="4.76101">
        <ele>262.4</ele>
        <time>2022-06-25T10:44:01Z</time>
      </trkpt>
      <trkpt lat="46.43152" lon="4.76101">
        <ele>262.4</ele>
        <time>2022-06-25T10:44:02Z</time>
      </trkpt>
      <trkpt lat="46.43152" lon="4.76101">
        <ele>262.4</ele>
        <time>2022-06-25T10:44:04Z</time>
      </trkpt>
      <trkpt lat="46.43152" lon="4.76101">
        <ele>262.4</ele>
        <time>2022-06-25T10:44:06Z</time>
      </trkpt>
      <trkpt lat="46.43152" lon="4.76102">
        <ele>262.4</ele>
        <time>2022-06-25T10:44:07Z</time>
      </trkpt>
      <trkpt lat="46.43152" lon="4.76102">
        <ele>262.4</ele>
        <time>2022-06-25T10:44:13Z</time>
      </trkpt>
      <trkpt lat="46.43152" lon="4.76102">
        <ele>262.4</ele>
        <time>2022-06-25T10:44:15Z</time>
      </trkpt>
      <trkpt lat="46.43152" lon="4.76103">
        <ele>262.4</ele>
        <time>2022-06-25T10:44:17Z</time>
      </trkpt>
      <trkpt lat="46.43152" lon="4.76103">
        <ele>262.4</ele>
        <time>2022-06-25T10:44:18Z</time>
      </trkpt>
      <trkpt lat="46.43152" lon="4.76103">
        <ele>262.4</ele>
        <time>2022-06-25T10:44:20Z</time>
      </trkpt>
      <trkpt lat="46.43152" lon="4.76104">
        <ele>262.4</ele>
        <time>2022-06-25T10:44:22Z</time>
      </trkpt>
      <trkpt lat="46.43152" lon="4.76104">
        <ele>262.4</ele>
        <time>2022-06-25T10:44:23Z</time>
      </trkpt>
      <trkpt lat="46.43152" lon="4.76104">
        <ele>262.4</ele>
        <time>2022-06-25T10:44:27Z</time>
      </trkpt>
      <trkpt lat="46.43153" lon="4.76104">
        <ele>262.4</ele>
        <time>2022-06-25T10:44:29Z</time>
      </trkpt>
      <trkpt lat="46.43153" lon="4.76105">
        <ele>262.4</ele>
        <time>2022-06-25T10:44:30Z</time>
      </trkpt>
      <trkpt lat="46.43153" lon="4.76105">
        <ele>262.4</ele>
        <time>2022-06-25T10:44:32Z</time>
      </trkpt>
      <trkpt lat="46.43153" lon="4.76105">
        <ele>262.4</ele>
        <time>2022-06-25T10:44:34Z</time>
      </trkpt>
      <trkpt lat="46.43153" lon="4.76106">
        <ele>262.4</ele>
        <time>2022-06-25T10:44:36Z</time>
      </trkpt>
      <trkpt lat="46.43153" lon="4.76106">
        <ele>262.4</ele>
        <time>2022-06-25T10:44:37Z</time>
      </trkpt>
      <trkpt lat="46.43153" lon="4.76106">
        <ele>262.4</ele>
        <time>2022-06-25T10:44:39Z</time>
      </trkpt>
      <trkpt lat="46.43153" lon="4.76106">
        <ele>262.6</ele>
        <time>2022-06-25T10:44:43Z</time>
      </trkpt>
      <trkpt lat="46.43153" lon="4.76107">
        <ele>262.6</ele>
        <time>2022-06-25T10:44:44Z</time>
      </trkpt>
      <trkpt lat="46.43153" lon="4.76107">
        <ele>262.6</ele>
        <time>2022-06-25T10:44:52Z</time>
      </trkpt>
      <trkpt lat="46.43153" lon="4.76107">
        <ele>262.6</ele>
        <time>2022-06-25T10:44:54Z</time>
      </trkpt>
      <trkpt lat="46.43153" lon="4.76108">
        <ele>262.6</ele>
        <time>2022-06-25T10:44:56Z</time>
      </trkpt>
      <trkpt lat="46.43153" lon="4.76108">
        <ele>262.6</ele>
        <time>2022-06-25T10:44:57Z</time>
      </trkpt>
      <trkpt lat="46.43153" lon="4.76108">
        <ele>262.6</ele>
        <time>2022-06-25T10:44:59Z</time>
      </trkpt>
      <trkpt lat="46.43153" lon="4.76108">
        <ele>262.6</ele>
        <time>2022-06-25T10:45:01Z</time>
      </trkpt>
      <trkpt lat="46.43153" lon="4.76109">
        <ele>262.6</ele>
        <time>2022-06-25T10:45:02Z</time>
      </trkpt>
      <trkpt lat="46.43153" lon="4.76109">
        <ele>262.6</ele>
        <time>2022-06-25T10:45:04Z</time>
      </trkpt>
      <trkpt lat="46.43153" lon="4.76109">
        <ele>262.6</ele>
        <time>2022-06-25T10:45:06Z</time>
      </trkpt>
      <trkpt lat="46.43153" lon="4.7611">
        <ele>262.6</ele>
        <time>2022-06-25T10:45:07Z</time>
      </trkpt>
      <trkpt lat="46.43153" lon="4.7611">
        <ele>262.6</ele>
        <time>2022-06-25T10:45:09Z</time>
      </trkpt>
      <trkpt lat="46.43153" lon="4.7611">
        <ele>262.6</ele>
        <time>2022-06-25T10:45:11Z</time>
      </trkpt>
      <trkpt lat="46.43153" lon="4.76111">
        <ele>262.6</ele>
        <time>2022-06-25T10:45:13Z</time>
      </trkpt>
      <trkpt lat="46.43153" lon="4.76111">
        <ele>262.6</ele>
        <time>2022-06-25T10:45:14Z</time>
      </trkpt>
      <trkpt lat="46.43153" lon="4.76111">
        <ele>262.6</ele>
        <time>2022-06-25T10:45:16Z</time>
      </trkpt>
      <trkpt lat="46.43153" lon="4.76111">
        <ele>262.6</ele>
        <time>2022-06-25T10:45:18Z</time>
      </trkpt>
      <trkpt lat="46.43153" lon="4.76112">
        <ele>262.4</ele>
        <time>2022-06-25T10:45:19Z</time>
      </trkpt>
      <trkpt lat="46.43153" lon="4.76112">
        <ele>262.4</ele>
        <time>2022-06-25T10:45:22Z</time>
      </trkpt>
      <trkpt lat="46.43153" lon="4.76112">
        <ele>262.4</ele>
        <time>2022-06-25T10:45:24Z</time>
      </trkpt>
      <trkpt lat="46.43153" lon="4.76113">
        <ele>262.4</ele>
        <time>2022-06-25T10:45:26Z</time>
      </trkpt>
      <trkpt lat="46.43153" lon="4.76113">
        <ele>262.4</ele>
        <time>2022-06-25T10:45:27Z</time>
      </trkpt>
      <trkpt lat="46.43153" lon="4.76113">
        <ele>262.4</ele>
        <time>2022-06-25T10:45:29Z</time>
      </trkpt>
      <trkpt lat="46.43153" lon="4.76113">
        <ele>262.4</ele>
        <time>2022-06-25T10:45:31Z</time>
      </trkpt>
      <trkpt lat="46.43153" lon="4.76114">
        <ele>262.4</ele>
        <time>2022-06-25T10:45:32Z</time>
      </trkpt>
      <trkpt lat="46.43153" lon="4.76114">
        <ele>262.4</ele>
        <time>2022-06-25T10:45:34Z</time>
      </trkpt>
      <trkpt lat="46.43153" lon="4.76114">
        <ele>262.4</ele>
        <time>2022-06-25T10:45:36Z</time>
      </trkpt>
      <trkpt lat="46.43153" lon="4.76115">
        <ele>262.4</ele>
        <time>2022-06-25T10:45:38Z</time>
      </trkpt>
      <trkpt lat="46.43153" lon="4.76115">
        <ele>262.4</ele>
        <time>2022-06-25T10:45:39Z</time>
      </trkpt>
      <trkpt lat="46.43153" lon="4.76115">
        <ele>262.4</ele>
        <time>2022-06-25T10:45:41Z</time>
      </trkpt>
      <trkpt lat="46.43153" lon="4.76115">
        <ele>262.4</ele>
        <time>2022-06-25T10:45:43Z</time>
      </trkpt>
      <trkpt lat="46.43153" lon="4.76116">
        <ele>262.4</ele>
        <time>2022-06-25T10:45:44Z</time>
      </trkpt>
      <trkpt lat="46.43153" lon="4.76116">
        <ele>262.4</ele>
        <time>2022-06-25T10:45:46Z</time>
      </trkpt>
      <trkpt lat="46.43153" lon="4.76116">
        <ele>262.4</ele>
        <time>2022-06-25T10:45:48Z</time>
      </trkpt>
      <trkpt lat="46.43153" lon="4.76117">
        <ele>262.4</ele>
        <time>2022-06-25T10:45:49Z</time>
      </trkpt>
      <trkpt lat="46.43153" lon="4.76117">
        <ele>262.4</ele>
        <time>2022-06-25T10:45:51Z</time>
      </trkpt>
      <trkpt lat="46.43153" lon="4.76117">
        <ele>262.4</ele>
        <time>2022-06-25T10:45:53Z</time>
      </trkpt>
      <trkpt lat="46.43153" lon="4.76118">
        <ele>262.4</ele>
        <time>2022-06-25T10:45:55Z</time>
      </trkpt>
      <trkpt lat="46.43153" lon="4.76118">
        <ele>262.4</ele>
        <time>2022-06-25T10:45:56Z</time>
      </trkpt>
      <trkpt lat="46.43153" lon="4.76118">
        <ele>262.4</ele>
        <time>2022-06-25T10:45:59Z</time>
      </trkpt>
      <trkpt lat="46.43153" lon="4.76118">
        <ele>262.4</ele>
        <time>2022-06-25T10:46:01Z</time>
      </trkpt>
      <trkpt lat="46.43153" lon="4.76119">
        <ele>262.4</ele>
        <time>2022-06-25T10:46:02Z</time>
      </trkpt>
      <trkpt lat="46.43153" lon="4.76119">
        <ele>262.4</ele>
        <time>2022-06-25T10:46:04Z</time>
      </trkpt>
      <trkpt lat="46.43153" lon="4.76119">
        <ele>262.4</ele>
        <time>2022-06-25T10:46:06Z</time>
      </trkpt>
      <trkpt lat="46.43153" lon="4.7612">
        <ele>262.4</ele>
        <time>2022-06-25T10:46:08Z</time>
      </trkpt>
      <trkpt lat="46.43153" lon="4.7612">
        <ele>262.4</ele>
        <time>2022-06-25T10:46:09Z</time>
      </trkpt>
      <trkpt lat="46.43153" lon="4.7612">
        <ele>262.4</ele>
        <time>2022-06-25T10:46:11Z</time>
      </trkpt>
      <trkpt lat="46.43153" lon="4.7612">
        <ele>262.4</ele>
        <time>2022-06-25T10:46:13Z</time>
      </trkpt>
      <trkpt lat="46.43153" lon="4.76121">
        <ele>262.4</ele>
        <time>2022-06-25T10:46:14Z</time>
      </trkpt>
      <trkpt lat="46.43153" lon="4.76121">
        <ele>262.4</ele>
        <time>2022-06-25T10:46:16Z</time>
      </trkpt>
      <trkpt lat="46.43153" lon="4.76121">
        <ele>262.4</ele>
        <time>2022-06-25T10:46:18Z</time>
      </trkpt>
      <trkpt lat="46.43153" lon="4.76122">
        <ele>262.4</ele>
        <time>2022-06-25T10:46:20Z</time>
      </trkpt>
      <trkpt lat="46.43153" lon="4.76122">
        <ele>262.2</ele>
        <time>2022-06-25T10:46:21Z</time>
      </trkpt>
      <trkpt lat="46.43153" lon="4.76122">
        <ele>262.2</ele>
        <time>2022-06-25T10:46:23Z</time>
      </trkpt>
      <trkpt lat="46.43153" lon="4.76123">
        <ele>262.2</ele>
        <time>2022-06-25T10:46:25Z</time>
      </trkpt>
      <trkpt lat="46.43153" lon="4.76123">
        <ele>262.2</ele>
        <time>2022-06-25T10:46:26Z</time>
      </trkpt>
      <trkpt lat="46.43153" lon="4.76123">
        <ele>262.2</ele>
        <time>2022-06-25T10:46:28Z</time>
      </trkpt>
      <trkpt lat="46.43153" lon="4.76123">
        <ele>262.2</ele>
        <time>2022-06-25T10:46:30Z</time>
      </trkpt>
      <trkpt lat="46.43153" lon="4.76124">
        <ele>262.2</ele>
        <time>2022-06-25T10:46:31Z</time>
      </trkpt>
      <trkpt lat="46.43153" lon="4.76124">
        <ele>262.2</ele>
        <time>2022-06-25T10:46:33Z</time>
      </trkpt>
      <trkpt lat="46.43153" lon="4.76124">
        <ele>262.2</ele>
        <time>2022-06-25T10:46:35Z</time>
      </trkpt>
      <trkpt lat="46.43153" lon="4.76125">
        <ele>262.2</ele>
        <time>2022-06-25T10:46:39Z</time>
      </trkpt>
      <trkpt lat="46.43153" lon="4.76125">
        <ele>262.2</ele>
        <time>2022-06-25T10:46:42Z</time>
      </trkpt>
      <trkpt lat="46.43153" lon="4.76125">
        <ele>262.2</ele>
        <time>2022-06-25T10:46:46Z</time>
      </trkpt>
      <trkpt lat="46.43153" lon="4.76125">
        <ele>262.4</ele>
        <time>2022-06-25T10:46:51Z</time>
      </trkpt>
      <trkpt lat="46.43153" lon="4.76125">
        <ele>262.4</ele>
        <time>2022-06-25T10:46:56Z</time>
      </trkpt>
      <trkpt lat="46.43153" lon="4.76125">
        <ele>262.4</ele>
        <time>2022-06-25T10:47:00Z</time>
      </trkpt>
      <trkpt lat="46.43153" lon="4.76126">
        <ele>262.4</ele>
        <time>2022-06-25T10:47:02Z</time>
      </trkpt>
      <trkpt lat="46.43153" lon="4.76126">
        <ele>262.4</ele>
        <time>2022-06-25T10:47:06Z</time>
      </trkpt>
      <trkpt lat="46.43153" lon="4.76126">
        <ele>262.4</ele>
        <time>2022-06-25T10:47:10Z</time>
      </trkpt>
      <trkpt lat="46.43153" lon="4.76126">
        <ele>262.4</ele>
        <time>2022-06-25T10:47:14Z</time>
      </trkpt>
      <trkpt lat="46.43153" lon="4.76126">
        <ele>262.4</ele>
        <time>2022-06-25T10:47:19Z</time>
      </trkpt>
      <trkpt lat="46.43153" lon="4.76127">
        <ele>262.4</ele>
        <time>2022-06-25T10:47:23Z</time>
      </trkpt>
      <trkpt lat="46.43153" lon="4.76127">
        <ele>262.4</ele>
        <time>2022-06-25T10:47:25Z</time>
      </trkpt>
      <trkpt lat="46.43153" lon="4.76127">
        <ele>262.6</ele>
        <time>2022-06-25T10:47:29Z</time>
      </trkpt>
      <trkpt lat="46.43153" lon="4.76127">
        <ele>262.4</ele>
        <time>2022-06-25T10:47:38Z</time>
      </trkpt>
      <trkpt lat="46.43153" lon="4.76127">
        <ele>262.4</ele>
        <time>2022-06-25T10:47:42Z</time>
      </trkpt>
      <trkpt lat="46.43153" lon="4.76127">
        <ele>262.4</ele>
        <time>2022-06-25T10:47:46Z</time>
      </trkpt>
      <trkpt lat="46.43153" lon="4.76128">
        <ele>262.6</ele>
        <time>2022-06-25T10:47:48Z</time>
      </trkpt>
      <trkpt lat="46.43153" lon="4.76128">
        <ele>262.6</ele>
        <time>2022-06-25T10:47:52Z</time>
      </trkpt>
      <trkpt lat="46.43153" lon="4.76128">
        <ele>262.6</ele>
        <time>2022-06-25T10:47:58Z</time>
      </trkpt>
      <trkpt lat="46.43153" lon="4.76128">
        <ele>262.6</ele>
        <time>2022-06-25T10:48:02Z</time>
      </trkpt>
      <trkpt lat="46.43153" lon="4.76128">
        <ele>262.6</ele>
        <time>2022-06-25T10:48:06Z</time>
      </trkpt>
      <trkpt lat="46.43153" lon="4.76129">
        <ele>262.6</ele>
        <time>2022-06-25T10:48:10Z</time>
      </trkpt>
      <trkpt lat="46.43153" lon="4.76129">
        <ele>262.6</ele>
        <time>2022-06-25T10:48:12Z</time>
      </trkpt>
      <trkpt lat="46.43153" lon="4.76129">
        <ele>262.6</ele>
        <time>2022-06-25T10:48:16Z</time>
      </trkpt>
      <trkpt lat="46.43153" lon="4.76129">
        <ele>262.6</ele>
        <time>2022-06-25T10:48:20Z</time>
      </trkpt>
      <trkpt lat="46.43153" lon="4.76129">
        <ele>262.6</ele>
        <time>2022-06-25T10:48:24Z</time>
      </trkpt>
      <trkpt lat="46.43153" lon="4.76129">
        <ele>262.6</ele>
        <time>2022-06-25T10:48:28Z</time>
      </trkpt>
      <trkpt lat="46.43153" lon="4.7613">
        <ele>263</ele>
        <time>2022-06-25T10:48:33Z</time>
      </trkpt>
      <trkpt lat="46.43153" lon="4.7613">
        <ele>263</ele>
        <time>2022-06-25T10:48:37Z</time>
      </trkpt>
      <trkpt lat="46.43153" lon="4.7613">
        <ele>263</ele>
        <time>2022-06-25T10:48:45Z</time>
      </trkpt>
      <trkpt lat="46.43153" lon="4.7613">
        <ele>262.6</ele>
        <time>2022-06-25T10:48:49Z</time>
      </trkpt>
      <trkpt lat="46.43153" lon="4.7613">
        <ele>262.6</ele>
        <time>2022-06-25T10:48:53Z</time>
      </trkpt>
      <trkpt lat="46.43153" lon="4.76131">
        <ele>262.6</ele>
        <time>2022-06-25T10:48:57Z</time>
      </trkpt>
      <trkpt lat="46.43153" lon="4.76131">
        <ele>262.6</ele>
        <time>2022-06-25T10:48:59Z</time>
      </trkpt>
      <trkpt lat="46.43153" lon="4.76131">
        <ele>262.6</ele>
        <time>2022-06-25T10:49:03Z</time>
      </trkpt>
      <trkpt lat="46.43153" lon="4.76131">
        <ele>262.6</ele>
        <time>2022-06-25T10:49:07Z</time>
      </trkpt>
      <trkpt lat="46.43153" lon="4.76131">
        <ele>262.6</ele>
        <time>2022-06-25T10:49:12Z</time>
      </trkpt>
      <trkpt lat="46.43153" lon="4.76131">
        <ele>262.6</ele>
        <time>2022-06-25T10:49:16Z</time>
      </trkpt>
      <trkpt lat="46.43153" lon="4.76132">
        <ele>262.6</ele>
        <time>2022-06-25T10:49:20Z</time>
      </trkpt>
      <trkpt lat="46.43153" lon="4.76132">
        <ele>262.6</ele>
        <time>2022-06-25T10:49:24Z</time>
      </trkpt>
      <trkpt lat="46.43153" lon="4.76132">
        <ele>262.4</ele>
        <time>2022-06-25T10:49:33Z</time>
      </trkpt>
      <trkpt lat="46.43153" lon="4.76132">
        <ele>262.4</ele>
        <time>2022-06-25T10:49:39Z</time>
      </trkpt>
      <trkpt lat="46.43153" lon="4.76132">
        <ele>262.4</ele>
        <time>2022-06-25T10:49:43Z</time>
      </trkpt>
      <trkpt lat="46.43153" lon="4.76133">
        <ele>262.8</ele>
        <time>2022-06-25T10:49:47Z</time>
      </trkpt>
      <trkpt lat="46.43153" lon="4.76133">
        <ele>262.8</ele>
        <time>2022-06-25T10:49:49Z</time>
      </trkpt>
      <trkpt lat="46.43153" lon="4.76133">
        <ele>262.8</ele>
        <time>2022-06-25T10:49:54Z</time>
      </trkpt>
      <trkpt lat="46.43153" lon="4.76133">
        <ele>262.8</ele>
        <time>2022-06-25T10:49:59Z</time>
      </trkpt>
      <trkpt lat="46.43153" lon="4.76133">
        <ele>263</ele>
        <time>2022-06-25T10:50:03Z</time>
      </trkpt>
      <trkpt lat="46.43153" lon="4.76133">
        <ele>263</ele>
        <time>2022-06-25T10:50:07Z</time>
      </trkpt>
      <trkpt lat="46.43153" lon="4.76134">
        <ele>262.8</ele>
        <time>2022-06-25T10:50:09Z</time>
      </trkpt>
      <trkpt lat="46.43153" lon="4.76134">
        <ele>262.8</ele>
        <time>2022-06-25T10:50:13Z</time>
      </trkpt>
      <trkpt lat="46.43153" lon="4.76134">
        <ele>262.8</ele>
        <time>2022-06-25T10:50:17Z</time>
      </trkpt>
      <trkpt lat="46.43153" lon="4.76134">
        <ele>262.8</ele>
        <time>2022-06-25T10:50:21Z</time>
      </trkpt>
      <trkpt lat="46.43153" lon="4.76134">
        <ele>262.8</ele>
        <time>2022-06-25T10:50:25Z</time>
      </trkpt>
      <trkpt lat="46.43153" lon="4.76135">
        <ele>262.8</ele>
        <time>2022-06-25T10:50:30Z</time>
      </trkpt>
      <trkpt lat="46.43153" lon="4.76135">
        <ele>262.6</ele>
        <time>2022-06-25T10:50:32Z</time>
      </trkpt>
      <trkpt lat="46.43153" lon="4.76135">
        <ele>262.6</ele>
        <time>2022-06-25T10:50:36Z</time>
      </trkpt>
      <trkpt lat="46.43153" lon="4.76135">
        <ele>262.6</ele>
        <time>2022-06-25T10:50:40Z</time>
      </trkpt>
      <trkpt lat="46.43153" lon="4.76135">
        <ele>262.4</ele>
        <time>2022-06-25T10:50:44Z</time>
      </trkpt>
      <trkpt lat="46.43153" lon="4.76135">
        <ele>262.4</ele>
        <time>2022-06-25T10:50:50Z</time>
      </trkpt>
      <trkpt lat="46.43153" lon="4.76136">
        <ele>262.4</ele>
        <time>2022-06-25T10:50:52Z</time>
      </trkpt>
      <trkpt lat="46.43153" lon="4.76136">
        <ele>262.6</ele>
        <time>2022-06-25T10:50:56Z</time>
      </trkpt>
      <trkpt lat="46.43153" lon="4.76136">
        <ele>262.6</ele>
        <time>2022-06-25T10:51:00Z</time>
      </trkpt>
      <trkpt lat="46.43153" lon="4.76136">
        <ele>262.6</ele>
        <time>2022-06-25T10:51:05Z</time>
      </trkpt>
      <trkpt lat="46.43153" lon="4.76136">
        <ele>262.6</ele>
        <time>2022-06-25T10:51:09Z</time>
      </trkpt>
      <trkpt lat="46.43153" lon="4.76137">
        <ele>262.6</ele>
        <time>2022-06-25T10:51:13Z</time>
      </trkpt>
      <trkpt lat="46.43153" lon="4.76137">
        <ele>262.6</ele>
        <time>2022-06-25T10:51:15Z</time>
      </trkpt>
      <trkpt lat="46.43153" lon="4.76137">
        <ele>262.8</ele>
        <time>2022-06-25T10:51:26Z</time>
      </trkpt>
      <trkpt lat="46.43153" lon="4.76137">
        <ele>262.8</ele>
        <time>2022-06-25T10:51:30Z</time>
      </trkpt>
      <trkpt lat="46.43153" lon="4.76137">
        <ele>262.8</ele>
        <time>2022-06-25T10:51:36Z</time>
      </trkpt>
      <trkpt lat="46.43153" lon="4.76137">
        <ele>262.8</ele>
        <time>2022-06-25T10:51:40Z</time>
      </trkpt>
      <trkpt lat="46.43153" lon="4.76138">
        <ele>262.8</ele>
        <time>2022-06-25T10:51:42Z</time>
      </trkpt>
      <trkpt lat="46.43153" lon="4.76138">
        <ele>262.8</ele>
        <time>2022-06-25T10:51:47Z</time>
      </trkpt>
      <trkpt lat="46.43153" lon="4.76138">
        <ele>263</ele>
        <time>2022-06-25T10:51:51Z</time>
      </trkpt>
      <trkpt lat="46.43153" lon="4.76138">
        <ele>263</ele>
        <time>2022-06-25T10:51:55Z</time>
      </trkpt>
      <trkpt lat="46.43153" lon="4.76138">
        <ele>263</ele>
        <time>2022-06-25T10:51:59Z</time>
      </trkpt>
      <trkpt lat="46.43153" lon="4.76138">
        <ele>263</ele>
        <time>2022-06-25T10:52:02Z</time>
      </trkpt>
      <trkpt lat="46.43153" lon="4.76138">
        <ele>262.8</ele>
        <time>2022-06-25T10:52:22Z</time>
      </trkpt>
      <trkpt lat="46.43153" lon="4.76138">
        <ele>262.6</ele>
        <time>2022-06-25T10:52:54Z</time>
      </trkpt>
      <trkpt lat="46.43153" lon="4.76138">
        <ele>262.6</ele>
        <time>2022-06-25T10:53:41Z</time>
      </trkpt>
      <trkpt lat="46.43154" lon="4.76124">
        <ele>262.6</ele>
        <time>2022-06-25T10:53:44Z</time>
      </trkpt>
      <trkpt lat="46.43153" lon="4.76123">
        <ele>262.6</ele>
        <time>2022-06-25T10:53:46Z</time>
      </trkpt>
      <trkpt lat="46.43153" lon="4.76123">
        <ele>262.6</ele>
        <time>2022-06-25T10:53:47Z</time>
      </trkpt>
      <trkpt lat="46.43153" lon="4.76123">
        <ele>262.6</ele>
        <time>2022-06-25T10:54:23Z</time>
      </trkpt>
      <trkpt lat="46.43153" lon="4.76123">
        <ele>263</ele>
        <time>2022-06-25T10:55:00Z</time>
      </trkpt>
      <trkpt lat="46.43153" lon="4.76123">
        <ele>262.8</ele>
        <time>2022-06-25T10:55:37Z</time>
      </trkpt>
      <trkpt lat="46.43153" lon="4.76123">
        <ele>262.8</ele>
        <time>2022-06-25T10:56:09Z</time>
      </trkpt>
      <trkpt lat="46.43153" lon="4.76123">
        <ele>263</ele>
        <time>2022-06-25T10:56:45Z</time>
      </trkpt>
      <trkpt lat="46.43153" lon="4.76123">
        <ele>263</ele>
        <time>2022-06-25T10:57:19Z</time>
      </trkpt>
      <trkpt lat="46.43153" lon="4.76123">
        <ele>262.8</ele>
        <time>2022-06-25T10:57:51Z</time>
      </trkpt>
      <trkpt lat="46.43153" lon="4.76123">
        <ele>263</ele>
        <time>2022-06-25T10:58:30Z</time>
      </trkpt>
      <trkpt lat="46.43154" lon="4.7611">
        <ele>263</ele>
        <time>2022-06-25T10:59:03Z</time>
      </trkpt>
      <trkpt lat="46.43154" lon="4.7611">
        <ele>263</ele>
        <time>2022-06-25T10:59:04Z</time>
      </trkpt>
      <trkpt lat="46.43154" lon="4.76109">
        <ele>263</ele>
        <time>2022-06-25T10:59:05Z</time>
      </trkpt>
      <trkpt lat="46.43154" lon="4.76109">
        <ele>263.2</ele>
        <time>2022-06-25T10:59:23Z</time>
      </trkpt>
      <trkpt lat="46.43159" lon="4.7612">
        <ele>263.2</ele>
        <time>2022-06-25T11:00:02Z</time>
      </trkpt>
      <trkpt lat="46.4316" lon="4.76121">
        <ele>263.2</ele>
        <time>2022-06-25T11:00:03Z</time>
      </trkpt>
      <trkpt lat="46.4316" lon="4.7612">
        <ele>263.2</ele>
        <time>2022-06-25T11:00:23Z</time>
      </trkpt>
      <trkpt lat="46.4316" lon="4.7612">
        <ele>263.2</ele>
        <time>2022-06-25T11:00:29Z</time>
      </trkpt>
      <trkpt lat="46.4316" lon="4.7612">
        <ele>263.2</ele>
        <time>2022-06-25T11:00:37Z</time>
      </trkpt>
      <trkpt lat="46.4316" lon="4.7612">
        <ele>263.2</ele>
        <time>2022-06-25T11:00:45Z</time>
      </trkpt>
      <trkpt lat="46.4316" lon="4.7612">
        <ele>263.2</ele>
        <time>2022-06-25T11:01:02Z</time>
      </trkpt>
      <trkpt lat="46.4316" lon="4.7612">
        <ele>263.4</ele>
        <time>2022-06-25T11:01:29Z</time>
      </trkpt>
      <trkpt lat="46.4316" lon="4.76119">
        <ele>263.4</ele>
        <time>2022-06-25T11:01:33Z</time>
      </trkpt>
      <trkpt lat="46.4316" lon="4.76119">
        <ele>263.4</ele>
        <time>2022-06-25T11:01:41Z</time>
      </trkpt>
      <trkpt lat="46.4316" lon="4.76119">
        <ele>263.4</ele>
        <time>2022-06-25T11:01:45Z</time>
      </trkpt>
      <trkpt lat="46.4316" lon="4.76119">
        <ele>263.4</ele>
        <time>2022-06-25T11:01:54Z</time>
      </trkpt>
      <trkpt lat="46.4316" lon="4.76119">
        <ele>263.6</ele>
        <time>2022-06-25T11:02:20Z</time>
      </trkpt>
      <trkpt lat="46.4316" lon="4.76119">
        <ele>263.6</ele>
        <time>2022-06-25T11:02:36Z</time>
      </trkpt>
      <trkpt lat="46.4316" lon="4.76118">
        <ele>263.6</ele>
        <time>2022-06-25T11:02:40Z</time>
      </trkpt>
      <trkpt lat="46.4316" lon="4.76118">
        <ele>263.6</ele>
        <time>2022-06-25T11:02:47Z</time>
      </trkpt>
      <trkpt lat="46.4316" lon="4.76118">
        <ele>263.6</ele>
        <time>2022-06-25T11:02:52Z</time>
      </trkpt>
      <trkpt lat="46.4316" lon="4.76118">
        <ele>263.6</ele>
        <time>2022-06-25T11:03:00Z</time>
      </trkpt>
      <trkpt lat="46.4316" lon="4.76118">
        <ele>263.8</ele>
        <time>2022-06-25T11:03:08Z</time>
      </trkpt>
      <trkpt lat="46.4316" lon="4.76118">
        <ele>263.8</ele>
        <time>2022-06-25T11:03:16Z</time>
      </trkpt>
      <trkpt lat="46.4316" lon="4.76117">
        <ele>263.8</ele>
        <time>2022-06-25T11:03:20Z</time>
      </trkpt>
      <trkpt lat="46.4316" lon="4.76117">
        <ele>263.8</ele>
        <time>2022-06-25T11:03:25Z</time>
      </trkpt>
      <trkpt lat="46.4316" lon="4.76117">
        <ele>263.8</ele>
        <time>2022-06-25T11:03:32Z</time>
      </trkpt>
      <trkpt lat="46.4316" lon="4.76117">
        <ele>263.8</ele>
        <time>2022-06-25T11:03:41Z</time>
      </trkpt>
      <trkpt lat="46.4316" lon="4.76117">
        <ele>263.8</ele>
        <time>2022-06-25T11:04:00Z</time>
      </trkpt>
      <trkpt lat="46.4316" lon="4.76117">
        <ele>263.8</ele>
        <time>2022-06-25T11:04:13Z</time>
      </trkpt>
      <trkpt lat="46.4316" lon="4.76116">
        <ele>263.8</ele>
        <time>2022-06-25T11:04:17Z</time>
      </trkpt>
      <trkpt lat="46.4316" lon="4.76116">
        <ele>263.8</ele>
        <time>2022-06-25T11:04:21Z</time>
      </trkpt>
      <trkpt lat="46.4316" lon="4.76116">
        <ele>263.8</ele>
        <time>2022-06-25T11:04:31Z</time>
      </trkpt>
      <trkpt lat="46.4316" lon="4.76116">
        <ele>263.8</ele>
        <time>2022-06-25T11:04:39Z</time>
      </trkpt>
      <trkpt lat="46.4316" lon="4.76116">
        <ele>263.8</ele>
        <time>2022-06-25T11:04:47Z</time>
      </trkpt>
      <trkpt lat="46.4316" lon="4.76116">
        <ele>264.2</ele>
        <time>2022-06-25T11:04:56Z</time>
      </trkpt>
      <trkpt lat="46.4316" lon="4.76115">
        <ele>263.8</ele>
        <time>2022-06-25T11:05:00Z</time>
      </trkpt>
      <trkpt lat="46.4316" lon="4.76115">
        <ele>263.8</ele>
        <time>2022-06-25T11:05:08Z</time>
      </trkpt>
      <trkpt lat="46.4316" lon="4.76115">
        <ele>263.8</ele>
        <time>2022-06-25T11:05:16Z</time>
      </trkpt>
      <trkpt lat="46.4316" lon="4.76115">
        <ele>263.8</ele>
        <time>2022-06-25T11:05:24Z</time>
      </trkpt>
      <trkpt lat="46.4316" lon="4.76115">
        <ele>263.8</ele>
        <time>2022-06-25T11:05:32Z</time>
      </trkpt>
      <trkpt lat="46.4316" lon="4.76115">
        <ele>263.6</ele>
        <time>2022-06-25T11:05:39Z</time>
      </trkpt>
      <trkpt lat="46.4316" lon="4.76114">
        <ele>263.6</ele>
        <time>2022-06-25T11:05:41Z</time>
      </trkpt>
      <trkpt lat="46.4316" lon="4.76114">
        <ele>263.6</ele>
        <time>2022-06-25T11:05:51Z</time>
      </trkpt>
      <trkpt lat="46.4316" lon="4.76114">
        <ele>263.6</ele>
        <time>2022-06-25T11:05:59Z</time>
      </trkpt>
      <trkpt lat="46.4316" lon="4.76114">
        <ele>263.6</ele>
        <time>2022-06-25T11:06:07Z</time>
      </trkpt>
      <trkpt lat="46.4316" lon="4.76114">
        <ele>263.6</ele>
        <time>2022-06-25T11:06:16Z</time>
      </trkpt>
      <trkpt lat="46.4316" lon="4.76114">
        <ele>263.6</ele>
        <time>2022-06-25T11:06:20Z</time>
      </trkpt>
      <trkpt lat="46.4316" lon="4.76113">
        <ele>263.6</ele>
        <time>2022-06-25T11:06:24Z</time>
      </trkpt>
      <trkpt lat="46.4316" lon="4.76113">
        <ele>263.6</ele>
        <time>2022-06-25T11:06:32Z</time>
      </trkpt>
      <trkpt lat="46.4316" lon="4.76113">
        <ele>263.4</ele>
        <time>2022-06-25T11:06:40Z</time>
      </trkpt>
      <trkpt lat="46.4316" lon="4.76113">
        <ele>263.4</ele>
        <time>2022-06-25T11:06:48Z</time>
      </trkpt>
      <trkpt lat="46.4316" lon="4.76113">
        <ele>263.6</ele>
        <time>2022-06-25T11:06:56Z</time>
      </trkpt>
      <trkpt lat="46.4316" lon="4.76113">
        <ele>263.6</ele>
        <time>2022-06-25T11:07:00Z</time>
      </trkpt>
      <trkpt lat="46.4316" lon="4.76112">
        <ele>263.6</ele>
        <time>2022-06-25T11:07:04Z</time>
      </trkpt>
      <trkpt lat="46.4316" lon="4.76112">
        <ele>263.8</ele>
        <time>2022-06-25T11:07:12Z</time>
      </trkpt>
      <trkpt lat="46.4316" lon="4.76112">
        <ele>263.6</ele>
        <time>2022-06-25T11:07:22Z</time>
      </trkpt>
      <trkpt lat="46.4316" lon="4.76112">
        <ele>263.6</ele>
        <time>2022-06-25T11:07:30Z</time>
      </trkpt>
      <trkpt lat="46.43161" lon="4.76112">
        <ele>263.6</ele>
        <time>2022-06-25T11:07:36Z</time>
      </trkpt>
      <trkpt lat="46.43161" lon="4.76112">
        <ele>263.6</ele>
        <time>2022-06-25T11:07:39Z</time>
      </trkpt>
      <trkpt lat="46.43161" lon="4.76111">
        <ele>263.6</ele>
        <time>2022-06-25T11:07:50Z</time>
      </trkpt>
      <trkpt lat="46.43161" lon="4.76111">
        <ele>263.6</ele>
        <time>2022-06-25T11:07:54Z</time>
      </trkpt>
      <trkpt lat="46.43161" lon="4.76111">
        <ele>263.6</ele>
        <time>2022-06-25T11:08:02Z</time>
      </trkpt>
      <trkpt lat="46.43161" lon="4.76111">
        <ele>263.4</ele>
        <time>2022-06-25T11:08:15Z</time>
      </trkpt>
      <trkpt lat="46.43161" lon="4.76111">
        <ele>263.4</ele>
        <time>2022-06-25T11:08:22Z</time>
      </trkpt>
      <trkpt lat="46.43161" lon="4.76111">
        <ele>263.2</ele>
        <time>2022-06-25T11:08:27Z</time>
      </trkpt>
      <trkpt lat="46.43161" lon="4.7611">
        <ele>263.4</ele>
        <time>2022-06-25T11:08:35Z</time>
      </trkpt>
      <trkpt lat="46.43161" lon="4.7611">
        <ele>263.2</ele>
        <time>2022-06-25T11:08:40Z</time>
      </trkpt>
      <trkpt lat="46.43161" lon="4.7611">
        <ele>263.4</ele>
        <time>2022-06-25T11:08:50Z</time>
      </trkpt>
      <trkpt lat="46.43161" lon="4.7611">
        <ele>263.6</ele>
        <time>2022-06-25T11:08:58Z</time>
      </trkpt>
      <trkpt lat="46.43161" lon="4.7611">
        <ele>263.6</ele>
        <time>2022-06-25T11:09:03Z</time>
      </trkpt>
      <trkpt lat="46.43161" lon="4.7611">
        <ele>263.6</ele>
        <time>2022-06-25T11:09:10Z</time>
      </trkpt>
      <trkpt lat="46.43161" lon="4.76109">
        <ele>263.6</ele>
        <time>2022-06-25T11:09:18Z</time>
      </trkpt>
      <trkpt lat="46.43161" lon="4.76109">
        <ele>263.6</ele>
        <time>2022-06-25T11:09:22Z</time>
      </trkpt>
      <trkpt lat="46.43161" lon="4.76109">
        <ele>263.6</ele>
        <time>2022-06-25T11:09:31Z</time>
      </trkpt>
      <trkpt lat="46.43161" lon="4.76109">
        <ele>263.4</ele>
        <time>2022-06-25T11:09:39Z</time>
      </trkpt>
      <trkpt lat="46.43161" lon="4.76109">
        <ele>263.4</ele>
        <time>2022-06-25T11:09:43Z</time>
      </trkpt>
      <trkpt lat="46.43161" lon="4.76109">
        <ele>263.4</ele>
        <time>2022-06-25T11:09:51Z</time>
      </trkpt>
      <trkpt lat="46.43161" lon="4.76108">
        <ele>263.4</ele>
        <time>2022-06-25T11:09:59Z</time>
      </trkpt>
      <trkpt lat="46.43161" lon="4.76108">
        <ele>263.4</ele>
        <time>2022-06-25T11:10:06Z</time>
      </trkpt>
      <trkpt lat="46.43161" lon="4.76108">
        <ele>263.4</ele>
        <time>2022-06-25T11:10:14Z</time>
      </trkpt>
      <trkpt lat="46.43161" lon="4.76108">
        <ele>263.4</ele>
        <time>2022-06-25T11:10:19Z</time>
      </trkpt>
      <trkpt lat="46.43161" lon="4.76108">
        <ele>263.4</ele>
        <time>2022-06-25T11:10:29Z</time>
      </trkpt>
      <trkpt lat="46.4316" lon="4.76108">
        <ele>263.4</ele>
        <time>2022-06-25T11:10:35Z</time>
      </trkpt>
      <trkpt lat="46.4316" lon="4.76108">
        <ele>263.4</ele>
        <time>2022-06-25T11:10:39Z</time>
      </trkpt>
      <trkpt lat="46.4316" lon="4.76109">
        <ele>263.4</ele>
        <time>2022-06-25T11:10:44Z</time>
      </trkpt>
      <trkpt lat="46.4316" lon="4.76109">
        <ele>263.4</ele>
        <time>2022-06-25T11:10:47Z</time>
      </trkpt>
      <trkpt lat="46.4316" lon="4.76109">
        <ele>263.4</ele>
        <time>2022-06-25T11:10:52Z</time>
      </trkpt>
      <trkpt lat="46.4316" lon="4.76109">
        <ele>263.4</ele>
        <time>2022-06-25T11:10:58Z</time>
      </trkpt>
      <trkpt lat="46.4316" lon="4.76109">
        <ele>263.4</ele>
        <time>2022-06-25T11:11:04Z</time>
      </trkpt>
      <trkpt lat="46.4316" lon="4.76109">
        <ele>263.4</ele>
        <time>2022-06-25T11:11:10Z</time>
      </trkpt>
      <trkpt lat="46.4316" lon="4.76109">
        <ele>263.4</ele>
        <time>2022-06-25T11:11:15Z</time>
      </trkpt>
      <trkpt lat="46.4316" lon="4.76109">
        <ele>263.4</ele>
        <time>2022-06-25T11:11:21Z</time>
      </trkpt>
      <trkpt lat="46.4316" lon="4.76109">
        <ele>263.4</ele>
        <time>2022-06-25T11:11:27Z</time>
      </trkpt>
      <trkpt lat="46.43159" lon="4.7611">
        <ele>263.6</ele>
        <time>2022-06-25T11:11:33Z</time>
      </trkpt>
      <trkpt lat="46.43159" lon="4.7611">
        <ele>263.6</ele>
        <time>2022-06-25T11:11:38Z</time>
      </trkpt>
      <trkpt lat="46.43159" lon="4.7611">
        <ele>263.6</ele>
        <time>2022-06-25T11:11:44Z</time>
      </trkpt>
      <trkpt lat="46.43159" lon="4.7611">
        <ele>263.6</ele>
        <time>2022-06-25T11:11:52Z</time>
      </trkpt>
      <trkpt lat="46.43159" lon="4.7611">
        <ele>263.6</ele>
        <time>2022-06-25T11:12:03Z</time>
      </trkpt>
      <trkpt lat="46.43159" lon="4.7611">
        <ele>263.6</ele>
        <time>2022-06-25T11:12:14Z</time>
      </trkpt>
      <trkpt lat="46.43159" lon="4.7611">
        <ele>263.6</ele>
        <time>2022-06-25T11:12:23Z</time>
      </trkpt>
      <trkpt lat="46.43159" lon="4.7611">
        <ele>263.6</ele>
        <time>2022-06-25T11:12:31Z</time>
      </trkpt>
      <trkpt lat="46.43159" lon="4.7611">
        <ele>263.6</ele>
        <time>2022-06-25T11:12:36Z</time>
      </trkpt>
      <trkpt lat="46.43159" lon="4.76111">
        <ele>263.6</ele>
        <time>2022-06-25T11:12:40Z</time>
      </trkpt>
      <trkpt lat="46.43159" lon="4.76111">
        <ele>263.6</ele>
        <time>2022-06-25T11:12:45Z</time>
      </trkpt>
      <trkpt lat="46.43158" lon="4.76111">
        <ele>263.6</ele>
        <time>2022-06-25T11:12:48Z</time>
      </trkpt>
      <trkpt lat="46.43158" lon="4.76111">
        <ele>263.6</ele>
        <time>2022-06-25T11:13:02Z</time>
      </trkpt>
      <trkpt lat="46.43158" lon="4.76111">
        <ele>263.2</ele>
        <time>2022-06-25T11:13:12Z</time>
      </trkpt>
      <trkpt lat="46.43158" lon="4.76111">
        <ele>263.6</ele>
        <time>2022-06-25T11:13:17Z</time>
      </trkpt>
      <trkpt lat="46.43158" lon="4.76111">
        <ele>263.6</ele>
        <time>2022-06-25T11:13:22Z</time>
      </trkpt>
      <trkpt lat="46.43158" lon="4.76111">
        <ele>263.6</ele>
        <time>2022-06-25T11:13:27Z</time>
      </trkpt>
      <trkpt lat="46.43158" lon="4.76111">
        <ele>263.6</ele>
        <time>2022-06-25T11:13:32Z</time>
      </trkpt>
      <trkpt lat="46.43158" lon="4.76112">
        <ele>263.6</ele>
        <time>2022-06-25T11:13:37Z</time>
      </trkpt>
      <trkpt lat="46.43158" lon="4.76112">
        <ele>263.6</ele>
        <time>2022-06-25T11:13:42Z</time>
      </trkpt>
      <trkpt lat="46.43158" lon="4.76112">
        <ele>263.6</ele>
        <time>2022-06-25T11:13:48Z</time>
      </trkpt>
      <trkpt lat="46.43157" lon="4.76112">
        <ele>263.6</ele>
        <time>2022-06-25T11:13:54Z</time>
      </trkpt>
      <trkpt lat="46.43157" lon="4.76112">
        <ele>263.6</ele>
        <time>2022-06-25T11:13:57Z</time>
      </trkpt>
      <trkpt lat="46.43157" lon="4.76112">
        <ele>263.6</ele>
        <time>2022-06-25T11:14:02Z</time>
      </trkpt>
      <trkpt lat="46.43157" lon="4.76112">
        <ele>263.6</ele>
        <time>2022-06-25T11:14:07Z</time>
      </trkpt>
      <trkpt lat="46.43157" lon="4.76112">
        <ele>263.6</ele>
        <time>2022-06-25T11:14:17Z</time>
      </trkpt>
      <trkpt lat="46.43157" lon="4.76112">
        <ele>263.6</ele>
        <time>2022-06-25T11:14:23Z</time>
      </trkpt>
      <trkpt lat="46.43157" lon="4.76113">
        <ele>263.6</ele>
        <time>2022-06-25T11:14:27Z</time>
      </trkpt>
      <trkpt lat="46.43157" lon="4.76113">
        <ele>263.6</ele>
        <time>2022-06-25T11:14:33Z</time>
      </trkpt>
      <trkpt lat="46.43157" lon="4.76113">
        <ele>263.6</ele>
        <time>2022-06-25T11:14:38Z</time>
      </trkpt>
      <trkpt lat="46.43157" lon="4.76113">
        <ele>263.6</ele>
        <time>2022-06-25T11:14:43Z</time>
      </trkpt>
      <trkpt lat="46.43157" lon="4.76113">
        <ele>263.6</ele>
        <time>2022-06-25T11:14:56Z</time>
      </trkpt>
      <trkpt lat="46.43156" lon="4.76113">
        <ele>263.6</ele>
        <time>2022-06-25T11:14:57Z</time>
      </trkpt>
      <trkpt lat="46.43156" lon="4.76113">
        <ele>263.6</ele>
        <time>2022-06-25T11:15:02Z</time>
      </trkpt>
      <trkpt lat="46.43156" lon="4.76113">
        <ele>263.8</ele>
        <time>2022-06-25T11:15:08Z</time>
      </trkpt>
      <trkpt lat="46.43156" lon="4.76113">
        <ele>263.8</ele>
        <time>2022-06-25T11:15:14Z</time>
      </trkpt>
      <trkpt lat="46.43156" lon="4.76113">
        <ele>263.6</ele>
        <time>2022-06-25T11:15:20Z</time>
      </trkpt>
      <trkpt lat="46.43156" lon="4.76114">
        <ele>263.6</ele>
        <time>2022-06-25T11:15:21Z</time>
      </trkpt>
      <trkpt lat="46.43156" lon="4.76114">
        <ele>263.6</ele>
        <time>2022-06-25T11:15:26Z</time>
      </trkpt>
      <trkpt lat="46.43156" lon="4.76114">
        <ele>263.6</ele>
        <time>2022-06-25T11:15:36Z</time>
      </trkpt>
      <trkpt lat="46.43156" lon="4.76114">
        <ele>263.6</ele>
        <time>2022-06-25T11:15:40Z</time>
      </trkpt>
      <trkpt lat="46.43156" lon="4.76114">
        <ele>263.6</ele>
        <time>2022-06-25T11:15:45Z</time>
      </trkpt>
      <trkpt lat="46.43156" lon="4.76114">
        <ele>263.6</ele>
        <time>2022-06-25T11:15:50Z</time>
      </trkpt>
      <trkpt lat="46.43155" lon="4.76114">
        <ele>263.6</ele>
        <time>2022-06-25T11:15:54Z</time>
      </trkpt>
      <trkpt lat="46.43155" lon="4.76114">
        <ele>263.6</ele>
        <time>2022-06-25T11:16:00Z</time>
      </trkpt>
      <trkpt lat="46.43155" lon="4.76114">
        <ele>263.6</ele>
        <time>2022-06-25T11:16:07Z</time>
      </trkpt>
      <trkpt lat="46.43155" lon="4.76115">
        <ele>263.8</ele>
        <time>2022-06-25T11:16:11Z</time>
      </trkpt>
      <trkpt lat="46.43155" lon="4.76115">
        <ele>263.8</ele>
        <time>2022-06-25T11:16:16Z</time>
      </trkpt>
      <trkpt lat="46.43155" lon="4.76115">
        <ele>264</ele>
        <time>2022-06-25T11:16:21Z</time>
      </trkpt>
      <trkpt lat="46.43155" lon="4.76115">
        <ele>264</ele>
        <time>2022-06-25T11:16:26Z</time>
      </trkpt>
      <trkpt lat="46.43155" lon="4.76115">
        <ele>264</ele>
        <time>2022-06-25T11:16:35Z</time>
      </trkpt>
      <trkpt lat="46.43155" lon="4.76115">
        <ele>264</ele>
        <time>2022-06-25T11:16:41Z</time>
      </trkpt>
      <trkpt lat="46.43155" lon="4.76115">
        <ele>264</ele>
        <time>2022-06-25T11:16:56Z</time>
      </trkpt>
      <trkpt lat="46.43154" lon="4.76115">
        <ele>264</ele>
        <time>2022-06-25T11:17:01Z</time>
      </trkpt>
      <trkpt lat="46.43154" lon="4.76115">
        <ele>264</ele>
        <time>2022-06-25T11:17:04Z</time>
      </trkpt>
      <trkpt lat="46.43154" lon="4.76116">
        <ele>264.2</ele>
        <time>2022-06-25T11:17:10Z</time>
      </trkpt>
      <trkpt lat="46.43154" lon="4.76116">
        <ele>264.2</ele>
        <time>2022-06-25T11:17:14Z</time>
      </trkpt>
      <trkpt lat="46.43154" lon="4.76116">
        <ele>264.2</ele>
        <time>2022-06-25T11:17:20Z</time>
      </trkpt>
      <trkpt lat="46.43154" lon="4.76116">
        <ele>264.2</ele>
        <time>2022-06-25T11:17:29Z</time>
      </trkpt>
      <trkpt lat="46.43154" lon="4.76116">
        <ele>264.2</ele>
        <time>2022-06-25T11:17:31Z</time>
      </trkpt>
      <trkpt lat="46.43154" lon="4.76117">
        <ele>264.2</ele>
        <time>2022-06-25T11:17:33Z</time>
      </trkpt>
      <trkpt lat="46.43154" lon="4.76117">
        <ele>264.2</ele>
        <time>2022-06-25T11:17:34Z</time>
      </trkpt>
      <trkpt lat="46.43154" lon="4.76117">
        <ele>264.2</ele>
        <time>2022-06-25T11:17:37Z</time>
      </trkpt>
      <trkpt lat="46.43154" lon="4.76117">
        <ele>264.2</ele>
        <time>2022-06-25T11:17:41Z</time>
      </trkpt>
      <trkpt lat="46.43154" lon="4.76117">
        <ele>264.2</ele>
        <time>2022-06-25T11:17:43Z</time>
      </trkpt>
      <trkpt lat="46.43154" lon="4.76117">
        <ele>264.2</ele>
        <time>2022-06-25T11:17:45Z</time>
      </trkpt>
      <trkpt lat="46.43154" lon="4.76118">
        <ele>264.2</ele>
        <time>2022-06-25T11:17:46Z</time>
      </trkpt>
      <trkpt lat="46.43154" lon="4.76118">
        <ele>264.2</ele>
        <time>2022-06-25T11:17:48Z</time>
      </trkpt>
      <trkpt lat="46.43154" lon="4.76118">
        <ele>264.2</ele>
        <time>2022-06-25T11:17:51Z</time>
      </trkpt>
      <trkpt lat="46.43155" lon="4.76118">
        <ele>264.2</ele>
        <time>2022-06-25T11:17:52Z</time>
      </trkpt>
      <trkpt lat="46.43155" lon="4.76118">
        <ele>264.2</ele>
        <time>2022-06-25T11:17:54Z</time>
      </trkpt>
      <trkpt lat="46.43155" lon="4.76118">
        <ele>264.2</ele>
        <time>2022-06-25T11:17:56Z</time>
      </trkpt>
      <trkpt lat="46.43155" lon="4.76119">
        <ele>264.2</ele>
        <time>2022-06-25T11:17:57Z</time>
      </trkpt>
      <trkpt lat="46.43155" lon="4.76119">
        <ele>264.2</ele>
        <time>2022-06-25T11:17:59Z</time>
      </trkpt>
      <trkpt lat="46.43155" lon="4.76119">
        <ele>264.2</ele>
        <time>2022-06-25T11:18:01Z</time>
      </trkpt>
      <trkpt lat="46.43155" lon="4.76119">
        <ele>264.2</ele>
        <time>2022-06-25T11:18:04Z</time>
      </trkpt>
      <trkpt lat="46.43155" lon="4.76119">
        <ele>264.2</ele>
        <time>2022-06-25T11:18:07Z</time>
      </trkpt>
      <trkpt lat="46.43155" lon="4.7612">
        <ele>264.2</ele>
        <time>2022-06-25T11:18:10Z</time>
      </trkpt>
      <trkpt lat="46.43155" lon="4.7612">
        <ele>264.2</ele>
        <time>2022-06-25T11:18:11Z</time>
      </trkpt>
      <trkpt lat="46.43155" lon="4.7612">
        <ele>264.2</ele>
        <time>2022-06-25T11:18:13Z</time>
      </trkpt>
      <trkpt lat="46.43155" lon="4.7612">
        <ele>264.2</ele>
        <time>2022-06-25T11:18:15Z</time>
      </trkpt>
      <trkpt lat="46.43155" lon="4.7612">
        <ele>264.2</ele>
        <time>2022-06-25T11:18:17Z</time>
      </trkpt>
      <trkpt lat="46.43155" lon="4.7612">
        <ele>264.2</ele>
        <time>2022-06-25T11:18:19Z</time>
      </trkpt>
      <trkpt lat="46.43155" lon="4.76121">
        <ele>264.4</ele>
        <time>2022-06-25T11:18:21Z</time>
      </trkpt>
      <trkpt lat="46.43155" lon="4.76121">
        <ele>264.4</ele>
        <time>2022-06-25T11:18:26Z</time>
      </trkpt>
      <trkpt lat="46.43155" lon="4.76121">
        <ele>264.4</ele>
        <time>2022-06-25T11:18:28Z</time>
      </trkpt>
      <trkpt lat="46.43155" lon="4.76121">
        <ele>264.4</ele>
        <time>2022-06-25T11:18:30Z</time>
      </trkpt>
      <trkpt lat="46.43155" lon="4.76121">
        <ele>264.4</ele>
        <time>2022-06-25T11:18:32Z</time>
      </trkpt>
      <trkpt lat="46.43156" lon="4.76121">
        <ele>264.4</ele>
        <time>2022-06-25T11:18:34Z</time>
      </trkpt>
      <trkpt lat="46.43156" lon="4.76122">
        <ele>264.4</ele>
        <time>2022-06-25T11:18:36Z</time>
      </trkpt>
      <trkpt lat="46.43156" lon="4.76122">
        <ele>264.4</ele>
        <time>2022-06-25T11:18:37Z</time>
      </trkpt>
      <trkpt lat="46.43156" lon="4.76122">
        <ele>264.4</ele>
        <time>2022-06-25T11:18:39Z</time>
      </trkpt>
      <trkpt lat="46.43156" lon="4.76122">
        <ele>264.4</ele>
        <time>2022-06-25T11:18:41Z</time>
      </trkpt>
      <trkpt lat="46.43156" lon="4.76122">
        <ele>264.4</ele>
        <time>2022-06-25T11:18:43Z</time>
      </trkpt>
      <trkpt lat="46.43156" lon="4.76122">
        <ele>264.4</ele>
        <time>2022-06-25T11:18:45Z</time>
      </trkpt>
      <trkpt lat="46.43156" lon="4.76123">
        <ele>264.4</ele>
        <time>2022-06-25T11:18:47Z</time>
      </trkpt>
      <trkpt lat="46.43156" lon="4.76123">
        <ele>264.4</ele>
        <time>2022-06-25T11:18:48Z</time>
      </trkpt>
      <trkpt lat="46.43156" lon="4.76123">
        <ele>264.4</ele>
        <time>2022-06-25T11:18:51Z</time>
      </trkpt>
      <trkpt lat="46.43156" lon="4.76123">
        <ele>264.2</ele>
        <time>2022-06-25T11:18:53Z</time>
      </trkpt>
      <trkpt lat="46.43156" lon="4.76123">
        <ele>264.2</ele>
        <time>2022-06-25T11:18:55Z</time>
      </trkpt>
      <trkpt lat="46.43156" lon="4.76123">
        <ele>264.2</ele>
        <time>2022-06-25T11:18:57Z</time>
      </trkpt>
      <trkpt lat="46.43156" lon="4.76124">
        <ele>264.2</ele>
        <time>2022-06-25T11:18:58Z</time>
      </trkpt>
      <trkpt lat="46.43156" lon="4.76124">
        <ele>264.2</ele>
        <time>2022-06-25T11:19:00Z</time>
      </trkpt>
      <trkpt lat="46.43156" lon="4.76124">
        <ele>264.2</ele>
        <time>2022-06-25T11:19:02Z</time>
      </trkpt>
      <trkpt lat="46.43156" lon="4.76124">
        <ele>264.2</ele>
        <time>2022-06-25T11:19:05Z</time>
      </trkpt>
      <trkpt lat="46.43156" lon="4.76124">
        <ele>264.2</ele>
        <time>2022-06-25T11:19:07Z</time>
      </trkpt>
      <trkpt lat="46.43157" lon="4.76125">
        <ele>264.2</ele>
        <time>2022-06-25T11:19:09Z</time>
      </trkpt>
      <trkpt lat="46.43157" lon="4.76125">
        <ele>264.2</ele>
        <time>2022-06-25T11:19:10Z</time>
      </trkpt>
      <trkpt lat="46.43157" lon="4.76125">
        <ele>264.2</ele>
        <time>2022-06-25T11:19:12Z</time>
      </trkpt>
      <trkpt lat="46.43157" lon="4.76125">
        <ele>264.2</ele>
        <time>2022-06-25T11:19:14Z</time>
      </trkpt>
      <trkpt lat="46.43157" lon="4.76125">
        <ele>264.2</ele>
        <time>2022-06-25T11:19:17Z</time>
      </trkpt>
      <trkpt lat="46.43157" lon="4.76125">
        <ele>264.2</ele>
        <time>2022-06-25T11:19:19Z</time>
      </trkpt>
      <trkpt lat="46.43157" lon="4.76126">
        <ele>264.2</ele>
        <time>2022-06-25T11:19:20Z</time>
      </trkpt>
      <trkpt lat="46.43157" lon="4.76126">
        <ele>264.2</ele>
        <time>2022-06-25T11:19:23Z</time>
      </trkpt>
      <trkpt lat="46.43157" lon="4.76126">
        <ele>264.2</ele>
        <time>2022-06-25T11:19:26Z</time>
      </trkpt>
      <trkpt lat="46.43157" lon="4.76126">
        <ele>264.2</ele>
        <time>2022-06-25T11:19:28Z</time>
      </trkpt>
      <trkpt lat="46.43158" lon="4.76127">
        <ele>264.2</ele>
        <time>2022-06-25T11:19:30Z</time>
      </trkpt>
      <trkpt lat="46.43158" lon="4.76127">
        <ele>264.2</ele>
        <time>2022-06-25T11:19:31Z</time>
      </trkpt>
      <trkpt lat="46.43158" lon="4.76128">
        <ele>264.2</ele>
        <time>2022-06-25T11:19:32Z</time>
      </trkpt>
      <trkpt lat="46.43159" lon="4.76128">
        <ele>264.2</ele>
        <time>2022-06-25T11:19:33Z</time>
      </trkpt>
      <trkpt lat="46.43159" lon="4.76128">
        <ele>264</ele>
        <time>2022-06-25T11:19:36Z</time>
      </trkpt>
      <trkpt lat="46.43159" lon="4.76129">
        <ele>264</ele>
        <time>2022-06-25T11:19:37Z</time>
      </trkpt>
      <trkpt lat="46.43159" lon="4.76129">
        <ele>264</ele>
        <time>2022-06-25T11:19:44Z</time>
      </trkpt>
      <trkpt lat="46.4316" lon="4.7613">
        <ele>263.8</ele>
        <time>2022-06-25T11:19:47Z</time>
      </trkpt>
      <trkpt lat="46.4316" lon="4.7613">
        <ele>263.8</ele>
        <time>2022-06-25T11:19:48Z</time>
      </trkpt>
      <trkpt lat="46.4316" lon="4.76131">
        <ele>263.8</ele>
        <time>2022-06-25T11:19:50Z</time>
      </trkpt>
      <trkpt lat="46.4316" lon="4.76131">
        <ele>263.8</ele>
        <time>2022-06-25T11:19:51Z</time>
      </trkpt>
      <trkpt lat="46.4316" lon="4.76133">
        <ele>263.8</ele>
        <time>2022-06-25T11:19:52Z</time>
      </trkpt>
      <trkpt lat="46.43159" lon="4.76135">
        <ele>263.8</ele>
        <time>2022-06-25T11:19:53Z</time>
      </trkpt>
      <trkpt lat="46.43157" lon="4.76136">
        <ele>263.8</ele>
        <time>2022-06-25T11:19:54Z</time>
      </trkpt>
      <trkpt lat="46.43156" lon="4.76138">
        <ele>263.8</ele>
        <time>2022-06-25T11:19:55Z</time>
      </trkpt>
      <trkpt lat="46.43155" lon="4.76141">
        <ele>263.8</ele>
        <time>2022-06-25T11:19:56Z</time>
      </trkpt>
      <trkpt lat="46.43153" lon="4.76143">
        <ele>263.8</ele>
        <time>2022-06-25T11:19:57Z</time>
      </trkpt>
      <trkpt lat="46.43152" lon="4.76146">
        <ele>263.8</ele>
        <time>2022-06-25T11:19:58Z</time>
      </trkpt>
      <trkpt lat="46.43151" lon="4.76149">
        <ele>263.8</ele>
        <time>2022-06-25T11:19:59Z</time>
      </trkpt>
      <trkpt lat="46.43149" lon="4.76151">
        <ele>263.8</ele>
        <time>2022-06-25T11:20:00Z</time>
      </trkpt>
      <trkpt lat="46.43147" lon="4.76153">
        <ele>263.8</ele>
        <time>2022-06-25T11:20:01Z</time>
      </trkpt>
      <trkpt lat="46.43144" lon="4.76154">
        <ele>263.8</ele>
        <time>2022-06-25T11:20:02Z</time>
      </trkpt>
      <trkpt lat="46.43142" lon="4.76156">
        <ele>263.8</ele>
        <time>2022-06-25T11:20:03Z</time>
      </trkpt>
      <trkpt lat="46.43139" lon="4.76156">
        <ele>263.8</ele>
        <time>2022-06-25T11:20:04Z</time>
      </trkpt>
      <trkpt lat="46.43135" lon="4.76157">
        <ele>263.4</ele>
        <time>2022-06-25T11:20:05Z</time>
      </trkpt>
      <trkpt lat="46.43132" lon="4.76157">
        <ele>263.4</ele>
        <time>2022-06-25T11:20:06Z</time>
      </trkpt>
      <trkpt lat="46.43128" lon="4.76157">
        <ele>263.4</ele>
        <time>2022-06-25T11:20:07Z</time>
      </trkpt>
      <trkpt lat="46.43124" lon="4.76156">
        <ele>263.2</ele>
        <time>2022-06-25T11:20:08Z</time>
      </trkpt>
      <trkpt lat="46.43119" lon="4.76155">
        <ele>263.2</ele>
        <time>2022-06-25T11:20:09Z</time>
      </trkpt>
      <trkpt lat="46.43114" lon="4.76153">
        <ele>263.2</ele>
        <time>2022-06-25T11:20:10Z</time>
      </trkpt>
      <trkpt lat="46.43108" lon="4.76152">
        <ele>263.2</ele>
        <time>2022-06-25T11:20:11Z</time>
      </trkpt>
      <trkpt lat="46.43103" lon="4.76152">
        <ele>263</ele>
        <time>2022-06-25T11:20:12Z</time>
      </trkpt>
      <trkpt lat="46.43097" lon="4.76151">
        <ele>263</ele>
        <time>2022-06-25T11:20:13Z</time>
      </trkpt>
      <trkpt lat="46.43091" lon="4.7615">
        <ele>262.6</ele>
        <time>2022-06-25T11:20:14Z</time>
      </trkpt>
      <trkpt lat="46.43085" lon="4.76151">
        <ele>262.6</ele>
        <time>2022-06-25T11:20:15Z</time>
      </trkpt>
      <trkpt lat="46.43079" lon="4.76152">
        <ele>262.6</ele>
        <time>2022-06-25T11:20:16Z</time>
      </trkpt>
      <trkpt lat="46.43073" lon="4.76153">
        <ele>262.4</ele>
        <time>2022-06-25T11:20:17Z</time>
      </trkpt>
      <trkpt lat="46.43066" lon="4.76154">
        <ele>262.4</ele>
        <time>2022-06-25T11:20:18Z</time>
      </trkpt>
      <trkpt lat="46.4306" lon="4.76155">
        <ele>262.2</ele>
        <time>2022-06-25T11:20:19Z</time>
      </trkpt>
      <trkpt lat="46.43054" lon="4.76155">
        <ele>262.2</ele>
        <time>2022-06-25T11:20:20Z</time>
      </trkpt>
      <trkpt lat="46.43048" lon="4.76155">
        <ele>262</ele>
        <time>2022-06-25T11:20:21Z</time>
      </trkpt>
      <trkpt lat="46.43042" lon="4.76154">
        <ele>262</ele>
        <time>2022-06-25T11:20:22Z</time>
      </trkpt>
      <trkpt lat="46.43036" lon="4.76154">
        <ele>261.6</ele>
        <time>2022-06-25T11:20:23Z</time>
      </trkpt>
      <trkpt lat="46.4303" lon="4.76154">
        <ele>261.6</ele>
        <time>2022-06-25T11:20:24Z</time>
      </trkpt>
      <trkpt lat="46.43024" lon="4.76153">
        <ele>261.4</ele>
        <time>2022-06-25T11:20:25Z</time>
      </trkpt>
      <trkpt lat="46.43018" lon="4.76152">
        <ele>261.4</ele>
        <time>2022-06-25T11:20:26Z</time>
      </trkpt>
      <trkpt lat="46.43012" lon="4.76151">
        <ele>261.4</ele>
        <time>2022-06-25T11:20:27Z</time>
      </trkpt>
      <trkpt lat="46.43006" lon="4.76149">
        <ele>261.4</ele>
        <time>2022-06-25T11:20:28Z</time>
      </trkpt>
      <trkpt lat="46.43" lon="4.76147">
        <ele>261</ele>
        <time>2022-06-25T11:20:29Z</time>
      </trkpt>
      <trkpt lat="46.42994" lon="4.76145">
        <ele>261</ele>
        <time>2022-06-25T11:20:30Z</time>
      </trkpt>
      <trkpt lat="46.42988" lon="4.76143">
        <ele>261</ele>
        <time>2022-06-25T11:20:31Z</time>
      </trkpt>
      <trkpt lat="46.42982" lon="4.7614">
        <ele>260.8</ele>
        <time>2022-06-25T11:20:32Z</time>
      </trkpt>
      <trkpt lat="46.42975" lon="4.76137">
        <ele>260.8</ele>
        <time>2022-06-25T11:20:33Z</time>
      </trkpt>
      <trkpt lat="46.42969" lon="4.76133">
        <ele>260.8</ele>
        <time>2022-06-25T11:20:34Z</time>
      </trkpt>
      <trkpt lat="46.42963" lon="4.7613">
        <ele>260.8</ele>
        <time>2022-06-25T11:20:35Z</time>
      </trkpt>
      <trkpt lat="46.42957" lon="4.76127">
        <ele>260.8</ele>
        <time>2022-06-25T11:20:36Z</time>
      </trkpt>
      <trkpt lat="46.42951" lon="4.76123">
        <ele>260.6</ele>
        <time>2022-06-25T11:20:37Z</time>
      </trkpt>
      <trkpt lat="46.42944" lon="4.76121">
        <ele>260.6</ele>
        <time>2022-06-25T11:20:38Z</time>
      </trkpt>
      <trkpt lat="46.42938" lon="4.76118">
        <ele>260.6</ele>
        <time>2022-06-25T11:20:39Z</time>
      </trkpt>
      <trkpt lat="46.42932" lon="4.76115">
        <ele>260.2</ele>
        <time>2022-06-25T11:20:40Z</time>
      </trkpt>
      <trkpt lat="46.42925" lon="4.76111">
        <ele>260.2</ele>
        <time>2022-06-25T11:20:41Z</time>
      </trkpt>
      <trkpt lat="46.42919" lon="4.76108">
        <ele>260.2</ele>
        <time>2022-06-25T11:20:42Z</time>
      </trkpt>
      <trkpt lat="46.42913" lon="4.76105">
        <ele>260</ele>
        <time>2022-06-25T11:20:43Z</time>
      </trkpt>
      <trkpt lat="46.42906" lon="4.76102">
        <ele>260</ele>
        <time>2022-06-25T11:20:44Z</time>
      </trkpt>
      <trkpt lat="46.429" lon="4.761">
        <ele>259.8</ele>
        <time>2022-06-25T11:20:45Z</time>
      </trkpt>
      <trkpt lat="46.42894" lon="4.76097">
        <ele>259.8</ele>
        <time>2022-06-25T11:20:46Z</time>
      </trkpt>
      <trkpt lat="46.42888" lon="4.76095">
        <ele>259.8</ele>
        <time>2022-06-25T11:20:47Z</time>
      </trkpt>
      <trkpt lat="46.42883" lon="4.76092">
        <ele>259.8</ele>
        <time>2022-06-25T11:20:48Z</time>
      </trkpt>
      <trkpt lat="46.42877" lon="4.7609">
        <ele>259.6</ele>
        <time>2022-06-25T11:20:49Z</time>
      </trkpt>
      <trkpt lat="46.4287" lon="4.76088">
        <ele>259.6</ele>
        <time>2022-06-25T11:20:50Z</time>
      </trkpt>
      <trkpt lat="46.42863" lon="4.76087">
        <ele>259.2</ele>
        <time>2022-06-25T11:20:51Z</time>
      </trkpt>
      <trkpt lat="46.42856" lon="4.76086">
        <ele>259.2</ele>
        <time>2022-06-25T11:20:52Z</time>
      </trkpt>
      <trkpt lat="46.42849" lon="4.76084">
        <ele>259.2</ele>
        <time>2022-06-25T11:20:53Z</time>
      </trkpt>
      <trkpt lat="46.42842" lon="4.76083">
        <ele>259.2</ele>
        <time>2022-06-25T11:20:54Z</time>
      </trkpt>
      <trkpt lat="46.42835" lon="4.76083">
        <ele>259</ele>
        <time>2022-06-25T11:20:55Z</time>
      </trkpt>
      <trkpt lat="46.42828" lon="4.76082">
        <ele>259</ele>
        <time>2022-06-25T11:20:56Z</time>
      </trkpt>
      <trkpt lat="46.4282" lon="4.76082">
        <ele>258.6</ele>
        <time>2022-06-25T11:20:57Z</time>
      </trkpt>
      <trkpt lat="46.42812" lon="4.76082">
        <ele>258.6</ele>
        <time>2022-06-25T11:20:58Z</time>
      </trkpt>
      <trkpt lat="46.42805" lon="4.76082">
        <ele>258.4</ele>
        <time>2022-06-25T11:20:59Z</time>
      </trkpt>
      <trkpt lat="46.42797" lon="4.76083">
        <ele>258.2</ele>
        <time>2022-06-25T11:21:00Z</time>
      </trkpt>
      <trkpt lat="46.4279" lon="4.76083">
        <ele>258</ele>
        <time>2022-06-25T11:21:01Z</time>
      </trkpt>
      <trkpt lat="46.42782" lon="4.76083">
        <ele>258</ele>
        <time>2022-06-25T11:21:02Z</time>
      </trkpt>
      <trkpt lat="46.42775" lon="4.76083">
        <ele>257.6</ele>
        <time>2022-06-25T11:21:03Z</time>
      </trkpt>
      <trkpt lat="46.42767" lon="4.76083">
        <ele>257.6</ele>
        <time>2022-06-25T11:21:04Z</time>
      </trkpt>
      <trkpt lat="46.42756" lon="4.76083">
        <ele>257.4</ele>
        <time>2022-06-25T11:21:05Z</time>
      </trkpt>
      <trkpt lat="46.42753" lon="4.76083">
        <ele>257.4</ele>
        <time>2022-06-25T11:21:06Z</time>
      </trkpt>
      <trkpt lat="46.42745" lon="4.76084">
        <ele>257</ele>
        <time>2022-06-25T11:21:07Z</time>
      </trkpt>
      <trkpt lat="46.42738" lon="4.76084">
        <ele>257</ele>
        <time>2022-06-25T11:21:08Z</time>
      </trkpt>
      <trkpt lat="46.4273" lon="4.76084">
        <ele>256.8</ele>
        <time>2022-06-25T11:21:09Z</time>
      </trkpt>
      <trkpt lat="46.42723" lon="4.76083">
        <ele>256.8</ele>
        <time>2022-06-25T11:21:10Z</time>
      </trkpt>
      <trkpt lat="46.42716" lon="4.76084">
        <ele>256.8</ele>
        <time>2022-06-25T11:21:11Z</time>
      </trkpt>
      <trkpt lat="46.42708" lon="4.76084">
        <ele>256.4</ele>
        <time>2022-06-25T11:21:12Z</time>
      </trkpt>
      <trkpt lat="46.42701" lon="4.76084">
        <ele>256.2</ele>
        <time>2022-06-25T11:21:13Z</time>
      </trkpt>
      <trkpt lat="46.42694" lon="4.76084">
        <ele>256.2</ele>
        <time>2022-06-25T11:21:14Z</time>
      </trkpt>
      <trkpt lat="46.42687" lon="4.76084">
        <ele>256.2</ele>
        <time>2022-06-25T11:21:15Z</time>
      </trkpt>
      <trkpt lat="46.4268" lon="4.76084">
        <ele>256.2</ele>
        <time>2022-06-25T11:21:16Z</time>
      </trkpt>
      <trkpt lat="46.42673" lon="4.76084">
        <ele>256.2</ele>
        <time>2022-06-25T11:21:17Z</time>
      </trkpt>
      <trkpt lat="46.42666" lon="4.76084">
        <ele>256.2</ele>
        <time>2022-06-25T11:21:18Z</time>
      </trkpt>
      <trkpt lat="46.42659" lon="4.76085">
        <ele>256.2</ele>
        <time>2022-06-25T11:21:19Z</time>
      </trkpt>
      <trkpt lat="46.42651" lon="4.76085">
        <ele>256</ele>
        <time>2022-06-25T11:21:20Z</time>
      </trkpt>
      <trkpt lat="46.42641" lon="4.76085">
        <ele>256</ele>
        <time>2022-06-25T11:21:21Z</time>
      </trkpt>
      <trkpt lat="46.42637" lon="4.76085">
        <ele>255.6</ele>
        <time>2022-06-25T11:21:22Z</time>
      </trkpt>
      <trkpt lat="46.4263" lon="4.76084">
        <ele>255.6</ele>
        <time>2022-06-25T11:21:23Z</time>
      </trkpt>
      <trkpt lat="46.42623" lon="4.76084">
        <ele>255.4</ele>
        <time>2022-06-25T11:21:24Z</time>
      </trkpt>
      <trkpt lat="46.42616" lon="4.76083">
        <ele>255.4</ele>
        <time>2022-06-25T11:21:25Z</time>
      </trkpt>
      <trkpt lat="46.42609" lon="4.76082">
        <ele>255.4</ele>
        <time>2022-06-25T11:21:26Z</time>
      </trkpt>
      <trkpt lat="46.42603" lon="4.76081">
        <ele>255.4</ele>
        <time>2022-06-25T11:21:27Z</time>
      </trkpt>
      <trkpt lat="46.42596" lon="4.76081">
        <ele>255.4</ele>
        <time>2022-06-25T11:21:28Z</time>
      </trkpt>
      <trkpt lat="46.42589" lon="4.7608">
        <ele>255.4</ele>
        <time>2022-06-25T11:21:29Z</time>
      </trkpt>
      <trkpt lat="46.42582" lon="4.76078">
        <ele>255.2</ele>
        <time>2022-06-25T11:21:30Z</time>
      </trkpt>
      <trkpt lat="46.42572" lon="4.76076">
        <ele>255.2</ele>
        <time>2022-06-25T11:21:31Z</time>
      </trkpt>
      <trkpt lat="46.42569" lon="4.76076">
        <ele>255.2</ele>
        <time>2022-06-25T11:21:32Z</time>
      </trkpt>
      <trkpt lat="46.42563" lon="4.76075">
        <ele>255.2</ele>
        <time>2022-06-25T11:21:33Z</time>
      </trkpt>
      <trkpt lat="46.42556" lon="4.76073">
        <ele>255.2</ele>
        <time>2022-06-25T11:21:34Z</time>
      </trkpt>
      <trkpt lat="46.4255" lon="4.76071">
        <ele>255.2</ele>
        <time>2022-06-25T11:21:35Z</time>
      </trkpt>
      <trkpt lat="46.42543" lon="4.76069">
        <ele>255.2</ele>
        <time>2022-06-25T11:21:36Z</time>
      </trkpt>
      <trkpt lat="46.42537" lon="4.76067">
        <ele>255</ele>
        <time>2022-06-25T11:21:37Z</time>
      </trkpt>
      <trkpt lat="46.42531" lon="4.76065">
        <ele>255</ele>
        <time>2022-06-25T11:21:38Z</time>
      </trkpt>
      <trkpt lat="46.42525" lon="4.76062">
        <ele>255</ele>
        <time>2022-06-25T11:21:39Z</time>
      </trkpt>
      <trkpt lat="46.42519" lon="4.7606">
        <ele>255</ele>
        <time>2022-06-25T11:21:40Z</time>
      </trkpt>
      <trkpt lat="46.42513" lon="4.76058">
        <ele>255</ele>
        <time>2022-06-25T11:21:41Z</time>
      </trkpt>
      <trkpt lat="46.42504" lon="4.76054">
        <ele>255</ele>
        <time>2022-06-25T11:21:42Z</time>
      </trkpt>
      <trkpt lat="46.42501" lon="4.76053">
        <ele>255</ele>
        <time>2022-06-25T11:21:43Z</time>
      </trkpt>
      <trkpt lat="46.42494" lon="4.7605">
        <ele>255</ele>
        <time>2022-06-25T11:21:44Z</time>
      </trkpt>
      <trkpt lat="46.42488" lon="4.76048">
        <ele>255</ele>
        <time>2022-06-25T11:21:45Z</time>
      </trkpt>
      <trkpt lat="46.42482" lon="4.76045">
        <ele>255.2</ele>
        <time>2022-06-25T11:21:46Z</time>
      </trkpt>
      <trkpt lat="46.42476" lon="4.76043">
        <ele>255.2</ele>
        <time>2022-06-25T11:21:47Z</time>
      </trkpt>
      <trkpt lat="46.4247" lon="4.7604">
        <ele>255.2</ele>
        <time>2022-06-25T11:21:48Z</time>
      </trkpt>
      <trkpt lat="46.42461" lon="4.76035">
        <ele>255.2</ele>
        <time>2022-06-25T11:21:49Z</time>
      </trkpt>
      <trkpt lat="46.42458" lon="4.76034">
        <ele>255.2</ele>
        <time>2022-06-25T11:21:50Z</time>
      </trkpt>
      <trkpt lat="46.42453" lon="4.7603">
        <ele>255.2</ele>
        <time>2022-06-25T11:21:51Z</time>
      </trkpt>
      <trkpt lat="46.42447" lon="4.76026">
        <ele>255.2</ele>
        <time>2022-06-25T11:21:52Z</time>
      </trkpt>
      <trkpt lat="46.42442" lon="4.76021">
        <ele>255.2</ele>
        <time>2022-06-25T11:21:53Z</time>
      </trkpt>
      <trkpt lat="46.42437" lon="4.76015">
        <ele>255.2</ele>
        <time>2022-06-25T11:21:54Z</time>
      </trkpt>
      <trkpt lat="46.42433" lon="4.7601">
        <ele>255.2</ele>
        <time>2022-06-25T11:21:55Z</time>
      </trkpt>
      <trkpt lat="46.42429" lon="4.76003">
        <ele>255.2</ele>
        <time>2022-06-25T11:21:56Z</time>
      </trkpt>
      <trkpt lat="46.42425" lon="4.75996">
        <ele>255.2</ele>
        <time>2022-06-25T11:21:57Z</time>
      </trkpt>
      <trkpt lat="46.42423" lon="4.75989">
        <ele>255.2</ele>
        <time>2022-06-25T11:21:58Z</time>
      </trkpt>
      <trkpt lat="46.4242" lon="4.75982">
        <ele>255.2</ele>
        <time>2022-06-25T11:21:59Z</time>
      </trkpt>
      <trkpt lat="46.42418" lon="4.7597">
        <ele>255.2</ele>
        <time>2022-06-25T11:22:00Z</time>
      </trkpt>
      <trkpt lat="46.42418" lon="4.75967">
        <ele>255.2</ele>
        <time>2022-06-25T11:22:01Z</time>
      </trkpt>
      <trkpt lat="46.42417" lon="4.75959">
        <ele>255.4</ele>
        <time>2022-06-25T11:22:02Z</time>
      </trkpt>
      <trkpt lat="46.42418" lon="4.75951">
        <ele>255.4</ele>
        <time>2022-06-25T11:22:03Z</time>
      </trkpt>
      <trkpt lat="46.42418" lon="4.75943">
        <ele>255.4</ele>
        <time>2022-06-25T11:22:04Z</time>
      </trkpt>
      <trkpt lat="46.42418" lon="4.75936">
        <ele>255.4</ele>
        <time>2022-06-25T11:22:05Z</time>
      </trkpt>
      <trkpt lat="46.42418" lon="4.75928">
        <ele>255.6</ele>
        <time>2022-06-25T11:22:06Z</time>
      </trkpt>
      <trkpt lat="46.42419" lon="4.75916">
        <ele>255.6</ele>
        <time>2022-06-25T11:22:07Z</time>
      </trkpt>
      <trkpt lat="46.42419" lon="4.75912">
        <ele>256</ele>
        <time>2022-06-25T11:22:08Z</time>
      </trkpt>
      <trkpt lat="46.42419" lon="4.75905">
        <ele>256</ele>
        <time>2022-06-25T11:22:09Z</time>
      </trkpt>
      <trkpt lat="46.42419" lon="4.75898">
        <ele>256.2</ele>
        <time>2022-06-25T11:22:10Z</time>
      </trkpt>
      <trkpt lat="46.42418" lon="4.75891">
        <ele>256.4</ele>
        <time>2022-06-25T11:22:11Z</time>
      </trkpt>
      <trkpt lat="46.42416" lon="4.75884">
        <ele>256.6</ele>
        <time>2022-06-25T11:22:12Z</time>
      </trkpt>
      <trkpt lat="46.42414" lon="4.75877">
        <ele>256.6</ele>
        <time>2022-06-25T11:22:13Z</time>
      </trkpt>
      <trkpt lat="46.42412" lon="4.75871">
        <ele>257</ele>
        <time>2022-06-25T11:22:14Z</time>
      </trkpt>
      <trkpt lat="46.4241" lon="4.75864">
        <ele>257</ele>
        <time>2022-06-25T11:22:15Z</time>
      </trkpt>
      <trkpt lat="46.42407" lon="4.75858">
        <ele>257</ele>
        <time>2022-06-25T11:22:16Z</time>
      </trkpt>
      <trkpt lat="46.42403" lon="4.75853">
        <ele>257</ele>
        <time>2022-06-25T11:22:17Z</time>
      </trkpt>
      <trkpt lat="46.42399" lon="4.75848">
        <ele>257</ele>
        <time>2022-06-25T11:22:18Z</time>
      </trkpt>
      <trkpt lat="46.42394" lon="4.75843">
        <ele>257</ele>
        <time>2022-06-25T11:22:19Z</time>
      </trkpt>
      <trkpt lat="46.42387" lon="4.75836">
        <ele>257</ele>
        <time>2022-06-25T11:22:20Z</time>
      </trkpt>
      <trkpt lat="46.42385" lon="4.75834">
        <ele>257</ele>
        <time>2022-06-25T11:22:21Z</time>
      </trkpt>
      <trkpt lat="46.4238" lon="4.75829">
        <ele>257</ele>
        <time>2022-06-25T11:22:22Z</time>
      </trkpt>
      <trkpt lat="46.42375" lon="4.75824">
        <ele>257</ele>
        <time>2022-06-25T11:22:23Z</time>
      </trkpt>
      <trkpt lat="46.42369" lon="4.75819">
        <ele>257</ele>
        <time>2022-06-25T11:22:24Z</time>
      </trkpt>
      <trkpt lat="46.42364" lon="4.75814">
        <ele>257</ele>
        <time>2022-06-25T11:22:25Z</time>
      </trkpt>
      <trkpt lat="46.42359" lon="4.7581">
        <ele>257</ele>
        <time>2022-06-25T11:22:26Z</time>
      </trkpt>
      <trkpt lat="46.42353" lon="4.75805">
        <ele>257</ele>
        <time>2022-06-25T11:22:27Z</time>
      </trkpt>
      <trkpt lat="46.42347" lon="4.758">
        <ele>256.8</ele>
        <time>2022-06-25T11:22:28Z</time>
      </trkpt>
      <trkpt lat="46.42342" lon="4.75795">
        <ele>256.8</ele>
        <time>2022-06-25T11:22:29Z</time>
      </trkpt>
      <trkpt lat="46.42333" lon="4.75787">
        <ele>256.8</ele>
        <time>2022-06-25T11:22:30Z</time>
      </trkpt>
      <trkpt lat="46.4233" lon="4.75784">
        <ele>256.6</ele>
        <time>2022-06-25T11:22:31Z</time>
      </trkpt>
      <trkpt lat="46.42324" lon="4.75779">
        <ele>256.6</ele>
        <time>2022-06-25T11:22:32Z</time>
      </trkpt>
      <trkpt lat="46.42315" lon="4.75771">
        <ele>256.2</ele>
        <time>2022-06-25T11:22:33Z</time>
      </trkpt>
      <trkpt lat="46.42311" lon="4.75768">
        <ele>256.2</ele>
        <time>2022-06-25T11:22:34Z</time>
      </trkpt>
      <trkpt lat="46.42305" lon="4.75762">
        <ele>255.8</ele>
        <time>2022-06-25T11:22:35Z</time>
      </trkpt>
      <trkpt lat="46.42298" lon="4.75756">
        <ele>255.8</ele>
        <time>2022-06-25T11:22:36Z</time>
      </trkpt>
      <trkpt lat="46.42288" lon="4.75747">
        <ele>255.6</ele>
        <time>2022-06-25T11:22:37Z</time>
      </trkpt>
      <trkpt lat="46.42285" lon="4.75744">
        <ele>255.6</ele>
        <time>2022-06-25T11:22:38Z</time>
      </trkpt>
      <trkpt lat="46.42278" lon="4.75738">
        <ele>255.2</ele>
        <time>2022-06-25T11:22:39Z</time>
      </trkpt>
      <trkpt lat="46.42271" lon="4.75731">
        <ele>254.8</ele>
        <time>2022-06-25T11:22:40Z</time>
      </trkpt>
      <trkpt lat="46.42264" lon="4.75725">
        <ele>254.8</ele>
        <time>2022-06-25T11:22:41Z</time>
      </trkpt>
      <trkpt lat="46.42257" lon="4.75719">
        <ele>254.6</ele>
        <time>2022-06-25T11:22:42Z</time>
      </trkpt>
      <trkpt lat="46.4225" lon="4.75712">
        <ele>254.4</ele>
        <time>2022-06-25T11:22:43Z</time>
      </trkpt>
      <trkpt lat="46.42243" lon="4.75705">
        <ele>254.4</ele>
        <time>2022-06-25T11:22:44Z</time>
      </trkpt>
      <trkpt lat="46.42236" lon="4.75699">
        <ele>254</ele>
        <time>2022-06-25T11:22:45Z</time>
      </trkpt>
      <trkpt lat="46.42229" lon="4.75692">
        <ele>254</ele>
        <time>2022-06-25T11:22:46Z</time>
      </trkpt>
      <trkpt lat="46.42222" lon="4.75686">
        <ele>253.8</ele>
        <time>2022-06-25T11:22:47Z</time>
      </trkpt>
      <trkpt lat="46.42215" lon="4.7568">
        <ele>253.8</ele>
        <time>2022-06-25T11:22:48Z</time>
      </trkpt>
      <trkpt lat="46.42208" lon="4.75674">
        <ele>253.6</ele>
        <time>2022-06-25T11:22:49Z</time>
      </trkpt>
      <trkpt lat="46.42201" lon="4.75668">
        <ele>253.6</ele>
        <time>2022-06-25T11:22:50Z</time>
      </trkpt>
      <trkpt lat="46.42195" lon="4.75662">
        <ele>253.2</ele>
        <time>2022-06-25T11:22:51Z</time>
      </trkpt>
      <trkpt lat="46.42188" lon="4.75656">
        <ele>253.2</ele>
        <time>2022-06-25T11:22:52Z</time>
      </trkpt>
      <trkpt lat="46.42182" lon="4.75649">
        <ele>253.2</ele>
        <time>2022-06-25T11:22:53Z</time>
      </trkpt>
      <trkpt lat="46.42175" lon="4.75644">
        <ele>253.2</ele>
        <time>2022-06-25T11:22:54Z</time>
      </trkpt>
      <trkpt lat="46.42169" lon="4.75638">
        <ele>253</ele>
        <time>2022-06-25T11:22:55Z</time>
      </trkpt>
      <trkpt lat="46.42163" lon="4.75632">
        <ele>253</ele>
        <time>2022-06-25T11:22:56Z</time>
      </trkpt>
      <trkpt lat="46.42153" lon="4.75624">
        <ele>253</ele>
        <time>2022-06-25T11:22:57Z</time>
      </trkpt>
      <trkpt lat="46.4215" lon="4.75621">
        <ele>253</ele>
        <time>2022-06-25T11:22:58Z</time>
      </trkpt>
      <trkpt lat="46.42144" lon="4.75616">
        <ele>253</ele>
        <time>2022-06-25T11:22:59Z</time>
      </trkpt>
      <trkpt lat="46.42139" lon="4.75611">
        <ele>253</ele>
        <time>2022-06-25T11:23:00Z</time>
      </trkpt>
      <trkpt lat="46.42133" lon="4.75605">
        <ele>253</ele>
        <time>2022-06-25T11:23:01Z</time>
      </trkpt>
      <trkpt lat="46.42127" lon="4.756">
        <ele>253</ele>
        <time>2022-06-25T11:23:02Z</time>
      </trkpt>
      <trkpt lat="46.42122" lon="4.75595">
        <ele>253</ele>
        <time>2022-06-25T11:23:03Z</time>
      </trkpt>
      <trkpt lat="46.42116" lon="4.75591">
        <ele>253</ele>
        <time>2022-06-25T11:23:04Z</time>
      </trkpt>
      <trkpt lat="46.4211" lon="4.75586">
        <ele>253</ele>
        <time>2022-06-25T11:23:05Z</time>
      </trkpt>
      <trkpt lat="46.42105" lon="4.75581">
        <ele>253</ele>
        <time>2022-06-25T11:23:06Z</time>
      </trkpt>
      <trkpt lat="46.42099" lon="4.75576">
        <ele>252.8</ele>
        <time>2022-06-25T11:23:07Z</time>
      </trkpt>
      <trkpt lat="46.42094" lon="4.75571">
        <ele>252.8</ele>
        <time>2022-06-25T11:23:08Z</time>
      </trkpt>
      <trkpt lat="46.42089" lon="4.75566">
        <ele>252.8</ele>
        <time>2022-06-25T11:23:09Z</time>
      </trkpt>
      <trkpt lat="46.42083" lon="4.75561">
        <ele>253</ele>
        <time>2022-06-25T11:23:10Z</time>
      </trkpt>
      <trkpt lat="46.42078" lon="4.75556">
        <ele>253</ele>
        <time>2022-06-25T11:23:11Z</time>
      </trkpt>
      <trkpt lat="46.42073" lon="4.75551">
        <ele>253</ele>
        <time>2022-06-25T11:23:12Z</time>
      </trkpt>
      <trkpt lat="46.42067" lon="4.75546">
        <ele>253</ele>
        <time>2022-06-25T11:23:13Z</time>
      </trkpt>
      <trkpt lat="46.42062" lon="4.75541">
        <ele>253.2</ele>
        <time>2022-06-25T11:23:14Z</time>
      </trkpt>
      <trkpt lat="46.42057" lon="4.75536">
        <ele>253.2</ele>
        <time>2022-06-25T11:23:15Z</time>
      </trkpt>
      <trkpt lat="46.42051" lon="4.75532">
        <ele>253.2</ele>
        <time>2022-06-25T11:23:16Z</time>
      </trkpt>
      <trkpt lat="46.42046" lon="4.75527">
        <ele>253.6</ele>
        <time>2022-06-25T11:23:17Z</time>
      </trkpt>
      <trkpt lat="46.42041" lon="4.75523">
        <ele>253.6</ele>
        <time>2022-06-25T11:23:18Z</time>
      </trkpt>
      <trkpt lat="46.42036" lon="4.75518">
        <ele>253.6</ele>
        <time>2022-06-25T11:23:19Z</time>
      </trkpt>
      <trkpt lat="46.42031" lon="4.75513">
        <ele>253.6</ele>
        <time>2022-06-25T11:23:20Z</time>
      </trkpt>
      <trkpt lat="46.42026" lon="4.75509">
        <ele>253.6</ele>
        <time>2022-06-25T11:23:21Z</time>
      </trkpt>
      <trkpt lat="46.42021" lon="4.75504">
        <ele>253.8</ele>
        <time>2022-06-25T11:23:22Z</time>
      </trkpt>
      <trkpt lat="46.42016" lon="4.755">
        <ele>253.8</ele>
        <time>2022-06-25T11:23:23Z</time>
      </trkpt>
      <trkpt lat="46.42012" lon="4.75496">
        <ele>254.2</ele>
        <time>2022-06-25T11:23:24Z</time>
      </trkpt>
      <trkpt lat="46.42007" lon="4.75491">
        <ele>254.2</ele>
        <time>2022-06-25T11:23:25Z</time>
      </trkpt>
      <trkpt lat="46.42003" lon="4.75488">
        <ele>254.2</ele>
        <time>2022-06-25T11:23:26Z</time>
      </trkpt>
      <trkpt lat="46.41999" lon="4.75484">
        <ele>254.4</ele>
        <time>2022-06-25T11:23:27Z</time>
      </trkpt>
      <trkpt lat="46.41994" lon="4.7548">
        <ele>254.4</ele>
        <time>2022-06-25T11:23:28Z</time>
      </trkpt>
      <trkpt lat="46.4199" lon="4.75476">
        <ele>254.4</ele>
        <time>2022-06-25T11:23:29Z</time>
      </trkpt>
      <trkpt lat="46.41986" lon="4.75473">
        <ele>254.8</ele>
        <time>2022-06-25T11:23:30Z</time>
      </trkpt>
      <trkpt lat="46.41982" lon="4.75469">
        <ele>255</ele>
        <time>2022-06-25T11:23:31Z</time>
      </trkpt>
      <trkpt lat="46.41978" lon="4.75465">
        <ele>255</ele>
        <time>2022-06-25T11:23:32Z</time>
      </trkpt>
      <trkpt lat="46.41974" lon="4.75462">
        <ele>255.2</ele>
        <time>2022-06-25T11:23:33Z</time>
      </trkpt>
      <trkpt lat="46.4197" lon="4.75458">
        <ele>255.6</ele>
        <time>2022-06-25T11:23:34Z</time>
      </trkpt>
      <trkpt lat="46.41967" lon="4.75455">
        <ele>255.8</ele>
        <time>2022-06-25T11:23:35Z</time>
      </trkpt>
      <trkpt lat="46.41963" lon="4.75452">
        <ele>255.8</ele>
        <time>2022-06-25T11:23:36Z</time>
      </trkpt>
      <trkpt lat="46.41959" lon="4.75448">
        <ele>256.2</ele>
        <time>2022-06-25T11:23:37Z</time>
      </trkpt>
      <trkpt lat="46.41955" lon="4.75445">
        <ele>256.4</ele>
        <time>2022-06-25T11:23:38Z</time>
      </trkpt>
      <trkpt lat="46.41952" lon="4.75442">
        <ele>256.4</ele>
        <time>2022-06-25T11:23:39Z</time>
      </trkpt>
      <trkpt lat="46.41948" lon="4.75438">
        <ele>256.6</ele>
        <time>2022-06-25T11:23:40Z</time>
      </trkpt>
      <trkpt lat="46.41945" lon="4.75435">
        <ele>257</ele>
        <time>2022-06-25T11:23:41Z</time>
      </trkpt>
      <trkpt lat="46.41941" lon="4.75432">
        <ele>257.2</ele>
        <time>2022-06-25T11:23:42Z</time>
      </trkpt>
      <trkpt lat="46.41938" lon="4.75429">
        <ele>257.6</ele>
        <time>2022-06-25T11:23:43Z</time>
      </trkpt>
      <trkpt lat="46.41934" lon="4.75426">
        <ele>257.8</ele>
        <time>2022-06-25T11:23:44Z</time>
      </trkpt>
      <trkpt lat="46.41931" lon="4.75423">
        <ele>257.8</ele>
        <time>2022-06-25T11:23:45Z</time>
      </trkpt>
      <trkpt lat="46.41927" lon="4.7542">
        <ele>258.2</ele>
        <time>2022-06-25T11:23:46Z</time>
      </trkpt>
      <trkpt lat="46.41923" lon="4.75417">
        <ele>258.4</ele>
        <time>2022-06-25T11:23:47Z</time>
      </trkpt>
      <trkpt lat="46.4192" lon="4.75414">
        <ele>258.4</ele>
        <time>2022-06-25T11:23:48Z</time>
      </trkpt>
      <trkpt lat="46.41916" lon="4.75412">
        <ele>258.6</ele>
        <time>2022-06-25T11:23:49Z</time>
      </trkpt>
      <trkpt lat="46.41912" lon="4.75408">
        <ele>258.8</ele>
        <time>2022-06-25T11:23:50Z</time>
      </trkpt>
      <trkpt lat="46.41909" lon="4.75406">
        <ele>259.2</ele>
        <time>2022-06-25T11:23:51Z</time>
      </trkpt>
      <trkpt lat="46.41905" lon="4.75403">
        <ele>259.4</ele>
        <time>2022-06-25T11:23:52Z</time>
      </trkpt>
      <trkpt lat="46.41901" lon="4.75401">
        <ele>259.6</ele>
        <time>2022-06-25T11:23:53Z</time>
      </trkpt>
      <trkpt lat="46.41898" lon="4.75398">
        <ele>259.6</ele>
        <time>2022-06-25T11:23:54Z</time>
      </trkpt>
      <trkpt lat="46.41894" lon="4.75395">
        <ele>260</ele>
        <time>2022-06-25T11:23:55Z</time>
      </trkpt>
      <trkpt lat="46.4189" lon="4.75392">
        <ele>260</ele>
        <time>2022-06-25T11:23:56Z</time>
      </trkpt>
      <trkpt lat="46.41887" lon="4.75389">
        <ele>260.4</ele>
        <time>2022-06-25T11:23:57Z</time>
      </trkpt>
      <trkpt lat="46.41883" lon="4.75386">
        <ele>260.4</ele>
        <time>2022-06-25T11:23:58Z</time>
      </trkpt>
      <trkpt lat="46.4188" lon="4.75383">
        <ele>260.8</ele>
        <time>2022-06-25T11:23:59Z</time>
      </trkpt>
      <trkpt lat="46.41876" lon="4.75381">
        <ele>261</ele>
        <time>2022-06-25T11:24:00Z</time>
      </trkpt>
      <trkpt lat="46.41873" lon="4.75378">
        <ele>261</ele>
        <time>2022-06-25T11:24:01Z</time>
      </trkpt>
      <trkpt lat="46.41869" lon="4.75375">
        <ele>261.2</ele>
        <time>2022-06-25T11:24:02Z</time>
      </trkpt>
      <trkpt lat="46.41865" lon="4.75373">
        <ele>261.2</ele>
        <time>2022-06-25T11:24:03Z</time>
      </trkpt>
      <trkpt lat="46.41862" lon="4.7537">
        <ele>261.6</ele>
        <time>2022-06-25T11:24:04Z</time>
      </trkpt>
      <trkpt lat="46.41858" lon="4.75367">
        <ele>261.6</ele>
        <time>2022-06-25T11:24:05Z</time>
      </trkpt>
      <trkpt lat="46.41855" lon="4.75365">
        <ele>262</ele>
        <time>2022-06-25T11:24:06Z</time>
      </trkpt>
      <trkpt lat="46.41851" lon="4.75362">
        <ele>262.4</ele>
        <time>2022-06-25T11:24:07Z</time>
      </trkpt>
      <trkpt lat="46.41848" lon="4.75359">
        <ele>262.6</ele>
        <time>2022-06-25T11:24:08Z</time>
      </trkpt>
      <trkpt lat="46.41845" lon="4.75357">
        <ele>263</ele>
        <time>2022-06-25T11:24:09Z</time>
      </trkpt>
      <trkpt lat="46.41842" lon="4.75354">
        <ele>263.2</ele>
        <time>2022-06-25T11:24:10Z</time>
      </trkpt>
      <trkpt lat="46.41838" lon="4.75351">
        <ele>263.2</ele>
        <time>2022-06-25T11:24:11Z</time>
      </trkpt>
      <trkpt lat="46.41835" lon="4.75349">
        <ele>263.6</ele>
        <time>2022-06-25T11:24:12Z</time>
      </trkpt>
      <trkpt lat="46.41833" lon="4.75347">
        <ele>263.6</ele>
        <time>2022-06-25T11:24:13Z</time>
      </trkpt>
      <trkpt lat="46.4183" lon="4.75345">
        <ele>263.8</ele>
        <time>2022-06-25T11:24:14Z</time>
      </trkpt>
      <trkpt lat="46.41827" lon="4.75343">
        <ele>263.8</ele>
        <time>2022-06-25T11:24:15Z</time>
      </trkpt>
      <trkpt lat="46.41825" lon="4.75341">
        <ele>264.2</ele>
        <time>2022-06-25T11:24:16Z</time>
      </trkpt>
      <trkpt lat="46.41822" lon="4.75339">
        <ele>264.4</ele>
        <time>2022-06-25T11:24:17Z</time>
      </trkpt>
      <trkpt lat="46.41819" lon="4.75336">
        <ele>264.8</ele>
        <time>2022-06-25T11:24:18Z</time>
      </trkpt>
      <trkpt lat="46.41817" lon="4.75334">
        <ele>264.8</ele>
        <time>2022-06-25T11:24:19Z</time>
      </trkpt>
      <trkpt lat="46.41814" lon="4.75331">
        <ele>265</ele>
        <time>2022-06-25T11:24:20Z</time>
      </trkpt>
      <trkpt lat="46.41811" lon="4.75329">
        <ele>265</ele>
        <time>2022-06-25T11:24:21Z</time>
      </trkpt>
      <trkpt lat="46.41809" lon="4.75326">
        <ele>265.4</ele>
        <time>2022-06-25T11:24:22Z</time>
      </trkpt>
      <trkpt lat="46.41806" lon="4.75323">
        <ele>265.4</ele>
        <time>2022-06-25T11:24:23Z</time>
      </trkpt>
      <trkpt lat="46.41803" lon="4.75321">
        <ele>265.4</ele>
        <time>2022-06-25T11:24:24Z</time>
      </trkpt>
      <trkpt lat="46.418" lon="4.75319">
        <ele>265.6</ele>
        <time>2022-06-25T11:24:25Z</time>
      </trkpt>
      <trkpt lat="46.41798" lon="4.75317">
        <ele>265.6</ele>
        <time>2022-06-25T11:24:26Z</time>
      </trkpt>
      <trkpt lat="46.41795" lon="4.75314">
        <ele>265.8</ele>
        <time>2022-06-25T11:24:27Z</time>
      </trkpt>
      <trkpt lat="46.41792" lon="4.75312">
        <ele>265.8</ele>
        <time>2022-06-25T11:24:28Z</time>
      </trkpt>
      <trkpt lat="46.41789" lon="4.7531">
        <ele>266</ele>
        <time>2022-06-25T11:24:29Z</time>
      </trkpt>
      <trkpt lat="46.41787" lon="4.75307">
        <ele>266.2</ele>
        <time>2022-06-25T11:24:30Z</time>
      </trkpt>
      <trkpt lat="46.41784" lon="4.75305">
        <ele>266.4</ele>
        <time>2022-06-25T11:24:31Z</time>
      </trkpt>
      <trkpt lat="46.41781" lon="4.75302">
        <ele>266.6</ele>
        <time>2022-06-25T11:24:32Z</time>
      </trkpt>
      <trkpt lat="46.41779" lon="4.753">
        <ele>266.6</ele>
        <time>2022-06-25T11:24:33Z</time>
      </trkpt>
      <trkpt lat="46.41776" lon="4.75298">
        <ele>267</ele>
        <time>2022-06-25T11:24:34Z</time>
      </trkpt>
      <trkpt lat="46.41773" lon="4.75295">
        <ele>267</ele>
        <time>2022-06-25T11:24:35Z</time>
      </trkpt>
      <trkpt lat="46.4177" lon="4.75293">
        <ele>267.2</ele>
        <time>2022-06-25T11:24:36Z</time>
      </trkpt>
      <trkpt lat="46.41768" lon="4.75291">
        <ele>267.2</ele>
        <time>2022-06-25T11:24:37Z</time>
      </trkpt>
      <trkpt lat="46.41765" lon="4.75289">
        <ele>267.2</ele>
        <time>2022-06-25T11:24:38Z</time>
      </trkpt>
      <trkpt lat="46.41762" lon="4.75286">
        <ele>267.6</ele>
        <time>2022-06-25T11:24:39Z</time>
      </trkpt>
      <trkpt lat="46.4176" lon="4.75284">
        <ele>267.6</ele>
        <time>2022-06-25T11:24:40Z</time>
      </trkpt>
      <trkpt lat="46.41757" lon="4.75282">
        <ele>267.8</ele>
        <time>2022-06-25T11:24:41Z</time>
      </trkpt>
      <trkpt lat="46.41754" lon="4.7528">
        <ele>267.8</ele>
        <time>2022-06-25T11:24:42Z</time>
      </trkpt>
      <trkpt lat="46.41751" lon="4.75278">
        <ele>268.2</ele>
        <time>2022-06-25T11:24:43Z</time>
      </trkpt>
      <trkpt lat="46.41749" lon="4.75276">
        <ele>268.6</ele>
        <time>2022-06-25T11:24:44Z</time>
      </trkpt>
      <trkpt lat="46.41746" lon="4.75274">
        <ele>268.8</ele>
        <time>2022-06-25T11:24:45Z</time>
      </trkpt>
      <trkpt lat="46.41744" lon="4.75271">
        <ele>269</ele>
        <time>2022-06-25T11:24:46Z</time>
      </trkpt>
      <trkpt lat="46.41741" lon="4.75269">
        <ele>269</ele>
        <time>2022-06-25T11:24:47Z</time>
      </trkpt>
      <trkpt lat="46.41738" lon="4.75268">
        <ele>269</ele>
        <time>2022-06-25T11:24:48Z</time>
      </trkpt>
      <trkpt lat="46.41736" lon="4.75266">
        <ele>269.2</ele>
        <time>2022-06-25T11:24:49Z</time>
      </trkpt>
      <trkpt lat="46.41734" lon="4.75263">
        <ele>269.2</ele>
        <time>2022-06-25T11:24:50Z</time>
      </trkpt>
      <trkpt lat="46.41731" lon="4.75261">
        <ele>269.2</ele>
        <time>2022-06-25T11:24:51Z</time>
      </trkpt>
      <trkpt lat="46.41729" lon="4.75259">
        <ele>269.6</ele>
        <time>2022-06-25T11:24:52Z</time>
      </trkpt>
      <trkpt lat="46.41726" lon="4.75257">
        <ele>269.6</ele>
        <time>2022-06-25T11:24:53Z</time>
      </trkpt>
      <trkpt lat="46.41724" lon="4.75255">
        <ele>269.8</ele>
        <time>2022-06-25T11:24:54Z</time>
      </trkpt>
      <trkpt lat="46.41721" lon="4.75253">
        <ele>269.8</ele>
        <time>2022-06-25T11:24:55Z</time>
      </trkpt>
      <trkpt lat="46.41719" lon="4.75251">
        <ele>270</ele>
        <time>2022-06-25T11:24:56Z</time>
      </trkpt>
      <trkpt lat="46.41716" lon="4.75249">
        <ele>270</ele>
        <time>2022-06-25T11:24:57Z</time>
      </trkpt>
      <trkpt lat="46.41714" lon="4.75247">
        <ele>270.2</ele>
        <time>2022-06-25T11:24:58Z</time>
      </trkpt>
      <trkpt lat="46.41712" lon="4.75245">
        <ele>270.2</ele>
        <time>2022-06-25T11:24:59Z</time>
      </trkpt>
      <trkpt lat="46.41709" lon="4.75242">
        <ele>270.6</ele>
        <time>2022-06-25T11:25:00Z</time>
      </trkpt>
      <trkpt lat="46.41707" lon="4.7524">
        <ele>270.6</ele>
        <time>2022-06-25T11:25:01Z</time>
      </trkpt>
      <trkpt lat="46.41704" lon="4.75238">
        <ele>270.8</ele>
        <time>2022-06-25T11:25:02Z</time>
      </trkpt>
      <trkpt lat="46.41702" lon="4.75235">
        <ele>271.2</ele>
        <time>2022-06-25T11:25:03Z</time>
      </trkpt>
      <trkpt lat="46.417" lon="4.75233">
        <ele>271.2</ele>
        <time>2022-06-25T11:25:04Z</time>
      </trkpt>
      <trkpt lat="46.41697" lon="4.75231">
        <ele>271.4</ele>
        <time>2022-06-25T11:25:05Z</time>
      </trkpt>
      <trkpt lat="46.41695" lon="4.75228">
        <ele>271.4</ele>
        <time>2022-06-25T11:25:06Z</time>
      </trkpt>
      <trkpt lat="46.41692" lon="4.75226">
        <ele>271.8</ele>
        <time>2022-06-25T11:25:07Z</time>
      </trkpt>
      <trkpt lat="46.4169" lon="4.75224">
        <ele>271.8</ele>
        <time>2022-06-25T11:25:08Z</time>
      </trkpt>
      <trkpt lat="46.41687" lon="4.75222">
        <ele>271.8</ele>
        <time>2022-06-25T11:25:09Z</time>
      </trkpt>
      <trkpt lat="46.41685" lon="4.7522">
        <ele>272</ele>
        <time>2022-06-25T11:25:10Z</time>
      </trkpt>
      <trkpt lat="46.41682" lon="4.75218">
        <ele>272</ele>
        <time>2022-06-25T11:25:11Z</time>
      </trkpt>
      <trkpt lat="46.4168" lon="4.75215">
        <ele>272</ele>
        <time>2022-06-25T11:25:12Z</time>
      </trkpt>
      <trkpt lat="46.41677" lon="4.75213">
        <ele>272.2</ele>
        <time>2022-06-25T11:25:13Z</time>
      </trkpt>
      <trkpt lat="46.41675" lon="4.75211">
        <ele>272.2</ele>
        <time>2022-06-25T11:25:14Z</time>
      </trkpt>
      <trkpt lat="46.41672" lon="4.75208">
        <ele>272.4</ele>
        <time>2022-06-25T11:25:15Z</time>
      </trkpt>
      <trkpt lat="46.41669" lon="4.75206">
        <ele>272.4</ele>
        <time>2022-06-25T11:25:16Z</time>
      </trkpt>
      <trkpt lat="46.41666" lon="4.75203">
        <ele>272.4</ele>
        <time>2022-06-25T11:25:17Z</time>
      </trkpt>
      <trkpt lat="46.41664" lon="4.752">
        <ele>272.8</ele>
        <time>2022-06-25T11:25:18Z</time>
      </trkpt>
      <trkpt lat="46.41661" lon="4.75198">
        <ele>272.8</ele>
        <time>2022-06-25T11:25:19Z</time>
      </trkpt>
      <trkpt lat="46.41658" lon="4.75195">
        <ele>272.8</ele>
        <time>2022-06-25T11:25:20Z</time>
      </trkpt>
      <trkpt lat="46.41655" lon="4.75192">
        <ele>272.8</ele>
        <time>2022-06-25T11:25:21Z</time>
      </trkpt>
      <trkpt lat="46.41652" lon="4.7519">
        <ele>273</ele>
        <time>2022-06-25T11:25:22Z</time>
      </trkpt>
      <trkpt lat="46.41649" lon="4.75187">
        <ele>273</ele>
        <time>2022-06-25T11:25:23Z</time>
      </trkpt>
      <trkpt lat="46.41646" lon="4.75185">
        <ele>273</ele>
        <time>2022-06-25T11:25:24Z</time>
      </trkpt>
      <trkpt lat="46.41643" lon="4.75182">
        <ele>273.2</ele>
        <time>2022-06-25T11:25:25Z</time>
      </trkpt>
      <trkpt lat="46.4164" lon="4.75179">
        <ele>273.2</ele>
        <time>2022-06-25T11:25:26Z</time>
      </trkpt>
      <trkpt lat="46.41637" lon="4.75177">
        <ele>273.4</ele>
        <time>2022-06-25T11:25:27Z</time>
      </trkpt>
      <trkpt lat="46.41634" lon="4.75174">
        <ele>273.4</ele>
        <time>2022-06-25T11:25:28Z</time>
      </trkpt>
      <trkpt lat="46.4163" lon="4.75171">
        <ele>273.8</ele>
        <time>2022-06-25T11:25:29Z</time>
      </trkpt>
      <trkpt lat="46.41627" lon="4.75168">
        <ele>273.8</ele>
        <time>2022-06-25T11:25:30Z</time>
      </trkpt>
      <trkpt lat="46.41624" lon="4.75165">
        <ele>274.2</ele>
        <time>2022-06-25T11:25:31Z</time>
      </trkpt>
      <trkpt lat="46.41621" lon="4.75162">
        <ele>274.2</ele>
        <time>2022-06-25T11:25:32Z</time>
      </trkpt>
      <trkpt lat="46.41618" lon="4.75159">
        <ele>274.4</ele>
        <time>2022-06-25T11:25:33Z</time>
      </trkpt>
      <trkpt lat="46.41615" lon="4.75156">
        <ele>274.4</ele>
        <time>2022-06-25T11:25:34Z</time>
      </trkpt>
      <trkpt lat="46.41612" lon="4.75153">
        <ele>274.8</ele>
        <time>2022-06-25T11:25:35Z</time>
      </trkpt>
      <trkpt lat="46.41609" lon="4.7515">
        <ele>274.8</ele>
        <time>2022-06-25T11:25:36Z</time>
      </trkpt>
      <trkpt lat="46.41606" lon="4.75147">
        <ele>275</ele>
        <time>2022-06-25T11:25:37Z</time>
      </trkpt>
      <trkpt lat="46.41603" lon="4.75144">
        <ele>275</ele>
        <time>2022-06-25T11:25:38Z</time>
      </trkpt>
      <trkpt lat="46.416" lon="4.75141">
        <ele>275.4</ele>
        <time>2022-06-25T11:25:39Z</time>
      </trkpt>
      <trkpt lat="46.41597" lon="4.75138">
        <ele>275.4</ele>
        <time>2022-06-25T11:25:40Z</time>
      </trkpt>
      <trkpt lat="46.41594" lon="4.75136">
        <ele>275.8</ele>
        <time>2022-06-25T11:25:41Z</time>
      </trkpt>
      <trkpt lat="46.41592" lon="4.75133">
        <ele>275.8</ele>
        <time>2022-06-25T11:25:42Z</time>
      </trkpt>
      <trkpt lat="46.41589" lon="4.7513">
        <ele>276</ele>
        <time>2022-06-25T11:25:43Z</time>
      </trkpt>
      <trkpt lat="46.41586" lon="4.75127">
        <ele>276</ele>
        <time>2022-06-25T11:25:44Z</time>
      </trkpt>
      <trkpt lat="46.41583" lon="4.75124">
        <ele>276.4</ele>
        <time>2022-06-25T11:25:45Z</time>
      </trkpt>
      <trkpt lat="46.4158" lon="4.75121">
        <ele>276.6</ele>
        <time>2022-06-25T11:25:46Z</time>
      </trkpt>
      <trkpt lat="46.41578" lon="4.75118">
        <ele>276.6</ele>
        <time>2022-06-25T11:25:47Z</time>
      </trkpt>
      <trkpt lat="46.41575" lon="4.75115">
        <ele>277</ele>
        <time>2022-06-25T11:25:48Z</time>
      </trkpt>
      <trkpt lat="46.41572" lon="4.75112">
        <ele>277</ele>
        <time>2022-06-25T11:25:49Z</time>
      </trkpt>
      <trkpt lat="46.4157" lon="4.75109">
        <ele>277.2</ele>
        <time>2022-06-25T11:25:50Z</time>
      </trkpt>
      <trkpt lat="46.41567" lon="4.75106">
        <ele>277.2</ele>
        <time>2022-06-25T11:25:51Z</time>
      </trkpt>
      <trkpt lat="46.41564" lon="4.75103">
        <ele>277.4</ele>
        <time>2022-06-25T11:25:52Z</time>
      </trkpt>
      <trkpt lat="46.41561" lon="4.751">
        <ele>277.4</ele>
        <time>2022-06-25T11:25:53Z</time>
      </trkpt>
      <trkpt lat="46.41559" lon="4.75097">
        <ele>277.8</ele>
        <time>2022-06-25T11:25:54Z</time>
      </trkpt>
      <trkpt lat="46.41556" lon="4.75094">
        <ele>277.8</ele>
        <time>2022-06-25T11:25:55Z</time>
      </trkpt>
      <trkpt lat="46.41553" lon="4.75091">
        <ele>278</ele>
        <time>2022-06-25T11:25:56Z</time>
      </trkpt>
      <trkpt lat="46.4155" lon="4.75088">
        <ele>278</ele>
        <time>2022-06-25T11:25:57Z</time>
      </trkpt>
      <trkpt lat="46.41547" lon="4.75085">
        <ele>278</ele>
        <time>2022-06-25T11:25:58Z</time>
      </trkpt>
      <trkpt lat="46.41545" lon="4.75082">
        <ele>278</ele>
        <time>2022-06-25T11:25:59Z</time>
      </trkpt>
      <trkpt lat="46.41542" lon="4.75078">
        <ele>278.2</ele>
        <time>2022-06-25T11:26:00Z</time>
      </trkpt>
      <trkpt lat="46.41539" lon="4.75075">
        <ele>278.2</ele>
        <time>2022-06-25T11:26:01Z</time>
      </trkpt>
      <trkpt lat="46.41537" lon="4.75072">
        <ele>278.6</ele>
        <time>2022-06-25T11:26:02Z</time>
      </trkpt>
      <trkpt lat="46.41534" lon="4.75069">
        <ele>278.6</ele>
        <time>2022-06-25T11:26:03Z</time>
      </trkpt>
      <trkpt lat="46.41531" lon="4.75066">
        <ele>278.8</ele>
        <time>2022-06-25T11:26:04Z</time>
      </trkpt>
      <trkpt lat="46.41529" lon="4.75064">
        <ele>278.8</ele>
        <time>2022-06-25T11:26:05Z</time>
      </trkpt>
      <trkpt lat="46.41526" lon="4.75061">
        <ele>279</ele>
        <time>2022-06-25T11:26:06Z</time>
      </trkpt>
      <trkpt lat="46.41524" lon="4.75059">
        <ele>279</ele>
        <time>2022-06-25T11:26:07Z</time>
      </trkpt>
      <trkpt lat="46.41522" lon="4.75057">
        <ele>279</ele>
        <time>2022-06-25T11:26:08Z</time>
      </trkpt>
      <trkpt lat="46.41519" lon="4.75054">
        <ele>279.4</ele>
        <time>2022-06-25T11:26:09Z</time>
      </trkpt>
      <trkpt lat="46.41517" lon="4.75052">
        <ele>279.4</ele>
        <time>2022-06-25T11:26:10Z</time>
      </trkpt>
      <trkpt lat="46.41515" lon="4.75049">
        <ele>279.6</ele>
        <time>2022-06-25T11:26:11Z</time>
      </trkpt>
      <trkpt lat="46.41512" lon="4.75046">
        <ele>279.6</ele>
        <time>2022-06-25T11:26:12Z</time>
      </trkpt>
      <trkpt lat="46.4151" lon="4.75044">
        <ele>280</ele>
        <time>2022-06-25T11:26:13Z</time>
      </trkpt>
      <trkpt lat="46.41507" lon="4.75042">
        <ele>280</ele>
        <time>2022-06-25T11:26:14Z</time>
      </trkpt>
      <trkpt lat="46.41505" lon="4.75039">
        <ele>280.2</ele>
        <time>2022-06-25T11:26:15Z</time>
      </trkpt>
      <trkpt lat="46.41502" lon="4.75037">
        <ele>280.2</ele>
        <time>2022-06-25T11:26:16Z</time>
      </trkpt>
      <trkpt lat="46.41499" lon="4.75035">
        <ele>280.6</ele>
        <time>2022-06-25T11:26:17Z</time>
      </trkpt>
      <trkpt lat="46.41497" lon="4.75032">
        <ele>280.6</ele>
        <time>2022-06-25T11:26:18Z</time>
      </trkpt>
      <trkpt lat="46.41495" lon="4.7503">
        <ele>281</ele>
        <time>2022-06-25T11:26:19Z</time>
      </trkpt>
      <trkpt lat="46.41492" lon="4.75028">
        <ele>281</ele>
        <time>2022-06-25T11:26:20Z</time>
      </trkpt>
      <trkpt lat="46.4149" lon="4.75026">
        <ele>281.2</ele>
        <time>2022-06-25T11:26:21Z</time>
      </trkpt>
      <trkpt lat="46.41487" lon="4.75023">
        <ele>281.2</ele>
        <time>2022-06-25T11:26:22Z</time>
      </trkpt>
      <trkpt lat="46.41484" lon="4.75021">
        <ele>281.2</ele>
        <time>2022-06-25T11:26:23Z</time>
      </trkpt>
      <trkpt lat="46.41481" lon="4.75018">
        <ele>281.6</ele>
        <time>2022-06-25T11:26:24Z</time>
      </trkpt>
      <trkpt lat="46.41478" lon="4.75016">
        <ele>281.6</ele>
        <time>2022-06-25T11:26:25Z</time>
      </trkpt>
      <trkpt lat="46.41475" lon="4.75013">
        <ele>282</ele>
        <time>2022-06-25T11:26:26Z</time>
      </trkpt>
      <trkpt lat="46.41473" lon="4.75011">
        <ele>282.2</ele>
        <time>2022-06-25T11:26:27Z</time>
      </trkpt>
      <trkpt lat="46.4147" lon="4.75008">
        <ele>282.2</ele>
        <time>2022-06-25T11:26:28Z</time>
      </trkpt>
      <trkpt lat="46.41467" lon="4.75006">
        <ele>282.6</ele>
        <time>2022-06-25T11:26:29Z</time>
      </trkpt>
      <trkpt lat="46.41464" lon="4.75004">
        <ele>282.6</ele>
        <time>2022-06-25T11:26:30Z</time>
      </trkpt>
      <trkpt lat="46.41461" lon="4.75002">
        <ele>282.8</ele>
        <time>2022-06-25T11:26:31Z</time>
      </trkpt>
      <trkpt lat="46.41458" lon="4.75">
        <ele>283</ele>
        <time>2022-06-25T11:26:32Z</time>
      </trkpt>
      <trkpt lat="46.41455" lon="4.74998">
        <ele>283</ele>
        <time>2022-06-25T11:26:33Z</time>
      </trkpt>
      <trkpt lat="46.41452" lon="4.74996">
        <ele>283.4</ele>
        <time>2022-06-25T11:26:34Z</time>
      </trkpt>
      <trkpt lat="46.41449" lon="4.74994">
        <ele>283.4</ele>
        <time>2022-06-25T11:26:35Z</time>
      </trkpt>
      <trkpt lat="46.41446" lon="4.74991">
        <ele>283.4</ele>
        <time>2022-06-25T11:26:36Z</time>
      </trkpt>
      <trkpt lat="46.41443" lon="4.74989">
        <ele>283.6</ele>
        <time>2022-06-25T11:26:37Z</time>
      </trkpt>
      <trkpt lat="46.41439" lon="4.74987">
        <ele>283.6</ele>
        <time>2022-06-25T11:26:38Z</time>
      </trkpt>
      <trkpt lat="46.41436" lon="4.74984">
        <ele>284</ele>
        <time>2022-06-25T11:26:39Z</time>
      </trkpt>
      <trkpt lat="46.41433" lon="4.74982">
        <ele>284</ele>
        <time>2022-06-25T11:26:40Z</time>
      </trkpt>
      <trkpt lat="46.4143" lon="4.74979">
        <ele>284.4</ele>
        <time>2022-06-25T11:26:41Z</time>
      </trkpt>
      <trkpt lat="46.41427" lon="4.74977">
        <ele>284.4</ele>
        <time>2022-06-25T11:26:42Z</time>
      </trkpt>
      <trkpt lat="46.41424" lon="4.74974">
        <ele>284.8</ele>
        <time>2022-06-25T11:26:43Z</time>
      </trkpt>
      <trkpt lat="46.41421" lon="4.74972">
        <ele>284.8</ele>
        <time>2022-06-25T11:26:44Z</time>
      </trkpt>
      <trkpt lat="46.41417" lon="4.7497">
        <ele>285</ele>
        <time>2022-06-25T11:26:45Z</time>
      </trkpt>
      <trkpt lat="46.41414" lon="4.74967">
        <ele>285</ele>
        <time>2022-06-25T11:26:46Z</time>
      </trkpt>
      <trkpt lat="46.41411" lon="4.74965">
        <ele>285.2</ele>
        <time>2022-06-25T11:26:47Z</time>
      </trkpt>
      <trkpt lat="46.41408" lon="4.74963">
        <ele>285.2</ele>
        <time>2022-06-25T11:26:48Z</time>
      </trkpt>
      <trkpt lat="46.41405" lon="4.74961">
        <ele>285.2</ele>
        <time>2022-06-25T11:26:49Z</time>
      </trkpt>
      <trkpt lat="46.41402" lon="4.74959">
        <ele>285.6</ele>
        <time>2022-06-25T11:26:50Z</time>
      </trkpt>
      <trkpt lat="46.41399" lon="4.74956">
        <ele>285.6</ele>
        <time>2022-06-25T11:26:51Z</time>
      </trkpt>
      <trkpt lat="46.41396" lon="4.74954">
        <ele>285.8</ele>
        <time>2022-06-25T11:26:52Z</time>
      </trkpt>
      <trkpt lat="46.41393" lon="4.74952">
        <ele>285.8</ele>
        <time>2022-06-25T11:26:53Z</time>
      </trkpt>
      <trkpt lat="46.4139" lon="4.74949">
        <ele>286</ele>
        <time>2022-06-25T11:26:54Z</time>
      </trkpt>
      <trkpt lat="46.41387" lon="4.74946">
        <ele>286</ele>
        <time>2022-06-25T11:26:55Z</time>
      </trkpt>
      <trkpt lat="46.41384" lon="4.74944">
        <ele>286</ele>
        <time>2022-06-25T11:26:56Z</time>
      </trkpt>
      <trkpt lat="46.41381" lon="4.74942">
        <ele>286.4</ele>
        <time>2022-06-25T11:26:57Z</time>
      </trkpt>
      <trkpt lat="46.41377" lon="4.74939">
        <ele>286.4</ele>
        <time>2022-06-25T11:26:58Z</time>
      </trkpt>
      <trkpt lat="46.41374" lon="4.74937">
        <ele>286.4</ele>
        <time>2022-06-25T11:26:59Z</time>
      </trkpt>
      <trkpt lat="46.41371" lon="4.74934">
        <ele>286.6</ele>
        <time>2022-06-25T11:27:00Z</time>
      </trkpt>
      <trkpt lat="46.41368" lon="4.74932">
        <ele>286.6</ele>
        <time>2022-06-25T11:27:01Z</time>
      </trkpt>
      <trkpt lat="46.41365" lon="4.74929">
        <ele>287</ele>
        <time>2022-06-25T11:27:02Z</time>
      </trkpt>
      <trkpt lat="46.41362" lon="4.74926">
        <ele>287.2</ele>
        <time>2022-06-25T11:27:03Z</time>
      </trkpt>
      <trkpt lat="46.41359" lon="4.74924">
        <ele>287.2</ele>
        <time>2022-06-25T11:27:04Z</time>
      </trkpt>
      <trkpt lat="46.41356" lon="4.74921">
        <ele>287.6</ele>
        <time>2022-06-25T11:27:05Z</time>
      </trkpt>
      <trkpt lat="46.41353" lon="4.74918">
        <ele>287.6</ele>
        <time>2022-06-25T11:27:06Z</time>
      </trkpt>
      <trkpt lat="46.4135" lon="4.74916">
        <ele>288</ele>
        <time>2022-06-25T11:27:07Z</time>
      </trkpt>
      <trkpt lat="46.41347" lon="4.74913">
        <ele>288</ele>
        <time>2022-06-25T11:27:08Z</time>
      </trkpt>
      <trkpt lat="46.41344" lon="4.74911">
        <ele>288.2</ele>
        <time>2022-06-25T11:27:09Z</time>
      </trkpt>
      <trkpt lat="46.41339" lon="4.74905">
        <ele>288.2</ele>
        <time>2022-06-25T11:27:10Z</time>
      </trkpt>
      <trkpt lat="46.41336" lon="4.74902">
        <ele>288.4</ele>
        <time>2022-06-25T11:27:11Z</time>
      </trkpt>
      <trkpt lat="46.41333" lon="4.749">
        <ele>288.4</ele>
        <time>2022-06-25T11:27:12Z</time>
      </trkpt>
      <trkpt lat="46.4133" lon="4.74897">
        <ele>288.6</ele>
        <time>2022-06-25T11:27:13Z</time>
      </trkpt>
      <trkpt lat="46.41327" lon="4.74894">
        <ele>288.6</ele>
        <time>2022-06-25T11:27:14Z</time>
      </trkpt>
      <trkpt lat="46.41325" lon="4.74891">
        <ele>288.8</ele>
        <time>2022-06-25T11:27:15Z</time>
      </trkpt>
      <trkpt lat="46.41322" lon="4.74888">
        <ele>288.8</ele>
        <time>2022-06-25T11:27:16Z</time>
      </trkpt>
      <trkpt lat="46.41319" lon="4.74886">
        <ele>289.2</ele>
        <time>2022-06-25T11:27:17Z</time>
      </trkpt>
      <trkpt lat="46.41316" lon="4.74883">
        <ele>289.2</ele>
        <time>2022-06-25T11:27:18Z</time>
      </trkpt>
      <trkpt lat="46.41313" lon="4.7488">
        <ele>289.4</ele>
        <time>2022-06-25T11:27:19Z</time>
      </trkpt>
      <trkpt lat="46.4131" lon="4.74877">
        <ele>289.4</ele>
        <time>2022-06-25T11:27:20Z</time>
      </trkpt>
      <trkpt lat="46.41307" lon="4.74875">
        <ele>289.8</ele>
        <time>2022-06-25T11:27:21Z</time>
      </trkpt>
      <trkpt lat="46.41304" lon="4.74872">
        <ele>290</ele>
        <time>2022-06-25T11:27:22Z</time>
      </trkpt>
      <trkpt lat="46.41301" lon="4.74869">
        <ele>290</ele>
        <time>2022-06-25T11:27:23Z</time>
      </trkpt>
      <trkpt lat="46.41298" lon="4.74867">
        <ele>290.2</ele>
        <time>2022-06-25T11:27:24Z</time>
      </trkpt>
      <trkpt lat="46.41296" lon="4.74864">
        <ele>290.2</ele>
        <time>2022-06-25T11:27:25Z</time>
      </trkpt>
      <trkpt lat="46.41293" lon="4.74861">
        <ele>290.2</ele>
        <time>2022-06-25T11:27:26Z</time>
      </trkpt>
      <trkpt lat="46.4129" lon="4.74859">
        <ele>290.4</ele>
        <time>2022-06-25T11:27:27Z</time>
      </trkpt>
      <trkpt lat="46.41287" lon="4.74856">
        <ele>290.4</ele>
        <time>2022-06-25T11:27:28Z</time>
      </trkpt>
      <trkpt lat="46.41285" lon="4.74854">
        <ele>290.4</ele>
        <time>2022-06-25T11:27:29Z</time>
      </trkpt>
      <trkpt lat="46.41282" lon="4.74851">
        <ele>290.8</ele>
        <time>2022-06-25T11:27:30Z</time>
      </trkpt>
      <trkpt lat="46.41279" lon="4.74849">
        <ele>290.8</ele>
        <time>2022-06-25T11:27:31Z</time>
      </trkpt>
      <trkpt lat="46.41277" lon="4.74846">
        <ele>291</ele>
        <time>2022-06-25T11:27:32Z</time>
      </trkpt>
      <trkpt lat="46.41273" lon="4.74844">
        <ele>291</ele>
        <time>2022-06-25T11:27:33Z</time>
      </trkpt>
      <trkpt lat="46.4127" lon="4.74841">
        <ele>291.2</ele>
        <time>2022-06-25T11:27:34Z</time>
      </trkpt>
      <trkpt lat="46.41267" lon="4.74838">
        <ele>291.2</ele>
        <time>2022-06-25T11:27:35Z</time>
      </trkpt>
      <trkpt lat="46.41264" lon="4.74836">
        <ele>291.4</ele>
        <time>2022-06-25T11:27:36Z</time>
      </trkpt>
      <trkpt lat="46.41261" lon="4.74833">
        <ele>291.4</ele>
        <time>2022-06-25T11:27:37Z</time>
      </trkpt>
      <trkpt lat="46.41257" lon="4.74831">
        <ele>291.4</ele>
        <time>2022-06-25T11:27:38Z</time>
      </trkpt>
      <trkpt lat="46.41253" lon="4.74829">
        <ele>291.4</ele>
        <time>2022-06-25T11:27:39Z</time>
      </trkpt>
      <trkpt lat="46.41249" lon="4.74827">
        <ele>291.4</ele>
        <time>2022-06-25T11:27:40Z</time>
      </trkpt>
      <trkpt lat="46.41245" lon="4.74825">
        <ele>291.4</ele>
        <time>2022-06-25T11:27:41Z</time>
      </trkpt>
      <trkpt lat="46.4124" lon="4.74823">
        <ele>291.4</ele>
        <time>2022-06-25T11:27:42Z</time>
      </trkpt>
      <trkpt lat="46.41235" lon="4.74821">
        <ele>291.4</ele>
        <time>2022-06-25T11:27:43Z</time>
      </trkpt>
      <trkpt lat="46.41229" lon="4.74819">
        <ele>291.4</ele>
        <time>2022-06-25T11:27:44Z</time>
      </trkpt>
      <trkpt lat="46.41224" lon="4.74817">
        <ele>291.2</ele>
        <time>2022-06-25T11:27:45Z</time>
      </trkpt>
      <trkpt lat="46.41218" lon="4.74814">
        <ele>291.2</ele>
        <time>2022-06-25T11:27:46Z</time>
      </trkpt>
      <trkpt lat="46.41212" lon="4.74812">
        <ele>290.8</ele>
        <time>2022-06-25T11:27:47Z</time>
      </trkpt>
      <trkpt lat="46.41205" lon="4.7481">
        <ele>290.8</ele>
        <time>2022-06-25T11:27:48Z</time>
      </trkpt>
      <trkpt lat="46.41198" lon="4.74808">
        <ele>290.6</ele>
        <time>2022-06-25T11:27:49Z</time>
      </trkpt>
      <trkpt lat="46.41191" lon="4.74806">
        <ele>290.4</ele>
        <time>2022-06-25T11:27:50Z</time>
      </trkpt>
      <trkpt lat="46.41184" lon="4.74804">
        <ele>290</ele>
        <time>2022-06-25T11:27:51Z</time>
      </trkpt>
      <trkpt lat="46.41177" lon="4.74802">
        <ele>290</ele>
        <time>2022-06-25T11:27:52Z</time>
      </trkpt>
      <trkpt lat="46.41169" lon="4.748">
        <ele>289.6</ele>
        <time>2022-06-25T11:27:53Z</time>
      </trkpt>
      <trkpt lat="46.41162" lon="4.74797">
        <ele>289.4</ele>
        <time>2022-06-25T11:27:54Z</time>
      </trkpt>
      <trkpt lat="46.41154" lon="4.74795">
        <ele>289.2</ele>
        <time>2022-06-25T11:27:55Z</time>
      </trkpt>
      <trkpt lat="46.41146" lon="4.74793">
        <ele>288.8</ele>
        <time>2022-06-25T11:27:56Z</time>
      </trkpt>
      <trkpt lat="46.41139" lon="4.74791">
        <ele>288.2</ele>
        <time>2022-06-25T11:27:57Z</time>
      </trkpt>
      <trkpt lat="46.41131" lon="4.74788">
        <ele>288</ele>
        <time>2022-06-25T11:27:58Z</time>
      </trkpt>
      <trkpt lat="46.41122" lon="4.74786">
        <ele>287.4</ele>
        <time>2022-06-25T11:27:59Z</time>
      </trkpt>
      <trkpt lat="46.41114" lon="4.74784">
        <ele>287.4</ele>
        <time>2022-06-25T11:28:00Z</time>
      </trkpt>
      <trkpt lat="46.41106" lon="4.74781">
        <ele>287</ele>
        <time>2022-06-25T11:28:01Z</time>
      </trkpt>
      <trkpt lat="46.41098" lon="4.74778">
        <ele>286.6</ele>
        <time>2022-06-25T11:28:02Z</time>
      </trkpt>
      <trkpt lat="46.41089" lon="4.74776">
        <ele>286.4</ele>
        <time>2022-06-25T11:28:03Z</time>
      </trkpt>
      <trkpt lat="46.41081" lon="4.74772">
        <ele>286</ele>
        <time>2022-06-25T11:28:04Z</time>
      </trkpt>
      <trkpt lat="46.41072" lon="4.74769">
        <ele>285.8</ele>
        <time>2022-06-25T11:28:05Z</time>
      </trkpt>
      <trkpt lat="46.41063" lon="4.74765">
        <ele>285.2</ele>
        <time>2022-06-25T11:28:06Z</time>
      </trkpt>
      <trkpt lat="46.41054" lon="4.7476">
        <ele>285</ele>
        <time>2022-06-25T11:28:07Z</time>
      </trkpt>
      <trkpt lat="46.41045" lon="4.74755">
        <ele>284.6</ele>
        <time>2022-06-25T11:28:08Z</time>
      </trkpt>
      <trkpt lat="46.41037" lon="4.74749">
        <ele>284.2</ele>
        <time>2022-06-25T11:28:09Z</time>
      </trkpt>
      <trkpt lat="46.41029" lon="4.74742">
        <ele>283.8</ele>
        <time>2022-06-25T11:28:10Z</time>
      </trkpt>
      <trkpt lat="46.41026" lon="4.74739">
        <ele>283.4</ele>
        <time>2022-06-25T11:28:11Z</time>
      </trkpt>
      <trkpt lat="46.41022" lon="4.74736">
        <ele>283</ele>
        <time>2022-06-25T11:28:12Z</time>
      </trkpt>
      <trkpt lat="46.41014" lon="4.7473">
        <ele>282.6</ele>
        <time>2022-06-25T11:28:13Z</time>
      </trkpt>
      <trkpt lat="46.41006" lon="4.74725">
        <ele>282.4</ele>
        <time>2022-06-25T11:28:14Z</time>
      </trkpt>
      <trkpt lat="46.40994" lon="4.74717">
        <ele>282</ele>
        <time>2022-06-25T11:28:15Z</time>
      </trkpt>
      <trkpt lat="46.4099" lon="4.74714">
        <ele>281.4</ele>
        <time>2022-06-25T11:28:16Z</time>
      </trkpt>
      <trkpt lat="46.40982" lon="4.74709">
        <ele>281</ele>
        <time>2022-06-25T11:28:17Z</time>
      </trkpt>
      <trkpt lat="46.40975" lon="4.74704">
        <ele>281</ele>
        <time>2022-06-25T11:28:18Z</time>
      </trkpt>
      <trkpt lat="46.40967" lon="4.747">
        <ele>280.6</ele>
        <time>2022-06-25T11:28:19Z</time>
      </trkpt>
      <trkpt lat="46.40959" lon="4.74696">
        <ele>280.2</ele>
        <time>2022-06-25T11:28:20Z</time>
      </trkpt>
      <trkpt lat="46.40947" lon="4.74692">
        <ele>279.8</ele>
        <time>2022-06-25T11:28:21Z</time>
      </trkpt>
      <trkpt lat="46.40943" lon="4.7469">
        <ele>279.6</ele>
        <time>2022-06-25T11:28:22Z</time>
      </trkpt>
      <trkpt lat="46.40935" lon="4.74688">
        <ele>279.6</ele>
        <time>2022-06-25T11:28:23Z</time>
      </trkpt>
      <trkpt lat="46.40927" lon="4.74685">
        <ele>279.6</ele>
        <time>2022-06-25T11:28:24Z</time>
      </trkpt>
      <trkpt lat="46.40919" lon="4.74683">
        <ele>279.2</ele>
        <time>2022-06-25T11:28:25Z</time>
      </trkpt>
      <trkpt lat="46.40911" lon="4.7468">
        <ele>279</ele>
        <time>2022-06-25T11:28:26Z</time>
      </trkpt>
      <trkpt lat="46.40904" lon="4.74677">
        <ele>279</ele>
        <time>2022-06-25T11:28:27Z</time>
      </trkpt>
      <trkpt lat="46.40897" lon="4.74673">
        <ele>278.8</ele>
        <time>2022-06-25T11:28:28Z</time>
      </trkpt>
      <trkpt lat="46.4089" lon="4.74669">
        <ele>278.8</ele>
        <time>2022-06-25T11:28:29Z</time>
      </trkpt>
      <trkpt lat="46.40883" lon="4.74665">
        <ele>278.8</ele>
        <time>2022-06-25T11:28:30Z</time>
      </trkpt>
      <trkpt lat="46.40877" lon="4.7466">
        <ele>278.8</ele>
        <time>2022-06-25T11:28:31Z</time>
      </trkpt>
      <trkpt lat="46.40871" lon="4.74655">
        <ele>278.8</ele>
        <time>2022-06-25T11:28:32Z</time>
      </trkpt>
      <trkpt lat="46.40864" lon="4.74647">
        <ele>279</ele>
        <time>2022-06-25T11:28:33Z</time>
      </trkpt>
      <trkpt lat="46.40862" lon="4.74645">
        <ele>279.2</ele>
        <time>2022-06-25T11:28:34Z</time>
      </trkpt>
      <trkpt lat="46.40857" lon="4.7464">
        <ele>279.6</ele>
        <time>2022-06-25T11:28:35Z</time>
      </trkpt>
      <trkpt lat="46.40854" lon="4.74635">
        <ele>279.8</ele>
        <time>2022-06-25T11:28:36Z</time>
      </trkpt>
      <trkpt lat="46.40851" lon="4.7463">
        <ele>280</ele>
        <time>2022-06-25T11:28:37Z</time>
      </trkpt>
      <trkpt lat="46.40848" lon="4.74626">
        <ele>280.4</ele>
        <time>2022-06-25T11:28:38Z</time>
      </trkpt>
      <trkpt lat="46.40845" lon="4.74622">
        <ele>280.8</ele>
        <time>2022-06-25T11:28:39Z</time>
      </trkpt>
      <trkpt lat="46.40842" lon="4.74618">
        <ele>281</ele>
        <time>2022-06-25T11:28:40Z</time>
      </trkpt>
      <trkpt lat="46.40839" lon="4.74614">
        <ele>281.2</ele>
        <time>2022-06-25T11:28:41Z</time>
      </trkpt>
      <trkpt lat="46.40836" lon="4.7461">
        <ele>281.6</ele>
        <time>2022-06-25T11:28:42Z</time>
      </trkpt>
      <trkpt lat="46.40833" lon="4.74607">
        <ele>281.8</ele>
        <time>2022-06-25T11:28:43Z</time>
      </trkpt>
      <trkpt lat="46.4083" lon="4.74604">
        <ele>282</ele>
        <time>2022-06-25T11:28:44Z</time>
      </trkpt>
      <trkpt lat="46.40828" lon="4.746">
        <ele>282.2</ele>
        <time>2022-06-25T11:28:45Z</time>
      </trkpt>
      <trkpt lat="46.40825" lon="4.74597">
        <ele>282.6</ele>
        <time>2022-06-25T11:28:46Z</time>
      </trkpt>
      <trkpt lat="46.40822" lon="4.74594">
        <ele>282.8</ele>
        <time>2022-06-25T11:28:47Z</time>
      </trkpt>
      <trkpt lat="46.40819" lon="4.74591">
        <ele>283</ele>
        <time>2022-06-25T11:28:48Z</time>
      </trkpt>
      <trkpt lat="46.40816" lon="4.74588">
        <ele>283</ele>
        <time>2022-06-25T11:28:49Z</time>
      </trkpt>
      <trkpt lat="46.40813" lon="4.74585">
        <ele>283.4</ele>
        <time>2022-06-25T11:28:50Z</time>
      </trkpt>
      <trkpt lat="46.40807" lon="4.74581">
        <ele>283.4</ele>
        <time>2022-06-25T11:28:51Z</time>
      </trkpt>
      <trkpt lat="46.40805" lon="4.7458">
        <ele>283.6</ele>
        <time>2022-06-25T11:28:52Z</time>
      </trkpt>
      <trkpt lat="46.40799" lon="4.74577">
        <ele>283.6</ele>
        <time>2022-06-25T11:28:53Z</time>
      </trkpt>
      <trkpt lat="46.40797" lon="4.74575">
        <ele>283.6</ele>
        <time>2022-06-25T11:28:54Z</time>
      </trkpt>
      <trkpt lat="46.40793" lon="4.74573">
        <ele>283.6</ele>
        <time>2022-06-25T11:28:55Z</time>
      </trkpt>
      <trkpt lat="46.40789" lon="4.74571">
        <ele>283.6</ele>
        <time>2022-06-25T11:28:56Z</time>
      </trkpt>
      <trkpt lat="46.40784" lon="4.74569">
        <ele>283.6</ele>
        <time>2022-06-25T11:28:57Z</time>
      </trkpt>
      <trkpt lat="46.40779" lon="4.74567">
        <ele>283.6</ele>
        <time>2022-06-25T11:28:58Z</time>
      </trkpt>
      <trkpt lat="46.40774" lon="4.74564">
        <ele>283.6</ele>
        <time>2022-06-25T11:28:59Z</time>
      </trkpt>
      <trkpt lat="46.40769" lon="4.74562">
        <ele>283.6</ele>
        <time>2022-06-25T11:29:00Z</time>
      </trkpt>
      <trkpt lat="46.40763" lon="4.7456">
        <ele>283.4</ele>
        <time>2022-06-25T11:29:01Z</time>
      </trkpt>
      <trkpt lat="46.40758" lon="4.74558">
        <ele>283.4</ele>
        <time>2022-06-25T11:29:02Z</time>
      </trkpt>
      <trkpt lat="46.40752" lon="4.74555">
        <ele>283.4</ele>
        <time>2022-06-25T11:29:03Z</time>
      </trkpt>
      <trkpt lat="46.40747" lon="4.74554">
        <ele>283.2</ele>
        <time>2022-06-25T11:29:04Z</time>
      </trkpt>
      <trkpt lat="46.40741" lon="4.74552">
        <ele>283.2</ele>
        <time>2022-06-25T11:29:05Z</time>
      </trkpt>
      <trkpt lat="46.40735" lon="4.7455">
        <ele>282.8</ele>
        <time>2022-06-25T11:29:06Z</time>
      </trkpt>
      <trkpt lat="46.40729" lon="4.74547">
        <ele>282.8</ele>
        <time>2022-06-25T11:29:07Z</time>
      </trkpt>
      <trkpt lat="46.40723" lon="4.74545">
        <ele>282.6</ele>
        <time>2022-06-25T11:29:08Z</time>
      </trkpt>
      <trkpt lat="46.40717" lon="4.74542">
        <ele>282.4</ele>
        <time>2022-06-25T11:29:09Z</time>
      </trkpt>
      <trkpt lat="46.40711" lon="4.7454">
        <ele>282.4</ele>
        <time>2022-06-25T11:29:10Z</time>
      </trkpt>
      <trkpt lat="46.40704" lon="4.74538">
        <ele>282.4</ele>
        <time>2022-06-25T11:29:11Z</time>
      </trkpt>
      <trkpt lat="46.40698" lon="4.74535">
        <ele>282</ele>
        <time>2022-06-25T11:29:12Z</time>
      </trkpt>
      <trkpt lat="46.40692" lon="4.74532">
        <ele>282</ele>
        <time>2022-06-25T11:29:13Z</time>
      </trkpt>
      <trkpt lat="46.40685" lon="4.7453">
        <ele>281.8</ele>
        <time>2022-06-25T11:29:14Z</time>
      </trkpt>
      <trkpt lat="46.40679" lon="4.74527">
        <ele>281.8</ele>
        <time>2022-06-25T11:29:15Z</time>
      </trkpt>
      <trkpt lat="46.40673" lon="4.74524">
        <ele>281.6</ele>
        <time>2022-06-25T11:29:16Z</time>
      </trkpt>
      <trkpt lat="46.40667" lon="4.74522">
        <ele>281.6</ele>
        <time>2022-06-25T11:29:17Z</time>
      </trkpt>
      <trkpt lat="46.4066" lon="4.7452">
        <ele>281.2</ele>
        <time>2022-06-25T11:29:18Z</time>
      </trkpt>
      <trkpt lat="46.40654" lon="4.74517">
        <ele>281.2</ele>
        <time>2022-06-25T11:29:19Z</time>
      </trkpt>
      <trkpt lat="46.40647" lon="4.74516">
        <ele>281</ele>
        <time>2022-06-25T11:29:20Z</time>
      </trkpt>
      <trkpt lat="46.4064" lon="4.74514">
        <ele>281</ele>
        <time>2022-06-25T11:29:21Z</time>
      </trkpt>
      <trkpt lat="46.40633" lon="4.74513">
        <ele>280.6</ele>
        <time>2022-06-25T11:29:22Z</time>
      </trkpt>
      <trkpt lat="46.40626" lon="4.74512">
        <ele>280.2</ele>
        <time>2022-06-25T11:29:23Z</time>
      </trkpt>
      <trkpt lat="46.40619" lon="4.74512">
        <ele>280</ele>
        <time>2022-06-25T11:29:24Z</time>
      </trkpt>
      <trkpt lat="46.40612" lon="4.74511">
        <ele>279.8</ele>
        <time>2022-06-25T11:29:25Z</time>
      </trkpt>
      <trkpt lat="46.40604" lon="4.7451">
        <ele>279.4</ele>
        <time>2022-06-25T11:29:26Z</time>
      </trkpt>
      <trkpt lat="46.40597" lon="4.74509">
        <ele>279.4</ele>
        <time>2022-06-25T11:29:27Z</time>
      </trkpt>
      <trkpt lat="46.4059" lon="4.74508">
        <ele>279</ele>
        <time>2022-06-25T11:29:28Z</time>
      </trkpt>
      <trkpt lat="46.40582" lon="4.74507">
        <ele>278.8</ele>
        <time>2022-06-25T11:29:29Z</time>
      </trkpt>
      <trkpt lat="46.40575" lon="4.74506">
        <ele>278.8</ele>
        <time>2022-06-25T11:29:30Z</time>
      </trkpt>
      <trkpt lat="46.40568" lon="4.74506">
        <ele>278.4</ele>
        <time>2022-06-25T11:29:31Z</time>
      </trkpt>
      <trkpt lat="46.40561" lon="4.74505">
        <ele>278.4</ele>
        <time>2022-06-25T11:29:32Z</time>
      </trkpt>
      <trkpt lat="46.40554" lon="4.74504">
        <ele>278.2</ele>
        <time>2022-06-25T11:29:33Z</time>
      </trkpt>
      <trkpt lat="46.40547" lon="4.74503">
        <ele>278.2</ele>
        <time>2022-06-25T11:29:34Z</time>
      </trkpt>
      <trkpt lat="46.4054" lon="4.74503">
        <ele>278.2</ele>
        <time>2022-06-25T11:29:35Z</time>
      </trkpt>
      <trkpt lat="46.40534" lon="4.74503">
        <ele>278.2</ele>
        <time>2022-06-25T11:29:36Z</time>
      </trkpt>
      <trkpt lat="46.40527" lon="4.74504">
        <ele>278.2</ele>
        <time>2022-06-25T11:29:37Z</time>
      </trkpt>
      <trkpt lat="46.40521" lon="4.74506">
        <ele>278.2</ele>
        <time>2022-06-25T11:29:38Z</time>
      </trkpt>
      <trkpt lat="46.40516" lon="4.74508">
        <ele>278.4</ele>
        <time>2022-06-25T11:29:39Z</time>
      </trkpt>
      <trkpt lat="46.4051" lon="4.74512">
        <ele>278.4</ele>
        <time>2022-06-25T11:29:40Z</time>
      </trkpt>
      <trkpt lat="46.40506" lon="4.74516">
        <ele>278.6</ele>
        <time>2022-06-25T11:29:41Z</time>
      </trkpt>
      <trkpt lat="46.40501" lon="4.74522">
        <ele>278.6</ele>
        <time>2022-06-25T11:29:42Z</time>
      </trkpt>
      <trkpt lat="46.40498" lon="4.74528">
        <ele>278.6</ele>
        <time>2022-06-25T11:29:43Z</time>
      </trkpt>
      <trkpt lat="46.40496" lon="4.74531">
        <ele>278.6</ele>
        <time>2022-06-25T11:29:44Z</time>
      </trkpt>
      <trkpt lat="46.40494" lon="4.74534">
        <ele>278.6</ele>
        <time>2022-06-25T11:29:45Z</time>
      </trkpt>
      <trkpt lat="46.40491" lon="4.7454">
        <ele>278.6</ele>
        <time>2022-06-25T11:29:46Z</time>
      </trkpt>
      <trkpt lat="46.40488" lon="4.74547">
        <ele>278.6</ele>
        <time>2022-06-25T11:29:47Z</time>
      </trkpt>
      <trkpt lat="46.40481" lon="4.74559">
        <ele>278.6</ele>
        <time>2022-06-25T11:29:48Z</time>
      </trkpt>
      <trkpt lat="46.40478" lon="4.74564">
        <ele>279</ele>
        <time>2022-06-25T11:29:49Z</time>
      </trkpt>
      <trkpt lat="46.40474" lon="4.7457">
        <ele>279</ele>
        <time>2022-06-25T11:29:50Z</time>
      </trkpt>
      <trkpt lat="46.40471" lon="4.74574">
        <ele>279.2</ele>
        <time>2022-06-25T11:29:51Z</time>
      </trkpt>
      <trkpt lat="46.40467" lon="4.74578">
        <ele>279.2</ele>
        <time>2022-06-25T11:29:52Z</time>
      </trkpt>
      <trkpt lat="46.40462" lon="4.74581">
        <ele>279.2</ele>
        <time>2022-06-25T11:29:53Z</time>
      </trkpt>
      <trkpt lat="46.40458" lon="4.74584">
        <ele>279.4</ele>
        <time>2022-06-25T11:29:54Z</time>
      </trkpt>
      <trkpt lat="46.40453" lon="4.74587">
        <ele>279.4</ele>
        <time>2022-06-25T11:29:55Z</time>
      </trkpt>
      <trkpt lat="46.40448" lon="4.74589">
        <ele>279.6</ele>
        <time>2022-06-25T11:29:56Z</time>
      </trkpt>
      <trkpt lat="46.40443" lon="4.74591">
        <ele>279.6</ele>
        <time>2022-06-25T11:29:57Z</time>
      </trkpt>
      <trkpt lat="46.40439" lon="4.74593">
        <ele>279.6</ele>
        <time>2022-06-25T11:29:58Z</time>
      </trkpt>
      <trkpt lat="46.40434" lon="4.74594">
        <ele>280</ele>
        <time>2022-06-25T11:29:59Z</time>
      </trkpt>
      <trkpt lat="46.40429" lon="4.74594">
        <ele>280</ele>
        <time>2022-06-25T11:30:00Z</time>
      </trkpt>
      <trkpt lat="46.40424" lon="4.74595">
        <ele>280</ele>
        <time>2022-06-25T11:30:01Z</time>
      </trkpt>
      <trkpt lat="46.4042" lon="4.74596">
        <ele>280.2</ele>
        <time>2022-06-25T11:30:02Z</time>
      </trkpt>
      <trkpt lat="46.40415" lon="4.74597">
        <ele>280.2</ele>
        <time>2022-06-25T11:30:03Z</time>
      </trkpt>
      <trkpt lat="46.4041" lon="4.74598">
        <ele>280.2</ele>
        <time>2022-06-25T11:30:04Z</time>
      </trkpt>
      <trkpt lat="46.40405" lon="4.74599">
        <ele>280.4</ele>
        <time>2022-06-25T11:30:05Z</time>
      </trkpt>
      <trkpt lat="46.40401" lon="4.746">
        <ele>280.4</ele>
        <time>2022-06-25T11:30:06Z</time>
      </trkpt>
      <trkpt lat="46.40396" lon="4.74601">
        <ele>280.4</ele>
        <time>2022-06-25T11:30:07Z</time>
      </trkpt>
      <trkpt lat="46.40391" lon="4.74601">
        <ele>280.8</ele>
        <time>2022-06-25T11:30:08Z</time>
      </trkpt>
      <trkpt lat="46.40386" lon="4.74601">
        <ele>280.8</ele>
        <time>2022-06-25T11:30:09Z</time>
      </trkpt>
      <trkpt lat="46.40381" lon="4.74601">
        <ele>280.8</ele>
        <time>2022-06-25T11:30:10Z</time>
      </trkpt>
      <trkpt lat="46.40376" lon="4.74601">
        <ele>280.8</ele>
        <time>2022-06-25T11:30:11Z</time>
      </trkpt>
      <trkpt lat="46.40371" lon="4.74601">
        <ele>280.8</ele>
        <time>2022-06-25T11:30:12Z</time>
      </trkpt>
      <trkpt lat="46.40366" lon="4.746">
        <ele>280.8</ele>
        <time>2022-06-25T11:30:13Z</time>
      </trkpt>
      <trkpt lat="46.40362" lon="4.74599">
        <ele>281</ele>
        <time>2022-06-25T11:30:14Z</time>
      </trkpt>
      <trkpt lat="46.40357" lon="4.74597">
        <ele>281.2</ele>
        <time>2022-06-25T11:30:15Z</time>
      </trkpt>
      <trkpt lat="46.40352" lon="4.74596">
        <ele>281.2</ele>
        <time>2022-06-25T11:30:16Z</time>
      </trkpt>
      <trkpt lat="46.40348" lon="4.74594">
        <ele>281.2</ele>
        <time>2022-06-25T11:30:17Z</time>
      </trkpt>
      <trkpt lat="46.40343" lon="4.74591">
        <ele>281.2</ele>
        <time>2022-06-25T11:30:18Z</time>
      </trkpt>
      <trkpt lat="46.40339" lon="4.74589">
        <ele>281.6</ele>
        <time>2022-06-25T11:30:19Z</time>
      </trkpt>
      <trkpt lat="46.40334" lon="4.74586">
        <ele>281.6</ele>
        <time>2022-06-25T11:30:20Z</time>
      </trkpt>
      <trkpt lat="46.40329" lon="4.74583">
        <ele>281.6</ele>
        <time>2022-06-25T11:30:21Z</time>
      </trkpt>
      <trkpt lat="46.40325" lon="4.7458">
        <ele>281.6</ele>
        <time>2022-06-25T11:30:22Z</time>
      </trkpt>
      <trkpt lat="46.4032" lon="4.74576">
        <ele>281.6</ele>
        <time>2022-06-25T11:30:23Z</time>
      </trkpt>
      <trkpt lat="46.40316" lon="4.74573">
        <ele>281.6</ele>
        <time>2022-06-25T11:30:24Z</time>
      </trkpt>
      <trkpt lat="46.40311" lon="4.74569">
        <ele>281.6</ele>
        <time>2022-06-25T11:30:25Z</time>
      </trkpt>
      <trkpt lat="46.40306" lon="4.74566">
        <ele>281.6</ele>
        <time>2022-06-25T11:30:26Z</time>
      </trkpt>
      <trkpt lat="46.40301" lon="4.74562">
        <ele>281.6</ele>
        <time>2022-06-25T11:30:27Z</time>
      </trkpt>
      <trkpt lat="46.40296" lon="4.74558">
        <ele>281.6</ele>
        <time>2022-06-25T11:30:28Z</time>
      </trkpt>
      <trkpt lat="46.40291" lon="4.74555">
        <ele>281.6</ele>
        <time>2022-06-25T11:30:29Z</time>
      </trkpt>
      <trkpt lat="46.40286" lon="4.74551">
        <ele>281.6</ele>
        <time>2022-06-25T11:30:30Z</time>
      </trkpt>
      <trkpt lat="46.40281" lon="4.74547">
        <ele>281.6</ele>
        <time>2022-06-25T11:30:31Z</time>
      </trkpt>
      <trkpt lat="46.40276" lon="4.74543">
        <ele>281.6</ele>
        <time>2022-06-25T11:30:32Z</time>
      </trkpt>
      <trkpt lat="46.4027" lon="4.74539">
        <ele>281.6</ele>
        <time>2022-06-25T11:30:33Z</time>
      </trkpt>
      <trkpt lat="46.40265" lon="4.74535">
        <ele>281.6</ele>
        <time>2022-06-25T11:30:34Z</time>
      </trkpt>
      <trkpt lat="46.4026" lon="4.74532">
        <ele>281.6</ele>
        <time>2022-06-25T11:30:35Z</time>
      </trkpt>
      <trkpt lat="46.40255" lon="4.74528">
        <ele>281.6</ele>
        <time>2022-06-25T11:30:36Z</time>
      </trkpt>
      <trkpt lat="46.40249" lon="4.74524">
        <ele>281.2</ele>
        <time>2022-06-25T11:30:37Z</time>
      </trkpt>
      <trkpt lat="46.40244" lon="4.7452">
        <ele>281.2</ele>
        <time>2022-06-25T11:30:38Z</time>
      </trkpt>
      <trkpt lat="46.40238" lon="4.74516">
        <ele>281.2</ele>
        <time>2022-06-25T11:30:39Z</time>
      </trkpt>
      <trkpt lat="46.40233" lon="4.74512">
        <ele>281.2</ele>
        <time>2022-06-25T11:30:40Z</time>
      </trkpt>
      <trkpt lat="46.40228" lon="4.74509">
        <ele>281.2</ele>
        <time>2022-06-25T11:30:41Z</time>
      </trkpt>
      <trkpt lat="46.40222" lon="4.74505">
        <ele>281</ele>
        <time>2022-06-25T11:30:42Z</time>
      </trkpt>
      <trkpt lat="46.40217" lon="4.74501">
        <ele>281</ele>
        <time>2022-06-25T11:30:43Z</time>
      </trkpt>
      <trkpt lat="46.40212" lon="4.74497">
        <ele>281</ele>
        <time>2022-06-25T11:30:44Z</time>
      </trkpt>
      <trkpt lat="46.40207" lon="4.74493">
        <ele>281</ele>
        <time>2022-06-25T11:30:45Z</time>
      </trkpt>
      <trkpt lat="46.40201" lon="4.74489">
        <ele>281</ele>
        <time>2022-06-25T11:30:46Z</time>
      </trkpt>
      <trkpt lat="46.40196" lon="4.74486">
        <ele>281</ele>
        <time>2022-06-25T11:30:47Z</time>
      </trkpt>
      <trkpt lat="46.40191" lon="4.74482">
        <ele>281</ele>
        <time>2022-06-25T11:30:48Z</time>
      </trkpt>
      <trkpt lat="46.40186" lon="4.74478">
        <ele>281</ele>
        <time>2022-06-25T11:30:49Z</time>
      </trkpt>
      <trkpt lat="46.40181" lon="4.74474">
        <ele>281</ele>
        <time>2022-06-25T11:30:50Z</time>
      </trkpt>
      <trkpt lat="46.40176" lon="4.74471">
        <ele>281</ele>
        <time>2022-06-25T11:30:51Z</time>
      </trkpt>
      <trkpt lat="46.40171" lon="4.74467">
        <ele>280.8</ele>
        <time>2022-06-25T11:30:52Z</time>
      </trkpt>
      <trkpt lat="46.40166" lon="4.74463">
        <ele>280.8</ele>
        <time>2022-06-25T11:30:53Z</time>
      </trkpt>
      <trkpt lat="46.4016" lon="4.74459">
        <ele>280.8</ele>
        <time>2022-06-25T11:30:54Z</time>
      </trkpt>
      <trkpt lat="46.40155" lon="4.74455">
        <ele>280.8</ele>
        <time>2022-06-25T11:30:55Z</time>
      </trkpt>
      <trkpt lat="46.4015" lon="4.74451">
        <ele>280.8</ele>
        <time>2022-06-25T11:30:56Z</time>
      </trkpt>
      <trkpt lat="46.40145" lon="4.74448">
        <ele>280.8</ele>
        <time>2022-06-25T11:30:57Z</time>
      </trkpt>
      <trkpt lat="46.4014" lon="4.74444">
        <ele>280.6</ele>
        <time>2022-06-25T11:30:58Z</time>
      </trkpt>
      <trkpt lat="46.40132" lon="4.74438">
        <ele>280.6</ele>
        <time>2022-06-25T11:30:59Z</time>
      </trkpt>
      <trkpt lat="46.4013" lon="4.74436">
        <ele>280.6</ele>
        <time>2022-06-25T11:31:00Z</time>
      </trkpt>
      <trkpt lat="46.40124" lon="4.74432">
        <ele>280.6</ele>
        <time>2022-06-25T11:31:01Z</time>
      </trkpt>
      <trkpt lat="46.40119" lon="4.74428">
        <ele>280.6</ele>
        <time>2022-06-25T11:31:02Z</time>
      </trkpt>
      <trkpt lat="46.40113" lon="4.74424">
        <ele>280.6</ele>
        <time>2022-06-25T11:31:03Z</time>
      </trkpt>
      <trkpt lat="46.40108" lon="4.7442">
        <ele>280.6</ele>
        <time>2022-06-25T11:31:04Z</time>
      </trkpt>
      <trkpt lat="46.40102" lon="4.74416">
        <ele>280.6</ele>
        <time>2022-06-25T11:31:05Z</time>
      </trkpt>
      <trkpt lat="46.40097" lon="4.74412">
        <ele>280.6</ele>
        <time>2022-06-25T11:31:06Z</time>
      </trkpt>
      <trkpt lat="46.40091" lon="4.74408">
        <ele>280.6</ele>
        <time>2022-06-25T11:31:07Z</time>
      </trkpt>
      <trkpt lat="46.40085" lon="4.74404">
        <ele>280.2</ele>
        <time>2022-06-25T11:31:08Z</time>
      </trkpt>
      <trkpt lat="46.40079" lon="4.744">
        <ele>280.2</ele>
        <time>2022-06-25T11:31:09Z</time>
      </trkpt>
      <trkpt lat="46.40074" lon="4.74396">
        <ele>280.2</ele>
        <time>2022-06-25T11:31:10Z</time>
      </trkpt>
      <trkpt lat="46.40068" lon="4.74392">
        <ele>280</ele>
        <time>2022-06-25T11:31:11Z</time>
      </trkpt>
      <trkpt lat="46.40062" lon="4.74389">
        <ele>280</ele>
        <time>2022-06-25T11:31:12Z</time>
      </trkpt>
      <trkpt lat="46.40056" lon="4.74385">
        <ele>279.6</ele>
        <time>2022-06-25T11:31:13Z</time>
      </trkpt>
      <trkpt lat="46.4005" lon="4.74382">
        <ele>279.6</ele>
        <time>2022-06-25T11:31:14Z</time>
      </trkpt>
      <trkpt lat="46.40044" lon="4.74379">
        <ele>279.2</ele>
        <time>2022-06-25T11:31:15Z</time>
      </trkpt>
      <trkpt lat="46.40037" lon="4.74377">
        <ele>279.2</ele>
        <time>2022-06-25T11:31:16Z</time>
      </trkpt>
      <trkpt lat="46.4003" lon="4.74376">
        <ele>279</ele>
        <time>2022-06-25T11:31:17Z</time>
      </trkpt>
      <trkpt lat="46.40022" lon="4.74376">
        <ele>279</ele>
        <time>2022-06-25T11:31:18Z</time>
      </trkpt>
      <trkpt lat="46.40014" lon="4.74376">
        <ele>278.4</ele>
        <time>2022-06-25T11:31:19Z</time>
      </trkpt>
      <trkpt lat="46.40006" lon="4.74377">
        <ele>278</ele>
        <time>2022-06-25T11:31:20Z</time>
      </trkpt>
      <trkpt lat="46.39997" lon="4.74379">
        <ele>277.6</ele>
        <time>2022-06-25T11:31:21Z</time>
      </trkpt>
      <trkpt lat="46.39989" lon="4.7438">
        <ele>277.2</ele>
        <time>2022-06-25T11:31:22Z</time>
      </trkpt>
      <trkpt lat="46.3998" lon="4.7438">
        <ele>276.8</ele>
        <time>2022-06-25T11:31:23Z</time>
      </trkpt>
      <trkpt lat="46.39971" lon="4.7438">
        <ele>276.4</ele>
        <time>2022-06-25T11:31:24Z</time>
      </trkpt>
      <trkpt lat="46.39962" lon="4.74379">
        <ele>276</ele>
        <time>2022-06-25T11:31:25Z</time>
      </trkpt>
      <trkpt lat="46.39953" lon="4.74377">
        <ele>275.6</ele>
        <time>2022-06-25T11:31:26Z</time>
      </trkpt>
      <trkpt lat="46.39945" lon="4.74374">
        <ele>275.2</ele>
        <time>2022-06-25T11:31:27Z</time>
      </trkpt>
      <trkpt lat="46.39938" lon="4.74369">
        <ele>275</ele>
        <time>2022-06-25T11:31:28Z</time>
      </trkpt>
      <trkpt lat="46.3993" lon="4.74364">
        <ele>275</ele>
        <time>2022-06-25T11:31:29Z</time>
      </trkpt>
      <trkpt lat="46.39924" lon="4.74359">
        <ele>274.6</ele>
        <time>2022-06-25T11:31:30Z</time>
      </trkpt>
      <trkpt lat="46.39917" lon="4.74353">
        <ele>274.6</ele>
        <time>2022-06-25T11:31:31Z</time>
      </trkpt>
      <trkpt lat="46.39911" lon="4.74348">
        <ele>274.6</ele>
        <time>2022-06-25T11:31:32Z</time>
      </trkpt>
      <trkpt lat="46.39898" lon="4.74339">
        <ele>274.6</ele>
        <time>2022-06-25T11:31:33Z</time>
      </trkpt>
      <trkpt lat="46.39892" lon="4.74334">
        <ele>274.6</ele>
        <time>2022-06-25T11:31:34Z</time>
      </trkpt>
      <trkpt lat="46.39887" lon="4.7433">
        <ele>275</ele>
        <time>2022-06-25T11:31:35Z</time>
      </trkpt>
      <trkpt lat="46.39881" lon="4.74326">
        <ele>275</ele>
        <time>2022-06-25T11:31:36Z</time>
      </trkpt>
      <trkpt lat="46.39876" lon="4.74322">
        <ele>275.4</ele>
        <time>2022-06-25T11:31:37Z</time>
      </trkpt>
      <trkpt lat="46.39872" lon="4.74318">
        <ele>275.6</ele>
        <time>2022-06-25T11:31:38Z</time>
      </trkpt>
      <trkpt lat="46.39867" lon="4.74314">
        <ele>275.8</ele>
        <time>2022-06-25T11:31:39Z</time>
      </trkpt>
      <trkpt lat="46.39863" lon="4.7431">
        <ele>276.2</ele>
        <time>2022-06-25T11:31:40Z</time>
      </trkpt>
      <trkpt lat="46.39858" lon="4.74306">
        <ele>276.4</ele>
        <time>2022-06-25T11:31:41Z</time>
      </trkpt>
      <trkpt lat="46.39854" lon="4.74302">
        <ele>276.8</ele>
        <time>2022-06-25T11:31:42Z</time>
      </trkpt>
      <trkpt lat="46.3985" lon="4.74299">
        <ele>277</ele>
        <time>2022-06-25T11:31:43Z</time>
      </trkpt>
      <trkpt lat="46.39847" lon="4.74295">
        <ele>277.2</ele>
        <time>2022-06-25T11:31:44Z</time>
      </trkpt>
      <trkpt lat="46.39843" lon="4.74292">
        <ele>277.6</ele>
        <time>2022-06-25T11:31:45Z</time>
      </trkpt>
      <trkpt lat="46.3984" lon="4.74289">
        <ele>277.8</ele>
        <time>2022-06-25T11:31:46Z</time>
      </trkpt>
      <trkpt lat="46.39836" lon="4.74285">
        <ele>278</ele>
        <time>2022-06-25T11:31:47Z</time>
      </trkpt>
      <trkpt lat="46.39833" lon="4.74281">
        <ele>278.2</ele>
        <time>2022-06-25T11:31:48Z</time>
      </trkpt>
      <trkpt lat="46.3983" lon="4.74278">
        <ele>278.6</ele>
        <time>2022-06-25T11:31:49Z</time>
      </trkpt>
      <trkpt lat="46.39827" lon="4.74274">
        <ele>278.8</ele>
        <time>2022-06-25T11:31:50Z</time>
      </trkpt>
      <trkpt lat="46.39823" lon="4.74271">
        <ele>279.2</ele>
        <time>2022-06-25T11:31:51Z</time>
      </trkpt>
      <trkpt lat="46.3982" lon="4.74268">
        <ele>279.2</ele>
        <time>2022-06-25T11:31:52Z</time>
      </trkpt>
      <trkpt lat="46.39817" lon="4.74265">
        <ele>279.4</ele>
        <time>2022-06-25T11:31:53Z</time>
      </trkpt>
      <trkpt lat="46.39814" lon="4.74261">
        <ele>279.8</ele>
        <time>2022-06-25T11:31:54Z</time>
      </trkpt>
      <trkpt lat="46.3981" lon="4.74258">
        <ele>280</ele>
        <time>2022-06-25T11:31:55Z</time>
      </trkpt>
      <trkpt lat="46.39807" lon="4.74255">
        <ele>280.4</ele>
        <time>2022-06-25T11:31:56Z</time>
      </trkpt>
      <trkpt lat="46.39804" lon="4.74252">
        <ele>280.4</ele>
        <time>2022-06-25T11:31:57Z</time>
      </trkpt>
      <trkpt lat="46.39801" lon="4.74248">
        <ele>280.8</ele>
        <time>2022-06-25T11:31:58Z</time>
      </trkpt>
      <trkpt lat="46.39797" lon="4.74245">
        <ele>280.8</ele>
        <time>2022-06-25T11:31:59Z</time>
      </trkpt>
      <trkpt lat="46.39794" lon="4.74241">
        <ele>281</ele>
        <time>2022-06-25T11:32:00Z</time>
      </trkpt>
      <trkpt lat="46.39791" lon="4.74238">
        <ele>281</ele>
        <time>2022-06-25T11:32:01Z</time>
      </trkpt>
      <trkpt lat="46.39787" lon="4.74234">
        <ele>281.4</ele>
        <time>2022-06-25T11:32:02Z</time>
      </trkpt>
      <trkpt lat="46.39784" lon="4.74231">
        <ele>281.4</ele>
        <time>2022-06-25T11:32:03Z</time>
      </trkpt>
      <trkpt lat="46.3978" lon="4.74227">
        <ele>281.8</ele>
        <time>2022-06-25T11:32:04Z</time>
      </trkpt>
      <trkpt lat="46.39777" lon="4.74224">
        <ele>281.8</ele>
        <time>2022-06-25T11:32:05Z</time>
      </trkpt>
      <trkpt lat="46.39774" lon="4.7422">
        <ele>282</ele>
        <time>2022-06-25T11:32:06Z</time>
      </trkpt>
      <trkpt lat="46.39771" lon="4.74217">
        <ele>282</ele>
        <time>2022-06-25T11:32:07Z</time>
      </trkpt>
      <trkpt lat="46.39767" lon="4.74215">
        <ele>282.4</ele>
        <time>2022-06-25T11:32:09Z</time>
      </trkpt>
      <trkpt lat="46.39764" lon="4.74212">
        <ele>282.6</ele>
        <time>2022-06-25T11:32:10Z</time>
      </trkpt>
      <trkpt lat="46.3976" lon="4.7421">
        <ele>282.6</ele>
        <time>2022-06-25T11:32:11Z</time>
      </trkpt>
      <trkpt lat="46.39757" lon="4.74207">
        <ele>283</ele>
        <time>2022-06-25T11:32:12Z</time>
      </trkpt>
      <trkpt lat="46.39754" lon="4.74205">
        <ele>283</ele>
        <time>2022-06-25T11:32:13Z</time>
      </trkpt>
      <trkpt lat="46.3975" lon="4.74202">
        <ele>283.2</ele>
        <time>2022-06-25T11:32:14Z</time>
      </trkpt>
      <trkpt lat="46.39747" lon="4.74201">
        <ele>283.2</ele>
        <time>2022-06-25T11:32:15Z</time>
      </trkpt>
      <trkpt lat="46.39744" lon="4.74199">
        <ele>283.6</ele>
        <time>2022-06-25T11:32:16Z</time>
      </trkpt>
      <trkpt lat="46.39741" lon="4.74196">
        <ele>283.6</ele>
        <time>2022-06-25T11:32:17Z</time>
      </trkpt>
      <trkpt lat="46.39738" lon="4.74194">
        <ele>283.6</ele>
        <time>2022-06-25T11:32:18Z</time>
      </trkpt>
      <trkpt lat="46.39735" lon="4.74193">
        <ele>283.8</ele>
        <time>2022-06-25T11:32:19Z</time>
      </trkpt>
      <trkpt lat="46.39732" lon="4.74191">
        <ele>283.8</ele>
        <time>2022-06-25T11:32:20Z</time>
      </trkpt>
      <trkpt lat="46.39729" lon="4.74189">
        <ele>284</ele>
        <time>2022-06-25T11:32:21Z</time>
      </trkpt>
      <trkpt lat="46.39726" lon="4.74186">
        <ele>284</ele>
        <time>2022-06-25T11:32:22Z</time>
      </trkpt>
      <trkpt lat="46.39725" lon="4.74181">
        <ele>284</ele>
        <time>2022-06-25T11:32:23Z</time>
      </trkpt>
      <trkpt lat="46.39723" lon="4.74176">
        <ele>284</ele>
        <time>2022-06-25T11:32:24Z</time>
      </trkpt>
      <trkpt lat="46.39723" lon="4.7417">
        <ele>284</ele>
        <time>2022-06-25T11:32:25Z</time>
      </trkpt>
      <trkpt lat="46.39724" lon="4.74163">
        <ele>283.8</ele>
        <time>2022-06-25T11:32:26Z</time>
      </trkpt>
      <trkpt lat="46.39726" lon="4.74156">
        <ele>283.6</ele>
        <time>2022-06-25T11:32:27Z</time>
      </trkpt>
      <trkpt lat="46.39729" lon="4.74149">
        <ele>283.6</ele>
        <time>2022-06-25T11:32:28Z</time>
      </trkpt>
      <trkpt lat="46.39732" lon="4.74142">
        <ele>283.2</ele>
        <time>2022-06-25T11:32:29Z</time>
      </trkpt>
      <trkpt lat="46.39735" lon="4.74134">
        <ele>282.8</ele>
        <time>2022-06-25T11:32:30Z</time>
      </trkpt>
      <trkpt lat="46.39738" lon="4.74126">
        <ele>282.6</ele>
        <time>2022-06-25T11:32:31Z</time>
      </trkpt>
      <trkpt lat="46.39741" lon="4.74117">
        <ele>282.4</ele>
        <time>2022-06-25T11:32:32Z</time>
      </trkpt>
      <trkpt lat="46.39744" lon="4.74109">
        <ele>282.2</ele>
        <time>2022-06-25T11:32:33Z</time>
      </trkpt>
      <trkpt lat="46.39747" lon="4.74101">
        <ele>282.2</ele>
        <time>2022-06-25T11:32:34Z</time>
      </trkpt>
      <trkpt lat="46.3975" lon="4.74093">
        <ele>282</ele>
        <time>2022-06-25T11:32:35Z</time>
      </trkpt>
      <trkpt lat="46.39752" lon="4.74084">
        <ele>282</ele>
        <time>2022-06-25T11:32:36Z</time>
      </trkpt>
      <trkpt lat="46.39755" lon="4.74076">
        <ele>282</ele>
        <time>2022-06-25T11:32:37Z</time>
      </trkpt>
      <trkpt lat="46.39757" lon="4.74069">
        <ele>282</ele>
        <time>2022-06-25T11:32:38Z</time>
      </trkpt>
      <trkpt lat="46.39759" lon="4.74061">
        <ele>282</ele>
        <time>2022-06-25T11:32:39Z</time>
      </trkpt>
      <trkpt lat="46.39762" lon="4.74054">
        <ele>281.6</ele>
        <time>2022-06-25T11:32:40Z</time>
      </trkpt>
      <trkpt lat="46.39764" lon="4.74046">
        <ele>281.6</ele>
        <time>2022-06-25T11:32:41Z</time>
      </trkpt>
      <trkpt lat="46.39766" lon="4.74039">
        <ele>281.6</ele>
        <time>2022-06-25T11:32:42Z</time>
      </trkpt>
      <trkpt lat="46.39768" lon="4.74032">
        <ele>281.6</ele>
        <time>2022-06-25T11:32:43Z</time>
      </trkpt>
      <trkpt lat="46.3977" lon="4.74024">
        <ele>281.8</ele>
        <time>2022-06-25T11:32:44Z</time>
      </trkpt>
      <trkpt lat="46.39772" lon="4.74017">
        <ele>281.8</ele>
        <time>2022-06-25T11:32:45Z</time>
      </trkpt>
      <trkpt lat="46.39774" lon="4.7401">
        <ele>281.8</ele>
        <time>2022-06-25T11:32:46Z</time>
      </trkpt>
      <trkpt lat="46.39776" lon="4.74003">
        <ele>281.8</ele>
        <time>2022-06-25T11:32:47Z</time>
      </trkpt>
      <trkpt lat="46.39778" lon="4.73997">
        <ele>282.2</ele>
        <time>2022-06-25T11:32:48Z</time>
      </trkpt>
      <trkpt lat="46.3978" lon="4.7399">
        <ele>282.2</ele>
        <time>2022-06-25T11:32:49Z</time>
      </trkpt>
      <trkpt lat="46.39782" lon="4.73983">
        <ele>282.2</ele>
        <time>2022-06-25T11:32:50Z</time>
      </trkpt>
      <trkpt lat="46.39784" lon="4.73977">
        <ele>282.2</ele>
        <time>2022-06-25T11:32:51Z</time>
      </trkpt>
      <trkpt lat="46.39786" lon="4.7397">
        <ele>282.2</ele>
        <time>2022-06-25T11:32:52Z</time>
      </trkpt>
      <trkpt lat="46.39788" lon="4.73964">
        <ele>282.4</ele>
        <time>2022-06-25T11:32:53Z</time>
      </trkpt>
      <trkpt lat="46.3979" lon="4.73958">
        <ele>282.4</ele>
        <time>2022-06-25T11:32:54Z</time>
      </trkpt>
      <trkpt lat="46.39792" lon="4.73951">
        <ele>282.6</ele>
        <time>2022-06-25T11:32:55Z</time>
      </trkpt>
      <trkpt lat="46.39794" lon="4.73945">
        <ele>282.6</ele>
        <time>2022-06-25T11:32:56Z</time>
      </trkpt>
      <trkpt lat="46.39795" lon="4.73939">
        <ele>283</ele>
        <time>2022-06-25T11:32:57Z</time>
      </trkpt>
      <trkpt lat="46.39797" lon="4.73934">
        <ele>283</ele>
        <time>2022-06-25T11:32:58Z</time>
      </trkpt>
      <trkpt lat="46.39799" lon="4.73927">
        <ele>283.2</ele>
        <time>2022-06-25T11:32:59Z</time>
      </trkpt>
      <trkpt lat="46.398" lon="4.73922">
        <ele>283.2</ele>
        <time>2022-06-25T11:33:00Z</time>
      </trkpt>
      <trkpt lat="46.39802" lon="4.73916">
        <ele>283.6</ele>
        <time>2022-06-25T11:33:01Z</time>
      </trkpt>
      <trkpt lat="46.39804" lon="4.73911">
        <ele>283.8</ele>
        <time>2022-06-25T11:33:02Z</time>
      </trkpt>
      <trkpt lat="46.39805" lon="4.73905">
        <ele>283.8</ele>
        <time>2022-06-25T11:33:03Z</time>
      </trkpt>
      <trkpt lat="46.39807" lon="4.73899">
        <ele>284</ele>
        <time>2022-06-25T11:33:04Z</time>
      </trkpt>
      <trkpt lat="46.39808" lon="4.73894">
        <ele>284</ele>
        <time>2022-06-25T11:33:05Z</time>
      </trkpt>
      <trkpt lat="46.3981" lon="4.73888">
        <ele>284.4</ele>
        <time>2022-06-25T11:33:06Z</time>
      </trkpt>
      <trkpt lat="46.39812" lon="4.73883">
        <ele>284.4</ele>
        <time>2022-06-25T11:33:07Z</time>
      </trkpt>
      <trkpt lat="46.39814" lon="4.73875">
        <ele>284.4</ele>
        <time>2022-06-25T11:33:08Z</time>
      </trkpt>
      <trkpt lat="46.39815" lon="4.73872">
        <ele>284.6</ele>
        <time>2022-06-25T11:33:09Z</time>
      </trkpt>
      <trkpt lat="46.39816" lon="4.73867">
        <ele>284.6</ele>
        <time>2022-06-25T11:33:10Z</time>
      </trkpt>
      <trkpt lat="46.39818" lon="4.73862">
        <ele>285</ele>
        <time>2022-06-25T11:33:11Z</time>
      </trkpt>
      <trkpt lat="46.39819" lon="4.73857">
        <ele>285.2</ele>
        <time>2022-06-25T11:33:12Z</time>
      </trkpt>
      <trkpt lat="46.39821" lon="4.73851">
        <ele>285.2</ele>
        <time>2022-06-25T11:33:13Z</time>
      </trkpt>
      <trkpt lat="46.39825" lon="4.73841">
        <ele>285.4</ele>
        <time>2022-06-25T11:33:14Z</time>
      </trkpt>
      <trkpt lat="46.39827" lon="4.73837">
        <ele>285.8</ele>
        <time>2022-06-25T11:33:15Z</time>
      </trkpt>
      <trkpt lat="46.39829" lon="4.73832">
        <ele>285.8</ele>
        <time>2022-06-25T11:33:16Z</time>
      </trkpt>
      <trkpt lat="46.39831" lon="4.73827">
        <ele>286</ele>
        <time>2022-06-25T11:33:17Z</time>
      </trkpt>
      <trkpt lat="46.39833" lon="4.73823">
        <ele>286.2</ele>
        <time>2022-06-25T11:33:18Z</time>
      </trkpt>
      <trkpt lat="46.39835" lon="4.7382">
        <ele>286.4</ele>
        <time>2022-06-25T11:33:19Z</time>
      </trkpt>
      <trkpt lat="46.39837" lon="4.73817">
        <ele>286.4</ele>
        <time>2022-06-25T11:33:20Z</time>
      </trkpt>
      <trkpt lat="46.39839" lon="4.73815">
        <ele>286.8</ele>
        <time>2022-06-25T11:33:21Z</time>
      </trkpt>
      <trkpt lat="46.39842" lon="4.73812">
        <ele>286.8</ele>
        <time>2022-06-25T11:33:22Z</time>
      </trkpt>
      <trkpt lat="46.39844" lon="4.73809">
        <ele>287</ele>
        <time>2022-06-25T11:33:23Z</time>
      </trkpt>
      <trkpt lat="46.39846" lon="4.73806">
        <ele>287</ele>
        <time>2022-06-25T11:33:24Z</time>
      </trkpt>
      <trkpt lat="46.39849" lon="4.73804">
        <ele>287.4</ele>
        <time>2022-06-25T11:33:25Z</time>
      </trkpt>
      <trkpt lat="46.39852" lon="4.73801">
        <ele>287.4</ele>
        <time>2022-06-25T11:33:26Z</time>
      </trkpt>
      <trkpt lat="46.39855" lon="4.73798">
        <ele>287.4</ele>
        <time>2022-06-25T11:33:27Z</time>
      </trkpt>
      <trkpt lat="46.39858" lon="4.73795">
        <ele>287.6</ele>
        <time>2022-06-25T11:33:28Z</time>
      </trkpt>
      <trkpt lat="46.39861" lon="4.73791">
        <ele>287.6</ele>
        <time>2022-06-25T11:33:29Z</time>
      </trkpt>
      <trkpt lat="46.39864" lon="4.73786">
        <ele>287.6</ele>
        <time>2022-06-25T11:33:30Z</time>
      </trkpt>
      <trkpt lat="46.39866" lon="4.73781">
        <ele>287.8</ele>
        <time>2022-06-25T11:33:31Z</time>
      </trkpt>
      <trkpt lat="46.39868" lon="4.73776">
        <ele>287.8</ele>
        <time>2022-06-25T11:33:32Z</time>
      </trkpt>
      <trkpt lat="46.39871" lon="4.73771">
        <ele>288.2</ele>
        <time>2022-06-25T11:33:33Z</time>
      </trkpt>
      <trkpt lat="46.39874" lon="4.73767">
        <ele>288.2</ele>
        <time>2022-06-25T11:33:34Z</time>
      </trkpt>
      <trkpt lat="46.39876" lon="4.73762">
        <ele>288.4</ele>
        <time>2022-06-25T11:33:35Z</time>
      </trkpt>
      <trkpt lat="46.39879" lon="4.73758">
        <ele>288.4</ele>
        <time>2022-06-25T11:33:36Z</time>
      </trkpt>
      <trkpt lat="46.39882" lon="4.73753">
        <ele>288.6</ele>
        <time>2022-06-25T11:33:37Z</time>
      </trkpt>
      <trkpt lat="46.39885" lon="4.73748">
        <ele>288.6</ele>
        <time>2022-06-25T11:33:38Z</time>
      </trkpt>
      <trkpt lat="46.39888" lon="4.73743">
        <ele>289</ele>
        <time>2022-06-25T11:33:39Z</time>
      </trkpt>
      <trkpt lat="46.39891" lon="4.73739">
        <ele>289</ele>
        <time>2022-06-25T11:33:40Z</time>
      </trkpt>
      <trkpt lat="46.39894" lon="4.73735">
        <ele>289.2</ele>
        <time>2022-06-25T11:33:42Z</time>
      </trkpt>
      <trkpt lat="46.39897" lon="4.7373">
        <ele>289.2</ele>
        <time>2022-06-25T11:33:43Z</time>
      </trkpt>
      <trkpt lat="46.399" lon="4.73726">
        <ele>289.2</ele>
        <time>2022-06-25T11:33:44Z</time>
      </trkpt>
      <trkpt lat="46.39903" lon="4.73722">
        <ele>289.4</ele>
        <time>2022-06-25T11:33:45Z</time>
      </trkpt>
      <trkpt lat="46.39907" lon="4.73718">
        <ele>289.4</ele>
        <time>2022-06-25T11:33:46Z</time>
      </trkpt>
      <trkpt lat="46.3991" lon="4.73714">
        <ele>289.4</ele>
        <time>2022-06-25T11:33:47Z</time>
      </trkpt>
      <trkpt lat="46.39914" lon="4.73711">
        <ele>289.4</ele>
        <time>2022-06-25T11:33:48Z</time>
      </trkpt>
      <trkpt lat="46.39918" lon="4.73708">
        <ele>289.8</ele>
        <time>2022-06-25T11:33:49Z</time>
      </trkpt>
      <trkpt lat="46.39922" lon="4.73704">
        <ele>289.8</ele>
        <time>2022-06-25T11:33:50Z</time>
      </trkpt>
      <trkpt lat="46.39926" lon="4.73701">
        <ele>289.8</ele>
        <time>2022-06-25T11:33:51Z</time>
      </trkpt>
      <trkpt lat="46.3993" lon="4.73697">
        <ele>290</ele>
        <time>2022-06-25T11:33:52Z</time>
      </trkpt>
      <trkpt lat="46.39933" lon="4.73693">
        <ele>290</ele>
        <time>2022-06-25T11:33:53Z</time>
      </trkpt>
      <trkpt lat="46.39938" lon="4.7369">
        <ele>290</ele>
        <time>2022-06-25T11:33:54Z</time>
      </trkpt>
      <trkpt lat="46.39942" lon="4.73686">
        <ele>290</ele>
        <time>2022-06-25T11:33:55Z</time>
      </trkpt>
      <trkpt lat="46.39946" lon="4.73682">
        <ele>290</ele>
        <time>2022-06-25T11:33:56Z</time>
      </trkpt>
      <trkpt lat="46.3995" lon="4.73678">
        <ele>290</ele>
        <time>2022-06-25T11:33:57Z</time>
      </trkpt>
      <trkpt lat="46.39955" lon="4.73675">
        <ele>290</ele>
        <time>2022-06-25T11:33:58Z</time>
      </trkpt>
      <trkpt lat="46.39959" lon="4.73671">
        <ele>290.2</ele>
        <time>2022-06-25T11:33:59Z</time>
      </trkpt>
      <trkpt lat="46.39963" lon="4.73667">
        <ele>290.2</ele>
        <time>2022-06-25T11:34:00Z</time>
      </trkpt>
      <trkpt lat="46.39968" lon="4.73663">
        <ele>290.2</ele>
        <time>2022-06-25T11:34:01Z</time>
      </trkpt>
      <trkpt lat="46.39972" lon="4.73659">
        <ele>290.2</ele>
        <time>2022-06-25T11:34:02Z</time>
      </trkpt>
      <trkpt lat="46.39977" lon="4.73655">
        <ele>290.2</ele>
        <time>2022-06-25T11:34:03Z</time>
      </trkpt>
      <trkpt lat="46.39982" lon="4.73651">
        <ele>290.2</ele>
        <time>2022-06-25T11:34:04Z</time>
      </trkpt>
      <trkpt lat="46.39987" lon="4.73647">
        <ele>290</ele>
        <time>2022-06-25T11:34:05Z</time>
      </trkpt>
      <trkpt lat="46.39992" lon="4.73643">
        <ele>290</ele>
        <time>2022-06-25T11:34:06Z</time>
      </trkpt>
      <trkpt lat="46.39996" lon="4.73638">
        <ele>290</ele>
        <time>2022-06-25T11:34:07Z</time>
      </trkpt>
      <trkpt lat="46.40001" lon="4.73634">
        <ele>290</ele>
        <time>2022-06-25T11:34:08Z</time>
      </trkpt>
      <trkpt lat="46.40006" lon="4.7363">
        <ele>290</ele>
        <time>2022-06-25T11:34:09Z</time>
      </trkpt>
      <trkpt lat="46.40011" lon="4.73627">
        <ele>290</ele>
        <time>2022-06-25T11:34:10Z</time>
      </trkpt>
      <trkpt lat="46.40016" lon="4.73623">
        <ele>290</ele>
        <time>2022-06-25T11:34:11Z</time>
      </trkpt>
      <trkpt lat="46.40021" lon="4.73619">
        <ele>290</ele>
        <time>2022-06-25T11:34:12Z</time>
      </trkpt>
      <trkpt lat="46.40026" lon="4.73615">
        <ele>290</ele>
        <time>2022-06-25T11:34:13Z</time>
      </trkpt>
      <trkpt lat="46.40031" lon="4.73611">
        <ele>290</ele>
        <time>2022-06-25T11:34:14Z</time>
      </trkpt>
      <trkpt lat="46.40035" lon="4.73607">
        <ele>290.2</ele>
        <time>2022-06-25T11:34:15Z</time>
      </trkpt>
      <trkpt lat="46.4004" lon="4.73603">
        <ele>290.2</ele>
        <time>2022-06-25T11:34:16Z</time>
      </trkpt>
      <trkpt lat="46.40044" lon="4.73599">
        <ele>290.4</ele>
        <time>2022-06-25T11:34:17Z</time>
      </trkpt>
      <trkpt lat="46.40049" lon="4.73596">
        <ele>290.4</ele>
        <time>2022-06-25T11:34:18Z</time>
      </trkpt>
      <trkpt lat="46.40054" lon="4.73592">
        <ele>290.4</ele>
        <time>2022-06-25T11:34:19Z</time>
      </trkpt>
      <trkpt lat="46.40058" lon="4.73589">
        <ele>290.4</ele>
        <time>2022-06-25T11:34:20Z</time>
      </trkpt>
      <trkpt lat="46.40063" lon="4.73585">
        <ele>290.4</ele>
        <time>2022-06-25T11:34:21Z</time>
      </trkpt>
      <trkpt lat="46.40068" lon="4.73582">
        <ele>290.4</ele>
        <time>2022-06-25T11:34:22Z</time>
      </trkpt>
      <trkpt lat="46.40073" lon="4.73579">
        <ele>290.4</ele>
        <time>2022-06-25T11:34:23Z</time>
      </trkpt>
      <trkpt lat="46.40078" lon="4.73576">
        <ele>290.8</ele>
        <time>2022-06-25T11:34:24Z</time>
      </trkpt>
      <trkpt lat="46.40083" lon="4.73573">
        <ele>290.8</ele>
        <time>2022-06-25T11:34:25Z</time>
      </trkpt>
      <trkpt lat="46.40088" lon="4.73571">
        <ele>290.8</ele>
        <time>2022-06-25T11:34:26Z</time>
      </trkpt>
      <trkpt lat="46.40093" lon="4.73569">
        <ele>290.8</ele>
        <time>2022-06-25T11:34:27Z</time>
      </trkpt>
      <trkpt lat="46.40098" lon="4.73568">
        <ele>290.8</ele>
        <time>2022-06-25T11:34:28Z</time>
      </trkpt>
      <trkpt lat="46.40103" lon="4.73566">
        <ele>290.8</ele>
        <time>2022-06-25T11:34:29Z</time>
      </trkpt>
      <trkpt lat="46.40108" lon="4.73565">
        <ele>290.8</ele>
        <time>2022-06-25T11:34:30Z</time>
      </trkpt>
      <trkpt lat="46.40114" lon="4.73564">
        <ele>290.8</ele>
        <time>2022-06-25T11:34:31Z</time>
      </trkpt>
      <trkpt lat="46.40119" lon="4.73563">
        <ele>290.8</ele>
        <time>2022-06-25T11:34:32Z</time>
      </trkpt>
      <trkpt lat="46.40124" lon="4.73561">
        <ele>290.8</ele>
        <time>2022-06-25T11:34:33Z</time>
      </trkpt>
      <trkpt lat="46.40129" lon="4.7356">
        <ele>291.2</ele>
        <time>2022-06-25T11:34:34Z</time>
      </trkpt>
      <trkpt lat="46.40134" lon="4.73559">
        <ele>291.2</ele>
        <time>2022-06-25T11:34:35Z</time>
      </trkpt>
      <trkpt lat="46.40139" lon="4.73558">
        <ele>291.2</ele>
        <time>2022-06-25T11:34:36Z</time>
      </trkpt>
      <trkpt lat="46.40145" lon="4.73556">
        <ele>291.2</ele>
        <time>2022-06-25T11:34:37Z</time>
      </trkpt>
      <trkpt lat="46.4015" lon="4.73555">
        <ele>291.2</ele>
        <time>2022-06-25T11:34:38Z</time>
      </trkpt>
      <trkpt lat="46.40155" lon="4.73553">
        <ele>291.2</ele>
        <time>2022-06-25T11:34:39Z</time>
      </trkpt>
      <trkpt lat="46.4016" lon="4.7355">
        <ele>291.2</ele>
        <time>2022-06-25T11:34:40Z</time>
      </trkpt>
      <trkpt lat="46.40165" lon="4.73546">
        <ele>291.2</ele>
        <time>2022-06-25T11:34:41Z</time>
      </trkpt>
      <trkpt lat="46.40171" lon="4.73542">
        <ele>291.2</ele>
        <time>2022-06-25T11:34:42Z</time>
      </trkpt>
      <trkpt lat="46.40176" lon="4.73537">
        <ele>291.2</ele>
        <time>2022-06-25T11:34:43Z</time>
      </trkpt>
      <trkpt lat="46.4018" lon="4.73531">
        <ele>290.8</ele>
        <time>2022-06-25T11:34:44Z</time>
      </trkpt>
      <trkpt lat="46.40185" lon="4.73525">
        <ele>290.8</ele>
        <time>2022-06-25T11:34:45Z</time>
      </trkpt>
      <trkpt lat="46.40189" lon="4.73518">
        <ele>290.8</ele>
        <time>2022-06-25T11:34:46Z</time>
      </trkpt>
      <trkpt lat="46.40193" lon="4.73511">
        <ele>290.8</ele>
        <time>2022-06-25T11:34:47Z</time>
      </trkpt>
      <trkpt lat="46.40198" lon="4.73504">
        <ele>290.6</ele>
        <time>2022-06-25T11:34:48Z</time>
      </trkpt>
      <trkpt lat="46.40202" lon="4.73497">
        <ele>290.6</ele>
        <time>2022-06-25T11:34:49Z</time>
      </trkpt>
      <trkpt lat="46.40206" lon="4.73489">
        <ele>290.6</ele>
        <time>2022-06-25T11:34:50Z</time>
      </trkpt>
      <trkpt lat="46.4021" lon="4.73482">
        <ele>290.2</ele>
        <time>2022-06-25T11:34:51Z</time>
      </trkpt>
      <trkpt lat="46.40215" lon="4.73474">
        <ele>290.2</ele>
        <time>2022-06-25T11:34:52Z</time>
      </trkpt>
      <trkpt lat="46.40219" lon="4.73465">
        <ele>290</ele>
        <time>2022-06-25T11:34:53Z</time>
      </trkpt>
      <trkpt lat="46.40223" lon="4.73457">
        <ele>290</ele>
        <time>2022-06-25T11:34:54Z</time>
      </trkpt>
      <trkpt lat="46.40227" lon="4.73448">
        <ele>289.8</ele>
        <time>2022-06-25T11:34:55Z</time>
      </trkpt>
      <trkpt lat="46.4023" lon="4.73438">
        <ele>289.8</ele>
        <time>2022-06-25T11:34:56Z</time>
      </trkpt>
      <trkpt lat="46.40233" lon="4.73429">
        <ele>289.8</ele>
        <time>2022-06-25T11:34:57Z</time>
      </trkpt>
      <trkpt lat="46.40236" lon="4.7342">
        <ele>289.8</ele>
        <time>2022-06-25T11:34:58Z</time>
      </trkpt>
      <trkpt lat="46.40239" lon="4.73411">
        <ele>289.8</ele>
        <time>2022-06-25T11:34:59Z</time>
      </trkpt>
      <trkpt lat="46.40242" lon="4.73402">
        <ele>289.8</ele>
        <time>2022-06-25T11:35:00Z</time>
      </trkpt>
      <trkpt lat="46.40245" lon="4.73394">
        <ele>289.8</ele>
        <time>2022-06-25T11:35:01Z</time>
      </trkpt>
      <trkpt lat="46.40248" lon="4.73386">
        <ele>289.8</ele>
        <time>2022-06-25T11:35:02Z</time>
      </trkpt>
      <trkpt lat="46.4025" lon="4.73378">
        <ele>290.2</ele>
        <time>2022-06-25T11:35:03Z</time>
      </trkpt>
      <trkpt lat="46.40252" lon="4.7337">
        <ele>290.2</ele>
        <time>2022-06-25T11:35:04Z</time>
      </trkpt>
      <trkpt lat="46.40254" lon="4.73363">
        <ele>290.4</ele>
        <time>2022-06-25T11:35:05Z</time>
      </trkpt>
      <trkpt lat="46.40255" lon="4.73355">
        <ele>290.4</ele>
        <time>2022-06-25T11:35:06Z</time>
      </trkpt>
      <trkpt lat="46.40257" lon="4.73348">
        <ele>290.8</ele>
        <time>2022-06-25T11:35:07Z</time>
      </trkpt>
      <trkpt lat="46.40258" lon="4.7334">
        <ele>290.8</ele>
        <time>2022-06-25T11:35:08Z</time>
      </trkpt>
      <trkpt lat="46.40259" lon="4.73333">
        <ele>291</ele>
        <time>2022-06-25T11:35:09Z</time>
      </trkpt>
      <trkpt lat="46.4026" lon="4.73326">
        <ele>291</ele>
        <time>2022-06-25T11:35:10Z</time>
      </trkpt>
      <trkpt lat="46.40261" lon="4.73319">
        <ele>291.4</ele>
        <time>2022-06-25T11:35:11Z</time>
      </trkpt>
      <trkpt lat="46.40262" lon="4.73312">
        <ele>291.4</ele>
        <time>2022-06-25T11:35:12Z</time>
      </trkpt>
      <trkpt lat="46.40263" lon="4.73304">
        <ele>291.6</ele>
        <time>2022-06-25T11:35:13Z</time>
      </trkpt>
      <trkpt lat="46.40264" lon="4.73297">
        <ele>291.6</ele>
        <time>2022-06-25T11:35:14Z</time>
      </trkpt>
      <trkpt lat="46.40265" lon="4.7329">
        <ele>292</ele>
        <time>2022-06-25T11:35:15Z</time>
      </trkpt>
      <trkpt lat="46.40265" lon="4.73283">
        <ele>292</ele>
        <time>2022-06-25T11:35:16Z</time>
      </trkpt>
      <trkpt lat="46.40266" lon="4.73276">
        <ele>292.2</ele>
        <time>2022-06-25T11:35:17Z</time>
      </trkpt>
      <trkpt lat="46.40267" lon="4.73269">
        <ele>292.2</ele>
        <time>2022-06-25T11:35:18Z</time>
      </trkpt>
      <trkpt lat="46.40268" lon="4.73263">
        <ele>292.6</ele>
        <time>2022-06-25T11:35:19Z</time>
      </trkpt>
      <trkpt lat="46.40269" lon="4.73256">
        <ele>292.6</ele>
        <time>2022-06-25T11:35:20Z</time>
      </trkpt>
      <trkpt lat="46.40269" lon="4.73249">
        <ele>292.8</ele>
        <time>2022-06-25T11:35:21Z</time>
      </trkpt>
      <trkpt lat="46.4027" lon="4.73242">
        <ele>292.8</ele>
        <time>2022-06-25T11:35:22Z</time>
      </trkpt>
      <trkpt lat="46.4027" lon="4.73235">
        <ele>293.2</ele>
        <time>2022-06-25T11:35:23Z</time>
      </trkpt>
      <trkpt lat="46.40271" lon="4.73228">
        <ele>293.2</ele>
        <time>2022-06-25T11:35:24Z</time>
      </trkpt>
      <trkpt lat="46.40272" lon="4.73222">
        <ele>293.4</ele>
        <time>2022-06-25T11:35:25Z</time>
      </trkpt>
      <trkpt lat="46.40272" lon="4.73215">
        <ele>293.4</ele>
        <time>2022-06-25T11:35:26Z</time>
      </trkpt>
      <trkpt lat="46.40272" lon="4.73208">
        <ele>293.8</ele>
        <time>2022-06-25T11:35:27Z</time>
      </trkpt>
      <trkpt lat="46.40273" lon="4.73202">
        <ele>293.8</ele>
        <time>2022-06-25T11:35:28Z</time>
      </trkpt>
      <trkpt lat="46.40273" lon="4.73195">
        <ele>294</ele>
        <time>2022-06-25T11:35:29Z</time>
      </trkpt>
      <trkpt lat="46.40273" lon="4.73188">
        <ele>294</ele>
        <time>2022-06-25T11:35:30Z</time>
      </trkpt>
      <trkpt lat="46.40274" lon="4.73182">
        <ele>294.4</ele>
        <time>2022-06-25T11:35:31Z</time>
      </trkpt>
      <trkpt lat="46.40274" lon="4.73175">
        <ele>294.4</ele>
        <time>2022-06-25T11:35:32Z</time>
      </trkpt>
      <trkpt lat="46.40274" lon="4.73169">
        <ele>294.6</ele>
        <time>2022-06-25T11:35:33Z</time>
      </trkpt>
      <trkpt lat="46.40275" lon="4.73163">
        <ele>294.6</ele>
        <time>2022-06-25T11:35:34Z</time>
      </trkpt>
      <trkpt lat="46.40275" lon="4.73157">
        <ele>295</ele>
        <time>2022-06-25T11:35:35Z</time>
      </trkpt>
      <trkpt lat="46.40275" lon="4.73151">
        <ele>295</ele>
        <time>2022-06-25T11:35:36Z</time>
      </trkpt>
      <trkpt lat="46.40276" lon="4.73145">
        <ele>295.4</ele>
        <time>2022-06-25T11:35:37Z</time>
      </trkpt>
      <trkpt lat="46.40277" lon="4.73139">
        <ele>295.4</ele>
        <time>2022-06-25T11:35:38Z</time>
      </trkpt>
      <trkpt lat="46.40277" lon="4.73133">
        <ele>295.8</ele>
        <time>2022-06-25T11:35:39Z</time>
      </trkpt>
      <trkpt lat="46.40277" lon="4.73127">
        <ele>295.8</ele>
        <time>2022-06-25T11:35:40Z</time>
      </trkpt>
      <trkpt lat="46.40278" lon="4.73121">
        <ele>296</ele>
        <time>2022-06-25T11:35:41Z</time>
      </trkpt>
      <trkpt lat="46.40278" lon="4.73115">
        <ele>296</ele>
        <time>2022-06-25T11:35:42Z</time>
      </trkpt>
      <trkpt lat="46.40279" lon="4.7311">
        <ele>296.2</ele>
        <time>2022-06-25T11:35:43Z</time>
      </trkpt>
      <trkpt lat="46.4028" lon="4.73104">
        <ele>296.2</ele>
        <time>2022-06-25T11:35:44Z</time>
      </trkpt>
      <trkpt lat="46.4028" lon="4.73099">
        <ele>296.6</ele>
        <time>2022-06-25T11:35:45Z</time>
      </trkpt>
      <trkpt lat="46.40281" lon="4.73093">
        <ele>296.6</ele>
        <time>2022-06-25T11:35:46Z</time>
      </trkpt>
      <trkpt lat="46.40282" lon="4.73088">
        <ele>296.8</ele>
        <time>2022-06-25T11:35:47Z</time>
      </trkpt>
      <trkpt lat="46.40283" lon="4.73082">
        <ele>296.8</ele>
        <time>2022-06-25T11:35:48Z</time>
      </trkpt>
      <trkpt lat="46.40284" lon="4.73076">
        <ele>297.2</ele>
        <time>2022-06-25T11:35:49Z</time>
      </trkpt>
      <trkpt lat="46.40285" lon="4.73071">
        <ele>297.2</ele>
        <time>2022-06-25T11:35:50Z</time>
      </trkpt>
      <trkpt lat="46.40286" lon="4.73065">
        <ele>297.4</ele>
        <time>2022-06-25T11:35:51Z</time>
      </trkpt>
      <trkpt lat="46.40288" lon="4.7306">
        <ele>297.4</ele>
        <time>2022-06-25T11:35:52Z</time>
      </trkpt>
      <trkpt lat="46.4029" lon="4.73054">
        <ele>297.4</ele>
        <time>2022-06-25T11:35:53Z</time>
      </trkpt>
      <trkpt lat="46.40292" lon="4.73049">
        <ele>297.4</ele>
        <time>2022-06-25T11:35:54Z</time>
      </trkpt>
      <trkpt lat="46.40294" lon="4.73043">
        <ele>297.6</ele>
        <time>2022-06-25T11:35:55Z</time>
      </trkpt>
      <trkpt lat="46.40296" lon="4.73038">
        <ele>297.6</ele>
        <time>2022-06-25T11:35:56Z</time>
      </trkpt>
      <trkpt lat="46.40299" lon="4.73033">
        <ele>297.6</ele>
        <time>2022-06-25T11:35:57Z</time>
      </trkpt>
      <trkpt lat="46.40302" lon="4.73028">
        <ele>297.6</ele>
        <time>2022-06-25T11:35:58Z</time>
      </trkpt>
      <trkpt lat="46.40305" lon="4.73023">
        <ele>297.6</ele>
        <time>2022-06-25T11:35:59Z</time>
      </trkpt>
      <trkpt lat="46.40309" lon="4.73018">
        <ele>297.6</ele>
        <time>2022-06-25T11:36:00Z</time>
      </trkpt>
      <trkpt lat="46.40313" lon="4.73014">
        <ele>297.6</ele>
        <time>2022-06-25T11:36:01Z</time>
      </trkpt>
      <trkpt lat="46.40317" lon="4.7301">
        <ele>297.6</ele>
        <time>2022-06-25T11:36:02Z</time>
      </trkpt>
      <trkpt lat="46.40321" lon="4.73005">
        <ele>297.6</ele>
        <time>2022-06-25T11:36:03Z</time>
      </trkpt>
      <trkpt lat="46.40325" lon="4.73">
        <ele>297.6</ele>
        <time>2022-06-25T11:36:04Z</time>
      </trkpt>
      <trkpt lat="46.40329" lon="4.72996">
        <ele>297.6</ele>
        <time>2022-06-25T11:36:05Z</time>
      </trkpt>
      <trkpt lat="46.40333" lon="4.72991">
        <ele>297.6</ele>
        <time>2022-06-25T11:36:06Z</time>
      </trkpt>
      <trkpt lat="46.40338" lon="4.72987">
        <ele>297.8</ele>
        <time>2022-06-25T11:36:07Z</time>
      </trkpt>
      <trkpt lat="46.40342" lon="4.72982">
        <ele>297.8</ele>
        <time>2022-06-25T11:36:08Z</time>
      </trkpt>
      <trkpt lat="46.40346" lon="4.72977">
        <ele>297.8</ele>
        <time>2022-06-25T11:36:09Z</time>
      </trkpt>
      <trkpt lat="46.4035" lon="4.72972">
        <ele>297.8</ele>
        <time>2022-06-25T11:36:10Z</time>
      </trkpt>
      <trkpt lat="46.40354" lon="4.72967">
        <ele>297.8</ele>
        <time>2022-06-25T11:36:11Z</time>
      </trkpt>
      <trkpt lat="46.40358" lon="4.72961">
        <ele>297.8</ele>
        <time>2022-06-25T11:36:12Z</time>
      </trkpt>
      <trkpt lat="46.40361" lon="4.72956">
        <ele>298</ele>
        <time>2022-06-25T11:36:13Z</time>
      </trkpt>
      <trkpt lat="46.40364" lon="4.72951">
        <ele>298</ele>
        <time>2022-06-25T11:36:14Z</time>
      </trkpt>
      <trkpt lat="46.40367" lon="4.72945">
        <ele>298</ele>
        <time>2022-06-25T11:36:15Z</time>
      </trkpt>
      <trkpt lat="46.4037" lon="4.72939">
        <ele>298.2</ele>
        <time>2022-06-25T11:36:16Z</time>
      </trkpt>
      <trkpt lat="46.40373" lon="4.72933">
        <ele>298.2</ele>
        <time>2022-06-25T11:36:17Z</time>
      </trkpt>
      <trkpt lat="46.40376" lon="4.72928">
        <ele>298.2</ele>
        <time>2022-06-25T11:36:18Z</time>
      </trkpt>
      <trkpt lat="46.40379" lon="4.72922">
        <ele>298.2</ele>
        <time>2022-06-25T11:36:19Z</time>
      </trkpt>
      <trkpt lat="46.40382" lon="4.72916">
        <ele>298.6</ele>
        <time>2022-06-25T11:36:20Z</time>
      </trkpt>
      <trkpt lat="46.40384" lon="4.72909">
        <ele>298.6</ele>
        <time>2022-06-25T11:36:21Z</time>
      </trkpt>
      <trkpt lat="46.40386" lon="4.72903">
        <ele>298.8</ele>
        <time>2022-06-25T11:36:22Z</time>
      </trkpt>
      <trkpt lat="46.40389" lon="4.72897">
        <ele>298.8</ele>
        <time>2022-06-25T11:36:23Z</time>
      </trkpt>
      <trkpt lat="46.40391" lon="4.72891">
        <ele>299</ele>
        <time>2022-06-25T11:36:24Z</time>
      </trkpt>
      <trkpt lat="46.40392" lon="4.72885">
        <ele>299</ele>
        <time>2022-06-25T11:36:25Z</time>
      </trkpt>
      <trkpt lat="46.40394" lon="4.72879">
        <ele>299.4</ele>
        <time>2022-06-25T11:36:26Z</time>
      </trkpt>
      <trkpt lat="46.40396" lon="4.72874">
        <ele>299.4</ele>
        <time>2022-06-25T11:36:27Z</time>
      </trkpt>
      <trkpt lat="46.40397" lon="4.72869">
        <ele>299.6</ele>
        <time>2022-06-25T11:36:28Z</time>
      </trkpt>
      <trkpt lat="46.40399" lon="4.72864">
        <ele>299.6</ele>
        <time>2022-06-25T11:36:29Z</time>
      </trkpt>
      <trkpt lat="46.40401" lon="4.72859">
        <ele>299.6</ele>
        <time>2022-06-25T11:36:30Z</time>
      </trkpt>
      <trkpt lat="46.40402" lon="4.72854">
        <ele>299.6</ele>
        <time>2022-06-25T11:36:31Z</time>
      </trkpt>
      <trkpt lat="46.40404" lon="4.72849">
        <ele>299.8</ele>
        <time>2022-06-25T11:36:32Z</time>
      </trkpt>
      <trkpt lat="46.40406" lon="4.72844">
        <ele>299.8</ele>
        <time>2022-06-25T11:36:33Z</time>
      </trkpt>
      <trkpt lat="46.40407" lon="4.72839">
        <ele>299.8</ele>
        <time>2022-06-25T11:36:34Z</time>
      </trkpt>
      <trkpt lat="46.40409" lon="4.72835">
        <ele>299.8</ele>
        <time>2022-06-25T11:36:35Z</time>
      </trkpt>
      <trkpt lat="46.40411" lon="4.72829">
        <ele>300.2</ele>
        <time>2022-06-25T11:36:36Z</time>
      </trkpt>
      <trkpt lat="46.40413" lon="4.72824">
        <ele>300.2</ele>
        <time>2022-06-25T11:36:37Z</time>
      </trkpt>
      <trkpt lat="46.40415" lon="4.72819">
        <ele>300.4</ele>
        <time>2022-06-25T11:36:38Z</time>
      </trkpt>
      <trkpt lat="46.40417" lon="4.72813">
        <ele>300.4</ele>
        <time>2022-06-25T11:36:39Z</time>
      </trkpt>
      <trkpt lat="46.40418" lon="4.72808">
        <ele>300.4</ele>
        <time>2022-06-25T11:36:40Z</time>
      </trkpt>
      <trkpt lat="46.4042" lon="4.72801">
        <ele>300.6</ele>
        <time>2022-06-25T11:36:41Z</time>
      </trkpt>
      <trkpt lat="46.40421" lon="4.72795">
        <ele>300.6</ele>
        <time>2022-06-25T11:36:42Z</time>
      </trkpt>
      <trkpt lat="46.40423" lon="4.72789">
        <ele>300.6</ele>
        <time>2022-06-25T11:36:43Z</time>
      </trkpt>
      <trkpt lat="46.40424" lon="4.72783">
        <ele>300.8</ele>
        <time>2022-06-25T11:36:44Z</time>
      </trkpt>
      <trkpt lat="46.40426" lon="4.72778">
        <ele>300.8</ele>
        <time>2022-06-25T11:36:45Z</time>
      </trkpt>
      <trkpt lat="46.40427" lon="4.72772">
        <ele>300.8</ele>
        <time>2022-06-25T11:36:46Z</time>
      </trkpt>
      <trkpt lat="46.40429" lon="4.72767">
        <ele>300.8</ele>
        <time>2022-06-25T11:36:47Z</time>
      </trkpt>
      <trkpt lat="46.4043" lon="4.72762">
        <ele>301.2</ele>
        <time>2022-06-25T11:36:48Z</time>
      </trkpt>
      <trkpt lat="46.40431" lon="4.72757">
        <ele>301.2</ele>
        <time>2022-06-25T11:36:49Z</time>
      </trkpt>
      <trkpt lat="46.40432" lon="4.72752">
        <ele>301.2</ele>
        <time>2022-06-25T11:36:50Z</time>
      </trkpt>
      <trkpt lat="46.40434" lon="4.72746">
        <ele>301.2</ele>
        <time>2022-06-25T11:36:51Z</time>
      </trkpt>
      <trkpt lat="46.40436" lon="4.72741">
        <ele>301.2</ele>
        <time>2022-06-25T11:36:52Z</time>
      </trkpt>
      <trkpt lat="46.40438" lon="4.72736">
        <ele>301.2</ele>
        <time>2022-06-25T11:36:53Z</time>
      </trkpt>
      <trkpt lat="46.4044" lon="4.72731">
        <ele>301.2</ele>
        <time>2022-06-25T11:36:54Z</time>
      </trkpt>
      <trkpt lat="46.40442" lon="4.72726">
        <ele>301.2</ele>
        <time>2022-06-25T11:36:55Z</time>
      </trkpt>
      <trkpt lat="46.40444" lon="4.7272">
        <ele>301.4</ele>
        <time>2022-06-25T11:36:56Z</time>
      </trkpt>
      <trkpt lat="46.40446" lon="4.72715">
        <ele>301.4</ele>
        <time>2022-06-25T11:36:57Z</time>
      </trkpt>
      <trkpt lat="46.40448" lon="4.7271">
        <ele>301.4</ele>
        <time>2022-06-25T11:36:58Z</time>
      </trkpt>
      <trkpt lat="46.4045" lon="4.72705">
        <ele>301.4</ele>
        <time>2022-06-25T11:36:59Z</time>
      </trkpt>
      <trkpt lat="46.40453" lon="4.727">
        <ele>301.6</ele>
        <time>2022-06-25T11:37:00Z</time>
      </trkpt>
      <trkpt lat="46.40455" lon="4.72695">
        <ele>301.6</ele>
        <time>2022-06-25T11:37:01Z</time>
      </trkpt>
      <trkpt lat="46.40458" lon="4.7269">
        <ele>301.6</ele>
        <time>2022-06-25T11:37:02Z</time>
      </trkpt>
      <trkpt lat="46.4046" lon="4.72685">
        <ele>301.6</ele>
        <time>2022-06-25T11:37:03Z</time>
      </trkpt>
      <trkpt lat="46.40463" lon="4.7268">
        <ele>302</ele>
        <time>2022-06-25T11:37:04Z</time>
      </trkpt>
      <trkpt lat="46.40466" lon="4.72675">
        <ele>302</ele>
        <time>2022-06-25T11:37:05Z</time>
      </trkpt>
      <trkpt lat="46.40468" lon="4.7267">
        <ele>302</ele>
        <time>2022-06-25T11:37:06Z</time>
      </trkpt>
      <trkpt lat="46.40471" lon="4.72666">
        <ele>302.2</ele>
        <time>2022-06-25T11:37:07Z</time>
      </trkpt>
      <trkpt lat="46.40474" lon="4.72661">
        <ele>302.2</ele>
        <time>2022-06-25T11:37:08Z</time>
      </trkpt>
      <trkpt lat="46.40477" lon="4.72656">
        <ele>302.6</ele>
        <time>2022-06-25T11:37:09Z</time>
      </trkpt>
      <trkpt lat="46.40479" lon="4.72652">
        <ele>302.6</ele>
        <time>2022-06-25T11:37:10Z</time>
      </trkpt>
      <trkpt lat="46.40482" lon="4.72647">
        <ele>302.8</ele>
        <time>2022-06-25T11:37:11Z</time>
      </trkpt>
      <trkpt lat="46.40484" lon="4.72643">
        <ele>302.8</ele>
        <time>2022-06-25T11:37:12Z</time>
      </trkpt>
      <trkpt lat="46.40487" lon="4.72638">
        <ele>303</ele>
        <time>2022-06-25T11:37:13Z</time>
      </trkpt>
      <trkpt lat="46.40489" lon="4.72634">
        <ele>303</ele>
        <time>2022-06-25T11:37:14Z</time>
      </trkpt>
      <trkpt lat="46.40492" lon="4.7263">
        <ele>303.2</ele>
        <time>2022-06-25T11:37:15Z</time>
      </trkpt>
      <trkpt lat="46.40494" lon="4.72626">
        <ele>303.2</ele>
        <time>2022-06-25T11:37:16Z</time>
      </trkpt>
      <trkpt lat="46.40496" lon="4.72623">
        <ele>303.6</ele>
        <time>2022-06-25T11:37:17Z</time>
      </trkpt>
      <trkpt lat="46.40498" lon="4.72619">
        <ele>303.6</ele>
        <time>2022-06-25T11:37:18Z</time>
      </trkpt>
      <trkpt lat="46.40499" lon="4.72616">
        <ele>303.6</ele>
        <time>2022-06-25T11:37:19Z</time>
      </trkpt>
      <trkpt lat="46.40501" lon="4.72613">
        <ele>303.8</ele>
        <time>2022-06-25T11:37:20Z</time>
      </trkpt>
      <trkpt lat="46.40502" lon="4.72609">
        <ele>303.8</ele>
        <time>2022-06-25T11:37:21Z</time>
      </trkpt>
      <trkpt lat="46.40504" lon="4.72606">
        <ele>303.8</ele>
        <time>2022-06-25T11:37:22Z</time>
      </trkpt>
      <trkpt lat="46.40506" lon="4.72602">
        <ele>303.8</ele>
        <time>2022-06-25T11:37:23Z</time>
      </trkpt>
      <trkpt lat="46.40507" lon="4.72597">
        <ele>304</ele>
        <time>2022-06-25T11:37:24Z</time>
      </trkpt>
      <trkpt lat="46.40509" lon="4.72593">
        <ele>304</ele>
        <time>2022-06-25T11:37:25Z</time>
      </trkpt>
      <trkpt lat="46.4051" lon="4.72588">
        <ele>304.2</ele>
        <time>2022-06-25T11:37:26Z</time>
      </trkpt>
      <trkpt lat="46.40511" lon="4.72584">
        <ele>304.2</ele>
        <time>2022-06-25T11:37:27Z</time>
      </trkpt>
      <trkpt lat="46.40513" lon="4.72579">
        <ele>304.2</ele>
        <time>2022-06-25T11:37:28Z</time>
      </trkpt>
      <trkpt lat="46.40514" lon="4.72574">
        <ele>304.6</ele>
        <time>2022-06-25T11:37:29Z</time>
      </trkpt>
      <trkpt lat="46.40515" lon="4.7257">
        <ele>304.6</ele>
        <time>2022-06-25T11:37:30Z</time>
      </trkpt>
      <trkpt lat="46.40516" lon="4.72565">
        <ele>304.8</ele>
        <time>2022-06-25T11:37:31Z</time>
      </trkpt>
      <trkpt lat="46.40518" lon="4.72561">
        <ele>304.8</ele>
        <time>2022-06-25T11:37:32Z</time>
      </trkpt>
      <trkpt lat="46.40519" lon="4.72557">
        <ele>305.2</ele>
        <time>2022-06-25T11:37:33Z</time>
      </trkpt>
      <trkpt lat="46.40521" lon="4.72553">
        <ele>305.2</ele>
        <time>2022-06-25T11:37:34Z</time>
      </trkpt>
      <trkpt lat="46.40522" lon="4.72549">
        <ele>305.4</ele>
        <time>2022-06-25T11:37:35Z</time>
      </trkpt>
      <trkpt lat="46.40523" lon="4.72546">
        <ele>305.4</ele>
        <time>2022-06-25T11:37:36Z</time>
      </trkpt>
      <trkpt lat="46.40524" lon="4.72542">
        <ele>305.8</ele>
        <time>2022-06-25T11:37:37Z</time>
      </trkpt>
      <trkpt lat="46.40525" lon="4.72539">
        <ele>305.8</ele>
        <time>2022-06-25T11:37:38Z</time>
      </trkpt>
      <trkpt lat="46.40526" lon="4.72535">
        <ele>306</ele>
        <time>2022-06-25T11:37:39Z</time>
      </trkpt>
      <trkpt lat="46.40527" lon="4.72532">
        <ele>306.2</ele>
        <time>2022-06-25T11:37:40Z</time>
      </trkpt>
      <trkpt lat="46.40528" lon="4.72528">
        <ele>306.2</ele>
        <time>2022-06-25T11:37:41Z</time>
      </trkpt>
      <trkpt lat="46.4053" lon="4.72525">
        <ele>306.6</ele>
        <time>2022-06-25T11:37:42Z</time>
      </trkpt>
      <trkpt lat="46.40531" lon="4.72522">
        <ele>306.6</ele>
        <time>2022-06-25T11:37:43Z</time>
      </trkpt>
      <trkpt lat="46.40532" lon="4.72519">
        <ele>307</ele>
        <time>2022-06-25T11:37:44Z</time>
      </trkpt>
      <trkpt lat="46.40533" lon="4.72516">
        <ele>307</ele>
        <time>2022-06-25T11:37:45Z</time>
      </trkpt>
      <trkpt lat="46.40534" lon="4.72514">
        <ele>307.4</ele>
        <time>2022-06-25T11:37:46Z</time>
      </trkpt>
      <trkpt lat="46.40535" lon="4.72511">
        <ele>307.4</ele>
        <time>2022-06-25T11:37:47Z</time>
      </trkpt>
      <trkpt lat="46.40537" lon="4.72508">
        <ele>307.6</ele>
        <time>2022-06-25T11:37:48Z</time>
      </trkpt>
      <trkpt lat="46.40538" lon="4.72506">
        <ele>307.6</ele>
        <time>2022-06-25T11:37:49Z</time>
      </trkpt>
      <trkpt lat="46.4054" lon="4.72503">
        <ele>308</ele>
        <time>2022-06-25T11:37:50Z</time>
      </trkpt>
      <trkpt lat="46.40541" lon="4.725">
        <ele>308</ele>
        <time>2022-06-25T11:37:51Z</time>
      </trkpt>
      <trkpt lat="46.40543" lon="4.72497">
        <ele>308.2</ele>
        <time>2022-06-25T11:37:52Z</time>
      </trkpt>
      <trkpt lat="46.40544" lon="4.72494">
        <ele>308.4</ele>
        <time>2022-06-25T11:37:53Z</time>
      </trkpt>
      <trkpt lat="46.40545" lon="4.72491">
        <ele>308.4</ele>
        <time>2022-06-25T11:37:54Z</time>
      </trkpt>
      <trkpt lat="46.40546" lon="4.72488">
        <ele>308.8</ele>
        <time>2022-06-25T11:37:55Z</time>
      </trkpt>
      <trkpt lat="46.40548" lon="4.72486">
        <ele>309</ele>
        <time>2022-06-25T11:37:56Z</time>
      </trkpt>
      <trkpt lat="46.40549" lon="4.72483">
        <ele>309</ele>
        <time>2022-06-25T11:37:57Z</time>
      </trkpt>
      <trkpt lat="46.40551" lon="4.72481">
        <ele>309.4</ele>
        <time>2022-06-25T11:37:58Z</time>
      </trkpt>
      <trkpt lat="46.40553" lon="4.72479">
        <ele>309.4</ele>
        <time>2022-06-25T11:37:59Z</time>
      </trkpt>
      <trkpt lat="46.40555" lon="4.72477">
        <ele>309.6</ele>
        <time>2022-06-25T11:38:00Z</time>
      </trkpt>
      <trkpt lat="46.40556" lon="4.72475">
        <ele>309.6</ele>
        <time>2022-06-25T11:38:01Z</time>
      </trkpt>
      <trkpt lat="46.40558" lon="4.72472">
        <ele>309.8</ele>
        <time>2022-06-25T11:38:02Z</time>
      </trkpt>
      <trkpt lat="46.4056" lon="4.7247">
        <ele>309.8</ele>
        <time>2022-06-25T11:38:03Z</time>
      </trkpt>
      <trkpt lat="46.40562" lon="4.72469">
        <ele>310</ele>
        <time>2022-06-25T11:38:04Z</time>
      </trkpt>
      <trkpt lat="46.40564" lon="4.72467">
        <ele>310</ele>
        <time>2022-06-25T11:38:05Z</time>
      </trkpt>
      <trkpt lat="46.40566" lon="4.72465">
        <ele>310.4</ele>
        <time>2022-06-25T11:38:06Z</time>
      </trkpt>
      <trkpt lat="46.40569" lon="4.72463">
        <ele>310.4</ele>
        <time>2022-06-25T11:38:07Z</time>
      </trkpt>
      <trkpt lat="46.40571" lon="4.72461">
        <ele>310.4</ele>
        <time>2022-06-25T11:38:08Z</time>
      </trkpt>
      <trkpt lat="46.40573" lon="4.72459">
        <ele>310.6</ele>
        <time>2022-06-25T11:38:09Z</time>
      </trkpt>
      <trkpt lat="46.40575" lon="4.72457">
        <ele>310.6</ele>
        <time>2022-06-25T11:38:10Z</time>
      </trkpt>
      <trkpt lat="46.40577" lon="4.72455">
        <ele>310.6</ele>
        <time>2022-06-25T11:38:11Z</time>
      </trkpt>
      <trkpt lat="46.40579" lon="4.72453">
        <ele>311</ele>
        <time>2022-06-25T11:38:12Z</time>
      </trkpt>
      <trkpt lat="46.40581" lon="4.72451">
        <ele>311</ele>
        <time>2022-06-25T11:38:13Z</time>
      </trkpt>
      <trkpt lat="46.40583" lon="4.72449">
        <ele>311.2</ele>
        <time>2022-06-25T11:38:14Z</time>
      </trkpt>
      <trkpt lat="46.40585" lon="4.72448">
        <ele>311.2</ele>
        <time>2022-06-25T11:38:15Z</time>
      </trkpt>
      <trkpt lat="46.40587" lon="4.72446">
        <ele>311.2</ele>
        <time>2022-06-25T11:38:16Z</time>
      </trkpt>
      <trkpt lat="46.40589" lon="4.72444">
        <ele>311.2</ele>
        <time>2022-06-25T11:38:17Z</time>
      </trkpt>
      <trkpt lat="46.40591" lon="4.72442">
        <ele>311.4</ele>
        <time>2022-06-25T11:38:18Z</time>
      </trkpt>
      <trkpt lat="46.40593" lon="4.7244">
        <ele>311.4</ele>
        <time>2022-06-25T11:38:19Z</time>
      </trkpt>
      <trkpt lat="46.40595" lon="4.72438">
        <ele>311.4</ele>
        <time>2022-06-25T11:38:20Z</time>
      </trkpt>
      <trkpt lat="46.40597" lon="4.72436">
        <ele>311.6</ele>
        <time>2022-06-25T11:38:21Z</time>
      </trkpt>
      <trkpt lat="46.40599" lon="4.72434">
        <ele>311.6</ele>
        <time>2022-06-25T11:38:22Z</time>
      </trkpt>
      <trkpt lat="46.40601" lon="4.72433">
        <ele>311.6</ele>
        <time>2022-06-25T11:38:23Z</time>
      </trkpt>
      <trkpt lat="46.40602" lon="4.72431">
        <ele>312</ele>
        <time>2022-06-25T11:38:24Z</time>
      </trkpt>
      <trkpt lat="46.40605" lon="4.72429">
        <ele>312</ele>
        <time>2022-06-25T11:38:25Z</time>
      </trkpt>
      <trkpt lat="46.40607" lon="4.72428">
        <ele>312</ele>
        <time>2022-06-25T11:38:26Z</time>
      </trkpt>
      <trkpt lat="46.40608" lon="4.72427">
        <ele>312.2</ele>
        <time>2022-06-25T11:38:27Z</time>
      </trkpt>
      <trkpt lat="46.4061" lon="4.72426">
        <ele>312.2</ele>
        <time>2022-06-25T11:38:28Z</time>
      </trkpt>
      <trkpt lat="46.40611" lon="4.72425">
        <ele>312.2</ele>
        <time>2022-06-25T11:38:29Z</time>
      </trkpt>
      <trkpt lat="46.40612" lon="4.72424">
        <ele>312.2</ele>
        <time>2022-06-25T11:38:30Z</time>
      </trkpt>
      <trkpt lat="46.40612" lon="4.72424">
        <ele>312.6</ele>
        <time>2022-06-25T11:43:42Z</time>
      </trkpt>
      <trkpt lat="46.40611" lon="4.72421">
        <ele>312.6</ele>
        <time>2022-06-25T11:43:48Z</time>
      </trkpt>
      <trkpt lat="46.4061" lon="4.72423">
        <ele>312.4</ele>
        <time>2022-06-25T11:43:49Z</time>
      </trkpt>
      <trkpt lat="46.40609" lon="4.72425">
        <ele>312.4</ele>
        <time>2022-06-25T11:43:50Z</time>
      </trkpt>
      <trkpt lat="46.40607" lon="4.72427">
        <ele>312.4</ele>
        <time>2022-06-25T11:43:51Z</time>
      </trkpt>
      <trkpt lat="46.40606" lon="4.72429">
        <ele>312.2</ele>
        <time>2022-06-25T11:43:52Z</time>
      </trkpt>
      <trkpt lat="46.40603" lon="4.72432">
        <ele>312.2</ele>
        <time>2022-06-25T11:43:53Z</time>
      </trkpt>
      <trkpt lat="46.40601" lon="4.72434">
        <ele>312.2</ele>
        <time>2022-06-25T11:43:54Z</time>
      </trkpt>
      <trkpt lat="46.40598" lon="4.72436">
        <ele>312.2</ele>
        <time>2022-06-25T11:43:55Z</time>
      </trkpt>
      <trkpt lat="46.40595" lon="4.72439">
        <ele>312</ele>
        <time>2022-06-25T11:43:56Z</time>
      </trkpt>
      <trkpt lat="46.40593" lon="4.72442">
        <ele>312</ele>
        <time>2022-06-25T11:43:57Z</time>
      </trkpt>
      <trkpt lat="46.4059" lon="4.72445">
        <ele>311.8</ele>
        <time>2022-06-25T11:43:58Z</time>
      </trkpt>
      <trkpt lat="46.40587" lon="4.72447">
        <ele>311.8</ele>
        <time>2022-06-25T11:43:59Z</time>
      </trkpt>
      <trkpt lat="46.40585" lon="4.72449">
        <ele>311.8</ele>
        <time>2022-06-25T11:44:00Z</time>
      </trkpt>
      <trkpt lat="46.40583" lon="4.72452">
        <ele>311.8</ele>
        <time>2022-06-25T11:44:01Z</time>
      </trkpt>
      <trkpt lat="46.4058" lon="4.72454">
        <ele>311.4</ele>
        <time>2022-06-25T11:44:02Z</time>
      </trkpt>
      <trkpt lat="46.40578" lon="4.72457">
        <ele>311.4</ele>
        <time>2022-06-25T11:44:03Z</time>
      </trkpt>
      <trkpt lat="46.40576" lon="4.72459">
        <ele>311.4</ele>
        <time>2022-06-25T11:44:04Z</time>
      </trkpt>
      <trkpt lat="46.40574" lon="4.72461">
        <ele>311.4</ele>
        <time>2022-06-25T11:44:05Z</time>
      </trkpt>
      <trkpt lat="46.40571" lon="4.72463">
        <ele>311.2</ele>
        <time>2022-06-25T11:44:06Z</time>
      </trkpt>
      <trkpt lat="46.40569" lon="4.72466">
        <ele>311.2</ele>
        <time>2022-06-25T11:44:07Z</time>
      </trkpt>
      <trkpt lat="46.40566" lon="4.72468">
        <ele>311</ele>
        <time>2022-06-25T11:44:08Z</time>
      </trkpt>
      <trkpt lat="46.40562" lon="4.72472">
        <ele>311</ele>
        <time>2022-06-25T11:44:09Z</time>
      </trkpt>
      <trkpt lat="46.40559" lon="4.72476">
        <ele>310.6</ele>
        <time>2022-06-25T11:44:10Z</time>
      </trkpt>
      <trkpt lat="46.40556" lon="4.7248">
        <ele>310.6</ele>
        <time>2022-06-25T11:44:11Z</time>
      </trkpt>
      <trkpt lat="46.40552" lon="4.72485">
        <ele>310.2</ele>
        <time>2022-06-25T11:44:12Z</time>
      </trkpt>
      <trkpt lat="46.40549" lon="4.72491">
        <ele>310</ele>
        <time>2022-06-25T11:44:13Z</time>
      </trkpt>
      <trkpt lat="46.40545" lon="4.72497">
        <ele>309.8</ele>
        <time>2022-06-25T11:44:14Z</time>
      </trkpt>
      <trkpt lat="46.40541" lon="4.72503">
        <ele>309.6</ele>
        <time>2022-06-25T11:44:15Z</time>
      </trkpt>
      <trkpt lat="46.40537" lon="4.72511">
        <ele>309.4</ele>
        <time>2022-06-25T11:44:16Z</time>
      </trkpt>
      <trkpt lat="46.40533" lon="4.72519">
        <ele>309</ele>
        <time>2022-06-25T11:44:18Z</time>
      </trkpt>
      <trkpt lat="46.4053" lon="4.72528">
        <ele>308.8</ele>
        <time>2022-06-25T11:44:19Z</time>
      </trkpt>
      <trkpt lat="46.40526" lon="4.72538">
        <ele>308.4</ele>
        <time>2022-06-25T11:44:20Z</time>
      </trkpt>
      <trkpt lat="46.40523" lon="4.72548">
        <ele>307.8</ele>
        <time>2022-06-25T11:44:21Z</time>
      </trkpt>
      <trkpt lat="46.40519" lon="4.72558">
        <ele>307.4</ele>
        <time>2022-06-25T11:44:22Z</time>
      </trkpt>
      <trkpt lat="46.40516" lon="4.7257">
        <ele>306.8</ele>
        <time>2022-06-25T11:44:23Z</time>
      </trkpt>
      <trkpt lat="46.40512" lon="4.72581">
        <ele>306.4</ele>
        <time>2022-06-25T11:44:24Z</time>
      </trkpt>
      <trkpt lat="46.40508" lon="4.72593">
        <ele>306</ele>
        <time>2022-06-25T11:44:25Z</time>
      </trkpt>
      <trkpt lat="46.40504" lon="4.72604">
        <ele>305.6</ele>
        <time>2022-06-25T11:44:26Z</time>
      </trkpt>
      <trkpt lat="46.405" lon="4.72615">
        <ele>305.4</ele>
        <time>2022-06-25T11:44:27Z</time>
      </trkpt>
      <trkpt lat="46.40495" lon="4.72625">
        <ele>305</ele>
        <time>2022-06-25T11:44:28Z</time>
      </trkpt>
      <trkpt lat="46.40489" lon="4.72635">
        <ele>304.6</ele>
        <time>2022-06-25T11:44:29Z</time>
      </trkpt>
      <trkpt lat="46.40483" lon="4.72645">
        <ele>304.4</ele>
        <time>2022-06-25T11:44:30Z</time>
      </trkpt>
      <trkpt lat="46.40478" lon="4.72655">
        <ele>304.2</ele>
        <time>2022-06-25T11:44:31Z</time>
      </trkpt>
      <trkpt lat="46.40472" lon="4.72665">
        <ele>304</ele>
        <time>2022-06-25T11:44:32Z</time>
      </trkpt>
      <trkpt lat="46.40467" lon="4.72674">
        <ele>303.6</ele>
        <time>2022-06-25T11:44:33Z</time>
      </trkpt>
      <trkpt lat="46.40461" lon="4.72684">
        <ele>303.4</ele>
        <time>2022-06-25T11:44:34Z</time>
      </trkpt>
      <trkpt lat="46.40457" lon="4.72694">
        <ele>303.4</ele>
        <time>2022-06-25T11:44:35Z</time>
      </trkpt>
      <trkpt lat="46.40452" lon="4.72704">
        <ele>303.2</ele>
        <time>2022-06-25T11:44:36Z</time>
      </trkpt>
      <trkpt lat="46.40447" lon="4.72714">
        <ele>303.2</ele>
        <time>2022-06-25T11:44:37Z</time>
      </trkpt>
      <trkpt lat="46.40443" lon="4.72724">
        <ele>302.8</ele>
        <time>2022-06-25T11:44:38Z</time>
      </trkpt>
      <trkpt lat="46.4044" lon="4.72735">
        <ele>302.6</ele>
        <time>2022-06-25T11:44:39Z</time>
      </trkpt>
      <trkpt lat="46.40436" lon="4.72745">
        <ele>302.2</ele>
        <time>2022-06-25T11:44:40Z</time>
      </trkpt>
      <trkpt lat="46.40433" lon="4.72755">
        <ele>301.8</ele>
        <time>2022-06-25T11:44:41Z</time>
      </trkpt>
      <trkpt lat="46.4043" lon="4.72765">
        <ele>301.6</ele>
        <time>2022-06-25T11:44:42Z</time>
      </trkpt>
      <trkpt lat="46.40427" lon="4.72775">
        <ele>301.6</ele>
        <time>2022-06-25T11:44:43Z</time>
      </trkpt>
      <trkpt lat="46.40424" lon="4.72784">
        <ele>301.2</ele>
        <time>2022-06-25T11:44:44Z</time>
      </trkpt>
      <trkpt lat="46.40421" lon="4.72794">
        <ele>301.2</ele>
        <time>2022-06-25T11:44:45Z</time>
      </trkpt>
      <trkpt lat="46.40418" lon="4.72804">
        <ele>301.2</ele>
        <time>2022-06-25T11:44:46Z</time>
      </trkpt>
      <trkpt lat="46.40415" lon="4.72813">
        <ele>301</ele>
        <time>2022-06-25T11:44:47Z</time>
      </trkpt>
      <trkpt lat="46.40412" lon="4.72823">
        <ele>301</ele>
        <time>2022-06-25T11:44:48Z</time>
      </trkpt>
      <trkpt lat="46.40409" lon="4.72832">
        <ele>301</ele>
        <time>2022-06-25T11:44:49Z</time>
      </trkpt>
      <trkpt lat="46.40405" lon="4.72842">
        <ele>301</ele>
        <time>2022-06-25T11:44:50Z</time>
      </trkpt>
      <trkpt lat="46.40402" lon="4.72851">
        <ele>300.6</ele>
        <time>2022-06-25T11:44:51Z</time>
      </trkpt>
      <trkpt lat="46.40398" lon="4.72861">
        <ele>300.6</ele>
        <time>2022-06-25T11:44:52Z</time>
      </trkpt>
      <trkpt lat="46.40395" lon="4.72872">
        <ele>300.4</ele>
        <time>2022-06-25T11:44:53Z</time>
      </trkpt>
      <trkpt lat="46.40391" lon="4.72882">
        <ele>300.4</ele>
        <time>2022-06-25T11:44:54Z</time>
      </trkpt>
      <trkpt lat="46.40388" lon="4.72892">
        <ele>300.4</ele>
        <time>2022-06-25T11:44:55Z</time>
      </trkpt>
      <trkpt lat="46.40384" lon="4.72902">
        <ele>300.4</ele>
        <time>2022-06-25T11:44:56Z</time>
      </trkpt>
      <trkpt lat="46.40381" lon="4.72911">
        <ele>299.8</ele>
        <time>2022-06-25T11:44:57Z</time>
      </trkpt>
      <trkpt lat="46.40377" lon="4.72921">
        <ele>299.6</ele>
        <time>2022-06-25T11:44:58Z</time>
      </trkpt>
      <trkpt lat="46.40373" lon="4.7293">
        <ele>299.4</ele>
        <time>2022-06-25T11:44:59Z</time>
      </trkpt>
      <trkpt lat="46.40368" lon="4.72938">
        <ele>299.4</ele>
        <time>2022-06-25T11:45:00Z</time>
      </trkpt>
      <trkpt lat="46.40363" lon="4.72946">
        <ele>299.2</ele>
        <time>2022-06-25T11:45:01Z</time>
      </trkpt>
      <trkpt lat="46.40358" lon="4.72954">
        <ele>299.2</ele>
        <time>2022-06-25T11:45:02Z</time>
      </trkpt>
      <trkpt lat="46.40353" lon="4.72962">
        <ele>298.8</ele>
        <time>2022-06-25T11:45:03Z</time>
      </trkpt>
      <trkpt lat="46.40348" lon="4.72969">
        <ele>298.8</ele>
        <time>2022-06-25T11:45:04Z</time>
      </trkpt>
      <trkpt lat="46.40342" lon="4.72975">
        <ele>298.8</ele>
        <time>2022-06-25T11:45:05Z</time>
      </trkpt>
      <trkpt lat="46.40337" lon="4.72982">
        <ele>298.6</ele>
        <time>2022-06-25T11:45:06Z</time>
      </trkpt>
      <trkpt lat="46.40332" lon="4.72988">
        <ele>298.6</ele>
        <time>2022-06-25T11:45:07Z</time>
      </trkpt>
      <trkpt lat="46.40326" lon="4.72994">
        <ele>298.6</ele>
        <time>2022-06-25T11:45:08Z</time>
      </trkpt>
      <trkpt lat="46.40321" lon="4.73">
        <ele>298.6</ele>
        <time>2022-06-25T11:45:09Z</time>
      </trkpt>
      <trkpt lat="46.40316" lon="4.73006">
        <ele>298.6</ele>
        <time>2022-06-25T11:45:10Z</time>
      </trkpt>
      <trkpt lat="46.40312" lon="4.73012">
        <ele>298.6</ele>
        <time>2022-06-25T11:45:11Z</time>
      </trkpt>
      <trkpt lat="46.40307" lon="4.73017">
        <ele>298.6</ele>
        <time>2022-06-25T11:45:12Z</time>
      </trkpt>
      <trkpt lat="46.40303" lon="4.73023">
        <ele>298.6</ele>
        <time>2022-06-25T11:45:13Z</time>
      </trkpt>
      <trkpt lat="46.40299" lon="4.7303">
        <ele>298.6</ele>
        <time>2022-06-25T11:45:14Z</time>
      </trkpt>
      <trkpt lat="46.40295" lon="4.73036">
        <ele>298.6</ele>
        <time>2022-06-25T11:45:15Z</time>
      </trkpt>
      <trkpt lat="46.40292" lon="4.73043">
        <ele>298.6</ele>
        <time>2022-06-25T11:45:16Z</time>
      </trkpt>
      <trkpt lat="46.40289" lon="4.7305">
        <ele>298.6</ele>
        <time>2022-06-25T11:45:17Z</time>
      </trkpt>
      <trkpt lat="46.40287" lon="4.73057">
        <ele>298.6</ele>
        <time>2022-06-25T11:45:18Z</time>
      </trkpt>
      <trkpt lat="46.40285" lon="4.73065">
        <ele>298.6</ele>
        <time>2022-06-25T11:45:19Z</time>
      </trkpt>
      <trkpt lat="46.40283" lon="4.73072">
        <ele>298.6</ele>
        <time>2022-06-25T11:45:20Z</time>
      </trkpt>
      <trkpt lat="46.40281" lon="4.7308">
        <ele>298.6</ele>
        <time>2022-06-25T11:45:21Z</time>
      </trkpt>
      <trkpt lat="46.4028" lon="4.73088">
        <ele>298.6</ele>
        <time>2022-06-25T11:45:22Z</time>
      </trkpt>
      <trkpt lat="46.40278" lon="4.73095">
        <ele>298.4</ele>
        <time>2022-06-25T11:45:23Z</time>
      </trkpt>
      <trkpt lat="46.40277" lon="4.73104">
        <ele>298.4</ele>
        <time>2022-06-25T11:45:24Z</time>
      </trkpt>
      <trkpt lat="46.40276" lon="4.73112">
        <ele>298.2</ele>
        <time>2022-06-25T11:45:25Z</time>
      </trkpt>
      <trkpt lat="46.40275" lon="4.7312">
        <ele>298.2</ele>
        <time>2022-06-25T11:45:26Z</time>
      </trkpt>
      <trkpt lat="46.40274" lon="4.73129">
        <ele>297.8</ele>
        <time>2022-06-25T11:45:27Z</time>
      </trkpt>
      <trkpt lat="46.40273" lon="4.73138">
        <ele>297.8</ele>
        <time>2022-06-25T11:45:28Z</time>
      </trkpt>
      <trkpt lat="46.40272" lon="4.73148">
        <ele>297.8</ele>
        <time>2022-06-25T11:45:29Z</time>
      </trkpt>
      <trkpt lat="46.40272" lon="4.73158">
        <ele>297.8</ele>
        <time>2022-06-25T11:45:30Z</time>
      </trkpt>
      <trkpt lat="46.40271" lon="4.73168">
        <ele>297.6</ele>
        <time>2022-06-25T11:45:31Z</time>
      </trkpt>
      <trkpt lat="46.4027" lon="4.73179">
        <ele>297.2</ele>
        <time>2022-06-25T11:45:32Z</time>
      </trkpt>
      <trkpt lat="46.4027" lon="4.73189">
        <ele>297</ele>
        <time>2022-06-25T11:45:33Z</time>
      </trkpt>
      <trkpt lat="46.40269" lon="4.73199">
        <ele>296.6</ele>
        <time>2022-06-25T11:45:34Z</time>
      </trkpt>
      <trkpt lat="46.40269" lon="4.73209">
        <ele>296.4</ele>
        <time>2022-06-25T11:45:35Z</time>
      </trkpt>
      <trkpt lat="46.40268" lon="4.7322">
        <ele>296.2</ele>
        <time>2022-06-25T11:45:36Z</time>
      </trkpt>
      <trkpt lat="46.40267" lon="4.7323">
        <ele>296.2</ele>
        <time>2022-06-25T11:45:37Z</time>
      </trkpt>
      <trkpt lat="46.40266" lon="4.7324">
        <ele>295.8</ele>
        <time>2022-06-25T11:45:38Z</time>
      </trkpt>
      <trkpt lat="46.40266" lon="4.73251">
        <ele>295.4</ele>
        <time>2022-06-25T11:45:39Z</time>
      </trkpt>
      <trkpt lat="46.40265" lon="4.73261">
        <ele>295.2</ele>
        <time>2022-06-25T11:45:40Z</time>
      </trkpt>
      <trkpt lat="46.40264" lon="4.73271">
        <ele>294.8</ele>
        <time>2022-06-25T11:45:41Z</time>
      </trkpt>
      <trkpt lat="46.40263" lon="4.73281">
        <ele>294.6</ele>
        <time>2022-06-25T11:45:42Z</time>
      </trkpt>
      <trkpt lat="46.40262" lon="4.73292">
        <ele>294.2</ele>
        <time>2022-06-25T11:45:43Z</time>
      </trkpt>
      <trkpt lat="46.4026" lon="4.73302">
        <ele>294</ele>
        <time>2022-06-25T11:45:44Z</time>
      </trkpt>
      <trkpt lat="46.40259" lon="4.73312">
        <ele>293.6</ele>
        <time>2022-06-25T11:45:45Z</time>
      </trkpt>
      <trkpt lat="46.40257" lon="4.73323">
        <ele>293.4</ele>
        <time>2022-06-25T11:45:46Z</time>
      </trkpt>
      <trkpt lat="46.40256" lon="4.73334">
        <ele>293.4</ele>
        <time>2022-06-25T11:45:47Z</time>
      </trkpt>
      <trkpt lat="46.40254" lon="4.73345">
        <ele>293.4</ele>
        <time>2022-06-25T11:45:48Z</time>
      </trkpt>
      <trkpt lat="46.40253" lon="4.73356">
        <ele>293.2</ele>
        <time>2022-06-25T11:45:49Z</time>
      </trkpt>
      <trkpt lat="46.40251" lon="4.73367">
        <ele>292.8</ele>
        <time>2022-06-25T11:45:50Z</time>
      </trkpt>
      <trkpt lat="46.40249" lon="4.73377">
        <ele>292.4</ele>
        <time>2022-06-25T11:45:51Z</time>
      </trkpt>
      <trkpt lat="46.40246" lon="4.73388">
        <ele>292.2</ele>
        <time>2022-06-25T11:45:52Z</time>
      </trkpt>
      <trkpt lat="46.40243" lon="4.73399">
        <ele>291.8</ele>
        <time>2022-06-25T11:45:53Z</time>
      </trkpt>
      <trkpt lat="46.40239" lon="4.73409">
        <ele>291.4</ele>
        <time>2022-06-25T11:45:54Z</time>
      </trkpt>
      <trkpt lat="46.40236" lon="4.7342">
        <ele>291.2</ele>
        <time>2022-06-25T11:45:55Z</time>
      </trkpt>
      <trkpt lat="46.40232" lon="4.7343">
        <ele>291.2</ele>
        <time>2022-06-25T11:45:56Z</time>
      </trkpt>
      <trkpt lat="46.40229" lon="4.73441">
        <ele>290.8</ele>
        <time>2022-06-25T11:45:57Z</time>
      </trkpt>
      <trkpt lat="46.40225" lon="4.73451">
        <ele>290.6</ele>
        <time>2022-06-25T11:45:58Z</time>
      </trkpt>
      <trkpt lat="46.40222" lon="4.73461">
        <ele>290.6</ele>
        <time>2022-06-25T11:45:59Z</time>
      </trkpt>
      <trkpt lat="46.40218" lon="4.7347">
        <ele>290.2</ele>
        <time>2022-06-25T11:46:00Z</time>
      </trkpt>
      <trkpt lat="46.40214" lon="4.73478">
        <ele>290.2</ele>
        <time>2022-06-25T11:46:01Z</time>
      </trkpt>
      <trkpt lat="46.40209" lon="4.73485">
        <ele>290.2</ele>
        <time>2022-06-25T11:46:02Z</time>
      </trkpt>
      <trkpt lat="46.40205" lon="4.73492">
        <ele>290.2</ele>
        <time>2022-06-25T11:46:03Z</time>
      </trkpt>
      <trkpt lat="46.402" lon="4.735">
        <ele>290.2</ele>
        <time>2022-06-25T11:46:04Z</time>
      </trkpt>
      <trkpt lat="46.40196" lon="4.73507">
        <ele>290.2</ele>
        <time>2022-06-25T11:46:05Z</time>
      </trkpt>
      <trkpt lat="46.40192" lon="4.73513">
        <ele>290.6</ele>
        <time>2022-06-25T11:46:06Z</time>
      </trkpt>
      <trkpt lat="46.40188" lon="4.7352">
        <ele>290.6</ele>
        <time>2022-06-25T11:46:07Z</time>
      </trkpt>
      <trkpt lat="46.40184" lon="4.73526">
        <ele>290.8</ele>
        <time>2022-06-25T11:46:08Z</time>
      </trkpt>
      <trkpt lat="46.40179" lon="4.73531">
        <ele>290.8</ele>
        <time>2022-06-25T11:46:09Z</time>
      </trkpt>
      <trkpt lat="46.40174" lon="4.73536">
        <ele>291.2</ele>
        <time>2022-06-25T11:46:10Z</time>
      </trkpt>
      <trkpt lat="46.4017" lon="4.7354">
        <ele>291.2</ele>
        <time>2022-06-25T11:46:11Z</time>
      </trkpt>
      <trkpt lat="46.40165" lon="4.73544">
        <ele>291.2</ele>
        <time>2022-06-25T11:46:12Z</time>
      </trkpt>
      <trkpt lat="46.40159" lon="4.73548">
        <ele>291.4</ele>
        <time>2022-06-25T11:46:13Z</time>
      </trkpt>
      <trkpt lat="46.40154" lon="4.73551">
        <ele>291.4</ele>
        <time>2022-06-25T11:46:14Z</time>
      </trkpt>
      <trkpt lat="46.40147" lon="4.73553">
        <ele>291.6</ele>
        <time>2022-06-25T11:46:15Z</time>
      </trkpt>
      <trkpt lat="46.40141" lon="4.73555">
        <ele>291.6</ele>
        <time>2022-06-25T11:46:16Z</time>
      </trkpt>
      <trkpt lat="46.40135" lon="4.73556">
        <ele>292</ele>
        <time>2022-06-25T11:46:17Z</time>
      </trkpt>
      <trkpt lat="46.40128" lon="4.73556">
        <ele>292</ele>
        <time>2022-06-25T11:46:18Z</time>
      </trkpt>
      <trkpt lat="46.40122" lon="4.73558">
        <ele>292</ele>
        <time>2022-06-25T11:46:19Z</time>
      </trkpt>
      <trkpt lat="46.40116" lon="4.73559">
        <ele>292</ele>
        <time>2022-06-25T11:46:20Z</time>
      </trkpt>
      <trkpt lat="46.40109" lon="4.7356">
        <ele>292</ele>
        <time>2022-06-25T11:46:21Z</time>
      </trkpt>
      <trkpt lat="46.40103" lon="4.73562">
        <ele>292.2</ele>
        <time>2022-06-25T11:46:22Z</time>
      </trkpt>
      <trkpt lat="46.40097" lon="4.73563">
        <ele>292.2</ele>
        <time>2022-06-25T11:46:23Z</time>
      </trkpt>
      <trkpt lat="46.40091" lon="4.73566">
        <ele>292.2</ele>
        <time>2022-06-25T11:46:24Z</time>
      </trkpt>
      <trkpt lat="46.40084" lon="4.73568">
        <ele>292.2</ele>
        <time>2022-06-25T11:46:25Z</time>
      </trkpt>
      <trkpt lat="46.40078" lon="4.73571">
        <ele>292.2</ele>
        <time>2022-06-25T11:46:26Z</time>
      </trkpt>
      <trkpt lat="46.40072" lon="4.73575">
        <ele>292.2</ele>
        <time>2022-06-25T11:46:27Z</time>
      </trkpt>
      <trkpt lat="46.40066" lon="4.73578">
        <ele>292.2</ele>
        <time>2022-06-25T11:46:28Z</time>
      </trkpt>
      <trkpt lat="46.4006" lon="4.73583">
        <ele>292.2</ele>
        <time>2022-06-25T11:46:29Z</time>
      </trkpt>
      <trkpt lat="46.40055" lon="4.73587">
        <ele>292.2</ele>
        <time>2022-06-25T11:46:30Z</time>
      </trkpt>
      <trkpt lat="46.40049" lon="4.73592">
        <ele>291.8</ele>
        <time>2022-06-25T11:46:31Z</time>
      </trkpt>
      <trkpt lat="46.40043" lon="4.73597">
        <ele>291.8</ele>
        <time>2022-06-25T11:46:32Z</time>
      </trkpt>
      <trkpt lat="46.40037" lon="4.73602">
        <ele>291.8</ele>
        <time>2022-06-25T11:46:33Z</time>
      </trkpt>
      <trkpt lat="46.40031" lon="4.73607">
        <ele>291.8</ele>
        <time>2022-06-25T11:46:34Z</time>
      </trkpt>
      <trkpt lat="46.40026" lon="4.73611">
        <ele>291.8</ele>
        <time>2022-06-25T11:46:35Z</time>
      </trkpt>
      <trkpt lat="46.4002" lon="4.73616">
        <ele>291.8</ele>
        <time>2022-06-25T11:46:36Z</time>
      </trkpt>
      <trkpt lat="46.40014" lon="4.73621">
        <ele>291.6</ele>
        <time>2022-06-25T11:46:37Z</time>
      </trkpt>
      <trkpt lat="46.40007" lon="4.73625">
        <ele>291.6</ele>
        <time>2022-06-25T11:46:38Z</time>
      </trkpt>
      <trkpt lat="46.40002" lon="4.7363">
        <ele>291.6</ele>
        <time>2022-06-25T11:46:39Z</time>
      </trkpt>
      <trkpt lat="46.39996" lon="4.73636">
        <ele>291.6</ele>
        <time>2022-06-25T11:46:40Z</time>
      </trkpt>
      <trkpt lat="46.39991" lon="4.73641">
        <ele>291.6</ele>
        <time>2022-06-25T11:46:41Z</time>
      </trkpt>
      <trkpt lat="46.39985" lon="4.73646">
        <ele>291.6</ele>
        <time>2022-06-25T11:46:42Z</time>
      </trkpt>
      <trkpt lat="46.3998" lon="4.7365">
        <ele>291.6</ele>
        <time>2022-06-25T11:46:43Z</time>
      </trkpt>
      <trkpt lat="46.39975" lon="4.73655">
        <ele>291.4</ele>
        <time>2022-06-25T11:46:44Z</time>
      </trkpt>
      <trkpt lat="46.3997" lon="4.73659">
        <ele>291.4</ele>
        <time>2022-06-25T11:46:45Z</time>
      </trkpt>
      <trkpt lat="46.39965" lon="4.73664">
        <ele>291.4</ele>
        <time>2022-06-25T11:46:46Z</time>
      </trkpt>
      <trkpt lat="46.3996" lon="4.73668">
        <ele>291.2</ele>
        <time>2022-06-25T11:46:47Z</time>
      </trkpt>
      <trkpt lat="46.39956" lon="4.73672">
        <ele>291.2</ele>
        <time>2022-06-25T11:46:48Z</time>
      </trkpt>
      <trkpt lat="46.39951" lon="4.73677">
        <ele>291.2</ele>
        <time>2022-06-25T11:46:49Z</time>
      </trkpt>
      <trkpt lat="46.39946" lon="4.73681">
        <ele>291.2</ele>
        <time>2022-06-25T11:46:50Z</time>
      </trkpt>
      <trkpt lat="46.39941" lon="4.73685">
        <ele>291.2</ele>
        <time>2022-06-25T11:46:51Z</time>
      </trkpt>
      <trkpt lat="46.39937" lon="4.73689">
        <ele>291.2</ele>
        <time>2022-06-25T11:46:52Z</time>
      </trkpt>
      <trkpt lat="46.39932" lon="4.73693">
        <ele>291.4</ele>
        <time>2022-06-25T11:46:53Z</time>
      </trkpt>
      <trkpt lat="46.39927" lon="4.73696">
        <ele>291.4</ele>
        <time>2022-06-25T11:46:54Z</time>
      </trkpt>
      <trkpt lat="46.39922" lon="4.73701">
        <ele>291.4</ele>
        <time>2022-06-25T11:46:55Z</time>
      </trkpt>
      <trkpt lat="46.39917" lon="4.73705">
        <ele>291.4</ele>
        <time>2022-06-25T11:46:56Z</time>
      </trkpt>
      <trkpt lat="46.39913" lon="4.7371">
        <ele>291.4</ele>
        <time>2022-06-25T11:46:57Z</time>
      </trkpt>
      <trkpt lat="46.39908" lon="4.73715">
        <ele>291.4</ele>
        <time>2022-06-25T11:46:58Z</time>
      </trkpt>
      <trkpt lat="46.39903" lon="4.7372">
        <ele>291.4</ele>
        <time>2022-06-25T11:46:59Z</time>
      </trkpt>
      <trkpt lat="46.39899" lon="4.73726">
        <ele>291.2</ele>
        <time>2022-06-25T11:47:00Z</time>
      </trkpt>
      <trkpt lat="46.39895" lon="4.73731">
        <ele>291.2</ele>
        <time>2022-06-25T11:47:01Z</time>
      </trkpt>
      <trkpt lat="46.39891" lon="4.73737">
        <ele>291.2</ele>
        <time>2022-06-25T11:47:02Z</time>
      </trkpt>
      <trkpt lat="46.39887" lon="4.73744">
        <ele>290.8</ele>
        <time>2022-06-25T11:47:03Z</time>
      </trkpt>
      <trkpt lat="46.39883" lon="4.73751">
        <ele>290.8</ele>
        <time>2022-06-25T11:47:04Z</time>
      </trkpt>
      <trkpt lat="46.39879" lon="4.73758">
        <ele>290.6</ele>
        <time>2022-06-25T11:47:05Z</time>
      </trkpt>
      <trkpt lat="46.39875" lon="4.73765">
        <ele>290.6</ele>
        <time>2022-06-25T11:47:06Z</time>
      </trkpt>
      <trkpt lat="46.39871" lon="4.73772">
        <ele>290.4</ele>
        <time>2022-06-25T11:47:07Z</time>
      </trkpt>
      <trkpt lat="46.39867" lon="4.7378">
        <ele>290</ele>
        <time>2022-06-25T11:47:08Z</time>
      </trkpt>
      <trkpt lat="46.39863" lon="4.73787">
        <ele>290</ele>
        <time>2022-06-25T11:47:09Z</time>
      </trkpt>
      <trkpt lat="46.39859" lon="4.73793">
        <ele>289.8</ele>
        <time>2022-06-25T11:47:10Z</time>
      </trkpt>
      <trkpt lat="46.39854" lon="4.73799">
        <ele>289.8</ele>
        <time>2022-06-25T11:47:11Z</time>
      </trkpt>
      <trkpt lat="46.39849" lon="4.73804">
        <ele>289.8</ele>
        <time>2022-06-25T11:47:12Z</time>
      </trkpt>
      <trkpt lat="46.39844" lon="4.73809">
        <ele>289.8</ele>
        <time>2022-06-25T11:47:13Z</time>
      </trkpt>
      <trkpt lat="46.39839" lon="4.73814">
        <ele>289.4</ele>
        <time>2022-06-25T11:47:14Z</time>
      </trkpt>
      <trkpt lat="46.39835" lon="4.7382">
        <ele>289.4</ele>
        <time>2022-06-25T11:47:15Z</time>
      </trkpt>
      <trkpt lat="46.39831" lon="4.73828">
        <ele>289</ele>
        <time>2022-06-25T11:47:16Z</time>
      </trkpt>
      <trkpt lat="46.39828" lon="4.73837">
        <ele>288.8</ele>
        <time>2022-06-25T11:47:17Z</time>
      </trkpt>
      <trkpt lat="46.39824" lon="4.73847">
        <ele>288.6</ele>
        <time>2022-06-25T11:47:18Z</time>
      </trkpt>
      <trkpt lat="46.39821" lon="4.73857">
        <ele>288.2</ele>
        <time>2022-06-25T11:47:19Z</time>
      </trkpt>
      <trkpt lat="46.39815" lon="4.73877">
        <ele>288</ele>
        <time>2022-06-25T11:47:20Z</time>
      </trkpt>
      <trkpt lat="46.39811" lon="4.73887">
        <ele>287.6</ele>
        <time>2022-06-25T11:47:21Z</time>
      </trkpt>
      <trkpt lat="46.39808" lon="4.73898">
        <ele>287.2</ele>
        <time>2022-06-25T11:47:22Z</time>
      </trkpt>
      <trkpt lat="46.39804" lon="4.73909">
        <ele>286.8</ele>
        <time>2022-06-25T11:47:23Z</time>
      </trkpt>
      <trkpt lat="46.39801" lon="4.73919">
        <ele>286.6</ele>
        <time>2022-06-25T11:47:24Z</time>
      </trkpt>
      <trkpt lat="46.39797" lon="4.7393">
        <ele>286.4</ele>
        <time>2022-06-25T11:47:25Z</time>
      </trkpt>
      <trkpt lat="46.39794" lon="4.73941">
        <ele>286</ele>
        <time>2022-06-25T11:47:26Z</time>
      </trkpt>
      <trkpt lat="46.39791" lon="4.73952">
        <ele>285.8</ele>
        <time>2022-06-25T11:47:27Z</time>
      </trkpt>
      <trkpt lat="46.39787" lon="4.73963">
        <ele>285.6</ele>
        <time>2022-06-25T11:47:28Z</time>
      </trkpt>
      <trkpt lat="46.39784" lon="4.73974">
        <ele>285.2</ele>
        <time>2022-06-25T11:47:29Z</time>
      </trkpt>
      <trkpt lat="46.39781" lon="4.73985">
        <ele>284.8</ele>
        <time>2022-06-25T11:47:30Z</time>
      </trkpt>
      <trkpt lat="46.39778" lon="4.73996">
        <ele>284.6</ele>
        <time>2022-06-25T11:47:31Z</time>
      </trkpt>
      <trkpt lat="46.39774" lon="4.74007">
        <ele>284.4</ele>
        <time>2022-06-25T11:47:32Z</time>
      </trkpt>
      <trkpt lat="46.39772" lon="4.74018">
        <ele>284.4</ele>
        <time>2022-06-25T11:47:33Z</time>
      </trkpt>
      <trkpt lat="46.39769" lon="4.74029">
        <ele>283.8</ele>
        <time>2022-06-25T11:47:34Z</time>
      </trkpt>
      <trkpt lat="46.39766" lon="4.74039">
        <ele>283.6</ele>
        <time>2022-06-25T11:47:35Z</time>
      </trkpt>
      <trkpt lat="46.39763" lon="4.74049">
        <ele>283.6</ele>
        <time>2022-06-25T11:47:36Z</time>
      </trkpt>
      <trkpt lat="46.39759" lon="4.74059">
        <ele>283.2</ele>
        <time>2022-06-25T11:47:37Z</time>
      </trkpt>
      <trkpt lat="46.39756" lon="4.7407">
        <ele>283.2</ele>
        <time>2022-06-25T11:47:38Z</time>
      </trkpt>
      <trkpt lat="46.39753" lon="4.74079">
        <ele>283.2</ele>
        <time>2022-06-25T11:47:39Z</time>
      </trkpt>
      <trkpt lat="46.3975" lon="4.74089">
        <ele>283</ele>
        <time>2022-06-25T11:47:40Z</time>
      </trkpt>
      <trkpt lat="46.39747" lon="4.74099">
        <ele>283</ele>
        <time>2022-06-25T11:47:42Z</time>
      </trkpt>
      <trkpt lat="46.39744" lon="4.74109">
        <ele>282.8</ele>
        <time>2022-06-25T11:47:43Z</time>
      </trkpt>
      <trkpt lat="46.39741" lon="4.74118">
        <ele>282.8</ele>
        <time>2022-06-25T11:47:44Z</time>
      </trkpt>
      <trkpt lat="46.39737" lon="4.74127">
        <ele>282.8</ele>
        <time>2022-06-25T11:47:45Z</time>
      </trkpt>
      <trkpt lat="46.39734" lon="4.74135">
        <ele>282.8</ele>
        <time>2022-06-25T11:47:46Z</time>
      </trkpt>
      <trkpt lat="46.3973" lon="4.74142">
        <ele>283</ele>
        <time>2022-06-25T11:47:47Z</time>
      </trkpt>
      <trkpt lat="46.39726" lon="4.74148">
        <ele>283</ele>
        <time>2022-06-25T11:47:48Z</time>
      </trkpt>
      <trkpt lat="46.39722" lon="4.74153">
        <ele>283.4</ele>
        <time>2022-06-25T11:47:49Z</time>
      </trkpt>
      <trkpt lat="46.39718" lon="4.74157">
        <ele>283.8</ele>
        <time>2022-06-25T11:47:50Z</time>
      </trkpt>
      <trkpt lat="46.39715" lon="4.74162">
        <ele>284</ele>
        <time>2022-06-25T11:47:51Z</time>
      </trkpt>
      <trkpt lat="46.39711" lon="4.74166">
        <ele>284.4</ele>
        <time>2022-06-25T11:47:52Z</time>
      </trkpt>
      <trkpt lat="46.39706" lon="4.74169">
        <ele>284.8</ele>
        <time>2022-06-25T11:47:53Z</time>
      </trkpt>
      <trkpt lat="46.39702" lon="4.74171">
        <ele>285</ele>
        <time>2022-06-25T11:47:54Z</time>
      </trkpt>
      <trkpt lat="46.39698" lon="4.74171">
        <ele>285.2</ele>
        <time>2022-06-25T11:47:55Z</time>
      </trkpt>
      <trkpt lat="46.39693" lon="4.74171">
        <ele>285.2</ele>
        <time>2022-06-25T11:47:56Z</time>
      </trkpt>
      <trkpt lat="46.39689" lon="4.74171">
        <ele>285.6</ele>
        <time>2022-06-25T11:47:57Z</time>
      </trkpt>
      <trkpt lat="46.39685" lon="4.74171">
        <ele>285.6</ele>
        <time>2022-06-25T11:47:58Z</time>
      </trkpt>
      <trkpt lat="46.39681" lon="4.74171">
        <ele>285.8</ele>
        <time>2022-06-25T11:47:59Z</time>
      </trkpt>
      <trkpt lat="46.39677" lon="4.74171">
        <ele>285.8</ele>
        <time>2022-06-25T11:48:00Z</time>
      </trkpt>
      <trkpt lat="46.39673" lon="4.74171">
        <ele>286.2</ele>
        <time>2022-06-25T11:48:01Z</time>
      </trkpt>
      <trkpt lat="46.39669" lon="4.7417">
        <ele>286.2</ele>
        <time>2022-06-25T11:48:02Z</time>
      </trkpt>
      <trkpt lat="46.39665" lon="4.7417">
        <ele>286.4</ele>
        <time>2022-06-25T11:48:03Z</time>
      </trkpt>
      <trkpt lat="46.39662" lon="4.7417">
        <ele>286.4</ele>
        <time>2022-06-25T11:48:04Z</time>
      </trkpt>
      <trkpt lat="46.39659" lon="4.7417">
        <ele>286.8</ele>
        <time>2022-06-25T11:48:05Z</time>
      </trkpt>
      <trkpt lat="46.39655" lon="4.74169">
        <ele>286.8</ele>
        <time>2022-06-25T11:48:06Z</time>
      </trkpt>
      <trkpt lat="46.39652" lon="4.74169">
        <ele>287.2</ele>
        <time>2022-06-25T11:48:07Z</time>
      </trkpt>
      <trkpt lat="46.39648" lon="4.74168">
        <ele>287.2</ele>
        <time>2022-06-25T11:48:08Z</time>
      </trkpt>
      <trkpt lat="46.39645" lon="4.74168">
        <ele>287.4</ele>
        <time>2022-06-25T11:48:09Z</time>
      </trkpt>
      <trkpt lat="46.39642" lon="4.74168">
        <ele>287.4</ele>
        <time>2022-06-25T11:48:10Z</time>
      </trkpt>
      <trkpt lat="46.39639" lon="4.74168">
        <ele>287.8</ele>
        <time>2022-06-25T11:48:11Z</time>
      </trkpt>
      <trkpt lat="46.39636" lon="4.74168">
        <ele>287.8</ele>
        <time>2022-06-25T11:48:12Z</time>
      </trkpt>
      <trkpt lat="46.39633" lon="4.74167">
        <ele>288.4</ele>
        <time>2022-06-25T11:48:13Z</time>
      </trkpt>
      <trkpt lat="46.3963" lon="4.74167">
        <ele>288.4</ele>
        <time>2022-06-25T11:48:14Z</time>
      </trkpt>
      <trkpt lat="46.39627" lon="4.74166">
        <ele>288.4</ele>
        <time>2022-06-25T11:48:15Z</time>
      </trkpt>
      <trkpt lat="46.39624" lon="4.74165">
        <ele>288.6</ele>
        <time>2022-06-25T11:48:16Z</time>
      </trkpt>
      <trkpt lat="46.39621" lon="4.74165">
        <ele>288.6</ele>
        <time>2022-06-25T11:48:17Z</time>
      </trkpt>
      <trkpt lat="46.39618" lon="4.74164">
        <ele>289</ele>
        <time>2022-06-25T11:48:18Z</time>
      </trkpt>
      <trkpt lat="46.39615" lon="4.74163">
        <ele>289</ele>
        <time>2022-06-25T11:48:19Z</time>
      </trkpt>
      <trkpt lat="46.39612" lon="4.74163">
        <ele>289.2</ele>
        <time>2022-06-25T11:48:20Z</time>
      </trkpt>
      <trkpt lat="46.39609" lon="4.74162">
        <ele>289.2</ele>
        <time>2022-06-25T11:48:21Z</time>
      </trkpt>
      <trkpt lat="46.39606" lon="4.74162">
        <ele>289.6</ele>
        <time>2022-06-25T11:48:22Z</time>
      </trkpt>
      <trkpt lat="46.39603" lon="4.74161">
        <ele>289.6</ele>
        <time>2022-06-25T11:48:23Z</time>
      </trkpt>
      <trkpt lat="46.396" lon="4.74159">
        <ele>290</ele>
        <time>2022-06-25T11:48:24Z</time>
      </trkpt>
      <trkpt lat="46.39598" lon="4.74158">
        <ele>290</ele>
        <time>2022-06-25T11:48:25Z</time>
      </trkpt>
      <trkpt lat="46.39595" lon="4.74157">
        <ele>290.2</ele>
        <time>2022-06-25T11:48:26Z</time>
      </trkpt>
      <trkpt lat="46.39592" lon="4.74155">
        <ele>290.2</ele>
        <time>2022-06-25T11:48:27Z</time>
      </trkpt>
      <trkpt lat="46.39589" lon="4.74155">
        <ele>290.6</ele>
        <time>2022-06-25T11:48:28Z</time>
      </trkpt>
      <trkpt lat="46.39586" lon="4.74154">
        <ele>290.6</ele>
        <time>2022-06-25T11:48:29Z</time>
      </trkpt>
      <trkpt lat="46.39583" lon="4.74153">
        <ele>290.8</ele>
        <time>2022-06-25T11:48:30Z</time>
      </trkpt>
      <trkpt lat="46.3958" lon="4.74152">
        <ele>290.8</ele>
        <time>2022-06-25T11:48:31Z</time>
      </trkpt>
      <trkpt lat="46.39577" lon="4.74151">
        <ele>291.2</ele>
        <time>2022-06-25T11:48:32Z</time>
      </trkpt>
      <trkpt lat="46.39575" lon="4.7415">
        <ele>291.2</ele>
        <time>2022-06-25T11:48:33Z</time>
      </trkpt>
      <trkpt lat="46.39571" lon="4.7415">
        <ele>291.4</ele>
        <time>2022-06-25T11:48:34Z</time>
      </trkpt>
      <trkpt lat="46.39568" lon="4.74149">
        <ele>291.4</ele>
        <time>2022-06-25T11:48:35Z</time>
      </trkpt>
      <trkpt lat="46.39565" lon="4.74148">
        <ele>291.8</ele>
        <time>2022-06-25T11:48:36Z</time>
      </trkpt>
      <trkpt lat="46.39562" lon="4.74148">
        <ele>291.8</ele>
        <time>2022-06-25T11:48:37Z</time>
      </trkpt>
      <trkpt lat="46.39559" lon="4.74147">
        <ele>292.2</ele>
        <time>2022-06-25T11:48:38Z</time>
      </trkpt>
      <trkpt lat="46.39556" lon="4.74148">
        <ele>292.2</ele>
        <time>2022-06-25T11:48:39Z</time>
      </trkpt>
      <trkpt lat="46.39553" lon="4.74148">
        <ele>292.4</ele>
        <time>2022-06-25T11:48:40Z</time>
      </trkpt>
      <trkpt lat="46.3955" lon="4.74148">
        <ele>292.4</ele>
        <time>2022-06-25T11:48:41Z</time>
      </trkpt>
      <trkpt lat="46.39547" lon="4.74148">
        <ele>292.8</ele>
        <time>2022-06-25T11:48:42Z</time>
      </trkpt>
      <trkpt lat="46.39544" lon="4.74147">
        <ele>292.8</ele>
        <time>2022-06-25T11:48:43Z</time>
      </trkpt>
      <trkpt lat="46.39541" lon="4.74146">
        <ele>293</ele>
        <time>2022-06-25T11:48:44Z</time>
      </trkpt>
      <trkpt lat="46.39539" lon="4.74145">
        <ele>293</ele>
        <time>2022-06-25T11:48:45Z</time>
      </trkpt>
      <trkpt lat="46.39536" lon="4.74143">
        <ele>293</ele>
        <time>2022-06-25T11:48:46Z</time>
      </trkpt>
      <trkpt lat="46.39534" lon="4.7414">
        <ele>293.4</ele>
        <time>2022-06-25T11:48:47Z</time>
      </trkpt>
      <trkpt lat="46.39531" lon="4.74138">
        <ele>293.4</ele>
        <time>2022-06-25T11:48:48Z</time>
      </trkpt>
      <trkpt lat="46.39528" lon="4.74136">
        <ele>293.6</ele>
        <time>2022-06-25T11:48:49Z</time>
      </trkpt>
      <trkpt lat="46.39525" lon="4.74134">
        <ele>293.6</ele>
        <time>2022-06-25T11:48:50Z</time>
      </trkpt>
      <trkpt lat="46.39521" lon="4.74133">
        <ele>293.8</ele>
        <time>2022-06-25T11:48:51Z</time>
      </trkpt>
      <trkpt lat="46.39518" lon="4.74132">
        <ele>293.8</ele>
        <time>2022-06-25T11:48:52Z</time>
      </trkpt>
      <trkpt lat="46.39514" lon="4.74131">
        <ele>294</ele>
        <time>2022-06-25T11:48:53Z</time>
      </trkpt>
      <trkpt lat="46.39511" lon="4.7413">
        <ele>294</ele>
        <time>2022-06-25T11:48:54Z</time>
      </trkpt>
      <trkpt lat="46.39508" lon="4.74128">
        <ele>294.4</ele>
        <time>2022-06-25T11:48:55Z</time>
      </trkpt>
      <trkpt lat="46.39504" lon="4.74128">
        <ele>294.4</ele>
        <time>2022-06-25T11:48:56Z</time>
      </trkpt>
      <trkpt lat="46.39501" lon="4.74127">
        <ele>294.4</ele>
        <time>2022-06-25T11:48:57Z</time>
      </trkpt>
      <trkpt lat="46.39498" lon="4.74126">
        <ele>294.4</ele>
        <time>2022-06-25T11:48:58Z</time>
      </trkpt>
      <trkpt lat="46.39494" lon="4.74125">
        <ele>294.4</ele>
        <time>2022-06-25T11:48:59Z</time>
      </trkpt>
      <trkpt lat="46.39491" lon="4.74124">
        <ele>294.6</ele>
        <time>2022-06-25T11:49:00Z</time>
      </trkpt>
      <trkpt lat="46.39487" lon="4.74122">
        <ele>294.6</ele>
        <time>2022-06-25T11:49:01Z</time>
      </trkpt>
      <trkpt lat="46.39484" lon="4.74121">
        <ele>294.6</ele>
        <time>2022-06-25T11:49:02Z</time>
      </trkpt>
      <trkpt lat="46.3948" lon="4.7412">
        <ele>295</ele>
        <time>2022-06-25T11:49:03Z</time>
      </trkpt>
      <trkpt lat="46.39477" lon="4.74119">
        <ele>295</ele>
        <time>2022-06-25T11:49:04Z</time>
      </trkpt>
      <trkpt lat="46.39473" lon="4.74118">
        <ele>295.2</ele>
        <time>2022-06-25T11:49:05Z</time>
      </trkpt>
      <trkpt lat="46.3947" lon="4.74116">
        <ele>295.2</ele>
        <time>2022-06-25T11:49:06Z</time>
      </trkpt>
      <trkpt lat="46.39465" lon="4.74114">
        <ele>295.6</ele>
        <time>2022-06-25T11:49:07Z</time>
      </trkpt>
      <trkpt lat="46.39463" lon="4.74113">
        <ele>295.6</ele>
        <time>2022-06-25T11:49:08Z</time>
      </trkpt>
      <trkpt lat="46.3946" lon="4.74112">
        <ele>295.8</ele>
        <time>2022-06-25T11:49:09Z</time>
      </trkpt>
      <trkpt lat="46.39457" lon="4.74111">
        <ele>295.8</ele>
        <time>2022-06-25T11:49:10Z</time>
      </trkpt>
      <trkpt lat="46.39453" lon="4.7411">
        <ele>296.2</ele>
        <time>2022-06-25T11:49:11Z</time>
      </trkpt>
      <trkpt lat="46.3945" lon="4.74109">
        <ele>296.2</ele>
        <time>2022-06-25T11:49:12Z</time>
      </trkpt>
      <trkpt lat="46.39447" lon="4.74108">
        <ele>296.4</ele>
        <time>2022-06-25T11:49:13Z</time>
      </trkpt>
      <trkpt lat="46.39443" lon="4.74107">
        <ele>296.4</ele>
        <time>2022-06-25T11:49:14Z</time>
      </trkpt>
      <trkpt lat="46.3944" lon="4.74106">
        <ele>296.4</ele>
        <time>2022-06-25T11:49:15Z</time>
      </trkpt>
      <trkpt lat="46.39436" lon="4.74105">
        <ele>296.8</ele>
        <time>2022-06-25T11:49:16Z</time>
      </trkpt>
      <trkpt lat="46.39433" lon="4.74104">
        <ele>296.8</ele>
        <time>2022-06-25T11:49:17Z</time>
      </trkpt>
      <trkpt lat="46.3943" lon="4.74103">
        <ele>296.8</ele>
        <time>2022-06-25T11:49:18Z</time>
      </trkpt>
      <trkpt lat="46.39426" lon="4.74102">
        <ele>297</ele>
        <time>2022-06-25T11:49:19Z</time>
      </trkpt>
      <trkpt lat="46.39422" lon="4.74101">
        <ele>297</ele>
        <time>2022-06-25T11:49:20Z</time>
      </trkpt>
      <trkpt lat="46.39419" lon="4.741">
        <ele>297.2</ele>
        <time>2022-06-25T11:49:21Z</time>
      </trkpt>
      <trkpt lat="46.39415" lon="4.74099">
        <ele>297.2</ele>
        <time>2022-06-25T11:49:22Z</time>
      </trkpt>
      <trkpt lat="46.39412" lon="4.74098">
        <ele>297.2</ele>
        <time>2022-06-25T11:49:23Z</time>
      </trkpt>
      <trkpt lat="46.39408" lon="4.74097">
        <ele>297.6</ele>
        <time>2022-06-25T11:49:24Z</time>
      </trkpt>
      <trkpt lat="46.39405" lon="4.74096">
        <ele>297.6</ele>
        <time>2022-06-25T11:49:25Z</time>
      </trkpt>
      <trkpt lat="46.39401" lon="4.74094">
        <ele>297.8</ele>
        <time>2022-06-25T11:49:26Z</time>
      </trkpt>
      <trkpt lat="46.39398" lon="4.74093">
        <ele>297.8</ele>
        <time>2022-06-25T11:49:27Z</time>
      </trkpt>
      <trkpt lat="46.39394" lon="4.74091">
        <ele>298.2</ele>
        <time>2022-06-25T11:49:28Z</time>
      </trkpt>
      <trkpt lat="46.39391" lon="4.7409">
        <ele>298.2</ele>
        <time>2022-06-25T11:49:29Z</time>
      </trkpt>
      <trkpt lat="46.39388" lon="4.74088">
        <ele>298.4</ele>
        <time>2022-06-25T11:49:30Z</time>
      </trkpt>
      <trkpt lat="46.39384" lon="4.74087">
        <ele>298.4</ele>
        <time>2022-06-25T11:49:31Z</time>
      </trkpt>
      <trkpt lat="46.39381" lon="4.74086">
        <ele>298.8</ele>
        <time>2022-06-25T11:49:32Z</time>
      </trkpt>
      <trkpt lat="46.39377" lon="4.74085">
        <ele>298.8</ele>
        <time>2022-06-25T11:49:33Z</time>
      </trkpt>
      <trkpt lat="46.39372" lon="4.74084">
        <ele>299</ele>
        <time>2022-06-25T11:49:34Z</time>
      </trkpt>
      <trkpt lat="46.3937" lon="4.74083">
        <ele>299</ele>
        <time>2022-06-25T11:49:35Z</time>
      </trkpt>
      <trkpt lat="46.39366" lon="4.74083">
        <ele>299</ele>
        <time>2022-06-25T11:49:36Z</time>
      </trkpt>
      <trkpt lat="46.39363" lon="4.74082">
        <ele>299.2</ele>
        <time>2022-06-25T11:49:37Z</time>
      </trkpt>
      <trkpt lat="46.39359" lon="4.74081">
        <ele>299.2</ele>
        <time>2022-06-25T11:49:38Z</time>
      </trkpt>
      <trkpt lat="46.39356" lon="4.7408">
        <ele>299.6</ele>
        <time>2022-06-25T11:49:39Z</time>
      </trkpt>
      <trkpt lat="46.39352" lon="4.74079">
        <ele>299.6</ele>
        <time>2022-06-25T11:49:40Z</time>
      </trkpt>
      <trkpt lat="46.39349" lon="4.74078">
        <ele>300</ele>
        <time>2022-06-25T11:49:41Z</time>
      </trkpt>
      <trkpt lat="46.39345" lon="4.74077">
        <ele>300</ele>
        <time>2022-06-25T11:49:42Z</time>
      </trkpt>
      <trkpt lat="46.39341" lon="4.74076">
        <ele>300.4</ele>
        <time>2022-06-25T11:49:43Z</time>
      </trkpt>
      <trkpt lat="46.39337" lon="4.74075">
        <ele>300.4</ele>
        <time>2022-06-25T11:49:44Z</time>
      </trkpt>
      <trkpt lat="46.39333" lon="4.74074">
        <ele>300.6</ele>
        <time>2022-06-25T11:49:45Z</time>
      </trkpt>
      <trkpt lat="46.3933" lon="4.74072">
        <ele>300.6</ele>
        <time>2022-06-25T11:49:46Z</time>
      </trkpt>
      <trkpt lat="46.39326" lon="4.74071">
        <ele>300.6</ele>
        <time>2022-06-25T11:49:47Z</time>
      </trkpt>
      <trkpt lat="46.39322" lon="4.74071">
        <ele>300.8</ele>
        <time>2022-06-25T11:49:48Z</time>
      </trkpt>
      <trkpt lat="46.39318" lon="4.7407">
        <ele>300.8</ele>
        <time>2022-06-25T11:49:49Z</time>
      </trkpt>
      <trkpt lat="46.39314" lon="4.74069">
        <ele>300.8</ele>
        <time>2022-06-25T11:49:50Z</time>
      </trkpt>
      <trkpt lat="46.3931" lon="4.74068">
        <ele>301.2</ele>
        <time>2022-06-25T11:49:51Z</time>
      </trkpt>
      <trkpt lat="46.39306" lon="4.74067">
        <ele>301.2</ele>
        <time>2022-06-25T11:49:52Z</time>
      </trkpt>
      <trkpt lat="46.39302" lon="4.74065">
        <ele>301.2</ele>
        <time>2022-06-25T11:49:53Z</time>
      </trkpt>
      <trkpt lat="46.39298" lon="4.74064">
        <ele>301.4</ele>
        <time>2022-06-25T11:49:54Z</time>
      </trkpt>
      <trkpt lat="46.39294" lon="4.74063">
        <ele>301.4</ele>
        <time>2022-06-25T11:49:55Z</time>
      </trkpt>
      <trkpt lat="46.3929" lon="4.74062">
        <ele>301.4</ele>
        <time>2022-06-25T11:49:56Z</time>
      </trkpt>
      <trkpt lat="46.39286" lon="4.74061">
        <ele>301.6</ele>
        <time>2022-06-25T11:49:57Z</time>
      </trkpt>
      <trkpt lat="46.39281" lon="4.7406">
        <ele>301.6</ele>
        <time>2022-06-25T11:49:58Z</time>
      </trkpt>
      <trkpt lat="46.39277" lon="4.74058">
        <ele>302</ele>
        <time>2022-06-25T11:49:59Z</time>
      </trkpt>
      <trkpt lat="46.39273" lon="4.74057">
        <ele>302</ele>
        <time>2022-06-25T11:50:00Z</time>
      </trkpt>
      <trkpt lat="46.39269" lon="4.74056">
        <ele>302.4</ele>
        <time>2022-06-25T11:50:01Z</time>
      </trkpt>
      <trkpt lat="46.39265" lon="4.74055">
        <ele>302.4</ele>
        <time>2022-06-25T11:50:02Z</time>
      </trkpt>
      <trkpt lat="46.39261" lon="4.74054">
        <ele>302.4</ele>
        <time>2022-06-25T11:50:03Z</time>
      </trkpt>
      <trkpt lat="46.39257" lon="4.74053">
        <ele>302.6</ele>
        <time>2022-06-25T11:50:04Z</time>
      </trkpt>
      <trkpt lat="46.39254" lon="4.74052">
        <ele>302.6</ele>
        <time>2022-06-25T11:50:05Z</time>
      </trkpt>
      <trkpt lat="46.3925" lon="4.74051">
        <ele>302.6</ele>
        <time>2022-06-25T11:50:06Z</time>
      </trkpt>
      <trkpt lat="46.39246" lon="4.7405">
        <ele>303</ele>
        <time>2022-06-25T11:50:07Z</time>
      </trkpt>
      <trkpt lat="46.39242" lon="4.74049">
        <ele>303</ele>
        <time>2022-06-25T11:50:08Z</time>
      </trkpt>
      <trkpt lat="46.39239" lon="4.74048">
        <ele>303.2</ele>
        <time>2022-06-25T11:50:09Z</time>
      </trkpt>
      <trkpt lat="46.39235" lon="4.74047">
        <ele>303.2</ele>
        <time>2022-06-25T11:50:10Z</time>
      </trkpt>
      <trkpt lat="46.39231" lon="4.74047">
        <ele>303.4</ele>
        <time>2022-06-25T11:50:11Z</time>
      </trkpt>
      <trkpt lat="46.39227" lon="4.74045">
        <ele>303.4</ele>
        <time>2022-06-25T11:50:12Z</time>
      </trkpt>
      <trkpt lat="46.39224" lon="4.74044">
        <ele>303.4</ele>
        <time>2022-06-25T11:50:13Z</time>
      </trkpt>
      <trkpt lat="46.3922" lon="4.74042">
        <ele>303.4</ele>
        <time>2022-06-25T11:50:14Z</time>
      </trkpt>
      <trkpt lat="46.39216" lon="4.74041">
        <ele>303.4</ele>
        <time>2022-06-25T11:50:15Z</time>
      </trkpt>
      <trkpt lat="46.39212" lon="4.7404">
        <ele>303.6</ele>
        <time>2022-06-25T11:50:16Z</time>
      </trkpt>
      <trkpt lat="46.39208" lon="4.74039">
        <ele>303.6</ele>
        <time>2022-06-25T11:50:17Z</time>
      </trkpt>
      <trkpt lat="46.39204" lon="4.74038">
        <ele>303.6</ele>
        <time>2022-06-25T11:50:18Z</time>
      </trkpt>
      <trkpt lat="46.392" lon="4.74037">
        <ele>303.6</ele>
        <time>2022-06-25T11:50:19Z</time>
      </trkpt>
      <trkpt lat="46.39196" lon="4.74036">
        <ele>303.8</ele>
        <time>2022-06-25T11:50:20Z</time>
      </trkpt>
      <trkpt lat="46.39192" lon="4.74035">
        <ele>303.8</ele>
        <time>2022-06-25T11:50:21Z</time>
      </trkpt>
      <trkpt lat="46.39188" lon="4.74034">
        <ele>303.8</ele>
        <time>2022-06-25T11:50:22Z</time>
      </trkpt>
      <trkpt lat="46.39184" lon="4.74032">
        <ele>304.2</ele>
        <time>2022-06-25T11:50:23Z</time>
      </trkpt>
      <trkpt lat="46.3918" lon="4.74031">
        <ele>304.2</ele>
        <time>2022-06-25T11:50:24Z</time>
      </trkpt>
      <trkpt lat="46.39176" lon="4.74031">
        <ele>304.2</ele>
        <time>2022-06-25T11:50:25Z</time>
      </trkpt>
      <trkpt lat="46.39173" lon="4.7403">
        <ele>304.4</ele>
        <time>2022-06-25T11:50:26Z</time>
      </trkpt>
      <trkpt lat="46.39169" lon="4.74029">
        <ele>304.4</ele>
        <time>2022-06-25T11:50:27Z</time>
      </trkpt>
      <trkpt lat="46.39165" lon="4.74028">
        <ele>304.8</ele>
        <time>2022-06-25T11:50:28Z</time>
      </trkpt>
      <trkpt lat="46.39157" lon="4.74025">
        <ele>304.8</ele>
        <time>2022-06-25T11:50:29Z</time>
      </trkpt>
      <trkpt lat="46.39154" lon="4.74024">
        <ele>305</ele>
        <time>2022-06-25T11:50:30Z</time>
      </trkpt>
      <trkpt lat="46.3915" lon="4.74023">
        <ele>305</ele>
        <time>2022-06-25T11:50:31Z</time>
      </trkpt>
      <trkpt lat="46.39146" lon="4.74022">
        <ele>305.4</ele>
        <time>2022-06-25T11:50:32Z</time>
      </trkpt>
      <trkpt lat="46.39142" lon="4.74021">
        <ele>305.4</ele>
        <time>2022-06-25T11:50:33Z</time>
      </trkpt>
      <trkpt lat="46.39139" lon="4.74019">
        <ele>305.4</ele>
        <time>2022-06-25T11:50:34Z</time>
      </trkpt>
      <trkpt lat="46.39135" lon="4.74018">
        <ele>305.6</ele>
        <time>2022-06-25T11:50:35Z</time>
      </trkpt>
      <trkpt lat="46.39131" lon="4.74016">
        <ele>305.8</ele>
        <time>2022-06-25T11:50:36Z</time>
      </trkpt>
      <trkpt lat="46.39128" lon="4.74015">
        <ele>305.8</ele>
        <time>2022-06-25T11:50:37Z</time>
      </trkpt>
      <trkpt lat="46.39124" lon="4.74014">
        <ele>305.8</ele>
        <time>2022-06-25T11:50:38Z</time>
      </trkpt>
      <trkpt lat="46.3912" lon="4.74013">
        <ele>306</ele>
        <time>2022-06-25T11:50:39Z</time>
      </trkpt>
      <trkpt lat="46.39117" lon="4.74012">
        <ele>306</ele>
        <time>2022-06-25T11:50:40Z</time>
      </trkpt>
      <trkpt lat="46.39113" lon="4.74011">
        <ele>306.4</ele>
        <time>2022-06-25T11:50:41Z</time>
      </trkpt>
      <trkpt lat="46.39109" lon="4.7401">
        <ele>306.4</ele>
        <time>2022-06-25T11:50:42Z</time>
      </trkpt>
      <trkpt lat="46.39106" lon="4.74009">
        <ele>306.6</ele>
        <time>2022-06-25T11:50:43Z</time>
      </trkpt>
      <trkpt lat="46.39102" lon="4.74008">
        <ele>306.6</ele>
        <time>2022-06-25T11:50:44Z</time>
      </trkpt>
      <trkpt lat="46.39098" lon="4.74006">
        <ele>306.8</ele>
        <time>2022-06-25T11:50:45Z</time>
      </trkpt>
      <trkpt lat="46.39095" lon="4.74005">
        <ele>306.8</ele>
        <time>2022-06-25T11:50:46Z</time>
      </trkpt>
      <trkpt lat="46.39091" lon="4.74003">
        <ele>307.2</ele>
        <time>2022-06-25T11:50:47Z</time>
      </trkpt>
      <trkpt lat="46.39087" lon="4.74002">
        <ele>307.2</ele>
        <time>2022-06-25T11:50:48Z</time>
      </trkpt>
      <trkpt lat="46.39084" lon="4.74001">
        <ele>307.4</ele>
        <time>2022-06-25T11:50:49Z</time>
      </trkpt>
      <trkpt lat="46.3908" lon="4.74">
        <ele>307.4</ele>
        <time>2022-06-25T11:50:50Z</time>
      </trkpt>
      <trkpt lat="46.39076" lon="4.73999">
        <ele>307.4</ele>
        <time>2022-06-25T11:50:51Z</time>
      </trkpt>
      <trkpt lat="46.39073" lon="4.73998">
        <ele>307.8</ele>
        <time>2022-06-25T11:50:52Z</time>
      </trkpt>
      <trkpt lat="46.39069" lon="4.73997">
        <ele>307.8</ele>
        <time>2022-06-25T11:50:53Z</time>
      </trkpt>
      <trkpt lat="46.39066" lon="4.73995">
        <ele>307.8</ele>
        <time>2022-06-25T11:50:54Z</time>
      </trkpt>
      <trkpt lat="46.39062" lon="4.73993">
        <ele>308</ele>
        <time>2022-06-25T11:50:55Z</time>
      </trkpt>
      <trkpt lat="46.39058" lon="4.73992">
        <ele>308</ele>
        <time>2022-06-25T11:50:56Z</time>
      </trkpt>
      <trkpt lat="46.39054" lon="4.73991">
        <ele>308</ele>
        <time>2022-06-25T11:50:57Z</time>
      </trkpt>
      <trkpt lat="46.39051" lon="4.73989">
        <ele>308.4</ele>
        <time>2022-06-25T11:50:58Z</time>
      </trkpt>
      <trkpt lat="46.39047" lon="4.73988">
        <ele>308.4</ele>
        <time>2022-06-25T11:50:59Z</time>
      </trkpt>
      <trkpt lat="46.39043" lon="4.73987">
        <ele>308.6</ele>
        <time>2022-06-25T11:51:00Z</time>
      </trkpt>
      <trkpt lat="46.39039" lon="4.73986">
        <ele>308.8</ele>
        <time>2022-06-25T11:51:01Z</time>
      </trkpt>
      <trkpt lat="46.39036" lon="4.73984">
        <ele>308.8</ele>
        <time>2022-06-25T11:51:02Z</time>
      </trkpt>
      <trkpt lat="46.39032" lon="4.73983">
        <ele>309</ele>
        <time>2022-06-25T11:51:03Z</time>
      </trkpt>
      <trkpt lat="46.39028" lon="4.73982">
        <ele>309</ele>
        <time>2022-06-25T11:51:04Z</time>
      </trkpt>
      <trkpt lat="46.39024" lon="4.73981">
        <ele>309.2</ele>
        <time>2022-06-25T11:51:05Z</time>
      </trkpt>
      <trkpt lat="46.3902" lon="4.73979">
        <ele>309.2</ele>
        <time>2022-06-25T11:51:06Z</time>
      </trkpt>
      <trkpt lat="46.39015" lon="4.73978">
        <ele>309.2</ele>
        <time>2022-06-25T11:51:07Z</time>
      </trkpt>
      <trkpt lat="46.39011" lon="4.73976">
        <ele>309.4</ele>
        <time>2022-06-25T11:51:08Z</time>
      </trkpt>
      <trkpt lat="46.39007" lon="4.73974">
        <ele>309.4</ele>
        <time>2022-06-25T11:51:09Z</time>
      </trkpt>
      <trkpt lat="46.39003" lon="4.73973">
        <ele>309.4</ele>
        <time>2022-06-25T11:51:10Z</time>
      </trkpt>
      <trkpt lat="46.38999" lon="4.73971">
        <ele>309.4</ele>
        <time>2022-06-25T11:51:11Z</time>
      </trkpt>
      <trkpt lat="46.38994" lon="4.7397">
        <ele>309.4</ele>
        <time>2022-06-25T11:51:12Z</time>
      </trkpt>
      <trkpt lat="46.3899" lon="4.73968">
        <ele>309.8</ele>
        <time>2022-06-25T11:51:13Z</time>
      </trkpt>
      <trkpt lat="46.38985" lon="4.73967">
        <ele>309.8</ele>
        <time>2022-06-25T11:51:14Z</time>
      </trkpt>
      <trkpt lat="46.38981" lon="4.73965">
        <ele>309.8</ele>
        <time>2022-06-25T11:51:15Z</time>
      </trkpt>
      <trkpt lat="46.38976" lon="4.73964">
        <ele>309.8</ele>
        <time>2022-06-25T11:51:16Z</time>
      </trkpt>
      <trkpt lat="46.38971" lon="4.73962">
        <ele>309.8</ele>
        <time>2022-06-25T11:51:17Z</time>
      </trkpt>
      <trkpt lat="46.38966" lon="4.7396">
        <ele>309.8</ele>
        <time>2022-06-25T11:51:18Z</time>
      </trkpt>
      <trkpt lat="46.38961" lon="4.73959">
        <ele>309.8</ele>
        <time>2022-06-25T11:51:19Z</time>
      </trkpt>
      <trkpt lat="46.38956" lon="4.73957">
        <ele>309.8</ele>
        <time>2022-06-25T11:51:20Z</time>
      </trkpt>
      <trkpt lat="46.38951" lon="4.73956">
        <ele>309.8</ele>
        <time>2022-06-25T11:51:21Z</time>
      </trkpt>
      <trkpt lat="46.38945" lon="4.73954">
        <ele>309.8</ele>
        <time>2022-06-25T11:51:22Z</time>
      </trkpt>
      <trkpt lat="46.3894" lon="4.73952">
        <ele>309.8</ele>
        <time>2022-06-25T11:51:23Z</time>
      </trkpt>
      <trkpt lat="46.38934" lon="4.7395">
        <ele>309.8</ele>
        <time>2022-06-25T11:51:24Z</time>
      </trkpt>
      <trkpt lat="46.38928" lon="4.73948">
        <ele>309.8</ele>
        <time>2022-06-25T11:51:25Z</time>
      </trkpt>
      <trkpt lat="46.38922" lon="4.73946">
        <ele>309.8</ele>
        <time>2022-06-25T11:51:26Z</time>
      </trkpt>
      <trkpt lat="46.38915" lon="4.73944">
        <ele>309.8</ele>
        <time>2022-06-25T11:51:27Z</time>
      </trkpt>
      <trkpt lat="46.38909" lon="4.73942">
        <ele>309.4</ele>
        <time>2022-06-25T11:51:28Z</time>
      </trkpt>
      <trkpt lat="46.38903" lon="4.7394">
        <ele>309.4</ele>
        <time>2022-06-25T11:51:29Z</time>
      </trkpt>
      <trkpt lat="46.38896" lon="4.73938">
        <ele>309.4</ele>
        <time>2022-06-25T11:51:30Z</time>
      </trkpt>
      <trkpt lat="46.3889" lon="4.73936">
        <ele>309.4</ele>
        <time>2022-06-25T11:51:31Z</time>
      </trkpt>
      <trkpt lat="46.38884" lon="4.73934">
        <ele>309.2</ele>
        <time>2022-06-25T11:51:32Z</time>
      </trkpt>
      <trkpt lat="46.38877" lon="4.73932">
        <ele>309.2</ele>
        <time>2022-06-25T11:51:33Z</time>
      </trkpt>
      <trkpt lat="46.38871" lon="4.73931">
        <ele>309.2</ele>
        <time>2022-06-25T11:51:34Z</time>
      </trkpt>
      <trkpt lat="46.38865" lon="4.73929">
        <ele>309.2</ele>
        <time>2022-06-25T11:51:35Z</time>
      </trkpt>
      <trkpt lat="46.38859" lon="4.73927">
        <ele>309.2</ele>
        <time>2022-06-25T11:51:36Z</time>
      </trkpt>
      <trkpt lat="46.38853" lon="4.73926">
        <ele>309.2</ele>
        <time>2022-06-25T11:51:37Z</time>
      </trkpt>
      <trkpt lat="46.38847" lon="4.73924">
        <ele>309.2</ele>
        <time>2022-06-25T11:51:38Z</time>
      </trkpt>
      <trkpt lat="46.38841" lon="4.73923">
        <ele>309.2</ele>
        <time>2022-06-25T11:51:39Z</time>
      </trkpt>
      <trkpt lat="46.38835" lon="4.73921">
        <ele>309.2</ele>
        <time>2022-06-25T11:51:40Z</time>
      </trkpt>
      <trkpt lat="46.38829" lon="4.7392">
        <ele>309.2</ele>
        <time>2022-06-25T11:51:41Z</time>
      </trkpt>
      <trkpt lat="46.38823" lon="4.73919">
        <ele>309.2</ele>
        <time>2022-06-25T11:51:42Z</time>
      </trkpt>
      <trkpt lat="46.38817" lon="4.73918">
        <ele>309.2</ele>
        <time>2022-06-25T11:51:43Z</time>
      </trkpt>
      <trkpt lat="46.38811" lon="4.73917">
        <ele>309.2</ele>
        <time>2022-06-25T11:51:44Z</time>
      </trkpt>
      <trkpt lat="46.38805" lon="4.73915">
        <ele>309.2</ele>
        <time>2022-06-25T11:51:45Z</time>
      </trkpt>
      <trkpt lat="46.388" lon="4.73914">
        <ele>309.2</ele>
        <time>2022-06-25T11:51:46Z</time>
      </trkpt>
      <trkpt lat="46.38794" lon="4.73913">
        <ele>309.2</ele>
        <time>2022-06-25T11:51:47Z</time>
      </trkpt>
      <trkpt lat="46.38788" lon="4.73912">
        <ele>309.2</ele>
        <time>2022-06-25T11:51:48Z</time>
      </trkpt>
      <trkpt lat="46.38783" lon="4.7391">
        <ele>309.2</ele>
        <time>2022-06-25T11:51:49Z</time>
      </trkpt>
      <trkpt lat="46.38777" lon="4.73909">
        <ele>309.2</ele>
        <time>2022-06-25T11:51:50Z</time>
      </trkpt>
      <trkpt lat="46.38771" lon="4.73908">
        <ele>309</ele>
        <time>2022-06-25T11:51:51Z</time>
      </trkpt>
      <trkpt lat="46.38765" lon="4.73907">
        <ele>309</ele>
        <time>2022-06-25T11:51:52Z</time>
      </trkpt>
      <trkpt lat="46.38759" lon="4.73905">
        <ele>309</ele>
        <time>2022-06-25T11:51:53Z</time>
      </trkpt>
      <trkpt lat="46.38753" lon="4.73904">
        <ele>309</ele>
        <time>2022-06-25T11:51:54Z</time>
      </trkpt>
      <trkpt lat="46.38747" lon="4.73902">
        <ele>309</ele>
        <time>2022-06-25T11:51:55Z</time>
      </trkpt>
      <trkpt lat="46.38741" lon="4.73901">
        <ele>309</ele>
        <time>2022-06-25T11:51:56Z</time>
      </trkpt>
      <trkpt lat="46.38735" lon="4.73899">
        <ele>308.8</ele>
        <time>2022-06-25T11:51:57Z</time>
      </trkpt>
      <trkpt lat="46.38728" lon="4.73898">
        <ele>308.8</ele>
        <time>2022-06-25T11:51:58Z</time>
      </trkpt>
      <trkpt lat="46.38721" lon="4.73897">
        <ele>308.4</ele>
        <time>2022-06-25T11:51:59Z</time>
      </trkpt>
      <trkpt lat="46.38714" lon="4.73895">
        <ele>308.2</ele>
        <time>2022-06-25T11:52:00Z</time>
      </trkpt>
      <trkpt lat="46.38708" lon="4.73893">
        <ele>308</ele>
        <time>2022-06-25T11:52:01Z</time>
      </trkpt>
      <trkpt lat="46.38701" lon="4.73892">
        <ele>307.6</ele>
        <time>2022-06-25T11:52:02Z</time>
      </trkpt>
      <trkpt lat="46.38694" lon="4.7389">
        <ele>307.2</ele>
        <time>2022-06-25T11:52:03Z</time>
      </trkpt>
      <trkpt lat="46.38687" lon="4.73889">
        <ele>307</ele>
        <time>2022-06-25T11:52:04Z</time>
      </trkpt>
      <trkpt lat="46.38681" lon="4.73888">
        <ele>307</ele>
        <time>2022-06-25T11:52:05Z</time>
      </trkpt>
      <trkpt lat="46.38674" lon="4.73887">
        <ele>306.6</ele>
        <time>2022-06-25T11:52:06Z</time>
      </trkpt>
      <trkpt lat="46.38667" lon="4.73886">
        <ele>306.6</ele>
        <time>2022-06-25T11:52:07Z</time>
      </trkpt>
      <trkpt lat="46.3866" lon="4.73885">
        <ele>306.4</ele>
        <time>2022-06-25T11:52:08Z</time>
      </trkpt>
      <trkpt lat="46.38653" lon="4.73884">
        <ele>306.4</ele>
        <time>2022-06-25T11:52:09Z</time>
      </trkpt>
      <trkpt lat="46.38646" lon="4.73884">
        <ele>306.4</ele>
        <time>2022-06-25T11:52:10Z</time>
      </trkpt>
      <trkpt lat="46.3864" lon="4.73883">
        <ele>306.4</ele>
        <time>2022-06-25T11:52:11Z</time>
      </trkpt>
      <trkpt lat="46.38632" lon="4.73883">
        <ele>306</ele>
        <time>2022-06-25T11:52:12Z</time>
      </trkpt>
      <trkpt lat="46.38625" lon="4.73882">
        <ele>306</ele>
        <time>2022-06-25T11:52:13Z</time>
      </trkpt>
      <trkpt lat="46.38618" lon="4.73882">
        <ele>305.6</ele>
        <time>2022-06-25T11:52:14Z</time>
      </trkpt>
      <trkpt lat="46.38611" lon="4.73882">
        <ele>305.6</ele>
        <time>2022-06-25T11:52:15Z</time>
      </trkpt>
      <trkpt lat="46.38604" lon="4.73881">
        <ele>305.2</ele>
        <time>2022-06-25T11:52:16Z</time>
      </trkpt>
      <trkpt lat="46.38597" lon="4.73881">
        <ele>305.2</ele>
        <time>2022-06-25T11:52:17Z</time>
      </trkpt>
      <trkpt lat="46.38589" lon="4.7388">
        <ele>305</ele>
        <time>2022-06-25T11:52:18Z</time>
      </trkpt>
      <trkpt lat="46.38582" lon="4.73878">
        <ele>305</ele>
        <time>2022-06-25T11:52:19Z</time>
      </trkpt>
      <trkpt lat="46.38575" lon="4.73877">
        <ele>304.8</ele>
        <time>2022-06-25T11:52:20Z</time>
      </trkpt>
      <trkpt lat="46.38568" lon="4.73876">
        <ele>304.8</ele>
        <time>2022-06-25T11:52:21Z</time>
      </trkpt>
      <trkpt lat="46.38561" lon="4.73874">
        <ele>304.4</ele>
        <time>2022-06-25T11:52:22Z</time>
      </trkpt>
      <trkpt lat="46.38554" lon="4.73871">
        <ele>304.4</ele>
        <time>2022-06-25T11:52:23Z</time>
      </trkpt>
      <trkpt lat="46.38547" lon="4.73868">
        <ele>304.2</ele>
        <time>2022-06-25T11:52:24Z</time>
      </trkpt>
      <trkpt lat="46.3854" lon="4.73864">
        <ele>303.8</ele>
        <time>2022-06-25T11:52:25Z</time>
      </trkpt>
      <trkpt lat="46.38532" lon="4.7386">
        <ele>303.8</ele>
        <time>2022-06-25T11:52:26Z</time>
      </trkpt>
      <trkpt lat="46.38525" lon="4.73855">
        <ele>303.4</ele>
        <time>2022-06-25T11:52:27Z</time>
      </trkpt>
      <trkpt lat="46.38518" lon="4.73849">
        <ele>303.2</ele>
        <time>2022-06-25T11:52:28Z</time>
      </trkpt>
      <trkpt lat="46.38511" lon="4.73843">
        <ele>303.2</ele>
        <time>2022-06-25T11:52:29Z</time>
      </trkpt>
      <trkpt lat="46.38505" lon="4.73838">
        <ele>302.8</ele>
        <time>2022-06-25T11:52:30Z</time>
      </trkpt>
      <trkpt lat="46.38498" lon="4.73832">
        <ele>302.8</ele>
        <time>2022-06-25T11:52:31Z</time>
      </trkpt>
      <trkpt lat="46.38492" lon="4.73826">
        <ele>302.6</ele>
        <time>2022-06-25T11:52:32Z</time>
      </trkpt>
      <trkpt lat="46.38486" lon="4.7382">
        <ele>302.6</ele>
        <time>2022-06-25T11:52:33Z</time>
      </trkpt>
      <trkpt lat="46.3848" lon="4.73815">
        <ele>302.6</ele>
        <time>2022-06-25T11:52:34Z</time>
      </trkpt>
      <trkpt lat="46.38474" lon="4.73811">
        <ele>302.6</ele>
        <time>2022-06-25T11:52:35Z</time>
      </trkpt>
      <trkpt lat="46.38468" lon="4.73806">
        <ele>302.6</ele>
        <time>2022-06-25T11:52:36Z</time>
      </trkpt>
      <trkpt lat="46.38462" lon="4.73803">
        <ele>302.6</ele>
        <time>2022-06-25T11:52:37Z</time>
      </trkpt>
      <trkpt lat="46.38456" lon="4.73799">
        <ele>302.6</ele>
        <time>2022-06-25T11:52:38Z</time>
      </trkpt>
      <trkpt lat="46.3845" lon="4.73796">
        <ele>302.6</ele>
        <time>2022-06-25T11:52:39Z</time>
      </trkpt>
      <trkpt lat="46.38445" lon="4.73793">
        <ele>302.6</ele>
        <time>2022-06-25T11:52:40Z</time>
      </trkpt>
      <trkpt lat="46.38439" lon="4.7379">
        <ele>302.6</ele>
        <time>2022-06-25T11:52:41Z</time>
      </trkpt>
      <trkpt lat="46.38434" lon="4.73788">
        <ele>302.8</ele>
        <time>2022-06-25T11:52:42Z</time>
      </trkpt>
      <trkpt lat="46.38428" lon="4.73786">
        <ele>302.8</ele>
        <time>2022-06-25T11:52:43Z</time>
      </trkpt>
      <trkpt lat="46.38423" lon="4.73784">
        <ele>303.2</ele>
        <time>2022-06-25T11:52:44Z</time>
      </trkpt>
      <trkpt lat="46.38419" lon="4.73783">
        <ele>303.2</ele>
        <time>2022-06-25T11:52:45Z</time>
      </trkpt>
      <trkpt lat="46.38414" lon="4.73781">
        <ele>303.6</ele>
        <time>2022-06-25T11:52:46Z</time>
      </trkpt>
      <trkpt lat="46.3841" lon="4.7378">
        <ele>303.6</ele>
        <time>2022-06-25T11:52:47Z</time>
      </trkpt>
      <trkpt lat="46.38406" lon="4.73778">
        <ele>303.8</ele>
        <time>2022-06-25T11:52:48Z</time>
      </trkpt>
      <trkpt lat="46.38401" lon="4.73776">
        <ele>304</ele>
        <time>2022-06-25T11:52:49Z</time>
      </trkpt>
      <trkpt lat="46.38397" lon="4.73774">
        <ele>304.4</ele>
        <time>2022-06-25T11:52:50Z</time>
      </trkpt>
      <trkpt lat="46.38393" lon="4.73773">
        <ele>304.6</ele>
        <time>2022-06-25T11:52:51Z</time>
      </trkpt>
      <trkpt lat="46.38389" lon="4.73772">
        <ele>305</ele>
        <time>2022-06-25T11:52:52Z</time>
      </trkpt>
      <trkpt lat="46.38385" lon="4.7377">
        <ele>305.4</ele>
        <time>2022-06-25T11:52:53Z</time>
      </trkpt>
      <trkpt lat="46.38382" lon="4.73769">
        <ele>305.4</ele>
        <time>2022-06-25T11:52:54Z</time>
      </trkpt>
      <trkpt lat="46.38378" lon="4.73768">
        <ele>305.6</ele>
        <time>2022-06-25T11:52:55Z</time>
      </trkpt>
      <trkpt lat="46.38374" lon="4.73767">
        <ele>305.8</ele>
        <time>2022-06-25T11:52:56Z</time>
      </trkpt>
      <trkpt lat="46.38371" lon="4.73766">
        <ele>306</ele>
        <time>2022-06-25T11:52:57Z</time>
      </trkpt>
      <trkpt lat="46.38367" lon="4.73764">
        <ele>306.4</ele>
        <time>2022-06-25T11:52:58Z</time>
      </trkpt>
      <trkpt lat="46.38363" lon="4.73763">
        <ele>306.6</ele>
        <time>2022-06-25T11:52:59Z</time>
      </trkpt>
      <trkpt lat="46.3836" lon="4.73761">
        <ele>306.8</ele>
        <time>2022-06-25T11:53:00Z</time>
      </trkpt>
      <trkpt lat="46.38356" lon="4.7376">
        <ele>307.2</ele>
        <time>2022-06-25T11:53:01Z</time>
      </trkpt>
      <trkpt lat="46.38352" lon="4.73759">
        <ele>307.2</ele>
        <time>2022-06-25T11:53:02Z</time>
      </trkpt>
      <trkpt lat="46.38348" lon="4.73758">
        <ele>307.6</ele>
        <time>2022-06-25T11:53:03Z</time>
      </trkpt>
      <trkpt lat="46.38345" lon="4.73756">
        <ele>307.8</ele>
        <time>2022-06-25T11:53:04Z</time>
      </trkpt>
      <trkpt lat="46.38341" lon="4.73755">
        <ele>307.8</ele>
        <time>2022-06-25T11:53:05Z</time>
      </trkpt>
      <trkpt lat="46.38337" lon="4.73754">
        <ele>308.4</ele>
        <time>2022-06-25T11:53:06Z</time>
      </trkpt>
      <trkpt lat="46.38334" lon="4.73752">
        <ele>308.6</ele>
        <time>2022-06-25T11:53:07Z</time>
      </trkpt>
      <trkpt lat="46.3833" lon="4.73751">
        <ele>308.8</ele>
        <time>2022-06-25T11:53:08Z</time>
      </trkpt>
      <trkpt lat="46.38326" lon="4.73749">
        <ele>308.8</ele>
        <time>2022-06-25T11:53:09Z</time>
      </trkpt>
      <trkpt lat="46.38322" lon="4.73747">
        <ele>309.2</ele>
        <time>2022-06-25T11:53:10Z</time>
      </trkpt>
      <trkpt lat="46.38319" lon="4.73745">
        <ele>309.2</ele>
        <time>2022-06-25T11:53:11Z</time>
      </trkpt>
      <trkpt lat="46.38315" lon="4.73743">
        <ele>309.4</ele>
        <time>2022-06-25T11:53:12Z</time>
      </trkpt>
      <trkpt lat="46.38311" lon="4.73742">
        <ele>309.4</ele>
        <time>2022-06-25T11:53:13Z</time>
      </trkpt>
      <trkpt lat="46.38308" lon="4.7374">
        <ele>309.8</ele>
        <time>2022-06-25T11:53:14Z</time>
      </trkpt>
      <trkpt lat="46.38304" lon="4.73738">
        <ele>309.8</ele>
        <time>2022-06-25T11:53:15Z</time>
      </trkpt>
      <trkpt lat="46.38301" lon="4.73735">
        <ele>310.2</ele>
        <time>2022-06-25T11:53:16Z</time>
      </trkpt>
      <trkpt lat="46.38297" lon="4.73733">
        <ele>310.2</ele>
        <time>2022-06-25T11:53:17Z</time>
      </trkpt>
      <trkpt lat="46.38294" lon="4.73731">
        <ele>310.6</ele>
        <time>2022-06-25T11:53:18Z</time>
      </trkpt>
      <trkpt lat="46.3829" lon="4.73729">
        <ele>310.6</ele>
        <time>2022-06-25T11:53:19Z</time>
      </trkpt>
      <trkpt lat="46.38287" lon="4.73726">
        <ele>310.8</ele>
        <time>2022-06-25T11:53:20Z</time>
      </trkpt>
      <trkpt lat="46.38283" lon="4.73724">
        <ele>310.8</ele>
        <time>2022-06-25T11:53:21Z</time>
      </trkpt>
      <trkpt lat="46.3828" lon="4.73722">
        <ele>310.8</ele>
        <time>2022-06-25T11:53:22Z</time>
      </trkpt>
      <trkpt lat="46.38276" lon="4.7372">
        <ele>311</ele>
        <time>2022-06-25T11:53:23Z</time>
      </trkpt>
      <trkpt lat="46.38273" lon="4.73717">
        <ele>311</ele>
        <time>2022-06-25T11:53:24Z</time>
      </trkpt>
      <trkpt lat="46.38269" lon="4.73715">
        <ele>311</ele>
        <time>2022-06-25T11:53:25Z</time>
      </trkpt>
      <trkpt lat="46.38266" lon="4.73712">
        <ele>311.4</ele>
        <time>2022-06-25T11:53:26Z</time>
      </trkpt>
      <trkpt lat="46.38262" lon="4.7371">
        <ele>311.4</ele>
        <time>2022-06-25T11:53:27Z</time>
      </trkpt>
      <trkpt lat="46.38257" lon="4.73707">
        <ele>311.4</ele>
        <time>2022-06-25T11:53:28Z</time>
      </trkpt>
      <trkpt lat="46.38253" lon="4.73705">
        <ele>311.6</ele>
        <time>2022-06-25T11:53:29Z</time>
      </trkpt>
      <trkpt lat="46.38249" lon="4.73702">
        <ele>311.8</ele>
        <time>2022-06-25T11:53:30Z</time>
      </trkpt>
      <trkpt lat="46.38244" lon="4.737">
        <ele>311.8</ele>
        <time>2022-06-25T11:53:31Z</time>
      </trkpt>
      <trkpt lat="46.3824" lon="4.73697">
        <ele>311.8</ele>
        <time>2022-06-25T11:53:32Z</time>
      </trkpt>
      <trkpt lat="46.38235" lon="4.73695">
        <ele>311.8</ele>
        <time>2022-06-25T11:53:33Z</time>
      </trkpt>
      <trkpt lat="46.3823" lon="4.73693">
        <ele>311.8</ele>
        <time>2022-06-25T11:53:34Z</time>
      </trkpt>
      <trkpt lat="46.38225" lon="4.73691">
        <ele>311.8</ele>
        <time>2022-06-25T11:53:35Z</time>
      </trkpt>
      <trkpt lat="46.3822" lon="4.73689">
        <ele>311.8</ele>
        <time>2022-06-25T11:53:36Z</time>
      </trkpt>
      <trkpt lat="46.38215" lon="4.73687">
        <ele>311.8</ele>
        <time>2022-06-25T11:53:37Z</time>
      </trkpt>
      <trkpt lat="46.3821" lon="4.73686">
        <ele>311.8</ele>
        <time>2022-06-25T11:53:38Z</time>
      </trkpt>
      <trkpt lat="46.38205" lon="4.73684">
        <ele>311.8</ele>
        <time>2022-06-25T11:53:39Z</time>
      </trkpt>
      <trkpt lat="46.38199" lon="4.73683">
        <ele>311.8</ele>
        <time>2022-06-25T11:53:40Z</time>
      </trkpt>
      <trkpt lat="46.38194" lon="4.73681">
        <ele>311.8</ele>
        <time>2022-06-25T11:53:41Z</time>
      </trkpt>
      <trkpt lat="46.38188" lon="4.7368">
        <ele>311.8</ele>
        <time>2022-06-25T11:53:42Z</time>
      </trkpt>
      <trkpt lat="46.38182" lon="4.73678">
        <ele>311.8</ele>
        <time>2022-06-25T11:53:43Z</time>
      </trkpt>
      <trkpt lat="46.38176" lon="4.73676">
        <ele>311.8</ele>
        <time>2022-06-25T11:53:44Z</time>
      </trkpt>
      <trkpt lat="46.3817" lon="4.73674">
        <ele>311.8</ele>
        <time>2022-06-25T11:53:45Z</time>
      </trkpt>
      <trkpt lat="46.38164" lon="4.73672">
        <ele>311.8</ele>
        <time>2022-06-25T11:53:46Z</time>
      </trkpt>
      <trkpt lat="46.38158" lon="4.73671">
        <ele>311.6</ele>
        <time>2022-06-25T11:53:47Z</time>
      </trkpt>
      <trkpt lat="46.38152" lon="4.73669">
        <ele>311.6</ele>
        <time>2022-06-25T11:53:48Z</time>
      </trkpt>
      <trkpt lat="46.38145" lon="4.73667">
        <ele>311.6</ele>
        <time>2022-06-25T11:53:49Z</time>
      </trkpt>
      <trkpt lat="46.38139" lon="4.73665">
        <ele>311.6</ele>
        <time>2022-06-25T11:53:50Z</time>
      </trkpt>
      <trkpt lat="46.38133" lon="4.73663">
        <ele>311.6</ele>
        <time>2022-06-25T11:53:51Z</time>
      </trkpt>
      <trkpt lat="46.38127" lon="4.73661">
        <ele>311.6</ele>
        <time>2022-06-25T11:53:52Z</time>
      </trkpt>
      <trkpt lat="46.38121" lon="4.73659">
        <ele>311.6</ele>
        <time>2022-06-25T11:53:53Z</time>
      </trkpt>
      <trkpt lat="46.38114" lon="4.73657">
        <ele>311.2</ele>
        <time>2022-06-25T11:53:54Z</time>
      </trkpt>
      <trkpt lat="46.38108" lon="4.73656">
        <ele>311.2</ele>
        <time>2022-06-25T11:53:55Z</time>
      </trkpt>
      <trkpt lat="46.38102" lon="4.73654">
        <ele>311.2</ele>
        <time>2022-06-25T11:53:56Z</time>
      </trkpt>
      <trkpt lat="46.38095" lon="4.73652">
        <ele>311</ele>
        <time>2022-06-25T11:53:57Z</time>
      </trkpt>
      <trkpt lat="46.38089" lon="4.7365">
        <ele>311</ele>
        <time>2022-06-25T11:53:58Z</time>
      </trkpt>
      <trkpt lat="46.38082" lon="4.73648">
        <ele>310.8</ele>
        <time>2022-06-25T11:53:59Z</time>
      </trkpt>
      <trkpt lat="46.38076" lon="4.73646">
        <ele>310.8</ele>
        <time>2022-06-25T11:54:00Z</time>
      </trkpt>
      <trkpt lat="46.38069" lon="4.73643">
        <ele>310.4</ele>
        <time>2022-06-25T11:54:01Z</time>
      </trkpt>
      <trkpt lat="46.38062" lon="4.73641">
        <ele>310.4</ele>
        <time>2022-06-25T11:54:02Z</time>
      </trkpt>
      <trkpt lat="46.38055" lon="4.73639">
        <ele>310.2</ele>
        <time>2022-06-25T11:54:03Z</time>
      </trkpt>
      <trkpt lat="46.38048" lon="4.73636">
        <ele>310.2</ele>
        <time>2022-06-25T11:54:04Z</time>
      </trkpt>
      <trkpt lat="46.38041" lon="4.73634">
        <ele>310</ele>
        <time>2022-06-25T11:54:05Z</time>
      </trkpt>
      <trkpt lat="46.38034" lon="4.73633">
        <ele>310</ele>
        <time>2022-06-25T11:54:06Z</time>
      </trkpt>
      <trkpt lat="46.38026" lon="4.73632">
        <ele>309.6</ele>
        <time>2022-06-25T11:54:07Z</time>
      </trkpt>
      <trkpt lat="46.38019" lon="4.73631">
        <ele>309.2</ele>
        <time>2022-06-25T11:54:08Z</time>
      </trkpt>
      <trkpt lat="46.38011" lon="4.7363">
        <ele>309</ele>
        <time>2022-06-25T11:54:09Z</time>
      </trkpt>
      <trkpt lat="46.38003" lon="4.7363">
        <ele>308.6</ele>
        <time>2022-06-25T11:54:10Z</time>
      </trkpt>
      <trkpt lat="46.37995" lon="4.7363">
        <ele>308.6</ele>
        <time>2022-06-25T11:54:11Z</time>
      </trkpt>
      <trkpt lat="46.37986" lon="4.73631">
        <ele>308</ele>
        <time>2022-06-25T11:54:12Z</time>
      </trkpt>
      <trkpt lat="46.37978" lon="4.73631">
        <ele>307.6</ele>
        <time>2022-06-25T11:54:13Z</time>
      </trkpt>
      <trkpt lat="46.37969" lon="4.73631">
        <ele>307.2</ele>
        <time>2022-06-25T11:54:14Z</time>
      </trkpt>
      <trkpt lat="46.3796" lon="4.7363">
        <ele>306.6</ele>
        <time>2022-06-25T11:54:15Z</time>
      </trkpt>
      <trkpt lat="46.37951" lon="4.73628">
        <ele>306</ele>
        <time>2022-06-25T11:54:16Z</time>
      </trkpt>
      <trkpt lat="46.37943" lon="4.73625">
        <ele>305.2</ele>
        <time>2022-06-25T11:54:17Z</time>
      </trkpt>
      <trkpt lat="46.37935" lon="4.73623">
        <ele>304.6</ele>
        <time>2022-06-25T11:54:18Z</time>
      </trkpt>
      <trkpt lat="46.37927" lon="4.7362">
        <ele>304</ele>
        <time>2022-06-25T11:54:19Z</time>
      </trkpt>
      <trkpt lat="46.37919" lon="4.73618">
        <ele>303.4</ele>
        <time>2022-06-25T11:54:20Z</time>
      </trkpt>
      <trkpt lat="46.37911" lon="4.73615">
        <ele>302.8</ele>
        <time>2022-06-25T11:54:21Z</time>
      </trkpt>
      <trkpt lat="46.37903" lon="4.73613">
        <ele>302.4</ele>
        <time>2022-06-25T11:54:22Z</time>
      </trkpt>
      <trkpt lat="46.37895" lon="4.7361">
        <ele>302</ele>
        <time>2022-06-25T11:54:23Z</time>
      </trkpt>
      <trkpt lat="46.37887" lon="4.73608">
        <ele>301.6</ele>
        <time>2022-06-25T11:54:24Z</time>
      </trkpt>
      <trkpt lat="46.37878" lon="4.73606">
        <ele>301.2</ele>
        <time>2022-06-25T11:54:25Z</time>
      </trkpt>
      <trkpt lat="46.3787" lon="4.73605">
        <ele>300.8</ele>
        <time>2022-06-25T11:54:26Z</time>
      </trkpt>
      <trkpt lat="46.37862" lon="4.73604">
        <ele>300.4</ele>
        <time>2022-06-25T11:54:27Z</time>
      </trkpt>
      <trkpt lat="46.37854" lon="4.73603">
        <ele>300.2</ele>
        <time>2022-06-25T11:54:28Z</time>
      </trkpt>
      <trkpt lat="46.37847" lon="4.73604">
        <ele>300</ele>
        <time>2022-06-25T11:54:30Z</time>
      </trkpt>
      <trkpt lat="46.3784" lon="4.73607">
        <ele>299.8</ele>
        <time>2022-06-25T11:54:31Z</time>
      </trkpt>
      <trkpt lat="46.37834" lon="4.73612">
        <ele>299.8</ele>
        <time>2022-06-25T11:54:32Z</time>
      </trkpt>
      <trkpt lat="46.37828" lon="4.73618">
        <ele>299.6</ele>
        <time>2022-06-25T11:54:33Z</time>
      </trkpt>
      <trkpt lat="46.37822" lon="4.73623">
        <ele>299.6</ele>
        <time>2022-06-25T11:54:34Z</time>
      </trkpt>
      <trkpt lat="46.37816" lon="4.73628">
        <ele>299.4</ele>
        <time>2022-06-25T11:54:35Z</time>
      </trkpt>
      <trkpt lat="46.3781" lon="4.73632">
        <ele>299.4</ele>
        <time>2022-06-25T11:54:36Z</time>
      </trkpt>
      <trkpt lat="46.37804" lon="4.73636">
        <ele>299.4</ele>
        <time>2022-06-25T11:54:37Z</time>
      </trkpt>
      <trkpt lat="46.37798" lon="4.73638">
        <ele>299</ele>
        <time>2022-06-25T11:54:38Z</time>
      </trkpt>
      <trkpt lat="46.37792" lon="4.73638">
        <ele>299</ele>
        <time>2022-06-25T11:54:39Z</time>
      </trkpt>
      <trkpt lat="46.37786" lon="4.73638">
        <ele>299</ele>
        <time>2022-06-25T11:54:40Z</time>
      </trkpt>
      <trkpt lat="46.37781" lon="4.73636">
        <ele>299</ele>
        <time>2022-06-25T11:54:41Z</time>
      </trkpt>
      <trkpt lat="46.37776" lon="4.73635">
        <ele>298.8</ele>
        <time>2022-06-25T11:54:42Z</time>
      </trkpt>
      <trkpt lat="46.37772" lon="4.73633">
        <ele>298.8</ele>
        <time>2022-06-25T11:54:43Z</time>
      </trkpt>
      <trkpt lat="46.37768" lon="4.73632">
        <ele>298.8</ele>
        <time>2022-06-25T11:54:44Z</time>
      </trkpt>
      <trkpt lat="46.37765" lon="4.73631">
        <ele>298.8</ele>
        <time>2022-06-25T11:54:45Z</time>
      </trkpt>
      <trkpt lat="46.37762" lon="4.7363">
        <ele>298.8</ele>
        <time>2022-06-25T11:54:46Z</time>
      </trkpt>
      <trkpt lat="46.3776" lon="4.7363">
        <ele>298.8</ele>
        <time>2022-06-25T11:54:47Z</time>
      </trkpt>
      <trkpt lat="46.37757" lon="4.73631">
        <ele>298.8</ele>
        <time>2022-06-25T11:54:48Z</time>
      </trkpt>
      <trkpt lat="46.37755" lon="4.73632">
        <ele>298.8</ele>
        <time>2022-06-25T11:54:49Z</time>
      </trkpt>
      <trkpt lat="46.37753" lon="4.73634">
        <ele>298.8</ele>
        <time>2022-06-25T11:54:50Z</time>
      </trkpt>
      <trkpt lat="46.37752" lon="4.73635">
        <ele>298.8</ele>
        <time>2022-06-25T11:54:51Z</time>
      </trkpt>
      <trkpt lat="46.37751" lon="4.73637">
        <ele>298.8</ele>
        <time>2022-06-25T11:54:52Z</time>
      </trkpt>
      <trkpt lat="46.37749" lon="4.73639">
        <ele>298.8</ele>
        <time>2022-06-25T11:54:53Z</time>
      </trkpt>
      <trkpt lat="46.37748" lon="4.7364">
        <ele>298.8</ele>
        <time>2022-06-25T11:54:54Z</time>
      </trkpt>
      <trkpt lat="46.37747" lon="4.73641">
        <ele>298.8</ele>
        <time>2022-06-25T11:54:55Z</time>
      </trkpt>
      <trkpt lat="46.37747" lon="4.73641">
        <ele>298.8</ele>
        <time>2022-06-25T11:54:57Z</time>
      </trkpt>
      <trkpt lat="46.37749" lon="4.73643">
        <ele>298.2</ele>
        <time>2022-06-25T11:55:31Z</time>
      </trkpt>
      <trkpt lat="46.3775" lon="4.73644">
        <ele>298.2</ele>
        <time>2022-06-25T11:55:32Z</time>
      </trkpt>
      <trkpt lat="46.37752" lon="4.73643">
        <ele>298.2</ele>
        <time>2022-06-25T11:55:33Z</time>
      </trkpt>
      <trkpt lat="46.37754" lon="4.7364">
        <ele>298.2</ele>
        <time>2022-06-25T11:55:34Z</time>
      </trkpt>
      <trkpt lat="46.37755" lon="4.73637">
        <ele>298.2</ele>
        <time>2022-06-25T11:55:35Z</time>
      </trkpt>
      <trkpt lat="46.37757" lon="4.73634">
        <ele>298.2</ele>
        <time>2022-06-25T11:55:36Z</time>
      </trkpt>
      <trkpt lat="46.37759" lon="4.73631">
        <ele>298.2</ele>
        <time>2022-06-25T11:55:37Z</time>
      </trkpt>
      <trkpt lat="46.3776" lon="4.73627">
        <ele>298.2</ele>
        <time>2022-06-25T11:55:38Z</time>
      </trkpt>
      <trkpt lat="46.37761" lon="4.73623">
        <ele>298.2</ele>
        <time>2022-06-25T11:55:39Z</time>
      </trkpt>
      <trkpt lat="46.37763" lon="4.73619">
        <ele>298.2</ele>
        <time>2022-06-25T11:55:40Z</time>
      </trkpt>
      <trkpt lat="46.37764" lon="4.73615">
        <ele>298.2</ele>
        <time>2022-06-25T11:55:41Z</time>
      </trkpt>
      <trkpt lat="46.37764" lon="4.7361">
        <ele>298.2</ele>
        <time>2022-06-25T11:55:42Z</time>
      </trkpt>
      <trkpt lat="46.37765" lon="4.73606">
        <ele>298.4</ele>
        <time>2022-06-25T11:55:43Z</time>
      </trkpt>
      <trkpt lat="46.37766" lon="4.73601">
        <ele>298.4</ele>
        <time>2022-06-25T11:55:44Z</time>
      </trkpt>
      <trkpt lat="46.37766" lon="4.73597">
        <ele>298.4</ele>
        <time>2022-06-25T11:55:45Z</time>
      </trkpt>
      <trkpt lat="46.37767" lon="4.73593">
        <ele>298.4</ele>
        <time>2022-06-25T11:55:46Z</time>
      </trkpt>
      <trkpt lat="46.37768" lon="4.73589">
        <ele>298.4</ele>
        <time>2022-06-25T11:55:47Z</time>
      </trkpt>
      <trkpt lat="46.37769" lon="4.73585">
        <ele>298.8</ele>
        <time>2022-06-25T11:55:48Z</time>
      </trkpt>
      <trkpt lat="46.37769" lon="4.7358">
        <ele>298.8</ele>
        <time>2022-06-25T11:55:49Z</time>
      </trkpt>
      <trkpt lat="46.37769" lon="4.73576">
        <ele>298.8</ele>
        <time>2022-06-25T11:55:50Z</time>
      </trkpt>
      <trkpt lat="46.37769" lon="4.73573">
        <ele>298.8</ele>
        <time>2022-06-25T11:55:51Z</time>
      </trkpt>
      <trkpt lat="46.37768" lon="4.73569">
        <ele>299</ele>
        <time>2022-06-25T11:55:52Z</time>
      </trkpt>
      <trkpt lat="46.37768" lon="4.73566">
        <ele>299</ele>
        <time>2022-06-25T11:55:53Z</time>
      </trkpt>
      <trkpt lat="46.37767" lon="4.73562">
        <ele>299</ele>
        <time>2022-06-25T11:55:54Z</time>
      </trkpt>
      <trkpt lat="46.37766" lon="4.73559">
        <ele>299</ele>
        <time>2022-06-25T11:55:55Z</time>
      </trkpt>
      <trkpt lat="46.37764" lon="4.73556">
        <ele>299</ele>
        <time>2022-06-25T11:55:56Z</time>
      </trkpt>
      <trkpt lat="46.37762" lon="4.73554">
        <ele>299.2</ele>
        <time>2022-06-25T11:55:57Z</time>
      </trkpt>
      <trkpt lat="46.3776" lon="4.73552">
        <ele>299.2</ele>
        <time>2022-06-25T11:55:58Z</time>
      </trkpt>
      <trkpt lat="46.37757" lon="4.73551">
        <ele>299.2</ele>
        <time>2022-06-25T11:55:59Z</time>
      </trkpt>
      <trkpt lat="46.37755" lon="4.7355">
        <ele>299.4</ele>
        <time>2022-06-25T11:56:00Z</time>
      </trkpt>
      <trkpt lat="46.37753" lon="4.73549">
        <ele>299.4</ele>
        <time>2022-06-25T11:56:01Z</time>
      </trkpt>
      <trkpt lat="46.37751" lon="4.73549">
        <ele>299.8</ele>
        <time>2022-06-25T11:56:02Z</time>
      </trkpt>
      <trkpt lat="46.37749" lon="4.73549">
        <ele>300</ele>
        <time>2022-06-25T11:56:03Z</time>
      </trkpt>
      <trkpt lat="46.37747" lon="4.7355">
        <ele>300</ele>
        <time>2022-06-25T11:56:04Z</time>
      </trkpt>
      <trkpt lat="46.37744" lon="4.73551">
        <ele>300.4</ele>
        <time>2022-06-25T11:56:05Z</time>
      </trkpt>
      <trkpt lat="46.37742" lon="4.73552">
        <ele>300.6</ele>
        <time>2022-06-25T11:56:06Z</time>
      </trkpt>
      <trkpt lat="46.3774" lon="4.73552">
        <ele>300.6</ele>
        <time>2022-06-25T11:56:07Z</time>
      </trkpt>
      <trkpt lat="46.37738" lon="4.73553">
        <ele>300.6</ele>
        <time>2022-06-25T11:56:08Z</time>
      </trkpt>
      <trkpt lat="46.37736" lon="4.73553">
        <ele>301</ele>
        <time>2022-06-25T11:56:09Z</time>
      </trkpt>
      <trkpt lat="46.37733" lon="4.73553">
        <ele>301</ele>
        <time>2022-06-25T11:56:10Z</time>
      </trkpt>
      <trkpt lat="46.37731" lon="4.73554">
        <ele>301.2</ele>
        <time>2022-06-25T11:56:11Z</time>
      </trkpt>
      <trkpt lat="46.37728" lon="4.73555">
        <ele>301.2</ele>
        <time>2022-06-25T11:56:12Z</time>
      </trkpt>
      <trkpt lat="46.37726" lon="4.73555">
        <ele>301.4</ele>
        <time>2022-06-25T11:56:13Z</time>
      </trkpt>
      <trkpt lat="46.37723" lon="4.73555">
        <ele>301.4</ele>
        <time>2022-06-25T11:56:14Z</time>
      </trkpt>
      <trkpt lat="46.37721" lon="4.73555">
        <ele>301.8</ele>
        <time>2022-06-25T11:56:15Z</time>
      </trkpt>
      <trkpt lat="46.37719" lon="4.73555">
        <ele>302</ele>
        <time>2022-06-25T11:56:16Z</time>
      </trkpt>
      <trkpt lat="46.37716" lon="4.73556">
        <ele>302</ele>
        <time>2022-06-25T11:56:17Z</time>
      </trkpt>
      <trkpt lat="46.37714" lon="4.73556">
        <ele>302.2</ele>
        <time>2022-06-25T11:56:18Z</time>
      </trkpt>
      <trkpt lat="46.37711" lon="4.73557">
        <ele>302.2</ele>
        <time>2022-06-25T11:56:19Z</time>
      </trkpt>
      <trkpt lat="46.37708" lon="4.73557">
        <ele>302.2</ele>
        <time>2022-06-25T11:56:20Z</time>
      </trkpt>
      <trkpt lat="46.37706" lon="4.73557">
        <ele>302.4</ele>
        <time>2022-06-25T11:56:21Z</time>
      </trkpt>
      <trkpt lat="46.37703" lon="4.73556">
        <ele>302.4</ele>
        <time>2022-06-25T11:56:22Z</time>
      </trkpt>
      <trkpt lat="46.37701" lon="4.73554">
        <ele>302.6</ele>
        <time>2022-06-25T11:56:23Z</time>
      </trkpt>
      <trkpt lat="46.37699" lon="4.73552">
        <ele>302.6</ele>
        <time>2022-06-25T11:56:24Z</time>
      </trkpt>
      <trkpt lat="46.37697" lon="4.7355">
        <ele>303</ele>
        <time>2022-06-25T11:56:25Z</time>
      </trkpt>
      <trkpt lat="46.37695" lon="4.73548">
        <ele>303</ele>
        <time>2022-06-25T11:56:26Z</time>
      </trkpt>
      <trkpt lat="46.37694" lon="4.73545">
        <ele>303</ele>
        <time>2022-06-25T11:56:27Z</time>
      </trkpt>
      <trkpt lat="46.37692" lon="4.73542">
        <ele>303.4</ele>
        <time>2022-06-25T11:56:28Z</time>
      </trkpt>
      <trkpt lat="46.3769" lon="4.73539">
        <ele>303.4</ele>
        <time>2022-06-25T11:56:29Z</time>
      </trkpt>
      <trkpt lat="46.37689" lon="4.73536">
        <ele>303.4</ele>
        <time>2022-06-25T11:56:30Z</time>
      </trkpt>
      <trkpt lat="46.37687" lon="4.73533">
        <ele>303.6</ele>
        <time>2022-06-25T11:56:31Z</time>
      </trkpt>
      <trkpt lat="46.37685" lon="4.7353">
        <ele>303.6</ele>
        <time>2022-06-25T11:56:32Z</time>
      </trkpt>
      <trkpt lat="46.37683" lon="4.73526">
        <ele>303.6</ele>
        <time>2022-06-25T11:56:33Z</time>
      </trkpt>
      <trkpt lat="46.37681" lon="4.73523">
        <ele>303.6</ele>
        <time>2022-06-25T11:56:34Z</time>
      </trkpt>
      <trkpt lat="46.37679" lon="4.7352">
        <ele>303.8</ele>
        <time>2022-06-25T11:56:35Z</time>
      </trkpt>
      <trkpt lat="46.37676" lon="4.73517">
        <ele>303.8</ele>
        <time>2022-06-25T11:56:36Z</time>
      </trkpt>
      <trkpt lat="46.37674" lon="4.73515">
        <ele>304</ele>
        <time>2022-06-25T11:56:37Z</time>
      </trkpt>
      <trkpt lat="46.37672" lon="4.73512">
        <ele>304</ele>
        <time>2022-06-25T11:56:38Z</time>
      </trkpt>
      <trkpt lat="46.37669" lon="4.73509">
        <ele>304.4</ele>
        <time>2022-06-25T11:56:39Z</time>
      </trkpt>
      <trkpt lat="46.37666" lon="4.73506">
        <ele>304.4</ele>
        <time>2022-06-25T11:56:40Z</time>
      </trkpt>
      <trkpt lat="46.37663" lon="4.73503">
        <ele>304.6</ele>
        <time>2022-06-25T11:56:41Z</time>
      </trkpt>
      <trkpt lat="46.3766" lon="4.735">
        <ele>304.6</ele>
        <time>2022-06-25T11:56:42Z</time>
      </trkpt>
      <trkpt lat="46.37658" lon="4.73498">
        <ele>304.6</ele>
        <time>2022-06-25T11:56:43Z</time>
      </trkpt>
      <trkpt lat="46.37655" lon="4.73495">
        <ele>304.6</ele>
        <time>2022-06-25T11:56:44Z</time>
      </trkpt>
      <trkpt lat="46.37653" lon="4.73493">
        <ele>305</ele>
        <time>2022-06-25T11:56:45Z</time>
      </trkpt>
      <trkpt lat="46.3765" lon="4.7349">
        <ele>305.2</ele>
        <time>2022-06-25T11:56:46Z</time>
      </trkpt>
      <trkpt lat="46.37648" lon="4.73488">
        <ele>305.2</ele>
        <time>2022-06-25T11:56:47Z</time>
      </trkpt>
      <trkpt lat="46.37645" lon="4.73486">
        <ele>305.6</ele>
        <time>2022-06-25T11:56:48Z</time>
      </trkpt>
      <trkpt lat="46.37642" lon="4.73484">
        <ele>305.6</ele>
        <time>2022-06-25T11:56:49Z</time>
      </trkpt>
      <trkpt lat="46.3764" lon="4.73482">
        <ele>305.8</ele>
        <time>2022-06-25T11:56:50Z</time>
      </trkpt>
      <trkpt lat="46.37637" lon="4.73481">
        <ele>305.8</ele>
        <time>2022-06-25T11:56:51Z</time>
      </trkpt>
      <trkpt lat="46.37634" lon="4.73479">
        <ele>306</ele>
        <time>2022-06-25T11:56:52Z</time>
      </trkpt>
      <trkpt lat="46.37631" lon="4.73477">
        <ele>306</ele>
        <time>2022-06-25T11:56:53Z</time>
      </trkpt>
      <trkpt lat="46.37629" lon="4.73475">
        <ele>306.2</ele>
        <time>2022-06-25T11:56:54Z</time>
      </trkpt>
      <trkpt lat="46.37626" lon="4.73472">
        <ele>306.2</ele>
        <time>2022-06-25T11:56:55Z</time>
      </trkpt>
      <trkpt lat="46.37624" lon="4.7347">
        <ele>306.6</ele>
        <time>2022-06-25T11:56:56Z</time>
      </trkpt>
      <trkpt lat="46.37621" lon="4.73469">
        <ele>306.6</ele>
        <time>2022-06-25T11:56:57Z</time>
      </trkpt>
      <trkpt lat="46.37619" lon="4.73467">
        <ele>307</ele>
        <time>2022-06-25T11:56:58Z</time>
      </trkpt>
      <trkpt lat="46.37616" lon="4.73465">
        <ele>307</ele>
        <time>2022-06-25T11:56:59Z</time>
      </trkpt>
      <trkpt lat="46.37613" lon="4.73464">
        <ele>307.2</ele>
        <time>2022-06-25T11:57:00Z</time>
      </trkpt>
      <trkpt lat="46.3761" lon="4.73461">
        <ele>307.2</ele>
        <time>2022-06-25T11:57:01Z</time>
      </trkpt>
      <trkpt lat="46.37607" lon="4.7346">
        <ele>307.4</ele>
        <time>2022-06-25T11:57:02Z</time>
      </trkpt>
      <trkpt lat="46.37604" lon="4.73458">
        <ele>307.4</ele>
        <time>2022-06-25T11:57:03Z</time>
      </trkpt>
      <trkpt lat="46.37601" lon="4.73456">
        <ele>307.4</ele>
        <time>2022-06-25T11:57:04Z</time>
      </trkpt>
      <trkpt lat="46.37598" lon="4.73455">
        <ele>307.8</ele>
        <time>2022-06-25T11:57:05Z</time>
      </trkpt>
      <trkpt lat="46.37595" lon="4.73453">
        <ele>307.8</ele>
        <time>2022-06-25T11:57:06Z</time>
      </trkpt>
      <trkpt lat="46.37592" lon="4.73452">
        <ele>307.8</ele>
        <time>2022-06-25T11:57:07Z</time>
      </trkpt>
      <trkpt lat="46.3759" lon="4.73451">
        <ele>308</ele>
        <time>2022-06-25T11:57:08Z</time>
      </trkpt>
      <trkpt lat="46.37587" lon="4.73449">
        <ele>308</ele>
        <time>2022-06-25T11:57:09Z</time>
      </trkpt>
      <trkpt lat="46.37585" lon="4.73447">
        <ele>308.4</ele>
        <time>2022-06-25T11:57:10Z</time>
      </trkpt>
      <trkpt lat="46.37583" lon="4.73445">
        <ele>308.4</ele>
        <time>2022-06-25T11:57:11Z</time>
      </trkpt>
      <trkpt lat="46.3758" lon="4.73443">
        <ele>308.4</ele>
        <time>2022-06-25T11:57:12Z</time>
      </trkpt>
      <trkpt lat="46.37578" lon="4.73442">
        <ele>308.6</ele>
        <time>2022-06-25T11:57:13Z</time>
      </trkpt>
      <trkpt lat="46.37575" lon="4.7344">
        <ele>308.6</ele>
        <time>2022-06-25T11:57:14Z</time>
      </trkpt>
      <trkpt lat="46.37572" lon="4.73439">
        <ele>309</ele>
        <time>2022-06-25T11:57:15Z</time>
      </trkpt>
      <trkpt lat="46.3757" lon="4.73437">
        <ele>309</ele>
        <time>2022-06-25T11:57:16Z</time>
      </trkpt>
      <trkpt lat="46.37567" lon="4.73435">
        <ele>309</ele>
        <time>2022-06-25T11:57:17Z</time>
      </trkpt>
      <trkpt lat="46.37565" lon="4.73434">
        <ele>309.2</ele>
        <time>2022-06-25T11:57:18Z</time>
      </trkpt>
      <trkpt lat="46.37562" lon="4.73432">
        <ele>309.2</ele>
        <time>2022-06-25T11:57:19Z</time>
      </trkpt>
      <trkpt lat="46.37559" lon="4.73429">
        <ele>309.4</ele>
        <time>2022-06-25T11:57:20Z</time>
      </trkpt>
      <trkpt lat="46.37556" lon="4.73427">
        <ele>309.4</ele>
        <time>2022-06-25T11:57:21Z</time>
      </trkpt>
      <trkpt lat="46.37553" lon="4.73425">
        <ele>309.6</ele>
        <time>2022-06-25T11:57:22Z</time>
      </trkpt>
      <trkpt lat="46.3755" lon="4.73423">
        <ele>309.6</ele>
        <time>2022-06-25T11:57:23Z</time>
      </trkpt>
      <trkpt lat="46.37547" lon="4.73421">
        <ele>309.6</ele>
        <time>2022-06-25T11:57:24Z</time>
      </trkpt>
      <trkpt lat="46.37544" lon="4.73419">
        <ele>309.8</ele>
        <time>2022-06-25T11:57:25Z</time>
      </trkpt>
      <trkpt lat="46.37542" lon="4.73417">
        <ele>309.8</ele>
        <time>2022-06-25T11:57:26Z</time>
      </trkpt>
      <trkpt lat="46.37539" lon="4.73415">
        <ele>309.8</ele>
        <time>2022-06-25T11:57:27Z</time>
      </trkpt>
      <trkpt lat="46.37536" lon="4.73413">
        <ele>310</ele>
        <time>2022-06-25T11:57:28Z</time>
      </trkpt>
      <trkpt lat="46.37533" lon="4.73411">
        <ele>310</ele>
        <time>2022-06-25T11:57:29Z</time>
      </trkpt>
      <trkpt lat="46.37529" lon="4.73409">
        <ele>310</ele>
        <time>2022-06-25T11:57:30Z</time>
      </trkpt>
      <trkpt lat="46.37526" lon="4.73406">
        <ele>310</ele>
        <time>2022-06-25T11:57:31Z</time>
      </trkpt>
      <trkpt lat="46.37523" lon="4.73404">
        <ele>310.2</ele>
        <time>2022-06-25T11:57:32Z</time>
      </trkpt>
      <trkpt lat="46.37519" lon="4.73401">
        <ele>310.2</ele>
        <time>2022-06-25T11:57:33Z</time>
      </trkpt>
      <trkpt lat="46.37515" lon="4.73399">
        <ele>310.6</ele>
        <time>2022-06-25T11:57:34Z</time>
      </trkpt>
      <trkpt lat="46.37512" lon="4.73396">
        <ele>310.8</ele>
        <time>2022-06-25T11:57:35Z</time>
      </trkpt>
      <trkpt lat="46.37508" lon="4.73394">
        <ele>311</ele>
        <time>2022-06-25T11:57:36Z</time>
      </trkpt>
      <trkpt lat="46.37505" lon="4.73391">
        <ele>311</ele>
        <time>2022-06-25T11:57:37Z</time>
      </trkpt>
      <trkpt lat="46.37501" lon="4.73389">
        <ele>311.2</ele>
        <time>2022-06-25T11:57:38Z</time>
      </trkpt>
      <trkpt lat="46.37498" lon="4.73387">
        <ele>311.2</ele>
        <time>2022-06-25T11:57:39Z</time>
      </trkpt>
      <trkpt lat="46.37494" lon="4.73385">
        <ele>311.6</ele>
        <time>2022-06-25T11:57:40Z</time>
      </trkpt>
      <trkpt lat="46.3749" lon="4.73382">
        <ele>311.6</ele>
        <time>2022-06-25T11:57:41Z</time>
      </trkpt>
      <trkpt lat="46.37486" lon="4.73379">
        <ele>311.8</ele>
        <time>2022-06-25T11:57:42Z</time>
      </trkpt>
      <trkpt lat="46.37482" lon="4.73377">
        <ele>311.8</ele>
        <time>2022-06-25T11:57:43Z</time>
      </trkpt>
      <trkpt lat="46.37478" lon="4.73374">
        <ele>311.8</ele>
        <time>2022-06-25T11:57:44Z</time>
      </trkpt>
      <trkpt lat="46.37474" lon="4.73371">
        <ele>312.2</ele>
        <time>2022-06-25T11:57:45Z</time>
      </trkpt>
      <trkpt lat="46.3747" lon="4.73369">
        <ele>312.2</ele>
        <time>2022-06-25T11:57:46Z</time>
      </trkpt>
      <trkpt lat="46.37466" lon="4.73366">
        <ele>312.4</ele>
        <time>2022-06-25T11:57:47Z</time>
      </trkpt>
      <trkpt lat="46.37462" lon="4.73364">
        <ele>312.4</ele>
        <time>2022-06-25T11:57:48Z</time>
      </trkpt>
      <trkpt lat="46.37458" lon="4.73361">
        <ele>312.4</ele>
        <time>2022-06-25T11:57:49Z</time>
      </trkpt>
      <trkpt lat="46.37455" lon="4.73358">
        <ele>312.8</ele>
        <time>2022-06-25T11:57:50Z</time>
      </trkpt>
      <trkpt lat="46.37451" lon="4.73355">
        <ele>312.8</ele>
        <time>2022-06-25T11:57:51Z</time>
      </trkpt>
      <trkpt lat="46.37447" lon="4.73353">
        <ele>313</ele>
        <time>2022-06-25T11:57:52Z</time>
      </trkpt>
      <trkpt lat="46.37443" lon="4.7335">
        <ele>313.2</ele>
        <time>2022-06-25T11:57:53Z</time>
      </trkpt>
      <trkpt lat="46.3744" lon="4.73347">
        <ele>313.6</ele>
        <time>2022-06-25T11:57:54Z</time>
      </trkpt>
      <trkpt lat="46.37436" lon="4.73344">
        <ele>313.6</ele>
        <time>2022-06-25T11:57:55Z</time>
      </trkpt>
      <trkpt lat="46.37433" lon="4.73341">
        <ele>313.8</ele>
        <time>2022-06-25T11:57:56Z</time>
      </trkpt>
      <trkpt lat="46.3743" lon="4.73338">
        <ele>313.8</ele>
        <time>2022-06-25T11:57:57Z</time>
      </trkpt>
      <trkpt lat="46.37426" lon="4.73335">
        <ele>314</ele>
        <time>2022-06-25T11:57:58Z</time>
      </trkpt>
      <trkpt lat="46.37422" lon="4.73332">
        <ele>314</ele>
        <time>2022-06-25T11:57:59Z</time>
      </trkpt>
      <trkpt lat="46.37419" lon="4.73329">
        <ele>314.4</ele>
        <time>2022-06-25T11:58:00Z</time>
      </trkpt>
      <trkpt lat="46.37416" lon="4.73326">
        <ele>314.4</ele>
        <time>2022-06-25T11:58:01Z</time>
      </trkpt>
      <trkpt lat="46.37412" lon="4.73323">
        <ele>314.6</ele>
        <time>2022-06-25T11:58:02Z</time>
      </trkpt>
      <trkpt lat="46.37408" lon="4.73319">
        <ele>314.6</ele>
        <time>2022-06-25T11:58:03Z</time>
      </trkpt>
      <trkpt lat="46.37405" lon="4.73316">
        <ele>314.6</ele>
        <time>2022-06-25T11:58:04Z</time>
      </trkpt>
      <trkpt lat="46.37401" lon="4.73313">
        <ele>314.6</ele>
        <time>2022-06-25T11:58:05Z</time>
      </trkpt>
      <trkpt lat="46.37398" lon="4.7331">
        <ele>314.8</ele>
        <time>2022-06-25T11:58:06Z</time>
      </trkpt>
      <trkpt lat="46.37394" lon="4.73306">
        <ele>314.8</ele>
        <time>2022-06-25T11:58:07Z</time>
      </trkpt>
      <trkpt lat="46.37391" lon="4.73302">
        <ele>315</ele>
        <time>2022-06-25T11:58:08Z</time>
      </trkpt>
      <trkpt lat="46.37387" lon="4.73299">
        <ele>315</ele>
        <time>2022-06-25T11:58:09Z</time>
      </trkpt>
      <trkpt lat="46.37384" lon="4.73295">
        <ele>315.4</ele>
        <time>2022-06-25T11:58:10Z</time>
      </trkpt>
      <trkpt lat="46.3738" lon="4.73292">
        <ele>315.6</ele>
        <time>2022-06-25T11:58:11Z</time>
      </trkpt>
      <trkpt lat="46.37376" lon="4.73289">
        <ele>315.6</ele>
        <time>2022-06-25T11:58:12Z</time>
      </trkpt>
      <trkpt lat="46.37373" lon="4.73286">
        <ele>315.8</ele>
        <time>2022-06-25T11:58:13Z</time>
      </trkpt>
      <trkpt lat="46.37369" lon="4.73283">
        <ele>315.8</ele>
        <time>2022-06-25T11:58:14Z</time>
      </trkpt>
      <trkpt lat="46.37365" lon="4.73279">
        <ele>316.2</ele>
        <time>2022-06-25T11:58:15Z</time>
      </trkpt>
      <trkpt lat="46.37362" lon="4.73276">
        <ele>316.2</ele>
        <time>2022-06-25T11:58:16Z</time>
      </trkpt>
      <trkpt lat="46.37359" lon="4.73273">
        <ele>316.4</ele>
        <time>2022-06-25T11:58:17Z</time>
      </trkpt>
      <trkpt lat="46.37355" lon="4.7327">
        <ele>316.4</ele>
        <time>2022-06-25T11:58:18Z</time>
      </trkpt>
      <trkpt lat="46.37351" lon="4.73266">
        <ele>316.8</ele>
        <time>2022-06-25T11:58:19Z</time>
      </trkpt>
      <trkpt lat="46.37348" lon="4.73263">
        <ele>316.8</ele>
        <time>2022-06-25T11:58:20Z</time>
      </trkpt>
      <trkpt lat="46.37344" lon="4.7326">
        <ele>316.8</ele>
        <time>2022-06-25T11:58:21Z</time>
      </trkpt>
      <trkpt lat="46.37341" lon="4.73257">
        <ele>317</ele>
        <time>2022-06-25T11:58:22Z</time>
      </trkpt>
      <trkpt lat="46.37337" lon="4.73253">
        <ele>317</ele>
        <time>2022-06-25T11:58:23Z</time>
      </trkpt>
      <trkpt lat="46.37334" lon="4.7325">
        <ele>317.2</ele>
        <time>2022-06-25T11:58:24Z</time>
      </trkpt>
      <trkpt lat="46.3733" lon="4.73247">
        <ele>317.2</ele>
        <time>2022-06-25T11:58:25Z</time>
      </trkpt>
      <trkpt lat="46.37327" lon="4.73243">
        <ele>317.4</ele>
        <time>2022-06-25T11:58:26Z</time>
      </trkpt>
      <trkpt lat="46.37323" lon="4.7324">
        <ele>317.4</ele>
        <time>2022-06-25T11:58:27Z</time>
      </trkpt>
      <trkpt lat="46.3732" lon="4.73236">
        <ele>317.4</ele>
        <time>2022-06-25T11:58:28Z</time>
      </trkpt>
      <trkpt lat="46.37316" lon="4.73233">
        <ele>317.4</ele>
        <time>2022-06-25T11:58:29Z</time>
      </trkpt>
      <trkpt lat="46.37312" lon="4.73229">
        <ele>317.4</ele>
        <time>2022-06-25T11:58:30Z</time>
      </trkpt>
      <trkpt lat="46.37308" lon="4.73226">
        <ele>317.4</ele>
        <time>2022-06-25T11:58:31Z</time>
      </trkpt>
      <trkpt lat="46.37304" lon="4.73222">
        <ele>317.4</ele>
        <time>2022-06-25T11:58:32Z</time>
      </trkpt>
      <trkpt lat="46.373" lon="4.73218">
        <ele>317.4</ele>
        <time>2022-06-25T11:58:33Z</time>
      </trkpt>
      <trkpt lat="46.37295" lon="4.73214">
        <ele>317.4</ele>
        <time>2022-06-25T11:58:34Z</time>
      </trkpt>
      <trkpt lat="46.37291" lon="4.7321">
        <ele>317.4</ele>
        <time>2022-06-25T11:58:35Z</time>
      </trkpt>
      <trkpt lat="46.37286" lon="4.73206">
        <ele>317.4</ele>
        <time>2022-06-25T11:58:36Z</time>
      </trkpt>
      <trkpt lat="46.37282" lon="4.73201">
        <ele>317.4</ele>
        <time>2022-06-25T11:58:37Z</time>
      </trkpt>
      <trkpt lat="46.37277" lon="4.73196">
        <ele>317.4</ele>
        <time>2022-06-25T11:58:38Z</time>
      </trkpt>
      <trkpt lat="46.37272" lon="4.73191">
        <ele>317.4</ele>
        <time>2022-06-25T11:58:39Z</time>
      </trkpt>
      <trkpt lat="46.37267" lon="4.73187">
        <ele>317.2</ele>
        <time>2022-06-25T11:58:40Z</time>
      </trkpt>
      <trkpt lat="46.37261" lon="4.73182">
        <ele>317.2</ele>
        <time>2022-06-25T11:58:41Z</time>
      </trkpt>
      <trkpt lat="46.37255" lon="4.73177">
        <ele>316.8</ele>
        <time>2022-06-25T11:58:42Z</time>
      </trkpt>
      <trkpt lat="46.3725" lon="4.73172">
        <ele>316.8</ele>
        <time>2022-06-25T11:58:43Z</time>
      </trkpt>
      <trkpt lat="46.37244" lon="4.73167">
        <ele>316.6</ele>
        <time>2022-06-25T11:58:44Z</time>
      </trkpt>
      <trkpt lat="46.37238" lon="4.73162">
        <ele>316.6</ele>
        <time>2022-06-25T11:58:45Z</time>
      </trkpt>
      <trkpt lat="46.37232" lon="4.73156">
        <ele>316.2</ele>
        <time>2022-06-25T11:58:46Z</time>
      </trkpt>
      <trkpt lat="46.37226" lon="4.73151">
        <ele>316.2</ele>
        <time>2022-06-25T11:58:47Z</time>
      </trkpt>
      <trkpt lat="46.3722" lon="4.73145">
        <ele>315.8</ele>
        <time>2022-06-25T11:58:48Z</time>
      </trkpt>
      <trkpt lat="46.37213" lon="4.73139">
        <ele>315.8</ele>
        <time>2022-06-25T11:58:49Z</time>
      </trkpt>
      <trkpt lat="46.37207" lon="4.73134">
        <ele>315.6</ele>
        <time>2022-06-25T11:58:50Z</time>
      </trkpt>
      <trkpt lat="46.372" lon="4.73128">
        <ele>315.6</ele>
        <time>2022-06-25T11:58:51Z</time>
      </trkpt>
      <trkpt lat="46.37194" lon="4.73122">
        <ele>315.2</ele>
        <time>2022-06-25T11:58:52Z</time>
      </trkpt>
      <trkpt lat="46.37187" lon="4.73116">
        <ele>315</ele>
        <time>2022-06-25T11:58:54Z</time>
      </trkpt>
      <trkpt lat="46.3718" lon="4.7311">
        <ele>315</ele>
        <time>2022-06-25T11:58:55Z</time>
      </trkpt>
      <trkpt lat="46.37174" lon="4.73105">
        <ele>314.8</ele>
        <time>2022-06-25T11:58:56Z</time>
      </trkpt>
      <trkpt lat="46.37167" lon="4.73099">
        <ele>314.8</ele>
        <time>2022-06-25T11:58:57Z</time>
      </trkpt>
      <trkpt lat="46.3716" lon="4.73093">
        <ele>314.8</ele>
        <time>2022-06-25T11:58:58Z</time>
      </trkpt>
      <trkpt lat="46.37154" lon="4.73088">
        <ele>314.8</ele>
        <time>2022-06-25T11:58:59Z</time>
      </trkpt>
      <trkpt lat="46.37148" lon="4.73083">
        <ele>314.8</ele>
        <time>2022-06-25T11:59:00Z</time>
      </trkpt>
      <trkpt lat="46.37142" lon="4.73077">
        <ele>314.4</ele>
        <time>2022-06-25T11:59:01Z</time>
      </trkpt>
      <trkpt lat="46.37136" lon="4.73072">
        <ele>314.4</ele>
        <time>2022-06-25T11:59:02Z</time>
      </trkpt>
      <trkpt lat="46.37131" lon="4.73068">
        <ele>314.4</ele>
        <time>2022-06-25T11:59:03Z</time>
      </trkpt>
      <trkpt lat="46.37126" lon="4.73063">
        <ele>314.2</ele>
        <time>2022-06-25T11:59:04Z</time>
      </trkpt>
      <trkpt lat="46.37121" lon="4.73058">
        <ele>314.2</ele>
        <time>2022-06-25T11:59:05Z</time>
      </trkpt>
      <trkpt lat="46.37115" lon="4.73054">
        <ele>314</ele>
        <time>2022-06-25T11:59:06Z</time>
      </trkpt>
      <trkpt lat="46.3711" lon="4.73049">
        <ele>314</ele>
        <time>2022-06-25T11:59:07Z</time>
      </trkpt>
      <trkpt lat="46.37104" lon="4.73044">
        <ele>313.6</ele>
        <time>2022-06-25T11:59:08Z</time>
      </trkpt>
      <trkpt lat="46.37099" lon="4.73039">
        <ele>313.4</ele>
        <time>2022-06-25T11:59:09Z</time>
      </trkpt>
      <trkpt lat="46.37093" lon="4.73034">
        <ele>313.2</ele>
        <time>2022-06-25T11:59:10Z</time>
      </trkpt>
      <trkpt lat="46.37088" lon="4.7303">
        <ele>313.2</ele>
        <time>2022-06-25T11:59:11Z</time>
      </trkpt>
      <trkpt lat="46.37082" lon="4.73026">
        <ele>312.8</ele>
        <time>2022-06-25T11:59:12Z</time>
      </trkpt>
      <trkpt lat="46.37077" lon="4.73021">
        <ele>312.8</ele>
        <time>2022-06-25T11:59:13Z</time>
      </trkpt>
      <trkpt lat="46.37071" lon="4.73016">
        <ele>312.6</ele>
        <time>2022-06-25T11:59:14Z</time>
      </trkpt>
      <trkpt lat="46.37066" lon="4.73011">
        <ele>312.6</ele>
        <time>2022-06-25T11:59:15Z</time>
      </trkpt>
      <trkpt lat="46.3706" lon="4.73007">
        <ele>312.6</ele>
        <time>2022-06-25T11:59:16Z</time>
      </trkpt>
      <trkpt lat="46.37054" lon="4.73003">
        <ele>312.6</ele>
        <time>2022-06-25T11:59:17Z</time>
      </trkpt>
      <trkpt lat="46.37049" lon="4.72999">
        <ele>312.6</ele>
        <time>2022-06-25T11:59:18Z</time>
      </trkpt>
      <trkpt lat="46.37043" lon="4.72995">
        <ele>312.6</ele>
        <time>2022-06-25T11:59:19Z</time>
      </trkpt>
      <trkpt lat="46.37038" lon="4.72992">
        <ele>312.6</ele>
        <time>2022-06-25T11:59:20Z</time>
      </trkpt>
      <trkpt lat="46.37032" lon="4.72989">
        <ele>312.6</ele>
        <time>2022-06-25T11:59:21Z</time>
      </trkpt>
      <trkpt lat="46.37027" lon="4.72986">
        <ele>312.8</ele>
        <time>2022-06-25T11:59:22Z</time>
      </trkpt>
      <trkpt lat="46.37021" lon="4.72984">
        <ele>312.8</ele>
        <time>2022-06-25T11:59:23Z</time>
      </trkpt>
      <trkpt lat="46.37016" lon="4.72982">
        <ele>313</ele>
        <time>2022-06-25T11:59:24Z</time>
      </trkpt>
      <trkpt lat="46.3701" lon="4.7298">
        <ele>313</ele>
        <time>2022-06-25T11:59:25Z</time>
      </trkpt>
      <trkpt lat="46.37005" lon="4.72978">
        <ele>313</ele>
        <time>2022-06-25T11:59:26Z</time>
      </trkpt>
      <trkpt lat="46.36999" lon="4.72975">
        <ele>313</ele>
        <time>2022-06-25T11:59:27Z</time>
      </trkpt>
      <trkpt lat="46.36993" lon="4.72973">
        <ele>313</ele>
        <time>2022-06-25T11:59:28Z</time>
      </trkpt>
      <trkpt lat="46.36986" lon="4.72972">
        <ele>312.8</ele>
        <time>2022-06-25T11:59:29Z</time>
      </trkpt>
      <trkpt lat="46.3698" lon="4.72972">
        <ele>312.8</ele>
        <time>2022-06-25T11:59:30Z</time>
      </trkpt>
      <trkpt lat="46.36973" lon="4.72973">
        <ele>312.4</ele>
        <time>2022-06-25T11:59:31Z</time>
      </trkpt>
      <trkpt lat="46.36966" lon="4.72974">
        <ele>312.2</ele>
        <time>2022-06-25T11:59:32Z</time>
      </trkpt>
      <trkpt lat="46.3696" lon="4.72975">
        <ele>312.2</ele>
        <time>2022-06-25T11:59:33Z</time>
      </trkpt>
      <trkpt lat="46.36953" lon="4.72977">
        <ele>312.2</ele>
        <time>2022-06-25T11:59:34Z</time>
      </trkpt>
      <trkpt lat="46.36946" lon="4.72978">
        <ele>312</ele>
        <time>2022-06-25T11:59:35Z</time>
      </trkpt>
      <trkpt lat="46.36939" lon="4.72978">
        <ele>312</ele>
        <time>2022-06-25T11:59:36Z</time>
      </trkpt>
      <trkpt lat="46.36933" lon="4.72979">
        <ele>311.8</ele>
        <time>2022-06-25T11:59:37Z</time>
      </trkpt>
      <trkpt lat="46.36926" lon="4.72979">
        <ele>311.8</ele>
        <time>2022-06-25T11:59:38Z</time>
      </trkpt>
      <trkpt lat="46.36919" lon="4.72979">
        <ele>311.6</ele>
        <time>2022-06-25T11:59:39Z</time>
      </trkpt>
      <trkpt lat="46.36913" lon="4.7298">
        <ele>311.6</ele>
        <time>2022-06-25T11:59:40Z</time>
      </trkpt>
      <trkpt lat="46.36906" lon="4.7298">
        <ele>311.6</ele>
        <time>2022-06-25T11:59:41Z</time>
      </trkpt>
      <trkpt lat="46.369" lon="4.7298">
        <ele>311.2</ele>
        <time>2022-06-25T11:59:42Z</time>
      </trkpt>
      <trkpt lat="46.36893" lon="4.72981">
        <ele>311.2</ele>
        <time>2022-06-25T11:59:43Z</time>
      </trkpt>
      <trkpt lat="46.36886" lon="4.72981">
        <ele>310.8</ele>
        <time>2022-06-25T11:59:44Z</time>
      </trkpt>
      <trkpt lat="46.36879" lon="4.72982">
        <ele>310.8</ele>
        <time>2022-06-25T11:59:45Z</time>
      </trkpt>
      <trkpt lat="46.36872" lon="4.72982">
        <ele>310.4</ele>
        <time>2022-06-25T11:59:46Z</time>
      </trkpt>
      <trkpt lat="46.36864" lon="4.72982">
        <ele>310.4</ele>
        <time>2022-06-25T11:59:47Z</time>
      </trkpt>
      <trkpt lat="46.36857" lon="4.72982">
        <ele>310.2</ele>
        <time>2022-06-25T11:59:48Z</time>
      </trkpt>
      <trkpt lat="46.3685" lon="4.72982">
        <ele>310.2</ele>
        <time>2022-06-25T11:59:49Z</time>
      </trkpt>
      <trkpt lat="46.36842" lon="4.72982">
        <ele>310.2</ele>
        <time>2022-06-25T11:59:50Z</time>
      </trkpt>
      <trkpt lat="46.36834" lon="4.72983">
        <ele>309.8</ele>
        <time>2022-06-25T11:59:51Z</time>
      </trkpt>
      <trkpt lat="46.36827" lon="4.72983">
        <ele>309.8</ele>
        <time>2022-06-25T11:59:52Z</time>
      </trkpt>
      <trkpt lat="46.36819" lon="4.72983">
        <ele>309.6</ele>
        <time>2022-06-25T11:59:53Z</time>
      </trkpt>
      <trkpt lat="46.36811" lon="4.72983">
        <ele>309.2</ele>
        <time>2022-06-25T11:59:54Z</time>
      </trkpt>
      <trkpt lat="46.36803" lon="4.72983">
        <ele>309</ele>
        <time>2022-06-25T11:59:55Z</time>
      </trkpt>
      <trkpt lat="46.36795" lon="4.72984">
        <ele>308.8</ele>
        <time>2022-06-25T11:59:56Z</time>
      </trkpt>
      <trkpt lat="46.36787" lon="4.72984">
        <ele>308.6</ele>
        <time>2022-06-25T11:59:57Z</time>
      </trkpt>
      <trkpt lat="46.36779" lon="4.72984">
        <ele>308.2</ele>
        <time>2022-06-25T11:59:58Z</time>
      </trkpt>
      <trkpt lat="46.36771" lon="4.72984">
        <ele>308</ele>
        <time>2022-06-25T11:59:59Z</time>
      </trkpt>
      <trkpt lat="46.36763" lon="4.72984">
        <ele>307.8</ele>
        <time>2022-06-25T12:00:00Z</time>
      </trkpt>
      <trkpt lat="46.36755" lon="4.72984">
        <ele>307.6</ele>
        <time>2022-06-25T12:00:01Z</time>
      </trkpt>
      <trkpt lat="46.36747" lon="4.72985">
        <ele>307.4</ele>
        <time>2022-06-25T12:00:02Z</time>
      </trkpt>
      <trkpt lat="46.36738" lon="4.72985">
        <ele>307.2</ele>
        <time>2022-06-25T12:00:03Z</time>
      </trkpt>
      <trkpt lat="46.3673" lon="4.72987">
        <ele>306.8</ele>
        <time>2022-06-25T12:00:04Z</time>
      </trkpt>
      <trkpt lat="46.36721" lon="4.72989">
        <ele>306.6</ele>
        <time>2022-06-25T12:00:05Z</time>
      </trkpt>
      <trkpt lat="46.36713" lon="4.72991">
        <ele>306.2</ele>
        <time>2022-06-25T12:00:06Z</time>
      </trkpt>
      <trkpt lat="46.36704" lon="4.72995">
        <ele>306</ele>
        <time>2022-06-25T12:00:07Z</time>
      </trkpt>
      <trkpt lat="46.36696" lon="4.72999">
        <ele>305.6</ele>
        <time>2022-06-25T12:00:08Z</time>
      </trkpt>
      <trkpt lat="46.36687" lon="4.73004">
        <ele>304.6</ele>
        <time>2022-06-25T12:00:09Z</time>
      </trkpt>
      <trkpt lat="46.36678" lon="4.73009">
        <ele>304.2</ele>
        <time>2022-06-25T12:00:10Z</time>
      </trkpt>
      <trkpt lat="46.36669" lon="4.73015">
        <ele>304.2</ele>
        <time>2022-06-25T12:00:11Z</time>
      </trkpt>
      <trkpt lat="46.36659" lon="4.73021">
        <ele>303.6</ele>
        <time>2022-06-25T12:00:12Z</time>
      </trkpt>
      <trkpt lat="46.36649" lon="4.73026">
        <ele>303</ele>
        <time>2022-06-25T12:00:13Z</time>
      </trkpt>
      <trkpt lat="46.36639" lon="4.73033">
        <ele>302.6</ele>
        <time>2022-06-25T12:00:14Z</time>
      </trkpt>
      <trkpt lat="46.36629" lon="4.7304">
        <ele>301.8</ele>
        <time>2022-06-25T12:00:15Z</time>
      </trkpt>
      <trkpt lat="46.36619" lon="4.73047">
        <ele>301</ele>
        <time>2022-06-25T12:00:16Z</time>
      </trkpt>
      <trkpt lat="46.36608" lon="4.73054">
        <ele>300.2</ele>
        <time>2022-06-25T12:00:17Z</time>
      </trkpt>
      <trkpt lat="46.36592" lon="4.73063">
        <ele>299.4</ele>
        <time>2022-06-25T12:00:18Z</time>
      </trkpt>
      <trkpt lat="46.36586" lon="4.73066">
        <ele>298.8</ele>
        <time>2022-06-25T12:00:19Z</time>
      </trkpt>
      <trkpt lat="46.36574" lon="4.73073">
        <ele>298</ele>
        <time>2022-06-25T12:00:20Z</time>
      </trkpt>
      <trkpt lat="46.36563" lon="4.73079">
        <ele>297.2</ele>
        <time>2022-06-25T12:00:21Z</time>
      </trkpt>
      <trkpt lat="46.36551" lon="4.73084">
        <ele>296.4</ele>
        <time>2022-06-25T12:00:22Z</time>
      </trkpt>
      <trkpt lat="46.36539" lon="4.73089">
        <ele>295.8</ele>
        <time>2022-06-25T12:00:23Z</time>
      </trkpt>
      <trkpt lat="46.36528" lon="4.73094">
        <ele>295</ele>
        <time>2022-06-25T12:00:24Z</time>
      </trkpt>
      <trkpt lat="46.36516" lon="4.73098">
        <ele>293.6</ele>
        <time>2022-06-25T12:00:26Z</time>
      </trkpt>
      <trkpt lat="46.36504" lon="4.731">
        <ele>293.2</ele>
        <time>2022-06-25T12:00:27Z</time>
      </trkpt>
      <trkpt lat="46.36492" lon="4.73098">
        <ele>292.6</ele>
        <time>2022-06-25T12:00:28Z</time>
      </trkpt>
      <trkpt lat="46.3648" lon="4.73096">
        <ele>292.2</ele>
        <time>2022-06-25T12:00:29Z</time>
      </trkpt>
      <trkpt lat="46.36469" lon="4.73093">
        <ele>291.6</ele>
        <time>2022-06-25T12:00:30Z</time>
      </trkpt>
      <trkpt lat="46.36459" lon="4.73089">
        <ele>291.4</ele>
        <time>2022-06-25T12:00:31Z</time>
      </trkpt>
      <trkpt lat="46.36448" lon="4.73086">
        <ele>291.4</ele>
        <time>2022-06-25T12:00:32Z</time>
      </trkpt>
      <trkpt lat="46.36438" lon="4.73082">
        <ele>291</ele>
        <time>2022-06-25T12:00:33Z</time>
      </trkpt>
      <trkpt lat="46.36428" lon="4.73078">
        <ele>291</ele>
        <time>2022-06-25T12:00:34Z</time>
      </trkpt>
      <trkpt lat="46.36419" lon="4.73073">
        <ele>290.4</ele>
        <time>2022-06-25T12:00:35Z</time>
      </trkpt>
      <trkpt lat="46.3641" lon="4.73069">
        <ele>290</ele>
        <time>2022-06-25T12:00:36Z</time>
      </trkpt>
      <trkpt lat="46.364" lon="4.73065">
        <ele>289.8</ele>
        <time>2022-06-25T12:00:37Z</time>
      </trkpt>
      <trkpt lat="46.36391" lon="4.73063">
        <ele>289.4</ele>
        <time>2022-06-25T12:00:38Z</time>
      </trkpt>
      <trkpt lat="46.36382" lon="4.73059">
        <ele>289</ele>
        <time>2022-06-25T12:00:39Z</time>
      </trkpt>
      <trkpt lat="46.36373" lon="4.73056">
        <ele>288.8</ele>
        <time>2022-06-25T12:00:40Z</time>
      </trkpt>
      <trkpt lat="46.36364" lon="4.73052">
        <ele>288.8</ele>
        <time>2022-06-25T12:00:41Z</time>
      </trkpt>
      <trkpt lat="46.36356" lon="4.73049">
        <ele>288.4</ele>
        <time>2022-06-25T12:00:42Z</time>
      </trkpt>
      <trkpt lat="46.36348" lon="4.73046">
        <ele>288.4</ele>
        <time>2022-06-25T12:00:43Z</time>
      </trkpt>
      <trkpt lat="46.3634" lon="4.73042">
        <ele>288</ele>
        <time>2022-06-25T12:00:44Z</time>
      </trkpt>
      <trkpt lat="46.36332" lon="4.73038">
        <ele>288</ele>
        <time>2022-06-25T12:00:45Z</time>
      </trkpt>
      <trkpt lat="46.36324" lon="4.73035">
        <ele>287.8</ele>
        <time>2022-06-25T12:00:46Z</time>
      </trkpt>
      <trkpt lat="46.36317" lon="4.73031">
        <ele>287.4</ele>
        <time>2022-06-25T12:00:47Z</time>
      </trkpt>
      <trkpt lat="46.36309" lon="4.73027">
        <ele>287.4</ele>
        <time>2022-06-25T12:00:48Z</time>
      </trkpt>
      <trkpt lat="46.36302" lon="4.73023">
        <ele>287.4</ele>
        <time>2022-06-25T12:00:49Z</time>
      </trkpt>
      <trkpt lat="46.36294" lon="4.73019">
        <ele>287</ele>
        <time>2022-06-25T12:00:50Z</time>
      </trkpt>
      <trkpt lat="46.36287" lon="4.73014">
        <ele>286.6</ele>
        <time>2022-06-25T12:00:51Z</time>
      </trkpt>
      <trkpt lat="46.3628" lon="4.73009">
        <ele>286.2</ele>
        <time>2022-06-25T12:00:52Z</time>
      </trkpt>
      <trkpt lat="46.36273" lon="4.73004">
        <ele>285.6</ele>
        <time>2022-06-25T12:00:53Z</time>
      </trkpt>
      <trkpt lat="46.36266" lon="4.72998">
        <ele>285.4</ele>
        <time>2022-06-25T12:00:54Z</time>
      </trkpt>
      <trkpt lat="46.36258" lon="4.72991">
        <ele>285</ele>
        <time>2022-06-25T12:00:55Z</time>
      </trkpt>
      <trkpt lat="46.36251" lon="4.72985">
        <ele>285</ele>
        <time>2022-06-25T12:00:56Z</time>
      </trkpt>
      <trkpt lat="46.36243" lon="4.7298">
        <ele>284.6</ele>
        <time>2022-06-25T12:00:57Z</time>
      </trkpt>
      <trkpt lat="46.36235" lon="4.72974">
        <ele>284.4</ele>
        <time>2022-06-25T12:00:58Z</time>
      </trkpt>
      <trkpt lat="46.36219" lon="4.72965">
        <ele>284.4</ele>
        <time>2022-06-25T12:00:59Z</time>
      </trkpt>
      <trkpt lat="46.36211" lon="4.72961">
        <ele>284.4</ele>
        <time>2022-06-25T12:01:00Z</time>
      </trkpt>
      <trkpt lat="46.36202" lon="4.72958">
        <ele>284.2</ele>
        <time>2022-06-25T12:01:01Z</time>
      </trkpt>
      <trkpt lat="46.36194" lon="4.72955">
        <ele>284.2</ele>
        <time>2022-06-25T12:01:02Z</time>
      </trkpt>
      <trkpt lat="46.36185" lon="4.72952">
        <ele>283.8</ele>
        <time>2022-06-25T12:01:03Z</time>
      </trkpt>
      <trkpt lat="46.36177" lon="4.72949">
        <ele>283.6</ele>
        <time>2022-06-25T12:01:04Z</time>
      </trkpt>
      <trkpt lat="46.36168" lon="4.72946">
        <ele>283.2</ele>
        <time>2022-06-25T12:01:05Z</time>
      </trkpt>
      <trkpt lat="46.3616" lon="4.72944">
        <ele>283.2</ele>
        <time>2022-06-25T12:01:06Z</time>
      </trkpt>
      <trkpt lat="46.36151" lon="4.72941">
        <ele>283</ele>
        <time>2022-06-25T12:01:07Z</time>
      </trkpt>
      <trkpt lat="46.36142" lon="4.72939">
        <ele>283</ele>
        <time>2022-06-25T12:01:08Z</time>
      </trkpt>
      <trkpt lat="46.36134" lon="4.72936">
        <ele>282.6</ele>
        <time>2022-06-25T12:01:09Z</time>
      </trkpt>
      <trkpt lat="46.36126" lon="4.72934">
        <ele>282.6</ele>
        <time>2022-06-25T12:01:10Z</time>
      </trkpt>
      <trkpt lat="46.36118" lon="4.72932">
        <ele>282.4</ele>
        <time>2022-06-25T12:01:11Z</time>
      </trkpt>
      <trkpt lat="46.36111" lon="4.72929">
        <ele>282.4</ele>
        <time>2022-06-25T12:01:12Z</time>
      </trkpt>
      <trkpt lat="46.36103" lon="4.72927">
        <ele>282.2</ele>
        <time>2022-06-25T12:01:14Z</time>
      </trkpt>
      <trkpt lat="46.36096" lon="4.72925">
        <ele>282.2</ele>
        <time>2022-06-25T12:01:15Z</time>
      </trkpt>
      <trkpt lat="46.36089" lon="4.72923">
        <ele>282.2</ele>
        <time>2022-06-25T12:01:16Z</time>
      </trkpt>
      <trkpt lat="46.36082" lon="4.72921">
        <ele>282</ele>
        <time>2022-06-25T12:01:17Z</time>
      </trkpt>
      <trkpt lat="46.36076" lon="4.7292">
        <ele>282</ele>
        <time>2022-06-25T12:01:18Z</time>
      </trkpt>
      <trkpt lat="46.36069" lon="4.72918">
        <ele>282</ele>
        <time>2022-06-25T12:01:19Z</time>
      </trkpt>
      <trkpt lat="46.36062" lon="4.72916">
        <ele>282</ele>
        <time>2022-06-25T12:01:20Z</time>
      </trkpt>
      <trkpt lat="46.36056" lon="4.72915">
        <ele>282</ele>
        <time>2022-06-25T12:01:21Z</time>
      </trkpt>
      <trkpt lat="46.36049" lon="4.72913">
        <ele>282</ele>
        <time>2022-06-25T12:01:22Z</time>
      </trkpt>
      <trkpt lat="46.36043" lon="4.72912">
        <ele>282</ele>
        <time>2022-06-25T12:01:23Z</time>
      </trkpt>
      <trkpt lat="46.36037" lon="4.7291">
        <ele>282</ele>
        <time>2022-06-25T12:01:24Z</time>
      </trkpt>
      <trkpt lat="46.3603" lon="4.72909">
        <ele>282.2</ele>
        <time>2022-06-25T12:01:25Z</time>
      </trkpt>
      <trkpt lat="46.36024" lon="4.72908">
        <ele>282.2</ele>
        <time>2022-06-25T12:01:26Z</time>
      </trkpt>
      <trkpt lat="46.36018" lon="4.72907">
        <ele>282.4</ele>
        <time>2022-06-25T12:01:27Z</time>
      </trkpt>
      <trkpt lat="46.36012" lon="4.72906">
        <ele>282.4</ele>
        <time>2022-06-25T12:01:28Z</time>
      </trkpt>
      <trkpt lat="46.36007" lon="4.72906">
        <ele>282.4</ele>
        <time>2022-06-25T12:01:29Z</time>
      </trkpt>
      <trkpt lat="46.36001" lon="4.72906">
        <ele>282.6</ele>
        <time>2022-06-25T12:01:30Z</time>
      </trkpt>
      <trkpt lat="46.35995" lon="4.72905">
        <ele>282.6</ele>
        <time>2022-06-25T12:01:31Z</time>
      </trkpt>
      <trkpt lat="46.3599" lon="4.72905">
        <ele>282.6</ele>
        <time>2022-06-25T12:01:32Z</time>
      </trkpt>
      <trkpt lat="46.35984" lon="4.72905">
        <ele>282.6</ele>
        <time>2022-06-25T12:01:33Z</time>
      </trkpt>
      <trkpt lat="46.35979" lon="4.72905">
        <ele>282.6</ele>
        <time>2022-06-25T12:01:34Z</time>
      </trkpt>
      <trkpt lat="46.35973" lon="4.72905">
        <ele>282.6</ele>
        <time>2022-06-25T12:01:35Z</time>
      </trkpt>
      <trkpt lat="46.35968" lon="4.72905">
        <ele>283</ele>
        <time>2022-06-25T12:01:36Z</time>
      </trkpt>
      <trkpt lat="46.35962" lon="4.72905">
        <ele>283</ele>
        <time>2022-06-25T12:01:37Z</time>
      </trkpt>
      <trkpt lat="46.35957" lon="4.72905">
        <ele>283.2</ele>
        <time>2022-06-25T12:01:38Z</time>
      </trkpt>
      <trkpt lat="46.35951" lon="4.72904">
        <ele>283.2</ele>
        <time>2022-06-25T12:01:39Z</time>
      </trkpt>
      <trkpt lat="46.35945" lon="4.72904">
        <ele>283.2</ele>
        <time>2022-06-25T12:01:40Z</time>
      </trkpt>
      <trkpt lat="46.3594" lon="4.72903">
        <ele>283.4</ele>
        <time>2022-06-25T12:01:41Z</time>
      </trkpt>
      <trkpt lat="46.35934" lon="4.72902">
        <ele>283.4</ele>
        <time>2022-06-25T12:01:42Z</time>
      </trkpt>
      <trkpt lat="46.35928" lon="4.729">
        <ele>283.4</ele>
        <time>2022-06-25T12:01:43Z</time>
      </trkpt>
      <trkpt lat="46.35922" lon="4.72899">
        <ele>283.6</ele>
        <time>2022-06-25T12:01:44Z</time>
      </trkpt>
      <trkpt lat="46.35916" lon="4.72897">
        <ele>283.6</ele>
        <time>2022-06-25T12:01:45Z</time>
      </trkpt>
      <trkpt lat="46.3591" lon="4.72896">
        <ele>284</ele>
        <time>2022-06-25T12:01:46Z</time>
      </trkpt>
      <trkpt lat="46.35904" lon="4.72895">
        <ele>284</ele>
        <time>2022-06-25T12:01:47Z</time>
      </trkpt>
      <trkpt lat="46.35898" lon="4.72893">
        <ele>284</ele>
        <time>2022-06-25T12:01:48Z</time>
      </trkpt>
      <trkpt lat="46.35893" lon="4.72892">
        <ele>284</ele>
        <time>2022-06-25T12:01:49Z</time>
      </trkpt>
      <trkpt lat="46.35887" lon="4.7289">
        <ele>284</ele>
        <time>2022-06-25T12:01:50Z</time>
      </trkpt>
      <trkpt lat="46.35881" lon="4.72889">
        <ele>284</ele>
        <time>2022-06-25T12:01:51Z</time>
      </trkpt>
      <trkpt lat="46.35875" lon="4.72887">
        <ele>284</ele>
        <time>2022-06-25T12:01:52Z</time>
      </trkpt>
      <trkpt lat="46.3587" lon="4.72885">
        <ele>284</ele>
        <time>2022-06-25T12:01:53Z</time>
      </trkpt>
      <trkpt lat="46.35864" lon="4.72883">
        <ele>284</ele>
        <time>2022-06-25T12:01:54Z</time>
      </trkpt>
      <trkpt lat="46.35859" lon="4.7288">
        <ele>284</ele>
        <time>2022-06-25T12:01:55Z</time>
      </trkpt>
      <trkpt lat="46.35853" lon="4.72877">
        <ele>284</ele>
        <time>2022-06-25T12:01:56Z</time>
      </trkpt>
      <trkpt lat="46.35848" lon="4.72874">
        <ele>284</ele>
        <time>2022-06-25T12:01:57Z</time>
      </trkpt>
      <trkpt lat="46.35842" lon="4.72871">
        <ele>284</ele>
        <time>2022-06-25T12:01:58Z</time>
      </trkpt>
      <trkpt lat="46.35836" lon="4.72869">
        <ele>284</ele>
        <time>2022-06-25T12:01:59Z</time>
      </trkpt>
      <trkpt lat="46.35831" lon="4.72866">
        <ele>284</ele>
        <time>2022-06-25T12:02:00Z</time>
      </trkpt>
      <trkpt lat="46.35825" lon="4.72863">
        <ele>284</ele>
        <time>2022-06-25T12:02:01Z</time>
      </trkpt>
      <trkpt lat="46.35819" lon="4.7286">
        <ele>284</ele>
        <time>2022-06-25T12:02:02Z</time>
      </trkpt>
      <trkpt lat="46.35813" lon="4.72857">
        <ele>284</ele>
        <time>2022-06-25T12:02:03Z</time>
      </trkpt>
      <trkpt lat="46.35807" lon="4.72854">
        <ele>284</ele>
        <time>2022-06-25T12:02:04Z</time>
      </trkpt>
      <trkpt lat="46.35802" lon="4.7285">
        <ele>284</ele>
        <time>2022-06-25T12:02:05Z</time>
      </trkpt>
      <trkpt lat="46.35796" lon="4.72847">
        <ele>283.8</ele>
        <time>2022-06-25T12:02:06Z</time>
      </trkpt>
      <trkpt lat="46.3579" lon="4.72844">
        <ele>283.8</ele>
        <time>2022-06-25T12:02:07Z</time>
      </trkpt>
      <trkpt lat="46.35784" lon="4.72841">
        <ele>283.6</ele>
        <time>2022-06-25T12:02:08Z</time>
      </trkpt>
      <trkpt lat="46.35779" lon="4.72837">
        <ele>283.6</ele>
        <time>2022-06-25T12:02:09Z</time>
      </trkpt>
      <trkpt lat="46.35773" lon="4.72834">
        <ele>283.6</ele>
        <time>2022-06-25T12:02:10Z</time>
      </trkpt>
      <trkpt lat="46.35767" lon="4.7283">
        <ele>283.6</ele>
        <time>2022-06-25T12:02:11Z</time>
      </trkpt>
      <trkpt lat="46.35761" lon="4.72827">
        <ele>283.6</ele>
        <time>2022-06-25T12:02:12Z</time>
      </trkpt>
      <trkpt lat="46.35756" lon="4.72823">
        <ele>283.6</ele>
        <time>2022-06-25T12:02:13Z</time>
      </trkpt>
      <trkpt lat="46.3575" lon="4.72819">
        <ele>283.6</ele>
        <time>2022-06-25T12:02:14Z</time>
      </trkpt>
      <trkpt lat="46.35745" lon="4.72815">
        <ele>283.6</ele>
        <time>2022-06-25T12:02:15Z</time>
      </trkpt>
      <trkpt lat="46.3574" lon="4.72811">
        <ele>283.6</ele>
        <time>2022-06-25T12:02:16Z</time>
      </trkpt>
      <trkpt lat="46.35734" lon="4.72807">
        <ele>283.6</ele>
        <time>2022-06-25T12:02:17Z</time>
      </trkpt>
      <trkpt lat="46.35729" lon="4.72802">
        <ele>283.8</ele>
        <time>2022-06-25T12:02:18Z</time>
      </trkpt>
      <trkpt lat="46.35724" lon="4.72798">
        <ele>283.8</ele>
        <time>2022-06-25T12:02:19Z</time>
      </trkpt>
      <trkpt lat="46.35719" lon="4.72794">
        <ele>283.8</ele>
        <time>2022-06-25T12:02:20Z</time>
      </trkpt>
      <trkpt lat="46.35714" lon="4.72789">
        <ele>283.8</ele>
        <time>2022-06-25T12:02:21Z</time>
      </trkpt>
      <trkpt lat="46.35708" lon="4.72785">
        <ele>284.2</ele>
        <time>2022-06-25T12:02:22Z</time>
      </trkpt>
      <trkpt lat="46.35703" lon="4.72781">
        <ele>284.2</ele>
        <time>2022-06-25T12:02:23Z</time>
      </trkpt>
      <trkpt lat="46.35698" lon="4.72777">
        <ele>284.2</ele>
        <time>2022-06-25T12:02:24Z</time>
      </trkpt>
      <trkpt lat="46.35692" lon="4.72772">
        <ele>284.4</ele>
        <time>2022-06-25T12:02:25Z</time>
      </trkpt>
      <trkpt lat="46.35687" lon="4.72768">
        <ele>284.4</ele>
        <time>2022-06-25T12:02:26Z</time>
      </trkpt>
      <trkpt lat="46.35682" lon="4.72764">
        <ele>284.6</ele>
        <time>2022-06-25T12:02:27Z</time>
      </trkpt>
      <trkpt lat="46.35676" lon="4.7276">
        <ele>284.6</ele>
        <time>2022-06-25T12:02:28Z</time>
      </trkpt>
      <trkpt lat="46.35671" lon="4.72755">
        <ele>284.6</ele>
        <time>2022-06-25T12:02:29Z</time>
      </trkpt>
      <trkpt lat="46.35666" lon="4.72751">
        <ele>285</ele>
        <time>2022-06-25T12:02:30Z</time>
      </trkpt>
      <trkpt lat="46.35661" lon="4.72746">
        <ele>285</ele>
        <time>2022-06-25T12:02:31Z</time>
      </trkpt>
      <trkpt lat="46.35655" lon="4.72742">
        <ele>285</ele>
        <time>2022-06-25T12:02:32Z</time>
      </trkpt>
      <trkpt lat="46.3565" lon="4.72738">
        <ele>285</ele>
        <time>2022-06-25T12:02:33Z</time>
      </trkpt>
      <trkpt lat="46.35645" lon="4.72734">
        <ele>285.2</ele>
        <time>2022-06-25T12:02:34Z</time>
      </trkpt>
      <trkpt lat="46.35639" lon="4.72729">
        <ele>285.2</ele>
        <time>2022-06-25T12:02:35Z</time>
      </trkpt>
      <trkpt lat="46.35634" lon="4.72725">
        <ele>285.2</ele>
        <time>2022-06-25T12:02:36Z</time>
      </trkpt>
      <trkpt lat="46.35629" lon="4.72721">
        <ele>285.2</ele>
        <time>2022-06-25T12:02:37Z</time>
      </trkpt>
      <trkpt lat="46.35624" lon="4.72717">
        <ele>285.2</ele>
        <time>2022-06-25T12:02:38Z</time>
      </trkpt>
      <trkpt lat="46.35618" lon="4.72712">
        <ele>285.2</ele>
        <time>2022-06-25T12:02:39Z</time>
      </trkpt>
      <trkpt lat="46.35613" lon="4.72708">
        <ele>284.8</ele>
        <time>2022-06-25T12:02:40Z</time>
      </trkpt>
      <trkpt lat="46.35608" lon="4.72704">
        <ele>284.8</ele>
        <time>2022-06-25T12:02:41Z</time>
      </trkpt>
      <trkpt lat="46.35603" lon="4.72699">
        <ele>284.8</ele>
        <time>2022-06-25T12:02:42Z</time>
      </trkpt>
      <trkpt lat="46.35597" lon="4.72694">
        <ele>284.8</ele>
        <time>2022-06-25T12:02:43Z</time>
      </trkpt>
      <trkpt lat="46.35592" lon="4.7269">
        <ele>284.8</ele>
        <time>2022-06-25T12:02:44Z</time>
      </trkpt>
      <trkpt lat="46.35587" lon="4.72685">
        <ele>284.6</ele>
        <time>2022-06-25T12:02:45Z</time>
      </trkpt>
      <trkpt lat="46.35581" lon="4.72681">
        <ele>284.6</ele>
        <time>2022-06-25T12:02:46Z</time>
      </trkpt>
      <trkpt lat="46.35576" lon="4.72676">
        <ele>284.6</ele>
        <time>2022-06-25T12:02:47Z</time>
      </trkpt>
      <trkpt lat="46.3557" lon="4.72671">
        <ele>284.6</ele>
        <time>2022-06-25T12:02:48Z</time>
      </trkpt>
      <trkpt lat="46.35565" lon="4.72666">
        <ele>284.4</ele>
        <time>2022-06-25T12:02:49Z</time>
      </trkpt>
      <trkpt lat="46.35559" lon="4.72661">
        <ele>284.4</ele>
        <time>2022-06-25T12:02:50Z</time>
      </trkpt>
      <trkpt lat="46.35554" lon="4.72656">
        <ele>284.4</ele>
        <time>2022-06-25T12:02:51Z</time>
      </trkpt>
      <trkpt lat="46.35548" lon="4.72651">
        <ele>284.4</ele>
        <time>2022-06-25T12:02:52Z</time>
      </trkpt>
      <trkpt lat="46.35543" lon="4.72645">
        <ele>284.4</ele>
        <time>2022-06-25T12:02:53Z</time>
      </trkpt>
      <trkpt lat="46.35537" lon="4.7264">
        <ele>284</ele>
        <time>2022-06-25T12:02:54Z</time>
      </trkpt>
      <trkpt lat="46.35532" lon="4.72635">
        <ele>284</ele>
        <time>2022-06-25T12:02:55Z</time>
      </trkpt>
      <trkpt lat="46.35527" lon="4.7263">
        <ele>284</ele>
        <time>2022-06-25T12:02:56Z</time>
      </trkpt>
      <trkpt lat="46.35521" lon="4.72625">
        <ele>283.8</ele>
        <time>2022-06-25T12:02:57Z</time>
      </trkpt>
      <trkpt lat="46.35516" lon="4.7262">
        <ele>283.4</ele>
        <time>2022-06-25T12:02:58Z</time>
      </trkpt>
      <trkpt lat="46.3551" lon="4.72614">
        <ele>283.4</ele>
        <time>2022-06-25T12:02:59Z</time>
      </trkpt>
      <trkpt lat="46.35505" lon="4.72609">
        <ele>283.2</ele>
        <time>2022-06-25T12:03:00Z</time>
      </trkpt>
      <trkpt lat="46.35499" lon="4.72604">
        <ele>283.2</ele>
        <time>2022-06-25T12:03:01Z</time>
      </trkpt>
      <trkpt lat="46.35492" lon="4.72599">
        <ele>282.8</ele>
        <time>2022-06-25T12:03:02Z</time>
      </trkpt>
      <trkpt lat="46.35486" lon="4.72594">
        <ele>282.8</ele>
        <time>2022-06-25T12:03:03Z</time>
      </trkpt>
      <trkpt lat="46.35479" lon="4.72589">
        <ele>282.6</ele>
        <time>2022-06-25T12:03:04Z</time>
      </trkpt>
      <trkpt lat="46.35472" lon="4.72585">
        <ele>282.6</ele>
        <time>2022-06-25T12:03:05Z</time>
      </trkpt>
      <trkpt lat="46.35465" lon="4.72582">
        <ele>282.4</ele>
        <time>2022-06-25T12:03:06Z</time>
      </trkpt>
      <trkpt lat="46.35458" lon="4.72579">
        <ele>282.4</ele>
        <time>2022-06-25T12:03:07Z</time>
      </trkpt>
      <trkpt lat="46.35451" lon="4.72576">
        <ele>282.4</ele>
        <time>2022-06-25T12:03:08Z</time>
      </trkpt>
      <trkpt lat="46.35444" lon="4.72573">
        <ele>282.4</ele>
        <time>2022-06-25T12:03:09Z</time>
      </trkpt>
      <trkpt lat="46.35437" lon="4.72571">
        <ele>282.4</ele>
        <time>2022-06-25T12:03:10Z</time>
      </trkpt>
      <trkpt lat="46.3543" lon="4.72568">
        <ele>282.4</ele>
        <time>2022-06-25T12:03:11Z</time>
      </trkpt>
      <trkpt lat="46.35424" lon="4.72565">
        <ele>282.2</ele>
        <time>2022-06-25T12:03:12Z</time>
      </trkpt>
      <trkpt lat="46.35417" lon="4.72563">
        <ele>282.2</ele>
        <time>2022-06-25T12:03:13Z</time>
      </trkpt>
      <trkpt lat="46.3541" lon="4.72561">
        <ele>282.2</ele>
        <time>2022-06-25T12:03:14Z</time>
      </trkpt>
      <trkpt lat="46.35404" lon="4.72558">
        <ele>282.2</ele>
        <time>2022-06-25T12:03:15Z</time>
      </trkpt>
      <trkpt lat="46.35398" lon="4.72556">
        <ele>282.2</ele>
        <time>2022-06-25T12:03:16Z</time>
      </trkpt>
      <trkpt lat="46.35391" lon="4.72553">
        <ele>282.2</ele>
        <time>2022-06-25T12:03:17Z</time>
      </trkpt>
      <trkpt lat="46.35385" lon="4.72551">
        <ele>282.2</ele>
        <time>2022-06-25T12:03:18Z</time>
      </trkpt>
      <trkpt lat="46.35379" lon="4.72548">
        <ele>282.2</ele>
        <time>2022-06-25T12:03:19Z</time>
      </trkpt>
      <trkpt lat="46.35373" lon="4.72546">
        <ele>282.2</ele>
        <time>2022-06-25T12:03:20Z</time>
      </trkpt>
      <trkpt lat="46.35367" lon="4.72544">
        <ele>282.4</ele>
        <time>2022-06-25T12:03:21Z</time>
      </trkpt>
      <trkpt lat="46.35362" lon="4.72542">
        <ele>282.4</ele>
        <time>2022-06-25T12:03:22Z</time>
      </trkpt>
      <trkpt lat="46.3535" lon="4.72538">
        <ele>282.4</ele>
        <time>2022-06-25T12:03:23Z</time>
      </trkpt>
      <trkpt lat="46.35344" lon="4.72536">
        <ele>282.4</ele>
        <time>2022-06-25T12:03:24Z</time>
      </trkpt>
      <trkpt lat="46.35339" lon="4.72534">
        <ele>282.4</ele>
        <time>2022-06-25T12:03:25Z</time>
      </trkpt>
      <trkpt lat="46.35333" lon="4.72533">
        <ele>282.6</ele>
        <time>2022-06-25T12:03:26Z</time>
      </trkpt>
      <trkpt lat="46.35328" lon="4.72531">
        <ele>282.6</ele>
        <time>2022-06-25T12:03:27Z</time>
      </trkpt>
      <trkpt lat="46.35322" lon="4.7253">
        <ele>282.8</ele>
        <time>2022-06-25T12:03:28Z</time>
      </trkpt>
      <trkpt lat="46.35317" lon="4.72528">
        <ele>282.8</ele>
        <time>2022-06-25T12:03:29Z</time>
      </trkpt>
      <trkpt lat="46.35312" lon="4.72527">
        <ele>282.8</ele>
        <time>2022-06-25T12:03:30Z</time>
      </trkpt>
      <trkpt lat="46.35307" lon="4.72525">
        <ele>282.8</ele>
        <time>2022-06-25T12:03:31Z</time>
      </trkpt>
      <trkpt lat="46.35301" lon="4.72524">
        <ele>283</ele>
        <time>2022-06-25T12:03:32Z</time>
      </trkpt>
      <trkpt lat="46.35296" lon="4.72521">
        <ele>283.2</ele>
        <time>2022-06-25T12:03:33Z</time>
      </trkpt>
      <trkpt lat="46.35291" lon="4.72519">
        <ele>283.2</ele>
        <time>2022-06-25T12:03:34Z</time>
      </trkpt>
      <trkpt lat="46.35286" lon="4.72517">
        <ele>283.6</ele>
        <time>2022-06-25T12:03:35Z</time>
      </trkpt>
      <trkpt lat="46.35282" lon="4.72515">
        <ele>283.6</ele>
        <time>2022-06-25T12:03:36Z</time>
      </trkpt>
      <trkpt lat="46.35277" lon="4.72513">
        <ele>283.8</ele>
        <time>2022-06-25T12:03:37Z</time>
      </trkpt>
      <trkpt lat="46.35273" lon="4.72511">
        <ele>283.8</ele>
        <time>2022-06-25T12:03:38Z</time>
      </trkpt>
      <trkpt lat="46.35268" lon="4.72508">
        <ele>284.2</ele>
        <time>2022-06-25T12:03:39Z</time>
      </trkpt>
      <trkpt lat="46.35264" lon="4.72506">
        <ele>284.2</ele>
        <time>2022-06-25T12:03:40Z</time>
      </trkpt>
      <trkpt lat="46.35259" lon="4.72504">
        <ele>284.4</ele>
        <time>2022-06-25T12:03:41Z</time>
      </trkpt>
      <trkpt lat="46.35255" lon="4.72502">
        <ele>284.4</ele>
        <time>2022-06-25T12:03:42Z</time>
      </trkpt>
      <trkpt lat="46.35251" lon="4.725">
        <ele>284.8</ele>
        <time>2022-06-25T12:03:43Z</time>
      </trkpt>
      <trkpt lat="46.35247" lon="4.72498">
        <ele>284.8</ele>
        <time>2022-06-25T12:03:44Z</time>
      </trkpt>
      <trkpt lat="46.35242" lon="4.72496">
        <ele>285.2</ele>
        <time>2022-06-25T12:03:45Z</time>
      </trkpt>
      <trkpt lat="46.35238" lon="4.72494">
        <ele>285.2</ele>
        <time>2022-06-25T12:03:46Z</time>
      </trkpt>
      <trkpt lat="46.35234" lon="4.72492">
        <ele>285.4</ele>
        <time>2022-06-25T12:03:47Z</time>
      </trkpt>
      <trkpt lat="46.3523" lon="4.7249">
        <ele>286</ele>
        <time>2022-06-25T12:03:48Z</time>
      </trkpt>
      <trkpt lat="46.35226" lon="4.72489">
        <ele>286</ele>
        <time>2022-06-25T12:03:49Z</time>
      </trkpt>
      <trkpt lat="46.35222" lon="4.72487">
        <ele>286.2</ele>
        <time>2022-06-25T12:03:50Z</time>
      </trkpt>
      <trkpt lat="46.35218" lon="4.72486">
        <ele>286.2</ele>
        <time>2022-06-25T12:03:51Z</time>
      </trkpt>
      <trkpt lat="46.35214" lon="4.72484">
        <ele>286.2</ele>
        <time>2022-06-25T12:03:52Z</time>
      </trkpt>
      <trkpt lat="46.3521" lon="4.72483">
        <ele>286.6</ele>
        <time>2022-06-25T12:03:53Z</time>
      </trkpt>
      <trkpt lat="46.35206" lon="4.72481">
        <ele>286.8</ele>
        <time>2022-06-25T12:03:54Z</time>
      </trkpt>
      <trkpt lat="46.35202" lon="4.72479">
        <ele>286.8</ele>
        <time>2022-06-25T12:03:55Z</time>
      </trkpt>
      <trkpt lat="46.35197" lon="4.72477">
        <ele>286.8</ele>
        <time>2022-06-25T12:03:56Z</time>
      </trkpt>
      <trkpt lat="46.35193" lon="4.72476">
        <ele>287</ele>
        <time>2022-06-25T12:03:57Z</time>
      </trkpt>
      <trkpt lat="46.35189" lon="4.72474">
        <ele>287</ele>
        <time>2022-06-25T12:03:58Z</time>
      </trkpt>
      <trkpt lat="46.35184" lon="4.72472">
        <ele>287</ele>
        <time>2022-06-25T12:03:59Z</time>
      </trkpt>
      <trkpt lat="46.3518" lon="4.7247">
        <ele>287</ele>
        <time>2022-06-25T12:04:00Z</time>
      </trkpt>
      <trkpt lat="46.35175" lon="4.72468">
        <ele>287.4</ele>
        <time>2022-06-25T12:04:01Z</time>
      </trkpt>
      <trkpt lat="46.35171" lon="4.72466">
        <ele>287.4</ele>
        <time>2022-06-25T12:04:02Z</time>
      </trkpt>
      <trkpt lat="46.35166" lon="4.72464">
        <ele>287.4</ele>
        <time>2022-06-25T12:04:03Z</time>
      </trkpt>
      <trkpt lat="46.35162" lon="4.72463">
        <ele>287.4</ele>
        <time>2022-06-25T12:04:04Z</time>
      </trkpt>
      <trkpt lat="46.35157" lon="4.72461">
        <ele>287.6</ele>
        <time>2022-06-25T12:04:05Z</time>
      </trkpt>
      <trkpt lat="46.35153" lon="4.72459">
        <ele>287.6</ele>
        <time>2022-06-25T12:04:06Z</time>
      </trkpt>
      <trkpt lat="46.35148" lon="4.72456">
        <ele>287.6</ele>
        <time>2022-06-25T12:04:07Z</time>
      </trkpt>
      <trkpt lat="46.35143" lon="4.72454">
        <ele>287.8</ele>
        <time>2022-06-25T12:04:08Z</time>
      </trkpt>
      <trkpt lat="46.35139" lon="4.72453">
        <ele>287.8</ele>
        <time>2022-06-25T12:04:09Z</time>
      </trkpt>
      <trkpt lat="46.35134" lon="4.72451">
        <ele>287.8</ele>
        <time>2022-06-25T12:04:10Z</time>
      </trkpt>
      <trkpt lat="46.35129" lon="4.72449">
        <ele>287.8</ele>
        <time>2022-06-25T12:04:11Z</time>
      </trkpt>
      <trkpt lat="46.35124" lon="4.72447">
        <ele>287.8</ele>
        <time>2022-06-25T12:04:12Z</time>
      </trkpt>
      <trkpt lat="46.35119" lon="4.72444">
        <ele>287.8</ele>
        <time>2022-06-25T12:04:13Z</time>
      </trkpt>
      <trkpt lat="46.35114" lon="4.72442">
        <ele>287.8</ele>
        <time>2022-06-25T12:04:14Z</time>
      </trkpt>
      <trkpt lat="46.35109" lon="4.7244">
        <ele>287.6</ele>
        <time>2022-06-25T12:04:15Z</time>
      </trkpt>
      <trkpt lat="46.35104" lon="4.72437">
        <ele>287.2</ele>
        <time>2022-06-25T12:04:16Z</time>
      </trkpt>
      <trkpt lat="46.35098" lon="4.72435">
        <ele>287</ele>
        <time>2022-06-25T12:04:17Z</time>
      </trkpt>
      <trkpt lat="46.35093" lon="4.72432">
        <ele>286.8</ele>
        <time>2022-06-25T12:04:18Z</time>
      </trkpt>
      <trkpt lat="46.35087" lon="4.72429">
        <ele>286.4</ele>
        <time>2022-06-25T12:04:19Z</time>
      </trkpt>
      <trkpt lat="46.35082" lon="4.72425">
        <ele>286.4</ele>
        <time>2022-06-25T12:04:20Z</time>
      </trkpt>
      <trkpt lat="46.35076" lon="4.72421">
        <ele>286.4</ele>
        <time>2022-06-25T12:04:21Z</time>
      </trkpt>
      <trkpt lat="46.3507" lon="4.72417">
        <ele>286.2</ele>
        <time>2022-06-25T12:04:22Z</time>
      </trkpt>
      <trkpt lat="46.35064" lon="4.72413">
        <ele>285.8</ele>
        <time>2022-06-25T12:04:23Z</time>
      </trkpt>
      <trkpt lat="46.35058" lon="4.72408">
        <ele>285.6</ele>
        <time>2022-06-25T12:04:24Z</time>
      </trkpt>
      <trkpt lat="46.35052" lon="4.72403">
        <ele>285</ele>
        <time>2022-06-25T12:04:25Z</time>
      </trkpt>
      <trkpt lat="46.35046" lon="4.72397">
        <ele>284.4</ele>
        <time>2022-06-25T12:04:26Z</time>
      </trkpt>
      <trkpt lat="46.35041" lon="4.72391">
        <ele>284</ele>
        <time>2022-06-25T12:04:27Z</time>
      </trkpt>
      <trkpt lat="46.35035" lon="4.72384">
        <ele>283.6</ele>
        <time>2022-06-25T12:04:28Z</time>
      </trkpt>
      <trkpt lat="46.35029" lon="4.72378">
        <ele>283</ele>
        <time>2022-06-25T12:04:29Z</time>
      </trkpt>
      <trkpt lat="46.35022" lon="4.72372">
        <ele>282.6</ele>
        <time>2022-06-25T12:04:30Z</time>
      </trkpt>
      <trkpt lat="46.35015" lon="4.72366">
        <ele>282.2</ele>
        <time>2022-06-25T12:04:31Z</time>
      </trkpt>
      <trkpt lat="46.35008" lon="4.72362">
        <ele>281.8</ele>
        <time>2022-06-25T12:04:32Z</time>
      </trkpt>
      <trkpt lat="46.35001" lon="4.72358">
        <ele>281.4</ele>
        <time>2022-06-25T12:04:33Z</time>
      </trkpt>
      <trkpt lat="46.34992" lon="4.72355">
        <ele>280.8</ele>
        <time>2022-06-25T12:04:34Z</time>
      </trkpt>
      <trkpt lat="46.34984" lon="4.72353">
        <ele>280.4</ele>
        <time>2022-06-25T12:04:35Z</time>
      </trkpt>
      <trkpt lat="46.34975" lon="4.72352">
        <ele>279.8</ele>
        <time>2022-06-25T12:04:36Z</time>
      </trkpt>
      <trkpt lat="46.34966" lon="4.72352">
        <ele>279.4</ele>
        <time>2022-06-25T12:04:37Z</time>
      </trkpt>
      <trkpt lat="46.34957" lon="4.72352">
        <ele>279</ele>
        <time>2022-06-25T12:04:38Z</time>
      </trkpt>
      <trkpt lat="46.34947" lon="4.72352">
        <ele>278.4</ele>
        <time>2022-06-25T12:04:39Z</time>
      </trkpt>
      <trkpt lat="46.34937" lon="4.72353">
        <ele>277.8</ele>
        <time>2022-06-25T12:04:40Z</time>
      </trkpt>
      <trkpt lat="46.34928" lon="4.72354">
        <ele>277.2</ele>
        <time>2022-06-25T12:04:41Z</time>
      </trkpt>
      <trkpt lat="46.34917" lon="4.72354">
        <ele>276.6</ele>
        <time>2022-06-25T12:04:42Z</time>
      </trkpt>
      <trkpt lat="46.34907" lon="4.72353">
        <ele>275.8</ele>
        <time>2022-06-25T12:04:43Z</time>
      </trkpt>
      <trkpt lat="46.34897" lon="4.72353">
        <ele>275.2</ele>
        <time>2022-06-25T12:04:44Z</time>
      </trkpt>
      <trkpt lat="46.34886" lon="4.72352">
        <ele>274.6</ele>
        <time>2022-06-25T12:04:45Z</time>
      </trkpt>
      <trkpt lat="46.34876" lon="4.72352">
        <ele>274.2</ele>
        <time>2022-06-25T12:04:46Z</time>
      </trkpt>
      <trkpt lat="46.34867" lon="4.72352">
        <ele>273.6</ele>
        <time>2022-06-25T12:04:47Z</time>
      </trkpt>
      <trkpt lat="46.34857" lon="4.72353">
        <ele>273.2</ele>
        <time>2022-06-25T12:04:48Z</time>
      </trkpt>
      <trkpt lat="46.34847" lon="4.72351">
        <ele>272.8</ele>
        <time>2022-06-25T12:04:49Z</time>
      </trkpt>
      <trkpt lat="46.34837" lon="4.72349">
        <ele>272.2</ele>
        <time>2022-06-25T12:04:50Z</time>
      </trkpt>
      <trkpt lat="46.34827" lon="4.72349">
        <ele>271.6</ele>
        <time>2022-06-25T12:04:51Z</time>
      </trkpt>
      <trkpt lat="46.34817" lon="4.72348">
        <ele>271</ele>
        <time>2022-06-25T12:04:52Z</time>
      </trkpt>
      <trkpt lat="46.34806" lon="4.72347">
        <ele>270.8</ele>
        <time>2022-06-25T12:04:53Z</time>
      </trkpt>
      <trkpt lat="46.34795" lon="4.72347">
        <ele>270.4</ele>
        <time>2022-06-25T12:04:54Z</time>
      </trkpt>
      <trkpt lat="46.34785" lon="4.72348">
        <ele>270</ele>
        <time>2022-06-25T12:04:55Z</time>
      </trkpt>
      <trkpt lat="46.34774" lon="4.72347">
        <ele>269.4</ele>
        <time>2022-06-25T12:04:56Z</time>
      </trkpt>
      <trkpt lat="46.34764" lon="4.72345">
        <ele>268.8</ele>
        <time>2022-06-25T12:04:57Z</time>
      </trkpt>
      <trkpt lat="46.34754" lon="4.72344">
        <ele>268.4</ele>
        <time>2022-06-25T12:04:58Z</time>
      </trkpt>
      <trkpt lat="46.34743" lon="4.72343">
        <ele>268</ele>
        <time>2022-06-25T12:04:59Z</time>
      </trkpt>
      <trkpt lat="46.34733" lon="4.72342">
        <ele>267.4</ele>
        <time>2022-06-25T12:05:00Z</time>
      </trkpt>
      <trkpt lat="46.34723" lon="4.72342">
        <ele>266.8</ele>
        <time>2022-06-25T12:05:01Z</time>
      </trkpt>
      <trkpt lat="46.34712" lon="4.7234">
        <ele>266.4</ele>
        <time>2022-06-25T12:05:02Z</time>
      </trkpt>
      <trkpt lat="46.34701" lon="4.72338">
        <ele>265.6</ele>
        <time>2022-06-25T12:05:03Z</time>
      </trkpt>
      <trkpt lat="46.34691" lon="4.72336">
        <ele>265</ele>
        <time>2022-06-25T12:05:04Z</time>
      </trkpt>
      <trkpt lat="46.34681" lon="4.72333">
        <ele>264.6</ele>
        <time>2022-06-25T12:05:05Z</time>
      </trkpt>
      <trkpt lat="46.3467" lon="4.72333">
        <ele>264.2</ele>
        <time>2022-06-25T12:05:06Z</time>
      </trkpt>
      <trkpt lat="46.3466" lon="4.72332">
        <ele>263.6</ele>
        <time>2022-06-25T12:05:07Z</time>
      </trkpt>
      <trkpt lat="46.3465" lon="4.72329">
        <ele>263.2</ele>
        <time>2022-06-25T12:05:08Z</time>
      </trkpt>
      <trkpt lat="46.34639" lon="4.72327">
        <ele>262.4</ele>
        <time>2022-06-25T12:05:09Z</time>
      </trkpt>
      <trkpt lat="46.34629" lon="4.72325">
        <ele>261.8</ele>
        <time>2022-06-25T12:05:10Z</time>
      </trkpt>
      <trkpt lat="46.34618" lon="4.72324">
        <ele>261.2</ele>
        <time>2022-06-25T12:05:11Z</time>
      </trkpt>
      <trkpt lat="46.34608" lon="4.72322">
        <ele>260.8</ele>
        <time>2022-06-25T12:05:12Z</time>
      </trkpt>
      <trkpt lat="46.34597" lon="4.7232">
        <ele>260.4</ele>
        <time>2022-06-25T12:05:13Z</time>
      </trkpt>
      <trkpt lat="46.34587" lon="4.72319">
        <ele>260.2</ele>
        <time>2022-06-25T12:05:14Z</time>
      </trkpt>
      <trkpt lat="46.34577" lon="4.72318">
        <ele>259.8</ele>
        <time>2022-06-25T12:05:15Z</time>
      </trkpt>
      <trkpt lat="46.34568" lon="4.72317">
        <ele>259.2</ele>
        <time>2022-06-25T12:05:16Z</time>
      </trkpt>
      <trkpt lat="46.34559" lon="4.72316">
        <ele>259</ele>
        <time>2022-06-25T12:05:17Z</time>
      </trkpt>
      <trkpt lat="46.34552" lon="4.72315">
        <ele>258.6</ele>
        <time>2022-06-25T12:05:18Z</time>
      </trkpt>
      <trkpt lat="46.34545" lon="4.72314">
        <ele>258</ele>
        <time>2022-06-25T12:05:19Z</time>
      </trkpt>
      <trkpt lat="46.34538" lon="4.72313">
        <ele>257.4</ele>
        <time>2022-06-25T12:05:20Z</time>
      </trkpt>
      <trkpt lat="46.34533" lon="4.72308">
        <ele>257</ele>
        <time>2022-06-25T12:05:21Z</time>
      </trkpt>
      <trkpt lat="46.34529" lon="4.72302">
        <ele>256.6</ele>
        <time>2022-06-25T12:05:22Z</time>
      </trkpt>
      <trkpt lat="46.34525" lon="4.72295">
        <ele>256.2</ele>
        <time>2022-06-25T12:05:23Z</time>
      </trkpt>
      <trkpt lat="46.34523" lon="4.72287">
        <ele>255.6</ele>
        <time>2022-06-25T12:05:24Z</time>
      </trkpt>
      <trkpt lat="46.34522" lon="4.72278">
        <ele>255.4</ele>
        <time>2022-06-25T12:05:25Z</time>
      </trkpt>
      <trkpt lat="46.34522" lon="4.72269">
        <ele>255.4</ele>
        <time>2022-06-25T12:05:26Z</time>
      </trkpt>
      <trkpt lat="46.34523" lon="4.72259">
        <ele>255</ele>
        <time>2022-06-25T12:05:27Z</time>
      </trkpt>
      <trkpt lat="46.34523" lon="4.7225">
        <ele>255</ele>
        <time>2022-06-25T12:05:28Z</time>
      </trkpt>
      <trkpt lat="46.34522" lon="4.72241">
        <ele>254.8</ele>
        <time>2022-06-25T12:05:29Z</time>
      </trkpt>
      <trkpt lat="46.34522" lon="4.72232">
        <ele>254.8</ele>
        <time>2022-06-25T12:05:30Z</time>
      </trkpt>
      <trkpt lat="46.34522" lon="4.72223">
        <ele>254.8</ele>
        <time>2022-06-25T12:05:31Z</time>
      </trkpt>
      <trkpt lat="46.34522" lon="4.72214">
        <ele>254.8</ele>
        <time>2022-06-25T12:05:32Z</time>
      </trkpt>
      <trkpt lat="46.34521" lon="4.72205">
        <ele>254.8</ele>
        <time>2022-06-25T12:05:33Z</time>
      </trkpt>
      <trkpt lat="46.34521" lon="4.72197">
        <ele>254.8</ele>
        <time>2022-06-25T12:05:34Z</time>
      </trkpt>
      <trkpt lat="46.34521" lon="4.72189">
        <ele>254.8</ele>
        <time>2022-06-25T12:05:35Z</time>
      </trkpt>
      <trkpt lat="46.34521" lon="4.72182">
        <ele>254.8</ele>
        <time>2022-06-25T12:05:36Z</time>
      </trkpt>
      <trkpt lat="46.3452" lon="4.72176">
        <ele>254.8</ele>
        <time>2022-06-25T12:05:37Z</time>
      </trkpt>
      <trkpt lat="46.34519" lon="4.72171">
        <ele>254.8</ele>
        <time>2022-06-25T12:05:38Z</time>
      </trkpt>
      <trkpt lat="46.34518" lon="4.72166">
        <ele>254.8</ele>
        <time>2022-06-25T12:05:39Z</time>
      </trkpt>
      <trkpt lat="46.34517" lon="4.7216">
        <ele>254.8</ele>
        <time>2022-06-25T12:05:40Z</time>
      </trkpt>
      <trkpt lat="46.34516" lon="4.72155">
        <ele>254.8</ele>
        <time>2022-06-25T12:05:41Z</time>
      </trkpt>
      <trkpt lat="46.34514" lon="4.72149">
        <ele>254.8</ele>
        <time>2022-06-25T12:05:42Z</time>
      </trkpt>
      <trkpt lat="46.34513" lon="4.72143">
        <ele>254.8</ele>
        <time>2022-06-25T12:05:43Z</time>
      </trkpt>
      <trkpt lat="46.34513" lon="4.72137">
        <ele>254.8</ele>
        <time>2022-06-25T12:05:44Z</time>
      </trkpt>
      <trkpt lat="46.34513" lon="4.72131">
        <ele>254.8</ele>
        <time>2022-06-25T12:05:45Z</time>
      </trkpt>
      <trkpt lat="46.34514" lon="4.72125">
        <ele>254.8</ele>
        <time>2022-06-25T12:05:46Z</time>
      </trkpt>
      <trkpt lat="46.34514" lon="4.7212">
        <ele>254.4</ele>
        <time>2022-06-25T12:05:47Z</time>
      </trkpt>
      <trkpt lat="46.34516" lon="4.72116">
        <ele>254.4</ele>
        <time>2022-06-25T12:05:48Z</time>
      </trkpt>
      <trkpt lat="46.34517" lon="4.72111">
        <ele>254.4</ele>
        <time>2022-06-25T12:05:49Z</time>
      </trkpt>
      <trkpt lat="46.3452" lon="4.72108">
        <ele>254.4</ele>
        <time>2022-06-25T12:05:50Z</time>
      </trkpt>
      <trkpt lat="46.34522" lon="4.72104">
        <ele>254.4</ele>
        <time>2022-06-25T12:05:51Z</time>
      </trkpt>
      <trkpt lat="46.34526" lon="4.721">
        <ele>254.4</ele>
        <time>2022-06-25T12:05:52Z</time>
      </trkpt>
      <trkpt lat="46.34529" lon="4.72095">
        <ele>254.4</ele>
        <time>2022-06-25T12:05:53Z</time>
      </trkpt>
      <trkpt lat="46.34531" lon="4.72091">
        <ele>254.4</ele>
        <time>2022-06-25T12:05:54Z</time>
      </trkpt>
      <trkpt lat="46.34534" lon="4.72087">
        <ele>254.6</ele>
        <time>2022-06-25T12:05:55Z</time>
      </trkpt>
      <trkpt lat="46.34536" lon="4.72083">
        <ele>254.6</ele>
        <time>2022-06-25T12:05:56Z</time>
      </trkpt>
      <trkpt lat="46.34539" lon="4.72078">
        <ele>255</ele>
        <time>2022-06-25T12:05:57Z</time>
      </trkpt>
      <trkpt lat="46.34542" lon="4.72073">
        <ele>255</ele>
        <time>2022-06-25T12:05:58Z</time>
      </trkpt>
      <trkpt lat="46.34545" lon="4.72069">
        <ele>255.2</ele>
        <time>2022-06-25T12:05:59Z</time>
      </trkpt>
      <trkpt lat="46.34548" lon="4.72064">
        <ele>255.2</ele>
        <time>2022-06-25T12:06:00Z</time>
      </trkpt>
      <trkpt lat="46.34551" lon="4.72059">
        <ele>255.2</ele>
        <time>2022-06-25T12:06:01Z</time>
      </trkpt>
      <trkpt lat="46.34554" lon="4.72054">
        <ele>255.4</ele>
        <time>2022-06-25T12:06:02Z</time>
      </trkpt>
      <trkpt lat="46.34557" lon="4.7205">
        <ele>255.4</ele>
        <time>2022-06-25T12:06:03Z</time>
      </trkpt>
      <trkpt lat="46.34559" lon="4.72045">
        <ele>255.4</ele>
        <time>2022-06-25T12:06:04Z</time>
      </trkpt>
      <trkpt lat="46.34563" lon="4.7204">
        <ele>255.6</ele>
        <time>2022-06-25T12:06:05Z</time>
      </trkpt>
      <trkpt lat="46.34566" lon="4.72035">
        <ele>255.6</ele>
        <time>2022-06-25T12:06:06Z</time>
      </trkpt>
      <trkpt lat="46.34569" lon="4.7203">
        <ele>255.6</ele>
        <time>2022-06-25T12:06:07Z</time>
      </trkpt>
      <trkpt lat="46.34573" lon="4.72025">
        <ele>255.6</ele>
        <time>2022-06-25T12:06:08Z</time>
      </trkpt>
      <trkpt lat="46.34576" lon="4.7202">
        <ele>255.6</ele>
        <time>2022-06-25T12:06:09Z</time>
      </trkpt>
      <trkpt lat="46.3458" lon="4.72015">
        <ele>255.8</ele>
        <time>2022-06-25T12:06:10Z</time>
      </trkpt>
      <trkpt lat="46.34584" lon="4.72009">
        <ele>255.8</ele>
        <time>2022-06-25T12:06:11Z</time>
      </trkpt>
      <trkpt lat="46.34588" lon="4.72003">
        <ele>255.8</ele>
        <time>2022-06-25T12:06:13Z</time>
      </trkpt>
      <trkpt lat="46.34593" lon="4.71997">
        <ele>255.8</ele>
        <time>2022-06-25T12:06:14Z</time>
      </trkpt>
      <trkpt lat="46.34598" lon="4.71991">
        <ele>255.8</ele>
        <time>2022-06-25T12:06:15Z</time>
      </trkpt>
      <trkpt lat="46.34602" lon="4.71984">
        <ele>255.8</ele>
        <time>2022-06-25T12:06:16Z</time>
      </trkpt>
      <trkpt lat="46.34607" lon="4.71977">
        <ele>255.6</ele>
        <time>2022-06-25T12:06:17Z</time>
      </trkpt>
      <trkpt lat="46.34612" lon="4.7197">
        <ele>255.6</ele>
        <time>2022-06-25T12:06:18Z</time>
      </trkpt>
      <trkpt lat="46.34618" lon="4.71963">
        <ele>255.6</ele>
        <time>2022-06-25T12:06:19Z</time>
      </trkpt>
      <trkpt lat="46.34623" lon="4.71956">
        <ele>255.4</ele>
        <time>2022-06-25T12:06:20Z</time>
      </trkpt>
      <trkpt lat="46.34629" lon="4.71948">
        <ele>255.4</ele>
        <time>2022-06-25T12:06:21Z</time>
      </trkpt>
      <trkpt lat="46.34634" lon="4.71941">
        <ele>255.4</ele>
        <time>2022-06-25T12:06:22Z</time>
      </trkpt>
      <trkpt lat="46.3464" lon="4.71933">
        <ele>255.4</ele>
        <time>2022-06-25T12:06:23Z</time>
      </trkpt>
      <trkpt lat="46.34646" lon="4.71925">
        <ele>255.2</ele>
        <time>2022-06-25T12:06:24Z</time>
      </trkpt>
      <trkpt lat="46.34652" lon="4.71917">
        <ele>255.2</ele>
        <time>2022-06-25T12:06:25Z</time>
      </trkpt>
      <trkpt lat="46.34657" lon="4.71909">
        <ele>255.2</ele>
        <time>2022-06-25T12:06:26Z</time>
      </trkpt>
      <trkpt lat="46.34663" lon="4.71901">
        <ele>255</ele>
        <time>2022-06-25T12:06:27Z</time>
      </trkpt>
      <trkpt lat="46.34669" lon="4.71892">
        <ele>255</ele>
        <time>2022-06-25T12:06:28Z</time>
      </trkpt>
      <trkpt lat="46.34675" lon="4.71884">
        <ele>255</ele>
        <time>2022-06-25T12:06:29Z</time>
      </trkpt>
      <trkpt lat="46.34681" lon="4.71875">
        <ele>255</ele>
        <time>2022-06-25T12:06:30Z</time>
      </trkpt>
      <trkpt lat="46.34687" lon="4.71867">
        <ele>255</ele>
        <time>2022-06-25T12:06:31Z</time>
      </trkpt>
      <trkpt lat="46.34692" lon="4.71859">
        <ele>255</ele>
        <time>2022-06-25T12:06:32Z</time>
      </trkpt>
      <trkpt lat="46.34698" lon="4.71852">
        <ele>255</ele>
        <time>2022-06-25T12:06:33Z</time>
      </trkpt>
      <trkpt lat="46.34703" lon="4.71844">
        <ele>255</ele>
        <time>2022-06-25T12:06:34Z</time>
      </trkpt>
      <trkpt lat="46.34708" lon="4.71836">
        <ele>255</ele>
        <time>2022-06-25T12:06:35Z</time>
      </trkpt>
      <trkpt lat="46.34713" lon="4.71829">
        <ele>255.2</ele>
        <time>2022-06-25T12:06:36Z</time>
      </trkpt>
      <trkpt lat="46.34718" lon="4.71822">
        <ele>255.2</ele>
        <time>2022-06-25T12:06:37Z</time>
      </trkpt>
      <trkpt lat="46.34723" lon="4.71814">
        <ele>255.6</ele>
        <time>2022-06-25T12:06:38Z</time>
      </trkpt>
      <trkpt lat="46.34728" lon="4.71807">
        <ele>255.6</ele>
        <time>2022-06-25T12:06:39Z</time>
      </trkpt>
      <trkpt lat="46.34734" lon="4.718">
        <ele>256</ele>
        <time>2022-06-25T12:06:40Z</time>
      </trkpt>
      <trkpt lat="46.34738" lon="4.71792">
        <ele>256</ele>
        <time>2022-06-25T12:06:41Z</time>
      </trkpt>
      <trkpt lat="46.34743" lon="4.71784">
        <ele>256.4</ele>
        <time>2022-06-25T12:06:42Z</time>
      </trkpt>
      <trkpt lat="46.34747" lon="4.71776">
        <ele>256.4</ele>
        <time>2022-06-25T12:06:43Z</time>
      </trkpt>
      <trkpt lat="46.34751" lon="4.71767">
        <ele>256.8</ele>
        <time>2022-06-25T12:06:44Z</time>
      </trkpt>
      <trkpt lat="46.34754" lon="4.71759">
        <ele>257</ele>
        <time>2022-06-25T12:06:45Z</time>
      </trkpt>
      <trkpt lat="46.34757" lon="4.71751">
        <ele>257.2</ele>
        <time>2022-06-25T12:06:46Z</time>
      </trkpt>
      <trkpt lat="46.3476" lon="4.71743">
        <ele>257.6</ele>
        <time>2022-06-25T12:06:47Z</time>
      </trkpt>
      <trkpt lat="46.34763" lon="4.71736">
        <ele>257.8</ele>
        <time>2022-06-25T12:06:48Z</time>
      </trkpt>
      <trkpt lat="46.34766" lon="4.71729">
        <ele>258</ele>
        <time>2022-06-25T12:06:49Z</time>
      </trkpt>
      <trkpt lat="46.34769" lon="4.71722">
        <ele>258.2</ele>
        <time>2022-06-25T12:06:50Z</time>
      </trkpt>
      <trkpt lat="46.34772" lon="4.71715">
        <ele>258.6</ele>
        <time>2022-06-25T12:06:51Z</time>
      </trkpt>
      <trkpt lat="46.34775" lon="4.71709">
        <ele>258.6</ele>
        <time>2022-06-25T12:06:52Z</time>
      </trkpt>
      <trkpt lat="46.34778" lon="4.71703">
        <ele>259</ele>
        <time>2022-06-25T12:06:53Z</time>
      </trkpt>
      <trkpt lat="46.34782" lon="4.71697">
        <ele>259.2</ele>
        <time>2022-06-25T12:06:54Z</time>
      </trkpt>
      <trkpt lat="46.34785" lon="4.71691">
        <ele>259.6</ele>
        <time>2022-06-25T12:06:55Z</time>
      </trkpt>
      <trkpt lat="46.34788" lon="4.71685">
        <ele>259.8</ele>
        <time>2022-06-25T12:06:56Z</time>
      </trkpt>
      <trkpt lat="46.34792" lon="4.71678">
        <ele>260</ele>
        <time>2022-06-25T12:06:57Z</time>
      </trkpt>
      <trkpt lat="46.34795" lon="4.71672">
        <ele>260.2</ele>
        <time>2022-06-25T12:06:58Z</time>
      </trkpt>
      <trkpt lat="46.34799" lon="4.71665">
        <ele>260.2</ele>
        <time>2022-06-25T12:06:59Z</time>
      </trkpt>
      <trkpt lat="46.34802" lon="4.71659">
        <ele>260.6</ele>
        <time>2022-06-25T12:07:00Z</time>
      </trkpt>
      <trkpt lat="46.34805" lon="4.71652">
        <ele>260.6</ele>
        <time>2022-06-25T12:07:01Z</time>
      </trkpt>
      <trkpt lat="46.34809" lon="4.71645">
        <ele>260.8</ele>
        <time>2022-06-25T12:07:02Z</time>
      </trkpt>
      <trkpt lat="46.34813" lon="4.71638">
        <ele>260.8</ele>
        <time>2022-06-25T12:07:03Z</time>
      </trkpt>
      <trkpt lat="46.34817" lon="4.7163">
        <ele>260.8</ele>
        <time>2022-06-25T12:07:04Z</time>
      </trkpt>
      <trkpt lat="46.34821" lon="4.71623">
        <ele>260.8</ele>
        <time>2022-06-25T12:07:05Z</time>
      </trkpt>
      <trkpt lat="46.34825" lon="4.71615">
        <ele>260.8</ele>
        <time>2022-06-25T12:07:06Z</time>
      </trkpt>
      <trkpt lat="46.3483" lon="4.71607">
        <ele>260.8</ele>
        <time>2022-06-25T12:07:07Z</time>
      </trkpt>
      <trkpt lat="46.34834" lon="4.71599">
        <ele>260.8</ele>
        <time>2022-06-25T12:07:08Z</time>
      </trkpt>
      <trkpt lat="46.34839" lon="4.71591">
        <ele>260.8</ele>
        <time>2022-06-25T12:07:09Z</time>
      </trkpt>
      <trkpt lat="46.34844" lon="4.71582">
        <ele>260.8</ele>
        <time>2022-06-25T12:07:10Z</time>
      </trkpt>
      <trkpt lat="46.34848" lon="4.71573">
        <ele>260.6</ele>
        <time>2022-06-25T12:07:11Z</time>
      </trkpt>
      <trkpt lat="46.34853" lon="4.71564">
        <ele>260.6</ele>
        <time>2022-06-25T12:07:12Z</time>
      </trkpt>
      <trkpt lat="46.34859" lon="4.71555">
        <ele>260.4</ele>
        <time>2022-06-25T12:07:13Z</time>
      </trkpt>
      <trkpt lat="46.34864" lon="4.71545">
        <ele>260.4</ele>
        <time>2022-06-25T12:07:14Z</time>
      </trkpt>
      <trkpt lat="46.34869" lon="4.71535">
        <ele>259.8</ele>
        <time>2022-06-25T12:07:15Z</time>
      </trkpt>
      <trkpt lat="46.34874" lon="4.71525">
        <ele>259.6</ele>
        <time>2022-06-25T12:07:16Z</time>
      </trkpt>
      <trkpt lat="46.34886" lon="4.71502">
        <ele>259.4</ele>
        <time>2022-06-25T12:07:17Z</time>
      </trkpt>
      <trkpt lat="46.34893" lon="4.71491">
        <ele>259.4</ele>
        <time>2022-06-25T12:07:18Z</time>
      </trkpt>
      <trkpt lat="46.34898" lon="4.7148">
        <ele>259.2</ele>
        <time>2022-06-25T12:07:19Z</time>
      </trkpt>
      <trkpt lat="46.34904" lon="4.71469">
        <ele>259.2</ele>
        <time>2022-06-25T12:07:20Z</time>
      </trkpt>
      <trkpt lat="46.3491" lon="4.71459">
        <ele>259.2</ele>
        <time>2022-06-25T12:07:21Z</time>
      </trkpt>
      <trkpt lat="46.34916" lon="4.71449">
        <ele>258.8</ele>
        <time>2022-06-25T12:07:22Z</time>
      </trkpt>
      <trkpt lat="46.34921" lon="4.71438">
        <ele>258.8</ele>
        <time>2022-06-25T12:07:23Z</time>
      </trkpt>
      <trkpt lat="46.34926" lon="4.71428">
        <ele>258.8</ele>
        <time>2022-06-25T12:07:24Z</time>
      </trkpt>
      <trkpt lat="46.34931" lon="4.71416">
        <ele>258.6</ele>
        <time>2022-06-25T12:07:25Z</time>
      </trkpt>
      <trkpt lat="46.34936" lon="4.71405">
        <ele>258.6</ele>
        <time>2022-06-25T12:07:26Z</time>
      </trkpt>
      <trkpt lat="46.34941" lon="4.71395">
        <ele>258.6</ele>
        <time>2022-06-25T12:07:27Z</time>
      </trkpt>
      <trkpt lat="46.34946" lon="4.71385">
        <ele>258.6</ele>
        <time>2022-06-25T12:07:28Z</time>
      </trkpt>
      <trkpt lat="46.34951" lon="4.71375">
        <ele>258.6</ele>
        <time>2022-06-25T12:07:29Z</time>
      </trkpt>
      <trkpt lat="46.34956" lon="4.71364">
        <ele>258.6</ele>
        <time>2022-06-25T12:07:30Z</time>
      </trkpt>
      <trkpt lat="46.34961" lon="4.71354">
        <ele>258.6</ele>
        <time>2022-06-25T12:07:31Z</time>
      </trkpt>
      <trkpt lat="46.34966" lon="4.71344">
        <ele>258.6</ele>
        <time>2022-06-25T12:07:32Z</time>
      </trkpt>
      <trkpt lat="46.34971" lon="4.71333">
        <ele>258.6</ele>
        <time>2022-06-25T12:07:33Z</time>
      </trkpt>
      <trkpt lat="46.34976" lon="4.71323">
        <ele>258.6</ele>
        <time>2022-06-25T12:07:34Z</time>
      </trkpt>
      <trkpt lat="46.34982" lon="4.71313">
        <ele>258.6</ele>
        <time>2022-06-25T12:07:35Z</time>
      </trkpt>
      <trkpt lat="46.34987" lon="4.71303">
        <ele>258.6</ele>
        <time>2022-06-25T12:07:36Z</time>
      </trkpt>
      <trkpt lat="46.34992" lon="4.71293">
        <ele>258.6</ele>
        <time>2022-06-25T12:07:37Z</time>
      </trkpt>
      <trkpt lat="46.34996" lon="4.71283">
        <ele>258.6</ele>
        <time>2022-06-25T12:07:38Z</time>
      </trkpt>
      <trkpt lat="46.35001" lon="4.71274">
        <ele>258.6</ele>
        <time>2022-06-25T12:07:39Z</time>
      </trkpt>
      <trkpt lat="46.35006" lon="4.71264">
        <ele>258.6</ele>
        <time>2022-06-25T12:07:40Z</time>
      </trkpt>
      <trkpt lat="46.3501" lon="4.71255">
        <ele>258.6</ele>
        <time>2022-06-25T12:07:41Z</time>
      </trkpt>
      <trkpt lat="46.35015" lon="4.71246">
        <ele>259</ele>
        <time>2022-06-25T12:07:42Z</time>
      </trkpt>
      <trkpt lat="46.3502" lon="4.71237">
        <ele>259</ele>
        <time>2022-06-25T12:07:43Z</time>
      </trkpt>
      <trkpt lat="46.35024" lon="4.71227">
        <ele>259</ele>
        <time>2022-06-25T12:07:44Z</time>
      </trkpt>
      <trkpt lat="46.35029" lon="4.71218">
        <ele>259.2</ele>
        <time>2022-06-25T12:07:45Z</time>
      </trkpt>
      <trkpt lat="46.35033" lon="4.71208">
        <ele>259.2</ele>
        <time>2022-06-25T12:07:46Z</time>
      </trkpt>
      <trkpt lat="46.35037" lon="4.71199">
        <ele>259.4</ele>
        <time>2022-06-25T12:07:47Z</time>
      </trkpt>
      <trkpt lat="46.35042" lon="4.71191">
        <ele>259.8</ele>
        <time>2022-06-25T12:07:48Z</time>
      </trkpt>
      <trkpt lat="46.35046" lon="4.71182">
        <ele>259.8</ele>
        <time>2022-06-25T12:07:49Z</time>
      </trkpt>
      <trkpt lat="46.3505" lon="4.71174">
        <ele>260</ele>
        <time>2022-06-25T12:07:50Z</time>
      </trkpt>
      <trkpt lat="46.35055" lon="4.71165">
        <ele>260</ele>
        <time>2022-06-25T12:07:51Z</time>
      </trkpt>
      <trkpt lat="46.35059" lon="4.71157">
        <ele>260</ele>
        <time>2022-06-25T12:07:52Z</time>
      </trkpt>
      <trkpt lat="46.35063" lon="4.71149">
        <ele>260.2</ele>
        <time>2022-06-25T12:07:53Z</time>
      </trkpt>
      <trkpt lat="46.35067" lon="4.71141">
        <ele>260.6</ele>
        <time>2022-06-25T12:07:54Z</time>
      </trkpt>
      <trkpt lat="46.3507" lon="4.71132">
        <ele>260.8</ele>
        <time>2022-06-25T12:07:55Z</time>
      </trkpt>
      <trkpt lat="46.35073" lon="4.71123">
        <ele>261</ele>
        <time>2022-06-25T12:07:56Z</time>
      </trkpt>
      <trkpt lat="46.35077" lon="4.71115">
        <ele>261</ele>
        <time>2022-06-25T12:07:57Z</time>
      </trkpt>
      <trkpt lat="46.35081" lon="4.71107">
        <ele>261.4</ele>
        <time>2022-06-25T12:07:58Z</time>
      </trkpt>
      <trkpt lat="46.35085" lon="4.711">
        <ele>261.4</ele>
        <time>2022-06-25T12:07:59Z</time>
      </trkpt>
      <trkpt lat="46.35088" lon="4.71092">
        <ele>261.6</ele>
        <time>2022-06-25T12:08:00Z</time>
      </trkpt>
      <trkpt lat="46.35092" lon="4.71085">
        <ele>261.6</ele>
        <time>2022-06-25T12:08:01Z</time>
      </trkpt>
      <trkpt lat="46.35095" lon="4.71077">
        <ele>262</ele>
        <time>2022-06-25T12:08:02Z</time>
      </trkpt>
      <trkpt lat="46.35099" lon="4.7107">
        <ele>262</ele>
        <time>2022-06-25T12:08:03Z</time>
      </trkpt>
      <trkpt lat="46.35103" lon="4.71063">
        <ele>262</ele>
        <time>2022-06-25T12:08:04Z</time>
      </trkpt>
      <trkpt lat="46.35106" lon="4.71056">
        <ele>262</ele>
        <time>2022-06-25T12:08:05Z</time>
      </trkpt>
      <trkpt lat="46.35109" lon="4.71049">
        <ele>262</ele>
        <time>2022-06-25T12:08:06Z</time>
      </trkpt>
      <trkpt lat="46.35113" lon="4.71043">
        <ele>262</ele>
        <time>2022-06-25T12:08:07Z</time>
      </trkpt>
      <trkpt lat="46.35116" lon="4.71036">
        <ele>262.2</ele>
        <time>2022-06-25T12:08:08Z</time>
      </trkpt>
      <trkpt lat="46.35119" lon="4.7103">
        <ele>262.2</ele>
        <time>2022-06-25T12:08:09Z</time>
      </trkpt>
      <trkpt lat="46.35121" lon="4.71023">
        <ele>262.4</ele>
        <time>2022-06-25T12:08:10Z</time>
      </trkpt>
      <trkpt lat="46.35122" lon="4.71016">
        <ele>262.4</ele>
        <time>2022-06-25T12:08:11Z</time>
      </trkpt>
      <trkpt lat="46.35122" lon="4.71008">
        <ele>262.4</ele>
        <time>2022-06-25T12:08:12Z</time>
      </trkpt>
      <trkpt lat="46.3512" lon="4.71002">
        <ele>262.4</ele>
        <time>2022-06-25T12:08:13Z</time>
      </trkpt>
      <trkpt lat="46.35119" lon="4.70995">
        <ele>262.8</ele>
        <time>2022-06-25T12:08:14Z</time>
      </trkpt>
      <trkpt lat="46.35118" lon="4.70988">
        <ele>262.8</ele>
        <time>2022-06-25T12:08:15Z</time>
      </trkpt>
      <trkpt lat="46.35118" lon="4.70981">
        <ele>262.8</ele>
        <time>2022-06-25T12:08:16Z</time>
      </trkpt>
      <trkpt lat="46.35119" lon="4.70973">
        <ele>262.8</ele>
        <time>2022-06-25T12:08:17Z</time>
      </trkpt>
      <trkpt lat="46.3512" lon="4.70966">
        <ele>262.8</ele>
        <time>2022-06-25T12:08:18Z</time>
      </trkpt>
      <trkpt lat="46.35122" lon="4.70958">
        <ele>262.4</ele>
        <time>2022-06-25T12:08:19Z</time>
      </trkpt>
      <trkpt lat="46.35123" lon="4.70949">
        <ele>262.4</ele>
        <time>2022-06-25T12:08:20Z</time>
      </trkpt>
      <trkpt lat="46.35124" lon="4.70941">
        <ele>262.2</ele>
        <time>2022-06-25T12:08:21Z</time>
      </trkpt>
      <trkpt lat="46.35125" lon="4.70932">
        <ele>262.2</ele>
        <time>2022-06-25T12:08:22Z</time>
      </trkpt>
      <trkpt lat="46.35126" lon="4.70923">
        <ele>262.2</ele>
        <time>2022-06-25T12:08:23Z</time>
      </trkpt>
      <trkpt lat="46.35126" lon="4.70914">
        <ele>262</ele>
        <time>2022-06-25T12:08:24Z</time>
      </trkpt>
      <trkpt lat="46.35126" lon="4.70905">
        <ele>262</ele>
        <time>2022-06-25T12:08:25Z</time>
      </trkpt>
      <trkpt lat="46.35126" lon="4.70897">
        <ele>262</ele>
        <time>2022-06-25T12:08:26Z</time>
      </trkpt>
      <trkpt lat="46.35125" lon="4.70888">
        <ele>262</ele>
        <time>2022-06-25T12:08:27Z</time>
      </trkpt>
      <trkpt lat="46.35125" lon="4.70879">
        <ele>262</ele>
        <time>2022-06-25T12:08:28Z</time>
      </trkpt>
      <trkpt lat="46.35125" lon="4.70871">
        <ele>262</ele>
        <time>2022-06-25T12:08:29Z</time>
      </trkpt>
      <trkpt lat="46.35125" lon="4.70862">
        <ele>262</ele>
        <time>2022-06-25T12:08:30Z</time>
      </trkpt>
      <trkpt lat="46.35124" lon="4.70854">
        <ele>262</ele>
        <time>2022-06-25T12:08:31Z</time>
      </trkpt>
      <trkpt lat="46.35123" lon="4.70845">
        <ele>262</ele>
        <time>2022-06-25T12:08:32Z</time>
      </trkpt>
      <trkpt lat="46.35123" lon="4.70837">
        <ele>262</ele>
        <time>2022-06-25T12:08:33Z</time>
      </trkpt>
      <trkpt lat="46.35122" lon="4.70829">
        <ele>262</ele>
        <time>2022-06-25T12:08:34Z</time>
      </trkpt>
      <trkpt lat="46.3512" lon="4.7082">
        <ele>262</ele>
        <time>2022-06-25T12:08:35Z</time>
      </trkpt>
      <trkpt lat="46.35119" lon="4.70811">
        <ele>261.8</ele>
        <time>2022-06-25T12:08:36Z</time>
      </trkpt>
      <trkpt lat="46.35116" lon="4.70803">
        <ele>261.8</ele>
        <time>2022-06-25T12:08:37Z</time>
      </trkpt>
      <trkpt lat="46.35114" lon="4.70794">
        <ele>261.8</ele>
        <time>2022-06-25T12:08:38Z</time>
      </trkpt>
      <trkpt lat="46.35111" lon="4.70785">
        <ele>261.4</ele>
        <time>2022-06-25T12:08:39Z</time>
      </trkpt>
      <trkpt lat="46.35108" lon="4.70776">
        <ele>261.4</ele>
        <time>2022-06-25T12:08:40Z</time>
      </trkpt>
      <trkpt lat="46.35104" lon="4.70767">
        <ele>261.2</ele>
        <time>2022-06-25T12:08:41Z</time>
      </trkpt>
      <trkpt lat="46.35101" lon="4.70759">
        <ele>261.2</ele>
        <time>2022-06-25T12:08:42Z</time>
      </trkpt>
      <trkpt lat="46.35097" lon="4.70751">
        <ele>261.2</ele>
        <time>2022-06-25T12:08:43Z</time>
      </trkpt>
      <trkpt lat="46.35094" lon="4.70743">
        <ele>261.2</ele>
        <time>2022-06-25T12:08:44Z</time>
      </trkpt>
      <trkpt lat="46.3509" lon="4.70736">
        <ele>261.2</ele>
        <time>2022-06-25T12:08:45Z</time>
      </trkpt>
      <trkpt lat="46.35087" lon="4.70729">
        <ele>261.2</ele>
        <time>2022-06-25T12:08:46Z</time>
      </trkpt>
      <trkpt lat="46.35083" lon="4.70722">
        <ele>261.4</ele>
        <time>2022-06-25T12:08:47Z</time>
      </trkpt>
      <trkpt lat="46.3508" lon="4.70714">
        <ele>261.4</ele>
        <time>2022-06-25T12:08:48Z</time>
      </trkpt>
      <trkpt lat="46.35078" lon="4.70707">
        <ele>261.4</ele>
        <time>2022-06-25T12:08:49Z</time>
      </trkpt>
      <trkpt lat="46.35075" lon="4.707">
        <ele>261.4</ele>
        <time>2022-06-25T12:08:50Z</time>
      </trkpt>
      <trkpt lat="46.35072" lon="4.70692">
        <ele>261.4</ele>
        <time>2022-06-25T12:08:51Z</time>
      </trkpt>
      <trkpt lat="46.3507" lon="4.70685">
        <ele>261.8</ele>
        <time>2022-06-25T12:08:52Z</time>
      </trkpt>
      <trkpt lat="46.35067" lon="4.70677">
        <ele>261.8</ele>
        <time>2022-06-25T12:08:53Z</time>
      </trkpt>
      <trkpt lat="46.35063" lon="4.70671">
        <ele>262</ele>
        <time>2022-06-25T12:08:54Z</time>
      </trkpt>
      <trkpt lat="46.35061" lon="4.70662">
        <ele>262</ele>
        <time>2022-06-25T12:08:55Z</time>
      </trkpt>
      <trkpt lat="46.35058" lon="4.70656">
        <ele>262.2</ele>
        <time>2022-06-25T12:08:56Z</time>
      </trkpt>
      <trkpt lat="46.35055" lon="4.70649">
        <ele>262.4</ele>
        <time>2022-06-25T12:08:57Z</time>
      </trkpt>
      <trkpt lat="46.35053" lon="4.70642">
        <ele>262.4</ele>
        <time>2022-06-25T12:08:58Z</time>
      </trkpt>
      <trkpt lat="46.35051" lon="4.70635">
        <ele>262.4</ele>
        <time>2022-06-25T12:08:59Z</time>
      </trkpt>
      <trkpt lat="46.35049" lon="4.70627">
        <ele>262.4</ele>
        <time>2022-06-25T12:09:00Z</time>
      </trkpt>
      <trkpt lat="46.35048" lon="4.70619">
        <ele>262.4</ele>
        <time>2022-06-25T12:09:01Z</time>
      </trkpt>
      <trkpt lat="46.35047" lon="4.70611">
        <ele>262.4</ele>
        <time>2022-06-25T12:09:02Z</time>
      </trkpt>
      <trkpt lat="46.35047" lon="4.70603">
        <ele>262.4</ele>
        <time>2022-06-25T12:09:03Z</time>
      </trkpt>
      <trkpt lat="46.35047" lon="4.70595">
        <ele>262.4</ele>
        <time>2022-06-25T12:09:04Z</time>
      </trkpt>
      <trkpt lat="46.35047" lon="4.70586">
        <ele>262.6</ele>
        <time>2022-06-25T12:09:05Z</time>
      </trkpt>
      <trkpt lat="46.35047" lon="4.70578">
        <ele>262.6</ele>
        <time>2022-06-25T12:09:06Z</time>
      </trkpt>
      <trkpt lat="46.35047" lon="4.7057">
        <ele>262.8</ele>
        <time>2022-06-25T12:09:07Z</time>
      </trkpt>
      <trkpt lat="46.35047" lon="4.70562">
        <ele>262.8</ele>
        <time>2022-06-25T12:09:08Z</time>
      </trkpt>
      <trkpt lat="46.35047" lon="4.70553">
        <ele>262.8</ele>
        <time>2022-06-25T12:09:09Z</time>
      </trkpt>
      <trkpt lat="46.35047" lon="4.70545">
        <ele>262.8</ele>
        <time>2022-06-25T12:09:10Z</time>
      </trkpt>
      <trkpt lat="46.35048" lon="4.70537">
        <ele>263.2</ele>
        <time>2022-06-25T12:09:11Z</time>
      </trkpt>
      <trkpt lat="46.35048" lon="4.70529">
        <ele>263.2</ele>
        <time>2022-06-25T12:09:12Z</time>
      </trkpt>
      <trkpt lat="46.35048" lon="4.70521">
        <ele>263.2</ele>
        <time>2022-06-25T12:09:13Z</time>
      </trkpt>
      <trkpt lat="46.35048" lon="4.70513">
        <ele>263.4</ele>
        <time>2022-06-25T12:09:14Z</time>
      </trkpt>
      <trkpt lat="46.35049" lon="4.70506">
        <ele>263.6</ele>
        <time>2022-06-25T12:09:15Z</time>
      </trkpt>
      <trkpt lat="46.35049" lon="4.70499">
        <ele>263.6</ele>
        <time>2022-06-25T12:09:16Z</time>
      </trkpt>
      <trkpt lat="46.35049" lon="4.70492">
        <ele>264</ele>
        <time>2022-06-25T12:09:17Z</time>
      </trkpt>
      <trkpt lat="46.3505" lon="4.70485">
        <ele>264.2</ele>
        <time>2022-06-25T12:09:18Z</time>
      </trkpt>
      <trkpt lat="46.3505" lon="4.70478">
        <ele>264.2</ele>
        <time>2022-06-25T12:09:19Z</time>
      </trkpt>
      <trkpt lat="46.3505" lon="4.70471">
        <ele>264.6</ele>
        <time>2022-06-25T12:09:20Z</time>
      </trkpt>
      <trkpt lat="46.3505" lon="4.70464">
        <ele>264.6</ele>
        <time>2022-06-25T12:09:21Z</time>
      </trkpt>
      <trkpt lat="46.35051" lon="4.70458">
        <ele>264.8</ele>
        <time>2022-06-25T12:09:22Z</time>
      </trkpt>
      <trkpt lat="46.35051" lon="4.70451">
        <ele>264.8</ele>
        <time>2022-06-25T12:09:23Z</time>
      </trkpt>
      <trkpt lat="46.35051" lon="4.70445">
        <ele>265.2</ele>
        <time>2022-06-25T12:09:24Z</time>
      </trkpt>
      <trkpt lat="46.35052" lon="4.70438">
        <ele>265.4</ele>
        <time>2022-06-25T12:09:25Z</time>
      </trkpt>
      <trkpt lat="46.35053" lon="4.70433">
        <ele>265.4</ele>
        <time>2022-06-25T12:09:26Z</time>
      </trkpt>
      <trkpt lat="46.35053" lon="4.70427">
        <ele>265.8</ele>
        <time>2022-06-25T12:09:27Z</time>
      </trkpt>
      <trkpt lat="46.35054" lon="4.70422">
        <ele>265.8</ele>
        <time>2022-06-25T12:09:28Z</time>
      </trkpt>
      <trkpt lat="46.35056" lon="4.70416">
        <ele>266</ele>
        <time>2022-06-25T12:09:29Z</time>
      </trkpt>
      <trkpt lat="46.35057" lon="4.70412">
        <ele>266</ele>
        <time>2022-06-25T12:09:30Z</time>
      </trkpt>
      <trkpt lat="46.35059" lon="4.70407">
        <ele>266.4</ele>
        <time>2022-06-25T12:09:31Z</time>
      </trkpt>
      <trkpt lat="46.35061" lon="4.70403">
        <ele>266.4</ele>
        <time>2022-06-25T12:09:32Z</time>
      </trkpt>
      <trkpt lat="46.35063" lon="4.70399">
        <ele>266.8</ele>
        <time>2022-06-25T12:09:33Z</time>
      </trkpt>
      <trkpt lat="46.35065" lon="4.70395">
        <ele>266.8</ele>
        <time>2022-06-25T12:09:34Z</time>
      </trkpt>
      <trkpt lat="46.35067" lon="4.70392">
        <ele>267.2</ele>
        <time>2022-06-25T12:09:35Z</time>
      </trkpt>
      <trkpt lat="46.35069" lon="4.70389">
        <ele>267.4</ele>
        <time>2022-06-25T12:09:36Z</time>
      </trkpt>
      <trkpt lat="46.35071" lon="4.70386">
        <ele>267.6</ele>
        <time>2022-06-25T12:09:37Z</time>
      </trkpt>
      <trkpt lat="46.35074" lon="4.70383">
        <ele>267.8</ele>
        <time>2022-06-25T12:09:38Z</time>
      </trkpt>
      <trkpt lat="46.35076" lon="4.70381">
        <ele>267.8</ele>
        <time>2022-06-25T12:09:39Z</time>
      </trkpt>
      <trkpt lat="46.35078" lon="4.70379">
        <ele>268.2</ele>
        <time>2022-06-25T12:09:40Z</time>
      </trkpt>
      <trkpt lat="46.3508" lon="4.70377">
        <ele>268.4</ele>
        <time>2022-06-25T12:09:41Z</time>
      </trkpt>
      <trkpt lat="46.35083" lon="4.70375">
        <ele>268.6</ele>
        <time>2022-06-25T12:09:42Z</time>
      </trkpt>
      <trkpt lat="46.35085" lon="4.70373">
        <ele>269</ele>
        <time>2022-06-25T12:09:43Z</time>
      </trkpt>
      <trkpt lat="46.35087" lon="4.70371">
        <ele>269.2</ele>
        <time>2022-06-25T12:09:44Z</time>
      </trkpt>
      <trkpt lat="46.35089" lon="4.7037">
        <ele>269.8</ele>
        <time>2022-06-25T12:09:45Z</time>
      </trkpt>
      <trkpt lat="46.35091" lon="4.70368">
        <ele>270</ele>
        <time>2022-06-25T12:09:46Z</time>
      </trkpt>
      <trkpt lat="46.35093" lon="4.70367">
        <ele>270.2</ele>
        <time>2022-06-25T12:09:47Z</time>
      </trkpt>
      <trkpt lat="46.35095" lon="4.70365">
        <ele>270.6</ele>
        <time>2022-06-25T12:09:48Z</time>
      </trkpt>
      <trkpt lat="46.35098" lon="4.70363">
        <ele>270.8</ele>
        <time>2022-06-25T12:09:49Z</time>
      </trkpt>
      <trkpt lat="46.351" lon="4.70362">
        <ele>271</ele>
        <time>2022-06-25T12:09:50Z</time>
      </trkpt>
      <trkpt lat="46.35102" lon="4.7036">
        <ele>271.4</ele>
        <time>2022-06-25T12:09:51Z</time>
      </trkpt>
      <trkpt lat="46.35104" lon="4.70358">
        <ele>271.6</ele>
        <time>2022-06-25T12:09:52Z</time>
      </trkpt>
      <trkpt lat="46.35106" lon="4.70356">
        <ele>271.8</ele>
        <time>2022-06-25T12:09:53Z</time>
      </trkpt>
      <trkpt lat="46.35108" lon="4.70353">
        <ele>272.2</ele>
        <time>2022-06-25T12:09:54Z</time>
      </trkpt>
      <trkpt lat="46.3511" lon="4.70351">
        <ele>272.4</ele>
        <time>2022-06-25T12:09:55Z</time>
      </trkpt>
      <trkpt lat="46.35112" lon="4.70349">
        <ele>272.6</ele>
        <time>2022-06-25T12:09:56Z</time>
      </trkpt>
      <trkpt lat="46.35115" lon="4.70346">
        <ele>272.8</ele>
        <time>2022-06-25T12:09:57Z</time>
      </trkpt>
      <trkpt lat="46.35116" lon="4.70344">
        <ele>273</ele>
        <time>2022-06-25T12:09:58Z</time>
      </trkpt>
      <trkpt lat="46.35118" lon="4.70341">
        <ele>273.4</ele>
        <time>2022-06-25T12:09:59Z</time>
      </trkpt>
      <trkpt lat="46.35119" lon="4.70338">
        <ele>273.6</ele>
        <time>2022-06-25T12:10:00Z</time>
      </trkpt>
      <trkpt lat="46.3512" lon="4.70334">
        <ele>273.8</ele>
        <time>2022-06-25T12:10:01Z</time>
      </trkpt>
      <trkpt lat="46.35122" lon="4.70331">
        <ele>274</ele>
        <time>2022-06-25T12:10:02Z</time>
      </trkpt>
      <trkpt lat="46.35123" lon="4.70328">
        <ele>274</ele>
        <time>2022-06-25T12:10:03Z</time>
      </trkpt>
      <trkpt lat="46.35124" lon="4.70325">
        <ele>274.4</ele>
        <time>2022-06-25T12:10:04Z</time>
      </trkpt>
      <trkpt lat="46.35125" lon="4.70322">
        <ele>274.4</ele>
        <time>2022-06-25T12:10:05Z</time>
      </trkpt>
      <trkpt lat="46.35126" lon="4.70319">
        <ele>274.8</ele>
        <time>2022-06-25T12:10:06Z</time>
      </trkpt>
      <trkpt lat="46.35127" lon="4.70315">
        <ele>274.8</ele>
        <time>2022-06-25T12:10:07Z</time>
      </trkpt>
      <trkpt lat="46.35128" lon="4.70312">
        <ele>275.2</ele>
        <time>2022-06-25T12:10:08Z</time>
      </trkpt>
      <trkpt lat="46.35129" lon="4.70308">
        <ele>275.4</ele>
        <time>2022-06-25T12:10:09Z</time>
      </trkpt>
      <trkpt lat="46.35129" lon="4.70305">
        <ele>275.6</ele>
        <time>2022-06-25T12:10:10Z</time>
      </trkpt>
      <trkpt lat="46.3513" lon="4.70301">
        <ele>275.6</ele>
        <time>2022-06-25T12:10:11Z</time>
      </trkpt>
      <trkpt lat="46.3513" lon="4.70297">
        <ele>276</ele>
        <time>2022-06-25T12:10:12Z</time>
      </trkpt>
      <trkpt lat="46.35131" lon="4.70293">
        <ele>276</ele>
        <time>2022-06-25T12:10:13Z</time>
      </trkpt>
      <trkpt lat="46.35131" lon="4.7029">
        <ele>276.4</ele>
        <time>2022-06-25T12:10:14Z</time>
      </trkpt>
      <trkpt lat="46.35131" lon="4.70286">
        <ele>276.6</ele>
        <time>2022-06-25T12:10:15Z</time>
      </trkpt>
      <trkpt lat="46.35131" lon="4.70283">
        <ele>276.8</ele>
        <time>2022-06-25T12:10:16Z</time>
      </trkpt>
      <trkpt lat="46.35131" lon="4.70279">
        <ele>276.8</ele>
        <time>2022-06-25T12:10:17Z</time>
      </trkpt>
      <trkpt lat="46.35131" lon="4.70275">
        <ele>277.2</ele>
        <time>2022-06-25T12:10:18Z</time>
      </trkpt>
      <trkpt lat="46.35131" lon="4.70272">
        <ele>277.4</ele>
        <time>2022-06-25T12:10:19Z</time>
      </trkpt>
      <trkpt lat="46.3513" lon="4.70269">
        <ele>277.6</ele>
        <time>2022-06-25T12:10:20Z</time>
      </trkpt>
      <trkpt lat="46.3513" lon="4.70265">
        <ele>278</ele>
        <time>2022-06-25T12:10:21Z</time>
      </trkpt>
      <trkpt lat="46.3513" lon="4.70262">
        <ele>278.2</ele>
        <time>2022-06-25T12:10:22Z</time>
      </trkpt>
      <trkpt lat="46.35129" lon="4.70258">
        <ele>278.4</ele>
        <time>2022-06-25T12:10:23Z</time>
      </trkpt>
      <trkpt lat="46.35128" lon="4.70255">
        <ele>278.6</ele>
        <time>2022-06-25T12:10:24Z</time>
      </trkpt>
      <trkpt lat="46.35127" lon="4.70252">
        <ele>278.8</ele>
        <time>2022-06-25T12:10:25Z</time>
      </trkpt>
      <trkpt lat="46.35127" lon="4.70249">
        <ele>278.8</ele>
        <time>2022-06-25T12:10:26Z</time>
      </trkpt>
      <trkpt lat="46.35126" lon="4.70246">
        <ele>279.2</ele>
        <time>2022-06-25T12:10:27Z</time>
      </trkpt>
      <trkpt lat="46.35125" lon="4.70243">
        <ele>279.2</ele>
        <time>2022-06-25T12:10:28Z</time>
      </trkpt>
      <trkpt lat="46.35124" lon="4.7024">
        <ele>279.6</ele>
        <time>2022-06-25T12:10:29Z</time>
      </trkpt>
      <trkpt lat="46.35123" lon="4.70236">
        <ele>279.8</ele>
        <time>2022-06-25T12:10:30Z</time>
      </trkpt>
      <trkpt lat="46.35122" lon="4.70233">
        <ele>280</ele>
        <time>2022-06-25T12:10:31Z</time>
      </trkpt>
      <trkpt lat="46.3512" lon="4.7023">
        <ele>280.2</ele>
        <time>2022-06-25T12:10:32Z</time>
      </trkpt>
      <trkpt lat="46.35119" lon="4.70227">
        <ele>280.2</ele>
        <time>2022-06-25T12:10:33Z</time>
      </trkpt>
      <trkpt lat="46.35118" lon="4.70225">
        <ele>280.6</ele>
        <time>2022-06-25T12:10:34Z</time>
      </trkpt>
      <trkpt lat="46.35116" lon="4.70222">
        <ele>280.8</ele>
        <time>2022-06-25T12:10:35Z</time>
      </trkpt>
      <trkpt lat="46.35114" lon="4.70219">
        <ele>280.8</ele>
        <time>2022-06-25T12:10:36Z</time>
      </trkpt>
      <trkpt lat="46.35113" lon="4.70216">
        <ele>281.2</ele>
        <time>2022-06-25T12:10:37Z</time>
      </trkpt>
      <trkpt lat="46.35111" lon="4.70213">
        <ele>281.2</ele>
        <time>2022-06-25T12:10:38Z</time>
      </trkpt>
      <trkpt lat="46.3511" lon="4.7021">
        <ele>281.6</ele>
        <time>2022-06-25T12:10:39Z</time>
      </trkpt>
      <trkpt lat="46.35108" lon="4.70207">
        <ele>281.8</ele>
        <time>2022-06-25T12:10:40Z</time>
      </trkpt>
      <trkpt lat="46.35106" lon="4.70205">
        <ele>281.8</ele>
        <time>2022-06-25T12:10:41Z</time>
      </trkpt>
      <trkpt lat="46.35105" lon="4.70202">
        <ele>282</ele>
        <time>2022-06-25T12:10:42Z</time>
      </trkpt>
      <trkpt lat="46.35103" lon="4.70199">
        <ele>282.4</ele>
        <time>2022-06-25T12:10:43Z</time>
      </trkpt>
      <trkpt lat="46.35102" lon="4.70196">
        <ele>282.4</ele>
        <time>2022-06-25T12:10:44Z</time>
      </trkpt>
      <trkpt lat="46.351" lon="4.70193">
        <ele>282.8</ele>
        <time>2022-06-25T12:10:45Z</time>
      </trkpt>
      <trkpt lat="46.35099" lon="4.70191">
        <ele>283</ele>
        <time>2022-06-25T12:10:46Z</time>
      </trkpt>
      <trkpt lat="46.35097" lon="4.70188">
        <ele>283.2</ele>
        <time>2022-06-25T12:10:47Z</time>
      </trkpt>
      <trkpt lat="46.35096" lon="4.70185">
        <ele>283.2</ele>
        <time>2022-06-25T12:10:48Z</time>
      </trkpt>
      <trkpt lat="46.35095" lon="4.70182">
        <ele>283.6</ele>
        <time>2022-06-25T12:10:49Z</time>
      </trkpt>
      <trkpt lat="46.35093" lon="4.70179">
        <ele>283.8</ele>
        <time>2022-06-25T12:10:50Z</time>
      </trkpt>
      <trkpt lat="46.35092" lon="4.70176">
        <ele>284.2</ele>
        <time>2022-06-25T12:10:51Z</time>
      </trkpt>
      <trkpt lat="46.35091" lon="4.70173">
        <ele>284.4</ele>
        <time>2022-06-25T12:10:52Z</time>
      </trkpt>
      <trkpt lat="46.35091" lon="4.7017">
        <ele>284.6</ele>
        <time>2022-06-25T12:10:53Z</time>
      </trkpt>
      <trkpt lat="46.3509" lon="4.70167">
        <ele>284.6</ele>
        <time>2022-06-25T12:10:54Z</time>
      </trkpt>
      <trkpt lat="46.3509" lon="4.70163">
        <ele>285</ele>
        <time>2022-06-25T12:10:55Z</time>
      </trkpt>
      <trkpt lat="46.3509" lon="4.7016">
        <ele>285</ele>
        <time>2022-06-25T12:10:56Z</time>
      </trkpt>
      <trkpt lat="46.3509" lon="4.70156">
        <ele>285.2</ele>
        <time>2022-06-25T12:10:57Z</time>
      </trkpt>
      <trkpt lat="46.35089" lon="4.70153">
        <ele>285.2</ele>
        <time>2022-06-25T12:10:58Z</time>
      </trkpt>
      <trkpt lat="46.35089" lon="4.70149">
        <ele>285.6</ele>
        <time>2022-06-25T12:10:59Z</time>
      </trkpt>
      <trkpt lat="46.35088" lon="4.70146">
        <ele>285.6</ele>
        <time>2022-06-25T12:11:00Z</time>
      </trkpt>
      <trkpt lat="46.35087" lon="4.70142">
        <ele>286</ele>
        <time>2022-06-25T12:11:01Z</time>
      </trkpt>
      <trkpt lat="46.35087" lon="4.70139">
        <ele>286</ele>
        <time>2022-06-25T12:11:02Z</time>
      </trkpt>
      <trkpt lat="46.35087" lon="4.70135">
        <ele>286.2</ele>
        <time>2022-06-25T12:11:03Z</time>
      </trkpt>
      <trkpt lat="46.35086" lon="4.70132">
        <ele>286.2</ele>
        <time>2022-06-25T12:11:04Z</time>
      </trkpt>
      <trkpt lat="46.35086" lon="4.70128">
        <ele>286.6</ele>
        <time>2022-06-25T12:11:05Z</time>
      </trkpt>
      <trkpt lat="46.35086" lon="4.70125">
        <ele>286.8</ele>
        <time>2022-06-25T12:11:06Z</time>
      </trkpt>
      <trkpt lat="46.35086" lon="4.70122">
        <ele>287.2</ele>
        <time>2022-06-25T12:11:07Z</time>
      </trkpt>
      <trkpt lat="46.35086" lon="4.70118">
        <ele>287.2</ele>
        <time>2022-06-25T12:11:08Z</time>
      </trkpt>
      <trkpt lat="46.35085" lon="4.70115">
        <ele>287.4</ele>
        <time>2022-06-25T12:11:09Z</time>
      </trkpt>
      <trkpt lat="46.35085" lon="4.70111">
        <ele>287.4</ele>
        <time>2022-06-25T12:11:10Z</time>
      </trkpt>
      <trkpt lat="46.35085" lon="4.70108">
        <ele>287.8</ele>
        <time>2022-06-25T12:11:11Z</time>
      </trkpt>
      <trkpt lat="46.35085" lon="4.70104">
        <ele>287.8</ele>
        <time>2022-06-25T12:11:12Z</time>
      </trkpt>
      <trkpt lat="46.35085" lon="4.70101">
        <ele>288.2</ele>
        <time>2022-06-25T12:11:13Z</time>
      </trkpt>
      <trkpt lat="46.35085" lon="4.70097">
        <ele>288.4</ele>
        <time>2022-06-25T12:11:14Z</time>
      </trkpt>
      <trkpt lat="46.35085" lon="4.70094">
        <ele>288.4</ele>
        <time>2022-06-25T12:11:15Z</time>
      </trkpt>
      <trkpt lat="46.35085" lon="4.7009">
        <ele>288.8</ele>
        <time>2022-06-25T12:11:16Z</time>
      </trkpt>
      <trkpt lat="46.35085" lon="4.70087">
        <ele>288.8</ele>
        <time>2022-06-25T12:11:17Z</time>
      </trkpt>
      <trkpt lat="46.35085" lon="4.70083">
        <ele>289.2</ele>
        <time>2022-06-25T12:11:18Z</time>
      </trkpt>
      <trkpt lat="46.35086" lon="4.70079">
        <ele>289.2</ele>
        <time>2022-06-25T12:11:19Z</time>
      </trkpt>
      <trkpt lat="46.35086" lon="4.70076">
        <ele>289.4</ele>
        <time>2022-06-25T12:11:20Z</time>
      </trkpt>
      <trkpt lat="46.35086" lon="4.70072">
        <ele>289.4</ele>
        <time>2022-06-25T12:11:21Z</time>
      </trkpt>
      <trkpt lat="46.35086" lon="4.70068">
        <ele>289.8</ele>
        <time>2022-06-25T12:11:22Z</time>
      </trkpt>
      <trkpt lat="46.35086" lon="4.70065">
        <ele>290</ele>
        <time>2022-06-25T12:11:23Z</time>
      </trkpt>
      <trkpt lat="46.35086" lon="4.70061">
        <ele>290.2</ele>
        <time>2022-06-25T12:11:24Z</time>
      </trkpt>
      <trkpt lat="46.35086" lon="4.70057">
        <ele>290.2</ele>
        <time>2022-06-25T12:11:25Z</time>
      </trkpt>
      <trkpt lat="46.35086" lon="4.70054">
        <ele>290.6</ele>
        <time>2022-06-25T12:11:26Z</time>
      </trkpt>
      <trkpt lat="46.35086" lon="4.7005">
        <ele>290.6</ele>
        <time>2022-06-25T12:11:27Z</time>
      </trkpt>
      <trkpt lat="46.35086" lon="4.70047">
        <ele>291</ele>
        <time>2022-06-25T12:11:28Z</time>
      </trkpt>
      <trkpt lat="46.35086" lon="4.70043">
        <ele>291</ele>
        <time>2022-06-25T12:11:29Z</time>
      </trkpt>
      <trkpt lat="46.35086" lon="4.7004">
        <ele>291.4</ele>
        <time>2022-06-25T12:11:30Z</time>
      </trkpt>
      <trkpt lat="46.35086" lon="4.70036">
        <ele>291.4</ele>
        <time>2022-06-25T12:11:31Z</time>
      </trkpt>
      <trkpt lat="46.35085" lon="4.70032">
        <ele>291.8</ele>
        <time>2022-06-25T12:11:32Z</time>
      </trkpt>
      <trkpt lat="46.35086" lon="4.70028">
        <ele>291.8</ele>
        <time>2022-06-25T12:11:33Z</time>
      </trkpt>
      <trkpt lat="46.35086" lon="4.70024">
        <ele>292.2</ele>
        <time>2022-06-25T12:11:34Z</time>
      </trkpt>
      <trkpt lat="46.35086" lon="4.7002">
        <ele>292.2</ele>
        <time>2022-06-25T12:11:35Z</time>
      </trkpt>
      <trkpt lat="46.35087" lon="4.70016">
        <ele>292.4</ele>
        <time>2022-06-25T12:11:36Z</time>
      </trkpt>
      <trkpt lat="46.35087" lon="4.70011">
        <ele>292.4</ele>
        <time>2022-06-25T12:11:37Z</time>
      </trkpt>
      <trkpt lat="46.35087" lon="4.70007">
        <ele>292.8</ele>
        <time>2022-06-25T12:11:38Z</time>
      </trkpt>
      <trkpt lat="46.35087" lon="4.70002">
        <ele>292.8</ele>
        <time>2022-06-25T12:11:39Z</time>
      </trkpt>
      <trkpt lat="46.35088" lon="4.69998">
        <ele>293.2</ele>
        <time>2022-06-25T12:11:40Z</time>
      </trkpt>
      <trkpt lat="46.35088" lon="4.69993">
        <ele>293.2</ele>
        <time>2022-06-25T12:11:41Z</time>
      </trkpt>
      <trkpt lat="46.35088" lon="4.69989">
        <ele>293.4</ele>
        <time>2022-06-25T12:11:42Z</time>
      </trkpt>
      <trkpt lat="46.35089" lon="4.69984">
        <ele>293.4</ele>
        <time>2022-06-25T12:11:43Z</time>
      </trkpt>
      <trkpt lat="46.3509" lon="4.6998">
        <ele>293.6</ele>
        <time>2022-06-25T12:11:44Z</time>
      </trkpt>
      <trkpt lat="46.3509" lon="4.69975">
        <ele>293.6</ele>
        <time>2022-06-25T12:11:45Z</time>
      </trkpt>
      <trkpt lat="46.3509" lon="4.6997">
        <ele>294</ele>
        <time>2022-06-25T12:11:46Z</time>
      </trkpt>
      <trkpt lat="46.35091" lon="4.69966">
        <ele>294</ele>
        <time>2022-06-25T12:11:47Z</time>
      </trkpt>
      <trkpt lat="46.35092" lon="4.69961">
        <ele>294.2</ele>
        <time>2022-06-25T12:11:48Z</time>
      </trkpt>
      <trkpt lat="46.35092" lon="4.69956">
        <ele>294.6</ele>
        <time>2022-06-25T12:11:49Z</time>
      </trkpt>
      <trkpt lat="46.35093" lon="4.69951">
        <ele>294.8</ele>
        <time>2022-06-25T12:11:50Z</time>
      </trkpt>
      <trkpt lat="46.35093" lon="4.69946">
        <ele>295</ele>
        <time>2022-06-25T12:11:51Z</time>
      </trkpt>
      <trkpt lat="46.35093" lon="4.69941">
        <ele>295.2</ele>
        <time>2022-06-25T12:11:52Z</time>
      </trkpt>
      <trkpt lat="46.35094" lon="4.69936">
        <ele>295.4</ele>
        <time>2022-06-25T12:11:53Z</time>
      </trkpt>
      <trkpt lat="46.35094" lon="4.69931">
        <ele>295.8</ele>
        <time>2022-06-25T12:11:54Z</time>
      </trkpt>
      <trkpt lat="46.35094" lon="4.69927">
        <ele>295.8</ele>
        <time>2022-06-25T12:11:55Z</time>
      </trkpt>
      <trkpt lat="46.35095" lon="4.69922">
        <ele>296.2</ele>
        <time>2022-06-25T12:11:56Z</time>
      </trkpt>
      <trkpt lat="46.35095" lon="4.69917">
        <ele>296.2</ele>
        <time>2022-06-25T12:11:57Z</time>
      </trkpt>
      <trkpt lat="46.35095" lon="4.69913">
        <ele>296.4</ele>
        <time>2022-06-25T12:11:58Z</time>
      </trkpt>
      <trkpt lat="46.35096" lon="4.69908">
        <ele>296.4</ele>
        <time>2022-06-25T12:11:59Z</time>
      </trkpt>
      <trkpt lat="46.35096" lon="4.69903">
        <ele>296.8</ele>
        <time>2022-06-25T12:12:00Z</time>
      </trkpt>
      <trkpt lat="46.35096" lon="4.69898">
        <ele>296.8</ele>
        <time>2022-06-25T12:12:01Z</time>
      </trkpt>
      <trkpt lat="46.35097" lon="4.69894">
        <ele>297</ele>
        <time>2022-06-25T12:12:02Z</time>
      </trkpt>
      <trkpt lat="46.35097" lon="4.69889">
        <ele>297</ele>
        <time>2022-06-25T12:12:03Z</time>
      </trkpt>
      <trkpt lat="46.35097" lon="4.69884">
        <ele>297.4</ele>
        <time>2022-06-25T12:12:04Z</time>
      </trkpt>
      <trkpt lat="46.35098" lon="4.6988">
        <ele>297.6</ele>
        <time>2022-06-25T12:12:05Z</time>
      </trkpt>
      <trkpt lat="46.35099" lon="4.69875">
        <ele>297.8</ele>
        <time>2022-06-25T12:12:06Z</time>
      </trkpt>
      <trkpt lat="46.35099" lon="4.69871">
        <ele>297.8</ele>
        <time>2022-06-25T12:12:07Z</time>
      </trkpt>
      <trkpt lat="46.35099" lon="4.69866">
        <ele>298.2</ele>
        <time>2022-06-25T12:12:08Z</time>
      </trkpt>
      <trkpt lat="46.351" lon="4.69861">
        <ele>298.2</ele>
        <time>2022-06-25T12:12:09Z</time>
      </trkpt>
      <trkpt lat="46.351" lon="4.69857">
        <ele>298.4</ele>
        <time>2022-06-25T12:12:10Z</time>
      </trkpt>
      <trkpt lat="46.35101" lon="4.69852">
        <ele>298.4</ele>
        <time>2022-06-25T12:12:11Z</time>
      </trkpt>
      <trkpt lat="46.35102" lon="4.69848">
        <ele>298.8</ele>
        <time>2022-06-25T12:12:12Z</time>
      </trkpt>
      <trkpt lat="46.35102" lon="4.69844">
        <ele>299</ele>
        <time>2022-06-25T12:12:13Z</time>
      </trkpt>
      <trkpt lat="46.35103" lon="4.69839">
        <ele>299.2</ele>
        <time>2022-06-25T12:12:14Z</time>
      </trkpt>
      <trkpt lat="46.35104" lon="4.69835">
        <ele>299.2</ele>
        <time>2022-06-25T12:12:15Z</time>
      </trkpt>
      <trkpt lat="46.35104" lon="4.6983">
        <ele>299.6</ele>
        <time>2022-06-25T12:12:16Z</time>
      </trkpt>
      <trkpt lat="46.35105" lon="4.69826">
        <ele>299.8</ele>
        <time>2022-06-25T12:12:17Z</time>
      </trkpt>
      <trkpt lat="46.35105" lon="4.69821">
        <ele>300</ele>
        <time>2022-06-25T12:12:18Z</time>
      </trkpt>
      <trkpt lat="46.35106" lon="4.69817">
        <ele>300.2</ele>
        <time>2022-06-25T12:12:19Z</time>
      </trkpt>
      <trkpt lat="46.35106" lon="4.69812">
        <ele>300.2</ele>
        <time>2022-06-25T12:12:20Z</time>
      </trkpt>
      <trkpt lat="46.35106" lon="4.69808">
        <ele>300.6</ele>
        <time>2022-06-25T12:12:21Z</time>
      </trkpt>
      <trkpt lat="46.35106" lon="4.69803">
        <ele>300.8</ele>
        <time>2022-06-25T12:12:22Z</time>
      </trkpt>
      <trkpt lat="46.35107" lon="4.69799">
        <ele>301</ele>
        <time>2022-06-25T12:12:23Z</time>
      </trkpt>
      <trkpt lat="46.35107" lon="4.69794">
        <ele>301.2</ele>
        <time>2022-06-25T12:12:24Z</time>
      </trkpt>
      <trkpt lat="46.35108" lon="4.69789">
        <ele>301.2</ele>
        <time>2022-06-25T12:12:25Z</time>
      </trkpt>
      <trkpt lat="46.35108" lon="4.69784">
        <ele>301.6</ele>
        <time>2022-06-25T12:12:26Z</time>
      </trkpt>
      <trkpt lat="46.35108" lon="4.6978">
        <ele>301.6</ele>
        <time>2022-06-25T12:12:27Z</time>
      </trkpt>
      <trkpt lat="46.35109" lon="4.69775">
        <ele>302</ele>
        <time>2022-06-25T12:12:28Z</time>
      </trkpt>
      <trkpt lat="46.35109" lon="4.69771">
        <ele>302</ele>
        <time>2022-06-25T12:12:29Z</time>
      </trkpt>
      <trkpt lat="46.3511" lon="4.69766">
        <ele>302.4</ele>
        <time>2022-06-25T12:12:30Z</time>
      </trkpt>
      <trkpt lat="46.3511" lon="4.69762">
        <ele>302.6</ele>
        <time>2022-06-25T12:12:31Z</time>
      </trkpt>
      <trkpt lat="46.35111" lon="4.69757">
        <ele>302.6</ele>
        <time>2022-06-25T12:12:32Z</time>
      </trkpt>
      <trkpt lat="46.35111" lon="4.69753">
        <ele>303</ele>
        <time>2022-06-25T12:12:33Z</time>
      </trkpt>
      <trkpt lat="46.35111" lon="4.69748">
        <ele>303</ele>
        <time>2022-06-25T12:12:34Z</time>
      </trkpt>
      <trkpt lat="46.35111" lon="4.69743">
        <ele>303.4</ele>
        <time>2022-06-25T12:12:35Z</time>
      </trkpt>
      <trkpt lat="46.35111" lon="4.69738">
        <ele>303.4</ele>
        <time>2022-06-25T12:12:36Z</time>
      </trkpt>
      <trkpt lat="46.35111" lon="4.69734">
        <ele>303.6</ele>
        <time>2022-06-25T12:12:37Z</time>
      </trkpt>
      <trkpt lat="46.3511" lon="4.69729">
        <ele>303.6</ele>
        <time>2022-06-25T12:12:38Z</time>
      </trkpt>
      <trkpt lat="46.35109" lon="4.69724">
        <ele>304.2</ele>
        <time>2022-06-25T12:12:39Z</time>
      </trkpt>
      <trkpt lat="46.35108" lon="4.6972">
        <ele>304.4</ele>
        <time>2022-06-25T12:12:40Z</time>
      </trkpt>
      <trkpt lat="46.35107" lon="4.69716">
        <ele>304.6</ele>
        <time>2022-06-25T12:12:41Z</time>
      </trkpt>
      <trkpt lat="46.35105" lon="4.69711">
        <ele>304.8</ele>
        <time>2022-06-25T12:12:42Z</time>
      </trkpt>
      <trkpt lat="46.35104" lon="4.69707">
        <ele>304.8</ele>
        <time>2022-06-25T12:12:43Z</time>
      </trkpt>
      <trkpt lat="46.35102" lon="4.69703">
        <ele>305.2</ele>
        <time>2022-06-25T12:12:44Z</time>
      </trkpt>
      <trkpt lat="46.35101" lon="4.69699">
        <ele>305.2</ele>
        <time>2022-06-25T12:12:45Z</time>
      </trkpt>
      <trkpt lat="46.35098" lon="4.69696">
        <ele>305.4</ele>
        <time>2022-06-25T12:12:46Z</time>
      </trkpt>
      <trkpt lat="46.35096" lon="4.69693">
        <ele>305.6</ele>
        <time>2022-06-25T12:12:47Z</time>
      </trkpt>
      <trkpt lat="46.35093" lon="4.69691">
        <ele>305.8</ele>
        <time>2022-06-25T12:12:48Z</time>
      </trkpt>
      <trkpt lat="46.3509" lon="4.69688">
        <ele>306.2</ele>
        <time>2022-06-25T12:12:49Z</time>
      </trkpt>
      <trkpt lat="46.35087" lon="4.69687">
        <ele>306.6</ele>
        <time>2022-06-25T12:12:50Z</time>
      </trkpt>
      <trkpt lat="46.35084" lon="4.69686">
        <ele>307</ele>
        <time>2022-06-25T12:12:51Z</time>
      </trkpt>
      <trkpt lat="46.3508" lon="4.69685">
        <ele>307.2</ele>
        <time>2022-06-25T12:12:52Z</time>
      </trkpt>
      <trkpt lat="46.35077" lon="4.69685">
        <ele>307.6</ele>
        <time>2022-06-25T12:12:53Z</time>
      </trkpt>
      <trkpt lat="46.35074" lon="4.69685">
        <ele>308</ele>
        <time>2022-06-25T12:12:54Z</time>
      </trkpt>
      <trkpt lat="46.3507" lon="4.69685">
        <ele>308</ele>
        <time>2022-06-25T12:12:55Z</time>
      </trkpt>
      <trkpt lat="46.35067" lon="4.69686">
        <ele>308.4</ele>
        <time>2022-06-25T12:12:56Z</time>
      </trkpt>
      <trkpt lat="46.35063" lon="4.69687">
        <ele>308.4</ele>
        <time>2022-06-25T12:12:57Z</time>
      </trkpt>
      <trkpt lat="46.3506" lon="4.69688">
        <ele>308.6</ele>
        <time>2022-06-25T12:12:58Z</time>
      </trkpt>
      <trkpt lat="46.35056" lon="4.69689">
        <ele>308.6</ele>
        <time>2022-06-25T12:12:59Z</time>
      </trkpt>
      <trkpt lat="46.35053" lon="4.6969">
        <ele>309</ele>
        <time>2022-06-25T12:13:00Z</time>
      </trkpt>
      <trkpt lat="46.3505" lon="4.6969">
        <ele>309.2</ele>
        <time>2022-06-25T12:13:01Z</time>
      </trkpt>
      <trkpt lat="46.35047" lon="4.69691">
        <ele>309.4</ele>
        <time>2022-06-25T12:13:02Z</time>
      </trkpt>
      <trkpt lat="46.35043" lon="4.69691">
        <ele>309.6</ele>
        <time>2022-06-25T12:13:03Z</time>
      </trkpt>
      <trkpt lat="46.3504" lon="4.69691">
        <ele>309.8</ele>
        <time>2022-06-25T12:13:04Z</time>
      </trkpt>
      <trkpt lat="46.35037" lon="4.69692">
        <ele>310</ele>
        <time>2022-06-25T12:13:05Z</time>
      </trkpt>
      <trkpt lat="46.35034" lon="4.69691">
        <ele>310</ele>
        <time>2022-06-25T12:13:06Z</time>
      </trkpt>
      <trkpt lat="46.3503" lon="4.69691">
        <ele>310.4</ele>
        <time>2022-06-25T12:13:07Z</time>
      </trkpt>
      <trkpt lat="46.35027" lon="4.69692">
        <ele>310.6</ele>
        <time>2022-06-25T12:13:08Z</time>
      </trkpt>
      <trkpt lat="46.35024" lon="4.69692">
        <ele>311</ele>
        <time>2022-06-25T12:13:09Z</time>
      </trkpt>
      <trkpt lat="46.35021" lon="4.69691">
        <ele>311.2</ele>
        <time>2022-06-25T12:13:10Z</time>
      </trkpt>
      <trkpt lat="46.35018" lon="4.6969">
        <ele>311.6</ele>
        <time>2022-06-25T12:13:11Z</time>
      </trkpt>
      <trkpt lat="46.35015" lon="4.69688">
        <ele>311.8</ele>
        <time>2022-06-25T12:13:12Z</time>
      </trkpt>
      <trkpt lat="46.35012" lon="4.69686">
        <ele>311.8</ele>
        <time>2022-06-25T12:13:13Z</time>
      </trkpt>
      <trkpt lat="46.35009" lon="4.69684">
        <ele>312.2</ele>
        <time>2022-06-25T12:13:14Z</time>
      </trkpt>
      <trkpt lat="46.35006" lon="4.69682">
        <ele>312.6</ele>
        <time>2022-06-25T12:13:15Z</time>
      </trkpt>
      <trkpt lat="46.35004" lon="4.69679">
        <ele>313</ele>
        <time>2022-06-25T12:13:17Z</time>
      </trkpt>
      <trkpt lat="46.35001" lon="4.69676">
        <ele>313.2</ele>
        <time>2022-06-25T12:13:18Z</time>
      </trkpt>
      <trkpt lat="46.34999" lon="4.69672">
        <ele>313.2</ele>
        <time>2022-06-25T12:13:19Z</time>
      </trkpt>
      <trkpt lat="46.34997" lon="4.69668">
        <ele>313.6</ele>
        <time>2022-06-25T12:13:20Z</time>
      </trkpt>
      <trkpt lat="46.34996" lon="4.69665">
        <ele>313.6</ele>
        <time>2022-06-25T12:13:21Z</time>
      </trkpt>
      <trkpt lat="46.34994" lon="4.69661">
        <ele>313.8</ele>
        <time>2022-06-25T12:13:22Z</time>
      </trkpt>
      <trkpt lat="46.34992" lon="4.69657">
        <ele>313.8</ele>
        <time>2022-06-25T12:13:23Z</time>
      </trkpt>
      <trkpt lat="46.34989" lon="4.69654">
        <ele>314.2</ele>
        <time>2022-06-25T12:13:24Z</time>
      </trkpt>
      <trkpt lat="46.34987" lon="4.69651">
        <ele>314.2</ele>
        <time>2022-06-25T12:13:25Z</time>
      </trkpt>
      <trkpt lat="46.34984" lon="4.69648">
        <ele>314.4</ele>
        <time>2022-06-25T12:13:26Z</time>
      </trkpt>
      <trkpt lat="46.34982" lon="4.69646">
        <ele>314.4</ele>
        <time>2022-06-25T12:13:27Z</time>
      </trkpt>
      <trkpt lat="46.34979" lon="4.69644">
        <ele>314.8</ele>
        <time>2022-06-25T12:13:28Z</time>
      </trkpt>
      <trkpt lat="46.34976" lon="4.69644">
        <ele>314.8</ele>
        <time>2022-06-25T12:13:29Z</time>
      </trkpt>
      <trkpt lat="46.34973" lon="4.69644">
        <ele>315.2</ele>
        <time>2022-06-25T12:13:30Z</time>
      </trkpt>
      <trkpt lat="46.3497" lon="4.69645">
        <ele>315.6</ele>
        <time>2022-06-25T12:13:31Z</time>
      </trkpt>
      <trkpt lat="46.34967" lon="4.69647">
        <ele>315.8</ele>
        <time>2022-06-25T12:13:32Z</time>
      </trkpt>
      <trkpt lat="46.34964" lon="4.69649">
        <ele>316</ele>
        <time>2022-06-25T12:13:33Z</time>
      </trkpt>
      <trkpt lat="46.34962" lon="4.69652">
        <ele>316.4</ele>
        <time>2022-06-25T12:13:34Z</time>
      </trkpt>
      <trkpt lat="46.3496" lon="4.69655">
        <ele>316.6</ele>
        <time>2022-06-25T12:13:35Z</time>
      </trkpt>
      <trkpt lat="46.34959" lon="4.69659">
        <ele>316.6</ele>
        <time>2022-06-25T12:13:36Z</time>
      </trkpt>
      <trkpt lat="46.34958" lon="4.69664">
        <ele>317</ele>
        <time>2022-06-25T12:13:37Z</time>
      </trkpt>
      <trkpt lat="46.34957" lon="4.69668">
        <ele>317.4</ele>
        <time>2022-06-25T12:13:38Z</time>
      </trkpt>
      <trkpt lat="46.34957" lon="4.69673">
        <ele>317.6</ele>
        <time>2022-06-25T12:13:39Z</time>
      </trkpt>
      <trkpt lat="46.34957" lon="4.69677">
        <ele>317.8</ele>
        <time>2022-06-25T12:13:40Z</time>
      </trkpt>
      <trkpt lat="46.34957" lon="4.69682">
        <ele>318</ele>
        <time>2022-06-25T12:13:41Z</time>
      </trkpt>
      <trkpt lat="46.34958" lon="4.69687">
        <ele>318.2</ele>
        <time>2022-06-25T12:13:42Z</time>
      </trkpt>
      <trkpt lat="46.34958" lon="4.69691">
        <ele>318.4</ele>
        <time>2022-06-25T12:13:43Z</time>
      </trkpt>
      <trkpt lat="46.34958" lon="4.69696">
        <ele>318.4</ele>
        <time>2022-06-25T12:13:44Z</time>
      </trkpt>
      <trkpt lat="46.34959" lon="4.69701">
        <ele>318.8</ele>
        <time>2022-06-25T12:13:45Z</time>
      </trkpt>
      <trkpt lat="46.34959" lon="4.69705">
        <ele>319</ele>
        <time>2022-06-25T12:13:46Z</time>
      </trkpt>
      <trkpt lat="46.34959" lon="4.6971">
        <ele>319.2</ele>
        <time>2022-06-25T12:13:47Z</time>
      </trkpt>
      <trkpt lat="46.34959" lon="4.69714">
        <ele>319.2</ele>
        <time>2022-06-25T12:13:48Z</time>
      </trkpt>
      <trkpt lat="46.34959" lon="4.69719">
        <ele>319.6</ele>
        <time>2022-06-25T12:13:49Z</time>
      </trkpt>
      <trkpt lat="46.34958" lon="4.69724">
        <ele>319.6</ele>
        <time>2022-06-25T12:13:50Z</time>
      </trkpt>
      <trkpt lat="46.34957" lon="4.69728">
        <ele>319.8</ele>
        <time>2022-06-25T12:13:51Z</time>
      </trkpt>
      <trkpt lat="46.34955" lon="4.69733">
        <ele>320.2</ele>
        <time>2022-06-25T12:13:52Z</time>
      </trkpt>
      <trkpt lat="46.34953" lon="4.69736">
        <ele>320.2</ele>
        <time>2022-06-25T12:13:53Z</time>
      </trkpt>
      <trkpt lat="46.34951" lon="4.6974">
        <ele>320.6</ele>
        <time>2022-06-25T12:13:54Z</time>
      </trkpt>
      <trkpt lat="46.34949" lon="4.69743">
        <ele>320.8</ele>
        <time>2022-06-25T12:13:55Z</time>
      </trkpt>
      <trkpt lat="46.34947" lon="4.69746">
        <ele>321</ele>
        <time>2022-06-25T12:13:56Z</time>
      </trkpt>
      <trkpt lat="46.34945" lon="4.69749">
        <ele>321.2</ele>
        <time>2022-06-25T12:13:57Z</time>
      </trkpt>
      <trkpt lat="46.34943" lon="4.69753">
        <ele>321.6</ele>
        <time>2022-06-25T12:13:58Z</time>
      </trkpt>
      <trkpt lat="46.34941" lon="4.69756">
        <ele>321.8</ele>
        <time>2022-06-25T12:13:59Z</time>
      </trkpt>
      <trkpt lat="46.34938" lon="4.69759">
        <ele>322</ele>
        <time>2022-06-25T12:14:00Z</time>
      </trkpt>
      <trkpt lat="46.34936" lon="4.69761">
        <ele>322.2</ele>
        <time>2022-06-25T12:14:01Z</time>
      </trkpt>
      <trkpt lat="46.34933" lon="4.69763">
        <ele>322.2</ele>
        <time>2022-06-25T12:14:02Z</time>
      </trkpt>
      <trkpt lat="46.34931" lon="4.69765">
        <ele>322.6</ele>
        <time>2022-06-25T12:14:03Z</time>
      </trkpt>
      <trkpt lat="46.34928" lon="4.69765">
        <ele>322.8</ele>
        <time>2022-06-25T12:14:04Z</time>
      </trkpt>
      <trkpt lat="46.34925" lon="4.69765">
        <ele>323</ele>
        <time>2022-06-25T12:14:05Z</time>
      </trkpt>
      <trkpt lat="46.34922" lon="4.69765">
        <ele>323.2</ele>
        <time>2022-06-25T12:14:06Z</time>
      </trkpt>
      <trkpt lat="46.34919" lon="4.69764">
        <ele>323.6</ele>
        <time>2022-06-25T12:14:07Z</time>
      </trkpt>
      <trkpt lat="46.34916" lon="4.69764">
        <ele>323.6</ele>
        <time>2022-06-25T12:14:08Z</time>
      </trkpt>
      <trkpt lat="46.34913" lon="4.69764">
        <ele>324</ele>
        <time>2022-06-25T12:14:09Z</time>
      </trkpt>
      <trkpt lat="46.3491" lon="4.69765">
        <ele>324.2</ele>
        <time>2022-06-25T12:14:10Z</time>
      </trkpt>
      <trkpt lat="46.34907" lon="4.69765">
        <ele>324.4</ele>
        <time>2022-06-25T12:14:11Z</time>
      </trkpt>
      <trkpt lat="46.34903" lon="4.69766">
        <ele>324.6</ele>
        <time>2022-06-25T12:14:12Z</time>
      </trkpt>
      <trkpt lat="46.349" lon="4.69766">
        <ele>325</ele>
        <time>2022-06-25T12:14:13Z</time>
      </trkpt>
      <trkpt lat="46.34897" lon="4.69766">
        <ele>325</ele>
        <time>2022-06-25T12:14:14Z</time>
      </trkpt>
      <trkpt lat="46.34894" lon="4.69766">
        <ele>325.4</ele>
        <time>2022-06-25T12:14:15Z</time>
      </trkpt>
      <trkpt lat="46.3489" lon="4.69766">
        <ele>325.6</ele>
        <time>2022-06-25T12:14:16Z</time>
      </trkpt>
      <trkpt lat="46.34887" lon="4.69766">
        <ele>325.8</ele>
        <time>2022-06-25T12:14:17Z</time>
      </trkpt>
      <trkpt lat="46.34884" lon="4.69767">
        <ele>325.8</ele>
        <time>2022-06-25T12:14:18Z</time>
      </trkpt>
      <trkpt lat="46.34881" lon="4.69767">
        <ele>326.2</ele>
        <time>2022-06-25T12:14:19Z</time>
      </trkpt>
      <trkpt lat="46.34878" lon="4.69768">
        <ele>326.2</ele>
        <time>2022-06-25T12:14:20Z</time>
      </trkpt>
      <trkpt lat="46.34875" lon="4.69768">
        <ele>326.4</ele>
        <time>2022-06-25T12:14:21Z</time>
      </trkpt>
      <trkpt lat="46.34871" lon="4.69768">
        <ele>326.6</ele>
        <time>2022-06-25T12:14:22Z</time>
      </trkpt>
      <trkpt lat="46.34868" lon="4.69768">
        <ele>326.8</ele>
        <time>2022-06-25T12:14:23Z</time>
      </trkpt>
      <trkpt lat="46.34865" lon="4.69768">
        <ele>326.8</ele>
        <time>2022-06-25T12:14:24Z</time>
      </trkpt>
      <trkpt lat="46.34861" lon="4.69767">
        <ele>327.2</ele>
        <time>2022-06-25T12:14:25Z</time>
      </trkpt>
      <trkpt lat="46.34858" lon="4.69767">
        <ele>327.2</ele>
        <time>2022-06-25T12:14:26Z</time>
      </trkpt>
      <trkpt lat="46.34855" lon="4.69767">
        <ele>327.6</ele>
        <time>2022-06-25T12:14:27Z</time>
      </trkpt>
      <trkpt lat="46.34851" lon="4.69767">
        <ele>327.6</ele>
        <time>2022-06-25T12:14:28Z</time>
      </trkpt>
      <trkpt lat="46.34848" lon="4.69768">
        <ele>328</ele>
        <time>2022-06-25T12:14:29Z</time>
      </trkpt>
      <trkpt lat="46.34845" lon="4.69768">
        <ele>328.2</ele>
        <time>2022-06-25T12:14:30Z</time>
      </trkpt>
      <trkpt lat="46.34841" lon="4.69767">
        <ele>328.4</ele>
        <time>2022-06-25T12:14:31Z</time>
      </trkpt>
      <trkpt lat="46.34838" lon="4.69767">
        <ele>328.8</ele>
        <time>2022-06-25T12:14:32Z</time>
      </trkpt>
      <trkpt lat="46.34835" lon="4.69768">
        <ele>329</ele>
        <time>2022-06-25T12:14:33Z</time>
      </trkpt>
      <trkpt lat="46.34831" lon="4.69768">
        <ele>329.4</ele>
        <time>2022-06-25T12:14:34Z</time>
      </trkpt>
      <trkpt lat="46.34828" lon="4.69768">
        <ele>329.6</ele>
        <time>2022-06-25T12:14:35Z</time>
      </trkpt>
      <trkpt lat="46.34825" lon="4.69769">
        <ele>330</ele>
        <time>2022-06-25T12:14:36Z</time>
      </trkpt>
      <trkpt lat="46.34822" lon="4.69769">
        <ele>330</ele>
        <time>2022-06-25T12:14:37Z</time>
      </trkpt>
      <trkpt lat="46.34819" lon="4.69769">
        <ele>330.4</ele>
        <time>2022-06-25T12:14:38Z</time>
      </trkpt>
      <trkpt lat="46.34815" lon="4.69769">
        <ele>330.6</ele>
        <time>2022-06-25T12:14:39Z</time>
      </trkpt>
      <trkpt lat="46.34812" lon="4.69769">
        <ele>331</ele>
        <time>2022-06-25T12:14:40Z</time>
      </trkpt>
      <trkpt lat="46.34809" lon="4.69769">
        <ele>331.2</ele>
        <time>2022-06-25T12:14:41Z</time>
      </trkpt>
      <trkpt lat="46.34806" lon="4.69769">
        <ele>331.2</ele>
        <time>2022-06-25T12:14:42Z</time>
      </trkpt>
      <trkpt lat="46.34802" lon="4.6977">
        <ele>331.6</ele>
        <time>2022-06-25T12:14:43Z</time>
      </trkpt>
      <trkpt lat="46.34799" lon="4.69771">
        <ele>331.6</ele>
        <time>2022-06-25T12:14:44Z</time>
      </trkpt>
      <trkpt lat="46.34796" lon="4.69772">
        <ele>331.8</ele>
        <time>2022-06-25T12:14:45Z</time>
      </trkpt>
      <trkpt lat="46.34793" lon="4.69774">
        <ele>332.2</ele>
        <time>2022-06-25T12:14:46Z</time>
      </trkpt>
      <trkpt lat="46.3479" lon="4.69775">
        <ele>332.2</ele>
        <time>2022-06-25T12:14:47Z</time>
      </trkpt>
      <trkpt lat="46.34787" lon="4.69777">
        <ele>332.6</ele>
        <time>2022-06-25T12:14:48Z</time>
      </trkpt>
      <trkpt lat="46.34784" lon="4.69778">
        <ele>332.8</ele>
        <time>2022-06-25T12:14:49Z</time>
      </trkpt>
      <trkpt lat="46.34781" lon="4.69781">
        <ele>333</ele>
        <time>2022-06-25T12:14:50Z</time>
      </trkpt>
      <trkpt lat="46.34778" lon="4.69783">
        <ele>333.4</ele>
        <time>2022-06-25T12:14:51Z</time>
      </trkpt>
      <trkpt lat="46.34776" lon="4.69785">
        <ele>333.6</ele>
        <time>2022-06-25T12:14:52Z</time>
      </trkpt>
      <trkpt lat="46.34773" lon="4.69788">
        <ele>333.6</ele>
        <time>2022-06-25T12:14:53Z</time>
      </trkpt>
      <trkpt lat="46.3477" lon="4.69791">
        <ele>334</ele>
        <time>2022-06-25T12:14:54Z</time>
      </trkpt>
      <trkpt lat="46.34767" lon="4.69793">
        <ele>334.2</ele>
        <time>2022-06-25T12:14:55Z</time>
      </trkpt>
      <trkpt lat="46.34765" lon="4.69796">
        <ele>334.4</ele>
        <time>2022-06-25T12:14:56Z</time>
      </trkpt>
      <trkpt lat="46.34762" lon="4.69798">
        <ele>334.4</ele>
        <time>2022-06-25T12:14:57Z</time>
      </trkpt>
      <trkpt lat="46.3476" lon="4.69801">
        <ele>334.6</ele>
        <time>2022-06-25T12:14:58Z</time>
      </trkpt>
      <trkpt lat="46.34757" lon="4.69803">
        <ele>334.6</ele>
        <time>2022-06-25T12:14:59Z</time>
      </trkpt>
      <trkpt lat="46.34755" lon="4.69806">
        <ele>335</ele>
        <time>2022-06-25T12:15:00Z</time>
      </trkpt>
      <trkpt lat="46.34753" lon="4.69809">
        <ele>335</ele>
        <time>2022-06-25T12:15:01Z</time>
      </trkpt>
      <trkpt lat="46.3475" lon="4.69811">
        <ele>335.4</ele>
        <time>2022-06-25T12:15:02Z</time>
      </trkpt>
      <trkpt lat="46.34748" lon="4.69814">
        <ele>335.6</ele>
        <time>2022-06-25T12:15:03Z</time>
      </trkpt>
      <trkpt lat="46.34745" lon="4.69816">
        <ele>335.6</ele>
        <time>2022-06-25T12:15:04Z</time>
      </trkpt>
      <trkpt lat="46.34743" lon="4.69818">
        <ele>335.8</ele>
        <time>2022-06-25T12:15:05Z</time>
      </trkpt>
      <trkpt lat="46.3474" lon="4.69821">
        <ele>335.8</ele>
        <time>2022-06-25T12:15:06Z</time>
      </trkpt>
      <trkpt lat="46.34738" lon="4.69823">
        <ele>336.2</ele>
        <time>2022-06-25T12:15:07Z</time>
      </trkpt>
      <trkpt lat="46.34735" lon="4.69826">
        <ele>336.6</ele>
        <time>2022-06-25T12:15:08Z</time>
      </trkpt>
      <trkpt lat="46.34733" lon="4.69828">
        <ele>336.8</ele>
        <time>2022-06-25T12:15:09Z</time>
      </trkpt>
      <trkpt lat="46.3473" lon="4.6983">
        <ele>336.8</ele>
        <time>2022-06-25T12:15:10Z</time>
      </trkpt>
      <trkpt lat="46.34728" lon="4.69832">
        <ele>337</ele>
        <time>2022-06-25T12:15:11Z</time>
      </trkpt>
      <trkpt lat="46.34725" lon="4.69833">
        <ele>337</ele>
        <time>2022-06-25T12:15:12Z</time>
      </trkpt>
      <trkpt lat="46.34723" lon="4.69835">
        <ele>337.2</ele>
        <time>2022-06-25T12:15:13Z</time>
      </trkpt>
      <trkpt lat="46.3472" lon="4.69836">
        <ele>337.2</ele>
        <time>2022-06-25T12:15:14Z</time>
      </trkpt>
      <trkpt lat="46.34717" lon="4.69837">
        <ele>337.6</ele>
        <time>2022-06-25T12:15:15Z</time>
      </trkpt>
      <trkpt lat="46.34715" lon="4.69837">
        <ele>337.6</ele>
        <time>2022-06-25T12:15:16Z</time>
      </trkpt>
      <trkpt lat="46.34712" lon="4.69838">
        <ele>338</ele>
        <time>2022-06-25T12:15:17Z</time>
      </trkpt>
      <trkpt lat="46.34709" lon="4.69838">
        <ele>338.2</ele>
        <time>2022-06-25T12:15:18Z</time>
      </trkpt>
      <trkpt lat="46.34706" lon="4.69838">
        <ele>338.2</ele>
        <time>2022-06-25T12:15:19Z</time>
      </trkpt>
      <trkpt lat="46.34704" lon="4.69838">
        <ele>338.6</ele>
        <time>2022-06-25T12:15:20Z</time>
      </trkpt>
      <trkpt lat="46.34701" lon="4.69838">
        <ele>339</ele>
        <time>2022-06-25T12:15:21Z</time>
      </trkpt>
      <trkpt lat="46.34698" lon="4.69838">
        <ele>339.2</ele>
        <time>2022-06-25T12:15:22Z</time>
      </trkpt>
      <trkpt lat="46.34695" lon="4.69837">
        <ele>339.4</ele>
        <time>2022-06-25T12:15:23Z</time>
      </trkpt>
      <trkpt lat="46.34693" lon="4.69837">
        <ele>339.6</ele>
        <time>2022-06-25T12:15:24Z</time>
      </trkpt>
      <trkpt lat="46.3469" lon="4.69837">
        <ele>339.8</ele>
        <time>2022-06-25T12:15:25Z</time>
      </trkpt>
      <trkpt lat="46.34687" lon="4.69838">
        <ele>340</ele>
        <time>2022-06-25T12:15:26Z</time>
      </trkpt>
      <trkpt lat="46.34684" lon="4.69838">
        <ele>340</ele>
        <time>2022-06-25T12:15:27Z</time>
      </trkpt>
      <trkpt lat="46.34681" lon="4.69838">
        <ele>340.2</ele>
        <time>2022-06-25T12:15:28Z</time>
      </trkpt>
      <trkpt lat="46.34678" lon="4.69837">
        <ele>340.2</ele>
        <time>2022-06-25T12:15:29Z</time>
      </trkpt>
      <trkpt lat="46.34675" lon="4.69837">
        <ele>340.6</ele>
        <time>2022-06-25T12:15:30Z</time>
      </trkpt>
      <trkpt lat="46.34672" lon="4.69836">
        <ele>340.8</ele>
        <time>2022-06-25T12:15:31Z</time>
      </trkpt>
      <trkpt lat="46.3467" lon="4.69836">
        <ele>340.8</ele>
        <time>2022-06-25T12:15:32Z</time>
      </trkpt>
      <trkpt lat="46.34667" lon="4.69835">
        <ele>341.2</ele>
        <time>2022-06-25T12:15:33Z</time>
      </trkpt>
      <trkpt lat="46.34664" lon="4.69835">
        <ele>341.2</ele>
        <time>2022-06-25T12:15:34Z</time>
      </trkpt>
      <trkpt lat="46.34661" lon="4.69835">
        <ele>341.6</ele>
        <time>2022-06-25T12:15:35Z</time>
      </trkpt>
      <trkpt lat="46.34658" lon="4.69835">
        <ele>341.6</ele>
        <time>2022-06-25T12:15:36Z</time>
      </trkpt>
      <trkpt lat="46.34656" lon="4.69835">
        <ele>342</ele>
        <time>2022-06-25T12:15:37Z</time>
      </trkpt>
      <trkpt lat="46.34653" lon="4.69835">
        <ele>342</ele>
        <time>2022-06-25T12:15:38Z</time>
      </trkpt>
      <trkpt lat="46.3465" lon="4.69835">
        <ele>342.2</ele>
        <time>2022-06-25T12:15:39Z</time>
      </trkpt>
      <trkpt lat="46.34647" lon="4.69835">
        <ele>342.4</ele>
        <time>2022-06-25T12:15:40Z</time>
      </trkpt>
      <trkpt lat="46.34645" lon="4.69834">
        <ele>342.4</ele>
        <time>2022-06-25T12:15:41Z</time>
      </trkpt>
      <trkpt lat="46.34642" lon="4.69834">
        <ele>342.8</ele>
        <time>2022-06-25T12:15:42Z</time>
      </trkpt>
      <trkpt lat="46.34639" lon="4.69833">
        <ele>343</ele>
        <time>2022-06-25T12:15:43Z</time>
      </trkpt>
      <trkpt lat="46.34637" lon="4.69833">
        <ele>343</ele>
        <time>2022-06-25T12:15:44Z</time>
      </trkpt>
      <trkpt lat="46.34634" lon="4.69833">
        <ele>343.4</ele>
        <time>2022-06-25T12:15:45Z</time>
      </trkpt>
      <trkpt lat="46.34631" lon="4.69833">
        <ele>343.4</ele>
        <time>2022-06-25T12:15:46Z</time>
      </trkpt>
      <trkpt lat="46.34628" lon="4.69832">
        <ele>343.8</ele>
        <time>2022-06-25T12:15:47Z</time>
      </trkpt>
      <trkpt lat="46.34625" lon="4.69832">
        <ele>343.8</ele>
        <time>2022-06-25T12:15:48Z</time>
      </trkpt>
      <trkpt lat="46.34623" lon="4.69832">
        <ele>344</ele>
        <time>2022-06-25T12:15:49Z</time>
      </trkpt>
      <trkpt lat="46.3462" lon="4.69832">
        <ele>344</ele>
        <time>2022-06-25T12:15:50Z</time>
      </trkpt>
      <trkpt lat="46.34618" lon="4.69832">
        <ele>344.4</ele>
        <time>2022-06-25T12:15:51Z</time>
      </trkpt>
      <trkpt lat="46.34615" lon="4.69832">
        <ele>344.4</ele>
        <time>2022-06-25T12:15:52Z</time>
      </trkpt>
      <trkpt lat="46.34612" lon="4.69831">
        <ele>344.8</ele>
        <time>2022-06-25T12:15:53Z</time>
      </trkpt>
      <trkpt lat="46.34609" lon="4.69831">
        <ele>345</ele>
        <time>2022-06-25T12:15:54Z</time>
      </trkpt>
      <trkpt lat="46.34606" lon="4.69831">
        <ele>345</ele>
        <time>2022-06-25T12:15:55Z</time>
      </trkpt>
      <trkpt lat="46.34604" lon="4.69831">
        <ele>345.2</ele>
        <time>2022-06-25T12:15:56Z</time>
      </trkpt>
      <trkpt lat="46.34601" lon="4.69831">
        <ele>345.2</ele>
        <time>2022-06-25T12:15:57Z</time>
      </trkpt>
      <trkpt lat="46.34598" lon="4.69831">
        <ele>345.6</ele>
        <time>2022-06-25T12:15:58Z</time>
      </trkpt>
      <trkpt lat="46.34596" lon="4.69831">
        <ele>345.6</ele>
        <time>2022-06-25T12:15:59Z</time>
      </trkpt>
      <trkpt lat="46.34593" lon="4.69831">
        <ele>346</ele>
        <time>2022-06-25T12:16:00Z</time>
      </trkpt>
      <trkpt lat="46.3459" lon="4.69831">
        <ele>346</ele>
        <time>2022-06-25T12:16:01Z</time>
      </trkpt>
      <trkpt lat="46.34587" lon="4.6983">
        <ele>346.4</ele>
        <time>2022-06-25T12:16:02Z</time>
      </trkpt>
      <trkpt lat="46.34585" lon="4.6983">
        <ele>346.6</ele>
        <time>2022-06-25T12:16:03Z</time>
      </trkpt>
      <trkpt lat="46.3458" lon="4.69829">
        <ele>346.6</ele>
        <time>2022-06-25T12:16:04Z</time>
      </trkpt>
      <trkpt lat="46.34577" lon="4.69829">
        <ele>347</ele>
        <time>2022-06-25T12:16:05Z</time>
      </trkpt>
      <trkpt lat="46.34574" lon="4.69828">
        <ele>347</ele>
        <time>2022-06-25T12:16:06Z</time>
      </trkpt>
      <trkpt lat="46.34572" lon="4.69828">
        <ele>347.2</ele>
        <time>2022-06-25T12:16:07Z</time>
      </trkpt>
      <trkpt lat="46.34569" lon="4.69827">
        <ele>347.2</ele>
        <time>2022-06-25T12:16:08Z</time>
      </trkpt>
      <trkpt lat="46.34567" lon="4.69826">
        <ele>347.4</ele>
        <time>2022-06-25T12:16:09Z</time>
      </trkpt>
      <trkpt lat="46.34564" lon="4.69825">
        <ele>347.4</ele>
        <time>2022-06-25T12:16:10Z</time>
      </trkpt>
      <trkpt lat="46.34562" lon="4.69824">
        <ele>347.6</ele>
        <time>2022-06-25T12:16:11Z</time>
      </trkpt>
      <trkpt lat="46.34559" lon="4.69823">
        <ele>347.6</ele>
        <time>2022-06-25T12:16:12Z</time>
      </trkpt>
      <trkpt lat="46.34557" lon="4.69822">
        <ele>348</ele>
        <time>2022-06-25T12:16:13Z</time>
      </trkpt>
      <trkpt lat="46.34554" lon="4.6982">
        <ele>348.2</ele>
        <time>2022-06-25T12:16:14Z</time>
      </trkpt>
      <trkpt lat="46.34552" lon="4.69818">
        <ele>348.4</ele>
        <time>2022-06-25T12:16:15Z</time>
      </trkpt>
      <trkpt lat="46.3455" lon="4.69816">
        <ele>348.8</ele>
        <time>2022-06-25T12:16:16Z</time>
      </trkpt>
      <trkpt lat="46.34548" lon="4.69814">
        <ele>349</ele>
        <time>2022-06-25T12:16:17Z</time>
      </trkpt>
      <trkpt lat="46.34546" lon="4.69812">
        <ele>349.2</ele>
        <time>2022-06-25T12:16:18Z</time>
      </trkpt>
      <trkpt lat="46.34544" lon="4.69811">
        <ele>349.4</ele>
        <time>2022-06-25T12:16:19Z</time>
      </trkpt>
      <trkpt lat="46.34541" lon="4.69809">
        <ele>349.6</ele>
        <time>2022-06-25T12:16:20Z</time>
      </trkpt>
      <trkpt lat="46.34539" lon="4.69808">
        <ele>349.8</ele>
        <time>2022-06-25T12:16:21Z</time>
      </trkpt>
      <trkpt lat="46.34537" lon="4.69807">
        <ele>349.8</ele>
        <time>2022-06-25T12:16:22Z</time>
      </trkpt>
      <trkpt lat="46.34534" lon="4.69806">
        <ele>350.2</ele>
        <time>2022-06-25T12:16:23Z</time>
      </trkpt>
      <trkpt lat="46.34532" lon="4.69806">
        <ele>350.2</ele>
        <time>2022-06-25T12:16:24Z</time>
      </trkpt>
      <trkpt lat="46.34529" lon="4.69806">
        <ele>350.2</ele>
        <time>2022-06-25T12:16:25Z</time>
      </trkpt>
      <trkpt lat="46.34526" lon="4.69806">
        <ele>350.6</ele>
        <time>2022-06-25T12:16:26Z</time>
      </trkpt>
      <trkpt lat="46.34523" lon="4.69807">
        <ele>350.6</ele>
        <time>2022-06-25T12:16:27Z</time>
      </trkpt>
      <trkpt lat="46.3452" lon="4.69807">
        <ele>351</ele>
        <time>2022-06-25T12:16:28Z</time>
      </trkpt>
      <trkpt lat="46.34517" lon="4.69809">
        <ele>351</ele>
        <time>2022-06-25T12:16:29Z</time>
      </trkpt>
      <trkpt lat="46.34513" lon="4.6981">
        <ele>351.2</ele>
        <time>2022-06-25T12:16:30Z</time>
      </trkpt>
      <trkpt lat="46.3451" lon="4.69811">
        <ele>351.2</ele>
        <time>2022-06-25T12:16:31Z</time>
      </trkpt>
      <trkpt lat="46.34507" lon="4.69813">
        <ele>351.6</ele>
        <time>2022-06-25T12:16:32Z</time>
      </trkpt>
      <trkpt lat="46.34504" lon="4.69814">
        <ele>351.6</ele>
        <time>2022-06-25T12:16:33Z</time>
      </trkpt>
      <trkpt lat="46.345" lon="4.69815">
        <ele>351.8</ele>
        <time>2022-06-25T12:16:34Z</time>
      </trkpt>
      <trkpt lat="46.34497" lon="4.69816">
        <ele>351.8</ele>
        <time>2022-06-25T12:16:35Z</time>
      </trkpt>
      <trkpt lat="46.34494" lon="4.69817">
        <ele>351.8</ele>
        <time>2022-06-25T12:16:36Z</time>
      </trkpt>
      <trkpt lat="46.3449" lon="4.69819">
        <ele>352</ele>
        <time>2022-06-25T12:16:37Z</time>
      </trkpt>
      <trkpt lat="46.34487" lon="4.6982">
        <ele>352</ele>
        <time>2022-06-25T12:16:38Z</time>
      </trkpt>
      <trkpt lat="46.34483" lon="4.69821">
        <ele>352</ele>
        <time>2022-06-25T12:16:39Z</time>
      </trkpt>
      <trkpt lat="46.3448" lon="4.69822">
        <ele>352.2</ele>
        <time>2022-06-25T12:16:40Z</time>
      </trkpt>
      <trkpt lat="46.34476" lon="4.69822">
        <ele>352.2</ele>
        <time>2022-06-25T12:16:41Z</time>
      </trkpt>
      <trkpt lat="46.34472" lon="4.69823">
        <ele>352.2</ele>
        <time>2022-06-25T12:16:42Z</time>
      </trkpt>
      <trkpt lat="46.34468" lon="4.69823">
        <ele>352.2</ele>
        <time>2022-06-25T12:16:43Z</time>
      </trkpt>
      <trkpt lat="46.34464" lon="4.69824">
        <ele>352.2</ele>
        <time>2022-06-25T12:16:44Z</time>
      </trkpt>
      <trkpt lat="46.3446" lon="4.69824">
        <ele>352.2</ele>
        <time>2022-06-25T12:16:45Z</time>
      </trkpt>
      <trkpt lat="46.34455" lon="4.69823">
        <ele>352.2</ele>
        <time>2022-06-25T12:16:46Z</time>
      </trkpt>
      <trkpt lat="46.34451" lon="4.69823">
        <ele>352.2</ele>
        <time>2022-06-25T12:16:47Z</time>
      </trkpt>
      <trkpt lat="46.34446" lon="4.69823">
        <ele>352.2</ele>
        <time>2022-06-25T12:16:48Z</time>
      </trkpt>
      <trkpt lat="46.34441" lon="4.69823">
        <ele>352.2</ele>
        <time>2022-06-25T12:16:49Z</time>
      </trkpt>
      <trkpt lat="46.34436" lon="4.69822">
        <ele>352.2</ele>
        <time>2022-06-25T12:16:50Z</time>
      </trkpt>
      <trkpt lat="46.34431" lon="4.69821">
        <ele>352</ele>
        <time>2022-06-25T12:16:51Z</time>
      </trkpt>
      <trkpt lat="46.34426" lon="4.6982">
        <ele>352</ele>
        <time>2022-06-25T12:16:52Z</time>
      </trkpt>
      <trkpt lat="46.34421" lon="4.69818">
        <ele>351.6</ele>
        <time>2022-06-25T12:16:53Z</time>
      </trkpt>
      <trkpt lat="46.34416" lon="4.69815">
        <ele>351.6</ele>
        <time>2022-06-25T12:16:54Z</time>
      </trkpt>
      <trkpt lat="46.34411" lon="4.69812">
        <ele>351.4</ele>
        <time>2022-06-25T12:16:55Z</time>
      </trkpt>
      <trkpt lat="46.34405" lon="4.69808">
        <ele>351.4</ele>
        <time>2022-06-25T12:16:56Z</time>
      </trkpt>
      <trkpt lat="46.344" lon="4.69804">
        <ele>351.4</ele>
        <time>2022-06-25T12:16:57Z</time>
      </trkpt>
      <trkpt lat="46.34395" lon="4.698">
        <ele>351.4</ele>
        <time>2022-06-25T12:16:58Z</time>
      </trkpt>
      <trkpt lat="46.3439" lon="4.69796">
        <ele>351.4</ele>
        <time>2022-06-25T12:16:59Z</time>
      </trkpt>
      <trkpt lat="46.34385" lon="4.69791">
        <ele>351.2</ele>
        <time>2022-06-25T12:17:00Z</time>
      </trkpt>
      <trkpt lat="46.3438" lon="4.69787">
        <ele>351.2</ele>
        <time>2022-06-25T12:17:01Z</time>
      </trkpt>
      <trkpt lat="46.34375" lon="4.69783">
        <ele>351.2</ele>
        <time>2022-06-25T12:17:02Z</time>
      </trkpt>
      <trkpt lat="46.34369" lon="4.6978">
        <ele>351.2</ele>
        <time>2022-06-25T12:17:03Z</time>
      </trkpt>
      <trkpt lat="46.34364" lon="4.69777">
        <ele>351.4</ele>
        <time>2022-06-25T12:17:04Z</time>
      </trkpt>
      <trkpt lat="46.34359" lon="4.69775">
        <ele>351.4</ele>
        <time>2022-06-25T12:17:05Z</time>
      </trkpt>
      <trkpt lat="46.34353" lon="4.69773">
        <ele>351.4</ele>
        <time>2022-06-25T12:17:06Z</time>
      </trkpt>
      <trkpt lat="46.34348" lon="4.69772">
        <ele>351.4</ele>
        <time>2022-06-25T12:17:07Z</time>
      </trkpt>
      <trkpt lat="46.34342" lon="4.69772">
        <ele>351.4</ele>
        <time>2022-06-25T12:17:08Z</time>
      </trkpt>
      <trkpt lat="46.34336" lon="4.69771">
        <ele>351.4</ele>
        <time>2022-06-25T12:17:09Z</time>
      </trkpt>
      <trkpt lat="46.3433" lon="4.69771">
        <ele>351.4</ele>
        <time>2022-06-25T12:17:10Z</time>
      </trkpt>
      <trkpt lat="46.34323" lon="4.6977">
        <ele>351.4</ele>
        <time>2022-06-25T12:17:11Z</time>
      </trkpt>
      <trkpt lat="46.34317" lon="4.6977">
        <ele>351.2</ele>
        <time>2022-06-25T12:17:12Z</time>
      </trkpt>
      <trkpt lat="46.3431" lon="4.69769">
        <ele>351</ele>
        <time>2022-06-25T12:17:13Z</time>
      </trkpt>
      <trkpt lat="46.34303" lon="4.69769">
        <ele>350.8</ele>
        <time>2022-06-25T12:17:14Z</time>
      </trkpt>
      <trkpt lat="46.34296" lon="4.69768">
        <ele>350.4</ele>
        <time>2022-06-25T12:17:15Z</time>
      </trkpt>
      <trkpt lat="46.34289" lon="4.69767">
        <ele>350.2</ele>
        <time>2022-06-25T12:17:16Z</time>
      </trkpt>
      <trkpt lat="46.34282" lon="4.69766">
        <ele>350</ele>
        <time>2022-06-25T12:17:17Z</time>
      </trkpt>
      <trkpt lat="46.34275" lon="4.69764">
        <ele>349.8</ele>
        <time>2022-06-25T12:17:18Z</time>
      </trkpt>
      <trkpt lat="46.34268" lon="4.69761">
        <ele>349.4</ele>
        <time>2022-06-25T12:17:19Z</time>
      </trkpt>
      <trkpt lat="46.34261" lon="4.69758">
        <ele>349.2</ele>
        <time>2022-06-25T12:17:20Z</time>
      </trkpt>
      <trkpt lat="46.34254" lon="4.69755">
        <ele>349</ele>
        <time>2022-06-25T12:17:21Z</time>
      </trkpt>
      <trkpt lat="46.34247" lon="4.69753">
        <ele>348.6</ele>
        <time>2022-06-25T12:17:22Z</time>
      </trkpt>
      <trkpt lat="46.3424" lon="4.69751">
        <ele>348.2</ele>
        <time>2022-06-25T12:17:23Z</time>
      </trkpt>
      <trkpt lat="46.34232" lon="4.6975">
        <ele>348.2</ele>
        <time>2022-06-25T12:17:24Z</time>
      </trkpt>
      <trkpt lat="46.34225" lon="4.6975">
        <ele>348</ele>
        <time>2022-06-25T12:17:25Z</time>
      </trkpt>
      <trkpt lat="46.34217" lon="4.6975">
        <ele>348</ele>
        <time>2022-06-25T12:17:26Z</time>
      </trkpt>
      <trkpt lat="46.3421" lon="4.6975">
        <ele>347.6</ele>
        <time>2022-06-25T12:17:27Z</time>
      </trkpt>
      <trkpt lat="46.34202" lon="4.69752">
        <ele>347.4</ele>
        <time>2022-06-25T12:17:28Z</time>
      </trkpt>
      <trkpt lat="46.34194" lon="4.69753">
        <ele>347.4</ele>
        <time>2022-06-25T12:17:29Z</time>
      </trkpt>
      <trkpt lat="46.34186" lon="4.69755">
        <ele>347</ele>
        <time>2022-06-25T12:17:30Z</time>
      </trkpt>
      <trkpt lat="46.34178" lon="4.69756">
        <ele>347</ele>
        <time>2022-06-25T12:17:31Z</time>
      </trkpt>
      <trkpt lat="46.34171" lon="4.69757">
        <ele>346.6</ele>
        <time>2022-06-25T12:17:32Z</time>
      </trkpt>
      <trkpt lat="46.34163" lon="4.69758">
        <ele>346.6</ele>
        <time>2022-06-25T12:17:33Z</time>
      </trkpt>
      <trkpt lat="46.34156" lon="4.69758">
        <ele>346.4</ele>
        <time>2022-06-25T12:17:34Z</time>
      </trkpt>
      <trkpt lat="46.3415" lon="4.69757">
        <ele>346.4</ele>
        <time>2022-06-25T12:17:35Z</time>
      </trkpt>
      <trkpt lat="46.34144" lon="4.69755">
        <ele>346.4</ele>
        <time>2022-06-25T12:17:36Z</time>
      </trkpt>
      <trkpt lat="46.34138" lon="4.69751">
        <ele>346.4</ele>
        <time>2022-06-25T12:17:37Z</time>
      </trkpt>
      <trkpt lat="46.34133" lon="4.69748">
        <ele>346.4</ele>
        <time>2022-06-25T12:17:38Z</time>
      </trkpt>
      <trkpt lat="46.34128" lon="4.69743">
        <ele>346.6</ele>
        <time>2022-06-25T12:17:39Z</time>
      </trkpt>
      <trkpt lat="46.34124" lon="4.69739">
        <ele>346.6</ele>
        <time>2022-06-25T12:17:40Z</time>
      </trkpt>
      <trkpt lat="46.34121" lon="4.69735">
        <ele>346.8</ele>
        <time>2022-06-25T12:17:41Z</time>
      </trkpt>
      <trkpt lat="46.34117" lon="4.69731">
        <ele>346.8</ele>
        <time>2022-06-25T12:17:42Z</time>
      </trkpt>
      <trkpt lat="46.34114" lon="4.69727">
        <ele>347.2</ele>
        <time>2022-06-25T12:17:43Z</time>
      </trkpt>
      <trkpt lat="46.34111" lon="4.69723">
        <ele>347.2</ele>
        <time>2022-06-25T12:17:44Z</time>
      </trkpt>
      <trkpt lat="46.34108" lon="4.69719">
        <ele>347.4</ele>
        <time>2022-06-25T12:17:45Z</time>
      </trkpt>
      <trkpt lat="46.34105" lon="4.69716">
        <ele>347.4</ele>
        <time>2022-06-25T12:17:46Z</time>
      </trkpt>
      <trkpt lat="46.34102" lon="4.69712">
        <ele>347.6</ele>
        <time>2022-06-25T12:17:47Z</time>
      </trkpt>
      <trkpt lat="46.34098" lon="4.69709">
        <ele>347.6</ele>
        <time>2022-06-25T12:17:48Z</time>
      </trkpt>
      <trkpt lat="46.34095" lon="4.69705">
        <ele>347.6</ele>
        <time>2022-06-25T12:17:49Z</time>
      </trkpt>
      <trkpt lat="46.34092" lon="4.69702">
        <ele>348</ele>
        <time>2022-06-25T12:17:50Z</time>
      </trkpt>
      <trkpt lat="46.34089" lon="4.69699">
        <ele>348</ele>
        <time>2022-06-25T12:17:51Z</time>
      </trkpt>
      <trkpt lat="46.34086" lon="4.69695">
        <ele>348</ele>
        <time>2022-06-25T12:17:52Z</time>
      </trkpt>
      <trkpt lat="46.34083" lon="4.6969">
        <ele>348</ele>
        <time>2022-06-25T12:17:53Z</time>
      </trkpt>
      <trkpt lat="46.34079" lon="4.69685">
        <ele>348</ele>
        <time>2022-06-25T12:17:54Z</time>
      </trkpt>
      <trkpt lat="46.34076" lon="4.6968">
        <ele>348</ele>
        <time>2022-06-25T12:17:55Z</time>
      </trkpt>
      <trkpt lat="46.34073" lon="4.69673">
        <ele>348</ele>
        <time>2022-06-25T12:17:56Z</time>
      </trkpt>
      <trkpt lat="46.34071" lon="4.69666">
        <ele>348</ele>
        <time>2022-06-25T12:17:57Z</time>
      </trkpt>
      <trkpt lat="46.3407" lon="4.69659">
        <ele>348</ele>
        <time>2022-06-25T12:17:58Z</time>
      </trkpt>
      <trkpt lat="46.3407" lon="4.69651">
        <ele>348</ele>
        <time>2022-06-25T12:17:59Z</time>
      </trkpt>
      <trkpt lat="46.3407" lon="4.69644">
        <ele>348</ele>
        <time>2022-06-25T12:18:00Z</time>
      </trkpt>
      <trkpt lat="46.34071" lon="4.69635">
        <ele>348</ele>
        <time>2022-06-25T12:18:01Z</time>
      </trkpt>
      <trkpt lat="46.34071" lon="4.69627">
        <ele>347.8</ele>
        <time>2022-06-25T12:18:02Z</time>
      </trkpt>
      <trkpt lat="46.34072" lon="4.69618">
        <ele>347.8</ele>
        <time>2022-06-25T12:18:03Z</time>
      </trkpt>
      <trkpt lat="46.34072" lon="4.69609">
        <ele>347.8</ele>
        <time>2022-06-25T12:18:04Z</time>
      </trkpt>
      <trkpt lat="46.34072" lon="4.696">
        <ele>347.4</ele>
        <time>2022-06-25T12:18:05Z</time>
      </trkpt>
      <trkpt lat="46.34073" lon="4.69591">
        <ele>347.4</ele>
        <time>2022-06-25T12:18:06Z</time>
      </trkpt>
      <trkpt lat="46.34073" lon="4.69582">
        <ele>347.4</ele>
        <time>2022-06-25T12:18:07Z</time>
      </trkpt>
      <trkpt lat="46.34073" lon="4.69573">
        <ele>347.4</ele>
        <time>2022-06-25T12:18:08Z</time>
      </trkpt>
      <trkpt lat="46.34072" lon="4.69564">
        <ele>347.4</ele>
        <time>2022-06-25T12:18:09Z</time>
      </trkpt>
      <trkpt lat="46.34071" lon="4.69555">
        <ele>347.2</ele>
        <time>2022-06-25T12:18:10Z</time>
      </trkpt>
      <trkpt lat="46.34069" lon="4.69546">
        <ele>347.2</ele>
        <time>2022-06-25T12:18:11Z</time>
      </trkpt>
      <trkpt lat="46.34065" lon="4.69539">
        <ele>347.2</ele>
        <time>2022-06-25T12:18:12Z</time>
      </trkpt>
      <trkpt lat="46.34061" lon="4.69532">
        <ele>347.2</ele>
        <time>2022-06-25T12:18:13Z</time>
      </trkpt>
      <trkpt lat="46.34057" lon="4.69526">
        <ele>347.2</ele>
        <time>2022-06-25T12:18:14Z</time>
      </trkpt>
      <trkpt lat="46.34051" lon="4.69522">
        <ele>346.8</ele>
        <time>2022-06-25T12:18:15Z</time>
      </trkpt>
      <trkpt lat="46.34046" lon="4.69518">
        <ele>346.8</ele>
        <time>2022-06-25T12:18:16Z</time>
      </trkpt>
      <trkpt lat="46.3404" lon="4.69515">
        <ele>346.6</ele>
        <time>2022-06-25T12:18:17Z</time>
      </trkpt>
      <trkpt lat="46.34033" lon="4.69512">
        <ele>346.4</ele>
        <time>2022-06-25T12:18:18Z</time>
      </trkpt>
      <trkpt lat="46.34027" lon="4.6951">
        <ele>346</ele>
        <time>2022-06-25T12:18:19Z</time>
      </trkpt>
      <trkpt lat="46.3402" lon="4.69507">
        <ele>346</ele>
        <time>2022-06-25T12:18:20Z</time>
      </trkpt>
      <trkpt lat="46.34014" lon="4.69504">
        <ele>345.6</ele>
        <time>2022-06-25T12:18:21Z</time>
      </trkpt>
      <trkpt lat="46.34007" lon="4.69501">
        <ele>345.4</ele>
        <time>2022-06-25T12:18:22Z</time>
      </trkpt>
      <trkpt lat="46.34001" lon="4.69498">
        <ele>345.2</ele>
        <time>2022-06-25T12:18:23Z</time>
      </trkpt>
      <trkpt lat="46.33994" lon="4.69495">
        <ele>345.2</ele>
        <time>2022-06-25T12:18:24Z</time>
      </trkpt>
      <trkpt lat="46.33987" lon="4.6949">
        <ele>344.8</ele>
        <time>2022-06-25T12:18:25Z</time>
      </trkpt>
      <trkpt lat="46.33981" lon="4.69486">
        <ele>344.8</ele>
        <time>2022-06-25T12:18:26Z</time>
      </trkpt>
      <trkpt lat="46.33975" lon="4.69481">
        <ele>344.4</ele>
        <time>2022-06-25T12:18:27Z</time>
      </trkpt>
      <trkpt lat="46.33968" lon="4.69476">
        <ele>344.4</ele>
        <time>2022-06-25T12:18:28Z</time>
      </trkpt>
      <trkpt lat="46.33962" lon="4.6947">
        <ele>344.2</ele>
        <time>2022-06-25T12:18:29Z</time>
      </trkpt>
      <trkpt lat="46.33956" lon="4.69465">
        <ele>344.2</ele>
        <time>2022-06-25T12:18:30Z</time>
      </trkpt>
      <trkpt lat="46.33949" lon="4.69459">
        <ele>343.8</ele>
        <time>2022-06-25T12:18:31Z</time>
      </trkpt>
      <trkpt lat="46.33943" lon="4.69453">
        <ele>343.8</ele>
        <time>2022-06-25T12:18:32Z</time>
      </trkpt>
      <trkpt lat="46.33937" lon="4.69448">
        <ele>343.4</ele>
        <time>2022-06-25T12:18:33Z</time>
      </trkpt>
      <trkpt lat="46.3393" lon="4.69442">
        <ele>343.2</ele>
        <time>2022-06-25T12:18:34Z</time>
      </trkpt>
      <trkpt lat="46.33923" lon="4.69436">
        <ele>343</ele>
        <time>2022-06-25T12:18:35Z</time>
      </trkpt>
      <trkpt lat="46.33916" lon="4.6943">
        <ele>342.6</ele>
        <time>2022-06-25T12:18:36Z</time>
      </trkpt>
      <trkpt lat="46.33909" lon="4.69423">
        <ele>342.6</ele>
        <time>2022-06-25T12:18:37Z</time>
      </trkpt>
      <trkpt lat="46.33902" lon="4.69417">
        <ele>342.2</ele>
        <time>2022-06-25T12:18:38Z</time>
      </trkpt>
      <trkpt lat="46.33895" lon="4.69411">
        <ele>342</ele>
        <time>2022-06-25T12:18:39Z</time>
      </trkpt>
      <trkpt lat="46.33887" lon="4.69404">
        <ele>341.6</ele>
        <time>2022-06-25T12:18:40Z</time>
      </trkpt>
      <trkpt lat="46.33879" lon="4.69398">
        <ele>341.4</ele>
        <time>2022-06-25T12:18:41Z</time>
      </trkpt>
      <trkpt lat="46.33872" lon="4.69392">
        <ele>341.4</ele>
        <time>2022-06-25T12:18:42Z</time>
      </trkpt>
      <trkpt lat="46.33864" lon="4.69385">
        <ele>341</ele>
        <time>2022-06-25T12:18:43Z</time>
      </trkpt>
      <trkpt lat="46.33857" lon="4.69378">
        <ele>340.8</ele>
        <time>2022-06-25T12:18:44Z</time>
      </trkpt>
      <trkpt lat="46.3385" lon="4.69369">
        <ele>340.4</ele>
        <time>2022-06-25T12:18:45Z</time>
      </trkpt>
      <trkpt lat="46.33844" lon="4.69359">
        <ele>340.2</ele>
        <time>2022-06-25T12:18:46Z</time>
      </trkpt>
      <trkpt lat="46.33838" lon="4.69346">
        <ele>339.6</ele>
        <time>2022-06-25T12:18:47Z</time>
      </trkpt>
      <trkpt lat="46.33833" lon="4.69335">
        <ele>339.2</ele>
        <time>2022-06-25T12:18:48Z</time>
      </trkpt>
      <trkpt lat="46.33828" lon="4.69323">
        <ele>338.8</ele>
        <time>2022-06-25T12:18:49Z</time>
      </trkpt>
      <trkpt lat="46.33823" lon="4.6931">
        <ele>338.6</ele>
        <time>2022-06-25T12:18:50Z</time>
      </trkpt>
      <trkpt lat="46.33819" lon="4.69298">
        <ele>338.2</ele>
        <time>2022-06-25T12:18:51Z</time>
      </trkpt>
      <trkpt lat="46.33814" lon="4.69287">
        <ele>338</ele>
        <time>2022-06-25T12:18:52Z</time>
      </trkpt>
      <trkpt lat="46.33808" lon="4.69277">
        <ele>337.4</ele>
        <time>2022-06-25T12:18:53Z</time>
      </trkpt>
      <trkpt lat="46.33802" lon="4.69267">
        <ele>337</ele>
        <time>2022-06-25T12:18:54Z</time>
      </trkpt>
      <trkpt lat="46.33795" lon="4.69258">
        <ele>336.8</ele>
        <time>2022-06-25T12:18:55Z</time>
      </trkpt>
      <trkpt lat="46.33788" lon="4.6925">
        <ele>336.2</ele>
        <time>2022-06-25T12:18:56Z</time>
      </trkpt>
      <trkpt lat="46.3378" lon="4.69243">
        <ele>335.6</ele>
        <time>2022-06-25T12:18:57Z</time>
      </trkpt>
      <trkpt lat="46.33774" lon="4.69236">
        <ele>334.8</ele>
        <time>2022-06-25T12:18:58Z</time>
      </trkpt>
      <trkpt lat="46.33768" lon="4.69227">
        <ele>334.2</ele>
        <time>2022-06-25T12:18:59Z</time>
      </trkpt>
      <trkpt lat="46.33763" lon="4.69217">
        <ele>333.6</ele>
        <time>2022-06-25T12:19:00Z</time>
      </trkpt>
      <trkpt lat="46.33759" lon="4.69206">
        <ele>333.2</ele>
        <time>2022-06-25T12:19:01Z</time>
      </trkpt>
      <trkpt lat="46.33757" lon="4.69194">
        <ele>332.2</ele>
        <time>2022-06-25T12:19:03Z</time>
      </trkpt>
      <trkpt lat="46.33754" lon="4.69181">
        <ele>331.8</ele>
        <time>2022-06-25T12:19:04Z</time>
      </trkpt>
      <trkpt lat="46.33752" lon="4.69169">
        <ele>331.6</ele>
        <time>2022-06-25T12:19:05Z</time>
      </trkpt>
      <trkpt lat="46.3375" lon="4.69156">
        <ele>331.2</ele>
        <time>2022-06-25T12:19:06Z</time>
      </trkpt>
      <trkpt lat="46.33748" lon="4.69144">
        <ele>330.6</ele>
        <time>2022-06-25T12:19:07Z</time>
      </trkpt>
      <trkpt lat="46.33745" lon="4.69131">
        <ele>330.2</ele>
        <time>2022-06-25T12:19:08Z</time>
      </trkpt>
      <trkpt lat="46.33744" lon="4.69119">
        <ele>329.8</ele>
        <time>2022-06-25T12:19:09Z</time>
      </trkpt>
      <trkpt lat="46.33743" lon="4.69106">
        <ele>329.4</ele>
        <time>2022-06-25T12:19:10Z</time>
      </trkpt>
      <trkpt lat="46.33742" lon="4.69093">
        <ele>328.8</ele>
        <time>2022-06-25T12:19:11Z</time>
      </trkpt>
      <trkpt lat="46.33741" lon="4.69079">
        <ele>328.2</ele>
        <time>2022-06-25T12:19:12Z</time>
      </trkpt>
      <trkpt lat="46.33739" lon="4.69066">
        <ele>327.8</ele>
        <time>2022-06-25T12:19:13Z</time>
      </trkpt>
      <trkpt lat="46.33738" lon="4.69052">
        <ele>327.4</ele>
        <time>2022-06-25T12:19:14Z</time>
      </trkpt>
      <trkpt lat="46.33735" lon="4.69039">
        <ele>327</ele>
        <time>2022-06-25T12:19:15Z</time>
      </trkpt>
      <trkpt lat="46.33734" lon="4.69026">
        <ele>326.6</ele>
        <time>2022-06-25T12:19:16Z</time>
      </trkpt>
      <trkpt lat="46.33732" lon="4.69014">
        <ele>326.2</ele>
        <time>2022-06-25T12:19:17Z</time>
      </trkpt>
      <trkpt lat="46.33727" lon="4.69003">
        <ele>325.6</ele>
        <time>2022-06-25T12:19:18Z</time>
      </trkpt>
      <trkpt lat="46.33722" lon="4.6899">
        <ele>325.2</ele>
        <time>2022-06-25T12:19:19Z</time>
      </trkpt>
      <trkpt lat="46.33716" lon="4.68979">
        <ele>324.8</ele>
        <time>2022-06-25T12:19:20Z</time>
      </trkpt>
      <trkpt lat="46.33709" lon="4.6897">
        <ele>324.6</ele>
        <time>2022-06-25T12:19:21Z</time>
      </trkpt>
      <trkpt lat="46.337" lon="4.68962">
        <ele>324.2</ele>
        <time>2022-06-25T12:19:22Z</time>
      </trkpt>
      <trkpt lat="46.33692" lon="4.68957">
        <ele>323.6</ele>
        <time>2022-06-25T12:19:23Z</time>
      </trkpt>
      <trkpt lat="46.33682" lon="4.68955">
        <ele>323</ele>
        <time>2022-06-25T12:19:24Z</time>
      </trkpt>
      <trkpt lat="46.33673" lon="4.68956">
        <ele>322.4</ele>
        <time>2022-06-25T12:19:25Z</time>
      </trkpt>
      <trkpt lat="46.33663" lon="4.68957">
        <ele>321.8</ele>
        <time>2022-06-25T12:19:26Z</time>
      </trkpt>
      <trkpt lat="46.33653" lon="4.68958">
        <ele>321.4</ele>
        <time>2022-06-25T12:19:27Z</time>
      </trkpt>
      <trkpt lat="46.33643" lon="4.68958">
        <ele>321</ele>
        <time>2022-06-25T12:19:28Z</time>
      </trkpt>
      <trkpt lat="46.33633" lon="4.68959">
        <ele>320.6</ele>
        <time>2022-06-25T12:19:29Z</time>
      </trkpt>
      <trkpt lat="46.33623" lon="4.6896">
        <ele>320.2</ele>
        <time>2022-06-25T12:19:30Z</time>
      </trkpt>
      <trkpt lat="46.33614" lon="4.68964">
        <ele>319.6</ele>
        <time>2022-06-25T12:19:31Z</time>
      </trkpt>
      <trkpt lat="46.33604" lon="4.68967">
        <ele>319</ele>
        <time>2022-06-25T12:19:32Z</time>
      </trkpt>
      <trkpt lat="46.33595" lon="4.6897">
        <ele>318.4</ele>
        <time>2022-06-25T12:19:33Z</time>
      </trkpt>
      <trkpt lat="46.33586" lon="4.68973">
        <ele>317.8</ele>
        <time>2022-06-25T12:19:34Z</time>
      </trkpt>
      <trkpt lat="46.33578" lon="4.68977">
        <ele>317</ele>
        <time>2022-06-25T12:19:35Z</time>
      </trkpt>
      <trkpt lat="46.33571" lon="4.6898">
        <ele>316.4</ele>
        <time>2022-06-25T12:19:36Z</time>
      </trkpt>
      <trkpt lat="46.33564" lon="4.68983">
        <ele>316</ele>
        <time>2022-06-25T12:19:37Z</time>
      </trkpt>
      <trkpt lat="46.33558" lon="4.68986">
        <ele>315.4</ele>
        <time>2022-06-25T12:19:38Z</time>
      </trkpt>
      <trkpt lat="46.33552" lon="4.68988">
        <ele>314.8</ele>
        <time>2022-06-25T12:19:39Z</time>
      </trkpt>
      <trkpt lat="46.33546" lon="4.68991">
        <ele>314.4</ele>
        <time>2022-06-25T12:19:40Z</time>
      </trkpt>
      <trkpt lat="46.33541" lon="4.68993">
        <ele>314</ele>
        <time>2022-06-25T12:19:41Z</time>
      </trkpt>
      <trkpt lat="46.33536" lon="4.68994">
        <ele>313.6</ele>
        <time>2022-06-25T12:19:42Z</time>
      </trkpt>
      <trkpt lat="46.33531" lon="4.68996">
        <ele>313.2</ele>
        <time>2022-06-25T12:19:43Z</time>
      </trkpt>
      <trkpt lat="46.33526" lon="4.68996">
        <ele>313</ele>
        <time>2022-06-25T12:19:44Z</time>
      </trkpt>
      <trkpt lat="46.33521" lon="4.68996">
        <ele>312.2</ele>
        <time>2022-06-25T12:19:45Z</time>
      </trkpt>
      <trkpt lat="46.33516" lon="4.68995">
        <ele>312</ele>
        <time>2022-06-25T12:19:46Z</time>
      </trkpt>
      <trkpt lat="46.33511" lon="4.68991">
        <ele>311.6</ele>
        <time>2022-06-25T12:19:47Z</time>
      </trkpt>
      <trkpt lat="46.33507" lon="4.68985">
        <ele>311.4</ele>
        <time>2022-06-25T12:19:48Z</time>
      </trkpt>
      <trkpt lat="46.33504" lon="4.68979">
        <ele>311.4</ele>
        <time>2022-06-25T12:19:49Z</time>
      </trkpt>
      <trkpt lat="46.33503" lon="4.68972">
        <ele>311</ele>
        <time>2022-06-25T12:19:50Z</time>
      </trkpt>
      <trkpt lat="46.33502" lon="4.68965">
        <ele>311</ele>
        <time>2022-06-25T12:19:51Z</time>
      </trkpt>
      <trkpt lat="46.33502" lon="4.68958">
        <ele>311</ele>
        <time>2022-06-25T12:19:52Z</time>
      </trkpt>
      <trkpt lat="46.33502" lon="4.6895">
        <ele>310.6</ele>
        <time>2022-06-25T12:19:53Z</time>
      </trkpt>
      <trkpt lat="46.33502" lon="4.68943">
        <ele>310.2</ele>
        <time>2022-06-25T12:19:54Z</time>
      </trkpt>
      <trkpt lat="46.33502" lon="4.68935">
        <ele>310</ele>
        <time>2022-06-25T12:19:55Z</time>
      </trkpt>
      <trkpt lat="46.33502" lon="4.68926">
        <ele>309.6</ele>
        <time>2022-06-25T12:19:56Z</time>
      </trkpt>
      <trkpt lat="46.33502" lon="4.68918">
        <ele>309.4</ele>
        <time>2022-06-25T12:19:57Z</time>
      </trkpt>
      <trkpt lat="46.33502" lon="4.68909">
        <ele>309</ele>
        <time>2022-06-25T12:19:58Z</time>
      </trkpt>
      <trkpt lat="46.33502" lon="4.68899">
        <ele>308.8</ele>
        <time>2022-06-25T12:19:59Z</time>
      </trkpt>
      <trkpt lat="46.33502" lon="4.6889">
        <ele>308.4</ele>
        <time>2022-06-25T12:20:00Z</time>
      </trkpt>
      <trkpt lat="46.33502" lon="4.6888">
        <ele>308.2</ele>
        <time>2022-06-25T12:20:01Z</time>
      </trkpt>
      <trkpt lat="46.33502" lon="4.6887">
        <ele>308</ele>
        <time>2022-06-25T12:20:02Z</time>
      </trkpt>
      <trkpt lat="46.33502" lon="4.6886">
        <ele>307.6</ele>
        <time>2022-06-25T12:20:03Z</time>
      </trkpt>
      <trkpt lat="46.33502" lon="4.68849">
        <ele>307.4</ele>
        <time>2022-06-25T12:20:04Z</time>
      </trkpt>
      <trkpt lat="46.33502" lon="4.68838">
        <ele>307.2</ele>
        <time>2022-06-25T12:20:05Z</time>
      </trkpt>
      <trkpt lat="46.33502" lon="4.68828">
        <ele>306.8</ele>
        <time>2022-06-25T12:20:06Z</time>
      </trkpt>
      <trkpt lat="46.33502" lon="4.68819">
        <ele>306.4</ele>
        <time>2022-06-25T12:20:07Z</time>
      </trkpt>
      <trkpt lat="46.33502" lon="4.68809">
        <ele>306.2</ele>
        <time>2022-06-25T12:20:08Z</time>
      </trkpt>
      <trkpt lat="46.33502" lon="4.688">
        <ele>305.6</ele>
        <time>2022-06-25T12:20:09Z</time>
      </trkpt>
      <trkpt lat="46.33502" lon="4.6879">
        <ele>305.4</ele>
        <time>2022-06-25T12:20:10Z</time>
      </trkpt>
      <trkpt lat="46.33502" lon="4.68781">
        <ele>305</ele>
        <time>2022-06-25T12:20:11Z</time>
      </trkpt>
      <trkpt lat="46.33502" lon="4.68771">
        <ele>304.6</ele>
        <time>2022-06-25T12:20:12Z</time>
      </trkpt>
      <trkpt lat="46.33502" lon="4.68761">
        <ele>304.2</ele>
        <time>2022-06-25T12:20:13Z</time>
      </trkpt>
      <trkpt lat="46.33502" lon="4.6875">
        <ele>303.8</ele>
        <time>2022-06-25T12:20:14Z</time>
      </trkpt>
      <trkpt lat="46.33502" lon="4.68739">
        <ele>303.4</ele>
        <time>2022-06-25T12:20:15Z</time>
      </trkpt>
      <trkpt lat="46.33502" lon="4.68728">
        <ele>303</ele>
        <time>2022-06-25T12:20:16Z</time>
      </trkpt>
      <trkpt lat="46.33502" lon="4.68717">
        <ele>302.6</ele>
        <time>2022-06-25T12:20:17Z</time>
      </trkpt>
      <trkpt lat="46.33502" lon="4.68706">
        <ele>302</ele>
        <time>2022-06-25T12:20:18Z</time>
      </trkpt>
      <trkpt lat="46.33502" lon="4.68695">
        <ele>301.6</ele>
        <time>2022-06-25T12:20:19Z</time>
      </trkpt>
      <trkpt lat="46.33502" lon="4.68686">
        <ele>301.2</ele>
        <time>2022-06-25T12:20:20Z</time>
      </trkpt>
      <trkpt lat="46.33501" lon="4.68677">
        <ele>300.8</ele>
        <time>2022-06-25T12:20:21Z</time>
      </trkpt>
      <trkpt lat="46.33501" lon="4.68668">
        <ele>300.4</ele>
        <time>2022-06-25T12:20:22Z</time>
      </trkpt>
      <trkpt lat="46.33499" lon="4.68661">
        <ele>300</ele>
        <time>2022-06-25T12:20:23Z</time>
      </trkpt>
      <trkpt lat="46.33497" lon="4.68655">
        <ele>299.4</ele>
        <time>2022-06-25T12:20:24Z</time>
      </trkpt>
      <trkpt lat="46.33494" lon="4.6865">
        <ele>299</ele>
        <time>2022-06-25T12:20:25Z</time>
      </trkpt>
      <trkpt lat="46.33492" lon="4.68646">
        <ele>298.6</ele>
        <time>2022-06-25T12:20:26Z</time>
      </trkpt>
      <trkpt lat="46.3349" lon="4.68644">
        <ele>298.2</ele>
        <time>2022-06-25T12:20:27Z</time>
      </trkpt>
      <trkpt lat="46.33488" lon="4.68642">
        <ele>298</ele>
        <time>2022-06-25T12:20:28Z</time>
      </trkpt>
      <trkpt lat="46.33487" lon="4.68641">
        <ele>297.6</ele>
        <time>2022-06-25T12:20:29Z</time>
      </trkpt>
      <trkpt lat="46.33486" lon="4.68641">
        <ele>297.6</ele>
        <time>2022-06-25T12:20:30Z</time>
      </trkpt>
      <trkpt lat="46.33485" lon="4.68642">
        <ele>297.4</ele>
        <time>2022-06-25T12:20:32Z</time>
      </trkpt>
      <trkpt lat="46.33485" lon="4.68643">
        <ele>297.4</ele>
        <time>2022-06-25T12:20:33Z</time>
      </trkpt>
      <trkpt lat="46.33485" lon="4.68643">
        <ele>297.2</ele>
        <time>2022-06-25T12:20:35Z</time>
      </trkpt>
      <trkpt lat="46.33482" lon="4.68645">
        <ele>296.8</ele>
        <time>2022-06-25T12:20:40Z</time>
      </trkpt>
      <trkpt lat="46.3348" lon="4.68647">
        <ele>296.8</ele>
        <time>2022-06-25T12:20:41Z</time>
      </trkpt>
      <trkpt lat="46.33478" lon="4.68649">
        <ele>296.8</ele>
        <time>2022-06-25T12:20:42Z</time>
      </trkpt>
      <trkpt lat="46.33476" lon="4.68651">
        <ele>296.8</ele>
        <time>2022-06-25T12:20:43Z</time>
      </trkpt>
      <trkpt lat="46.33474" lon="4.68654">
        <ele>296.8</ele>
        <time>2022-06-25T12:20:44Z</time>
      </trkpt>
      <trkpt lat="46.33472" lon="4.68658">
        <ele>296.8</ele>
        <time>2022-06-25T12:20:45Z</time>
      </trkpt>
      <trkpt lat="46.3347" lon="4.68661">
        <ele>296.6</ele>
        <time>2022-06-25T12:20:46Z</time>
      </trkpt>
      <trkpt lat="46.33468" lon="4.68665">
        <ele>296.6</ele>
        <time>2022-06-25T12:20:47Z</time>
      </trkpt>
      <trkpt lat="46.33465" lon="4.68669">
        <ele>296.6</ele>
        <time>2022-06-25T12:20:48Z</time>
      </trkpt>
      <trkpt lat="46.33462" lon="4.68673">
        <ele>296.6</ele>
        <time>2022-06-25T12:20:49Z</time>
      </trkpt>
      <trkpt lat="46.3346" lon="4.68678">
        <ele>296.4</ele>
        <time>2022-06-25T12:20:50Z</time>
      </trkpt>
      <trkpt lat="46.33457" lon="4.68682">
        <ele>296.4</ele>
        <time>2022-06-25T12:20:51Z</time>
      </trkpt>
      <trkpt lat="46.33454" lon="4.68687">
        <ele>296.4</ele>
        <time>2022-06-25T12:20:52Z</time>
      </trkpt>
      <trkpt lat="46.33451" lon="4.68692">
        <ele>296.4</ele>
        <time>2022-06-25T12:20:53Z</time>
      </trkpt>
      <trkpt lat="46.33448" lon="4.68697">
        <ele>296.4</ele>
        <time>2022-06-25T12:20:54Z</time>
      </trkpt>
      <trkpt lat="46.33445" lon="4.68703">
        <ele>296.4</ele>
        <time>2022-06-25T12:20:55Z</time>
      </trkpt>
      <trkpt lat="46.33442" lon="4.68708">
        <ele>296.4</ele>
        <time>2022-06-25T12:20:56Z</time>
      </trkpt>
      <trkpt lat="46.33438" lon="4.68713">
        <ele>296.4</ele>
        <time>2022-06-25T12:20:57Z</time>
      </trkpt>
      <trkpt lat="46.33435" lon="4.68718">
        <ele>296.2</ele>
        <time>2022-06-25T12:20:58Z</time>
      </trkpt>
      <trkpt lat="46.33432" lon="4.68723">
        <ele>296.2</ele>
        <time>2022-06-25T12:20:59Z</time>
      </trkpt>
      <trkpt lat="46.33429" lon="4.68728">
        <ele>295.8</ele>
        <time>2022-06-25T12:21:00Z</time>
      </trkpt>
      <trkpt lat="46.33427" lon="4.68733">
        <ele>295.6</ele>
        <time>2022-06-25T12:21:01Z</time>
      </trkpt>
      <trkpt lat="46.33424" lon="4.68737">
        <ele>295.4</ele>
        <time>2022-06-25T12:21:02Z</time>
      </trkpt>
      <trkpt lat="46.33422" lon="4.6874">
        <ele>295</ele>
        <time>2022-06-25T12:21:03Z</time>
      </trkpt>
      <trkpt lat="46.33418" lon="4.68741">
        <ele>294.8</ele>
        <time>2022-06-25T12:21:04Z</time>
      </trkpt>
      <trkpt lat="46.33414" lon="4.68741">
        <ele>294.4</ele>
        <time>2022-06-25T12:21:05Z</time>
      </trkpt>
      <trkpt lat="46.33409" lon="4.6874">
        <ele>294.4</ele>
        <time>2022-06-25T12:21:06Z</time>
      </trkpt>
      <trkpt lat="46.33404" lon="4.68738">
        <ele>294</ele>
        <time>2022-06-25T12:21:07Z</time>
      </trkpt>
      <trkpt lat="46.33398" lon="4.68736">
        <ele>293.8</ele>
        <time>2022-06-25T12:21:08Z</time>
      </trkpt>
      <trkpt lat="46.33393" lon="4.68733">
        <ele>293.4</ele>
        <time>2022-06-25T12:21:09Z</time>
      </trkpt>
      <trkpt lat="46.33387" lon="4.68731">
        <ele>293</ele>
        <time>2022-06-25T12:21:10Z</time>
      </trkpt>
      <trkpt lat="46.33383" lon="4.6873">
        <ele>292.8</ele>
        <time>2022-06-25T12:21:11Z</time>
      </trkpt>
      <trkpt lat="46.33378" lon="4.68728">
        <ele>292.8</ele>
        <time>2022-06-25T12:21:12Z</time>
      </trkpt>
      <trkpt lat="46.33373" lon="4.68726">
        <ele>292.6</ele>
        <time>2022-06-25T12:21:13Z</time>
      </trkpt>
      <trkpt lat="46.33369" lon="4.68724">
        <ele>292.6</ele>
        <time>2022-06-25T12:21:14Z</time>
      </trkpt>
      <trkpt lat="46.33364" lon="4.68722">
        <ele>292.2</ele>
        <time>2022-06-25T12:21:15Z</time>
      </trkpt>
      <trkpt lat="46.3336" lon="4.6872">
        <ele>292.2</ele>
        <time>2022-06-25T12:21:16Z</time>
      </trkpt>
      <trkpt lat="46.33355" lon="4.68717">
        <ele>292</ele>
        <time>2022-06-25T12:21:17Z</time>
      </trkpt>
      <trkpt lat="46.33352" lon="4.68712">
        <ele>292</ele>
        <time>2022-06-25T12:21:18Z</time>
      </trkpt>
      <trkpt lat="46.33348" lon="4.68708">
        <ele>292</ele>
        <time>2022-06-25T12:21:19Z</time>
      </trkpt>
      <trkpt lat="46.33345" lon="4.68703">
        <ele>292</ele>
        <time>2022-06-25T12:21:20Z</time>
      </trkpt>
      <trkpt lat="46.33343" lon="4.68697">
        <ele>292</ele>
        <time>2022-06-25T12:21:21Z</time>
      </trkpt>
      <trkpt lat="46.33341" lon="4.68692">
        <ele>292</ele>
        <time>2022-06-25T12:21:22Z</time>
      </trkpt>
      <trkpt lat="46.33339" lon="4.68686">
        <ele>292</ele>
        <time>2022-06-25T12:21:23Z</time>
      </trkpt>
      <trkpt lat="46.33337" lon="4.68681">
        <ele>292</ele>
        <time>2022-06-25T12:21:24Z</time>
      </trkpt>
      <trkpt lat="46.33335" lon="4.68675">
        <ele>292.2</ele>
        <time>2022-06-25T12:21:25Z</time>
      </trkpt>
      <trkpt lat="46.33334" lon="4.6867">
        <ele>292.2</ele>
        <time>2022-06-25T12:21:26Z</time>
      </trkpt>
      <trkpt lat="46.33332" lon="4.68665">
        <ele>292.4</ele>
        <time>2022-06-25T12:21:27Z</time>
      </trkpt>
      <trkpt lat="46.3333" lon="4.6866">
        <ele>292.4</ele>
        <time>2022-06-25T12:21:28Z</time>
      </trkpt>
      <trkpt lat="46.33328" lon="4.68655">
        <ele>292.6</ele>
        <time>2022-06-25T12:21:29Z</time>
      </trkpt>
      <trkpt lat="46.33326" lon="4.68651">
        <ele>292.6</ele>
        <time>2022-06-25T12:21:30Z</time>
      </trkpt>
      <trkpt lat="46.33324" lon="4.68646">
        <ele>293</ele>
        <time>2022-06-25T12:21:31Z</time>
      </trkpt>
      <trkpt lat="46.33322" lon="4.68642">
        <ele>293</ele>
        <time>2022-06-25T12:21:32Z</time>
      </trkpt>
      <trkpt lat="46.3332" lon="4.68638">
        <ele>293.2</ele>
        <time>2022-06-25T12:21:33Z</time>
      </trkpt>
      <trkpt lat="46.33318" lon="4.68634">
        <ele>293.2</ele>
        <time>2022-06-25T12:21:34Z</time>
      </trkpt>
      <trkpt lat="46.33316" lon="4.6863">
        <ele>293.2</ele>
        <time>2022-06-25T12:21:35Z</time>
      </trkpt>
      <trkpt lat="46.33315" lon="4.68625">
        <ele>293.4</ele>
        <time>2022-06-25T12:21:36Z</time>
      </trkpt>
      <trkpt lat="46.33313" lon="4.68622">
        <ele>293.4</ele>
        <time>2022-06-25T12:21:37Z</time>
      </trkpt>
      <trkpt lat="46.33311" lon="4.68618">
        <ele>293.4</ele>
        <time>2022-06-25T12:21:38Z</time>
      </trkpt>
      <trkpt lat="46.33309" lon="4.68614">
        <ele>293.4</ele>
        <time>2022-06-25T12:21:39Z</time>
      </trkpt>
      <trkpt lat="46.33307" lon="4.68611">
        <ele>293.8</ele>
        <time>2022-06-25T12:21:40Z</time>
      </trkpt>
      <trkpt lat="46.33305" lon="4.68607">
        <ele>293.8</ele>
        <time>2022-06-25T12:21:41Z</time>
      </trkpt>
      <trkpt lat="46.33304" lon="4.68603">
        <ele>294</ele>
        <time>2022-06-25T12:21:42Z</time>
      </trkpt>
      <trkpt lat="46.33302" lon="4.68598">
        <ele>294</ele>
        <time>2022-06-25T12:21:43Z</time>
      </trkpt>
      <trkpt lat="46.33301" lon="4.68594">
        <ele>294.4</ele>
        <time>2022-06-25T12:21:44Z</time>
      </trkpt>
      <trkpt lat="46.33299" lon="4.68589">
        <ele>294.6</ele>
        <time>2022-06-25T12:21:45Z</time>
      </trkpt>
      <trkpt lat="46.33297" lon="4.68585">
        <ele>294.8</ele>
        <time>2022-06-25T12:21:46Z</time>
      </trkpt>
      <trkpt lat="46.33296" lon="4.6858">
        <ele>294.8</ele>
        <time>2022-06-25T12:21:47Z</time>
      </trkpt>
      <trkpt lat="46.33294" lon="4.68575">
        <ele>295</ele>
        <time>2022-06-25T12:21:48Z</time>
      </trkpt>
      <trkpt lat="46.33293" lon="4.6857">
        <ele>295</ele>
        <time>2022-06-25T12:21:49Z</time>
      </trkpt>
      <trkpt lat="46.33292" lon="4.68565">
        <ele>295.4</ele>
        <time>2022-06-25T12:21:50Z</time>
      </trkpt>
      <trkpt lat="46.33292" lon="4.6856">
        <ele>295.4</ele>
        <time>2022-06-25T12:21:51Z</time>
      </trkpt>
      <trkpt lat="46.33291" lon="4.68555">
        <ele>295.6</ele>
        <time>2022-06-25T12:21:52Z</time>
      </trkpt>
      <trkpt lat="46.3329" lon="4.6855">
        <ele>295.6</ele>
        <time>2022-06-25T12:21:53Z</time>
      </trkpt>
      <trkpt lat="46.33289" lon="4.68545">
        <ele>296</ele>
        <time>2022-06-25T12:21:54Z</time>
      </trkpt>
      <trkpt lat="46.33288" lon="4.68541">
        <ele>296</ele>
        <time>2022-06-25T12:21:55Z</time>
      </trkpt>
      <trkpt lat="46.33287" lon="4.68536">
        <ele>296.2</ele>
        <time>2022-06-25T12:21:56Z</time>
      </trkpt>
      <trkpt lat="46.33286" lon="4.68531">
        <ele>296.2</ele>
        <time>2022-06-25T12:21:57Z</time>
      </trkpt>
      <trkpt lat="46.33285" lon="4.68526">
        <ele>296.4</ele>
        <time>2022-06-25T12:21:58Z</time>
      </trkpt>
      <trkpt lat="46.33284" lon="4.68522">
        <ele>296.4</ele>
        <time>2022-06-25T12:21:59Z</time>
      </trkpt>
      <trkpt lat="46.33283" lon="4.68518">
        <ele>296.8</ele>
        <time>2022-06-25T12:22:00Z</time>
      </trkpt>
      <trkpt lat="46.33282" lon="4.68513">
        <ele>296.8</ele>
        <time>2022-06-25T12:22:01Z</time>
      </trkpt>
      <trkpt lat="46.33281" lon="4.68509">
        <ele>296.8</ele>
        <time>2022-06-25T12:22:02Z</time>
      </trkpt>
      <trkpt lat="46.3328" lon="4.68505">
        <ele>296.8</ele>
        <time>2022-06-25T12:22:03Z</time>
      </trkpt>
      <trkpt lat="46.33279" lon="4.68501">
        <ele>297</ele>
        <time>2022-06-25T12:22:04Z</time>
      </trkpt>
      <trkpt lat="46.33278" lon="4.68498">
        <ele>297</ele>
        <time>2022-06-25T12:22:05Z</time>
      </trkpt>
      <trkpt lat="46.33278" lon="4.68493">
        <ele>297.2</ele>
        <time>2022-06-25T12:22:06Z</time>
      </trkpt>
      <trkpt lat="46.33277" lon="4.68489">
        <ele>297.2</ele>
        <time>2022-06-25T12:22:07Z</time>
      </trkpt>
      <trkpt lat="46.33276" lon="4.68485">
        <ele>297.4</ele>
        <time>2022-06-25T12:22:08Z</time>
      </trkpt>
      <trkpt lat="46.33275" lon="4.6848">
        <ele>297.4</ele>
        <time>2022-06-25T12:22:09Z</time>
      </trkpt>
      <trkpt lat="46.33274" lon="4.68477">
        <ele>297.8</ele>
        <time>2022-06-25T12:22:10Z</time>
      </trkpt>
      <trkpt lat="46.33273" lon="4.68473">
        <ele>298</ele>
        <time>2022-06-25T12:22:11Z</time>
      </trkpt>
      <trkpt lat="46.33272" lon="4.68469">
        <ele>298</ele>
        <time>2022-06-25T12:22:12Z</time>
      </trkpt>
      <trkpt lat="46.33271" lon="4.68465">
        <ele>298.2</ele>
        <time>2022-06-25T12:22:13Z</time>
      </trkpt>
      <trkpt lat="46.3327" lon="4.68462">
        <ele>298.2</ele>
        <time>2022-06-25T12:22:14Z</time>
      </trkpt>
      <trkpt lat="46.33269" lon="4.68458">
        <ele>298.6</ele>
        <time>2022-06-25T12:22:15Z</time>
      </trkpt>
      <trkpt lat="46.33268" lon="4.68455">
        <ele>298.6</ele>
        <time>2022-06-25T12:22:16Z</time>
      </trkpt>
      <trkpt lat="46.33267" lon="4.68452">
        <ele>299</ele>
        <time>2022-06-25T12:22:17Z</time>
      </trkpt>
      <trkpt lat="46.33265" lon="4.6845">
        <ele>299.2</ele>
        <time>2022-06-25T12:22:18Z</time>
      </trkpt>
      <trkpt lat="46.33264" lon="4.68447">
        <ele>299.2</ele>
        <time>2022-06-25T12:22:19Z</time>
      </trkpt>
      <trkpt lat="46.33263" lon="4.68445">
        <ele>299.6</ele>
        <time>2022-06-25T12:22:20Z</time>
      </trkpt>
      <trkpt lat="46.33261" lon="4.68443">
        <ele>299.6</ele>
        <time>2022-06-25T12:22:21Z</time>
      </trkpt>
      <trkpt lat="46.3326" lon="4.68441">
        <ele>300</ele>
        <time>2022-06-25T12:22:22Z</time>
      </trkpt>
      <trkpt lat="46.33259" lon="4.68438">
        <ele>300.2</ele>
        <time>2022-06-25T12:22:23Z</time>
      </trkpt>
      <trkpt lat="46.33258" lon="4.68436">
        <ele>300.4</ele>
        <time>2022-06-25T12:22:24Z</time>
      </trkpt>
      <trkpt lat="46.33257" lon="4.68434">
        <ele>300.4</ele>
        <time>2022-06-25T12:22:25Z</time>
      </trkpt>
      <trkpt lat="46.33255" lon="4.68432">
        <ele>300.8</ele>
        <time>2022-06-25T12:22:26Z</time>
      </trkpt>
      <trkpt lat="46.33253" lon="4.6843">
        <ele>300.8</ele>
        <time>2022-06-25T12:22:27Z</time>
      </trkpt>
      <trkpt lat="46.33251" lon="4.68428">
        <ele>301</ele>
        <time>2022-06-25T12:22:28Z</time>
      </trkpt>
      <trkpt lat="46.3325" lon="4.68426">
        <ele>301</ele>
        <time>2022-06-25T12:22:29Z</time>
      </trkpt>
      <trkpt lat="46.33248" lon="4.68424">
        <ele>301.4</ele>
        <time>2022-06-25T12:22:30Z</time>
      </trkpt>
      <trkpt lat="46.33246" lon="4.68422">
        <ele>301.4</ele>
        <time>2022-06-25T12:22:31Z</time>
      </trkpt>
      <trkpt lat="46.33245" lon="4.68421">
        <ele>301.8</ele>
        <time>2022-06-25T12:22:32Z</time>
      </trkpt>
      <trkpt lat="46.33244" lon="4.6842">
        <ele>302</ele>
        <time>2022-06-25T12:22:33Z</time>
      </trkpt>
      <trkpt lat="46.33244" lon="4.6842">
        <ele>302.2</ele>
        <time>2022-06-25T12:22:35Z</time>
      </trkpt>
      <trkpt lat="46.33244" lon="4.68419">
        <ele>302.2</ele>
        <time>2022-06-25T12:22:36Z</time>
      </trkpt>
      <trkpt lat="46.33244" lon="4.68418">
        <ele>303.4</ele>
        <time>2022-06-25T12:22:47Z</time>
      </trkpt>
      <trkpt lat="46.33244" lon="4.68418">
        <ele>303.4</ele>
        <time>2022-06-25T12:22:48Z</time>
      </trkpt>
      <trkpt lat="46.33244" lon="4.68417">
        <ele>303.6</ele>
        <time>2022-06-25T12:22:50Z</time>
      </trkpt>
      <trkpt lat="46.33244" lon="4.68417">
        <ele>303.8</ele>
        <time>2022-06-25T12:22:51Z</time>
      </trkpt>
      <trkpt lat="46.33244" lon="4.68416">
        <ele>304</ele>
        <time>2022-06-25T12:22:53Z</time>
      </trkpt>
      <trkpt lat="46.33244" lon="4.68416">
        <ele>304</ele>
        <time>2022-06-25T12:22:54Z</time>
      </trkpt>
      <trkpt lat="46.33244" lon="4.68415">
        <ele>304.2</ele>
        <time>2022-06-25T12:22:58Z</time>
      </trkpt>
      <trkpt lat="46.33244" lon="4.68415">
        <ele>304.4</ele>
        <time>2022-06-25T12:23:00Z</time>
      </trkpt>
      <trkpt lat="46.33244" lon="4.68414">
        <ele>304.4</ele>
        <time>2022-06-25T12:23:02Z</time>
      </trkpt>
      <trkpt lat="46.33244" lon="4.68414">
        <ele>304.4</ele>
        <time>2022-06-25T12:23:09Z</time>
      </trkpt>
      <trkpt lat="46.33244" lon="4.68413">
        <ele>304.4</ele>
        <time>2022-06-25T12:23:15Z</time>
      </trkpt>
      <trkpt lat="46.33244" lon="4.68413">
        <ele>304.4</ele>
        <time>2022-06-25T12:23:16Z</time>
      </trkpt>
      <trkpt lat="46.33244" lon="4.68412">
        <ele>304.4</ele>
        <time>2022-06-25T12:23:19Z</time>
      </trkpt>
      <trkpt lat="46.33244" lon="4.68412">
        <ele>304.6</ele>
        <time>2022-06-25T12:23:48Z</time>
      </trkpt>
      <trkpt lat="46.33244" lon="4.68411">
        <ele>304.4</ele>
        <time>2022-06-25T12:23:51Z</time>
      </trkpt>
      <trkpt lat="46.33244" lon="4.68411">
        <ele>304.4</ele>
        <time>2022-06-25T12:23:52Z</time>
      </trkpt>
      <trkpt lat="46.33244" lon="4.6841">
        <ele>304.8</ele>
        <time>2022-06-25T12:23:56Z</time>
      </trkpt>
      <trkpt lat="46.33244" lon="4.6841">
        <ele>304.8</ele>
        <time>2022-06-25T12:23:57Z</time>
      </trkpt>
      <trkpt lat="46.33244" lon="4.68409">
        <ele>304.8</ele>
        <time>2022-06-25T12:23:59Z</time>
      </trkpt>
      <trkpt lat="46.33244" lon="4.68409">
        <ele>304.8</ele>
        <time>2022-06-25T12:24:00Z</time>
      </trkpt>
      <trkpt lat="46.33244" lon="4.68408">
        <ele>304.8</ele>
        <time>2022-06-25T12:24:01Z</time>
      </trkpt>
      <trkpt lat="46.33244" lon="4.68408">
        <ele>304.4</ele>
        <time>2022-06-25T12:24:03Z</time>
      </trkpt>
      <trkpt lat="46.33244" lon="4.68407">
        <ele>304.4</ele>
        <time>2022-06-25T12:24:04Z</time>
      </trkpt>
      <trkpt lat="46.33244" lon="4.68407">
        <ele>304.4</ele>
        <time>2022-06-25T12:24:06Z</time>
      </trkpt>
      <trkpt lat="46.33244" lon="4.68406">
        <ele>304.2</ele>
        <time>2022-06-25T12:24:07Z</time>
      </trkpt>
      <trkpt lat="46.33244" lon="4.68406">
        <ele>304.2</ele>
        <time>2022-06-25T12:24:12Z</time>
      </trkpt>
      <trkpt lat="46.33244" lon="4.68405">
        <ele>304.2</ele>
        <time>2022-06-25T12:24:13Z</time>
      </trkpt>
      <trkpt lat="46.33244" lon="4.68408">
        <ele>304</ele>
        <time>2022-06-25T12:24:15Z</time>
      </trkpt>
      <trkpt lat="46.33244" lon="4.68411">
        <ele>303.8</ele>
        <time>2022-06-25T12:24:16Z</time>
      </trkpt>
      <trkpt lat="46.33243" lon="4.68414">
        <ele>303.8</ele>
        <time>2022-06-25T12:24:17Z</time>
      </trkpt>
      <trkpt lat="46.33242" lon="4.68417">
        <ele>303.4</ele>
        <time>2022-06-25T12:24:18Z</time>
      </trkpt>
      <trkpt lat="46.33241" lon="4.68419">
        <ele>303.2</ele>
        <time>2022-06-25T12:24:19Z</time>
      </trkpt>
      <trkpt lat="46.33239" lon="4.6842">
        <ele>303.2</ele>
        <time>2022-06-25T12:24:20Z</time>
      </trkpt>
      <trkpt lat="46.33237" lon="4.68419">
        <ele>303.2</ele>
        <time>2022-06-25T12:24:21Z</time>
      </trkpt>
      <trkpt lat="46.33235" lon="4.68418">
        <ele>303.2</ele>
        <time>2022-06-25T12:24:22Z</time>
      </trkpt>
      <trkpt lat="46.33233" lon="4.68417">
        <ele>303.2</ele>
        <time>2022-06-25T12:24:23Z</time>
      </trkpt>
      <trkpt lat="46.33232" lon="4.68415">
        <ele>303.2</ele>
        <time>2022-06-25T12:24:24Z</time>
      </trkpt>
      <trkpt lat="46.3323" lon="4.68414">
        <ele>303.2</ele>
        <time>2022-06-25T12:24:25Z</time>
      </trkpt>
      <trkpt lat="46.33228" lon="4.68413">
        <ele>303.2</ele>
        <time>2022-06-25T12:24:26Z</time>
      </trkpt>
      <trkpt lat="46.33226" lon="4.68412">
        <ele>303.4</ele>
        <time>2022-06-25T12:24:27Z</time>
      </trkpt>
      <trkpt lat="46.33224" lon="4.68412">
        <ele>303.6</ele>
        <time>2022-06-25T12:24:28Z</time>
      </trkpt>
      <trkpt lat="46.33222" lon="4.68411">
        <ele>303.6</ele>
        <time>2022-06-25T12:24:29Z</time>
      </trkpt>
      <trkpt lat="46.3322" lon="4.6841">
        <ele>304</ele>
        <time>2022-06-25T12:24:30Z</time>
      </trkpt>
      <trkpt lat="46.33218" lon="4.68409">
        <ele>304.2</ele>
        <time>2022-06-25T12:24:31Z</time>
      </trkpt>
      <trkpt lat="46.33215" lon="4.68408">
        <ele>304.2</ele>
        <time>2022-06-25T12:24:32Z</time>
      </trkpt>
      <trkpt lat="46.33213" lon="4.68407">
        <ele>304.6</ele>
        <time>2022-06-25T12:24:33Z</time>
      </trkpt>
      <trkpt lat="46.33211" lon="4.68406">
        <ele>304.8</ele>
        <time>2022-06-25T12:24:34Z</time>
      </trkpt>
      <trkpt lat="46.33208" lon="4.68405">
        <ele>305</ele>
        <time>2022-06-25T12:24:35Z</time>
      </trkpt>
      <trkpt lat="46.33206" lon="4.68404">
        <ele>305.2</ele>
        <time>2022-06-25T12:24:36Z</time>
      </trkpt>
      <trkpt lat="46.33204" lon="4.68403">
        <ele>305.4</ele>
        <time>2022-06-25T12:24:37Z</time>
      </trkpt>
      <trkpt lat="46.33201" lon="4.68402">
        <ele>305.8</ele>
        <time>2022-06-25T12:24:38Z</time>
      </trkpt>
      <trkpt lat="46.33199" lon="4.68401">
        <ele>306</ele>
        <time>2022-06-25T12:24:39Z</time>
      </trkpt>
      <trkpt lat="46.33197" lon="4.684">
        <ele>306.4</ele>
        <time>2022-06-25T12:24:40Z</time>
      </trkpt>
      <trkpt lat="46.33195" lon="4.68399">
        <ele>306.6</ele>
        <time>2022-06-25T12:24:41Z</time>
      </trkpt>
      <trkpt lat="46.33192" lon="4.68399">
        <ele>306.6</ele>
        <time>2022-06-25T12:24:42Z</time>
      </trkpt>
      <trkpt lat="46.3319" lon="4.68399">
        <ele>307</ele>
        <time>2022-06-25T12:24:43Z</time>
      </trkpt>
      <trkpt lat="46.33188" lon="4.68398">
        <ele>307</ele>
        <time>2022-06-25T12:24:44Z</time>
      </trkpt>
      <trkpt lat="46.33186" lon="4.68398">
        <ele>307.4</ele>
        <time>2022-06-25T12:24:45Z</time>
      </trkpt>
      <trkpt lat="46.33183" lon="4.68398">
        <ele>307.4</ele>
        <time>2022-06-25T12:24:46Z</time>
      </trkpt>
      <trkpt lat="46.33181" lon="4.68397">
        <ele>307.6</ele>
        <time>2022-06-25T12:24:47Z</time>
      </trkpt>
      <trkpt lat="46.33179" lon="4.68397">
        <ele>307.6</ele>
        <time>2022-06-25T12:24:48Z</time>
      </trkpt>
      <trkpt lat="46.33177" lon="4.68396">
        <ele>308</ele>
        <time>2022-06-25T12:24:49Z</time>
      </trkpt>
      <trkpt lat="46.33174" lon="4.68395">
        <ele>308</ele>
        <time>2022-06-25T12:24:50Z</time>
      </trkpt>
      <trkpt lat="46.33172" lon="4.68395">
        <ele>308.4</ele>
        <time>2022-06-25T12:24:51Z</time>
      </trkpt>
      <trkpt lat="46.33169" lon="4.68394">
        <ele>308.4</ele>
        <time>2022-06-25T12:24:52Z</time>
      </trkpt>
      <trkpt lat="46.33166" lon="4.68395">
        <ele>308.4</ele>
        <time>2022-06-25T12:24:53Z</time>
      </trkpt>
      <trkpt lat="46.33163" lon="4.68394">
        <ele>308.4</ele>
        <time>2022-06-25T12:24:54Z</time>
      </trkpt>
      <trkpt lat="46.33159" lon="4.68394">
        <ele>308.4</ele>
        <time>2022-06-25T12:24:55Z</time>
      </trkpt>
      <trkpt lat="46.33156" lon="4.68394">
        <ele>308.4</ele>
        <time>2022-06-25T12:24:56Z</time>
      </trkpt>
      <trkpt lat="46.33152" lon="4.68394">
        <ele>308.2</ele>
        <time>2022-06-25T12:24:57Z</time>
      </trkpt>
      <trkpt lat="46.33147" lon="4.68395">
        <ele>308</ele>
        <time>2022-06-25T12:24:58Z</time>
      </trkpt>
      <trkpt lat="46.33142" lon="4.68395">
        <ele>307.4</ele>
        <time>2022-06-25T12:24:59Z</time>
      </trkpt>
      <trkpt lat="46.33137" lon="4.68396">
        <ele>307</ele>
        <time>2022-06-25T12:25:00Z</time>
      </trkpt>
      <trkpt lat="46.33131" lon="4.68396">
        <ele>306.6</ele>
        <time>2022-06-25T12:25:01Z</time>
      </trkpt>
      <trkpt lat="46.33125" lon="4.68396">
        <ele>306.2</ele>
        <time>2022-06-25T12:25:02Z</time>
      </trkpt>
      <trkpt lat="46.33119" lon="4.68397">
        <ele>305.8</ele>
        <time>2022-06-25T12:25:03Z</time>
      </trkpt>
      <trkpt lat="46.33113" lon="4.68396">
        <ele>305.6</ele>
        <time>2022-06-25T12:25:04Z</time>
      </trkpt>
      <trkpt lat="46.33106" lon="4.68396">
        <ele>305.2</ele>
        <time>2022-06-25T12:25:05Z</time>
      </trkpt>
      <trkpt lat="46.331" lon="4.68396">
        <ele>305.2</ele>
        <time>2022-06-25T12:25:06Z</time>
      </trkpt>
      <trkpt lat="46.33094" lon="4.68395">
        <ele>305</ele>
        <time>2022-06-25T12:25:07Z</time>
      </trkpt>
      <trkpt lat="46.33088" lon="4.68395">
        <ele>304.8</ele>
        <time>2022-06-25T12:25:08Z</time>
      </trkpt>
      <trkpt lat="46.33082" lon="4.68395">
        <ele>304.4</ele>
        <time>2022-06-25T12:25:09Z</time>
      </trkpt>
      <trkpt lat="46.33076" lon="4.68394">
        <ele>304</ele>
        <time>2022-06-25T12:25:10Z</time>
      </trkpt>
      <trkpt lat="46.33071" lon="4.68393">
        <ele>303.6</ele>
        <time>2022-06-25T12:25:11Z</time>
      </trkpt>
      <trkpt lat="46.33066" lon="4.68392">
        <ele>303.6</ele>
        <time>2022-06-25T12:25:12Z</time>
      </trkpt>
      <trkpt lat="46.33061" lon="4.68391">
        <ele>303.2</ele>
        <time>2022-06-25T12:25:13Z</time>
      </trkpt>
      <trkpt lat="46.33056" lon="4.6839">
        <ele>303</ele>
        <time>2022-06-25T12:25:14Z</time>
      </trkpt>
      <trkpt lat="46.33052" lon="4.68389">
        <ele>302.6</ele>
        <time>2022-06-25T12:25:15Z</time>
      </trkpt>
      <trkpt lat="46.33049" lon="4.68389">
        <ele>302.4</ele>
        <time>2022-06-25T12:25:16Z</time>
      </trkpt>
      <trkpt lat="46.33046" lon="4.68388">
        <ele>302.2</ele>
        <time>2022-06-25T12:25:17Z</time>
      </trkpt>
      <trkpt lat="46.33044" lon="4.68387">
        <ele>302.2</ele>
        <time>2022-06-25T12:25:18Z</time>
      </trkpt>
      <trkpt lat="46.33043" lon="4.68387">
        <ele>301.8</ele>
        <time>2022-06-25T12:25:19Z</time>
      </trkpt>
      <trkpt lat="46.33042" lon="4.68388">
        <ele>301.6</ele>
        <time>2022-06-25T12:25:20Z</time>
      </trkpt>
      <trkpt lat="46.33042" lon="4.68389">
        <ele>301.6</ele>
        <time>2022-06-25T12:25:22Z</time>
      </trkpt>
      <trkpt lat="46.33041" lon="4.6839">
        <ele>301.4</ele>
        <time>2022-06-25T12:25:23Z</time>
      </trkpt>
      <trkpt lat="46.3304" lon="4.68392">
        <ele>301.4</ele>
        <time>2022-06-25T12:25:24Z</time>
      </trkpt>
      <trkpt lat="46.33039" lon="4.68395">
        <ele>301.4</ele>
        <time>2022-06-25T12:25:25Z</time>
      </trkpt>
      <trkpt lat="46.33039" lon="4.68397">
        <ele>301.4</ele>
        <time>2022-06-25T12:25:26Z</time>
      </trkpt>
      <trkpt lat="46.33038" lon="4.684">
        <ele>301.4</ele>
        <time>2022-06-25T12:25:27Z</time>
      </trkpt>
      <trkpt lat="46.33038" lon="4.68402">
        <ele>301.4</ele>
        <time>2022-06-25T12:25:28Z</time>
      </trkpt>
      <trkpt lat="46.33038" lon="4.68404">
        <ele>301.4</ele>
        <time>2022-06-25T12:25:29Z</time>
      </trkpt>
      <trkpt lat="46.33038" lon="4.68404">
        <ele>301.2</ele>
        <time>2022-06-25T12:25:31Z</time>
      </trkpt>
      <trkpt lat="46.33038" lon="4.68404">
        <ele>301.2</ele>
        <time>2022-06-25T12:25:33Z</time>
      </trkpt>
      <trkpt lat="46.33038" lon="4.68403">
        <ele>301.2</ele>
        <time>2022-06-25T12:25:39Z</time>
      </trkpt>
      <trkpt lat="46.33038" lon="4.68403">
        <ele>301.2</ele>
        <time>2022-06-25T12:25:40Z</time>
      </trkpt>
      <trkpt lat="46.33038" lon="4.68403">
        <ele>301.2</ele>
        <time>2022-06-25T12:25:42Z</time>
      </trkpt>
      <trkpt lat="46.33038" lon="4.68403">
        <ele>301.2</ele>
        <time>2022-06-25T12:25:44Z</time>
      </trkpt>
      <trkpt lat="46.33038" lon="4.68402">
        <ele>301.8</ele>
        <time>2022-06-25T12:30:12Z</time>
      </trkpt>
      <trkpt lat="46.33039" lon="4.68402">
        <ele>301.8</ele>
        <time>2022-06-25T12:30:13Z</time>
      </trkpt>
      <trkpt lat="46.33039" lon="4.68402">
        <ele>301.8</ele>
        <time>2022-06-25T12:30:15Z</time>
      </trkpt>
      <trkpt lat="46.33039" lon="4.68402">
        <ele>301.8</ele>
        <time>2022-06-25T12:30:17Z</time>
      </trkpt>
      <trkpt lat="46.33039" lon="4.68401">
        <ele>301.6</ele>
        <time>2022-06-25T12:30:18Z</time>
      </trkpt>
      <trkpt lat="46.33039" lon="4.68401">
        <ele>301.6</ele>
        <time>2022-06-25T12:30:20Z</time>
      </trkpt>
      <trkpt lat="46.33039" lon="4.68401">
        <ele>301.6</ele>
        <time>2022-06-25T12:30:22Z</time>
      </trkpt>
      <trkpt lat="46.33039" lon="4.684">
        <ele>301.6</ele>
        <time>2022-06-25T12:30:24Z</time>
      </trkpt>
      <trkpt lat="46.33039" lon="4.68398">
        <ele>301.6</ele>
        <time>2022-06-25T12:30:25Z</time>
      </trkpt>
      <trkpt lat="46.33039" lon="4.68396">
        <ele>301.6</ele>
        <time>2022-06-25T12:30:26Z</time>
      </trkpt>
      <trkpt lat="46.33039" lon="4.68394">
        <ele>301.6</ele>
        <time>2022-06-25T12:30:27Z</time>
      </trkpt>
      <trkpt lat="46.33038" lon="4.68392">
        <ele>301.6</ele>
        <time>2022-06-25T12:30:28Z</time>
      </trkpt>
      <trkpt lat="46.33036" lon="4.68389">
        <ele>301.6</ele>
        <time>2022-06-25T12:30:29Z</time>
      </trkpt>
      <trkpt lat="46.33034" lon="4.68387">
        <ele>301.6</ele>
        <time>2022-06-25T12:30:30Z</time>
      </trkpt>
      <trkpt lat="46.33032" lon="4.68385">
        <ele>301.6</ele>
        <time>2022-06-25T12:30:31Z</time>
      </trkpt>
      <trkpt lat="46.33029" lon="4.68384">
        <ele>301.6</ele>
        <time>2022-06-25T12:30:32Z</time>
      </trkpt>
      <trkpt lat="46.33025" lon="4.68383">
        <ele>301.6</ele>
        <time>2022-06-25T12:30:33Z</time>
      </trkpt>
      <trkpt lat="46.33021" lon="4.68381">
        <ele>301.6</ele>
        <time>2022-06-25T12:30:34Z</time>
      </trkpt>
      <trkpt lat="46.33018" lon="4.6838">
        <ele>301.6</ele>
        <time>2022-06-25T12:30:35Z</time>
      </trkpt>
      <trkpt lat="46.33014" lon="4.68379">
        <ele>301.6</ele>
        <time>2022-06-25T12:30:36Z</time>
      </trkpt>
      <trkpt lat="46.3301" lon="4.68377">
        <ele>301.6</ele>
        <time>2022-06-25T12:30:37Z</time>
      </trkpt>
      <trkpt lat="46.33006" lon="4.68376">
        <ele>301.4</ele>
        <time>2022-06-25T12:30:38Z</time>
      </trkpt>
      <trkpt lat="46.33002" lon="4.68374">
        <ele>301.4</ele>
        <time>2022-06-25T12:30:39Z</time>
      </trkpt>
      <trkpt lat="46.32998" lon="4.68373">
        <ele>301.4</ele>
        <time>2022-06-25T12:30:40Z</time>
      </trkpt>
      <trkpt lat="46.32993" lon="4.68371">
        <ele>301.2</ele>
        <time>2022-06-25T12:30:41Z</time>
      </trkpt>
      <trkpt lat="46.32989" lon="4.68369">
        <ele>301.2</ele>
        <time>2022-06-25T12:30:42Z</time>
      </trkpt>
      <trkpt lat="46.32985" lon="4.68367">
        <ele>301.2</ele>
        <time>2022-06-25T12:30:43Z</time>
      </trkpt>
      <trkpt lat="46.3298" lon="4.68365">
        <ele>301.2</ele>
        <time>2022-06-25T12:30:44Z</time>
      </trkpt>
      <trkpt lat="46.32976" lon="4.68363">
        <ele>301</ele>
        <time>2022-06-25T12:30:45Z</time>
      </trkpt>
      <trkpt lat="46.32971" lon="4.68361">
        <ele>300.6</ele>
        <time>2022-06-25T12:30:46Z</time>
      </trkpt>
      <trkpt lat="46.32967" lon="4.68359">
        <ele>300.6</ele>
        <time>2022-06-25T12:30:47Z</time>
      </trkpt>
      <trkpt lat="46.32962" lon="4.68356">
        <ele>300.2</ele>
        <time>2022-06-25T12:30:48Z</time>
      </trkpt>
      <trkpt lat="46.32957" lon="4.68354">
        <ele>300.2</ele>
        <time>2022-06-25T12:30:49Z</time>
      </trkpt>
      <trkpt lat="46.32952" lon="4.68351">
        <ele>300</ele>
        <time>2022-06-25T12:30:50Z</time>
      </trkpt>
      <trkpt lat="46.32947" lon="4.68348">
        <ele>299.6</ele>
        <time>2022-06-25T12:30:51Z</time>
      </trkpt>
      <trkpt lat="46.32941" lon="4.68345">
        <ele>299.4</ele>
        <time>2022-06-25T12:30:52Z</time>
      </trkpt>
      <trkpt lat="46.32935" lon="4.68341">
        <ele>299.2</ele>
        <time>2022-06-25T12:30:53Z</time>
      </trkpt>
      <trkpt lat="46.32928" lon="4.68338">
        <ele>298.8</ele>
        <time>2022-06-25T12:30:54Z</time>
      </trkpt>
      <trkpt lat="46.32921" lon="4.68335">
        <ele>298.4</ele>
        <time>2022-06-25T12:30:55Z</time>
      </trkpt>
      <trkpt lat="46.32914" lon="4.68331">
        <ele>298</ele>
        <time>2022-06-25T12:30:56Z</time>
      </trkpt>
      <trkpt lat="46.32907" lon="4.68328">
        <ele>297.8</ele>
        <time>2022-06-25T12:30:57Z</time>
      </trkpt>
      <trkpt lat="46.32899" lon="4.68326">
        <ele>297.2</ele>
        <time>2022-06-25T12:30:58Z</time>
      </trkpt>
      <trkpt lat="46.32891" lon="4.68325">
        <ele>296.8</ele>
        <time>2022-06-25T12:30:59Z</time>
      </trkpt>
      <trkpt lat="46.32883" lon="4.68325">
        <ele>296.4</ele>
        <time>2022-06-25T12:31:00Z</time>
      </trkpt>
      <trkpt lat="46.32875" lon="4.68327">
        <ele>295.8</ele>
        <time>2022-06-25T12:31:01Z</time>
      </trkpt>
      <trkpt lat="46.32867" lon="4.68328">
        <ele>295.4</ele>
        <time>2022-06-25T12:31:02Z</time>
      </trkpt>
      <trkpt lat="46.32859" lon="4.6833">
        <ele>295.2</ele>
        <time>2022-06-25T12:31:03Z</time>
      </trkpt>
      <trkpt lat="46.32851" lon="4.68331">
        <ele>295</ele>
        <time>2022-06-25T12:31:04Z</time>
      </trkpt>
      <trkpt lat="46.32844" lon="4.68332">
        <ele>295</ele>
        <time>2022-06-25T12:31:05Z</time>
      </trkpt>
      <trkpt lat="46.32837" lon="4.68332">
        <ele>294.6</ele>
        <time>2022-06-25T12:31:06Z</time>
      </trkpt>
      <trkpt lat="46.3283" lon="4.68333">
        <ele>294.6</ele>
        <time>2022-06-25T12:31:07Z</time>
      </trkpt>
      <trkpt lat="46.32823" lon="4.68333">
        <ele>294.6</ele>
        <time>2022-06-25T12:31:08Z</time>
      </trkpt>
      <trkpt lat="46.32816" lon="4.68333">
        <ele>294.4</ele>
        <time>2022-06-25T12:31:09Z</time>
      </trkpt>
      <trkpt lat="46.32809" lon="4.68333">
        <ele>294.4</ele>
        <time>2022-06-25T12:31:10Z</time>
      </trkpt>
      <trkpt lat="46.32802" lon="4.68333">
        <ele>294</ele>
        <time>2022-06-25T12:31:11Z</time>
      </trkpt>
      <trkpt lat="46.32795" lon="4.68334">
        <ele>294</ele>
        <time>2022-06-25T12:31:12Z</time>
      </trkpt>
      <trkpt lat="46.32788" lon="4.68334">
        <ele>294</ele>
        <time>2022-06-25T12:31:13Z</time>
      </trkpt>
      <trkpt lat="46.32781" lon="4.68334">
        <ele>293.8</ele>
        <time>2022-06-25T12:31:14Z</time>
      </trkpt>
      <trkpt lat="46.32774" lon="4.68334">
        <ele>293.8</ele>
        <time>2022-06-25T12:31:15Z</time>
      </trkpt>
      <trkpt lat="46.32767" lon="4.68334">
        <ele>293.4</ele>
        <time>2022-06-25T12:31:16Z</time>
      </trkpt>
      <trkpt lat="46.32761" lon="4.68333">
        <ele>293.2</ele>
        <time>2022-06-25T12:31:17Z</time>
      </trkpt>
      <trkpt lat="46.32754" lon="4.68332">
        <ele>293.2</ele>
        <time>2022-06-25T12:31:18Z</time>
      </trkpt>
      <trkpt lat="46.32746" lon="4.68332">
        <ele>293</ele>
        <time>2022-06-25T12:31:19Z</time>
      </trkpt>
      <trkpt lat="46.32739" lon="4.68332">
        <ele>293</ele>
        <time>2022-06-25T12:31:20Z</time>
      </trkpt>
      <trkpt lat="46.32732" lon="4.68332">
        <ele>293</ele>
        <time>2022-06-25T12:31:21Z</time>
      </trkpt>
      <trkpt lat="46.32725" lon="4.68332">
        <ele>292.6</ele>
        <time>2022-06-25T12:31:22Z</time>
      </trkpt>
      <trkpt lat="46.32719" lon="4.68333">
        <ele>292.6</ele>
        <time>2022-06-25T12:31:23Z</time>
      </trkpt>
      <trkpt lat="46.32712" lon="4.68334">
        <ele>292.6</ele>
        <time>2022-06-25T12:31:24Z</time>
      </trkpt>
      <trkpt lat="46.32705" lon="4.68335">
        <ele>292.4</ele>
        <time>2022-06-25T12:31:25Z</time>
      </trkpt>
      <trkpt lat="46.32698" lon="4.68337">
        <ele>292.4</ele>
        <time>2022-06-25T12:31:26Z</time>
      </trkpt>
      <trkpt lat="46.32691" lon="4.68338">
        <ele>292.4</ele>
        <time>2022-06-25T12:31:27Z</time>
      </trkpt>
      <trkpt lat="46.32685" lon="4.6834">
        <ele>292.4</ele>
        <time>2022-06-25T12:31:28Z</time>
      </trkpt>
      <trkpt lat="46.32678" lon="4.68341">
        <ele>292.2</ele>
        <time>2022-06-25T12:31:29Z</time>
      </trkpt>
      <trkpt lat="46.32672" lon="4.68342">
        <ele>292.2</ele>
        <time>2022-06-25T12:31:30Z</time>
      </trkpt>
      <trkpt lat="46.32665" lon="4.68341">
        <ele>292.2</ele>
        <time>2022-06-25T12:31:31Z</time>
      </trkpt>
      <trkpt lat="46.32659" lon="4.68341">
        <ele>292.2</ele>
        <time>2022-06-25T12:31:32Z</time>
      </trkpt>
      <trkpt lat="46.32653" lon="4.68339">
        <ele>292.2</ele>
        <time>2022-06-25T12:31:33Z</time>
      </trkpt>
      <trkpt lat="46.32647" lon="4.68337">
        <ele>292.2</ele>
        <time>2022-06-25T12:31:34Z</time>
      </trkpt>
      <trkpt lat="46.32642" lon="4.68335">
        <ele>292.2</ele>
        <time>2022-06-25T12:31:35Z</time>
      </trkpt>
      <trkpt lat="46.32637" lon="4.68333">
        <ele>292.4</ele>
        <time>2022-06-25T12:31:36Z</time>
      </trkpt>
      <trkpt lat="46.32631" lon="4.6833">
        <ele>292.4</ele>
        <time>2022-06-25T12:31:37Z</time>
      </trkpt>
      <trkpt lat="46.32627" lon="4.68327">
        <ele>292.4</ele>
        <time>2022-06-25T12:31:38Z</time>
      </trkpt>
      <trkpt lat="46.32622" lon="4.68324">
        <ele>292.4</ele>
        <time>2022-06-25T12:31:39Z</time>
      </trkpt>
      <trkpt lat="46.32617" lon="4.68321">
        <ele>292.4</ele>
        <time>2022-06-25T12:31:40Z</time>
      </trkpt>
      <trkpt lat="46.32612" lon="4.68318">
        <ele>292.6</ele>
        <time>2022-06-25T12:31:41Z</time>
      </trkpt>
      <trkpt lat="46.32608" lon="4.68316">
        <ele>292.6</ele>
        <time>2022-06-25T12:31:42Z</time>
      </trkpt>
      <trkpt lat="46.32603" lon="4.68313">
        <ele>293</ele>
        <time>2022-06-25T12:31:43Z</time>
      </trkpt>
      <trkpt lat="46.32599" lon="4.6831">
        <ele>293</ele>
        <time>2022-06-25T12:31:44Z</time>
      </trkpt>
      <trkpt lat="46.32594" lon="4.68307">
        <ele>293.2</ele>
        <time>2022-06-25T12:31:45Z</time>
      </trkpt>
      <trkpt lat="46.3259" lon="4.68305">
        <ele>293.2</ele>
        <time>2022-06-25T12:31:46Z</time>
      </trkpt>
      <trkpt lat="46.32585" lon="4.68302">
        <ele>293.2</ele>
        <time>2022-06-25T12:31:47Z</time>
      </trkpt>
      <trkpt lat="46.32581" lon="4.68299">
        <ele>293.4</ele>
        <time>2022-06-25T12:31:48Z</time>
      </trkpt>
      <trkpt lat="46.32577" lon="4.68297">
        <ele>293.4</ele>
        <time>2022-06-25T12:31:49Z</time>
      </trkpt>
      <trkpt lat="46.32573" lon="4.68294">
        <ele>293.8</ele>
        <time>2022-06-25T12:31:50Z</time>
      </trkpt>
      <trkpt lat="46.32568" lon="4.68291">
        <ele>293.8</ele>
        <time>2022-06-25T12:31:51Z</time>
      </trkpt>
      <trkpt lat="46.32564" lon="4.68287">
        <ele>294</ele>
        <time>2022-06-25T12:31:52Z</time>
      </trkpt>
      <trkpt lat="46.3256" lon="4.68283">
        <ele>294</ele>
        <time>2022-06-25T12:31:53Z</time>
      </trkpt>
      <trkpt lat="46.32556" lon="4.68279">
        <ele>294</ele>
        <time>2022-06-25T12:31:54Z</time>
      </trkpt>
      <trkpt lat="46.32552" lon="4.68275">
        <ele>294</ele>
        <time>2022-06-25T12:31:55Z</time>
      </trkpt>
      <trkpt lat="46.32549" lon="4.6827">
        <ele>294.2</ele>
        <time>2022-06-25T12:31:56Z</time>
      </trkpt>
      <trkpt lat="46.32545" lon="4.68266">
        <ele>294.2</ele>
        <time>2022-06-25T12:31:57Z</time>
      </trkpt>
      <trkpt lat="46.32541" lon="4.68261">
        <ele>294.4</ele>
        <time>2022-06-25T12:31:58Z</time>
      </trkpt>
      <trkpt lat="46.32538" lon="4.68257">
        <ele>294.6</ele>
        <time>2022-06-25T12:31:59Z</time>
      </trkpt>
      <trkpt lat="46.32534" lon="4.68253">
        <ele>294.6</ele>
        <time>2022-06-25T12:32:00Z</time>
      </trkpt>
      <trkpt lat="46.3253" lon="4.6825">
        <ele>295</ele>
        <time>2022-06-25T12:32:01Z</time>
      </trkpt>
      <trkpt lat="46.32526" lon="4.68247">
        <ele>295.2</ele>
        <time>2022-06-25T12:32:02Z</time>
      </trkpt>
      <trkpt lat="46.32522" lon="4.68245">
        <ele>295.6</ele>
        <time>2022-06-25T12:32:03Z</time>
      </trkpt>
      <trkpt lat="46.32518" lon="4.68243">
        <ele>295.6</ele>
        <time>2022-06-25T12:32:04Z</time>
      </trkpt>
      <trkpt lat="46.32514" lon="4.68241">
        <ele>295.8</ele>
        <time>2022-06-25T12:32:05Z</time>
      </trkpt>
      <trkpt lat="46.3251" lon="4.6824">
        <ele>295.8</ele>
        <time>2022-06-25T12:32:06Z</time>
      </trkpt>
      <trkpt lat="46.32506" lon="4.68238">
        <ele>295.8</ele>
        <time>2022-06-25T12:32:07Z</time>
      </trkpt>
      <trkpt lat="46.32502" lon="4.68238">
        <ele>296</ele>
        <time>2022-06-25T12:32:08Z</time>
      </trkpt>
      <trkpt lat="46.32498" lon="4.68237">
        <ele>296</ele>
        <time>2022-06-25T12:32:09Z</time>
      </trkpt>
      <trkpt lat="46.32494" lon="4.68236">
        <ele>296</ele>
        <time>2022-06-25T12:32:10Z</time>
      </trkpt>
      <trkpt lat="46.3249" lon="4.68235">
        <ele>296</ele>
        <time>2022-06-25T12:32:11Z</time>
      </trkpt>
      <trkpt lat="46.32486" lon="4.68233">
        <ele>296</ele>
        <time>2022-06-25T12:32:12Z</time>
      </trkpt>
      <trkpt lat="46.32482" lon="4.68231">
        <ele>296.2</ele>
        <time>2022-06-25T12:32:13Z</time>
      </trkpt>
      <trkpt lat="46.32477" lon="4.68229">
        <ele>296.2</ele>
        <time>2022-06-25T12:32:14Z</time>
      </trkpt>
      <trkpt lat="46.32473" lon="4.68227">
        <ele>296.2</ele>
        <time>2022-06-25T12:32:15Z</time>
      </trkpt>
      <trkpt lat="46.32468" lon="4.68224">
        <ele>296.2</ele>
        <time>2022-06-25T12:32:16Z</time>
      </trkpt>
      <trkpt lat="46.32464" lon="4.68221">
        <ele>296.2</ele>
        <time>2022-06-25T12:32:17Z</time>
      </trkpt>
      <trkpt lat="46.32459" lon="4.68218">
        <ele>296.2</ele>
        <time>2022-06-25T12:32:18Z</time>
      </trkpt>
      <trkpt lat="46.32455" lon="4.68215">
        <ele>296.2</ele>
        <time>2022-06-25T12:32:19Z</time>
      </trkpt>
      <trkpt lat="46.3245" lon="4.68212">
        <ele>296.2</ele>
        <time>2022-06-25T12:32:20Z</time>
      </trkpt>
      <trkpt lat="46.32446" lon="4.6821">
        <ele>296.2</ele>
        <time>2022-06-25T12:32:21Z</time>
      </trkpt>
      <trkpt lat="46.32443" lon="4.68207">
        <ele>296.2</ele>
        <time>2022-06-25T12:32:22Z</time>
      </trkpt>
      <trkpt lat="46.32439" lon="4.68205">
        <ele>296.6</ele>
        <time>2022-06-25T12:32:23Z</time>
      </trkpt>
      <trkpt lat="46.32435" lon="4.68203">
        <ele>296.6</ele>
        <time>2022-06-25T12:32:24Z</time>
      </trkpt>
      <trkpt lat="46.32431" lon="4.68201">
        <ele>296.6</ele>
        <time>2022-06-25T12:32:25Z</time>
      </trkpt>
      <trkpt lat="46.32426" lon="4.68199">
        <ele>296.8</ele>
        <time>2022-06-25T12:32:26Z</time>
      </trkpt>
      <trkpt lat="46.32422" lon="4.68197">
        <ele>296.8</ele>
        <time>2022-06-25T12:32:27Z</time>
      </trkpt>
      <trkpt lat="46.32417" lon="4.68196">
        <ele>296.8</ele>
        <time>2022-06-25T12:32:28Z</time>
      </trkpt>
      <trkpt lat="46.32413" lon="4.68194">
        <ele>296.8</ele>
        <time>2022-06-25T12:32:29Z</time>
      </trkpt>
      <trkpt lat="46.32408" lon="4.68192">
        <ele>297</ele>
        <time>2022-06-25T12:32:30Z</time>
      </trkpt>
      <trkpt lat="46.32403" lon="4.68191">
        <ele>297</ele>
        <time>2022-06-25T12:32:31Z</time>
      </trkpt>
      <trkpt lat="46.32398" lon="4.68189">
        <ele>297</ele>
        <time>2022-06-25T12:32:32Z</time>
      </trkpt>
      <trkpt lat="46.32393" lon="4.68187">
        <ele>297</ele>
        <time>2022-06-25T12:32:33Z</time>
      </trkpt>
      <trkpt lat="46.32388" lon="4.68186">
        <ele>297</ele>
        <time>2022-06-25T12:32:34Z</time>
      </trkpt>
      <trkpt lat="46.32383" lon="4.68184">
        <ele>297</ele>
        <time>2022-06-25T12:32:35Z</time>
      </trkpt>
      <trkpt lat="46.32378" lon="4.68183">
        <ele>297</ele>
        <time>2022-06-25T12:32:36Z</time>
      </trkpt>
      <trkpt lat="46.32372" lon="4.68182">
        <ele>297</ele>
        <time>2022-06-25T12:32:37Z</time>
      </trkpt>
      <trkpt lat="46.32367" lon="4.6818">
        <ele>297</ele>
        <time>2022-06-25T12:32:38Z</time>
      </trkpt>
      <trkpt lat="46.32362" lon="4.68178">
        <ele>297</ele>
        <time>2022-06-25T12:32:39Z</time>
      </trkpt>
      <trkpt lat="46.32357" lon="4.68177">
        <ele>297</ele>
        <time>2022-06-25T12:32:40Z</time>
      </trkpt>
      <trkpt lat="46.32352" lon="4.68176">
        <ele>297</ele>
        <time>2022-06-25T12:32:41Z</time>
      </trkpt>
      <trkpt lat="46.32346" lon="4.68175">
        <ele>297</ele>
        <time>2022-06-25T12:32:42Z</time>
      </trkpt>
      <trkpt lat="46.32341" lon="4.68174">
        <ele>297</ele>
        <time>2022-06-25T12:32:43Z</time>
      </trkpt>
      <trkpt lat="46.32335" lon="4.68173">
        <ele>297</ele>
        <time>2022-06-25T12:32:44Z</time>
      </trkpt>
      <trkpt lat="46.3233" lon="4.68171">
        <ele>297</ele>
        <time>2022-06-25T12:32:45Z</time>
      </trkpt>
      <trkpt lat="46.32324" lon="4.6817">
        <ele>297</ele>
        <time>2022-06-25T12:32:46Z</time>
      </trkpt>
      <trkpt lat="46.32318" lon="4.68169">
        <ele>297</ele>
        <time>2022-06-25T12:32:47Z</time>
      </trkpt>
      <trkpt lat="46.32313" lon="4.68168">
        <ele>297</ele>
        <time>2022-06-25T12:32:48Z</time>
      </trkpt>
      <trkpt lat="46.32307" lon="4.68167">
        <ele>297</ele>
        <time>2022-06-25T12:32:49Z</time>
      </trkpt>
      <trkpt lat="46.32302" lon="4.68166">
        <ele>297</ele>
        <time>2022-06-25T12:32:50Z</time>
      </trkpt>
      <trkpt lat="46.32297" lon="4.68165">
        <ele>297</ele>
        <time>2022-06-25T12:32:51Z</time>
      </trkpt>
      <trkpt lat="46.32292" lon="4.68165">
        <ele>297</ele>
        <time>2022-06-25T12:32:52Z</time>
      </trkpt>
      <trkpt lat="46.32287" lon="4.68164">
        <ele>297.4</ele>
        <time>2022-06-25T12:32:53Z</time>
      </trkpt>
      <trkpt lat="46.32282" lon="4.68164">
        <ele>297.4</ele>
        <time>2022-06-25T12:32:54Z</time>
      </trkpt>
      <trkpt lat="46.32277" lon="4.68164">
        <ele>297.4</ele>
        <time>2022-06-25T12:32:55Z</time>
      </trkpt>
      <trkpt lat="46.32273" lon="4.68164">
        <ele>297.4</ele>
        <time>2022-06-25T12:32:56Z</time>
      </trkpt>
      <trkpt lat="46.32268" lon="4.68164">
        <ele>297.6</ele>
        <time>2022-06-25T12:32:57Z</time>
      </trkpt>
      <trkpt lat="46.32264" lon="4.68165">
        <ele>297.6</ele>
        <time>2022-06-25T12:32:58Z</time>
      </trkpt>
      <trkpt lat="46.32259" lon="4.68165">
        <ele>298</ele>
        <time>2022-06-25T12:32:59Z</time>
      </trkpt>
      <trkpt lat="46.32255" lon="4.68166">
        <ele>298</ele>
        <time>2022-06-25T12:33:00Z</time>
      </trkpt>
      <trkpt lat="46.3225" lon="4.68167">
        <ele>298</ele>
        <time>2022-06-25T12:33:01Z</time>
      </trkpt>
      <trkpt lat="46.32246" lon="4.68169">
        <ele>298</ele>
        <time>2022-06-25T12:33:02Z</time>
      </trkpt>
      <trkpt lat="46.32242" lon="4.68171">
        <ele>298</ele>
        <time>2022-06-25T12:33:03Z</time>
      </trkpt>
      <trkpt lat="46.32237" lon="4.68173">
        <ele>298.2</ele>
        <time>2022-06-25T12:33:04Z</time>
      </trkpt>
      <trkpt lat="46.32233" lon="4.68175">
        <ele>298.2</ele>
        <time>2022-06-25T12:33:05Z</time>
      </trkpt>
      <trkpt lat="46.32228" lon="4.68177">
        <ele>298.2</ele>
        <time>2022-06-25T12:33:06Z</time>
      </trkpt>
      <trkpt lat="46.32224" lon="4.6818">
        <ele>298.2</ele>
        <time>2022-06-25T12:33:07Z</time>
      </trkpt>
      <trkpt lat="46.32219" lon="4.68182">
        <ele>298.2</ele>
        <time>2022-06-25T12:33:08Z</time>
      </trkpt>
      <trkpt lat="46.32214" lon="4.68185">
        <ele>298.2</ele>
        <time>2022-06-25T12:33:09Z</time>
      </trkpt>
      <trkpt lat="46.32209" lon="4.68187">
        <ele>298.2</ele>
        <time>2022-06-25T12:33:10Z</time>
      </trkpt>
      <trkpt lat="46.32205" lon="4.6819">
        <ele>298.2</ele>
        <time>2022-06-25T12:33:11Z</time>
      </trkpt>
      <trkpt lat="46.322" lon="4.68193">
        <ele>298.6</ele>
        <time>2022-06-25T12:33:12Z</time>
      </trkpt>
      <trkpt lat="46.32195" lon="4.68195">
        <ele>298.6</ele>
        <time>2022-06-25T12:33:13Z</time>
      </trkpt>
      <trkpt lat="46.32191" lon="4.68198">
        <ele>298.6</ele>
        <time>2022-06-25T12:33:14Z</time>
      </trkpt>
      <trkpt lat="46.32186" lon="4.682">
        <ele>298.6</ele>
        <time>2022-06-25T12:33:15Z</time>
      </trkpt>
      <trkpt lat="46.32181" lon="4.68202">
        <ele>299</ele>
        <time>2022-06-25T12:33:16Z</time>
      </trkpt>
      <trkpt lat="46.32177" lon="4.68205">
        <ele>299</ele>
        <time>2022-06-25T12:33:17Z</time>
      </trkpt>
      <trkpt lat="46.32173" lon="4.68207">
        <ele>299.2</ele>
        <time>2022-06-25T12:33:18Z</time>
      </trkpt>
      <trkpt lat="46.32168" lon="4.68209">
        <ele>299.2</ele>
        <time>2022-06-25T12:33:19Z</time>
      </trkpt>
      <trkpt lat="46.32164" lon="4.68211">
        <ele>299.2</ele>
        <time>2022-06-25T12:33:20Z</time>
      </trkpt>
      <trkpt lat="46.3216" lon="4.68213">
        <ele>299.4</ele>
        <time>2022-06-25T12:33:21Z</time>
      </trkpt>
      <trkpt lat="46.32157" lon="4.68215">
        <ele>299.6</ele>
        <time>2022-06-25T12:33:22Z</time>
      </trkpt>
      <trkpt lat="46.32153" lon="4.68218">
        <ele>300</ele>
        <time>2022-06-25T12:33:23Z</time>
      </trkpt>
      <trkpt lat="46.32149" lon="4.68219">
        <ele>300.2</ele>
        <time>2022-06-25T12:33:24Z</time>
      </trkpt>
      <trkpt lat="46.32145" lon="4.68221">
        <ele>300.2</ele>
        <time>2022-06-25T12:33:25Z</time>
      </trkpt>
      <trkpt lat="46.32141" lon="4.68223">
        <ele>300.4</ele>
        <time>2022-06-25T12:33:26Z</time>
      </trkpt>
      <trkpt lat="46.32137" lon="4.68225">
        <ele>300.4</ele>
        <time>2022-06-25T12:33:27Z</time>
      </trkpt>
      <trkpt lat="46.32133" lon="4.68226">
        <ele>300.8</ele>
        <time>2022-06-25T12:33:28Z</time>
      </trkpt>
      <trkpt lat="46.32129" lon="4.68227">
        <ele>301</ele>
        <time>2022-06-25T12:33:29Z</time>
      </trkpt>
      <trkpt lat="46.32125" lon="4.68228">
        <ele>301.2</ele>
        <time>2022-06-25T12:33:30Z</time>
      </trkpt>
      <trkpt lat="46.32121" lon="4.68228">
        <ele>301.2</ele>
        <time>2022-06-25T12:33:31Z</time>
      </trkpt>
      <trkpt lat="46.32117" lon="4.68229">
        <ele>301.8</ele>
        <time>2022-06-25T12:33:32Z</time>
      </trkpt>
      <trkpt lat="46.32113" lon="4.6823">
        <ele>301.8</ele>
        <time>2022-06-25T12:33:33Z</time>
      </trkpt>
      <trkpt lat="46.32109" lon="4.6823">
        <ele>302.4</ele>
        <time>2022-06-25T12:33:35Z</time>
      </trkpt>
      <trkpt lat="46.32105" lon="4.6823">
        <ele>302.4</ele>
        <time>2022-06-25T12:33:36Z</time>
      </trkpt>
      <trkpt lat="46.32101" lon="4.6823">
        <ele>302.8</ele>
        <time>2022-06-25T12:33:37Z</time>
      </trkpt>
      <trkpt lat="46.32096" lon="4.6823">
        <ele>302.8</ele>
        <time>2022-06-25T12:33:38Z</time>
      </trkpt>
      <trkpt lat="46.32092" lon="4.68229">
        <ele>303</ele>
        <time>2022-06-25T12:33:39Z</time>
      </trkpt>
      <trkpt lat="46.32088" lon="4.68229">
        <ele>303</ele>
        <time>2022-06-25T12:33:40Z</time>
      </trkpt>
      <trkpt lat="46.32084" lon="4.68228">
        <ele>303.6</ele>
        <time>2022-06-25T12:33:41Z</time>
      </trkpt>
      <trkpt lat="46.32081" lon="4.68227">
        <ele>303.6</ele>
        <time>2022-06-25T12:33:42Z</time>
      </trkpt>
      <trkpt lat="46.32077" lon="4.68226">
        <ele>303.8</ele>
        <time>2022-06-25T12:33:43Z</time>
      </trkpt>
      <trkpt lat="46.32073" lon="4.68225">
        <ele>303.8</ele>
        <time>2022-06-25T12:33:44Z</time>
      </trkpt>
      <trkpt lat="46.3207" lon="4.68224">
        <ele>304</ele>
        <time>2022-06-25T12:33:45Z</time>
      </trkpt>
      <trkpt lat="46.32066" lon="4.68223">
        <ele>304.2</ele>
        <time>2022-06-25T12:33:46Z</time>
      </trkpt>
      <trkpt lat="46.32063" lon="4.68221">
        <ele>304.2</ele>
        <time>2022-06-25T12:33:47Z</time>
      </trkpt>
      <trkpt lat="46.32059" lon="4.6822">
        <ele>304.6</ele>
        <time>2022-06-25T12:33:48Z</time>
      </trkpt>
      <trkpt lat="46.32055" lon="4.68218">
        <ele>304.6</ele>
        <time>2022-06-25T12:33:49Z</time>
      </trkpt>
      <trkpt lat="46.32052" lon="4.68217">
        <ele>304.8</ele>
        <time>2022-06-25T12:33:50Z</time>
      </trkpt>
      <trkpt lat="46.32048" lon="4.68216">
        <ele>304.8</ele>
        <time>2022-06-25T12:33:51Z</time>
      </trkpt>
      <trkpt lat="46.32044" lon="4.68214">
        <ele>305.2</ele>
        <time>2022-06-25T12:33:52Z</time>
      </trkpt>
      <trkpt lat="46.3204" lon="4.68213">
        <ele>305.2</ele>
        <time>2022-06-25T12:33:53Z</time>
      </trkpt>
      <trkpt lat="46.32037" lon="4.68212">
        <ele>305.6</ele>
        <time>2022-06-25T12:33:54Z</time>
      </trkpt>
      <trkpt lat="46.32033" lon="4.68211">
        <ele>305.8</ele>
        <time>2022-06-25T12:33:55Z</time>
      </trkpt>
      <trkpt lat="46.3203" lon="4.6821">
        <ele>305.8</ele>
        <time>2022-06-25T12:33:56Z</time>
      </trkpt>
      <trkpt lat="46.32026" lon="4.68209">
        <ele>306.2</ele>
        <time>2022-06-25T12:33:57Z</time>
      </trkpt>
      <trkpt lat="46.32022" lon="4.68208">
        <ele>306.2</ele>
        <time>2022-06-25T12:33:58Z</time>
      </trkpt>
      <trkpt lat="46.32019" lon="4.68206">
        <ele>306.4</ele>
        <time>2022-06-25T12:33:59Z</time>
      </trkpt>
      <trkpt lat="46.32015" lon="4.68205">
        <ele>306.4</ele>
        <time>2022-06-25T12:34:00Z</time>
      </trkpt>
      <trkpt lat="46.32011" lon="4.68204">
        <ele>306.8</ele>
        <time>2022-06-25T12:34:01Z</time>
      </trkpt>
      <trkpt lat="46.32008" lon="4.68203">
        <ele>306.8</ele>
        <time>2022-06-25T12:34:02Z</time>
      </trkpt>
      <trkpt lat="46.32004" lon="4.68201">
        <ele>307</ele>
        <time>2022-06-25T12:34:03Z</time>
      </trkpt>
      <trkpt lat="46.32001" lon="4.682">
        <ele>307.2</ele>
        <time>2022-06-25T12:34:04Z</time>
      </trkpt>
      <trkpt lat="46.31997" lon="4.68199">
        <ele>307.4</ele>
        <time>2022-06-25T12:34:05Z</time>
      </trkpt>
      <trkpt lat="46.31994" lon="4.68198">
        <ele>307.6</ele>
        <time>2022-06-25T12:34:06Z</time>
      </trkpt>
      <trkpt lat="46.3199" lon="4.68196">
        <ele>308</ele>
        <time>2022-06-25T12:34:07Z</time>
      </trkpt>
      <trkpt lat="46.31987" lon="4.68195">
        <ele>308</ele>
        <time>2022-06-25T12:34:08Z</time>
      </trkpt>
      <trkpt lat="46.31983" lon="4.68194">
        <ele>308.2</ele>
        <time>2022-06-25T12:34:09Z</time>
      </trkpt>
      <trkpt lat="46.3198" lon="4.68193">
        <ele>308.2</ele>
        <time>2022-06-25T12:34:10Z</time>
      </trkpt>
      <trkpt lat="46.31976" lon="4.68192">
        <ele>308.4</ele>
        <time>2022-06-25T12:34:11Z</time>
      </trkpt>
      <trkpt lat="46.31972" lon="4.68191">
        <ele>308.4</ele>
        <time>2022-06-25T12:34:12Z</time>
      </trkpt>
      <trkpt lat="46.31968" lon="4.68189">
        <ele>308.8</ele>
        <time>2022-06-25T12:34:13Z</time>
      </trkpt>
      <trkpt lat="46.31964" lon="4.68188">
        <ele>308.8</ele>
        <time>2022-06-25T12:34:14Z</time>
      </trkpt>
      <trkpt lat="46.3196" lon="4.68186">
        <ele>309.2</ele>
        <time>2022-06-25T12:34:15Z</time>
      </trkpt>
      <trkpt lat="46.31956" lon="4.68185">
        <ele>309.2</ele>
        <time>2022-06-25T12:34:16Z</time>
      </trkpt>
      <trkpt lat="46.31951" lon="4.68183">
        <ele>309.4</ele>
        <time>2022-06-25T12:34:17Z</time>
      </trkpt>
      <trkpt lat="46.31947" lon="4.68182">
        <ele>309.4</ele>
        <time>2022-06-25T12:34:18Z</time>
      </trkpt>
      <trkpt lat="46.31943" lon="4.68181">
        <ele>309.8</ele>
        <time>2022-06-25T12:34:19Z</time>
      </trkpt>
      <trkpt lat="46.31939" lon="4.6818">
        <ele>309.8</ele>
        <time>2022-06-25T12:34:20Z</time>
      </trkpt>
      <trkpt lat="46.31934" lon="4.68178">
        <ele>310.2</ele>
        <time>2022-06-25T12:34:21Z</time>
      </trkpt>
      <trkpt lat="46.3193" lon="4.68177">
        <ele>310.4</ele>
        <time>2022-06-25T12:34:22Z</time>
      </trkpt>
      <trkpt lat="46.31926" lon="4.68176">
        <ele>310.6</ele>
        <time>2022-06-25T12:34:23Z</time>
      </trkpt>
      <trkpt lat="46.31921" lon="4.68174">
        <ele>311</ele>
        <time>2022-06-25T12:34:24Z</time>
      </trkpt>
      <trkpt lat="46.31917" lon="4.68173">
        <ele>311.2</ele>
        <time>2022-06-25T12:34:25Z</time>
      </trkpt>
      <trkpt lat="46.31913" lon="4.68173">
        <ele>311.2</ele>
        <time>2022-06-25T12:34:26Z</time>
      </trkpt>
      <trkpt lat="46.31909" lon="4.68172">
        <ele>311.2</ele>
        <time>2022-06-25T12:34:27Z</time>
      </trkpt>
      <trkpt lat="46.31904" lon="4.68172">
        <ele>311.4</ele>
        <time>2022-06-25T12:34:28Z</time>
      </trkpt>
      <trkpt lat="46.319" lon="4.68171">
        <ele>311.4</ele>
        <time>2022-06-25T12:34:29Z</time>
      </trkpt>
      <trkpt lat="46.31895" lon="4.68171">
        <ele>311.6</ele>
        <time>2022-06-25T12:34:30Z</time>
      </trkpt>
      <trkpt lat="46.31891" lon="4.68171">
        <ele>311.8</ele>
        <time>2022-06-25T12:34:31Z</time>
      </trkpt>
      <trkpt lat="46.31886" lon="4.68171">
        <ele>311.8</ele>
        <time>2022-06-25T12:34:32Z</time>
      </trkpt>
      <trkpt lat="46.31882" lon="4.68172">
        <ele>312</ele>
        <time>2022-06-25T12:34:33Z</time>
      </trkpt>
      <trkpt lat="46.31878" lon="4.68172">
        <ele>312</ele>
        <time>2022-06-25T12:34:34Z</time>
      </trkpt>
      <trkpt lat="46.31873" lon="4.68172">
        <ele>312.4</ele>
        <time>2022-06-25T12:34:35Z</time>
      </trkpt>
      <trkpt lat="46.31869" lon="4.68173">
        <ele>312.4</ele>
        <time>2022-06-25T12:34:36Z</time>
      </trkpt>
      <trkpt lat="46.31865" lon="4.68173">
        <ele>312.6</ele>
        <time>2022-06-25T12:34:37Z</time>
      </trkpt>
      <trkpt lat="46.31861" lon="4.68174">
        <ele>312.6</ele>
        <time>2022-06-25T12:34:38Z</time>
      </trkpt>
      <trkpt lat="46.31857" lon="4.68174">
        <ele>312.8</ele>
        <time>2022-06-25T12:34:39Z</time>
      </trkpt>
      <trkpt lat="46.31852" lon="4.68175">
        <ele>312.8</ele>
        <time>2022-06-25T12:34:40Z</time>
      </trkpt>
      <trkpt lat="46.31848" lon="4.68175">
        <ele>312.8</ele>
        <time>2022-06-25T12:34:41Z</time>
      </trkpt>
      <trkpt lat="46.31844" lon="4.68175">
        <ele>313.2</ele>
        <time>2022-06-25T12:34:42Z</time>
      </trkpt>
      <trkpt lat="46.31839" lon="4.68176">
        <ele>313.2</ele>
        <time>2022-06-25T12:34:43Z</time>
      </trkpt>
      <trkpt lat="46.31835" lon="4.68176">
        <ele>313.6</ele>
        <time>2022-06-25T12:34:44Z</time>
      </trkpt>
      <trkpt lat="46.3183" lon="4.68176">
        <ele>313.6</ele>
        <time>2022-06-25T12:34:45Z</time>
      </trkpt>
      <trkpt lat="46.31826" lon="4.68176">
        <ele>314</ele>
        <time>2022-06-25T12:34:46Z</time>
      </trkpt>
      <trkpt lat="46.31821" lon="4.68177">
        <ele>314</ele>
        <time>2022-06-25T12:34:47Z</time>
      </trkpt>
      <trkpt lat="46.31817" lon="4.68177">
        <ele>314.2</ele>
        <time>2022-06-25T12:34:48Z</time>
      </trkpt>
      <trkpt lat="46.31813" lon="4.68178">
        <ele>314.2</ele>
        <time>2022-06-25T12:34:49Z</time>
      </trkpt>
      <trkpt lat="46.31808" lon="4.68178">
        <ele>314.4</ele>
        <time>2022-06-25T12:34:50Z</time>
      </trkpt>
      <trkpt lat="46.31804" lon="4.68178">
        <ele>314.4</ele>
        <time>2022-06-25T12:34:51Z</time>
      </trkpt>
      <trkpt lat="46.31799" lon="4.68178">
        <ele>314.8</ele>
        <time>2022-06-25T12:34:52Z</time>
      </trkpt>
      <trkpt lat="46.31795" lon="4.68178">
        <ele>314.8</ele>
        <time>2022-06-25T12:34:53Z</time>
      </trkpt>
      <trkpt lat="46.31791" lon="4.68178">
        <ele>315</ele>
        <time>2022-06-25T12:34:54Z</time>
      </trkpt>
      <trkpt lat="46.31786" lon="4.68178">
        <ele>315</ele>
        <time>2022-06-25T12:34:55Z</time>
      </trkpt>
      <trkpt lat="46.31782" lon="4.68178">
        <ele>315.4</ele>
        <time>2022-06-25T12:34:56Z</time>
      </trkpt>
      <trkpt lat="46.31778" lon="4.68178">
        <ele>315.4</ele>
        <time>2022-06-25T12:34:57Z</time>
      </trkpt>
      <trkpt lat="46.31774" lon="4.68178">
        <ele>315.6</ele>
        <time>2022-06-25T12:34:58Z</time>
      </trkpt>
      <trkpt lat="46.3177" lon="4.68178">
        <ele>315.6</ele>
        <time>2022-06-25T12:34:59Z</time>
      </trkpt>
      <trkpt lat="46.31766" lon="4.68178">
        <ele>315.6</ele>
        <time>2022-06-25T12:35:00Z</time>
      </trkpt>
      <trkpt lat="46.31762" lon="4.68177">
        <ele>315.8</ele>
        <time>2022-06-25T12:35:01Z</time>
      </trkpt>
      <trkpt lat="46.31757" lon="4.68177">
        <ele>315.8</ele>
        <time>2022-06-25T12:35:02Z</time>
      </trkpt>
      <trkpt lat="46.31753" lon="4.68177">
        <ele>316</ele>
        <time>2022-06-25T12:35:03Z</time>
      </trkpt>
      <trkpt lat="46.31749" lon="4.68177">
        <ele>316</ele>
        <time>2022-06-25T12:35:04Z</time>
      </trkpt>
      <trkpt lat="46.31745" lon="4.68178">
        <ele>316.4</ele>
        <time>2022-06-25T12:35:05Z</time>
      </trkpt>
      <trkpt lat="46.31741" lon="4.68178">
        <ele>316.4</ele>
        <time>2022-06-25T12:35:06Z</time>
      </trkpt>
      <trkpt lat="46.31737" lon="4.68179">
        <ele>316.6</ele>
        <time>2022-06-25T12:35:07Z</time>
      </trkpt>
      <trkpt lat="46.31733" lon="4.68179">
        <ele>316.6</ele>
        <time>2022-06-25T12:35:08Z</time>
      </trkpt>
      <trkpt lat="46.31729" lon="4.6818">
        <ele>316.8</ele>
        <time>2022-06-25T12:35:09Z</time>
      </trkpt>
      <trkpt lat="46.31725" lon="4.68181">
        <ele>316.8</ele>
        <time>2022-06-25T12:35:10Z</time>
      </trkpt>
      <trkpt lat="46.31721" lon="4.68183">
        <ele>317.2</ele>
        <time>2022-06-25T12:35:11Z</time>
      </trkpt>
      <trkpt lat="46.31717" lon="4.68184">
        <ele>317.4</ele>
        <time>2022-06-25T12:35:12Z</time>
      </trkpt>
      <trkpt lat="46.31713" lon="4.68185">
        <ele>317.4</ele>
        <time>2022-06-25T12:35:13Z</time>
      </trkpt>
      <trkpt lat="46.31709" lon="4.68186">
        <ele>317.6</ele>
        <time>2022-06-25T12:35:14Z</time>
      </trkpt>
      <trkpt lat="46.31704" lon="4.68186">
        <ele>317.6</ele>
        <time>2022-06-25T12:35:15Z</time>
      </trkpt>
      <trkpt lat="46.317" lon="4.68187">
        <ele>318.2</ele>
        <time>2022-06-25T12:35:16Z</time>
      </trkpt>
      <trkpt lat="46.31696" lon="4.68187">
        <ele>318.2</ele>
        <time>2022-06-25T12:35:17Z</time>
      </trkpt>
      <trkpt lat="46.31692" lon="4.68187">
        <ele>318.2</ele>
        <time>2022-06-25T12:35:18Z</time>
      </trkpt>
      <trkpt lat="46.31688" lon="4.68188">
        <ele>318.4</ele>
        <time>2022-06-25T12:35:19Z</time>
      </trkpt>
      <trkpt lat="46.31684" lon="4.68188">
        <ele>318.4</ele>
        <time>2022-06-25T12:35:20Z</time>
      </trkpt>
      <trkpt lat="46.3168" lon="4.68187">
        <ele>318.6</ele>
        <time>2022-06-25T12:35:21Z</time>
      </trkpt>
      <trkpt lat="46.31676" lon="4.68186">
        <ele>319</ele>
        <time>2022-06-25T12:35:22Z</time>
      </trkpt>
      <trkpt lat="46.31672" lon="4.68185">
        <ele>319</ele>
        <time>2022-06-25T12:35:23Z</time>
      </trkpt>
      <trkpt lat="46.31668" lon="4.68184">
        <ele>319</ele>
        <time>2022-06-25T12:35:24Z</time>
      </trkpt>
      <trkpt lat="46.31664" lon="4.68183">
        <ele>319</ele>
        <time>2022-06-25T12:35:25Z</time>
      </trkpt>
      <trkpt lat="46.3166" lon="4.68182">
        <ele>319.2</ele>
        <time>2022-06-25T12:35:26Z</time>
      </trkpt>
      <trkpt lat="46.31657" lon="4.6818">
        <ele>319.2</ele>
        <time>2022-06-25T12:35:27Z</time>
      </trkpt>
      <trkpt lat="46.31653" lon="4.68178">
        <ele>319.6</ele>
        <time>2022-06-25T12:35:28Z</time>
      </trkpt>
      <trkpt lat="46.31649" lon="4.68176">
        <ele>319.6</ele>
        <time>2022-06-25T12:35:29Z</time>
      </trkpt>
      <trkpt lat="46.31645" lon="4.68174">
        <ele>319.8</ele>
        <time>2022-06-25T12:35:30Z</time>
      </trkpt>
      <trkpt lat="46.31641" lon="4.68172">
        <ele>319.8</ele>
        <time>2022-06-25T12:35:31Z</time>
      </trkpt>
      <trkpt lat="46.31637" lon="4.6817">
        <ele>320.2</ele>
        <time>2022-06-25T12:35:32Z</time>
      </trkpt>
      <trkpt lat="46.31633" lon="4.68167">
        <ele>320.2</ele>
        <time>2022-06-25T12:35:33Z</time>
      </trkpt>
      <trkpt lat="46.3163" lon="4.68165">
        <ele>320.6</ele>
        <time>2022-06-25T12:35:34Z</time>
      </trkpt>
      <trkpt lat="46.31626" lon="4.68162">
        <ele>320.6</ele>
        <time>2022-06-25T12:35:35Z</time>
      </trkpt>
      <trkpt lat="46.31622" lon="4.6816">
        <ele>320.8</ele>
        <time>2022-06-25T12:35:36Z</time>
      </trkpt>
      <trkpt lat="46.31619" lon="4.68158">
        <ele>321</ele>
        <time>2022-06-25T12:35:37Z</time>
      </trkpt>
      <trkpt lat="46.31616" lon="4.68155">
        <ele>321</ele>
        <time>2022-06-25T12:35:38Z</time>
      </trkpt>
      <trkpt lat="46.31612" lon="4.68153">
        <ele>321.4</ele>
        <time>2022-06-25T12:35:39Z</time>
      </trkpt>
      <trkpt lat="46.31609" lon="4.68151">
        <ele>321.4</ele>
        <time>2022-06-25T12:35:40Z</time>
      </trkpt>
      <trkpt lat="46.31606" lon="4.68149">
        <ele>321.8</ele>
        <time>2022-06-25T12:35:41Z</time>
      </trkpt>
      <trkpt lat="46.31602" lon="4.68147">
        <ele>322</ele>
        <time>2022-06-25T12:35:42Z</time>
      </trkpt>
      <trkpt lat="46.31599" lon="4.68144">
        <ele>322</ele>
        <time>2022-06-25T12:35:43Z</time>
      </trkpt>
      <trkpt lat="46.31596" lon="4.68142">
        <ele>322.4</ele>
        <time>2022-06-25T12:35:44Z</time>
      </trkpt>
      <trkpt lat="46.31593" lon="4.6814">
        <ele>322.4</ele>
        <time>2022-06-25T12:35:45Z</time>
      </trkpt>
      <trkpt lat="46.31589" lon="4.68138">
        <ele>322.6</ele>
        <time>2022-06-25T12:35:46Z</time>
      </trkpt>
      <trkpt lat="46.31586" lon="4.68136">
        <ele>322.6</ele>
        <time>2022-06-25T12:35:47Z</time>
      </trkpt>
      <trkpt lat="46.31583" lon="4.68134">
        <ele>323</ele>
        <time>2022-06-25T12:35:48Z</time>
      </trkpt>
      <trkpt lat="46.3158" lon="4.68132">
        <ele>323</ele>
        <time>2022-06-25T12:35:49Z</time>
      </trkpt>
      <trkpt lat="46.31576" lon="4.68131">
        <ele>323.4</ele>
        <time>2022-06-25T12:35:50Z</time>
      </trkpt>
      <trkpt lat="46.31573" lon="4.68129">
        <ele>323.4</ele>
        <time>2022-06-25T12:35:51Z</time>
      </trkpt>
      <trkpt lat="46.3157" lon="4.68128">
        <ele>323.8</ele>
        <time>2022-06-25T12:35:52Z</time>
      </trkpt>
      <trkpt lat="46.31567" lon="4.68126">
        <ele>323.8</ele>
        <time>2022-06-25T12:35:53Z</time>
      </trkpt>
      <trkpt lat="46.31563" lon="4.68125">
        <ele>324</ele>
        <time>2022-06-25T12:35:54Z</time>
      </trkpt>
      <trkpt lat="46.3156" lon="4.68124">
        <ele>324</ele>
        <time>2022-06-25T12:35:55Z</time>
      </trkpt>
      <trkpt lat="46.31557" lon="4.68122">
        <ele>324</ele>
        <time>2022-06-25T12:35:56Z</time>
      </trkpt>
      <trkpt lat="46.31553" lon="4.68121">
        <ele>324.4</ele>
        <time>2022-06-25T12:35:57Z</time>
      </trkpt>
      <trkpt lat="46.3155" lon="4.68119">
        <ele>324.4</ele>
        <time>2022-06-25T12:35:58Z</time>
      </trkpt>
      <trkpt lat="46.31546" lon="4.68118">
        <ele>324.6</ele>
        <time>2022-06-25T12:35:59Z</time>
      </trkpt>
      <trkpt lat="46.31543" lon="4.68118">
        <ele>324.6</ele>
        <time>2022-06-25T12:36:00Z</time>
      </trkpt>
      <trkpt lat="46.31539" lon="4.68117">
        <ele>325</ele>
        <time>2022-06-25T12:36:01Z</time>
      </trkpt>
      <trkpt lat="46.31536" lon="4.68117">
        <ele>325</ele>
        <time>2022-06-25T12:36:02Z</time>
      </trkpt>
      <trkpt lat="46.31533" lon="4.68116">
        <ele>325.4</ele>
        <time>2022-06-25T12:36:03Z</time>
      </trkpt>
      <trkpt lat="46.31529" lon="4.68116">
        <ele>325.6</ele>
        <time>2022-06-25T12:36:04Z</time>
      </trkpt>
      <trkpt lat="46.31525" lon="4.68115">
        <ele>325.6</ele>
        <time>2022-06-25T12:36:05Z</time>
      </trkpt>
      <trkpt lat="46.31522" lon="4.68115">
        <ele>325.8</ele>
        <time>2022-06-25T12:36:06Z</time>
      </trkpt>
      <trkpt lat="46.31518" lon="4.68115">
        <ele>325.8</ele>
        <time>2022-06-25T12:36:07Z</time>
      </trkpt>
      <trkpt lat="46.31515" lon="4.68115">
        <ele>326.2</ele>
        <time>2022-06-25T12:36:08Z</time>
      </trkpt>
      <trkpt lat="46.31511" lon="4.68114">
        <ele>326.4</ele>
        <time>2022-06-25T12:36:09Z</time>
      </trkpt>
      <trkpt lat="46.31508" lon="4.68114">
        <ele>326.4</ele>
        <time>2022-06-25T12:36:10Z</time>
      </trkpt>
      <trkpt lat="46.31504" lon="4.68114">
        <ele>326.6</ele>
        <time>2022-06-25T12:36:11Z</time>
      </trkpt>
      <trkpt lat="46.31501" lon="4.68114">
        <ele>326.6</ele>
        <time>2022-06-25T12:36:12Z</time>
      </trkpt>
      <trkpt lat="46.31497" lon="4.68114">
        <ele>327</ele>
        <time>2022-06-25T12:36:13Z</time>
      </trkpt>
      <trkpt lat="46.31494" lon="4.68115">
        <ele>327</ele>
        <time>2022-06-25T12:36:14Z</time>
      </trkpt>
      <trkpt lat="46.31487" lon="4.68115">
        <ele>327.2</ele>
        <time>2022-06-25T12:36:15Z</time>
      </trkpt>
      <trkpt lat="46.31484" lon="4.68115">
        <ele>327.2</ele>
        <time>2022-06-25T12:36:16Z</time>
      </trkpt>
      <trkpt lat="46.31481" lon="4.68115">
        <ele>327.4</ele>
        <time>2022-06-25T12:36:17Z</time>
      </trkpt>
      <trkpt lat="46.31477" lon="4.68115">
        <ele>327.4</ele>
        <time>2022-06-25T12:36:18Z</time>
      </trkpt>
      <trkpt lat="46.31474" lon="4.68115">
        <ele>327.8</ele>
        <time>2022-06-25T12:36:19Z</time>
      </trkpt>
      <trkpt lat="46.31471" lon="4.68116">
        <ele>328</ele>
        <time>2022-06-25T12:36:20Z</time>
      </trkpt>
      <trkpt lat="46.31467" lon="4.68116">
        <ele>328</ele>
        <time>2022-06-25T12:36:21Z</time>
      </trkpt>
      <trkpt lat="46.31464" lon="4.68116">
        <ele>328.4</ele>
        <time>2022-06-25T12:36:22Z</time>
      </trkpt>
      <trkpt lat="46.3146" lon="4.68115">
        <ele>328.4</ele>
        <time>2022-06-25T12:36:23Z</time>
      </trkpt>
      <trkpt lat="46.31457" lon="4.68114">
        <ele>328.6</ele>
        <time>2022-06-25T12:36:24Z</time>
      </trkpt>
      <trkpt lat="46.31454" lon="4.68114">
        <ele>328.6</ele>
        <time>2022-06-25T12:36:25Z</time>
      </trkpt>
      <trkpt lat="46.3145" lon="4.68113">
        <ele>329</ele>
        <time>2022-06-25T12:36:26Z</time>
      </trkpt>
      <trkpt lat="46.31447" lon="4.68112">
        <ele>329</ele>
        <time>2022-06-25T12:36:27Z</time>
      </trkpt>
      <trkpt lat="46.31444" lon="4.68112">
        <ele>329.2</ele>
        <time>2022-06-25T12:36:28Z</time>
      </trkpt>
      <trkpt lat="46.3144" lon="4.68111">
        <ele>329.2</ele>
        <time>2022-06-25T12:36:29Z</time>
      </trkpt>
      <trkpt lat="46.31437" lon="4.6811">
        <ele>329.4</ele>
        <time>2022-06-25T12:36:30Z</time>
      </trkpt>
      <trkpt lat="46.31434" lon="4.68109">
        <ele>329.4</ele>
        <time>2022-06-25T12:36:31Z</time>
      </trkpt>
      <trkpt lat="46.3143" lon="4.68108">
        <ele>329.6</ele>
        <time>2022-06-25T12:36:32Z</time>
      </trkpt>
      <trkpt lat="46.31427" lon="4.68107">
        <ele>329.6</ele>
        <time>2022-06-25T12:36:33Z</time>
      </trkpt>
      <trkpt lat="46.31423" lon="4.68106">
        <ele>330</ele>
        <time>2022-06-25T12:36:34Z</time>
      </trkpt>
      <trkpt lat="46.3142" lon="4.68105">
        <ele>330</ele>
        <time>2022-06-25T12:36:35Z</time>
      </trkpt>
      <trkpt lat="46.31416" lon="4.68104">
        <ele>330.2</ele>
        <time>2022-06-25T12:36:36Z</time>
      </trkpt>
      <trkpt lat="46.31413" lon="4.68103">
        <ele>330.2</ele>
        <time>2022-06-25T12:36:37Z</time>
      </trkpt>
      <trkpt lat="46.31409" lon="4.68102">
        <ele>330.6</ele>
        <time>2022-06-25T12:36:38Z</time>
      </trkpt>
      <trkpt lat="46.31406" lon="4.681">
        <ele>330.6</ele>
        <time>2022-06-25T12:36:39Z</time>
      </trkpt>
      <trkpt lat="46.31402" lon="4.68099">
        <ele>330.8</ele>
        <time>2022-06-25T12:36:40Z</time>
      </trkpt>
      <trkpt lat="46.31398" lon="4.68098">
        <ele>330.8</ele>
        <time>2022-06-25T12:36:41Z</time>
      </trkpt>
      <trkpt lat="46.31395" lon="4.68097">
        <ele>330.8</ele>
        <time>2022-06-25T12:36:42Z</time>
      </trkpt>
      <trkpt lat="46.31391" lon="4.68096">
        <ele>330.8</ele>
        <time>2022-06-25T12:36:43Z</time>
      </trkpt>
      <trkpt lat="46.31387" lon="4.68095">
        <ele>331.2</ele>
        <time>2022-06-25T12:36:44Z</time>
      </trkpt>
      <trkpt lat="46.31383" lon="4.68094">
        <ele>331.2</ele>
        <time>2022-06-25T12:36:45Z</time>
      </trkpt>
      <trkpt lat="46.3138" lon="4.68092">
        <ele>331.2</ele>
        <time>2022-06-25T12:36:46Z</time>
      </trkpt>
      <trkpt lat="46.31376" lon="4.68091">
        <ele>331.4</ele>
        <time>2022-06-25T12:36:47Z</time>
      </trkpt>
      <trkpt lat="46.31372" lon="4.68089">
        <ele>331.4</ele>
        <time>2022-06-25T12:36:48Z</time>
      </trkpt>
      <trkpt lat="46.31368" lon="4.68088">
        <ele>331.4</ele>
        <time>2022-06-25T12:36:49Z</time>
      </trkpt>
      <trkpt lat="46.31364" lon="4.68087">
        <ele>331.4</ele>
        <time>2022-06-25T12:36:50Z</time>
      </trkpt>
      <trkpt lat="46.3136" lon="4.68086">
        <ele>331.6</ele>
        <time>2022-06-25T12:36:51Z</time>
      </trkpt>
      <trkpt lat="46.31356" lon="4.68084">
        <ele>331.6</ele>
        <time>2022-06-25T12:36:52Z</time>
      </trkpt>
      <trkpt lat="46.31352" lon="4.68083">
        <ele>331.6</ele>
        <time>2022-06-25T12:36:53Z</time>
      </trkpt>
      <trkpt lat="46.31348" lon="4.68082">
        <ele>331.6</ele>
        <time>2022-06-25T12:36:54Z</time>
      </trkpt>
      <trkpt lat="46.31344" lon="4.68081">
        <ele>331.6</ele>
        <time>2022-06-25T12:36:55Z</time>
      </trkpt>
      <trkpt lat="46.3134" lon="4.6808">
        <ele>331.6</ele>
        <time>2022-06-25T12:36:56Z</time>
      </trkpt>
      <trkpt lat="46.31337" lon="4.68079">
        <ele>331.6</ele>
        <time>2022-06-25T12:36:57Z</time>
      </trkpt>
      <trkpt lat="46.31334" lon="4.68077">
        <ele>331.8</ele>
        <time>2022-06-25T12:36:58Z</time>
      </trkpt>
      <trkpt lat="46.31331" lon="4.68076">
        <ele>331.8</ele>
        <time>2022-06-25T12:36:59Z</time>
      </trkpt>
      <trkpt lat="46.31328" lon="4.68075">
        <ele>331.8</ele>
        <time>2022-06-25T12:37:00Z</time>
      </trkpt>
      <trkpt lat="46.31325" lon="4.68074">
        <ele>331.8</ele>
        <time>2022-06-25T12:37:01Z</time>
      </trkpt>
      <trkpt lat="46.31322" lon="4.68072">
        <ele>332.2</ele>
        <time>2022-06-25T12:37:02Z</time>
      </trkpt>
      <trkpt lat="46.3132" lon="4.68071">
        <ele>332.2</ele>
        <time>2022-06-25T12:37:03Z</time>
      </trkpt>
      <trkpt lat="46.31317" lon="4.6807">
        <ele>332.2</ele>
        <time>2022-06-25T12:37:04Z</time>
      </trkpt>
      <trkpt lat="46.31313" lon="4.68069">
        <ele>332.4</ele>
        <time>2022-06-25T12:37:05Z</time>
      </trkpt>
      <trkpt lat="46.3131" lon="4.68068">
        <ele>332.4</ele>
        <time>2022-06-25T12:37:06Z</time>
      </trkpt>
      <trkpt lat="46.31307" lon="4.68067">
        <ele>332.4</ele>
        <time>2022-06-25T12:37:07Z</time>
      </trkpt>
      <trkpt lat="46.31303" lon="4.68065">
        <ele>332.4</ele>
        <time>2022-06-25T12:37:08Z</time>
      </trkpt>
      <trkpt lat="46.31299" lon="4.68064">
        <ele>332.4</ele>
        <time>2022-06-25T12:37:09Z</time>
      </trkpt>
      <trkpt lat="46.31295" lon="4.68063">
        <ele>332.4</ele>
        <time>2022-06-25T12:37:10Z</time>
      </trkpt>
      <trkpt lat="46.31291" lon="4.68061">
        <ele>332.4</ele>
        <time>2022-06-25T12:37:11Z</time>
      </trkpt>
      <trkpt lat="46.31287" lon="4.6806">
        <ele>332.4</ele>
        <time>2022-06-25T12:37:12Z</time>
      </trkpt>
      <trkpt lat="46.31283" lon="4.68058">
        <ele>332.2</ele>
        <time>2022-06-25T12:37:13Z</time>
      </trkpt>
      <trkpt lat="46.31279" lon="4.68056">
        <ele>332.2</ele>
        <time>2022-06-25T12:37:14Z</time>
      </trkpt>
      <trkpt lat="46.31274" lon="4.68054">
        <ele>332</ele>
        <time>2022-06-25T12:37:15Z</time>
      </trkpt>
      <trkpt lat="46.31269" lon="4.68052">
        <ele>332</ele>
        <time>2022-06-25T12:37:16Z</time>
      </trkpt>
      <trkpt lat="46.31264" lon="4.6805">
        <ele>331.6</ele>
        <time>2022-06-25T12:37:17Z</time>
      </trkpt>
      <trkpt lat="46.31259" lon="4.68047">
        <ele>331.4</ele>
        <time>2022-06-25T12:37:18Z</time>
      </trkpt>
      <trkpt lat="46.31253" lon="4.68045">
        <ele>331.2</ele>
        <time>2022-06-25T12:37:19Z</time>
      </trkpt>
      <trkpt lat="46.31247" lon="4.68043">
        <ele>331.2</ele>
        <time>2022-06-25T12:37:20Z</time>
      </trkpt>
      <trkpt lat="46.31241" lon="4.6804">
        <ele>330.8</ele>
        <time>2022-06-25T12:37:21Z</time>
      </trkpt>
      <trkpt lat="46.31234" lon="4.68038">
        <ele>330.6</ele>
        <time>2022-06-25T12:37:22Z</time>
      </trkpt>
      <trkpt lat="46.31228" lon="4.68035">
        <ele>330.2</ele>
        <time>2022-06-25T12:37:23Z</time>
      </trkpt>
      <trkpt lat="46.31221" lon="4.68033">
        <ele>329.8</ele>
        <time>2022-06-25T12:37:24Z</time>
      </trkpt>
      <trkpt lat="46.31214" lon="4.6803">
        <ele>329.4</ele>
        <time>2022-06-25T12:37:25Z</time>
      </trkpt>
      <trkpt lat="46.31207" lon="4.68027">
        <ele>329</ele>
        <time>2022-06-25T12:37:26Z</time>
      </trkpt>
      <trkpt lat="46.312" lon="4.68025">
        <ele>328.6</ele>
        <time>2022-06-25T12:37:27Z</time>
      </trkpt>
      <trkpt lat="46.31192" lon="4.68022">
        <ele>328.2</ele>
        <time>2022-06-25T12:37:28Z</time>
      </trkpt>
      <trkpt lat="46.31185" lon="4.68018">
        <ele>328.2</ele>
        <time>2022-06-25T12:37:29Z</time>
      </trkpt>
      <trkpt lat="46.31178" lon="4.68013">
        <ele>328</ele>
        <time>2022-06-25T12:37:30Z</time>
      </trkpt>
      <trkpt lat="46.31166" lon="4.68002">
        <ele>327.8</ele>
        <time>2022-06-25T12:37:31Z</time>
      </trkpt>
      <trkpt lat="46.3116" lon="4.67995">
        <ele>327.8</ele>
        <time>2022-06-25T12:37:32Z</time>
      </trkpt>
      <trkpt lat="46.31156" lon="4.67987">
        <ele>327.4</ele>
        <time>2022-06-25T12:37:33Z</time>
      </trkpt>
      <trkpt lat="46.31151" lon="4.67979">
        <ele>327.4</ele>
        <time>2022-06-25T12:37:34Z</time>
      </trkpt>
      <trkpt lat="46.31145" lon="4.67972">
        <ele>327.4</ele>
        <time>2022-06-25T12:37:35Z</time>
      </trkpt>
      <trkpt lat="46.3114" lon="4.67964">
        <ele>327.2</ele>
        <time>2022-06-25T12:37:36Z</time>
      </trkpt>
      <trkpt lat="46.31135" lon="4.67957">
        <ele>327.2</ele>
        <time>2022-06-25T12:37:37Z</time>
      </trkpt>
      <trkpt lat="46.3113" lon="4.6795">
        <ele>327.2</ele>
        <time>2022-06-25T12:37:38Z</time>
      </trkpt>
      <trkpt lat="46.31124" lon="4.67944">
        <ele>327.2</ele>
        <time>2022-06-25T12:37:39Z</time>
      </trkpt>
      <trkpt lat="46.31119" lon="4.67938">
        <ele>327.2</ele>
        <time>2022-06-25T12:37:40Z</time>
      </trkpt>
      <trkpt lat="46.31114" lon="4.67931">
        <ele>327.2</ele>
        <time>2022-06-25T12:37:41Z</time>
      </trkpt>
      <trkpt lat="46.31109" lon="4.67924">
        <ele>327.2</ele>
        <time>2022-06-25T12:37:42Z</time>
      </trkpt>
      <trkpt lat="46.31104" lon="4.67918">
        <ele>326.8</ele>
        <time>2022-06-25T12:37:43Z</time>
      </trkpt>
      <trkpt lat="46.31099" lon="4.67912">
        <ele>326.8</ele>
        <time>2022-06-25T12:37:44Z</time>
      </trkpt>
      <trkpt lat="46.31094" lon="4.67906">
        <ele>326.8</ele>
        <time>2022-06-25T12:37:45Z</time>
      </trkpt>
      <trkpt lat="46.31089" lon="4.679">
        <ele>326.8</ele>
        <time>2022-06-25T12:37:46Z</time>
      </trkpt>
      <trkpt lat="46.31084" lon="4.67894">
        <ele>326.8</ele>
        <time>2022-06-25T12:37:47Z</time>
      </trkpt>
      <trkpt lat="46.31078" lon="4.67888">
        <ele>326.8</ele>
        <time>2022-06-25T12:37:48Z</time>
      </trkpt>
      <trkpt lat="46.31073" lon="4.67882">
        <ele>326.8</ele>
        <time>2022-06-25T12:37:49Z</time>
      </trkpt>
      <trkpt lat="46.31068" lon="4.67876">
        <ele>326.8</ele>
        <time>2022-06-25T12:37:50Z</time>
      </trkpt>
      <trkpt lat="46.31062" lon="4.6787">
        <ele>326.8</ele>
        <time>2022-06-25T12:37:51Z</time>
      </trkpt>
      <trkpt lat="46.31057" lon="4.67865">
        <ele>326.8</ele>
        <time>2022-06-25T12:37:52Z</time>
      </trkpt>
      <trkpt lat="46.31052" lon="4.67858">
        <ele>326.8</ele>
        <time>2022-06-25T12:37:53Z</time>
      </trkpt>
      <trkpt lat="46.31047" lon="4.67852">
        <ele>326.6</ele>
        <time>2022-06-25T12:37:54Z</time>
      </trkpt>
      <trkpt lat="46.31042" lon="4.67847">
        <ele>326.6</ele>
        <time>2022-06-25T12:37:55Z</time>
      </trkpt>
      <trkpt lat="46.31036" lon="4.67841">
        <ele>326.6</ele>
        <time>2022-06-25T12:37:56Z</time>
      </trkpt>
      <trkpt lat="46.31031" lon="4.67835">
        <ele>326.6</ele>
        <time>2022-06-25T12:37:57Z</time>
      </trkpt>
      <trkpt lat="46.31026" lon="4.67829">
        <ele>326.6</ele>
        <time>2022-06-25T12:37:58Z</time>
      </trkpt>
      <trkpt lat="46.31021" lon="4.67824">
        <ele>326.4</ele>
        <time>2022-06-25T12:37:59Z</time>
      </trkpt>
      <trkpt lat="46.31016" lon="4.67818">
        <ele>326.4</ele>
        <time>2022-06-25T12:38:00Z</time>
      </trkpt>
      <trkpt lat="46.31011" lon="4.67812">
        <ele>326.4</ele>
        <time>2022-06-25T12:38:01Z</time>
      </trkpt>
      <trkpt lat="46.31007" lon="4.67807">
        <ele>326.4</ele>
        <time>2022-06-25T12:38:02Z</time>
      </trkpt>
      <trkpt lat="46.31002" lon="4.67802">
        <ele>326.4</ele>
        <time>2022-06-25T12:38:03Z</time>
      </trkpt>
      <trkpt lat="46.30997" lon="4.67796">
        <ele>326.4</ele>
        <time>2022-06-25T12:38:04Z</time>
      </trkpt>
      <trkpt lat="46.30993" lon="4.67791">
        <ele>326.4</ele>
        <time>2022-06-25T12:38:05Z</time>
      </trkpt>
      <trkpt lat="46.30988" lon="4.67785">
        <ele>326.4</ele>
        <time>2022-06-25T12:38:06Z</time>
      </trkpt>
      <trkpt lat="46.30983" lon="4.67779">
        <ele>326.6</ele>
        <time>2022-06-25T12:38:07Z</time>
      </trkpt>
      <trkpt lat="46.30978" lon="4.67774">
        <ele>326.6</ele>
        <time>2022-06-25T12:38:08Z</time>
      </trkpt>
      <trkpt lat="46.30974" lon="4.67769">
        <ele>326.6</ele>
        <time>2022-06-25T12:38:09Z</time>
      </trkpt>
      <trkpt lat="46.30969" lon="4.67764">
        <ele>326.6</ele>
        <time>2022-06-25T12:38:10Z</time>
      </trkpt>
      <trkpt lat="46.30964" lon="4.67759">
        <ele>327</ele>
        <time>2022-06-25T12:38:11Z</time>
      </trkpt>
      <trkpt lat="46.3096" lon="4.67754">
        <ele>327</ele>
        <time>2022-06-25T12:38:12Z</time>
      </trkpt>
      <trkpt lat="46.30955" lon="4.67748">
        <ele>327</ele>
        <time>2022-06-25T12:38:13Z</time>
      </trkpt>
      <trkpt lat="46.30951" lon="4.67743">
        <ele>327.2</ele>
        <time>2022-06-25T12:38:14Z</time>
      </trkpt>
      <trkpt lat="46.30946" lon="4.67738">
        <ele>327.2</ele>
        <time>2022-06-25T12:38:15Z</time>
      </trkpt>
      <trkpt lat="46.30942" lon="4.67733">
        <ele>327.2</ele>
        <time>2022-06-25T12:38:16Z</time>
      </trkpt>
      <trkpt lat="46.30938" lon="4.67729">
        <ele>327.2</ele>
        <time>2022-06-25T12:38:17Z</time>
      </trkpt>
      <trkpt lat="46.30934" lon="4.67724">
        <ele>327.2</ele>
        <time>2022-06-25T12:38:18Z</time>
      </trkpt>
      <trkpt lat="46.3093" lon="4.6772">
        <ele>327.2</ele>
        <time>2022-06-25T12:38:19Z</time>
      </trkpt>
      <trkpt lat="46.30926" lon="4.67715">
        <ele>327.4</ele>
        <time>2022-06-25T12:38:20Z</time>
      </trkpt>
      <trkpt lat="46.30923" lon="4.6771">
        <ele>327.4</ele>
        <time>2022-06-25T12:38:21Z</time>
      </trkpt>
      <trkpt lat="46.30919" lon="4.67706">
        <ele>327.4</ele>
        <time>2022-06-25T12:38:22Z</time>
      </trkpt>
      <trkpt lat="46.30915" lon="4.67701">
        <ele>327.4</ele>
        <time>2022-06-25T12:38:23Z</time>
      </trkpt>
      <trkpt lat="46.30911" lon="4.67697">
        <ele>327.4</ele>
        <time>2022-06-25T12:38:24Z</time>
      </trkpt>
      <trkpt lat="46.30908" lon="4.67694">
        <ele>327.4</ele>
        <time>2022-06-25T12:38:25Z</time>
      </trkpt>
      <trkpt lat="46.30905" lon="4.6769">
        <ele>327.6</ele>
        <time>2022-06-25T12:38:26Z</time>
      </trkpt>
      <trkpt lat="46.30901" lon="4.67689">
        <ele>327.6</ele>
        <time>2022-06-25T12:38:27Z</time>
      </trkpt>
      <trkpt lat="46.30898" lon="4.67689">
        <ele>327.6</ele>
        <time>2022-06-25T12:38:28Z</time>
      </trkpt>
      <trkpt lat="46.30895" lon="4.67692">
        <ele>327.6</ele>
        <time>2022-06-25T12:38:29Z</time>
      </trkpt>
      <trkpt lat="46.30893" lon="4.67696">
        <ele>327.8</ele>
        <time>2022-06-25T12:38:30Z</time>
      </trkpt>
      <trkpt lat="46.30891" lon="4.67701">
        <ele>327.8</ele>
        <time>2022-06-25T12:38:31Z</time>
      </trkpt>
      <trkpt lat="46.3089" lon="4.67705">
        <ele>327.8</ele>
        <time>2022-06-25T12:38:32Z</time>
      </trkpt>
      <trkpt lat="46.30889" lon="4.67709">
        <ele>328.2</ele>
        <time>2022-06-25T12:38:33Z</time>
      </trkpt>
      <trkpt lat="46.30888" lon="4.67714">
        <ele>328.2</ele>
        <time>2022-06-25T12:38:34Z</time>
      </trkpt>
      <trkpt lat="46.30886" lon="4.67718">
        <ele>328.6</ele>
        <time>2022-06-25T12:38:35Z</time>
      </trkpt>
      <trkpt lat="46.30885" lon="4.67723">
        <ele>328.6</ele>
        <time>2022-06-25T12:38:36Z</time>
      </trkpt>
      <trkpt lat="46.30884" lon="4.67728">
        <ele>329</ele>
        <time>2022-06-25T12:38:37Z</time>
      </trkpt>
      <trkpt lat="46.30883" lon="4.67733">
        <ele>329</ele>
        <time>2022-06-25T12:38:38Z</time>
      </trkpt>
      <trkpt lat="46.30882" lon="4.67738">
        <ele>329.2</ele>
        <time>2022-06-25T12:38:39Z</time>
      </trkpt>
      <trkpt lat="46.30881" lon="4.67743">
        <ele>329.4</ele>
        <time>2022-06-25T12:38:40Z</time>
      </trkpt>
      <trkpt lat="46.3088" lon="4.67748">
        <ele>329.4</ele>
        <time>2022-06-25T12:38:41Z</time>
      </trkpt>
      <trkpt lat="46.30879" lon="4.67752">
        <ele>329.8</ele>
        <time>2022-06-25T12:38:42Z</time>
      </trkpt>
      <trkpt lat="46.30878" lon="4.67757">
        <ele>330</ele>
        <time>2022-06-25T12:38:43Z</time>
      </trkpt>
      <trkpt lat="46.30877" lon="4.67761">
        <ele>330</ele>
        <time>2022-06-25T12:38:44Z</time>
      </trkpt>
      <trkpt lat="46.30876" lon="4.67765">
        <ele>330.4</ele>
        <time>2022-06-25T12:38:45Z</time>
      </trkpt>
      <trkpt lat="46.30875" lon="4.6777">
        <ele>330.4</ele>
        <time>2022-06-25T12:38:46Z</time>
      </trkpt>
      <trkpt lat="46.30874" lon="4.67774">
        <ele>330.6</ele>
        <time>2022-06-25T12:38:47Z</time>
      </trkpt>
      <trkpt lat="46.30873" lon="4.67778">
        <ele>331</ele>
        <time>2022-06-25T12:38:48Z</time>
      </trkpt>
      <trkpt lat="46.30872" lon="4.67782">
        <ele>331</ele>
        <time>2022-06-25T12:38:49Z</time>
      </trkpt>
      <trkpt lat="46.30871" lon="4.67786">
        <ele>331.4</ele>
        <time>2022-06-25T12:38:50Z</time>
      </trkpt>
      <trkpt lat="46.3087" lon="4.6779">
        <ele>331.4</ele>
        <time>2022-06-25T12:38:51Z</time>
      </trkpt>
      <trkpt lat="46.30869" lon="4.67795">
        <ele>331.6</ele>
        <time>2022-06-25T12:38:52Z</time>
      </trkpt>
      <trkpt lat="46.30868" lon="4.67799">
        <ele>331.6</ele>
        <time>2022-06-25T12:38:53Z</time>
      </trkpt>
      <trkpt lat="46.30866" lon="4.67803">
        <ele>332.4</ele>
        <time>2022-06-25T12:38:54Z</time>
      </trkpt>
      <trkpt lat="46.30865" lon="4.67808">
        <ele>332.4</ele>
        <time>2022-06-25T12:38:55Z</time>
      </trkpt>
      <trkpt lat="46.30864" lon="4.67812">
        <ele>332.6</ele>
        <time>2022-06-25T12:38:56Z</time>
      </trkpt>
      <trkpt lat="46.30863" lon="4.67816">
        <ele>332.8</ele>
        <time>2022-06-25T12:38:57Z</time>
      </trkpt>
      <trkpt lat="46.30863" lon="4.67821">
        <ele>332.8</ele>
        <time>2022-06-25T12:38:58Z</time>
      </trkpt>
      <trkpt lat="46.30862" lon="4.67825">
        <ele>333.2</ele>
        <time>2022-06-25T12:38:59Z</time>
      </trkpt>
      <trkpt lat="46.30861" lon="4.67829">
        <ele>333.4</ele>
        <time>2022-06-25T12:39:00Z</time>
      </trkpt>
      <trkpt lat="46.3086" lon="4.67833">
        <ele>333.4</ele>
        <time>2022-06-25T12:39:01Z</time>
      </trkpt>
      <trkpt lat="46.30858" lon="4.67837">
        <ele>333.8</ele>
        <time>2022-06-25T12:39:02Z</time>
      </trkpt>
      <trkpt lat="46.30857" lon="4.67841">
        <ele>333.8</ele>
        <time>2022-06-25T12:39:03Z</time>
      </trkpt>
      <trkpt lat="46.30856" lon="4.67846">
        <ele>334.2</ele>
        <time>2022-06-25T12:39:04Z</time>
      </trkpt>
      <trkpt lat="46.30855" lon="4.6785">
        <ele>334.2</ele>
        <time>2022-06-25T12:39:05Z</time>
      </trkpt>
      <trkpt lat="46.30854" lon="4.67854">
        <ele>334.6</ele>
        <time>2022-06-25T12:39:06Z</time>
      </trkpt>
      <trkpt lat="46.30853" lon="4.67859">
        <ele>334.8</ele>
        <time>2022-06-25T12:39:07Z</time>
      </trkpt>
      <trkpt lat="46.30852" lon="4.67863">
        <ele>335</ele>
        <time>2022-06-25T12:39:08Z</time>
      </trkpt>
      <trkpt lat="46.30851" lon="4.67867">
        <ele>335</ele>
        <time>2022-06-25T12:39:09Z</time>
      </trkpt>
      <trkpt lat="46.3085" lon="4.67872">
        <ele>335.4</ele>
        <time>2022-06-25T12:39:10Z</time>
      </trkpt>
      <trkpt lat="46.30849" lon="4.67876">
        <ele>335.6</ele>
        <time>2022-06-25T12:39:11Z</time>
      </trkpt>
      <trkpt lat="46.30848" lon="4.6788">
        <ele>336</ele>
        <time>2022-06-25T12:39:12Z</time>
      </trkpt>
      <trkpt lat="46.30847" lon="4.67884">
        <ele>336.2</ele>
        <time>2022-06-25T12:39:13Z</time>
      </trkpt>
      <trkpt lat="46.30846" lon="4.67888">
        <ele>336.4</ele>
        <time>2022-06-25T12:39:14Z</time>
      </trkpt>
      <trkpt lat="46.30845" lon="4.67892">
        <ele>336.8</ele>
        <time>2022-06-25T12:39:15Z</time>
      </trkpt>
      <trkpt lat="46.30843" lon="4.67897">
        <ele>337.2</ele>
        <time>2022-06-25T12:39:17Z</time>
      </trkpt>
      <trkpt lat="46.30842" lon="4.67901">
        <ele>337.4</ele>
        <time>2022-06-25T12:39:18Z</time>
      </trkpt>
      <trkpt lat="46.30841" lon="4.67905">
        <ele>337.6</ele>
        <time>2022-06-25T12:39:19Z</time>
      </trkpt>
      <trkpt lat="46.3084" lon="4.67909">
        <ele>337.8</ele>
        <time>2022-06-25T12:39:20Z</time>
      </trkpt>
      <trkpt lat="46.30839" lon="4.67913">
        <ele>337.8</ele>
        <time>2022-06-25T12:39:21Z</time>
      </trkpt>
      <trkpt lat="46.30837" lon="4.67917">
        <ele>338.2</ele>
        <time>2022-06-25T12:39:22Z</time>
      </trkpt>
      <trkpt lat="46.30836" lon="4.67921">
        <ele>338.4</ele>
        <time>2022-06-25T12:39:23Z</time>
      </trkpt>
      <trkpt lat="46.30835" lon="4.67925">
        <ele>338.6</ele>
        <time>2022-06-25T12:39:24Z</time>
      </trkpt>
      <trkpt lat="46.30834" lon="4.67929">
        <ele>339</ele>
        <time>2022-06-25T12:39:25Z</time>
      </trkpt>
      <trkpt lat="46.30833" lon="4.67933">
        <ele>339.2</ele>
        <time>2022-06-25T12:39:26Z</time>
      </trkpt>
      <trkpt lat="46.30831" lon="4.67938">
        <ele>339.2</ele>
        <time>2022-06-25T12:39:27Z</time>
      </trkpt>
      <trkpt lat="46.3083" lon="4.67941">
        <ele>339.6</ele>
        <time>2022-06-25T12:39:28Z</time>
      </trkpt>
      <trkpt lat="46.30829" lon="4.67945">
        <ele>339.6</ele>
        <time>2022-06-25T12:39:29Z</time>
      </trkpt>
      <trkpt lat="46.30827" lon="4.67948">
        <ele>339.8</ele>
        <time>2022-06-25T12:39:30Z</time>
      </trkpt>
      <trkpt lat="46.30825" lon="4.67952">
        <ele>339.8</ele>
        <time>2022-06-25T12:39:31Z</time>
      </trkpt>
      <trkpt lat="46.30824" lon="4.67955">
        <ele>340.2</ele>
        <time>2022-06-25T12:39:32Z</time>
      </trkpt>
      <trkpt lat="46.30822" lon="4.67959">
        <ele>340.4</ele>
        <time>2022-06-25T12:39:33Z</time>
      </trkpt>
      <trkpt lat="46.3082" lon="4.67961">
        <ele>340.6</ele>
        <time>2022-06-25T12:39:34Z</time>
      </trkpt>
      <trkpt lat="46.30818" lon="4.67964">
        <ele>341</ele>
        <time>2022-06-25T12:39:35Z</time>
      </trkpt>
      <trkpt lat="46.30816" lon="4.67967">
        <ele>341.2</ele>
        <time>2022-06-25T12:39:36Z</time>
      </trkpt>
      <trkpt lat="46.30813" lon="4.67969">
        <ele>341.2</ele>
        <time>2022-06-25T12:39:37Z</time>
      </trkpt>
      <trkpt lat="46.3081" lon="4.67972">
        <ele>341.4</ele>
        <time>2022-06-25T12:39:38Z</time>
      </trkpt>
      <trkpt lat="46.30808" lon="4.67975">
        <ele>341.8</ele>
        <time>2022-06-25T12:39:39Z</time>
      </trkpt>
      <trkpt lat="46.30805" lon="4.67978">
        <ele>342</ele>
        <time>2022-06-25T12:39:40Z</time>
      </trkpt>
      <trkpt lat="46.30802" lon="4.6798">
        <ele>342</ele>
        <time>2022-06-25T12:39:41Z</time>
      </trkpt>
      <trkpt lat="46.30799" lon="4.67983">
        <ele>342.6</ele>
        <time>2022-06-25T12:39:42Z</time>
      </trkpt>
      <trkpt lat="46.30796" lon="4.67985">
        <ele>342.6</ele>
        <time>2022-06-25T12:39:43Z</time>
      </trkpt>
      <trkpt lat="46.30793" lon="4.67988">
        <ele>343</ele>
        <time>2022-06-25T12:39:44Z</time>
      </trkpt>
      <trkpt lat="46.3079" lon="4.6799">
        <ele>343.2</ele>
        <time>2022-06-25T12:39:45Z</time>
      </trkpt>
      <trkpt lat="46.30787" lon="4.67993">
        <ele>343.4</ele>
        <time>2022-06-25T12:39:46Z</time>
      </trkpt>
      <trkpt lat="46.30784" lon="4.67995">
        <ele>343.8</ele>
        <time>2022-06-25T12:39:47Z</time>
      </trkpt>
      <trkpt lat="46.30781" lon="4.67997">
        <ele>344</ele>
        <time>2022-06-25T12:39:48Z</time>
      </trkpt>
      <trkpt lat="46.30778" lon="4.68">
        <ele>344</ele>
        <time>2022-06-25T12:39:49Z</time>
      </trkpt>
      <trkpt lat="46.30775" lon="4.68002">
        <ele>344.2</ele>
        <time>2022-06-25T12:39:50Z</time>
      </trkpt>
      <trkpt lat="46.30772" lon="4.68005">
        <ele>344.6</ele>
        <time>2022-06-25T12:39:51Z</time>
      </trkpt>
      <trkpt lat="46.30769" lon="4.68007">
        <ele>344.6</ele>
        <time>2022-06-25T12:39:52Z</time>
      </trkpt>
      <trkpt lat="46.30766" lon="4.6801">
        <ele>345</ele>
        <time>2022-06-25T12:39:53Z</time>
      </trkpt>
      <trkpt lat="46.30763" lon="4.68012">
        <ele>345.2</ele>
        <time>2022-06-25T12:39:54Z</time>
      </trkpt>
      <trkpt lat="46.3076" lon="4.68015">
        <ele>345.4</ele>
        <time>2022-06-25T12:39:55Z</time>
      </trkpt>
      <trkpt lat="46.30757" lon="4.68017">
        <ele>345.6</ele>
        <time>2022-06-25T12:39:56Z</time>
      </trkpt>
      <trkpt lat="46.30754" lon="4.6802">
        <ele>346</ele>
        <time>2022-06-25T12:39:57Z</time>
      </trkpt>
      <trkpt lat="46.30751" lon="4.68022">
        <ele>346.2</ele>
        <time>2022-06-25T12:39:58Z</time>
      </trkpt>
      <trkpt lat="46.30748" lon="4.68025">
        <ele>346.4</ele>
        <time>2022-06-25T12:39:59Z</time>
      </trkpt>
      <trkpt lat="46.30745" lon="4.68027">
        <ele>346.6</ele>
        <time>2022-06-25T12:40:00Z</time>
      </trkpt>
      <trkpt lat="46.30742" lon="4.68029">
        <ele>347</ele>
        <time>2022-06-25T12:40:01Z</time>
      </trkpt>
      <trkpt lat="46.30739" lon="4.68031">
        <ele>347.2</ele>
        <time>2022-06-25T12:40:02Z</time>
      </trkpt>
      <trkpt lat="46.30736" lon="4.68034">
        <ele>347.4</ele>
        <time>2022-06-25T12:40:03Z</time>
      </trkpt>
      <trkpt lat="46.30733" lon="4.68036">
        <ele>347.6</ele>
        <time>2022-06-25T12:40:04Z</time>
      </trkpt>
      <trkpt lat="46.3073" lon="4.68038">
        <ele>347.6</ele>
        <time>2022-06-25T12:40:05Z</time>
      </trkpt>
      <trkpt lat="46.30727" lon="4.6804">
        <ele>348</ele>
        <time>2022-06-25T12:40:06Z</time>
      </trkpt>
      <trkpt lat="46.30724" lon="4.68043">
        <ele>348.2</ele>
        <time>2022-06-25T12:40:07Z</time>
      </trkpt>
      <trkpt lat="46.30722" lon="4.68045">
        <ele>348.4</ele>
        <time>2022-06-25T12:40:08Z</time>
      </trkpt>
      <trkpt lat="46.30719" lon="4.68047">
        <ele>348.6</ele>
        <time>2022-06-25T12:40:09Z</time>
      </trkpt>
      <trkpt lat="46.30716" lon="4.68049">
        <ele>348.6</ele>
        <time>2022-06-25T12:40:10Z</time>
      </trkpt>
      <trkpt lat="46.30713" lon="4.68052">
        <ele>349.2</ele>
        <time>2022-06-25T12:40:11Z</time>
      </trkpt>
      <trkpt lat="46.30711" lon="4.68054">
        <ele>349.4</ele>
        <time>2022-06-25T12:40:12Z</time>
      </trkpt>
      <trkpt lat="46.30708" lon="4.68056">
        <ele>349.6</ele>
        <time>2022-06-25T12:40:13Z</time>
      </trkpt>
      <trkpt lat="46.30705" lon="4.68058">
        <ele>349.6</ele>
        <time>2022-06-25T12:40:14Z</time>
      </trkpt>
      <trkpt lat="46.30703" lon="4.6806">
        <ele>350</ele>
        <time>2022-06-25T12:40:15Z</time>
      </trkpt>
      <trkpt lat="46.307" lon="4.68063">
        <ele>350.2</ele>
        <time>2022-06-25T12:40:16Z</time>
      </trkpt>
      <trkpt lat="46.30697" lon="4.68064">
        <ele>350.4</ele>
        <time>2022-06-25T12:40:17Z</time>
      </trkpt>
      <trkpt lat="46.30694" lon="4.68066">
        <ele>350.6</ele>
        <time>2022-06-25T12:40:18Z</time>
      </trkpt>
      <trkpt lat="46.30691" lon="4.68068">
        <ele>350.8</ele>
        <time>2022-06-25T12:40:19Z</time>
      </trkpt>
      <trkpt lat="46.30688" lon="4.6807">
        <ele>350.8</ele>
        <time>2022-06-25T12:40:20Z</time>
      </trkpt>
      <trkpt lat="46.30685" lon="4.68073">
        <ele>351.2</ele>
        <time>2022-06-25T12:40:21Z</time>
      </trkpt>
      <trkpt lat="46.30683" lon="4.68074">
        <ele>351.4</ele>
        <time>2022-06-25T12:40:22Z</time>
      </trkpt>
      <trkpt lat="46.3068" lon="4.68076">
        <ele>351.6</ele>
        <time>2022-06-25T12:40:23Z</time>
      </trkpt>
      <trkpt lat="46.30677" lon="4.68078">
        <ele>351.8</ele>
        <time>2022-06-25T12:40:24Z</time>
      </trkpt>
      <trkpt lat="46.30675" lon="4.6808">
        <ele>352.2</ele>
        <time>2022-06-25T12:40:25Z</time>
      </trkpt>
      <trkpt lat="46.30672" lon="4.68082">
        <ele>352.4</ele>
        <time>2022-06-25T12:40:26Z</time>
      </trkpt>
      <trkpt lat="46.3067" lon="4.68085">
        <ele>352.4</ele>
        <time>2022-06-25T12:40:27Z</time>
      </trkpt>
      <trkpt lat="46.30668" lon="4.68087">
        <ele>352.8</ele>
        <time>2022-06-25T12:40:28Z</time>
      </trkpt>
      <trkpt lat="46.30666" lon="4.68088">
        <ele>353</ele>
        <time>2022-06-25T12:40:29Z</time>
      </trkpt>
      <trkpt lat="46.30664" lon="4.6809">
        <ele>353</ele>
        <time>2022-06-25T12:40:30Z</time>
      </trkpt>
      <trkpt lat="46.30661" lon="4.68092">
        <ele>353.4</ele>
        <time>2022-06-25T12:40:31Z</time>
      </trkpt>
      <trkpt lat="46.30658" lon="4.68094">
        <ele>353.4</ele>
        <time>2022-06-25T12:40:32Z</time>
      </trkpt>
      <trkpt lat="46.30656" lon="4.68097">
        <ele>353.8</ele>
        <time>2022-06-25T12:40:33Z</time>
      </trkpt>
      <trkpt lat="46.30653" lon="4.68099">
        <ele>354</ele>
        <time>2022-06-25T12:40:34Z</time>
      </trkpt>
      <trkpt lat="46.3065" lon="4.68102">
        <ele>354.4</ele>
        <time>2022-06-25T12:40:35Z</time>
      </trkpt>
      <trkpt lat="46.30648" lon="4.68104">
        <ele>354.6</ele>
        <time>2022-06-25T12:40:36Z</time>
      </trkpt>
      <trkpt lat="46.30645" lon="4.68106">
        <ele>354.8</ele>
        <time>2022-06-25T12:40:37Z</time>
      </trkpt>
      <trkpt lat="46.30642" lon="4.68107">
        <ele>355</ele>
        <time>2022-06-25T12:40:38Z</time>
      </trkpt>
      <trkpt lat="46.3064" lon="4.68109">
        <ele>355.2</ele>
        <time>2022-06-25T12:40:39Z</time>
      </trkpt>
      <trkpt lat="46.30637" lon="4.68111">
        <ele>355.2</ele>
        <time>2022-06-25T12:40:40Z</time>
      </trkpt>
      <trkpt lat="46.30635" lon="4.68113">
        <ele>355.6</ele>
        <time>2022-06-25T12:40:41Z</time>
      </trkpt>
      <trkpt lat="46.30632" lon="4.68114">
        <ele>355.6</ele>
        <time>2022-06-25T12:40:42Z</time>
      </trkpt>
      <trkpt lat="46.30629" lon="4.68116">
        <ele>356</ele>
        <time>2022-06-25T12:40:43Z</time>
      </trkpt>
      <trkpt lat="46.30626" lon="4.68117">
        <ele>356.4</ele>
        <time>2022-06-25T12:40:44Z</time>
      </trkpt>
      <trkpt lat="46.30623" lon="4.68119">
        <ele>356.6</ele>
        <time>2022-06-25T12:40:45Z</time>
      </trkpt>
      <trkpt lat="46.30621" lon="4.6812">
        <ele>356.6</ele>
        <time>2022-06-25T12:40:46Z</time>
      </trkpt>
      <trkpt lat="46.30618" lon="4.6812">
        <ele>357</ele>
        <time>2022-06-25T12:40:47Z</time>
      </trkpt>
      <trkpt lat="46.30615" lon="4.68121">
        <ele>357</ele>
        <time>2022-06-25T12:40:48Z</time>
      </trkpt>
      <trkpt lat="46.30612" lon="4.68122">
        <ele>357.4</ele>
        <time>2022-06-25T12:40:49Z</time>
      </trkpt>
      <trkpt lat="46.30609" lon="4.68123">
        <ele>357.6</ele>
        <time>2022-06-25T12:40:50Z</time>
      </trkpt>
      <trkpt lat="46.30606" lon="4.68124">
        <ele>357.6</ele>
        <time>2022-06-25T12:40:51Z</time>
      </trkpt>
      <trkpt lat="46.30603" lon="4.68124">
        <ele>358</ele>
        <time>2022-06-25T12:40:52Z</time>
      </trkpt>
      <trkpt lat="46.306" lon="4.68125">
        <ele>358.2</ele>
        <time>2022-06-25T12:40:53Z</time>
      </trkpt>
      <trkpt lat="46.30597" lon="4.68125">
        <ele>358.2</ele>
        <time>2022-06-25T12:40:54Z</time>
      </trkpt>
      <trkpt lat="46.30594" lon="4.68126">
        <ele>358.6</ele>
        <time>2022-06-25T12:40:55Z</time>
      </trkpt>
      <trkpt lat="46.30591" lon="4.68126">
        <ele>358.6</ele>
        <time>2022-06-25T12:40:56Z</time>
      </trkpt>
      <trkpt lat="46.30588" lon="4.68127">
        <ele>358.8</ele>
        <time>2022-06-25T12:40:57Z</time>
      </trkpt>
      <trkpt lat="46.30585" lon="4.68128">
        <ele>359.2</ele>
        <time>2022-06-25T12:40:58Z</time>
      </trkpt>
      <trkpt lat="46.30582" lon="4.68129">
        <ele>359.4</ele>
        <time>2022-06-25T12:40:59Z</time>
      </trkpt>
      <trkpt lat="46.30579" lon="4.6813">
        <ele>359.4</ele>
        <time>2022-06-25T12:41:00Z</time>
      </trkpt>
      <trkpt lat="46.30575" lon="4.68131">
        <ele>359.8</ele>
        <time>2022-06-25T12:41:01Z</time>
      </trkpt>
      <trkpt lat="46.30572" lon="4.68131">
        <ele>360</ele>
        <time>2022-06-25T12:41:02Z</time>
      </trkpt>
      <trkpt lat="46.30569" lon="4.68132">
        <ele>360</ele>
        <time>2022-06-25T12:41:03Z</time>
      </trkpt>
      <trkpt lat="46.30565" lon="4.68133">
        <ele>360.4</ele>
        <time>2022-06-25T12:41:04Z</time>
      </trkpt>
      <trkpt lat="46.30562" lon="4.68135">
        <ele>360.6</ele>
        <time>2022-06-25T12:41:05Z</time>
      </trkpt>
      <trkpt lat="46.30558" lon="4.68138">
        <ele>360.8</ele>
        <time>2022-06-25T12:41:06Z</time>
      </trkpt>
      <trkpt lat="46.30555" lon="4.68141">
        <ele>361.2</ele>
        <time>2022-06-25T12:41:07Z</time>
      </trkpt>
      <trkpt lat="46.30551" lon="4.68144">
        <ele>361.4</ele>
        <time>2022-06-25T12:41:08Z</time>
      </trkpt>
      <trkpt lat="46.30548" lon="4.68148">
        <ele>361.6</ele>
        <time>2022-06-25T12:41:09Z</time>
      </trkpt>
      <trkpt lat="46.30546" lon="4.68152">
        <ele>362</ele>
        <time>2022-06-25T12:41:10Z</time>
      </trkpt>
      <trkpt lat="46.30543" lon="4.68155">
        <ele>362.2</ele>
        <time>2022-06-25T12:41:11Z</time>
      </trkpt>
      <trkpt lat="46.3054" lon="4.68159">
        <ele>362.2</ele>
        <time>2022-06-25T12:41:12Z</time>
      </trkpt>
      <trkpt lat="46.30537" lon="4.68162">
        <ele>362.6</ele>
        <time>2022-06-25T12:41:13Z</time>
      </trkpt>
      <trkpt lat="46.30534" lon="4.68166">
        <ele>362.8</ele>
        <time>2022-06-25T12:41:14Z</time>
      </trkpt>
      <trkpt lat="46.30532" lon="4.6817">
        <ele>363</ele>
        <time>2022-06-25T12:41:15Z</time>
      </trkpt>
      <trkpt lat="46.3053" lon="4.68174">
        <ele>363</ele>
        <time>2022-06-25T12:41:16Z</time>
      </trkpt>
      <trkpt lat="46.30527" lon="4.68177">
        <ele>363.4</ele>
        <time>2022-06-25T12:41:17Z</time>
      </trkpt>
      <trkpt lat="46.30525" lon="4.68181">
        <ele>363.4</ele>
        <time>2022-06-25T12:41:18Z</time>
      </trkpt>
      <trkpt lat="46.30522" lon="4.68185">
        <ele>363.8</ele>
        <time>2022-06-25T12:41:19Z</time>
      </trkpt>
      <trkpt lat="46.3052" lon="4.68189">
        <ele>364</ele>
        <time>2022-06-25T12:41:20Z</time>
      </trkpt>
      <trkpt lat="46.30517" lon="4.68192">
        <ele>364.2</ele>
        <time>2022-06-25T12:41:21Z</time>
      </trkpt>
      <trkpt lat="46.30515" lon="4.68195">
        <ele>364.6</ele>
        <time>2022-06-25T12:41:22Z</time>
      </trkpt>
      <trkpt lat="46.30513" lon="4.68199">
        <ele>364.8</ele>
        <time>2022-06-25T12:41:23Z</time>
      </trkpt>
      <trkpt lat="46.3051" lon="4.68202">
        <ele>365</ele>
        <time>2022-06-25T12:41:24Z</time>
      </trkpt>
      <trkpt lat="46.30508" lon="4.68206">
        <ele>365.2</ele>
        <time>2022-06-25T12:41:25Z</time>
      </trkpt>
      <trkpt lat="46.30505" lon="4.6821">
        <ele>365.4</ele>
        <time>2022-06-25T12:41:26Z</time>
      </trkpt>
      <trkpt lat="46.30503" lon="4.68213">
        <ele>365.8</ele>
        <time>2022-06-25T12:41:27Z</time>
      </trkpt>
      <trkpt lat="46.305" lon="4.68217">
        <ele>366</ele>
        <time>2022-06-25T12:41:28Z</time>
      </trkpt>
      <trkpt lat="46.30498" lon="4.6822">
        <ele>366</ele>
        <time>2022-06-25T12:41:29Z</time>
      </trkpt>
      <trkpt lat="46.30496" lon="4.68223">
        <ele>366.4</ele>
        <time>2022-06-25T12:41:30Z</time>
      </trkpt>
      <trkpt lat="46.30493" lon="4.68226">
        <ele>366.6</ele>
        <time>2022-06-25T12:41:31Z</time>
      </trkpt>
      <trkpt lat="46.30491" lon="4.68229">
        <ele>366.8</ele>
        <time>2022-06-25T12:41:32Z</time>
      </trkpt>
      <trkpt lat="46.30488" lon="4.68232">
        <ele>367</ele>
        <time>2022-06-25T12:41:33Z</time>
      </trkpt>
      <trkpt lat="46.30486" lon="4.68235">
        <ele>367</ele>
        <time>2022-06-25T12:41:34Z</time>
      </trkpt>
      <trkpt lat="46.30483" lon="4.68238">
        <ele>367.4</ele>
        <time>2022-06-25T12:41:35Z</time>
      </trkpt>
      <trkpt lat="46.3048" lon="4.6824">
        <ele>367.4</ele>
        <time>2022-06-25T12:41:36Z</time>
      </trkpt>
      <trkpt lat="46.30477" lon="4.68242">
        <ele>367.8</ele>
        <time>2022-06-25T12:41:37Z</time>
      </trkpt>
      <trkpt lat="46.30474" lon="4.68244">
        <ele>368</ele>
        <time>2022-06-25T12:41:38Z</time>
      </trkpt>
      <trkpt lat="46.30471" lon="4.68246">
        <ele>368</ele>
        <time>2022-06-25T12:41:39Z</time>
      </trkpt>
      <trkpt lat="46.30468" lon="4.68247">
        <ele>368.2</ele>
        <time>2022-06-25T12:41:40Z</time>
      </trkpt>
      <trkpt lat="46.30465" lon="4.68249">
        <ele>368.4</ele>
        <time>2022-06-25T12:41:41Z</time>
      </trkpt>
      <trkpt lat="46.30462" lon="4.68251">
        <ele>368.4</ele>
        <time>2022-06-25T12:41:42Z</time>
      </trkpt>
      <trkpt lat="46.30459" lon="4.68252">
        <ele>368.8</ele>
        <time>2022-06-25T12:41:43Z</time>
      </trkpt>
      <trkpt lat="46.30455" lon="4.68254">
        <ele>369</ele>
        <time>2022-06-25T12:41:44Z</time>
      </trkpt>
      <trkpt lat="46.30452" lon="4.68256">
        <ele>369.4</ele>
        <time>2022-06-25T12:41:45Z</time>
      </trkpt>
      <trkpt lat="46.30449" lon="4.68257">
        <ele>369.4</ele>
        <time>2022-06-25T12:41:46Z</time>
      </trkpt>
      <trkpt lat="46.30446" lon="4.68258">
        <ele>369.6</ele>
        <time>2022-06-25T12:41:47Z</time>
      </trkpt>
      <trkpt lat="46.30443" lon="4.68259">
        <ele>369.6</ele>
        <time>2022-06-25T12:41:48Z</time>
      </trkpt>
      <trkpt lat="46.30439" lon="4.68259">
        <ele>370.2</ele>
        <time>2022-06-25T12:41:49Z</time>
      </trkpt>
      <trkpt lat="46.30436" lon="4.6826">
        <ele>370.4</ele>
        <time>2022-06-25T12:41:50Z</time>
      </trkpt>
      <trkpt lat="46.30433" lon="4.6826">
        <ele>370.4</ele>
        <time>2022-06-25T12:41:51Z</time>
      </trkpt>
      <trkpt lat="46.30429" lon="4.68261">
        <ele>370.6</ele>
        <time>2022-06-25T12:41:52Z</time>
      </trkpt>
      <trkpt lat="46.30426" lon="4.68262">
        <ele>371</ele>
        <time>2022-06-25T12:41:53Z</time>
      </trkpt>
      <trkpt lat="46.30422" lon="4.68262">
        <ele>371</ele>
        <time>2022-06-25T12:41:54Z</time>
      </trkpt>
      <trkpt lat="46.30419" lon="4.68263">
        <ele>371.2</ele>
        <time>2022-06-25T12:41:55Z</time>
      </trkpt>
      <trkpt lat="46.30415" lon="4.68263">
        <ele>371.4</ele>
        <time>2022-06-25T12:41:56Z</time>
      </trkpt>
      <trkpt lat="46.30412" lon="4.68263">
        <ele>371.6</ele>
        <time>2022-06-25T12:41:57Z</time>
      </trkpt>
      <trkpt lat="46.30409" lon="4.68264">
        <ele>371.8</ele>
        <time>2022-06-25T12:41:58Z</time>
      </trkpt>
      <trkpt lat="46.30405" lon="4.68264">
        <ele>371.8</ele>
        <time>2022-06-25T12:41:59Z</time>
      </trkpt>
      <trkpt lat="46.30402" lon="4.68264">
        <ele>372.4</ele>
        <time>2022-06-25T12:42:00Z</time>
      </trkpt>
      <trkpt lat="46.30399" lon="4.68264">
        <ele>372.6</ele>
        <time>2022-06-25T12:42:01Z</time>
      </trkpt>
      <trkpt lat="46.30395" lon="4.68264">
        <ele>372.8</ele>
        <time>2022-06-25T12:42:02Z</time>
      </trkpt>
      <trkpt lat="46.30392" lon="4.68264">
        <ele>373</ele>
        <time>2022-06-25T12:42:03Z</time>
      </trkpt>
      <trkpt lat="46.30389" lon="4.68264">
        <ele>373.4</ele>
        <time>2022-06-25T12:42:04Z</time>
      </trkpt>
      <trkpt lat="46.30386" lon="4.68265">
        <ele>373.6</ele>
        <time>2022-06-25T12:42:05Z</time>
      </trkpt>
      <trkpt lat="46.30383" lon="4.68265">
        <ele>373.8</ele>
        <time>2022-06-25T12:42:06Z</time>
      </trkpt>
      <trkpt lat="46.30379" lon="4.68265">
        <ele>374.2</ele>
        <time>2022-06-25T12:42:07Z</time>
      </trkpt>
      <trkpt lat="46.30376" lon="4.68266">
        <ele>374.4</ele>
        <time>2022-06-25T12:42:08Z</time>
      </trkpt>
      <trkpt lat="46.30373" lon="4.68266">
        <ele>374.6</ele>
        <time>2022-06-25T12:42:09Z</time>
      </trkpt>
      <trkpt lat="46.3037" lon="4.68266">
        <ele>375</ele>
        <time>2022-06-25T12:42:10Z</time>
      </trkpt>
      <trkpt lat="46.30366" lon="4.68267">
        <ele>375.2</ele>
        <time>2022-06-25T12:42:11Z</time>
      </trkpt>
      <trkpt lat="46.30363" lon="4.68267">
        <ele>375.2</ele>
        <time>2022-06-25T12:42:12Z</time>
      </trkpt>
      <trkpt lat="46.3036" lon="4.68268">
        <ele>375.6</ele>
        <time>2022-06-25T12:42:13Z</time>
      </trkpt>
      <trkpt lat="46.30357" lon="4.68269">
        <ele>376</ele>
        <time>2022-06-25T12:42:14Z</time>
      </trkpt>
      <trkpt lat="46.30354" lon="4.6827">
        <ele>376.2</ele>
        <time>2022-06-25T12:42:15Z</time>
      </trkpt>
      <trkpt lat="46.3035" lon="4.68272">
        <ele>376.4</ele>
        <time>2022-06-25T12:42:16Z</time>
      </trkpt>
      <trkpt lat="46.30347" lon="4.68272">
        <ele>376.6</ele>
        <time>2022-06-25T12:42:17Z</time>
      </trkpt>
      <trkpt lat="46.30344" lon="4.68273">
        <ele>376.8</ele>
        <time>2022-06-25T12:42:18Z</time>
      </trkpt>
      <trkpt lat="46.30341" lon="4.68273">
        <ele>376.8</ele>
        <time>2022-06-25T12:42:19Z</time>
      </trkpt>
      <trkpt lat="46.30338" lon="4.68273">
        <ele>377.2</ele>
        <time>2022-06-25T12:42:20Z</time>
      </trkpt>
      <trkpt lat="46.30335" lon="4.68273">
        <ele>377.2</ele>
        <time>2022-06-25T12:42:21Z</time>
      </trkpt>
      <trkpt lat="46.30331" lon="4.68274">
        <ele>377.4</ele>
        <time>2022-06-25T12:42:22Z</time>
      </trkpt>
      <trkpt lat="46.30328" lon="4.68274">
        <ele>377.4</ele>
        <time>2022-06-25T12:42:23Z</time>
      </trkpt>
      <trkpt lat="46.30325" lon="4.68274">
        <ele>377.6</ele>
        <time>2022-06-25T12:42:24Z</time>
      </trkpt>
      <trkpt lat="46.30322" lon="4.68274">
        <ele>378</ele>
        <time>2022-06-25T12:42:25Z</time>
      </trkpt>
      <trkpt lat="46.30319" lon="4.68273">
        <ele>378</ele>
        <time>2022-06-25T12:42:26Z</time>
      </trkpt>
      <trkpt lat="46.30316" lon="4.68273">
        <ele>378.4</ele>
        <time>2022-06-25T12:42:27Z</time>
      </trkpt>
      <trkpt lat="46.30313" lon="4.68273">
        <ele>378.6</ele>
        <time>2022-06-25T12:42:28Z</time>
      </trkpt>
      <trkpt lat="46.30311" lon="4.68272">
        <ele>378.8</ele>
        <time>2022-06-25T12:42:29Z</time>
      </trkpt>
      <trkpt lat="46.30308" lon="4.68272">
        <ele>379.2</ele>
        <time>2022-06-25T12:42:30Z</time>
      </trkpt>
      <trkpt lat="46.30305" lon="4.68272">
        <ele>379.4</ele>
        <time>2022-06-25T12:42:31Z</time>
      </trkpt>
      <trkpt lat="46.30302" lon="4.68271">
        <ele>379.6</ele>
        <time>2022-06-25T12:42:32Z</time>
      </trkpt>
      <trkpt lat="46.30299" lon="4.68271">
        <ele>379.8</ele>
        <time>2022-06-25T12:42:33Z</time>
      </trkpt>
      <trkpt lat="46.30296" lon="4.68271">
        <ele>380.2</ele>
        <time>2022-06-25T12:42:34Z</time>
      </trkpt>
      <trkpt lat="46.30293" lon="4.68271">
        <ele>380.4</ele>
        <time>2022-06-25T12:42:35Z</time>
      </trkpt>
      <trkpt lat="46.3029" lon="4.68271">
        <ele>380.6</ele>
        <time>2022-06-25T12:42:36Z</time>
      </trkpt>
      <trkpt lat="46.30286" lon="4.68272">
        <ele>380.8</ele>
        <time>2022-06-25T12:42:37Z</time>
      </trkpt>
      <trkpt lat="46.30283" lon="4.68272">
        <ele>381.2</ele>
        <time>2022-06-25T12:42:38Z</time>
      </trkpt>
      <trkpt lat="46.3028" lon="4.68273">
        <ele>381.4</ele>
        <time>2022-06-25T12:42:39Z</time>
      </trkpt>
      <trkpt lat="46.30277" lon="4.68274">
        <ele>381.4</ele>
        <time>2022-06-25T12:42:40Z</time>
      </trkpt>
      <trkpt lat="46.30274" lon="4.68275">
        <ele>381.8</ele>
        <time>2022-06-25T12:42:41Z</time>
      </trkpt>
      <trkpt lat="46.30271" lon="4.68275">
        <ele>382</ele>
        <time>2022-06-25T12:42:42Z</time>
      </trkpt>
      <trkpt lat="46.30267" lon="4.68276">
        <ele>382.2</ele>
        <time>2022-06-25T12:42:43Z</time>
      </trkpt>
      <trkpt lat="46.30264" lon="4.68277">
        <ele>382.4</ele>
        <time>2022-06-25T12:42:44Z</time>
      </trkpt>
      <trkpt lat="46.30261" lon="4.68277">
        <ele>382.8</ele>
        <time>2022-06-25T12:42:45Z</time>
      </trkpt>
      <trkpt lat="46.30258" lon="4.68278">
        <ele>383</ele>
        <time>2022-06-25T12:42:46Z</time>
      </trkpt>
      <trkpt lat="46.30255" lon="4.68279">
        <ele>383.2</ele>
        <time>2022-06-25T12:42:47Z</time>
      </trkpt>
      <trkpt lat="46.30252" lon="4.6828">
        <ele>383.2</ele>
        <time>2022-06-25T12:42:48Z</time>
      </trkpt>
      <trkpt lat="46.30249" lon="4.68281">
        <ele>383.6</ele>
        <time>2022-06-25T12:42:49Z</time>
      </trkpt>
      <trkpt lat="46.30246" lon="4.68282">
        <ele>383.8</ele>
        <time>2022-06-25T12:42:50Z</time>
      </trkpt>
      <trkpt lat="46.30243" lon="4.68282">
        <ele>383.8</ele>
        <time>2022-06-25T12:42:51Z</time>
      </trkpt>
      <trkpt lat="46.3024" lon="4.68283">
        <ele>384.2</ele>
        <time>2022-06-25T12:42:52Z</time>
      </trkpt>
      <trkpt lat="46.30237" lon="4.68283">
        <ele>384.4</ele>
        <time>2022-06-25T12:42:53Z</time>
      </trkpt>
      <trkpt lat="46.30234" lon="4.68284">
        <ele>384.6</ele>
        <time>2022-06-25T12:42:54Z</time>
      </trkpt>
      <trkpt lat="46.30232" lon="4.68285">
        <ele>385</ele>
        <time>2022-06-25T12:42:55Z</time>
      </trkpt>
      <trkpt lat="46.30229" lon="4.68286">
        <ele>385.2</ele>
        <time>2022-06-25T12:42:56Z</time>
      </trkpt>
      <trkpt lat="46.30226" lon="4.68286">
        <ele>385.4</ele>
        <time>2022-06-25T12:42:57Z</time>
      </trkpt>
      <trkpt lat="46.30223" lon="4.68287">
        <ele>385.8</ele>
        <time>2022-06-25T12:42:58Z</time>
      </trkpt>
      <trkpt lat="46.3022" lon="4.68287">
        <ele>386</ele>
        <time>2022-06-25T12:42:59Z</time>
      </trkpt>
      <trkpt lat="46.30217" lon="4.68287">
        <ele>386.2</ele>
        <time>2022-06-25T12:43:00Z</time>
      </trkpt>
      <trkpt lat="46.30214" lon="4.68286">
        <ele>386.6</ele>
        <time>2022-06-25T12:43:01Z</time>
      </trkpt>
      <trkpt lat="46.30211" lon="4.68286">
        <ele>386.8</ele>
        <time>2022-06-25T12:43:02Z</time>
      </trkpt>
      <trkpt lat="46.30208" lon="4.68286">
        <ele>387.2</ele>
        <time>2022-06-25T12:43:03Z</time>
      </trkpt>
      <trkpt lat="46.30205" lon="4.68285">
        <ele>387.4</ele>
        <time>2022-06-25T12:43:04Z</time>
      </trkpt>
      <trkpt lat="46.30202" lon="4.68285">
        <ele>387.6</ele>
        <time>2022-06-25T12:43:05Z</time>
      </trkpt>
      <trkpt lat="46.30199" lon="4.68284">
        <ele>388</ele>
        <time>2022-06-25T12:43:06Z</time>
      </trkpt>
      <trkpt lat="46.30196" lon="4.68283">
        <ele>388.2</ele>
        <time>2022-06-25T12:43:07Z</time>
      </trkpt>
      <trkpt lat="46.30193" lon="4.68283">
        <ele>388.4</ele>
        <time>2022-06-25T12:43:08Z</time>
      </trkpt>
      <trkpt lat="46.3019" lon="4.68282">
        <ele>388.6</ele>
        <time>2022-06-25T12:43:09Z</time>
      </trkpt>
      <trkpt lat="46.30187" lon="4.68281">
        <ele>389</ele>
        <time>2022-06-25T12:43:10Z</time>
      </trkpt>
      <trkpt lat="46.30185" lon="4.6828">
        <ele>389.2</ele>
        <time>2022-06-25T12:43:11Z</time>
      </trkpt>
      <trkpt lat="46.30182" lon="4.68279">
        <ele>389.4</ele>
        <time>2022-06-25T12:43:12Z</time>
      </trkpt>
      <trkpt lat="46.30179" lon="4.68278">
        <ele>389.6</ele>
        <time>2022-06-25T12:43:13Z</time>
      </trkpt>
      <trkpt lat="46.30176" lon="4.68277">
        <ele>390</ele>
        <time>2022-06-25T12:43:14Z</time>
      </trkpt>
      <trkpt lat="46.30173" lon="4.68276">
        <ele>390.2</ele>
        <time>2022-06-25T12:43:15Z</time>
      </trkpt>
      <trkpt lat="46.3017" lon="4.68275">
        <ele>390.4</ele>
        <time>2022-06-25T12:43:16Z</time>
      </trkpt>
      <trkpt lat="46.30167" lon="4.68273">
        <ele>390.4</ele>
        <time>2022-06-25T12:43:17Z</time>
      </trkpt>
      <trkpt lat="46.30165" lon="4.68272">
        <ele>390.8</ele>
        <time>2022-06-25T12:43:18Z</time>
      </trkpt>
      <trkpt lat="46.30162" lon="4.68271">
        <ele>391</ele>
        <time>2022-06-25T12:43:19Z</time>
      </trkpt>
      <trkpt lat="46.30159" lon="4.6827">
        <ele>391</ele>
        <time>2022-06-25T12:43:20Z</time>
      </trkpt>
      <trkpt lat="46.30157" lon="4.68269">
        <ele>391.4</ele>
        <time>2022-06-25T12:43:21Z</time>
      </trkpt>
      <trkpt lat="46.30154" lon="4.68267">
        <ele>391.6</ele>
        <time>2022-06-25T12:43:22Z</time>
      </trkpt>
      <trkpt lat="46.30151" lon="4.68266">
        <ele>391.6</ele>
        <time>2022-06-25T12:43:23Z</time>
      </trkpt>
      <trkpt lat="46.30148" lon="4.68265">
        <ele>392</ele>
        <time>2022-06-25T12:43:24Z</time>
      </trkpt>
      <trkpt lat="46.30146" lon="4.68263">
        <ele>392.2</ele>
        <time>2022-06-25T12:43:25Z</time>
      </trkpt>
      <trkpt lat="46.30143" lon="4.68262">
        <ele>392.6</ele>
        <time>2022-06-25T12:43:26Z</time>
      </trkpt>
      <trkpt lat="46.3014" lon="4.68261">
        <ele>392.8</ele>
        <time>2022-06-25T12:43:27Z</time>
      </trkpt>
      <trkpt lat="46.30138" lon="4.6826">
        <ele>393.2</ele>
        <time>2022-06-25T12:43:28Z</time>
      </trkpt>
      <trkpt lat="46.30135" lon="4.68258">
        <ele>393.4</ele>
        <time>2022-06-25T12:43:29Z</time>
      </trkpt>
      <trkpt lat="46.30132" lon="4.68257">
        <ele>393.8</ele>
        <time>2022-06-25T12:43:30Z</time>
      </trkpt>
      <trkpt lat="46.3013" lon="4.68256">
        <ele>394</ele>
        <time>2022-06-25T12:43:31Z</time>
      </trkpt>
      <trkpt lat="46.30127" lon="4.68255">
        <ele>394.2</ele>
        <time>2022-06-25T12:43:32Z</time>
      </trkpt>
      <trkpt lat="46.30124" lon="4.68254">
        <ele>394.4</ele>
        <time>2022-06-25T12:43:33Z</time>
      </trkpt>
      <trkpt lat="46.30121" lon="4.68253">
        <ele>394.8</ele>
        <time>2022-06-25T12:43:34Z</time>
      </trkpt>
      <trkpt lat="46.30118" lon="4.68253">
        <ele>395</ele>
        <time>2022-06-25T12:43:35Z</time>
      </trkpt>
      <trkpt lat="46.30115" lon="4.68253">
        <ele>395.2</ele>
        <time>2022-06-25T12:43:36Z</time>
      </trkpt>
      <trkpt lat="46.30112" lon="4.68254">
        <ele>395.2</ele>
        <time>2022-06-25T12:43:37Z</time>
      </trkpt>
      <trkpt lat="46.30109" lon="4.68254">
        <ele>395.6</ele>
        <time>2022-06-25T12:43:38Z</time>
      </trkpt>
      <trkpt lat="46.30106" lon="4.68255">
        <ele>395.8</ele>
        <time>2022-06-25T12:43:39Z</time>
      </trkpt>
      <trkpt lat="46.30103" lon="4.68255">
        <ele>396</ele>
        <time>2022-06-25T12:43:40Z</time>
      </trkpt>
      <trkpt lat="46.30101" lon="4.68257">
        <ele>396.4</ele>
        <time>2022-06-25T12:43:41Z</time>
      </trkpt>
      <trkpt lat="46.30098" lon="4.68259">
        <ele>396.6</ele>
        <time>2022-06-25T12:43:42Z</time>
      </trkpt>
      <trkpt lat="46.30095" lon="4.6826">
        <ele>396.8</ele>
        <time>2022-06-25T12:43:43Z</time>
      </trkpt>
      <trkpt lat="46.30092" lon="4.68262">
        <ele>397</ele>
        <time>2022-06-25T12:43:44Z</time>
      </trkpt>
      <trkpt lat="46.30089" lon="4.68264">
        <ele>397.2</ele>
        <time>2022-06-25T12:43:45Z</time>
      </trkpt>
      <trkpt lat="46.30087" lon="4.68266">
        <ele>397.2</ele>
        <time>2022-06-25T12:43:46Z</time>
      </trkpt>
      <trkpt lat="46.30084" lon="4.68268">
        <ele>397.6</ele>
        <time>2022-06-25T12:43:47Z</time>
      </trkpt>
      <trkpt lat="46.30081" lon="4.68269">
        <ele>397.6</ele>
        <time>2022-06-25T12:43:48Z</time>
      </trkpt>
      <trkpt lat="46.30079" lon="4.68271">
        <ele>398</ele>
        <time>2022-06-25T12:43:49Z</time>
      </trkpt>
      <trkpt lat="46.30076" lon="4.68273">
        <ele>398.2</ele>
        <time>2022-06-25T12:43:50Z</time>
      </trkpt>
      <trkpt lat="46.30074" lon="4.68275">
        <ele>398.6</ele>
        <time>2022-06-25T12:43:51Z</time>
      </trkpt>
      <trkpt lat="46.30071" lon="4.68277">
        <ele>398.6</ele>
        <time>2022-06-25T12:43:52Z</time>
      </trkpt>
      <trkpt lat="46.30068" lon="4.68279">
        <ele>398.8</ele>
        <time>2022-06-25T12:43:53Z</time>
      </trkpt>
      <trkpt lat="46.30065" lon="4.68281">
        <ele>399</ele>
        <time>2022-06-25T12:43:54Z</time>
      </trkpt>
      <trkpt lat="46.30063" lon="4.68283">
        <ele>399.2</ele>
        <time>2022-06-25T12:43:55Z</time>
      </trkpt>
      <trkpt lat="46.3006" lon="4.68285">
        <ele>399.4</ele>
        <time>2022-06-25T12:43:56Z</time>
      </trkpt>
      <trkpt lat="46.30057" lon="4.68286">
        <ele>399.8</ele>
        <time>2022-06-25T12:43:57Z</time>
      </trkpt>
      <trkpt lat="46.30055" lon="4.68288">
        <ele>399.8</ele>
        <time>2022-06-25T12:43:58Z</time>
      </trkpt>
      <trkpt lat="46.30052" lon="4.6829">
        <ele>400.2</ele>
        <time>2022-06-25T12:43:59Z</time>
      </trkpt>
      <trkpt lat="46.3005" lon="4.68292">
        <ele>400.4</ele>
        <time>2022-06-25T12:44:00Z</time>
      </trkpt>
      <trkpt lat="46.30047" lon="4.68294">
        <ele>400.6</ele>
        <time>2022-06-25T12:44:01Z</time>
      </trkpt>
      <trkpt lat="46.30045" lon="4.68295">
        <ele>400.8</ele>
        <time>2022-06-25T12:44:02Z</time>
      </trkpt>
      <trkpt lat="46.30043" lon="4.68297">
        <ele>400.8</ele>
        <time>2022-06-25T12:44:03Z</time>
      </trkpt>
      <trkpt lat="46.30041" lon="4.68298">
        <ele>401.2</ele>
        <time>2022-06-25T12:44:04Z</time>
      </trkpt>
      <trkpt lat="46.30039" lon="4.68299">
        <ele>401.4</ele>
        <time>2022-06-25T12:44:05Z</time>
      </trkpt>
      <trkpt lat="46.30037" lon="4.683">
        <ele>401.4</ele>
        <time>2022-06-25T12:44:06Z</time>
      </trkpt>
      <trkpt lat="46.30035" lon="4.68301">
        <ele>401.6</ele>
        <time>2022-06-25T12:44:07Z</time>
      </trkpt>
      <trkpt lat="46.30032" lon="4.68302">
        <ele>401.8</ele>
        <time>2022-06-25T12:44:08Z</time>
      </trkpt>
      <trkpt lat="46.3003" lon="4.68303">
        <ele>402.2</ele>
        <time>2022-06-25T12:44:09Z</time>
      </trkpt>
      <trkpt lat="46.30027" lon="4.68304">
        <ele>402.4</ele>
        <time>2022-06-25T12:44:10Z</time>
      </trkpt>
      <trkpt lat="46.30025" lon="4.68306">
        <ele>402.6</ele>
        <time>2022-06-25T12:44:11Z</time>
      </trkpt>
      <trkpt lat="46.30022" lon="4.68308">
        <ele>402.8</ele>
        <time>2022-06-25T12:44:12Z</time>
      </trkpt>
      <trkpt lat="46.3002" lon="4.68309">
        <ele>403.2</ele>
        <time>2022-06-25T12:44:13Z</time>
      </trkpt>
      <trkpt lat="46.30017" lon="4.68311">
        <ele>403.2</ele>
        <time>2022-06-25T12:44:14Z</time>
      </trkpt>
      <trkpt lat="46.30014" lon="4.68312">
        <ele>403.4</ele>
        <time>2022-06-25T12:44:15Z</time>
      </trkpt>
      <trkpt lat="46.30012" lon="4.68313">
        <ele>403.8</ele>
        <time>2022-06-25T12:44:16Z</time>
      </trkpt>
      <trkpt lat="46.30009" lon="4.68314">
        <ele>404</ele>
        <time>2022-06-25T12:44:17Z</time>
      </trkpt>
      <trkpt lat="46.30006" lon="4.68316">
        <ele>404.2</ele>
        <time>2022-06-25T12:44:18Z</time>
      </trkpt>
      <trkpt lat="46.30003" lon="4.68317">
        <ele>404.2</ele>
        <time>2022-06-25T12:44:19Z</time>
      </trkpt>
      <trkpt lat="46.30001" lon="4.68319">
        <ele>404.4</ele>
        <time>2022-06-25T12:44:20Z</time>
      </trkpt>
      <trkpt lat="46.29998" lon="4.6832">
        <ele>404.4</ele>
        <time>2022-06-25T12:44:21Z</time>
      </trkpt>
      <trkpt lat="46.29995" lon="4.68322">
        <ele>404.8</ele>
        <time>2022-06-25T12:44:22Z</time>
      </trkpt>
      <trkpt lat="46.29992" lon="4.68323">
        <ele>405.2</ele>
        <time>2022-06-25T12:44:23Z</time>
      </trkpt>
      <trkpt lat="46.2999" lon="4.68324">
        <ele>405.4</ele>
        <time>2022-06-25T12:44:24Z</time>
      </trkpt>
      <trkpt lat="46.29987" lon="4.68326">
        <ele>405.4</ele>
        <time>2022-06-25T12:44:25Z</time>
      </trkpt>
      <trkpt lat="46.29984" lon="4.68328">
        <ele>405.8</ele>
        <time>2022-06-25T12:44:26Z</time>
      </trkpt>
      <trkpt lat="46.29982" lon="4.68329">
        <ele>406</ele>
        <time>2022-06-25T12:44:27Z</time>
      </trkpt>
      <trkpt lat="46.29979" lon="4.68331">
        <ele>406.2</ele>
        <time>2022-06-25T12:44:28Z</time>
      </trkpt>
      <trkpt lat="46.29976" lon="4.68332">
        <ele>406.2</ele>
        <time>2022-06-25T12:44:29Z</time>
      </trkpt>
      <trkpt lat="46.29973" lon="4.68333">
        <ele>406.6</ele>
        <time>2022-06-25T12:44:30Z</time>
      </trkpt>
      <trkpt lat="46.2997" lon="4.68334">
        <ele>406.8</ele>
        <time>2022-06-25T12:44:31Z</time>
      </trkpt>
      <trkpt lat="46.29967" lon="4.68335">
        <ele>406.8</ele>
        <time>2022-06-25T12:44:32Z</time>
      </trkpt>
      <trkpt lat="46.29964" lon="4.68336">
        <ele>407.2</ele>
        <time>2022-06-25T12:44:33Z</time>
      </trkpt>
      <trkpt lat="46.29961" lon="4.68337">
        <ele>407.2</ele>
        <time>2022-06-25T12:44:34Z</time>
      </trkpt>
      <trkpt lat="46.29958" lon="4.68337">
        <ele>407.6</ele>
        <time>2022-06-25T12:44:35Z</time>
      </trkpt>
      <trkpt lat="46.29955" lon="4.68336">
        <ele>407.8</ele>
        <time>2022-06-25T12:44:36Z</time>
      </trkpt>
      <trkpt lat="46.29953" lon="4.68335">
        <ele>408</ele>
        <time>2022-06-25T12:44:37Z</time>
      </trkpt>
      <trkpt lat="46.2995" lon="4.68333">
        <ele>408</ele>
        <time>2022-06-25T12:44:38Z</time>
      </trkpt>
      <trkpt lat="46.29949" lon="4.6833">
        <ele>408.6</ele>
        <time>2022-06-25T12:44:39Z</time>
      </trkpt>
      <trkpt lat="46.29948" lon="4.68327">
        <ele>408.6</ele>
        <time>2022-06-25T12:44:40Z</time>
      </trkpt>
      <trkpt lat="46.29947" lon="4.68322">
        <ele>408.8</ele>
        <time>2022-06-25T12:44:41Z</time>
      </trkpt>
      <trkpt lat="46.29946" lon="4.68318">
        <ele>408.8</ele>
        <time>2022-06-25T12:44:42Z</time>
      </trkpt>
      <trkpt lat="46.29946" lon="4.68313">
        <ele>409.2</ele>
        <time>2022-06-25T12:44:43Z</time>
      </trkpt>
      <trkpt lat="46.29947" lon="4.68309">
        <ele>409.4</ele>
        <time>2022-06-25T12:44:44Z</time>
      </trkpt>
      <trkpt lat="46.29948" lon="4.68304">
        <ele>409.6</ele>
        <time>2022-06-25T12:44:45Z</time>
      </trkpt>
      <trkpt lat="46.29949" lon="4.683">
        <ele>409.8</ele>
        <time>2022-06-25T12:44:46Z</time>
      </trkpt>
      <trkpt lat="46.2995" lon="4.68295">
        <ele>409.8</ele>
        <time>2022-06-25T12:44:47Z</time>
      </trkpt>
      <trkpt lat="46.2995" lon="4.68291">
        <ele>410.2</ele>
        <time>2022-06-25T12:44:48Z</time>
      </trkpt>
      <trkpt lat="46.29951" lon="4.68286">
        <ele>410.4</ele>
        <time>2022-06-25T12:44:49Z</time>
      </trkpt>
      <trkpt lat="46.29951" lon="4.68282">
        <ele>410.4</ele>
        <time>2022-06-25T12:44:50Z</time>
      </trkpt>
      <trkpt lat="46.29952" lon="4.68277">
        <ele>410.8</ele>
        <time>2022-06-25T12:44:51Z</time>
      </trkpt>
      <trkpt lat="46.29953" lon="4.68272">
        <ele>410.8</ele>
        <time>2022-06-25T12:44:52Z</time>
      </trkpt>
      <trkpt lat="46.29954" lon="4.68268">
        <ele>411.2</ele>
        <time>2022-06-25T12:44:53Z</time>
      </trkpt>
      <trkpt lat="46.29955" lon="4.68263">
        <ele>411.2</ele>
        <time>2022-06-25T12:44:54Z</time>
      </trkpt>
      <trkpt lat="46.29956" lon="4.68258">
        <ele>411.4</ele>
        <time>2022-06-25T12:44:55Z</time>
      </trkpt>
      <trkpt lat="46.29956" lon="4.68253">
        <ele>411.6</ele>
        <time>2022-06-25T12:44:56Z</time>
      </trkpt>
      <trkpt lat="46.29957" lon="4.68248">
        <ele>411.8</ele>
        <time>2022-06-25T12:44:57Z</time>
      </trkpt>
      <trkpt lat="46.29958" lon="4.68243">
        <ele>412</ele>
        <time>2022-06-25T12:44:58Z</time>
      </trkpt>
      <trkpt lat="46.29959" lon="4.68238">
        <ele>412</ele>
        <time>2022-06-25T12:44:59Z</time>
      </trkpt>
      <trkpt lat="46.2996" lon="4.68234">
        <ele>412.4</ele>
        <time>2022-06-25T12:45:00Z</time>
      </trkpt>
      <trkpt lat="46.2996" lon="4.68229">
        <ele>412.4</ele>
        <time>2022-06-25T12:45:01Z</time>
      </trkpt>
      <trkpt lat="46.29961" lon="4.68225">
        <ele>412.8</ele>
        <time>2022-06-25T12:45:02Z</time>
      </trkpt>
      <trkpt lat="46.29962" lon="4.6822">
        <ele>412.8</ele>
        <time>2022-06-25T12:45:03Z</time>
      </trkpt>
      <trkpt lat="46.29962" lon="4.68215">
        <ele>413.2</ele>
        <time>2022-06-25T12:45:04Z</time>
      </trkpt>
      <trkpt lat="46.29963" lon="4.68211">
        <ele>413.2</ele>
        <time>2022-06-25T12:45:05Z</time>
      </trkpt>
      <trkpt lat="46.29964" lon="4.68206">
        <ele>413.6</ele>
        <time>2022-06-25T12:45:06Z</time>
      </trkpt>
      <trkpt lat="46.29964" lon="4.68202">
        <ele>413.8</ele>
        <time>2022-06-25T12:45:07Z</time>
      </trkpt>
      <trkpt lat="46.29965" lon="4.68197">
        <ele>413.8</ele>
        <time>2022-06-25T12:45:08Z</time>
      </trkpt>
      <trkpt lat="46.29965" lon="4.68192">
        <ele>414.2</ele>
        <time>2022-06-25T12:45:09Z</time>
      </trkpt>
      <trkpt lat="46.29965" lon="4.68188">
        <ele>414.4</ele>
        <time>2022-06-25T12:45:10Z</time>
      </trkpt>
      <trkpt lat="46.29965" lon="4.68183">
        <ele>414.4</ele>
        <time>2022-06-25T12:45:11Z</time>
      </trkpt>
      <trkpt lat="46.29965" lon="4.68179">
        <ele>414.8</ele>
        <time>2022-06-25T12:45:12Z</time>
      </trkpt>
      <trkpt lat="46.29964" lon="4.68174">
        <ele>414.8</ele>
        <time>2022-06-25T12:45:13Z</time>
      </trkpt>
      <trkpt lat="46.29964" lon="4.6817">
        <ele>415.2</ele>
        <time>2022-06-25T12:45:14Z</time>
      </trkpt>
      <trkpt lat="46.29964" lon="4.68165">
        <ele>415.2</ele>
        <time>2022-06-25T12:45:15Z</time>
      </trkpt>
      <trkpt lat="46.29963" lon="4.68159">
        <ele>415.6</ele>
        <time>2022-06-25T12:45:16Z</time>
      </trkpt>
      <trkpt lat="46.29963" lon="4.68156">
        <ele>415.6</ele>
        <time>2022-06-25T12:45:17Z</time>
      </trkpt>
      <trkpt lat="46.29963" lon="4.68152">
        <ele>416</ele>
        <time>2022-06-25T12:45:18Z</time>
      </trkpt>
      <trkpt lat="46.29963" lon="4.68148">
        <ele>416</ele>
        <time>2022-06-25T12:45:19Z</time>
      </trkpt>
      <trkpt lat="46.29963" lon="4.68143">
        <ele>416.2</ele>
        <time>2022-06-25T12:45:20Z</time>
      </trkpt>
      <trkpt lat="46.29962" lon="4.68139">
        <ele>416.4</ele>
        <time>2022-06-25T12:45:21Z</time>
      </trkpt>
      <trkpt lat="46.29961" lon="4.68134">
        <ele>416.8</ele>
        <time>2022-06-25T12:45:22Z</time>
      </trkpt>
      <trkpt lat="46.29961" lon="4.6813">
        <ele>417</ele>
        <time>2022-06-25T12:45:23Z</time>
      </trkpt>
      <trkpt lat="46.29961" lon="4.68126">
        <ele>417</ele>
        <time>2022-06-25T12:45:24Z</time>
      </trkpt>
      <trkpt lat="46.29961" lon="4.68122">
        <ele>417.4</ele>
        <time>2022-06-25T12:45:25Z</time>
      </trkpt>
      <trkpt lat="46.29961" lon="4.68118">
        <ele>417.6</ele>
        <time>2022-06-25T12:45:26Z</time>
      </trkpt>
      <trkpt lat="46.29961" lon="4.68114">
        <ele>417.6</ele>
        <time>2022-06-25T12:45:27Z</time>
      </trkpt>
      <trkpt lat="46.29961" lon="4.6811">
        <ele>417.8</ele>
        <time>2022-06-25T12:45:28Z</time>
      </trkpt>
      <trkpt lat="46.29961" lon="4.68106">
        <ele>417.8</ele>
        <time>2022-06-25T12:45:29Z</time>
      </trkpt>
      <trkpt lat="46.29962" lon="4.68101">
        <ele>418</ele>
        <time>2022-06-25T12:45:30Z</time>
      </trkpt>
      <trkpt lat="46.29962" lon="4.68096">
        <ele>418</ele>
        <time>2022-06-25T12:45:31Z</time>
      </trkpt>
      <trkpt lat="46.29963" lon="4.68092">
        <ele>418.4</ele>
        <time>2022-06-25T12:45:32Z</time>
      </trkpt>
      <trkpt lat="46.29964" lon="4.68087">
        <ele>418.6</ele>
        <time>2022-06-25T12:45:33Z</time>
      </trkpt>
      <trkpt lat="46.29966" lon="4.68084">
        <ele>418.6</ele>
        <time>2022-06-25T12:45:34Z</time>
      </trkpt>
      <trkpt lat="46.29968" lon="4.6808">
        <ele>419</ele>
        <time>2022-06-25T12:45:35Z</time>
      </trkpt>
      <trkpt lat="46.2997" lon="4.68077">
        <ele>419.2</ele>
        <time>2022-06-25T12:45:36Z</time>
      </trkpt>
      <trkpt lat="46.29972" lon="4.68073">
        <ele>419.4</ele>
        <time>2022-06-25T12:45:37Z</time>
      </trkpt>
      <trkpt lat="46.29974" lon="4.6807">
        <ele>419.6</ele>
        <time>2022-06-25T12:45:38Z</time>
      </trkpt>
      <trkpt lat="46.29976" lon="4.68066">
        <ele>419.6</ele>
        <time>2022-06-25T12:45:39Z</time>
      </trkpt>
      <trkpt lat="46.29978" lon="4.68062">
        <ele>420</ele>
        <time>2022-06-25T12:45:40Z</time>
      </trkpt>
      <trkpt lat="46.29979" lon="4.68058">
        <ele>420.2</ele>
        <time>2022-06-25T12:45:41Z</time>
      </trkpt>
      <trkpt lat="46.29982" lon="4.68049">
        <ele>420.6</ele>
        <time>2022-06-25T12:45:42Z</time>
      </trkpt>
      <trkpt lat="46.29983" lon="4.68044">
        <ele>420.8</ele>
        <time>2022-06-25T12:45:43Z</time>
      </trkpt>
      <trkpt lat="46.29984" lon="4.6804">
        <ele>421</ele>
        <time>2022-06-25T12:45:44Z</time>
      </trkpt>
      <trkpt lat="46.29984" lon="4.68035">
        <ele>421.2</ele>
        <time>2022-06-25T12:45:45Z</time>
      </trkpt>
      <trkpt lat="46.29985" lon="4.68031">
        <ele>421.4</ele>
        <time>2022-06-25T12:45:46Z</time>
      </trkpt>
      <trkpt lat="46.29986" lon="4.68026">
        <ele>421.4</ele>
        <time>2022-06-25T12:45:47Z</time>
      </trkpt>
      <trkpt lat="46.29987" lon="4.68022">
        <ele>421.8</ele>
        <time>2022-06-25T12:45:48Z</time>
      </trkpt>
      <trkpt lat="46.29989" lon="4.68018">
        <ele>421.8</ele>
        <time>2022-06-25T12:45:49Z</time>
      </trkpt>
      <trkpt lat="46.2999" lon="4.68014">
        <ele>422.2</ele>
        <time>2022-06-25T12:45:50Z</time>
      </trkpt>
      <trkpt lat="46.29992" lon="4.6801">
        <ele>422.2</ele>
        <time>2022-06-25T12:45:51Z</time>
      </trkpt>
      <trkpt lat="46.29993" lon="4.68006">
        <ele>422.6</ele>
        <time>2022-06-25T12:45:52Z</time>
      </trkpt>
      <trkpt lat="46.29996" lon="4.68003">
        <ele>423</ele>
        <time>2022-06-25T12:45:53Z</time>
      </trkpt>
      <trkpt lat="46.29998" lon="4.68">
        <ele>423.2</ele>
        <time>2022-06-25T12:45:54Z</time>
      </trkpt>
      <trkpt lat="46.3" lon="4.67997">
        <ele>423.4</ele>
        <time>2022-06-25T12:45:55Z</time>
      </trkpt>
      <trkpt lat="46.30003" lon="4.67995">
        <ele>423.6</ele>
        <time>2022-06-25T12:45:56Z</time>
      </trkpt>
      <trkpt lat="46.30006" lon="4.67993">
        <ele>424</ele>
        <time>2022-06-25T12:45:57Z</time>
      </trkpt>
      <trkpt lat="46.30009" lon="4.67992">
        <ele>424</ele>
        <time>2022-06-25T12:45:58Z</time>
      </trkpt>
      <trkpt lat="46.3001" lon="4.67991">
        <ele>424.2</ele>
        <time>2022-06-25T12:45:59Z</time>
      </trkpt>
      <trkpt lat="46.30012" lon="4.67991">
        <ele>424.6</ele>
        <time>2022-06-25T12:46:00Z</time>
      </trkpt>
      <trkpt lat="46.30015" lon="4.6799">
        <ele>424.8</ele>
        <time>2022-06-25T12:46:01Z</time>
      </trkpt>
      <trkpt lat="46.30018" lon="4.6799">
        <ele>425</ele>
        <time>2022-06-25T12:46:02Z</time>
      </trkpt>
      <trkpt lat="46.30021" lon="4.67991">
        <ele>425.2</ele>
        <time>2022-06-25T12:46:03Z</time>
      </trkpt>
      <trkpt lat="46.30024" lon="4.67991">
        <ele>425.2</ele>
        <time>2022-06-25T12:46:04Z</time>
      </trkpt>
      <trkpt lat="46.30026" lon="4.67991">
        <ele>425.6</ele>
        <time>2022-06-25T12:46:05Z</time>
      </trkpt>
      <trkpt lat="46.30029" lon="4.67992">
        <ele>425.8</ele>
        <time>2022-06-25T12:46:06Z</time>
      </trkpt>
      <trkpt lat="46.30032" lon="4.67991">
        <ele>426</ele>
        <time>2022-06-25T12:46:07Z</time>
      </trkpt>
      <trkpt lat="46.30034" lon="4.67991">
        <ele>426.2</ele>
        <time>2022-06-25T12:46:08Z</time>
      </trkpt>
      <trkpt lat="46.30037" lon="4.67991">
        <ele>426.4</ele>
        <time>2022-06-25T12:46:09Z</time>
      </trkpt>
      <trkpt lat="46.3004" lon="4.67991">
        <ele>426.6</ele>
        <time>2022-06-25T12:46:10Z</time>
      </trkpt>
      <trkpt lat="46.30043" lon="4.67991">
        <ele>426.6</ele>
        <time>2022-06-25T12:46:11Z</time>
      </trkpt>
      <trkpt lat="46.30046" lon="4.6799">
        <ele>427</ele>
        <time>2022-06-25T12:46:12Z</time>
      </trkpt>
      <trkpt lat="46.30051" lon="4.67987">
        <ele>427</ele>
        <time>2022-06-25T12:46:13Z</time>
      </trkpt>
      <trkpt lat="46.30054" lon="4.67985">
        <ele>427.4</ele>
        <time>2022-06-25T12:46:14Z</time>
      </trkpt>
      <trkpt lat="46.30056" lon="4.67983">
        <ele>427.4</ele>
        <time>2022-06-25T12:46:15Z</time>
      </trkpt>
      <trkpt lat="46.30058" lon="4.6798">
        <ele>428</ele>
        <time>2022-06-25T12:46:17Z</time>
      </trkpt>
      <trkpt lat="46.3006" lon="4.67977">
        <ele>428.2</ele>
        <time>2022-06-25T12:46:18Z</time>
      </trkpt>
      <trkpt lat="46.30062" lon="4.67974">
        <ele>428.6</ele>
        <time>2022-06-25T12:46:19Z</time>
      </trkpt>
      <trkpt lat="46.30063" lon="4.6797">
        <ele>428.8</ele>
        <time>2022-06-25T12:46:20Z</time>
      </trkpt>
      <trkpt lat="46.30064" lon="4.67966">
        <ele>429</ele>
        <time>2022-06-25T12:46:21Z</time>
      </trkpt>
      <trkpt lat="46.30065" lon="4.67962">
        <ele>429.2</ele>
        <time>2022-06-25T12:46:22Z</time>
      </trkpt>
      <trkpt lat="46.30066" lon="4.67958">
        <ele>429.2</ele>
        <time>2022-06-25T12:46:23Z</time>
      </trkpt>
      <trkpt lat="46.30066" lon="4.67953">
        <ele>429.6</ele>
        <time>2022-06-25T12:46:24Z</time>
      </trkpt>
      <trkpt lat="46.30066" lon="4.67949">
        <ele>429.6</ele>
        <time>2022-06-25T12:46:25Z</time>
      </trkpt>
      <trkpt lat="46.30066" lon="4.67945">
        <ele>430</ele>
        <time>2022-06-25T12:46:26Z</time>
      </trkpt>
      <trkpt lat="46.30066" lon="4.6794">
        <ele>430.2</ele>
        <time>2022-06-25T12:46:27Z</time>
      </trkpt>
      <trkpt lat="46.30066" lon="4.67935">
        <ele>430.4</ele>
        <time>2022-06-25T12:46:28Z</time>
      </trkpt>
      <trkpt lat="46.30066" lon="4.67931">
        <ele>430.4</ele>
        <time>2022-06-25T12:46:29Z</time>
      </trkpt>
      <trkpt lat="46.30066" lon="4.67926">
        <ele>431</ele>
        <time>2022-06-25T12:46:30Z</time>
      </trkpt>
      <trkpt lat="46.30066" lon="4.67921">
        <ele>431.2</ele>
        <time>2022-06-25T12:46:31Z</time>
      </trkpt>
      <trkpt lat="46.30066" lon="4.67917">
        <ele>431.2</ele>
        <time>2022-06-25T12:46:32Z</time>
      </trkpt>
      <trkpt lat="46.30066" lon="4.67912">
        <ele>431.4</ele>
        <time>2022-06-25T12:46:33Z</time>
      </trkpt>
      <trkpt lat="46.30065" lon="4.67908">
        <ele>431.4</ele>
        <time>2022-06-25T12:46:34Z</time>
      </trkpt>
      <trkpt lat="46.30065" lon="4.67903">
        <ele>431.8</ele>
        <time>2022-06-25T12:46:35Z</time>
      </trkpt>
      <trkpt lat="46.30065" lon="4.67899">
        <ele>432</ele>
        <time>2022-06-25T12:46:36Z</time>
      </trkpt>
      <trkpt lat="46.30064" lon="4.67895">
        <ele>432</ele>
        <time>2022-06-25T12:46:37Z</time>
      </trkpt>
      <trkpt lat="46.30064" lon="4.67891">
        <ele>432.4</ele>
        <time>2022-06-25T12:46:38Z</time>
      </trkpt>
      <trkpt lat="46.30064" lon="4.67886">
        <ele>432.8</ele>
        <time>2022-06-25T12:46:39Z</time>
      </trkpt>
      <trkpt lat="46.30063" lon="4.67882">
        <ele>433</ele>
        <time>2022-06-25T12:46:40Z</time>
      </trkpt>
      <trkpt lat="46.30063" lon="4.67878">
        <ele>433</ele>
        <time>2022-06-25T12:46:41Z</time>
      </trkpt>
      <trkpt lat="46.30062" lon="4.67874">
        <ele>433.4</ele>
        <time>2022-06-25T12:46:42Z</time>
      </trkpt>
      <trkpt lat="46.30061" lon="4.6787">
        <ele>433.6</ele>
        <time>2022-06-25T12:46:43Z</time>
      </trkpt>
      <trkpt lat="46.3006" lon="4.67866">
        <ele>433.6</ele>
        <time>2022-06-25T12:46:44Z</time>
      </trkpt>
      <trkpt lat="46.30059" lon="4.67862">
        <ele>434</ele>
        <time>2022-06-25T12:46:45Z</time>
      </trkpt>
      <trkpt lat="46.30058" lon="4.67858">
        <ele>434.2</ele>
        <time>2022-06-25T12:46:46Z</time>
      </trkpt>
      <trkpt lat="46.30057" lon="4.67855">
        <ele>434.4</ele>
        <time>2022-06-25T12:46:47Z</time>
      </trkpt>
      <trkpt lat="46.30055" lon="4.6785">
        <ele>434.4</ele>
        <time>2022-06-25T12:46:48Z</time>
      </trkpt>
      <trkpt lat="46.30053" lon="4.67847">
        <ele>434.8</ele>
        <time>2022-06-25T12:46:49Z</time>
      </trkpt>
      <trkpt lat="46.30051" lon="4.67843">
        <ele>434.8</ele>
        <time>2022-06-25T12:46:50Z</time>
      </trkpt>
      <trkpt lat="46.30049" lon="4.6784">
        <ele>435.2</ele>
        <time>2022-06-25T12:46:51Z</time>
      </trkpt>
      <trkpt lat="46.30046" lon="4.67837">
        <ele>435.4</ele>
        <time>2022-06-25T12:46:52Z</time>
      </trkpt>
      <trkpt lat="46.30043" lon="4.67834">
        <ele>435.6</ele>
        <time>2022-06-25T12:46:53Z</time>
      </trkpt>
      <trkpt lat="46.30039" lon="4.67833">
        <ele>435.8</ele>
        <time>2022-06-25T12:46:54Z</time>
      </trkpt>
      <trkpt lat="46.30036" lon="4.67832">
        <ele>436</ele>
        <time>2022-06-25T12:46:55Z</time>
      </trkpt>
      <trkpt lat="46.30033" lon="4.67831">
        <ele>436.2</ele>
        <time>2022-06-25T12:46:56Z</time>
      </trkpt>
      <trkpt lat="46.30029" lon="4.67831">
        <ele>436.4</ele>
        <time>2022-06-25T12:46:57Z</time>
      </trkpt>
      <trkpt lat="46.30026" lon="4.67832">
        <ele>436.8</ele>
        <time>2022-06-25T12:46:58Z</time>
      </trkpt>
      <trkpt lat="46.30023" lon="4.67832">
        <ele>437</ele>
        <time>2022-06-25T12:46:59Z</time>
      </trkpt>
      <trkpt lat="46.30019" lon="4.67833">
        <ele>437.2</ele>
        <time>2022-06-25T12:47:00Z</time>
      </trkpt>
      <trkpt lat="46.30016" lon="4.67835">
        <ele>437.6</ele>
        <time>2022-06-25T12:47:01Z</time>
      </trkpt>
      <trkpt lat="46.30013" lon="4.67838">
        <ele>437.8</ele>
        <time>2022-06-25T12:47:02Z</time>
      </trkpt>
      <trkpt lat="46.3001" lon="4.67841">
        <ele>438</ele>
        <time>2022-06-25T12:47:03Z</time>
      </trkpt>
      <trkpt lat="46.30007" lon="4.67844">
        <ele>438.4</ele>
        <time>2022-06-25T12:47:04Z</time>
      </trkpt>
      <trkpt lat="46.30005" lon="4.67848">
        <ele>438.6</ele>
        <time>2022-06-25T12:47:05Z</time>
      </trkpt>
      <trkpt lat="46.30003" lon="4.67853">
        <ele>438.8</ele>
        <time>2022-06-25T12:47:06Z</time>
      </trkpt>
      <trkpt lat="46.30001" lon="4.67857">
        <ele>438.8</ele>
        <time>2022-06-25T12:47:07Z</time>
      </trkpt>
      <trkpt lat="46.29999" lon="4.67862">
        <ele>439.2</ele>
        <time>2022-06-25T12:47:08Z</time>
      </trkpt>
      <trkpt lat="46.29997" lon="4.67867">
        <ele>439.4</ele>
        <time>2022-06-25T12:47:09Z</time>
      </trkpt>
      <trkpt lat="46.29995" lon="4.67871">
        <ele>439.4</ele>
        <time>2022-06-25T12:47:10Z</time>
      </trkpt>
      <trkpt lat="46.29993" lon="4.67876">
        <ele>439.8</ele>
        <time>2022-06-25T12:47:11Z</time>
      </trkpt>
      <trkpt lat="46.29991" lon="4.6788">
        <ele>439.8</ele>
        <time>2022-06-25T12:47:12Z</time>
      </trkpt>
      <trkpt lat="46.29989" lon="4.67884">
        <ele>440.2</ele>
        <time>2022-06-25T12:47:13Z</time>
      </trkpt>
      <trkpt lat="46.29986" lon="4.67888">
        <ele>440.2</ele>
        <time>2022-06-25T12:47:14Z</time>
      </trkpt>
      <trkpt lat="46.29984" lon="4.67891">
        <ele>440.6</ele>
        <time>2022-06-25T12:47:15Z</time>
      </trkpt>
      <trkpt lat="46.29981" lon="4.67895">
        <ele>440.8</ele>
        <time>2022-06-25T12:47:16Z</time>
      </trkpt>
      <trkpt lat="46.29979" lon="4.67898">
        <ele>441</ele>
        <time>2022-06-25T12:47:17Z</time>
      </trkpt>
      <trkpt lat="46.29976" lon="4.67902">
        <ele>441.2</ele>
        <time>2022-06-25T12:47:18Z</time>
      </trkpt>
      <trkpt lat="46.29973" lon="4.67905">
        <ele>441.6</ele>
        <time>2022-06-25T12:47:19Z</time>
      </trkpt>
      <trkpt lat="46.2997" lon="4.67908">
        <ele>441.8</ele>
        <time>2022-06-25T12:47:20Z</time>
      </trkpt>
      <trkpt lat="46.29968" lon="4.67911">
        <ele>441.8</ele>
        <time>2022-06-25T12:47:21Z</time>
      </trkpt>
      <trkpt lat="46.29965" lon="4.67913">
        <ele>442.2</ele>
        <time>2022-06-25T12:47:22Z</time>
      </trkpt>
      <trkpt lat="46.29962" lon="4.67916">
        <ele>442.2</ele>
        <time>2022-06-25T12:47:23Z</time>
      </trkpt>
      <trkpt lat="46.29958" lon="4.67919">
        <ele>442.6</ele>
        <time>2022-06-25T12:47:24Z</time>
      </trkpt>
      <trkpt lat="46.29955" lon="4.67921">
        <ele>443</ele>
        <time>2022-06-25T12:47:25Z</time>
      </trkpt>
      <trkpt lat="46.29952" lon="4.67924">
        <ele>443.2</ele>
        <time>2022-06-25T12:47:26Z</time>
      </trkpt>
      <trkpt lat="46.29949" lon="4.67926">
        <ele>443.4</ele>
        <time>2022-06-25T12:47:27Z</time>
      </trkpt>
      <trkpt lat="46.29946" lon="4.67928">
        <ele>443.6</ele>
        <time>2022-06-25T12:47:28Z</time>
      </trkpt>
      <trkpt lat="46.29943" lon="4.6793">
        <ele>443.6</ele>
        <time>2022-06-25T12:47:29Z</time>
      </trkpt>
      <trkpt lat="46.2994" lon="4.67932">
        <ele>444</ele>
        <time>2022-06-25T12:47:30Z</time>
      </trkpt>
      <trkpt lat="46.29937" lon="4.67934">
        <ele>444</ele>
        <time>2022-06-25T12:47:31Z</time>
      </trkpt>
      <trkpt lat="46.29933" lon="4.67935">
        <ele>444.4</ele>
        <time>2022-06-25T12:47:32Z</time>
      </trkpt>
      <trkpt lat="46.2993" lon="4.67937">
        <ele>444.4</ele>
        <time>2022-06-25T12:47:33Z</time>
      </trkpt>
      <trkpt lat="46.29927" lon="4.67939">
        <ele>444.8</ele>
        <time>2022-06-25T12:47:34Z</time>
      </trkpt>
      <trkpt lat="46.29924" lon="4.6794">
        <ele>444.8</ele>
        <time>2022-06-25T12:47:35Z</time>
      </trkpt>
      <trkpt lat="46.29921" lon="4.67941">
        <ele>445</ele>
        <time>2022-06-25T12:47:36Z</time>
      </trkpt>
      <trkpt lat="46.29918" lon="4.67942">
        <ele>445.2</ele>
        <time>2022-06-25T12:47:37Z</time>
      </trkpt>
      <trkpt lat="46.29914" lon="4.67942">
        <ele>445.6</ele>
        <time>2022-06-25T12:47:38Z</time>
      </trkpt>
      <trkpt lat="46.29911" lon="4.67942">
        <ele>445.6</ele>
        <time>2022-06-25T12:47:39Z</time>
      </trkpt>
      <trkpt lat="46.29907" lon="4.67943">
        <ele>445.8</ele>
        <time>2022-06-25T12:47:40Z</time>
      </trkpt>
      <trkpt lat="46.29904" lon="4.67943">
        <ele>446</ele>
        <time>2022-06-25T12:47:41Z</time>
      </trkpt>
      <trkpt lat="46.299" lon="4.67942">
        <ele>446</ele>
        <time>2022-06-25T12:47:42Z</time>
      </trkpt>
      <trkpt lat="46.29897" lon="4.67942">
        <ele>446.4</ele>
        <time>2022-06-25T12:47:43Z</time>
      </trkpt>
      <trkpt lat="46.29893" lon="4.67942">
        <ele>446.4</ele>
        <time>2022-06-25T12:47:44Z</time>
      </trkpt>
      <trkpt lat="46.2989" lon="4.67942">
        <ele>446.8</ele>
        <time>2022-06-25T12:47:45Z</time>
      </trkpt>
      <trkpt lat="46.29887" lon="4.67941">
        <ele>446.8</ele>
        <time>2022-06-25T12:47:46Z</time>
      </trkpt>
      <trkpt lat="46.29884" lon="4.67941">
        <ele>447</ele>
        <time>2022-06-25T12:47:47Z</time>
      </trkpt>
      <trkpt lat="46.29881" lon="4.67941">
        <ele>447.4</ele>
        <time>2022-06-25T12:47:48Z</time>
      </trkpt>
      <trkpt lat="46.29877" lon="4.6794">
        <ele>447.6</ele>
        <time>2022-06-25T12:47:49Z</time>
      </trkpt>
      <trkpt lat="46.29874" lon="4.6794">
        <ele>447.8</ele>
        <time>2022-06-25T12:47:50Z</time>
      </trkpt>
      <trkpt lat="46.29871" lon="4.6794">
        <ele>447.8</ele>
        <time>2022-06-25T12:47:51Z</time>
      </trkpt>
      <trkpt lat="46.29867" lon="4.6794">
        <ele>448.2</ele>
        <time>2022-06-25T12:47:52Z</time>
      </trkpt>
      <trkpt lat="46.29864" lon="4.67941">
        <ele>448.2</ele>
        <time>2022-06-25T12:47:53Z</time>
      </trkpt>
      <trkpt lat="46.29861" lon="4.67941">
        <ele>448.6</ele>
        <time>2022-06-25T12:47:54Z</time>
      </trkpt>
      <trkpt lat="46.29857" lon="4.67942">
        <ele>448.8</ele>
        <time>2022-06-25T12:47:55Z</time>
      </trkpt>
      <trkpt lat="46.29854" lon="4.67942">
        <ele>448.8</ele>
        <time>2022-06-25T12:47:56Z</time>
      </trkpt>
      <trkpt lat="46.2985" lon="4.67943">
        <ele>449.2</ele>
        <time>2022-06-25T12:47:57Z</time>
      </trkpt>
      <trkpt lat="46.29847" lon="4.67944">
        <ele>449.4</ele>
        <time>2022-06-25T12:47:58Z</time>
      </trkpt>
      <trkpt lat="46.29844" lon="4.67946">
        <ele>449.6</ele>
        <time>2022-06-25T12:47:59Z</time>
      </trkpt>
      <trkpt lat="46.29841" lon="4.67948">
        <ele>450</ele>
        <time>2022-06-25T12:48:00Z</time>
      </trkpt>
      <trkpt lat="46.29838" lon="4.6795">
        <ele>450</ele>
        <time>2022-06-25T12:48:01Z</time>
      </trkpt>
      <trkpt lat="46.29835" lon="4.67953">
        <ele>450.4</ele>
        <time>2022-06-25T12:48:02Z</time>
      </trkpt>
      <trkpt lat="46.29832" lon="4.67956">
        <ele>450.6</ele>
        <time>2022-06-25T12:48:03Z</time>
      </trkpt>
      <trkpt lat="46.2983" lon="4.67959">
        <ele>450.8</ele>
        <time>2022-06-25T12:48:04Z</time>
      </trkpt>
      <trkpt lat="46.29827" lon="4.67962">
        <ele>451.2</ele>
        <time>2022-06-25T12:48:05Z</time>
      </trkpt>
      <trkpt lat="46.29825" lon="4.67966">
        <ele>451.4</ele>
        <time>2022-06-25T12:48:06Z</time>
      </trkpt>
      <trkpt lat="46.29823" lon="4.67969">
        <ele>451.6</ele>
        <time>2022-06-25T12:48:07Z</time>
      </trkpt>
      <trkpt lat="46.29821" lon="4.67973">
        <ele>451.8</ele>
        <time>2022-06-25T12:48:08Z</time>
      </trkpt>
      <trkpt lat="46.29819" lon="4.67977">
        <ele>452.2</ele>
        <time>2022-06-25T12:48:09Z</time>
      </trkpt>
      <trkpt lat="46.29816" lon="4.6798">
        <ele>452.4</ele>
        <time>2022-06-25T12:48:10Z</time>
      </trkpt>
      <trkpt lat="46.29814" lon="4.67984">
        <ele>452.6</ele>
        <time>2022-06-25T12:48:11Z</time>
      </trkpt>
      <trkpt lat="46.29812" lon="4.67988">
        <ele>452.8</ele>
        <time>2022-06-25T12:48:12Z</time>
      </trkpt>
      <trkpt lat="46.2981" lon="4.67992">
        <ele>453</ele>
        <time>2022-06-25T12:48:13Z</time>
      </trkpt>
      <trkpt lat="46.29808" lon="4.67996">
        <ele>453</ele>
        <time>2022-06-25T12:48:14Z</time>
      </trkpt>
      <trkpt lat="46.29806" lon="4.67999">
        <ele>453.6</ele>
        <time>2022-06-25T12:48:15Z</time>
      </trkpt>
      <trkpt lat="46.29804" lon="4.68003">
        <ele>453.6</ele>
        <time>2022-06-25T12:48:16Z</time>
      </trkpt>
      <trkpt lat="46.29802" lon="4.68007">
        <ele>454</ele>
        <time>2022-06-25T12:48:17Z</time>
      </trkpt>
      <trkpt lat="46.298" lon="4.68011">
        <ele>454.2</ele>
        <time>2022-06-25T12:48:18Z</time>
      </trkpt>
      <trkpt lat="46.29797" lon="4.68014">
        <ele>454.2</ele>
        <time>2022-06-25T12:48:19Z</time>
      </trkpt>
      <trkpt lat="46.29795" lon="4.68018">
        <ele>454.6</ele>
        <time>2022-06-25T12:48:20Z</time>
      </trkpt>
      <trkpt lat="46.29793" lon="4.68022">
        <ele>454.8</ele>
        <time>2022-06-25T12:48:21Z</time>
      </trkpt>
      <trkpt lat="46.29791" lon="4.68026">
        <ele>455.4</ele>
        <time>2022-06-25T12:48:22Z</time>
      </trkpt>
      <trkpt lat="46.29789" lon="4.6803">
        <ele>455.6</ele>
        <time>2022-06-25T12:48:23Z</time>
      </trkpt>
      <trkpt lat="46.29787" lon="4.68034">
        <ele>455.8</ele>
        <time>2022-06-25T12:48:24Z</time>
      </trkpt>
      <trkpt lat="46.29785" lon="4.68038">
        <ele>456</ele>
        <time>2022-06-25T12:48:25Z</time>
      </trkpt>
      <trkpt lat="46.29782" lon="4.68042">
        <ele>456</ele>
        <time>2022-06-25T12:48:26Z</time>
      </trkpt>
      <trkpt lat="46.2978" lon="4.68045">
        <ele>456.4</ele>
        <time>2022-06-25T12:48:27Z</time>
      </trkpt>
      <trkpt lat="46.29778" lon="4.68049">
        <ele>456.4</ele>
        <time>2022-06-25T12:48:28Z</time>
      </trkpt>
      <trkpt lat="46.29776" lon="4.68052">
        <ele>456.8</ele>
        <time>2022-06-25T12:48:29Z</time>
      </trkpt>
      <trkpt lat="46.29774" lon="4.68056">
        <ele>457</ele>
        <time>2022-06-25T12:48:30Z</time>
      </trkpt>
      <trkpt lat="46.29771" lon="4.6806">
        <ele>457.2</ele>
        <time>2022-06-25T12:48:31Z</time>
      </trkpt>
      <trkpt lat="46.29769" lon="4.68064">
        <ele>457.4</ele>
        <time>2022-06-25T12:48:32Z</time>
      </trkpt>
      <trkpt lat="46.29767" lon="4.68068">
        <ele>457.8</ele>
        <time>2022-06-25T12:48:33Z</time>
      </trkpt>
      <trkpt lat="46.29765" lon="4.68071">
        <ele>458</ele>
        <time>2022-06-25T12:48:34Z</time>
      </trkpt>
      <trkpt lat="46.29763" lon="4.68075">
        <ele>458.2</ele>
        <time>2022-06-25T12:48:35Z</time>
      </trkpt>
      <trkpt lat="46.29761" lon="4.68079">
        <ele>458.4</ele>
        <time>2022-06-25T12:48:36Z</time>
      </trkpt>
      <trkpt lat="46.29759" lon="4.68083">
        <ele>458.8</ele>
        <time>2022-06-25T12:48:37Z</time>
      </trkpt>
      <trkpt lat="46.29757" lon="4.68087">
        <ele>459</ele>
        <time>2022-06-25T12:48:38Z</time>
      </trkpt>
      <trkpt lat="46.29755" lon="4.68091">
        <ele>459</ele>
        <time>2022-06-25T12:48:39Z</time>
      </trkpt>
      <trkpt lat="46.29753" lon="4.68095">
        <ele>459.4</ele>
        <time>2022-06-25T12:48:40Z</time>
      </trkpt>
      <trkpt lat="46.29751" lon="4.68099">
        <ele>459.6</ele>
        <time>2022-06-25T12:48:41Z</time>
      </trkpt>
      <trkpt lat="46.29749" lon="4.68102">
        <ele>459.8</ele>
        <time>2022-06-25T12:48:42Z</time>
      </trkpt>
      <trkpt lat="46.29747" lon="4.68105">
        <ele>460</ele>
        <time>2022-06-25T12:48:43Z</time>
      </trkpt>
      <trkpt lat="46.29744" lon="4.68109">
        <ele>460.2</ele>
        <time>2022-06-25T12:48:44Z</time>
      </trkpt>
      <trkpt lat="46.29742" lon="4.68112">
        <ele>460.4</ele>
        <time>2022-06-25T12:48:45Z</time>
      </trkpt>
      <trkpt lat="46.2974" lon="4.68115">
        <ele>460.4</ele>
        <time>2022-06-25T12:48:46Z</time>
      </trkpt>
      <trkpt lat="46.29738" lon="4.68119">
        <ele>460.8</ele>
        <time>2022-06-25T12:48:47Z</time>
      </trkpt>
      <trkpt lat="46.29736" lon="4.68123">
        <ele>460.8</ele>
        <time>2022-06-25T12:48:48Z</time>
      </trkpt>
      <trkpt lat="46.29734" lon="4.68126">
        <ele>461</ele>
        <time>2022-06-25T12:48:49Z</time>
      </trkpt>
      <trkpt lat="46.29731" lon="4.6813">
        <ele>461</ele>
        <time>2022-06-25T12:48:50Z</time>
      </trkpt>
      <trkpt lat="46.29729" lon="4.68133">
        <ele>461.4</ele>
        <time>2022-06-25T12:48:51Z</time>
      </trkpt>
      <trkpt lat="46.29726" lon="4.68136">
        <ele>461.4</ele>
        <time>2022-06-25T12:48:52Z</time>
      </trkpt>
      <trkpt lat="46.29724" lon="4.68139">
        <ele>461.8</ele>
        <time>2022-06-25T12:48:53Z</time>
      </trkpt>
      <trkpt lat="46.29722" lon="4.68142">
        <ele>462</ele>
        <time>2022-06-25T12:48:54Z</time>
      </trkpt>
      <trkpt lat="46.29719" lon="4.68146">
        <ele>462</ele>
        <time>2022-06-25T12:48:55Z</time>
      </trkpt>
      <trkpt lat="46.29717" lon="4.68149">
        <ele>462.4</ele>
        <time>2022-06-25T12:48:56Z</time>
      </trkpt>
      <trkpt lat="46.29714" lon="4.68152">
        <ele>462.6</ele>
        <time>2022-06-25T12:48:57Z</time>
      </trkpt>
      <trkpt lat="46.29712" lon="4.68155">
        <ele>462.8</ele>
        <time>2022-06-25T12:48:58Z</time>
      </trkpt>
      <trkpt lat="46.2971" lon="4.68158">
        <ele>463</ele>
        <time>2022-06-25T12:48:59Z</time>
      </trkpt>
      <trkpt lat="46.29707" lon="4.68161">
        <ele>463.4</ele>
        <time>2022-06-25T12:49:00Z</time>
      </trkpt>
      <trkpt lat="46.29705" lon="4.68164">
        <ele>463.6</ele>
        <time>2022-06-25T12:49:01Z</time>
      </trkpt>
      <trkpt lat="46.29702" lon="4.68167">
        <ele>463.6</ele>
        <time>2022-06-25T12:49:02Z</time>
      </trkpt>
      <trkpt lat="46.29699" lon="4.6817">
        <ele>464</ele>
        <time>2022-06-25T12:49:03Z</time>
      </trkpt>
      <trkpt lat="46.29697" lon="4.68173">
        <ele>464</ele>
        <time>2022-06-25T12:49:04Z</time>
      </trkpt>
      <trkpt lat="46.29694" lon="4.68176">
        <ele>464.4</ele>
        <time>2022-06-25T12:49:05Z</time>
      </trkpt>
      <trkpt lat="46.29692" lon="4.6818">
        <ele>464.6</ele>
        <time>2022-06-25T12:49:06Z</time>
      </trkpt>
      <trkpt lat="46.29689" lon="4.68183">
        <ele>464.8</ele>
        <time>2022-06-25T12:49:07Z</time>
      </trkpt>
      <trkpt lat="46.29687" lon="4.68186">
        <ele>465</ele>
        <time>2022-06-25T12:49:08Z</time>
      </trkpt>
      <trkpt lat="46.29684" lon="4.68189">
        <ele>465.2</ele>
        <time>2022-06-25T12:49:09Z</time>
      </trkpt>
      <trkpt lat="46.29682" lon="4.68193">
        <ele>465.4</ele>
        <time>2022-06-25T12:49:10Z</time>
      </trkpt>
      <trkpt lat="46.29679" lon="4.68196">
        <ele>465.4</ele>
        <time>2022-06-25T12:49:11Z</time>
      </trkpt>
      <trkpt lat="46.29677" lon="4.682">
        <ele>465.8</ele>
        <time>2022-06-25T12:49:12Z</time>
      </trkpt>
      <trkpt lat="46.29674" lon="4.68203">
        <ele>466.2</ele>
        <time>2022-06-25T12:49:13Z</time>
      </trkpt>
      <trkpt lat="46.29672" lon="4.68206">
        <ele>466.4</ele>
        <time>2022-06-25T12:49:14Z</time>
      </trkpt>
      <trkpt lat="46.2967" lon="4.6821">
        <ele>466.6</ele>
        <time>2022-06-25T12:49:15Z</time>
      </trkpt>
      <trkpt lat="46.29667" lon="4.68213">
        <ele>466.8</ele>
        <time>2022-06-25T12:49:16Z</time>
      </trkpt>
      <trkpt lat="46.29665" lon="4.68217">
        <ele>467.2</ele>
        <time>2022-06-25T12:49:17Z</time>
      </trkpt>
      <trkpt lat="46.29662" lon="4.6822">
        <ele>467.4</ele>
        <time>2022-06-25T12:49:18Z</time>
      </trkpt>
      <trkpt lat="46.2966" lon="4.68224">
        <ele>467.4</ele>
        <time>2022-06-25T12:49:19Z</time>
      </trkpt>
      <trkpt lat="46.29657" lon="4.68227">
        <ele>467.6</ele>
        <time>2022-06-25T12:49:20Z</time>
      </trkpt>
      <trkpt lat="46.29655" lon="4.6823">
        <ele>468</ele>
        <time>2022-06-25T12:49:21Z</time>
      </trkpt>
      <trkpt lat="46.29652" lon="4.68233">
        <ele>468.2</ele>
        <time>2022-06-25T12:49:22Z</time>
      </trkpt>
      <trkpt lat="46.2965" lon="4.68236">
        <ele>468.4</ele>
        <time>2022-06-25T12:49:23Z</time>
      </trkpt>
      <trkpt lat="46.29647" lon="4.68238">
        <ele>468.6</ele>
        <time>2022-06-25T12:49:24Z</time>
      </trkpt>
      <trkpt lat="46.29644" lon="4.68241">
        <ele>468.8</ele>
        <time>2022-06-25T12:49:25Z</time>
      </trkpt>
      <trkpt lat="46.29641" lon="4.68243">
        <ele>468.8</ele>
        <time>2022-06-25T12:49:26Z</time>
      </trkpt>
      <trkpt lat="46.29638" lon="4.68246">
        <ele>469.2</ele>
        <time>2022-06-25T12:49:27Z</time>
      </trkpt>
      <trkpt lat="46.29636" lon="4.68249">
        <ele>469.4</ele>
        <time>2022-06-25T12:49:28Z</time>
      </trkpt>
      <trkpt lat="46.29633" lon="4.68251">
        <ele>469.6</ele>
        <time>2022-06-25T12:49:29Z</time>
      </trkpt>
      <trkpt lat="46.2963" lon="4.68254">
        <ele>469.8</ele>
        <time>2022-06-25T12:49:30Z</time>
      </trkpt>
      <trkpt lat="46.29627" lon="4.68257">
        <ele>470.2</ele>
        <time>2022-06-25T12:49:31Z</time>
      </trkpt>
      <trkpt lat="46.29624" lon="4.6826">
        <ele>470.2</ele>
        <time>2022-06-25T12:49:32Z</time>
      </trkpt>
      <trkpt lat="46.29622" lon="4.68263">
        <ele>470.4</ele>
        <time>2022-06-25T12:49:33Z</time>
      </trkpt>
      <trkpt lat="46.29619" lon="4.68266">
        <ele>470.8</ele>
        <time>2022-06-25T12:49:34Z</time>
      </trkpt>
      <trkpt lat="46.29616" lon="4.68269">
        <ele>471</ele>
        <time>2022-06-25T12:49:35Z</time>
      </trkpt>
      <trkpt lat="46.29614" lon="4.68272">
        <ele>471</ele>
        <time>2022-06-25T12:49:36Z</time>
      </trkpt>
      <trkpt lat="46.29611" lon="4.68275">
        <ele>471.2</ele>
        <time>2022-06-25T12:49:37Z</time>
      </trkpt>
      <trkpt lat="46.29608" lon="4.68278">
        <ele>471.2</ele>
        <time>2022-06-25T12:49:38Z</time>
      </trkpt>
      <trkpt lat="46.29606" lon="4.68281">
        <ele>471.6</ele>
        <time>2022-06-25T12:49:39Z</time>
      </trkpt>
      <trkpt lat="46.29603" lon="4.68284">
        <ele>471.6</ele>
        <time>2022-06-25T12:49:40Z</time>
      </trkpt>
      <trkpt lat="46.29601" lon="4.68287">
        <ele>472</ele>
        <time>2022-06-25T12:49:41Z</time>
      </trkpt>
      <trkpt lat="46.29598" lon="4.68291">
        <ele>472</ele>
        <time>2022-06-25T12:49:42Z</time>
      </trkpt>
      <trkpt lat="46.29596" lon="4.68295">
        <ele>472.4</ele>
        <time>2022-06-25T12:49:43Z</time>
      </trkpt>
      <trkpt lat="46.29594" lon="4.68299">
        <ele>472.6</ele>
        <time>2022-06-25T12:49:44Z</time>
      </trkpt>
      <trkpt lat="46.29592" lon="4.68303">
        <ele>472.8</ele>
        <time>2022-06-25T12:49:45Z</time>
      </trkpt>
      <trkpt lat="46.2959" lon="4.68308">
        <ele>473.2</ele>
        <time>2022-06-25T12:49:46Z</time>
      </trkpt>
      <trkpt lat="46.29588" lon="4.68312">
        <ele>473.4</ele>
        <time>2022-06-25T12:49:47Z</time>
      </trkpt>
      <trkpt lat="46.29586" lon="4.68316">
        <ele>473.6</ele>
        <time>2022-06-25T12:49:48Z</time>
      </trkpt>
      <trkpt lat="46.29584" lon="4.68321">
        <ele>473.8</ele>
        <time>2022-06-25T12:49:49Z</time>
      </trkpt>
      <trkpt lat="46.29582" lon="4.68325">
        <ele>474</ele>
        <time>2022-06-25T12:49:50Z</time>
      </trkpt>
      <trkpt lat="46.2958" lon="4.6833">
        <ele>474.2</ele>
        <time>2022-06-25T12:49:51Z</time>
      </trkpt>
      <trkpt lat="46.29579" lon="4.68334">
        <ele>474.4</ele>
        <time>2022-06-25T12:49:52Z</time>
      </trkpt>
      <trkpt lat="46.29577" lon="4.68339">
        <ele>474.4</ele>
        <time>2022-06-25T12:49:53Z</time>
      </trkpt>
      <trkpt lat="46.29575" lon="4.68343">
        <ele>474.8</ele>
        <time>2022-06-25T12:49:54Z</time>
      </trkpt>
      <trkpt lat="46.29574" lon="4.68347">
        <ele>475</ele>
        <time>2022-06-25T12:49:55Z</time>
      </trkpt>
      <trkpt lat="46.29572" lon="4.68351">
        <ele>475</ele>
        <time>2022-06-25T12:49:56Z</time>
      </trkpt>
      <trkpt lat="46.29571" lon="4.68355">
        <ele>475.4</ele>
        <time>2022-06-25T12:49:57Z</time>
      </trkpt>
      <trkpt lat="46.29569" lon="4.68359">
        <ele>475.4</ele>
        <time>2022-06-25T12:49:58Z</time>
      </trkpt>
      <trkpt lat="46.29567" lon="4.68363">
        <ele>475.8</ele>
        <time>2022-06-25T12:49:59Z</time>
      </trkpt>
      <trkpt lat="46.29566" lon="4.68368">
        <ele>476</ele>
        <time>2022-06-25T12:50:00Z</time>
      </trkpt>
      <trkpt lat="46.29565" lon="4.68373">
        <ele>476.4</ele>
        <time>2022-06-25T12:50:01Z</time>
      </trkpt>
      <trkpt lat="46.29563" lon="4.68377">
        <ele>476.6</ele>
        <time>2022-06-25T12:50:02Z</time>
      </trkpt>
      <trkpt lat="46.29562" lon="4.68381">
        <ele>476.8</ele>
        <time>2022-06-25T12:50:03Z</time>
      </trkpt>
      <trkpt lat="46.2956" lon="4.68385">
        <ele>476.8</ele>
        <time>2022-06-25T12:50:04Z</time>
      </trkpt>
      <trkpt lat="46.29559" lon="4.68389">
        <ele>477.2</ele>
        <time>2022-06-25T12:50:05Z</time>
      </trkpt>
      <trkpt lat="46.29557" lon="4.68394">
        <ele>477.2</ele>
        <time>2022-06-25T12:50:06Z</time>
      </trkpt>
      <trkpt lat="46.29556" lon="4.68398">
        <ele>477.6</ele>
        <time>2022-06-25T12:50:07Z</time>
      </trkpt>
      <trkpt lat="46.29555" lon="4.68403">
        <ele>477.6</ele>
        <time>2022-06-25T12:50:08Z</time>
      </trkpt>
      <trkpt lat="46.29554" lon="4.68408">
        <ele>478</ele>
        <time>2022-06-25T12:50:09Z</time>
      </trkpt>
      <trkpt lat="46.29553" lon="4.68413">
        <ele>478.2</ele>
        <time>2022-06-25T12:50:10Z</time>
      </trkpt>
      <trkpt lat="46.29552" lon="4.68418">
        <ele>478.4</ele>
        <time>2022-06-25T12:50:11Z</time>
      </trkpt>
      <trkpt lat="46.29551" lon="4.68422">
        <ele>478.6</ele>
        <time>2022-06-25T12:50:12Z</time>
      </trkpt>
      <trkpt lat="46.29551" lon="4.68427">
        <ele>478.6</ele>
        <time>2022-06-25T12:50:13Z</time>
      </trkpt>
      <trkpt lat="46.2955" lon="4.68432">
        <ele>479</ele>
        <time>2022-06-25T12:50:14Z</time>
      </trkpt>
      <trkpt lat="46.2955" lon="4.68436">
        <ele>479.4</ele>
        <time>2022-06-25T12:50:15Z</time>
      </trkpt>
      <trkpt lat="46.29549" lon="4.68441">
        <ele>479.6</ele>
        <time>2022-06-25T12:50:16Z</time>
      </trkpt>
      <trkpt lat="46.29549" lon="4.68446">
        <ele>479.6</ele>
        <time>2022-06-25T12:50:17Z</time>
      </trkpt>
      <trkpt lat="46.29548" lon="4.68451">
        <ele>479.8</ele>
        <time>2022-06-25T12:50:18Z</time>
      </trkpt>
      <trkpt lat="46.29546" lon="4.68455">
        <ele>479.8</ele>
        <time>2022-06-25T12:50:19Z</time>
      </trkpt>
      <trkpt lat="46.29546" lon="4.68459">
        <ele>480.2</ele>
        <time>2022-06-25T12:50:20Z</time>
      </trkpt>
      <trkpt lat="46.29545" lon="4.68463">
        <ele>480.4</ele>
        <time>2022-06-25T12:50:21Z</time>
      </trkpt>
      <trkpt lat="46.29543" lon="4.68467">
        <ele>480.4</ele>
        <time>2022-06-25T12:50:22Z</time>
      </trkpt>
      <trkpt lat="46.29543" lon="4.68471">
        <ele>480.8</ele>
        <time>2022-06-25T12:50:23Z</time>
      </trkpt>
      <trkpt lat="46.29541" lon="4.68474">
        <ele>480.8</ele>
        <time>2022-06-25T12:50:24Z</time>
      </trkpt>
      <trkpt lat="46.2954" lon="4.68478">
        <ele>481.2</ele>
        <time>2022-06-25T12:50:25Z</time>
      </trkpt>
      <trkpt lat="46.29539" lon="4.68482">
        <ele>481.2</ele>
        <time>2022-06-25T12:50:26Z</time>
      </trkpt>
      <trkpt lat="46.29538" lon="4.68486">
        <ele>481.8</ele>
        <time>2022-06-25T12:50:27Z</time>
      </trkpt>
      <trkpt lat="46.29536" lon="4.6849">
        <ele>482</ele>
        <time>2022-06-25T12:50:28Z</time>
      </trkpt>
      <trkpt lat="46.29535" lon="4.68494">
        <ele>482.2</ele>
        <time>2022-06-25T12:50:29Z</time>
      </trkpt>
      <trkpt lat="46.29533" lon="4.68498">
        <ele>482.4</ele>
        <time>2022-06-25T12:50:30Z</time>
      </trkpt>
      <trkpt lat="46.29531" lon="4.68501">
        <ele>482.8</ele>
        <time>2022-06-25T12:50:31Z</time>
      </trkpt>
      <trkpt lat="46.29529" lon="4.68504">
        <ele>483</ele>
        <time>2022-06-25T12:50:32Z</time>
      </trkpt>
      <trkpt lat="46.29527" lon="4.68508">
        <ele>483</ele>
        <time>2022-06-25T12:50:33Z</time>
      </trkpt>
      <trkpt lat="46.29526" lon="4.68512">
        <ele>483.4</ele>
        <time>2022-06-25T12:50:34Z</time>
      </trkpt>
      <trkpt lat="46.29525" lon="4.68516">
        <ele>483.6</ele>
        <time>2022-06-25T12:50:35Z</time>
      </trkpt>
      <trkpt lat="46.29524" lon="4.6852">
        <ele>483.6</ele>
        <time>2022-06-25T12:50:36Z</time>
      </trkpt>
      <trkpt lat="46.29522" lon="4.68524">
        <ele>484</ele>
        <time>2022-06-25T12:50:37Z</time>
      </trkpt>
      <trkpt lat="46.29521" lon="4.68528">
        <ele>484</ele>
        <time>2022-06-25T12:50:38Z</time>
      </trkpt>
      <trkpt lat="46.29519" lon="4.68532">
        <ele>484.2</ele>
        <time>2022-06-25T12:50:39Z</time>
      </trkpt>
      <trkpt lat="46.29518" lon="4.68536">
        <ele>484.2</ele>
        <time>2022-06-25T12:50:40Z</time>
      </trkpt>
      <trkpt lat="46.29516" lon="4.6854">
        <ele>484.6</ele>
        <time>2022-06-25T12:50:41Z</time>
      </trkpt>
      <trkpt lat="46.29515" lon="4.68544">
        <ele>484.6</ele>
        <time>2022-06-25T12:50:42Z</time>
      </trkpt>
      <trkpt lat="46.29513" lon="4.68547">
        <ele>485</ele>
        <time>2022-06-25T12:50:43Z</time>
      </trkpt>
      <trkpt lat="46.29511" lon="4.6855">
        <ele>485.2</ele>
        <time>2022-06-25T12:50:44Z</time>
      </trkpt>
      <trkpt lat="46.2951" lon="4.68553">
        <ele>485.2</ele>
        <time>2022-06-25T12:50:45Z</time>
      </trkpt>
      <trkpt lat="46.29508" lon="4.68557">
        <ele>485.4</ele>
        <time>2022-06-25T12:50:46Z</time>
      </trkpt>
      <trkpt lat="46.29507" lon="4.6856">
        <ele>485.6</ele>
        <time>2022-06-25T12:50:47Z</time>
      </trkpt>
      <trkpt lat="46.29506" lon="4.68564">
        <ele>485.6</ele>
        <time>2022-06-25T12:50:48Z</time>
      </trkpt>
      <trkpt lat="46.29504" lon="4.68566">
        <ele>486</ele>
        <time>2022-06-25T12:50:49Z</time>
      </trkpt>
      <trkpt lat="46.29502" lon="4.68569">
        <ele>486</ele>
        <time>2022-06-25T12:50:50Z</time>
      </trkpt>
      <trkpt lat="46.295" lon="4.68572">
        <ele>486.4</ele>
        <time>2022-06-25T12:50:51Z</time>
      </trkpt>
      <trkpt lat="46.29498" lon="4.68575">
        <ele>486.6</ele>
        <time>2022-06-25T12:50:52Z</time>
      </trkpt>
      <trkpt lat="46.29496" lon="4.68578">
        <ele>486.8</ele>
        <time>2022-06-25T12:50:53Z</time>
      </trkpt>
      <trkpt lat="46.29493" lon="4.68581">
        <ele>486.8</ele>
        <time>2022-06-25T12:50:54Z</time>
      </trkpt>
      <trkpt lat="46.2949" lon="4.68584">
        <ele>487.2</ele>
        <time>2022-06-25T12:50:55Z</time>
      </trkpt>
      <trkpt lat="46.29487" lon="4.68587">
        <ele>487.6</ele>
        <time>2022-06-25T12:50:56Z</time>
      </trkpt>
      <trkpt lat="46.29484" lon="4.6859">
        <ele>487.8</ele>
        <time>2022-06-25T12:50:57Z</time>
      </trkpt>
      <trkpt lat="46.29481" lon="4.68592">
        <ele>488</ele>
        <time>2022-06-25T12:50:58Z</time>
      </trkpt>
      <trkpt lat="46.29478" lon="4.68595">
        <ele>488.4</ele>
        <time>2022-06-25T12:50:59Z</time>
      </trkpt>
      <trkpt lat="46.29475" lon="4.68597">
        <ele>488.6</ele>
        <time>2022-06-25T12:51:00Z</time>
      </trkpt>
      <trkpt lat="46.29472" lon="4.68599">
        <ele>488.8</ele>
        <time>2022-06-25T12:51:01Z</time>
      </trkpt>
      <trkpt lat="46.29469" lon="4.68602">
        <ele>488.8</ele>
        <time>2022-06-25T12:51:02Z</time>
      </trkpt>
      <trkpt lat="46.29467" lon="4.68604">
        <ele>489</ele>
        <time>2022-06-25T12:51:03Z</time>
      </trkpt>
      <trkpt lat="46.29464" lon="4.68606">
        <ele>489</ele>
        <time>2022-06-25T12:51:04Z</time>
      </trkpt>
      <trkpt lat="46.29461" lon="4.68608">
        <ele>489.4</ele>
        <time>2022-06-25T12:51:05Z</time>
      </trkpt>
      <trkpt lat="46.29459" lon="4.6861">
        <ele>489.4</ele>
        <time>2022-06-25T12:51:06Z</time>
      </trkpt>
      <trkpt lat="46.29457" lon="4.68612">
        <ele>489.6</ele>
        <time>2022-06-25T12:51:07Z</time>
      </trkpt>
      <trkpt lat="46.29455" lon="4.68614">
        <ele>489.6</ele>
        <time>2022-06-25T12:51:08Z</time>
      </trkpt>
      <trkpt lat="46.29453" lon="4.68617">
        <ele>490</ele>
        <time>2022-06-25T12:51:09Z</time>
      </trkpt>
      <trkpt lat="46.2945" lon="4.6862">
        <ele>490</ele>
        <time>2022-06-25T12:51:10Z</time>
      </trkpt>
      <trkpt lat="46.29448" lon="4.68623">
        <ele>490.4</ele>
        <time>2022-06-25T12:51:11Z</time>
      </trkpt>
      <trkpt lat="46.29446" lon="4.68626">
        <ele>490.6</ele>
        <time>2022-06-25T12:51:12Z</time>
      </trkpt>
      <trkpt lat="46.29444" lon="4.68628">
        <ele>490.6</ele>
        <time>2022-06-25T12:51:13Z</time>
      </trkpt>
      <trkpt lat="46.29442" lon="4.68631">
        <ele>490.8</ele>
        <time>2022-06-25T12:51:14Z</time>
      </trkpt>
      <trkpt lat="46.2944" lon="4.68634">
        <ele>490.8</ele>
        <time>2022-06-25T12:51:15Z</time>
      </trkpt>
      <trkpt lat="46.29438" lon="4.68637">
        <ele>491.4</ele>
        <time>2022-06-25T12:51:16Z</time>
      </trkpt>
      <trkpt lat="46.29436" lon="4.68639">
        <ele>491.4</ele>
        <time>2022-06-25T12:51:17Z</time>
      </trkpt>
      <trkpt lat="46.29434" lon="4.68641">
        <ele>491.6</ele>
        <time>2022-06-25T12:51:18Z</time>
      </trkpt>
      <trkpt lat="46.29432" lon="4.68643">
        <ele>491.8</ele>
        <time>2022-06-25T12:51:19Z</time>
      </trkpt>
      <trkpt lat="46.29429" lon="4.68645">
        <ele>492</ele>
        <time>2022-06-25T12:51:20Z</time>
      </trkpt>
      <trkpt lat="46.29427" lon="4.68646">
        <ele>492</ele>
        <time>2022-06-25T12:51:21Z</time>
      </trkpt>
      <trkpt lat="46.29425" lon="4.68648">
        <ele>492.4</ele>
        <time>2022-06-25T12:51:22Z</time>
      </trkpt>
      <trkpt lat="46.29422" lon="4.6865">
        <ele>492.4</ele>
        <time>2022-06-25T12:51:23Z</time>
      </trkpt>
      <trkpt lat="46.2942" lon="4.68653">
        <ele>492.8</ele>
        <time>2022-06-25T12:51:24Z</time>
      </trkpt>
      <trkpt lat="46.29417" lon="4.68658">
        <ele>492.8</ele>
        <time>2022-06-25T12:51:25Z</time>
      </trkpt>
      <trkpt lat="46.29415" lon="4.68662">
        <ele>493</ele>
        <time>2022-06-25T12:51:26Z</time>
      </trkpt>
      <trkpt lat="46.29413" lon="4.68665">
        <ele>493</ele>
        <time>2022-06-25T12:51:27Z</time>
      </trkpt>
      <trkpt lat="46.29411" lon="4.68668">
        <ele>493.4</ele>
        <time>2022-06-25T12:51:28Z</time>
      </trkpt>
      <trkpt lat="46.29408" lon="4.6867">
        <ele>493.4</ele>
        <time>2022-06-25T12:51:29Z</time>
      </trkpt>
      <trkpt lat="46.29406" lon="4.68673">
        <ele>493.8</ele>
        <time>2022-06-25T12:51:30Z</time>
      </trkpt>
      <trkpt lat="46.29403" lon="4.68675">
        <ele>493.8</ele>
        <time>2022-06-25T12:51:31Z</time>
      </trkpt>
      <trkpt lat="46.29401" lon="4.68678">
        <ele>494.2</ele>
        <time>2022-06-25T12:51:32Z</time>
      </trkpt>
      <trkpt lat="46.29399" lon="4.68681">
        <ele>494.4</ele>
        <time>2022-06-25T12:51:33Z</time>
      </trkpt>
      <trkpt lat="46.29397" lon="4.68684">
        <ele>494.4</ele>
        <time>2022-06-25T12:51:34Z</time>
      </trkpt>
      <trkpt lat="46.29394" lon="4.68686">
        <ele>494.8</ele>
        <time>2022-06-25T12:51:35Z</time>
      </trkpt>
      <trkpt lat="46.29392" lon="4.68688">
        <ele>495</ele>
        <time>2022-06-25T12:51:36Z</time>
      </trkpt>
      <trkpt lat="46.29389" lon="4.6869">
        <ele>495</ele>
        <time>2022-06-25T12:51:37Z</time>
      </trkpt>
      <trkpt lat="46.29387" lon="4.68692">
        <ele>495.4</ele>
        <time>2022-06-25T12:51:38Z</time>
      </trkpt>
      <trkpt lat="46.29385" lon="4.68694">
        <ele>495.4</ele>
        <time>2022-06-25T12:51:39Z</time>
      </trkpt>
      <trkpt lat="46.29383" lon="4.68695">
        <ele>495.8</ele>
        <time>2022-06-25T12:51:40Z</time>
      </trkpt>
      <trkpt lat="46.2938" lon="4.68697">
        <ele>495.8</ele>
        <time>2022-06-25T12:51:41Z</time>
      </trkpt>
      <trkpt lat="46.29378" lon="4.68699">
        <ele>496.2</ele>
        <time>2022-06-25T12:51:42Z</time>
      </trkpt>
      <trkpt lat="46.29376" lon="4.687">
        <ele>496.2</ele>
        <time>2022-06-25T12:51:43Z</time>
      </trkpt>
      <trkpt lat="46.29373" lon="4.68701">
        <ele>496.4</ele>
        <time>2022-06-25T12:51:44Z</time>
      </trkpt>
      <trkpt lat="46.29371" lon="4.68703">
        <ele>496.6</ele>
        <time>2022-06-25T12:51:45Z</time>
      </trkpt>
      <trkpt lat="46.29369" lon="4.68704">
        <ele>496.6</ele>
        <time>2022-06-25T12:51:46Z</time>
      </trkpt>
      <trkpt lat="46.29367" lon="4.68706">
        <ele>497</ele>
        <time>2022-06-25T12:51:47Z</time>
      </trkpt>
      <trkpt lat="46.29364" lon="4.68707">
        <ele>497</ele>
        <time>2022-06-25T12:51:48Z</time>
      </trkpt>
      <trkpt lat="46.29362" lon="4.68709">
        <ele>497.4</ele>
        <time>2022-06-25T12:51:49Z</time>
      </trkpt>
      <trkpt lat="46.2936" lon="4.68711">
        <ele>497.4</ele>
        <time>2022-06-25T12:51:50Z</time>
      </trkpt>
      <trkpt lat="46.29357" lon="4.68712">
        <ele>497.8</ele>
        <time>2022-06-25T12:51:51Z</time>
      </trkpt>
      <trkpt lat="46.29355" lon="4.68714">
        <ele>497.8</ele>
        <time>2022-06-25T12:51:52Z</time>
      </trkpt>
      <trkpt lat="46.29352" lon="4.68715">
        <ele>498</ele>
        <time>2022-06-25T12:51:53Z</time>
      </trkpt>
      <trkpt lat="46.2935" lon="4.68716">
        <ele>498</ele>
        <time>2022-06-25T12:51:54Z</time>
      </trkpt>
      <trkpt lat="46.29347" lon="4.68718">
        <ele>498.4</ele>
        <time>2022-06-25T12:51:55Z</time>
      </trkpt>
      <trkpt lat="46.29342" lon="4.68722">
        <ele>498.4</ele>
        <time>2022-06-25T12:51:56Z</time>
      </trkpt>
      <trkpt lat="46.29339" lon="4.68723">
        <ele>498.6</ele>
        <time>2022-06-25T12:51:57Z</time>
      </trkpt>
      <trkpt lat="46.29336" lon="4.68724">
        <ele>498.6</ele>
        <time>2022-06-25T12:51:58Z</time>
      </trkpt>
      <trkpt lat="46.29333" lon="4.68725">
        <ele>499</ele>
        <time>2022-06-25T12:51:59Z</time>
      </trkpt>
      <trkpt lat="46.2933" lon="4.68725">
        <ele>499</ele>
        <time>2022-06-25T12:52:00Z</time>
      </trkpt>
      <trkpt lat="46.29328" lon="4.68727">
        <ele>499.4</ele>
        <time>2022-06-25T12:52:01Z</time>
      </trkpt>
      <trkpt lat="46.29325" lon="4.68729">
        <ele>499.4</ele>
        <time>2022-06-25T12:52:02Z</time>
      </trkpt>
      <trkpt lat="46.29323" lon="4.68731">
        <ele>499.4</ele>
        <time>2022-06-25T12:52:03Z</time>
      </trkpt>
      <trkpt lat="46.29319" lon="4.68733">
        <ele>499.6</ele>
        <time>2022-06-25T12:52:04Z</time>
      </trkpt>
      <trkpt lat="46.29316" lon="4.68735">
        <ele>499.8</ele>
        <time>2022-06-25T12:52:05Z</time>
      </trkpt>
      <trkpt lat="46.29313" lon="4.68737">
        <ele>499.8</ele>
        <time>2022-06-25T12:52:06Z</time>
      </trkpt>
      <trkpt lat="46.2931" lon="4.68739">
        <ele>500.2</ele>
        <time>2022-06-25T12:52:07Z</time>
      </trkpt>
      <trkpt lat="46.29307" lon="4.68741">
        <ele>500.2</ele>
        <time>2022-06-25T12:52:08Z</time>
      </trkpt>
      <trkpt lat="46.29304" lon="4.68743">
        <ele>500.4</ele>
        <time>2022-06-25T12:52:09Z</time>
      </trkpt>
      <trkpt lat="46.29301" lon="4.68745">
        <ele>500.4</ele>
        <time>2022-06-25T12:52:10Z</time>
      </trkpt>
      <trkpt lat="46.29298" lon="4.68748">
        <ele>500.8</ele>
        <time>2022-06-25T12:52:11Z</time>
      </trkpt>
      <trkpt lat="46.29295" lon="4.68751">
        <ele>500.8</ele>
        <time>2022-06-25T12:52:12Z</time>
      </trkpt>
      <trkpt lat="46.29292" lon="4.68753">
        <ele>501</ele>
        <time>2022-06-25T12:52:13Z</time>
      </trkpt>
      <trkpt lat="46.29289" lon="4.68755">
        <ele>501</ele>
        <time>2022-06-25T12:52:14Z</time>
      </trkpt>
      <trkpt lat="46.29287" lon="4.68757">
        <ele>501.4</ele>
        <time>2022-06-25T12:52:15Z</time>
      </trkpt>
      <trkpt lat="46.29284" lon="4.68759">
        <ele>501.4</ele>
        <time>2022-06-25T12:52:16Z</time>
      </trkpt>
      <trkpt lat="46.29281" lon="4.68762">
        <ele>501.8</ele>
        <time>2022-06-25T12:52:17Z</time>
      </trkpt>
      <trkpt lat="46.29279" lon="4.68764">
        <ele>501.8</ele>
        <time>2022-06-25T12:52:18Z</time>
      </trkpt>
      <trkpt lat="46.29276" lon="4.68767">
        <ele>502</ele>
        <time>2022-06-25T12:52:19Z</time>
      </trkpt>
      <trkpt lat="46.29274" lon="4.68769">
        <ele>502</ele>
        <time>2022-06-25T12:52:20Z</time>
      </trkpt>
      <trkpt lat="46.29271" lon="4.68771">
        <ele>502.4</ele>
        <time>2022-06-25T12:52:21Z</time>
      </trkpt>
      <trkpt lat="46.29269" lon="4.68773">
        <ele>502.4</ele>
        <time>2022-06-25T12:52:22Z</time>
      </trkpt>
      <trkpt lat="46.29266" lon="4.68775">
        <ele>502.8</ele>
        <time>2022-06-25T12:52:23Z</time>
      </trkpt>
      <trkpt lat="46.29263" lon="4.68776">
        <ele>502.8</ele>
        <time>2022-06-25T12:52:24Z</time>
      </trkpt>
      <trkpt lat="46.2926" lon="4.68779">
        <ele>503.2</ele>
        <time>2022-06-25T12:52:25Z</time>
      </trkpt>
      <trkpt lat="46.29257" lon="4.68781">
        <ele>503.2</ele>
        <time>2022-06-25T12:52:26Z</time>
      </trkpt>
      <trkpt lat="46.29254" lon="4.68783">
        <ele>503.6</ele>
        <time>2022-06-25T12:52:27Z</time>
      </trkpt>
      <trkpt lat="46.29251" lon="4.68785">
        <ele>503.6</ele>
        <time>2022-06-25T12:52:28Z</time>
      </trkpt>
      <trkpt lat="46.29249" lon="4.68787">
        <ele>504</ele>
        <time>2022-06-25T12:52:29Z</time>
      </trkpt>
      <trkpt lat="46.29246" lon="4.68789">
        <ele>504</ele>
        <time>2022-06-25T12:52:30Z</time>
      </trkpt>
      <trkpt lat="46.29243" lon="4.68791">
        <ele>504.2</ele>
        <time>2022-06-25T12:52:31Z</time>
      </trkpt>
      <trkpt lat="46.2924" lon="4.68794">
        <ele>504.2</ele>
        <time>2022-06-25T12:52:32Z</time>
      </trkpt>
      <trkpt lat="46.29237" lon="4.68796">
        <ele>504.6</ele>
        <time>2022-06-25T12:52:33Z</time>
      </trkpt>
      <trkpt lat="46.29235" lon="4.68798">
        <ele>504.6</ele>
        <time>2022-06-25T12:52:34Z</time>
      </trkpt>
      <trkpt lat="46.29232" lon="4.68799">
        <ele>505</ele>
        <time>2022-06-25T12:52:35Z</time>
      </trkpt>
      <trkpt lat="46.2923" lon="4.688">
        <ele>505</ele>
        <time>2022-06-25T12:52:36Z</time>
      </trkpt>
      <trkpt lat="46.29227" lon="4.68802">
        <ele>505.2</ele>
        <time>2022-06-25T12:52:37Z</time>
      </trkpt>
      <trkpt lat="46.29224" lon="4.68804">
        <ele>505.2</ele>
        <time>2022-06-25T12:52:38Z</time>
      </trkpt>
      <trkpt lat="46.29222" lon="4.68806">
        <ele>505.6</ele>
        <time>2022-06-25T12:52:39Z</time>
      </trkpt>
      <trkpt lat="46.29219" lon="4.68807">
        <ele>505.6</ele>
        <time>2022-06-25T12:52:40Z</time>
      </trkpt>
      <trkpt lat="46.29217" lon="4.68809">
        <ele>506</ele>
        <time>2022-06-25T12:52:41Z</time>
      </trkpt>
      <trkpt lat="46.29214" lon="4.6881">
        <ele>506</ele>
        <time>2022-06-25T12:52:42Z</time>
      </trkpt>
      <trkpt lat="46.29212" lon="4.68813">
        <ele>506.4</ele>
        <time>2022-06-25T12:52:43Z</time>
      </trkpt>
      <trkpt lat="46.29209" lon="4.68814">
        <ele>506.6</ele>
        <time>2022-06-25T12:52:44Z</time>
      </trkpt>
      <trkpt lat="46.29206" lon="4.68816">
        <ele>506.6</ele>
        <time>2022-06-25T12:52:45Z</time>
      </trkpt>
      <trkpt lat="46.29204" lon="4.68818">
        <ele>506.8</ele>
        <time>2022-06-25T12:52:46Z</time>
      </trkpt>
      <trkpt lat="46.29201" lon="4.68819">
        <ele>507.2</ele>
        <time>2022-06-25T12:52:47Z</time>
      </trkpt>
      <trkpt lat="46.29199" lon="4.6882">
        <ele>507.4</ele>
        <time>2022-06-25T12:52:48Z</time>
      </trkpt>
      <trkpt lat="46.29196" lon="4.68822">
        <ele>507.6</ele>
        <time>2022-06-25T12:52:49Z</time>
      </trkpt>
      <trkpt lat="46.29194" lon="4.68824">
        <ele>507.6</ele>
        <time>2022-06-25T12:52:50Z</time>
      </trkpt>
      <trkpt lat="46.29191" lon="4.68826">
        <ele>508</ele>
        <time>2022-06-25T12:52:51Z</time>
      </trkpt>
      <trkpt lat="46.29188" lon="4.68827">
        <ele>508</ele>
        <time>2022-06-25T12:52:52Z</time>
      </trkpt>
      <trkpt lat="46.29185" lon="4.68829">
        <ele>508.2</ele>
        <time>2022-06-25T12:52:53Z</time>
      </trkpt>
      <trkpt lat="46.29183" lon="4.68831">
        <ele>508.4</ele>
        <time>2022-06-25T12:52:54Z</time>
      </trkpt>
      <trkpt lat="46.2918" lon="4.68833">
        <ele>508.8</ele>
        <time>2022-06-25T12:52:55Z</time>
      </trkpt>
      <trkpt lat="46.29178" lon="4.68835">
        <ele>509</ele>
        <time>2022-06-25T12:52:56Z</time>
      </trkpt>
      <trkpt lat="46.29175" lon="4.68837">
        <ele>509</ele>
        <time>2022-06-25T12:52:57Z</time>
      </trkpt>
      <trkpt lat="46.29173" lon="4.68839">
        <ele>509.4</ele>
        <time>2022-06-25T12:52:58Z</time>
      </trkpt>
      <trkpt lat="46.2917" lon="4.68841">
        <ele>509.4</ele>
        <time>2022-06-25T12:52:59Z</time>
      </trkpt>
      <trkpt lat="46.29168" lon="4.68842">
        <ele>509.6</ele>
        <time>2022-06-25T12:53:00Z</time>
      </trkpt>
      <trkpt lat="46.29165" lon="4.68844">
        <ele>509.6</ele>
        <time>2022-06-25T12:53:01Z</time>
      </trkpt>
      <trkpt lat="46.29163" lon="4.68847">
        <ele>510</ele>
        <time>2022-06-25T12:53:02Z</time>
      </trkpt>
      <trkpt lat="46.29161" lon="4.68849">
        <ele>510.2</ele>
        <time>2022-06-25T12:53:03Z</time>
      </trkpt>
      <trkpt lat="46.29159" lon="4.68851">
        <ele>510.4</ele>
        <time>2022-06-25T12:53:04Z</time>
      </trkpt>
      <trkpt lat="46.29157" lon="4.68853">
        <ele>510.4</ele>
        <time>2022-06-25T12:53:05Z</time>
      </trkpt>
      <trkpt lat="46.29155" lon="4.68856">
        <ele>510.8</ele>
        <time>2022-06-25T12:53:06Z</time>
      </trkpt>
      <trkpt lat="46.29153" lon="4.68858">
        <ele>510.8</ele>
        <time>2022-06-25T12:53:07Z</time>
      </trkpt>
      <trkpt lat="46.29151" lon="4.6886">
        <ele>511.2</ele>
        <time>2022-06-25T12:53:08Z</time>
      </trkpt>
      <trkpt lat="46.29149" lon="4.68862">
        <ele>511.2</ele>
        <time>2022-06-25T12:53:09Z</time>
      </trkpt>
      <trkpt lat="46.29147" lon="4.68865">
        <ele>511.6</ele>
        <time>2022-06-25T12:53:10Z</time>
      </trkpt>
      <trkpt lat="46.29146" lon="4.68868">
        <ele>511.6</ele>
        <time>2022-06-25T12:53:11Z</time>
      </trkpt>
      <trkpt lat="46.29144" lon="4.68871">
        <ele>512</ele>
        <time>2022-06-25T12:53:12Z</time>
      </trkpt>
      <trkpt lat="46.29142" lon="4.68874">
        <ele>512</ele>
        <time>2022-06-25T12:53:13Z</time>
      </trkpt>
      <trkpt lat="46.29141" lon="4.68877">
        <ele>512.2</ele>
        <time>2022-06-25T12:53:14Z</time>
      </trkpt>
      <trkpt lat="46.2914" lon="4.68882">
        <ele>512.2</ele>
        <time>2022-06-25T12:53:15Z</time>
      </trkpt>
      <trkpt lat="46.29139" lon="4.68888">
        <ele>512.6</ele>
        <time>2022-06-25T12:53:16Z</time>
      </trkpt>
      <trkpt lat="46.29138" lon="4.68893">
        <ele>512.6</ele>
        <time>2022-06-25T12:53:17Z</time>
      </trkpt>
      <trkpt lat="46.29137" lon="4.68898">
        <ele>513</ele>
        <time>2022-06-25T12:53:18Z</time>
      </trkpt>
      <trkpt lat="46.29136" lon="4.68902">
        <ele>513</ele>
        <time>2022-06-25T12:53:19Z</time>
      </trkpt>
      <trkpt lat="46.29135" lon="4.68906">
        <ele>513.4</ele>
        <time>2022-06-25T12:53:20Z</time>
      </trkpt>
      <trkpt lat="46.29134" lon="4.6891">
        <ele>513.4</ele>
        <time>2022-06-25T12:53:21Z</time>
      </trkpt>
      <trkpt lat="46.29134" lon="4.68914">
        <ele>513.8</ele>
        <time>2022-06-25T12:53:22Z</time>
      </trkpt>
      <trkpt lat="46.29134" lon="4.68918">
        <ele>513.8</ele>
        <time>2022-06-25T12:53:23Z</time>
      </trkpt>
      <trkpt lat="46.29134" lon="4.68922">
        <ele>514</ele>
        <time>2022-06-25T12:53:24Z</time>
      </trkpt>
      <trkpt lat="46.29133" lon="4.68927">
        <ele>514</ele>
        <time>2022-06-25T12:53:25Z</time>
      </trkpt>
      <trkpt lat="46.29133" lon="4.6893">
        <ele>514.4</ele>
        <time>2022-06-25T12:53:26Z</time>
      </trkpt>
      <trkpt lat="46.29132" lon="4.68935">
        <ele>514.4</ele>
        <time>2022-06-25T12:53:27Z</time>
      </trkpt>
      <trkpt lat="46.29132" lon="4.68939">
        <ele>514.6</ele>
        <time>2022-06-25T12:53:28Z</time>
      </trkpt>
      <trkpt lat="46.29132" lon="4.68943">
        <ele>514.6</ele>
        <time>2022-06-25T12:53:29Z</time>
      </trkpt>
      <trkpt lat="46.29132" lon="4.68947">
        <ele>515</ele>
        <time>2022-06-25T12:53:30Z</time>
      </trkpt>
      <trkpt lat="46.29132" lon="4.68951">
        <ele>515</ele>
        <time>2022-06-25T12:53:31Z</time>
      </trkpt>
      <trkpt lat="46.29132" lon="4.68955">
        <ele>515.2</ele>
        <time>2022-06-25T12:53:32Z</time>
      </trkpt>
      <trkpt lat="46.29132" lon="4.68959">
        <ele>515.2</ele>
        <time>2022-06-25T12:53:33Z</time>
      </trkpt>
      <trkpt lat="46.29132" lon="4.68964">
        <ele>515.6</ele>
        <time>2022-06-25T12:53:34Z</time>
      </trkpt>
      <trkpt lat="46.29133" lon="4.68968">
        <ele>515.6</ele>
        <time>2022-06-25T12:53:35Z</time>
      </trkpt>
      <trkpt lat="46.29132" lon="4.68972">
        <ele>515.8</ele>
        <time>2022-06-25T12:53:36Z</time>
      </trkpt>
      <trkpt lat="46.29132" lon="4.68977">
        <ele>515.8</ele>
        <time>2022-06-25T12:53:37Z</time>
      </trkpt>
      <trkpt lat="46.29132" lon="4.68981">
        <ele>516.2</ele>
        <time>2022-06-25T12:53:38Z</time>
      </trkpt>
      <trkpt lat="46.29132" lon="4.68985">
        <ele>516.2</ele>
        <time>2022-06-25T12:53:39Z</time>
      </trkpt>
      <trkpt lat="46.29133" lon="4.6899">
        <ele>516.6</ele>
        <time>2022-06-25T12:53:40Z</time>
      </trkpt>
      <trkpt lat="46.29133" lon="4.68994">
        <ele>516.6</ele>
        <time>2022-06-25T12:53:41Z</time>
      </trkpt>
      <trkpt lat="46.29133" lon="4.68998">
        <ele>516.8</ele>
        <time>2022-06-25T12:53:42Z</time>
      </trkpt>
      <trkpt lat="46.29133" lon="4.69002">
        <ele>516.8</ele>
        <time>2022-06-25T12:53:43Z</time>
      </trkpt>
      <trkpt lat="46.29134" lon="4.69007">
        <ele>517.2</ele>
        <time>2022-06-25T12:53:44Z</time>
      </trkpt>
      <trkpt lat="46.29134" lon="4.69011">
        <ele>517.4</ele>
        <time>2022-06-25T12:53:45Z</time>
      </trkpt>
      <trkpt lat="46.29135" lon="4.69016">
        <ele>517.6</ele>
        <time>2022-06-25T12:53:46Z</time>
      </trkpt>
      <trkpt lat="46.29136" lon="4.69021">
        <ele>517.6</ele>
        <time>2022-06-25T12:53:47Z</time>
      </trkpt>
      <trkpt lat="46.29137" lon="4.69025">
        <ele>517.6</ele>
        <time>2022-06-25T12:53:48Z</time>
      </trkpt>
      <trkpt lat="46.29138" lon="4.6903">
        <ele>518</ele>
        <time>2022-06-25T12:53:49Z</time>
      </trkpt>
      <trkpt lat="46.2914" lon="4.69034">
        <ele>518</ele>
        <time>2022-06-25T12:53:50Z</time>
      </trkpt>
      <trkpt lat="46.29141" lon="4.69038">
        <ele>518.2</ele>
        <time>2022-06-25T12:53:51Z</time>
      </trkpt>
      <trkpt lat="46.29142" lon="4.69042">
        <ele>518.6</ele>
        <time>2022-06-25T12:53:52Z</time>
      </trkpt>
      <trkpt lat="46.29144" lon="4.69045">
        <ele>518.8</ele>
        <time>2022-06-25T12:53:53Z</time>
      </trkpt>
      <trkpt lat="46.29146" lon="4.69049">
        <ele>518.8</ele>
        <time>2022-06-25T12:53:54Z</time>
      </trkpt>
      <trkpt lat="46.29148" lon="4.69052">
        <ele>519</ele>
        <time>2022-06-25T12:53:55Z</time>
      </trkpt>
      <trkpt lat="46.29149" lon="4.69056">
        <ele>519</ele>
        <time>2022-06-25T12:53:56Z</time>
      </trkpt>
      <trkpt lat="46.29151" lon="4.69059">
        <ele>519.4</ele>
        <time>2022-06-25T12:53:57Z</time>
      </trkpt>
      <trkpt lat="46.29152" lon="4.69063">
        <ele>519.4</ele>
        <time>2022-06-25T12:53:58Z</time>
      </trkpt>
      <trkpt lat="46.29154" lon="4.69066">
        <ele>519.8</ele>
        <time>2022-06-25T12:53:59Z</time>
      </trkpt>
      <trkpt lat="46.29155" lon="4.6907">
        <ele>519.8</ele>
        <time>2022-06-25T12:54:00Z</time>
      </trkpt>
      <trkpt lat="46.29157" lon="4.69073">
        <ele>520</ele>
        <time>2022-06-25T12:54:01Z</time>
      </trkpt>
      <trkpt lat="46.29158" lon="4.69076">
        <ele>520</ele>
        <time>2022-06-25T12:54:02Z</time>
      </trkpt>
      <trkpt lat="46.2916" lon="4.6908">
        <ele>520.4</ele>
        <time>2022-06-25T12:54:03Z</time>
      </trkpt>
      <trkpt lat="46.29161" lon="4.69083">
        <ele>520.4</ele>
        <time>2022-06-25T12:54:04Z</time>
      </trkpt>
      <trkpt lat="46.29163" lon="4.69086">
        <ele>520.6</ele>
        <time>2022-06-25T12:54:05Z</time>
      </trkpt>
      <trkpt lat="46.29164" lon="4.6909">
        <ele>520.8</ele>
        <time>2022-06-25T12:54:06Z</time>
      </trkpt>
      <trkpt lat="46.29166" lon="4.69094">
        <ele>520.8</ele>
        <time>2022-06-25T12:54:07Z</time>
      </trkpt>
      <trkpt lat="46.29167" lon="4.69097">
        <ele>521.2</ele>
        <time>2022-06-25T12:54:08Z</time>
      </trkpt>
      <trkpt lat="46.29168" lon="4.69101">
        <ele>521.4</ele>
        <time>2022-06-25T12:54:09Z</time>
      </trkpt>
      <trkpt lat="46.29169" lon="4.69104">
        <ele>521.4</ele>
        <time>2022-06-25T12:54:10Z</time>
      </trkpt>
      <trkpt lat="46.2917" lon="4.69108">
        <ele>521.8</ele>
        <time>2022-06-25T12:54:11Z</time>
      </trkpt>
      <trkpt lat="46.29171" lon="4.69112">
        <ele>522</ele>
        <time>2022-06-25T12:54:12Z</time>
      </trkpt>
      <trkpt lat="46.29172" lon="4.69116">
        <ele>522</ele>
        <time>2022-06-25T12:54:13Z</time>
      </trkpt>
      <trkpt lat="46.29173" lon="4.69119">
        <ele>522.4</ele>
        <time>2022-06-25T12:54:14Z</time>
      </trkpt>
      <trkpt lat="46.29174" lon="4.69124">
        <ele>522.4</ele>
        <time>2022-06-25T12:54:15Z</time>
      </trkpt>
      <trkpt lat="46.29175" lon="4.69128">
        <ele>522.8</ele>
        <time>2022-06-25T12:54:16Z</time>
      </trkpt>
      <trkpt lat="46.29176" lon="4.69132">
        <ele>522.8</ele>
        <time>2022-06-25T12:54:17Z</time>
      </trkpt>
      <trkpt lat="46.29177" lon="4.69136">
        <ele>523.2</ele>
        <time>2022-06-25T12:54:18Z</time>
      </trkpt>
      <trkpt lat="46.29177" lon="4.6914">
        <ele>523.4</ele>
        <time>2022-06-25T12:54:19Z</time>
      </trkpt>
      <trkpt lat="46.29178" lon="4.69144">
        <ele>523.4</ele>
        <time>2022-06-25T12:54:20Z</time>
      </trkpt>
      <trkpt lat="46.29178" lon="4.69149">
        <ele>523.8</ele>
        <time>2022-06-25T12:54:21Z</time>
      </trkpt>
      <trkpt lat="46.29178" lon="4.69153">
        <ele>524</ele>
        <time>2022-06-25T12:54:22Z</time>
      </trkpt>
      <trkpt lat="46.29179" lon="4.69157">
        <ele>524</ele>
        <time>2022-06-25T12:54:23Z</time>
      </trkpt>
      <trkpt lat="46.29179" lon="4.69161">
        <ele>524.4</ele>
        <time>2022-06-25T12:54:24Z</time>
      </trkpt>
      <trkpt lat="46.2918" lon="4.69165">
        <ele>524.4</ele>
        <time>2022-06-25T12:54:25Z</time>
      </trkpt>
      <trkpt lat="46.2918" lon="4.69169">
        <ele>524.8</ele>
        <time>2022-06-25T12:54:26Z</time>
      </trkpt>
      <trkpt lat="46.2918" lon="4.69173">
        <ele>525</ele>
        <time>2022-06-25T12:54:27Z</time>
      </trkpt>
      <trkpt lat="46.29181" lon="4.69176">
        <ele>525</ele>
        <time>2022-06-25T12:54:28Z</time>
      </trkpt>
      <trkpt lat="46.29181" lon="4.69181">
        <ele>525.4</ele>
        <time>2022-06-25T12:54:29Z</time>
      </trkpt>
      <trkpt lat="46.29182" lon="4.69185">
        <ele>525.4</ele>
        <time>2022-06-25T12:54:30Z</time>
      </trkpt>
      <trkpt lat="46.29182" lon="4.69189">
        <ele>525.8</ele>
        <time>2022-06-25T12:54:31Z</time>
      </trkpt>
      <trkpt lat="46.29182" lon="4.69193">
        <ele>525.8</ele>
        <time>2022-06-25T12:54:32Z</time>
      </trkpt>
      <trkpt lat="46.29183" lon="4.69197">
        <ele>526.2</ele>
        <time>2022-06-25T12:54:33Z</time>
      </trkpt>
      <trkpt lat="46.29183" lon="4.69202">
        <ele>526.4</ele>
        <time>2022-06-25T12:54:34Z</time>
      </trkpt>
      <trkpt lat="46.29184" lon="4.69206">
        <ele>526.4</ele>
        <time>2022-06-25T12:54:35Z</time>
      </trkpt>
      <trkpt lat="46.29185" lon="4.6921">
        <ele>526.8</ele>
        <time>2022-06-25T12:54:36Z</time>
      </trkpt>
      <trkpt lat="46.29185" lon="4.69215">
        <ele>527</ele>
        <time>2022-06-25T12:54:37Z</time>
      </trkpt>
      <trkpt lat="46.29186" lon="4.69219">
        <ele>527</ele>
        <time>2022-06-25T12:54:38Z</time>
      </trkpt>
      <trkpt lat="46.29186" lon="4.69223">
        <ele>527.4</ele>
        <time>2022-06-25T12:54:39Z</time>
      </trkpt>
      <trkpt lat="46.29187" lon="4.69227">
        <ele>527.4</ele>
        <time>2022-06-25T12:54:40Z</time>
      </trkpt>
      <trkpt lat="46.29188" lon="4.69231">
        <ele>527.8</ele>
        <time>2022-06-25T12:54:41Z</time>
      </trkpt>
      <trkpt lat="46.29188" lon="4.69236">
        <ele>527.8</ele>
        <time>2022-06-25T12:54:42Z</time>
      </trkpt>
      <trkpt lat="46.29189" lon="4.6924">
        <ele>528</ele>
        <time>2022-06-25T12:54:43Z</time>
      </trkpt>
      <trkpt lat="46.29189" lon="4.69244">
        <ele>528</ele>
        <time>2022-06-25T12:54:44Z</time>
      </trkpt>
      <trkpt lat="46.29189" lon="4.69249">
        <ele>528.4</ele>
        <time>2022-06-25T12:54:45Z</time>
      </trkpt>
      <trkpt lat="46.29189" lon="4.69253">
        <ele>528.6</ele>
        <time>2022-06-25T12:54:46Z</time>
      </trkpt>
      <trkpt lat="46.29189" lon="4.69257">
        <ele>528.6</ele>
        <time>2022-06-25T12:54:47Z</time>
      </trkpt>
      <trkpt lat="46.29189" lon="4.69262">
        <ele>529</ele>
        <time>2022-06-25T12:54:48Z</time>
      </trkpt>
      <trkpt lat="46.29189" lon="4.69266">
        <ele>529</ele>
        <time>2022-06-25T12:54:49Z</time>
      </trkpt>
      <trkpt lat="46.29189" lon="4.6927">
        <ele>529.2</ele>
        <time>2022-06-25T12:54:50Z</time>
      </trkpt>
      <trkpt lat="46.2919" lon="4.69275">
        <ele>529.2</ele>
        <time>2022-06-25T12:54:51Z</time>
      </trkpt>
      <trkpt lat="46.2919" lon="4.69279">
        <ele>529.6</ele>
        <time>2022-06-25T12:54:52Z</time>
      </trkpt>
      <trkpt lat="46.29191" lon="4.69283">
        <ele>529.6</ele>
        <time>2022-06-25T12:54:53Z</time>
      </trkpt>
      <trkpt lat="46.29191" lon="4.69288">
        <ele>530</ele>
        <time>2022-06-25T12:54:54Z</time>
      </trkpt>
      <trkpt lat="46.29191" lon="4.69292">
        <ele>530</ele>
        <time>2022-06-25T12:54:55Z</time>
      </trkpt>
      <trkpt lat="46.29192" lon="4.69297">
        <ele>530.2</ele>
        <time>2022-06-25T12:54:56Z</time>
      </trkpt>
      <trkpt lat="46.29192" lon="4.69301">
        <ele>530.2</ele>
        <time>2022-06-25T12:54:57Z</time>
      </trkpt>
      <trkpt lat="46.29193" lon="4.69305">
        <ele>530.6</ele>
        <time>2022-06-25T12:54:58Z</time>
      </trkpt>
      <trkpt lat="46.29193" lon="4.6931">
        <ele>530.6</ele>
        <time>2022-06-25T12:54:59Z</time>
      </trkpt>
      <trkpt lat="46.29193" lon="4.69314">
        <ele>531</ele>
        <time>2022-06-25T12:55:00Z</time>
      </trkpt>
      <trkpt lat="46.29193" lon="4.69318">
        <ele>531</ele>
        <time>2022-06-25T12:55:01Z</time>
      </trkpt>
      <trkpt lat="46.29194" lon="4.69322">
        <ele>531.4</ele>
        <time>2022-06-25T12:55:02Z</time>
      </trkpt>
      <trkpt lat="46.29194" lon="4.69326">
        <ele>531.4</ele>
        <time>2022-06-25T12:55:03Z</time>
      </trkpt>
      <trkpt lat="46.29194" lon="4.69331">
        <ele>531.8</ele>
        <time>2022-06-25T12:55:04Z</time>
      </trkpt>
      <trkpt lat="46.29195" lon="4.69335">
        <ele>531.8</ele>
        <time>2022-06-25T12:55:05Z</time>
      </trkpt>
      <trkpt lat="46.29195" lon="4.69339">
        <ele>532.2</ele>
        <time>2022-06-25T12:55:06Z</time>
      </trkpt>
      <trkpt lat="46.29195" lon="4.69343">
        <ele>532.2</ele>
        <time>2022-06-25T12:55:07Z</time>
      </trkpt>
      <trkpt lat="46.29196" lon="4.69347">
        <ele>532.4</ele>
        <time>2022-06-25T12:55:08Z</time>
      </trkpt>
      <trkpt lat="46.29196" lon="4.69351">
        <ele>532.4</ele>
        <time>2022-06-25T12:55:09Z</time>
      </trkpt>
      <trkpt lat="46.29196" lon="4.69355">
        <ele>532.8</ele>
        <time>2022-06-25T12:55:10Z</time>
      </trkpt>
      <trkpt lat="46.29196" lon="4.69359">
        <ele>532.8</ele>
        <time>2022-06-25T12:55:11Z</time>
      </trkpt>
      <trkpt lat="46.29197" lon="4.69364">
        <ele>533</ele>
        <time>2022-06-25T12:55:12Z</time>
      </trkpt>
      <trkpt lat="46.29197" lon="4.69367">
        <ele>533.2</ele>
        <time>2022-06-25T12:55:13Z</time>
      </trkpt>
      <trkpt lat="46.29197" lon="4.69371">
        <ele>533.2</ele>
        <time>2022-06-25T12:55:14Z</time>
      </trkpt>
      <trkpt lat="46.29198" lon="4.69375">
        <ele>533.6</ele>
        <time>2022-06-25T12:55:15Z</time>
      </trkpt>
      <trkpt lat="46.29198" lon="4.69379">
        <ele>533.8</ele>
        <time>2022-06-25T12:55:16Z</time>
      </trkpt>
      <trkpt lat="46.29198" lon="4.69383">
        <ele>534</ele>
        <time>2022-06-25T12:55:17Z</time>
      </trkpt>
      <trkpt lat="46.29198" lon="4.69388">
        <ele>534.2</ele>
        <time>2022-06-25T12:55:18Z</time>
      </trkpt>
      <trkpt lat="46.29198" lon="4.69392">
        <ele>534.4</ele>
        <time>2022-06-25T12:55:19Z</time>
      </trkpt>
      <trkpt lat="46.29199" lon="4.69395">
        <ele>534.4</ele>
        <time>2022-06-25T12:55:20Z</time>
      </trkpt>
      <trkpt lat="46.29199" lon="4.69399">
        <ele>534.8</ele>
        <time>2022-06-25T12:55:21Z</time>
      </trkpt>
      <trkpt lat="46.29199" lon="4.69403">
        <ele>534.8</ele>
        <time>2022-06-25T12:55:22Z</time>
      </trkpt>
      <trkpt lat="46.29199" lon="4.69407">
        <ele>535</ele>
        <time>2022-06-25T12:55:23Z</time>
      </trkpt>
      <trkpt lat="46.292" lon="4.69411">
        <ele>535</ele>
        <time>2022-06-25T12:55:24Z</time>
      </trkpt>
      <trkpt lat="46.292" lon="4.69415">
        <ele>535</ele>
        <time>2022-06-25T12:55:25Z</time>
      </trkpt>
      <trkpt lat="46.292" lon="4.69419">
        <ele>535</ele>
        <time>2022-06-25T12:55:26Z</time>
      </trkpt>
      <trkpt lat="46.292" lon="4.69421">
        <ele>535.4</ele>
        <time>2022-06-25T12:55:27Z</time>
      </trkpt>
      <trkpt lat="46.29201" lon="4.69423">
        <ele>535.4</ele>
        <time>2022-06-25T12:55:28Z</time>
      </trkpt>
      <trkpt lat="46.29201" lon="4.69427">
        <ele>535.6</ele>
        <time>2022-06-25T12:55:29Z</time>
      </trkpt>
      <trkpt lat="46.29201" lon="4.6943">
        <ele>535.6</ele>
        <time>2022-06-25T12:55:30Z</time>
      </trkpt>
      <trkpt lat="46.29201" lon="4.69434">
        <ele>536.2</ele>
        <time>2022-06-25T12:55:31Z</time>
      </trkpt>
      <trkpt lat="46.29202" lon="4.69438">
        <ele>536.4</ele>
        <time>2022-06-25T12:55:32Z</time>
      </trkpt>
      <trkpt lat="46.29202" lon="4.69445">
        <ele>536.6</ele>
        <time>2022-06-25T12:55:33Z</time>
      </trkpt>
      <trkpt lat="46.29202" lon="4.69448">
        <ele>536.8</ele>
        <time>2022-06-25T12:55:34Z</time>
      </trkpt>
      <trkpt lat="46.29203" lon="4.69452">
        <ele>537</ele>
        <time>2022-06-25T12:55:35Z</time>
      </trkpt>
      <trkpt lat="46.29203" lon="4.69455">
        <ele>537</ele>
        <time>2022-06-25T12:55:36Z</time>
      </trkpt>
      <trkpt lat="46.29204" lon="4.69459">
        <ele>537.4</ele>
        <time>2022-06-25T12:55:37Z</time>
      </trkpt>
      <trkpt lat="46.29203" lon="4.69462">
        <ele>537.4</ele>
        <time>2022-06-25T12:55:38Z</time>
      </trkpt>
      <trkpt lat="46.29203" lon="4.69465">
        <ele>537.6</ele>
        <time>2022-06-25T12:55:39Z</time>
      </trkpt>
      <trkpt lat="46.29203" lon="4.69468">
        <ele>537.6</ele>
        <time>2022-06-25T12:55:40Z</time>
      </trkpt>
      <trkpt lat="46.29202" lon="4.69471">
        <ele>538</ele>
        <time>2022-06-25T12:55:41Z</time>
      </trkpt>
      <trkpt lat="46.29201" lon="4.69474">
        <ele>538</ele>
        <time>2022-06-25T12:55:42Z</time>
      </trkpt>
      <trkpt lat="46.29199" lon="4.69476">
        <ele>538.2</ele>
        <time>2022-06-25T12:55:43Z</time>
      </trkpt>
      <trkpt lat="46.29198" lon="4.69478">
        <ele>538.2</ele>
        <time>2022-06-25T12:55:44Z</time>
      </trkpt>
      <trkpt lat="46.29196" lon="4.6948">
        <ele>538.6</ele>
        <time>2022-06-25T12:55:45Z</time>
      </trkpt>
      <trkpt lat="46.29193" lon="4.6948">
        <ele>538.6</ele>
        <time>2022-06-25T12:55:46Z</time>
      </trkpt>
      <trkpt lat="46.29191" lon="4.6948">
        <ele>538.8</ele>
        <time>2022-06-25T12:55:47Z</time>
      </trkpt>
      <trkpt lat="46.29189" lon="4.69481">
        <ele>538.8</ele>
        <time>2022-06-25T12:55:48Z</time>
      </trkpt>
      <trkpt lat="46.29187" lon="4.69482">
        <ele>539.2</ele>
        <time>2022-06-25T12:55:49Z</time>
      </trkpt>
      <trkpt lat="46.29185" lon="4.69484">
        <ele>539.4</ele>
        <time>2022-06-25T12:55:50Z</time>
      </trkpt>
      <trkpt lat="46.29183" lon="4.69486">
        <ele>539.4</ele>
        <time>2022-06-25T12:55:51Z</time>
      </trkpt>
      <trkpt lat="46.29182" lon="4.69488">
        <ele>539.8</ele>
        <time>2022-06-25T12:55:52Z</time>
      </trkpt>
      <trkpt lat="46.2918" lon="4.6949">
        <ele>539.8</ele>
        <time>2022-06-25T12:55:53Z</time>
      </trkpt>
      <trkpt lat="46.29179" lon="4.69493">
        <ele>539.8</ele>
        <time>2022-06-25T12:55:54Z</time>
      </trkpt>
      <trkpt lat="46.29177" lon="4.69495">
        <ele>540</ele>
        <time>2022-06-25T12:55:55Z</time>
      </trkpt>
      <trkpt lat="46.29176" lon="4.69498">
        <ele>540</ele>
        <time>2022-06-25T12:55:56Z</time>
      </trkpt>
      <trkpt lat="46.29175" lon="4.69501">
        <ele>540.4</ele>
        <time>2022-06-25T12:55:57Z</time>
      </trkpt>
      <trkpt lat="46.29174" lon="4.69504">
        <ele>540.4</ele>
        <time>2022-06-25T12:55:58Z</time>
      </trkpt>
      <trkpt lat="46.29173" lon="4.69505">
        <ele>540.8</ele>
        <time>2022-06-25T12:55:59Z</time>
      </trkpt>
      <trkpt lat="46.29173" lon="4.69507">
        <ele>541</ele>
        <time>2022-06-25T12:56:00Z</time>
      </trkpt>
      <trkpt lat="46.29172" lon="4.6951">
        <ele>541.2</ele>
        <time>2022-06-25T12:56:01Z</time>
      </trkpt>
      <trkpt lat="46.2917" lon="4.69513">
        <ele>541.2</ele>
        <time>2022-06-25T12:56:02Z</time>
      </trkpt>
      <trkpt lat="46.29169" lon="4.69516">
        <ele>541.8</ele>
        <time>2022-06-25T12:56:03Z</time>
      </trkpt>
      <trkpt lat="46.29168" lon="4.69518">
        <ele>541.8</ele>
        <time>2022-06-25T12:56:04Z</time>
      </trkpt>
      <trkpt lat="46.29167" lon="4.69521">
        <ele>542</ele>
        <time>2022-06-25T12:56:05Z</time>
      </trkpt>
      <trkpt lat="46.29166" lon="4.69524">
        <ele>542.4</ele>
        <time>2022-06-25T12:56:06Z</time>
      </trkpt>
      <trkpt lat="46.29165" lon="4.69527">
        <ele>542.6</ele>
        <time>2022-06-25T12:56:07Z</time>
      </trkpt>
      <trkpt lat="46.29163" lon="4.6953">
        <ele>542.8</ele>
        <time>2022-06-25T12:56:08Z</time>
      </trkpt>
      <trkpt lat="46.29162" lon="4.69533">
        <ele>543</ele>
        <time>2022-06-25T12:56:09Z</time>
      </trkpt>
      <trkpt lat="46.2916" lon="4.69536">
        <ele>543.4</ele>
        <time>2022-06-25T12:56:10Z</time>
      </trkpt>
      <trkpt lat="46.29158" lon="4.69538">
        <ele>543.6</ele>
        <time>2022-06-25T12:56:11Z</time>
      </trkpt>
      <trkpt lat="46.29157" lon="4.69541">
        <ele>543.8</ele>
        <time>2022-06-25T12:56:12Z</time>
      </trkpt>
      <trkpt lat="46.29155" lon="4.69544">
        <ele>544</ele>
        <time>2022-06-25T12:56:13Z</time>
      </trkpt>
      <trkpt lat="46.29153" lon="4.69547">
        <ele>544</ele>
        <time>2022-06-25T12:56:14Z</time>
      </trkpt>
      <trkpt lat="46.29152" lon="4.6955">
        <ele>544.4</ele>
        <time>2022-06-25T12:56:15Z</time>
      </trkpt>
      <trkpt lat="46.2915" lon="4.69552">
        <ele>544.8</ele>
        <time>2022-06-25T12:56:16Z</time>
      </trkpt>
      <trkpt lat="46.29148" lon="4.69554">
        <ele>545</ele>
        <time>2022-06-25T12:56:17Z</time>
      </trkpt>
      <trkpt lat="46.29147" lon="4.69557">
        <ele>545.2</ele>
        <time>2022-06-25T12:56:18Z</time>
      </trkpt>
      <trkpt lat="46.29146" lon="4.6956">
        <ele>545.2</ele>
        <time>2022-06-25T12:56:19Z</time>
      </trkpt>
      <trkpt lat="46.29144" lon="4.69562">
        <ele>545.6</ele>
        <time>2022-06-25T12:56:20Z</time>
      </trkpt>
      <trkpt lat="46.29142" lon="4.69565">
        <ele>545.6</ele>
        <time>2022-06-25T12:56:21Z</time>
      </trkpt>
      <trkpt lat="46.29141" lon="4.69568">
        <ele>546</ele>
        <time>2022-06-25T12:56:22Z</time>
      </trkpt>
      <trkpt lat="46.29139" lon="4.6957">
        <ele>546.2</ele>
        <time>2022-06-25T12:56:23Z</time>
      </trkpt>
      <trkpt lat="46.29137" lon="4.69573">
        <ele>546.6</ele>
        <time>2022-06-25T12:56:24Z</time>
      </trkpt>
      <trkpt lat="46.29135" lon="4.69575">
        <ele>546.6</ele>
        <time>2022-06-25T12:56:25Z</time>
      </trkpt>
      <trkpt lat="46.29134" lon="4.69577">
        <ele>546.8</ele>
        <time>2022-06-25T12:56:26Z</time>
      </trkpt>
      <trkpt lat="46.29132" lon="4.69579">
        <ele>546.8</ele>
        <time>2022-06-25T12:56:27Z</time>
      </trkpt>
      <trkpt lat="46.29131" lon="4.69581">
        <ele>547.2</ele>
        <time>2022-06-25T12:56:28Z</time>
      </trkpt>
      <trkpt lat="46.29129" lon="4.69583">
        <ele>547.4</ele>
        <time>2022-06-25T12:56:29Z</time>
      </trkpt>
      <trkpt lat="46.29128" lon="4.69585">
        <ele>547.6</ele>
        <time>2022-06-25T12:56:30Z</time>
      </trkpt>
      <trkpt lat="46.29126" lon="4.69586">
        <ele>547.8</ele>
        <time>2022-06-25T12:56:31Z</time>
      </trkpt>
      <trkpt lat="46.29125" lon="4.69588">
        <ele>548</ele>
        <time>2022-06-25T12:56:32Z</time>
      </trkpt>
      <trkpt lat="46.29124" lon="4.6959">
        <ele>548</ele>
        <time>2022-06-25T12:56:33Z</time>
      </trkpt>
      <trkpt lat="46.29122" lon="4.69592">
        <ele>548.4</ele>
        <time>2022-06-25T12:56:34Z</time>
      </trkpt>
      <trkpt lat="46.29121" lon="4.69594">
        <ele>548.4</ele>
        <time>2022-06-25T12:56:35Z</time>
      </trkpt>
      <trkpt lat="46.29119" lon="4.69595">
        <ele>548.8</ele>
        <time>2022-06-25T12:56:36Z</time>
      </trkpt>
      <trkpt lat="46.29117" lon="4.69596">
        <ele>549.2</ele>
        <time>2022-06-25T12:56:37Z</time>
      </trkpt>
      <trkpt lat="46.29116" lon="4.69598">
        <ele>549.4</ele>
        <time>2022-06-25T12:56:38Z</time>
      </trkpt>
      <trkpt lat="46.29114" lon="4.69598">
        <ele>549.4</ele>
        <time>2022-06-25T12:56:39Z</time>
      </trkpt>
      <trkpt lat="46.29111" lon="4.69599">
        <ele>549.6</ele>
        <time>2022-06-25T12:56:40Z</time>
      </trkpt>
      <trkpt lat="46.29109" lon="4.69599">
        <ele>549.6</ele>
        <time>2022-06-25T12:56:41Z</time>
      </trkpt>
      <trkpt lat="46.29107" lon="4.69599">
        <ele>550</ele>
        <time>2022-06-25T12:56:42Z</time>
      </trkpt>
      <trkpt lat="46.29105" lon="4.696">
        <ele>550</ele>
        <time>2022-06-25T12:56:43Z</time>
      </trkpt>
      <trkpt lat="46.29103" lon="4.69601">
        <ele>550</ele>
        <time>2022-06-25T12:56:44Z</time>
      </trkpt>
      <trkpt lat="46.29101" lon="4.69601">
        <ele>550.4</ele>
        <time>2022-06-25T12:56:45Z</time>
      </trkpt>
      <trkpt lat="46.29098" lon="4.69602">
        <ele>550.4</ele>
        <time>2022-06-25T12:56:46Z</time>
      </trkpt>
      <trkpt lat="46.29096" lon="4.69601">
        <ele>550.6</ele>
        <time>2022-06-25T12:56:47Z</time>
      </trkpt>
      <trkpt lat="46.29094" lon="4.69601">
        <ele>550.6</ele>
        <time>2022-06-25T12:56:48Z</time>
      </trkpt>
      <trkpt lat="46.29092" lon="4.696">
        <ele>551</ele>
        <time>2022-06-25T12:56:49Z</time>
      </trkpt>
      <trkpt lat="46.2909" lon="4.69599">
        <ele>551.2</ele>
        <time>2022-06-25T12:56:50Z</time>
      </trkpt>
      <trkpt lat="46.29088" lon="4.69599">
        <ele>551.2</ele>
        <time>2022-06-25T12:56:51Z</time>
      </trkpt>
      <trkpt lat="46.29086" lon="4.69599">
        <ele>551.6</ele>
        <time>2022-06-25T12:56:52Z</time>
      </trkpt>
      <trkpt lat="46.29083" lon="4.69599">
        <ele>551.6</ele>
        <time>2022-06-25T12:56:53Z</time>
      </trkpt>
      <trkpt lat="46.29081" lon="4.69599">
        <ele>552</ele>
        <time>2022-06-25T12:56:54Z</time>
      </trkpt>
      <trkpt lat="46.29079" lon="4.69599">
        <ele>552.2</ele>
        <time>2022-06-25T12:56:55Z</time>
      </trkpt>
      <trkpt lat="46.29077" lon="4.69599">
        <ele>552.2</ele>
        <time>2022-06-25T12:56:56Z</time>
      </trkpt>
      <trkpt lat="46.29074" lon="4.69598">
        <ele>552.4</ele>
        <time>2022-06-25T12:56:57Z</time>
      </trkpt>
      <trkpt lat="46.29072" lon="4.69598">
        <ele>552.8</ele>
        <time>2022-06-25T12:56:58Z</time>
      </trkpt>
      <trkpt lat="46.2907" lon="4.69597">
        <ele>552.8</ele>
        <time>2022-06-25T12:56:59Z</time>
      </trkpt>
      <trkpt lat="46.29068" lon="4.69596">
        <ele>553</ele>
        <time>2022-06-25T12:57:00Z</time>
      </trkpt>
      <trkpt lat="46.29066" lon="4.69596">
        <ele>553</ele>
        <time>2022-06-25T12:57:01Z</time>
      </trkpt>
      <trkpt lat="46.29063" lon="4.69595">
        <ele>553.2</ele>
        <time>2022-06-25T12:57:02Z</time>
      </trkpt>
      <trkpt lat="46.29061" lon="4.69594">
        <ele>553.6</ele>
        <time>2022-06-25T12:57:03Z</time>
      </trkpt>
      <trkpt lat="46.29059" lon="4.69594">
        <ele>553.6</ele>
        <time>2022-06-25T12:57:04Z</time>
      </trkpt>
      <trkpt lat="46.29057" lon="4.69593">
        <ele>553.8</ele>
        <time>2022-06-25T12:57:05Z</time>
      </trkpt>
      <trkpt lat="46.29055" lon="4.69592">
        <ele>553.8</ele>
        <time>2022-06-25T12:57:06Z</time>
      </trkpt>
      <trkpt lat="46.29053" lon="4.69591">
        <ele>554.2</ele>
        <time>2022-06-25T12:57:07Z</time>
      </trkpt>
      <trkpt lat="46.29051" lon="4.6959">
        <ele>554.2</ele>
        <time>2022-06-25T12:57:08Z</time>
      </trkpt>
      <trkpt lat="46.29048" lon="4.69589">
        <ele>554.4</ele>
        <time>2022-06-25T12:57:09Z</time>
      </trkpt>
      <trkpt lat="46.29046" lon="4.69588">
        <ele>554.4</ele>
        <time>2022-06-25T12:57:10Z</time>
      </trkpt>
      <trkpt lat="46.29044" lon="4.69587">
        <ele>554.6</ele>
        <time>2022-06-25T12:57:11Z</time>
      </trkpt>
      <trkpt lat="46.29042" lon="4.69586">
        <ele>554.6</ele>
        <time>2022-06-25T12:57:12Z</time>
      </trkpt>
      <trkpt lat="46.2904" lon="4.69585">
        <ele>554.6</ele>
        <time>2022-06-25T12:57:13Z</time>
      </trkpt>
      <trkpt lat="46.29038" lon="4.69584">
        <ele>555</ele>
        <time>2022-06-25T12:57:14Z</time>
      </trkpt>
      <trkpt lat="46.29036" lon="4.69583">
        <ele>555</ele>
        <time>2022-06-25T12:57:15Z</time>
      </trkpt>
      <trkpt lat="46.29034" lon="4.69582">
        <ele>555.2</ele>
        <time>2022-06-25T12:57:16Z</time>
      </trkpt>
      <trkpt lat="46.29032" lon="4.69581">
        <ele>555.2</ele>
        <time>2022-06-25T12:57:17Z</time>
      </trkpt>
      <trkpt lat="46.2903" lon="4.6958">
        <ele>555.6</ele>
        <time>2022-06-25T12:57:18Z</time>
      </trkpt>
      <trkpt lat="46.29028" lon="4.69579">
        <ele>555.6</ele>
        <time>2022-06-25T12:57:19Z</time>
      </trkpt>
      <trkpt lat="46.29026" lon="4.69579">
        <ele>556</ele>
        <time>2022-06-25T12:57:20Z</time>
      </trkpt>
      <trkpt lat="46.29024" lon="4.69578">
        <ele>556.2</ele>
        <time>2022-06-25T12:57:21Z</time>
      </trkpt>
      <trkpt lat="46.29022" lon="4.69578">
        <ele>556.2</ele>
        <time>2022-06-25T12:57:22Z</time>
      </trkpt>
      <trkpt lat="46.2902" lon="4.69577">
        <ele>556.2</ele>
        <time>2022-06-25T12:57:23Z</time>
      </trkpt>
      <trkpt lat="46.29018" lon="4.69577">
        <ele>556.4</ele>
        <time>2022-06-25T12:57:24Z</time>
      </trkpt>
      <trkpt lat="46.29016" lon="4.69576">
        <ele>556.4</ele>
        <time>2022-06-25T12:57:25Z</time>
      </trkpt>
      <trkpt lat="46.29015" lon="4.69576">
        <ele>556.8</ele>
        <time>2022-06-25T12:57:26Z</time>
      </trkpt>
      <trkpt lat="46.29012" lon="4.69575">
        <ele>556.8</ele>
        <time>2022-06-25T12:57:27Z</time>
      </trkpt>
      <trkpt lat="46.2901" lon="4.69575">
        <ele>557.2</ele>
        <time>2022-06-25T12:57:28Z</time>
      </trkpt>
      <trkpt lat="46.29008" lon="4.69575">
        <ele>557.2</ele>
        <time>2022-06-25T12:57:29Z</time>
      </trkpt>
      <trkpt lat="46.29007" lon="4.69574">
        <ele>557.4</ele>
        <time>2022-06-25T12:57:30Z</time>
      </trkpt>
      <trkpt lat="46.29005" lon="4.69574">
        <ele>557.4</ele>
        <time>2022-06-25T12:57:31Z</time>
      </trkpt>
      <trkpt lat="46.29003" lon="4.69574">
        <ele>557.8</ele>
        <time>2022-06-25T12:57:32Z</time>
      </trkpt>
      <trkpt lat="46.29001" lon="4.69573">
        <ele>557.8</ele>
        <time>2022-06-25T12:57:33Z</time>
      </trkpt>
      <trkpt lat="46.28999" lon="4.69573">
        <ele>558</ele>
        <time>2022-06-25T12:57:34Z</time>
      </trkpt>
      <trkpt lat="46.28996" lon="4.69573">
        <ele>558</ele>
        <time>2022-06-25T12:57:35Z</time>
      </trkpt>
      <trkpt lat="46.28994" lon="4.69573">
        <ele>558.2</ele>
        <time>2022-06-25T12:57:36Z</time>
      </trkpt>
      <trkpt lat="46.28992" lon="4.69572">
        <ele>558.2</ele>
        <time>2022-06-25T12:57:37Z</time>
      </trkpt>
      <trkpt lat="46.2899" lon="4.69571">
        <ele>558.8</ele>
        <time>2022-06-25T12:57:38Z</time>
      </trkpt>
      <trkpt lat="46.28988" lon="4.69571">
        <ele>558.8</ele>
        <time>2022-06-25T12:57:39Z</time>
      </trkpt>
      <trkpt lat="46.28985" lon="4.69571">
        <ele>558.8</ele>
        <time>2022-06-25T12:57:40Z</time>
      </trkpt>
      <trkpt lat="46.28983" lon="4.69571">
        <ele>559</ele>
        <time>2022-06-25T12:57:41Z</time>
      </trkpt>
      <trkpt lat="46.28981" lon="4.69571">
        <ele>559</ele>
        <time>2022-06-25T12:57:42Z</time>
      </trkpt>
      <trkpt lat="46.28979" lon="4.69572">
        <ele>559.4</ele>
        <time>2022-06-25T12:57:43Z</time>
      </trkpt>
      <trkpt lat="46.28977" lon="4.69572">
        <ele>559.4</ele>
        <time>2022-06-25T12:57:44Z</time>
      </trkpt>
      <trkpt lat="46.28975" lon="4.69572">
        <ele>559.8</ele>
        <time>2022-06-25T12:57:45Z</time>
      </trkpt>
      <trkpt lat="46.28972" lon="4.69572">
        <ele>559.8</ele>
        <time>2022-06-25T12:57:46Z</time>
      </trkpt>
      <trkpt lat="46.2897" lon="4.69572">
        <ele>560</ele>
        <time>2022-06-25T12:57:47Z</time>
      </trkpt>
      <trkpt lat="46.28968" lon="4.69572">
        <ele>560</ele>
        <time>2022-06-25T12:57:48Z</time>
      </trkpt>
      <trkpt lat="46.28966" lon="4.69572">
        <ele>560.2</ele>
        <time>2022-06-25T12:57:49Z</time>
      </trkpt>
      <trkpt lat="46.28963" lon="4.69572">
        <ele>560.2</ele>
        <time>2022-06-25T12:57:50Z</time>
      </trkpt>
      <trkpt lat="46.28961" lon="4.69573">
        <ele>560.6</ele>
        <time>2022-06-25T12:57:51Z</time>
      </trkpt>
      <trkpt lat="46.28959" lon="4.69572">
        <ele>560.6</ele>
        <time>2022-06-25T12:57:52Z</time>
      </trkpt>
      <trkpt lat="46.28957" lon="4.69573">
        <ele>561</ele>
        <time>2022-06-25T12:57:53Z</time>
      </trkpt>
      <trkpt lat="46.28954" lon="4.69573">
        <ele>561</ele>
        <time>2022-06-25T12:57:54Z</time>
      </trkpt>
      <trkpt lat="46.28952" lon="4.69573">
        <ele>561.2</ele>
        <time>2022-06-25T12:57:55Z</time>
      </trkpt>
      <trkpt lat="46.2895" lon="4.69574">
        <ele>561.2</ele>
        <time>2022-06-25T12:57:56Z</time>
      </trkpt>
      <trkpt lat="46.28948" lon="4.69574">
        <ele>561.6</ele>
        <time>2022-06-25T12:57:57Z</time>
      </trkpt>
      <trkpt lat="46.28946" lon="4.69574">
        <ele>561.6</ele>
        <time>2022-06-25T12:57:58Z</time>
      </trkpt>
      <trkpt lat="46.28944" lon="4.69574">
        <ele>561.8</ele>
        <time>2022-06-25T12:57:59Z</time>
      </trkpt>
      <trkpt lat="46.28942" lon="4.69573">
        <ele>562</ele>
        <time>2022-06-25T12:58:00Z</time>
      </trkpt>
      <trkpt lat="46.2894" lon="4.69574">
        <ele>562</ele>
        <time>2022-06-25T12:58:01Z</time>
      </trkpt>
      <trkpt lat="46.28938" lon="4.69574">
        <ele>562.4</ele>
        <time>2022-06-25T12:58:02Z</time>
      </trkpt>
      <trkpt lat="46.28936" lon="4.69574">
        <ele>562.4</ele>
        <time>2022-06-25T12:58:03Z</time>
      </trkpt>
      <trkpt lat="46.28934" lon="4.69575">
        <ele>562.6</ele>
        <time>2022-06-25T12:58:04Z</time>
      </trkpt>
      <trkpt lat="46.28932" lon="4.69575">
        <ele>562.6</ele>
        <time>2022-06-25T12:58:05Z</time>
      </trkpt>
      <trkpt lat="46.2893" lon="4.69574">
        <ele>562.8</ele>
        <time>2022-06-25T12:58:06Z</time>
      </trkpt>
      <trkpt lat="46.28928" lon="4.69574">
        <ele>562.8</ele>
        <time>2022-06-25T12:58:07Z</time>
      </trkpt>
      <trkpt lat="46.28926" lon="4.69573">
        <ele>563</ele>
        <time>2022-06-25T12:58:08Z</time>
      </trkpt>
      <trkpt lat="46.28924" lon="4.69573">
        <ele>563</ele>
        <time>2022-06-25T12:58:09Z</time>
      </trkpt>
      <trkpt lat="46.28921" lon="4.69573">
        <ele>563.4</ele>
        <time>2022-06-25T12:58:10Z</time>
      </trkpt>
      <trkpt lat="46.28919" lon="4.69572">
        <ele>563.4</ele>
        <time>2022-06-25T12:58:11Z</time>
      </trkpt>
      <trkpt lat="46.28917" lon="4.69572">
        <ele>563.6</ele>
        <time>2022-06-25T12:58:12Z</time>
      </trkpt>
      <trkpt lat="46.28914" lon="4.69572">
        <ele>563.6</ele>
        <time>2022-06-25T12:58:13Z</time>
      </trkpt>
      <trkpt lat="46.28912" lon="4.69572">
        <ele>564</ele>
        <time>2022-06-25T12:58:14Z</time>
      </trkpt>
      <trkpt lat="46.2891" lon="4.69572">
        <ele>564</ele>
        <time>2022-06-25T12:58:15Z</time>
      </trkpt>
      <trkpt lat="46.28907" lon="4.69571">
        <ele>564</ele>
        <time>2022-06-25T12:58:16Z</time>
      </trkpt>
      <trkpt lat="46.28905" lon="4.69571">
        <ele>564.2</ele>
        <time>2022-06-25T12:58:17Z</time>
      </trkpt>
      <trkpt lat="46.28903" lon="4.6957">
        <ele>564.2</ele>
        <time>2022-06-25T12:58:18Z</time>
      </trkpt>
      <trkpt lat="46.289" lon="4.69569">
        <ele>564.6</ele>
        <time>2022-06-25T12:58:19Z</time>
      </trkpt>
      <trkpt lat="46.28898" lon="4.69569">
        <ele>564.6</ele>
        <time>2022-06-25T12:58:20Z</time>
      </trkpt>
      <trkpt lat="46.28895" lon="4.69569">
        <ele>565</ele>
        <time>2022-06-25T12:58:21Z</time>
      </trkpt>
      <trkpt lat="46.28893" lon="4.69568">
        <ele>565</ele>
        <time>2022-06-25T12:58:22Z</time>
      </trkpt>
      <trkpt lat="46.28891" lon="4.69568">
        <ele>565.4</ele>
        <time>2022-06-25T12:58:23Z</time>
      </trkpt>
      <trkpt lat="46.28888" lon="4.69567">
        <ele>565.4</ele>
        <time>2022-06-25T12:58:24Z</time>
      </trkpt>
      <trkpt lat="46.28886" lon="4.69567">
        <ele>565.6</ele>
        <time>2022-06-25T12:58:25Z</time>
      </trkpt>
      <trkpt lat="46.28883" lon="4.69566">
        <ele>565.6</ele>
        <time>2022-06-25T12:58:26Z</time>
      </trkpt>
      <trkpt lat="46.28881" lon="4.69566">
        <ele>566</ele>
        <time>2022-06-25T12:58:27Z</time>
      </trkpt>
      <trkpt lat="46.28879" lon="4.69565">
        <ele>566.2</ele>
        <time>2022-06-25T12:58:28Z</time>
      </trkpt>
      <trkpt lat="46.28877" lon="4.69564">
        <ele>566.4</ele>
        <time>2022-06-25T12:58:29Z</time>
      </trkpt>
      <trkpt lat="46.28874" lon="4.69563">
        <ele>566.4</ele>
        <time>2022-06-25T12:58:30Z</time>
      </trkpt>
      <trkpt lat="46.28872" lon="4.69563">
        <ele>566.8</ele>
        <time>2022-06-25T12:58:31Z</time>
      </trkpt>
      <trkpt lat="46.2887" lon="4.69562">
        <ele>566.8</ele>
        <time>2022-06-25T12:58:32Z</time>
      </trkpt>
      <trkpt lat="46.28867" lon="4.69561">
        <ele>567.2</ele>
        <time>2022-06-25T12:58:33Z</time>
      </trkpt>
      <trkpt lat="46.28865" lon="4.6956">
        <ele>567.2</ele>
        <time>2022-06-25T12:58:34Z</time>
      </trkpt>
      <trkpt lat="46.28863" lon="4.6956">
        <ele>567.6</ele>
        <time>2022-06-25T12:58:35Z</time>
      </trkpt>
      <trkpt lat="46.28861" lon="4.6956">
        <ele>567.6</ele>
        <time>2022-06-25T12:58:36Z</time>
      </trkpt>
      <trkpt lat="46.28859" lon="4.69559">
        <ele>568</ele>
        <time>2022-06-25T12:58:37Z</time>
      </trkpt>
      <trkpt lat="46.28856" lon="4.69559">
        <ele>568</ele>
        <time>2022-06-25T12:58:38Z</time>
      </trkpt>
      <trkpt lat="46.28854" lon="4.69559">
        <ele>568.2</ele>
        <time>2022-06-25T12:58:39Z</time>
      </trkpt>
      <trkpt lat="46.28852" lon="4.69558">
        <ele>568.6</ele>
        <time>2022-06-25T12:58:41Z</time>
      </trkpt>
      <trkpt lat="46.2885" lon="4.69558">
        <ele>568.8</ele>
        <time>2022-06-25T12:58:42Z</time>
      </trkpt>
      <trkpt lat="46.28847" lon="4.69558">
        <ele>568.8</ele>
        <time>2022-06-25T12:58:43Z</time>
      </trkpt>
      <trkpt lat="46.28845" lon="4.69558">
        <ele>569</ele>
        <time>2022-06-25T12:58:44Z</time>
      </trkpt>
      <trkpt lat="46.28843" lon="4.69558">
        <ele>569</ele>
        <time>2022-06-25T12:58:45Z</time>
      </trkpt>
      <trkpt lat="46.28841" lon="4.69557">
        <ele>569.2</ele>
        <time>2022-06-25T12:58:46Z</time>
      </trkpt>
      <trkpt lat="46.28839" lon="4.69557">
        <ele>569.2</ele>
        <time>2022-06-25T12:58:47Z</time>
      </trkpt>
      <trkpt lat="46.28836" lon="4.69556">
        <ele>569.6</ele>
        <time>2022-06-25T12:58:48Z</time>
      </trkpt>
      <trkpt lat="46.28834" lon="4.69555">
        <ele>569.6</ele>
        <time>2022-06-25T12:58:49Z</time>
      </trkpt>
      <trkpt lat="46.28832" lon="4.69554">
        <ele>569.8</ele>
        <time>2022-06-25T12:58:50Z</time>
      </trkpt>
      <trkpt lat="46.2883" lon="4.69554">
        <ele>570</ele>
        <time>2022-06-25T12:58:51Z</time>
      </trkpt>
      <trkpt lat="46.28827" lon="4.69553">
        <ele>570</ele>
        <time>2022-06-25T12:58:52Z</time>
      </trkpt>
      <trkpt lat="46.28825" lon="4.69553">
        <ele>570.4</ele>
        <time>2022-06-25T12:58:53Z</time>
      </trkpt>
      <trkpt lat="46.28823" lon="4.69552">
        <ele>570.4</ele>
        <time>2022-06-25T12:58:54Z</time>
      </trkpt>
      <trkpt lat="46.28821" lon="4.69551">
        <ele>570.8</ele>
        <time>2022-06-25T12:58:55Z</time>
      </trkpt>
      <trkpt lat="46.28818" lon="4.6955">
        <ele>571</ele>
        <time>2022-06-25T12:58:56Z</time>
      </trkpt>
      <trkpt lat="46.28816" lon="4.69549">
        <ele>571</ele>
        <time>2022-06-25T12:58:57Z</time>
      </trkpt>
      <trkpt lat="46.28814" lon="4.69549">
        <ele>571.2</ele>
        <time>2022-06-25T12:58:58Z</time>
      </trkpt>
      <trkpt lat="46.28812" lon="4.69548">
        <ele>571.2</ele>
        <time>2022-06-25T12:58:59Z</time>
      </trkpt>
      <trkpt lat="46.2881" lon="4.69547">
        <ele>571.6</ele>
        <time>2022-06-25T12:59:00Z</time>
      </trkpt>
      <trkpt lat="46.28808" lon="4.69546">
        <ele>571.6</ele>
        <time>2022-06-25T12:59:01Z</time>
      </trkpt>
      <trkpt lat="46.28806" lon="4.69545">
        <ele>571.8</ele>
        <time>2022-06-25T12:59:02Z</time>
      </trkpt>
      <trkpt lat="46.28804" lon="4.69544">
        <ele>571.8</ele>
        <time>2022-06-25T12:59:03Z</time>
      </trkpt>
      <trkpt lat="46.28802" lon="4.69543">
        <ele>572.2</ele>
        <time>2022-06-25T12:59:04Z</time>
      </trkpt>
      <trkpt lat="46.28799" lon="4.69542">
        <ele>572.2</ele>
        <time>2022-06-25T12:59:05Z</time>
      </trkpt>
      <trkpt lat="46.28797" lon="4.6954">
        <ele>572.4</ele>
        <time>2022-06-25T12:59:06Z</time>
      </trkpt>
      <trkpt lat="46.28795" lon="4.69539">
        <ele>572.4</ele>
        <time>2022-06-25T12:59:07Z</time>
      </trkpt>
      <trkpt lat="46.28793" lon="4.69537">
        <ele>572.8</ele>
        <time>2022-06-25T12:59:08Z</time>
      </trkpt>
      <trkpt lat="46.28791" lon="4.69536">
        <ele>572.8</ele>
        <time>2022-06-25T12:59:09Z</time>
      </trkpt>
      <trkpt lat="46.28789" lon="4.69535">
        <ele>573</ele>
        <time>2022-06-25T12:59:10Z</time>
      </trkpt>
      <trkpt lat="46.28788" lon="4.69534">
        <ele>573</ele>
        <time>2022-06-25T12:59:11Z</time>
      </trkpt>
      <trkpt lat="46.28786" lon="4.69533">
        <ele>573.4</ele>
        <time>2022-06-25T12:59:12Z</time>
      </trkpt>
      <trkpt lat="46.28784" lon="4.69532">
        <ele>573.6</ele>
        <time>2022-06-25T12:59:13Z</time>
      </trkpt>
      <trkpt lat="46.28782" lon="4.69531">
        <ele>573.6</ele>
        <time>2022-06-25T12:59:14Z</time>
      </trkpt>
      <trkpt lat="46.2878" lon="4.6953">
        <ele>573.8</ele>
        <time>2022-06-25T12:59:15Z</time>
      </trkpt>
      <trkpt lat="46.28778" lon="4.69528">
        <ele>574.2</ele>
        <time>2022-06-25T12:59:16Z</time>
      </trkpt>
      <trkpt lat="46.28776" lon="4.69526">
        <ele>574.2</ele>
        <time>2022-06-25T12:59:17Z</time>
      </trkpt>
      <trkpt lat="46.28775" lon="4.69524">
        <ele>574.4</ele>
        <time>2022-06-25T12:59:18Z</time>
      </trkpt>
      <trkpt lat="46.28773" lon="4.69522">
        <ele>574.4</ele>
        <time>2022-06-25T12:59:19Z</time>
      </trkpt>
      <trkpt lat="46.28771" lon="4.69521">
        <ele>574.8</ele>
        <time>2022-06-25T12:59:20Z</time>
      </trkpt>
      <trkpt lat="46.28769" lon="4.6952">
        <ele>574.8</ele>
        <time>2022-06-25T12:59:21Z</time>
      </trkpt>
      <trkpt lat="46.28767" lon="4.69519">
        <ele>575</ele>
        <time>2022-06-25T12:59:22Z</time>
      </trkpt>
      <trkpt lat="46.28766" lon="4.69518">
        <ele>575</ele>
        <time>2022-06-25T12:59:23Z</time>
      </trkpt>
      <trkpt lat="46.28764" lon="4.69517">
        <ele>575.2</ele>
        <time>2022-06-25T12:59:24Z</time>
      </trkpt>
      <trkpt lat="46.28762" lon="4.69515">
        <ele>575.2</ele>
        <time>2022-06-25T12:59:25Z</time>
      </trkpt>
      <trkpt lat="46.2876" lon="4.69514">
        <ele>575.6</ele>
        <time>2022-06-25T12:59:26Z</time>
      </trkpt>
      <trkpt lat="46.28758" lon="4.69513">
        <ele>575.6</ele>
        <time>2022-06-25T12:59:27Z</time>
      </trkpt>
      <trkpt lat="46.28756" lon="4.69512">
        <ele>575.8</ele>
        <time>2022-06-25T12:59:28Z</time>
      </trkpt>
      <trkpt lat="46.28754" lon="4.6951">
        <ele>575.8</ele>
        <time>2022-06-25T12:59:29Z</time>
      </trkpt>
      <trkpt lat="46.28752" lon="4.69508">
        <ele>576</ele>
        <time>2022-06-25T12:59:30Z</time>
      </trkpt>
      <trkpt lat="46.2875" lon="4.69506">
        <ele>576</ele>
        <time>2022-06-25T12:59:31Z</time>
      </trkpt>
      <trkpt lat="46.28747" lon="4.69505">
        <ele>576.2</ele>
        <time>2022-06-25T12:59:32Z</time>
      </trkpt>
      <trkpt lat="46.28745" lon="4.69504">
        <ele>576.2</ele>
        <time>2022-06-25T12:59:33Z</time>
      </trkpt>
      <trkpt lat="46.28743" lon="4.69504">
        <ele>576.6</ele>
        <time>2022-06-25T12:59:34Z</time>
      </trkpt>
      <trkpt lat="46.2874" lon="4.69503">
        <ele>576.6</ele>
        <time>2022-06-25T12:59:35Z</time>
      </trkpt>
      <trkpt lat="46.28738" lon="4.69502">
        <ele>577</ele>
        <time>2022-06-25T12:59:36Z</time>
      </trkpt>
      <trkpt lat="46.28736" lon="4.69501">
        <ele>577</ele>
        <time>2022-06-25T12:59:37Z</time>
      </trkpt>
      <trkpt lat="46.28734" lon="4.695">
        <ele>577.4</ele>
        <time>2022-06-25T12:59:38Z</time>
      </trkpt>
      <trkpt lat="46.28732" lon="4.69499">
        <ele>577.4</ele>
        <time>2022-06-25T12:59:39Z</time>
      </trkpt>
      <trkpt lat="46.2873" lon="4.69498">
        <ele>577.6</ele>
        <time>2022-06-25T12:59:40Z</time>
      </trkpt>
      <trkpt lat="46.28728" lon="4.69497">
        <ele>577.6</ele>
        <time>2022-06-25T12:59:41Z</time>
      </trkpt>
      <trkpt lat="46.28726" lon="4.69496">
        <ele>578</ele>
        <time>2022-06-25T12:59:42Z</time>
      </trkpt>
      <trkpt lat="46.28723" lon="4.69495">
        <ele>578</ele>
        <time>2022-06-25T12:59:43Z</time>
      </trkpt>
      <trkpt lat="46.28721" lon="4.69494">
        <ele>578.2</ele>
        <time>2022-06-25T12:59:44Z</time>
      </trkpt>
      <trkpt lat="46.28719" lon="4.69493">
        <ele>578.2</ele>
        <time>2022-06-25T12:59:45Z</time>
      </trkpt>
      <trkpt lat="46.28717" lon="4.69493">
        <ele>578.6</ele>
        <time>2022-06-25T12:59:46Z</time>
      </trkpt>
      <trkpt lat="46.28715" lon="4.69492">
        <ele>578.6</ele>
        <time>2022-06-25T12:59:47Z</time>
      </trkpt>
      <trkpt lat="46.28713" lon="4.69492">
        <ele>578.8</ele>
        <time>2022-06-25T12:59:48Z</time>
      </trkpt>
      <trkpt lat="46.2871" lon="4.69491">
        <ele>579.2</ele>
        <time>2022-06-25T12:59:49Z</time>
      </trkpt>
      <trkpt lat="46.28708" lon="4.6949">
        <ele>579.2</ele>
        <time>2022-06-25T12:59:50Z</time>
      </trkpt>
      <trkpt lat="46.28706" lon="4.6949">
        <ele>579.4</ele>
        <time>2022-06-25T12:59:51Z</time>
      </trkpt>
      <trkpt lat="46.28704" lon="4.69489">
        <ele>579.4</ele>
        <time>2022-06-25T12:59:52Z</time>
      </trkpt>
      <trkpt lat="46.28702" lon="4.69489">
        <ele>579.6</ele>
        <time>2022-06-25T12:59:53Z</time>
      </trkpt>
      <trkpt lat="46.287" lon="4.69488">
        <ele>580</ele>
        <time>2022-06-25T12:59:54Z</time>
      </trkpt>
      <trkpt lat="46.28698" lon="4.69488">
        <ele>580.2</ele>
        <time>2022-06-25T12:59:55Z</time>
      </trkpt>
      <trkpt lat="46.28696" lon="4.69487">
        <ele>580.4</ele>
        <time>2022-06-25T12:59:56Z</time>
      </trkpt>
      <trkpt lat="46.28694" lon="4.69486">
        <ele>580.4</ele>
        <time>2022-06-25T12:59:57Z</time>
      </trkpt>
      <trkpt lat="46.28692" lon="4.69485">
        <ele>580.8</ele>
        <time>2022-06-25T12:59:58Z</time>
      </trkpt>
      <trkpt lat="46.2869" lon="4.69484">
        <ele>580.8</ele>
        <time>2022-06-25T12:59:59Z</time>
      </trkpt>
      <trkpt lat="46.28688" lon="4.69483">
        <ele>581.2</ele>
        <time>2022-06-25T13:00:00Z</time>
      </trkpt>
      <trkpt lat="46.28687" lon="4.69482">
        <ele>581.4</ele>
        <time>2022-06-25T13:00:01Z</time>
      </trkpt>
      <trkpt lat="46.28685" lon="4.69482">
        <ele>581.4</ele>
        <time>2022-06-25T13:00:02Z</time>
      </trkpt>
      <trkpt lat="46.28683" lon="4.69481">
        <ele>581.8</ele>
        <time>2022-06-25T13:00:03Z</time>
      </trkpt>
      <trkpt lat="46.28681" lon="4.69479">
        <ele>582</ele>
        <time>2022-06-25T13:00:04Z</time>
      </trkpt>
      <trkpt lat="46.28679" lon="4.69478">
        <ele>582</ele>
        <time>2022-06-25T13:00:05Z</time>
      </trkpt>
      <trkpt lat="46.28677" lon="4.69477">
        <ele>582.2</ele>
        <time>2022-06-25T13:00:06Z</time>
      </trkpt>
      <trkpt lat="46.28675" lon="4.69476">
        <ele>582.2</ele>
        <time>2022-06-25T13:00:07Z</time>
      </trkpt>
      <trkpt lat="46.28673" lon="4.69475">
        <ele>582.6</ele>
        <time>2022-06-25T13:00:08Z</time>
      </trkpt>
      <trkpt lat="46.28671" lon="4.69474">
        <ele>582.8</ele>
        <time>2022-06-25T13:00:09Z</time>
      </trkpt>
      <trkpt lat="46.28667" lon="4.69472">
        <ele>583</ele>
        <time>2022-06-25T13:00:10Z</time>
      </trkpt>
      <trkpt lat="46.28665" lon="4.6947">
        <ele>583</ele>
        <time>2022-06-25T13:00:11Z</time>
      </trkpt>
      <trkpt lat="46.28662" lon="4.69469">
        <ele>583.4</ele>
        <time>2022-06-25T13:00:12Z</time>
      </trkpt>
      <trkpt lat="46.2866" lon="4.69468">
        <ele>583.4</ele>
        <time>2022-06-25T13:00:13Z</time>
      </trkpt>
      <trkpt lat="46.28658" lon="4.69467">
        <ele>583.8</ele>
        <time>2022-06-25T13:00:14Z</time>
      </trkpt>
      <trkpt lat="46.28656" lon="4.69466">
        <ele>583.8</ele>
        <time>2022-06-25T13:00:15Z</time>
      </trkpt>
      <trkpt lat="46.28654" lon="4.69465">
        <ele>584.2</ele>
        <time>2022-06-25T13:00:16Z</time>
      </trkpt>
      <trkpt lat="46.28651" lon="4.69464">
        <ele>584.2</ele>
        <time>2022-06-25T13:00:17Z</time>
      </trkpt>
      <trkpt lat="46.28649" lon="4.69463">
        <ele>584.6</ele>
        <time>2022-06-25T13:00:18Z</time>
      </trkpt>
      <trkpt lat="46.28647" lon="4.69462">
        <ele>584.6</ele>
        <time>2022-06-25T13:00:19Z</time>
      </trkpt>
      <trkpt lat="46.28645" lon="4.69461">
        <ele>585</ele>
        <time>2022-06-25T13:00:20Z</time>
      </trkpt>
      <trkpt lat="46.28642" lon="4.6946">
        <ele>585</ele>
        <time>2022-06-25T13:00:21Z</time>
      </trkpt>
      <trkpt lat="46.2864" lon="4.6946">
        <ele>585.2</ele>
        <time>2022-06-25T13:00:22Z</time>
      </trkpt>
      <trkpt lat="46.28638" lon="4.69459">
        <ele>585.2</ele>
        <time>2022-06-25T13:00:23Z</time>
      </trkpt>
      <trkpt lat="46.28635" lon="4.69457">
        <ele>585.4</ele>
        <time>2022-06-25T13:00:24Z</time>
      </trkpt>
      <trkpt lat="46.28633" lon="4.69456">
        <ele>585.4</ele>
        <time>2022-06-25T13:00:25Z</time>
      </trkpt>
      <trkpt lat="46.28631" lon="4.69455">
        <ele>585.8</ele>
        <time>2022-06-25T13:00:26Z</time>
      </trkpt>
      <trkpt lat="46.28629" lon="4.69454">
        <ele>585.8</ele>
        <time>2022-06-25T13:00:27Z</time>
      </trkpt>
      <trkpt lat="46.28627" lon="4.69453">
        <ele>586</ele>
        <time>2022-06-25T13:00:28Z</time>
      </trkpt>
      <trkpt lat="46.28625" lon="4.69452">
        <ele>586</ele>
        <time>2022-06-25T13:00:29Z</time>
      </trkpt>
      <trkpt lat="46.28623" lon="4.69451">
        <ele>586.4</ele>
        <time>2022-06-25T13:00:30Z</time>
      </trkpt>
      <trkpt lat="46.28621" lon="4.6945">
        <ele>586.4</ele>
        <time>2022-06-25T13:00:31Z</time>
      </trkpt>
      <trkpt lat="46.28619" lon="4.69449">
        <ele>586.8</ele>
        <time>2022-06-25T13:00:32Z</time>
      </trkpt>
      <trkpt lat="46.28617" lon="4.69448">
        <ele>586.8</ele>
        <time>2022-06-25T13:00:33Z</time>
      </trkpt>
      <trkpt lat="46.28614" lon="4.69447">
        <ele>587</ele>
        <time>2022-06-25T13:00:34Z</time>
      </trkpt>
      <trkpt lat="46.28612" lon="4.69446">
        <ele>587</ele>
        <time>2022-06-25T13:00:35Z</time>
      </trkpt>
      <trkpt lat="46.2861" lon="4.69445">
        <ele>587.4</ele>
        <time>2022-06-25T13:00:36Z</time>
      </trkpt>
      <trkpt lat="46.28608" lon="4.69445">
        <ele>587.4</ele>
        <time>2022-06-25T13:00:37Z</time>
      </trkpt>
      <trkpt lat="46.28606" lon="4.69444">
        <ele>587.6</ele>
        <time>2022-06-25T13:00:38Z</time>
      </trkpt>
      <trkpt lat="46.28604" lon="4.69444">
        <ele>587.6</ele>
        <time>2022-06-25T13:00:39Z</time>
      </trkpt>
      <trkpt lat="46.28602" lon="4.69443">
        <ele>588</ele>
        <time>2022-06-25T13:00:40Z</time>
      </trkpt>
      <trkpt lat="46.286" lon="4.69443">
        <ele>588</ele>
        <time>2022-06-25T13:00:41Z</time>
      </trkpt>
      <trkpt lat="46.28598" lon="4.69443">
        <ele>588.2</ele>
        <time>2022-06-25T13:00:42Z</time>
      </trkpt>
      <trkpt lat="46.28596" lon="4.69442">
        <ele>588.2</ele>
        <time>2022-06-25T13:00:43Z</time>
      </trkpt>
      <trkpt lat="46.28594" lon="4.69442">
        <ele>588.6</ele>
        <time>2022-06-25T13:00:44Z</time>
      </trkpt>
      <trkpt lat="46.28592" lon="4.69441">
        <ele>588.6</ele>
        <time>2022-06-25T13:00:45Z</time>
      </trkpt>
      <trkpt lat="46.2859" lon="4.69441">
        <ele>588.8</ele>
        <time>2022-06-25T13:00:46Z</time>
      </trkpt>
      <trkpt lat="46.28588" lon="4.69441">
        <ele>589</ele>
        <time>2022-06-25T13:00:47Z</time>
      </trkpt>
      <trkpt lat="46.28585" lon="4.6944">
        <ele>589</ele>
        <time>2022-06-25T13:00:48Z</time>
      </trkpt>
      <trkpt lat="46.28583" lon="4.69439">
        <ele>589.4</ele>
        <time>2022-06-25T13:00:49Z</time>
      </trkpt>
      <trkpt lat="46.28581" lon="4.69438">
        <ele>589.4</ele>
        <time>2022-06-25T13:00:50Z</time>
      </trkpt>
      <trkpt lat="46.28579" lon="4.69437">
        <ele>589.8</ele>
        <time>2022-06-25T13:00:51Z</time>
      </trkpt>
      <trkpt lat="46.28577" lon="4.69436">
        <ele>590</ele>
        <time>2022-06-25T13:00:52Z</time>
      </trkpt>
      <trkpt lat="46.28575" lon="4.69435">
        <ele>590</ele>
        <time>2022-06-25T13:00:53Z</time>
      </trkpt>
      <trkpt lat="46.28573" lon="4.69434">
        <ele>590.2</ele>
        <time>2022-06-25T13:00:54Z</time>
      </trkpt>
      <trkpt lat="46.28571" lon="4.69433">
        <ele>590.2</ele>
        <time>2022-06-25T13:00:55Z</time>
      </trkpt>
      <trkpt lat="46.28569" lon="4.69432">
        <ele>590.6</ele>
        <time>2022-06-25T13:00:56Z</time>
      </trkpt>
      <trkpt lat="46.28567" lon="4.69431">
        <ele>590.6</ele>
        <time>2022-06-25T13:00:57Z</time>
      </trkpt>
      <trkpt lat="46.28565" lon="4.6943">
        <ele>591</ele>
        <time>2022-06-25T13:00:58Z</time>
      </trkpt>
      <trkpt lat="46.28563" lon="4.69429">
        <ele>591</ele>
        <time>2022-06-25T13:00:59Z</time>
      </trkpt>
      <trkpt lat="46.28561" lon="4.69427">
        <ele>591.4</ele>
        <time>2022-06-25T13:01:00Z</time>
      </trkpt>
      <trkpt lat="46.28558" lon="4.69426">
        <ele>591.4</ele>
        <time>2022-06-25T13:01:01Z</time>
      </trkpt>
      <trkpt lat="46.28556" lon="4.69425">
        <ele>591.6</ele>
        <time>2022-06-25T13:01:02Z</time>
      </trkpt>
      <trkpt lat="46.28553" lon="4.69424">
        <ele>591.6</ele>
        <time>2022-06-25T13:01:03Z</time>
      </trkpt>
      <trkpt lat="46.28551" lon="4.69423">
        <ele>592</ele>
        <time>2022-06-25T13:01:04Z</time>
      </trkpt>
      <trkpt lat="46.28548" lon="4.69423">
        <ele>592.2</ele>
        <time>2022-06-25T13:01:05Z</time>
      </trkpt>
      <trkpt lat="46.28546" lon="4.69423">
        <ele>592.2</ele>
        <time>2022-06-25T13:01:06Z</time>
      </trkpt>
      <trkpt lat="46.28543" lon="4.69422">
        <ele>592.6</ele>
        <time>2022-06-25T13:01:07Z</time>
      </trkpt>
      <trkpt lat="46.28541" lon="4.6942">
        <ele>592.6</ele>
        <time>2022-06-25T13:01:08Z</time>
      </trkpt>
      <trkpt lat="46.28539" lon="4.69419">
        <ele>592.8</ele>
        <time>2022-06-25T13:01:09Z</time>
      </trkpt>
      <trkpt lat="46.28537" lon="4.69418">
        <ele>592.8</ele>
        <time>2022-06-25T13:01:10Z</time>
      </trkpt>
      <trkpt lat="46.28534" lon="4.69417">
        <ele>592.8</ele>
        <time>2022-06-25T13:01:11Z</time>
      </trkpt>
      <trkpt lat="46.28532" lon="4.69415">
        <ele>593.2</ele>
        <time>2022-06-25T13:01:12Z</time>
      </trkpt>
      <trkpt lat="46.2853" lon="4.69414">
        <ele>593.2</ele>
        <time>2022-06-25T13:01:13Z</time>
      </trkpt>
      <trkpt lat="46.28528" lon="4.69412">
        <ele>593.4</ele>
        <time>2022-06-25T13:01:14Z</time>
      </trkpt>
      <trkpt lat="46.28526" lon="4.69411">
        <ele>593.4</ele>
        <time>2022-06-25T13:01:15Z</time>
      </trkpt>
      <trkpt lat="46.28524" lon="4.69411">
        <ele>593.6</ele>
        <time>2022-06-25T13:01:16Z</time>
      </trkpt>
      <trkpt lat="46.28522" lon="4.6941">
        <ele>593.6</ele>
        <time>2022-06-25T13:01:17Z</time>
      </trkpt>
      <trkpt lat="46.2852" lon="4.6941">
        <ele>594</ele>
        <time>2022-06-25T13:01:18Z</time>
      </trkpt>
      <trkpt lat="46.28518" lon="4.69409">
        <ele>594</ele>
        <time>2022-06-25T13:01:19Z</time>
      </trkpt>
      <trkpt lat="46.28516" lon="4.69409">
        <ele>594.4</ele>
        <time>2022-06-25T13:01:20Z</time>
      </trkpt>
      <trkpt lat="46.28513" lon="4.69408">
        <ele>594.4</ele>
        <time>2022-06-25T13:01:21Z</time>
      </trkpt>
      <trkpt lat="46.28511" lon="4.69408">
        <ele>594.6</ele>
        <time>2022-06-25T13:01:22Z</time>
      </trkpt>
      <trkpt lat="46.28509" lon="4.69408">
        <ele>594.6</ele>
        <time>2022-06-25T13:01:23Z</time>
      </trkpt>
      <trkpt lat="46.28507" lon="4.69407">
        <ele>595</ele>
        <time>2022-06-25T13:01:24Z</time>
      </trkpt>
      <trkpt lat="46.28505" lon="4.69407">
        <ele>595</ele>
        <time>2022-06-25T13:01:25Z</time>
      </trkpt>
      <trkpt lat="46.28504" lon="4.69406">
        <ele>595.2</ele>
        <time>2022-06-25T13:01:26Z</time>
      </trkpt>
      <trkpt lat="46.28502" lon="4.69405">
        <ele>595.4</ele>
        <time>2022-06-25T13:01:27Z</time>
      </trkpt>
      <trkpt lat="46.285" lon="4.69405">
        <ele>595.6</ele>
        <time>2022-06-25T13:01:28Z</time>
      </trkpt>
      <trkpt lat="46.28499" lon="4.69404">
        <ele>595.6</ele>
        <time>2022-06-25T13:01:29Z</time>
      </trkpt>
      <trkpt lat="46.28497" lon="4.69403">
        <ele>596</ele>
        <time>2022-06-25T13:01:30Z</time>
      </trkpt>
      <trkpt lat="46.28496" lon="4.69401">
        <ele>596</ele>
        <time>2022-06-25T13:01:31Z</time>
      </trkpt>
      <trkpt lat="46.28494" lon="4.694">
        <ele>596.2</ele>
        <time>2022-06-25T13:01:32Z</time>
      </trkpt>
      <trkpt lat="46.28493" lon="4.69399">
        <ele>596.2</ele>
        <time>2022-06-25T13:01:33Z</time>
      </trkpt>
      <trkpt lat="46.28492" lon="4.69399">
        <ele>596.6</ele>
        <time>2022-06-25T13:01:34Z</time>
      </trkpt>
      <trkpt lat="46.2849" lon="4.69398">
        <ele>596.6</ele>
        <time>2022-06-25T13:01:35Z</time>
      </trkpt>
      <trkpt lat="46.28488" lon="4.69398">
        <ele>597</ele>
        <time>2022-06-25T13:01:36Z</time>
      </trkpt>
      <trkpt lat="46.28486" lon="4.69397">
        <ele>597.2</ele>
        <time>2022-06-25T13:01:37Z</time>
      </trkpt>
      <trkpt lat="46.28484" lon="4.69397">
        <ele>597.2</ele>
        <time>2022-06-25T13:01:38Z</time>
      </trkpt>
      <trkpt lat="46.28483" lon="4.69397">
        <ele>597.6</ele>
        <time>2022-06-25T13:01:39Z</time>
      </trkpt>
      <trkpt lat="46.28481" lon="4.69397">
        <ele>597.8</ele>
        <time>2022-06-25T13:01:40Z</time>
      </trkpt>
      <trkpt lat="46.28479" lon="4.69397">
        <ele>597.8</ele>
        <time>2022-06-25T13:01:41Z</time>
      </trkpt>
      <trkpt lat="46.28477" lon="4.69397">
        <ele>598</ele>
        <time>2022-06-25T13:01:42Z</time>
      </trkpt>
      <trkpt lat="46.28476" lon="4.69396">
        <ele>598</ele>
        <time>2022-06-25T13:01:43Z</time>
      </trkpt>
      <trkpt lat="46.28474" lon="4.69396">
        <ele>598.4</ele>
        <time>2022-06-25T13:01:44Z</time>
      </trkpt>
      <trkpt lat="46.28473" lon="4.69396">
        <ele>598.6</ele>
        <time>2022-06-25T13:01:45Z</time>
      </trkpt>
      <trkpt lat="46.2847" lon="4.69396">
        <ele>598.8</ele>
        <time>2022-06-25T13:01:46Z</time>
      </trkpt>
      <trkpt lat="46.28468" lon="4.69396">
        <ele>598.8</ele>
        <time>2022-06-25T13:01:47Z</time>
      </trkpt>
      <trkpt lat="46.28466" lon="4.69397">
        <ele>599</ele>
        <time>2022-06-25T13:01:48Z</time>
      </trkpt>
      <trkpt lat="46.28464" lon="4.69398">
        <ele>599</ele>
        <time>2022-06-25T13:01:49Z</time>
      </trkpt>
      <trkpt lat="46.28462" lon="4.69398">
        <ele>599.4</ele>
        <time>2022-06-25T13:01:50Z</time>
      </trkpt>
      <trkpt lat="46.2846" lon="4.69398">
        <ele>599.4</ele>
        <time>2022-06-25T13:01:51Z</time>
      </trkpt>
      <trkpt lat="46.28457" lon="4.69398">
        <ele>599.6</ele>
        <time>2022-06-25T13:01:52Z</time>
      </trkpt>
      <trkpt lat="46.28456" lon="4.69397">
        <ele>599.6</ele>
        <time>2022-06-25T13:01:53Z</time>
      </trkpt>
      <trkpt lat="46.28454" lon="4.69397">
        <ele>600</ele>
        <time>2022-06-25T13:01:54Z</time>
      </trkpt>
      <trkpt lat="46.28452" lon="4.69397">
        <ele>600</ele>
        <time>2022-06-25T13:01:55Z</time>
      </trkpt>
      <trkpt lat="46.28451" lon="4.69396">
        <ele>600.2</ele>
        <time>2022-06-25T13:01:56Z</time>
      </trkpt>
      <trkpt lat="46.28449" lon="4.69396">
        <ele>600.4</ele>
        <time>2022-06-25T13:01:57Z</time>
      </trkpt>
      <trkpt lat="46.28447" lon="4.69395">
        <ele>600.4</ele>
        <time>2022-06-25T13:01:58Z</time>
      </trkpt>
      <trkpt lat="46.28446" lon="4.69395">
        <ele>600.8</ele>
        <time>2022-06-25T13:01:59Z</time>
      </trkpt>
      <trkpt lat="46.28445" lon="4.69394">
        <ele>600.8</ele>
        <time>2022-06-25T13:02:00Z</time>
      </trkpt>
      <trkpt lat="46.28442" lon="4.69393">
        <ele>601.2</ele>
        <time>2022-06-25T13:02:01Z</time>
      </trkpt>
      <trkpt lat="46.2844" lon="4.69392">
        <ele>601.4</ele>
        <time>2022-06-25T13:02:02Z</time>
      </trkpt>
      <trkpt lat="46.28438" lon="4.69391">
        <ele>601.4</ele>
        <time>2022-06-25T13:02:03Z</time>
      </trkpt>
      <trkpt lat="46.28435" lon="4.6939">
        <ele>601.6</ele>
        <time>2022-06-25T13:02:04Z</time>
      </trkpt>
      <trkpt lat="46.28432" lon="4.69389">
        <ele>601.6</ele>
        <time>2022-06-25T13:02:05Z</time>
      </trkpt>
      <trkpt lat="46.28429" lon="4.69387">
        <ele>601.8</ele>
        <time>2022-06-25T13:02:06Z</time>
      </trkpt>
      <trkpt lat="46.28427" lon="4.69386">
        <ele>602</ele>
        <time>2022-06-25T13:02:07Z</time>
      </trkpt>
      <trkpt lat="46.28424" lon="4.69384">
        <ele>602</ele>
        <time>2022-06-25T13:02:08Z</time>
      </trkpt>
      <trkpt lat="46.28422" lon="4.69383">
        <ele>602.4</ele>
        <time>2022-06-25T13:02:09Z</time>
      </trkpt>
      <trkpt lat="46.28419" lon="4.69382">
        <ele>602.4</ele>
        <time>2022-06-25T13:02:10Z</time>
      </trkpt>
      <trkpt lat="46.28417" lon="4.69381">
        <ele>602.8</ele>
        <time>2022-06-25T13:02:11Z</time>
      </trkpt>
      <trkpt lat="46.28414" lon="4.69379">
        <ele>602.8</ele>
        <time>2022-06-25T13:02:12Z</time>
      </trkpt>
      <trkpt lat="46.28412" lon="4.69378">
        <ele>603</ele>
        <time>2022-06-25T13:02:13Z</time>
      </trkpt>
      <trkpt lat="46.28409" lon="4.69376">
        <ele>603</ele>
        <time>2022-06-25T13:02:14Z</time>
      </trkpt>
      <trkpt lat="46.28407" lon="4.69374">
        <ele>603.4</ele>
        <time>2022-06-25T13:02:15Z</time>
      </trkpt>
      <trkpt lat="46.28405" lon="4.69372">
        <ele>603.4</ele>
        <time>2022-06-25T13:02:16Z</time>
      </trkpt>
      <trkpt lat="46.28403" lon="4.6937">
        <ele>603.6</ele>
        <time>2022-06-25T13:02:17Z</time>
      </trkpt>
      <trkpt lat="46.284" lon="4.69367">
        <ele>603.6</ele>
        <time>2022-06-25T13:02:18Z</time>
      </trkpt>
      <trkpt lat="46.28398" lon="4.69365">
        <ele>604</ele>
        <time>2022-06-25T13:02:19Z</time>
      </trkpt>
      <trkpt lat="46.28396" lon="4.69363">
        <ele>604</ele>
        <time>2022-06-25T13:02:20Z</time>
      </trkpt>
      <trkpt lat="46.28395" lon="4.69361">
        <ele>604.2</ele>
        <time>2022-06-25T13:02:21Z</time>
      </trkpt>
      <trkpt lat="46.28392" lon="4.69359">
        <ele>604.2</ele>
        <time>2022-06-25T13:02:22Z</time>
      </trkpt>
      <trkpt lat="46.2839" lon="4.69358">
        <ele>604.6</ele>
        <time>2022-06-25T13:02:23Z</time>
      </trkpt>
      <trkpt lat="46.28388" lon="4.69356">
        <ele>604.6</ele>
        <time>2022-06-25T13:02:24Z</time>
      </trkpt>
      <trkpt lat="46.28386" lon="4.69354">
        <ele>604.8</ele>
        <time>2022-06-25T13:02:25Z</time>
      </trkpt>
      <trkpt lat="46.28384" lon="4.69352">
        <ele>604.8</ele>
        <time>2022-06-25T13:02:26Z</time>
      </trkpt>
      <trkpt lat="46.28382" lon="4.6935">
        <ele>605.2</ele>
        <time>2022-06-25T13:02:27Z</time>
      </trkpt>
      <trkpt lat="46.2838" lon="4.69348">
        <ele>605.2</ele>
        <time>2022-06-25T13:02:28Z</time>
      </trkpt>
      <trkpt lat="46.28379" lon="4.69346">
        <ele>605.2</ele>
        <time>2022-06-25T13:02:29Z</time>
      </trkpt>
      <trkpt lat="46.28377" lon="4.69344">
        <ele>605.6</ele>
        <time>2022-06-25T13:02:30Z</time>
      </trkpt>
      <trkpt lat="46.28375" lon="4.69342">
        <ele>605.6</ele>
        <time>2022-06-25T13:02:31Z</time>
      </trkpt>
      <trkpt lat="46.28373" lon="4.69341">
        <ele>605.8</ele>
        <time>2022-06-25T13:02:32Z</time>
      </trkpt>
      <trkpt lat="46.28371" lon="4.69339">
        <ele>605.8</ele>
        <time>2022-06-25T13:02:33Z</time>
      </trkpt>
      <trkpt lat="46.2837" lon="4.69337">
        <ele>606.2</ele>
        <time>2022-06-25T13:02:34Z</time>
      </trkpt>
      <trkpt lat="46.28368" lon="4.69334">
        <ele>606.2</ele>
        <time>2022-06-25T13:02:35Z</time>
      </trkpt>
      <trkpt lat="46.28367" lon="4.69332">
        <ele>606.2</ele>
        <time>2022-06-25T13:02:36Z</time>
      </trkpt>
      <trkpt lat="46.28365" lon="4.69329">
        <ele>606.4</ele>
        <time>2022-06-25T13:02:37Z</time>
      </trkpt>
      <trkpt lat="46.28364" lon="4.69327">
        <ele>606.4</ele>
        <time>2022-06-25T13:02:38Z</time>
      </trkpt>
      <trkpt lat="46.28363" lon="4.69324">
        <ele>606.6</ele>
        <time>2022-06-25T13:02:39Z</time>
      </trkpt>
      <trkpt lat="46.28362" lon="4.69321">
        <ele>606.6</ele>
        <time>2022-06-25T13:02:40Z</time>
      </trkpt>
      <trkpt lat="46.2836" lon="4.69319">
        <ele>607</ele>
        <time>2022-06-25T13:02:41Z</time>
      </trkpt>
      <trkpt lat="46.28359" lon="4.69316">
        <ele>607</ele>
        <time>2022-06-25T13:02:42Z</time>
      </trkpt>
      <trkpt lat="46.28358" lon="4.69313">
        <ele>607.4</ele>
        <time>2022-06-25T13:02:43Z</time>
      </trkpt>
      <trkpt lat="46.28357" lon="4.6931">
        <ele>607.4</ele>
        <time>2022-06-25T13:02:44Z</time>
      </trkpt>
      <trkpt lat="46.28356" lon="4.69308">
        <ele>607.8</ele>
        <time>2022-06-25T13:02:45Z</time>
      </trkpt>
      <trkpt lat="46.28355" lon="4.69305">
        <ele>607.8</ele>
        <time>2022-06-25T13:02:46Z</time>
      </trkpt>
      <trkpt lat="46.28354" lon="4.69303">
        <ele>608</ele>
        <time>2022-06-25T13:02:47Z</time>
      </trkpt>
      <trkpt lat="46.28353" lon="4.693">
        <ele>608</ele>
        <time>2022-06-25T13:02:48Z</time>
      </trkpt>
      <trkpt lat="46.28353" lon="4.69297">
        <ele>608</ele>
        <time>2022-06-25T13:02:49Z</time>
      </trkpt>
      <trkpt lat="46.28352" lon="4.69294">
        <ele>608.4</ele>
        <time>2022-06-25T13:02:50Z</time>
      </trkpt>
      <trkpt lat="46.28351" lon="4.69292">
        <ele>608.4</ele>
        <time>2022-06-25T13:02:51Z</time>
      </trkpt>
      <trkpt lat="46.2835" lon="4.69289">
        <ele>608.6</ele>
        <time>2022-06-25T13:02:52Z</time>
      </trkpt>
      <trkpt lat="46.2835" lon="4.69286">
        <ele>608.6</ele>
        <time>2022-06-25T13:02:53Z</time>
      </trkpt>
      <trkpt lat="46.28349" lon="4.69283">
        <ele>608.8</ele>
        <time>2022-06-25T13:02:54Z</time>
      </trkpt>
      <trkpt lat="46.28349" lon="4.6928">
        <ele>608.8</ele>
        <time>2022-06-25T13:02:55Z</time>
      </trkpt>
      <trkpt lat="46.28348" lon="4.69278">
        <ele>609.2</ele>
        <time>2022-06-25T13:02:56Z</time>
      </trkpt>
      <trkpt lat="46.28347" lon="4.69275">
        <ele>609.2</ele>
        <time>2022-06-25T13:02:57Z</time>
      </trkpt>
      <trkpt lat="46.28346" lon="4.69272">
        <ele>609.4</ele>
        <time>2022-06-25T13:02:58Z</time>
      </trkpt>
      <trkpt lat="46.28345" lon="4.6927">
        <ele>609.4</ele>
        <time>2022-06-25T13:02:59Z</time>
      </trkpt>
      <trkpt lat="46.28344" lon="4.69267">
        <ele>609.6</ele>
        <time>2022-06-25T13:03:00Z</time>
      </trkpt>
      <trkpt lat="46.28343" lon="4.69265">
        <ele>610</ele>
        <time>2022-06-25T13:03:01Z</time>
      </trkpt>
      <trkpt lat="46.28342" lon="4.69263">
        <ele>610</ele>
        <time>2022-06-25T13:03:02Z</time>
      </trkpt>
      <trkpt lat="46.28342" lon="4.6926">
        <ele>610.2</ele>
        <time>2022-06-25T13:03:03Z</time>
      </trkpt>
      <trkpt lat="46.28341" lon="4.69258">
        <ele>610.2</ele>
        <time>2022-06-25T13:03:04Z</time>
      </trkpt>
      <trkpt lat="46.28341" lon="4.69255">
        <ele>610.6</ele>
        <time>2022-06-25T13:03:05Z</time>
      </trkpt>
      <trkpt lat="46.28341" lon="4.69252">
        <ele>610.6</ele>
        <time>2022-06-25T13:03:06Z</time>
      </trkpt>
      <trkpt lat="46.28341" lon="4.69249">
        <ele>610.8</ele>
        <time>2022-06-25T13:03:07Z</time>
      </trkpt>
      <trkpt lat="46.2834" lon="4.69246">
        <ele>610.8</ele>
        <time>2022-06-25T13:03:08Z</time>
      </trkpt>
      <trkpt lat="46.28339" lon="4.69244">
        <ele>611.2</ele>
        <time>2022-06-25T13:03:09Z</time>
      </trkpt>
      <trkpt lat="46.28338" lon="4.69241">
        <ele>611.4</ele>
        <time>2022-06-25T13:03:10Z</time>
      </trkpt>
      <trkpt lat="46.28337" lon="4.69239">
        <ele>611.4</ele>
        <time>2022-06-25T13:03:11Z</time>
      </trkpt>
      <trkpt lat="46.28337" lon="4.69236">
        <ele>611.8</ele>
        <time>2022-06-25T13:03:12Z</time>
      </trkpt>
      <trkpt lat="46.28336" lon="4.69234">
        <ele>612</ele>
        <time>2022-06-25T13:03:13Z</time>
      </trkpt>
      <trkpt lat="46.28336" lon="4.69231">
        <ele>612</ele>
        <time>2022-06-25T13:03:14Z</time>
      </trkpt>
      <trkpt lat="46.28336" lon="4.69228">
        <ele>612.4</ele>
        <time>2022-06-25T13:03:15Z</time>
      </trkpt>
      <trkpt lat="46.28335" lon="4.69225">
        <ele>612.4</ele>
        <time>2022-06-25T13:03:16Z</time>
      </trkpt>
      <trkpt lat="46.28335" lon="4.69222">
        <ele>612.6</ele>
        <time>2022-06-25T13:03:17Z</time>
      </trkpt>
      <trkpt lat="46.28335" lon="4.69219">
        <ele>612.6</ele>
        <time>2022-06-25T13:03:18Z</time>
      </trkpt>
      <trkpt lat="46.28335" lon="4.69216">
        <ele>613</ele>
        <time>2022-06-25T13:03:19Z</time>
      </trkpt>
      <trkpt lat="46.28335" lon="4.69213">
        <ele>613</ele>
        <time>2022-06-25T13:03:20Z</time>
      </trkpt>
      <trkpt lat="46.28335" lon="4.69209">
        <ele>613.2</ele>
        <time>2022-06-25T13:03:21Z</time>
      </trkpt>
      <trkpt lat="46.28335" lon="4.69206">
        <ele>613.2</ele>
        <time>2022-06-25T13:03:22Z</time>
      </trkpt>
      <trkpt lat="46.28335" lon="4.69203">
        <ele>613.4</ele>
        <time>2022-06-25T13:03:23Z</time>
      </trkpt>
      <trkpt lat="46.28335" lon="4.692">
        <ele>613.4</ele>
        <time>2022-06-25T13:03:24Z</time>
      </trkpt>
      <trkpt lat="46.28335" lon="4.69197">
        <ele>613.8</ele>
        <time>2022-06-25T13:03:25Z</time>
      </trkpt>
      <trkpt lat="46.28336" lon="4.69193">
        <ele>613.8</ele>
        <time>2022-06-25T13:03:26Z</time>
      </trkpt>
      <trkpt lat="46.28336" lon="4.6919">
        <ele>614.2</ele>
        <time>2022-06-25T13:03:27Z</time>
      </trkpt>
      <trkpt lat="46.28336" lon="4.69187">
        <ele>614.4</ele>
        <time>2022-06-25T13:03:28Z</time>
      </trkpt>
      <trkpt lat="46.28336" lon="4.69184">
        <ele>614.4</ele>
        <time>2022-06-25T13:03:29Z</time>
      </trkpt>
      <trkpt lat="46.28337" lon="4.69181">
        <ele>614.6</ele>
        <time>2022-06-25T13:03:30Z</time>
      </trkpt>
      <trkpt lat="46.28337" lon="4.69178">
        <ele>614.6</ele>
        <time>2022-06-25T13:03:31Z</time>
      </trkpt>
      <trkpt lat="46.28338" lon="4.69175">
        <ele>615</ele>
        <time>2022-06-25T13:03:32Z</time>
      </trkpt>
      <trkpt lat="46.28338" lon="4.69172">
        <ele>615</ele>
        <time>2022-06-25T13:03:33Z</time>
      </trkpt>
      <trkpt lat="46.28339" lon="4.69169">
        <ele>615.2</ele>
        <time>2022-06-25T13:03:34Z</time>
      </trkpt>
      <trkpt lat="46.28339" lon="4.69165">
        <ele>615.4</ele>
        <time>2022-06-25T13:03:35Z</time>
      </trkpt>
      <trkpt lat="46.2834" lon="4.69162">
        <ele>615.4</ele>
        <time>2022-06-25T13:03:36Z</time>
      </trkpt>
      <trkpt lat="46.2834" lon="4.69159">
        <ele>615.8</ele>
        <time>2022-06-25T13:03:37Z</time>
      </trkpt>
      <trkpt lat="46.28341" lon="4.69156">
        <ele>615.8</ele>
        <time>2022-06-25T13:03:38Z</time>
      </trkpt>
      <trkpt lat="46.28342" lon="4.69153">
        <ele>616</ele>
        <time>2022-06-25T13:03:39Z</time>
      </trkpt>
      <trkpt lat="46.28343" lon="4.6915">
        <ele>616</ele>
        <time>2022-06-25T13:03:40Z</time>
      </trkpt>
      <trkpt lat="46.28344" lon="4.69147">
        <ele>616.4</ele>
        <time>2022-06-25T13:03:41Z</time>
      </trkpt>
      <trkpt lat="46.28345" lon="4.69144">
        <ele>616.4</ele>
        <time>2022-06-25T13:03:42Z</time>
      </trkpt>
      <trkpt lat="46.28346" lon="4.69141">
        <ele>616.6</ele>
        <time>2022-06-25T13:03:43Z</time>
      </trkpt>
      <trkpt lat="46.28346" lon="4.69138">
        <ele>617</ele>
        <time>2022-06-25T13:03:44Z</time>
      </trkpt>
      <trkpt lat="46.28347" lon="4.69135">
        <ele>617</ele>
        <time>2022-06-25T13:03:45Z</time>
      </trkpt>
      <trkpt lat="46.28347" lon="4.69132">
        <ele>617.2</ele>
        <time>2022-06-25T13:03:46Z</time>
      </trkpt>
      <trkpt lat="46.28348" lon="4.69129">
        <ele>617.2</ele>
        <time>2022-06-25T13:03:47Z</time>
      </trkpt>
      <trkpt lat="46.28349" lon="4.69125">
        <ele>617.6</ele>
        <time>2022-06-25T13:03:48Z</time>
      </trkpt>
      <trkpt lat="46.2835" lon="4.69122">
        <ele>617.6</ele>
        <time>2022-06-25T13:03:49Z</time>
      </trkpt>
      <trkpt lat="46.28351" lon="4.69119">
        <ele>618</ele>
        <time>2022-06-25T13:03:50Z</time>
      </trkpt>
      <trkpt lat="46.28352" lon="4.69116">
        <ele>618</ele>
        <time>2022-06-25T13:03:51Z</time>
      </trkpt>
      <trkpt lat="46.28353" lon="4.69113">
        <ele>618.2</ele>
        <time>2022-06-25T13:03:52Z</time>
      </trkpt>
      <trkpt lat="46.28354" lon="4.6911">
        <ele>618.2</ele>
        <time>2022-06-25T13:03:53Z</time>
      </trkpt>
      <trkpt lat="46.28355" lon="4.69106">
        <ele>618.6</ele>
        <time>2022-06-25T13:03:54Z</time>
      </trkpt>
      <trkpt lat="46.28356" lon="4.69103">
        <ele>618.6</ele>
        <time>2022-06-25T13:03:55Z</time>
      </trkpt>
      <trkpt lat="46.28356" lon="4.691">
        <ele>619</ele>
        <time>2022-06-25T13:03:56Z</time>
      </trkpt>
      <trkpt lat="46.28357" lon="4.69096">
        <ele>619.2</ele>
        <time>2022-06-25T13:03:57Z</time>
      </trkpt>
      <trkpt lat="46.28358" lon="4.69093">
        <ele>619.4</ele>
        <time>2022-06-25T13:03:58Z</time>
      </trkpt>
      <trkpt lat="46.28358" lon="4.6909">
        <ele>619.6</ele>
        <time>2022-06-25T13:03:59Z</time>
      </trkpt>
      <trkpt lat="46.28359" lon="4.69087">
        <ele>619.6</ele>
        <time>2022-06-25T13:04:00Z</time>
      </trkpt>
      <trkpt lat="46.2836" lon="4.69084">
        <ele>619.8</ele>
        <time>2022-06-25T13:04:01Z</time>
      </trkpt>
      <trkpt lat="46.28361" lon="4.69081">
        <ele>619.8</ele>
        <time>2022-06-25T13:04:02Z</time>
      </trkpt>
      <trkpt lat="46.28362" lon="4.69078">
        <ele>620</ele>
        <time>2022-06-25T13:04:03Z</time>
      </trkpt>
      <trkpt lat="46.28363" lon="4.69075">
        <ele>620</ele>
        <time>2022-06-25T13:04:04Z</time>
      </trkpt>
      <trkpt lat="46.28363" lon="4.69072">
        <ele>620.4</ele>
        <time>2022-06-25T13:04:05Z</time>
      </trkpt>
      <trkpt lat="46.28364" lon="4.69068">
        <ele>620.4</ele>
        <time>2022-06-25T13:04:06Z</time>
      </trkpt>
      <trkpt lat="46.28364" lon="4.69065">
        <ele>620.8</ele>
        <time>2022-06-25T13:04:07Z</time>
      </trkpt>
      <trkpt lat="46.28365" lon="4.69062">
        <ele>621</ele>
        <time>2022-06-25T13:04:08Z</time>
      </trkpt>
      <trkpt lat="46.28366" lon="4.69059">
        <ele>621.2</ele>
        <time>2022-06-25T13:04:09Z</time>
      </trkpt>
      <trkpt lat="46.28367" lon="4.69055">
        <ele>621.2</ele>
        <time>2022-06-25T13:04:10Z</time>
      </trkpt>
      <trkpt lat="46.28368" lon="4.69052">
        <ele>621.6</ele>
        <time>2022-06-25T13:04:11Z</time>
      </trkpt>
      <trkpt lat="46.28368" lon="4.69049">
        <ele>621.8</ele>
        <time>2022-06-25T13:04:12Z</time>
      </trkpt>
      <trkpt lat="46.28369" lon="4.69046">
        <ele>621.8</ele>
        <time>2022-06-25T13:04:13Z</time>
      </trkpt>
      <trkpt lat="46.2837" lon="4.69042">
        <ele>622.2</ele>
        <time>2022-06-25T13:04:14Z</time>
      </trkpt>
      <trkpt lat="46.28371" lon="4.69039">
        <ele>622.2</ele>
        <time>2022-06-25T13:04:15Z</time>
      </trkpt>
      <trkpt lat="46.28372" lon="4.69036">
        <ele>622.6</ele>
        <time>2022-06-25T13:04:16Z</time>
      </trkpt>
      <trkpt lat="46.28372" lon="4.69032">
        <ele>622.6</ele>
        <time>2022-06-25T13:04:17Z</time>
      </trkpt>
      <trkpt lat="46.28373" lon="4.69029">
        <ele>622.8</ele>
        <time>2022-06-25T13:04:18Z</time>
      </trkpt>
      <trkpt lat="46.28374" lon="4.69026">
        <ele>623</ele>
        <time>2022-06-25T13:04:19Z</time>
      </trkpt>
      <trkpt lat="46.28374" lon="4.69022">
        <ele>623</ele>
        <time>2022-06-25T13:04:20Z</time>
      </trkpt>
      <trkpt lat="46.28375" lon="4.69019">
        <ele>623.2</ele>
        <time>2022-06-25T13:04:21Z</time>
      </trkpt>
      <trkpt lat="46.28376" lon="4.69016">
        <ele>623.2</ele>
        <time>2022-06-25T13:04:22Z</time>
      </trkpt>
      <trkpt lat="46.28377" lon="4.69013">
        <ele>623.6</ele>
        <time>2022-06-25T13:04:23Z</time>
      </trkpt>
      <trkpt lat="46.28378" lon="4.6901">
        <ele>623.8</ele>
        <time>2022-06-25T13:04:24Z</time>
      </trkpt>
      <trkpt lat="46.28378" lon="4.69006">
        <ele>624</ele>
        <time>2022-06-25T13:04:25Z</time>
      </trkpt>
      <trkpt lat="46.28379" lon="4.69003">
        <ele>624</ele>
        <time>2022-06-25T13:04:26Z</time>
      </trkpt>
      <trkpt lat="46.28379" lon="4.69">
        <ele>624.4</ele>
        <time>2022-06-25T13:04:27Z</time>
      </trkpt>
      <trkpt lat="46.2838" lon="4.68997">
        <ele>624.4</ele>
        <time>2022-06-25T13:04:28Z</time>
      </trkpt>
      <trkpt lat="46.28381" lon="4.68994">
        <ele>624.8</ele>
        <time>2022-06-25T13:04:29Z</time>
      </trkpt>
      <trkpt lat="46.28381" lon="4.68991">
        <ele>624.8</ele>
        <time>2022-06-25T13:04:30Z</time>
      </trkpt>
      <trkpt lat="46.28382" lon="4.68987">
        <ele>625</ele>
        <time>2022-06-25T13:04:31Z</time>
      </trkpt>
      <trkpt lat="46.28382" lon="4.68984">
        <ele>625</ele>
        <time>2022-06-25T13:04:32Z</time>
      </trkpt>
      <trkpt lat="46.28383" lon="4.68981">
        <ele>625.4</ele>
        <time>2022-06-25T13:04:33Z</time>
      </trkpt>
      <trkpt lat="46.28383" lon="4.68978">
        <ele>625.4</ele>
        <time>2022-06-25T13:04:34Z</time>
      </trkpt>
      <trkpt lat="46.28383" lon="4.68974">
        <ele>625.8</ele>
        <time>2022-06-25T13:04:35Z</time>
      </trkpt>
      <trkpt lat="46.28384" lon="4.68971">
        <ele>626</ele>
        <time>2022-06-25T13:04:36Z</time>
      </trkpt>
      <trkpt lat="46.28384" lon="4.68968">
        <ele>626</ele>
        <time>2022-06-25T13:04:37Z</time>
      </trkpt>
      <trkpt lat="46.28383" lon="4.68964">
        <ele>626.2</ele>
        <time>2022-06-25T13:04:38Z</time>
      </trkpt>
      <trkpt lat="46.28383" lon="4.68961">
        <ele>626.2</ele>
        <time>2022-06-25T13:04:39Z</time>
      </trkpt>
      <trkpt lat="46.28383" lon="4.68958">
        <ele>626.6</ele>
        <time>2022-06-25T13:04:40Z</time>
      </trkpt>
      <trkpt lat="46.28383" lon="4.68955">
        <ele>626.8</ele>
        <time>2022-06-25T13:04:41Z</time>
      </trkpt>
      <trkpt lat="46.28383" lon="4.68952">
        <ele>627.2</ele>
        <time>2022-06-25T13:04:42Z</time>
      </trkpt>
      <trkpt lat="46.28383" lon="4.6895">
        <ele>627.4</ele>
        <time>2022-06-25T13:04:43Z</time>
      </trkpt>
      <trkpt lat="46.28382" lon="4.68947">
        <ele>627.4</ele>
        <time>2022-06-25T13:04:44Z</time>
      </trkpt>
      <trkpt lat="46.28382" lon="4.68944">
        <ele>627.6</ele>
        <time>2022-06-25T13:04:45Z</time>
      </trkpt>
      <trkpt lat="46.28382" lon="4.68941">
        <ele>627.6</ele>
        <time>2022-06-25T13:04:46Z</time>
      </trkpt>
      <trkpt lat="46.28381" lon="4.68939">
        <ele>628</ele>
        <time>2022-06-25T13:04:47Z</time>
      </trkpt>
      <trkpt lat="46.28381" lon="4.68936">
        <ele>628</ele>
        <time>2022-06-25T13:04:48Z</time>
      </trkpt>
      <trkpt lat="46.2838" lon="4.68933">
        <ele>628.4</ele>
        <time>2022-06-25T13:04:49Z</time>
      </trkpt>
      <trkpt lat="46.2838" lon="4.6893">
        <ele>628.4</ele>
        <time>2022-06-25T13:04:50Z</time>
      </trkpt>
      <trkpt lat="46.28379" lon="4.68927">
        <ele>628.8</ele>
        <time>2022-06-25T13:04:51Z</time>
      </trkpt>
      <trkpt lat="46.28379" lon="4.68924">
        <ele>628.8</ele>
        <time>2022-06-25T13:04:52Z</time>
      </trkpt>
      <trkpt lat="46.28378" lon="4.68921">
        <ele>629</ele>
        <time>2022-06-25T13:04:53Z</time>
      </trkpt>
      <trkpt lat="46.28377" lon="4.68918">
        <ele>629</ele>
        <time>2022-06-25T13:04:54Z</time>
      </trkpt>
      <trkpt lat="46.28376" lon="4.68915">
        <ele>629.4</ele>
        <time>2022-06-25T13:04:55Z</time>
      </trkpt>
      <trkpt lat="46.28376" lon="4.68912">
        <ele>629.4</ele>
        <time>2022-06-25T13:04:56Z</time>
      </trkpt>
      <trkpt lat="46.28375" lon="4.6891">
        <ele>629.8</ele>
        <time>2022-06-25T13:04:57Z</time>
      </trkpt>
      <trkpt lat="46.28374" lon="4.68907">
        <ele>629.8</ele>
        <time>2022-06-25T13:04:58Z</time>
      </trkpt>
      <trkpt lat="46.28373" lon="4.68904">
        <ele>630</ele>
        <time>2022-06-25T13:04:59Z</time>
      </trkpt>
      <trkpt lat="46.28372" lon="4.68901">
        <ele>630</ele>
        <time>2022-06-25T13:05:00Z</time>
      </trkpt>
      <trkpt lat="46.28372" lon="4.68898">
        <ele>630.4</ele>
        <time>2022-06-25T13:05:01Z</time>
      </trkpt>
      <trkpt lat="46.28371" lon="4.68895">
        <ele>630.4</ele>
        <time>2022-06-25T13:05:02Z</time>
      </trkpt>
      <trkpt lat="46.2837" lon="4.68892">
        <ele>630.6</ele>
        <time>2022-06-25T13:05:03Z</time>
      </trkpt>
      <trkpt lat="46.28369" lon="4.68889">
        <ele>630.6</ele>
        <time>2022-06-25T13:05:04Z</time>
      </trkpt>
      <trkpt lat="46.28367" lon="4.68886">
        <ele>630.8</ele>
        <time>2022-06-25T13:05:05Z</time>
      </trkpt>
      <trkpt lat="46.28366" lon="4.68883">
        <ele>630.8</ele>
        <time>2022-06-25T13:05:06Z</time>
      </trkpt>
      <trkpt lat="46.28364" lon="4.68881">
        <ele>631.2</ele>
        <time>2022-06-25T13:05:07Z</time>
      </trkpt>
      <trkpt lat="46.28363" lon="4.68878">
        <ele>631.2</ele>
        <time>2022-06-25T13:05:08Z</time>
      </trkpt>
      <trkpt lat="46.28361" lon="4.68875">
        <ele>631.4</ele>
        <time>2022-06-25T13:05:09Z</time>
      </trkpt>
      <trkpt lat="46.2836" lon="4.68872">
        <ele>631.4</ele>
        <time>2022-06-25T13:05:10Z</time>
      </trkpt>
      <trkpt lat="46.28359" lon="4.6887">
        <ele>631.6</ele>
        <time>2022-06-25T13:05:11Z</time>
      </trkpt>
      <trkpt lat="46.28357" lon="4.68867">
        <ele>631.6</ele>
        <time>2022-06-25T13:05:12Z</time>
      </trkpt>
      <trkpt lat="46.28356" lon="4.68864">
        <ele>632</ele>
        <time>2022-06-25T13:05:13Z</time>
      </trkpt>
      <trkpt lat="46.28355" lon="4.68862">
        <ele>632</ele>
        <time>2022-06-25T13:05:14Z</time>
      </trkpt>
      <trkpt lat="46.28354" lon="4.6886">
        <ele>632.4</ele>
        <time>2022-06-25T13:05:15Z</time>
      </trkpt>
      <trkpt lat="46.28353" lon="4.68858">
        <ele>632.4</ele>
        <time>2022-06-25T13:05:16Z</time>
      </trkpt>
      <trkpt lat="46.28352" lon="4.68856">
        <ele>632.8</ele>
        <time>2022-06-25T13:05:17Z</time>
      </trkpt>
      <trkpt lat="46.28351" lon="4.68854">
        <ele>632.8</ele>
        <time>2022-06-25T13:05:18Z</time>
      </trkpt>
      <trkpt lat="46.2835" lon="4.68852">
        <ele>633</ele>
        <time>2022-06-25T13:05:19Z</time>
      </trkpt>
      <trkpt lat="46.28349" lon="4.6885">
        <ele>633.2</ele>
        <time>2022-06-25T13:05:20Z</time>
      </trkpt>
      <trkpt lat="46.28348" lon="4.68848">
        <ele>633.2</ele>
        <time>2022-06-25T13:05:21Z</time>
      </trkpt>
      <trkpt lat="46.28347" lon="4.68846">
        <ele>633.6</ele>
        <time>2022-06-25T13:05:22Z</time>
      </trkpt>
      <trkpt lat="46.28346" lon="4.68844">
        <ele>633.6</ele>
        <time>2022-06-25T13:05:23Z</time>
      </trkpt>
      <trkpt lat="46.28345" lon="4.68843">
        <ele>633.8</ele>
        <time>2022-06-25T13:05:24Z</time>
      </trkpt>
      <trkpt lat="46.28344" lon="4.68841">
        <ele>633.8</ele>
        <time>2022-06-25T13:05:25Z</time>
      </trkpt>
      <trkpt lat="46.28343" lon="4.68839">
        <ele>634.2</ele>
        <time>2022-06-25T13:05:26Z</time>
      </trkpt>
      <trkpt lat="46.28342" lon="4.68838">
        <ele>634.2</ele>
        <time>2022-06-25T13:05:27Z</time>
      </trkpt>
      <trkpt lat="46.28341" lon="4.68836">
        <ele>634.2</ele>
        <time>2022-06-25T13:05:28Z</time>
      </trkpt>
      <trkpt lat="46.2834" lon="4.68834">
        <ele>634.6</ele>
        <time>2022-06-25T13:05:29Z</time>
      </trkpt>
      <trkpt lat="46.28339" lon="4.68833">
        <ele>634.6</ele>
        <time>2022-06-25T13:05:30Z</time>
      </trkpt>
      <trkpt lat="46.28338" lon="4.68831">
        <ele>634.8</ele>
        <time>2022-06-25T13:05:31Z</time>
      </trkpt>
      <trkpt lat="46.28337" lon="4.6883">
        <ele>634.8</ele>
        <time>2022-06-25T13:05:32Z</time>
      </trkpt>
      <trkpt lat="46.28336" lon="4.68828">
        <ele>635.2</ele>
        <time>2022-06-25T13:05:33Z</time>
      </trkpt>
      <trkpt lat="46.28335" lon="4.68826">
        <ele>635.2</ele>
        <time>2022-06-25T13:05:34Z</time>
      </trkpt>
      <trkpt lat="46.28334" lon="4.68824">
        <ele>635.6</ele>
        <time>2022-06-25T13:05:35Z</time>
      </trkpt>
      <trkpt lat="46.28333" lon="4.68822">
        <ele>635.8</ele>
        <time>2022-06-25T13:05:36Z</time>
      </trkpt>
      <trkpt lat="46.28332" lon="4.6882">
        <ele>635.8</ele>
        <time>2022-06-25T13:05:37Z</time>
      </trkpt>
      <trkpt lat="46.2833" lon="4.68818">
        <ele>636.2</ele>
        <time>2022-06-25T13:05:38Z</time>
      </trkpt>
      <trkpt lat="46.28328" lon="4.68815">
        <ele>636.4</ele>
        <time>2022-06-25T13:05:39Z</time>
      </trkpt>
      <trkpt lat="46.28326" lon="4.68812">
        <ele>636.4</ele>
        <time>2022-06-25T13:05:40Z</time>
      </trkpt>
      <trkpt lat="46.28324" lon="4.68809">
        <ele>636.6</ele>
        <time>2022-06-25T13:05:41Z</time>
      </trkpt>
      <trkpt lat="46.28322" lon="4.68808">
        <ele>636.6</ele>
        <time>2022-06-25T13:05:42Z</time>
      </trkpt>
      <trkpt lat="46.2832" lon="4.68805">
        <ele>637</ele>
        <time>2022-06-25T13:05:43Z</time>
      </trkpt>
      <trkpt lat="46.28319" lon="4.68804">
        <ele>637</ele>
        <time>2022-06-25T13:05:44Z</time>
      </trkpt>
      <trkpt lat="46.28318" lon="4.68803">
        <ele>637.2</ele>
        <time>2022-06-25T13:05:45Z</time>
      </trkpt>
      <trkpt lat="46.28317" lon="4.68801">
        <ele>637.2</ele>
        <time>2022-06-25T13:05:46Z</time>
      </trkpt>
      <trkpt lat="46.28316" lon="4.68799">
        <ele>637.6</ele>
        <time>2022-06-25T13:05:47Z</time>
      </trkpt>
      <trkpt lat="46.28315" lon="4.68798">
        <ele>637.6</ele>
        <time>2022-06-25T13:05:48Z</time>
      </trkpt>
      <trkpt lat="46.28314" lon="4.68796">
        <ele>637.8</ele>
        <time>2022-06-25T13:05:49Z</time>
      </trkpt>
      <trkpt lat="46.28312" lon="4.68793">
        <ele>637.8</ele>
        <time>2022-06-25T13:05:50Z</time>
      </trkpt>
      <trkpt lat="46.28311" lon="4.68792">
        <ele>638</ele>
        <time>2022-06-25T13:05:51Z</time>
      </trkpt>
      <trkpt lat="46.28309" lon="4.68789">
        <ele>638</ele>
        <time>2022-06-25T13:05:52Z</time>
      </trkpt>
      <trkpt lat="46.28308" lon="4.68787">
        <ele>638.4</ele>
        <time>2022-06-25T13:05:53Z</time>
      </trkpt>
      <trkpt lat="46.28306" lon="4.68785">
        <ele>638.6</ele>
        <time>2022-06-25T13:05:54Z</time>
      </trkpt>
      <trkpt lat="46.28304" lon="4.68783">
        <ele>638.6</ele>
        <time>2022-06-25T13:05:55Z</time>
      </trkpt>
      <trkpt lat="46.28303" lon="4.68781">
        <ele>638.8</ele>
        <time>2022-06-25T13:05:56Z</time>
      </trkpt>
      <trkpt lat="46.28301" lon="4.68779">
        <ele>639</ele>
        <time>2022-06-25T13:05:57Z</time>
      </trkpt>
      <trkpt lat="46.283" lon="4.68777">
        <ele>639</ele>
        <time>2022-06-25T13:05:58Z</time>
      </trkpt>
      <trkpt lat="46.28297" lon="4.68775">
        <ele>639.4</ele>
        <time>2022-06-25T13:05:59Z</time>
      </trkpt>
      <trkpt lat="46.28294" lon="4.68773">
        <ele>639.6</ele>
        <time>2022-06-25T13:06:00Z</time>
      </trkpt>
      <trkpt lat="46.28292" lon="4.68771">
        <ele>639.6</ele>
        <time>2022-06-25T13:06:01Z</time>
      </trkpt>
      <trkpt lat="46.2829" lon="4.68768">
        <ele>640</ele>
        <time>2022-06-25T13:06:02Z</time>
      </trkpt>
      <trkpt lat="46.28287" lon="4.68766">
        <ele>640</ele>
        <time>2022-06-25T13:06:03Z</time>
      </trkpt>
      <trkpt lat="46.28286" lon="4.68764">
        <ele>640.2</ele>
        <time>2022-06-25T13:06:04Z</time>
      </trkpt>
      <trkpt lat="46.28284" lon="4.68762">
        <ele>640.2</ele>
        <time>2022-06-25T13:06:05Z</time>
      </trkpt>
      <trkpt lat="46.28282" lon="4.6876">
        <ele>640.4</ele>
        <time>2022-06-25T13:06:06Z</time>
      </trkpt>
      <trkpt lat="46.2828" lon="4.68758">
        <ele>640.4</ele>
        <time>2022-06-25T13:06:07Z</time>
      </trkpt>
      <trkpt lat="46.28278" lon="4.68756">
        <ele>640.8</ele>
        <time>2022-06-25T13:06:08Z</time>
      </trkpt>
      <trkpt lat="46.28277" lon="4.68754">
        <ele>640.8</ele>
        <time>2022-06-25T13:06:09Z</time>
      </trkpt>
      <trkpt lat="46.28275" lon="4.68752">
        <ele>640.8</ele>
        <time>2022-06-25T13:06:10Z</time>
      </trkpt>
      <trkpt lat="46.28273" lon="4.6875">
        <ele>641.2</ele>
        <time>2022-06-25T13:06:11Z</time>
      </trkpt>
      <trkpt lat="46.28272" lon="4.68747">
        <ele>641.2</ele>
        <time>2022-06-25T13:06:12Z</time>
      </trkpt>
      <trkpt lat="46.2827" lon="4.68745">
        <ele>641.4</ele>
        <time>2022-06-25T13:06:13Z</time>
      </trkpt>
      <trkpt lat="46.28268" lon="4.68743">
        <ele>641.4</ele>
        <time>2022-06-25T13:06:14Z</time>
      </trkpt>
      <trkpt lat="46.28267" lon="4.68742">
        <ele>641.8</ele>
        <time>2022-06-25T13:06:15Z</time>
      </trkpt>
      <trkpt lat="46.28265" lon="4.6874">
        <ele>641.8</ele>
        <time>2022-06-25T13:06:16Z</time>
      </trkpt>
      <trkpt lat="46.28263" lon="4.68737">
        <ele>642</ele>
        <time>2022-06-25T13:06:17Z</time>
      </trkpt>
      <trkpt lat="46.28261" lon="4.68736">
        <ele>642</ele>
        <time>2022-06-25T13:06:18Z</time>
      </trkpt>
      <trkpt lat="46.28259" lon="4.68733">
        <ele>642.4</ele>
        <time>2022-06-25T13:06:19Z</time>
      </trkpt>
      <trkpt lat="46.28258" lon="4.68731">
        <ele>642.4</ele>
        <time>2022-06-25T13:06:20Z</time>
      </trkpt>
      <trkpt lat="46.28256" lon="4.68729">
        <ele>642.8</ele>
        <time>2022-06-25T13:06:21Z</time>
      </trkpt>
      <trkpt lat="46.28255" lon="4.68727">
        <ele>642.8</ele>
        <time>2022-06-25T13:06:22Z</time>
      </trkpt>
      <trkpt lat="46.28253" lon="4.68725">
        <ele>643</ele>
        <time>2022-06-25T13:06:23Z</time>
      </trkpt>
      <trkpt lat="46.28251" lon="4.68723">
        <ele>643</ele>
        <time>2022-06-25T13:06:24Z</time>
      </trkpt>
      <trkpt lat="46.2825" lon="4.68721">
        <ele>643.4</ele>
        <time>2022-06-25T13:06:25Z</time>
      </trkpt>
      <trkpt lat="46.28248" lon="4.68719">
        <ele>643.4</ele>
        <time>2022-06-25T13:06:26Z</time>
      </trkpt>
      <trkpt lat="46.28247" lon="4.68717">
        <ele>643.4</ele>
        <time>2022-06-25T13:06:27Z</time>
      </trkpt>
      <trkpt lat="46.28246" lon="4.68716">
        <ele>643.6</ele>
        <time>2022-06-25T13:06:28Z</time>
      </trkpt>
      <trkpt lat="46.28244" lon="4.68713">
        <ele>643.6</ele>
        <time>2022-06-25T13:06:29Z</time>
      </trkpt>
      <trkpt lat="46.28243" lon="4.68711">
        <ele>643.8</ele>
        <time>2022-06-25T13:06:30Z</time>
      </trkpt>
      <trkpt lat="46.28242" lon="4.68709">
        <ele>643.8</ele>
        <time>2022-06-25T13:06:31Z</time>
      </trkpt>
      <trkpt lat="46.28241" lon="4.68707">
        <ele>644.2</ele>
        <time>2022-06-25T13:06:32Z</time>
      </trkpt>
      <trkpt lat="46.2824" lon="4.68705">
        <ele>644.2</ele>
        <time>2022-06-25T13:06:33Z</time>
      </trkpt>
      <trkpt lat="46.28239" lon="4.68703">
        <ele>644.4</ele>
        <time>2022-06-25T13:06:34Z</time>
      </trkpt>
      <trkpt lat="46.28238" lon="4.687">
        <ele>644.4</ele>
        <time>2022-06-25T13:06:35Z</time>
      </trkpt>
      <trkpt lat="46.28237" lon="4.68697">
        <ele>644.6</ele>
        <time>2022-06-25T13:06:36Z</time>
      </trkpt>
      <trkpt lat="46.28235" lon="4.68695">
        <ele>644.6</ele>
        <time>2022-06-25T13:06:37Z</time>
      </trkpt>
      <trkpt lat="46.28234" lon="4.68692">
        <ele>644.8</ele>
        <time>2022-06-25T13:06:38Z</time>
      </trkpt>
      <trkpt lat="46.28233" lon="4.68689">
        <ele>644.8</ele>
        <time>2022-06-25T13:06:39Z</time>
      </trkpt>
      <trkpt lat="46.28231" lon="4.68686">
        <ele>645</ele>
        <time>2022-06-25T13:06:40Z</time>
      </trkpt>
      <trkpt lat="46.2823" lon="4.68683">
        <ele>645</ele>
        <time>2022-06-25T13:06:41Z</time>
      </trkpt>
      <trkpt lat="46.28228" lon="4.6868">
        <ele>645.2</ele>
        <time>2022-06-25T13:06:42Z</time>
      </trkpt>
      <trkpt lat="46.28227" lon="4.68678">
        <ele>645.2</ele>
        <time>2022-06-25T13:06:43Z</time>
      </trkpt>
      <trkpt lat="46.28226" lon="4.68675">
        <ele>645.4</ele>
        <time>2022-06-25T13:06:44Z</time>
      </trkpt>
      <trkpt lat="46.28224" lon="4.68672">
        <ele>645.4</ele>
        <time>2022-06-25T13:06:45Z</time>
      </trkpt>
      <trkpt lat="46.28223" lon="4.68668">
        <ele>645.4</ele>
        <time>2022-06-25T13:06:46Z</time>
      </trkpt>
      <trkpt lat="46.28221" lon="4.68665">
        <ele>645.4</ele>
        <time>2022-06-25T13:06:47Z</time>
      </trkpt>
      <trkpt lat="46.2822" lon="4.68661">
        <ele>645.4</ele>
        <time>2022-06-25T13:06:48Z</time>
      </trkpt>
      <trkpt lat="46.28219" lon="4.68657">
        <ele>645.4</ele>
        <time>2022-06-25T13:06:49Z</time>
      </trkpt>
      <trkpt lat="46.28217" lon="4.68653">
        <ele>645.8</ele>
        <time>2022-06-25T13:06:50Z</time>
      </trkpt>
      <trkpt lat="46.28216" lon="4.6865">
        <ele>645.8</ele>
        <time>2022-06-25T13:06:51Z</time>
      </trkpt>
      <trkpt lat="46.28215" lon="4.68646">
        <ele>645.8</ele>
        <time>2022-06-25T13:06:52Z</time>
      </trkpt>
      <trkpt lat="46.28213" lon="4.68642">
        <ele>646</ele>
        <time>2022-06-25T13:06:53Z</time>
      </trkpt>
      <trkpt lat="46.28212" lon="4.68638">
        <ele>646</ele>
        <time>2022-06-25T13:06:54Z</time>
      </trkpt>
      <trkpt lat="46.28211" lon="4.68634">
        <ele>646</ele>
        <time>2022-06-25T13:06:55Z</time>
      </trkpt>
      <trkpt lat="46.2821" lon="4.6863">
        <ele>646.2</ele>
        <time>2022-06-25T13:06:56Z</time>
      </trkpt>
      <trkpt lat="46.28208" lon="4.68626">
        <ele>646.2</ele>
        <time>2022-06-25T13:06:57Z</time>
      </trkpt>
      <trkpt lat="46.28207" lon="4.68622">
        <ele>646.4</ele>
        <time>2022-06-25T13:06:58Z</time>
      </trkpt>
      <trkpt lat="46.28206" lon="4.68619">
        <ele>646.4</ele>
        <time>2022-06-25T13:06:59Z</time>
      </trkpt>
      <trkpt lat="46.28205" lon="4.68615">
        <ele>646.4</ele>
        <time>2022-06-25T13:07:00Z</time>
      </trkpt>
      <trkpt lat="46.28204" lon="4.68611">
        <ele>646.6</ele>
        <time>2022-06-25T13:07:01Z</time>
      </trkpt>
      <trkpt lat="46.28203" lon="4.68607">
        <ele>646.6</ele>
        <time>2022-06-25T13:07:02Z</time>
      </trkpt>
      <trkpt lat="46.28202" lon="4.68603">
        <ele>646.8</ele>
        <time>2022-06-25T13:07:03Z</time>
      </trkpt>
      <trkpt lat="46.28201" lon="4.68599">
        <ele>646.8</ele>
        <time>2022-06-25T13:07:04Z</time>
      </trkpt>
      <trkpt lat="46.282" lon="4.68595">
        <ele>646.8</ele>
        <time>2022-06-25T13:07:05Z</time>
      </trkpt>
      <trkpt lat="46.28199" lon="4.68591">
        <ele>647.2</ele>
        <time>2022-06-25T13:07:06Z</time>
      </trkpt>
      <trkpt lat="46.28198" lon="4.68587">
        <ele>647.2</ele>
        <time>2022-06-25T13:07:07Z</time>
      </trkpt>
      <trkpt lat="46.28197" lon="4.68583">
        <ele>647.4</ele>
        <time>2022-06-25T13:07:08Z</time>
      </trkpt>
      <trkpt lat="46.28197" lon="4.68579">
        <ele>647.4</ele>
        <time>2022-06-25T13:07:09Z</time>
      </trkpt>
      <trkpt lat="46.28196" lon="4.68575">
        <ele>647.6</ele>
        <time>2022-06-25T13:07:10Z</time>
      </trkpt>
      <trkpt lat="46.28194" lon="4.68572">
        <ele>647.6</ele>
        <time>2022-06-25T13:07:11Z</time>
      </trkpt>
      <trkpt lat="46.28193" lon="4.68568">
        <ele>647.8</ele>
        <time>2022-06-25T13:07:12Z</time>
      </trkpt>
      <trkpt lat="46.28192" lon="4.68564">
        <ele>647.8</ele>
        <time>2022-06-25T13:07:13Z</time>
      </trkpt>
      <trkpt lat="46.2819" lon="4.6856">
        <ele>648</ele>
        <time>2022-06-25T13:07:14Z</time>
      </trkpt>
      <trkpt lat="46.28189" lon="4.68557">
        <ele>648</ele>
        <time>2022-06-25T13:07:15Z</time>
      </trkpt>
      <trkpt lat="46.28188" lon="4.68553">
        <ele>648</ele>
        <time>2022-06-25T13:07:16Z</time>
      </trkpt>
      <trkpt lat="46.28186" lon="4.68549">
        <ele>648.2</ele>
        <time>2022-06-25T13:07:17Z</time>
      </trkpt>
      <trkpt lat="46.28185" lon="4.68545">
        <ele>648.2</ele>
        <time>2022-06-25T13:07:18Z</time>
      </trkpt>
      <trkpt lat="46.28184" lon="4.68541">
        <ele>648.4</ele>
        <time>2022-06-25T13:07:19Z</time>
      </trkpt>
      <trkpt lat="46.28182" lon="4.68538">
        <ele>648.4</ele>
        <time>2022-06-25T13:07:20Z</time>
      </trkpt>
      <trkpt lat="46.28181" lon="4.68534">
        <ele>648.8</ele>
        <time>2022-06-25T13:07:21Z</time>
      </trkpt>
      <trkpt lat="46.28179" lon="4.68531">
        <ele>648.8</ele>
        <time>2022-06-25T13:07:22Z</time>
      </trkpt>
      <trkpt lat="46.28177" lon="4.68527">
        <ele>648.8</ele>
        <time>2022-06-25T13:07:23Z</time>
      </trkpt>
      <trkpt lat="46.28175" lon="4.68524">
        <ele>649</ele>
        <time>2022-06-25T13:07:24Z</time>
      </trkpt>
      <trkpt lat="46.28174" lon="4.68521">
        <ele>649</ele>
        <time>2022-06-25T13:07:25Z</time>
      </trkpt>
      <trkpt lat="46.28172" lon="4.68518">
        <ele>649.2</ele>
        <time>2022-06-25T13:07:26Z</time>
      </trkpt>
      <trkpt lat="46.2817" lon="4.68515">
        <ele>649.2</ele>
        <time>2022-06-25T13:07:27Z</time>
      </trkpt>
      <trkpt lat="46.28168" lon="4.68513">
        <ele>649.4</ele>
        <time>2022-06-25T13:07:28Z</time>
      </trkpt>
      <trkpt lat="46.28166" lon="4.6851">
        <ele>649.4</ele>
        <time>2022-06-25T13:07:29Z</time>
      </trkpt>
      <trkpt lat="46.28164" lon="4.68507">
        <ele>649.6</ele>
        <time>2022-06-25T13:07:30Z</time>
      </trkpt>
      <trkpt lat="46.28163" lon="4.68504">
        <ele>649.6</ele>
        <time>2022-06-25T13:07:31Z</time>
      </trkpt>
      <trkpt lat="46.28162" lon="4.68502">
        <ele>650</ele>
        <time>2022-06-25T13:07:32Z</time>
      </trkpt>
      <trkpt lat="46.28161" lon="4.685">
        <ele>650</ele>
        <time>2022-06-25T13:07:33Z</time>
      </trkpt>
      <trkpt lat="46.2816" lon="4.68498">
        <ele>650.2</ele>
        <time>2022-06-25T13:07:34Z</time>
      </trkpt>
      <trkpt lat="46.28159" lon="4.68496">
        <ele>650.4</ele>
        <time>2022-06-25T13:07:35Z</time>
      </trkpt>
      <trkpt lat="46.28158" lon="4.68494">
        <ele>650.4</ele>
        <time>2022-06-25T13:07:36Z</time>
      </trkpt>
      <trkpt lat="46.28158" lon="4.68492">
        <ele>650.4</ele>
        <time>2022-06-25T13:07:37Z</time>
      </trkpt>
      <trkpt lat="46.28157" lon="4.6849">
        <ele>650.8</ele>
        <time>2022-06-25T13:07:38Z</time>
      </trkpt>
      <trkpt lat="46.28155" lon="4.68487">
        <ele>650.8</ele>
        <time>2022-06-25T13:07:39Z</time>
      </trkpt>
      <trkpt lat="46.28154" lon="4.68486">
        <ele>651</ele>
        <time>2022-06-25T13:07:40Z</time>
      </trkpt>
      <trkpt lat="46.28153" lon="4.68484">
        <ele>651</ele>
        <time>2022-06-25T13:07:41Z</time>
      </trkpt>
      <trkpt lat="46.28151" lon="4.68482">
        <ele>651.4</ele>
        <time>2022-06-25T13:07:42Z</time>
      </trkpt>
      <trkpt lat="46.28149" lon="4.6848">
        <ele>651.4</ele>
        <time>2022-06-25T13:07:43Z</time>
      </trkpt>
      <trkpt lat="46.28147" lon="4.68478">
        <ele>651.8</ele>
        <time>2022-06-25T13:07:44Z</time>
      </trkpt>
      <trkpt lat="46.28146" lon="4.68476">
        <ele>651.8</ele>
        <time>2022-06-25T13:07:45Z</time>
      </trkpt>
      <trkpt lat="46.28144" lon="4.68474">
        <ele>652.2</ele>
        <time>2022-06-25T13:07:46Z</time>
      </trkpt>
      <trkpt lat="46.28143" lon="4.68472">
        <ele>652.4</ele>
        <time>2022-06-25T13:07:47Z</time>
      </trkpt>
      <trkpt lat="46.28142" lon="4.68471">
        <ele>652.4</ele>
        <time>2022-06-25T13:07:48Z</time>
      </trkpt>
      <trkpt lat="46.2814" lon="4.68469">
        <ele>652.6</ele>
        <time>2022-06-25T13:07:49Z</time>
      </trkpt>
      <trkpt lat="46.28137" lon="4.68467">
        <ele>653</ele>
        <time>2022-06-25T13:07:50Z</time>
      </trkpt>
      <trkpt lat="46.28136" lon="4.68464">
        <ele>653</ele>
        <time>2022-06-25T13:07:51Z</time>
      </trkpt>
      <trkpt lat="46.28134" lon="4.68461">
        <ele>653.2</ele>
        <time>2022-06-25T13:07:52Z</time>
      </trkpt>
      <trkpt lat="46.28132" lon="4.68459">
        <ele>653.4</ele>
        <time>2022-06-25T13:07:53Z</time>
      </trkpt>
      <trkpt lat="46.28129" lon="4.68457">
        <ele>653.4</ele>
        <time>2022-06-25T13:07:54Z</time>
      </trkpt>
      <trkpt lat="46.28127" lon="4.68455">
        <ele>653.8</ele>
        <time>2022-06-25T13:07:55Z</time>
      </trkpt>
      <trkpt lat="46.28125" lon="4.68452">
        <ele>653.8</ele>
        <time>2022-06-25T13:07:56Z</time>
      </trkpt>
      <trkpt lat="46.28123" lon="4.6845">
        <ele>654</ele>
        <time>2022-06-25T13:07:57Z</time>
      </trkpt>
      <trkpt lat="46.2812" lon="4.68449">
        <ele>654</ele>
        <time>2022-06-25T13:07:58Z</time>
      </trkpt>
      <trkpt lat="46.28118" lon="4.68447">
        <ele>654.2</ele>
        <time>2022-06-25T13:07:59Z</time>
      </trkpt>
      <trkpt lat="46.28116" lon="4.68446">
        <ele>654.2</ele>
        <time>2022-06-25T13:08:00Z</time>
      </trkpt>
      <trkpt lat="46.28114" lon="4.68444">
        <ele>654.6</ele>
        <time>2022-06-25T13:08:01Z</time>
      </trkpt>
      <trkpt lat="46.28111" lon="4.68443">
        <ele>654.6</ele>
        <time>2022-06-25T13:08:02Z</time>
      </trkpt>
      <trkpt lat="46.28109" lon="4.68442">
        <ele>654.8</ele>
        <time>2022-06-25T13:08:03Z</time>
      </trkpt>
      <trkpt lat="46.28106" lon="4.68441">
        <ele>654.8</ele>
        <time>2022-06-25T13:08:04Z</time>
      </trkpt>
      <trkpt lat="46.28103" lon="4.68439">
        <ele>655</ele>
        <time>2022-06-25T13:08:05Z</time>
      </trkpt>
      <trkpt lat="46.28102" lon="4.68439">
        <ele>655</ele>
        <time>2022-06-25T13:08:06Z</time>
      </trkpt>
      <trkpt lat="46.281" lon="4.68437">
        <ele>655.2</ele>
        <time>2022-06-25T13:08:07Z</time>
      </trkpt>
      <trkpt lat="46.28098" lon="4.68436">
        <ele>655.2</ele>
        <time>2022-06-25T13:08:08Z</time>
      </trkpt>
      <trkpt lat="46.28096" lon="4.68435">
        <ele>655.6</ele>
        <time>2022-06-25T13:08:09Z</time>
      </trkpt>
      <trkpt lat="46.28093" lon="4.68434">
        <ele>655.6</ele>
        <time>2022-06-25T13:08:10Z</time>
      </trkpt>
      <trkpt lat="46.28091" lon="4.68433">
        <ele>655.8</ele>
        <time>2022-06-25T13:08:11Z</time>
      </trkpt>
      <trkpt lat="46.28088" lon="4.68433">
        <ele>655.8</ele>
        <time>2022-06-25T13:08:12Z</time>
      </trkpt>
      <trkpt lat="46.28086" lon="4.68433">
        <ele>655.8</ele>
        <time>2022-06-25T13:08:13Z</time>
      </trkpt>
      <trkpt lat="46.28084" lon="4.68433">
        <ele>656</ele>
        <time>2022-06-25T13:08:14Z</time>
      </trkpt>
      <trkpt lat="46.28081" lon="4.68433">
        <ele>656</ele>
        <time>2022-06-25T13:08:15Z</time>
      </trkpt>
      <trkpt lat="46.28078" lon="4.68432">
        <ele>656</ele>
        <time>2022-06-25T13:08:16Z</time>
      </trkpt>
      <trkpt lat="46.28075" lon="4.68431">
        <ele>656</ele>
        <time>2022-06-25T13:08:17Z</time>
      </trkpt>
      <trkpt lat="46.28073" lon="4.68431">
        <ele>656.2</ele>
        <time>2022-06-25T13:08:18Z</time>
      </trkpt>
      <trkpt lat="46.2807" lon="4.68431">
        <ele>656.2</ele>
        <time>2022-06-25T13:08:19Z</time>
      </trkpt>
      <trkpt lat="46.28067" lon="4.68431">
        <ele>656.2</ele>
        <time>2022-06-25T13:08:20Z</time>
      </trkpt>
      <trkpt lat="46.28065" lon="4.68431">
        <ele>656.6</ele>
        <time>2022-06-25T13:08:21Z</time>
      </trkpt>
      <trkpt lat="46.28063" lon="4.68431">
        <ele>656.8</ele>
        <time>2022-06-25T13:08:22Z</time>
      </trkpt>
      <trkpt lat="46.2806" lon="4.68432">
        <ele>656.8</ele>
        <time>2022-06-25T13:08:23Z</time>
      </trkpt>
      <trkpt lat="46.28058" lon="4.68432">
        <ele>657</ele>
        <time>2022-06-25T13:08:24Z</time>
      </trkpt>
      <trkpt lat="46.28055" lon="4.68433">
        <ele>657</ele>
        <time>2022-06-25T13:08:25Z</time>
      </trkpt>
      <trkpt lat="46.28052" lon="4.68434">
        <ele>657.4</ele>
        <time>2022-06-25T13:08:26Z</time>
      </trkpt>
      <trkpt lat="46.2805" lon="4.68434">
        <ele>657.4</ele>
        <time>2022-06-25T13:08:27Z</time>
      </trkpt>
      <trkpt lat="46.28046" lon="4.68435">
        <ele>657.4</ele>
        <time>2022-06-25T13:08:28Z</time>
      </trkpt>
      <trkpt lat="46.28043" lon="4.68435">
        <ele>657.6</ele>
        <time>2022-06-25T13:08:29Z</time>
      </trkpt>
      <trkpt lat="46.2804" lon="4.68435">
        <ele>657.6</ele>
        <time>2022-06-25T13:08:30Z</time>
      </trkpt>
      <trkpt lat="46.28037" lon="4.68434">
        <ele>658</ele>
        <time>2022-06-25T13:08:31Z</time>
      </trkpt>
      <trkpt lat="46.28034" lon="4.68434">
        <ele>658</ele>
        <time>2022-06-25T13:08:32Z</time>
      </trkpt>
      <trkpt lat="46.28031" lon="4.68434">
        <ele>658.2</ele>
        <time>2022-06-25T13:08:33Z</time>
      </trkpt>
      <trkpt lat="46.28028" lon="4.68434">
        <ele>658.4</ele>
        <time>2022-06-25T13:08:34Z</time>
      </trkpt>
      <trkpt lat="46.28025" lon="4.68434">
        <ele>658.4</ele>
        <time>2022-06-25T13:08:35Z</time>
      </trkpt>
      <trkpt lat="46.28023" lon="4.68433">
        <ele>658.6</ele>
        <time>2022-06-25T13:08:36Z</time>
      </trkpt>
      <trkpt lat="46.2802" lon="4.68433">
        <ele>658.6</ele>
        <time>2022-06-25T13:08:37Z</time>
      </trkpt>
      <trkpt lat="46.28017" lon="4.68433">
        <ele>659</ele>
        <time>2022-06-25T13:08:38Z</time>
      </trkpt>
      <trkpt lat="46.28015" lon="4.68432">
        <ele>659</ele>
        <time>2022-06-25T13:08:39Z</time>
      </trkpt>
      <trkpt lat="46.28012" lon="4.68432">
        <ele>659.2</ele>
        <time>2022-06-25T13:08:40Z</time>
      </trkpt>
      <trkpt lat="46.2801" lon="4.68432">
        <ele>659.2</ele>
        <time>2022-06-25T13:08:41Z</time>
      </trkpt>
      <trkpt lat="46.28007" lon="4.68432">
        <ele>659.4</ele>
        <time>2022-06-25T13:08:42Z</time>
      </trkpt>
      <trkpt lat="46.28005" lon="4.68431">
        <ele>659.4</ele>
        <time>2022-06-25T13:08:43Z</time>
      </trkpt>
      <trkpt lat="46.28002" lon="4.68431">
        <ele>659.6</ele>
        <time>2022-06-25T13:08:44Z</time>
      </trkpt>
      <trkpt lat="46.27999" lon="4.68431">
        <ele>659.6</ele>
        <time>2022-06-25T13:08:45Z</time>
      </trkpt>
      <trkpt lat="46.27996" lon="4.68431">
        <ele>659.8</ele>
        <time>2022-06-25T13:08:46Z</time>
      </trkpt>
      <trkpt lat="46.27994" lon="4.6843">
        <ele>659.8</ele>
        <time>2022-06-25T13:08:47Z</time>
      </trkpt>
      <trkpt lat="46.27991" lon="4.68429">
        <ele>660.2</ele>
        <time>2022-06-25T13:08:48Z</time>
      </trkpt>
      <trkpt lat="46.27989" lon="4.68429">
        <ele>660.2</ele>
        <time>2022-06-25T13:08:49Z</time>
      </trkpt>
      <trkpt lat="46.27986" lon="4.68428">
        <ele>660.6</ele>
        <time>2022-06-25T13:08:50Z</time>
      </trkpt>
      <trkpt lat="46.27983" lon="4.68427">
        <ele>660.6</ele>
        <time>2022-06-25T13:08:51Z</time>
      </trkpt>
      <trkpt lat="46.2798" lon="4.68426">
        <ele>660.8</ele>
        <time>2022-06-25T13:08:52Z</time>
      </trkpt>
      <trkpt lat="46.27978" lon="4.68426">
        <ele>660.8</ele>
        <time>2022-06-25T13:08:53Z</time>
      </trkpt>
      <trkpt lat="46.27976" lon="4.68425">
        <ele>661</ele>
        <time>2022-06-25T13:08:54Z</time>
      </trkpt>
      <trkpt lat="46.27973" lon="4.68424">
        <ele>661</ele>
        <time>2022-06-25T13:08:55Z</time>
      </trkpt>
      <trkpt lat="46.2797" lon="4.68423">
        <ele>661.4</ele>
        <time>2022-06-25T13:08:56Z</time>
      </trkpt>
      <trkpt lat="46.27967" lon="4.68422">
        <ele>661.4</ele>
        <time>2022-06-25T13:08:57Z</time>
      </trkpt>
      <trkpt lat="46.27965" lon="4.6842">
        <ele>661.6</ele>
        <time>2022-06-25T13:08:58Z</time>
      </trkpt>
      <trkpt lat="46.27962" lon="4.68418">
        <ele>661.6</ele>
        <time>2022-06-25T13:08:59Z</time>
      </trkpt>
      <trkpt lat="46.2796" lon="4.68416">
        <ele>662</ele>
        <time>2022-06-25T13:09:00Z</time>
      </trkpt>
      <trkpt lat="46.27958" lon="4.68414">
        <ele>662</ele>
        <time>2022-06-25T13:09:01Z</time>
      </trkpt>
      <trkpt lat="46.27956" lon="4.68412">
        <ele>662.2</ele>
        <time>2022-06-25T13:09:02Z</time>
      </trkpt>
      <trkpt lat="46.27953" lon="4.68409">
        <ele>662.2</ele>
        <time>2022-06-25T13:09:03Z</time>
      </trkpt>
      <trkpt lat="46.27952" lon="4.68407">
        <ele>662.4</ele>
        <time>2022-06-25T13:09:04Z</time>
      </trkpt>
      <trkpt lat="46.2795" lon="4.68404">
        <ele>662.4</ele>
        <time>2022-06-25T13:09:05Z</time>
      </trkpt>
      <trkpt lat="46.27948" lon="4.68401">
        <ele>662.8</ele>
        <time>2022-06-25T13:09:06Z</time>
      </trkpt>
      <trkpt lat="46.27946" lon="4.68398">
        <ele>662.8</ele>
        <time>2022-06-25T13:09:07Z</time>
      </trkpt>
      <trkpt lat="46.27945" lon="4.68395">
        <ele>663.2</ele>
        <time>2022-06-25T13:09:08Z</time>
      </trkpt>
      <trkpt lat="46.27944" lon="4.68391">
        <ele>663.4</ele>
        <time>2022-06-25T13:09:09Z</time>
      </trkpt>
      <trkpt lat="46.27942" lon="4.68388">
        <ele>663.4</ele>
        <time>2022-06-25T13:09:10Z</time>
      </trkpt>
      <trkpt lat="46.27941" lon="4.68385">
        <ele>663.6</ele>
        <time>2022-06-25T13:09:11Z</time>
      </trkpt>
      <trkpt lat="46.2794" lon="4.68381">
        <ele>663.6</ele>
        <time>2022-06-25T13:09:12Z</time>
      </trkpt>
      <trkpt lat="46.27939" lon="4.68378">
        <ele>664</ele>
        <time>2022-06-25T13:09:13Z</time>
      </trkpt>
      <trkpt lat="46.27939" lon="4.68374">
        <ele>664</ele>
        <time>2022-06-25T13:09:14Z</time>
      </trkpt>
      <trkpt lat="46.27938" lon="4.68371">
        <ele>664.2</ele>
        <time>2022-06-25T13:09:15Z</time>
      </trkpt>
      <trkpt lat="46.27938" lon="4.68367">
        <ele>664.2</ele>
        <time>2022-06-25T13:09:16Z</time>
      </trkpt>
      <trkpt lat="46.27938" lon="4.68363">
        <ele>664.6</ele>
        <time>2022-06-25T13:09:17Z</time>
      </trkpt>
      <trkpt lat="46.27938" lon="4.6836">
        <ele>664.6</ele>
        <time>2022-06-25T13:09:18Z</time>
      </trkpt>
      <trkpt lat="46.27938" lon="4.68356">
        <ele>664.8</ele>
        <time>2022-06-25T13:09:19Z</time>
      </trkpt>
      <trkpt lat="46.27938" lon="4.68353">
        <ele>664.8</ele>
        <time>2022-06-25T13:09:20Z</time>
      </trkpt>
      <trkpt lat="46.27938" lon="4.6835">
        <ele>665.2</ele>
        <time>2022-06-25T13:09:21Z</time>
      </trkpt>
      <trkpt lat="46.27938" lon="4.68347">
        <ele>665.2</ele>
        <time>2022-06-25T13:09:22Z</time>
      </trkpt>
      <trkpt lat="46.27938" lon="4.68344">
        <ele>665.6</ele>
        <time>2022-06-25T13:09:23Z</time>
      </trkpt>
      <trkpt lat="46.27938" lon="4.68341">
        <ele>665.6</ele>
        <time>2022-06-25T13:09:24Z</time>
      </trkpt>
      <trkpt lat="46.27938" lon="4.68338">
        <ele>666</ele>
        <time>2022-06-25T13:09:25Z</time>
      </trkpt>
      <trkpt lat="46.27938" lon="4.68334">
        <ele>666</ele>
        <time>2022-06-25T13:09:26Z</time>
      </trkpt>
      <trkpt lat="46.27938" lon="4.68331">
        <ele>666.2</ele>
        <time>2022-06-25T13:09:27Z</time>
      </trkpt>
      <trkpt lat="46.27938" lon="4.68327">
        <ele>666.4</ele>
        <time>2022-06-25T13:09:28Z</time>
      </trkpt>
      <trkpt lat="46.27938" lon="4.68323">
        <ele>666.4</ele>
        <time>2022-06-25T13:09:29Z</time>
      </trkpt>
      <trkpt lat="46.27938" lon="4.6832">
        <ele>666.8</ele>
        <time>2022-06-25T13:09:30Z</time>
      </trkpt>
      <trkpt lat="46.27938" lon="4.68316">
        <ele>666.8</ele>
        <time>2022-06-25T13:09:31Z</time>
      </trkpt>
      <trkpt lat="46.27938" lon="4.68312">
        <ele>667</ele>
        <time>2022-06-25T13:09:32Z</time>
      </trkpt>
      <trkpt lat="46.27938" lon="4.68308">
        <ele>667</ele>
        <time>2022-06-25T13:09:33Z</time>
      </trkpt>
      <trkpt lat="46.27939" lon="4.68305">
        <ele>667.2</ele>
        <time>2022-06-25T13:09:34Z</time>
      </trkpt>
      <trkpt lat="46.27939" lon="4.68302">
        <ele>667.2</ele>
        <time>2022-06-25T13:09:35Z</time>
      </trkpt>
      <trkpt lat="46.27939" lon="4.68298">
        <ele>667.6</ele>
        <time>2022-06-25T13:09:36Z</time>
      </trkpt>
      <trkpt lat="46.27939" lon="4.68295">
        <ele>667.8</ele>
        <time>2022-06-25T13:09:37Z</time>
      </trkpt>
      <trkpt lat="46.27939" lon="4.68291">
        <ele>667.8</ele>
        <time>2022-06-25T13:09:38Z</time>
      </trkpt>
      <trkpt lat="46.27939" lon="4.68284">
        <ele>668.2</ele>
        <time>2022-06-25T13:09:39Z</time>
      </trkpt>
      <trkpt lat="46.27938" lon="4.6828">
        <ele>668.4</ele>
        <time>2022-06-25T13:09:40Z</time>
      </trkpt>
      <trkpt lat="46.27938" lon="4.68277">
        <ele>668.4</ele>
        <time>2022-06-25T13:09:41Z</time>
      </trkpt>
      <trkpt lat="46.27938" lon="4.68273">
        <ele>668.8</ele>
        <time>2022-06-25T13:09:42Z</time>
      </trkpt>
      <trkpt lat="46.27938" lon="4.6827">
        <ele>668.8</ele>
        <time>2022-06-25T13:09:43Z</time>
      </trkpt>
      <trkpt lat="46.27939" lon="4.68266">
        <ele>669.2</ele>
        <time>2022-06-25T13:09:44Z</time>
      </trkpt>
      <trkpt lat="46.27939" lon="4.68263">
        <ele>669.2</ele>
        <time>2022-06-25T13:09:45Z</time>
      </trkpt>
      <trkpt lat="46.27939" lon="4.6826">
        <ele>669.4</ele>
        <time>2022-06-25T13:09:46Z</time>
      </trkpt>
      <trkpt lat="46.27939" lon="4.68256">
        <ele>669.4</ele>
        <time>2022-06-25T13:09:47Z</time>
      </trkpt>
      <trkpt lat="46.27939" lon="4.68252">
        <ele>669.8</ele>
        <time>2022-06-25T13:09:48Z</time>
      </trkpt>
      <trkpt lat="46.27939" lon="4.68248">
        <ele>669.8</ele>
        <time>2022-06-25T13:09:49Z</time>
      </trkpt>
      <trkpt lat="46.27939" lon="4.68245">
        <ele>670</ele>
        <time>2022-06-25T13:09:50Z</time>
      </trkpt>
      <trkpt lat="46.27939" lon="4.68241">
        <ele>670</ele>
        <time>2022-06-25T13:09:51Z</time>
      </trkpt>
      <trkpt lat="46.27938" lon="4.68237">
        <ele>670.2</ele>
        <time>2022-06-25T13:09:52Z</time>
      </trkpt>
      <trkpt lat="46.27938" lon="4.68232">
        <ele>670.2</ele>
        <time>2022-06-25T13:09:53Z</time>
      </trkpt>
      <trkpt lat="46.27938" lon="4.6823">
        <ele>670.4</ele>
        <time>2022-06-25T13:09:54Z</time>
      </trkpt>
      <trkpt lat="46.27938" lon="4.68228">
        <ele>670.4</ele>
        <time>2022-06-25T13:09:55Z</time>
      </trkpt>
      <trkpt lat="46.27938" lon="4.68225">
        <ele>670.8</ele>
        <time>2022-06-25T13:09:56Z</time>
      </trkpt>
      <trkpt lat="46.27938" lon="4.68221">
        <ele>670.8</ele>
        <time>2022-06-25T13:09:57Z</time>
      </trkpt>
      <trkpt lat="46.27937" lon="4.68218">
        <ele>671</ele>
        <time>2022-06-25T13:09:58Z</time>
      </trkpt>
      <trkpt lat="46.27937" lon="4.68214">
        <ele>671</ele>
        <time>2022-06-25T13:09:59Z</time>
      </trkpt>
      <trkpt lat="46.27936" lon="4.6821">
        <ele>671.4</ele>
        <time>2022-06-25T13:10:00Z</time>
      </trkpt>
      <trkpt lat="46.27935" lon="4.68206">
        <ele>671.4</ele>
        <time>2022-06-25T13:10:01Z</time>
      </trkpt>
      <trkpt lat="46.27935" lon="4.68203">
        <ele>671.6</ele>
        <time>2022-06-25T13:10:02Z</time>
      </trkpt>
      <trkpt lat="46.27935" lon="4.68199">
        <ele>671.6</ele>
        <time>2022-06-25T13:10:03Z</time>
      </trkpt>
      <trkpt lat="46.27934" lon="4.68195">
        <ele>671.8</ele>
        <time>2022-06-25T13:10:04Z</time>
      </trkpt>
      <trkpt lat="46.27934" lon="4.68191">
        <ele>671.8</ele>
        <time>2022-06-25T13:10:05Z</time>
      </trkpt>
      <trkpt lat="46.27933" lon="4.68187">
        <ele>671.8</ele>
        <time>2022-06-25T13:10:06Z</time>
      </trkpt>
      <trkpt lat="46.27932" lon="4.68184">
        <ele>672.2</ele>
        <time>2022-06-25T13:10:07Z</time>
      </trkpt>
      <trkpt lat="46.27931" lon="4.6818">
        <ele>672.2</ele>
        <time>2022-06-25T13:10:08Z</time>
      </trkpt>
      <trkpt lat="46.2793" lon="4.68177">
        <ele>672.4</ele>
        <time>2022-06-25T13:10:09Z</time>
      </trkpt>
      <trkpt lat="46.27929" lon="4.68173">
        <ele>672.4</ele>
        <time>2022-06-25T13:10:10Z</time>
      </trkpt>
      <trkpt lat="46.27928" lon="4.6817">
        <ele>672.4</ele>
        <time>2022-06-25T13:10:11Z</time>
      </trkpt>
      <trkpt lat="46.27928" lon="4.68167">
        <ele>672.8</ele>
        <time>2022-06-25T13:10:12Z</time>
      </trkpt>
      <trkpt lat="46.27927" lon="4.68165">
        <ele>672.8</ele>
        <time>2022-06-25T13:10:13Z</time>
      </trkpt>
      <trkpt lat="46.27926" lon="4.68163">
        <ele>672.8</ele>
        <time>2022-06-25T13:10:14Z</time>
      </trkpt>
      <trkpt lat="46.27925" lon="4.6816">
        <ele>673</ele>
        <time>2022-06-25T13:10:15Z</time>
      </trkpt>
      <trkpt lat="46.27924" lon="4.68158">
        <ele>673</ele>
        <time>2022-06-25T13:10:16Z</time>
      </trkpt>
      <trkpt lat="46.27923" lon="4.68155">
        <ele>673.4</ele>
        <time>2022-06-25T13:10:17Z</time>
      </trkpt>
      <trkpt lat="46.27922" lon="4.68153">
        <ele>673.6</ele>
        <time>2022-06-25T13:10:18Z</time>
      </trkpt>
      <trkpt lat="46.27922" lon="4.68151">
        <ele>673.6</ele>
        <time>2022-06-25T13:10:19Z</time>
      </trkpt>
      <trkpt lat="46.27921" lon="4.68149">
        <ele>674</ele>
        <time>2022-06-25T13:10:20Z</time>
      </trkpt>
      <trkpt lat="46.2792" lon="4.68147">
        <ele>674</ele>
        <time>2022-06-25T13:10:21Z</time>
      </trkpt>
      <trkpt lat="46.27919" lon="4.68145">
        <ele>674.4</ele>
        <time>2022-06-25T13:10:22Z</time>
      </trkpt>
      <trkpt lat="46.27918" lon="4.68142">
        <ele>674.4</ele>
        <time>2022-06-25T13:10:23Z</time>
      </trkpt>
      <trkpt lat="46.27916" lon="4.68139">
        <ele>674.6</ele>
        <time>2022-06-25T13:10:24Z</time>
      </trkpt>
      <trkpt lat="46.27915" lon="4.68137">
        <ele>674.6</ele>
        <time>2022-06-25T13:10:25Z</time>
      </trkpt>
      <trkpt lat="46.27914" lon="4.68134">
        <ele>675</ele>
        <time>2022-06-25T13:10:26Z</time>
      </trkpt>
      <trkpt lat="46.27913" lon="4.68131">
        <ele>675.2</ele>
        <time>2022-06-25T13:10:27Z</time>
      </trkpt>
      <trkpt lat="46.27912" lon="4.68129">
        <ele>675.2</ele>
        <time>2022-06-25T13:10:28Z</time>
      </trkpt>
      <trkpt lat="46.2791" lon="4.68125">
        <ele>675.6</ele>
        <time>2022-06-25T13:10:29Z</time>
      </trkpt>
      <trkpt lat="46.27908" lon="4.68121">
        <ele>675.6</ele>
        <time>2022-06-25T13:10:30Z</time>
      </trkpt>
      <trkpt lat="46.27906" lon="4.68117">
        <ele>675.8</ele>
        <time>2022-06-25T13:10:31Z</time>
      </trkpt>
      <trkpt lat="46.27905" lon="4.68114">
        <ele>675.8</ele>
        <time>2022-06-25T13:10:32Z</time>
      </trkpt>
      <trkpt lat="46.27902" lon="4.68109">
        <ele>676</ele>
        <time>2022-06-25T13:10:33Z</time>
      </trkpt>
      <trkpt lat="46.279" lon="4.68106">
        <ele>676</ele>
        <time>2022-06-25T13:10:34Z</time>
      </trkpt>
      <trkpt lat="46.27898" lon="4.68102">
        <ele>676.4</ele>
        <time>2022-06-25T13:10:35Z</time>
      </trkpt>
      <trkpt lat="46.27896" lon="4.68099">
        <ele>676.4</ele>
        <time>2022-06-25T13:10:36Z</time>
      </trkpt>
      <trkpt lat="46.27894" lon="4.68095">
        <ele>676.6</ele>
        <time>2022-06-25T13:10:37Z</time>
      </trkpt>
      <trkpt lat="46.27891" lon="4.68091">
        <ele>676.6</ele>
        <time>2022-06-25T13:10:38Z</time>
      </trkpt>
      <trkpt lat="46.27889" lon="4.68088">
        <ele>676.8</ele>
        <time>2022-06-25T13:10:39Z</time>
      </trkpt>
      <trkpt lat="46.27886" lon="4.68085">
        <ele>676.8</ele>
        <time>2022-06-25T13:10:40Z</time>
      </trkpt>
      <trkpt lat="46.27884" lon="4.68083">
        <ele>677.2</ele>
        <time>2022-06-25T13:10:41Z</time>
      </trkpt>
      <trkpt lat="46.27883" lon="4.6808">
        <ele>677.2</ele>
        <time>2022-06-25T13:10:42Z</time>
      </trkpt>
      <trkpt lat="46.27881" lon="4.68078">
        <ele>677.4</ele>
        <time>2022-06-25T13:10:43Z</time>
      </trkpt>
      <trkpt lat="46.27879" lon="4.68075">
        <ele>677.4</ele>
        <time>2022-06-25T13:10:44Z</time>
      </trkpt>
      <trkpt lat="46.27877" lon="4.68072">
        <ele>677.8</ele>
        <time>2022-06-25T13:10:45Z</time>
      </trkpt>
      <trkpt lat="46.27875" lon="4.68069">
        <ele>678</ele>
        <time>2022-06-25T13:10:46Z</time>
      </trkpt>
      <trkpt lat="46.27873" lon="4.68066">
        <ele>678</ele>
        <time>2022-06-25T13:10:47Z</time>
      </trkpt>
      <trkpt lat="46.27871" lon="4.68063">
        <ele>678.2</ele>
        <time>2022-06-25T13:10:48Z</time>
      </trkpt>
      <trkpt lat="46.27868" lon="4.68061">
        <ele>678.2</ele>
        <time>2022-06-25T13:10:49Z</time>
      </trkpt>
      <trkpt lat="46.27866" lon="4.68058">
        <ele>678.6</ele>
        <time>2022-06-25T13:10:50Z</time>
      </trkpt>
      <trkpt lat="46.27864" lon="4.68056">
        <ele>678.6</ele>
        <time>2022-06-25T13:10:51Z</time>
      </trkpt>
      <trkpt lat="46.27862" lon="4.68054">
        <ele>678.8</ele>
        <time>2022-06-25T13:10:52Z</time>
      </trkpt>
      <trkpt lat="46.2786" lon="4.68051">
        <ele>678.8</ele>
        <time>2022-06-25T13:10:53Z</time>
      </trkpt>
      <trkpt lat="46.27856" lon="4.68048">
        <ele>679</ele>
        <time>2022-06-25T13:10:54Z</time>
      </trkpt>
      <trkpt lat="46.27855" lon="4.68047">
        <ele>679</ele>
        <time>2022-06-25T13:10:55Z</time>
      </trkpt>
      <trkpt lat="46.27852" lon="4.68045">
        <ele>679.4</ele>
        <time>2022-06-25T13:10:56Z</time>
      </trkpt>
      <trkpt lat="46.27849" lon="4.68042">
        <ele>679.4</ele>
        <time>2022-06-25T13:10:57Z</time>
      </trkpt>
      <trkpt lat="46.27847" lon="4.6804">
        <ele>679.6</ele>
        <time>2022-06-25T13:10:58Z</time>
      </trkpt>
      <trkpt lat="46.27845" lon="4.68038">
        <ele>679.6</ele>
        <time>2022-06-25T13:10:59Z</time>
      </trkpt>
      <trkpt lat="46.27842" lon="4.68036">
        <ele>680</ele>
        <time>2022-06-25T13:11:00Z</time>
      </trkpt>
      <trkpt lat="46.27839" lon="4.68035">
        <ele>680</ele>
        <time>2022-06-25T13:11:01Z</time>
      </trkpt>
      <trkpt lat="46.27837" lon="4.68033">
        <ele>680</ele>
        <time>2022-06-25T13:11:02Z</time>
      </trkpt>
      <trkpt lat="46.27834" lon="4.68032">
        <ele>680.4</ele>
        <time>2022-06-25T13:11:03Z</time>
      </trkpt>
      <trkpt lat="46.27831" lon="4.6803">
        <ele>680.4</ele>
        <time>2022-06-25T13:11:04Z</time>
      </trkpt>
      <trkpt lat="46.27829" lon="4.68029">
        <ele>680.6</ele>
        <time>2022-06-25T13:11:05Z</time>
      </trkpt>
      <trkpt lat="46.27826" lon="4.68027">
        <ele>680.6</ele>
        <time>2022-06-25T13:11:06Z</time>
      </trkpt>
      <trkpt lat="46.27824" lon="4.68026">
        <ele>680.8</ele>
        <time>2022-06-25T13:11:07Z</time>
      </trkpt>
      <trkpt lat="46.27822" lon="4.68024">
        <ele>680.8</ele>
        <time>2022-06-25T13:11:08Z</time>
      </trkpt>
      <trkpt lat="46.27819" lon="4.68023">
        <ele>681</ele>
        <time>2022-06-25T13:11:09Z</time>
      </trkpt>
      <trkpt lat="46.27817" lon="4.68022">
        <ele>681</ele>
        <time>2022-06-25T13:11:10Z</time>
      </trkpt>
      <trkpt lat="46.27815" lon="4.68021">
        <ele>681.4</ele>
        <time>2022-06-25T13:11:11Z</time>
      </trkpt>
      <trkpt lat="46.27813" lon="4.6802">
        <ele>681.4</ele>
        <time>2022-06-25T13:11:12Z</time>
      </trkpt>
      <trkpt lat="46.27811" lon="4.68019">
        <ele>681.6</ele>
        <time>2022-06-25T13:11:13Z</time>
      </trkpt>
      <trkpt lat="46.2781" lon="4.68018">
        <ele>681.6</ele>
        <time>2022-06-25T13:11:14Z</time>
      </trkpt>
      <trkpt lat="46.27808" lon="4.68017">
        <ele>682</ele>
        <time>2022-06-25T13:11:15Z</time>
      </trkpt>
      <trkpt lat="46.27805" lon="4.68015">
        <ele>682</ele>
        <time>2022-06-25T13:11:16Z</time>
      </trkpt>
      <trkpt lat="46.27803" lon="4.68014">
        <ele>682.4</ele>
        <time>2022-06-25T13:11:17Z</time>
      </trkpt>
      <trkpt lat="46.27801" lon="4.68012">
        <ele>682.4</ele>
        <time>2022-06-25T13:11:18Z</time>
      </trkpt>
      <trkpt lat="46.27799" lon="4.68011">
        <ele>682.6</ele>
        <time>2022-06-25T13:11:19Z</time>
      </trkpt>
      <trkpt lat="46.27797" lon="4.68009">
        <ele>682.6</ele>
        <time>2022-06-25T13:11:20Z</time>
      </trkpt>
      <trkpt lat="46.27794" lon="4.68007">
        <ele>683</ele>
        <time>2022-06-25T13:11:21Z</time>
      </trkpt>
      <trkpt lat="46.27792" lon="4.68006">
        <ele>683</ele>
        <time>2022-06-25T13:11:22Z</time>
      </trkpt>
      <trkpt lat="46.27789" lon="4.68005">
        <ele>683.2</ele>
        <time>2022-06-25T13:11:23Z</time>
      </trkpt>
      <trkpt lat="46.27787" lon="4.68003">
        <ele>683.2</ele>
        <time>2022-06-25T13:11:24Z</time>
      </trkpt>
      <trkpt lat="46.27785" lon="4.68001">
        <ele>683.6</ele>
        <time>2022-06-25T13:11:25Z</time>
      </trkpt>
      <trkpt lat="46.27783" lon="4.67999">
        <ele>683.6</ele>
        <time>2022-06-25T13:11:26Z</time>
      </trkpt>
      <trkpt lat="46.2778" lon="4.67997">
        <ele>684</ele>
        <time>2022-06-25T13:11:27Z</time>
      </trkpt>
      <trkpt lat="46.27778" lon="4.67995">
        <ele>684.2</ele>
        <time>2022-06-25T13:11:28Z</time>
      </trkpt>
      <trkpt lat="46.27775" lon="4.67993">
        <ele>684.4</ele>
        <time>2022-06-25T13:11:29Z</time>
      </trkpt>
      <trkpt lat="46.27772" lon="4.67992">
        <ele>684.4</ele>
        <time>2022-06-25T13:11:30Z</time>
      </trkpt>
      <trkpt lat="46.2777" lon="4.6799">
        <ele>684.8</ele>
        <time>2022-06-25T13:11:31Z</time>
      </trkpt>
      <trkpt lat="46.27768" lon="4.67988">
        <ele>684.8</ele>
        <time>2022-06-25T13:11:32Z</time>
      </trkpt>
      <trkpt lat="46.27765" lon="4.67986">
        <ele>685.2</ele>
        <time>2022-06-25T13:11:33Z</time>
      </trkpt>
      <trkpt lat="46.27763" lon="4.67983">
        <ele>685.2</ele>
        <time>2022-06-25T13:11:34Z</time>
      </trkpt>
      <trkpt lat="46.27762" lon="4.67981">
        <ele>685.4</ele>
        <time>2022-06-25T13:11:35Z</time>
      </trkpt>
      <trkpt lat="46.2776" lon="4.6798">
        <ele>685.6</ele>
        <time>2022-06-25T13:11:36Z</time>
      </trkpt>
      <trkpt lat="46.27758" lon="4.67979">
        <ele>685.6</ele>
        <time>2022-06-25T13:11:37Z</time>
      </trkpt>
      <trkpt lat="46.27757" lon="4.67978">
        <ele>685.8</ele>
        <time>2022-06-25T13:11:38Z</time>
      </trkpt>
      <trkpt lat="46.27755" lon="4.67977">
        <ele>685.8</ele>
        <time>2022-06-25T13:11:39Z</time>
      </trkpt>
      <trkpt lat="46.27754" lon="4.67975">
        <ele>686.2</ele>
        <time>2022-06-25T13:11:40Z</time>
      </trkpt>
      <trkpt lat="46.27752" lon="4.67973">
        <ele>686.2</ele>
        <time>2022-06-25T13:11:41Z</time>
      </trkpt>
      <trkpt lat="46.2775" lon="4.67971">
        <ele>686.4</ele>
        <time>2022-06-25T13:11:42Z</time>
      </trkpt>
      <trkpt lat="46.27748" lon="4.6797">
        <ele>686.4</ele>
        <time>2022-06-25T13:11:43Z</time>
      </trkpt>
      <trkpt lat="46.27746" lon="4.67968">
        <ele>686.8</ele>
        <time>2022-06-25T13:11:44Z</time>
      </trkpt>
      <trkpt lat="46.27744" lon="4.67966">
        <ele>686.8</ele>
        <time>2022-06-25T13:11:45Z</time>
      </trkpt>
      <trkpt lat="46.27742" lon="4.67964">
        <ele>687</ele>
        <time>2022-06-25T13:11:46Z</time>
      </trkpt>
      <trkpt lat="46.2774" lon="4.67962">
        <ele>687</ele>
        <time>2022-06-25T13:11:47Z</time>
      </trkpt>
      <trkpt lat="46.27738" lon="4.67961">
        <ele>687.4</ele>
        <time>2022-06-25T13:11:48Z</time>
      </trkpt>
      <trkpt lat="46.27736" lon="4.67959">
        <ele>687.4</ele>
        <time>2022-06-25T13:11:49Z</time>
      </trkpt>
      <trkpt lat="46.27734" lon="4.67957">
        <ele>687.8</ele>
        <time>2022-06-25T13:11:50Z</time>
      </trkpt>
      <trkpt lat="46.27732" lon="4.67955">
        <ele>687.8</ele>
        <time>2022-06-25T13:11:51Z</time>
      </trkpt>
      <trkpt lat="46.2773" lon="4.67952">
        <ele>688</ele>
        <time>2022-06-25T13:11:52Z</time>
      </trkpt>
      <trkpt lat="46.27727" lon="4.67949">
        <ele>688</ele>
        <time>2022-06-25T13:11:53Z</time>
      </trkpt>
      <trkpt lat="46.27726" lon="4.67946">
        <ele>688.4</ele>
        <time>2022-06-25T13:11:54Z</time>
      </trkpt>
      <trkpt lat="46.27724" lon="4.67944">
        <ele>688.4</ele>
        <time>2022-06-25T13:11:55Z</time>
      </trkpt>
      <trkpt lat="46.27722" lon="4.6794">
        <ele>688.8</ele>
        <time>2022-06-25T13:11:56Z</time>
      </trkpt>
      <trkpt lat="46.27721" lon="4.67937">
        <ele>688.8</ele>
        <time>2022-06-25T13:11:57Z</time>
      </trkpt>
      <trkpt lat="46.2772" lon="4.67935">
        <ele>689</ele>
        <time>2022-06-25T13:11:58Z</time>
      </trkpt>
      <trkpt lat="46.27718" lon="4.67931">
        <ele>689</ele>
        <time>2022-06-25T13:11:59Z</time>
      </trkpt>
      <trkpt lat="46.27716" lon="4.67929">
        <ele>689.4</ele>
        <time>2022-06-25T13:12:00Z</time>
      </trkpt>
      <trkpt lat="46.27714" lon="4.67925">
        <ele>689.4</ele>
        <time>2022-06-25T13:12:01Z</time>
      </trkpt>
      <trkpt lat="46.27713" lon="4.67922">
        <ele>689.8</ele>
        <time>2022-06-25T13:12:02Z</time>
      </trkpt>
      <trkpt lat="46.27712" lon="4.67919">
        <ele>689.8</ele>
        <time>2022-06-25T13:12:03Z</time>
      </trkpt>
      <trkpt lat="46.2771" lon="4.67916">
        <ele>690</ele>
        <time>2022-06-25T13:12:04Z</time>
      </trkpt>
      <trkpt lat="46.27709" lon="4.67913">
        <ele>690</ele>
        <time>2022-06-25T13:12:05Z</time>
      </trkpt>
      <trkpt lat="46.27708" lon="4.6791">
        <ele>690.4</ele>
        <time>2022-06-25T13:12:06Z</time>
      </trkpt>
      <trkpt lat="46.27706" lon="4.67907">
        <ele>690.4</ele>
        <time>2022-06-25T13:12:07Z</time>
      </trkpt>
      <trkpt lat="46.27704" lon="4.67904">
        <ele>690.8</ele>
        <time>2022-06-25T13:12:08Z</time>
      </trkpt>
      <trkpt lat="46.27703" lon="4.67901">
        <ele>690.8</ele>
        <time>2022-06-25T13:12:09Z</time>
      </trkpt>
      <trkpt lat="46.27701" lon="4.67898">
        <ele>691</ele>
        <time>2022-06-25T13:12:10Z</time>
      </trkpt>
      <trkpt lat="46.277" lon="4.67895">
        <ele>691</ele>
        <time>2022-06-25T13:12:11Z</time>
      </trkpt>
      <trkpt lat="46.27698" lon="4.67891">
        <ele>691.4</ele>
        <time>2022-06-25T13:12:12Z</time>
      </trkpt>
      <trkpt lat="46.27695" lon="4.67887">
        <ele>691.4</ele>
        <time>2022-06-25T13:12:13Z</time>
      </trkpt>
      <trkpt lat="46.27692" lon="4.67883">
        <ele>691.6</ele>
        <time>2022-06-25T13:12:14Z</time>
      </trkpt>
      <trkpt lat="46.27689" lon="4.67878">
        <ele>691.6</ele>
        <time>2022-06-25T13:12:15Z</time>
      </trkpt>
      <trkpt lat="46.27685" lon="4.67875">
        <ele>691.6</ele>
        <time>2022-06-25T13:12:16Z</time>
      </trkpt>
      <trkpt lat="46.27683" lon="4.67871">
        <ele>691.8</ele>
        <time>2022-06-25T13:12:17Z</time>
      </trkpt>
      <trkpt lat="46.27679" lon="4.67868">
        <ele>691.8</ele>
        <time>2022-06-25T13:12:18Z</time>
      </trkpt>
      <trkpt lat="46.27676" lon="4.67865">
        <ele>691.8</ele>
        <time>2022-06-25T13:12:19Z</time>
      </trkpt>
      <trkpt lat="46.27674" lon="4.67863">
        <ele>692</ele>
        <time>2022-06-25T13:12:20Z</time>
      </trkpt>
      <trkpt lat="46.27671" lon="4.6786">
        <ele>692</ele>
        <time>2022-06-25T13:12:21Z</time>
      </trkpt>
      <trkpt lat="46.27669" lon="4.67858">
        <ele>692</ele>
        <time>2022-06-25T13:12:22Z</time>
      </trkpt>
      <trkpt lat="46.27666" lon="4.67856">
        <ele>692</ele>
        <time>2022-06-25T13:12:23Z</time>
      </trkpt>
      <trkpt lat="46.27662" lon="4.67853">
        <ele>692.4</ele>
        <time>2022-06-25T13:12:24Z</time>
      </trkpt>
      <trkpt lat="46.27659" lon="4.67852">
        <ele>692.4</ele>
        <time>2022-06-25T13:12:25Z</time>
      </trkpt>
      <trkpt lat="46.27656" lon="4.6785">
        <ele>692.4</ele>
        <time>2022-06-25T13:12:26Z</time>
      </trkpt>
      <trkpt lat="46.27654" lon="4.67848">
        <ele>692.4</ele>
        <time>2022-06-25T13:12:27Z</time>
      </trkpt>
      <trkpt lat="46.27653" lon="4.67847">
        <ele>692</ele>
        <time>2022-06-25T13:12:28Z</time>
      </trkpt>
      <trkpt lat="46.27652" lon="4.67847">
        <ele>692</ele>
        <time>2022-06-25T13:12:29Z</time>
      </trkpt>
      <trkpt lat="46.27652" lon="4.67847">
        <ele>692.2</ele>
        <time>2022-06-25T13:14:21Z</time>
      </trkpt>
      <trkpt lat="46.27652" lon="4.67847">
        <ele>692.4</ele>
        <time>2022-06-25T13:18:40Z</time>
      </trkpt>
      <trkpt lat="46.2765" lon="4.67846">
        <ele>693</ele>
        <time>2022-06-25T13:20:20Z</time>
      </trkpt>
      <trkpt lat="46.27649" lon="4.67845">
        <ele>693</ele>
        <time>2022-06-25T13:20:21Z</time>
      </trkpt>
      <trkpt lat="46.27647" lon="4.67845">
        <ele>693</ele>
        <time>2022-06-25T13:20:22Z</time>
      </trkpt>
      <trkpt lat="46.27645" lon="4.67844">
        <ele>693</ele>
        <time>2022-06-25T13:20:23Z</time>
      </trkpt>
      <trkpt lat="46.27642" lon="4.67844">
        <ele>693</ele>
        <time>2022-06-25T13:20:24Z</time>
      </trkpt>
      <trkpt lat="46.27639" lon="4.67843">
        <ele>693</ele>
        <time>2022-06-25T13:20:25Z</time>
      </trkpt>
      <trkpt lat="46.27636" lon="4.67842">
        <ele>693</ele>
        <time>2022-06-25T13:20:26Z</time>
      </trkpt>
      <trkpt lat="46.27633" lon="4.67842">
        <ele>693</ele>
        <time>2022-06-25T13:20:27Z</time>
      </trkpt>
      <trkpt lat="46.2763" lon="4.67841">
        <ele>693</ele>
        <time>2022-06-25T13:20:28Z</time>
      </trkpt>
      <trkpt lat="46.27627" lon="4.6784">
        <ele>693</ele>
        <time>2022-06-25T13:20:29Z</time>
      </trkpt>
      <trkpt lat="46.27623" lon="4.6784">
        <ele>693</ele>
        <time>2022-06-25T13:20:30Z</time>
      </trkpt>
      <trkpt lat="46.2762" lon="4.67839">
        <ele>693</ele>
        <time>2022-06-25T13:20:31Z</time>
      </trkpt>
      <trkpt lat="46.27616" lon="4.6784">
        <ele>693</ele>
        <time>2022-06-25T13:20:32Z</time>
      </trkpt>
      <trkpt lat="46.27613" lon="4.67841">
        <ele>693</ele>
        <time>2022-06-25T13:20:33Z</time>
      </trkpt>
      <trkpt lat="46.27609" lon="4.67842">
        <ele>693</ele>
        <time>2022-06-25T13:20:34Z</time>
      </trkpt>
      <trkpt lat="46.27605" lon="4.67842">
        <ele>693</ele>
        <time>2022-06-25T13:20:35Z</time>
      </trkpt>
      <trkpt lat="46.27601" lon="4.67843">
        <ele>693</ele>
        <time>2022-06-25T13:20:36Z</time>
      </trkpt>
      <trkpt lat="46.27597" lon="4.67843">
        <ele>692.8</ele>
        <time>2022-06-25T13:20:37Z</time>
      </trkpt>
      <trkpt lat="46.27592" lon="4.67844">
        <ele>692.8</ele>
        <time>2022-06-25T13:20:38Z</time>
      </trkpt>
      <trkpt lat="46.27588" lon="4.67844">
        <ele>692.8</ele>
        <time>2022-06-25T13:20:39Z</time>
      </trkpt>
      <trkpt lat="46.27583" lon="4.67844">
        <ele>692.8</ele>
        <time>2022-06-25T13:20:40Z</time>
      </trkpt>
      <trkpt lat="46.27577" lon="4.67845">
        <ele>692.8</ele>
        <time>2022-06-25T13:20:41Z</time>
      </trkpt>
      <trkpt lat="46.27572" lon="4.67846">
        <ele>692.8</ele>
        <time>2022-06-25T13:20:42Z</time>
      </trkpt>
      <trkpt lat="46.27568" lon="4.67847">
        <ele>692.8</ele>
        <time>2022-06-25T13:20:43Z</time>
      </trkpt>
      <trkpt lat="46.27562" lon="4.67846">
        <ele>692.8</ele>
        <time>2022-06-25T13:20:44Z</time>
      </trkpt>
      <trkpt lat="46.27557" lon="4.67845">
        <ele>692.6</ele>
        <time>2022-06-25T13:20:45Z</time>
      </trkpt>
      <trkpt lat="46.27552" lon="4.67844">
        <ele>692.6</ele>
        <time>2022-06-25T13:20:46Z</time>
      </trkpt>
      <trkpt lat="46.27547" lon="4.67843">
        <ele>692.6</ele>
        <time>2022-06-25T13:20:47Z</time>
      </trkpt>
      <trkpt lat="46.27542" lon="4.67841">
        <ele>692.2</ele>
        <time>2022-06-25T13:20:48Z</time>
      </trkpt>
      <trkpt lat="46.27537" lon="4.6784">
        <ele>692.2</ele>
        <time>2022-06-25T13:20:49Z</time>
      </trkpt>
      <trkpt lat="46.27532" lon="4.67838">
        <ele>692</ele>
        <time>2022-06-25T13:20:50Z</time>
      </trkpt>
      <trkpt lat="46.27526" lon="4.67835">
        <ele>692</ele>
        <time>2022-06-25T13:20:51Z</time>
      </trkpt>
      <trkpt lat="46.27522" lon="4.67833">
        <ele>691.8</ele>
        <time>2022-06-25T13:20:52Z</time>
      </trkpt>
      <trkpt lat="46.27517" lon="4.6783">
        <ele>691.8</ele>
        <time>2022-06-25T13:20:53Z</time>
      </trkpt>
      <trkpt lat="46.27513" lon="4.67827">
        <ele>691.6</ele>
        <time>2022-06-25T13:20:54Z</time>
      </trkpt>
      <trkpt lat="46.27509" lon="4.67823">
        <ele>691.6</ele>
        <time>2022-06-25T13:20:55Z</time>
      </trkpt>
      <trkpt lat="46.27504" lon="4.67819">
        <ele>691.2</ele>
        <time>2022-06-25T13:20:56Z</time>
      </trkpt>
      <trkpt lat="46.275" lon="4.67815">
        <ele>691.2</ele>
        <time>2022-06-25T13:20:57Z</time>
      </trkpt>
      <trkpt lat="46.27495" lon="4.6781">
        <ele>691</ele>
        <time>2022-06-25T13:20:58Z</time>
      </trkpt>
      <trkpt lat="46.27491" lon="4.67804">
        <ele>691</ele>
        <time>2022-06-25T13:20:59Z</time>
      </trkpt>
      <trkpt lat="46.27488" lon="4.67798">
        <ele>690.6</ele>
        <time>2022-06-25T13:21:00Z</time>
      </trkpt>
      <trkpt lat="46.27485" lon="4.67792">
        <ele>690.6</ele>
        <time>2022-06-25T13:21:01Z</time>
      </trkpt>
      <trkpt lat="46.27482" lon="4.67785">
        <ele>690.4</ele>
        <time>2022-06-25T13:21:02Z</time>
      </trkpt>
      <trkpt lat="46.2748" lon="4.67778">
        <ele>690.4</ele>
        <time>2022-06-25T13:21:03Z</time>
      </trkpt>
      <trkpt lat="46.27478" lon="4.6777">
        <ele>690.2</ele>
        <time>2022-06-25T13:21:04Z</time>
      </trkpt>
      <trkpt lat="46.27475" lon="4.67761">
        <ele>690.2</ele>
        <time>2022-06-25T13:21:05Z</time>
      </trkpt>
      <trkpt lat="46.27473" lon="4.67752">
        <ele>690</ele>
        <time>2022-06-25T13:21:06Z</time>
      </trkpt>
      <trkpt lat="46.2747" lon="4.67744">
        <ele>690</ele>
        <time>2022-06-25T13:21:07Z</time>
      </trkpt>
      <trkpt lat="46.27468" lon="4.67735">
        <ele>690</ele>
        <time>2022-06-25T13:21:08Z</time>
      </trkpt>
      <trkpt lat="46.27466" lon="4.67726">
        <ele>689.8</ele>
        <time>2022-06-25T13:21:09Z</time>
      </trkpt>
      <trkpt lat="46.27463" lon="4.67717">
        <ele>689.8</ele>
        <time>2022-06-25T13:21:10Z</time>
      </trkpt>
      <trkpt lat="46.2746" lon="4.67707">
        <ele>689.8</ele>
        <time>2022-06-25T13:21:11Z</time>
      </trkpt>
      <trkpt lat="46.27456" lon="4.67696">
        <ele>689.8</ele>
        <time>2022-06-25T13:21:12Z</time>
      </trkpt>
      <trkpt lat="46.27453" lon="4.67686">
        <ele>689.8</ele>
        <time>2022-06-25T13:21:13Z</time>
      </trkpt>
      <trkpt lat="46.27444" lon="4.67666">
        <ele>689.8</ele>
        <time>2022-06-25T13:21:14Z</time>
      </trkpt>
      <trkpt lat="46.27441" lon="4.67656">
        <ele>689.4</ele>
        <time>2022-06-25T13:21:16Z</time>
      </trkpt>
      <trkpt lat="46.27437" lon="4.67646">
        <ele>689.4</ele>
        <time>2022-06-25T13:21:17Z</time>
      </trkpt>
      <trkpt lat="46.27433" lon="4.67636">
        <ele>689.4</ele>
        <time>2022-06-25T13:21:18Z</time>
      </trkpt>
      <trkpt lat="46.2743" lon="4.67626">
        <ele>689.4</ele>
        <time>2022-06-25T13:21:19Z</time>
      </trkpt>
      <trkpt lat="46.27427" lon="4.67616">
        <ele>689.4</ele>
        <time>2022-06-25T13:21:20Z</time>
      </trkpt>
      <trkpt lat="46.27424" lon="4.67607">
        <ele>689.4</ele>
        <time>2022-06-25T13:21:21Z</time>
      </trkpt>
      <trkpt lat="46.27421" lon="4.67597">
        <ele>689.4</ele>
        <time>2022-06-25T13:21:22Z</time>
      </trkpt>
      <trkpt lat="46.27418" lon="4.67588">
        <ele>689.4</ele>
        <time>2022-06-25T13:21:23Z</time>
      </trkpt>
      <trkpt lat="46.27415" lon="4.67579">
        <ele>689.4</ele>
        <time>2022-06-25T13:21:24Z</time>
      </trkpt>
      <trkpt lat="46.27412" lon="4.6757">
        <ele>689.4</ele>
        <time>2022-06-25T13:21:25Z</time>
      </trkpt>
      <trkpt lat="46.27407" lon="4.67557">
        <ele>689.4</ele>
        <time>2022-06-25T13:21:26Z</time>
      </trkpt>
      <trkpt lat="46.27406" lon="4.67553">
        <ele>689</ele>
        <time>2022-06-25T13:21:27Z</time>
      </trkpt>
      <trkpt lat="46.27403" lon="4.67544">
        <ele>689</ele>
        <time>2022-06-25T13:21:28Z</time>
      </trkpt>
      <trkpt lat="46.27399" lon="4.67537">
        <ele>688.8</ele>
        <time>2022-06-25T13:21:29Z</time>
      </trkpt>
      <trkpt lat="46.27396" lon="4.67529">
        <ele>688.8</ele>
        <time>2022-06-25T13:21:30Z</time>
      </trkpt>
      <trkpt lat="46.27391" lon="4.67522">
        <ele>688.4</ele>
        <time>2022-06-25T13:21:31Z</time>
      </trkpt>
      <trkpt lat="46.27386" lon="4.67515">
        <ele>688.4</ele>
        <time>2022-06-25T13:21:32Z</time>
      </trkpt>
      <trkpt lat="46.27381" lon="4.67508">
        <ele>688.2</ele>
        <time>2022-06-25T13:21:33Z</time>
      </trkpt>
      <trkpt lat="46.27376" lon="4.67501">
        <ele>688</ele>
        <time>2022-06-25T13:21:34Z</time>
      </trkpt>
      <trkpt lat="46.2737" lon="4.67496">
        <ele>687.8</ele>
        <time>2022-06-25T13:21:35Z</time>
      </trkpt>
      <trkpt lat="46.27363" lon="4.67491">
        <ele>687.8</ele>
        <time>2022-06-25T13:21:36Z</time>
      </trkpt>
      <trkpt lat="46.27357" lon="4.67487">
        <ele>687.4</ele>
        <time>2022-06-25T13:21:37Z</time>
      </trkpt>
      <trkpt lat="46.2735" lon="4.67485">
        <ele>687.4</ele>
        <time>2022-06-25T13:21:38Z</time>
      </trkpt>
      <trkpt lat="46.27343" lon="4.67484">
        <ele>687.4</ele>
        <time>2022-06-25T13:21:39Z</time>
      </trkpt>
      <trkpt lat="46.27337" lon="4.67484">
        <ele>687.4</ele>
        <time>2022-06-25T13:21:40Z</time>
      </trkpt>
      <trkpt lat="46.27331" lon="4.67485">
        <ele>687.8</ele>
        <time>2022-06-25T13:21:41Z</time>
      </trkpt>
      <trkpt lat="46.27326" lon="4.67486">
        <ele>688</ele>
        <time>2022-06-25T13:21:42Z</time>
      </trkpt>
      <trkpt lat="46.27321" lon="4.67487">
        <ele>688.2</ele>
        <time>2022-06-25T13:21:43Z</time>
      </trkpt>
      <trkpt lat="46.27316" lon="4.67487">
        <ele>688.4</ele>
        <time>2022-06-25T13:21:44Z</time>
      </trkpt>
      <trkpt lat="46.27311" lon="4.67488">
        <ele>688.6</ele>
        <time>2022-06-25T13:21:45Z</time>
      </trkpt>
      <trkpt lat="46.27306" lon="4.67489">
        <ele>689</ele>
        <time>2022-06-25T13:21:46Z</time>
      </trkpt>
      <trkpt lat="46.27302" lon="4.6749">
        <ele>689.4</ele>
        <time>2022-06-25T13:21:47Z</time>
      </trkpt>
      <trkpt lat="46.27297" lon="4.67491">
        <ele>689.6</ele>
        <time>2022-06-25T13:21:48Z</time>
      </trkpt>
      <trkpt lat="46.27292" lon="4.67491">
        <ele>690</ele>
        <time>2022-06-25T13:21:49Z</time>
      </trkpt>
      <trkpt lat="46.27288" lon="4.67492">
        <ele>690.4</ele>
        <time>2022-06-25T13:21:50Z</time>
      </trkpt>
      <trkpt lat="46.27284" lon="4.67492">
        <ele>690.6</ele>
        <time>2022-06-25T13:21:51Z</time>
      </trkpt>
      <trkpt lat="46.27279" lon="4.67491">
        <ele>691</ele>
        <time>2022-06-25T13:21:52Z</time>
      </trkpt>
      <trkpt lat="46.27275" lon="4.6749">
        <ele>691.4</ele>
        <time>2022-06-25T13:21:53Z</time>
      </trkpt>
      <trkpt lat="46.27271" lon="4.67488">
        <ele>691.6</ele>
        <time>2022-06-25T13:21:54Z</time>
      </trkpt>
      <trkpt lat="46.27267" lon="4.67486">
        <ele>692</ele>
        <time>2022-06-25T13:21:55Z</time>
      </trkpt>
      <trkpt lat="46.27264" lon="4.67483">
        <ele>692</ele>
        <time>2022-06-25T13:21:56Z</time>
      </trkpt>
      <trkpt lat="46.27261" lon="4.6748">
        <ele>692</ele>
        <time>2022-06-25T13:21:57Z</time>
      </trkpt>
      <trkpt lat="46.27258" lon="4.67478">
        <ele>692</ele>
        <time>2022-06-25T13:21:58Z</time>
      </trkpt>
      <trkpt lat="46.27255" lon="4.67475">
        <ele>692.6</ele>
        <time>2022-06-25T13:21:59Z</time>
      </trkpt>
      <trkpt lat="46.27252" lon="4.67473">
        <ele>692.8</ele>
        <time>2022-06-25T13:22:00Z</time>
      </trkpt>
      <trkpt lat="46.2725" lon="4.6747">
        <ele>692.8</ele>
        <time>2022-06-25T13:22:01Z</time>
      </trkpt>
      <trkpt lat="46.27247" lon="4.67467">
        <ele>693.2</ele>
        <time>2022-06-25T13:22:02Z</time>
      </trkpt>
      <trkpt lat="46.27244" lon="4.67464">
        <ele>693.2</ele>
        <time>2022-06-25T13:22:03Z</time>
      </trkpt>
      <trkpt lat="46.27242" lon="4.67461">
        <ele>693.6</ele>
        <time>2022-06-25T13:22:04Z</time>
      </trkpt>
      <trkpt lat="46.27239" lon="4.67458">
        <ele>693.8</ele>
        <time>2022-06-25T13:22:05Z</time>
      </trkpt>
      <trkpt lat="46.27236" lon="4.67455">
        <ele>694</ele>
        <time>2022-06-25T13:22:06Z</time>
      </trkpt>
      <trkpt lat="46.27233" lon="4.67452">
        <ele>694.4</ele>
        <time>2022-06-25T13:22:07Z</time>
      </trkpt>
      <trkpt lat="46.2723" lon="4.67449">
        <ele>694.4</ele>
        <time>2022-06-25T13:22:08Z</time>
      </trkpt>
      <trkpt lat="46.27228" lon="4.67446">
        <ele>694.6</ele>
        <time>2022-06-25T13:22:09Z</time>
      </trkpt>
      <trkpt lat="46.27225" lon="4.67443">
        <ele>694.6</ele>
        <time>2022-06-25T13:22:10Z</time>
      </trkpt>
      <trkpt lat="46.27222" lon="4.67441">
        <ele>695</ele>
        <time>2022-06-25T13:22:11Z</time>
      </trkpt>
      <trkpt lat="46.27219" lon="4.67438">
        <ele>695</ele>
        <time>2022-06-25T13:22:12Z</time>
      </trkpt>
      <trkpt lat="46.27217" lon="4.67435">
        <ele>695.4</ele>
        <time>2022-06-25T13:22:13Z</time>
      </trkpt>
      <trkpt lat="46.27214" lon="4.67433">
        <ele>695.4</ele>
        <time>2022-06-25T13:22:14Z</time>
      </trkpt>
      <trkpt lat="46.27211" lon="4.6743">
        <ele>696</ele>
        <time>2022-06-25T13:22:15Z</time>
      </trkpt>
      <trkpt lat="46.27209" lon="4.67428">
        <ele>696</ele>
        <time>2022-06-25T13:22:16Z</time>
      </trkpt>
      <trkpt lat="46.27206" lon="4.67425">
        <ele>696</ele>
        <time>2022-06-25T13:22:17Z</time>
      </trkpt>
      <trkpt lat="46.27203" lon="4.67422">
        <ele>696.2</ele>
        <time>2022-06-25T13:22:18Z</time>
      </trkpt>
      <trkpt lat="46.272" lon="4.6742">
        <ele>696.2</ele>
        <time>2022-06-25T13:22:19Z</time>
      </trkpt>
      <trkpt lat="46.27198" lon="4.67417">
        <ele>696.4</ele>
        <time>2022-06-25T13:22:20Z</time>
      </trkpt>
      <trkpt lat="46.27195" lon="4.67415">
        <ele>696.4</ele>
        <time>2022-06-25T13:22:21Z</time>
      </trkpt>
      <trkpt lat="46.27193" lon="4.67413">
        <ele>696.8</ele>
        <time>2022-06-25T13:22:22Z</time>
      </trkpt>
      <trkpt lat="46.2719" lon="4.6741">
        <ele>696.8</ele>
        <time>2022-06-25T13:22:23Z</time>
      </trkpt>
      <trkpt lat="46.27187" lon="4.67408">
        <ele>697</ele>
        <time>2022-06-25T13:22:24Z</time>
      </trkpt>
      <trkpt lat="46.27184" lon="4.67406">
        <ele>697</ele>
        <time>2022-06-25T13:22:25Z</time>
      </trkpt>
      <trkpt lat="46.27182" lon="4.67403">
        <ele>697</ele>
        <time>2022-06-25T13:22:26Z</time>
      </trkpt>
      <trkpt lat="46.27179" lon="4.67401">
        <ele>697.4</ele>
        <time>2022-06-25T13:22:27Z</time>
      </trkpt>
      <trkpt lat="46.27176" lon="4.67398">
        <ele>697.4</ele>
        <time>2022-06-25T13:22:28Z</time>
      </trkpt>
      <trkpt lat="46.27173" lon="4.67396">
        <ele>697.6</ele>
        <time>2022-06-25T13:22:29Z</time>
      </trkpt>
      <trkpt lat="46.2717" lon="4.67394">
        <ele>697.6</ele>
        <time>2022-06-25T13:22:30Z</time>
      </trkpt>
      <trkpt lat="46.27168" lon="4.67391">
        <ele>698</ele>
        <time>2022-06-25T13:22:31Z</time>
      </trkpt>
      <trkpt lat="46.27165" lon="4.67389">
        <ele>698</ele>
        <time>2022-06-25T13:22:32Z</time>
      </trkpt>
      <trkpt lat="46.27162" lon="4.67385">
        <ele>698.2</ele>
        <time>2022-06-25T13:22:33Z</time>
      </trkpt>
      <trkpt lat="46.27159" lon="4.67382">
        <ele>698.2</ele>
        <time>2022-06-25T13:22:34Z</time>
      </trkpt>
      <trkpt lat="46.27156" lon="4.67379">
        <ele>698.4</ele>
        <time>2022-06-25T13:22:35Z</time>
      </trkpt>
      <trkpt lat="46.27154" lon="4.67377">
        <ele>698.4</ele>
        <time>2022-06-25T13:22:36Z</time>
      </trkpt>
      <trkpt lat="46.27151" lon="4.67374">
        <ele>698.8</ele>
        <time>2022-06-25T13:22:37Z</time>
      </trkpt>
      <trkpt lat="46.27148" lon="4.67371">
        <ele>698.8</ele>
        <time>2022-06-25T13:22:38Z</time>
      </trkpt>
      <trkpt lat="46.27146" lon="4.67368">
        <ele>699</ele>
        <time>2022-06-25T13:22:39Z</time>
      </trkpt>
      <trkpt lat="46.27143" lon="4.67366">
        <ele>699</ele>
        <time>2022-06-25T13:22:40Z</time>
      </trkpt>
      <trkpt lat="46.2714" lon="4.67363">
        <ele>699.4</ele>
        <time>2022-06-25T13:22:41Z</time>
      </trkpt>
      <trkpt lat="46.27137" lon="4.67361">
        <ele>699.4</ele>
        <time>2022-06-25T13:22:42Z</time>
      </trkpt>
      <trkpt lat="46.27134" lon="4.67359">
        <ele>699.6</ele>
        <time>2022-06-25T13:22:43Z</time>
      </trkpt>
      <trkpt lat="46.27131" lon="4.67357">
        <ele>699.6</ele>
        <time>2022-06-25T13:22:44Z</time>
      </trkpt>
      <trkpt lat="46.27128" lon="4.67356">
        <ele>700</ele>
        <time>2022-06-25T13:22:45Z</time>
      </trkpt>
      <trkpt lat="46.27126" lon="4.67354">
        <ele>700</ele>
        <time>2022-06-25T13:22:46Z</time>
      </trkpt>
      <trkpt lat="46.27123" lon="4.67352">
        <ele>700.2</ele>
        <time>2022-06-25T13:22:47Z</time>
      </trkpt>
      <trkpt lat="46.2712" lon="4.6735">
        <ele>700.2</ele>
        <time>2022-06-25T13:22:48Z</time>
      </trkpt>
      <trkpt lat="46.27117" lon="4.67349">
        <ele>700.4</ele>
        <time>2022-06-25T13:22:49Z</time>
      </trkpt>
      <trkpt lat="46.27114" lon="4.67348">
        <ele>700.4</ele>
        <time>2022-06-25T13:22:50Z</time>
      </trkpt>
      <trkpt lat="46.27111" lon="4.67346">
        <ele>700.8</ele>
        <time>2022-06-25T13:22:51Z</time>
      </trkpt>
      <trkpt lat="46.27108" lon="4.67345">
        <ele>700.8</ele>
        <time>2022-06-25T13:22:52Z</time>
      </trkpt>
      <trkpt lat="46.27105" lon="4.67344">
        <ele>701.2</ele>
        <time>2022-06-25T13:22:53Z</time>
      </trkpt>
      <trkpt lat="46.27102" lon="4.67343">
        <ele>701.4</ele>
        <time>2022-06-25T13:22:54Z</time>
      </trkpt>
      <trkpt lat="46.27099" lon="4.67342">
        <ele>701.4</ele>
        <time>2022-06-25T13:22:55Z</time>
      </trkpt>
      <trkpt lat="46.27096" lon="4.67341">
        <ele>701.8</ele>
        <time>2022-06-25T13:22:56Z</time>
      </trkpt>
      <trkpt lat="46.27093" lon="4.6734">
        <ele>701.8</ele>
        <time>2022-06-25T13:22:57Z</time>
      </trkpt>
      <trkpt lat="46.2709" lon="4.67339">
        <ele>702.2</ele>
        <time>2022-06-25T13:22:58Z</time>
      </trkpt>
      <trkpt lat="46.27088" lon="4.67338">
        <ele>702.2</ele>
        <time>2022-06-25T13:22:59Z</time>
      </trkpt>
      <trkpt lat="46.27085" lon="4.67336">
        <ele>702.4</ele>
        <time>2022-06-25T13:23:00Z</time>
      </trkpt>
      <trkpt lat="46.27082" lon="4.67335">
        <ele>702.8</ele>
        <time>2022-06-25T13:23:01Z</time>
      </trkpt>
      <trkpt lat="46.27079" lon="4.67334">
        <ele>702.8</ele>
        <time>2022-06-25T13:23:02Z</time>
      </trkpt>
      <trkpt lat="46.27076" lon="4.67332">
        <ele>703</ele>
        <time>2022-06-25T13:23:03Z</time>
      </trkpt>
      <trkpt lat="46.27074" lon="4.6733">
        <ele>703</ele>
        <time>2022-06-25T13:23:04Z</time>
      </trkpt>
      <trkpt lat="46.27071" lon="4.67329">
        <ele>703</ele>
        <time>2022-06-25T13:23:05Z</time>
      </trkpt>
      <trkpt lat="46.27068" lon="4.67327">
        <ele>703.2</ele>
        <time>2022-06-25T13:23:06Z</time>
      </trkpt>
      <trkpt lat="46.27065" lon="4.67325">
        <ele>703.2</ele>
        <time>2022-06-25T13:23:07Z</time>
      </trkpt>
      <trkpt lat="46.27062" lon="4.67323">
        <ele>703.2</ele>
        <time>2022-06-25T13:23:08Z</time>
      </trkpt>
      <trkpt lat="46.27059" lon="4.67321">
        <ele>703.6</ele>
        <time>2022-06-25T13:23:09Z</time>
      </trkpt>
      <trkpt lat="46.27056" lon="4.67319">
        <ele>703.6</ele>
        <time>2022-06-25T13:23:10Z</time>
      </trkpt>
      <trkpt lat="46.27053" lon="4.67316">
        <ele>703.6</ele>
        <time>2022-06-25T13:23:11Z</time>
      </trkpt>
      <trkpt lat="46.2705" lon="4.67314">
        <ele>704</ele>
        <time>2022-06-25T13:23:12Z</time>
      </trkpt>
      <trkpt lat="46.27046" lon="4.67312">
        <ele>704</ele>
        <time>2022-06-25T13:23:13Z</time>
      </trkpt>
      <trkpt lat="46.27043" lon="4.6731">
        <ele>704.2</ele>
        <time>2022-06-25T13:23:14Z</time>
      </trkpt>
      <trkpt lat="46.2704" lon="4.67308">
        <ele>704.2</ele>
        <time>2022-06-25T13:23:15Z</time>
      </trkpt>
      <trkpt lat="46.27037" lon="4.67306">
        <ele>704.6</ele>
        <time>2022-06-25T13:23:16Z</time>
      </trkpt>
      <trkpt lat="46.27033" lon="4.67304">
        <ele>704.6</ele>
        <time>2022-06-25T13:23:17Z</time>
      </trkpt>
      <trkpt lat="46.2703" lon="4.67302">
        <ele>704.8</ele>
        <time>2022-06-25T13:23:18Z</time>
      </trkpt>
      <trkpt lat="46.27027" lon="4.67299">
        <ele>704.8</ele>
        <time>2022-06-25T13:23:19Z</time>
      </trkpt>
      <trkpt lat="46.27024" lon="4.67297">
        <ele>705.2</ele>
        <time>2022-06-25T13:23:20Z</time>
      </trkpt>
      <trkpt lat="46.2702" lon="4.67295">
        <ele>705.2</ele>
        <time>2022-06-25T13:23:21Z</time>
      </trkpt>
      <trkpt lat="46.27017" lon="4.67293">
        <ele>705.2</ele>
        <time>2022-06-25T13:23:22Z</time>
      </trkpt>
      <trkpt lat="46.27013" lon="4.67292">
        <ele>705.4</ele>
        <time>2022-06-25T13:23:23Z</time>
      </trkpt>
      <trkpt lat="46.2701" lon="4.6729">
        <ele>705.4</ele>
        <time>2022-06-25T13:23:24Z</time>
      </trkpt>
      <trkpt lat="46.27006" lon="4.67289">
        <ele>705.6</ele>
        <time>2022-06-25T13:23:25Z</time>
      </trkpt>
      <trkpt lat="46.27002" lon="4.67287">
        <ele>705.6</ele>
        <time>2022-06-25T13:23:26Z</time>
      </trkpt>
      <trkpt lat="46.26999" lon="4.67286">
        <ele>706</ele>
        <time>2022-06-25T13:23:27Z</time>
      </trkpt>
      <trkpt lat="46.26995" lon="4.67284">
        <ele>706</ele>
        <time>2022-06-25T13:23:28Z</time>
      </trkpt>
      <trkpt lat="46.26992" lon="4.67282">
        <ele>706</ele>
        <time>2022-06-25T13:23:29Z</time>
      </trkpt>
      <trkpt lat="46.26988" lon="4.67281">
        <ele>706.2</ele>
        <time>2022-06-25T13:23:30Z</time>
      </trkpt>
      <trkpt lat="46.26984" lon="4.6728">
        <ele>706.2</ele>
        <time>2022-06-25T13:23:31Z</time>
      </trkpt>
      <trkpt lat="46.2698" lon="4.67279">
        <ele>706.2</ele>
        <time>2022-06-25T13:23:32Z</time>
      </trkpt>
      <trkpt lat="46.26977" lon="4.67278">
        <ele>706.2</ele>
        <time>2022-06-25T13:23:33Z</time>
      </trkpt>
      <trkpt lat="46.26973" lon="4.67277">
        <ele>706.2</ele>
        <time>2022-06-25T13:23:34Z</time>
      </trkpt>
      <trkpt lat="46.26969" lon="4.67276">
        <ele>706.2</ele>
        <time>2022-06-25T13:23:35Z</time>
      </trkpt>
      <trkpt lat="46.26965" lon="4.67275">
        <ele>706.2</ele>
        <time>2022-06-25T13:23:36Z</time>
      </trkpt>
      <trkpt lat="46.2696" lon="4.67275">
        <ele>706.2</ele>
        <time>2022-06-25T13:23:37Z</time>
      </trkpt>
      <trkpt lat="46.26956" lon="4.67273">
        <ele>706.2</ele>
        <time>2022-06-25T13:23:38Z</time>
      </trkpt>
      <trkpt lat="46.26951" lon="4.67271">
        <ele>706</ele>
        <time>2022-06-25T13:23:39Z</time>
      </trkpt>
      <trkpt lat="46.26947" lon="4.67269">
        <ele>706</ele>
        <time>2022-06-25T13:23:40Z</time>
      </trkpt>
      <trkpt lat="46.26941" lon="4.67268">
        <ele>705.8</ele>
        <time>2022-06-25T13:23:41Z</time>
      </trkpt>
      <trkpt lat="46.26936" lon="4.67266">
        <ele>705.8</ele>
        <time>2022-06-25T13:23:42Z</time>
      </trkpt>
      <trkpt lat="46.2693" lon="4.67263">
        <ele>705.4</ele>
        <time>2022-06-25T13:23:43Z</time>
      </trkpt>
      <trkpt lat="46.26925" lon="4.67261">
        <ele>705.2</ele>
        <time>2022-06-25T13:23:44Z</time>
      </trkpt>
      <trkpt lat="46.26918" lon="4.67258">
        <ele>705.2</ele>
        <time>2022-06-25T13:23:45Z</time>
      </trkpt>
      <trkpt lat="46.26912" lon="4.67255">
        <ele>704.8</ele>
        <time>2022-06-25T13:23:46Z</time>
      </trkpt>
      <trkpt lat="46.26905" lon="4.67251">
        <ele>704.8</ele>
        <time>2022-06-25T13:23:47Z</time>
      </trkpt>
      <trkpt lat="46.26899" lon="4.67247">
        <ele>704.4</ele>
        <time>2022-06-25T13:23:48Z</time>
      </trkpt>
      <trkpt lat="46.26892" lon="4.67243">
        <ele>704.4</ele>
        <time>2022-06-25T13:23:49Z</time>
      </trkpt>
      <trkpt lat="46.26885" lon="4.67239">
        <ele>704.2</ele>
        <time>2022-06-25T13:23:50Z</time>
      </trkpt>
      <trkpt lat="46.26879" lon="4.67234">
        <ele>704.2</ele>
        <time>2022-06-25T13:23:51Z</time>
      </trkpt>
      <trkpt lat="46.26872" lon="4.67229">
        <ele>703.6</ele>
        <time>2022-06-25T13:23:52Z</time>
      </trkpt>
      <trkpt lat="46.26865" lon="4.67224">
        <ele>703.2</ele>
        <time>2022-06-25T13:23:53Z</time>
      </trkpt>
      <trkpt lat="46.26858" lon="4.6722">
        <ele>703</ele>
        <time>2022-06-25T13:23:54Z</time>
      </trkpt>
      <trkpt lat="46.26851" lon="4.67215">
        <ele>702.6</ele>
        <time>2022-06-25T13:23:55Z</time>
      </trkpt>
      <trkpt lat="46.26844" lon="4.6721">
        <ele>702.4</ele>
        <time>2022-06-25T13:23:56Z</time>
      </trkpt>
      <trkpt lat="46.26837" lon="4.67204">
        <ele>702</ele>
        <time>2022-06-25T13:23:57Z</time>
      </trkpt>
      <trkpt lat="46.2683" lon="4.67199">
        <ele>701.6</ele>
        <time>2022-06-25T13:23:58Z</time>
      </trkpt>
      <trkpt lat="46.26822" lon="4.67193">
        <ele>701.2</ele>
        <time>2022-06-25T13:23:59Z</time>
      </trkpt>
      <trkpt lat="46.26815" lon="4.67187">
        <ele>700.6</ele>
        <time>2022-06-25T13:24:00Z</time>
      </trkpt>
      <trkpt lat="46.26807" lon="4.67181">
        <ele>700</ele>
        <time>2022-06-25T13:24:01Z</time>
      </trkpt>
      <trkpt lat="46.26798" lon="4.67175">
        <ele>699.6</ele>
        <time>2022-06-25T13:24:02Z</time>
      </trkpt>
      <trkpt lat="46.26789" lon="4.6717">
        <ele>699.2</ele>
        <time>2022-06-25T13:24:03Z</time>
      </trkpt>
      <trkpt lat="46.26779" lon="4.67164">
        <ele>698.8</ele>
        <time>2022-06-25T13:24:04Z</time>
      </trkpt>
      <trkpt lat="46.2677" lon="4.67157">
        <ele>698.2</ele>
        <time>2022-06-25T13:24:05Z</time>
      </trkpt>
      <trkpt lat="46.2676" lon="4.67151">
        <ele>697.6</ele>
        <time>2022-06-25T13:24:06Z</time>
      </trkpt>
      <trkpt lat="46.26752" lon="4.67146">
        <ele>697</ele>
        <time>2022-06-25T13:24:07Z</time>
      </trkpt>
      <trkpt lat="46.26743" lon="4.67144">
        <ele>696.4</ele>
        <time>2022-06-25T13:24:08Z</time>
      </trkpt>
      <trkpt lat="46.26733" lon="4.67141">
        <ele>696</ele>
        <time>2022-06-25T13:24:09Z</time>
      </trkpt>
      <trkpt lat="46.26722" lon="4.67138">
        <ele>695.4</ele>
        <time>2022-06-25T13:24:10Z</time>
      </trkpt>
      <trkpt lat="46.26712" lon="4.67135">
        <ele>694.6</ele>
        <time>2022-06-25T13:24:11Z</time>
      </trkpt>
      <trkpt lat="46.26701" lon="4.67132">
        <ele>693.8</ele>
        <time>2022-06-25T13:24:12Z</time>
      </trkpt>
      <trkpt lat="46.2669" lon="4.6713">
        <ele>693</ele>
        <time>2022-06-25T13:24:13Z</time>
      </trkpt>
      <trkpt lat="46.26679" lon="4.67129">
        <ele>692.2</ele>
        <time>2022-06-25T13:24:14Z</time>
      </trkpt>
      <trkpt lat="46.26668" lon="4.67128">
        <ele>691.6</ele>
        <time>2022-06-25T13:24:15Z</time>
      </trkpt>
      <trkpt lat="46.26657" lon="4.67127">
        <ele>690.8</ele>
        <time>2022-06-25T13:24:16Z</time>
      </trkpt>
      <trkpt lat="46.26646" lon="4.67126">
        <ele>690.2</ele>
        <time>2022-06-25T13:24:17Z</time>
      </trkpt>
      <trkpt lat="46.26635" lon="4.67124">
        <ele>689.4</ele>
        <time>2022-06-25T13:24:18Z</time>
      </trkpt>
      <trkpt lat="46.26626" lon="4.67121">
        <ele>688.6</ele>
        <time>2022-06-25T13:24:19Z</time>
      </trkpt>
      <trkpt lat="46.26616" lon="4.67118">
        <ele>687.8</ele>
        <time>2022-06-25T13:24:20Z</time>
      </trkpt>
      <trkpt lat="46.26609" lon="4.67114">
        <ele>687</ele>
        <time>2022-06-25T13:24:21Z</time>
      </trkpt>
      <trkpt lat="46.26602" lon="4.67108">
        <ele>686.4</ele>
        <time>2022-06-25T13:24:22Z</time>
      </trkpt>
      <trkpt lat="46.26595" lon="4.671">
        <ele>685.6</ele>
        <time>2022-06-25T13:24:23Z</time>
      </trkpt>
      <trkpt lat="46.26589" lon="4.67092">
        <ele>684.8</ele>
        <time>2022-06-25T13:24:24Z</time>
      </trkpt>
      <trkpt lat="46.26583" lon="4.67083">
        <ele>684.2</ele>
        <time>2022-06-25T13:24:25Z</time>
      </trkpt>
      <trkpt lat="46.26579" lon="4.67073">
        <ele>683.6</ele>
        <time>2022-06-25T13:24:26Z</time>
      </trkpt>
      <trkpt lat="46.26575" lon="4.67062">
        <ele>683</ele>
        <time>2022-06-25T13:24:27Z</time>
      </trkpt>
      <trkpt lat="46.26571" lon="4.67051">
        <ele>682.2</ele>
        <time>2022-06-25T13:24:28Z</time>
      </trkpt>
      <trkpt lat="46.26568" lon="4.67039">
        <ele>681.4</ele>
        <time>2022-06-25T13:24:29Z</time>
      </trkpt>
      <trkpt lat="46.26564" lon="4.67028">
        <ele>680.8</ele>
        <time>2022-06-25T13:24:30Z</time>
      </trkpt>
      <trkpt lat="46.2656" lon="4.67016">
        <ele>680.2</ele>
        <time>2022-06-25T13:24:31Z</time>
      </trkpt>
      <trkpt lat="46.26556" lon="4.67003">
        <ele>679.4</ele>
        <time>2022-06-25T13:24:32Z</time>
      </trkpt>
      <trkpt lat="46.2655" lon="4.66989">
        <ele>678.6</ele>
        <time>2022-06-25T13:24:33Z</time>
      </trkpt>
      <trkpt lat="46.26544" lon="4.66976">
        <ele>678</ele>
        <time>2022-06-25T13:24:34Z</time>
      </trkpt>
      <trkpt lat="46.26537" lon="4.66963">
        <ele>677.4</ele>
        <time>2022-06-25T13:24:35Z</time>
      </trkpt>
      <trkpt lat="46.2653" lon="4.66949">
        <ele>676.8</ele>
        <time>2022-06-25T13:24:36Z</time>
      </trkpt>
      <trkpt lat="46.26523" lon="4.66936">
        <ele>676.2</ele>
        <time>2022-06-25T13:24:37Z</time>
      </trkpt>
      <trkpt lat="46.26517" lon="4.66923">
        <ele>675.4</ele>
        <time>2022-06-25T13:24:38Z</time>
      </trkpt>
      <trkpt lat="46.2651" lon="4.6691">
        <ele>674.8</ele>
        <time>2022-06-25T13:24:39Z</time>
      </trkpt>
      <trkpt lat="46.26504" lon="4.66898">
        <ele>674</ele>
        <time>2022-06-25T13:24:40Z</time>
      </trkpt>
      <trkpt lat="46.26498" lon="4.66888">
        <ele>673.2</ele>
        <time>2022-06-25T13:24:41Z</time>
      </trkpt>
      <trkpt lat="46.26491" lon="4.6688">
        <ele>672.6</ele>
        <time>2022-06-25T13:24:42Z</time>
      </trkpt>
      <trkpt lat="46.26487" lon="4.66872">
        <ele>672</ele>
        <time>2022-06-25T13:24:43Z</time>
      </trkpt>
      <trkpt lat="46.26483" lon="4.66866">
        <ele>671.4</ele>
        <time>2022-06-25T13:24:44Z</time>
      </trkpt>
      <trkpt lat="46.2648" lon="4.66859">
        <ele>671</ele>
        <time>2022-06-25T13:24:45Z</time>
      </trkpt>
      <trkpt lat="46.26476" lon="4.66851">
        <ele>670.4</ele>
        <time>2022-06-25T13:24:46Z</time>
      </trkpt>
      <trkpt lat="46.26471" lon="4.66843">
        <ele>670</ele>
        <time>2022-06-25T13:24:47Z</time>
      </trkpt>
      <trkpt lat="46.26468" lon="4.66833">
        <ele>669.6</ele>
        <time>2022-06-25T13:24:48Z</time>
      </trkpt>
      <trkpt lat="46.26465" lon="4.66823">
        <ele>669.2</ele>
        <time>2022-06-25T13:24:49Z</time>
      </trkpt>
      <trkpt lat="46.26463" lon="4.66812">
        <ele>668.8</ele>
        <time>2022-06-25T13:24:50Z</time>
      </trkpt>
      <trkpt lat="46.26461" lon="4.66801">
        <ele>668.6</ele>
        <time>2022-06-25T13:24:51Z</time>
      </trkpt>
      <trkpt lat="46.26459" lon="4.6679">
        <ele>668.4</ele>
        <time>2022-06-25T13:24:52Z</time>
      </trkpt>
      <trkpt lat="46.26457" lon="4.66779">
        <ele>668</ele>
        <time>2022-06-25T13:24:53Z</time>
      </trkpt>
      <trkpt lat="46.26456" lon="4.66767">
        <ele>667.8</ele>
        <time>2022-06-25T13:24:54Z</time>
      </trkpt>
      <trkpt lat="46.26455" lon="4.66754">
        <ele>667.2</ele>
        <time>2022-06-25T13:24:55Z</time>
      </trkpt>
      <trkpt lat="46.26453" lon="4.66742">
        <ele>666.8</ele>
        <time>2022-06-25T13:24:56Z</time>
      </trkpt>
      <trkpt lat="46.26452" lon="4.66729">
        <ele>666.2</ele>
        <time>2022-06-25T13:24:57Z</time>
      </trkpt>
      <trkpt lat="46.26451" lon="4.66718">
        <ele>665.8</ele>
        <time>2022-06-25T13:24:58Z</time>
      </trkpt>
      <trkpt lat="46.26449" lon="4.66707">
        <ele>665.2</ele>
        <time>2022-06-25T13:24:59Z</time>
      </trkpt>
      <trkpt lat="46.26448" lon="4.66697">
        <ele>664.6</ele>
        <time>2022-06-25T13:25:00Z</time>
      </trkpt>
      <trkpt lat="46.26444" lon="4.66687">
        <ele>664</ele>
        <time>2022-06-25T13:25:01Z</time>
      </trkpt>
      <trkpt lat="46.2644" lon="4.66677">
        <ele>663.6</ele>
        <time>2022-06-25T13:25:02Z</time>
      </trkpt>
      <trkpt lat="46.26434" lon="4.66669">
        <ele>663</ele>
        <time>2022-06-25T13:25:03Z</time>
      </trkpt>
      <trkpt lat="46.26428" lon="4.6666">
        <ele>662.4</ele>
        <time>2022-06-25T13:25:04Z</time>
      </trkpt>
      <trkpt lat="46.26421" lon="4.66652">
        <ele>661.8</ele>
        <time>2022-06-25T13:25:05Z</time>
      </trkpt>
      <trkpt lat="46.26413" lon="4.66645">
        <ele>661.4</ele>
        <time>2022-06-25T13:25:06Z</time>
      </trkpt>
      <trkpt lat="46.26407" lon="4.66637">
        <ele>660.8</ele>
        <time>2022-06-25T13:25:07Z</time>
      </trkpt>
      <trkpt lat="46.26399" lon="4.66629">
        <ele>660.2</ele>
        <time>2022-06-25T13:25:08Z</time>
      </trkpt>
      <trkpt lat="46.26391" lon="4.66621">
        <ele>659.6</ele>
        <time>2022-06-25T13:25:09Z</time>
      </trkpt>
      <trkpt lat="46.26382" lon="4.66614">
        <ele>659.2</ele>
        <time>2022-06-25T13:25:10Z</time>
      </trkpt>
      <trkpt lat="46.26373" lon="4.66607">
        <ele>658.6</ele>
        <time>2022-06-25T13:25:11Z</time>
      </trkpt>
      <trkpt lat="46.26362" lon="4.66599">
        <ele>658</ele>
        <time>2022-06-25T13:25:12Z</time>
      </trkpt>
      <trkpt lat="46.26352" lon="4.6659">
        <ele>657.4</ele>
        <time>2022-06-25T13:25:13Z</time>
      </trkpt>
      <trkpt lat="46.26343" lon="4.66581">
        <ele>656.8</ele>
        <time>2022-06-25T13:25:14Z</time>
      </trkpt>
      <trkpt lat="46.26334" lon="4.66572">
        <ele>656.2</ele>
        <time>2022-06-25T13:25:15Z</time>
      </trkpt>
      <trkpt lat="46.26324" lon="4.66562">
        <ele>655.4</ele>
        <time>2022-06-25T13:25:16Z</time>
      </trkpt>
      <trkpt lat="46.26318" lon="4.66551">
        <ele>654.8</ele>
        <time>2022-06-25T13:25:17Z</time>
      </trkpt>
      <trkpt lat="46.26312" lon="4.66538">
        <ele>654</ele>
        <time>2022-06-25T13:25:18Z</time>
      </trkpt>
      <trkpt lat="46.26306" lon="4.66525">
        <ele>653.2</ele>
        <time>2022-06-25T13:25:19Z</time>
      </trkpt>
      <trkpt lat="46.26301" lon="4.66511">
        <ele>652.6</ele>
        <time>2022-06-25T13:25:20Z</time>
      </trkpt>
      <trkpt lat="46.26295" lon="4.66497">
        <ele>651.8</ele>
        <time>2022-06-25T13:25:21Z</time>
      </trkpt>
      <trkpt lat="46.26287" lon="4.66483">
        <ele>651</ele>
        <time>2022-06-25T13:25:22Z</time>
      </trkpt>
      <trkpt lat="46.26279" lon="4.66468">
        <ele>650.2</ele>
        <time>2022-06-25T13:25:23Z</time>
      </trkpt>
      <trkpt lat="46.26272" lon="4.66455">
        <ele>649.2</ele>
        <time>2022-06-25T13:25:24Z</time>
      </trkpt>
      <trkpt lat="46.26267" lon="4.66442">
        <ele>648.4</ele>
        <time>2022-06-25T13:25:25Z</time>
      </trkpt>
      <trkpt lat="46.26262" lon="4.66429">
        <ele>647.6</ele>
        <time>2022-06-25T13:25:26Z</time>
      </trkpt>
      <trkpt lat="46.26258" lon="4.66416">
        <ele>646.8</ele>
        <time>2022-06-25T13:25:27Z</time>
      </trkpt>
      <trkpt lat="46.26254" lon="4.66406">
        <ele>646.2</ele>
        <time>2022-06-25T13:25:28Z</time>
      </trkpt>
      <trkpt lat="46.26251" lon="4.66397">
        <ele>645.4</ele>
        <time>2022-06-25T13:25:29Z</time>
      </trkpt>
      <trkpt lat="46.26248" lon="4.66389">
        <ele>644.8</ele>
        <time>2022-06-25T13:25:30Z</time>
      </trkpt>
      <trkpt lat="46.26246" lon="4.66382">
        <ele>644.2</ele>
        <time>2022-06-25T13:25:31Z</time>
      </trkpt>
      <trkpt lat="46.26244" lon="4.66376">
        <ele>643.8</ele>
        <time>2022-06-25T13:25:32Z</time>
      </trkpt>
      <trkpt lat="46.26242" lon="4.66371">
        <ele>643.2</ele>
        <time>2022-06-25T13:25:33Z</time>
      </trkpt>
      <trkpt lat="46.26241" lon="4.66368">
        <ele>643</ele>
        <time>2022-06-25T13:25:34Z</time>
      </trkpt>
      <trkpt lat="46.26239" lon="4.66364">
        <ele>642.6</ele>
        <time>2022-06-25T13:25:35Z</time>
      </trkpt>
      <trkpt lat="46.26238" lon="4.66361">
        <ele>642.4</ele>
        <time>2022-06-25T13:25:36Z</time>
      </trkpt>
      <trkpt lat="46.26237" lon="4.66358">
        <ele>642</ele>
        <time>2022-06-25T13:25:37Z</time>
      </trkpt>
      <trkpt lat="46.26236" lon="4.66357">
        <ele>641.8</ele>
        <time>2022-06-25T13:25:38Z</time>
      </trkpt>
      <trkpt lat="46.26234" lon="4.66354">
        <ele>641</ele>
        <time>2022-06-25T13:26:26Z</time>
      </trkpt>
      <trkpt lat="46.26232" lon="4.66352">
        <ele>640.8</ele>
        <time>2022-06-25T13:26:27Z</time>
      </trkpt>
      <trkpt lat="46.26231" lon="4.66349">
        <ele>640.8</ele>
        <time>2022-06-25T13:26:28Z</time>
      </trkpt>
      <trkpt lat="46.26229" lon="4.66345">
        <ele>640.8</ele>
        <time>2022-06-25T13:26:29Z</time>
      </trkpt>
      <trkpt lat="46.26227" lon="4.66341">
        <ele>640.6</ele>
        <time>2022-06-25T13:26:30Z</time>
      </trkpt>
      <trkpt lat="46.26225" lon="4.66337">
        <ele>640.6</ele>
        <time>2022-06-25T13:26:31Z</time>
      </trkpt>
      <trkpt lat="46.26222" lon="4.66332">
        <ele>640.4</ele>
        <time>2022-06-25T13:26:32Z</time>
      </trkpt>
      <trkpt lat="46.26219" lon="4.66327">
        <ele>640.4</ele>
        <time>2022-06-25T13:26:33Z</time>
      </trkpt>
      <trkpt lat="46.26215" lon="4.66322">
        <ele>640</ele>
        <time>2022-06-25T13:26:34Z</time>
      </trkpt>
      <trkpt lat="46.26212" lon="4.66316">
        <ele>639.8</ele>
        <time>2022-06-25T13:26:35Z</time>
      </trkpt>
      <trkpt lat="46.26208" lon="4.6631">
        <ele>639.6</ele>
        <time>2022-06-25T13:26:36Z</time>
      </trkpt>
      <trkpt lat="46.26203" lon="4.66303">
        <ele>639.6</ele>
        <time>2022-06-25T13:26:37Z</time>
      </trkpt>
      <trkpt lat="46.26199" lon="4.66295">
        <ele>638.6</ele>
        <time>2022-06-25T13:26:39Z</time>
      </trkpt>
      <trkpt lat="46.26195" lon="4.66286">
        <ele>638.2</ele>
        <time>2022-06-25T13:26:40Z</time>
      </trkpt>
      <trkpt lat="46.26191" lon="4.66276">
        <ele>637.8</ele>
        <time>2022-06-25T13:26:41Z</time>
      </trkpt>
      <trkpt lat="46.26188" lon="4.66266">
        <ele>637.4</ele>
        <time>2022-06-25T13:26:42Z</time>
      </trkpt>
      <trkpt lat="46.26184" lon="4.66254">
        <ele>637</ele>
        <time>2022-06-25T13:26:43Z</time>
      </trkpt>
      <trkpt lat="46.26182" lon="4.66242">
        <ele>636.6</ele>
        <time>2022-06-25T13:26:44Z</time>
      </trkpt>
      <trkpt lat="46.26181" lon="4.66229">
        <ele>636.2</ele>
        <time>2022-06-25T13:26:45Z</time>
      </trkpt>
      <trkpt lat="46.2618" lon="4.66216">
        <ele>636</ele>
        <time>2022-06-25T13:26:46Z</time>
      </trkpt>
      <trkpt lat="46.2618" lon="4.66202">
        <ele>635.8</ele>
        <time>2022-06-25T13:26:47Z</time>
      </trkpt>
      <trkpt lat="46.2618" lon="4.66187">
        <ele>635.4</ele>
        <time>2022-06-25T13:26:48Z</time>
      </trkpt>
      <trkpt lat="46.2618" lon="4.66173">
        <ele>635.4</ele>
        <time>2022-06-25T13:26:49Z</time>
      </trkpt>
      <trkpt lat="46.2618" lon="4.66158">
        <ele>635</ele>
        <time>2022-06-25T13:26:50Z</time>
      </trkpt>
      <trkpt lat="46.2618" lon="4.66145">
        <ele>634.6</ele>
        <time>2022-06-25T13:26:51Z</time>
      </trkpt>
      <trkpt lat="46.26178" lon="4.66133">
        <ele>634.2</ele>
        <time>2022-06-25T13:26:52Z</time>
      </trkpt>
      <trkpt lat="46.26176" lon="4.66122">
        <ele>633.8</ele>
        <time>2022-06-25T13:26:53Z</time>
      </trkpt>
      <trkpt lat="46.26172" lon="4.6611">
        <ele>633.2</ele>
        <time>2022-06-25T13:26:54Z</time>
      </trkpt>
      <trkpt lat="46.26167" lon="4.66101">
        <ele>632.8</ele>
        <time>2022-06-25T13:26:55Z</time>
      </trkpt>
      <trkpt lat="46.26161" lon="4.66092">
        <ele>632.4</ele>
        <time>2022-06-25T13:26:56Z</time>
      </trkpt>
      <trkpt lat="46.26155" lon="4.66084">
        <ele>632</ele>
        <time>2022-06-25T13:26:57Z</time>
      </trkpt>
      <trkpt lat="46.26149" lon="4.66076">
        <ele>631.4</ele>
        <time>2022-06-25T13:26:58Z</time>
      </trkpt>
      <trkpt lat="46.26144" lon="4.66069">
        <ele>630.8</ele>
        <time>2022-06-25T13:26:59Z</time>
      </trkpt>
      <trkpt lat="46.26138" lon="4.66062">
        <ele>630.2</ele>
        <time>2022-06-25T13:27:00Z</time>
      </trkpt>
      <trkpt lat="46.26133" lon="4.66056">
        <ele>629.8</ele>
        <time>2022-06-25T13:27:01Z</time>
      </trkpt>
      <trkpt lat="46.26129" lon="4.6605">
        <ele>629.4</ele>
        <time>2022-06-25T13:27:02Z</time>
      </trkpt>
      <trkpt lat="46.26125" lon="4.66045">
        <ele>629</ele>
        <time>2022-06-25T13:27:03Z</time>
      </trkpt>
      <trkpt lat="46.26121" lon="4.66041">
        <ele>628.6</ele>
        <time>2022-06-25T13:27:04Z</time>
      </trkpt>
      <trkpt lat="46.26118" lon="4.66038">
        <ele>628.2</ele>
        <time>2022-06-25T13:27:05Z</time>
      </trkpt>
      <trkpt lat="46.26115" lon="4.66035">
        <ele>628</ele>
        <time>2022-06-25T13:27:06Z</time>
      </trkpt>
      <trkpt lat="46.26112" lon="4.66032">
        <ele>628</ele>
        <time>2022-06-25T13:27:07Z</time>
      </trkpt>
      <trkpt lat="46.2611" lon="4.66029">
        <ele>628</ele>
        <time>2022-06-25T13:27:08Z</time>
      </trkpt>
      <trkpt lat="46.26107" lon="4.66027">
        <ele>628</ele>
        <time>2022-06-25T13:27:09Z</time>
      </trkpt>
      <trkpt lat="46.26104" lon="4.66025">
        <ele>628</ele>
        <time>2022-06-25T13:27:10Z</time>
      </trkpt>
      <trkpt lat="46.26101" lon="4.66024">
        <ele>628.4</ele>
        <time>2022-06-25T13:27:11Z</time>
      </trkpt>
      <trkpt lat="46.26097" lon="4.66023">
        <ele>628.4</ele>
        <time>2022-06-25T13:27:12Z</time>
      </trkpt>
      <trkpt lat="46.26094" lon="4.66024">
        <ele>628.8</ele>
        <time>2022-06-25T13:27:13Z</time>
      </trkpt>
      <trkpt lat="46.2609" lon="4.66024">
        <ele>628.8</ele>
        <time>2022-06-25T13:27:14Z</time>
      </trkpt>
      <trkpt lat="46.26087" lon="4.66024">
        <ele>629</ele>
        <time>2022-06-25T13:27:15Z</time>
      </trkpt>
      <trkpt lat="46.26083" lon="4.66025">
        <ele>629</ele>
        <time>2022-06-25T13:27:16Z</time>
      </trkpt>
      <trkpt lat="46.2608" lon="4.66026">
        <ele>629</ele>
        <time>2022-06-25T13:27:17Z</time>
      </trkpt>
      <trkpt lat="46.26077" lon="4.66027">
        <ele>629</ele>
        <time>2022-06-25T13:27:18Z</time>
      </trkpt>
      <trkpt lat="46.26073" lon="4.66028">
        <ele>629</ele>
        <time>2022-06-25T13:27:19Z</time>
      </trkpt>
      <trkpt lat="46.2607" lon="4.66028">
        <ele>629</ele>
        <time>2022-06-25T13:27:20Z</time>
      </trkpt>
      <trkpt lat="46.26067" lon="4.66028">
        <ele>629</ele>
        <time>2022-06-25T13:27:21Z</time>
      </trkpt>
      <trkpt lat="46.26063" lon="4.66028">
        <ele>629</ele>
        <time>2022-06-25T13:27:22Z</time>
      </trkpt>
      <trkpt lat="46.2606" lon="4.66028">
        <ele>628.6</ele>
        <time>2022-06-25T13:27:23Z</time>
      </trkpt>
      <trkpt lat="46.26056" lon="4.66029">
        <ele>628.2</ele>
        <time>2022-06-25T13:27:24Z</time>
      </trkpt>
      <trkpt lat="46.26052" lon="4.6603">
        <ele>628</ele>
        <time>2022-06-25T13:27:25Z</time>
      </trkpt>
      <trkpt lat="46.26049" lon="4.66031">
        <ele>627.6</ele>
        <time>2022-06-25T13:27:26Z</time>
      </trkpt>
      <trkpt lat="46.26046" lon="4.66033">
        <ele>627.2</ele>
        <time>2022-06-25T13:27:27Z</time>
      </trkpt>
      <trkpt lat="46.26044" lon="4.66034">
        <ele>626.8</ele>
        <time>2022-06-25T13:27:28Z</time>
      </trkpt>
      <trkpt lat="46.26043" lon="4.66036">
        <ele>626.6</ele>
        <time>2022-06-25T13:27:29Z</time>
      </trkpt>
      <trkpt lat="46.26042" lon="4.66037">
        <ele>626.4</ele>
        <time>2022-06-25T13:27:30Z</time>
      </trkpt>
      <trkpt lat="46.26042" lon="4.66038">
        <ele>626.4</ele>
        <time>2022-06-25T13:27:32Z</time>
      </trkpt>
      <trkpt lat="46.26042" lon="4.66038">
        <ele>626.2</ele>
        <time>2022-06-25T13:27:53Z</time>
      </trkpt>
      <trkpt lat="46.26042" lon="4.66036">
        <ele>626.2</ele>
        <time>2022-06-25T13:28:37Z</time>
      </trkpt>
      <trkpt lat="46.26042" lon="4.66034">
        <ele>626.2</ele>
        <time>2022-06-25T13:28:39Z</time>
      </trkpt>
      <trkpt lat="46.26042" lon="4.66031">
        <ele>626.2</ele>
        <time>2022-06-25T13:28:40Z</time>
      </trkpt>
      <trkpt lat="46.2604" lon="4.66028">
        <ele>626.2</ele>
        <time>2022-06-25T13:28:41Z</time>
      </trkpt>
      <trkpt lat="46.26037" lon="4.66024">
        <ele>626</ele>
        <time>2022-06-25T13:28:42Z</time>
      </trkpt>
      <trkpt lat="46.26031" lon="4.66018">
        <ele>625.8</ele>
        <time>2022-06-25T13:28:43Z</time>
      </trkpt>
      <trkpt lat="46.26028" lon="4.66016">
        <ele>625.4</ele>
        <time>2022-06-25T13:28:44Z</time>
      </trkpt>
      <trkpt lat="46.26024" lon="4.66013">
        <ele>625.2</ele>
        <time>2022-06-25T13:28:45Z</time>
      </trkpt>
      <trkpt lat="46.26019" lon="4.66008">
        <ele>625</ele>
        <time>2022-06-25T13:28:46Z</time>
      </trkpt>
      <trkpt lat="46.26013" lon="4.66003">
        <ele>624.6</ele>
        <time>2022-06-25T13:28:47Z</time>
      </trkpt>
      <trkpt lat="46.26004" lon="4.65995">
        <ele>624.4</ele>
        <time>2022-06-25T13:28:48Z</time>
      </trkpt>
      <trkpt lat="46.26001" lon="4.65992">
        <ele>624.4</ele>
        <time>2022-06-25T13:28:49Z</time>
      </trkpt>
      <trkpt lat="46.25993" lon="4.65987">
        <ele>624</ele>
        <time>2022-06-25T13:28:50Z</time>
      </trkpt>
      <trkpt lat="46.25986" lon="4.65983">
        <ele>623.8</ele>
        <time>2022-06-25T13:28:51Z</time>
      </trkpt>
      <trkpt lat="46.25974" lon="4.65976">
        <ele>623.4</ele>
        <time>2022-06-25T13:28:52Z</time>
      </trkpt>
      <trkpt lat="46.2597" lon="4.65975">
        <ele>622.8</ele>
        <time>2022-06-25T13:28:53Z</time>
      </trkpt>
      <trkpt lat="46.25962" lon="4.65972">
        <ele>622.2</ele>
        <time>2022-06-25T13:28:54Z</time>
      </trkpt>
      <trkpt lat="46.25953" lon="4.65969">
        <ele>621.8</ele>
        <time>2022-06-25T13:28:55Z</time>
      </trkpt>
      <trkpt lat="46.25944" lon="4.65966">
        <ele>621.4</ele>
        <time>2022-06-25T13:28:56Z</time>
      </trkpt>
      <trkpt lat="46.25934" lon="4.65964">
        <ele>620.6</ele>
        <time>2022-06-25T13:28:57Z</time>
      </trkpt>
      <trkpt lat="46.25919" lon="4.65961">
        <ele>620</ele>
        <time>2022-06-25T13:28:58Z</time>
      </trkpt>
      <trkpt lat="46.25914" lon="4.65961">
        <ele>619.4</ele>
        <time>2022-06-25T13:28:59Z</time>
      </trkpt>
      <trkpt lat="46.259" lon="4.65959">
        <ele>618.8</ele>
        <time>2022-06-25T13:29:00Z</time>
      </trkpt>
      <trkpt lat="46.25895" lon="4.65959">
        <ele>618</ele>
        <time>2022-06-25T13:29:01Z</time>
      </trkpt>
      <trkpt lat="46.25885" lon="4.6596">
        <ele>617.4</ele>
        <time>2022-06-25T13:29:02Z</time>
      </trkpt>
      <trkpt lat="46.25874" lon="4.6596">
        <ele>616.8</ele>
        <time>2022-06-25T13:29:03Z</time>
      </trkpt>
      <trkpt lat="46.25864" lon="4.65961">
        <ele>616.2</ele>
        <time>2022-06-25T13:29:04Z</time>
      </trkpt>
      <trkpt lat="46.25853" lon="4.65962">
        <ele>615.6</ele>
        <time>2022-06-25T13:29:05Z</time>
      </trkpt>
      <trkpt lat="46.25838" lon="4.65963">
        <ele>615.2</ele>
        <time>2022-06-25T13:29:06Z</time>
      </trkpt>
      <trkpt lat="46.25832" lon="4.65963">
        <ele>614.6</ele>
        <time>2022-06-25T13:29:07Z</time>
      </trkpt>
      <trkpt lat="46.25822" lon="4.65964">
        <ele>613.8</ele>
        <time>2022-06-25T13:29:08Z</time>
      </trkpt>
      <trkpt lat="46.25811" lon="4.65966">
        <ele>613</ele>
        <time>2022-06-25T13:29:09Z</time>
      </trkpt>
      <trkpt lat="46.25795" lon="4.65969">
        <ele>612</ele>
        <time>2022-06-25T13:29:10Z</time>
      </trkpt>
      <trkpt lat="46.2579" lon="4.6597">
        <ele>611.2</ele>
        <time>2022-06-25T13:29:11Z</time>
      </trkpt>
      <trkpt lat="46.25779" lon="4.65972">
        <ele>610.4</ele>
        <time>2022-06-25T13:29:12Z</time>
      </trkpt>
      <trkpt lat="46.25769" lon="4.65976">
        <ele>609.4</ele>
        <time>2022-06-25T13:29:13Z</time>
      </trkpt>
      <trkpt lat="46.25759" lon="4.65983">
        <ele>608.6</ele>
        <time>2022-06-25T13:29:14Z</time>
      </trkpt>
      <trkpt lat="46.2575" lon="4.6599">
        <ele>607.8</ele>
        <time>2022-06-25T13:29:15Z</time>
      </trkpt>
      <trkpt lat="46.25737" lon="4.65997">
        <ele>607.2</ele>
        <time>2022-06-25T13:29:16Z</time>
      </trkpt>
      <trkpt lat="46.25732" lon="4.65998">
        <ele>606.4</ele>
        <time>2022-06-25T13:29:17Z</time>
      </trkpt>
      <trkpt lat="46.25723" lon="4.65999">
        <ele>605.8</ele>
        <time>2022-06-25T13:29:18Z</time>
      </trkpt>
      <trkpt lat="46.25715" lon="4.65993">
        <ele>605</ele>
        <time>2022-06-25T13:29:19Z</time>
      </trkpt>
      <trkpt lat="46.25707" lon="4.65987">
        <ele>604.2</ele>
        <time>2022-06-25T13:29:20Z</time>
      </trkpt>
      <trkpt lat="46.257" lon="4.65979">
        <ele>603.4</ele>
        <time>2022-06-25T13:29:21Z</time>
      </trkpt>
      <trkpt lat="46.25696" lon="4.65967">
        <ele>602.8</ele>
        <time>2022-06-25T13:29:22Z</time>
      </trkpt>
      <trkpt lat="46.25691" lon="4.65955">
        <ele>602.2</ele>
        <time>2022-06-25T13:29:23Z</time>
      </trkpt>
      <trkpt lat="46.25688" lon="4.65943">
        <ele>601.4</ele>
        <time>2022-06-25T13:29:24Z</time>
      </trkpt>
      <trkpt lat="46.25684" lon="4.65931">
        <ele>600.8</ele>
        <time>2022-06-25T13:29:25Z</time>
      </trkpt>
      <trkpt lat="46.2568" lon="4.6592">
        <ele>600.2</ele>
        <time>2022-06-25T13:29:26Z</time>
      </trkpt>
      <trkpt lat="46.25675" lon="4.6591">
        <ele>599.4</ele>
        <time>2022-06-25T13:29:27Z</time>
      </trkpt>
      <trkpt lat="46.2567" lon="4.65901">
        <ele>598.8</ele>
        <time>2022-06-25T13:29:28Z</time>
      </trkpt>
      <trkpt lat="46.25665" lon="4.65893">
        <ele>598.2</ele>
        <time>2022-06-25T13:29:29Z</time>
      </trkpt>
      <trkpt lat="46.25658" lon="4.65886">
        <ele>597.6</ele>
        <time>2022-06-25T13:29:30Z</time>
      </trkpt>
      <trkpt lat="46.25652" lon="4.65878">
        <ele>597</ele>
        <time>2022-06-25T13:29:31Z</time>
      </trkpt>
      <trkpt lat="46.25648" lon="4.65868">
        <ele>596.4</ele>
        <time>2022-06-25T13:29:32Z</time>
      </trkpt>
      <trkpt lat="46.25644" lon="4.65858">
        <ele>596.2</ele>
        <time>2022-06-25T13:29:33Z</time>
      </trkpt>
      <trkpt lat="46.25642" lon="4.65848">
        <ele>596.2</ele>
        <time>2022-06-25T13:29:34Z</time>
      </trkpt>
      <trkpt lat="46.25639" lon="4.65838">
        <ele>596.2</ele>
        <time>2022-06-25T13:29:35Z</time>
      </trkpt>
      <trkpt lat="46.25636" lon="4.65828">
        <ele>596.2</ele>
        <time>2022-06-25T13:29:36Z</time>
      </trkpt>
      <trkpt lat="46.25634" lon="4.65819">
        <ele>596.2</ele>
        <time>2022-06-25T13:29:37Z</time>
      </trkpt>
      <trkpt lat="46.25631" lon="4.65812">
        <ele>596.4</ele>
        <time>2022-06-25T13:29:38Z</time>
      </trkpt>
      <trkpt lat="46.25627" lon="4.65805">
        <ele>596.4</ele>
        <time>2022-06-25T13:29:39Z</time>
      </trkpt>
      <trkpt lat="46.25624" lon="4.658">
        <ele>596.8</ele>
        <time>2022-06-25T13:29:40Z</time>
      </trkpt>
      <trkpt lat="46.25621" lon="4.65794">
        <ele>596.8</ele>
        <time>2022-06-25T13:29:41Z</time>
      </trkpt>
      <trkpt lat="46.25618" lon="4.65789">
        <ele>597</ele>
        <time>2022-06-25T13:29:42Z</time>
      </trkpt>
      <trkpt lat="46.25615" lon="4.65785">
        <ele>597.2</ele>
        <time>2022-06-25T13:29:43Z</time>
      </trkpt>
      <trkpt lat="46.25611" lon="4.65781">
        <ele>597.2</ele>
        <time>2022-06-25T13:29:44Z</time>
      </trkpt>
      <trkpt lat="46.25607" lon="4.65776">
        <ele>597.6</ele>
        <time>2022-06-25T13:29:45Z</time>
      </trkpt>
      <trkpt lat="46.25603" lon="4.65772">
        <ele>598</ele>
        <time>2022-06-25T13:29:46Z</time>
      </trkpt>
      <trkpt lat="46.25598" lon="4.65768">
        <ele>598.2</ele>
        <time>2022-06-25T13:29:47Z</time>
      </trkpt>
      <trkpt lat="46.25594" lon="4.65765">
        <ele>598.4</ele>
        <time>2022-06-25T13:29:48Z</time>
      </trkpt>
      <trkpt lat="46.25588" lon="4.65763">
        <ele>598.8</ele>
        <time>2022-06-25T13:29:49Z</time>
      </trkpt>
      <trkpt lat="46.25583" lon="4.65762">
        <ele>599.2</ele>
        <time>2022-06-25T13:29:50Z</time>
      </trkpt>
      <trkpt lat="46.25578" lon="4.65761">
        <ele>599.4</ele>
        <time>2022-06-25T13:29:51Z</time>
      </trkpt>
      <trkpt lat="46.25573" lon="4.6576">
        <ele>599.8</ele>
        <time>2022-06-25T13:29:52Z</time>
      </trkpt>
      <trkpt lat="46.25569" lon="4.65759">
        <ele>600.2</ele>
        <time>2022-06-25T13:29:53Z</time>
      </trkpt>
      <trkpt lat="46.25564" lon="4.65757">
        <ele>600.6</ele>
        <time>2022-06-25T13:29:54Z</time>
      </trkpt>
      <trkpt lat="46.2556" lon="4.65755">
        <ele>600.8</ele>
        <time>2022-06-25T13:29:55Z</time>
      </trkpt>
      <trkpt lat="46.25556" lon="4.65752">
        <ele>601</ele>
        <time>2022-06-25T13:29:56Z</time>
      </trkpt>
      <trkpt lat="46.25552" lon="4.65748">
        <ele>601.4</ele>
        <time>2022-06-25T13:29:57Z</time>
      </trkpt>
      <trkpt lat="46.25548" lon="4.65744">
        <ele>601.6</ele>
        <time>2022-06-25T13:29:58Z</time>
      </trkpt>
      <trkpt lat="46.25544" lon="4.65739">
        <ele>602</ele>
        <time>2022-06-25T13:29:59Z</time>
      </trkpt>
      <trkpt lat="46.25541" lon="4.65734">
        <ele>602</ele>
        <time>2022-06-25T13:30:00Z</time>
      </trkpt>
      <trkpt lat="46.25537" lon="4.6573">
        <ele>602.4</ele>
        <time>2022-06-25T13:30:01Z</time>
      </trkpt>
      <trkpt lat="46.25533" lon="4.65725">
        <ele>602.4</ele>
        <time>2022-06-25T13:30:02Z</time>
      </trkpt>
      <trkpt lat="46.25529" lon="4.65721">
        <ele>602.8</ele>
        <time>2022-06-25T13:30:03Z</time>
      </trkpt>
      <trkpt lat="46.25525" lon="4.65718">
        <ele>602.8</ele>
        <time>2022-06-25T13:30:04Z</time>
      </trkpt>
      <trkpt lat="46.25521" lon="4.65716">
        <ele>603.2</ele>
        <time>2022-06-25T13:30:05Z</time>
      </trkpt>
      <trkpt lat="46.25517" lon="4.65714">
        <ele>603.4</ele>
        <time>2022-06-25T13:30:06Z</time>
      </trkpt>
      <trkpt lat="46.25514" lon="4.65713">
        <ele>603.6</ele>
        <time>2022-06-25T13:30:07Z</time>
      </trkpt>
      <trkpt lat="46.2551" lon="4.65711">
        <ele>604</ele>
        <time>2022-06-25T13:30:08Z</time>
      </trkpt>
      <trkpt lat="46.25507" lon="4.6571">
        <ele>604</ele>
        <time>2022-06-25T13:30:09Z</time>
      </trkpt>
      <trkpt lat="46.25503" lon="4.6571">
        <ele>604.2</ele>
        <time>2022-06-25T13:30:10Z</time>
      </trkpt>
      <trkpt lat="46.255" lon="4.65709">
        <ele>604.4</ele>
        <time>2022-06-25T13:30:11Z</time>
      </trkpt>
      <trkpt lat="46.25496" lon="4.65709">
        <ele>604.4</ele>
        <time>2022-06-25T13:30:12Z</time>
      </trkpt>
      <trkpt lat="46.25493" lon="4.6571">
        <ele>604.8</ele>
        <time>2022-06-25T13:30:13Z</time>
      </trkpt>
      <trkpt lat="46.25489" lon="4.65711">
        <ele>604.8</ele>
        <time>2022-06-25T13:30:14Z</time>
      </trkpt>
      <trkpt lat="46.25486" lon="4.65712">
        <ele>605</ele>
        <time>2022-06-25T13:30:15Z</time>
      </trkpt>
      <trkpt lat="46.25482" lon="4.65714">
        <ele>605.2</ele>
        <time>2022-06-25T13:30:16Z</time>
      </trkpt>
      <trkpt lat="46.25478" lon="4.65715">
        <ele>605.4</ele>
        <time>2022-06-25T13:30:17Z</time>
      </trkpt>
      <trkpt lat="46.25475" lon="4.65716">
        <ele>605.6</ele>
        <time>2022-06-25T13:30:18Z</time>
      </trkpt>
      <trkpt lat="46.25472" lon="4.65718">
        <ele>605.6</ele>
        <time>2022-06-25T13:30:19Z</time>
      </trkpt>
      <trkpt lat="46.25468" lon="4.65719">
        <ele>606</ele>
        <time>2022-06-25T13:30:20Z</time>
      </trkpt>
      <trkpt lat="46.25465" lon="4.65721">
        <ele>606</ele>
        <time>2022-06-25T13:30:21Z</time>
      </trkpt>
      <trkpt lat="46.25462" lon="4.65723">
        <ele>606.4</ele>
        <time>2022-06-25T13:30:22Z</time>
      </trkpt>
      <trkpt lat="46.25459" lon="4.65724">
        <ele>606.6</ele>
        <time>2022-06-25T13:30:23Z</time>
      </trkpt>
      <trkpt lat="46.25455" lon="4.65726">
        <ele>606.6</ele>
        <time>2022-06-25T13:30:24Z</time>
      </trkpt>
      <trkpt lat="46.25452" lon="4.65727">
        <ele>607</ele>
        <time>2022-06-25T13:30:25Z</time>
      </trkpt>
      <trkpt lat="46.25449" lon="4.65729">
        <ele>607.2</ele>
        <time>2022-06-25T13:30:26Z</time>
      </trkpt>
      <trkpt lat="46.25446" lon="4.6573">
        <ele>607.6</ele>
        <time>2022-06-25T13:30:27Z</time>
      </trkpt>
      <trkpt lat="46.25442" lon="4.65733">
        <ele>607.8</ele>
        <time>2022-06-25T13:30:28Z</time>
      </trkpt>
      <trkpt lat="46.25439" lon="4.65735">
        <ele>607.8</ele>
        <time>2022-06-25T13:30:29Z</time>
      </trkpt>
      <trkpt lat="46.25436" lon="4.65738">
        <ele>608.2</ele>
        <time>2022-06-25T13:30:30Z</time>
      </trkpt>
      <trkpt lat="46.25433" lon="4.65741">
        <ele>608.2</ele>
        <time>2022-06-25T13:30:31Z</time>
      </trkpt>
      <trkpt lat="46.2543" lon="4.65744">
        <ele>608.6</ele>
        <time>2022-06-25T13:30:32Z</time>
      </trkpt>
      <trkpt lat="46.25427" lon="4.65747">
        <ele>609</ele>
        <time>2022-06-25T13:30:33Z</time>
      </trkpt>
      <trkpt lat="46.25424" lon="4.6575">
        <ele>609.2</ele>
        <time>2022-06-25T13:30:34Z</time>
      </trkpt>
      <trkpt lat="46.25421" lon="4.65753">
        <ele>609.4</ele>
        <time>2022-06-25T13:30:35Z</time>
      </trkpt>
      <trkpt lat="46.25418" lon="4.65757">
        <ele>609.6</ele>
        <time>2022-06-25T13:30:36Z</time>
      </trkpt>
      <trkpt lat="46.25416" lon="4.6576">
        <ele>610</ele>
        <time>2022-06-25T13:30:37Z</time>
      </trkpt>
      <trkpt lat="46.25413" lon="4.65763">
        <ele>610</ele>
        <time>2022-06-25T13:30:38Z</time>
      </trkpt>
      <trkpt lat="46.2541" lon="4.65766">
        <ele>610.4</ele>
        <time>2022-06-25T13:30:39Z</time>
      </trkpt>
      <trkpt lat="46.25407" lon="4.65769">
        <ele>610.4</ele>
        <time>2022-06-25T13:30:40Z</time>
      </trkpt>
      <trkpt lat="46.25404" lon="4.65772">
        <ele>610.6</ele>
        <time>2022-06-25T13:30:41Z</time>
      </trkpt>
      <trkpt lat="46.25401" lon="4.65774">
        <ele>610.8</ele>
        <time>2022-06-25T13:30:42Z</time>
      </trkpt>
      <trkpt lat="46.25398" lon="4.65775">
        <ele>611.2</ele>
        <time>2022-06-25T13:30:43Z</time>
      </trkpt>
      <trkpt lat="46.25394" lon="4.65776">
        <ele>611.2</ele>
        <time>2022-06-25T13:30:44Z</time>
      </trkpt>
      <trkpt lat="46.25391" lon="4.65777">
        <ele>611.2</ele>
        <time>2022-06-25T13:30:45Z</time>
      </trkpt>
      <trkpt lat="46.25387" lon="4.65777">
        <ele>611.4</ele>
        <time>2022-06-25T13:30:46Z</time>
      </trkpt>
      <trkpt lat="46.25383" lon="4.65776">
        <ele>611.4</ele>
        <time>2022-06-25T13:30:47Z</time>
      </trkpt>
      <trkpt lat="46.2538" lon="4.65774">
        <ele>611.8</ele>
        <time>2022-06-25T13:30:48Z</time>
      </trkpt>
      <trkpt lat="46.25376" lon="4.65772">
        <ele>611.8</ele>
        <time>2022-06-25T13:30:49Z</time>
      </trkpt>
      <trkpt lat="46.25373" lon="4.65771">
        <ele>612</ele>
        <time>2022-06-25T13:30:50Z</time>
      </trkpt>
      <trkpt lat="46.25369" lon="4.65768">
        <ele>612</ele>
        <time>2022-06-25T13:30:51Z</time>
      </trkpt>
      <trkpt lat="46.25366" lon="4.65766">
        <ele>612.4</ele>
        <time>2022-06-25T13:30:52Z</time>
      </trkpt>
      <trkpt lat="46.25362" lon="4.65763">
        <ele>612.6</ele>
        <time>2022-06-25T13:30:53Z</time>
      </trkpt>
      <trkpt lat="46.25359" lon="4.65761">
        <ele>612.8</ele>
        <time>2022-06-25T13:30:54Z</time>
      </trkpt>
      <trkpt lat="46.25356" lon="4.65758">
        <ele>613.2</ele>
        <time>2022-06-25T13:30:55Z</time>
      </trkpt>
      <trkpt lat="46.25352" lon="4.65755">
        <ele>613.4</ele>
        <time>2022-06-25T13:30:56Z</time>
      </trkpt>
      <trkpt lat="46.25349" lon="4.65752">
        <ele>613.6</ele>
        <time>2022-06-25T13:30:57Z</time>
      </trkpt>
      <trkpt lat="46.25347" lon="4.65748">
        <ele>613.8</ele>
        <time>2022-06-25T13:30:58Z</time>
      </trkpt>
      <trkpt lat="46.25344" lon="4.65744">
        <ele>613.8</ele>
        <time>2022-06-25T13:30:59Z</time>
      </trkpt>
      <trkpt lat="46.25341" lon="4.6574">
        <ele>614.2</ele>
        <time>2022-06-25T13:31:00Z</time>
      </trkpt>
      <trkpt lat="46.25338" lon="4.65737">
        <ele>614.4</ele>
        <time>2022-06-25T13:31:01Z</time>
      </trkpt>
      <trkpt lat="46.25335" lon="4.65733">
        <ele>614.8</ele>
        <time>2022-06-25T13:31:02Z</time>
      </trkpt>
      <trkpt lat="46.25333" lon="4.65729">
        <ele>614.8</ele>
        <time>2022-06-25T13:31:03Z</time>
      </trkpt>
      <trkpt lat="46.2533" lon="4.65724">
        <ele>615.2</ele>
        <time>2022-06-25T13:31:04Z</time>
      </trkpt>
      <trkpt lat="46.25328" lon="4.6572">
        <ele>615.4</ele>
        <time>2022-06-25T13:31:05Z</time>
      </trkpt>
      <trkpt lat="46.25326" lon="4.65716">
        <ele>615.4</ele>
        <time>2022-06-25T13:31:06Z</time>
      </trkpt>
      <trkpt lat="46.25324" lon="4.65711">
        <ele>615.8</ele>
        <time>2022-06-25T13:31:07Z</time>
      </trkpt>
      <trkpt lat="46.25322" lon="4.65707">
        <ele>616</ele>
        <time>2022-06-25T13:31:08Z</time>
      </trkpt>
      <trkpt lat="46.2532" lon="4.65703">
        <ele>616.4</ele>
        <time>2022-06-25T13:31:09Z</time>
      </trkpt>
      <trkpt lat="46.25319" lon="4.65698">
        <ele>616.6</ele>
        <time>2022-06-25T13:31:10Z</time>
      </trkpt>
      <trkpt lat="46.25317" lon="4.65694">
        <ele>617</ele>
        <time>2022-06-25T13:31:11Z</time>
      </trkpt>
      <trkpt lat="46.25315" lon="4.6569">
        <ele>617.2</ele>
        <time>2022-06-25T13:31:12Z</time>
      </trkpt>
      <trkpt lat="46.25313" lon="4.65686">
        <ele>617.2</ele>
        <time>2022-06-25T13:31:13Z</time>
      </trkpt>
      <trkpt lat="46.25311" lon="4.65681">
        <ele>617.4</ele>
        <time>2022-06-25T13:31:14Z</time>
      </trkpt>
      <trkpt lat="46.25309" lon="4.65677">
        <ele>617.4</ele>
        <time>2022-06-25T13:31:15Z</time>
      </trkpt>
      <trkpt lat="46.25307" lon="4.65673">
        <ele>617.8</ele>
        <time>2022-06-25T13:31:16Z</time>
      </trkpt>
      <trkpt lat="46.25305" lon="4.65668">
        <ele>617.8</ele>
        <time>2022-06-25T13:31:17Z</time>
      </trkpt>
      <trkpt lat="46.25303" lon="4.65664">
        <ele>618.2</ele>
        <time>2022-06-25T13:31:18Z</time>
      </trkpt>
      <trkpt lat="46.25301" lon="4.65659">
        <ele>618.4</ele>
        <time>2022-06-25T13:31:19Z</time>
      </trkpt>
      <trkpt lat="46.25299" lon="4.65655">
        <ele>618.6</ele>
        <time>2022-06-25T13:31:20Z</time>
      </trkpt>
      <trkpt lat="46.25297" lon="4.6565">
        <ele>618.6</ele>
        <time>2022-06-25T13:31:21Z</time>
      </trkpt>
      <trkpt lat="46.25295" lon="4.65646">
        <ele>619</ele>
        <time>2022-06-25T13:31:22Z</time>
      </trkpt>
      <trkpt lat="46.25293" lon="4.65642">
        <ele>619.2</ele>
        <time>2022-06-25T13:31:23Z</time>
      </trkpt>
      <trkpt lat="46.25291" lon="4.65638">
        <ele>619.4</ele>
        <time>2022-06-25T13:31:24Z</time>
      </trkpt>
      <trkpt lat="46.25289" lon="4.6563">
        <ele>619.4</ele>
        <time>2022-06-25T13:31:25Z</time>
      </trkpt>
      <trkpt lat="46.25288" lon="4.65628">
        <ele>619.8</ele>
        <time>2022-06-25T13:31:26Z</time>
      </trkpt>
      <trkpt lat="46.25287" lon="4.65623">
        <ele>620</ele>
        <time>2022-06-25T13:31:27Z</time>
      </trkpt>
      <trkpt lat="46.25285" lon="4.65618">
        <ele>620</ele>
        <time>2022-06-25T13:31:28Z</time>
      </trkpt>
      <trkpt lat="46.25284" lon="4.65613">
        <ele>620.2</ele>
        <time>2022-06-25T13:31:29Z</time>
      </trkpt>
      <trkpt lat="46.25284" lon="4.65608">
        <ele>620.2</ele>
        <time>2022-06-25T13:31:30Z</time>
      </trkpt>
      <trkpt lat="46.25284" lon="4.65602">
        <ele>620.2</ele>
        <time>2022-06-25T13:31:31Z</time>
      </trkpt>
      <trkpt lat="46.25284" lon="4.65597">
        <ele>620.6</ele>
        <time>2022-06-25T13:31:32Z</time>
      </trkpt>
      <trkpt lat="46.25285" lon="4.65592">
        <ele>620.6</ele>
        <time>2022-06-25T13:31:33Z</time>
      </trkpt>
      <trkpt lat="46.25287" lon="4.65587">
        <ele>620.6</ele>
        <time>2022-06-25T13:31:34Z</time>
      </trkpt>
      <trkpt lat="46.25288" lon="4.65582">
        <ele>621</ele>
        <time>2022-06-25T13:31:35Z</time>
      </trkpt>
      <trkpt lat="46.2529" lon="4.65577">
        <ele>621.2</ele>
        <time>2022-06-25T13:31:36Z</time>
      </trkpt>
      <trkpt lat="46.25292" lon="4.65572">
        <ele>621.2</ele>
        <time>2022-06-25T13:31:37Z</time>
      </trkpt>
      <trkpt lat="46.25295" lon="4.65567">
        <ele>621.4</ele>
        <time>2022-06-25T13:31:38Z</time>
      </trkpt>
      <trkpt lat="46.25297" lon="4.65563">
        <ele>621.4</ele>
        <time>2022-06-25T13:31:39Z</time>
      </trkpt>
      <trkpt lat="46.253" lon="4.65558">
        <ele>621.6</ele>
        <time>2022-06-25T13:31:40Z</time>
      </trkpt>
      <trkpt lat="46.25303" lon="4.65555">
        <ele>621.6</ele>
        <time>2022-06-25T13:31:41Z</time>
      </trkpt>
      <trkpt lat="46.25306" lon="4.65551">
        <ele>622</ele>
        <time>2022-06-25T13:31:42Z</time>
      </trkpt>
      <trkpt lat="46.25309" lon="4.65548">
        <ele>622.4</ele>
        <time>2022-06-25T13:31:43Z</time>
      </trkpt>
      <trkpt lat="46.25312" lon="4.65545">
        <ele>622.6</ele>
        <time>2022-06-25T13:31:44Z</time>
      </trkpt>
      <trkpt lat="46.25315" lon="4.65541">
        <ele>622.6</ele>
        <time>2022-06-25T13:31:45Z</time>
      </trkpt>
      <trkpt lat="46.25318" lon="4.65538">
        <ele>622.8</ele>
        <time>2022-06-25T13:31:46Z</time>
      </trkpt>
      <trkpt lat="46.25321" lon="4.65534">
        <ele>622.8</ele>
        <time>2022-06-25T13:31:47Z</time>
      </trkpt>
      <trkpt lat="46.25325" lon="4.65531">
        <ele>623.2</ele>
        <time>2022-06-25T13:31:48Z</time>
      </trkpt>
      <trkpt lat="46.25328" lon="4.65528">
        <ele>623.2</ele>
        <time>2022-06-25T13:31:49Z</time>
      </trkpt>
      <trkpt lat="46.25331" lon="4.65525">
        <ele>623.4</ele>
        <time>2022-06-25T13:31:50Z</time>
      </trkpt>
      <trkpt lat="46.25334" lon="4.65522">
        <ele>623.4</ele>
        <time>2022-06-25T13:31:51Z</time>
      </trkpt>
      <trkpt lat="46.25337" lon="4.65519">
        <ele>623.8</ele>
        <time>2022-06-25T13:31:52Z</time>
      </trkpt>
      <trkpt lat="46.25341" lon="4.65517">
        <ele>623.8</ele>
        <time>2022-06-25T13:31:53Z</time>
      </trkpt>
      <trkpt lat="46.25344" lon="4.65515">
        <ele>624.2</ele>
        <time>2022-06-25T13:31:54Z</time>
      </trkpt>
      <trkpt lat="46.25348" lon="4.65513">
        <ele>624.2</ele>
        <time>2022-06-25T13:31:55Z</time>
      </trkpt>
      <trkpt lat="46.25352" lon="4.65511">
        <ele>624.4</ele>
        <time>2022-06-25T13:31:56Z</time>
      </trkpt>
      <trkpt lat="46.25355" lon="4.6551">
        <ele>624.4</ele>
        <time>2022-06-25T13:31:57Z</time>
      </trkpt>
      <trkpt lat="46.25359" lon="4.65508">
        <ele>624.4</ele>
        <time>2022-06-25T13:31:58Z</time>
      </trkpt>
      <trkpt lat="46.25363" lon="4.65506">
        <ele>624.8</ele>
        <time>2022-06-25T13:31:59Z</time>
      </trkpt>
      <trkpt lat="46.25367" lon="4.65505">
        <ele>624.8</ele>
        <time>2022-06-25T13:32:00Z</time>
      </trkpt>
      <trkpt lat="46.25371" lon="4.65503">
        <ele>624.8</ele>
        <time>2022-06-25T13:32:01Z</time>
      </trkpt>
      <trkpt lat="46.25375" lon="4.65502">
        <ele>624.8</ele>
        <time>2022-06-25T13:32:02Z</time>
      </trkpt>
      <trkpt lat="46.25379" lon="4.655">
        <ele>625.2</ele>
        <time>2022-06-25T13:32:03Z</time>
      </trkpt>
      <trkpt lat="46.25383" lon="4.65499">
        <ele>625.2</ele>
        <time>2022-06-25T13:32:04Z</time>
      </trkpt>
      <trkpt lat="46.25387" lon="4.65498">
        <ele>625.4</ele>
        <time>2022-06-25T13:32:05Z</time>
      </trkpt>
      <trkpt lat="46.25391" lon="4.65497">
        <ele>625.4</ele>
        <time>2022-06-25T13:32:06Z</time>
      </trkpt>
      <trkpt lat="46.25395" lon="4.65495">
        <ele>625.4</ele>
        <time>2022-06-25T13:32:07Z</time>
      </trkpt>
      <trkpt lat="46.25399" lon="4.65494">
        <ele>625.6</ele>
        <time>2022-06-25T13:32:08Z</time>
      </trkpt>
      <trkpt lat="46.25403" lon="4.65493">
        <ele>625.6</ele>
        <time>2022-06-25T13:32:09Z</time>
      </trkpt>
      <trkpt lat="46.25407" lon="4.65492">
        <ele>625.8</ele>
        <time>2022-06-25T13:32:10Z</time>
      </trkpt>
      <trkpt lat="46.25412" lon="4.6549">
        <ele>625.8</ele>
        <time>2022-06-25T13:32:11Z</time>
      </trkpt>
      <trkpt lat="46.25416" lon="4.65488">
        <ele>625.8</ele>
        <time>2022-06-25T13:32:12Z</time>
      </trkpt>
      <trkpt lat="46.2542" lon="4.65485">
        <ele>625.8</ele>
        <time>2022-06-25T13:32:13Z</time>
      </trkpt>
      <trkpt lat="46.25425" lon="4.65483">
        <ele>625.8</ele>
        <time>2022-06-25T13:32:14Z</time>
      </trkpt>
      <trkpt lat="46.25429" lon="4.65479">
        <ele>625.8</ele>
        <time>2022-06-25T13:32:15Z</time>
      </trkpt>
      <trkpt lat="46.25434" lon="4.65476">
        <ele>625.8</ele>
        <time>2022-06-25T13:32:16Z</time>
      </trkpt>
      <trkpt lat="46.25438" lon="4.65471">
        <ele>625.8</ele>
        <time>2022-06-25T13:32:17Z</time>
      </trkpt>
      <trkpt lat="46.25442" lon="4.65466">
        <ele>625.8</ele>
        <time>2022-06-25T13:32:18Z</time>
      </trkpt>
      <trkpt lat="46.25446" lon="4.65461">
        <ele>625.8</ele>
        <time>2022-06-25T13:32:19Z</time>
      </trkpt>
      <trkpt lat="46.25451" lon="4.65455">
        <ele>625.8</ele>
        <time>2022-06-25T13:32:20Z</time>
      </trkpt>
      <trkpt lat="46.25454" lon="4.6545">
        <ele>625.8</ele>
        <time>2022-06-25T13:32:21Z</time>
      </trkpt>
      <trkpt lat="46.25458" lon="4.65444">
        <ele>625.8</ele>
        <time>2022-06-25T13:32:22Z</time>
      </trkpt>
      <trkpt lat="46.25462" lon="4.65439">
        <ele>626</ele>
        <time>2022-06-25T13:32:23Z</time>
      </trkpt>
      <trkpt lat="46.25466" lon="4.65433">
        <ele>626</ele>
        <time>2022-06-25T13:32:24Z</time>
      </trkpt>
      <trkpt lat="46.2547" lon="4.65427">
        <ele>626</ele>
        <time>2022-06-25T13:32:25Z</time>
      </trkpt>
      <trkpt lat="46.25473" lon="4.6542">
        <ele>626</ele>
        <time>2022-06-25T13:32:26Z</time>
      </trkpt>
      <trkpt lat="46.25476" lon="4.65413">
        <ele>626</ele>
        <time>2022-06-25T13:32:27Z</time>
      </trkpt>
      <trkpt lat="46.25478" lon="4.65405">
        <ele>625.8</ele>
        <time>2022-06-25T13:32:28Z</time>
      </trkpt>
      <trkpt lat="46.2548" lon="4.65396">
        <ele>625.8</ele>
        <time>2022-06-25T13:32:29Z</time>
      </trkpt>
      <trkpt lat="46.2548" lon="4.65387">
        <ele>625.8</ele>
        <time>2022-06-25T13:32:30Z</time>
      </trkpt>
      <trkpt lat="46.2548" lon="4.65378">
        <ele>625.8</ele>
        <time>2022-06-25T13:32:31Z</time>
      </trkpt>
      <trkpt lat="46.25479" lon="4.65369">
        <ele>625.8</ele>
        <time>2022-06-25T13:32:32Z</time>
      </trkpt>
      <trkpt lat="46.25478" lon="4.6536">
        <ele>625.8</ele>
        <time>2022-06-25T13:32:33Z</time>
      </trkpt>
      <trkpt lat="46.25476" lon="4.65351">
        <ele>625.8</ele>
        <time>2022-06-25T13:32:34Z</time>
      </trkpt>
      <trkpt lat="46.25475" lon="4.65342">
        <ele>625.8</ele>
        <time>2022-06-25T13:32:35Z</time>
      </trkpt>
      <trkpt lat="46.25473" lon="4.65333">
        <ele>625.8</ele>
        <time>2022-06-25T13:32:36Z</time>
      </trkpt>
      <trkpt lat="46.25472" lon="4.65324">
        <ele>626.2</ele>
        <time>2022-06-25T13:32:37Z</time>
      </trkpt>
      <trkpt lat="46.25472" lon="4.65314">
        <ele>626.2</ele>
        <time>2022-06-25T13:32:38Z</time>
      </trkpt>
      <trkpt lat="46.25472" lon="4.65303">
        <ele>626.2</ele>
        <time>2022-06-25T13:32:39Z</time>
      </trkpt>
      <trkpt lat="46.25473" lon="4.65293">
        <ele>625.8</ele>
        <time>2022-06-25T13:32:40Z</time>
      </trkpt>
      <trkpt lat="46.25474" lon="4.65283">
        <ele>625.8</ele>
        <time>2022-06-25T13:32:41Z</time>
      </trkpt>
      <trkpt lat="46.25476" lon="4.65273">
        <ele>625.8</ele>
        <time>2022-06-25T13:32:42Z</time>
      </trkpt>
      <trkpt lat="46.25479" lon="4.65263">
        <ele>625.6</ele>
        <time>2022-06-25T13:32:43Z</time>
      </trkpt>
      <trkpt lat="46.25481" lon="4.65253">
        <ele>625.6</ele>
        <time>2022-06-25T13:32:44Z</time>
      </trkpt>
      <trkpt lat="46.25484" lon="4.65242">
        <ele>625.4</ele>
        <time>2022-06-25T13:32:45Z</time>
      </trkpt>
      <trkpt lat="46.25487" lon="4.65233">
        <ele>625.4</ele>
        <time>2022-06-25T13:32:46Z</time>
      </trkpt>
      <trkpt lat="46.25489" lon="4.65222">
        <ele>625</ele>
        <time>2022-06-25T13:32:47Z</time>
      </trkpt>
      <trkpt lat="46.25492" lon="4.65212">
        <ele>624.8</ele>
        <time>2022-06-25T13:32:48Z</time>
      </trkpt>
      <trkpt lat="46.25495" lon="4.65202">
        <ele>624.6</ele>
        <time>2022-06-25T13:32:49Z</time>
      </trkpt>
      <trkpt lat="46.25497" lon="4.65192">
        <ele>624.6</ele>
        <time>2022-06-25T13:32:50Z</time>
      </trkpt>
      <trkpt lat="46.255" lon="4.65183">
        <ele>624.2</ele>
        <time>2022-06-25T13:32:51Z</time>
      </trkpt>
      <trkpt lat="46.25503" lon="4.65173">
        <ele>624.2</ele>
        <time>2022-06-25T13:32:52Z</time>
      </trkpt>
      <trkpt lat="46.25506" lon="4.65163">
        <ele>623.8</ele>
        <time>2022-06-25T13:32:53Z</time>
      </trkpt>
      <trkpt lat="46.25509" lon="4.65154">
        <ele>623.8</ele>
        <time>2022-06-25T13:32:54Z</time>
      </trkpt>
      <trkpt lat="46.25511" lon="4.65144">
        <ele>623.8</ele>
        <time>2022-06-25T13:32:55Z</time>
      </trkpt>
      <trkpt lat="46.25513" lon="4.65134">
        <ele>623.6</ele>
        <time>2022-06-25T13:32:56Z</time>
      </trkpt>
      <trkpt lat="46.25515" lon="4.65125">
        <ele>623.6</ele>
        <time>2022-06-25T13:32:57Z</time>
      </trkpt>
      <trkpt lat="46.25517" lon="4.65115">
        <ele>623.6</ele>
        <time>2022-06-25T13:32:58Z</time>
      </trkpt>
      <trkpt lat="46.2552" lon="4.65107">
        <ele>623.6</ele>
        <time>2022-06-25T13:32:59Z</time>
      </trkpt>
      <trkpt lat="46.25522" lon="4.65098">
        <ele>623.6</ele>
        <time>2022-06-25T13:33:00Z</time>
      </trkpt>
      <trkpt lat="46.25525" lon="4.65085">
        <ele>623.2</ele>
        <time>2022-06-25T13:33:01Z</time>
      </trkpt>
      <trkpt lat="46.25526" lon="4.65081">
        <ele>623.2</ele>
        <time>2022-06-25T13:33:02Z</time>
      </trkpt>
      <trkpt lat="46.25528" lon="4.65072">
        <ele>623.2</ele>
        <time>2022-06-25T13:33:03Z</time>
      </trkpt>
      <trkpt lat="46.25531" lon="4.65064">
        <ele>623</ele>
        <time>2022-06-25T13:33:04Z</time>
      </trkpt>
      <trkpt lat="46.25533" lon="4.65056">
        <ele>623</ele>
        <time>2022-06-25T13:33:05Z</time>
      </trkpt>
      <trkpt lat="46.25535" lon="4.65048">
        <ele>623</ele>
        <time>2022-06-25T13:33:06Z</time>
      </trkpt>
      <trkpt lat="46.25537" lon="4.65041">
        <ele>623</ele>
        <time>2022-06-25T13:33:07Z</time>
      </trkpt>
      <trkpt lat="46.2554" lon="4.65033">
        <ele>623</ele>
        <time>2022-06-25T13:33:08Z</time>
      </trkpt>
      <trkpt lat="46.25542" lon="4.65026">
        <ele>623</ele>
        <time>2022-06-25T13:33:09Z</time>
      </trkpt>
      <trkpt lat="46.25544" lon="4.65018">
        <ele>623</ele>
        <time>2022-06-25T13:33:10Z</time>
      </trkpt>
      <trkpt lat="46.25546" lon="4.6501">
        <ele>623</ele>
        <time>2022-06-25T13:33:11Z</time>
      </trkpt>
      <trkpt lat="46.25549" lon="4.65002">
        <ele>623</ele>
        <time>2022-06-25T13:33:12Z</time>
      </trkpt>
      <trkpt lat="46.25551" lon="4.64994">
        <ele>623</ele>
        <time>2022-06-25T13:33:13Z</time>
      </trkpt>
      <trkpt lat="46.25553" lon="4.64985">
        <ele>623</ele>
        <time>2022-06-25T13:33:14Z</time>
      </trkpt>
      <trkpt lat="46.25555" lon="4.64976">
        <ele>623</ele>
        <time>2022-06-25T13:33:15Z</time>
      </trkpt>
      <trkpt lat="46.25557" lon="4.64968">
        <ele>623</ele>
        <time>2022-06-25T13:33:16Z</time>
      </trkpt>
      <trkpt lat="46.25559" lon="4.64959">
        <ele>623</ele>
        <time>2022-06-25T13:33:17Z</time>
      </trkpt>
      <trkpt lat="46.25561" lon="4.6495">
        <ele>623</ele>
        <time>2022-06-25T13:33:18Z</time>
      </trkpt>
      <trkpt lat="46.25562" lon="4.64941">
        <ele>623</ele>
        <time>2022-06-25T13:33:19Z</time>
      </trkpt>
      <trkpt lat="46.25565" lon="4.64931">
        <ele>623</ele>
        <time>2022-06-25T13:33:20Z</time>
      </trkpt>
      <trkpt lat="46.25567" lon="4.64922">
        <ele>623</ele>
        <time>2022-06-25T13:33:21Z</time>
      </trkpt>
      <trkpt lat="46.25569" lon="4.64912">
        <ele>623.2</ele>
        <time>2022-06-25T13:33:22Z</time>
      </trkpt>
      <trkpt lat="46.25571" lon="4.64903">
        <ele>623.2</ele>
        <time>2022-06-25T13:33:23Z</time>
      </trkpt>
      <trkpt lat="46.25573" lon="4.64893">
        <ele>623.2</ele>
        <time>2022-06-25T13:33:24Z</time>
      </trkpt>
      <trkpt lat="46.25574" lon="4.64882">
        <ele>623.2</ele>
        <time>2022-06-25T13:33:25Z</time>
      </trkpt>
      <trkpt lat="46.25575" lon="4.64871">
        <ele>623.2</ele>
        <time>2022-06-25T13:33:26Z</time>
      </trkpt>
      <trkpt lat="46.25576" lon="4.6486">
        <ele>623.2</ele>
        <time>2022-06-25T13:33:27Z</time>
      </trkpt>
      <trkpt lat="46.25576" lon="4.64849">
        <ele>623.2</ele>
        <time>2022-06-25T13:33:28Z</time>
      </trkpt>
      <trkpt lat="46.25576" lon="4.64838">
        <ele>623.4</ele>
        <time>2022-06-25T13:33:29Z</time>
      </trkpt>
      <trkpt lat="46.25575" lon="4.64827">
        <ele>623.4</ele>
        <time>2022-06-25T13:33:30Z</time>
      </trkpt>
      <trkpt lat="46.25575" lon="4.64816">
        <ele>623.4</ele>
        <time>2022-06-25T13:33:31Z</time>
      </trkpt>
      <trkpt lat="46.25575" lon="4.64805">
        <ele>623.4</ele>
        <time>2022-06-25T13:33:32Z</time>
      </trkpt>
      <trkpt lat="46.25575" lon="4.64794">
        <ele>623.2</ele>
        <time>2022-06-25T13:33:33Z</time>
      </trkpt>
      <trkpt lat="46.25574" lon="4.64784">
        <ele>623.2</ele>
        <time>2022-06-25T13:33:34Z</time>
      </trkpt>
      <trkpt lat="46.25574" lon="4.64773">
        <ele>623</ele>
        <time>2022-06-25T13:33:35Z</time>
      </trkpt>
      <trkpt lat="46.25574" lon="4.64763">
        <ele>623</ele>
        <time>2022-06-25T13:33:36Z</time>
      </trkpt>
      <trkpt lat="46.25573" lon="4.64753">
        <ele>622.6</ele>
        <time>2022-06-25T13:33:37Z</time>
      </trkpt>
      <trkpt lat="46.25572" lon="4.64743">
        <ele>622.6</ele>
        <time>2022-06-25T13:33:38Z</time>
      </trkpt>
      <trkpt lat="46.2557" lon="4.64733">
        <ele>622.4</ele>
        <time>2022-06-25T13:33:39Z</time>
      </trkpt>
      <trkpt lat="46.25568" lon="4.64723">
        <ele>622</ele>
        <time>2022-06-25T13:33:40Z</time>
      </trkpt>
      <trkpt lat="46.25566" lon="4.64714">
        <ele>621.8</ele>
        <time>2022-06-25T13:33:41Z</time>
      </trkpt>
      <trkpt lat="46.25562" lon="4.64705">
        <ele>621.8</ele>
        <time>2022-06-25T13:33:42Z</time>
      </trkpt>
      <trkpt lat="46.25559" lon="4.64696">
        <ele>621.6</ele>
        <time>2022-06-25T13:33:43Z</time>
      </trkpt>
      <trkpt lat="46.25555" lon="4.64688">
        <ele>621.6</ele>
        <time>2022-06-25T13:33:44Z</time>
      </trkpt>
      <trkpt lat="46.25551" lon="4.6468">
        <ele>621.6</ele>
        <time>2022-06-25T13:33:45Z</time>
      </trkpt>
      <trkpt lat="46.25548" lon="4.64671">
        <ele>621.6</ele>
        <time>2022-06-25T13:33:46Z</time>
      </trkpt>
      <trkpt lat="46.25544" lon="4.64662">
        <ele>621.2</ele>
        <time>2022-06-25T13:33:47Z</time>
      </trkpt>
      <trkpt lat="46.2554" lon="4.64654">
        <ele>621.2</ele>
        <time>2022-06-25T13:33:48Z</time>
      </trkpt>
      <trkpt lat="46.25535" lon="4.64647">
        <ele>621.2</ele>
        <time>2022-06-25T13:33:49Z</time>
      </trkpt>
      <trkpt lat="46.25529" lon="4.64641">
        <ele>621</ele>
        <time>2022-06-25T13:33:50Z</time>
      </trkpt>
      <trkpt lat="46.25522" lon="4.64637">
        <ele>621</ele>
        <time>2022-06-25T13:33:51Z</time>
      </trkpt>
      <trkpt lat="46.25515" lon="4.64635">
        <ele>621</ele>
        <time>2022-06-25T13:33:52Z</time>
      </trkpt>
      <trkpt lat="46.25507" lon="4.64633">
        <ele>621</ele>
        <time>2022-06-25T13:33:53Z</time>
      </trkpt>
      <trkpt lat="46.255" lon="4.64632">
        <ele>621</ele>
        <time>2022-06-25T13:33:54Z</time>
      </trkpt>
      <trkpt lat="46.25493" lon="4.64631">
        <ele>620.8</ele>
        <time>2022-06-25T13:33:55Z</time>
      </trkpt>
      <trkpt lat="46.25485" lon="4.64629">
        <ele>620.8</ele>
        <time>2022-06-25T13:33:56Z</time>
      </trkpt>
      <trkpt lat="46.25478" lon="4.64628">
        <ele>620.8</ele>
        <time>2022-06-25T13:33:57Z</time>
      </trkpt>
      <trkpt lat="46.25471" lon="4.64626">
        <ele>620.8</ele>
        <time>2022-06-25T13:33:58Z</time>
      </trkpt>
      <trkpt lat="46.25464" lon="4.64626">
        <ele>620.4</ele>
        <time>2022-06-25T13:33:59Z</time>
      </trkpt>
      <trkpt lat="46.25457" lon="4.64624">
        <ele>620.4</ele>
        <time>2022-06-25T13:34:00Z</time>
      </trkpt>
      <trkpt lat="46.25451" lon="4.6462">
        <ele>620.4</ele>
        <time>2022-06-25T13:34:01Z</time>
      </trkpt>
      <trkpt lat="46.25446" lon="4.64613">
        <ele>620.4</ele>
        <time>2022-06-25T13:34:02Z</time>
      </trkpt>
      <trkpt lat="46.25441" lon="4.64606">
        <ele>620.2</ele>
        <time>2022-06-25T13:34:03Z</time>
      </trkpt>
      <trkpt lat="46.25438" lon="4.64597">
        <ele>620.2</ele>
        <time>2022-06-25T13:34:04Z</time>
      </trkpt>
      <trkpt lat="46.25436" lon="4.64588">
        <ele>620.2</ele>
        <time>2022-06-25T13:34:05Z</time>
      </trkpt>
      <trkpt lat="46.25436" lon="4.64578">
        <ele>620.2</ele>
        <time>2022-06-25T13:34:06Z</time>
      </trkpt>
      <trkpt lat="46.25436" lon="4.64568">
        <ele>620.2</ele>
        <time>2022-06-25T13:34:07Z</time>
      </trkpt>
      <trkpt lat="46.25437" lon="4.64559">
        <ele>620.2</ele>
        <time>2022-06-25T13:34:08Z</time>
      </trkpt>
      <trkpt lat="46.25438" lon="4.6455">
        <ele>620.2</ele>
        <time>2022-06-25T13:34:09Z</time>
      </trkpt>
      <trkpt lat="46.2544" lon="4.64541">
        <ele>620.2</ele>
        <time>2022-06-25T13:34:10Z</time>
      </trkpt>
      <trkpt lat="46.25442" lon="4.64527">
        <ele>620.2</ele>
        <time>2022-06-25T13:34:11Z</time>
      </trkpt>
      <trkpt lat="46.25443" lon="4.64523">
        <ele>620.2</ele>
        <time>2022-06-25T13:34:12Z</time>
      </trkpt>
      <trkpt lat="46.25444" lon="4.64514">
        <ele>620.4</ele>
        <time>2022-06-25T13:34:13Z</time>
      </trkpt>
      <trkpt lat="46.25446" lon="4.64505">
        <ele>620.4</ele>
        <time>2022-06-25T13:34:14Z</time>
      </trkpt>
      <trkpt lat="46.25448" lon="4.64496">
        <ele>620.4</ele>
        <time>2022-06-25T13:34:15Z</time>
      </trkpt>
      <trkpt lat="46.25449" lon="4.64487">
        <ele>620.4</ele>
        <time>2022-06-25T13:34:16Z</time>
      </trkpt>
      <trkpt lat="46.2545" lon="4.64478">
        <ele>620.4</ele>
        <time>2022-06-25T13:34:17Z</time>
      </trkpt>
      <trkpt lat="46.25452" lon="4.6447">
        <ele>620.6</ele>
        <time>2022-06-25T13:34:18Z</time>
      </trkpt>
      <trkpt lat="46.25453" lon="4.64461">
        <ele>620.6</ele>
        <time>2022-06-25T13:34:19Z</time>
      </trkpt>
      <trkpt lat="46.25454" lon="4.64453">
        <ele>621</ele>
        <time>2022-06-25T13:34:20Z</time>
      </trkpt>
      <trkpt lat="46.25456" lon="4.64445">
        <ele>621</ele>
        <time>2022-06-25T13:34:21Z</time>
      </trkpt>
      <trkpt lat="46.25457" lon="4.64437">
        <ele>621.2</ele>
        <time>2022-06-25T13:34:22Z</time>
      </trkpt>
      <trkpt lat="46.25458" lon="4.64429">
        <ele>621.2</ele>
        <time>2022-06-25T13:34:23Z</time>
      </trkpt>
      <trkpt lat="46.25459" lon="4.64421">
        <ele>621.2</ele>
        <time>2022-06-25T13:34:24Z</time>
      </trkpt>
      <trkpt lat="46.2546" lon="4.64414">
        <ele>621.6</ele>
        <time>2022-06-25T13:34:25Z</time>
      </trkpt>
      <trkpt lat="46.25461" lon="4.64407">
        <ele>621.6</ele>
        <time>2022-06-25T13:34:26Z</time>
      </trkpt>
      <trkpt lat="46.25462" lon="4.644">
        <ele>621.8</ele>
        <time>2022-06-25T13:34:27Z</time>
      </trkpt>
      <trkpt lat="46.25463" lon="4.64393">
        <ele>621.8</ele>
        <time>2022-06-25T13:34:28Z</time>
      </trkpt>
      <trkpt lat="46.25464" lon="4.64387">
        <ele>622.2</ele>
        <time>2022-06-25T13:34:29Z</time>
      </trkpt>
      <trkpt lat="46.25464" lon="4.64381">
        <ele>622.2</ele>
        <time>2022-06-25T13:34:30Z</time>
      </trkpt>
      <trkpt lat="46.25465" lon="4.64375">
        <ele>622.6</ele>
        <time>2022-06-25T13:34:31Z</time>
      </trkpt>
      <trkpt lat="46.25466" lon="4.6437">
        <ele>622.6</ele>
        <time>2022-06-25T13:34:32Z</time>
      </trkpt>
      <trkpt lat="46.25467" lon="4.64365">
        <ele>622.8</ele>
        <time>2022-06-25T13:34:33Z</time>
      </trkpt>
      <trkpt lat="46.25468" lon="4.64361">
        <ele>622.8</ele>
        <time>2022-06-25T13:34:34Z</time>
      </trkpt>
      <trkpt lat="46.25469" lon="4.64357">
        <ele>623.2</ele>
        <time>2022-06-25T13:34:35Z</time>
      </trkpt>
      <trkpt lat="46.25469" lon="4.64353">
        <ele>623.2</ele>
        <time>2022-06-25T13:34:36Z</time>
      </trkpt>
      <trkpt lat="46.2547" lon="4.64351">
        <ele>623.6</ele>
        <time>2022-06-25T13:34:37Z</time>
      </trkpt>
      <trkpt lat="46.2547" lon="4.64349">
        <ele>623.6</ele>
        <time>2022-06-25T13:34:38Z</time>
      </trkpt>
      <trkpt lat="46.2547" lon="4.64348">
        <ele>623.8</ele>
        <time>2022-06-25T13:34:39Z</time>
      </trkpt>
      <trkpt lat="46.2547" lon="4.64348">
        <ele>624</ele>
        <time>2022-06-25T13:34:41Z</time>
      </trkpt>
      <trkpt lat="46.25467" lon="4.64347">
        <ele>624</ele>
        <time>2022-06-25T13:34:51Z</time>
      </trkpt>
      <trkpt lat="46.25466" lon="4.64347">
        <ele>624</ele>
        <time>2022-06-25T13:34:52Z</time>
      </trkpt>
      <trkpt lat="46.25465" lon="4.64347">
        <ele>624</ele>
        <time>2022-06-25T13:34:53Z</time>
      </trkpt>
      <trkpt lat="46.25465" lon="4.64348">
        <ele>624</ele>
        <time>2022-06-25T13:34:54Z</time>
      </trkpt>
      <trkpt lat="46.25467" lon="4.6435">
        <ele>624.6</ele>
        <time>2022-06-25T13:36:50Z</time>
      </trkpt>
      <trkpt lat="46.25468" lon="4.64349">
        <ele>624.6</ele>
        <time>2022-06-25T13:36:51Z</time>
      </trkpt>
      <trkpt lat="46.25469" lon="4.64349">
        <ele>624.6</ele>
        <time>2022-06-25T13:36:52Z</time>
      </trkpt>
      <trkpt lat="46.2547" lon="4.64345">
        <ele>624.6</ele>
        <time>2022-06-25T13:36:59Z</time>
      </trkpt>
      <trkpt lat="46.25471" lon="4.64343">
        <ele>624.6</ele>
        <time>2022-06-25T13:37:00Z</time>
      </trkpt>
      <trkpt lat="46.25472" lon="4.6434">
        <ele>624.6</ele>
        <time>2022-06-25T13:37:01Z</time>
      </trkpt>
      <trkpt lat="46.25472" lon="4.64337">
        <ele>624.6</ele>
        <time>2022-06-25T13:37:02Z</time>
      </trkpt>
      <trkpt lat="46.25473" lon="4.64335">
        <ele>624.6</ele>
        <time>2022-06-25T13:37:03Z</time>
      </trkpt>
      <trkpt lat="46.25474" lon="4.64333">
        <ele>624.6</ele>
        <time>2022-06-25T13:37:04Z</time>
      </trkpt>
      <trkpt lat="46.25475" lon="4.6433">
        <ele>624.6</ele>
        <time>2022-06-25T13:37:05Z</time>
      </trkpt>
      <trkpt lat="46.25475" lon="4.64326">
        <ele>624.6</ele>
        <time>2022-06-25T13:37:06Z</time>
      </trkpt>
      <trkpt lat="46.25476" lon="4.64323">
        <ele>624.6</ele>
        <time>2022-06-25T13:37:07Z</time>
      </trkpt>
      <trkpt lat="46.25478" lon="4.64319">
        <ele>625</ele>
        <time>2022-06-25T13:37:08Z</time>
      </trkpt>
      <trkpt lat="46.2548" lon="4.64315">
        <ele>625</ele>
        <time>2022-06-25T13:37:09Z</time>
      </trkpt>
      <trkpt lat="46.25481" lon="4.6431">
        <ele>625.2</ele>
        <time>2022-06-25T13:37:10Z</time>
      </trkpt>
      <trkpt lat="46.25482" lon="4.64305">
        <ele>625.2</ele>
        <time>2022-06-25T13:37:11Z</time>
      </trkpt>
      <trkpt lat="46.25482" lon="4.64299">
        <ele>625.6</ele>
        <time>2022-06-25T13:37:12Z</time>
      </trkpt>
      <trkpt lat="46.25483" lon="4.64293">
        <ele>625.6</ele>
        <time>2022-06-25T13:37:13Z</time>
      </trkpt>
      <trkpt lat="46.25484" lon="4.64287">
        <ele>626</ele>
        <time>2022-06-25T13:37:14Z</time>
      </trkpt>
      <trkpt lat="46.25486" lon="4.6428">
        <ele>626.2</ele>
        <time>2022-06-25T13:37:15Z</time>
      </trkpt>
      <trkpt lat="46.25487" lon="4.64274">
        <ele>626.2</ele>
        <time>2022-06-25T13:37:16Z</time>
      </trkpt>
      <trkpt lat="46.25489" lon="4.64267">
        <ele>626.6</ele>
        <time>2022-06-25T13:37:17Z</time>
      </trkpt>
      <trkpt lat="46.2549" lon="4.6426">
        <ele>626.8</ele>
        <time>2022-06-25T13:37:18Z</time>
      </trkpt>
      <trkpt lat="46.25492" lon="4.64253">
        <ele>626.8</ele>
        <time>2022-06-25T13:37:19Z</time>
      </trkpt>
      <trkpt lat="46.25493" lon="4.64246">
        <ele>627.2</ele>
        <time>2022-06-25T13:37:20Z</time>
      </trkpt>
      <trkpt lat="46.25494" lon="4.64239">
        <ele>627.6</ele>
        <time>2022-06-25T13:37:21Z</time>
      </trkpt>
      <trkpt lat="46.25495" lon="4.64231">
        <ele>627.8</ele>
        <time>2022-06-25T13:37:22Z</time>
      </trkpt>
      <trkpt lat="46.25496" lon="4.64224">
        <ele>628</ele>
        <time>2022-06-25T13:37:23Z</time>
      </trkpt>
      <trkpt lat="46.25497" lon="4.64216">
        <ele>628</ele>
        <time>2022-06-25T13:37:24Z</time>
      </trkpt>
      <trkpt lat="46.25498" lon="4.64208">
        <ele>628.4</ele>
        <time>2022-06-25T13:37:25Z</time>
      </trkpt>
      <trkpt lat="46.25499" lon="4.642">
        <ele>628.4</ele>
        <time>2022-06-25T13:37:26Z</time>
      </trkpt>
      <trkpt lat="46.255" lon="4.64192">
        <ele>628.6</ele>
        <time>2022-06-25T13:37:27Z</time>
      </trkpt>
      <trkpt lat="46.25501" lon="4.64184">
        <ele>628.6</ele>
        <time>2022-06-25T13:37:28Z</time>
      </trkpt>
      <trkpt lat="46.25502" lon="4.64176">
        <ele>628.8</ele>
        <time>2022-06-25T13:37:29Z</time>
      </trkpt>
      <trkpt lat="46.25503" lon="4.64168">
        <ele>628.8</ele>
        <time>2022-06-25T13:37:30Z</time>
      </trkpt>
      <trkpt lat="46.25504" lon="4.6416">
        <ele>628.8</ele>
        <time>2022-06-25T13:37:31Z</time>
      </trkpt>
      <trkpt lat="46.25505" lon="4.64152">
        <ele>628.8</ele>
        <time>2022-06-25T13:37:32Z</time>
      </trkpt>
      <trkpt lat="46.25506" lon="4.64144">
        <ele>629.2</ele>
        <time>2022-06-25T13:37:33Z</time>
      </trkpt>
      <trkpt lat="46.25507" lon="4.64136">
        <ele>629.2</ele>
        <time>2022-06-25T13:37:34Z</time>
      </trkpt>
      <trkpt lat="46.25508" lon="4.64128">
        <ele>629.2</ele>
        <time>2022-06-25T13:37:35Z</time>
      </trkpt>
      <trkpt lat="46.25508" lon="4.64119">
        <ele>629.2</ele>
        <time>2022-06-25T13:37:36Z</time>
      </trkpt>
      <trkpt lat="46.25508" lon="4.6411">
        <ele>629.2</ele>
        <time>2022-06-25T13:37:37Z</time>
      </trkpt>
      <trkpt lat="46.25508" lon="4.64101">
        <ele>629.4</ele>
        <time>2022-06-25T13:37:38Z</time>
      </trkpt>
      <trkpt lat="46.25509" lon="4.64093">
        <ele>629.4</ele>
        <time>2022-06-25T13:37:39Z</time>
      </trkpt>
      <trkpt lat="46.25508" lon="4.64084">
        <ele>629.4</ele>
        <time>2022-06-25T13:37:40Z</time>
      </trkpt>
      <trkpt lat="46.25508" lon="4.64075">
        <ele>629.4</ele>
        <time>2022-06-25T13:37:41Z</time>
      </trkpt>
      <trkpt lat="46.25507" lon="4.64067">
        <ele>629.4</ele>
        <time>2022-06-25T13:37:42Z</time>
      </trkpt>
      <trkpt lat="46.25506" lon="4.64058">
        <ele>629.4</ele>
        <time>2022-06-25T13:37:43Z</time>
      </trkpt>
      <trkpt lat="46.25505" lon="4.6405">
        <ele>629.4</ele>
        <time>2022-06-25T13:37:44Z</time>
      </trkpt>
      <trkpt lat="46.25504" lon="4.64041">
        <ele>629.2</ele>
        <time>2022-06-25T13:37:45Z</time>
      </trkpt>
      <trkpt lat="46.25502" lon="4.64032">
        <ele>629.2</ele>
        <time>2022-06-25T13:37:46Z</time>
      </trkpt>
      <trkpt lat="46.25501" lon="4.64023">
        <ele>629.2</ele>
        <time>2022-06-25T13:37:47Z</time>
      </trkpt>
      <trkpt lat="46.25499" lon="4.64014">
        <ele>629</ele>
        <time>2022-06-25T13:37:48Z</time>
      </trkpt>
      <trkpt lat="46.25497" lon="4.64005">
        <ele>629</ele>
        <time>2022-06-25T13:37:49Z</time>
      </trkpt>
      <trkpt lat="46.25495" lon="4.63996">
        <ele>628.6</ele>
        <time>2022-06-25T13:37:50Z</time>
      </trkpt>
      <trkpt lat="46.25492" lon="4.63986">
        <ele>628.6</ele>
        <time>2022-06-25T13:37:51Z</time>
      </trkpt>
      <trkpt lat="46.25489" lon="4.63976">
        <ele>628.4</ele>
        <time>2022-06-25T13:37:52Z</time>
      </trkpt>
      <trkpt lat="46.25486" lon="4.63967">
        <ele>628.4</ele>
        <time>2022-06-25T13:37:53Z</time>
      </trkpt>
      <trkpt lat="46.25484" lon="4.63958">
        <ele>628.4</ele>
        <time>2022-06-25T13:37:54Z</time>
      </trkpt>
      <trkpt lat="46.25482" lon="4.63949">
        <ele>628.2</ele>
        <time>2022-06-25T13:37:55Z</time>
      </trkpt>
      <trkpt lat="46.2548" lon="4.63939">
        <ele>628.2</ele>
        <time>2022-06-25T13:37:56Z</time>
      </trkpt>
      <trkpt lat="46.25477" lon="4.6393">
        <ele>628.2</ele>
        <time>2022-06-25T13:37:57Z</time>
      </trkpt>
      <trkpt lat="46.25475" lon="4.6392">
        <ele>628</ele>
        <time>2022-06-25T13:37:58Z</time>
      </trkpt>
      <trkpt lat="46.25473" lon="4.63911">
        <ele>628</ele>
        <time>2022-06-25T13:37:59Z</time>
      </trkpt>
      <trkpt lat="46.2547" lon="4.63901">
        <ele>628</ele>
        <time>2022-06-25T13:38:00Z</time>
      </trkpt>
      <trkpt lat="46.25468" lon="4.63892">
        <ele>628</ele>
        <time>2022-06-25T13:38:01Z</time>
      </trkpt>
      <trkpt lat="46.25466" lon="4.63882">
        <ele>627.8</ele>
        <time>2022-06-25T13:38:02Z</time>
      </trkpt>
      <trkpt lat="46.25463" lon="4.63872">
        <ele>627.8</ele>
        <time>2022-06-25T13:38:03Z</time>
      </trkpt>
      <trkpt lat="46.25461" lon="4.63862">
        <ele>627.8</ele>
        <time>2022-06-25T13:38:04Z</time>
      </trkpt>
      <trkpt lat="46.25458" lon="4.63851">
        <ele>627.4</ele>
        <time>2022-06-25T13:38:05Z</time>
      </trkpt>
      <trkpt lat="46.25456" lon="4.63841">
        <ele>627.4</ele>
        <time>2022-06-25T13:38:06Z</time>
      </trkpt>
      <trkpt lat="46.25453" lon="4.63831">
        <ele>627.4</ele>
        <time>2022-06-25T13:38:07Z</time>
      </trkpt>
      <trkpt lat="46.25451" lon="4.63821">
        <ele>627.2</ele>
        <time>2022-06-25T13:38:08Z</time>
      </trkpt>
      <trkpt lat="46.25449" lon="4.63811">
        <ele>627.2</ele>
        <time>2022-06-25T13:38:09Z</time>
      </trkpt>
      <trkpt lat="46.25446" lon="4.63801">
        <ele>627.2</ele>
        <time>2022-06-25T13:38:10Z</time>
      </trkpt>
      <trkpt lat="46.25443" lon="4.63791">
        <ele>627</ele>
        <time>2022-06-25T13:38:11Z</time>
      </trkpt>
      <trkpt lat="46.25441" lon="4.63781">
        <ele>627</ele>
        <time>2022-06-25T13:38:12Z</time>
      </trkpt>
      <trkpt lat="46.25438" lon="4.6377">
        <ele>627</ele>
        <time>2022-06-25T13:38:13Z</time>
      </trkpt>
      <trkpt lat="46.25435" lon="4.63757">
        <ele>626.6</ele>
        <time>2022-06-25T13:38:14Z</time>
      </trkpt>
      <trkpt lat="46.25433" lon="4.63744">
        <ele>626.6</ele>
        <time>2022-06-25T13:38:15Z</time>
      </trkpt>
      <trkpt lat="46.25431" lon="4.63732">
        <ele>626.4</ele>
        <time>2022-06-25T13:38:16Z</time>
      </trkpt>
      <trkpt lat="46.2543" lon="4.6372">
        <ele>626.4</ele>
        <time>2022-06-25T13:38:17Z</time>
      </trkpt>
      <trkpt lat="46.25429" lon="4.63708">
        <ele>626.4</ele>
        <time>2022-06-25T13:38:18Z</time>
      </trkpt>
      <trkpt lat="46.25428" lon="4.63696">
        <ele>626.2</ele>
        <time>2022-06-25T13:38:19Z</time>
      </trkpt>
      <trkpt lat="46.25429" lon="4.63685">
        <ele>626.2</ele>
        <time>2022-06-25T13:38:20Z</time>
      </trkpt>
      <trkpt lat="46.25431" lon="4.63676">
        <ele>626.2</ele>
        <time>2022-06-25T13:38:21Z</time>
      </trkpt>
      <trkpt lat="46.25433" lon="4.63666">
        <ele>626</ele>
        <time>2022-06-25T13:38:22Z</time>
      </trkpt>
      <trkpt lat="46.25435" lon="4.63656">
        <ele>626</ele>
        <time>2022-06-25T13:38:23Z</time>
      </trkpt>
      <trkpt lat="46.25438" lon="4.63647">
        <ele>626</ele>
        <time>2022-06-25T13:38:24Z</time>
      </trkpt>
      <trkpt lat="46.25442" lon="4.63637">
        <ele>626</ele>
        <time>2022-06-25T13:38:25Z</time>
      </trkpt>
      <trkpt lat="46.25446" lon="4.63628">
        <ele>626</ele>
        <time>2022-06-25T13:38:26Z</time>
      </trkpt>
      <trkpt lat="46.2545" lon="4.63619">
        <ele>625.8</ele>
        <time>2022-06-25T13:38:27Z</time>
      </trkpt>
      <trkpt lat="46.25454" lon="4.6361">
        <ele>625.8</ele>
        <time>2022-06-25T13:38:28Z</time>
      </trkpt>
      <trkpt lat="46.25458" lon="4.63601">
        <ele>625.8</ele>
        <time>2022-06-25T13:38:29Z</time>
      </trkpt>
      <trkpt lat="46.25462" lon="4.63592">
        <ele>625.8</ele>
        <time>2022-06-25T13:38:30Z</time>
      </trkpt>
      <trkpt lat="46.25466" lon="4.63584">
        <ele>625.8</ele>
        <time>2022-06-25T13:38:31Z</time>
      </trkpt>
      <trkpt lat="46.2547" lon="4.63574">
        <ele>625.8</ele>
        <time>2022-06-25T13:38:32Z</time>
      </trkpt>
      <trkpt lat="46.25473" lon="4.63564">
        <ele>625.8</ele>
        <time>2022-06-25T13:38:33Z</time>
      </trkpt>
      <trkpt lat="46.25477" lon="4.63554">
        <ele>625.8</ele>
        <time>2022-06-25T13:38:34Z</time>
      </trkpt>
      <trkpt lat="46.25481" lon="4.63544">
        <ele>625.8</ele>
        <time>2022-06-25T13:38:35Z</time>
      </trkpt>
      <trkpt lat="46.25484" lon="4.63535">
        <ele>625.8</ele>
        <time>2022-06-25T13:38:36Z</time>
      </trkpt>
      <trkpt lat="46.25488" lon="4.63525">
        <ele>625.8</ele>
        <time>2022-06-25T13:38:37Z</time>
      </trkpt>
      <trkpt lat="46.25491" lon="4.63516">
        <ele>625.8</ele>
        <time>2022-06-25T13:38:38Z</time>
      </trkpt>
      <trkpt lat="46.25494" lon="4.63506">
        <ele>625.8</ele>
        <time>2022-06-25T13:38:39Z</time>
      </trkpt>
      <trkpt lat="46.25497" lon="4.63496">
        <ele>625.8</ele>
        <time>2022-06-25T13:38:40Z</time>
      </trkpt>
      <trkpt lat="46.25501" lon="4.63487">
        <ele>625.8</ele>
        <time>2022-06-25T13:38:41Z</time>
      </trkpt>
      <trkpt lat="46.25504" lon="4.63478">
        <ele>625.8</ele>
        <time>2022-06-25T13:38:42Z</time>
      </trkpt>
      <trkpt lat="46.25508" lon="4.63469">
        <ele>625.8</ele>
        <time>2022-06-25T13:38:43Z</time>
      </trkpt>
      <trkpt lat="46.25511" lon="4.6346">
        <ele>625.8</ele>
        <time>2022-06-25T13:38:44Z</time>
      </trkpt>
      <trkpt lat="46.25515" lon="4.63451">
        <ele>625.8</ele>
        <time>2022-06-25T13:38:45Z</time>
      </trkpt>
      <trkpt lat="46.25519" lon="4.63443">
        <ele>625.8</ele>
        <time>2022-06-25T13:38:46Z</time>
      </trkpt>
      <trkpt lat="46.25522" lon="4.63435">
        <ele>626</ele>
        <time>2022-06-25T13:38:47Z</time>
      </trkpt>
      <trkpt lat="46.25525" lon="4.63426">
        <ele>626</ele>
        <time>2022-06-25T13:38:48Z</time>
      </trkpt>
      <trkpt lat="46.25528" lon="4.63417">
        <ele>626</ele>
        <time>2022-06-25T13:38:49Z</time>
      </trkpt>
      <trkpt lat="46.25531" lon="4.63409">
        <ele>626.4</ele>
        <time>2022-06-25T13:38:50Z</time>
      </trkpt>
      <trkpt lat="46.25533" lon="4.634">
        <ele>626.4</ele>
        <time>2022-06-25T13:38:51Z</time>
      </trkpt>
      <trkpt lat="46.25535" lon="4.63391">
        <ele>626.4</ele>
        <time>2022-06-25T13:38:52Z</time>
      </trkpt>
      <trkpt lat="46.25537" lon="4.63382">
        <ele>626.4</ele>
        <time>2022-06-25T13:38:53Z</time>
      </trkpt>
      <trkpt lat="46.25539" lon="4.63373">
        <ele>626.2</ele>
        <time>2022-06-25T13:38:54Z</time>
      </trkpt>
      <trkpt lat="46.2554" lon="4.63364">
        <ele>626.2</ele>
        <time>2022-06-25T13:38:55Z</time>
      </trkpt>
      <trkpt lat="46.25541" lon="4.63354">
        <ele>626.2</ele>
        <time>2022-06-25T13:38:56Z</time>
      </trkpt>
      <trkpt lat="46.25542" lon="4.63345">
        <ele>626.2</ele>
        <time>2022-06-25T13:38:57Z</time>
      </trkpt>
      <trkpt lat="46.25543" lon="4.63335">
        <ele>626.2</ele>
        <time>2022-06-25T13:38:58Z</time>
      </trkpt>
      <trkpt lat="46.25543" lon="4.63326">
        <ele>626.2</ele>
        <time>2022-06-25T13:38:59Z</time>
      </trkpt>
      <trkpt lat="46.25543" lon="4.63316">
        <ele>626.2</ele>
        <time>2022-06-25T13:39:00Z</time>
      </trkpt>
      <trkpt lat="46.25543" lon="4.63307">
        <ele>626.2</ele>
        <time>2022-06-25T13:39:01Z</time>
      </trkpt>
      <trkpt lat="46.25543" lon="4.63298">
        <ele>626.2</ele>
        <time>2022-06-25T13:39:02Z</time>
      </trkpt>
      <trkpt lat="46.25542" lon="4.63289">
        <ele>626.2</ele>
        <time>2022-06-25T13:39:03Z</time>
      </trkpt>
      <trkpt lat="46.25541" lon="4.6328">
        <ele>626.2</ele>
        <time>2022-06-25T13:39:04Z</time>
      </trkpt>
      <trkpt lat="46.25541" lon="4.63271">
        <ele>626.2</ele>
        <time>2022-06-25T13:39:05Z</time>
      </trkpt>
      <trkpt lat="46.2554" lon="4.63262">
        <ele>626.4</ele>
        <time>2022-06-25T13:39:06Z</time>
      </trkpt>
      <trkpt lat="46.2554" lon="4.63252">
        <ele>626.4</ele>
        <time>2022-06-25T13:39:07Z</time>
      </trkpt>
      <trkpt lat="46.25539" lon="4.63243">
        <ele>626.4</ele>
        <time>2022-06-25T13:39:08Z</time>
      </trkpt>
      <trkpt lat="46.25539" lon="4.63234">
        <ele>626.6</ele>
        <time>2022-06-25T13:39:09Z</time>
      </trkpt>
      <trkpt lat="46.25538" lon="4.63225">
        <ele>626.6</ele>
        <time>2022-06-25T13:39:10Z</time>
      </trkpt>
      <trkpt lat="46.25537" lon="4.63216">
        <ele>626.6</ele>
        <time>2022-06-25T13:39:11Z</time>
      </trkpt>
      <trkpt lat="46.25537" lon="4.63207">
        <ele>626.6</ele>
        <time>2022-06-25T13:39:12Z</time>
      </trkpt>
      <trkpt lat="46.25536" lon="4.63198">
        <ele>627</ele>
        <time>2022-06-25T13:39:13Z</time>
      </trkpt>
      <trkpt lat="46.25536" lon="4.63189">
        <ele>627</ele>
        <time>2022-06-25T13:39:14Z</time>
      </trkpt>
      <trkpt lat="46.25535" lon="4.6318">
        <ele>627.4</ele>
        <time>2022-06-25T13:39:15Z</time>
      </trkpt>
      <trkpt lat="46.25535" lon="4.63171">
        <ele>627.4</ele>
        <time>2022-06-25T13:39:16Z</time>
      </trkpt>
      <trkpt lat="46.25534" lon="4.63162">
        <ele>627.6</ele>
        <time>2022-06-25T13:39:17Z</time>
      </trkpt>
      <trkpt lat="46.25534" lon="4.63154">
        <ele>627.6</ele>
        <time>2022-06-25T13:39:18Z</time>
      </trkpt>
      <trkpt lat="46.25533" lon="4.63145">
        <ele>627.6</ele>
        <time>2022-06-25T13:39:19Z</time>
      </trkpt>
      <trkpt lat="46.25533" lon="4.63136">
        <ele>627.6</ele>
        <time>2022-06-25T13:39:20Z</time>
      </trkpt>
      <trkpt lat="46.25532" lon="4.63128">
        <ele>627.6</ele>
        <time>2022-06-25T13:39:21Z</time>
      </trkpt>
      <trkpt lat="46.25532" lon="4.63119">
        <ele>627.8</ele>
        <time>2022-06-25T13:39:22Z</time>
      </trkpt>
      <trkpt lat="46.25532" lon="4.63111">
        <ele>627.8</ele>
        <time>2022-06-25T13:39:23Z</time>
      </trkpt>
      <trkpt lat="46.25531" lon="4.63102">
        <ele>628.2</ele>
        <time>2022-06-25T13:39:24Z</time>
      </trkpt>
      <trkpt lat="46.25531" lon="4.63094">
        <ele>628.2</ele>
        <time>2022-06-25T13:39:25Z</time>
      </trkpt>
      <trkpt lat="46.2553" lon="4.63086">
        <ele>628.4</ele>
        <time>2022-06-25T13:39:26Z</time>
      </trkpt>
      <trkpt lat="46.2553" lon="4.63077">
        <ele>628.4</ele>
        <time>2022-06-25T13:39:27Z</time>
      </trkpt>
      <trkpt lat="46.25529" lon="4.63069">
        <ele>628.8</ele>
        <time>2022-06-25T13:39:28Z</time>
      </trkpt>
      <trkpt lat="46.25529" lon="4.63061">
        <ele>628.8</ele>
        <time>2022-06-25T13:39:29Z</time>
      </trkpt>
      <trkpt lat="46.25528" lon="4.63052">
        <ele>629</ele>
        <time>2022-06-25T13:39:30Z</time>
      </trkpt>
      <trkpt lat="46.25528" lon="4.63044">
        <ele>629</ele>
        <time>2022-06-25T13:39:31Z</time>
      </trkpt>
      <trkpt lat="46.25527" lon="4.63036">
        <ele>629.4</ele>
        <time>2022-06-25T13:39:32Z</time>
      </trkpt>
      <trkpt lat="46.25527" lon="4.63028">
        <ele>629.4</ele>
        <time>2022-06-25T13:39:33Z</time>
      </trkpt>
      <trkpt lat="46.25526" lon="4.6302">
        <ele>629.6</ele>
        <time>2022-06-25T13:39:34Z</time>
      </trkpt>
      <trkpt lat="46.25526" lon="4.63012">
        <ele>629.6</ele>
        <time>2022-06-25T13:39:35Z</time>
      </trkpt>
      <trkpt lat="46.25525" lon="4.63004">
        <ele>629.8</ele>
        <time>2022-06-25T13:39:36Z</time>
      </trkpt>
      <trkpt lat="46.25525" lon="4.62996">
        <ele>629.8</ele>
        <time>2022-06-25T13:39:37Z</time>
      </trkpt>
      <trkpt lat="46.25524" lon="4.62987">
        <ele>629.8</ele>
        <time>2022-06-25T13:39:38Z</time>
      </trkpt>
      <trkpt lat="46.25524" lon="4.62979">
        <ele>629.8</ele>
        <time>2022-06-25T13:39:39Z</time>
      </trkpt>
      <trkpt lat="46.25523" lon="4.62971">
        <ele>630.2</ele>
        <time>2022-06-25T13:39:40Z</time>
      </trkpt>
      <trkpt lat="46.25523" lon="4.62963">
        <ele>630.2</ele>
        <time>2022-06-25T13:39:41Z</time>
      </trkpt>
      <trkpt lat="46.25523" lon="4.62955">
        <ele>630.4</ele>
        <time>2022-06-25T13:39:42Z</time>
      </trkpt>
      <trkpt lat="46.25522" lon="4.62946">
        <ele>630.4</ele>
        <time>2022-06-25T13:39:43Z</time>
      </trkpt>
      <trkpt lat="46.25522" lon="4.62938">
        <ele>630.8</ele>
        <time>2022-06-25T13:39:44Z</time>
      </trkpt>
      <trkpt lat="46.25521" lon="4.62931">
        <ele>630.8</ele>
        <time>2022-06-25T13:39:45Z</time>
      </trkpt>
      <trkpt lat="46.25521" lon="4.62923">
        <ele>631</ele>
        <time>2022-06-25T13:39:46Z</time>
      </trkpt>
      <trkpt lat="46.2552" lon="4.62915">
        <ele>631</ele>
        <time>2022-06-25T13:39:47Z</time>
      </trkpt>
      <trkpt lat="46.2552" lon="4.62908">
        <ele>631.4</ele>
        <time>2022-06-25T13:39:48Z</time>
      </trkpt>
      <trkpt lat="46.2552" lon="4.629">
        <ele>631.4</ele>
        <time>2022-06-25T13:39:49Z</time>
      </trkpt>
      <trkpt lat="46.25519" lon="4.62893">
        <ele>631.6</ele>
        <time>2022-06-25T13:39:50Z</time>
      </trkpt>
      <trkpt lat="46.25519" lon="4.62885">
        <ele>631.6</ele>
        <time>2022-06-25T13:39:51Z</time>
      </trkpt>
      <trkpt lat="46.25518" lon="4.62878">
        <ele>632</ele>
        <time>2022-06-25T13:39:52Z</time>
      </trkpt>
      <trkpt lat="46.25518" lon="4.62871">
        <ele>632</ele>
        <time>2022-06-25T13:39:53Z</time>
      </trkpt>
      <trkpt lat="46.25518" lon="4.62864">
        <ele>632.2</ele>
        <time>2022-06-25T13:39:54Z</time>
      </trkpt>
      <trkpt lat="46.25517" lon="4.62856">
        <ele>632.2</ele>
        <time>2022-06-25T13:39:55Z</time>
      </trkpt>
      <trkpt lat="46.25517" lon="4.62849">
        <ele>632.6</ele>
        <time>2022-06-25T13:39:56Z</time>
      </trkpt>
      <trkpt lat="46.25516" lon="4.62842">
        <ele>632.6</ele>
        <time>2022-06-25T13:39:57Z</time>
      </trkpt>
      <trkpt lat="46.25516" lon="4.62835">
        <ele>632.8</ele>
        <time>2022-06-25T13:39:58Z</time>
      </trkpt>
      <trkpt lat="46.25516" lon="4.62827">
        <ele>632.8</ele>
        <time>2022-06-25T13:39:59Z</time>
      </trkpt>
      <trkpt lat="46.25515" lon="4.6282">
        <ele>633</ele>
        <time>2022-06-25T13:40:01Z</time>
      </trkpt>
      <trkpt lat="46.25515" lon="4.62813">
        <ele>633.4</ele>
        <time>2022-06-25T13:40:02Z</time>
      </trkpt>
      <trkpt lat="46.25515" lon="4.62806">
        <ele>633.6</ele>
        <time>2022-06-25T13:40:03Z</time>
      </trkpt>
      <trkpt lat="46.25514" lon="4.62798">
        <ele>633.6</ele>
        <time>2022-06-25T13:40:04Z</time>
      </trkpt>
      <trkpt lat="46.25514" lon="4.62791">
        <ele>634</ele>
        <time>2022-06-25T13:40:05Z</time>
      </trkpt>
      <trkpt lat="46.25513" lon="4.62784">
        <ele>634</ele>
        <time>2022-06-25T13:40:06Z</time>
      </trkpt>
      <trkpt lat="46.25513" lon="4.62777">
        <ele>634</ele>
        <time>2022-06-25T13:40:07Z</time>
      </trkpt>
      <trkpt lat="46.25512" lon="4.62769">
        <ele>634.2</ele>
        <time>2022-06-25T13:40:08Z</time>
      </trkpt>
      <trkpt lat="46.25512" lon="4.62762">
        <ele>634.2</ele>
        <time>2022-06-25T13:40:09Z</time>
      </trkpt>
      <trkpt lat="46.25512" lon="4.62754">
        <ele>634.2</ele>
        <time>2022-06-25T13:40:10Z</time>
      </trkpt>
      <trkpt lat="46.25511" lon="4.62747">
        <ele>634.6</ele>
        <time>2022-06-25T13:40:11Z</time>
      </trkpt>
      <trkpt lat="46.25511" lon="4.62739">
        <ele>634.6</ele>
        <time>2022-06-25T13:40:12Z</time>
      </trkpt>
      <trkpt lat="46.2551" lon="4.62732">
        <ele>634.6</ele>
        <time>2022-06-25T13:40:13Z</time>
      </trkpt>
      <trkpt lat="46.25509" lon="4.62724">
        <ele>634.6</ele>
        <time>2022-06-25T13:40:14Z</time>
      </trkpt>
      <trkpt lat="46.25509" lon="4.62717">
        <ele>634.8</ele>
        <time>2022-06-25T13:40:15Z</time>
      </trkpt>
      <trkpt lat="46.25508" lon="4.6271">
        <ele>634.8</ele>
        <time>2022-06-25T13:40:16Z</time>
      </trkpt>
      <trkpt lat="46.25507" lon="4.62703">
        <ele>635.2</ele>
        <time>2022-06-25T13:40:17Z</time>
      </trkpt>
      <trkpt lat="46.25507" lon="4.62696">
        <ele>635.2</ele>
        <time>2022-06-25T13:40:18Z</time>
      </trkpt>
      <trkpt lat="46.25506" lon="4.62689">
        <ele>635.4</ele>
        <time>2022-06-25T13:40:19Z</time>
      </trkpt>
      <trkpt lat="46.25506" lon="4.62682">
        <ele>635.4</ele>
        <time>2022-06-25T13:40:20Z</time>
      </trkpt>
      <trkpt lat="46.25505" lon="4.62675">
        <ele>635.6</ele>
        <time>2022-06-25T13:40:21Z</time>
      </trkpt>
      <trkpt lat="46.25505" lon="4.62668">
        <ele>635.6</ele>
        <time>2022-06-25T13:40:22Z</time>
      </trkpt>
      <trkpt lat="46.25504" lon="4.62661">
        <ele>635.8</ele>
        <time>2022-06-25T13:40:23Z</time>
      </trkpt>
      <trkpt lat="46.25503" lon="4.62654">
        <ele>635.8</ele>
        <time>2022-06-25T13:40:24Z</time>
      </trkpt>
      <trkpt lat="46.25503" lon="4.62647">
        <ele>636.2</ele>
        <time>2022-06-25T13:40:25Z</time>
      </trkpt>
      <trkpt lat="46.25503" lon="4.6264">
        <ele>636.2</ele>
        <time>2022-06-25T13:40:26Z</time>
      </trkpt>
      <trkpt lat="46.25503" lon="4.62633">
        <ele>636.4</ele>
        <time>2022-06-25T13:40:27Z</time>
      </trkpt>
      <trkpt lat="46.25502" lon="4.62626">
        <ele>636.4</ele>
        <time>2022-06-25T13:40:28Z</time>
      </trkpt>
      <trkpt lat="46.25502" lon="4.62619">
        <ele>636.8</ele>
        <time>2022-06-25T13:40:29Z</time>
      </trkpt>
      <trkpt lat="46.25503" lon="4.62612">
        <ele>636.8</ele>
        <time>2022-06-25T13:40:30Z</time>
      </trkpt>
      <trkpt lat="46.25503" lon="4.62606">
        <ele>637</ele>
        <time>2022-06-25T13:40:31Z</time>
      </trkpt>
      <trkpt lat="46.25503" lon="4.62599">
        <ele>637</ele>
        <time>2022-06-25T13:40:32Z</time>
      </trkpt>
      <trkpt lat="46.25504" lon="4.62592">
        <ele>637.4</ele>
        <time>2022-06-25T13:40:33Z</time>
      </trkpt>
      <trkpt lat="46.25504" lon="4.62586">
        <ele>637.6</ele>
        <time>2022-06-25T13:40:34Z</time>
      </trkpt>
      <trkpt lat="46.25505" lon="4.6258">
        <ele>637.8</ele>
        <time>2022-06-25T13:40:35Z</time>
      </trkpt>
      <trkpt lat="46.25506" lon="4.62574">
        <ele>637.8</ele>
        <time>2022-06-25T13:40:36Z</time>
      </trkpt>
      <trkpt lat="46.25507" lon="4.62568">
        <ele>638.2</ele>
        <time>2022-06-25T13:40:37Z</time>
      </trkpt>
      <trkpt lat="46.25509" lon="4.62562">
        <ele>638.6</ele>
        <time>2022-06-25T13:40:38Z</time>
      </trkpt>
      <trkpt lat="46.2551" lon="4.62556">
        <ele>638.8</ele>
        <time>2022-06-25T13:40:39Z</time>
      </trkpt>
      <trkpt lat="46.25512" lon="4.6255">
        <ele>639</ele>
        <time>2022-06-25T13:40:40Z</time>
      </trkpt>
      <trkpt lat="46.25514" lon="4.62544">
        <ele>639.2</ele>
        <time>2022-06-25T13:40:41Z</time>
      </trkpt>
      <trkpt lat="46.25516" lon="4.62539">
        <ele>639.4</ele>
        <time>2022-06-25T13:40:42Z</time>
      </trkpt>
      <trkpt lat="46.25519" lon="4.62533">
        <ele>639.8</ele>
        <time>2022-06-25T13:40:43Z</time>
      </trkpt>
      <trkpt lat="46.25521" lon="4.62528">
        <ele>640</ele>
        <time>2022-06-25T13:40:44Z</time>
      </trkpt>
      <trkpt lat="46.25524" lon="4.62523">
        <ele>640.2</ele>
        <time>2022-06-25T13:40:45Z</time>
      </trkpt>
      <trkpt lat="46.25526" lon="4.62517">
        <ele>640.6</ele>
        <time>2022-06-25T13:40:46Z</time>
      </trkpt>
      <trkpt lat="46.25528" lon="4.62512">
        <ele>640.8</ele>
        <time>2022-06-25T13:40:47Z</time>
      </trkpt>
      <trkpt lat="46.2553" lon="4.62507">
        <ele>641</ele>
        <time>2022-06-25T13:40:48Z</time>
      </trkpt>
      <trkpt lat="46.25532" lon="4.62502">
        <ele>641</ele>
        <time>2022-06-25T13:40:49Z</time>
      </trkpt>
      <trkpt lat="46.25535" lon="4.62496">
        <ele>641.6</ele>
        <time>2022-06-25T13:40:50Z</time>
      </trkpt>
      <trkpt lat="46.25536" lon="4.62491">
        <ele>641.8</ele>
        <time>2022-06-25T13:40:51Z</time>
      </trkpt>
      <trkpt lat="46.25538" lon="4.62486">
        <ele>641.8</ele>
        <time>2022-06-25T13:40:52Z</time>
      </trkpt>
      <trkpt lat="46.2554" lon="4.6248">
        <ele>642.2</ele>
        <time>2022-06-25T13:40:53Z</time>
      </trkpt>
      <trkpt lat="46.25542" lon="4.62475">
        <ele>642.4</ele>
        <time>2022-06-25T13:40:54Z</time>
      </trkpt>
      <trkpt lat="46.25544" lon="4.6247">
        <ele>642.6</ele>
        <time>2022-06-25T13:40:55Z</time>
      </trkpt>
      <trkpt lat="46.25545" lon="4.62465">
        <ele>643</ele>
        <time>2022-06-25T13:40:56Z</time>
      </trkpt>
      <trkpt lat="46.25547" lon="4.6246">
        <ele>643</ele>
        <time>2022-06-25T13:40:57Z</time>
      </trkpt>
      <trkpt lat="46.25549" lon="4.62456">
        <ele>643.4</ele>
        <time>2022-06-25T13:40:58Z</time>
      </trkpt>
      <trkpt lat="46.25551" lon="4.62451">
        <ele>643.6</ele>
        <time>2022-06-25T13:40:59Z</time>
      </trkpt>
      <trkpt lat="46.25553" lon="4.62447">
        <ele>643.8</ele>
        <time>2022-06-25T13:41:00Z</time>
      </trkpt>
      <trkpt lat="46.25555" lon="4.62443">
        <ele>643.8</ele>
        <time>2022-06-25T13:41:01Z</time>
      </trkpt>
      <trkpt lat="46.25556" lon="4.62438">
        <ele>644.2</ele>
        <time>2022-06-25T13:41:02Z</time>
      </trkpt>
      <trkpt lat="46.25558" lon="4.62434">
        <ele>644.2</ele>
        <time>2022-06-25T13:41:03Z</time>
      </trkpt>
      <trkpt lat="46.25559" lon="4.6243">
        <ele>644.4</ele>
        <time>2022-06-25T13:41:04Z</time>
      </trkpt>
      <trkpt lat="46.25561" lon="4.62426">
        <ele>644.4</ele>
        <time>2022-06-25T13:41:05Z</time>
      </trkpt>
      <trkpt lat="46.25563" lon="4.62422">
        <ele>644.8</ele>
        <time>2022-06-25T13:41:06Z</time>
      </trkpt>
      <trkpt lat="46.25565" lon="4.62418">
        <ele>644.8</ele>
        <time>2022-06-25T13:41:07Z</time>
      </trkpt>
      <trkpt lat="46.25566" lon="4.62414">
        <ele>645.2</ele>
        <time>2022-06-25T13:41:08Z</time>
      </trkpt>
      <trkpt lat="46.25568" lon="4.62409">
        <ele>645.2</ele>
        <time>2022-06-25T13:41:09Z</time>
      </trkpt>
      <trkpt lat="46.25569" lon="4.62405">
        <ele>645.4</ele>
        <time>2022-06-25T13:41:10Z</time>
      </trkpt>
      <trkpt lat="46.25571" lon="4.624">
        <ele>645.4</ele>
        <time>2022-06-25T13:41:11Z</time>
      </trkpt>
      <trkpt lat="46.25572" lon="4.62396">
        <ele>645.6</ele>
        <time>2022-06-25T13:41:12Z</time>
      </trkpt>
      <trkpt lat="46.25574" lon="4.62392">
        <ele>645.6</ele>
        <time>2022-06-25T13:41:13Z</time>
      </trkpt>
      <trkpt lat="46.25575" lon="4.62387">
        <ele>646</ele>
        <time>2022-06-25T13:41:14Z</time>
      </trkpt>
      <trkpt lat="46.25577" lon="4.62383">
        <ele>646</ele>
        <time>2022-06-25T13:41:15Z</time>
      </trkpt>
      <trkpt lat="46.25578" lon="4.62379">
        <ele>646.2</ele>
        <time>2022-06-25T13:41:16Z</time>
      </trkpt>
      <trkpt lat="46.2558" lon="4.62375">
        <ele>646.2</ele>
        <time>2022-06-25T13:41:17Z</time>
      </trkpt>
      <trkpt lat="46.25581" lon="4.6237">
        <ele>646.6</ele>
        <time>2022-06-25T13:41:18Z</time>
      </trkpt>
      <trkpt lat="46.25583" lon="4.62366">
        <ele>646.6</ele>
        <time>2022-06-25T13:41:19Z</time>
      </trkpt>
      <trkpt lat="46.25584" lon="4.62361">
        <ele>647</ele>
        <time>2022-06-25T13:41:20Z</time>
      </trkpt>
      <trkpt lat="46.25586" lon="4.62357">
        <ele>647</ele>
        <time>2022-06-25T13:41:21Z</time>
      </trkpt>
      <trkpt lat="46.25588" lon="4.62353">
        <ele>647.2</ele>
        <time>2022-06-25T13:41:22Z</time>
      </trkpt>
      <trkpt lat="46.25589" lon="4.62349">
        <ele>647.2</ele>
        <time>2022-06-25T13:41:23Z</time>
      </trkpt>
      <trkpt lat="46.25591" lon="4.62344">
        <ele>647.6</ele>
        <time>2022-06-25T13:41:24Z</time>
      </trkpt>
      <trkpt lat="46.25592" lon="4.6234">
        <ele>647.6</ele>
        <time>2022-06-25T13:41:25Z</time>
      </trkpt>
      <trkpt lat="46.25594" lon="4.62336">
        <ele>648</ele>
        <time>2022-06-25T13:41:26Z</time>
      </trkpt>
      <trkpt lat="46.25595" lon="4.62331">
        <ele>648</ele>
        <time>2022-06-25T13:41:27Z</time>
      </trkpt>
      <trkpt lat="46.25597" lon="4.62327">
        <ele>648.2</ele>
        <time>2022-06-25T13:41:28Z</time>
      </trkpt>
      <trkpt lat="46.25599" lon="4.62323">
        <ele>648.2</ele>
        <time>2022-06-25T13:41:29Z</time>
      </trkpt>
      <trkpt lat="46.256" lon="4.62318">
        <ele>648.6</ele>
        <time>2022-06-25T13:41:30Z</time>
      </trkpt>
      <trkpt lat="46.25602" lon="4.62314">
        <ele>648.6</ele>
        <time>2022-06-25T13:41:31Z</time>
      </trkpt>
      <trkpt lat="46.25604" lon="4.6231">
        <ele>648.8</ele>
        <time>2022-06-25T13:41:32Z</time>
      </trkpt>
      <trkpt lat="46.25606" lon="4.62306">
        <ele>648.8</ele>
        <time>2022-06-25T13:41:33Z</time>
      </trkpt>
      <trkpt lat="46.25607" lon="4.62302">
        <ele>649</ele>
        <time>2022-06-25T13:41:34Z</time>
      </trkpt>
      <trkpt lat="46.25609" lon="4.62297">
        <ele>649</ele>
        <time>2022-06-25T13:41:35Z</time>
      </trkpt>
      <trkpt lat="46.25611" lon="4.62293">
        <ele>649.4</ele>
        <time>2022-06-25T13:41:36Z</time>
      </trkpt>
      <trkpt lat="46.25613" lon="4.62289">
        <ele>649.4</ele>
        <time>2022-06-25T13:41:37Z</time>
      </trkpt>
      <trkpt lat="46.25614" lon="4.62284">
        <ele>649.8</ele>
        <time>2022-06-25T13:41:38Z</time>
      </trkpt>
      <trkpt lat="46.25616" lon="4.6228">
        <ele>649.8</ele>
        <time>2022-06-25T13:41:39Z</time>
      </trkpt>
      <trkpt lat="46.25618" lon="4.62276">
        <ele>650</ele>
        <time>2022-06-25T13:41:40Z</time>
      </trkpt>
      <trkpt lat="46.2562" lon="4.62271">
        <ele>650</ele>
        <time>2022-06-25T13:41:41Z</time>
      </trkpt>
      <trkpt lat="46.25622" lon="4.62267">
        <ele>650.4</ele>
        <time>2022-06-25T13:41:42Z</time>
      </trkpt>
      <trkpt lat="46.25624" lon="4.62263">
        <ele>650.4</ele>
        <time>2022-06-25T13:41:43Z</time>
      </trkpt>
      <trkpt lat="46.25626" lon="4.62259">
        <ele>650.8</ele>
        <time>2022-06-25T13:41:44Z</time>
      </trkpt>
      <trkpt lat="46.25628" lon="4.62255">
        <ele>650.8</ele>
        <time>2022-06-25T13:41:45Z</time>
      </trkpt>
      <trkpt lat="46.2563" lon="4.62251">
        <ele>651.2</ele>
        <time>2022-06-25T13:41:46Z</time>
      </trkpt>
      <trkpt lat="46.25632" lon="4.62247">
        <ele>651.2</ele>
        <time>2022-06-25T13:41:47Z</time>
      </trkpt>
      <trkpt lat="46.25634" lon="4.62243">
        <ele>651.4</ele>
        <time>2022-06-25T13:41:48Z</time>
      </trkpt>
      <trkpt lat="46.25636" lon="4.62239">
        <ele>651.8</ele>
        <time>2022-06-25T13:41:49Z</time>
      </trkpt>
      <trkpt lat="46.25638" lon="4.62236">
        <ele>652</ele>
        <time>2022-06-25T13:41:50Z</time>
      </trkpt>
      <trkpt lat="46.2564" lon="4.62232">
        <ele>652.2</ele>
        <time>2022-06-25T13:41:51Z</time>
      </trkpt>
      <trkpt lat="46.25643" lon="4.62229">
        <ele>652.4</ele>
        <time>2022-06-25T13:41:52Z</time>
      </trkpt>
      <trkpt lat="46.25645" lon="4.62227">
        <ele>652.4</ele>
        <time>2022-06-25T13:41:53Z</time>
      </trkpt>
      <trkpt lat="46.25648" lon="4.62223">
        <ele>652.8</ele>
        <time>2022-06-25T13:41:54Z</time>
      </trkpt>
      <trkpt lat="46.2565" lon="4.6222">
        <ele>652.8</ele>
        <time>2022-06-25T13:41:55Z</time>
      </trkpt>
      <trkpt lat="46.25653" lon="4.62217">
        <ele>653</ele>
        <time>2022-06-25T13:41:56Z</time>
      </trkpt>
      <trkpt lat="46.25655" lon="4.62214">
        <ele>653.2</ele>
        <time>2022-06-25T13:41:57Z</time>
      </trkpt>
      <trkpt lat="46.25658" lon="4.62211">
        <ele>653.2</ele>
        <time>2022-06-25T13:41:58Z</time>
      </trkpt>
      <trkpt lat="46.2566" lon="4.62209">
        <ele>653.6</ele>
        <time>2022-06-25T13:41:59Z</time>
      </trkpt>
      <trkpt lat="46.25663" lon="4.62206">
        <ele>653.8</ele>
        <time>2022-06-25T13:42:00Z</time>
      </trkpt>
      <trkpt lat="46.25666" lon="4.62204">
        <ele>653.8</ele>
        <time>2022-06-25T13:42:01Z</time>
      </trkpt>
      <trkpt lat="46.25669" lon="4.62201">
        <ele>654</ele>
        <time>2022-06-25T13:42:02Z</time>
      </trkpt>
      <trkpt lat="46.25672" lon="4.62199">
        <ele>654</ele>
        <time>2022-06-25T13:42:03Z</time>
      </trkpt>
      <trkpt lat="46.25675" lon="4.62196">
        <ele>654.4</ele>
        <time>2022-06-25T13:42:04Z</time>
      </trkpt>
      <trkpt lat="46.25678" lon="4.62194">
        <ele>654.4</ele>
        <time>2022-06-25T13:42:05Z</time>
      </trkpt>
      <trkpt lat="46.2568" lon="4.62192">
        <ele>654.6</ele>
        <time>2022-06-25T13:42:06Z</time>
      </trkpt>
      <trkpt lat="46.25683" lon="4.6219">
        <ele>654.6</ele>
        <time>2022-06-25T13:42:07Z</time>
      </trkpt>
      <trkpt lat="46.25686" lon="4.62188">
        <ele>655</ele>
        <time>2022-06-25T13:42:08Z</time>
      </trkpt>
      <trkpt lat="46.2569" lon="4.62186">
        <ele>655</ele>
        <time>2022-06-25T13:42:09Z</time>
      </trkpt>
      <trkpt lat="46.25693" lon="4.62185">
        <ele>655.4</ele>
        <time>2022-06-25T13:42:10Z</time>
      </trkpt>
      <trkpt lat="46.25697" lon="4.62183">
        <ele>655.4</ele>
        <time>2022-06-25T13:42:11Z</time>
      </trkpt>
      <trkpt lat="46.257" lon="4.62182">
        <ele>655.6</ele>
        <time>2022-06-25T13:42:12Z</time>
      </trkpt>
      <trkpt lat="46.25704" lon="4.62181">
        <ele>656</ele>
        <time>2022-06-25T13:42:13Z</time>
      </trkpt>
      <trkpt lat="46.25707" lon="4.62181">
        <ele>656</ele>
        <time>2022-06-25T13:42:14Z</time>
      </trkpt>
      <trkpt lat="46.25711" lon="4.6218">
        <ele>656.2</ele>
        <time>2022-06-25T13:42:15Z</time>
      </trkpt>
      <trkpt lat="46.25714" lon="4.6218">
        <ele>656.2</ele>
        <time>2022-06-25T13:42:16Z</time>
      </trkpt>
      <trkpt lat="46.25718" lon="4.6218">
        <ele>656.6</ele>
        <time>2022-06-25T13:42:17Z</time>
      </trkpt>
      <trkpt lat="46.25721" lon="4.62181">
        <ele>656.8</ele>
        <time>2022-06-25T13:42:18Z</time>
      </trkpt>
      <trkpt lat="46.25724" lon="4.62181">
        <ele>657</ele>
        <time>2022-06-25T13:42:19Z</time>
      </trkpt>
      <trkpt lat="46.25728" lon="4.62182">
        <ele>657.2</ele>
        <time>2022-06-25T13:42:20Z</time>
      </trkpt>
      <trkpt lat="46.25731" lon="4.62184">
        <ele>657.2</ele>
        <time>2022-06-25T13:42:21Z</time>
      </trkpt>
      <trkpt lat="46.25735" lon="4.62185">
        <ele>657.6</ele>
        <time>2022-06-25T13:42:22Z</time>
      </trkpt>
      <trkpt lat="46.25738" lon="4.62187">
        <ele>657.6</ele>
        <time>2022-06-25T13:42:23Z</time>
      </trkpt>
      <trkpt lat="46.25741" lon="4.62189">
        <ele>657.8</ele>
        <time>2022-06-25T13:42:24Z</time>
      </trkpt>
      <trkpt lat="46.25744" lon="4.62192">
        <ele>657.8</ele>
        <time>2022-06-25T13:42:25Z</time>
      </trkpt>
      <trkpt lat="46.25747" lon="4.62194">
        <ele>658.2</ele>
        <time>2022-06-25T13:42:26Z</time>
      </trkpt>
      <trkpt lat="46.25751" lon="4.62197">
        <ele>658.2</ele>
        <time>2022-06-25T13:42:27Z</time>
      </trkpt>
      <trkpt lat="46.25754" lon="4.62199">
        <ele>658.4</ele>
        <time>2022-06-25T13:42:28Z</time>
      </trkpt>
      <trkpt lat="46.25757" lon="4.62202">
        <ele>658.4</ele>
        <time>2022-06-25T13:42:29Z</time>
      </trkpt>
      <trkpt lat="46.2576" lon="4.62204">
        <ele>658.8</ele>
        <time>2022-06-25T13:42:30Z</time>
      </trkpt>
      <trkpt lat="46.25763" lon="4.62207">
        <ele>658.8</ele>
        <time>2022-06-25T13:42:31Z</time>
      </trkpt>
      <trkpt lat="46.25766" lon="4.62209">
        <ele>658.8</ele>
        <time>2022-06-25T13:42:32Z</time>
      </trkpt>
      <trkpt lat="46.25769" lon="4.62211">
        <ele>659.2</ele>
        <time>2022-06-25T13:42:33Z</time>
      </trkpt>
      <trkpt lat="46.25773" lon="4.62214">
        <ele>659.2</ele>
        <time>2022-06-25T13:42:34Z</time>
      </trkpt>
      <trkpt lat="46.25776" lon="4.62216">
        <ele>659.4</ele>
        <time>2022-06-25T13:42:35Z</time>
      </trkpt>
      <trkpt lat="46.25779" lon="4.62219">
        <ele>659.4</ele>
        <time>2022-06-25T13:42:36Z</time>
      </trkpt>
      <trkpt lat="46.25782" lon="4.62221">
        <ele>659.6</ele>
        <time>2022-06-25T13:42:37Z</time>
      </trkpt>
      <trkpt lat="46.25786" lon="4.62223">
        <ele>659.6</ele>
        <time>2022-06-25T13:42:38Z</time>
      </trkpt>
      <trkpt lat="46.25789" lon="4.62225">
        <ele>659.6</ele>
        <time>2022-06-25T13:42:39Z</time>
      </trkpt>
      <trkpt lat="46.25793" lon="4.62227">
        <ele>659.8</ele>
        <time>2022-06-25T13:42:40Z</time>
      </trkpt>
      <trkpt lat="46.25796" lon="4.6223">
        <ele>659.8</ele>
        <time>2022-06-25T13:42:41Z</time>
      </trkpt>
      <trkpt lat="46.258" lon="4.62232">
        <ele>660</ele>
        <time>2022-06-25T13:42:42Z</time>
      </trkpt>
      <trkpt lat="46.25803" lon="4.62233">
        <ele>660</ele>
        <time>2022-06-25T13:42:43Z</time>
      </trkpt>
      <trkpt lat="46.25806" lon="4.62235">
        <ele>660</ele>
        <time>2022-06-25T13:42:44Z</time>
      </trkpt>
      <trkpt lat="46.2581" lon="4.62237">
        <ele>660</ele>
        <time>2022-06-25T13:42:45Z</time>
      </trkpt>
      <trkpt lat="46.25814" lon="4.62239">
        <ele>660</ele>
        <time>2022-06-25T13:42:46Z</time>
      </trkpt>
      <trkpt lat="46.25817" lon="4.62241">
        <ele>660</ele>
        <time>2022-06-25T13:42:47Z</time>
      </trkpt>
      <trkpt lat="46.25822" lon="4.62242">
        <ele>660</ele>
        <time>2022-06-25T13:42:48Z</time>
      </trkpt>
      <trkpt lat="46.25826" lon="4.62242">
        <ele>660</ele>
        <time>2022-06-25T13:42:49Z</time>
      </trkpt>
      <trkpt lat="46.2583" lon="4.6224">
        <ele>660</ele>
        <time>2022-06-25T13:42:50Z</time>
      </trkpt>
      <trkpt lat="46.25834" lon="4.62236">
        <ele>660</ele>
        <time>2022-06-25T13:42:51Z</time>
      </trkpt>
      <trkpt lat="46.25838" lon="4.6223">
        <ele>660</ele>
        <time>2022-06-25T13:42:52Z</time>
      </trkpt>
      <trkpt lat="46.2584" lon="4.62224">
        <ele>660</ele>
        <time>2022-06-25T13:42:53Z</time>
      </trkpt>
      <trkpt lat="46.25842" lon="4.62217">
        <ele>660</ele>
        <time>2022-06-25T13:42:54Z</time>
      </trkpt>
      <trkpt lat="46.25844" lon="4.6221">
        <ele>660</ele>
        <time>2022-06-25T13:42:55Z</time>
      </trkpt>
      <trkpt lat="46.25845" lon="4.62203">
        <ele>660</ele>
        <time>2022-06-25T13:42:56Z</time>
      </trkpt>
      <trkpt lat="46.25846" lon="4.62195">
        <ele>660</ele>
        <time>2022-06-25T13:42:57Z</time>
      </trkpt>
      <trkpt lat="46.25846" lon="4.62186">
        <ele>660</ele>
        <time>2022-06-25T13:42:58Z</time>
      </trkpt>
      <trkpt lat="46.25847" lon="4.62173">
        <ele>660</ele>
        <time>2022-06-25T13:42:59Z</time>
      </trkpt>
      <trkpt lat="46.25847" lon="4.62169">
        <ele>660</ele>
        <time>2022-06-25T13:43:00Z</time>
      </trkpt>
      <trkpt lat="46.25847" lon="4.6216">
        <ele>660</ele>
        <time>2022-06-25T13:43:01Z</time>
      </trkpt>
      <trkpt lat="46.25846" lon="4.62151">
        <ele>660</ele>
        <time>2022-06-25T13:43:02Z</time>
      </trkpt>
      <trkpt lat="46.25845" lon="4.62143">
        <ele>660</ele>
        <time>2022-06-25T13:43:03Z</time>
      </trkpt>
      <trkpt lat="46.25844" lon="4.62135">
        <ele>660</ele>
        <time>2022-06-25T13:43:04Z</time>
      </trkpt>
      <trkpt lat="46.25843" lon="4.62127">
        <ele>660</ele>
        <time>2022-06-25T13:43:05Z</time>
      </trkpt>
      <trkpt lat="46.25842" lon="4.6212">
        <ele>660.2</ele>
        <time>2022-06-25T13:43:06Z</time>
      </trkpt>
      <trkpt lat="46.25841" lon="4.62113">
        <ele>660.4</ele>
        <time>2022-06-25T13:43:07Z</time>
      </trkpt>
      <trkpt lat="46.2584" lon="4.62106">
        <ele>660.4</ele>
        <time>2022-06-25T13:43:08Z</time>
      </trkpt>
      <trkpt lat="46.25839" lon="4.62101">
        <ele>660.8</ele>
        <time>2022-06-25T13:43:09Z</time>
      </trkpt>
      <trkpt lat="46.25838" lon="4.62096">
        <ele>661.2</ele>
        <time>2022-06-25T13:43:10Z</time>
      </trkpt>
      <trkpt lat="46.25837" lon="4.62091">
        <ele>661.2</ele>
        <time>2022-06-25T13:43:11Z</time>
      </trkpt>
      <trkpt lat="46.25836" lon="4.62088">
        <ele>661.6</ele>
        <time>2022-06-25T13:43:12Z</time>
      </trkpt>
      <trkpt lat="46.25836" lon="4.62084">
        <ele>661.8</ele>
        <time>2022-06-25T13:43:13Z</time>
      </trkpt>
      <trkpt lat="46.25835" lon="4.62081">
        <ele>661.8</ele>
        <time>2022-06-25T13:43:14Z</time>
      </trkpt>
      <trkpt lat="46.25835" lon="4.62078">
        <ele>662</ele>
        <time>2022-06-25T13:43:15Z</time>
      </trkpt>
      <trkpt lat="46.25834" lon="4.62074">
        <ele>662.4</ele>
        <time>2022-06-25T13:43:16Z</time>
      </trkpt>
      <trkpt lat="46.25833" lon="4.6207">
        <ele>662.4</ele>
        <time>2022-06-25T13:43:17Z</time>
      </trkpt>
      <trkpt lat="46.25832" lon="4.62067">
        <ele>662.8</ele>
        <time>2022-06-25T13:43:18Z</time>
      </trkpt>
      <trkpt lat="46.25831" lon="4.62063">
        <ele>662.8</ele>
        <time>2022-06-25T13:43:19Z</time>
      </trkpt>
      <trkpt lat="46.25829" lon="4.62059">
        <ele>663</ele>
        <time>2022-06-25T13:43:20Z</time>
      </trkpt>
      <trkpt lat="46.25828" lon="4.62055">
        <ele>663</ele>
        <time>2022-06-25T13:43:21Z</time>
      </trkpt>
      <trkpt lat="46.25826" lon="4.62052">
        <ele>663.4</ele>
        <time>2022-06-25T13:43:22Z</time>
      </trkpt>
      <trkpt lat="46.25824" lon="4.62049">
        <ele>663.6</ele>
        <time>2022-06-25T13:43:23Z</time>
      </trkpt>
      <trkpt lat="46.25822" lon="4.62045">
        <ele>663.8</ele>
        <time>2022-06-25T13:43:24Z</time>
      </trkpt>
      <trkpt lat="46.2582" lon="4.62042">
        <ele>664.2</ele>
        <time>2022-06-25T13:43:25Z</time>
      </trkpt>
      <trkpt lat="46.25818" lon="4.62039">
        <ele>664.2</ele>
        <time>2022-06-25T13:43:26Z</time>
      </trkpt>
      <trkpt lat="46.25816" lon="4.62036">
        <ele>664.4</ele>
        <time>2022-06-25T13:43:27Z</time>
      </trkpt>
      <trkpt lat="46.25814" lon="4.62033">
        <ele>664.8</ele>
        <time>2022-06-25T13:43:28Z</time>
      </trkpt>
      <trkpt lat="46.25812" lon="4.6203">
        <ele>665</ele>
        <time>2022-06-25T13:43:29Z</time>
      </trkpt>
      <trkpt lat="46.2581" lon="4.62028">
        <ele>665.4</ele>
        <time>2022-06-25T13:43:30Z</time>
      </trkpt>
      <trkpt lat="46.25808" lon="4.62025">
        <ele>665.6</ele>
        <time>2022-06-25T13:43:31Z</time>
      </trkpt>
      <trkpt lat="46.25807" lon="4.62022">
        <ele>665.8</ele>
        <time>2022-06-25T13:43:32Z</time>
      </trkpt>
      <trkpt lat="46.25805" lon="4.62019">
        <ele>666</ele>
        <time>2022-06-25T13:43:33Z</time>
      </trkpt>
      <trkpt lat="46.25803" lon="4.62016">
        <ele>666.4</ele>
        <time>2022-06-25T13:43:34Z</time>
      </trkpt>
      <trkpt lat="46.25801" lon="4.62015">
        <ele>666.4</ele>
        <time>2022-06-25T13:43:35Z</time>
      </trkpt>
      <trkpt lat="46.25799" lon="4.62013">
        <ele>666.8</ele>
        <time>2022-06-25T13:43:36Z</time>
      </trkpt>
      <trkpt lat="46.25797" lon="4.62012">
        <ele>667</ele>
        <time>2022-06-25T13:43:37Z</time>
      </trkpt>
      <trkpt lat="46.25794" lon="4.62011">
        <ele>667</ele>
        <time>2022-06-25T13:43:38Z</time>
      </trkpt>
      <trkpt lat="46.25791" lon="4.62009">
        <ele>667.6</ele>
        <time>2022-06-25T13:43:39Z</time>
      </trkpt>
      <trkpt lat="46.25788" lon="4.62008">
        <ele>667.6</ele>
        <time>2022-06-25T13:43:40Z</time>
      </trkpt>
      <trkpt lat="46.25785" lon="4.62007">
        <ele>667.8</ele>
        <time>2022-06-25T13:43:41Z</time>
      </trkpt>
      <trkpt lat="46.25782" lon="4.62006">
        <ele>667.8</ele>
        <time>2022-06-25T13:43:42Z</time>
      </trkpt>
      <trkpt lat="46.25779" lon="4.62004">
        <ele>668.2</ele>
        <time>2022-06-25T13:43:43Z</time>
      </trkpt>
      <trkpt lat="46.25776" lon="4.62003">
        <ele>668.2</ele>
        <time>2022-06-25T13:43:44Z</time>
      </trkpt>
      <trkpt lat="46.25773" lon="4.62002">
        <ele>668.6</ele>
        <time>2022-06-25T13:43:45Z</time>
      </trkpt>
      <trkpt lat="46.25769" lon="4.62001">
        <ele>668.6</ele>
        <time>2022-06-25T13:43:46Z</time>
      </trkpt>
      <trkpt lat="46.25766" lon="4.62">
        <ele>668.6</ele>
        <time>2022-06-25T13:43:47Z</time>
      </trkpt>
      <trkpt lat="46.25764" lon="4.61999">
        <ele>668.8</ele>
        <time>2022-06-25T13:43:48Z</time>
      </trkpt>
      <trkpt lat="46.25761" lon="4.61998">
        <ele>668.8</ele>
        <time>2022-06-25T13:43:49Z</time>
      </trkpt>
      <trkpt lat="46.25758" lon="4.61997">
        <ele>669</ele>
        <time>2022-06-25T13:43:50Z</time>
      </trkpt>
      <trkpt lat="46.25755" lon="4.61996">
        <ele>669</ele>
        <time>2022-06-25T13:43:51Z</time>
      </trkpt>
      <trkpt lat="46.25752" lon="4.61994">
        <ele>669.4</ele>
        <time>2022-06-25T13:43:52Z</time>
      </trkpt>
      <trkpt lat="46.25749" lon="4.61993">
        <ele>669.4</ele>
        <time>2022-06-25T13:43:53Z</time>
      </trkpt>
      <trkpt lat="46.25746" lon="4.61992">
        <ele>669.6</ele>
        <time>2022-06-25T13:43:54Z</time>
      </trkpt>
      <trkpt lat="46.25743" lon="4.61991">
        <ele>669.6</ele>
        <time>2022-06-25T13:43:55Z</time>
      </trkpt>
      <trkpt lat="46.2574" lon="4.6199">
        <ele>669.8</ele>
        <time>2022-06-25T13:43:56Z</time>
      </trkpt>
      <trkpt lat="46.25737" lon="4.61989">
        <ele>669.8</ele>
        <time>2022-06-25T13:43:57Z</time>
      </trkpt>
      <trkpt lat="46.25734" lon="4.61988">
        <ele>669.8</ele>
        <time>2022-06-25T13:43:58Z</time>
      </trkpt>
      <trkpt lat="46.25731" lon="4.61987">
        <ele>670.2</ele>
        <time>2022-06-25T13:43:59Z</time>
      </trkpt>
      <trkpt lat="46.25728" lon="4.61987">
        <ele>670.2</ele>
        <time>2022-06-25T13:44:00Z</time>
      </trkpt>
      <trkpt lat="46.25725" lon="4.61986">
        <ele>670.2</ele>
        <time>2022-06-25T13:44:01Z</time>
      </trkpt>
      <trkpt lat="46.25722" lon="4.61985">
        <ele>670.4</ele>
        <time>2022-06-25T13:44:02Z</time>
      </trkpt>
      <trkpt lat="46.25719" lon="4.61985">
        <ele>670.4</ele>
        <time>2022-06-25T13:44:03Z</time>
      </trkpt>
      <trkpt lat="46.25716" lon="4.61984">
        <ele>670.6</ele>
        <time>2022-06-25T13:44:04Z</time>
      </trkpt>
      <trkpt lat="46.25713" lon="4.61983">
        <ele>670.8</ele>
        <time>2022-06-25T13:44:05Z</time>
      </trkpt>
      <trkpt lat="46.2571" lon="4.61982">
        <ele>670.8</ele>
        <time>2022-06-25T13:44:06Z</time>
      </trkpt>
      <trkpt lat="46.25707" lon="4.6198">
        <ele>671.2</ele>
        <time>2022-06-25T13:44:07Z</time>
      </trkpt>
      <trkpt lat="46.25704" lon="4.61979">
        <ele>671.4</ele>
        <time>2022-06-25T13:44:08Z</time>
      </trkpt>
      <trkpt lat="46.25701" lon="4.61977">
        <ele>671.6</ele>
        <time>2022-06-25T13:44:09Z</time>
      </trkpt>
      <trkpt lat="46.25698" lon="4.61976">
        <ele>671.8</ele>
        <time>2022-06-25T13:44:10Z</time>
      </trkpt>
      <trkpt lat="46.25695" lon="4.61975">
        <ele>672.2</ele>
        <time>2022-06-25T13:44:11Z</time>
      </trkpt>
      <trkpt lat="46.25692" lon="4.61973">
        <ele>672.4</ele>
        <time>2022-06-25T13:44:12Z</time>
      </trkpt>
      <trkpt lat="46.25689" lon="4.61972">
        <ele>672.6</ele>
        <time>2022-06-25T13:44:13Z</time>
      </trkpt>
      <trkpt lat="46.25686" lon="4.6197">
        <ele>672.8</ele>
        <time>2022-06-25T13:44:14Z</time>
      </trkpt>
      <trkpt lat="46.25683" lon="4.61969">
        <ele>673</ele>
        <time>2022-06-25T13:44:15Z</time>
      </trkpt>
      <trkpt lat="46.25681" lon="4.61968">
        <ele>673.4</ele>
        <time>2022-06-25T13:44:16Z</time>
      </trkpt>
      <trkpt lat="46.25678" lon="4.61966">
        <ele>673.8</ele>
        <time>2022-06-25T13:44:17Z</time>
      </trkpt>
      <trkpt lat="46.25675" lon="4.61965">
        <ele>673.8</ele>
        <time>2022-06-25T13:44:18Z</time>
      </trkpt>
      <trkpt lat="46.25673" lon="4.61963">
        <ele>674.2</ele>
        <time>2022-06-25T13:44:19Z</time>
      </trkpt>
      <trkpt lat="46.2567" lon="4.61962">
        <ele>674.2</ele>
        <time>2022-06-25T13:44:20Z</time>
      </trkpt>
      <trkpt lat="46.25668" lon="4.6196">
        <ele>674.8</ele>
        <time>2022-06-25T13:44:21Z</time>
      </trkpt>
      <trkpt lat="46.25665" lon="4.61959">
        <ele>674.8</ele>
        <time>2022-06-25T13:44:22Z</time>
      </trkpt>
      <trkpt lat="46.25663" lon="4.61958">
        <ele>675</ele>
        <time>2022-06-25T13:44:23Z</time>
      </trkpt>
      <trkpt lat="46.25661" lon="4.61956">
        <ele>675.4</ele>
        <time>2022-06-25T13:44:24Z</time>
      </trkpt>
      <trkpt lat="46.25658" lon="4.61955">
        <ele>675.6</ele>
        <time>2022-06-25T13:44:25Z</time>
      </trkpt>
      <trkpt lat="46.25656" lon="4.61953">
        <ele>675.8</ele>
        <time>2022-06-25T13:44:26Z</time>
      </trkpt>
      <trkpt lat="46.25654" lon="4.61951">
        <ele>675.8</ele>
        <time>2022-06-25T13:44:27Z</time>
      </trkpt>
      <trkpt lat="46.25652" lon="4.6195">
        <ele>676.2</ele>
        <time>2022-06-25T13:44:28Z</time>
      </trkpt>
      <trkpt lat="46.25649" lon="4.61949">
        <ele>676.2</ele>
        <time>2022-06-25T13:44:29Z</time>
      </trkpt>
      <trkpt lat="46.25647" lon="4.61948">
        <ele>676.6</ele>
        <time>2022-06-25T13:44:30Z</time>
      </trkpt>
      <trkpt lat="46.25644" lon="4.61947">
        <ele>676.6</ele>
        <time>2022-06-25T13:44:31Z</time>
      </trkpt>
      <trkpt lat="46.25642" lon="4.61945">
        <ele>676.8</ele>
        <time>2022-06-25T13:44:32Z</time>
      </trkpt>
      <trkpt lat="46.25639" lon="4.61945">
        <ele>676.8</ele>
        <time>2022-06-25T13:44:33Z</time>
      </trkpt>
      <trkpt lat="46.25636" lon="4.61944">
        <ele>677.2</ele>
        <time>2022-06-25T13:44:34Z</time>
      </trkpt>
      <trkpt lat="46.25633" lon="4.61944">
        <ele>677.2</ele>
        <time>2022-06-25T13:44:35Z</time>
      </trkpt>
      <trkpt lat="46.2563" lon="4.61944">
        <ele>677.4</ele>
        <time>2022-06-25T13:44:36Z</time>
      </trkpt>
      <trkpt lat="46.25627" lon="4.61943">
        <ele>677.4</ele>
        <time>2022-06-25T13:44:37Z</time>
      </trkpt>
      <trkpt lat="46.25624" lon="4.61942">
        <ele>677.8</ele>
        <time>2022-06-25T13:44:38Z</time>
      </trkpt>
      <trkpt lat="46.25621" lon="4.61942">
        <ele>677.8</ele>
        <time>2022-06-25T13:44:40Z</time>
      </trkpt>
      <trkpt lat="46.25618" lon="4.61942">
        <ele>677.8</ele>
        <time>2022-06-25T13:44:41Z</time>
      </trkpt>
      <trkpt lat="46.25614" lon="4.61942">
        <ele>678</ele>
        <time>2022-06-25T13:44:42Z</time>
      </trkpt>
      <trkpt lat="46.25611" lon="4.61942">
        <ele>678</ele>
        <time>2022-06-25T13:44:43Z</time>
      </trkpt>
      <trkpt lat="46.25608" lon="4.61942">
        <ele>678</ele>
        <time>2022-06-25T13:44:44Z</time>
      </trkpt>
      <trkpt lat="46.25604" lon="4.61942">
        <ele>678.2</ele>
        <time>2022-06-25T13:44:45Z</time>
      </trkpt>
      <trkpt lat="46.25601" lon="4.61942">
        <ele>678.2</ele>
        <time>2022-06-25T13:44:46Z</time>
      </trkpt>
      <trkpt lat="46.25598" lon="4.61942">
        <ele>678.4</ele>
        <time>2022-06-25T13:44:47Z</time>
      </trkpt>
      <trkpt lat="46.25594" lon="4.61942">
        <ele>678.4</ele>
        <time>2022-06-25T13:44:48Z</time>
      </trkpt>
      <trkpt lat="46.25591" lon="4.61943">
        <ele>678.6</ele>
        <time>2022-06-25T13:44:49Z</time>
      </trkpt>
      <trkpt lat="46.25588" lon="4.61943">
        <ele>678.6</ele>
        <time>2022-06-25T13:44:50Z</time>
      </trkpt>
      <trkpt lat="46.25584" lon="4.61943">
        <ele>679</ele>
        <time>2022-06-25T13:44:51Z</time>
      </trkpt>
      <trkpt lat="46.25581" lon="4.61943">
        <ele>679</ele>
        <time>2022-06-25T13:44:52Z</time>
      </trkpt>
      <trkpt lat="46.25577" lon="4.61943">
        <ele>679</ele>
        <time>2022-06-25T13:44:53Z</time>
      </trkpt>
      <trkpt lat="46.25573" lon="4.61944">
        <ele>679.2</ele>
        <time>2022-06-25T13:44:54Z</time>
      </trkpt>
      <trkpt lat="46.25569" lon="4.61944">
        <ele>679.2</ele>
        <time>2022-06-25T13:44:55Z</time>
      </trkpt>
      <trkpt lat="46.25565" lon="4.61945">
        <ele>679.2</ele>
        <time>2022-06-25T13:44:56Z</time>
      </trkpt>
      <trkpt lat="46.25561" lon="4.61946">
        <ele>679.2</ele>
        <time>2022-06-25T13:44:57Z</time>
      </trkpt>
      <trkpt lat="46.25557" lon="4.61947">
        <ele>679.4</ele>
        <time>2022-06-25T13:44:58Z</time>
      </trkpt>
      <trkpt lat="46.25552" lon="4.61947">
        <ele>679.4</ele>
        <time>2022-06-25T13:44:59Z</time>
      </trkpt>
      <trkpt lat="46.25548" lon="4.61948">
        <ele>679.4</ele>
        <time>2022-06-25T13:45:00Z</time>
      </trkpt>
      <trkpt lat="46.25543" lon="4.61948">
        <ele>679.4</ele>
        <time>2022-06-25T13:45:01Z</time>
      </trkpt>
      <trkpt lat="46.25539" lon="4.61949">
        <ele>679.4</ele>
        <time>2022-06-25T13:45:02Z</time>
      </trkpt>
      <trkpt lat="46.25534" lon="4.61949">
        <ele>679.4</ele>
        <time>2022-06-25T13:45:03Z</time>
      </trkpt>
      <trkpt lat="46.25529" lon="4.61948">
        <ele>679.4</ele>
        <time>2022-06-25T13:45:04Z</time>
      </trkpt>
      <trkpt lat="46.25524" lon="4.61948">
        <ele>679.6</ele>
        <time>2022-06-25T13:45:05Z</time>
      </trkpt>
      <trkpt lat="46.25519" lon="4.61946">
        <ele>679.6</ele>
        <time>2022-06-25T13:45:06Z</time>
      </trkpt>
      <trkpt lat="46.25514" lon="4.61944">
        <ele>679.8</ele>
        <time>2022-06-25T13:45:07Z</time>
      </trkpt>
      <trkpt lat="46.25509" lon="4.61941">
        <ele>679.8</ele>
        <time>2022-06-25T13:45:08Z</time>
      </trkpt>
      <trkpt lat="46.25505" lon="4.61937">
        <ele>679.8</ele>
        <time>2022-06-25T13:45:09Z</time>
      </trkpt>
      <trkpt lat="46.25501" lon="4.61932">
        <ele>679.8</ele>
        <time>2022-06-25T13:45:10Z</time>
      </trkpt>
      <trkpt lat="46.25498" lon="4.61927">
        <ele>679.8</ele>
        <time>2022-06-25T13:45:11Z</time>
      </trkpt>
      <trkpt lat="46.25494" lon="4.61922">
        <ele>680</ele>
        <time>2022-06-25T13:45:12Z</time>
      </trkpt>
      <trkpt lat="46.2549" lon="4.61918">
        <ele>680</ele>
        <time>2022-06-25T13:45:13Z</time>
      </trkpt>
      <trkpt lat="46.25486" lon="4.61913">
        <ele>680</ele>
        <time>2022-06-25T13:45:14Z</time>
      </trkpt>
      <trkpt lat="46.25481" lon="4.61907">
        <ele>680</ele>
        <time>2022-06-25T13:45:15Z</time>
      </trkpt>
      <trkpt lat="46.25477" lon="4.61902">
        <ele>680</ele>
        <time>2022-06-25T13:45:16Z</time>
      </trkpt>
      <trkpt lat="46.25473" lon="4.61897">
        <ele>680</ele>
        <time>2022-06-25T13:45:17Z</time>
      </trkpt>
      <trkpt lat="46.25469" lon="4.61892">
        <ele>680.4</ele>
        <time>2022-06-25T13:45:18Z</time>
      </trkpt>
      <trkpt lat="46.25465" lon="4.61887">
        <ele>680.4</ele>
        <time>2022-06-25T13:45:19Z</time>
      </trkpt>
      <trkpt lat="46.2546" lon="4.61882">
        <ele>680.4</ele>
        <time>2022-06-25T13:45:20Z</time>
      </trkpt>
      <trkpt lat="46.25456" lon="4.61876">
        <ele>680.4</ele>
        <time>2022-06-25T13:45:21Z</time>
      </trkpt>
      <trkpt lat="46.25452" lon="4.61871">
        <ele>680.4</ele>
        <time>2022-06-25T13:45:22Z</time>
      </trkpt>
      <trkpt lat="46.25447" lon="4.61866">
        <ele>680.4</ele>
        <time>2022-06-25T13:45:23Z</time>
      </trkpt>
      <trkpt lat="46.25443" lon="4.61861">
        <ele>680</ele>
        <time>2022-06-25T13:45:24Z</time>
      </trkpt>
      <trkpt lat="46.25438" lon="4.61855">
        <ele>680</ele>
        <time>2022-06-25T13:45:25Z</time>
      </trkpt>
      <trkpt lat="46.25434" lon="4.6185">
        <ele>680</ele>
        <time>2022-06-25T13:45:26Z</time>
      </trkpt>
      <trkpt lat="46.25429" lon="4.61844">
        <ele>679.6</ele>
        <time>2022-06-25T13:45:27Z</time>
      </trkpt>
      <trkpt lat="46.25423" lon="4.61839">
        <ele>679.6</ele>
        <time>2022-06-25T13:45:28Z</time>
      </trkpt>
      <trkpt lat="46.25418" lon="4.61833">
        <ele>679.2</ele>
        <time>2022-06-25T13:45:29Z</time>
      </trkpt>
      <trkpt lat="46.25412" lon="4.61827">
        <ele>679</ele>
        <time>2022-06-25T13:45:30Z</time>
      </trkpt>
      <trkpt lat="46.25406" lon="4.61821">
        <ele>678.6</ele>
        <time>2022-06-25T13:45:31Z</time>
      </trkpt>
      <trkpt lat="46.254" lon="4.61815">
        <ele>678.4</ele>
        <time>2022-06-25T13:45:32Z</time>
      </trkpt>
      <trkpt lat="46.25394" lon="4.61808">
        <ele>678.2</ele>
        <time>2022-06-25T13:45:33Z</time>
      </trkpt>
      <trkpt lat="46.25388" lon="4.61801">
        <ele>677.8</ele>
        <time>2022-06-25T13:45:34Z</time>
      </trkpt>
      <trkpt lat="46.25382" lon="4.61794">
        <ele>677.6</ele>
        <time>2022-06-25T13:45:35Z</time>
      </trkpt>
      <trkpt lat="46.25376" lon="4.61786">
        <ele>677.4</ele>
        <time>2022-06-25T13:45:36Z</time>
      </trkpt>
      <trkpt lat="46.2537" lon="4.61777">
        <ele>676.8</ele>
        <time>2022-06-25T13:45:37Z</time>
      </trkpt>
      <trkpt lat="46.25366" lon="4.61767">
        <ele>676.4</ele>
        <time>2022-06-25T13:45:38Z</time>
      </trkpt>
      <trkpt lat="46.25362" lon="4.61756">
        <ele>675.8</ele>
        <time>2022-06-25T13:45:39Z</time>
      </trkpt>
      <trkpt lat="46.25357" lon="4.61744">
        <ele>675.6</ele>
        <time>2022-06-25T13:45:40Z</time>
      </trkpt>
      <trkpt lat="46.25347" lon="4.61718">
        <ele>674.6</ele>
        <time>2022-06-25T13:45:41Z</time>
      </trkpt>
      <trkpt lat="46.25341" lon="4.61706">
        <ele>674.2</ele>
        <time>2022-06-25T13:45:42Z</time>
      </trkpt>
      <trkpt lat="46.25336" lon="4.61695">
        <ele>673.8</ele>
        <time>2022-06-25T13:45:43Z</time>
      </trkpt>
      <trkpt lat="46.25329" lon="4.61684">
        <ele>673.2</ele>
        <time>2022-06-25T13:45:44Z</time>
      </trkpt>
      <trkpt lat="46.25326" lon="4.61671">
        <ele>672.8</ele>
        <time>2022-06-25T13:45:45Z</time>
      </trkpt>
      <trkpt lat="46.25323" lon="4.61657">
        <ele>672.8</ele>
        <time>2022-06-25T13:45:46Z</time>
      </trkpt>
      <trkpt lat="46.25323" lon="4.61644">
        <ele>672.8</ele>
        <time>2022-06-25T13:45:47Z</time>
      </trkpt>
      <trkpt lat="46.25323" lon="4.61633">
        <ele>672.8</ele>
        <time>2022-06-25T13:45:48Z</time>
      </trkpt>
      <trkpt lat="46.25323" lon="4.61621">
        <ele>672.8</ele>
        <time>2022-06-25T13:45:49Z</time>
      </trkpt>
      <trkpt lat="46.25323" lon="4.61611">
        <ele>673.2</ele>
        <time>2022-06-25T13:45:50Z</time>
      </trkpt>
      <trkpt lat="46.25324" lon="4.61602">
        <ele>673.4</ele>
        <time>2022-06-25T13:45:51Z</time>
      </trkpt>
      <trkpt lat="46.25325" lon="4.61592">
        <ele>673.4</ele>
        <time>2022-06-25T13:45:52Z</time>
      </trkpt>
      <trkpt lat="46.25326" lon="4.61584">
        <ele>673.8</ele>
        <time>2022-06-25T13:45:53Z</time>
      </trkpt>
      <trkpt lat="46.25328" lon="4.61575">
        <ele>673.8</ele>
        <time>2022-06-25T13:45:54Z</time>
      </trkpt>
      <trkpt lat="46.2533" lon="4.61568">
        <ele>674.2</ele>
        <time>2022-06-25T13:45:56Z</time>
      </trkpt>
      <trkpt lat="46.25332" lon="4.61561">
        <ele>674.4</ele>
        <time>2022-06-25T13:45:57Z</time>
      </trkpt>
      <trkpt lat="46.25334" lon="4.61554">
        <ele>674.4</ele>
        <time>2022-06-25T13:45:58Z</time>
      </trkpt>
      <trkpt lat="46.25335" lon="4.61548">
        <ele>674.8</ele>
        <time>2022-06-25T13:45:59Z</time>
      </trkpt>
      <trkpt lat="46.25337" lon="4.61542">
        <ele>675</ele>
        <time>2022-06-25T13:46:00Z</time>
      </trkpt>
      <trkpt lat="46.25338" lon="4.61536">
        <ele>675.4</ele>
        <time>2022-06-25T13:46:01Z</time>
      </trkpt>
      <trkpt lat="46.2534" lon="4.6153">
        <ele>675.6</ele>
        <time>2022-06-25T13:46:02Z</time>
      </trkpt>
      <trkpt lat="46.25341" lon="4.61524">
        <ele>675.8</ele>
        <time>2022-06-25T13:46:03Z</time>
      </trkpt>
      <trkpt lat="46.25342" lon="4.61518">
        <ele>676.2</ele>
        <time>2022-06-25T13:46:04Z</time>
      </trkpt>
      <trkpt lat="46.25342" lon="4.61512">
        <ele>676.4</ele>
        <time>2022-06-25T13:46:05Z</time>
      </trkpt>
      <trkpt lat="46.25343" lon="4.61506">
        <ele>676.8</ele>
        <time>2022-06-25T13:46:06Z</time>
      </trkpt>
      <trkpt lat="46.25344" lon="4.615">
        <ele>677</ele>
        <time>2022-06-25T13:46:07Z</time>
      </trkpt>
      <trkpt lat="46.25345" lon="4.61494">
        <ele>677.4</ele>
        <time>2022-06-25T13:46:08Z</time>
      </trkpt>
      <trkpt lat="46.25345" lon="4.61488">
        <ele>677.6</ele>
        <time>2022-06-25T13:46:09Z</time>
      </trkpt>
      <trkpt lat="46.25345" lon="4.61482">
        <ele>677.8</ele>
        <time>2022-06-25T13:46:10Z</time>
      </trkpt>
      <trkpt lat="46.25344" lon="4.61476">
        <ele>677.8</ele>
        <time>2022-06-25T13:46:11Z</time>
      </trkpt>
      <trkpt lat="46.25343" lon="4.61469">
        <ele>678</ele>
        <time>2022-06-25T13:46:12Z</time>
      </trkpt>
      <trkpt lat="46.25341" lon="4.61463">
        <ele>678</ele>
        <time>2022-06-25T13:46:13Z</time>
      </trkpt>
      <trkpt lat="46.25339" lon="4.61457">
        <ele>678.4</ele>
        <time>2022-06-25T13:46:14Z</time>
      </trkpt>
      <trkpt lat="46.25337" lon="4.61451">
        <ele>678.4</ele>
        <time>2022-06-25T13:46:15Z</time>
      </trkpt>
      <trkpt lat="46.25334" lon="4.61446">
        <ele>678.6</ele>
        <time>2022-06-25T13:46:16Z</time>
      </trkpt>
      <trkpt lat="46.25332" lon="4.61441">
        <ele>678.8</ele>
        <time>2022-06-25T13:46:17Z</time>
      </trkpt>
      <trkpt lat="46.25329" lon="4.61437">
        <ele>679.2</ele>
        <time>2022-06-25T13:46:18Z</time>
      </trkpt>
      <trkpt lat="46.25326" lon="4.61432">
        <ele>679.4</ele>
        <time>2022-06-25T13:46:19Z</time>
      </trkpt>
      <trkpt lat="46.25323" lon="4.61429">
        <ele>679.8</ele>
        <time>2022-06-25T13:46:20Z</time>
      </trkpt>
      <trkpt lat="46.2532" lon="4.61425">
        <ele>680</ele>
        <time>2022-06-25T13:46:21Z</time>
      </trkpt>
      <trkpt lat="46.25317" lon="4.61421">
        <ele>680.2</ele>
        <time>2022-06-25T13:46:22Z</time>
      </trkpt>
      <trkpt lat="46.25314" lon="4.61417">
        <ele>680.4</ele>
        <time>2022-06-25T13:46:23Z</time>
      </trkpt>
      <trkpt lat="46.25311" lon="4.61414">
        <ele>680.4</ele>
        <time>2022-06-25T13:46:24Z</time>
      </trkpt>
      <trkpt lat="46.25308" lon="4.6141">
        <ele>680.8</ele>
        <time>2022-06-25T13:46:25Z</time>
      </trkpt>
      <trkpt lat="46.25304" lon="4.61407">
        <ele>680.8</ele>
        <time>2022-06-25T13:46:26Z</time>
      </trkpt>
      <trkpt lat="46.25301" lon="4.61404">
        <ele>681.2</ele>
        <time>2022-06-25T13:46:27Z</time>
      </trkpt>
      <trkpt lat="46.25298" lon="4.61401">
        <ele>681.2</ele>
        <time>2022-06-25T13:46:28Z</time>
      </trkpt>
      <trkpt lat="46.25292" lon="4.61395">
        <ele>681.6</ele>
        <time>2022-06-25T13:46:29Z</time>
      </trkpt>
      <trkpt lat="46.25288" lon="4.61392">
        <ele>681.6</ele>
        <time>2022-06-25T13:46:30Z</time>
      </trkpt>
      <trkpt lat="46.25285" lon="4.61389">
        <ele>681.8</ele>
        <time>2022-06-25T13:46:31Z</time>
      </trkpt>
      <trkpt lat="46.25282" lon="4.61385">
        <ele>681.8</ele>
        <time>2022-06-25T13:46:32Z</time>
      </trkpt>
      <trkpt lat="46.25279" lon="4.61382">
        <ele>682.2</ele>
        <time>2022-06-25T13:46:33Z</time>
      </trkpt>
      <trkpt lat="46.25277" lon="4.61379">
        <ele>682.4</ele>
        <time>2022-06-25T13:46:34Z</time>
      </trkpt>
      <trkpt lat="46.25274" lon="4.61376">
        <ele>682.8</ele>
        <time>2022-06-25T13:46:35Z</time>
      </trkpt>
      <trkpt lat="46.25271" lon="4.61372">
        <ele>683</ele>
        <time>2022-06-25T13:46:36Z</time>
      </trkpt>
      <trkpt lat="46.25268" lon="4.6137">
        <ele>683.4</ele>
        <time>2022-06-25T13:46:37Z</time>
      </trkpt>
      <trkpt lat="46.25263" lon="4.61364">
        <ele>683.6</ele>
        <time>2022-06-25T13:46:38Z</time>
      </trkpt>
      <trkpt lat="46.2526" lon="4.61361">
        <ele>683.8</ele>
        <time>2022-06-25T13:46:39Z</time>
      </trkpt>
      <trkpt lat="46.25257" lon="4.61359">
        <ele>684.2</ele>
        <time>2022-06-25T13:46:40Z</time>
      </trkpt>
      <trkpt lat="46.25253" lon="4.61357">
        <ele>684.4</ele>
        <time>2022-06-25T13:46:41Z</time>
      </trkpt>
      <trkpt lat="46.2525" lon="4.61356">
        <ele>684.4</ele>
        <time>2022-06-25T13:46:42Z</time>
      </trkpt>
      <trkpt lat="46.25246" lon="4.61356">
        <ele>684.8</ele>
        <time>2022-06-25T13:46:43Z</time>
      </trkpt>
      <trkpt lat="46.25242" lon="4.61357">
        <ele>685</ele>
        <time>2022-06-25T13:46:44Z</time>
      </trkpt>
      <trkpt lat="46.25239" lon="4.61358">
        <ele>685</ele>
        <time>2022-06-25T13:46:45Z</time>
      </trkpt>
      <trkpt lat="46.25235" lon="4.61359">
        <ele>685.2</ele>
        <time>2022-06-25T13:46:46Z</time>
      </trkpt>
      <trkpt lat="46.25231" lon="4.61359">
        <ele>685.2</ele>
        <time>2022-06-25T13:46:47Z</time>
      </trkpt>
      <trkpt lat="46.25227" lon="4.61359">
        <ele>685.6</ele>
        <time>2022-06-25T13:46:48Z</time>
      </trkpt>
      <trkpt lat="46.25224" lon="4.6136">
        <ele>685.6</ele>
        <time>2022-06-25T13:46:49Z</time>
      </trkpt>
      <trkpt lat="46.2522" lon="4.6136">
        <ele>685.8</ele>
        <time>2022-06-25T13:46:50Z</time>
      </trkpt>
      <trkpt lat="46.25216" lon="4.61361">
        <ele>685.8</ele>
        <time>2022-06-25T13:46:51Z</time>
      </trkpt>
      <trkpt lat="46.25212" lon="4.61362">
        <ele>686.2</ele>
        <time>2022-06-25T13:46:52Z</time>
      </trkpt>
      <trkpt lat="46.25209" lon="4.61362">
        <ele>686.2</ele>
        <time>2022-06-25T13:46:53Z</time>
      </trkpt>
      <trkpt lat="46.25205" lon="4.61363">
        <ele>686.4</ele>
        <time>2022-06-25T13:46:54Z</time>
      </trkpt>
      <trkpt lat="46.25201" lon="4.61363">
        <ele>686.4</ele>
        <time>2022-06-25T13:46:55Z</time>
      </trkpt>
      <trkpt lat="46.25197" lon="4.61363">
        <ele>686.6</ele>
        <time>2022-06-25T13:46:56Z</time>
      </trkpt>
      <trkpt lat="46.25193" lon="4.61363">
        <ele>686.6</ele>
        <time>2022-06-25T13:46:57Z</time>
      </trkpt>
      <trkpt lat="46.25189" lon="4.61363">
        <ele>686.8</ele>
        <time>2022-06-25T13:46:58Z</time>
      </trkpt>
      <trkpt lat="46.25185" lon="4.61363">
        <ele>686.8</ele>
        <time>2022-06-25T13:46:59Z</time>
      </trkpt>
      <trkpt lat="46.25182" lon="4.61364">
        <ele>687.2</ele>
        <time>2022-06-25T13:47:00Z</time>
      </trkpt>
      <trkpt lat="46.25178" lon="4.61364">
        <ele>687.2</ele>
        <time>2022-06-25T13:47:01Z</time>
      </trkpt>
      <trkpt lat="46.25175" lon="4.61364">
        <ele>687.6</ele>
        <time>2022-06-25T13:47:02Z</time>
      </trkpt>
      <trkpt lat="46.25171" lon="4.61364">
        <ele>687.8</ele>
        <time>2022-06-25T13:47:03Z</time>
      </trkpt>
      <trkpt lat="46.25168" lon="4.61364">
        <ele>687.8</ele>
        <time>2022-06-25T13:47:04Z</time>
      </trkpt>
      <trkpt lat="46.25164" lon="4.61365">
        <ele>688.2</ele>
        <time>2022-06-25T13:47:05Z</time>
      </trkpt>
      <trkpt lat="46.25161" lon="4.61365">
        <ele>688.4</ele>
        <time>2022-06-25T13:47:06Z</time>
      </trkpt>
      <trkpt lat="46.25157" lon="4.61366">
        <ele>688.8</ele>
        <time>2022-06-25T13:47:07Z</time>
      </trkpt>
      <trkpt lat="46.25153" lon="4.61366">
        <ele>689</ele>
        <time>2022-06-25T13:47:08Z</time>
      </trkpt>
      <trkpt lat="46.2515" lon="4.61367">
        <ele>689.2</ele>
        <time>2022-06-25T13:47:09Z</time>
      </trkpt>
      <trkpt lat="46.25146" lon="4.61369">
        <ele>689.2</ele>
        <time>2022-06-25T13:47:10Z</time>
      </trkpt>
      <trkpt lat="46.25143" lon="4.6137">
        <ele>689.6</ele>
        <time>2022-06-25T13:47:11Z</time>
      </trkpt>
      <trkpt lat="46.25139" lon="4.61371">
        <ele>689.6</ele>
        <time>2022-06-25T13:47:12Z</time>
      </trkpt>
      <trkpt lat="46.25136" lon="4.61372">
        <ele>690</ele>
        <time>2022-06-25T13:47:13Z</time>
      </trkpt>
      <trkpt lat="46.25133" lon="4.61374">
        <ele>690</ele>
        <time>2022-06-25T13:47:14Z</time>
      </trkpt>
      <trkpt lat="46.2513" lon="4.61375">
        <ele>690.4</ele>
        <time>2022-06-25T13:47:15Z</time>
      </trkpt>
      <trkpt lat="46.25127" lon="4.61377">
        <ele>690.4</ele>
        <time>2022-06-25T13:47:16Z</time>
      </trkpt>
      <trkpt lat="46.25124" lon="4.61379">
        <ele>690.6</ele>
        <time>2022-06-25T13:47:17Z</time>
      </trkpt>
      <trkpt lat="46.25121" lon="4.61381">
        <ele>690.6</ele>
        <time>2022-06-25T13:47:18Z</time>
      </trkpt>
      <trkpt lat="46.25118" lon="4.61382">
        <ele>691</ele>
        <time>2022-06-25T13:47:19Z</time>
      </trkpt>
      <trkpt lat="46.25114" lon="4.61384">
        <ele>691.4</ele>
        <time>2022-06-25T13:47:20Z</time>
      </trkpt>
      <trkpt lat="46.25111" lon="4.61385">
        <ele>691.4</ele>
        <time>2022-06-25T13:47:21Z</time>
      </trkpt>
      <trkpt lat="46.25108" lon="4.61386">
        <ele>691.6</ele>
        <time>2022-06-25T13:47:22Z</time>
      </trkpt>
      <trkpt lat="46.25105" lon="4.61386">
        <ele>691.6</ele>
        <time>2022-06-25T13:47:23Z</time>
      </trkpt>
      <trkpt lat="46.25102" lon="4.61385">
        <ele>692</ele>
        <time>2022-06-25T13:47:24Z</time>
      </trkpt>
      <trkpt lat="46.25098" lon="4.61383">
        <ele>692</ele>
        <time>2022-06-25T13:47:25Z</time>
      </trkpt>
      <trkpt lat="46.25095" lon="4.61381">
        <ele>692</ele>
        <time>2022-06-25T13:47:26Z</time>
      </trkpt>
      <trkpt lat="46.25092" lon="4.61377">
        <ele>692.2</ele>
        <time>2022-06-25T13:47:27Z</time>
      </trkpt>
      <trkpt lat="46.25089" lon="4.61371">
        <ele>692.2</ele>
        <time>2022-06-25T13:47:28Z</time>
      </trkpt>
      <trkpt lat="46.25088" lon="4.61365">
        <ele>692.2</ele>
        <time>2022-06-25T13:47:29Z</time>
      </trkpt>
      <trkpt lat="46.25087" lon="4.61362">
        <ele>692</ele>
        <time>2022-06-25T13:47:30Z</time>
      </trkpt>
      <trkpt lat="46.25087" lon="4.61358">
        <ele>691.8</ele>
        <time>2022-06-25T13:47:31Z</time>
      </trkpt>
      <trkpt lat="46.25087" lon="4.6135">
        <ele>691.8</ele>
        <time>2022-06-25T13:47:32Z</time>
      </trkpt>
      <trkpt lat="46.25087" lon="4.61343">
        <ele>691.4</ele>
        <time>2022-06-25T13:47:33Z</time>
      </trkpt>
      <trkpt lat="46.25088" lon="4.61334">
        <ele>691.2</ele>
        <time>2022-06-25T13:47:34Z</time>
      </trkpt>
      <trkpt lat="46.25089" lon="4.61325">
        <ele>690.8</ele>
        <time>2022-06-25T13:47:35Z</time>
      </trkpt>
      <trkpt lat="46.25091" lon="4.61316">
        <ele>690.6</ele>
        <time>2022-06-25T13:47:36Z</time>
      </trkpt>
      <trkpt lat="46.25093" lon="4.61307">
        <ele>690.2</ele>
        <time>2022-06-25T13:47:37Z</time>
      </trkpt>
      <trkpt lat="46.25096" lon="4.61297">
        <ele>690</ele>
        <time>2022-06-25T13:47:38Z</time>
      </trkpt>
      <trkpt lat="46.25098" lon="4.61286">
        <ele>689.6</ele>
        <time>2022-06-25T13:47:39Z</time>
      </trkpt>
      <trkpt lat="46.251" lon="4.61275">
        <ele>689.2</ele>
        <time>2022-06-25T13:47:40Z</time>
      </trkpt>
      <trkpt lat="46.25101" lon="4.61264">
        <ele>688.8</ele>
        <time>2022-06-25T13:47:41Z</time>
      </trkpt>
      <trkpt lat="46.25102" lon="4.61253">
        <ele>688.2</ele>
        <time>2022-06-25T13:47:42Z</time>
      </trkpt>
      <trkpt lat="46.25101" lon="4.61241">
        <ele>687.6</ele>
        <time>2022-06-25T13:47:43Z</time>
      </trkpt>
      <trkpt lat="46.25096" lon="4.61219">
        <ele>687</ele>
        <time>2022-06-25T13:47:44Z</time>
      </trkpt>
      <trkpt lat="46.25092" lon="4.61209">
        <ele>686.6</ele>
        <time>2022-06-25T13:47:45Z</time>
      </trkpt>
      <trkpt lat="46.25087" lon="4.61199">
        <ele>686.2</ele>
        <time>2022-06-25T13:47:46Z</time>
      </trkpt>
      <trkpt lat="46.25082" lon="4.61191">
        <ele>685.6</ele>
        <time>2022-06-25T13:47:47Z</time>
      </trkpt>
      <trkpt lat="46.25075" lon="4.61182">
        <ele>685.2</ele>
        <time>2022-06-25T13:47:48Z</time>
      </trkpt>
      <trkpt lat="46.25069" lon="4.61175">
        <ele>684.8</ele>
        <time>2022-06-25T13:47:49Z</time>
      </trkpt>
      <trkpt lat="46.25061" lon="4.61167">
        <ele>684</ele>
        <time>2022-06-25T13:47:50Z</time>
      </trkpt>
      <trkpt lat="46.25052" lon="4.6116">
        <ele>683.4</ele>
        <time>2022-06-25T13:47:51Z</time>
      </trkpt>
      <trkpt lat="46.25043" lon="4.61154">
        <ele>682.8</ele>
        <time>2022-06-25T13:47:52Z</time>
      </trkpt>
      <trkpt lat="46.25033" lon="4.61148">
        <ele>682.2</ele>
        <time>2022-06-25T13:47:53Z</time>
      </trkpt>
      <trkpt lat="46.25022" lon="4.61142">
        <ele>681.6</ele>
        <time>2022-06-25T13:47:54Z</time>
      </trkpt>
      <trkpt lat="46.25011" lon="4.61138">
        <ele>681</ele>
        <time>2022-06-25T13:47:55Z</time>
      </trkpt>
      <trkpt lat="46.25" lon="4.61136">
        <ele>680.4</ele>
        <time>2022-06-25T13:47:56Z</time>
      </trkpt>
      <trkpt lat="46.2499" lon="4.61134">
        <ele>679.8</ele>
        <time>2022-06-25T13:47:57Z</time>
      </trkpt>
      <trkpt lat="46.24979" lon="4.61133">
        <ele>679.4</ele>
        <time>2022-06-25T13:47:58Z</time>
      </trkpt>
      <trkpt lat="46.24968" lon="4.61132">
        <ele>678.8</ele>
        <time>2022-06-25T13:47:59Z</time>
      </trkpt>
      <trkpt lat="46.24957" lon="4.61133">
        <ele>678.4</ele>
        <time>2022-06-25T13:48:00Z</time>
      </trkpt>
      <trkpt lat="46.24946" lon="4.61136">
        <ele>677.8</ele>
        <time>2022-06-25T13:48:01Z</time>
      </trkpt>
      <trkpt lat="46.24936" lon="4.61138">
        <ele>677.4</ele>
        <time>2022-06-25T13:48:02Z</time>
      </trkpt>
      <trkpt lat="46.24926" lon="4.61142">
        <ele>677.2</ele>
        <time>2022-06-25T13:48:03Z</time>
      </trkpt>
      <trkpt lat="46.24916" lon="4.61146">
        <ele>677</ele>
        <time>2022-06-25T13:48:04Z</time>
      </trkpt>
      <trkpt lat="46.24908" lon="4.61151">
        <ele>677</ele>
        <time>2022-06-25T13:48:05Z</time>
      </trkpt>
      <trkpt lat="46.24899" lon="4.61156">
        <ele>676.6</ele>
        <time>2022-06-25T13:48:06Z</time>
      </trkpt>
      <trkpt lat="46.2489" lon="4.61162">
        <ele>676.6</ele>
        <time>2022-06-25T13:48:07Z</time>
      </trkpt>
      <trkpt lat="46.24882" lon="4.61167">
        <ele>676.6</ele>
        <time>2022-06-25T13:48:08Z</time>
      </trkpt>
      <trkpt lat="46.24874" lon="4.61171">
        <ele>676.6</ele>
        <time>2022-06-25T13:48:09Z</time>
      </trkpt>
      <trkpt lat="46.24867" lon="4.61176">
        <ele>676.6</ele>
        <time>2022-06-25T13:48:11Z</time>
      </trkpt>
      <trkpt lat="46.2486" lon="4.6118">
        <ele>676.6</ele>
        <time>2022-06-25T13:48:12Z</time>
      </trkpt>
      <trkpt lat="46.24853" lon="4.61183">
        <ele>676.8</ele>
        <time>2022-06-25T13:48:13Z</time>
      </trkpt>
      <trkpt lat="46.24847" lon="4.61187">
        <ele>676.8</ele>
        <time>2022-06-25T13:48:14Z</time>
      </trkpt>
      <trkpt lat="46.24841" lon="4.61189">
        <ele>677.2</ele>
        <time>2022-06-25T13:48:15Z</time>
      </trkpt>
      <trkpt lat="46.24835" lon="4.61192">
        <ele>677.2</ele>
        <time>2022-06-25T13:48:16Z</time>
      </trkpt>
      <trkpt lat="46.24829" lon="4.61194">
        <ele>677.4</ele>
        <time>2022-06-25T13:48:17Z</time>
      </trkpt>
      <trkpt lat="46.24817" lon="4.61197">
        <ele>677.8</ele>
        <time>2022-06-25T13:48:18Z</time>
      </trkpt>
      <trkpt lat="46.24811" lon="4.61198">
        <ele>678.2</ele>
        <time>2022-06-25T13:48:19Z</time>
      </trkpt>
      <trkpt lat="46.24805" lon="4.61199">
        <ele>678.4</ele>
        <time>2022-06-25T13:48:20Z</time>
      </trkpt>
      <trkpt lat="46.248" lon="4.61199">
        <ele>678.4</ele>
        <time>2022-06-25T13:48:21Z</time>
      </trkpt>
      <trkpt lat="46.24794" lon="4.612">
        <ele>678.6</ele>
        <time>2022-06-25T13:48:22Z</time>
      </trkpt>
      <trkpt lat="46.24789" lon="4.612">
        <ele>678.6</ele>
        <time>2022-06-25T13:48:23Z</time>
      </trkpt>
      <trkpt lat="46.24784" lon="4.61199">
        <ele>679</ele>
        <time>2022-06-25T13:48:24Z</time>
      </trkpt>
      <trkpt lat="46.24779" lon="4.61199">
        <ele>679</ele>
        <time>2022-06-25T13:48:25Z</time>
      </trkpt>
      <trkpt lat="46.24774" lon="4.61198">
        <ele>679.2</ele>
        <time>2022-06-25T13:48:26Z</time>
      </trkpt>
      <trkpt lat="46.24769" lon="4.61198">
        <ele>679.6</ele>
        <time>2022-06-25T13:48:27Z</time>
      </trkpt>
      <trkpt lat="46.24764" lon="4.61197">
        <ele>679.8</ele>
        <time>2022-06-25T13:48:28Z</time>
      </trkpt>
      <trkpt lat="46.24759" lon="4.61197">
        <ele>680</ele>
        <time>2022-06-25T13:48:29Z</time>
      </trkpt>
      <trkpt lat="46.24755" lon="4.61197">
        <ele>680.2</ele>
        <time>2022-06-25T13:48:30Z</time>
      </trkpt>
      <trkpt lat="46.24751" lon="4.61196">
        <ele>680.4</ele>
        <time>2022-06-25T13:48:31Z</time>
      </trkpt>
      <trkpt lat="46.24747" lon="4.61196">
        <ele>680.4</ele>
        <time>2022-06-25T13:48:32Z</time>
      </trkpt>
      <trkpt lat="46.24744" lon="4.61195">
        <ele>681</ele>
        <time>2022-06-25T13:48:33Z</time>
      </trkpt>
      <trkpt lat="46.2474" lon="4.61195">
        <ele>681.2</ele>
        <time>2022-06-25T13:48:34Z</time>
      </trkpt>
      <trkpt lat="46.24737" lon="4.61194">
        <ele>681.6</ele>
        <time>2022-06-25T13:48:35Z</time>
      </trkpt>
      <trkpt lat="46.24733" lon="4.61194">
        <ele>681.8</ele>
        <time>2022-06-25T13:48:36Z</time>
      </trkpt>
      <trkpt lat="46.2473" lon="4.61193">
        <ele>682</ele>
        <time>2022-06-25T13:48:37Z</time>
      </trkpt>
      <trkpt lat="46.24726" lon="4.61193">
        <ele>682.2</ele>
        <time>2022-06-25T13:48:38Z</time>
      </trkpt>
      <trkpt lat="46.24722" lon="4.61193">
        <ele>682.4</ele>
        <time>2022-06-25T13:48:39Z</time>
      </trkpt>
      <trkpt lat="46.24719" lon="4.61192">
        <ele>682.8</ele>
        <time>2022-06-25T13:48:40Z</time>
      </trkpt>
      <trkpt lat="46.24715" lon="4.61191">
        <ele>683</ele>
        <time>2022-06-25T13:48:41Z</time>
      </trkpt>
      <trkpt lat="46.24712" lon="4.61191">
        <ele>683.2</ele>
        <time>2022-06-25T13:48:42Z</time>
      </trkpt>
      <trkpt lat="46.24708" lon="4.61191">
        <ele>683.6</ele>
        <time>2022-06-25T13:48:43Z</time>
      </trkpt>
      <trkpt lat="46.24705" lon="4.61191">
        <ele>684</ele>
        <time>2022-06-25T13:48:44Z</time>
      </trkpt>
      <trkpt lat="46.24702" lon="4.61192">
        <ele>684.2</ele>
        <time>2022-06-25T13:48:45Z</time>
      </trkpt>
      <trkpt lat="46.24698" lon="4.61193">
        <ele>684.2</ele>
        <time>2022-06-25T13:48:46Z</time>
      </trkpt>
      <trkpt lat="46.24694" lon="4.61193">
        <ele>684.6</ele>
        <time>2022-06-25T13:48:47Z</time>
      </trkpt>
      <trkpt lat="46.24691" lon="4.61195">
        <ele>684.6</ele>
        <time>2022-06-25T13:48:48Z</time>
      </trkpt>
      <trkpt lat="46.24687" lon="4.61196">
        <ele>685.2</ele>
        <time>2022-06-25T13:48:49Z</time>
      </trkpt>
      <trkpt lat="46.24684" lon="4.61198">
        <ele>685.2</ele>
        <time>2022-06-25T13:48:50Z</time>
      </trkpt>
      <trkpt lat="46.24681" lon="4.61199">
        <ele>685.4</ele>
        <time>2022-06-25T13:48:51Z</time>
      </trkpt>
      <trkpt lat="46.24678" lon="4.61201">
        <ele>685.4</ele>
        <time>2022-06-25T13:48:52Z</time>
      </trkpt>
      <trkpt lat="46.24675" lon="4.61204">
        <ele>685.4</ele>
        <time>2022-06-25T13:48:53Z</time>
      </trkpt>
      <trkpt lat="46.24673" lon="4.61206">
        <ele>685.4</ele>
        <time>2022-06-25T13:48:54Z</time>
      </trkpt>
      <trkpt lat="46.24671" lon="4.6121">
        <ele>685.4</ele>
        <time>2022-06-25T13:48:55Z</time>
      </trkpt>
      <trkpt lat="46.24669" lon="4.61214">
        <ele>685.2</ele>
        <time>2022-06-25T13:48:56Z</time>
      </trkpt>
      <trkpt lat="46.24667" lon="4.61219">
        <ele>685.2</ele>
        <time>2022-06-25T13:48:57Z</time>
      </trkpt>
      <trkpt lat="46.24666" lon="4.61224">
        <ele>684.8</ele>
        <time>2022-06-25T13:48:58Z</time>
      </trkpt>
      <trkpt lat="46.24665" lon="4.6123">
        <ele>684.8</ele>
        <time>2022-06-25T13:48:59Z</time>
      </trkpt>
      <trkpt lat="46.24665" lon="4.61236">
        <ele>684.4</ele>
        <time>2022-06-25T13:49:00Z</time>
      </trkpt>
      <trkpt lat="46.24665" lon="4.61243">
        <ele>684.4</ele>
        <time>2022-06-25T13:49:01Z</time>
      </trkpt>
      <trkpt lat="46.24665" lon="4.61249">
        <ele>684</ele>
        <time>2022-06-25T13:49:02Z</time>
      </trkpt>
      <trkpt lat="46.24665" lon="4.61255">
        <ele>684</ele>
        <time>2022-06-25T13:49:03Z</time>
      </trkpt>
      <trkpt lat="46.24665" lon="4.6126">
        <ele>683.8</ele>
        <time>2022-06-25T13:49:04Z</time>
      </trkpt>
      <trkpt lat="46.24664" lon="4.61265">
        <ele>683.8</ele>
        <time>2022-06-25T13:49:05Z</time>
      </trkpt>
      <trkpt lat="46.24664" lon="4.61269">
        <ele>683.6</ele>
        <time>2022-06-25T13:49:06Z</time>
      </trkpt>
      <trkpt lat="46.24664" lon="4.61272">
        <ele>683.6</ele>
        <time>2022-06-25T13:49:07Z</time>
      </trkpt>
      <trkpt lat="46.24664" lon="4.61274">
        <ele>683.6</ele>
        <time>2022-06-25T13:49:08Z</time>
      </trkpt>
      <trkpt lat="46.24665" lon="4.61273">
        <ele>683.2</ele>
        <time>2022-06-25T13:49:10Z</time>
      </trkpt>
      <trkpt lat="46.24665" lon="4.61271">
        <ele>683.2</ele>
        <time>2022-06-25T13:49:11Z</time>
      </trkpt>
      <trkpt lat="46.24664" lon="4.61269">
        <ele>683.2</ele>
        <time>2022-06-25T13:49:12Z</time>
      </trkpt>
      <trkpt lat="46.24664" lon="4.61267">
        <ele>683.2</ele>
        <time>2022-06-25T13:49:13Z</time>
      </trkpt>
      <trkpt lat="46.24664" lon="4.61265">
        <ele>683.2</ele>
        <time>2022-06-25T13:49:14Z</time>
      </trkpt>
      <trkpt lat="46.24663" lon="4.61262">
        <ele>683.2</ele>
        <time>2022-06-25T13:49:15Z</time>
      </trkpt>
      <trkpt lat="46.24663" lon="4.6126">
        <ele>683.2</ele>
        <time>2022-06-25T13:49:16Z</time>
      </trkpt>
      <trkpt lat="46.24663" lon="4.61257">
        <ele>683.2</ele>
        <time>2022-06-25T13:49:17Z</time>
      </trkpt>
      <trkpt lat="46.24662" lon="4.61254">
        <ele>683.2</ele>
        <time>2022-06-25T13:49:18Z</time>
      </trkpt>
      <trkpt lat="46.24662" lon="4.61251">
        <ele>683.2</ele>
        <time>2022-06-25T13:49:19Z</time>
      </trkpt>
      <trkpt lat="46.24663" lon="4.61249">
        <ele>683.2</ele>
        <time>2022-06-25T13:49:20Z</time>
      </trkpt>
      <trkpt lat="46.24663" lon="4.61246">
        <ele>683.2</ele>
        <time>2022-06-25T13:49:21Z</time>
      </trkpt>
      <trkpt lat="46.24664" lon="4.61242">
        <ele>683.2</ele>
        <time>2022-06-25T13:49:22Z</time>
      </trkpt>
      <trkpt lat="46.24664" lon="4.61239">
        <ele>683.2</ele>
        <time>2022-06-25T13:49:23Z</time>
      </trkpt>
      <trkpt lat="46.24664" lon="4.61235">
        <ele>683.2</ele>
        <time>2022-06-25T13:49:24Z</time>
      </trkpt>
      <trkpt lat="46.24664" lon="4.61231">
        <ele>683.2</ele>
        <time>2022-06-25T13:49:25Z</time>
      </trkpt>
      <trkpt lat="46.24665" lon="4.61228">
        <ele>683.2</ele>
        <time>2022-06-25T13:49:26Z</time>
      </trkpt>
      <trkpt lat="46.24665" lon="4.61225">
        <ele>683.6</ele>
        <time>2022-06-25T13:49:27Z</time>
      </trkpt>
      <trkpt lat="46.24664" lon="4.61223">
        <ele>683.6</ele>
        <time>2022-06-25T13:49:28Z</time>
      </trkpt>
      <trkpt lat="46.24663" lon="4.61222">
        <ele>683.6</ele>
        <time>2022-06-25T13:49:29Z</time>
      </trkpt>
      <trkpt lat="46.24662" lon="4.61224">
        <ele>683.6</ele>
        <time>2022-06-25T13:49:30Z</time>
      </trkpt>
      <trkpt lat="46.24662" lon="4.61226">
        <ele>683.8</ele>
        <time>2022-06-25T13:49:31Z</time>
      </trkpt>
      <trkpt lat="46.24662" lon="4.61228">
        <ele>683.8</ele>
        <time>2022-06-25T13:49:32Z</time>
      </trkpt>
      <trkpt lat="46.24662" lon="4.61231">
        <ele>683.8</ele>
        <time>2022-06-25T13:49:33Z</time>
      </trkpt>
      <trkpt lat="46.24663" lon="4.61234">
        <ele>684</ele>
        <time>2022-06-25T13:49:34Z</time>
      </trkpt>
      <trkpt lat="46.24663" lon="4.61238">
        <ele>684</ele>
        <time>2022-06-25T13:49:35Z</time>
      </trkpt>
      <trkpt lat="46.24664" lon="4.61242">
        <ele>684</ele>
        <time>2022-06-25T13:49:36Z</time>
      </trkpt>
      <trkpt lat="46.24664" lon="4.61247">
        <ele>684</ele>
        <time>2022-06-25T13:49:37Z</time>
      </trkpt>
      <trkpt lat="46.24664" lon="4.61251">
        <ele>684</ele>
        <time>2022-06-25T13:49:38Z</time>
      </trkpt>
      <trkpt lat="46.24664" lon="4.61257">
        <ele>684</ele>
        <time>2022-06-25T13:49:39Z</time>
      </trkpt>
      <trkpt lat="46.24664" lon="4.61262">
        <ele>684</ele>
        <time>2022-06-25T13:49:40Z</time>
      </trkpt>
      <trkpt lat="46.24664" lon="4.61268">
        <ele>684</ele>
        <time>2022-06-25T13:49:41Z</time>
      </trkpt>
      <trkpt lat="46.24664" lon="4.61274">
        <ele>684</ele>
        <time>2022-06-25T13:49:42Z</time>
      </trkpt>
      <trkpt lat="46.24664" lon="4.61281">
        <ele>684</ele>
        <time>2022-06-25T13:49:43Z</time>
      </trkpt>
      <trkpt lat="46.24665" lon="4.61288">
        <ele>683.8</ele>
        <time>2022-06-25T13:49:44Z</time>
      </trkpt>
      <trkpt lat="46.24665" lon="4.61295">
        <ele>683.8</ele>
        <time>2022-06-25T13:49:45Z</time>
      </trkpt>
      <trkpt lat="46.24666" lon="4.61302">
        <ele>683.6</ele>
        <time>2022-06-25T13:49:46Z</time>
      </trkpt>
      <trkpt lat="46.24666" lon="4.6131">
        <ele>683.6</ele>
        <time>2022-06-25T13:49:47Z</time>
      </trkpt>
      <trkpt lat="46.24667" lon="4.61319">
        <ele>683.6</ele>
        <time>2022-06-25T13:49:48Z</time>
      </trkpt>
      <trkpt lat="46.24668" lon="4.61327">
        <ele>683.2</ele>
        <time>2022-06-25T13:49:49Z</time>
      </trkpt>
      <trkpt lat="46.24669" lon="4.61336">
        <ele>683</ele>
        <time>2022-06-25T13:49:50Z</time>
      </trkpt>
      <trkpt lat="46.2467" lon="4.61345">
        <ele>682.8</ele>
        <time>2022-06-25T13:49:51Z</time>
      </trkpt>
      <trkpt lat="46.24672" lon="4.61354">
        <ele>682.6</ele>
        <time>2022-06-25T13:49:52Z</time>
      </trkpt>
      <trkpt lat="46.24673" lon="4.61362">
        <ele>682.2</ele>
        <time>2022-06-25T13:49:53Z</time>
      </trkpt>
      <trkpt lat="46.24673" lon="4.61371">
        <ele>681.8</ele>
        <time>2022-06-25T13:49:54Z</time>
      </trkpt>
      <trkpt lat="46.24671" lon="4.6138">
        <ele>681.8</ele>
        <time>2022-06-25T13:49:55Z</time>
      </trkpt>
      <trkpt lat="46.24668" lon="4.61389">
        <ele>681.6</ele>
        <time>2022-06-25T13:49:56Z</time>
      </trkpt>
      <trkpt lat="46.24664" lon="4.61397">
        <ele>681.6</ele>
        <time>2022-06-25T13:49:57Z</time>
      </trkpt>
      <trkpt lat="46.24659" lon="4.61404">
        <ele>681.6</ele>
        <time>2022-06-25T13:49:58Z</time>
      </trkpt>
      <trkpt lat="46.24654" lon="4.6141">
        <ele>681.6</ele>
        <time>2022-06-25T13:49:59Z</time>
      </trkpt>
      <trkpt lat="46.2465" lon="4.61415">
        <ele>681.6</ele>
        <time>2022-06-25T13:50:00Z</time>
      </trkpt>
      <trkpt lat="46.24646" lon="4.6142">
        <ele>681.6</ele>
        <time>2022-06-25T13:50:01Z</time>
      </trkpt>
      <trkpt lat="46.24642" lon="4.61425">
        <ele>682</ele>
        <time>2022-06-25T13:50:02Z</time>
      </trkpt>
      <trkpt lat="46.24638" lon="4.6143">
        <ele>682</ele>
        <time>2022-06-25T13:50:03Z</time>
      </trkpt>
      <trkpt lat="46.24634" lon="4.61434">
        <ele>682</ele>
        <time>2022-06-25T13:50:04Z</time>
      </trkpt>
      <trkpt lat="46.24631" lon="4.61439">
        <ele>682.2</ele>
        <time>2022-06-25T13:50:05Z</time>
      </trkpt>
      <trkpt lat="46.24627" lon="4.61444">
        <ele>682.2</ele>
        <time>2022-06-25T13:50:06Z</time>
      </trkpt>
      <trkpt lat="46.24624" lon="4.61448">
        <ele>682.2</ele>
        <time>2022-06-25T13:50:07Z</time>
      </trkpt>
      <trkpt lat="46.2462" lon="4.61453">
        <ele>682.2</ele>
        <time>2022-06-25T13:50:08Z</time>
      </trkpt>
      <trkpt lat="46.24616" lon="4.61457">
        <ele>682.4</ele>
        <time>2022-06-25T13:50:09Z</time>
      </trkpt>
      <trkpt lat="46.24611" lon="4.61462">
        <ele>682.4</ele>
        <time>2022-06-25T13:50:10Z</time>
      </trkpt>
      <trkpt lat="46.24607" lon="4.61466">
        <ele>682.4</ele>
        <time>2022-06-25T13:50:11Z</time>
      </trkpt>
      <trkpt lat="46.24603" lon="4.6147">
        <ele>682.4</ele>
        <time>2022-06-25T13:50:12Z</time>
      </trkpt>
      <trkpt lat="46.24598" lon="4.61473">
        <ele>682.4</ele>
        <time>2022-06-25T13:50:13Z</time>
      </trkpt>
      <trkpt lat="46.24593" lon="4.61476">
        <ele>682.4</ele>
        <time>2022-06-25T13:50:14Z</time>
      </trkpt>
      <trkpt lat="46.24588" lon="4.61479">
        <ele>682.4</ele>
        <time>2022-06-25T13:50:15Z</time>
      </trkpt>
      <trkpt lat="46.24583" lon="4.61481">
        <ele>682.4</ele>
        <time>2022-06-25T13:50:16Z</time>
      </trkpt>
      <trkpt lat="46.24578" lon="4.61484">
        <ele>682.4</ele>
        <time>2022-06-25T13:50:17Z</time>
      </trkpt>
      <trkpt lat="46.24573" lon="4.61486">
        <ele>682.4</ele>
        <time>2022-06-25T13:50:18Z</time>
      </trkpt>
      <trkpt lat="46.24567" lon="4.61489">
        <ele>682.4</ele>
        <time>2022-06-25T13:50:19Z</time>
      </trkpt>
      <trkpt lat="46.24561" lon="4.61491">
        <ele>682.4</ele>
        <time>2022-06-25T13:50:20Z</time>
      </trkpt>
      <trkpt lat="46.24555" lon="4.61494">
        <ele>682.4</ele>
        <time>2022-06-25T13:50:21Z</time>
      </trkpt>
      <trkpt lat="46.24549" lon="4.61496">
        <ele>682</ele>
        <time>2022-06-25T13:50:22Z</time>
      </trkpt>
      <trkpt lat="46.24542" lon="4.61499">
        <ele>682</ele>
        <time>2022-06-25T13:50:23Z</time>
      </trkpt>
      <trkpt lat="46.24536" lon="4.61501">
        <ele>681.6</ele>
        <time>2022-06-25T13:50:24Z</time>
      </trkpt>
      <trkpt lat="46.24529" lon="4.61504">
        <ele>681.6</ele>
        <time>2022-06-25T13:50:25Z</time>
      </trkpt>
      <trkpt lat="46.24523" lon="4.61506">
        <ele>681.4</ele>
        <time>2022-06-25T13:50:26Z</time>
      </trkpt>
      <trkpt lat="46.24516" lon="4.61508">
        <ele>681.4</ele>
        <time>2022-06-25T13:50:27Z</time>
      </trkpt>
      <trkpt lat="46.24509" lon="4.6151">
        <ele>681.4</ele>
        <time>2022-06-25T13:50:28Z</time>
      </trkpt>
      <trkpt lat="46.24502" lon="4.61511">
        <ele>681.4</ele>
        <time>2022-06-25T13:50:29Z</time>
      </trkpt>
      <trkpt lat="46.24496" lon="4.61513">
        <ele>681.4</ele>
        <time>2022-06-25T13:50:30Z</time>
      </trkpt>
      <trkpt lat="46.2449" lon="4.61514">
        <ele>681.2</ele>
        <time>2022-06-25T13:50:32Z</time>
      </trkpt>
      <trkpt lat="46.24483" lon="4.61515">
        <ele>681.2</ele>
        <time>2022-06-25T13:50:33Z</time>
      </trkpt>
      <trkpt lat="46.24477" lon="4.61516">
        <ele>681.2</ele>
        <time>2022-06-25T13:50:34Z</time>
      </trkpt>
      <trkpt lat="46.24471" lon="4.61517">
        <ele>681</ele>
        <time>2022-06-25T13:50:35Z</time>
      </trkpt>
      <trkpt lat="46.24465" lon="4.61518">
        <ele>681</ele>
        <time>2022-06-25T13:50:36Z</time>
      </trkpt>
      <trkpt lat="46.24459" lon="4.61519">
        <ele>681</ele>
        <time>2022-06-25T13:50:37Z</time>
      </trkpt>
      <trkpt lat="46.24453" lon="4.6152">
        <ele>681</ele>
        <time>2022-06-25T13:50:38Z</time>
      </trkpt>
      <trkpt lat="46.24447" lon="4.61522">
        <ele>681</ele>
        <time>2022-06-25T13:50:39Z</time>
      </trkpt>
      <trkpt lat="46.24441" lon="4.61524">
        <ele>681</ele>
        <time>2022-06-25T13:50:40Z</time>
      </trkpt>
      <trkpt lat="46.24435" lon="4.61526">
        <ele>681</ele>
        <time>2022-06-25T13:50:41Z</time>
      </trkpt>
      <trkpt lat="46.2443" lon="4.61528">
        <ele>681</ele>
        <time>2022-06-25T13:50:42Z</time>
      </trkpt>
      <trkpt lat="46.24424" lon="4.61531">
        <ele>681</ele>
        <time>2022-06-25T13:50:43Z</time>
      </trkpt>
      <trkpt lat="46.24419" lon="4.61533">
        <ele>681</ele>
        <time>2022-06-25T13:50:44Z</time>
      </trkpt>
      <trkpt lat="46.24413" lon="4.61535">
        <ele>681</ele>
        <time>2022-06-25T13:50:45Z</time>
      </trkpt>
      <trkpt lat="46.24407" lon="4.61537">
        <ele>681</ele>
        <time>2022-06-25T13:50:46Z</time>
      </trkpt>
      <trkpt lat="46.24402" lon="4.61539">
        <ele>681</ele>
        <time>2022-06-25T13:50:47Z</time>
      </trkpt>
      <trkpt lat="46.24396" lon="4.61541">
        <ele>681</ele>
        <time>2022-06-25T13:50:48Z</time>
      </trkpt>
      <trkpt lat="46.2439" lon="4.61542">
        <ele>681</ele>
        <time>2022-06-25T13:50:49Z</time>
      </trkpt>
      <trkpt lat="46.24385" lon="4.61544">
        <ele>681</ele>
        <time>2022-06-25T13:50:50Z</time>
      </trkpt>
      <trkpt lat="46.24379" lon="4.61546">
        <ele>681</ele>
        <time>2022-06-25T13:50:51Z</time>
      </trkpt>
      <trkpt lat="46.24373" lon="4.61546">
        <ele>680.8</ele>
        <time>2022-06-25T13:50:52Z</time>
      </trkpt>
      <trkpt lat="46.24367" lon="4.61547">
        <ele>680.8</ele>
        <time>2022-06-25T13:50:53Z</time>
      </trkpt>
      <trkpt lat="46.24361" lon="4.61546">
        <ele>680.4</ele>
        <time>2022-06-25T13:50:54Z</time>
      </trkpt>
      <trkpt lat="46.24355" lon="4.61546">
        <ele>680.4</ele>
        <time>2022-06-25T13:50:55Z</time>
      </trkpt>
      <trkpt lat="46.24349" lon="4.61545">
        <ele>680.2</ele>
        <time>2022-06-25T13:50:56Z</time>
      </trkpt>
      <trkpt lat="46.24344" lon="4.61544">
        <ele>680.2</ele>
        <time>2022-06-25T13:50:57Z</time>
      </trkpt>
      <trkpt lat="46.24338" lon="4.61543">
        <ele>680.2</ele>
        <time>2022-06-25T13:50:58Z</time>
      </trkpt>
      <trkpt lat="46.24332" lon="4.61541">
        <ele>680.2</ele>
        <time>2022-06-25T13:50:59Z</time>
      </trkpt>
      <trkpt lat="46.24326" lon="4.6154">
        <ele>680.2</ele>
        <time>2022-06-25T13:51:00Z</time>
      </trkpt>
      <trkpt lat="46.2432" lon="4.61539">
        <ele>680.2</ele>
        <time>2022-06-25T13:51:01Z</time>
      </trkpt>
      <trkpt lat="46.24314" lon="4.61538">
        <ele>680.2</ele>
        <time>2022-06-25T13:51:02Z</time>
      </trkpt>
      <trkpt lat="46.24308" lon="4.61537">
        <ele>680.2</ele>
        <time>2022-06-25T13:51:03Z</time>
      </trkpt>
      <trkpt lat="46.24303" lon="4.61536">
        <ele>680.2</ele>
        <time>2022-06-25T13:51:04Z</time>
      </trkpt>
      <trkpt lat="46.24297" lon="4.61535">
        <ele>680</ele>
        <time>2022-06-25T13:51:05Z</time>
      </trkpt>
      <trkpt lat="46.24291" lon="4.61534">
        <ele>680</ele>
        <time>2022-06-25T13:51:06Z</time>
      </trkpt>
      <trkpt lat="46.24285" lon="4.61534">
        <ele>680</ele>
        <time>2022-06-25T13:51:07Z</time>
      </trkpt>
      <trkpt lat="46.24279" lon="4.61534">
        <ele>679.8</ele>
        <time>2022-06-25T13:51:08Z</time>
      </trkpt>
      <trkpt lat="46.24273" lon="4.61535">
        <ele>679.8</ele>
        <time>2022-06-25T13:51:09Z</time>
      </trkpt>
      <trkpt lat="46.24268" lon="4.61536">
        <ele>679.4</ele>
        <time>2022-06-25T13:51:10Z</time>
      </trkpt>
      <trkpt lat="46.24262" lon="4.61539">
        <ele>679.4</ele>
        <time>2022-06-25T13:51:11Z</time>
      </trkpt>
      <trkpt lat="46.24257" lon="4.61543">
        <ele>679</ele>
        <time>2022-06-25T13:51:12Z</time>
      </trkpt>
      <trkpt lat="46.24253" lon="4.61549">
        <ele>679</ele>
        <time>2022-06-25T13:51:13Z</time>
      </trkpt>
      <trkpt lat="46.2425" lon="4.61556">
        <ele>678.8</ele>
        <time>2022-06-25T13:51:14Z</time>
      </trkpt>
      <trkpt lat="46.24247" lon="4.61563">
        <ele>678.8</ele>
        <time>2022-06-25T13:51:15Z</time>
      </trkpt>
      <trkpt lat="46.24245" lon="4.61571">
        <ele>678.4</ele>
        <time>2022-06-25T13:51:16Z</time>
      </trkpt>
      <trkpt lat="46.24244" lon="4.6158">
        <ele>678.2</ele>
        <time>2022-06-25T13:51:17Z</time>
      </trkpt>
      <trkpt lat="46.24243" lon="4.61589">
        <ele>678.2</ele>
        <time>2022-06-25T13:51:18Z</time>
      </trkpt>
      <trkpt lat="46.24242" lon="4.61598">
        <ele>678</ele>
        <time>2022-06-25T13:51:19Z</time>
      </trkpt>
      <trkpt lat="46.24242" lon="4.61609">
        <ele>677.6</ele>
        <time>2022-06-25T13:51:20Z</time>
      </trkpt>
      <trkpt lat="46.24242" lon="4.6162">
        <ele>677.2</ele>
        <time>2022-06-25T13:51:21Z</time>
      </trkpt>
      <trkpt lat="46.24243" lon="4.61631">
        <ele>676.6</ele>
        <time>2022-06-25T13:51:22Z</time>
      </trkpt>
      <trkpt lat="46.24243" lon="4.61643">
        <ele>676</ele>
        <time>2022-06-25T13:51:23Z</time>
      </trkpt>
      <trkpt lat="46.24243" lon="4.61656">
        <ele>675.2</ele>
        <time>2022-06-25T13:51:24Z</time>
      </trkpt>
      <trkpt lat="46.24244" lon="4.61671">
        <ele>674.4</ele>
        <time>2022-06-25T13:51:25Z</time>
      </trkpt>
      <trkpt lat="46.24245" lon="4.61684">
        <ele>673.8</ele>
        <time>2022-06-25T13:51:26Z</time>
      </trkpt>
      <trkpt lat="46.24247" lon="4.61697">
        <ele>673.2</ele>
        <time>2022-06-25T13:51:27Z</time>
      </trkpt>
      <trkpt lat="46.24248" lon="4.61707">
        <ele>672.4</ele>
        <time>2022-06-25T13:51:28Z</time>
      </trkpt>
      <trkpt lat="46.24247" lon="4.61718">
        <ele>672</ele>
        <time>2022-06-25T13:51:29Z</time>
      </trkpt>
      <trkpt lat="46.24245" lon="4.61728">
        <ele>671.4</ele>
        <time>2022-06-25T13:51:30Z</time>
      </trkpt>
      <trkpt lat="46.24239" lon="4.61736">
        <ele>670.8</ele>
        <time>2022-06-25T13:51:31Z</time>
      </trkpt>
      <trkpt lat="46.24232" lon="4.61741">
        <ele>670.2</ele>
        <time>2022-06-25T13:51:32Z</time>
      </trkpt>
      <trkpt lat="46.24224" lon="4.61741">
        <ele>669.8</ele>
        <time>2022-06-25T13:51:33Z</time>
      </trkpt>
      <trkpt lat="46.24215" lon="4.61738">
        <ele>669.6</ele>
        <time>2022-06-25T13:51:34Z</time>
      </trkpt>
      <trkpt lat="46.24207" lon="4.61733">
        <ele>669</ele>
        <time>2022-06-25T13:51:35Z</time>
      </trkpt>
      <trkpt lat="46.24199" lon="4.61728">
        <ele>668.6</ele>
        <time>2022-06-25T13:51:36Z</time>
      </trkpt>
      <trkpt lat="46.24191" lon="4.61722">
        <ele>668.2</ele>
        <time>2022-06-25T13:51:37Z</time>
      </trkpt>
      <trkpt lat="46.24183" lon="4.61717">
        <ele>667.8</ele>
        <time>2022-06-25T13:51:38Z</time>
      </trkpt>
      <trkpt lat="46.24176" lon="4.61712">
        <ele>667.2</ele>
        <time>2022-06-25T13:51:39Z</time>
      </trkpt>
      <trkpt lat="46.24168" lon="4.61709">
        <ele>666.6</ele>
        <time>2022-06-25T13:51:40Z</time>
      </trkpt>
      <trkpt lat="46.2416" lon="4.61707">
        <ele>666.2</ele>
        <time>2022-06-25T13:51:41Z</time>
      </trkpt>
      <trkpt lat="46.24152" lon="4.61707">
        <ele>665.6</ele>
        <time>2022-06-25T13:51:42Z</time>
      </trkpt>
      <trkpt lat="46.24143" lon="4.61708">
        <ele>665.2</ele>
        <time>2022-06-25T13:51:43Z</time>
      </trkpt>
      <trkpt lat="46.24134" lon="4.61711">
        <ele>664.6</ele>
        <time>2022-06-25T13:51:44Z</time>
      </trkpt>
      <trkpt lat="46.24125" lon="4.61714">
        <ele>664.2</ele>
        <time>2022-06-25T13:51:45Z</time>
      </trkpt>
      <trkpt lat="46.24116" lon="4.61719">
        <ele>663.4</ele>
        <time>2022-06-25T13:51:46Z</time>
      </trkpt>
      <trkpt lat="46.24107" lon="4.61726">
        <ele>662.8</ele>
        <time>2022-06-25T13:51:47Z</time>
      </trkpt>
      <trkpt lat="46.24099" lon="4.61733">
        <ele>662.2</ele>
        <time>2022-06-25T13:51:48Z</time>
      </trkpt>
      <trkpt lat="46.24092" lon="4.6174">
        <ele>661.4</ele>
        <time>2022-06-25T13:51:49Z</time>
      </trkpt>
      <trkpt lat="46.24085" lon="4.61748">
        <ele>660.6</ele>
        <time>2022-06-25T13:51:50Z</time>
      </trkpt>
      <trkpt lat="46.2408" lon="4.61757">
        <ele>659.8</ele>
        <time>2022-06-25T13:51:51Z</time>
      </trkpt>
      <trkpt lat="46.24075" lon="4.61767">
        <ele>659.2</ele>
        <time>2022-06-25T13:51:52Z</time>
      </trkpt>
      <trkpt lat="46.24071" lon="4.61778">
        <ele>659</ele>
        <time>2022-06-25T13:51:53Z</time>
      </trkpt>
      <trkpt lat="46.24068" lon="4.61789">
        <ele>658.6</ele>
        <time>2022-06-25T13:51:54Z</time>
      </trkpt>
      <trkpt lat="46.24065" lon="4.61801">
        <ele>658.2</ele>
        <time>2022-06-25T13:51:55Z</time>
      </trkpt>
      <trkpt lat="46.24062" lon="4.61811">
        <ele>658.2</ele>
        <time>2022-06-25T13:51:56Z</time>
      </trkpt>
      <trkpt lat="46.24058" lon="4.6182">
        <ele>658</ele>
        <time>2022-06-25T13:51:57Z</time>
      </trkpt>
      <trkpt lat="46.24055" lon="4.61828">
        <ele>658</ele>
        <time>2022-06-25T13:51:58Z</time>
      </trkpt>
      <trkpt lat="46.24051" lon="4.61836">
        <ele>658</ele>
        <time>2022-06-25T13:51:59Z</time>
      </trkpt>
      <trkpt lat="46.24048" lon="4.61844">
        <ele>658.4</ele>
        <time>2022-06-25T13:52:00Z</time>
      </trkpt>
      <trkpt lat="46.24046" lon="4.61851">
        <ele>658.6</ele>
        <time>2022-06-25T13:52:01Z</time>
      </trkpt>
      <trkpt lat="46.24043" lon="4.61857">
        <ele>658.6</ele>
        <time>2022-06-25T13:52:02Z</time>
      </trkpt>
      <trkpt lat="46.24041" lon="4.61863">
        <ele>659.2</ele>
        <time>2022-06-25T13:52:03Z</time>
      </trkpt>
      <trkpt lat="46.24038" lon="4.61869">
        <ele>659.4</ele>
        <time>2022-06-25T13:52:04Z</time>
      </trkpt>
      <trkpt lat="46.24036" lon="4.61875">
        <ele>659.6</ele>
        <time>2022-06-25T13:52:05Z</time>
      </trkpt>
      <trkpt lat="46.24034" lon="4.61881">
        <ele>659.8</ele>
        <time>2022-06-25T13:52:06Z</time>
      </trkpt>
      <trkpt lat="46.24032" lon="4.61887">
        <ele>660.2</ele>
        <time>2022-06-25T13:52:07Z</time>
      </trkpt>
      <trkpt lat="46.2403" lon="4.61892">
        <ele>660.4</ele>
        <time>2022-06-25T13:52:08Z</time>
      </trkpt>
      <trkpt lat="46.24028" lon="4.61898">
        <ele>660.8</ele>
        <time>2022-06-25T13:52:09Z</time>
      </trkpt>
      <trkpt lat="46.24026" lon="4.61903">
        <ele>661</ele>
        <time>2022-06-25T13:52:10Z</time>
      </trkpt>
      <trkpt lat="46.24024" lon="4.61909">
        <ele>661</ele>
        <time>2022-06-25T13:52:11Z</time>
      </trkpt>
      <trkpt lat="46.24022" lon="4.61914">
        <ele>661.4</ele>
        <time>2022-06-25T13:52:12Z</time>
      </trkpt>
      <trkpt lat="46.24021" lon="4.6192">
        <ele>661.6</ele>
        <time>2022-06-25T13:52:13Z</time>
      </trkpt>
      <trkpt lat="46.24019" lon="4.61925">
        <ele>662</ele>
        <time>2022-06-25T13:52:14Z</time>
      </trkpt>
      <trkpt lat="46.24017" lon="4.61931">
        <ele>662.4</ele>
        <time>2022-06-25T13:52:15Z</time>
      </trkpt>
      <trkpt lat="46.24015" lon="4.61936">
        <ele>662.6</ele>
        <time>2022-06-25T13:52:16Z</time>
      </trkpt>
      <trkpt lat="46.24013" lon="4.61941">
        <ele>663</ele>
        <time>2022-06-25T13:52:17Z</time>
      </trkpt>
      <trkpt lat="46.24011" lon="4.61946">
        <ele>663.2</ele>
        <time>2022-06-25T13:52:18Z</time>
      </trkpt>
      <trkpt lat="46.2401" lon="4.61952">
        <ele>663.4</ele>
        <time>2022-06-25T13:52:19Z</time>
      </trkpt>
      <trkpt lat="46.24008" lon="4.61957">
        <ele>663.8</ele>
        <time>2022-06-25T13:52:20Z</time>
      </trkpt>
      <trkpt lat="46.24006" lon="4.61962">
        <ele>664</ele>
        <time>2022-06-25T13:52:21Z</time>
      </trkpt>
      <trkpt lat="46.24005" lon="4.61967">
        <ele>664.2</ele>
        <time>2022-06-25T13:52:22Z</time>
      </trkpt>
      <trkpt lat="46.24003" lon="4.61973">
        <ele>664.6</ele>
        <time>2022-06-25T13:52:23Z</time>
      </trkpt>
      <trkpt lat="46.24002" lon="4.61978">
        <ele>664.8</ele>
        <time>2022-06-25T13:52:24Z</time>
      </trkpt>
      <trkpt lat="46.24" lon="4.61983">
        <ele>664.8</ele>
        <time>2022-06-25T13:52:25Z</time>
      </trkpt>
      <trkpt lat="46.23999" lon="4.61988">
        <ele>665</ele>
        <time>2022-06-25T13:52:26Z</time>
      </trkpt>
      <trkpt lat="46.23998" lon="4.61992">
        <ele>665</ele>
        <time>2022-06-25T13:52:27Z</time>
      </trkpt>
      <trkpt lat="46.23998" lon="4.61996">
        <ele>665.4</ele>
        <time>2022-06-25T13:52:28Z</time>
      </trkpt>
      <trkpt lat="46.23997" lon="4.62001">
        <ele>665.4</ele>
        <time>2022-06-25T13:52:29Z</time>
      </trkpt>
      <trkpt lat="46.23996" lon="4.62005">
        <ele>665.8</ele>
        <time>2022-06-25T13:52:30Z</time>
      </trkpt>
      <trkpt lat="46.23995" lon="4.62009">
        <ele>665.8</ele>
        <time>2022-06-25T13:52:31Z</time>
      </trkpt>
      <trkpt lat="46.23994" lon="4.62014">
        <ele>666.2</ele>
        <time>2022-06-25T13:52:32Z</time>
      </trkpt>
      <trkpt lat="46.23994" lon="4.62018">
        <ele>666.4</ele>
        <time>2022-06-25T13:52:33Z</time>
      </trkpt>
      <trkpt lat="46.23993" lon="4.62023">
        <ele>666.4</ele>
        <time>2022-06-25T13:52:34Z</time>
      </trkpt>
      <trkpt lat="46.23992" lon="4.62028">
        <ele>666.6</ele>
        <time>2022-06-25T13:52:35Z</time>
      </trkpt>
      <trkpt lat="46.23992" lon="4.62032">
        <ele>667</ele>
        <time>2022-06-25T13:52:36Z</time>
      </trkpt>
      <trkpt lat="46.23991" lon="4.62036">
        <ele>667</ele>
        <time>2022-06-25T13:52:37Z</time>
      </trkpt>
      <trkpt lat="46.2399" lon="4.62041">
        <ele>667.2</ele>
        <time>2022-06-25T13:52:38Z</time>
      </trkpt>
      <trkpt lat="46.23989" lon="4.62045">
        <ele>667.2</ele>
        <time>2022-06-25T13:52:39Z</time>
      </trkpt>
      <trkpt lat="46.23989" lon="4.6205">
        <ele>667.6</ele>
        <time>2022-06-25T13:52:40Z</time>
      </trkpt>
      <trkpt lat="46.23988" lon="4.62054">
        <ele>667.6</ele>
        <time>2022-06-25T13:52:41Z</time>
      </trkpt>
      <trkpt lat="46.23987" lon="4.62058">
        <ele>668</ele>
        <time>2022-06-25T13:52:42Z</time>
      </trkpt>
      <trkpt lat="46.23987" lon="4.62063">
        <ele>668.2</ele>
        <time>2022-06-25T13:52:43Z</time>
      </trkpt>
      <trkpt lat="46.23986" lon="4.62067">
        <ele>668.2</ele>
        <time>2022-06-25T13:52:44Z</time>
      </trkpt>
      <trkpt lat="46.23986" lon="4.62071">
        <ele>668.4</ele>
        <time>2022-06-25T13:52:45Z</time>
      </trkpt>
      <trkpt lat="46.23986" lon="4.62076">
        <ele>668.8</ele>
        <time>2022-06-25T13:52:46Z</time>
      </trkpt>
      <trkpt lat="46.23985" lon="4.6208">
        <ele>668.8</ele>
        <time>2022-06-25T13:52:47Z</time>
      </trkpt>
      <trkpt lat="46.23984" lon="4.62084">
        <ele>669</ele>
        <time>2022-06-25T13:52:48Z</time>
      </trkpt>
      <trkpt lat="46.23984" lon="4.62088">
        <ele>669</ele>
        <time>2022-06-25T13:52:49Z</time>
      </trkpt>
      <trkpt lat="46.23983" lon="4.62092">
        <ele>669.4</ele>
        <time>2022-06-25T13:52:50Z</time>
      </trkpt>
      <trkpt lat="46.23982" lon="4.62096">
        <ele>669.4</ele>
        <time>2022-06-25T13:52:51Z</time>
      </trkpt>
      <trkpt lat="46.23982" lon="4.621">
        <ele>669.8</ele>
        <time>2022-06-25T13:52:52Z</time>
      </trkpt>
      <trkpt lat="46.23981" lon="4.62104">
        <ele>669.8</ele>
        <time>2022-06-25T13:52:53Z</time>
      </trkpt>
      <trkpt lat="46.23981" lon="4.62108">
        <ele>670</ele>
        <time>2022-06-25T13:52:54Z</time>
      </trkpt>
      <trkpt lat="46.2398" lon="4.62112">
        <ele>670</ele>
        <time>2022-06-25T13:52:55Z</time>
      </trkpt>
      <trkpt lat="46.23979" lon="4.62116">
        <ele>670.4</ele>
        <time>2022-06-25T13:52:56Z</time>
      </trkpt>
      <trkpt lat="46.23979" lon="4.6212">
        <ele>670.6</ele>
        <time>2022-06-25T13:52:57Z</time>
      </trkpt>
      <trkpt lat="46.23978" lon="4.62124">
        <ele>670.6</ele>
        <time>2022-06-25T13:52:58Z</time>
      </trkpt>
      <trkpt lat="46.23977" lon="4.62128">
        <ele>671</ele>
        <time>2022-06-25T13:52:59Z</time>
      </trkpt>
      <trkpt lat="46.23977" lon="4.62131">
        <ele>671</ele>
        <time>2022-06-25T13:53:00Z</time>
      </trkpt>
      <trkpt lat="46.23976" lon="4.62135">
        <ele>671.4</ele>
        <time>2022-06-25T13:53:01Z</time>
      </trkpt>
      <trkpt lat="46.23975" lon="4.62139">
        <ele>671.4</ele>
        <time>2022-06-25T13:53:02Z</time>
      </trkpt>
      <trkpt lat="46.23974" lon="4.62142">
        <ele>671.6</ele>
        <time>2022-06-25T13:53:03Z</time>
      </trkpt>
      <trkpt lat="46.23973" lon="4.62146">
        <ele>671.6</ele>
        <time>2022-06-25T13:53:04Z</time>
      </trkpt>
      <trkpt lat="46.23972" lon="4.62149">
        <ele>672</ele>
        <time>2022-06-25T13:53:05Z</time>
      </trkpt>
      <trkpt lat="46.23972" lon="4.62153">
        <ele>672</ele>
        <time>2022-06-25T13:53:06Z</time>
      </trkpt>
      <trkpt lat="46.23971" lon="4.62156">
        <ele>672.4</ele>
        <time>2022-06-25T13:53:07Z</time>
      </trkpt>
      <trkpt lat="46.23971" lon="4.6216">
        <ele>672.4</ele>
        <time>2022-06-25T13:53:08Z</time>
      </trkpt>
      <trkpt lat="46.2397" lon="4.62164">
        <ele>672.6</ele>
        <time>2022-06-25T13:53:09Z</time>
      </trkpt>
      <trkpt lat="46.2397" lon="4.62167">
        <ele>673</ele>
        <time>2022-06-25T13:53:10Z</time>
      </trkpt>
      <trkpt lat="46.2397" lon="4.62171">
        <ele>673</ele>
        <time>2022-06-25T13:53:11Z</time>
      </trkpt>
      <trkpt lat="46.23969" lon="4.62175">
        <ele>673.4</ele>
        <time>2022-06-25T13:53:12Z</time>
      </trkpt>
      <trkpt lat="46.23969" lon="4.62179">
        <ele>673.4</ele>
        <time>2022-06-25T13:53:13Z</time>
      </trkpt>
      <trkpt lat="46.23968" lon="4.62182">
        <ele>673.8</ele>
        <time>2022-06-25T13:53:14Z</time>
      </trkpt>
      <trkpt lat="46.23968" lon="4.62186">
        <ele>673.8</ele>
        <time>2022-06-25T13:53:15Z</time>
      </trkpt>
      <trkpt lat="46.23968" lon="4.6219">
        <ele>674</ele>
        <time>2022-06-25T13:53:16Z</time>
      </trkpt>
      <trkpt lat="46.23968" lon="4.62194">
        <ele>674</ele>
        <time>2022-06-25T13:53:17Z</time>
      </trkpt>
      <trkpt lat="46.23967" lon="4.62198">
        <ele>674.4</ele>
        <time>2022-06-25T13:53:18Z</time>
      </trkpt>
      <trkpt lat="46.23967" lon="4.62202">
        <ele>674.4</ele>
        <time>2022-06-25T13:53:19Z</time>
      </trkpt>
      <trkpt lat="46.23967" lon="4.62206">
        <ele>674.6</ele>
        <time>2022-06-25T13:53:20Z</time>
      </trkpt>
      <trkpt lat="46.23967" lon="4.62209">
        <ele>674.6</ele>
        <time>2022-06-25T13:53:21Z</time>
      </trkpt>
      <trkpt lat="46.23967" lon="4.62213">
        <ele>675</ele>
        <time>2022-06-25T13:53:22Z</time>
      </trkpt>
      <trkpt lat="46.23968" lon="4.62217">
        <ele>675</ele>
        <time>2022-06-25T13:53:23Z</time>
      </trkpt>
      <trkpt lat="46.23968" lon="4.62221">
        <ele>675</ele>
        <time>2022-06-25T13:53:24Z</time>
      </trkpt>
      <trkpt lat="46.23969" lon="4.62225">
        <ele>675.2</ele>
        <time>2022-06-25T13:53:25Z</time>
      </trkpt>
      <trkpt lat="46.23969" lon="4.62229">
        <ele>675.2</ele>
        <time>2022-06-25T13:53:26Z</time>
      </trkpt>
      <trkpt lat="46.2397" lon="4.62233">
        <ele>675.2</ele>
        <time>2022-06-25T13:53:27Z</time>
      </trkpt>
      <trkpt lat="46.2397" lon="4.62236">
        <ele>675.4</ele>
        <time>2022-06-25T13:53:28Z</time>
      </trkpt>
      <trkpt lat="46.23971" lon="4.6224">
        <ele>675.4</ele>
        <time>2022-06-25T13:53:29Z</time>
      </trkpt>
      <trkpt lat="46.23972" lon="4.62244">
        <ele>675.4</ele>
        <time>2022-06-25T13:53:30Z</time>
      </trkpt>
      <trkpt lat="46.23972" lon="4.62249">
        <ele>675.4</ele>
        <time>2022-06-25T13:53:31Z</time>
      </trkpt>
      <trkpt lat="46.23973" lon="4.62253">
        <ele>675.4</ele>
        <time>2022-06-25T13:53:32Z</time>
      </trkpt>
      <trkpt lat="46.23974" lon="4.62258">
        <ele>675.4</ele>
        <time>2022-06-25T13:53:33Z</time>
      </trkpt>
      <trkpt lat="46.23974" lon="4.62264">
        <ele>675.4</ele>
        <time>2022-06-25T13:53:34Z</time>
      </trkpt>
      <trkpt lat="46.23975" lon="4.62269">
        <ele>675.4</ele>
        <time>2022-06-25T13:53:35Z</time>
      </trkpt>
      <trkpt lat="46.23975" lon="4.62275">
        <ele>675.4</ele>
        <time>2022-06-25T13:53:36Z</time>
      </trkpt>
      <trkpt lat="46.23975" lon="4.62281">
        <ele>675.4</ele>
        <time>2022-06-25T13:53:37Z</time>
      </trkpt>
      <trkpt lat="46.23974" lon="4.62288">
        <ele>675.2</ele>
        <time>2022-06-25T13:53:38Z</time>
      </trkpt>
      <trkpt lat="46.23973" lon="4.62296">
        <ele>675</ele>
        <time>2022-06-25T13:53:39Z</time>
      </trkpt>
      <trkpt lat="46.23972" lon="4.62303">
        <ele>674.8</ele>
        <time>2022-06-25T13:53:40Z</time>
      </trkpt>
      <trkpt lat="46.23971" lon="4.62311">
        <ele>674.6</ele>
        <time>2022-06-25T13:53:41Z</time>
      </trkpt>
      <trkpt lat="46.23968" lon="4.6232">
        <ele>674.2</ele>
        <time>2022-06-25T13:53:42Z</time>
      </trkpt>
      <trkpt lat="46.23965" lon="4.62328">
        <ele>674</ele>
        <time>2022-06-25T13:53:43Z</time>
      </trkpt>
      <trkpt lat="46.23961" lon="4.62336">
        <ele>673.8</ele>
        <time>2022-06-25T13:53:44Z</time>
      </trkpt>
      <trkpt lat="46.23956" lon="4.62344">
        <ele>673.4</ele>
        <time>2022-06-25T13:53:45Z</time>
      </trkpt>
      <trkpt lat="46.2395" lon="4.62351">
        <ele>673</ele>
        <time>2022-06-25T13:53:46Z</time>
      </trkpt>
      <trkpt lat="46.23944" lon="4.62358">
        <ele>672.6</ele>
        <time>2022-06-25T13:53:47Z</time>
      </trkpt>
      <trkpt lat="46.23937" lon="4.62364">
        <ele>672.2</ele>
        <time>2022-06-25T13:53:48Z</time>
      </trkpt>
      <trkpt lat="46.23931" lon="4.62372">
        <ele>671.8</ele>
        <time>2022-06-25T13:53:49Z</time>
      </trkpt>
      <trkpt lat="46.23924" lon="4.6238">
        <ele>671.2</ele>
        <time>2022-06-25T13:53:50Z</time>
      </trkpt>
      <trkpt lat="46.23918" lon="4.62389">
        <ele>670.8</ele>
        <time>2022-06-25T13:53:51Z</time>
      </trkpt>
      <trkpt lat="46.23912" lon="4.62399">
        <ele>670.4</ele>
        <time>2022-06-25T13:53:52Z</time>
      </trkpt>
      <trkpt lat="46.23905" lon="4.6241">
        <ele>669.8</ele>
        <time>2022-06-25T13:53:53Z</time>
      </trkpt>
      <trkpt lat="46.23899" lon="4.6242">
        <ele>669.2</ele>
        <time>2022-06-25T13:53:54Z</time>
      </trkpt>
      <trkpt lat="46.23893" lon="4.62432">
        <ele>668.8</ele>
        <time>2022-06-25T13:53:55Z</time>
      </trkpt>
      <trkpt lat="46.23888" lon="4.62446">
        <ele>668.4</ele>
        <time>2022-06-25T13:53:56Z</time>
      </trkpt>
      <trkpt lat="46.23884" lon="4.6246">
        <ele>667.8</ele>
        <time>2022-06-25T13:53:57Z</time>
      </trkpt>
      <trkpt lat="46.23881" lon="4.62475">
        <ele>667.2</ele>
        <time>2022-06-25T13:53:58Z</time>
      </trkpt>
      <trkpt lat="46.23877" lon="4.62489">
        <ele>666.8</ele>
        <time>2022-06-25T13:53:59Z</time>
      </trkpt>
      <trkpt lat="46.23873" lon="4.62504">
        <ele>666</ele>
        <time>2022-06-25T13:54:00Z</time>
      </trkpt>
      <trkpt lat="46.23868" lon="4.62518">
        <ele>665.4</ele>
        <time>2022-06-25T13:54:01Z</time>
      </trkpt>
      <trkpt lat="46.23863" lon="4.62532">
        <ele>664.8</ele>
        <time>2022-06-25T13:54:02Z</time>
      </trkpt>
      <trkpt lat="46.23857" lon="4.62546">
        <ele>664</ele>
        <time>2022-06-25T13:54:03Z</time>
      </trkpt>
      <trkpt lat="46.23851" lon="4.6256">
        <ele>663.2</ele>
        <time>2022-06-25T13:54:04Z</time>
      </trkpt>
      <trkpt lat="46.23845" lon="4.62574">
        <ele>662.8</ele>
        <time>2022-06-25T13:54:05Z</time>
      </trkpt>
      <trkpt lat="46.23837" lon="4.62587">
        <ele>662.2</ele>
        <time>2022-06-25T13:54:06Z</time>
      </trkpt>
      <trkpt lat="46.23829" lon="4.62597">
        <ele>661.6</ele>
        <time>2022-06-25T13:54:07Z</time>
      </trkpt>
      <trkpt lat="46.2382" lon="4.62608">
        <ele>660.8</ele>
        <time>2022-06-25T13:54:08Z</time>
      </trkpt>
      <trkpt lat="46.23811" lon="4.62619">
        <ele>660.2</ele>
        <time>2022-06-25T13:54:09Z</time>
      </trkpt>
      <trkpt lat="46.23802" lon="4.62631">
        <ele>659.6</ele>
        <time>2022-06-25T13:54:10Z</time>
      </trkpt>
      <trkpt lat="46.23793" lon="4.62642">
        <ele>659</ele>
        <time>2022-06-25T13:54:11Z</time>
      </trkpt>
      <trkpt lat="46.23785" lon="4.62653">
        <ele>658.4</ele>
        <time>2022-06-25T13:54:12Z</time>
      </trkpt>
      <trkpt lat="46.23776" lon="4.62665">
        <ele>657.8</ele>
        <time>2022-06-25T13:54:13Z</time>
      </trkpt>
      <trkpt lat="46.23769" lon="4.62675">
        <ele>657.2</ele>
        <time>2022-06-25T13:54:14Z</time>
      </trkpt>
      <trkpt lat="46.2376" lon="4.62684">
        <ele>656.4</ele>
        <time>2022-06-25T13:54:15Z</time>
      </trkpt>
      <trkpt lat="46.2375" lon="4.62692">
        <ele>655.8</ele>
        <time>2022-06-25T13:54:16Z</time>
      </trkpt>
      <trkpt lat="46.23739" lon="4.62699">
        <ele>655.2</ele>
        <time>2022-06-25T13:54:17Z</time>
      </trkpt>
      <trkpt lat="46.23728" lon="4.62705">
        <ele>654.6</ele>
        <time>2022-06-25T13:54:18Z</time>
      </trkpt>
      <trkpt lat="46.23717" lon="4.62708">
        <ele>654</ele>
        <time>2022-06-25T13:54:19Z</time>
      </trkpt>
      <trkpt lat="46.23705" lon="4.6271">
        <ele>653.2</ele>
        <time>2022-06-25T13:54:20Z</time>
      </trkpt>
      <trkpt lat="46.23693" lon="4.6271">
        <ele>652.4</ele>
        <time>2022-06-25T13:54:21Z</time>
      </trkpt>
      <trkpt lat="46.23683" lon="4.62708">
        <ele>651.6</ele>
        <time>2022-06-25T13:54:22Z</time>
      </trkpt>
      <trkpt lat="46.23674" lon="4.62707">
        <ele>651</ele>
        <time>2022-06-25T13:54:23Z</time>
      </trkpt>
      <trkpt lat="46.23666" lon="4.62709">
        <ele>650.2</ele>
        <time>2022-06-25T13:54:24Z</time>
      </trkpt>
      <trkpt lat="46.23658" lon="4.62712">
        <ele>649.6</ele>
        <time>2022-06-25T13:54:25Z</time>
      </trkpt>
      <trkpt lat="46.23652" lon="4.62722">
        <ele>649.2</ele>
        <time>2022-06-25T13:54:26Z</time>
      </trkpt>
      <trkpt lat="46.23646" lon="4.62733">
        <ele>648.8</ele>
        <time>2022-06-25T13:54:27Z</time>
      </trkpt>
      <trkpt lat="46.23643" lon="4.62744">
        <ele>648.4</ele>
        <time>2022-06-25T13:54:28Z</time>
      </trkpt>
      <trkpt lat="46.2364" lon="4.62756">
        <ele>648</ele>
        <time>2022-06-25T13:54:29Z</time>
      </trkpt>
      <trkpt lat="46.23638" lon="4.62768">
        <ele>647.6</ele>
        <time>2022-06-25T13:54:30Z</time>
      </trkpt>
      <trkpt lat="46.23637" lon="4.6278">
        <ele>647.2</ele>
        <time>2022-06-25T13:54:31Z</time>
      </trkpt>
      <trkpt lat="46.23638" lon="4.62793">
        <ele>646.8</ele>
        <time>2022-06-25T13:54:32Z</time>
      </trkpt>
      <trkpt lat="46.23642" lon="4.62807">
        <ele>646.4</ele>
        <time>2022-06-25T13:54:33Z</time>
      </trkpt>
      <trkpt lat="46.23645" lon="4.62821">
        <ele>646</ele>
        <time>2022-06-25T13:54:34Z</time>
      </trkpt>
      <trkpt lat="46.2365" lon="4.62836">
        <ele>645.6</ele>
        <time>2022-06-25T13:54:35Z</time>
      </trkpt>
      <trkpt lat="46.23653" lon="4.6285">
        <ele>645.4</ele>
        <time>2022-06-25T13:54:36Z</time>
      </trkpt>
      <trkpt lat="46.23655" lon="4.62865">
        <ele>645</ele>
        <time>2022-06-25T13:54:37Z</time>
      </trkpt>
      <trkpt lat="46.23656" lon="4.62881">
        <ele>644.6</ele>
        <time>2022-06-25T13:54:38Z</time>
      </trkpt>
      <trkpt lat="46.23656" lon="4.62898">
        <ele>644</ele>
        <time>2022-06-25T13:54:39Z</time>
      </trkpt>
      <trkpt lat="46.23653" lon="4.62912">
        <ele>643.6</ele>
        <time>2022-06-25T13:54:40Z</time>
      </trkpt>
      <trkpt lat="46.2365" lon="4.62925">
        <ele>643.2</ele>
        <time>2022-06-25T13:54:41Z</time>
      </trkpt>
      <trkpt lat="46.23645" lon="4.62939">
        <ele>642.6</ele>
        <time>2022-06-25T13:54:42Z</time>
      </trkpt>
      <trkpt lat="46.2364" lon="4.62952">
        <ele>642.2</ele>
        <time>2022-06-25T13:54:43Z</time>
      </trkpt>
      <trkpt lat="46.23632" lon="4.62963">
        <ele>641.6</ele>
        <time>2022-06-25T13:54:44Z</time>
      </trkpt>
      <trkpt lat="46.23625" lon="4.62973">
        <ele>641.2</ele>
        <time>2022-06-25T13:54:45Z</time>
      </trkpt>
      <trkpt lat="46.23617" lon="4.62984">
        <ele>640.8</ele>
        <time>2022-06-25T13:54:46Z</time>
      </trkpt>
      <trkpt lat="46.23609" lon="4.62995">
        <ele>640.2</ele>
        <time>2022-06-25T13:54:47Z</time>
      </trkpt>
      <trkpt lat="46.23601" lon="4.63007">
        <ele>639.8</ele>
        <time>2022-06-25T13:54:48Z</time>
      </trkpt>
      <trkpt lat="46.23596" lon="4.63021">
        <ele>639.2</ele>
        <time>2022-06-25T13:54:49Z</time>
      </trkpt>
      <trkpt lat="46.23591" lon="4.63035">
        <ele>638.8</ele>
        <time>2022-06-25T13:54:50Z</time>
      </trkpt>
      <trkpt lat="46.2359" lon="4.63051">
        <ele>638.2</ele>
        <time>2022-06-25T13:54:51Z</time>
      </trkpt>
      <trkpt lat="46.23592" lon="4.63065">
        <ele>637.8</ele>
        <time>2022-06-25T13:54:52Z</time>
      </trkpt>
      <trkpt lat="46.23593" lon="4.6308">
        <ele>637.2</ele>
        <time>2022-06-25T13:54:53Z</time>
      </trkpt>
      <trkpt lat="46.23595" lon="4.63097">
        <ele>636.8</ele>
        <time>2022-06-25T13:54:54Z</time>
      </trkpt>
      <trkpt lat="46.23596" lon="4.63114">
        <ele>636.4</ele>
        <time>2022-06-25T13:54:55Z</time>
      </trkpt>
      <trkpt lat="46.23596" lon="4.6313">
        <ele>636</ele>
        <time>2022-06-25T13:54:56Z</time>
      </trkpt>
      <trkpt lat="46.23596" lon="4.63147">
        <ele>635.6</ele>
        <time>2022-06-25T13:54:57Z</time>
      </trkpt>
      <trkpt lat="46.23594" lon="4.63163">
        <ele>635</ele>
        <time>2022-06-25T13:54:58Z</time>
      </trkpt>
      <trkpt lat="46.23591" lon="4.63181">
        <ele>634.6</ele>
        <time>2022-06-25T13:54:59Z</time>
      </trkpt>
      <trkpt lat="46.23588" lon="4.63196">
        <ele>634</ele>
        <time>2022-06-25T13:55:00Z</time>
      </trkpt>
      <trkpt lat="46.23585" lon="4.63212">
        <ele>633.4</ele>
        <time>2022-06-25T13:55:01Z</time>
      </trkpt>
      <trkpt lat="46.23583" lon="4.63228">
        <ele>633</ele>
        <time>2022-06-25T13:55:02Z</time>
      </trkpt>
      <trkpt lat="46.2358" lon="4.63244">
        <ele>632.4</ele>
        <time>2022-06-25T13:55:03Z</time>
      </trkpt>
      <trkpt lat="46.23578" lon="4.63258">
        <ele>631.8</ele>
        <time>2022-06-25T13:55:04Z</time>
      </trkpt>
      <trkpt lat="46.23577" lon="4.63273">
        <ele>631.4</ele>
        <time>2022-06-25T13:55:05Z</time>
      </trkpt>
      <trkpt lat="46.23574" lon="4.63285">
        <ele>630.8</ele>
        <time>2022-06-25T13:55:06Z</time>
      </trkpt>
      <trkpt lat="46.23569" lon="4.63295">
        <ele>630.2</ele>
        <time>2022-06-25T13:55:07Z</time>
      </trkpt>
      <trkpt lat="46.23562" lon="4.63306">
        <ele>629.6</ele>
        <time>2022-06-25T13:55:08Z</time>
      </trkpt>
      <trkpt lat="46.23554" lon="4.63315">
        <ele>629</ele>
        <time>2022-06-25T13:55:09Z</time>
      </trkpt>
      <trkpt lat="46.23545" lon="4.63324">
        <ele>628.6</ele>
        <time>2022-06-25T13:55:10Z</time>
      </trkpt>
      <trkpt lat="46.23537" lon="4.63331">
        <ele>628</ele>
        <time>2022-06-25T13:55:11Z</time>
      </trkpt>
      <trkpt lat="46.23528" lon="4.63337">
        <ele>627.6</ele>
        <time>2022-06-25T13:55:12Z</time>
      </trkpt>
      <trkpt lat="46.23518" lon="4.63343">
        <ele>627</ele>
        <time>2022-06-25T13:55:13Z</time>
      </trkpt>
      <trkpt lat="46.23508" lon="4.63347">
        <ele>626.6</ele>
        <time>2022-06-25T13:55:14Z</time>
      </trkpt>
      <trkpt lat="46.23498" lon="4.6335">
        <ele>626.2</ele>
        <time>2022-06-25T13:55:15Z</time>
      </trkpt>
      <trkpt lat="46.23488" lon="4.63352">
        <ele>625.8</ele>
        <time>2022-06-25T13:55:16Z</time>
      </trkpt>
      <trkpt lat="46.23478" lon="4.63354">
        <ele>625.2</ele>
        <time>2022-06-25T13:55:17Z</time>
      </trkpt>
      <trkpt lat="46.23468" lon="4.63354">
        <ele>624.6</ele>
        <time>2022-06-25T13:55:18Z</time>
      </trkpt>
      <trkpt lat="46.23458" lon="4.63355">
        <ele>624</ele>
        <time>2022-06-25T13:55:19Z</time>
      </trkpt>
      <trkpt lat="46.23448" lon="4.63354">
        <ele>623.6</ele>
        <time>2022-06-25T13:55:20Z</time>
      </trkpt>
      <trkpt lat="46.23437" lon="4.63353">
        <ele>623</ele>
        <time>2022-06-25T13:55:21Z</time>
      </trkpt>
      <trkpt lat="46.23427" lon="4.63353">
        <ele>622.6</ele>
        <time>2022-06-25T13:55:22Z</time>
      </trkpt>
      <trkpt lat="46.23417" lon="4.63352">
        <ele>622.2</ele>
        <time>2022-06-25T13:55:23Z</time>
      </trkpt>
      <trkpt lat="46.23407" lon="4.63351">
        <ele>622</ele>
        <time>2022-06-25T13:55:24Z</time>
      </trkpt>
      <trkpt lat="46.23397" lon="4.63349">
        <ele>621.6</ele>
        <time>2022-06-25T13:55:25Z</time>
      </trkpt>
      <trkpt lat="46.23387" lon="4.63347">
        <ele>621.2</ele>
        <time>2022-06-25T13:55:26Z</time>
      </trkpt>
      <trkpt lat="46.23377" lon="4.63345">
        <ele>620.8</ele>
        <time>2022-06-25T13:55:27Z</time>
      </trkpt>
      <trkpt lat="46.23367" lon="4.63342">
        <ele>620</ele>
        <time>2022-06-25T13:55:28Z</time>
      </trkpt>
      <trkpt lat="46.23357" lon="4.63337">
        <ele>619.6</ele>
        <time>2022-06-25T13:55:29Z</time>
      </trkpt>
      <trkpt lat="46.23348" lon="4.63333">
        <ele>619.2</ele>
        <time>2022-06-25T13:55:30Z</time>
      </trkpt>
      <trkpt lat="46.23339" lon="4.63326">
        <ele>618.6</ele>
        <time>2022-06-25T13:55:31Z</time>
      </trkpt>
      <trkpt lat="46.2333" lon="4.63318">
        <ele>618</ele>
        <time>2022-06-25T13:55:32Z</time>
      </trkpt>
      <trkpt lat="46.23322" lon="4.63308">
        <ele>617.2</ele>
        <time>2022-06-25T13:55:33Z</time>
      </trkpt>
      <trkpt lat="46.23315" lon="4.63297">
        <ele>616.6</ele>
        <time>2022-06-25T13:55:34Z</time>
      </trkpt>
      <trkpt lat="46.23308" lon="4.63285">
        <ele>615.8</ele>
        <time>2022-06-25T13:55:35Z</time>
      </trkpt>
      <trkpt lat="46.23302" lon="4.63273">
        <ele>614.8</ele>
        <time>2022-06-25T13:55:36Z</time>
      </trkpt>
      <trkpt lat="46.23296" lon="4.6326">
        <ele>614.2</ele>
        <time>2022-06-25T13:55:37Z</time>
      </trkpt>
      <trkpt lat="46.23291" lon="4.63246">
        <ele>613.8</ele>
        <time>2022-06-25T13:55:38Z</time>
      </trkpt>
      <trkpt lat="46.23286" lon="4.63231">
        <ele>613.2</ele>
        <time>2022-06-25T13:55:39Z</time>
      </trkpt>
      <trkpt lat="46.23281" lon="4.63217">
        <ele>612.8</ele>
        <time>2022-06-25T13:55:40Z</time>
      </trkpt>
      <trkpt lat="46.23276" lon="4.63202">
        <ele>612.4</ele>
        <time>2022-06-25T13:55:41Z</time>
      </trkpt>
      <trkpt lat="46.23271" lon="4.63187">
        <ele>612.2</ele>
        <time>2022-06-25T13:55:42Z</time>
      </trkpt>
      <trkpt lat="46.23265" lon="4.63172">
        <ele>611.8</ele>
        <time>2022-06-25T13:55:43Z</time>
      </trkpt>
      <trkpt lat="46.23253" lon="4.63141">
        <ele>611.2</ele>
        <time>2022-06-25T13:55:44Z</time>
      </trkpt>
      <trkpt lat="46.23248" lon="4.63127">
        <ele>610.6</ele>
        <time>2022-06-25T13:55:45Z</time>
      </trkpt>
      <trkpt lat="46.23244" lon="4.63114">
        <ele>610</ele>
        <time>2022-06-25T13:55:46Z</time>
      </trkpt>
      <trkpt lat="46.2324" lon="4.63103">
        <ele>609.2</ele>
        <time>2022-06-25T13:55:47Z</time>
      </trkpt>
      <trkpt lat="46.23234" lon="4.63094">
        <ele>608.8</ele>
        <time>2022-06-25T13:55:48Z</time>
      </trkpt>
      <trkpt lat="46.23225" lon="4.63087">
        <ele>608.4</ele>
        <time>2022-06-25T13:55:49Z</time>
      </trkpt>
      <trkpt lat="46.23216" lon="4.63082">
        <ele>608</ele>
        <time>2022-06-25T13:55:50Z</time>
      </trkpt>
      <trkpt lat="46.23207" lon="4.6308">
        <ele>607.6</ele>
        <time>2022-06-25T13:55:51Z</time>
      </trkpt>
      <trkpt lat="46.23197" lon="4.63076">
        <ele>607.2</ele>
        <time>2022-06-25T13:55:52Z</time>
      </trkpt>
      <trkpt lat="46.23189" lon="4.6307">
        <ele>606.8</ele>
        <time>2022-06-25T13:55:53Z</time>
      </trkpt>
      <trkpt lat="46.23183" lon="4.63062">
        <ele>606.6</ele>
        <time>2022-06-25T13:55:54Z</time>
      </trkpt>
      <trkpt lat="46.23177" lon="4.63051">
        <ele>606.4</ele>
        <time>2022-06-25T13:55:55Z</time>
      </trkpt>
      <trkpt lat="46.23173" lon="4.63039">
        <ele>606</ele>
        <time>2022-06-25T13:55:56Z</time>
      </trkpt>
      <trkpt lat="46.23169" lon="4.63027">
        <ele>605.8</ele>
        <time>2022-06-25T13:55:57Z</time>
      </trkpt>
      <trkpt lat="46.23167" lon="4.63013">
        <ele>605.4</ele>
        <time>2022-06-25T13:55:58Z</time>
      </trkpt>
      <trkpt lat="46.23166" lon="4.63">
        <ele>605.2</ele>
        <time>2022-06-25T13:55:59Z</time>
      </trkpt>
      <trkpt lat="46.23163" lon="4.62988">
        <ele>604.8</ele>
        <time>2022-06-25T13:56:00Z</time>
      </trkpt>
      <trkpt lat="46.23159" lon="4.62978">
        <ele>604.6</ele>
        <time>2022-06-25T13:56:01Z</time>
      </trkpt>
      <trkpt lat="46.23152" lon="4.62972">
        <ele>604.2</ele>
        <time>2022-06-25T13:56:02Z</time>
      </trkpt>
      <trkpt lat="46.23145" lon="4.62967">
        <ele>604</ele>
        <time>2022-06-25T13:56:03Z</time>
      </trkpt>
      <trkpt lat="46.23136" lon="4.62967">
        <ele>604</ele>
        <time>2022-06-25T13:56:04Z</time>
      </trkpt>
      <trkpt lat="46.23127" lon="4.62971">
        <ele>603.6</ele>
        <time>2022-06-25T13:56:05Z</time>
      </trkpt>
      <trkpt lat="46.2312" lon="4.62978">
        <ele>603.4</ele>
        <time>2022-06-25T13:56:06Z</time>
      </trkpt>
      <trkpt lat="46.23114" lon="4.62987">
        <ele>603</ele>
        <time>2022-06-25T13:56:07Z</time>
      </trkpt>
      <trkpt lat="46.23108" lon="4.62997">
        <ele>602.8</ele>
        <time>2022-06-25T13:56:08Z</time>
      </trkpt>
      <trkpt lat="46.23102" lon="4.63006">
        <ele>602.8</ele>
        <time>2022-06-25T13:56:09Z</time>
      </trkpt>
      <trkpt lat="46.23097" lon="4.63016">
        <ele>602.2</ele>
        <time>2022-06-25T13:56:10Z</time>
      </trkpt>
      <trkpt lat="46.23091" lon="4.63026">
        <ele>601.8</ele>
        <time>2022-06-25T13:56:11Z</time>
      </trkpt>
      <trkpt lat="46.23086" lon="4.63035">
        <ele>601.2</ele>
        <time>2022-06-25T13:56:12Z</time>
      </trkpt>
      <trkpt lat="46.23081" lon="4.63046">
        <ele>600.8</ele>
        <time>2022-06-25T13:56:13Z</time>
      </trkpt>
      <trkpt lat="46.23078" lon="4.63058">
        <ele>600.2</ele>
        <time>2022-06-25T13:56:14Z</time>
      </trkpt>
      <trkpt lat="46.23075" lon="4.6307">
        <ele>599.6</ele>
        <time>2022-06-25T13:56:15Z</time>
      </trkpt>
      <trkpt lat="46.23073" lon="4.63082">
        <ele>599.2</ele>
        <time>2022-06-25T13:56:16Z</time>
      </trkpt>
      <trkpt lat="46.23071" lon="4.63096">
        <ele>598.6</ele>
        <time>2022-06-25T13:56:17Z</time>
      </trkpt>
      <trkpt lat="46.2307" lon="4.63109">
        <ele>598.2</ele>
        <time>2022-06-25T13:56:18Z</time>
      </trkpt>
      <trkpt lat="46.23069" lon="4.63123">
        <ele>597.6</ele>
        <time>2022-06-25T13:56:19Z</time>
      </trkpt>
      <trkpt lat="46.23068" lon="4.63137">
        <ele>597.2</ele>
        <time>2022-06-25T13:56:20Z</time>
      </trkpt>
      <trkpt lat="46.23067" lon="4.6315">
        <ele>596.6</ele>
        <time>2022-06-25T13:56:21Z</time>
      </trkpt>
      <trkpt lat="46.23066" lon="4.63163">
        <ele>596.2</ele>
        <time>2022-06-25T13:56:22Z</time>
      </trkpt>
      <trkpt lat="46.23066" lon="4.63177">
        <ele>595.6</ele>
        <time>2022-06-25T13:56:23Z</time>
      </trkpt>
      <trkpt lat="46.23066" lon="4.63191">
        <ele>595</ele>
        <time>2022-06-25T13:56:24Z</time>
      </trkpt>
      <trkpt lat="46.23065" lon="4.63205">
        <ele>594.6</ele>
        <time>2022-06-25T13:56:25Z</time>
      </trkpt>
      <trkpt lat="46.23065" lon="4.63221">
        <ele>594</ele>
        <time>2022-06-25T13:56:26Z</time>
      </trkpt>
      <trkpt lat="46.23065" lon="4.63236">
        <ele>593.6</ele>
        <time>2022-06-25T13:56:27Z</time>
      </trkpt>
      <trkpt lat="46.23063" lon="4.63251">
        <ele>593</ele>
        <time>2022-06-25T13:56:28Z</time>
      </trkpt>
      <trkpt lat="46.23062" lon="4.63266">
        <ele>592.4</ele>
        <time>2022-06-25T13:56:29Z</time>
      </trkpt>
      <trkpt lat="46.23061" lon="4.63282">
        <ele>591.8</ele>
        <time>2022-06-25T13:56:30Z</time>
      </trkpt>
      <trkpt lat="46.2306" lon="4.63297">
        <ele>591</ele>
        <time>2022-06-25T13:56:31Z</time>
      </trkpt>
      <trkpt lat="46.23059" lon="4.63312">
        <ele>590.4</ele>
        <time>2022-06-25T13:56:32Z</time>
      </trkpt>
      <trkpt lat="46.23058" lon="4.63328">
        <ele>589.8</ele>
        <time>2022-06-25T13:56:33Z</time>
      </trkpt>
      <trkpt lat="46.23058" lon="4.63344">
        <ele>589.2</ele>
        <time>2022-06-25T13:56:34Z</time>
      </trkpt>
      <trkpt lat="46.23055" lon="4.6336">
        <ele>588.4</ele>
        <time>2022-06-25T13:56:35Z</time>
      </trkpt>
      <trkpt lat="46.23052" lon="4.63375">
        <ele>588</ele>
        <time>2022-06-25T13:56:36Z</time>
      </trkpt>
      <trkpt lat="46.23048" lon="4.63391">
        <ele>587.4</ele>
        <time>2022-06-25T13:56:37Z</time>
      </trkpt>
      <trkpt lat="46.23043" lon="4.63407">
        <ele>586.8</ele>
        <time>2022-06-25T13:56:38Z</time>
      </trkpt>
      <trkpt lat="46.23038" lon="4.63423">
        <ele>586.2</ele>
        <time>2022-06-25T13:56:39Z</time>
      </trkpt>
      <trkpt lat="46.23034" lon="4.63439">
        <ele>585.6</ele>
        <time>2022-06-25T13:56:40Z</time>
      </trkpt>
      <trkpt lat="46.23029" lon="4.63456">
        <ele>585</ele>
        <time>2022-06-25T13:56:41Z</time>
      </trkpt>
      <trkpt lat="46.23024" lon="4.63472">
        <ele>584.4</ele>
        <time>2022-06-25T13:56:42Z</time>
      </trkpt>
      <trkpt lat="46.23019" lon="4.63488">
        <ele>583.8</ele>
        <time>2022-06-25T13:56:43Z</time>
      </trkpt>
      <trkpt lat="46.23013" lon="4.63503">
        <ele>583.2</ele>
        <time>2022-06-25T13:56:44Z</time>
      </trkpt>
      <trkpt lat="46.23008" lon="4.63519">
        <ele>582.6</ele>
        <time>2022-06-25T13:56:45Z</time>
      </trkpt>
      <trkpt lat="46.23002" lon="4.63534">
        <ele>582</ele>
        <time>2022-06-25T13:56:46Z</time>
      </trkpt>
      <trkpt lat="46.22996" lon="4.63547">
        <ele>581.4</ele>
        <time>2022-06-25T13:56:47Z</time>
      </trkpt>
      <trkpt lat="46.22991" lon="4.63562">
        <ele>580.8</ele>
        <time>2022-06-25T13:56:48Z</time>
      </trkpt>
      <trkpt lat="46.22987" lon="4.63576">
        <ele>580.2</ele>
        <time>2022-06-25T13:56:49Z</time>
      </trkpt>
      <trkpt lat="46.22979" lon="4.63591">
        <ele>579.4</ele>
        <time>2022-06-25T13:56:50Z</time>
      </trkpt>
      <trkpt lat="46.22971" lon="4.63603">
        <ele>578.8</ele>
        <time>2022-06-25T13:56:51Z</time>
      </trkpt>
      <trkpt lat="46.22964" lon="4.63613">
        <ele>578.2</ele>
        <time>2022-06-25T13:56:52Z</time>
      </trkpt>
      <trkpt lat="46.22957" lon="4.63621">
        <ele>577.6</ele>
        <time>2022-06-25T13:56:53Z</time>
      </trkpt>
      <trkpt lat="46.2295" lon="4.63627">
        <ele>576.8</ele>
        <time>2022-06-25T13:56:54Z</time>
      </trkpt>
      <trkpt lat="46.22942" lon="4.6363">
        <ele>576.2</ele>
        <time>2022-06-25T13:56:55Z</time>
      </trkpt>
      <trkpt lat="46.22934" lon="4.6363">
        <ele>575.6</ele>
        <time>2022-06-25T13:56:56Z</time>
      </trkpt>
      <trkpt lat="46.22926" lon="4.63626">
        <ele>575</ele>
        <time>2022-06-25T13:56:57Z</time>
      </trkpt>
      <trkpt lat="46.22919" lon="4.63619">
        <ele>574.6</ele>
        <time>2022-06-25T13:56:58Z</time>
      </trkpt>
      <trkpt lat="46.22912" lon="4.6361">
        <ele>574</ele>
        <time>2022-06-25T13:56:59Z</time>
      </trkpt>
      <trkpt lat="46.22906" lon="4.63601">
        <ele>573.4</ele>
        <time>2022-06-25T13:57:00Z</time>
      </trkpt>
      <trkpt lat="46.22899" lon="4.63592">
        <ele>572.8</ele>
        <time>2022-06-25T13:57:01Z</time>
      </trkpt>
      <trkpt lat="46.22893" lon="4.63582">
        <ele>572.2</ele>
        <time>2022-06-25T13:57:02Z</time>
      </trkpt>
      <trkpt lat="46.22886" lon="4.63572">
        <ele>571.6</ele>
        <time>2022-06-25T13:57:03Z</time>
      </trkpt>
      <trkpt lat="46.2288" lon="4.63562">
        <ele>571.2</ele>
        <time>2022-06-25T13:57:04Z</time>
      </trkpt>
      <trkpt lat="46.22873" lon="4.63552">
        <ele>570.6</ele>
        <time>2022-06-25T13:57:05Z</time>
      </trkpt>
      <trkpt lat="46.22867" lon="4.63542">
        <ele>570</ele>
        <time>2022-06-25T13:57:06Z</time>
      </trkpt>
      <trkpt lat="46.2286" lon="4.6353">
        <ele>569.6</ele>
        <time>2022-06-25T13:57:07Z</time>
      </trkpt>
      <trkpt lat="46.22855" lon="4.63519">
        <ele>569.2</ele>
        <time>2022-06-25T13:57:08Z</time>
      </trkpt>
      <trkpt lat="46.22849" lon="4.63507">
        <ele>568.8</ele>
        <time>2022-06-25T13:57:09Z</time>
      </trkpt>
      <trkpt lat="46.22844" lon="4.63494">
        <ele>568.2</ele>
        <time>2022-06-25T13:57:10Z</time>
      </trkpt>
      <trkpt lat="46.22838" lon="4.63482">
        <ele>567.8</ele>
        <time>2022-06-25T13:57:11Z</time>
      </trkpt>
      <trkpt lat="46.22832" lon="4.63471">
        <ele>567.2</ele>
        <time>2022-06-25T13:57:12Z</time>
      </trkpt>
      <trkpt lat="46.22824" lon="4.63462">
        <ele>567</ele>
        <time>2022-06-25T13:57:13Z</time>
      </trkpt>
      <trkpt lat="46.22815" lon="4.63454">
        <ele>567</ele>
        <time>2022-06-25T13:57:14Z</time>
      </trkpt>
      <trkpt lat="46.22806" lon="4.63449">
        <ele>566.6</ele>
        <time>2022-06-25T13:57:15Z</time>
      </trkpt>
      <trkpt lat="46.22796" lon="4.63444">
        <ele>566.4</ele>
        <time>2022-06-25T13:57:16Z</time>
      </trkpt>
      <trkpt lat="46.22786" lon="4.63441">
        <ele>566.2</ele>
        <time>2022-06-25T13:57:17Z</time>
      </trkpt>
      <trkpt lat="46.22777" lon="4.6344">
        <ele>565.8</ele>
        <time>2022-06-25T13:57:18Z</time>
      </trkpt>
      <trkpt lat="46.22768" lon="4.6344">
        <ele>565.8</ele>
        <time>2022-06-25T13:57:19Z</time>
      </trkpt>
      <trkpt lat="46.22759" lon="4.63442">
        <ele>565.4</ele>
        <time>2022-06-25T13:57:20Z</time>
      </trkpt>
      <trkpt lat="46.2275" lon="4.63445">
        <ele>565</ele>
        <time>2022-06-25T13:57:21Z</time>
      </trkpt>
      <trkpt lat="46.22741" lon="4.63449">
        <ele>564.8</ele>
        <time>2022-06-25T13:57:22Z</time>
      </trkpt>
      <trkpt lat="46.22732" lon="4.63451">
        <ele>564.6</ele>
        <time>2022-06-25T13:57:23Z</time>
      </trkpt>
      <trkpt lat="46.22724" lon="4.63454">
        <ele>564.6</ele>
        <time>2022-06-25T13:57:24Z</time>
      </trkpt>
      <trkpt lat="46.22715" lon="4.63458">
        <ele>564.2</ele>
        <time>2022-06-25T13:57:25Z</time>
      </trkpt>
      <trkpt lat="46.22706" lon="4.63462">
        <ele>563.8</ele>
        <time>2022-06-25T13:57:26Z</time>
      </trkpt>
      <trkpt lat="46.22698" lon="4.63466">
        <ele>563.6</ele>
        <time>2022-06-25T13:57:27Z</time>
      </trkpt>
      <trkpt lat="46.2269" lon="4.63468">
        <ele>563.2</ele>
        <time>2022-06-25T13:57:28Z</time>
      </trkpt>
      <trkpt lat="46.2268" lon="4.63473">
        <ele>563</ele>
        <time>2022-06-25T13:57:29Z</time>
      </trkpt>
      <trkpt lat="46.22671" lon="4.63478">
        <ele>562.6</ele>
        <time>2022-06-25T13:57:30Z</time>
      </trkpt>
      <trkpt lat="46.22663" lon="4.63483">
        <ele>562.4</ele>
        <time>2022-06-25T13:57:31Z</time>
      </trkpt>
      <trkpt lat="46.22654" lon="4.63489">
        <ele>562</ele>
        <time>2022-06-25T13:57:32Z</time>
      </trkpt>
      <trkpt lat="46.22645" lon="4.63495">
        <ele>561.8</ele>
        <time>2022-06-25T13:57:33Z</time>
      </trkpt>
      <trkpt lat="46.22638" lon="4.63504">
        <ele>561.4</ele>
        <time>2022-06-25T13:57:34Z</time>
      </trkpt>
      <trkpt lat="46.22632" lon="4.63514">
        <ele>561</ele>
        <time>2022-06-25T13:57:35Z</time>
      </trkpt>
      <trkpt lat="46.22627" lon="4.63527">
        <ele>560.8</ele>
        <time>2022-06-25T13:57:36Z</time>
      </trkpt>
      <trkpt lat="46.22621" lon="4.63539">
        <ele>560.4</ele>
        <time>2022-06-25T13:57:37Z</time>
      </trkpt>
      <trkpt lat="46.22616" lon="4.63552">
        <ele>560</ele>
        <time>2022-06-25T13:57:38Z</time>
      </trkpt>
      <trkpt lat="46.22609" lon="4.63565">
        <ele>559.8</ele>
        <time>2022-06-25T13:57:39Z</time>
      </trkpt>
      <trkpt lat="46.22604" lon="4.63577">
        <ele>559.4</ele>
        <time>2022-06-25T13:57:40Z</time>
      </trkpt>
      <trkpt lat="46.22597" lon="4.6359">
        <ele>559</ele>
        <time>2022-06-25T13:57:41Z</time>
      </trkpt>
      <trkpt lat="46.22593" lon="4.63602">
        <ele>558.6</ele>
        <time>2022-06-25T13:57:42Z</time>
      </trkpt>
      <trkpt lat="46.22588" lon="4.63614">
        <ele>558.2</ele>
        <time>2022-06-25T13:57:43Z</time>
      </trkpt>
      <trkpt lat="46.22582" lon="4.63626">
        <ele>557.8</ele>
        <time>2022-06-25T13:57:44Z</time>
      </trkpt>
      <trkpt lat="46.22577" lon="4.63638">
        <ele>557.6</ele>
        <time>2022-06-25T13:57:45Z</time>
      </trkpt>
      <trkpt lat="46.22573" lon="4.6365">
        <ele>557.2</ele>
        <time>2022-06-25T13:57:46Z</time>
      </trkpt>
      <trkpt lat="46.22567" lon="4.63661">
        <ele>556.8</ele>
        <time>2022-06-25T13:57:47Z</time>
      </trkpt>
      <trkpt lat="46.22559" lon="4.63669">
        <ele>556.4</ele>
        <time>2022-06-25T13:57:48Z</time>
      </trkpt>
      <trkpt lat="46.2255" lon="4.63676">
        <ele>556</ele>
        <time>2022-06-25T13:57:49Z</time>
      </trkpt>
      <trkpt lat="46.2254" lon="4.63681">
        <ele>555.8</ele>
        <time>2022-06-25T13:57:50Z</time>
      </trkpt>
      <trkpt lat="46.22529" lon="4.63684">
        <ele>555.4</ele>
        <time>2022-06-25T13:57:51Z</time>
      </trkpt>
      <trkpt lat="46.22519" lon="4.63686">
        <ele>555</ele>
        <time>2022-06-25T13:57:52Z</time>
      </trkpt>
      <trkpt lat="46.22509" lon="4.63689">
        <ele>554.4</ele>
        <time>2022-06-25T13:57:53Z</time>
      </trkpt>
      <trkpt lat="46.22499" lon="4.63693">
        <ele>554</ele>
        <time>2022-06-25T13:57:54Z</time>
      </trkpt>
      <trkpt lat="46.22489" lon="4.63696">
        <ele>553.6</ele>
        <time>2022-06-25T13:57:55Z</time>
      </trkpt>
      <trkpt lat="46.2248" lon="4.63699">
        <ele>553.2</ele>
        <time>2022-06-25T13:57:56Z</time>
      </trkpt>
      <trkpt lat="46.2247" lon="4.63703">
        <ele>552.8</ele>
        <time>2022-06-25T13:57:57Z</time>
      </trkpt>
      <trkpt lat="46.2246" lon="4.63707">
        <ele>552.6</ele>
        <time>2022-06-25T13:57:58Z</time>
      </trkpt>
      <trkpt lat="46.2245" lon="4.63708">
        <ele>552.2</ele>
        <time>2022-06-25T13:57:59Z</time>
      </trkpt>
      <trkpt lat="46.2244" lon="4.63709">
        <ele>551.8</ele>
        <time>2022-06-25T13:58:00Z</time>
      </trkpt>
      <trkpt lat="46.2243" lon="4.63708">
        <ele>551.4</ele>
        <time>2022-06-25T13:58:01Z</time>
      </trkpt>
      <trkpt lat="46.22422" lon="4.63709">
        <ele>550.8</ele>
        <time>2022-06-25T13:58:02Z</time>
      </trkpt>
      <trkpt lat="46.22414" lon="4.63714">
        <ele>550.4</ele>
        <time>2022-06-25T13:58:03Z</time>
      </trkpt>
      <trkpt lat="46.22407" lon="4.6372">
        <ele>550.2</ele>
        <time>2022-06-25T13:58:04Z</time>
      </trkpt>
      <trkpt lat="46.224" lon="4.63729">
        <ele>549.8</ele>
        <time>2022-06-25T13:58:05Z</time>
      </trkpt>
      <trkpt lat="46.22394" lon="4.63739">
        <ele>549.4</ele>
        <time>2022-06-25T13:58:06Z</time>
      </trkpt>
      <trkpt lat="46.22387" lon="4.6375">
        <ele>549.2</ele>
        <time>2022-06-25T13:58:07Z</time>
      </trkpt>
      <trkpt lat="46.2238" lon="4.63761">
        <ele>548.6</ele>
        <time>2022-06-25T13:58:08Z</time>
      </trkpt>
      <trkpt lat="46.22373" lon="4.63772">
        <ele>548.2</ele>
        <time>2022-06-25T13:58:09Z</time>
      </trkpt>
      <trkpt lat="46.22367" lon="4.63782">
        <ele>548</ele>
        <time>2022-06-25T13:58:10Z</time>
      </trkpt>
      <trkpt lat="46.22361" lon="4.63791">
        <ele>547.8</ele>
        <time>2022-06-25T13:58:11Z</time>
      </trkpt>
      <trkpt lat="46.22355" lon="4.63802">
        <ele>547.4</ele>
        <time>2022-06-25T13:58:12Z</time>
      </trkpt>
      <trkpt lat="46.22349" lon="4.63812">
        <ele>547</ele>
        <time>2022-06-25T13:58:13Z</time>
      </trkpt>
      <trkpt lat="46.22342" lon="4.63821">
        <ele>546.6</ele>
        <time>2022-06-25T13:58:14Z</time>
      </trkpt>
      <trkpt lat="46.22336" lon="4.63831">
        <ele>546.2</ele>
        <time>2022-06-25T13:58:15Z</time>
      </trkpt>
      <trkpt lat="46.22329" lon="4.63841">
        <ele>545.6</ele>
        <time>2022-06-25T13:58:16Z</time>
      </trkpt>
      <trkpt lat="46.22323" lon="4.6385">
        <ele>545.2</ele>
        <time>2022-06-25T13:58:17Z</time>
      </trkpt>
      <trkpt lat="46.22317" lon="4.6386">
        <ele>545</ele>
        <time>2022-06-25T13:58:18Z</time>
      </trkpt>
      <trkpt lat="46.22311" lon="4.63868">
        <ele>544.6</ele>
        <time>2022-06-25T13:58:19Z</time>
      </trkpt>
      <trkpt lat="46.22305" lon="4.63877">
        <ele>544</ele>
        <time>2022-06-25T13:58:20Z</time>
      </trkpt>
      <trkpt lat="46.22299" lon="4.63885">
        <ele>543.6</ele>
        <time>2022-06-25T13:58:21Z</time>
      </trkpt>
      <trkpt lat="46.22292" lon="4.63893">
        <ele>543.4</ele>
        <time>2022-06-25T13:58:22Z</time>
      </trkpt>
      <trkpt lat="46.22286" lon="4.63899">
        <ele>543.2</ele>
        <time>2022-06-25T13:58:23Z</time>
      </trkpt>
      <trkpt lat="46.22279" lon="4.63905">
        <ele>542.8</ele>
        <time>2022-06-25T13:58:24Z</time>
      </trkpt>
      <trkpt lat="46.22273" lon="4.63911">
        <ele>542.8</ele>
        <time>2022-06-25T13:58:25Z</time>
      </trkpt>
      <trkpt lat="46.22266" lon="4.63917">
        <ele>542.8</ele>
        <time>2022-06-25T13:58:26Z</time>
      </trkpt>
      <trkpt lat="46.22261" lon="4.63923">
        <ele>542.8</ele>
        <time>2022-06-25T13:58:27Z</time>
      </trkpt>
      <trkpt lat="46.22255" lon="4.63929">
        <ele>542.8</ele>
        <time>2022-06-25T13:58:28Z</time>
      </trkpt>
      <trkpt lat="46.2225" lon="4.63934">
        <ele>542.8</ele>
        <time>2022-06-25T13:58:29Z</time>
      </trkpt>
      <trkpt lat="46.22244" lon="4.63939">
        <ele>542.8</ele>
        <time>2022-06-25T13:58:30Z</time>
      </trkpt>
      <trkpt lat="46.22238" lon="4.63942">
        <ele>542.8</ele>
        <time>2022-06-25T13:58:31Z</time>
      </trkpt>
      <trkpt lat="46.22233" lon="4.63946">
        <ele>542.8</ele>
        <time>2022-06-25T13:58:32Z</time>
      </trkpt>
      <trkpt lat="46.22227" lon="4.6395">
        <ele>543</ele>
        <time>2022-06-25T13:58:33Z</time>
      </trkpt>
      <trkpt lat="46.22221" lon="4.63953">
        <ele>543</ele>
        <time>2022-06-25T13:58:34Z</time>
      </trkpt>
      <trkpt lat="46.22216" lon="4.63956">
        <ele>543</ele>
        <time>2022-06-25T13:58:35Z</time>
      </trkpt>
      <trkpt lat="46.2221" lon="4.63958">
        <ele>543</ele>
        <time>2022-06-25T13:58:36Z</time>
      </trkpt>
      <trkpt lat="46.22205" lon="4.6396">
        <ele>543</ele>
        <time>2022-06-25T13:58:37Z</time>
      </trkpt>
      <trkpt lat="46.22199" lon="4.63962">
        <ele>543</ele>
        <time>2022-06-25T13:58:38Z</time>
      </trkpt>
      <trkpt lat="46.22193" lon="4.63965">
        <ele>543.2</ele>
        <time>2022-06-25T13:58:39Z</time>
      </trkpt>
      <trkpt lat="46.22188" lon="4.63967">
        <ele>543.2</ele>
        <time>2022-06-25T13:58:40Z</time>
      </trkpt>
      <trkpt lat="46.22182" lon="4.63969">
        <ele>543.2</ele>
        <time>2022-06-25T13:58:41Z</time>
      </trkpt>
      <trkpt lat="46.22176" lon="4.63971">
        <ele>543.2</ele>
        <time>2022-06-25T13:58:42Z</time>
      </trkpt>
      <trkpt lat="46.22171" lon="4.63974">
        <ele>543.4</ele>
        <time>2022-06-25T13:58:43Z</time>
      </trkpt>
      <trkpt lat="46.22165" lon="4.63976">
        <ele>543.4</ele>
        <time>2022-06-25T13:58:44Z</time>
      </trkpt>
      <trkpt lat="46.2216" lon="4.63978">
        <ele>543.4</ele>
        <time>2022-06-25T13:58:45Z</time>
      </trkpt>
      <trkpt lat="46.22155" lon="4.6398">
        <ele>543.8</ele>
        <time>2022-06-25T13:58:46Z</time>
      </trkpt>
      <trkpt lat="46.2215" lon="4.63982">
        <ele>543.8</ele>
        <time>2022-06-25T13:58:47Z</time>
      </trkpt>
      <trkpt lat="46.22145" lon="4.63984">
        <ele>544</ele>
        <time>2022-06-25T13:58:48Z</time>
      </trkpt>
      <trkpt lat="46.2214" lon="4.63986">
        <ele>544</ele>
        <time>2022-06-25T13:58:49Z</time>
      </trkpt>
      <trkpt lat="46.22136" lon="4.63988">
        <ele>544</ele>
        <time>2022-06-25T13:58:50Z</time>
      </trkpt>
      <trkpt lat="46.22132" lon="4.6399">
        <ele>544</ele>
        <time>2022-06-25T13:58:51Z</time>
      </trkpt>
      <trkpt lat="46.22129" lon="4.63993">
        <ele>544</ele>
        <time>2022-06-25T13:58:52Z</time>
      </trkpt>
      <trkpt lat="46.22125" lon="4.63996">
        <ele>544</ele>
        <time>2022-06-25T13:58:53Z</time>
      </trkpt>
      <trkpt lat="46.22122" lon="4.63998">
        <ele>544.2</ele>
        <time>2022-06-25T13:58:54Z</time>
      </trkpt>
      <trkpt lat="46.22119" lon="4.64001">
        <ele>544.2</ele>
        <time>2022-06-25T13:58:55Z</time>
      </trkpt>
      <trkpt lat="46.22117" lon="4.64003">
        <ele>544.2</ele>
        <time>2022-06-25T13:58:56Z</time>
      </trkpt>
      <trkpt lat="46.22115" lon="4.64005">
        <ele>544.2</ele>
        <time>2022-06-25T13:58:57Z</time>
      </trkpt>
      <trkpt lat="46.22114" lon="4.64006">
        <ele>544.2</ele>
        <time>2022-06-25T13:58:58Z</time>
      </trkpt>
      <trkpt lat="46.22114" lon="4.64006">
        <ele>544.2</ele>
        <time>2022-06-25T13:59:00Z</time>
      </trkpt>
      <trkpt lat="46.2211" lon="4.64009">
        <ele>544.6</ele>
        <time>2022-06-25T13:59:47Z</time>
      </trkpt>
      <trkpt lat="46.22109" lon="4.6401">
        <ele>544.6</ele>
        <time>2022-06-25T13:59:48Z</time>
      </trkpt>
      <trkpt lat="46.22107" lon="4.64011">
        <ele>544.6</ele>
        <time>2022-06-25T13:59:49Z</time>
      </trkpt>
      <trkpt lat="46.22105" lon="4.64012">
        <ele>544.6</ele>
        <time>2022-06-25T13:59:50Z</time>
      </trkpt>
      <trkpt lat="46.22102" lon="4.64014">
        <ele>544.6</ele>
        <time>2022-06-25T13:59:51Z</time>
      </trkpt>
      <trkpt lat="46.221" lon="4.64016">
        <ele>545</ele>
        <time>2022-06-25T13:59:52Z</time>
      </trkpt>
      <trkpt lat="46.22098" lon="4.64017">
        <ele>545</ele>
        <time>2022-06-25T13:59:53Z</time>
      </trkpt>
      <trkpt lat="46.22096" lon="4.64019">
        <ele>545</ele>
        <time>2022-06-25T13:59:54Z</time>
      </trkpt>
      <trkpt lat="46.22093" lon="4.64022">
        <ele>545</ele>
        <time>2022-06-25T13:59:55Z</time>
      </trkpt>
      <trkpt lat="46.22091" lon="4.64024">
        <ele>545.2</ele>
        <time>2022-06-25T13:59:56Z</time>
      </trkpt>
      <trkpt lat="46.22088" lon="4.64027">
        <ele>545.2</ele>
        <time>2022-06-25T13:59:57Z</time>
      </trkpt>
      <trkpt lat="46.22085" lon="4.64029">
        <ele>545.2</ele>
        <time>2022-06-25T13:59:58Z</time>
      </trkpt>
      <trkpt lat="46.22082" lon="4.64032">
        <ele>545.2</ele>
        <time>2022-06-25T13:59:59Z</time>
      </trkpt>
      <trkpt lat="46.22079" lon="4.64035">
        <ele>545.4</ele>
        <time>2022-06-25T14:00:00Z</time>
      </trkpt>
      <trkpt lat="46.22076" lon="4.64038">
        <ele>545.4</ele>
        <time>2022-06-25T14:00:01Z</time>
      </trkpt>
      <trkpt lat="46.22073" lon="4.6404">
        <ele>545.6</ele>
        <time>2022-06-25T14:00:02Z</time>
      </trkpt>
      <trkpt lat="46.2207" lon="4.64043">
        <ele>545.6</ele>
        <time>2022-06-25T14:00:03Z</time>
      </trkpt>
      <trkpt lat="46.22066" lon="4.64045">
        <ele>545.8</ele>
        <time>2022-06-25T14:00:04Z</time>
      </trkpt>
      <trkpt lat="46.22063" lon="4.64047">
        <ele>545.8</ele>
        <time>2022-06-25T14:00:05Z</time>
      </trkpt>
      <trkpt lat="46.22059" lon="4.64049">
        <ele>545.8</ele>
        <time>2022-06-25T14:00:06Z</time>
      </trkpt>
      <trkpt lat="46.22056" lon="4.64051">
        <ele>545.8</ele>
        <time>2022-06-25T14:00:07Z</time>
      </trkpt>
      <trkpt lat="46.22052" lon="4.64054">
        <ele>546</ele>
        <time>2022-06-25T14:00:08Z</time>
      </trkpt>
      <trkpt lat="46.22049" lon="4.64057">
        <ele>546</ele>
        <time>2022-06-25T14:00:09Z</time>
      </trkpt>
      <trkpt lat="46.22046" lon="4.64061">
        <ele>546</ele>
        <time>2022-06-25T14:00:10Z</time>
      </trkpt>
      <trkpt lat="46.22043" lon="4.64065">
        <ele>546.4</ele>
        <time>2022-06-25T14:00:11Z</time>
      </trkpt>
      <trkpt lat="46.2204" lon="4.64068">
        <ele>546.4</ele>
        <time>2022-06-25T14:00:12Z</time>
      </trkpt>
      <trkpt lat="46.22036" lon="4.64071">
        <ele>546.4</ele>
        <time>2022-06-25T14:00:13Z</time>
      </trkpt>
      <trkpt lat="46.22032" lon="4.64074">
        <ele>546.4</ele>
        <time>2022-06-25T14:00:14Z</time>
      </trkpt>
      <trkpt lat="46.22028" lon="4.64077">
        <ele>546.6</ele>
        <time>2022-06-25T14:00:15Z</time>
      </trkpt>
      <trkpt lat="46.22024" lon="4.6408">
        <ele>546.6</ele>
        <time>2022-06-25T14:00:16Z</time>
      </trkpt>
      <trkpt lat="46.2202" lon="4.64083">
        <ele>546.8</ele>
        <time>2022-06-25T14:00:17Z</time>
      </trkpt>
      <trkpt lat="46.22017" lon="4.64086">
        <ele>546.8</ele>
        <time>2022-06-25T14:00:18Z</time>
      </trkpt>
      <trkpt lat="46.22013" lon="4.64089">
        <ele>546.8</ele>
        <time>2022-06-25T14:00:19Z</time>
      </trkpt>
      <trkpt lat="46.22009" lon="4.64092">
        <ele>547</ele>
        <time>2022-06-25T14:00:20Z</time>
      </trkpt>
      <trkpt lat="46.22005" lon="4.64096">
        <ele>547</ele>
        <time>2022-06-25T14:00:21Z</time>
      </trkpt>
      <trkpt lat="46.22001" lon="4.641">
        <ele>547</ele>
        <time>2022-06-25T14:00:22Z</time>
      </trkpt>
      <trkpt lat="46.21997" lon="4.64103">
        <ele>547</ele>
        <time>2022-06-25T14:00:23Z</time>
      </trkpt>
      <trkpt lat="46.21995" lon="4.64105">
        <ele>547</ele>
        <time>2022-06-25T14:00:24Z</time>
      </trkpt>
      <trkpt lat="46.21993" lon="4.64107">
        <ele>547.4</ele>
        <time>2022-06-25T14:00:25Z</time>
      </trkpt>
      <trkpt lat="46.21988" lon="4.64111">
        <ele>547.4</ele>
        <time>2022-06-25T14:00:26Z</time>
      </trkpt>
      <trkpt lat="46.21984" lon="4.64115">
        <ele>547.4</ele>
        <time>2022-06-25T14:00:27Z</time>
      </trkpt>
      <trkpt lat="46.2198" lon="4.64118">
        <ele>547.4</ele>
        <time>2022-06-25T14:00:28Z</time>
      </trkpt>
      <trkpt lat="46.21975" lon="4.64121">
        <ele>547.4</ele>
        <time>2022-06-25T14:00:29Z</time>
      </trkpt>
      <trkpt lat="46.2197" lon="4.64124">
        <ele>547.4</ele>
        <time>2022-06-25T14:00:30Z</time>
      </trkpt>
      <trkpt lat="46.21965" lon="4.64127">
        <ele>547.6</ele>
        <time>2022-06-25T14:00:31Z</time>
      </trkpt>
      <trkpt lat="46.2196" lon="4.64129">
        <ele>547.6</ele>
        <time>2022-06-25T14:00:32Z</time>
      </trkpt>
      <trkpt lat="46.21955" lon="4.64132">
        <ele>547.6</ele>
        <time>2022-06-25T14:00:33Z</time>
      </trkpt>
      <trkpt lat="46.2195" lon="4.64134">
        <ele>547.6</ele>
        <time>2022-06-25T14:00:34Z</time>
      </trkpt>
      <trkpt lat="46.21944" lon="4.64135">
        <ele>547.6</ele>
        <time>2022-06-25T14:00:35Z</time>
      </trkpt>
      <trkpt lat="46.21939" lon="4.64136">
        <ele>547.6</ele>
        <time>2022-06-25T14:00:36Z</time>
      </trkpt>
      <trkpt lat="46.21934" lon="4.64136">
        <ele>547.6</ele>
        <time>2022-06-25T14:00:37Z</time>
      </trkpt>
      <trkpt lat="46.21928" lon="4.64136">
        <ele>547.8</ele>
        <time>2022-06-25T14:00:38Z</time>
      </trkpt>
      <trkpt lat="46.21923" lon="4.64136">
        <ele>547.8</ele>
        <time>2022-06-25T14:00:39Z</time>
      </trkpt>
      <trkpt lat="46.21918" lon="4.64135">
        <ele>547.8</ele>
        <time>2022-06-25T14:00:40Z</time>
      </trkpt>
      <trkpt lat="46.21913" lon="4.64134">
        <ele>547.8</ele>
        <time>2022-06-25T14:00:41Z</time>
      </trkpt>
      <trkpt lat="46.21908" lon="4.64134">
        <ele>548</ele>
        <time>2022-06-25T14:00:42Z</time>
      </trkpt>
      <trkpt lat="46.21903" lon="4.64133">
        <ele>548</ele>
        <time>2022-06-25T14:00:43Z</time>
      </trkpt>
      <trkpt lat="46.21898" lon="4.64132">
        <ele>548</ele>
        <time>2022-06-25T14:00:44Z</time>
      </trkpt>
      <trkpt lat="46.21893" lon="4.6413">
        <ele>548</ele>
        <time>2022-06-25T14:00:45Z</time>
      </trkpt>
      <trkpt lat="46.21888" lon="4.64128">
        <ele>548</ele>
        <time>2022-06-25T14:00:46Z</time>
      </trkpt>
      <trkpt lat="46.21883" lon="4.64127">
        <ele>548.2</ele>
        <time>2022-06-25T14:00:47Z</time>
      </trkpt>
      <trkpt lat="46.21878" lon="4.64126">
        <ele>548.2</ele>
        <time>2022-06-25T14:00:48Z</time>
      </trkpt>
      <trkpt lat="46.21872" lon="4.64126">
        <ele>548.4</ele>
        <time>2022-06-25T14:00:49Z</time>
      </trkpt>
      <trkpt lat="46.21867" lon="4.64124">
        <ele>548.4</ele>
        <time>2022-06-25T14:00:50Z</time>
      </trkpt>
      <trkpt lat="46.21862" lon="4.64123">
        <ele>548.4</ele>
        <time>2022-06-25T14:00:51Z</time>
      </trkpt>
      <trkpt lat="46.21857" lon="4.6412">
        <ele>548.6</ele>
        <time>2022-06-25T14:00:52Z</time>
      </trkpt>
      <trkpt lat="46.21852" lon="4.64118">
        <ele>548.6</ele>
        <time>2022-06-25T14:00:53Z</time>
      </trkpt>
      <trkpt lat="46.21847" lon="4.64115">
        <ele>548.6</ele>
        <time>2022-06-25T14:00:54Z</time>
      </trkpt>
      <trkpt lat="46.21842" lon="4.64112">
        <ele>548.6</ele>
        <time>2022-06-25T14:00:55Z</time>
      </trkpt>
      <trkpt lat="46.21837" lon="4.64108">
        <ele>549</ele>
        <time>2022-06-25T14:00:56Z</time>
      </trkpt>
      <trkpt lat="46.21833" lon="4.64104">
        <ele>549</ele>
        <time>2022-06-25T14:00:57Z</time>
      </trkpt>
      <trkpt lat="46.21829" lon="4.64099">
        <ele>549</ele>
        <time>2022-06-25T14:00:58Z</time>
      </trkpt>
      <trkpt lat="46.21823" lon="4.64091">
        <ele>549.2</ele>
        <time>2022-06-25T14:00:59Z</time>
      </trkpt>
      <trkpt lat="46.21822" lon="4.64088">
        <ele>549.2</ele>
        <time>2022-06-25T14:01:00Z</time>
      </trkpt>
      <trkpt lat="46.21818" lon="4.64081">
        <ele>549.2</ele>
        <time>2022-06-25T14:01:01Z</time>
      </trkpt>
      <trkpt lat="46.21815" lon="4.64075">
        <ele>549.2</ele>
        <time>2022-06-25T14:01:02Z</time>
      </trkpt>
      <trkpt lat="46.21813" lon="4.64068">
        <ele>549.4</ele>
        <time>2022-06-25T14:01:03Z</time>
      </trkpt>
      <trkpt lat="46.2181" lon="4.64062">
        <ele>549.4</ele>
        <time>2022-06-25T14:01:04Z</time>
      </trkpt>
      <trkpt lat="46.21807" lon="4.64055">
        <ele>549.4</ele>
        <time>2022-06-25T14:01:05Z</time>
      </trkpt>
      <trkpt lat="46.21804" lon="4.64048">
        <ele>549.6</ele>
        <time>2022-06-25T14:01:06Z</time>
      </trkpt>
      <trkpt lat="46.21801" lon="4.64042">
        <ele>549.6</ele>
        <time>2022-06-25T14:01:07Z</time>
      </trkpt>
      <trkpt lat="46.21799" lon="4.64035">
        <ele>550</ele>
        <time>2022-06-25T14:01:08Z</time>
      </trkpt>
      <trkpt lat="46.21796" lon="4.64029">
        <ele>550</ele>
        <time>2022-06-25T14:01:09Z</time>
      </trkpt>
      <trkpt lat="46.21794" lon="4.64022">
        <ele>550</ele>
        <time>2022-06-25T14:01:10Z</time>
      </trkpt>
      <trkpt lat="46.21791" lon="4.64015">
        <ele>550</ele>
        <time>2022-06-25T14:01:11Z</time>
      </trkpt>
      <trkpt lat="46.21788" lon="4.64009">
        <ele>550</ele>
        <time>2022-06-25T14:01:12Z</time>
      </trkpt>
      <trkpt lat="46.21785" lon="4.64003">
        <ele>550.2</ele>
        <time>2022-06-25T14:01:13Z</time>
      </trkpt>
      <trkpt lat="46.21781" lon="4.63997">
        <ele>550.2</ele>
        <time>2022-06-25T14:01:14Z</time>
      </trkpt>
      <trkpt lat="46.21777" lon="4.63991">
        <ele>550.2</ele>
        <time>2022-06-25T14:01:15Z</time>
      </trkpt>
      <trkpt lat="46.21773" lon="4.63986">
        <ele>550.2</ele>
        <time>2022-06-25T14:01:16Z</time>
      </trkpt>
      <trkpt lat="46.21769" lon="4.63981">
        <ele>550.2</ele>
        <time>2022-06-25T14:01:17Z</time>
      </trkpt>
      <trkpt lat="46.21764" lon="4.63976">
        <ele>550.2</ele>
        <time>2022-06-25T14:01:18Z</time>
      </trkpt>
      <trkpt lat="46.21758" lon="4.63972">
        <ele>550.2</ele>
        <time>2022-06-25T14:01:19Z</time>
      </trkpt>
      <trkpt lat="46.21753" lon="4.63969">
        <ele>550.2</ele>
        <time>2022-06-25T14:01:20Z</time>
      </trkpt>
      <trkpt lat="46.21747" lon="4.63966">
        <ele>550.2</ele>
        <time>2022-06-25T14:01:21Z</time>
      </trkpt>
      <trkpt lat="46.21741" lon="4.63966">
        <ele>550.2</ele>
        <time>2022-06-25T14:01:22Z</time>
      </trkpt>
      <trkpt lat="46.21735" lon="4.63965">
        <ele>550.2</ele>
        <time>2022-06-25T14:01:23Z</time>
      </trkpt>
      <trkpt lat="46.21728" lon="4.63965">
        <ele>550.2</ele>
        <time>2022-06-25T14:01:24Z</time>
      </trkpt>
      <trkpt lat="46.21722" lon="4.63967">
        <ele>550</ele>
        <time>2022-06-25T14:01:25Z</time>
      </trkpt>
      <trkpt lat="46.21716" lon="4.63969">
        <ele>550</ele>
        <time>2022-06-25T14:01:26Z</time>
      </trkpt>
      <trkpt lat="46.21709" lon="4.6397">
        <ele>549.8</ele>
        <time>2022-06-25T14:01:27Z</time>
      </trkpt>
      <trkpt lat="46.21702" lon="4.63972">
        <ele>549.8</ele>
        <time>2022-06-25T14:01:28Z</time>
      </trkpt>
      <trkpt lat="46.21696" lon="4.63974">
        <ele>549.8</ele>
        <time>2022-06-25T14:01:29Z</time>
      </trkpt>
      <trkpt lat="46.21689" lon="4.63976">
        <ele>549.6</ele>
        <time>2022-06-25T14:01:30Z</time>
      </trkpt>
      <trkpt lat="46.21682" lon="4.63978">
        <ele>549.6</ele>
        <time>2022-06-25T14:01:31Z</time>
      </trkpt>
      <trkpt lat="46.21675" lon="4.63979">
        <ele>549.6</ele>
        <time>2022-06-25T14:01:32Z</time>
      </trkpt>
      <trkpt lat="46.21668" lon="4.63981">
        <ele>549.6</ele>
        <time>2022-06-25T14:01:33Z</time>
      </trkpt>
      <trkpt lat="46.21662" lon="4.63983">
        <ele>549.6</ele>
        <time>2022-06-25T14:01:34Z</time>
      </trkpt>
      <trkpt lat="46.21655" lon="4.63986">
        <ele>549.6</ele>
        <time>2022-06-25T14:01:35Z</time>
      </trkpt>
      <trkpt lat="46.21648" lon="4.63988">
        <ele>549.4</ele>
        <time>2022-06-25T14:01:36Z</time>
      </trkpt>
      <trkpt lat="46.21642" lon="4.63992">
        <ele>549.4</ele>
        <time>2022-06-25T14:01:37Z</time>
      </trkpt>
      <trkpt lat="46.21635" lon="4.63996">
        <ele>549.4</ele>
        <time>2022-06-25T14:01:38Z</time>
      </trkpt>
      <trkpt lat="46.21629" lon="4.64002">
        <ele>549.2</ele>
        <time>2022-06-25T14:01:39Z</time>
      </trkpt>
      <trkpt lat="46.21623" lon="4.64008">
        <ele>549.2</ele>
        <time>2022-06-25T14:01:40Z</time>
      </trkpt>
      <trkpt lat="46.21618" lon="4.64015">
        <ele>549.2</ele>
        <time>2022-06-25T14:01:41Z</time>
      </trkpt>
      <trkpt lat="46.21613" lon="4.64022">
        <ele>548.8</ele>
        <time>2022-06-25T14:01:42Z</time>
      </trkpt>
      <trkpt lat="46.21608" lon="4.64031">
        <ele>548.8</ele>
        <time>2022-06-25T14:01:43Z</time>
      </trkpt>
      <trkpt lat="46.21605" lon="4.6404">
        <ele>548.8</ele>
        <time>2022-06-25T14:01:44Z</time>
      </trkpt>
      <trkpt lat="46.21601" lon="4.6405">
        <ele>548.6</ele>
        <time>2022-06-25T14:01:45Z</time>
      </trkpt>
      <trkpt lat="46.21599" lon="4.6406">
        <ele>548.6</ele>
        <time>2022-06-25T14:01:46Z</time>
      </trkpt>
      <trkpt lat="46.21597" lon="4.6407">
        <ele>548.6</ele>
        <time>2022-06-25T14:01:47Z</time>
      </trkpt>
      <trkpt lat="46.21596" lon="4.6408">
        <ele>548.4</ele>
        <time>2022-06-25T14:01:48Z</time>
      </trkpt>
      <trkpt lat="46.21595" lon="4.6409">
        <ele>548.4</ele>
        <time>2022-06-25T14:01:49Z</time>
      </trkpt>
      <trkpt lat="46.21594" lon="4.64101">
        <ele>548.2</ele>
        <time>2022-06-25T14:01:50Z</time>
      </trkpt>
      <trkpt lat="46.21593" lon="4.64113">
        <ele>548.2</ele>
        <time>2022-06-25T14:01:51Z</time>
      </trkpt>
      <trkpt lat="46.21592" lon="4.64124">
        <ele>547.8</ele>
        <time>2022-06-25T14:01:52Z</time>
      </trkpt>
      <trkpt lat="46.21591" lon="4.64135">
        <ele>547.8</ele>
        <time>2022-06-25T14:01:53Z</time>
      </trkpt>
      <trkpt lat="46.2159" lon="4.64146">
        <ele>547.6</ele>
        <time>2022-06-25T14:01:54Z</time>
      </trkpt>
      <trkpt lat="46.21588" lon="4.64157">
        <ele>547.6</ele>
        <time>2022-06-25T14:01:55Z</time>
      </trkpt>
      <trkpt lat="46.21587" lon="4.64168">
        <ele>547.4</ele>
        <time>2022-06-25T14:01:56Z</time>
      </trkpt>
      <trkpt lat="46.21585" lon="4.64178">
        <ele>547.4</ele>
        <time>2022-06-25T14:01:57Z</time>
      </trkpt>
      <trkpt lat="46.21584" lon="4.6419">
        <ele>547.2</ele>
        <time>2022-06-25T14:01:58Z</time>
      </trkpt>
      <trkpt lat="46.21582" lon="4.642">
        <ele>547.2</ele>
        <time>2022-06-25T14:01:59Z</time>
      </trkpt>
      <trkpt lat="46.2158" lon="4.64211">
        <ele>546.8</ele>
        <time>2022-06-25T14:02:00Z</time>
      </trkpt>
      <trkpt lat="46.21578" lon="4.64222">
        <ele>546.8</ele>
        <time>2022-06-25T14:02:01Z</time>
      </trkpt>
      <trkpt lat="46.21576" lon="4.64233">
        <ele>546.6</ele>
        <time>2022-06-25T14:02:02Z</time>
      </trkpt>
      <trkpt lat="46.21574" lon="4.64243">
        <ele>546.6</ele>
        <time>2022-06-25T14:02:03Z</time>
      </trkpt>
      <trkpt lat="46.21572" lon="4.64254">
        <ele>546.4</ele>
        <time>2022-06-25T14:02:04Z</time>
      </trkpt>
      <trkpt lat="46.2157" lon="4.64265">
        <ele>546.4</ele>
        <time>2022-06-25T14:02:05Z</time>
      </trkpt>
      <trkpt lat="46.21568" lon="4.64276">
        <ele>546</ele>
        <time>2022-06-25T14:02:06Z</time>
      </trkpt>
      <trkpt lat="46.21567" lon="4.64286">
        <ele>546</ele>
        <time>2022-06-25T14:02:07Z</time>
      </trkpt>
      <trkpt lat="46.21565" lon="4.64297">
        <ele>545.8</ele>
        <time>2022-06-25T14:02:08Z</time>
      </trkpt>
      <trkpt lat="46.21564" lon="4.64308">
        <ele>545.8</ele>
        <time>2022-06-25T14:02:09Z</time>
      </trkpt>
      <trkpt lat="46.21563" lon="4.64317">
        <ele>545.8</ele>
        <time>2022-06-25T14:02:10Z</time>
      </trkpt>
      <trkpt lat="46.21562" lon="4.64327">
        <ele>545.4</ele>
        <time>2022-06-25T14:02:11Z</time>
      </trkpt>
      <trkpt lat="46.21561" lon="4.64338">
        <ele>545.4</ele>
        <time>2022-06-25T14:02:12Z</time>
      </trkpt>
      <trkpt lat="46.21559" lon="4.64348">
        <ele>545.2</ele>
        <time>2022-06-25T14:02:13Z</time>
      </trkpt>
      <trkpt lat="46.21558" lon="4.64358">
        <ele>545.2</ele>
        <time>2022-06-25T14:02:14Z</time>
      </trkpt>
      <trkpt lat="46.21557" lon="4.64368">
        <ele>544.8</ele>
        <time>2022-06-25T14:02:15Z</time>
      </trkpt>
      <trkpt lat="46.21557" lon="4.64378">
        <ele>544.8</ele>
        <time>2022-06-25T14:02:16Z</time>
      </trkpt>
      <trkpt lat="46.21556" lon="4.64387">
        <ele>544.6</ele>
        <time>2022-06-25T14:02:17Z</time>
      </trkpt>
      <trkpt lat="46.21555" lon="4.64396">
        <ele>544.6</ele>
        <time>2022-06-25T14:02:18Z</time>
      </trkpt>
      <trkpt lat="46.21554" lon="4.64404">
        <ele>544.4</ele>
        <time>2022-06-25T14:02:19Z</time>
      </trkpt>
      <trkpt lat="46.21554" lon="4.64414">
        <ele>544.4</ele>
        <time>2022-06-25T14:02:20Z</time>
      </trkpt>
      <trkpt lat="46.21555" lon="4.64423">
        <ele>544</ele>
        <time>2022-06-25T14:02:21Z</time>
      </trkpt>
      <trkpt lat="46.21556" lon="4.64434">
        <ele>544</ele>
        <time>2022-06-25T14:02:22Z</time>
      </trkpt>
      <trkpt lat="46.21557" lon="4.64444">
        <ele>543.8</ele>
        <time>2022-06-25T14:02:23Z</time>
      </trkpt>
      <trkpt lat="46.21558" lon="4.64455">
        <ele>543.8</ele>
        <time>2022-06-25T14:02:24Z</time>
      </trkpt>
      <trkpt lat="46.21559" lon="4.64464">
        <ele>543.8</ele>
        <time>2022-06-25T14:02:25Z</time>
      </trkpt>
      <trkpt lat="46.21559" lon="4.64474">
        <ele>543.4</ele>
        <time>2022-06-25T14:02:26Z</time>
      </trkpt>
      <trkpt lat="46.21559" lon="4.64485">
        <ele>543.4</ele>
        <time>2022-06-25T14:02:27Z</time>
      </trkpt>
      <trkpt lat="46.21559" lon="4.64495">
        <ele>543.4</ele>
        <time>2022-06-25T14:02:28Z</time>
      </trkpt>
      <trkpt lat="46.21558" lon="4.64505">
        <ele>543.4</ele>
        <time>2022-06-25T14:02:29Z</time>
      </trkpt>
      <trkpt lat="46.21556" lon="4.64515">
        <ele>543.4</ele>
        <time>2022-06-25T14:02:30Z</time>
      </trkpt>
      <trkpt lat="46.21554" lon="4.64525">
        <ele>543.4</ele>
        <time>2022-06-25T14:02:31Z</time>
      </trkpt>
      <trkpt lat="46.21551" lon="4.64534">
        <ele>543.2</ele>
        <time>2022-06-25T14:02:32Z</time>
      </trkpt>
      <trkpt lat="46.21549" lon="4.64544">
        <ele>543.2</ele>
        <time>2022-06-25T14:02:33Z</time>
      </trkpt>
      <trkpt lat="46.21546" lon="4.64553">
        <ele>542.8</ele>
        <time>2022-06-25T14:02:34Z</time>
      </trkpt>
      <trkpt lat="46.21542" lon="4.64562">
        <ele>542.8</ele>
        <time>2022-06-25T14:02:35Z</time>
      </trkpt>
      <trkpt lat="46.21538" lon="4.64571">
        <ele>542.8</ele>
        <time>2022-06-25T14:02:36Z</time>
      </trkpt>
      <trkpt lat="46.21534" lon="4.6458">
        <ele>542.8</ele>
        <time>2022-06-25T14:02:37Z</time>
      </trkpt>
      <trkpt lat="46.21529" lon="4.64588">
        <ele>542.6</ele>
        <time>2022-06-25T14:02:38Z</time>
      </trkpt>
      <trkpt lat="46.21523" lon="4.64595">
        <ele>542.6</ele>
        <time>2022-06-25T14:02:39Z</time>
      </trkpt>
      <trkpt lat="46.21518" lon="4.64602">
        <ele>542.6</ele>
        <time>2022-06-25T14:02:40Z</time>
      </trkpt>
      <trkpt lat="46.21512" lon="4.64609">
        <ele>542.6</ele>
        <time>2022-06-25T14:02:41Z</time>
      </trkpt>
      <trkpt lat="46.21506" lon="4.64616">
        <ele>542.6</ele>
        <time>2022-06-25T14:02:42Z</time>
      </trkpt>
      <trkpt lat="46.21501" lon="4.64623">
        <ele>542</ele>
        <time>2022-06-25T14:02:43Z</time>
      </trkpt>
      <trkpt lat="46.21496" lon="4.64631">
        <ele>542</ele>
        <time>2022-06-25T14:02:44Z</time>
      </trkpt>
      <trkpt lat="46.21491" lon="4.64638">
        <ele>541.8</ele>
        <time>2022-06-25T14:02:45Z</time>
      </trkpt>
      <trkpt lat="46.21486" lon="4.64646">
        <ele>541.8</ele>
        <time>2022-06-25T14:02:46Z</time>
      </trkpt>
      <trkpt lat="46.21482" lon="4.64654">
        <ele>541.6</ele>
        <time>2022-06-25T14:02:47Z</time>
      </trkpt>
      <trkpt lat="46.21478" lon="4.64663">
        <ele>541.6</ele>
        <time>2022-06-25T14:02:48Z</time>
      </trkpt>
      <trkpt lat="46.21474" lon="4.64672">
        <ele>541.6</ele>
        <time>2022-06-25T14:02:49Z</time>
      </trkpt>
      <trkpt lat="46.21471" lon="4.64681">
        <ele>541.4</ele>
        <time>2022-06-25T14:02:50Z</time>
      </trkpt>
      <trkpt lat="46.21469" lon="4.64691">
        <ele>541.4</ele>
        <time>2022-06-25T14:02:51Z</time>
      </trkpt>
      <trkpt lat="46.21466" lon="4.64701">
        <ele>541.4</ele>
        <time>2022-06-25T14:02:52Z</time>
      </trkpt>
      <trkpt lat="46.21464" lon="4.64711">
        <ele>541</ele>
        <time>2022-06-25T14:02:53Z</time>
      </trkpt>
      <trkpt lat="46.21461" lon="4.64721">
        <ele>541</ele>
        <time>2022-06-25T14:02:54Z</time>
      </trkpt>
      <trkpt lat="46.21458" lon="4.64731">
        <ele>540.8</ele>
        <time>2022-06-25T14:02:55Z</time>
      </trkpt>
      <trkpt lat="46.21455" lon="4.64741">
        <ele>540.8</ele>
        <time>2022-06-25T14:02:56Z</time>
      </trkpt>
      <trkpt lat="46.21451" lon="4.6475">
        <ele>540.8</ele>
        <time>2022-06-25T14:02:57Z</time>
      </trkpt>
      <trkpt lat="46.21447" lon="4.64758">
        <ele>540.8</ele>
        <time>2022-06-25T14:02:58Z</time>
      </trkpt>
      <trkpt lat="46.21443" lon="4.64766">
        <ele>540.8</ele>
        <time>2022-06-25T14:02:59Z</time>
      </trkpt>
      <trkpt lat="46.21437" lon="4.64774">
        <ele>540.6</ele>
        <time>2022-06-25T14:03:00Z</time>
      </trkpt>
      <trkpt lat="46.21432" lon="4.64781">
        <ele>540.6</ele>
        <time>2022-06-25T14:03:01Z</time>
      </trkpt>
      <trkpt lat="46.21426" lon="4.64787">
        <ele>540.2</ele>
        <time>2022-06-25T14:03:02Z</time>
      </trkpt>
      <trkpt lat="46.2142" lon="4.64792">
        <ele>540.2</ele>
        <time>2022-06-25T14:03:03Z</time>
      </trkpt>
      <trkpt lat="46.21415" lon="4.64797">
        <ele>540</ele>
        <time>2022-06-25T14:03:04Z</time>
      </trkpt>
      <trkpt lat="46.21409" lon="4.64802">
        <ele>540</ele>
        <time>2022-06-25T14:03:05Z</time>
      </trkpt>
      <trkpt lat="46.21403" lon="4.64808">
        <ele>540</ele>
        <time>2022-06-25T14:03:06Z</time>
      </trkpt>
      <trkpt lat="46.21397" lon="4.64814">
        <ele>539.8</ele>
        <time>2022-06-25T14:03:07Z</time>
      </trkpt>
      <trkpt lat="46.21392" lon="4.6482">
        <ele>539.8</ele>
        <time>2022-06-25T14:03:08Z</time>
      </trkpt>
      <trkpt lat="46.21387" lon="4.64827">
        <ele>539.4</ele>
        <time>2022-06-25T14:03:09Z</time>
      </trkpt>
      <trkpt lat="46.21382" lon="4.64835">
        <ele>539.4</ele>
        <time>2022-06-25T14:03:10Z</time>
      </trkpt>
      <trkpt lat="46.21378" lon="4.64843">
        <ele>539.4</ele>
        <time>2022-06-25T14:03:11Z</time>
      </trkpt>
      <trkpt lat="46.21373" lon="4.64851">
        <ele>539</ele>
        <time>2022-06-25T14:03:12Z</time>
      </trkpt>
      <trkpt lat="46.21369" lon="4.6486">
        <ele>539</ele>
        <time>2022-06-25T14:03:13Z</time>
      </trkpt>
      <trkpt lat="46.21365" lon="4.64869">
        <ele>538.8</ele>
        <time>2022-06-25T14:03:14Z</time>
      </trkpt>
      <trkpt lat="46.21361" lon="4.64878">
        <ele>538.8</ele>
        <time>2022-06-25T14:03:15Z</time>
      </trkpt>
      <trkpt lat="46.21357" lon="4.64887">
        <ele>538.8</ele>
        <time>2022-06-25T14:03:16Z</time>
      </trkpt>
      <trkpt lat="46.21353" lon="4.64896">
        <ele>538.6</ele>
        <time>2022-06-25T14:03:17Z</time>
      </trkpt>
      <trkpt lat="46.21349" lon="4.64904">
        <ele>538.6</ele>
        <time>2022-06-25T14:03:18Z</time>
      </trkpt>
      <trkpt lat="46.21345" lon="4.64913">
        <ele>538.4</ele>
        <time>2022-06-25T14:03:19Z</time>
      </trkpt>
      <trkpt lat="46.21341" lon="4.64921">
        <ele>538.4</ele>
        <time>2022-06-25T14:03:20Z</time>
      </trkpt>
      <trkpt lat="46.21336" lon="4.64928">
        <ele>538.4</ele>
        <time>2022-06-25T14:03:21Z</time>
      </trkpt>
      <trkpt lat="46.2133" lon="4.64933">
        <ele>538</ele>
        <time>2022-06-25T14:03:22Z</time>
      </trkpt>
      <trkpt lat="46.21323" lon="4.64936">
        <ele>538</ele>
        <time>2022-06-25T14:03:23Z</time>
      </trkpt>
      <trkpt lat="46.21316" lon="4.64937">
        <ele>537.8</ele>
        <time>2022-06-25T14:03:24Z</time>
      </trkpt>
      <trkpt lat="46.2131" lon="4.64936">
        <ele>537.8</ele>
        <time>2022-06-25T14:03:25Z</time>
      </trkpt>
      <trkpt lat="46.21304" lon="4.64932">
        <ele>537.4</ele>
        <time>2022-06-25T14:03:26Z</time>
      </trkpt>
      <trkpt lat="46.21298" lon="4.64926">
        <ele>537.2</ele>
        <time>2022-06-25T14:03:27Z</time>
      </trkpt>
      <trkpt lat="46.21293" lon="4.64919">
        <ele>537.2</ele>
        <time>2022-06-25T14:03:28Z</time>
      </trkpt>
      <trkpt lat="46.21289" lon="4.64912">
        <ele>537</ele>
        <time>2022-06-25T14:03:29Z</time>
      </trkpt>
      <trkpt lat="46.21284" lon="4.64904">
        <ele>537</ele>
        <time>2022-06-25T14:03:30Z</time>
      </trkpt>
      <trkpt lat="46.21279" lon="4.64897">
        <ele>537</ele>
        <time>2022-06-25T14:03:31Z</time>
      </trkpt>
      <trkpt lat="46.21273" lon="4.64891">
        <ele>537</ele>
        <time>2022-06-25T14:03:32Z</time>
      </trkpt>
      <trkpt lat="46.21268" lon="4.64885">
        <ele>537</ele>
        <time>2022-06-25T14:03:33Z</time>
      </trkpt>
      <trkpt lat="46.21263" lon="4.64878">
        <ele>536.6</ele>
        <time>2022-06-25T14:03:34Z</time>
      </trkpt>
      <trkpt lat="46.21257" lon="4.64872">
        <ele>536.6</ele>
        <time>2022-06-25T14:03:35Z</time>
      </trkpt>
      <trkpt lat="46.21252" lon="4.64866">
        <ele>536.4</ele>
        <time>2022-06-25T14:03:36Z</time>
      </trkpt>
      <trkpt lat="46.21247" lon="4.64859">
        <ele>536.4</ele>
        <time>2022-06-25T14:03:37Z</time>
      </trkpt>
      <trkpt lat="46.21242" lon="4.64852">
        <ele>536</ele>
        <time>2022-06-25T14:03:38Z</time>
      </trkpt>
      <trkpt lat="46.21238" lon="4.64845">
        <ele>535.8</ele>
        <time>2022-06-25T14:03:39Z</time>
      </trkpt>
      <trkpt lat="46.21234" lon="4.64837">
        <ele>535.8</ele>
        <time>2022-06-25T14:03:40Z</time>
      </trkpt>
      <trkpt lat="46.21231" lon="4.6483">
        <ele>535.4</ele>
        <time>2022-06-25T14:03:41Z</time>
      </trkpt>
      <trkpt lat="46.21229" lon="4.64822">
        <ele>535.4</ele>
        <time>2022-06-25T14:03:42Z</time>
      </trkpt>
      <trkpt lat="46.21227" lon="4.64815">
        <ele>535.2</ele>
        <time>2022-06-25T14:03:43Z</time>
      </trkpt>
      <trkpt lat="46.21225" lon="4.64808">
        <ele>535</ele>
        <time>2022-06-25T14:03:44Z</time>
      </trkpt>
      <trkpt lat="46.21224" lon="4.64802">
        <ele>534.6</ele>
        <time>2022-06-25T14:03:45Z</time>
      </trkpt>
      <trkpt lat="46.21223" lon="4.64797">
        <ele>534.4</ele>
        <time>2022-06-25T14:03:46Z</time>
      </trkpt>
      <trkpt lat="46.21222" lon="4.64793">
        <ele>534.4</ele>
        <time>2022-06-25T14:03:47Z</time>
      </trkpt>
      <trkpt lat="46.21221" lon="4.64789">
        <ele>534.2</ele>
        <time>2022-06-25T14:03:48Z</time>
      </trkpt>
      <trkpt lat="46.21221" lon="4.64787">
        <ele>534.2</ele>
        <time>2022-06-25T14:03:49Z</time>
      </trkpt>
      <trkpt lat="46.2122" lon="4.64785">
        <ele>534.2</ele>
        <time>2022-06-25T14:03:50Z</time>
      </trkpt>
      <trkpt lat="46.2122" lon="4.64785">
        <ele>534.2</ele>
        <time>2022-06-25T14:03:52Z</time>
      </trkpt>
      <trkpt lat="46.21221" lon="4.64784">
        <ele>533.8</ele>
        <time>2022-06-25T14:04:29Z</time>
      </trkpt>
      <trkpt lat="46.21221" lon="4.64781">
        <ele>533.8</ele>
        <time>2022-06-25T14:04:30Z</time>
      </trkpt>
      <trkpt lat="46.21221" lon="4.64778">
        <ele>533.8</ele>
        <time>2022-06-25T14:04:31Z</time>
      </trkpt>
      <trkpt lat="46.21221" lon="4.64774">
        <ele>533.8</ele>
        <time>2022-06-25T14:04:32Z</time>
      </trkpt>
      <trkpt lat="46.21221" lon="4.6477">
        <ele>533.8</ele>
        <time>2022-06-25T14:04:33Z</time>
      </trkpt>
      <trkpt lat="46.2122" lon="4.64765">
        <ele>533.8</ele>
        <time>2022-06-25T14:04:34Z</time>
      </trkpt>
      <trkpt lat="46.21218" lon="4.6476">
        <ele>533.8</ele>
        <time>2022-06-25T14:04:35Z</time>
      </trkpt>
      <trkpt lat="46.21217" lon="4.64755">
        <ele>533.8</ele>
        <time>2022-06-25T14:04:36Z</time>
      </trkpt>
      <trkpt lat="46.21217" lon="4.6475">
        <ele>533.8</ele>
        <time>2022-06-25T14:04:37Z</time>
      </trkpt>
      <trkpt lat="46.21216" lon="4.64745">
        <ele>533.8</ele>
        <time>2022-06-25T14:04:38Z</time>
      </trkpt>
      <trkpt lat="46.21215" lon="4.6474">
        <ele>533.6</ele>
        <time>2022-06-25T14:04:39Z</time>
      </trkpt>
      <trkpt lat="46.21214" lon="4.64735">
        <ele>533.6</ele>
        <time>2022-06-25T14:04:40Z</time>
      </trkpt>
      <trkpt lat="46.21213" lon="4.64729">
        <ele>533.4</ele>
        <time>2022-06-25T14:04:41Z</time>
      </trkpt>
      <trkpt lat="46.21212" lon="4.64724">
        <ele>533.4</ele>
        <time>2022-06-25T14:04:42Z</time>
      </trkpt>
      <trkpt lat="46.21211" lon="4.64718">
        <ele>533.2</ele>
        <time>2022-06-25T14:04:43Z</time>
      </trkpt>
      <trkpt lat="46.2121" lon="4.64712">
        <ele>533.2</ele>
        <time>2022-06-25T14:04:44Z</time>
      </trkpt>
      <trkpt lat="46.2121" lon="4.64706">
        <ele>533.2</ele>
        <time>2022-06-25T14:04:45Z</time>
      </trkpt>
      <trkpt lat="46.21209" lon="4.647">
        <ele>533.2</ele>
        <time>2022-06-25T14:04:46Z</time>
      </trkpt>
      <trkpt lat="46.21208" lon="4.64693">
        <ele>532.8</ele>
        <time>2022-06-25T14:04:47Z</time>
      </trkpt>
      <trkpt lat="46.21207" lon="4.64686">
        <ele>532.8</ele>
        <time>2022-06-25T14:04:48Z</time>
      </trkpt>
      <trkpt lat="46.21206" lon="4.64679">
        <ele>532.8</ele>
        <time>2022-06-25T14:04:49Z</time>
      </trkpt>
      <trkpt lat="46.21204" lon="4.64671">
        <ele>532.8</ele>
        <time>2022-06-25T14:04:50Z</time>
      </trkpt>
      <trkpt lat="46.21203" lon="4.64663">
        <ele>532.8</ele>
        <time>2022-06-25T14:04:51Z</time>
      </trkpt>
      <trkpt lat="46.21201" lon="4.64656">
        <ele>532.8</ele>
        <time>2022-06-25T14:04:52Z</time>
      </trkpt>
      <trkpt lat="46.21198" lon="4.64648">
        <ele>532.8</ele>
        <time>2022-06-25T14:04:53Z</time>
      </trkpt>
      <trkpt lat="46.21194" lon="4.64641">
        <ele>532.8</ele>
        <time>2022-06-25T14:04:54Z</time>
      </trkpt>
      <trkpt lat="46.2119" lon="4.64635">
        <ele>532.6</ele>
        <time>2022-06-25T14:04:55Z</time>
      </trkpt>
      <trkpt lat="46.21185" lon="4.64628">
        <ele>532.6</ele>
        <time>2022-06-25T14:04:56Z</time>
      </trkpt>
      <trkpt lat="46.2118" lon="4.64622">
        <ele>532.4</ele>
        <time>2022-06-25T14:04:57Z</time>
      </trkpt>
      <trkpt lat="46.21175" lon="4.64616">
        <ele>532.4</ele>
        <time>2022-06-25T14:04:58Z</time>
      </trkpt>
      <trkpt lat="46.2117" lon="4.6461">
        <ele>532.2</ele>
        <time>2022-06-25T14:04:59Z</time>
      </trkpt>
      <trkpt lat="46.21165" lon="4.64603">
        <ele>532.2</ele>
        <time>2022-06-25T14:05:00Z</time>
      </trkpt>
      <trkpt lat="46.2116" lon="4.64597">
        <ele>532.2</ele>
        <time>2022-06-25T14:05:01Z</time>
      </trkpt>
      <trkpt lat="46.21155" lon="4.64591">
        <ele>532.2</ele>
        <time>2022-06-25T14:05:02Z</time>
      </trkpt>
      <trkpt lat="46.21149" lon="4.64585">
        <ele>532.2</ele>
        <time>2022-06-25T14:05:03Z</time>
      </trkpt>
      <trkpt lat="46.21144" lon="4.64579">
        <ele>532.2</ele>
        <time>2022-06-25T14:05:04Z</time>
      </trkpt>
      <trkpt lat="46.21138" lon="4.64573">
        <ele>532.2</ele>
        <time>2022-06-25T14:05:05Z</time>
      </trkpt>
      <trkpt lat="46.21133" lon="4.64566">
        <ele>532.2</ele>
        <time>2022-06-25T14:05:06Z</time>
      </trkpt>
      <trkpt lat="46.21128" lon="4.6456">
        <ele>532.2</ele>
        <time>2022-06-25T14:05:07Z</time>
      </trkpt>
      <trkpt lat="46.21123" lon="4.64554">
        <ele>531.8</ele>
        <time>2022-06-25T14:05:08Z</time>
      </trkpt>
      <trkpt lat="46.21118" lon="4.64547">
        <ele>531.8</ele>
        <time>2022-06-25T14:05:09Z</time>
      </trkpt>
      <trkpt lat="46.21114" lon="4.6454">
        <ele>531.8</ele>
        <time>2022-06-25T14:05:10Z</time>
      </trkpt>
      <trkpt lat="46.21109" lon="4.64534">
        <ele>531.8</ele>
        <time>2022-06-25T14:05:11Z</time>
      </trkpt>
      <trkpt lat="46.21105" lon="4.64526">
        <ele>531.8</ele>
        <time>2022-06-25T14:05:12Z</time>
      </trkpt>
      <trkpt lat="46.21101" lon="4.64519">
        <ele>531.8</ele>
        <time>2022-06-25T14:05:13Z</time>
      </trkpt>
      <trkpt lat="46.21097" lon="4.64512">
        <ele>531.6</ele>
        <time>2022-06-25T14:05:14Z</time>
      </trkpt>
      <trkpt lat="46.21094" lon="4.64505">
        <ele>531.6</ele>
        <time>2022-06-25T14:05:15Z</time>
      </trkpt>
      <trkpt lat="46.21091" lon="4.64498">
        <ele>531.6</ele>
        <time>2022-06-25T14:05:16Z</time>
      </trkpt>
      <trkpt lat="46.21088" lon="4.64491">
        <ele>531.6</ele>
        <time>2022-06-25T14:05:17Z</time>
      </trkpt>
      <trkpt lat="46.21085" lon="4.64484">
        <ele>531.6</ele>
        <time>2022-06-25T14:05:18Z</time>
      </trkpt>
      <trkpt lat="46.21082" lon="4.64477">
        <ele>531.8</ele>
        <time>2022-06-25T14:05:19Z</time>
      </trkpt>
      <trkpt lat="46.2108" lon="4.64471">
        <ele>531.8</ele>
        <time>2022-06-25T14:05:20Z</time>
      </trkpt>
      <trkpt lat="46.21077" lon="4.64465">
        <ele>531.8</ele>
        <time>2022-06-25T14:05:21Z</time>
      </trkpt>
      <trkpt lat="46.21075" lon="4.64459">
        <ele>531.8</ele>
        <time>2022-06-25T14:05:22Z</time>
      </trkpt>
      <trkpt lat="46.21073" lon="4.64453">
        <ele>532.2</ele>
        <time>2022-06-25T14:05:23Z</time>
      </trkpt>
      <trkpt lat="46.21071" lon="4.64449">
        <ele>532.2</ele>
        <time>2022-06-25T14:05:24Z</time>
      </trkpt>
      <trkpt lat="46.21069" lon="4.64445">
        <ele>532.2</ele>
        <time>2022-06-25T14:05:25Z</time>
      </trkpt>
      <trkpt lat="46.21068" lon="4.64441">
        <ele>532.2</ele>
        <time>2022-06-25T14:05:26Z</time>
      </trkpt>
      <trkpt lat="46.21066" lon="4.64437">
        <ele>532.2</ele>
        <time>2022-06-25T14:05:27Z</time>
      </trkpt>
      <trkpt lat="46.21064" lon="4.64433">
        <ele>532.2</ele>
        <time>2022-06-25T14:05:28Z</time>
      </trkpt>
      <trkpt lat="46.21061" lon="4.64429">
        <ele>532.2</ele>
        <time>2022-06-25T14:05:29Z</time>
      </trkpt>
      <trkpt lat="46.21058" lon="4.64426">
        <ele>532.2</ele>
        <time>2022-06-25T14:05:30Z</time>
      </trkpt>
      <trkpt lat="46.21054" lon="4.64423">
        <ele>532.2</ele>
        <time>2022-06-25T14:05:31Z</time>
      </trkpt>
      <trkpt lat="46.2105" lon="4.64419">
        <ele>532.2</ele>
        <time>2022-06-25T14:05:32Z</time>
      </trkpt>
      <trkpt lat="46.21046" lon="4.64416">
        <ele>532.2</ele>
        <time>2022-06-25T14:05:33Z</time>
      </trkpt>
      <trkpt lat="46.21042" lon="4.64413">
        <ele>532.2</ele>
        <time>2022-06-25T14:05:34Z</time>
      </trkpt>
      <trkpt lat="46.21038" lon="4.6441">
        <ele>532.2</ele>
        <time>2022-06-25T14:05:35Z</time>
      </trkpt>
      <trkpt lat="46.21034" lon="4.64407">
        <ele>532.2</ele>
        <time>2022-06-25T14:05:36Z</time>
      </trkpt>
      <trkpt lat="46.2103" lon="4.64405">
        <ele>532.2</ele>
        <time>2022-06-25T14:05:37Z</time>
      </trkpt>
      <trkpt lat="46.21026" lon="4.64402">
        <ele>531.8</ele>
        <time>2022-06-25T14:05:38Z</time>
      </trkpt>
      <trkpt lat="46.21021" lon="4.64399">
        <ele>531.8</ele>
        <time>2022-06-25T14:05:39Z</time>
      </trkpt>
      <trkpt lat="46.21017" lon="4.64396">
        <ele>531.8</ele>
        <time>2022-06-25T14:05:40Z</time>
      </trkpt>
      <trkpt lat="46.21012" lon="4.64393">
        <ele>531.6</ele>
        <time>2022-06-25T14:05:41Z</time>
      </trkpt>
      <trkpt lat="46.21006" lon="4.64391">
        <ele>531.6</ele>
        <time>2022-06-25T14:05:42Z</time>
      </trkpt>
      <trkpt lat="46.21" lon="4.64388">
        <ele>531.2</ele>
        <time>2022-06-25T14:05:43Z</time>
      </trkpt>
      <trkpt lat="46.20995" lon="4.64384">
        <ele>530.8</ele>
        <time>2022-06-25T14:05:44Z</time>
      </trkpt>
      <trkpt lat="46.20989" lon="4.64381">
        <ele>530.6</ele>
        <time>2022-06-25T14:05:45Z</time>
      </trkpt>
      <trkpt lat="46.20983" lon="4.64377">
        <ele>530.2</ele>
        <time>2022-06-25T14:05:46Z</time>
      </trkpt>
      <trkpt lat="46.20977" lon="4.64373">
        <ele>529.8</ele>
        <time>2022-06-25T14:05:47Z</time>
      </trkpt>
      <trkpt lat="46.2097" lon="4.64369">
        <ele>529.6</ele>
        <time>2022-06-25T14:05:48Z</time>
      </trkpt>
      <trkpt lat="46.20965" lon="4.64365">
        <ele>529.2</ele>
        <time>2022-06-25T14:05:49Z</time>
      </trkpt>
      <trkpt lat="46.20961" lon="4.6436">
        <ele>529</ele>
        <time>2022-06-25T14:05:50Z</time>
      </trkpt>
      <trkpt lat="46.20958" lon="4.64356">
        <ele>528.6</ele>
        <time>2022-06-25T14:05:51Z</time>
      </trkpt>
      <trkpt lat="46.20955" lon="4.64353">
        <ele>528.4</ele>
        <time>2022-06-25T14:05:52Z</time>
      </trkpt>
      <trkpt lat="46.20954" lon="4.64351">
        <ele>528.2</ele>
        <time>2022-06-25T14:05:53Z</time>
      </trkpt>
      <trkpt lat="46.20952" lon="4.6435">
        <ele>528</ele>
        <time>2022-06-25T14:05:54Z</time>
      </trkpt>
      <trkpt lat="46.20951" lon="4.64351">
        <ele>528</ele>
        <time>2022-06-25T14:05:55Z</time>
      </trkpt>
      <trkpt lat="46.2095" lon="4.64353">
        <ele>527.6</ele>
        <time>2022-06-25T14:05:56Z</time>
      </trkpt>
      <trkpt lat="46.2095" lon="4.64355">
        <ele>527.6</ele>
        <time>2022-06-25T14:05:57Z</time>
      </trkpt>
      <trkpt lat="46.20951" lon="4.64357">
        <ele>527.6</ele>
        <time>2022-06-25T14:05:58Z</time>
      </trkpt>
      <trkpt lat="46.20951" lon="4.64358">
        <ele>527.6</ele>
        <time>2022-06-25T14:06:00Z</time>
      </trkpt>
      <trkpt lat="46.20952" lon="4.64358">
        <ele>527.6</ele>
        <time>2022-06-25T14:06:01Z</time>
      </trkpt>
      <trkpt lat="46.20952" lon="4.64358">
        <ele>527.8</ele>
        <time>2022-06-25T14:06:37Z</time>
      </trkpt>
      <trkpt lat="46.20952" lon="4.64358">
        <ele>527.6</ele>
        <time>2022-06-25T14:07:17Z</time>
      </trkpt>
      <trkpt lat="46.20952" lon="4.64358">
        <ele>527.6</ele>
        <time>2022-06-25T14:07:56Z</time>
      </trkpt>
      <trkpt lat="46.20952" lon="4.64358">
        <ele>527.6</ele>
        <time>2022-06-25T14:08:31Z</time>
      </trkpt>
      <trkpt lat="46.2095" lon="4.64354">
        <ele>527.4</ele>
        <time>2022-06-25T14:09:02Z</time>
      </trkpt>
      <trkpt lat="46.20948" lon="4.64352">
        <ele>527.4</ele>
        <time>2022-06-25T14:09:03Z</time>
      </trkpt>
      <trkpt lat="46.20946" lon="4.6435">
        <ele>527.4</ele>
        <time>2022-06-25T14:09:04Z</time>
      </trkpt>
      <trkpt lat="46.20943" lon="4.64348">
        <ele>527.2</ele>
        <time>2022-06-25T14:09:05Z</time>
      </trkpt>
      <trkpt lat="46.2094" lon="4.64346">
        <ele>527.2</ele>
        <time>2022-06-25T14:09:06Z</time>
      </trkpt>
      <trkpt lat="46.20936" lon="4.64344">
        <ele>527</ele>
        <time>2022-06-25T14:09:07Z</time>
      </trkpt>
      <trkpt lat="46.20933" lon="4.64341">
        <ele>527</ele>
        <time>2022-06-25T14:09:08Z</time>
      </trkpt>
      <trkpt lat="46.20929" lon="4.64338">
        <ele>527</ele>
        <time>2022-06-25T14:09:09Z</time>
      </trkpt>
      <trkpt lat="46.20925" lon="4.64336">
        <ele>526.6</ele>
        <time>2022-06-25T14:09:10Z</time>
      </trkpt>
      <trkpt lat="46.20921" lon="4.64332">
        <ele>526.6</ele>
        <time>2022-06-25T14:09:11Z</time>
      </trkpt>
      <trkpt lat="46.20917" lon="4.64329">
        <ele>526.2</ele>
        <time>2022-06-25T14:09:12Z</time>
      </trkpt>
      <trkpt lat="46.20913" lon="4.64324">
        <ele>526.2</ele>
        <time>2022-06-25T14:09:13Z</time>
      </trkpt>
      <trkpt lat="46.20909" lon="4.64317">
        <ele>525.8</ele>
        <time>2022-06-25T14:09:14Z</time>
      </trkpt>
      <trkpt lat="46.20905" lon="4.64311">
        <ele>525.6</ele>
        <time>2022-06-25T14:09:15Z</time>
      </trkpt>
      <trkpt lat="46.20901" lon="4.64304">
        <ele>525.4</ele>
        <time>2022-06-25T14:09:16Z</time>
      </trkpt>
      <trkpt lat="46.20897" lon="4.64297">
        <ele>525.4</ele>
        <time>2022-06-25T14:09:17Z</time>
      </trkpt>
      <trkpt lat="46.20893" lon="4.6429">
        <ele>525.2</ele>
        <time>2022-06-25T14:09:18Z</time>
      </trkpt>
      <trkpt lat="46.20888" lon="4.64283">
        <ele>524.8</ele>
        <time>2022-06-25T14:09:19Z</time>
      </trkpt>
      <trkpt lat="46.20884" lon="4.64276">
        <ele>524.4</ele>
        <time>2022-06-25T14:09:20Z</time>
      </trkpt>
      <trkpt lat="46.20879" lon="4.64269">
        <ele>524.2</ele>
        <time>2022-06-25T14:09:21Z</time>
      </trkpt>
      <trkpt lat="46.20873" lon="4.64264">
        <ele>523.8</ele>
        <time>2022-06-25T14:09:22Z</time>
      </trkpt>
      <trkpt lat="46.20866" lon="4.64259">
        <ele>523.4</ele>
        <time>2022-06-25T14:09:23Z</time>
      </trkpt>
      <trkpt lat="46.20859" lon="4.64254">
        <ele>523.2</ele>
        <time>2022-06-25T14:09:24Z</time>
      </trkpt>
      <trkpt lat="46.20852" lon="4.64251">
        <ele>523</ele>
        <time>2022-06-25T14:09:25Z</time>
      </trkpt>
      <trkpt lat="46.20844" lon="4.64249">
        <ele>522.6</ele>
        <time>2022-06-25T14:09:26Z</time>
      </trkpt>
      <trkpt lat="46.20836" lon="4.64249">
        <ele>522.2</ele>
        <time>2022-06-25T14:09:27Z</time>
      </trkpt>
      <trkpt lat="46.20828" lon="4.64251">
        <ele>522</ele>
        <time>2022-06-25T14:09:28Z</time>
      </trkpt>
      <trkpt lat="46.2082" lon="4.64255">
        <ele>521.6</ele>
        <time>2022-06-25T14:09:29Z</time>
      </trkpt>
      <trkpt lat="46.20812" lon="4.64262">
        <ele>521</ele>
        <time>2022-06-25T14:09:30Z</time>
      </trkpt>
      <trkpt lat="46.20806" lon="4.6427">
        <ele>520.6</ele>
        <time>2022-06-25T14:09:31Z</time>
      </trkpt>
      <trkpt lat="46.208" lon="4.6428">
        <ele>520</ele>
        <time>2022-06-25T14:09:32Z</time>
      </trkpt>
      <trkpt lat="46.20794" lon="4.64292">
        <ele>519.6</ele>
        <time>2022-06-25T14:09:33Z</time>
      </trkpt>
      <trkpt lat="46.20788" lon="4.64304">
        <ele>519</ele>
        <time>2022-06-25T14:09:34Z</time>
      </trkpt>
      <trkpt lat="46.20782" lon="4.64314">
        <ele>518.6</ele>
        <time>2022-06-25T14:09:35Z</time>
      </trkpt>
      <trkpt lat="46.20776" lon="4.64326">
        <ele>518.2</ele>
        <time>2022-06-25T14:09:36Z</time>
      </trkpt>
      <trkpt lat="46.20771" lon="4.64337">
        <ele>517.6</ele>
        <time>2022-06-25T14:09:37Z</time>
      </trkpt>
      <trkpt lat="46.20764" lon="4.6435">
        <ele>517</ele>
        <time>2022-06-25T14:09:38Z</time>
      </trkpt>
      <trkpt lat="46.20758" lon="4.64361">
        <ele>516.6</ele>
        <time>2022-06-25T14:09:39Z</time>
      </trkpt>
      <trkpt lat="46.20752" lon="4.64373">
        <ele>516.2</ele>
        <time>2022-06-25T14:09:40Z</time>
      </trkpt>
      <trkpt lat="46.20747" lon="4.64385">
        <ele>515.8</ele>
        <time>2022-06-25T14:09:41Z</time>
      </trkpt>
      <trkpt lat="46.20741" lon="4.64395">
        <ele>515.8</ele>
        <time>2022-06-25T14:09:42Z</time>
      </trkpt>
      <trkpt lat="46.20736" lon="4.64403">
        <ele>515.8</ele>
        <time>2022-06-25T14:09:43Z</time>
      </trkpt>
      <trkpt lat="46.20731" lon="4.64411">
        <ele>515.8</ele>
        <time>2022-06-25T14:09:44Z</time>
      </trkpt>
      <trkpt lat="46.20726" lon="4.64418">
        <ele>515.8</ele>
        <time>2022-06-25T14:09:45Z</time>
      </trkpt>
      <trkpt lat="46.20721" lon="4.64424">
        <ele>516</ele>
        <time>2022-06-25T14:09:46Z</time>
      </trkpt>
      <trkpt lat="46.20717" lon="4.6443">
        <ele>516.4</ele>
        <time>2022-06-25T14:09:47Z</time>
      </trkpt>
      <trkpt lat="46.20714" lon="4.64435">
        <ele>516.6</ele>
        <time>2022-06-25T14:09:48Z</time>
      </trkpt>
      <trkpt lat="46.2071" lon="4.64439">
        <ele>517</ele>
        <time>2022-06-25T14:09:49Z</time>
      </trkpt>
      <trkpt lat="46.20707" lon="4.64443">
        <ele>517.2</ele>
        <time>2022-06-25T14:09:50Z</time>
      </trkpt>
      <trkpt lat="46.20704" lon="4.64447">
        <ele>517.6</ele>
        <time>2022-06-25T14:09:51Z</time>
      </trkpt>
      <trkpt lat="46.20701" lon="4.6445">
        <ele>517.8</ele>
        <time>2022-06-25T14:09:52Z</time>
      </trkpt>
      <trkpt lat="46.20698" lon="4.64454">
        <ele>518.2</ele>
        <time>2022-06-25T14:09:53Z</time>
      </trkpt>
      <trkpt lat="46.20696" lon="4.64457">
        <ele>518.4</ele>
        <time>2022-06-25T14:09:54Z</time>
      </trkpt>
      <trkpt lat="46.20693" lon="4.6446">
        <ele>518.6</ele>
        <time>2022-06-25T14:09:55Z</time>
      </trkpt>
      <trkpt lat="46.2069" lon="4.64463">
        <ele>518.8</ele>
        <time>2022-06-25T14:09:56Z</time>
      </trkpt>
      <trkpt lat="46.20688" lon="4.64466">
        <ele>519.2</ele>
        <time>2022-06-25T14:09:57Z</time>
      </trkpt>
      <trkpt lat="46.20685" lon="4.64468">
        <ele>519.4</ele>
        <time>2022-06-25T14:09:58Z</time>
      </trkpt>
      <trkpt lat="46.20683" lon="4.64471">
        <ele>519.8</ele>
        <time>2022-06-25T14:09:59Z</time>
      </trkpt>
      <trkpt lat="46.2068" lon="4.64473">
        <ele>520</ele>
        <time>2022-06-25T14:10:00Z</time>
      </trkpt>
      <trkpt lat="46.20677" lon="4.64475">
        <ele>520.2</ele>
        <time>2022-06-25T14:10:01Z</time>
      </trkpt>
      <trkpt lat="46.20675" lon="4.64478">
        <ele>520.2</ele>
        <time>2022-06-25T14:10:02Z</time>
      </trkpt>
      <trkpt lat="46.20672" lon="4.6448">
        <ele>520.6</ele>
        <time>2022-06-25T14:10:03Z</time>
      </trkpt>
      <trkpt lat="46.2067" lon="4.64483">
        <ele>520.6</ele>
        <time>2022-06-25T14:10:04Z</time>
      </trkpt>
      <trkpt lat="46.20667" lon="4.64486">
        <ele>521</ele>
        <time>2022-06-25T14:10:05Z</time>
      </trkpt>
      <trkpt lat="46.20665" lon="4.64488">
        <ele>521</ele>
        <time>2022-06-25T14:10:06Z</time>
      </trkpt>
      <trkpt lat="46.20662" lon="4.64491">
        <ele>521.4</ele>
        <time>2022-06-25T14:10:07Z</time>
      </trkpt>
      <trkpt lat="46.2066" lon="4.64493">
        <ele>521.4</ele>
        <time>2022-06-25T14:10:08Z</time>
      </trkpt>
      <trkpt lat="46.20657" lon="4.64495">
        <ele>521.8</ele>
        <time>2022-06-25T14:10:09Z</time>
      </trkpt>
      <trkpt lat="46.20654" lon="4.64497">
        <ele>522</ele>
        <time>2022-06-25T14:10:10Z</time>
      </trkpt>
      <trkpt lat="46.20651" lon="4.645">
        <ele>522.4</ele>
        <time>2022-06-25T14:10:11Z</time>
      </trkpt>
      <trkpt lat="46.20648" lon="4.64502">
        <ele>522.6</ele>
        <time>2022-06-25T14:10:12Z</time>
      </trkpt>
      <trkpt lat="46.20645" lon="4.64503">
        <ele>522.6</ele>
        <time>2022-06-25T14:10:13Z</time>
      </trkpt>
      <trkpt lat="46.20642" lon="4.64504">
        <ele>523</ele>
        <time>2022-06-25T14:10:14Z</time>
      </trkpt>
      <trkpt lat="46.20639" lon="4.64505">
        <ele>523.4</ele>
        <time>2022-06-25T14:10:15Z</time>
      </trkpt>
      <trkpt lat="46.20636" lon="4.64505">
        <ele>523.6</ele>
        <time>2022-06-25T14:10:16Z</time>
      </trkpt>
      <trkpt lat="46.20633" lon="4.64506">
        <ele>523.6</ele>
        <time>2022-06-25T14:10:17Z</time>
      </trkpt>
      <trkpt lat="46.20631" lon="4.64507">
        <ele>524</ele>
        <time>2022-06-25T14:10:18Z</time>
      </trkpt>
      <trkpt lat="46.20628" lon="4.64507">
        <ele>524.2</ele>
        <time>2022-06-25T14:10:19Z</time>
      </trkpt>
      <trkpt lat="46.20625" lon="4.64507">
        <ele>524.6</ele>
        <time>2022-06-25T14:10:20Z</time>
      </trkpt>
      <trkpt lat="46.20622" lon="4.64507">
        <ele>524.6</ele>
        <time>2022-06-25T14:10:21Z</time>
      </trkpt>
      <trkpt lat="46.20619" lon="4.64507">
        <ele>524.8</ele>
        <time>2022-06-25T14:10:22Z</time>
      </trkpt>
      <trkpt lat="46.20616" lon="4.64507">
        <ele>524.8</ele>
        <time>2022-06-25T14:10:23Z</time>
      </trkpt>
      <trkpt lat="46.20614" lon="4.64507">
        <ele>525.2</ele>
        <time>2022-06-25T14:10:24Z</time>
      </trkpt>
      <trkpt lat="46.20611" lon="4.64506">
        <ele>525.4</ele>
        <time>2022-06-25T14:10:25Z</time>
      </trkpt>
      <trkpt lat="46.20608" lon="4.64505">
        <ele>525.4</ele>
        <time>2022-06-25T14:10:26Z</time>
      </trkpt>
      <trkpt lat="46.20605" lon="4.64505">
        <ele>525.8</ele>
        <time>2022-06-25T14:10:27Z</time>
      </trkpt>
      <trkpt lat="46.20602" lon="4.64505">
        <ele>525.8</ele>
        <time>2022-06-25T14:10:28Z</time>
      </trkpt>
      <trkpt lat="46.206" lon="4.64505">
        <ele>526</ele>
        <time>2022-06-25T14:10:29Z</time>
      </trkpt>
      <trkpt lat="46.20597" lon="4.64504">
        <ele>526</ele>
        <time>2022-06-25T14:10:30Z</time>
      </trkpt>
      <trkpt lat="46.20595" lon="4.64503">
        <ele>526.4</ele>
        <time>2022-06-25T14:10:31Z</time>
      </trkpt>
      <trkpt lat="46.20592" lon="4.64502">
        <ele>526.4</ele>
        <time>2022-06-25T14:10:32Z</time>
      </trkpt>
      <trkpt lat="46.2059" lon="4.645">
        <ele>526.8</ele>
        <time>2022-06-25T14:10:33Z</time>
      </trkpt>
      <trkpt lat="46.20587" lon="4.64499">
        <ele>526.8</ele>
        <time>2022-06-25T14:10:34Z</time>
      </trkpt>
      <trkpt lat="46.20585" lon="4.64497">
        <ele>527.2</ele>
        <time>2022-06-25T14:10:35Z</time>
      </trkpt>
      <trkpt lat="46.20583" lon="4.64495">
        <ele>527.2</ele>
        <time>2022-06-25T14:10:36Z</time>
      </trkpt>
      <trkpt lat="46.20581" lon="4.64493">
        <ele>527.6</ele>
        <time>2022-06-25T14:10:37Z</time>
      </trkpt>
      <trkpt lat="46.20578" lon="4.64492">
        <ele>527.8</ele>
        <time>2022-06-25T14:10:38Z</time>
      </trkpt>
      <trkpt lat="46.20576" lon="4.6449">
        <ele>527.8</ele>
        <time>2022-06-25T14:10:39Z</time>
      </trkpt>
      <trkpt lat="46.20574" lon="4.64489">
        <ele>528</ele>
        <time>2022-06-25T14:10:40Z</time>
      </trkpt>
      <trkpt lat="46.20571" lon="4.64487">
        <ele>528</ele>
        <time>2022-06-25T14:10:41Z</time>
      </trkpt>
      <trkpt lat="46.20569" lon="4.64486">
        <ele>528.4</ele>
        <time>2022-06-25T14:10:42Z</time>
      </trkpt>
      <trkpt lat="46.20567" lon="4.64485">
        <ele>528.4</ele>
        <time>2022-06-25T14:10:43Z</time>
      </trkpt>
      <trkpt lat="46.20565" lon="4.64484">
        <ele>528.8</ele>
        <time>2022-06-25T14:10:44Z</time>
      </trkpt>
      <trkpt lat="46.20563" lon="4.64482">
        <ele>528.8</ele>
        <time>2022-06-25T14:10:45Z</time>
      </trkpt>
      <trkpt lat="46.20561" lon="4.64481">
        <ele>529.2</ele>
        <time>2022-06-25T14:10:46Z</time>
      </trkpt>
      <trkpt lat="46.20558" lon="4.64479">
        <ele>529.4</ele>
        <time>2022-06-25T14:10:47Z</time>
      </trkpt>
      <trkpt lat="46.20556" lon="4.64478">
        <ele>529.4</ele>
        <time>2022-06-25T14:10:48Z</time>
      </trkpt>
      <trkpt lat="46.20554" lon="4.64476">
        <ele>529.8</ele>
        <time>2022-06-25T14:10:49Z</time>
      </trkpt>
      <trkpt lat="46.20552" lon="4.64474">
        <ele>530</ele>
        <time>2022-06-25T14:10:50Z</time>
      </trkpt>
      <trkpt lat="46.2055" lon="4.64472">
        <ele>530</ele>
        <time>2022-06-25T14:10:51Z</time>
      </trkpt>
      <trkpt lat="46.20548" lon="4.6447">
        <ele>530.2</ele>
        <time>2022-06-25T14:10:52Z</time>
      </trkpt>
      <trkpt lat="46.20546" lon="4.64469">
        <ele>530.2</ele>
        <time>2022-06-25T14:10:53Z</time>
      </trkpt>
      <trkpt lat="46.20543" lon="4.64467">
        <ele>530.6</ele>
        <time>2022-06-25T14:10:54Z</time>
      </trkpt>
      <trkpt lat="46.20541" lon="4.64466">
        <ele>530.8</ele>
        <time>2022-06-25T14:10:55Z</time>
      </trkpt>
      <trkpt lat="46.20538" lon="4.64465">
        <ele>531</ele>
        <time>2022-06-25T14:10:56Z</time>
      </trkpt>
      <trkpt lat="46.20536" lon="4.64464">
        <ele>531</ele>
        <time>2022-06-25T14:10:57Z</time>
      </trkpt>
      <trkpt lat="46.20533" lon="4.64463">
        <ele>531.2</ele>
        <time>2022-06-25T14:10:58Z</time>
      </trkpt>
      <trkpt lat="46.20531" lon="4.64461">
        <ele>531.2</ele>
        <time>2022-06-25T14:10:59Z</time>
      </trkpt>
      <trkpt lat="46.20529" lon="4.64458">
        <ele>531.6</ele>
        <time>2022-06-25T14:11:00Z</time>
      </trkpt>
      <trkpt lat="46.20528" lon="4.64455">
        <ele>531.8</ele>
        <time>2022-06-25T14:11:01Z</time>
      </trkpt>
      <trkpt lat="46.20526" lon="4.64452">
        <ele>532</ele>
        <time>2022-06-25T14:11:02Z</time>
      </trkpt>
      <trkpt lat="46.20524" lon="4.64449">
        <ele>532.2</ele>
        <time>2022-06-25T14:11:03Z</time>
      </trkpt>
      <trkpt lat="46.20523" lon="4.64446">
        <ele>532.2</ele>
        <time>2022-06-25T14:11:04Z</time>
      </trkpt>
      <trkpt lat="46.20521" lon="4.64443">
        <ele>532.6</ele>
        <time>2022-06-25T14:11:05Z</time>
      </trkpt>
      <trkpt lat="46.20519" lon="4.6444">
        <ele>532.6</ele>
        <time>2022-06-25T14:11:06Z</time>
      </trkpt>
      <trkpt lat="46.20518" lon="4.64437">
        <ele>533</ele>
        <time>2022-06-25T14:11:07Z</time>
      </trkpt>
      <trkpt lat="46.20517" lon="4.64434">
        <ele>533.2</ele>
        <time>2022-06-25T14:11:08Z</time>
      </trkpt>
      <trkpt lat="46.20515" lon="4.64431">
        <ele>533.2</ele>
        <time>2022-06-25T14:11:09Z</time>
      </trkpt>
      <trkpt lat="46.20513" lon="4.64427">
        <ele>533.6</ele>
        <time>2022-06-25T14:11:10Z</time>
      </trkpt>
      <trkpt lat="46.20512" lon="4.64424">
        <ele>533.6</ele>
        <time>2022-06-25T14:11:11Z</time>
      </trkpt>
      <trkpt lat="46.20511" lon="4.64421">
        <ele>534</ele>
        <time>2022-06-25T14:11:12Z</time>
      </trkpt>
      <trkpt lat="46.20509" lon="4.64418">
        <ele>534.2</ele>
        <time>2022-06-25T14:11:13Z</time>
      </trkpt>
      <trkpt lat="46.20507" lon="4.64416">
        <ele>534.2</ele>
        <time>2022-06-25T14:11:14Z</time>
      </trkpt>
      <trkpt lat="46.20505" lon="4.64413">
        <ele>534.4</ele>
        <time>2022-06-25T14:11:15Z</time>
      </trkpt>
      <trkpt lat="46.20503" lon="4.64411">
        <ele>534.8</ele>
        <time>2022-06-25T14:11:16Z</time>
      </trkpt>
      <trkpt lat="46.20501" lon="4.64409">
        <ele>535</ele>
        <time>2022-06-25T14:11:17Z</time>
      </trkpt>
      <trkpt lat="46.20499" lon="4.64407">
        <ele>535.2</ele>
        <time>2022-06-25T14:11:18Z</time>
      </trkpt>
      <trkpt lat="46.20496" lon="4.64405">
        <ele>535.2</ele>
        <time>2022-06-25T14:11:19Z</time>
      </trkpt>
      <trkpt lat="46.20494" lon="4.64403">
        <ele>535.6</ele>
        <time>2022-06-25T14:11:20Z</time>
      </trkpt>
      <trkpt lat="46.20491" lon="4.64402">
        <ele>535.8</ele>
        <time>2022-06-25T14:11:21Z</time>
      </trkpt>
      <trkpt lat="46.20489" lon="4.64401">
        <ele>535.8</ele>
        <time>2022-06-25T14:11:22Z</time>
      </trkpt>
      <trkpt lat="46.20486" lon="4.64399">
        <ele>536.2</ele>
        <time>2022-06-25T14:11:23Z</time>
      </trkpt>
      <trkpt lat="46.20483" lon="4.64399">
        <ele>536.2</ele>
        <time>2022-06-25T14:11:24Z</time>
      </trkpt>
      <trkpt lat="46.2048" lon="4.64398">
        <ele>536.6</ele>
        <time>2022-06-25T14:11:25Z</time>
      </trkpt>
      <trkpt lat="46.20477" lon="4.64397">
        <ele>536.8</ele>
        <time>2022-06-25T14:11:26Z</time>
      </trkpt>
      <trkpt lat="46.20475" lon="4.64396">
        <ele>536.8</ele>
        <time>2022-06-25T14:11:27Z</time>
      </trkpt>
      <trkpt lat="46.20472" lon="4.64396">
        <ele>537.2</ele>
        <time>2022-06-25T14:11:28Z</time>
      </trkpt>
      <trkpt lat="46.20468" lon="4.64397">
        <ele>537.2</ele>
        <time>2022-06-25T14:11:29Z</time>
      </trkpt>
      <trkpt lat="46.20465" lon="4.64397">
        <ele>537.4</ele>
        <time>2022-06-25T14:11:30Z</time>
      </trkpt>
      <trkpt lat="46.20461" lon="4.64397">
        <ele>537.4</ele>
        <time>2022-06-25T14:11:31Z</time>
      </trkpt>
      <trkpt lat="46.20458" lon="4.64397">
        <ele>537.8</ele>
        <time>2022-06-25T14:11:32Z</time>
      </trkpt>
      <trkpt lat="46.20454" lon="4.64397">
        <ele>537.8</ele>
        <time>2022-06-25T14:11:33Z</time>
      </trkpt>
      <trkpt lat="46.20451" lon="4.64396">
        <ele>538</ele>
        <time>2022-06-25T14:11:34Z</time>
      </trkpt>
      <trkpt lat="46.20447" lon="4.64395">
        <ele>538</ele>
        <time>2022-06-25T14:11:35Z</time>
      </trkpt>
      <trkpt lat="46.20444" lon="4.64395">
        <ele>538.2</ele>
        <time>2022-06-25T14:11:36Z</time>
      </trkpt>
      <trkpt lat="46.20441" lon="4.64394">
        <ele>538.2</ele>
        <time>2022-06-25T14:11:37Z</time>
      </trkpt>
      <trkpt lat="46.20438" lon="4.64393">
        <ele>538.2</ele>
        <time>2022-06-25T14:11:38Z</time>
      </trkpt>
      <trkpt lat="46.20434" lon="4.64393">
        <ele>538.6</ele>
        <time>2022-06-25T14:11:39Z</time>
      </trkpt>
      <trkpt lat="46.20431" lon="4.64392">
        <ele>538.6</ele>
        <time>2022-06-25T14:11:40Z</time>
      </trkpt>
      <trkpt lat="46.20428" lon="4.6439">
        <ele>538.8</ele>
        <time>2022-06-25T14:11:41Z</time>
      </trkpt>
      <trkpt lat="46.20425" lon="4.64389">
        <ele>538.8</ele>
        <time>2022-06-25T14:11:42Z</time>
      </trkpt>
      <trkpt lat="46.20422" lon="4.64388">
        <ele>539.2</ele>
        <time>2022-06-25T14:11:43Z</time>
      </trkpt>
      <trkpt lat="46.20419" lon="4.64386">
        <ele>539.2</ele>
        <time>2022-06-25T14:11:44Z</time>
      </trkpt>
      <trkpt lat="46.20416" lon="4.64385">
        <ele>539.4</ele>
        <time>2022-06-25T14:11:45Z</time>
      </trkpt>
      <trkpt lat="46.20413" lon="4.64383">
        <ele>539.4</ele>
        <time>2022-06-25T14:11:46Z</time>
      </trkpt>
      <trkpt lat="46.2041" lon="4.64381">
        <ele>539.6</ele>
        <time>2022-06-25T14:11:47Z</time>
      </trkpt>
      <trkpt lat="46.20407" lon="4.6438">
        <ele>539.6</ele>
        <time>2022-06-25T14:11:48Z</time>
      </trkpt>
      <trkpt lat="46.20404" lon="4.64379">
        <ele>539.8</ele>
        <time>2022-06-25T14:11:49Z</time>
      </trkpt>
      <trkpt lat="46.20401" lon="4.64378">
        <ele>539.8</ele>
        <time>2022-06-25T14:11:50Z</time>
      </trkpt>
      <trkpt lat="46.20398" lon="4.64378">
        <ele>540.2</ele>
        <time>2022-06-25T14:11:51Z</time>
      </trkpt>
      <trkpt lat="46.20395" lon="4.64378">
        <ele>540.2</ele>
        <time>2022-06-25T14:11:52Z</time>
      </trkpt>
      <trkpt lat="46.20392" lon="4.64378">
        <ele>540.6</ele>
        <time>2022-06-25T14:11:53Z</time>
      </trkpt>
      <trkpt lat="46.20389" lon="4.64378">
        <ele>540.6</ele>
        <time>2022-06-25T14:11:54Z</time>
      </trkpt>
      <trkpt lat="46.20385" lon="4.64379">
        <ele>540.8</ele>
        <time>2022-06-25T14:11:55Z</time>
      </trkpt>
      <trkpt lat="46.20382" lon="4.6438">
        <ele>540.8</ele>
        <time>2022-06-25T14:11:56Z</time>
      </trkpt>
      <trkpt lat="46.2038" lon="4.64381">
        <ele>541.2</ele>
        <time>2022-06-25T14:11:57Z</time>
      </trkpt>
      <trkpt lat="46.20377" lon="4.64382">
        <ele>541.4</ele>
        <time>2022-06-25T14:11:58Z</time>
      </trkpt>
      <trkpt lat="46.20374" lon="4.64384">
        <ele>541.4</ele>
        <time>2022-06-25T14:11:59Z</time>
      </trkpt>
      <trkpt lat="46.20372" lon="4.64384">
        <ele>541.8</ele>
        <time>2022-06-25T14:12:00Z</time>
      </trkpt>
      <trkpt lat="46.20369" lon="4.64386">
        <ele>542</ele>
        <time>2022-06-25T14:12:01Z</time>
      </trkpt>
      <trkpt lat="46.20366" lon="4.64387">
        <ele>542</ele>
        <time>2022-06-25T14:12:02Z</time>
      </trkpt>
      <trkpt lat="46.20363" lon="4.64388">
        <ele>542.4</ele>
        <time>2022-06-25T14:12:03Z</time>
      </trkpt>
      <trkpt lat="46.2036" lon="4.64388">
        <ele>542.4</ele>
        <time>2022-06-25T14:12:04Z</time>
      </trkpt>
      <trkpt lat="46.20357" lon="4.64389">
        <ele>542.6</ele>
        <time>2022-06-25T14:12:05Z</time>
      </trkpt>
      <trkpt lat="46.20354" lon="4.6439">
        <ele>542.6</ele>
        <time>2022-06-25T14:12:06Z</time>
      </trkpt>
      <trkpt lat="46.2035" lon="4.64391">
        <ele>543</ele>
        <time>2022-06-25T14:12:07Z</time>
      </trkpt>
      <trkpt lat="46.20347" lon="4.64392">
        <ele>543</ele>
        <time>2022-06-25T14:12:08Z</time>
      </trkpt>
      <trkpt lat="46.20344" lon="4.64392">
        <ele>543.2</ele>
        <time>2022-06-25T14:12:09Z</time>
      </trkpt>
      <trkpt lat="46.20341" lon="4.64392">
        <ele>543.2</ele>
        <time>2022-06-25T14:12:10Z</time>
      </trkpt>
      <trkpt lat="46.20338" lon="4.64392">
        <ele>543.2</ele>
        <time>2022-06-25T14:12:11Z</time>
      </trkpt>
      <trkpt lat="46.20335" lon="4.64392">
        <ele>543.6</ele>
        <time>2022-06-25T14:12:12Z</time>
      </trkpt>
      <trkpt lat="46.20332" lon="4.64392">
        <ele>543.8</ele>
        <time>2022-06-25T14:12:13Z</time>
      </trkpt>
      <trkpt lat="46.20328" lon="4.64392">
        <ele>543.8</ele>
        <time>2022-06-25T14:12:14Z</time>
      </trkpt>
      <trkpt lat="46.20325" lon="4.64392">
        <ele>543.8</ele>
        <time>2022-06-25T14:12:15Z</time>
      </trkpt>
      <trkpt lat="46.20321" lon="4.64393">
        <ele>544.2</ele>
        <time>2022-06-25T14:12:16Z</time>
      </trkpt>
      <trkpt lat="46.20318" lon="4.64393">
        <ele>544.2</ele>
        <time>2022-06-25T14:12:17Z</time>
      </trkpt>
      <trkpt lat="46.20315" lon="4.64394">
        <ele>544.4</ele>
        <time>2022-06-25T14:12:18Z</time>
      </trkpt>
      <trkpt lat="46.20311" lon="4.64394">
        <ele>544.4</ele>
        <time>2022-06-25T14:12:19Z</time>
      </trkpt>
      <trkpt lat="46.20308" lon="4.64393">
        <ele>544.4</ele>
        <time>2022-06-25T14:12:20Z</time>
      </trkpt>
      <trkpt lat="46.20304" lon="4.64393">
        <ele>544.6</ele>
        <time>2022-06-25T14:12:21Z</time>
      </trkpt>
      <trkpt lat="46.203" lon="4.64392">
        <ele>544.6</ele>
        <time>2022-06-25T14:12:22Z</time>
      </trkpt>
      <trkpt lat="46.20297" lon="4.64391">
        <ele>544.6</ele>
        <time>2022-06-25T14:12:23Z</time>
      </trkpt>
      <trkpt lat="46.20293" lon="4.6439">
        <ele>545</ele>
        <time>2022-06-25T14:12:24Z</time>
      </trkpt>
      <trkpt lat="46.2029" lon="4.64388">
        <ele>545</ele>
        <time>2022-06-25T14:12:25Z</time>
      </trkpt>
      <trkpt lat="46.20286" lon="4.64387">
        <ele>545</ele>
        <time>2022-06-25T14:12:26Z</time>
      </trkpt>
      <trkpt lat="46.20283" lon="4.64385">
        <ele>545.2</ele>
        <time>2022-06-25T14:12:27Z</time>
      </trkpt>
      <trkpt lat="46.2028" lon="4.64383">
        <ele>545.2</ele>
        <time>2022-06-25T14:12:28Z</time>
      </trkpt>
      <trkpt lat="46.20277" lon="4.64381">
        <ele>545.2</ele>
        <time>2022-06-25T14:12:29Z</time>
      </trkpt>
      <trkpt lat="46.20274" lon="4.64378">
        <ele>545.4</ele>
        <time>2022-06-25T14:12:30Z</time>
      </trkpt>
      <trkpt lat="46.20271" lon="4.64375">
        <ele>545.4</ele>
        <time>2022-06-25T14:12:31Z</time>
      </trkpt>
      <trkpt lat="46.20268" lon="4.64372">
        <ele>545.4</ele>
        <time>2022-06-25T14:12:32Z</time>
      </trkpt>
      <trkpt lat="46.20265" lon="4.64369">
        <ele>545.6</ele>
        <time>2022-06-25T14:12:33Z</time>
      </trkpt>
      <trkpt lat="46.20262" lon="4.64366">
        <ele>545.6</ele>
        <time>2022-06-25T14:12:34Z</time>
      </trkpt>
      <trkpt lat="46.20259" lon="4.64363">
        <ele>545.6</ele>
        <time>2022-06-25T14:12:35Z</time>
      </trkpt>
      <trkpt lat="46.20256" lon="4.6436">
        <ele>545.8</ele>
        <time>2022-06-25T14:12:36Z</time>
      </trkpt>
      <trkpt lat="46.20253" lon="4.64357">
        <ele>546</ele>
        <time>2022-06-25T14:12:37Z</time>
      </trkpt>
      <trkpt lat="46.20251" lon="4.64354">
        <ele>546</ele>
        <time>2022-06-25T14:12:38Z</time>
      </trkpt>
      <trkpt lat="46.20248" lon="4.64351">
        <ele>546.2</ele>
        <time>2022-06-25T14:12:39Z</time>
      </trkpt>
      <trkpt lat="46.20245" lon="4.64347">
        <ele>546.2</ele>
        <time>2022-06-25T14:12:40Z</time>
      </trkpt>
      <trkpt lat="46.20243" lon="4.64344">
        <ele>546.2</ele>
        <time>2022-06-25T14:12:41Z</time>
      </trkpt>
      <trkpt lat="46.2024" lon="4.6434">
        <ele>546.2</ele>
        <time>2022-06-25T14:12:42Z</time>
      </trkpt>
      <trkpt lat="46.20237" lon="4.64336">
        <ele>546.2</ele>
        <time>2022-06-25T14:12:43Z</time>
      </trkpt>
      <trkpt lat="46.20234" lon="4.64332">
        <ele>546.2</ele>
        <time>2022-06-25T14:12:44Z</time>
      </trkpt>
      <trkpt lat="46.20232" lon="4.64329">
        <ele>546.4</ele>
        <time>2022-06-25T14:12:45Z</time>
      </trkpt>
      <trkpt lat="46.20229" lon="4.64325">
        <ele>546.4</ele>
        <time>2022-06-25T14:12:46Z</time>
      </trkpt>
      <trkpt lat="46.20227" lon="4.64322">
        <ele>546.8</ele>
        <time>2022-06-25T14:12:47Z</time>
      </trkpt>
      <trkpt lat="46.20224" lon="4.64317">
        <ele>546.8</ele>
        <time>2022-06-25T14:12:48Z</time>
      </trkpt>
      <trkpt lat="46.20222" lon="4.64313">
        <ele>546.8</ele>
        <time>2022-06-25T14:12:49Z</time>
      </trkpt>
      <trkpt lat="46.20219" lon="4.64309">
        <ele>547</ele>
        <time>2022-06-25T14:12:50Z</time>
      </trkpt>
      <trkpt lat="46.20216" lon="4.64305">
        <ele>547</ele>
        <time>2022-06-25T14:12:51Z</time>
      </trkpt>
      <trkpt lat="46.20214" lon="4.64301">
        <ele>547</ele>
        <time>2022-06-25T14:12:52Z</time>
      </trkpt>
      <trkpt lat="46.20211" lon="4.64297">
        <ele>547</ele>
        <time>2022-06-25T14:12:53Z</time>
      </trkpt>
      <trkpt lat="46.20208" lon="4.64293">
        <ele>547.2</ele>
        <time>2022-06-25T14:12:54Z</time>
      </trkpt>
      <trkpt lat="46.20205" lon="4.64289">
        <ele>547.2</ele>
        <time>2022-06-25T14:12:55Z</time>
      </trkpt>
      <trkpt lat="46.20202" lon="4.64285">
        <ele>547.6</ele>
        <time>2022-06-25T14:12:56Z</time>
      </trkpt>
      <trkpt lat="46.202" lon="4.6428">
        <ele>547.6</ele>
        <time>2022-06-25T14:12:57Z</time>
      </trkpt>
      <trkpt lat="46.20198" lon="4.64276">
        <ele>547.8</ele>
        <time>2022-06-25T14:12:58Z</time>
      </trkpt>
      <trkpt lat="46.20195" lon="4.64271">
        <ele>547.8</ele>
        <time>2022-06-25T14:12:59Z</time>
      </trkpt>
      <trkpt lat="46.20193" lon="4.64266">
        <ele>548.2</ele>
        <time>2022-06-25T14:13:00Z</time>
      </trkpt>
      <trkpt lat="46.20191" lon="4.64261">
        <ele>548.2</ele>
        <time>2022-06-25T14:13:01Z</time>
      </trkpt>
      <trkpt lat="46.20189" lon="4.64256">
        <ele>548.4</ele>
        <time>2022-06-25T14:13:02Z</time>
      </trkpt>
      <trkpt lat="46.20188" lon="4.64251">
        <ele>548.4</ele>
        <time>2022-06-25T14:13:03Z</time>
      </trkpt>
      <trkpt lat="46.20186" lon="4.64246">
        <ele>548.4</ele>
        <time>2022-06-25T14:13:04Z</time>
      </trkpt>
      <trkpt lat="46.20185" lon="4.6424">
        <ele>548.4</ele>
        <time>2022-06-25T14:13:05Z</time>
      </trkpt>
      <trkpt lat="46.20183" lon="4.64235">
        <ele>548.4</ele>
        <time>2022-06-25T14:13:06Z</time>
      </trkpt>
      <trkpt lat="46.20182" lon="4.64229">
        <ele>548.4</ele>
        <time>2022-06-25T14:13:07Z</time>
      </trkpt>
      <trkpt lat="46.2018" lon="4.64224">
        <ele>548.4</ele>
        <time>2022-06-25T14:13:08Z</time>
      </trkpt>
      <trkpt lat="46.20178" lon="4.64218">
        <ele>548.4</ele>
        <time>2022-06-25T14:13:09Z</time>
      </trkpt>
      <trkpt lat="46.20176" lon="4.64212">
        <ele>548.4</ele>
        <time>2022-06-25T14:13:10Z</time>
      </trkpt>
      <trkpt lat="46.20174" lon="4.64207">
        <ele>548.4</ele>
        <time>2022-06-25T14:13:11Z</time>
      </trkpt>
      <trkpt lat="46.20171" lon="4.64201">
        <ele>548.4</ele>
        <time>2022-06-25T14:13:12Z</time>
      </trkpt>
      <trkpt lat="46.20168" lon="4.64196">
        <ele>548.4</ele>
        <time>2022-06-25T14:13:13Z</time>
      </trkpt>
      <trkpt lat="46.20164" lon="4.64191">
        <ele>548.4</ele>
        <time>2022-06-25T14:13:14Z</time>
      </trkpt>
      <trkpt lat="46.2016" lon="4.64189">
        <ele>548.4</ele>
        <time>2022-06-25T14:13:15Z</time>
      </trkpt>
      <trkpt lat="46.20155" lon="4.64187">
        <ele>548.4</ele>
        <time>2022-06-25T14:13:16Z</time>
      </trkpt>
      <trkpt lat="46.2015" lon="4.64188">
        <ele>548.4</ele>
        <time>2022-06-25T14:13:17Z</time>
      </trkpt>
      <trkpt lat="46.20146" lon="4.6419">
        <ele>548.8</ele>
        <time>2022-06-25T14:13:18Z</time>
      </trkpt>
      <trkpt lat="46.20141" lon="4.64194">
        <ele>548.8</ele>
        <time>2022-06-25T14:13:19Z</time>
      </trkpt>
      <trkpt lat="46.20138" lon="4.64199">
        <ele>548.8</ele>
        <time>2022-06-25T14:13:20Z</time>
      </trkpt>
      <trkpt lat="46.20135" lon="4.64204">
        <ele>549</ele>
        <time>2022-06-25T14:13:21Z</time>
      </trkpt>
      <trkpt lat="46.20133" lon="4.6421">
        <ele>549</ele>
        <time>2022-06-25T14:13:22Z</time>
      </trkpt>
      <trkpt lat="46.20132" lon="4.64215">
        <ele>549.2</ele>
        <time>2022-06-25T14:13:23Z</time>
      </trkpt>
      <trkpt lat="46.2013" lon="4.64221">
        <ele>549.2</ele>
        <time>2022-06-25T14:13:24Z</time>
      </trkpt>
      <trkpt lat="46.20129" lon="4.64226">
        <ele>549.2</ele>
        <time>2022-06-25T14:13:25Z</time>
      </trkpt>
      <trkpt lat="46.20128" lon="4.64232">
        <ele>549.4</ele>
        <time>2022-06-25T14:13:26Z</time>
      </trkpt>
      <trkpt lat="46.20127" lon="4.64238">
        <ele>549.4</ele>
        <time>2022-06-25T14:13:27Z</time>
      </trkpt>
      <trkpt lat="46.20125" lon="4.64244">
        <ele>549.8</ele>
        <time>2022-06-25T14:13:28Z</time>
      </trkpt>
      <trkpt lat="46.20124" lon="4.64249">
        <ele>549.8</ele>
        <time>2022-06-25T14:13:29Z</time>
      </trkpt>
      <trkpt lat="46.20122" lon="4.64255">
        <ele>549.8</ele>
        <time>2022-06-25T14:13:30Z</time>
      </trkpt>
      <trkpt lat="46.20121" lon="4.6426">
        <ele>550</ele>
        <time>2022-06-25T14:13:31Z</time>
      </trkpt>
      <trkpt lat="46.20119" lon="4.64265">
        <ele>550</ele>
        <time>2022-06-25T14:13:32Z</time>
      </trkpt>
      <trkpt lat="46.20118" lon="4.64271">
        <ele>550</ele>
        <time>2022-06-25T14:13:33Z</time>
      </trkpt>
      <trkpt lat="46.20116" lon="4.64276">
        <ele>550.2</ele>
        <time>2022-06-25T14:13:34Z</time>
      </trkpt>
      <trkpt lat="46.20114" lon="4.64281">
        <ele>550.2</ele>
        <time>2022-06-25T14:13:35Z</time>
      </trkpt>
      <trkpt lat="46.20112" lon="4.64286">
        <ele>550.2</ele>
        <time>2022-06-25T14:13:36Z</time>
      </trkpt>
      <trkpt lat="46.2011" lon="4.6429">
        <ele>550.6</ele>
        <time>2022-06-25T14:13:37Z</time>
      </trkpt>
      <trkpt lat="46.20108" lon="4.64294">
        <ele>550.6</ele>
        <time>2022-06-25T14:13:38Z</time>
      </trkpt>
      <trkpt lat="46.20106" lon="4.64297">
        <ele>550.6</ele>
        <time>2022-06-25T14:13:39Z</time>
      </trkpt>
      <trkpt lat="46.20104" lon="4.64301">
        <ele>550.8</ele>
        <time>2022-06-25T14:13:40Z</time>
      </trkpt>
      <trkpt lat="46.20102" lon="4.64305">
        <ele>550.8</ele>
        <time>2022-06-25T14:13:41Z</time>
      </trkpt>
      <trkpt lat="46.201" lon="4.64308">
        <ele>550.8</ele>
        <time>2022-06-25T14:13:42Z</time>
      </trkpt>
      <trkpt lat="46.20097" lon="4.64312">
        <ele>551</ele>
        <time>2022-06-25T14:13:43Z</time>
      </trkpt>
      <trkpt lat="46.20095" lon="4.64317">
        <ele>551</ele>
        <time>2022-06-25T14:13:44Z</time>
      </trkpt>
      <trkpt lat="46.20093" lon="4.64321">
        <ele>551</ele>
        <time>2022-06-25T14:13:45Z</time>
      </trkpt>
      <trkpt lat="46.20091" lon="4.64325">
        <ele>551.2</ele>
        <time>2022-06-25T14:13:46Z</time>
      </trkpt>
      <trkpt lat="46.20089" lon="4.6433">
        <ele>551.2</ele>
        <time>2022-06-25T14:13:47Z</time>
      </trkpt>
      <trkpt lat="46.20087" lon="4.64334">
        <ele>551.2</ele>
        <time>2022-06-25T14:13:48Z</time>
      </trkpt>
      <trkpt lat="46.20085" lon="4.64339">
        <ele>551.6</ele>
        <time>2022-06-25T14:13:49Z</time>
      </trkpt>
      <trkpt lat="46.20082" lon="4.64344">
        <ele>551.6</ele>
        <time>2022-06-25T14:13:50Z</time>
      </trkpt>
      <trkpt lat="46.2008" lon="4.64348">
        <ele>551.8</ele>
        <time>2022-06-25T14:13:51Z</time>
      </trkpt>
      <trkpt lat="46.20077" lon="4.64353">
        <ele>551.8</ele>
        <time>2022-06-25T14:13:52Z</time>
      </trkpt>
      <trkpt lat="46.20075" lon="4.64357">
        <ele>551.8</ele>
        <time>2022-06-25T14:13:53Z</time>
      </trkpt>
      <trkpt lat="46.20072" lon="4.64362">
        <ele>552</ele>
        <time>2022-06-25T14:13:54Z</time>
      </trkpt>
      <trkpt lat="46.20069" lon="4.64367">
        <ele>552</ele>
        <time>2022-06-25T14:13:55Z</time>
      </trkpt>
      <trkpt lat="46.20067" lon="4.64372">
        <ele>552.2</ele>
        <time>2022-06-25T14:13:56Z</time>
      </trkpt>
      <trkpt lat="46.20064" lon="4.64377">
        <ele>552.2</ele>
        <time>2022-06-25T14:13:57Z</time>
      </trkpt>
      <trkpt lat="46.20061" lon="4.64383">
        <ele>552.4</ele>
        <time>2022-06-25T14:13:58Z</time>
      </trkpt>
      <trkpt lat="46.20058" lon="4.64389">
        <ele>552.4</ele>
        <time>2022-06-25T14:13:59Z</time>
      </trkpt>
      <trkpt lat="46.20055" lon="4.64394">
        <ele>552.4</ele>
        <time>2022-06-25T14:14:00Z</time>
      </trkpt>
      <trkpt lat="46.20052" lon="4.64399">
        <ele>552.6</ele>
        <time>2022-06-25T14:14:01Z</time>
      </trkpt>
      <trkpt lat="46.20049" lon="4.64404">
        <ele>552.6</ele>
        <time>2022-06-25T14:14:02Z</time>
      </trkpt>
      <trkpt lat="46.20045" lon="4.64409">
        <ele>553</ele>
        <time>2022-06-25T14:14:03Z</time>
      </trkpt>
      <trkpt lat="46.20042" lon="4.64413">
        <ele>553</ele>
        <time>2022-06-25T14:14:04Z</time>
      </trkpt>
      <trkpt lat="46.20039" lon="4.64418">
        <ele>553</ele>
        <time>2022-06-25T14:14:05Z</time>
      </trkpt>
      <trkpt lat="46.20035" lon="4.64422">
        <ele>553.2</ele>
        <time>2022-06-25T14:14:06Z</time>
      </trkpt>
      <trkpt lat="46.20032" lon="4.64427">
        <ele>553.2</ele>
        <time>2022-06-25T14:14:07Z</time>
      </trkpt>
      <trkpt lat="46.20028" lon="4.64431">
        <ele>553.2</ele>
        <time>2022-06-25T14:14:08Z</time>
      </trkpt>
      <trkpt lat="46.20025" lon="4.64435">
        <ele>553.4</ele>
        <time>2022-06-25T14:14:09Z</time>
      </trkpt>
      <trkpt lat="46.20021" lon="4.64439">
        <ele>553.4</ele>
        <time>2022-06-25T14:14:10Z</time>
      </trkpt>
      <trkpt lat="46.20017" lon="4.64443">
        <ele>553.4</ele>
        <time>2022-06-25T14:14:11Z</time>
      </trkpt>
      <trkpt lat="46.20013" lon="4.64447">
        <ele>553.8</ele>
        <time>2022-06-25T14:14:12Z</time>
      </trkpt>
      <trkpt lat="46.2001" lon="4.64451">
        <ele>553.8</ele>
        <time>2022-06-25T14:14:13Z</time>
      </trkpt>
      <trkpt lat="46.20006" lon="4.64454">
        <ele>554</ele>
        <time>2022-06-25T14:14:14Z</time>
      </trkpt>
      <trkpt lat="46.20001" lon="4.64457">
        <ele>554</ele>
        <time>2022-06-25T14:14:15Z</time>
      </trkpt>
      <trkpt lat="46.19997" lon="4.64458">
        <ele>554</ele>
        <time>2022-06-25T14:14:16Z</time>
      </trkpt>
      <trkpt lat="46.19992" lon="4.64459">
        <ele>554.2</ele>
        <time>2022-06-25T14:14:17Z</time>
      </trkpt>
      <trkpt lat="46.19987" lon="4.6446">
        <ele>554.2</ele>
        <time>2022-06-25T14:14:18Z</time>
      </trkpt>
      <trkpt lat="46.19982" lon="4.64459">
        <ele>554.2</ele>
        <time>2022-06-25T14:14:19Z</time>
      </trkpt>
      <trkpt lat="46.19977" lon="4.64458">
        <ele>554.2</ele>
        <time>2022-06-25T14:14:20Z</time>
      </trkpt>
      <trkpt lat="46.19973" lon="4.64456">
        <ele>554.2</ele>
        <time>2022-06-25T14:14:21Z</time>
      </trkpt>
      <trkpt lat="46.19968" lon="4.64452">
        <ele>554.2</ele>
        <time>2022-06-25T14:14:22Z</time>
      </trkpt>
      <trkpt lat="46.19964" lon="4.64448">
        <ele>554</ele>
        <time>2022-06-25T14:14:23Z</time>
      </trkpt>
      <trkpt lat="46.1996" lon="4.64444">
        <ele>554</ele>
        <time>2022-06-25T14:14:24Z</time>
      </trkpt>
      <trkpt lat="46.19956" lon="4.64439">
        <ele>554</ele>
        <time>2022-06-25T14:14:25Z</time>
      </trkpt>
      <trkpt lat="46.19951" lon="4.64434">
        <ele>553.8</ele>
        <time>2022-06-25T14:14:26Z</time>
      </trkpt>
      <trkpt lat="46.19946" lon="4.64429">
        <ele>553.6</ele>
        <time>2022-06-25T14:14:27Z</time>
      </trkpt>
      <trkpt lat="46.19942" lon="4.64425">
        <ele>553.2</ele>
        <time>2022-06-25T14:14:28Z</time>
      </trkpt>
      <trkpt lat="46.19937" lon="4.64421">
        <ele>553.2</ele>
        <time>2022-06-25T14:14:29Z</time>
      </trkpt>
      <trkpt lat="46.19931" lon="4.64417">
        <ele>552.8</ele>
        <time>2022-06-25T14:14:30Z</time>
      </trkpt>
      <trkpt lat="46.19925" lon="4.64414">
        <ele>552.6</ele>
        <time>2022-06-25T14:14:32Z</time>
      </trkpt>
      <trkpt lat="46.19919" lon="4.64412">
        <ele>552.4</ele>
        <time>2022-06-25T14:14:33Z</time>
      </trkpt>
      <trkpt lat="46.19912" lon="4.6441">
        <ele>552.4</ele>
        <time>2022-06-25T14:14:34Z</time>
      </trkpt>
      <trkpt lat="46.19906" lon="4.64408">
        <ele>552.4</ele>
        <time>2022-06-25T14:14:35Z</time>
      </trkpt>
      <trkpt lat="46.19899" lon="4.64407">
        <ele>552</ele>
        <time>2022-06-25T14:14:36Z</time>
      </trkpt>
      <trkpt lat="46.19892" lon="4.64405">
        <ele>552</ele>
        <time>2022-06-25T14:14:37Z</time>
      </trkpt>
      <trkpt lat="46.19885" lon="4.64403">
        <ele>551.6</ele>
        <time>2022-06-25T14:14:38Z</time>
      </trkpt>
      <trkpt lat="46.19878" lon="4.64401">
        <ele>551.6</ele>
        <time>2022-06-25T14:14:39Z</time>
      </trkpt>
      <trkpt lat="46.19871" lon="4.64399">
        <ele>551.4</ele>
        <time>2022-06-25T14:14:40Z</time>
      </trkpt>
      <trkpt lat="46.19863" lon="4.64397">
        <ele>551</ele>
        <time>2022-06-25T14:14:41Z</time>
      </trkpt>
      <trkpt lat="46.19856" lon="4.64395">
        <ele>550.8</ele>
        <time>2022-06-25T14:14:42Z</time>
      </trkpt>
      <trkpt lat="46.19849" lon="4.64392">
        <ele>550.4</ele>
        <time>2022-06-25T14:14:43Z</time>
      </trkpt>
      <trkpt lat="46.19842" lon="4.64389">
        <ele>550.2</ele>
        <time>2022-06-25T14:14:44Z</time>
      </trkpt>
      <trkpt lat="46.19835" lon="4.64386">
        <ele>549.8</ele>
        <time>2022-06-25T14:14:45Z</time>
      </trkpt>
      <trkpt lat="46.19828" lon="4.6438">
        <ele>549.4</ele>
        <time>2022-06-25T14:14:46Z</time>
      </trkpt>
      <trkpt lat="46.19822" lon="4.64373">
        <ele>549.2</ele>
        <time>2022-06-25T14:14:47Z</time>
      </trkpt>
      <trkpt lat="46.19817" lon="4.64364">
        <ele>549</ele>
        <time>2022-06-25T14:14:48Z</time>
      </trkpt>
      <trkpt lat="46.19813" lon="4.64354">
        <ele>548.6</ele>
        <time>2022-06-25T14:14:49Z</time>
      </trkpt>
      <trkpt lat="46.1981" lon="4.64344">
        <ele>548.4</ele>
        <time>2022-06-25T14:14:50Z</time>
      </trkpt>
      <trkpt lat="46.19807" lon="4.64333">
        <ele>548</ele>
        <time>2022-06-25T14:14:51Z</time>
      </trkpt>
      <trkpt lat="46.19805" lon="4.64323">
        <ele>547.8</ele>
        <time>2022-06-25T14:14:52Z</time>
      </trkpt>
      <trkpt lat="46.19802" lon="4.64312">
        <ele>547.6</ele>
        <time>2022-06-25T14:14:53Z</time>
      </trkpt>
      <trkpt lat="46.198" lon="4.64301">
        <ele>547.2</ele>
        <time>2022-06-25T14:14:54Z</time>
      </trkpt>
      <trkpt lat="46.19798" lon="4.64289">
        <ele>546.6</ele>
        <time>2022-06-25T14:14:55Z</time>
      </trkpt>
      <trkpt lat="46.19795" lon="4.64277">
        <ele>546.4</ele>
        <time>2022-06-25T14:14:56Z</time>
      </trkpt>
      <trkpt lat="46.19793" lon="4.64266">
        <ele>545.8</ele>
        <time>2022-06-25T14:14:57Z</time>
      </trkpt>
      <trkpt lat="46.1979" lon="4.64254">
        <ele>545.6</ele>
        <time>2022-06-25T14:14:58Z</time>
      </trkpt>
      <trkpt lat="46.19787" lon="4.64241">
        <ele>545.2</ele>
        <time>2022-06-25T14:14:59Z</time>
      </trkpt>
      <trkpt lat="46.19784" lon="4.64229">
        <ele>544.6</ele>
        <time>2022-06-25T14:15:00Z</time>
      </trkpt>
      <trkpt lat="46.19781" lon="4.64216">
        <ele>544.2</ele>
        <time>2022-06-25T14:15:01Z</time>
      </trkpt>
      <trkpt lat="46.19778" lon="4.64203">
        <ele>543.6</ele>
        <time>2022-06-25T14:15:02Z</time>
      </trkpt>
      <trkpt lat="46.19775" lon="4.6419">
        <ele>543.2</ele>
        <time>2022-06-25T14:15:03Z</time>
      </trkpt>
      <trkpt lat="46.19771" lon="4.64178">
        <ele>542.6</ele>
        <time>2022-06-25T14:15:04Z</time>
      </trkpt>
      <trkpt lat="46.19766" lon="4.64165">
        <ele>542.2</ele>
        <time>2022-06-25T14:15:05Z</time>
      </trkpt>
      <trkpt lat="46.19762" lon="4.64151">
        <ele>541.6</ele>
        <time>2022-06-25T14:15:06Z</time>
      </trkpt>
      <trkpt lat="46.19758" lon="4.64138">
        <ele>541.2</ele>
        <time>2022-06-25T14:15:07Z</time>
      </trkpt>
      <trkpt lat="46.19753" lon="4.64125">
        <ele>540.6</ele>
        <time>2022-06-25T14:15:08Z</time>
      </trkpt>
      <trkpt lat="46.19748" lon="4.64114">
        <ele>540.2</ele>
        <time>2022-06-25T14:15:09Z</time>
      </trkpt>
      <trkpt lat="46.19742" lon="4.64106">
        <ele>539.8</ele>
        <time>2022-06-25T14:15:10Z</time>
      </trkpt>
      <trkpt lat="46.19734" lon="4.641">
        <ele>539.6</ele>
        <time>2022-06-25T14:15:11Z</time>
      </trkpt>
      <trkpt lat="46.19726" lon="4.64097">
        <ele>539.2</ele>
        <time>2022-06-25T14:15:12Z</time>
      </trkpt>
      <trkpt lat="46.19717" lon="4.64098">
        <ele>539.2</ele>
        <time>2022-06-25T14:15:13Z</time>
      </trkpt>
      <trkpt lat="46.19709" lon="4.64102">
        <ele>539</ele>
        <time>2022-06-25T14:15:14Z</time>
      </trkpt>
      <trkpt lat="46.19702" lon="4.64109">
        <ele>539</ele>
        <time>2022-06-25T14:15:15Z</time>
      </trkpt>
      <trkpt lat="46.19696" lon="4.64117">
        <ele>539</ele>
        <time>2022-06-25T14:15:16Z</time>
      </trkpt>
      <trkpt lat="46.19691" lon="4.64126">
        <ele>539</ele>
        <time>2022-06-25T14:15:17Z</time>
      </trkpt>
      <trkpt lat="46.19686" lon="4.64134">
        <ele>539.4</ele>
        <time>2022-06-25T14:15:18Z</time>
      </trkpt>
      <trkpt lat="46.19681" lon="4.64142">
        <ele>539.4</ele>
        <time>2022-06-25T14:15:19Z</time>
      </trkpt>
      <trkpt lat="46.19677" lon="4.6415">
        <ele>539.4</ele>
        <time>2022-06-25T14:15:20Z</time>
      </trkpt>
      <trkpt lat="46.19672" lon="4.64158">
        <ele>539.6</ele>
        <time>2022-06-25T14:15:21Z</time>
      </trkpt>
      <trkpt lat="46.19668" lon="4.64164">
        <ele>539.6</ele>
        <time>2022-06-25T14:15:22Z</time>
      </trkpt>
      <trkpt lat="46.19664" lon="4.64171">
        <ele>540</ele>
        <time>2022-06-25T14:15:23Z</time>
      </trkpt>
      <trkpt lat="46.1966" lon="4.64177">
        <ele>540</ele>
        <time>2022-06-25T14:15:24Z</time>
      </trkpt>
      <trkpt lat="46.19656" lon="4.64184">
        <ele>540.2</ele>
        <time>2022-06-25T14:15:25Z</time>
      </trkpt>
      <trkpt lat="46.19652" lon="4.64191">
        <ele>540.4</ele>
        <time>2022-06-25T14:15:26Z</time>
      </trkpt>
      <trkpt lat="46.19648" lon="4.64197">
        <ele>540.4</ele>
        <time>2022-06-25T14:15:27Z</time>
      </trkpt>
      <trkpt lat="46.19644" lon="4.64203">
        <ele>540.6</ele>
        <time>2022-06-25T14:15:28Z</time>
      </trkpt>
      <trkpt lat="46.1964" lon="4.64209">
        <ele>540.6</ele>
        <time>2022-06-25T14:15:29Z</time>
      </trkpt>
      <trkpt lat="46.19637" lon="4.64215">
        <ele>541</ele>
        <time>2022-06-25T14:15:30Z</time>
      </trkpt>
      <trkpt lat="46.19633" lon="4.64221">
        <ele>541</ele>
        <time>2022-06-25T14:15:31Z</time>
      </trkpt>
      <trkpt lat="46.19629" lon="4.64227">
        <ele>541.4</ele>
        <time>2022-06-25T14:15:32Z</time>
      </trkpt>
      <trkpt lat="46.19626" lon="4.64233">
        <ele>541.4</ele>
        <time>2022-06-25T14:15:33Z</time>
      </trkpt>
      <trkpt lat="46.19622" lon="4.64238">
        <ele>541.6</ele>
        <time>2022-06-25T14:15:34Z</time>
      </trkpt>
      <trkpt lat="46.19619" lon="4.64244">
        <ele>541.6</ele>
        <time>2022-06-25T14:15:35Z</time>
      </trkpt>
      <trkpt lat="46.19615" lon="4.64249">
        <ele>541.8</ele>
        <time>2022-06-25T14:15:36Z</time>
      </trkpt>
      <trkpt lat="46.19612" lon="4.64255">
        <ele>541.8</ele>
        <time>2022-06-25T14:15:37Z</time>
      </trkpt>
      <trkpt lat="46.19609" lon="4.6426">
        <ele>541.8</ele>
        <time>2022-06-25T14:15:38Z</time>
      </trkpt>
      <trkpt lat="46.19606" lon="4.64266">
        <ele>542.2</ele>
        <time>2022-06-25T14:15:39Z</time>
      </trkpt>
      <trkpt lat="46.19603" lon="4.64271">
        <ele>542.2</ele>
        <time>2022-06-25T14:15:40Z</time>
      </trkpt>
      <trkpt lat="46.196" lon="4.64276">
        <ele>542.4</ele>
        <time>2022-06-25T14:15:41Z</time>
      </trkpt>
      <trkpt lat="46.19597" lon="4.64282">
        <ele>542.4</ele>
        <time>2022-06-25T14:15:42Z</time>
      </trkpt>
      <trkpt lat="46.19593" lon="4.64287">
        <ele>542.4</ele>
        <time>2022-06-25T14:15:43Z</time>
      </trkpt>
      <trkpt lat="46.1959" lon="4.64291">
        <ele>542.8</ele>
        <time>2022-06-25T14:15:44Z</time>
      </trkpt>
      <trkpt lat="46.19587" lon="4.64295">
        <ele>542.8</ele>
        <time>2022-06-25T14:15:45Z</time>
      </trkpt>
      <trkpt lat="46.19584" lon="4.64299">
        <ele>543</ele>
        <time>2022-06-25T14:15:46Z</time>
      </trkpt>
      <trkpt lat="46.19581" lon="4.64303">
        <ele>543</ele>
        <time>2022-06-25T14:15:47Z</time>
      </trkpt>
      <trkpt lat="46.19578" lon="4.64307">
        <ele>543.2</ele>
        <time>2022-06-25T14:15:48Z</time>
      </trkpt>
      <trkpt lat="46.19574" lon="4.6431">
        <ele>543.2</ele>
        <time>2022-06-25T14:15:49Z</time>
      </trkpt>
      <trkpt lat="46.1957" lon="4.64313">
        <ele>543.6</ele>
        <time>2022-06-25T14:15:50Z</time>
      </trkpt>
      <trkpt lat="46.19567" lon="4.64316">
        <ele>543.6</ele>
        <time>2022-06-25T14:15:51Z</time>
      </trkpt>
      <trkpt lat="46.19564" lon="4.64319">
        <ele>543.8</ele>
        <time>2022-06-25T14:15:52Z</time>
      </trkpt>
      <trkpt lat="46.19561" lon="4.64323">
        <ele>543.8</ele>
        <time>2022-06-25T14:15:53Z</time>
      </trkpt>
      <trkpt lat="46.19557" lon="4.64327">
        <ele>544.2</ele>
        <time>2022-06-25T14:15:54Z</time>
      </trkpt>
      <trkpt lat="46.19554" lon="4.64332">
        <ele>544.2</ele>
        <time>2022-06-25T14:15:55Z</time>
      </trkpt>
      <trkpt lat="46.19551" lon="4.64338">
        <ele>544.2</ele>
        <time>2022-06-25T14:15:56Z</time>
      </trkpt>
      <trkpt lat="46.19549" lon="4.64343">
        <ele>544.4</ele>
        <time>2022-06-25T14:15:57Z</time>
      </trkpt>
      <trkpt lat="46.19547" lon="4.64349">
        <ele>544.4</ele>
        <time>2022-06-25T14:15:58Z</time>
      </trkpt>
      <trkpt lat="46.19546" lon="4.64355">
        <ele>544.8</ele>
        <time>2022-06-25T14:15:59Z</time>
      </trkpt>
      <trkpt lat="46.19546" lon="4.64361">
        <ele>544.8</ele>
        <time>2022-06-25T14:16:00Z</time>
      </trkpt>
      <trkpt lat="46.19546" lon="4.64367">
        <ele>545</ele>
        <time>2022-06-25T14:16:01Z</time>
      </trkpt>
      <trkpt lat="46.19546" lon="4.64374">
        <ele>545</ele>
        <time>2022-06-25T14:16:02Z</time>
      </trkpt>
      <trkpt lat="46.19547" lon="4.64382">
        <ele>545.4</ele>
        <time>2022-06-25T14:16:03Z</time>
      </trkpt>
      <trkpt lat="46.19548" lon="4.64389">
        <ele>545.4</ele>
        <time>2022-06-25T14:16:04Z</time>
      </trkpt>
      <trkpt lat="46.19549" lon="4.64396">
        <ele>545.8</ele>
        <time>2022-06-25T14:16:05Z</time>
      </trkpt>
      <trkpt lat="46.1955" lon="4.64403">
        <ele>545.8</ele>
        <time>2022-06-25T14:16:06Z</time>
      </trkpt>
      <trkpt lat="46.1955" lon="4.6441">
        <ele>546</ele>
        <time>2022-06-25T14:16:07Z</time>
      </trkpt>
      <trkpt lat="46.19551" lon="4.64418">
        <ele>546</ele>
        <time>2022-06-25T14:16:08Z</time>
      </trkpt>
      <trkpt lat="46.19552" lon="4.64424">
        <ele>546.2</ele>
        <time>2022-06-25T14:16:09Z</time>
      </trkpt>
      <trkpt lat="46.19553" lon="4.64431">
        <ele>546.2</ele>
        <time>2022-06-25T14:16:10Z</time>
      </trkpt>
      <trkpt lat="46.19553" lon="4.64438">
        <ele>546.2</ele>
        <time>2022-06-25T14:16:11Z</time>
      </trkpt>
      <trkpt lat="46.19553" lon="4.64445">
        <ele>546.4</ele>
        <time>2022-06-25T14:16:12Z</time>
      </trkpt>
      <trkpt lat="46.19553" lon="4.64452">
        <ele>546.4</ele>
        <time>2022-06-25T14:16:13Z</time>
      </trkpt>
      <trkpt lat="46.19554" lon="4.64458">
        <ele>546.4</ele>
        <time>2022-06-25T14:16:14Z</time>
      </trkpt>
      <trkpt lat="46.19554" lon="4.64465">
        <ele>546.8</ele>
        <time>2022-06-25T14:16:15Z</time>
      </trkpt>
      <trkpt lat="46.19555" lon="4.64471">
        <ele>546.8</ele>
        <time>2022-06-25T14:16:16Z</time>
      </trkpt>
      <trkpt lat="46.19556" lon="4.64477">
        <ele>547</ele>
        <time>2022-06-25T14:16:17Z</time>
      </trkpt>
      <trkpt lat="46.19556" lon="4.64483">
        <ele>547</ele>
        <time>2022-06-25T14:16:18Z</time>
      </trkpt>
      <trkpt lat="46.19556" lon="4.6449">
        <ele>547.2</ele>
        <time>2022-06-25T14:16:19Z</time>
      </trkpt>
      <trkpt lat="46.19557" lon="4.64496">
        <ele>547.2</ele>
        <time>2022-06-25T14:16:20Z</time>
      </trkpt>
      <trkpt lat="46.19558" lon="4.64502">
        <ele>547.6</ele>
        <time>2022-06-25T14:16:21Z</time>
      </trkpt>
      <trkpt lat="46.19559" lon="4.64508">
        <ele>547.6</ele>
        <time>2022-06-25T14:16:22Z</time>
      </trkpt>
      <trkpt lat="46.1956" lon="4.64514">
        <ele>547.6</ele>
        <time>2022-06-25T14:16:23Z</time>
      </trkpt>
      <trkpt lat="46.19561" lon="4.6452">
        <ele>547.8</ele>
        <time>2022-06-25T14:16:24Z</time>
      </trkpt>
      <trkpt lat="46.19562" lon="4.64526">
        <ele>547.8</ele>
        <time>2022-06-25T14:16:25Z</time>
      </trkpt>
      <trkpt lat="46.19563" lon="4.64532">
        <ele>547.8</ele>
        <time>2022-06-25T14:16:26Z</time>
      </trkpt>
      <trkpt lat="46.19563" lon="4.64538">
        <ele>548.2</ele>
        <time>2022-06-25T14:16:27Z</time>
      </trkpt>
      <trkpt lat="46.19563" lon="4.64544">
        <ele>548.2</ele>
        <time>2022-06-25T14:16:28Z</time>
      </trkpt>
      <trkpt lat="46.19564" lon="4.64551">
        <ele>548.2</ele>
        <time>2022-06-25T14:16:29Z</time>
      </trkpt>
      <trkpt lat="46.19564" lon="4.64557">
        <ele>548.4</ele>
        <time>2022-06-25T14:16:30Z</time>
      </trkpt>
      <trkpt lat="46.19564" lon="4.64563">
        <ele>548.4</ele>
        <time>2022-06-25T14:16:31Z</time>
      </trkpt>
      <trkpt lat="46.19564" lon="4.64569">
        <ele>548.6</ele>
        <time>2022-06-25T14:16:32Z</time>
      </trkpt>
      <trkpt lat="46.19563" lon="4.64575">
        <ele>548.6</ele>
        <time>2022-06-25T14:16:33Z</time>
      </trkpt>
      <trkpt lat="46.19562" lon="4.64581">
        <ele>548.6</ele>
        <time>2022-06-25T14:16:34Z</time>
      </trkpt>
      <trkpt lat="46.19562" lon="4.64588">
        <ele>549</ele>
        <time>2022-06-25T14:16:35Z</time>
      </trkpt>
      <trkpt lat="46.19561" lon="4.64594">
        <ele>549</ele>
        <time>2022-06-25T14:16:36Z</time>
      </trkpt>
      <trkpt lat="46.19561" lon="4.646">
        <ele>549.2</ele>
        <time>2022-06-25T14:16:37Z</time>
      </trkpt>
      <trkpt lat="46.1956" lon="4.64606">
        <ele>549.2</ele>
        <time>2022-06-25T14:16:38Z</time>
      </trkpt>
      <trkpt lat="46.19559" lon="4.64612">
        <ele>549.4</ele>
        <time>2022-06-25T14:16:39Z</time>
      </trkpt>
      <trkpt lat="46.19558" lon="4.64618">
        <ele>549.4</ele>
        <time>2022-06-25T14:16:40Z</time>
      </trkpt>
      <trkpt lat="46.19557" lon="4.64623">
        <ele>549.4</ele>
        <time>2022-06-25T14:16:41Z</time>
      </trkpt>
      <trkpt lat="46.19556" lon="4.64629">
        <ele>549.8</ele>
        <time>2022-06-25T14:16:42Z</time>
      </trkpt>
      <trkpt lat="46.19555" lon="4.64635">
        <ele>549.8</ele>
        <time>2022-06-25T14:16:43Z</time>
      </trkpt>
      <trkpt lat="46.19554" lon="4.64641">
        <ele>550.2</ele>
        <time>2022-06-25T14:16:44Z</time>
      </trkpt>
      <trkpt lat="46.19553" lon="4.64647">
        <ele>550.2</ele>
        <time>2022-06-25T14:16:45Z</time>
      </trkpt>
      <trkpt lat="46.19552" lon="4.64653">
        <ele>550.2</ele>
        <time>2022-06-25T14:16:46Z</time>
      </trkpt>
      <trkpt lat="46.19551" lon="4.64659">
        <ele>550.4</ele>
        <time>2022-06-25T14:16:47Z</time>
      </trkpt>
      <trkpt lat="46.1955" lon="4.64664">
        <ele>550.4</ele>
        <time>2022-06-25T14:16:48Z</time>
      </trkpt>
      <trkpt lat="46.19549" lon="4.6467">
        <ele>550.4</ele>
        <time>2022-06-25T14:16:49Z</time>
      </trkpt>
      <trkpt lat="46.19547" lon="4.64675">
        <ele>550.6</ele>
        <time>2022-06-25T14:16:50Z</time>
      </trkpt>
      <trkpt lat="46.19545" lon="4.64681">
        <ele>550.8</ele>
        <time>2022-06-25T14:16:51Z</time>
      </trkpt>
      <trkpt lat="46.19542" lon="4.64685">
        <ele>551</ele>
        <time>2022-06-25T14:16:52Z</time>
      </trkpt>
      <trkpt lat="46.19539" lon="4.64689">
        <ele>551</ele>
        <time>2022-06-25T14:16:53Z</time>
      </trkpt>
      <trkpt lat="46.19536" lon="4.64692">
        <ele>551.4</ele>
        <time>2022-06-25T14:16:54Z</time>
      </trkpt>
      <trkpt lat="46.19533" lon="4.64694">
        <ele>551.4</ele>
        <time>2022-06-25T14:16:55Z</time>
      </trkpt>
      <trkpt lat="46.1953" lon="4.64697">
        <ele>551.6</ele>
        <time>2022-06-25T14:16:56Z</time>
      </trkpt>
      <trkpt lat="46.19526" lon="4.64699">
        <ele>551.8</ele>
        <time>2022-06-25T14:16:57Z</time>
      </trkpt>
      <trkpt lat="46.19523" lon="4.64701">
        <ele>552.2</ele>
        <time>2022-06-25T14:16:58Z</time>
      </trkpt>
      <trkpt lat="46.19519" lon="4.64702">
        <ele>552.4</ele>
        <time>2022-06-25T14:16:59Z</time>
      </trkpt>
      <trkpt lat="46.19516" lon="4.64704">
        <ele>552.4</ele>
        <time>2022-06-25T14:17:00Z</time>
      </trkpt>
      <trkpt lat="46.19512" lon="4.64704">
        <ele>552.8</ele>
        <time>2022-06-25T14:17:01Z</time>
      </trkpt>
      <trkpt lat="46.19508" lon="4.64705">
        <ele>552.8</ele>
        <time>2022-06-25T14:17:02Z</time>
      </trkpt>
      <trkpt lat="46.19504" lon="4.64706">
        <ele>553</ele>
        <time>2022-06-25T14:17:03Z</time>
      </trkpt>
      <trkpt lat="46.195" lon="4.64707">
        <ele>553</ele>
        <time>2022-06-25T14:17:04Z</time>
      </trkpt>
      <trkpt lat="46.19496" lon="4.64708">
        <ele>553</ele>
        <time>2022-06-25T14:17:05Z</time>
      </trkpt>
      <trkpt lat="46.19492" lon="4.64709">
        <ele>553.2</ele>
        <time>2022-06-25T14:17:06Z</time>
      </trkpt>
      <trkpt lat="46.19488" lon="4.6471">
        <ele>553.2</ele>
        <time>2022-06-25T14:17:07Z</time>
      </trkpt>
      <trkpt lat="46.19483" lon="4.6471">
        <ele>553.6</ele>
        <time>2022-06-25T14:17:08Z</time>
      </trkpt>
      <trkpt lat="46.19479" lon="4.6471">
        <ele>553.8</ele>
        <time>2022-06-25T14:17:09Z</time>
      </trkpt>
      <trkpt lat="46.19475" lon="4.64711">
        <ele>553.8</ele>
        <time>2022-06-25T14:17:10Z</time>
      </trkpt>
      <trkpt lat="46.19471" lon="4.64711">
        <ele>554</ele>
        <time>2022-06-25T14:17:11Z</time>
      </trkpt>
      <trkpt lat="46.19466" lon="4.64711">
        <ele>554</ele>
        <time>2022-06-25T14:17:12Z</time>
      </trkpt>
      <trkpt lat="46.19462" lon="4.64711">
        <ele>554.2</ele>
        <time>2022-06-25T14:17:13Z</time>
      </trkpt>
      <trkpt lat="46.19458" lon="4.64711">
        <ele>554.2</ele>
        <time>2022-06-25T14:17:14Z</time>
      </trkpt>
      <trkpt lat="46.19453" lon="4.6471">
        <ele>554.4</ele>
        <time>2022-06-25T14:17:15Z</time>
      </trkpt>
      <trkpt lat="46.19449" lon="4.6471">
        <ele>554.4</ele>
        <time>2022-06-25T14:17:16Z</time>
      </trkpt>
      <trkpt lat="46.19445" lon="4.64709">
        <ele>554.8</ele>
        <time>2022-06-25T14:17:17Z</time>
      </trkpt>
      <trkpt lat="46.1944" lon="4.64708">
        <ele>554.8</ele>
        <time>2022-06-25T14:17:18Z</time>
      </trkpt>
      <trkpt lat="46.19436" lon="4.64707">
        <ele>555.2</ele>
        <time>2022-06-25T14:17:19Z</time>
      </trkpt>
      <trkpt lat="46.19432" lon="4.64705">
        <ele>555.2</ele>
        <time>2022-06-25T14:17:20Z</time>
      </trkpt>
      <trkpt lat="46.19428" lon="4.64704">
        <ele>555.4</ele>
        <time>2022-06-25T14:17:21Z</time>
      </trkpt>
      <trkpt lat="46.19424" lon="4.64703">
        <ele>555.4</ele>
        <time>2022-06-25T14:17:22Z</time>
      </trkpt>
      <trkpt lat="46.19419" lon="4.64702">
        <ele>555.8</ele>
        <time>2022-06-25T14:17:23Z</time>
      </trkpt>
      <trkpt lat="46.19415" lon="4.64702">
        <ele>555.8</ele>
        <time>2022-06-25T14:17:24Z</time>
      </trkpt>
      <trkpt lat="46.19411" lon="4.64702">
        <ele>556.2</ele>
        <time>2022-06-25T14:17:25Z</time>
      </trkpt>
      <trkpt lat="46.19407" lon="4.64702">
        <ele>556.2</ele>
        <time>2022-06-25T14:17:26Z</time>
      </trkpt>
      <trkpt lat="46.19402" lon="4.64703">
        <ele>556.4</ele>
        <time>2022-06-25T14:17:27Z</time>
      </trkpt>
      <trkpt lat="46.19398" lon="4.64704">
        <ele>556.6</ele>
        <time>2022-06-25T14:17:28Z</time>
      </trkpt>
      <trkpt lat="46.19394" lon="4.64705">
        <ele>556.6</ele>
        <time>2022-06-25T14:17:29Z</time>
      </trkpt>
      <trkpt lat="46.1939" lon="4.64706">
        <ele>557</ele>
        <time>2022-06-25T14:17:30Z</time>
      </trkpt>
      <trkpt lat="46.19386" lon="4.64707">
        <ele>557</ele>
        <time>2022-06-25T14:17:31Z</time>
      </trkpt>
      <trkpt lat="46.19382" lon="4.64708">
        <ele>557.4</ele>
        <time>2022-06-25T14:17:32Z</time>
      </trkpt>
      <trkpt lat="46.19378" lon="4.64709">
        <ele>557.4</ele>
        <time>2022-06-25T14:17:33Z</time>
      </trkpt>
      <trkpt lat="46.19375" lon="4.6471">
        <ele>557.8</ele>
        <time>2022-06-25T14:17:34Z</time>
      </trkpt>
      <trkpt lat="46.19371" lon="4.64711">
        <ele>557.8</ele>
        <time>2022-06-25T14:17:35Z</time>
      </trkpt>
      <trkpt lat="46.19367" lon="4.64713">
        <ele>558.2</ele>
        <time>2022-06-25T14:17:36Z</time>
      </trkpt>
      <trkpt lat="46.19364" lon="4.64715">
        <ele>558.2</ele>
        <time>2022-06-25T14:17:37Z</time>
      </trkpt>
      <trkpt lat="46.19361" lon="4.64718">
        <ele>558.4</ele>
        <time>2022-06-25T14:17:38Z</time>
      </trkpt>
      <trkpt lat="46.19357" lon="4.64721">
        <ele>558.4</ele>
        <time>2022-06-25T14:17:39Z</time>
      </trkpt>
      <trkpt lat="46.19353" lon="4.64724">
        <ele>558.8</ele>
        <time>2022-06-25T14:17:40Z</time>
      </trkpt>
      <trkpt lat="46.1935" lon="4.64728">
        <ele>558.8</ele>
        <time>2022-06-25T14:17:41Z</time>
      </trkpt>
      <trkpt lat="46.19347" lon="4.64732">
        <ele>559</ele>
        <time>2022-06-25T14:17:42Z</time>
      </trkpt>
      <trkpt lat="46.19343" lon="4.64735">
        <ele>559</ele>
        <time>2022-06-25T14:17:43Z</time>
      </trkpt>
      <trkpt lat="46.1934" lon="4.64739">
        <ele>559.2</ele>
        <time>2022-06-25T14:17:44Z</time>
      </trkpt>
      <trkpt lat="46.19337" lon="4.64742">
        <ele>559.2</ele>
        <time>2022-06-25T14:17:45Z</time>
      </trkpt>
      <trkpt lat="46.19333" lon="4.64746">
        <ele>559.4</ele>
        <time>2022-06-25T14:17:46Z</time>
      </trkpt>
      <trkpt lat="46.19329" lon="4.64749">
        <ele>559.4</ele>
        <time>2022-06-25T14:17:47Z</time>
      </trkpt>
      <trkpt lat="46.19326" lon="4.64753">
        <ele>559.6</ele>
        <time>2022-06-25T14:17:48Z</time>
      </trkpt>
      <trkpt lat="46.19323" lon="4.64757">
        <ele>559.6</ele>
        <time>2022-06-25T14:17:49Z</time>
      </trkpt>
      <trkpt lat="46.1932" lon="4.64761">
        <ele>560.2</ele>
        <time>2022-06-25T14:17:50Z</time>
      </trkpt>
      <trkpt lat="46.19316" lon="4.64764">
        <ele>560.4</ele>
        <time>2022-06-25T14:17:51Z</time>
      </trkpt>
      <trkpt lat="46.19313" lon="4.64767">
        <ele>560.4</ele>
        <time>2022-06-25T14:17:52Z</time>
      </trkpt>
      <trkpt lat="46.1931" lon="4.64771">
        <ele>560.6</ele>
        <time>2022-06-25T14:17:53Z</time>
      </trkpt>
      <trkpt lat="46.19307" lon="4.64775">
        <ele>560.6</ele>
        <time>2022-06-25T14:17:54Z</time>
      </trkpt>
      <trkpt lat="46.19304" lon="4.64778">
        <ele>560.8</ele>
        <time>2022-06-25T14:17:55Z</time>
      </trkpt>
      <trkpt lat="46.19301" lon="4.64782">
        <ele>560.8</ele>
        <time>2022-06-25T14:17:56Z</time>
      </trkpt>
      <trkpt lat="46.19298" lon="4.64786">
        <ele>560.8</ele>
        <time>2022-06-25T14:17:57Z</time>
      </trkpt>
      <trkpt lat="46.19295" lon="4.64789">
        <ele>561.2</ele>
        <time>2022-06-25T14:17:58Z</time>
      </trkpt>
      <trkpt lat="46.19292" lon="4.64793">
        <ele>561.2</ele>
        <time>2022-06-25T14:17:59Z</time>
      </trkpt>
      <trkpt lat="46.19289" lon="4.64797">
        <ele>561.4</ele>
        <time>2022-06-25T14:18:00Z</time>
      </trkpt>
      <trkpt lat="46.19286" lon="4.648">
        <ele>561.4</ele>
        <time>2022-06-25T14:18:01Z</time>
      </trkpt>
      <trkpt lat="46.19284" lon="4.64804">
        <ele>561.4</ele>
        <time>2022-06-25T14:18:02Z</time>
      </trkpt>
      <trkpt lat="46.19281" lon="4.64807">
        <ele>561.6</ele>
        <time>2022-06-25T14:18:03Z</time>
      </trkpt>
      <trkpt lat="46.19278" lon="4.6481">
        <ele>561.6</ele>
        <time>2022-06-25T14:18:04Z</time>
      </trkpt>
      <trkpt lat="46.19276" lon="4.64814">
        <ele>561.8</ele>
        <time>2022-06-25T14:18:05Z</time>
      </trkpt>
      <trkpt lat="46.19273" lon="4.64817">
        <ele>561.8</ele>
        <time>2022-06-25T14:18:06Z</time>
      </trkpt>
      <trkpt lat="46.1927" lon="4.64819">
        <ele>561.8</ele>
        <time>2022-06-25T14:18:07Z</time>
      </trkpt>
      <trkpt lat="46.19268" lon="4.64821">
        <ele>562.2</ele>
        <time>2022-06-25T14:18:08Z</time>
      </trkpt>
      <trkpt lat="46.19265" lon="4.64822">
        <ele>562.2</ele>
        <time>2022-06-25T14:18:09Z</time>
      </trkpt>
      <trkpt lat="46.19262" lon="4.64822">
        <ele>562.4</ele>
        <time>2022-06-25T14:18:10Z</time>
      </trkpt>
      <trkpt lat="46.19259" lon="4.64822">
        <ele>562.4</ele>
        <time>2022-06-25T14:18:11Z</time>
      </trkpt>
      <trkpt lat="46.19256" lon="4.64821">
        <ele>562.6</ele>
        <time>2022-06-25T14:18:12Z</time>
      </trkpt>
      <trkpt lat="46.19253" lon="4.6482">
        <ele>562.6</ele>
        <time>2022-06-25T14:18:13Z</time>
      </trkpt>
      <trkpt lat="46.19251" lon="4.64819">
        <ele>562.6</ele>
        <time>2022-06-25T14:18:14Z</time>
      </trkpt>
      <trkpt lat="46.19249" lon="4.64818">
        <ele>562.6</ele>
        <time>2022-06-25T14:18:15Z</time>
      </trkpt>
      <trkpt lat="46.19247" lon="4.64816">
        <ele>562.6</ele>
        <time>2022-06-25T14:18:16Z</time>
      </trkpt>
      <trkpt lat="46.19247" lon="4.64816">
        <ele>562.6</ele>
        <time>2022-06-25T14:18:18Z</time>
      </trkpt>
      <trkpt lat="46.19247" lon="4.64815">
        <ele>562.8</ele>
        <time>2022-06-25T14:18:19Z</time>
      </trkpt>
      <trkpt lat="46.19248" lon="4.64812">
        <ele>563.4</ele>
        <time>2022-06-25T14:19:24Z</time>
      </trkpt>
      <trkpt lat="46.19248" lon="4.6481">
        <ele>563.4</ele>
        <time>2022-06-25T14:19:25Z</time>
      </trkpt>
      <trkpt lat="46.19247" lon="4.64807">
        <ele>563.6</ele>
        <time>2022-06-25T14:19:26Z</time>
      </trkpt>
      <trkpt lat="46.19246" lon="4.64804">
        <ele>563.6</ele>
        <time>2022-06-25T14:19:27Z</time>
      </trkpt>
      <trkpt lat="46.19245" lon="4.64801">
        <ele>563.6</ele>
        <time>2022-06-25T14:19:28Z</time>
      </trkpt>
      <trkpt lat="46.19244" lon="4.64797">
        <ele>563.6</ele>
        <time>2022-06-25T14:19:29Z</time>
      </trkpt>
      <trkpt lat="46.19242" lon="4.64794">
        <ele>563.6</ele>
        <time>2022-06-25T14:19:30Z</time>
      </trkpt>
      <trkpt lat="46.19241" lon="4.6479">
        <ele>563.6</ele>
        <time>2022-06-25T14:19:31Z</time>
      </trkpt>
      <trkpt lat="46.1924" lon="4.64786">
        <ele>563.6</ele>
        <time>2022-06-25T14:19:32Z</time>
      </trkpt>
      <trkpt lat="46.19238" lon="4.64781">
        <ele>563.6</ele>
        <time>2022-06-25T14:19:33Z</time>
      </trkpt>
      <trkpt lat="46.19237" lon="4.64776">
        <ele>563.6</ele>
        <time>2022-06-25T14:19:34Z</time>
      </trkpt>
      <trkpt lat="46.19235" lon="4.64771">
        <ele>563.6</ele>
        <time>2022-06-25T14:19:35Z</time>
      </trkpt>
      <trkpt lat="46.19232" lon="4.64766">
        <ele>563.6</ele>
        <time>2022-06-25T14:19:36Z</time>
      </trkpt>
      <trkpt lat="46.1923" lon="4.64761">
        <ele>563.4</ele>
        <time>2022-06-25T14:19:37Z</time>
      </trkpt>
      <trkpt lat="46.19228" lon="4.64756">
        <ele>563.4</ele>
        <time>2022-06-25T14:19:38Z</time>
      </trkpt>
      <trkpt lat="46.19226" lon="4.64753">
        <ele>563.4</ele>
        <time>2022-06-25T14:19:39Z</time>
      </trkpt>
      <trkpt lat="46.19225" lon="4.64751">
        <ele>563.4</ele>
        <time>2022-06-25T14:19:40Z</time>
      </trkpt>
      <trkpt lat="46.19222" lon="4.64745">
        <ele>563.4</ele>
        <time>2022-06-25T14:19:41Z</time>
      </trkpt>
      <trkpt lat="46.1922" lon="4.6474">
        <ele>563.4</ele>
        <time>2022-06-25T14:19:42Z</time>
      </trkpt>
      <trkpt lat="46.19217" lon="4.64734">
        <ele>563.4</ele>
        <time>2022-06-25T14:19:43Z</time>
      </trkpt>
      <trkpt lat="46.19214" lon="4.64729">
        <ele>563.2</ele>
        <time>2022-06-25T14:19:44Z</time>
      </trkpt>
      <trkpt lat="46.19211" lon="4.64723">
        <ele>563.2</ele>
        <time>2022-06-25T14:19:45Z</time>
      </trkpt>
      <trkpt lat="46.19207" lon="4.64718">
        <ele>563.2</ele>
        <time>2022-06-25T14:19:46Z</time>
      </trkpt>
      <trkpt lat="46.19204" lon="4.64713">
        <ele>563.2</ele>
        <time>2022-06-25T14:19:47Z</time>
      </trkpt>
      <trkpt lat="46.192" lon="4.64708">
        <ele>563</ele>
        <time>2022-06-25T14:19:48Z</time>
      </trkpt>
      <trkpt lat="46.19197" lon="4.64702">
        <ele>563</ele>
        <time>2022-06-25T14:19:49Z</time>
      </trkpt>
      <trkpt lat="46.19193" lon="4.64697">
        <ele>563</ele>
        <time>2022-06-25T14:19:50Z</time>
      </trkpt>
      <trkpt lat="46.19189" lon="4.6469">
        <ele>562.6</ele>
        <time>2022-06-25T14:19:51Z</time>
      </trkpt>
      <trkpt lat="46.19186" lon="4.64683">
        <ele>562.4</ele>
        <time>2022-06-25T14:19:52Z</time>
      </trkpt>
      <trkpt lat="46.19183" lon="4.64675">
        <ele>562.4</ele>
        <time>2022-06-25T14:19:53Z</time>
      </trkpt>
      <trkpt lat="46.19181" lon="4.64666">
        <ele>562</ele>
        <time>2022-06-25T14:19:54Z</time>
      </trkpt>
      <trkpt lat="46.19179" lon="4.64657">
        <ele>562</ele>
        <time>2022-06-25T14:19:55Z</time>
      </trkpt>
      <trkpt lat="46.19178" lon="4.64647">
        <ele>561.6</ele>
        <time>2022-06-25T14:19:56Z</time>
      </trkpt>
      <trkpt lat="46.19177" lon="4.64637">
        <ele>561.6</ele>
        <time>2022-06-25T14:19:57Z</time>
      </trkpt>
      <trkpt lat="46.19177" lon="4.64627">
        <ele>561.4</ele>
        <time>2022-06-25T14:19:58Z</time>
      </trkpt>
      <trkpt lat="46.19176" lon="4.64616">
        <ele>561</ele>
        <time>2022-06-25T14:19:59Z</time>
      </trkpt>
      <trkpt lat="46.19174" lon="4.64606">
        <ele>561</ele>
        <time>2022-06-25T14:20:00Z</time>
      </trkpt>
      <trkpt lat="46.19172" lon="4.64596">
        <ele>560.8</ele>
        <time>2022-06-25T14:20:01Z</time>
      </trkpt>
      <trkpt lat="46.19168" lon="4.64588">
        <ele>560.4</ele>
        <time>2022-06-25T14:20:02Z</time>
      </trkpt>
      <trkpt lat="46.19163" lon="4.6458">
        <ele>560.2</ele>
        <time>2022-06-25T14:20:03Z</time>
      </trkpt>
      <trkpt lat="46.19158" lon="4.64572">
        <ele>560.2</ele>
        <time>2022-06-25T14:20:04Z</time>
      </trkpt>
      <trkpt lat="46.19152" lon="4.64565">
        <ele>559.8</ele>
        <time>2022-06-25T14:20:05Z</time>
      </trkpt>
      <trkpt lat="46.19146" lon="4.64558">
        <ele>559.4</ele>
        <time>2022-06-25T14:20:06Z</time>
      </trkpt>
      <trkpt lat="46.19139" lon="4.6455">
        <ele>559.2</ele>
        <time>2022-06-25T14:20:07Z</time>
      </trkpt>
      <trkpt lat="46.19131" lon="4.64544">
        <ele>558.8</ele>
        <time>2022-06-25T14:20:08Z</time>
      </trkpt>
      <trkpt lat="46.19123" lon="4.64539">
        <ele>558.6</ele>
        <time>2022-06-25T14:20:09Z</time>
      </trkpt>
      <trkpt lat="46.19115" lon="4.64535">
        <ele>558.2</ele>
        <time>2022-06-25T14:20:10Z</time>
      </trkpt>
      <trkpt lat="46.19106" lon="4.64533">
        <ele>557.6</ele>
        <time>2022-06-25T14:20:11Z</time>
      </trkpt>
      <trkpt lat="46.19098" lon="4.64533">
        <ele>557.4</ele>
        <time>2022-06-25T14:20:12Z</time>
      </trkpt>
      <trkpt lat="46.19089" lon="4.64535">
        <ele>557</ele>
        <time>2022-06-25T14:20:13Z</time>
      </trkpt>
      <trkpt lat="46.19081" lon="4.64539">
        <ele>556.6</ele>
        <time>2022-06-25T14:20:14Z</time>
      </trkpt>
      <trkpt lat="46.19071" lon="4.64543">
        <ele>556.2</ele>
        <time>2022-06-25T14:20:15Z</time>
      </trkpt>
      <trkpt lat="46.19061" lon="4.64548">
        <ele>555.8</ele>
        <time>2022-06-25T14:20:16Z</time>
      </trkpt>
      <trkpt lat="46.19052" lon="4.64551">
        <ele>555.4</ele>
        <time>2022-06-25T14:20:17Z</time>
      </trkpt>
      <trkpt lat="46.19042" lon="4.64551">
        <ele>555</ele>
        <time>2022-06-25T14:20:18Z</time>
      </trkpt>
      <trkpt lat="46.19033" lon="4.64552">
        <ele>554.6</ele>
        <time>2022-06-25T14:20:19Z</time>
      </trkpt>
      <trkpt lat="46.19023" lon="4.6455">
        <ele>554.2</ele>
        <time>2022-06-25T14:20:20Z</time>
      </trkpt>
      <trkpt lat="46.19015" lon="4.64544">
        <ele>553.8</ele>
        <time>2022-06-25T14:20:21Z</time>
      </trkpt>
      <trkpt lat="46.19006" lon="4.64539">
        <ele>553.4</ele>
        <time>2022-06-25T14:20:22Z</time>
      </trkpt>
      <trkpt lat="46.18997" lon="4.64533">
        <ele>553.2</ele>
        <time>2022-06-25T14:20:23Z</time>
      </trkpt>
      <trkpt lat="46.18989" lon="4.64526">
        <ele>552.8</ele>
        <time>2022-06-25T14:20:24Z</time>
      </trkpt>
      <trkpt lat="46.18981" lon="4.64518">
        <ele>552.4</ele>
        <time>2022-06-25T14:20:25Z</time>
      </trkpt>
      <trkpt lat="46.18973" lon="4.64508">
        <ele>552.2</ele>
        <time>2022-06-25T14:20:26Z</time>
      </trkpt>
      <trkpt lat="46.18966" lon="4.64498">
        <ele>551.8</ele>
        <time>2022-06-25T14:20:27Z</time>
      </trkpt>
      <trkpt lat="46.18961" lon="4.64487">
        <ele>551.4</ele>
        <time>2022-06-25T14:20:28Z</time>
      </trkpt>
      <trkpt lat="46.18958" lon="4.64476">
        <ele>551</ele>
        <time>2022-06-25T14:20:29Z</time>
      </trkpt>
      <trkpt lat="46.18954" lon="4.64464">
        <ele>550.6</ele>
        <time>2022-06-25T14:20:30Z</time>
      </trkpt>
      <trkpt lat="46.18951" lon="4.64451">
        <ele>550.4</ele>
        <time>2022-06-25T14:20:31Z</time>
      </trkpt>
      <trkpt lat="46.18949" lon="4.64439">
        <ele>550</ele>
        <time>2022-06-25T14:20:32Z</time>
      </trkpt>
      <trkpt lat="46.18948" lon="4.64425">
        <ele>549.8</ele>
        <time>2022-06-25T14:20:33Z</time>
      </trkpt>
      <trkpt lat="46.18948" lon="4.64412">
        <ele>549.4</ele>
        <time>2022-06-25T14:20:34Z</time>
      </trkpt>
      <trkpt lat="46.18949" lon="4.64399">
        <ele>549.4</ele>
        <time>2022-06-25T14:20:35Z</time>
      </trkpt>
      <trkpt lat="46.18951" lon="4.64385">
        <ele>549</ele>
        <time>2022-06-25T14:20:36Z</time>
      </trkpt>
      <trkpt lat="46.18953" lon="4.64373">
        <ele>548.6</ele>
        <time>2022-06-25T14:20:37Z</time>
      </trkpt>
      <trkpt lat="46.18955" lon="4.64361">
        <ele>548.2</ele>
        <time>2022-06-25T14:20:38Z</time>
      </trkpt>
      <trkpt lat="46.18957" lon="4.64348">
        <ele>547.8</ele>
        <time>2022-06-25T14:20:39Z</time>
      </trkpt>
      <trkpt lat="46.18959" lon="4.64336">
        <ele>547.6</ele>
        <time>2022-06-25T14:20:40Z</time>
      </trkpt>
      <trkpt lat="46.18961" lon="4.64324">
        <ele>547.2</ele>
        <time>2022-06-25T14:20:41Z</time>
      </trkpt>
      <trkpt lat="46.18963" lon="4.64312">
        <ele>547.2</ele>
        <time>2022-06-25T14:20:42Z</time>
      </trkpt>
      <trkpt lat="46.18963" lon="4.643">
        <ele>546.6</ele>
        <time>2022-06-25T14:20:43Z</time>
      </trkpt>
      <trkpt lat="46.18961" lon="4.64288">
        <ele>546.2</ele>
        <time>2022-06-25T14:20:44Z</time>
      </trkpt>
      <trkpt lat="46.18958" lon="4.64278">
        <ele>545.8</ele>
        <time>2022-06-25T14:20:45Z</time>
      </trkpt>
      <trkpt lat="46.18953" lon="4.64268">
        <ele>545.4</ele>
        <time>2022-06-25T14:20:46Z</time>
      </trkpt>
      <trkpt lat="46.18946" lon="4.6426">
        <ele>545</ele>
        <time>2022-06-25T14:20:47Z</time>
      </trkpt>
      <trkpt lat="46.18938" lon="4.64253">
        <ele>544.6</ele>
        <time>2022-06-25T14:20:48Z</time>
      </trkpt>
      <trkpt lat="46.1893" lon="4.6425">
        <ele>544</ele>
        <time>2022-06-25T14:20:49Z</time>
      </trkpt>
      <trkpt lat="46.1892" lon="4.64251">
        <ele>543.6</ele>
        <time>2022-06-25T14:20:50Z</time>
      </trkpt>
      <trkpt lat="46.1891" lon="4.64254">
        <ele>543.2</ele>
        <time>2022-06-25T14:20:51Z</time>
      </trkpt>
      <trkpt lat="46.18899" lon="4.64259">
        <ele>542.6</ele>
        <time>2022-06-25T14:20:52Z</time>
      </trkpt>
      <trkpt lat="46.18888" lon="4.64266">
        <ele>542.4</ele>
        <time>2022-06-25T14:20:53Z</time>
      </trkpt>
      <trkpt lat="46.18876" lon="4.64272">
        <ele>542</ele>
        <time>2022-06-25T14:20:54Z</time>
      </trkpt>
      <trkpt lat="46.18866" lon="4.64277">
        <ele>541.8</ele>
        <time>2022-06-25T14:20:55Z</time>
      </trkpt>
      <trkpt lat="46.18858" lon="4.64282">
        <ele>540.6</ele>
        <time>2022-06-25T14:20:56Z</time>
      </trkpt>
      <trkpt lat="46.1885" lon="4.64286">
        <ele>540.4</ele>
        <time>2022-06-25T14:20:57Z</time>
      </trkpt>
      <trkpt lat="46.18835" lon="4.64295">
        <ele>540</ele>
        <time>2022-06-25T14:20:58Z</time>
      </trkpt>
      <trkpt lat="46.18826" lon="4.643">
        <ele>539.6</ele>
        <time>2022-06-25T14:20:59Z</time>
      </trkpt>
      <trkpt lat="46.18816" lon="4.64304">
        <ele>539.2</ele>
        <time>2022-06-25T14:21:00Z</time>
      </trkpt>
      <trkpt lat="46.18806" lon="4.64305">
        <ele>538.8</ele>
        <time>2022-06-25T14:21:01Z</time>
      </trkpt>
      <trkpt lat="46.18795" lon="4.64304">
        <ele>538.4</ele>
        <time>2022-06-25T14:21:02Z</time>
      </trkpt>
      <trkpt lat="46.18786" lon="4.64299">
        <ele>538</ele>
        <time>2022-06-25T14:21:03Z</time>
      </trkpt>
      <trkpt lat="46.18777" lon="4.64291">
        <ele>537.6</ele>
        <time>2022-06-25T14:21:04Z</time>
      </trkpt>
      <trkpt lat="46.18769" lon="4.64283">
        <ele>537.2</ele>
        <time>2022-06-25T14:21:05Z</time>
      </trkpt>
      <trkpt lat="46.18761" lon="4.64275">
        <ele>537</ele>
        <time>2022-06-25T14:21:06Z</time>
      </trkpt>
      <trkpt lat="46.18754" lon="4.64266">
        <ele>536.6</ele>
        <time>2022-06-25T14:21:07Z</time>
      </trkpt>
      <trkpt lat="46.18749" lon="4.64258">
        <ele>536.2</ele>
        <time>2022-06-25T14:21:08Z</time>
      </trkpt>
      <trkpt lat="46.18747" lon="4.64248">
        <ele>536</ele>
        <time>2022-06-25T14:21:09Z</time>
      </trkpt>
      <trkpt lat="46.18747" lon="4.64236">
        <ele>536</ele>
        <time>2022-06-25T14:21:10Z</time>
      </trkpt>
      <trkpt lat="46.18748" lon="4.64225">
        <ele>535.8</ele>
        <time>2022-06-25T14:21:11Z</time>
      </trkpt>
      <trkpt lat="46.1875" lon="4.64215">
        <ele>535.8</ele>
        <time>2022-06-25T14:21:12Z</time>
      </trkpt>
      <trkpt lat="46.18753" lon="4.64205">
        <ele>535.4</ele>
        <time>2022-06-25T14:21:13Z</time>
      </trkpt>
      <trkpt lat="46.18755" lon="4.64195">
        <ele>535.4</ele>
        <time>2022-06-25T14:21:14Z</time>
      </trkpt>
      <trkpt lat="46.18756" lon="4.64184">
        <ele>535.4</ele>
        <time>2022-06-25T14:21:15Z</time>
      </trkpt>
      <trkpt lat="46.18758" lon="4.64174">
        <ele>535.2</ele>
        <time>2022-06-25T14:21:16Z</time>
      </trkpt>
      <trkpt lat="46.18759" lon="4.64164">
        <ele>535.2</ele>
        <time>2022-06-25T14:21:17Z</time>
      </trkpt>
      <trkpt lat="46.18761" lon="4.64153">
        <ele>535</ele>
        <time>2022-06-25T14:21:18Z</time>
      </trkpt>
      <trkpt lat="46.1876" lon="4.64143">
        <ele>535</ele>
        <time>2022-06-25T14:21:19Z</time>
      </trkpt>
      <trkpt lat="46.18758" lon="4.64132">
        <ele>534.8</ele>
        <time>2022-06-25T14:21:20Z</time>
      </trkpt>
      <trkpt lat="46.18754" lon="4.64124">
        <ele>534.8</ele>
        <time>2022-06-25T14:21:21Z</time>
      </trkpt>
      <trkpt lat="46.18748" lon="4.64117">
        <ele>534.4</ele>
        <time>2022-06-25T14:21:22Z</time>
      </trkpt>
      <trkpt lat="46.18741" lon="4.64114">
        <ele>534.4</ele>
        <time>2022-06-25T14:21:23Z</time>
      </trkpt>
      <trkpt lat="46.18734" lon="4.64111">
        <ele>534.4</ele>
        <time>2022-06-25T14:21:24Z</time>
      </trkpt>
      <trkpt lat="46.18727" lon="4.64107">
        <ele>534.2</ele>
        <time>2022-06-25T14:21:25Z</time>
      </trkpt>
      <trkpt lat="46.1872" lon="4.64101">
        <ele>534.2</ele>
        <time>2022-06-25T14:21:26Z</time>
      </trkpt>
      <trkpt lat="46.18714" lon="4.64094">
        <ele>534.2</ele>
        <time>2022-06-25T14:21:27Z</time>
      </trkpt>
      <trkpt lat="46.1871" lon="4.64084">
        <ele>534.2</ele>
        <time>2022-06-25T14:21:28Z</time>
      </trkpt>
      <trkpt lat="46.18708" lon="4.64074">
        <ele>533.8</ele>
        <time>2022-06-25T14:21:29Z</time>
      </trkpt>
      <trkpt lat="46.18706" lon="4.64063">
        <ele>533.8</ele>
        <time>2022-06-25T14:21:30Z</time>
      </trkpt>
      <trkpt lat="46.18705" lon="4.64052">
        <ele>533.8</ele>
        <time>2022-06-25T14:21:31Z</time>
      </trkpt>
      <trkpt lat="46.18705" lon="4.6404">
        <ele>533.8</ele>
        <time>2022-06-25T14:21:32Z</time>
      </trkpt>
      <trkpt lat="46.18705" lon="4.64029">
        <ele>533.6</ele>
        <time>2022-06-25T14:21:33Z</time>
      </trkpt>
      <trkpt lat="46.18705" lon="4.64018">
        <ele>533.6</ele>
        <time>2022-06-25T14:21:34Z</time>
      </trkpt>
      <trkpt lat="46.18705" lon="4.64007">
        <ele>533.6</ele>
        <time>2022-06-25T14:21:35Z</time>
      </trkpt>
      <trkpt lat="46.18705" lon="4.63996">
        <ele>533.6</ele>
        <time>2022-06-25T14:21:36Z</time>
      </trkpt>
      <trkpt lat="46.18705" lon="4.63985">
        <ele>533.6</ele>
        <time>2022-06-25T14:21:37Z</time>
      </trkpt>
      <trkpt lat="46.18704" lon="4.63974">
        <ele>533.6</ele>
        <time>2022-06-25T14:21:38Z</time>
      </trkpt>
      <trkpt lat="46.18702" lon="4.63963">
        <ele>533.6</ele>
        <time>2022-06-25T14:21:39Z</time>
      </trkpt>
      <trkpt lat="46.18699" lon="4.63952">
        <ele>533.4</ele>
        <time>2022-06-25T14:21:40Z</time>
      </trkpt>
      <trkpt lat="46.18696" lon="4.63941">
        <ele>533.4</ele>
        <time>2022-06-25T14:21:41Z</time>
      </trkpt>
      <trkpt lat="46.18693" lon="4.63931">
        <ele>533.4</ele>
        <time>2022-06-25T14:21:42Z</time>
      </trkpt>
      <trkpt lat="46.18689" lon="4.63921">
        <ele>533.4</ele>
        <time>2022-06-25T14:21:43Z</time>
      </trkpt>
      <trkpt lat="46.18686" lon="4.63911">
        <ele>533.2</ele>
        <time>2022-06-25T14:21:44Z</time>
      </trkpt>
      <trkpt lat="46.18682" lon="4.63901">
        <ele>532.8</ele>
        <time>2022-06-25T14:21:45Z</time>
      </trkpt>
      <trkpt lat="46.18679" lon="4.63891">
        <ele>532.8</ele>
        <time>2022-06-25T14:21:46Z</time>
      </trkpt>
      <trkpt lat="46.18675" lon="4.63881">
        <ele>532.6</ele>
        <time>2022-06-25T14:21:47Z</time>
      </trkpt>
      <trkpt lat="46.18672" lon="4.63871">
        <ele>532.6</ele>
        <time>2022-06-25T14:21:48Z</time>
      </trkpt>
      <trkpt lat="46.18668" lon="4.63862">
        <ele>532.4</ele>
        <time>2022-06-25T14:21:49Z</time>
      </trkpt>
      <trkpt lat="46.18664" lon="4.63853">
        <ele>532.4</ele>
        <time>2022-06-25T14:21:50Z</time>
      </trkpt>
      <trkpt lat="46.18659" lon="4.63846">
        <ele>532</ele>
        <time>2022-06-25T14:21:51Z</time>
      </trkpt>
      <trkpt lat="46.18652" lon="4.63843">
        <ele>532</ele>
        <time>2022-06-25T14:21:52Z</time>
      </trkpt>
      <trkpt lat="46.18644" lon="4.63841">
        <ele>531.8</ele>
        <time>2022-06-25T14:21:53Z</time>
      </trkpt>
      <trkpt lat="46.18638" lon="4.63843">
        <ele>531.8</ele>
        <time>2022-06-25T14:21:54Z</time>
      </trkpt>
      <trkpt lat="46.18631" lon="4.63846">
        <ele>531.4</ele>
        <time>2022-06-25T14:21:55Z</time>
      </trkpt>
      <trkpt lat="46.18623" lon="4.63849">
        <ele>531.4</ele>
        <time>2022-06-25T14:21:56Z</time>
      </trkpt>
      <trkpt lat="46.18616" lon="4.6385">
        <ele>531.2</ele>
        <time>2022-06-25T14:21:57Z</time>
      </trkpt>
      <trkpt lat="46.18608" lon="4.63848">
        <ele>531.2</ele>
        <time>2022-06-25T14:21:58Z</time>
      </trkpt>
      <trkpt lat="46.18601" lon="4.63844">
        <ele>531</ele>
        <time>2022-06-25T14:21:59Z</time>
      </trkpt>
      <trkpt lat="46.18594" lon="4.63838">
        <ele>531</ele>
        <time>2022-06-25T14:22:00Z</time>
      </trkpt>
      <trkpt lat="46.18588" lon="4.63833">
        <ele>531</ele>
        <time>2022-06-25T14:22:01Z</time>
      </trkpt>
      <trkpt lat="46.18582" lon="4.63827">
        <ele>530.6</ele>
        <time>2022-06-25T14:22:02Z</time>
      </trkpt>
      <trkpt lat="46.18575" lon="4.63822">
        <ele>530.6</ele>
        <time>2022-06-25T14:22:03Z</time>
      </trkpt>
      <trkpt lat="46.18568" lon="4.63818">
        <ele>530.4</ele>
        <time>2022-06-25T14:22:04Z</time>
      </trkpt>
      <trkpt lat="46.18561" lon="4.63816">
        <ele>530.4</ele>
        <time>2022-06-25T14:22:05Z</time>
      </trkpt>
      <trkpt lat="46.18555" lon="4.63817">
        <ele>530</ele>
        <time>2022-06-25T14:22:06Z</time>
      </trkpt>
      <trkpt lat="46.18548" lon="4.63819">
        <ele>530</ele>
        <time>2022-06-25T14:22:07Z</time>
      </trkpt>
      <trkpt lat="46.18542" lon="4.63825">
        <ele>529.8</ele>
        <time>2022-06-25T14:22:08Z</time>
      </trkpt>
      <trkpt lat="46.18537" lon="4.63832">
        <ele>529.6</ele>
        <time>2022-06-25T14:22:09Z</time>
      </trkpt>
      <trkpt lat="46.18533" lon="4.63841">
        <ele>529.6</ele>
        <time>2022-06-25T14:22:10Z</time>
      </trkpt>
      <trkpt lat="46.1853" lon="4.63851">
        <ele>529.2</ele>
        <time>2022-06-25T14:22:11Z</time>
      </trkpt>
      <trkpt lat="46.18528" lon="4.63861">
        <ele>529.2</ele>
        <time>2022-06-25T14:22:12Z</time>
      </trkpt>
      <trkpt lat="46.18526" lon="4.63872">
        <ele>528.8</ele>
        <time>2022-06-25T14:22:13Z</time>
      </trkpt>
      <trkpt lat="46.18525" lon="4.63884">
        <ele>528.6</ele>
        <time>2022-06-25T14:22:14Z</time>
      </trkpt>
      <trkpt lat="46.18523" lon="4.63895">
        <ele>528.2</ele>
        <time>2022-06-25T14:22:15Z</time>
      </trkpt>
      <trkpt lat="46.1852" lon="4.63907">
        <ele>528.2</ele>
        <time>2022-06-25T14:22:16Z</time>
      </trkpt>
      <trkpt lat="46.18515" lon="4.63917">
        <ele>527.8</ele>
        <time>2022-06-25T14:22:17Z</time>
      </trkpt>
      <trkpt lat="46.18509" lon="4.63926">
        <ele>527.6</ele>
        <time>2022-06-25T14:22:18Z</time>
      </trkpt>
      <trkpt lat="46.18503" lon="4.63935">
        <ele>527.2</ele>
        <time>2022-06-25T14:22:19Z</time>
      </trkpt>
      <trkpt lat="46.18496" lon="4.63943">
        <ele>527</ele>
        <time>2022-06-25T14:22:20Z</time>
      </trkpt>
      <trkpt lat="46.1849" lon="4.63951">
        <ele>526.8</ele>
        <time>2022-06-25T14:22:21Z</time>
      </trkpt>
      <trkpt lat="46.18483" lon="4.63959">
        <ele>526.4</ele>
        <time>2022-06-25T14:22:22Z</time>
      </trkpt>
      <trkpt lat="46.18477" lon="4.63967">
        <ele>526.2</ele>
        <time>2022-06-25T14:22:23Z</time>
      </trkpt>
      <trkpt lat="46.1847" lon="4.63975">
        <ele>525.8</ele>
        <time>2022-06-25T14:22:24Z</time>
      </trkpt>
      <trkpt lat="46.18463" lon="4.63983">
        <ele>525.6</ele>
        <time>2022-06-25T14:22:25Z</time>
      </trkpt>
      <trkpt lat="46.18456" lon="4.6399">
        <ele>525.2</ele>
        <time>2022-06-25T14:22:26Z</time>
      </trkpt>
      <trkpt lat="46.18449" lon="4.63997">
        <ele>525</ele>
        <time>2022-06-25T14:22:27Z</time>
      </trkpt>
      <trkpt lat="46.18441" lon="4.64002">
        <ele>524.8</ele>
        <time>2022-06-25T14:22:28Z</time>
      </trkpt>
      <trkpt lat="46.18433" lon="4.64006">
        <ele>524.4</ele>
        <time>2022-06-25T14:22:29Z</time>
      </trkpt>
      <trkpt lat="46.18424" lon="4.64008">
        <ele>524.2</ele>
        <time>2022-06-25T14:22:30Z</time>
      </trkpt>
      <trkpt lat="46.18416" lon="4.64009">
        <ele>523.8</ele>
        <time>2022-06-25T14:22:31Z</time>
      </trkpt>
      <trkpt lat="46.18407" lon="4.6401">
        <ele>523.6</ele>
        <time>2022-06-25T14:22:32Z</time>
      </trkpt>
      <trkpt lat="46.18399" lon="4.6401">
        <ele>523.4</ele>
        <time>2022-06-25T14:22:33Z</time>
      </trkpt>
      <trkpt lat="46.1839" lon="4.64011">
        <ele>523</ele>
        <time>2022-06-25T14:22:34Z</time>
      </trkpt>
      <trkpt lat="46.18381" lon="4.64011">
        <ele>523</ele>
        <time>2022-06-25T14:22:35Z</time>
      </trkpt>
      <trkpt lat="46.18373" lon="4.64012">
        <ele>522.8</ele>
        <time>2022-06-25T14:22:36Z</time>
      </trkpt>
      <trkpt lat="46.18364" lon="4.64014">
        <ele>522.8</ele>
        <time>2022-06-25T14:22:37Z</time>
      </trkpt>
      <trkpt lat="46.18355" lon="4.64015">
        <ele>522.2</ele>
        <time>2022-06-25T14:22:38Z</time>
      </trkpt>
      <trkpt lat="46.18347" lon="4.64018">
        <ele>522</ele>
        <time>2022-06-25T14:22:39Z</time>
      </trkpt>
      <trkpt lat="46.18339" lon="4.64022">
        <ele>521.8</ele>
        <time>2022-06-25T14:22:40Z</time>
      </trkpt>
      <trkpt lat="46.18331" lon="4.64027">
        <ele>521.4</ele>
        <time>2022-06-25T14:22:41Z</time>
      </trkpt>
      <trkpt lat="46.18324" lon="4.64034">
        <ele>521.2</ele>
        <time>2022-06-25T14:22:42Z</time>
      </trkpt>
      <trkpt lat="46.18318" lon="4.64044">
        <ele>521.2</ele>
        <time>2022-06-25T14:22:43Z</time>
      </trkpt>
      <trkpt lat="46.18313" lon="4.64054">
        <ele>520.8</ele>
        <time>2022-06-25T14:22:44Z</time>
      </trkpt>
      <trkpt lat="46.18308" lon="4.64064">
        <ele>520.4</ele>
        <time>2022-06-25T14:22:45Z</time>
      </trkpt>
      <trkpt lat="46.18303" lon="4.64074">
        <ele>520.2</ele>
        <time>2022-06-25T14:22:46Z</time>
      </trkpt>
      <trkpt lat="46.18298" lon="4.64085">
        <ele>520.2</ele>
        <time>2022-06-25T14:22:47Z</time>
      </trkpt>
      <trkpt lat="46.18293" lon="4.64096">
        <ele>519.6</ele>
        <time>2022-06-25T14:22:48Z</time>
      </trkpt>
      <trkpt lat="46.18288" lon="4.64106">
        <ele>519.4</ele>
        <time>2022-06-25T14:22:49Z</time>
      </trkpt>
      <trkpt lat="46.18283" lon="4.64117">
        <ele>519.2</ele>
        <time>2022-06-25T14:22:50Z</time>
      </trkpt>
      <trkpt lat="46.18277" lon="4.6413">
        <ele>519</ele>
        <time>2022-06-25T14:22:51Z</time>
      </trkpt>
      <trkpt lat="46.18273" lon="4.64142">
        <ele>518.6</ele>
        <time>2022-06-25T14:22:52Z</time>
      </trkpt>
      <trkpt lat="46.18268" lon="4.64153">
        <ele>518.2</ele>
        <time>2022-06-25T14:22:53Z</time>
      </trkpt>
      <trkpt lat="46.18261" lon="4.64161">
        <ele>517.8</ele>
        <time>2022-06-25T14:22:54Z</time>
      </trkpt>
      <trkpt lat="46.18253" lon="4.64169">
        <ele>517.6</ele>
        <time>2022-06-25T14:22:55Z</time>
      </trkpt>
      <trkpt lat="46.18244" lon="4.64173">
        <ele>517.2</ele>
        <time>2022-06-25T14:22:56Z</time>
      </trkpt>
      <trkpt lat="46.18235" lon="4.64175">
        <ele>517</ele>
        <time>2022-06-25T14:22:57Z</time>
      </trkpt>
      <trkpt lat="46.18226" lon="4.64175">
        <ele>516.6</ele>
        <time>2022-06-25T14:22:58Z</time>
      </trkpt>
      <trkpt lat="46.18216" lon="4.64173">
        <ele>516.4</ele>
        <time>2022-06-25T14:22:59Z</time>
      </trkpt>
      <trkpt lat="46.18207" lon="4.64169">
        <ele>516.2</ele>
        <time>2022-06-25T14:23:00Z</time>
      </trkpt>
      <trkpt lat="46.18198" lon="4.64166">
        <ele>515.8</ele>
        <time>2022-06-25T14:23:01Z</time>
      </trkpt>
      <trkpt lat="46.18188" lon="4.64164">
        <ele>515.6</ele>
        <time>2022-06-25T14:23:02Z</time>
      </trkpt>
      <trkpt lat="46.1818" lon="4.64161">
        <ele>515.2</ele>
        <time>2022-06-25T14:23:03Z</time>
      </trkpt>
      <trkpt lat="46.18171" lon="4.64159">
        <ele>515</ele>
        <time>2022-06-25T14:23:04Z</time>
      </trkpt>
      <trkpt lat="46.18162" lon="4.64157">
        <ele>514.6</ele>
        <time>2022-06-25T14:23:05Z</time>
      </trkpt>
      <trkpt lat="46.18152" lon="4.64155">
        <ele>514.2</ele>
        <time>2022-06-25T14:23:06Z</time>
      </trkpt>
      <trkpt lat="46.18143" lon="4.64152">
        <ele>513.8</ele>
        <time>2022-06-25T14:23:07Z</time>
      </trkpt>
      <trkpt lat="46.18134" lon="4.64151">
        <ele>513.6</ele>
        <time>2022-06-25T14:23:08Z</time>
      </trkpt>
      <trkpt lat="46.18126" lon="4.6415">
        <ele>513.6</ele>
        <time>2022-06-25T14:23:09Z</time>
      </trkpt>
      <trkpt lat="46.18116" lon="4.64151">
        <ele>513</ele>
        <time>2022-06-25T14:23:10Z</time>
      </trkpt>
      <trkpt lat="46.18107" lon="4.64153">
        <ele>513</ele>
        <time>2022-06-25T14:23:11Z</time>
      </trkpt>
      <trkpt lat="46.18099" lon="4.64156">
        <ele>512.4</ele>
        <time>2022-06-25T14:23:12Z</time>
      </trkpt>
      <trkpt lat="46.18089" lon="4.6416">
        <ele>512</ele>
        <time>2022-06-25T14:23:13Z</time>
      </trkpt>
      <trkpt lat="46.1808" lon="4.64162">
        <ele>511.8</ele>
        <time>2022-06-25T14:23:14Z</time>
      </trkpt>
      <trkpt lat="46.18071" lon="4.64164">
        <ele>511.4</ele>
        <time>2022-06-25T14:23:15Z</time>
      </trkpt>
      <trkpt lat="46.18061" lon="4.64167">
        <ele>510.8</ele>
        <time>2022-06-25T14:23:16Z</time>
      </trkpt>
      <trkpt lat="46.18052" lon="4.64168">
        <ele>510.4</ele>
        <time>2022-06-25T14:23:17Z</time>
      </trkpt>
      <trkpt lat="46.18042" lon="4.6417">
        <ele>510</ele>
        <time>2022-06-25T14:23:18Z</time>
      </trkpt>
      <trkpt lat="46.18033" lon="4.64172">
        <ele>509.6</ele>
        <time>2022-06-25T14:23:19Z</time>
      </trkpt>
      <trkpt lat="46.18024" lon="4.64173">
        <ele>509</ele>
        <time>2022-06-25T14:23:20Z</time>
      </trkpt>
      <trkpt lat="46.18016" lon="4.64173">
        <ele>508.6</ele>
        <time>2022-06-25T14:23:21Z</time>
      </trkpt>
      <trkpt lat="46.18008" lon="4.64174">
        <ele>508.2</ele>
        <time>2022-06-25T14:23:22Z</time>
      </trkpt>
      <trkpt lat="46.18002" lon="4.64175">
        <ele>507.6</ele>
        <time>2022-06-25T14:23:23Z</time>
      </trkpt>
      <trkpt lat="46.17995" lon="4.64176">
        <ele>507.4</ele>
        <time>2022-06-25T14:23:24Z</time>
      </trkpt>
      <trkpt lat="46.17989" lon="4.64177">
        <ele>507</ele>
        <time>2022-06-25T14:23:25Z</time>
      </trkpt>
      <trkpt lat="46.17983" lon="4.64177">
        <ele>506.6</ele>
        <time>2022-06-25T14:23:26Z</time>
      </trkpt>
      <trkpt lat="46.17978" lon="4.64177">
        <ele>506.4</ele>
        <time>2022-06-25T14:23:27Z</time>
      </trkpt>
      <trkpt lat="46.17974" lon="4.64176">
        <ele>506</ele>
        <time>2022-06-25T14:23:28Z</time>
      </trkpt>
      <trkpt lat="46.1797" lon="4.64175">
        <ele>505.8</ele>
        <time>2022-06-25T14:23:29Z</time>
      </trkpt>
      <trkpt lat="46.17967" lon="4.64174">
        <ele>505.6</ele>
        <time>2022-06-25T14:23:30Z</time>
      </trkpt>
      <trkpt lat="46.17965" lon="4.64172">
        <ele>505.6</ele>
        <time>2022-06-25T14:23:31Z</time>
      </trkpt>
      <trkpt lat="46.17963" lon="4.6417">
        <ele>505.4</ele>
        <time>2022-06-25T14:23:32Z</time>
      </trkpt>
      <trkpt lat="46.17961" lon="4.64167">
        <ele>505.4</ele>
        <time>2022-06-25T14:23:33Z</time>
      </trkpt>
      <trkpt lat="46.17959" lon="4.64165">
        <ele>505.2</ele>
        <time>2022-06-25T14:23:34Z</time>
      </trkpt>
      <trkpt lat="46.17957" lon="4.64161">
        <ele>505.2</ele>
        <time>2022-06-25T14:23:35Z</time>
      </trkpt>
      <trkpt lat="46.17956" lon="4.64157">
        <ele>504.8</ele>
        <time>2022-06-25T14:23:36Z</time>
      </trkpt>
      <trkpt lat="46.17955" lon="4.64152">
        <ele>504.8</ele>
        <time>2022-06-25T14:23:37Z</time>
      </trkpt>
      <trkpt lat="46.17954" lon="4.64147">
        <ele>504.6</ele>
        <time>2022-06-25T14:23:38Z</time>
      </trkpt>
      <trkpt lat="46.17953" lon="4.64142">
        <ele>504.6</ele>
        <time>2022-06-25T14:23:39Z</time>
      </trkpt>
      <trkpt lat="46.17953" lon="4.64136">
        <ele>504.6</ele>
        <time>2022-06-25T14:23:40Z</time>
      </trkpt>
      <trkpt lat="46.17953" lon="4.64129">
        <ele>504.4</ele>
        <time>2022-06-25T14:23:41Z</time>
      </trkpt>
      <trkpt lat="46.17952" lon="4.64123">
        <ele>504.4</ele>
        <time>2022-06-25T14:23:42Z</time>
      </trkpt>
      <trkpt lat="46.17951" lon="4.64116">
        <ele>504.4</ele>
        <time>2022-06-25T14:23:43Z</time>
      </trkpt>
      <trkpt lat="46.1795" lon="4.64108">
        <ele>504</ele>
        <time>2022-06-25T14:23:44Z</time>
      </trkpt>
      <trkpt lat="46.17949" lon="4.641">
        <ele>504</ele>
        <time>2022-06-25T14:23:45Z</time>
      </trkpt>
      <trkpt lat="46.17948" lon="4.64092">
        <ele>503.6</ele>
        <time>2022-06-25T14:23:46Z</time>
      </trkpt>
      <trkpt lat="46.17947" lon="4.64084">
        <ele>503.4</ele>
        <time>2022-06-25T14:23:47Z</time>
      </trkpt>
      <trkpt lat="46.17946" lon="4.64077">
        <ele>503</ele>
        <time>2022-06-25T14:23:48Z</time>
      </trkpt>
      <trkpt lat="46.17945" lon="4.64071">
        <ele>502.8</ele>
        <time>2022-06-25T14:23:49Z</time>
      </trkpt>
      <trkpt lat="46.17943" lon="4.64065">
        <ele>502.4</ele>
        <time>2022-06-25T14:23:50Z</time>
      </trkpt>
      <trkpt lat="46.17942" lon="4.64061">
        <ele>502.2</ele>
        <time>2022-06-25T14:23:51Z</time>
      </trkpt>
      <trkpt lat="46.17941" lon="4.64058">
        <ele>502</ele>
        <time>2022-06-25T14:23:52Z</time>
      </trkpt>
      <trkpt lat="46.1794" lon="4.64056">
        <ele>501.6</ele>
        <time>2022-06-25T14:23:53Z</time>
      </trkpt>
      <trkpt lat="46.1794" lon="4.64054">
        <ele>501.6</ele>
        <time>2022-06-25T14:23:54Z</time>
      </trkpt>
      <trkpt lat="46.17939" lon="4.64054">
        <ele>501.2</ele>
        <time>2022-06-25T14:23:55Z</time>
      </trkpt>
      <trkpt lat="46.1794" lon="4.6405">
        <ele>501.2</ele>
        <time>2022-06-25T14:24:35Z</time>
      </trkpt>
      <trkpt lat="46.17941" lon="4.64047">
        <ele>501.2</ele>
        <time>2022-06-25T14:24:36Z</time>
      </trkpt>
      <trkpt lat="46.17941" lon="4.64043">
        <ele>501.2</ele>
        <time>2022-06-25T14:24:37Z</time>
      </trkpt>
      <trkpt lat="46.17941" lon="4.64039">
        <ele>501.2</ele>
        <time>2022-06-25T14:24:38Z</time>
      </trkpt>
      <trkpt lat="46.17941" lon="4.64034">
        <ele>501.2</ele>
        <time>2022-06-25T14:24:39Z</time>
      </trkpt>
      <trkpt lat="46.1794" lon="4.64028">
        <ele>501.2</ele>
        <time>2022-06-25T14:24:40Z</time>
      </trkpt>
      <trkpt lat="46.1794" lon="4.64022">
        <ele>501</ele>
        <time>2022-06-25T14:24:41Z</time>
      </trkpt>
      <trkpt lat="46.17939" lon="4.64015">
        <ele>501</ele>
        <time>2022-06-25T14:24:42Z</time>
      </trkpt>
      <trkpt lat="46.17939" lon="4.64008">
        <ele>500.8</ele>
        <time>2022-06-25T14:24:43Z</time>
      </trkpt>
      <trkpt lat="46.17939" lon="4.64">
        <ele>500.8</ele>
        <time>2022-06-25T14:24:44Z</time>
      </trkpt>
      <trkpt lat="46.17939" lon="4.63992">
        <ele>500.4</ele>
        <time>2022-06-25T14:24:45Z</time>
      </trkpt>
      <trkpt lat="46.17939" lon="4.63983">
        <ele>500.2</ele>
        <time>2022-06-25T14:24:46Z</time>
      </trkpt>
      <trkpt lat="46.17938" lon="4.63974">
        <ele>500.2</ele>
        <time>2022-06-25T14:24:47Z</time>
      </trkpt>
      <trkpt lat="46.17938" lon="4.63965">
        <ele>499.8</ele>
        <time>2022-06-25T14:24:48Z</time>
      </trkpt>
      <trkpt lat="46.17936" lon="4.63955">
        <ele>499.6</ele>
        <time>2022-06-25T14:24:49Z</time>
      </trkpt>
      <trkpt lat="46.17934" lon="4.63946">
        <ele>499.6</ele>
        <time>2022-06-25T14:24:50Z</time>
      </trkpt>
      <trkpt lat="46.1793" lon="4.63937">
        <ele>499.2</ele>
        <time>2022-06-25T14:24:51Z</time>
      </trkpt>
      <trkpt lat="46.17925" lon="4.63929">
        <ele>499</ele>
        <time>2022-06-25T14:24:52Z</time>
      </trkpt>
      <trkpt lat="46.17919" lon="4.63922">
        <ele>499</ele>
        <time>2022-06-25T14:24:53Z</time>
      </trkpt>
      <trkpt lat="46.17913" lon="4.63917">
        <ele>498.8</ele>
        <time>2022-06-25T14:24:54Z</time>
      </trkpt>
      <trkpt lat="46.17907" lon="4.63913">
        <ele>498.8</ele>
        <time>2022-06-25T14:24:55Z</time>
      </trkpt>
      <trkpt lat="46.179" lon="4.6391">
        <ele>498.8</ele>
        <time>2022-06-25T14:24:56Z</time>
      </trkpt>
      <trkpt lat="46.17893" lon="4.63908">
        <ele>498.8</ele>
        <time>2022-06-25T14:24:57Z</time>
      </trkpt>
      <trkpt lat="46.17887" lon="4.63906">
        <ele>498.8</ele>
        <time>2022-06-25T14:24:58Z</time>
      </trkpt>
      <trkpt lat="46.17881" lon="4.63904">
        <ele>498.8</ele>
        <time>2022-06-25T14:24:59Z</time>
      </trkpt>
      <trkpt lat="46.17874" lon="4.63903">
        <ele>498.8</ele>
        <time>2022-06-25T14:25:00Z</time>
      </trkpt>
      <trkpt lat="46.17868" lon="4.63901">
        <ele>498.8</ele>
        <time>2022-06-25T14:25:01Z</time>
      </trkpt>
      <trkpt lat="46.17865" lon="4.63901">
        <ele>498.8</ele>
        <time>2022-06-25T14:25:02Z</time>
      </trkpt>
      <trkpt lat="46.17862" lon="4.639">
        <ele>498.8</ele>
        <time>2022-06-25T14:25:03Z</time>
      </trkpt>
      <trkpt lat="46.17857" lon="4.639">
        <ele>499.2</ele>
        <time>2022-06-25T14:25:04Z</time>
      </trkpt>
      <trkpt lat="46.17851" lon="4.639">
        <ele>499.2</ele>
        <time>2022-06-25T14:25:05Z</time>
      </trkpt>
      <trkpt lat="46.17846" lon="4.63901">
        <ele>499.2</ele>
        <time>2022-06-25T14:25:06Z</time>
      </trkpt>
      <trkpt lat="46.1784" lon="4.63902">
        <ele>499.4</ele>
        <time>2022-06-25T14:25:07Z</time>
      </trkpt>
      <trkpt lat="46.17835" lon="4.63902">
        <ele>499.4</ele>
        <time>2022-06-25T14:25:08Z</time>
      </trkpt>
      <trkpt lat="46.1783" lon="4.63902">
        <ele>499.4</ele>
        <time>2022-06-25T14:25:09Z</time>
      </trkpt>
      <trkpt lat="46.17825" lon="4.63902">
        <ele>499.6</ele>
        <time>2022-06-25T14:25:10Z</time>
      </trkpt>
      <trkpt lat="46.1782" lon="4.63901">
        <ele>499.6</ele>
        <time>2022-06-25T14:25:11Z</time>
      </trkpt>
      <trkpt lat="46.17814" lon="4.63899">
        <ele>499.6</ele>
        <time>2022-06-25T14:25:12Z</time>
      </trkpt>
      <trkpt lat="46.17809" lon="4.63898">
        <ele>499.6</ele>
        <time>2022-06-25T14:25:13Z</time>
      </trkpt>
      <trkpt lat="46.17803" lon="4.63895">
        <ele>499.6</ele>
        <time>2022-06-25T14:25:14Z</time>
      </trkpt>
      <trkpt lat="46.17797" lon="4.63893">
        <ele>499.4</ele>
        <time>2022-06-25T14:25:15Z</time>
      </trkpt>
      <trkpt lat="46.17791" lon="4.6389">
        <ele>499.4</ele>
        <time>2022-06-25T14:25:16Z</time>
      </trkpt>
      <trkpt lat="46.17785" lon="4.63886">
        <ele>499</ele>
        <time>2022-06-25T14:25:17Z</time>
      </trkpt>
      <trkpt lat="46.1778" lon="4.6388">
        <ele>498.8</ele>
        <time>2022-06-25T14:25:18Z</time>
      </trkpt>
      <trkpt lat="46.17774" lon="4.63873">
        <ele>498.4</ele>
        <time>2022-06-25T14:25:19Z</time>
      </trkpt>
      <trkpt lat="46.1777" lon="4.63865">
        <ele>498.2</ele>
        <time>2022-06-25T14:25:20Z</time>
      </trkpt>
      <trkpt lat="46.17766" lon="4.63856">
        <ele>498</ele>
        <time>2022-06-25T14:25:21Z</time>
      </trkpt>
      <trkpt lat="46.17763" lon="4.63846">
        <ele>497.6</ele>
        <time>2022-06-25T14:25:22Z</time>
      </trkpt>
      <trkpt lat="46.17761" lon="4.63835">
        <ele>497.2</ele>
        <time>2022-06-25T14:25:23Z</time>
      </trkpt>
      <trkpt lat="46.17759" lon="4.63823">
        <ele>497</ele>
        <time>2022-06-25T14:25:24Z</time>
      </trkpt>
      <trkpt lat="46.17757" lon="4.63811">
        <ele>496.6</ele>
        <time>2022-06-25T14:25:25Z</time>
      </trkpt>
      <trkpt lat="46.17755" lon="4.63799">
        <ele>496.2</ele>
        <time>2022-06-25T14:25:26Z</time>
      </trkpt>
      <trkpt lat="46.17754" lon="4.63786">
        <ele>495.8</ele>
        <time>2022-06-25T14:25:27Z</time>
      </trkpt>
      <trkpt lat="46.17753" lon="4.63773">
        <ele>495.2</ele>
        <time>2022-06-25T14:25:28Z</time>
      </trkpt>
      <trkpt lat="46.17753" lon="4.63758">
        <ele>494.8</ele>
        <time>2022-06-25T14:25:29Z</time>
      </trkpt>
      <trkpt lat="46.17754" lon="4.63743">
        <ele>494.4</ele>
        <time>2022-06-25T14:25:30Z</time>
      </trkpt>
      <trkpt lat="46.17756" lon="4.63729">
        <ele>494</ele>
        <time>2022-06-25T14:25:31Z</time>
      </trkpt>
      <trkpt lat="46.17758" lon="4.63715">
        <ele>493.4</ele>
        <time>2022-06-25T14:25:32Z</time>
      </trkpt>
      <trkpt lat="46.1776" lon="4.63702">
        <ele>493</ele>
        <time>2022-06-25T14:25:33Z</time>
      </trkpt>
      <trkpt lat="46.17763" lon="4.63688">
        <ele>492.6</ele>
        <time>2022-06-25T14:25:34Z</time>
      </trkpt>
      <trkpt lat="46.17765" lon="4.63676">
        <ele>492.2</ele>
        <time>2022-06-25T14:25:35Z</time>
      </trkpt>
      <trkpt lat="46.17767" lon="4.63662">
        <ele>491.8</ele>
        <time>2022-06-25T14:25:36Z</time>
      </trkpt>
      <trkpt lat="46.17768" lon="4.6365">
        <ele>491.4</ele>
        <time>2022-06-25T14:25:37Z</time>
      </trkpt>
      <trkpt lat="46.17768" lon="4.63639">
        <ele>491</ele>
        <time>2022-06-25T14:25:38Z</time>
      </trkpt>
      <trkpt lat="46.17767" lon="4.63627">
        <ele>490.6</ele>
        <time>2022-06-25T14:25:39Z</time>
      </trkpt>
      <trkpt lat="46.17763" lon="4.63618">
        <ele>490.4</ele>
        <time>2022-06-25T14:25:40Z</time>
      </trkpt>
      <trkpt lat="46.17758" lon="4.63612">
        <ele>490</ele>
        <time>2022-06-25T14:25:41Z</time>
      </trkpt>
      <trkpt lat="46.17751" lon="4.63609">
        <ele>489.8</ele>
        <time>2022-06-25T14:25:42Z</time>
      </trkpt>
      <trkpt lat="46.17745" lon="4.6361">
        <ele>489.8</ele>
        <time>2022-06-25T14:25:43Z</time>
      </trkpt>
      <trkpt lat="46.1774" lon="4.63614">
        <ele>489.8</ele>
        <time>2022-06-25T14:25:44Z</time>
      </trkpt>
      <trkpt lat="46.17735" lon="4.63618">
        <ele>489.8</ele>
        <time>2022-06-25T14:25:45Z</time>
      </trkpt>
      <trkpt lat="46.17731" lon="4.63623">
        <ele>489.8</ele>
        <time>2022-06-25T14:25:46Z</time>
      </trkpt>
      <trkpt lat="46.17727" lon="4.63628">
        <ele>489.8</ele>
        <time>2022-06-25T14:25:47Z</time>
      </trkpt>
      <trkpt lat="46.17723" lon="4.63634">
        <ele>490</ele>
        <time>2022-06-25T14:25:48Z</time>
      </trkpt>
      <trkpt lat="46.1772" lon="4.63639">
        <ele>490.2</ele>
        <time>2022-06-25T14:25:49Z</time>
      </trkpt>
      <trkpt lat="46.17717" lon="4.63644">
        <ele>490.4</ele>
        <time>2022-06-25T14:25:50Z</time>
      </trkpt>
      <trkpt lat="46.17714" lon="4.63648">
        <ele>490.6</ele>
        <time>2022-06-25T14:25:51Z</time>
      </trkpt>
      <trkpt lat="46.1771" lon="4.63652">
        <ele>491</ele>
        <time>2022-06-25T14:25:52Z</time>
      </trkpt>
      <trkpt lat="46.17707" lon="4.63656">
        <ele>491.2</ele>
        <time>2022-06-25T14:25:53Z</time>
      </trkpt>
      <trkpt lat="46.17703" lon="4.63659">
        <ele>491.4</ele>
        <time>2022-06-25T14:25:54Z</time>
      </trkpt>
      <trkpt lat="46.17699" lon="4.63662">
        <ele>491.4</ele>
        <time>2022-06-25T14:25:55Z</time>
      </trkpt>
      <trkpt lat="46.17695" lon="4.63665">
        <ele>491.8</ele>
        <time>2022-06-25T14:25:56Z</time>
      </trkpt>
      <trkpt lat="46.17691" lon="4.63667">
        <ele>492.2</ele>
        <time>2022-06-25T14:25:57Z</time>
      </trkpt>
      <trkpt lat="46.17686" lon="4.63669">
        <ele>492.4</ele>
        <time>2022-06-25T14:25:58Z</time>
      </trkpt>
      <trkpt lat="46.17682" lon="4.6367">
        <ele>492.6</ele>
        <time>2022-06-25T14:25:59Z</time>
      </trkpt>
      <trkpt lat="46.17677" lon="4.6367">
        <ele>492.8</ele>
        <time>2022-06-25T14:26:00Z</time>
      </trkpt>
      <trkpt lat="46.17673" lon="4.6367">
        <ele>493</ele>
        <time>2022-06-25T14:26:01Z</time>
      </trkpt>
      <trkpt lat="46.17668" lon="4.63669">
        <ele>493.4</ele>
        <time>2022-06-25T14:26:02Z</time>
      </trkpt>
      <trkpt lat="46.17664" lon="4.63668">
        <ele>493.6</ele>
        <time>2022-06-25T14:26:03Z</time>
      </trkpt>
      <trkpt lat="46.1766" lon="4.63667">
        <ele>493.6</ele>
        <time>2022-06-25T14:26:04Z</time>
      </trkpt>
      <trkpt lat="46.17656" lon="4.63667">
        <ele>494.2</ele>
        <time>2022-06-25T14:26:05Z</time>
      </trkpt>
      <trkpt lat="46.17652" lon="4.63667">
        <ele>494.4</ele>
        <time>2022-06-25T14:26:06Z</time>
      </trkpt>
      <trkpt lat="46.17648" lon="4.63666">
        <ele>494.4</ele>
        <time>2022-06-25T14:26:07Z</time>
      </trkpt>
      <trkpt lat="46.17644" lon="4.63665">
        <ele>494.8</ele>
        <time>2022-06-25T14:26:08Z</time>
      </trkpt>
      <trkpt lat="46.1764" lon="4.63665">
        <ele>494.8</ele>
        <time>2022-06-25T14:26:09Z</time>
      </trkpt>
      <trkpt lat="46.17637" lon="4.63664">
        <ele>495.2</ele>
        <time>2022-06-25T14:26:10Z</time>
      </trkpt>
      <trkpt lat="46.17634" lon="4.63664">
        <ele>495.2</ele>
        <time>2022-06-25T14:26:11Z</time>
      </trkpt>
      <trkpt lat="46.1763" lon="4.63664">
        <ele>495.4</ele>
        <time>2022-06-25T14:26:12Z</time>
      </trkpt>
      <trkpt lat="46.17627" lon="4.63664">
        <ele>495.8</ele>
        <time>2022-06-25T14:26:13Z</time>
      </trkpt>
      <trkpt lat="46.17623" lon="4.63664">
        <ele>496</ele>
        <time>2022-06-25T14:26:14Z</time>
      </trkpt>
      <trkpt lat="46.1762" lon="4.63664">
        <ele>496.2</ele>
        <time>2022-06-25T14:26:15Z</time>
      </trkpt>
      <trkpt lat="46.17617" lon="4.63664">
        <ele>496.2</ele>
        <time>2022-06-25T14:26:16Z</time>
      </trkpt>
      <trkpt lat="46.17614" lon="4.63664">
        <ele>496.6</ele>
        <time>2022-06-25T14:26:17Z</time>
      </trkpt>
      <trkpt lat="46.17611" lon="4.63664">
        <ele>496.8</ele>
        <time>2022-06-25T14:26:18Z</time>
      </trkpt>
      <trkpt lat="46.17607" lon="4.63664">
        <ele>497</ele>
        <time>2022-06-25T14:26:19Z</time>
      </trkpt>
      <trkpt lat="46.17604" lon="4.63663">
        <ele>497</ele>
        <time>2022-06-25T14:26:20Z</time>
      </trkpt>
      <trkpt lat="46.17601" lon="4.63663">
        <ele>497.2</ele>
        <time>2022-06-25T14:26:21Z</time>
      </trkpt>
      <trkpt lat="46.17598" lon="4.63663">
        <ele>497.4</ele>
        <time>2022-06-25T14:26:22Z</time>
      </trkpt>
      <trkpt lat="46.17595" lon="4.63663">
        <ele>497.8</ele>
        <time>2022-06-25T14:26:23Z</time>
      </trkpt>
      <trkpt lat="46.17592" lon="4.63663">
        <ele>497.8</ele>
        <time>2022-06-25T14:26:24Z</time>
      </trkpt>
      <trkpt lat="46.17589" lon="4.63663">
        <ele>498</ele>
        <time>2022-06-25T14:26:25Z</time>
      </trkpt>
      <trkpt lat="46.17586" lon="4.63663">
        <ele>498</ele>
        <time>2022-06-25T14:26:26Z</time>
      </trkpt>
      <trkpt lat="46.17583" lon="4.63663">
        <ele>498.4</ele>
        <time>2022-06-25T14:26:27Z</time>
      </trkpt>
      <trkpt lat="46.1758" lon="4.63662">
        <ele>498.4</ele>
        <time>2022-06-25T14:26:28Z</time>
      </trkpt>
      <trkpt lat="46.17577" lon="4.63661">
        <ele>498.6</ele>
        <time>2022-06-25T14:26:29Z</time>
      </trkpt>
      <trkpt lat="46.17574" lon="4.63661">
        <ele>498.6</ele>
        <time>2022-06-25T14:26:30Z</time>
      </trkpt>
      <trkpt lat="46.17571" lon="4.63661">
        <ele>499</ele>
        <time>2022-06-25T14:26:31Z</time>
      </trkpt>
      <trkpt lat="46.17569" lon="4.6366">
        <ele>499</ele>
        <time>2022-06-25T14:26:32Z</time>
      </trkpt>
      <trkpt lat="46.17566" lon="4.63661">
        <ele>499.2</ele>
        <time>2022-06-25T14:26:33Z</time>
      </trkpt>
      <trkpt lat="46.17563" lon="4.63661">
        <ele>499.2</ele>
        <time>2022-06-25T14:26:34Z</time>
      </trkpt>
      <trkpt lat="46.1756" lon="4.63661">
        <ele>499.6</ele>
        <time>2022-06-25T14:26:35Z</time>
      </trkpt>
      <trkpt lat="46.17557" lon="4.6366">
        <ele>499.6</ele>
        <time>2022-06-25T14:26:36Z</time>
      </trkpt>
      <trkpt lat="46.17555" lon="4.63659">
        <ele>499.8</ele>
        <time>2022-06-25T14:26:37Z</time>
      </trkpt>
      <trkpt lat="46.17552" lon="4.63658">
        <ele>499.8</ele>
        <time>2022-06-25T14:26:38Z</time>
      </trkpt>
      <trkpt lat="46.17549" lon="4.63657">
        <ele>500.2</ele>
        <time>2022-06-25T14:26:39Z</time>
      </trkpt>
      <trkpt lat="46.17546" lon="4.63657">
        <ele>500.2</ele>
        <time>2022-06-25T14:26:40Z</time>
      </trkpt>
      <trkpt lat="46.17543" lon="4.63655">
        <ele>500.4</ele>
        <time>2022-06-25T14:26:41Z</time>
      </trkpt>
      <trkpt lat="46.17541" lon="4.63654">
        <ele>500.4</ele>
        <time>2022-06-25T14:26:42Z</time>
      </trkpt>
      <trkpt lat="46.17538" lon="4.63652">
        <ele>500.6</ele>
        <time>2022-06-25T14:26:43Z</time>
      </trkpt>
      <trkpt lat="46.17535" lon="4.63649">
        <ele>500.6</ele>
        <time>2022-06-25T14:26:44Z</time>
      </trkpt>
      <trkpt lat="46.17533" lon="4.63647">
        <ele>501</ele>
        <time>2022-06-25T14:26:45Z</time>
      </trkpt>
      <trkpt lat="46.1753" lon="4.63646">
        <ele>501.2</ele>
        <time>2022-06-25T14:26:46Z</time>
      </trkpt>
      <trkpt lat="46.17527" lon="4.63644">
        <ele>501.2</ele>
        <time>2022-06-25T14:26:47Z</time>
      </trkpt>
      <trkpt lat="46.17524" lon="4.63642">
        <ele>501.4</ele>
        <time>2022-06-25T14:26:48Z</time>
      </trkpt>
      <trkpt lat="46.17521" lon="4.6364">
        <ele>501.4</ele>
        <time>2022-06-25T14:26:49Z</time>
      </trkpt>
      <trkpt lat="46.17518" lon="4.63639">
        <ele>501.6</ele>
        <time>2022-06-25T14:26:50Z</time>
      </trkpt>
      <trkpt lat="46.17515" lon="4.63637">
        <ele>501.6</ele>
        <time>2022-06-25T14:26:51Z</time>
      </trkpt>
      <trkpt lat="46.17512" lon="4.63635">
        <ele>502</ele>
        <time>2022-06-25T14:26:52Z</time>
      </trkpt>
      <trkpt lat="46.17509" lon="4.63633">
        <ele>502</ele>
        <time>2022-06-25T14:26:53Z</time>
      </trkpt>
      <trkpt lat="46.17506" lon="4.63632">
        <ele>502.2</ele>
        <time>2022-06-25T14:26:54Z</time>
      </trkpt>
      <trkpt lat="46.17503" lon="4.63631">
        <ele>502.2</ele>
        <time>2022-06-25T14:26:55Z</time>
      </trkpt>
      <trkpt lat="46.175" lon="4.6363">
        <ele>502.4</ele>
        <time>2022-06-25T14:26:56Z</time>
      </trkpt>
      <trkpt lat="46.17497" lon="4.63629">
        <ele>502.4</ele>
        <time>2022-06-25T14:26:57Z</time>
      </trkpt>
      <trkpt lat="46.17494" lon="4.63627">
        <ele>502.6</ele>
        <time>2022-06-25T14:26:58Z</time>
      </trkpt>
      <trkpt lat="46.1749" lon="4.63625">
        <ele>502.6</ele>
        <time>2022-06-25T14:26:59Z</time>
      </trkpt>
      <trkpt lat="46.17487" lon="4.63623">
        <ele>502.6</ele>
        <time>2022-06-25T14:27:00Z</time>
      </trkpt>
      <trkpt lat="46.17483" lon="4.63621">
        <ele>503</ele>
        <time>2022-06-25T14:27:01Z</time>
      </trkpt>
      <trkpt lat="46.17479" lon="4.63619">
        <ele>503</ele>
        <time>2022-06-25T14:27:02Z</time>
      </trkpt>
      <trkpt lat="46.17476" lon="4.63617">
        <ele>503</ele>
        <time>2022-06-25T14:27:03Z</time>
      </trkpt>
      <trkpt lat="46.17471" lon="4.63615">
        <ele>503</ele>
        <time>2022-06-25T14:27:04Z</time>
      </trkpt>
      <trkpt lat="46.17467" lon="4.63613">
        <ele>503</ele>
        <time>2022-06-25T14:27:05Z</time>
      </trkpt>
      <trkpt lat="46.17463" lon="4.6361">
        <ele>502.8</ele>
        <time>2022-06-25T14:27:06Z</time>
      </trkpt>
      <trkpt lat="46.17459" lon="4.63607">
        <ele>502.8</ele>
        <time>2022-06-25T14:27:07Z</time>
      </trkpt>
      <trkpt lat="46.17456" lon="4.63603">
        <ele>502.8</ele>
        <time>2022-06-25T14:27:08Z</time>
      </trkpt>
      <trkpt lat="46.17452" lon="4.63598">
        <ele>502.6</ele>
        <time>2022-06-25T14:27:09Z</time>
      </trkpt>
      <trkpt lat="46.17449" lon="4.63593">
        <ele>502.2</ele>
        <time>2022-06-25T14:27:10Z</time>
      </trkpt>
      <trkpt lat="46.17446" lon="4.63586">
        <ele>502.2</ele>
        <time>2022-06-25T14:27:11Z</time>
      </trkpt>
      <trkpt lat="46.17444" lon="4.63578">
        <ele>502</ele>
        <time>2022-06-25T14:27:12Z</time>
      </trkpt>
      <trkpt lat="46.17443" lon="4.6357">
        <ele>501.8</ele>
        <time>2022-06-25T14:27:13Z</time>
      </trkpt>
      <trkpt lat="46.17443" lon="4.63561">
        <ele>501.4</ele>
        <time>2022-06-25T14:27:14Z</time>
      </trkpt>
      <trkpt lat="46.17444" lon="4.63552">
        <ele>501.4</ele>
        <time>2022-06-25T14:27:15Z</time>
      </trkpt>
      <trkpt lat="46.17446" lon="4.63543">
        <ele>501.2</ele>
        <time>2022-06-25T14:27:16Z</time>
      </trkpt>
      <trkpt lat="46.17449" lon="4.63534">
        <ele>500.8</ele>
        <time>2022-06-25T14:27:17Z</time>
      </trkpt>
      <trkpt lat="46.17453" lon="4.63524">
        <ele>500.6</ele>
        <time>2022-06-25T14:27:18Z</time>
      </trkpt>
      <trkpt lat="46.17456" lon="4.63515">
        <ele>500.4</ele>
        <time>2022-06-25T14:27:19Z</time>
      </trkpt>
      <trkpt lat="46.1746" lon="4.63505">
        <ele>500</ele>
        <time>2022-06-25T14:27:20Z</time>
      </trkpt>
      <trkpt lat="46.17464" lon="4.63494">
        <ele>499.6</ele>
        <time>2022-06-25T14:27:21Z</time>
      </trkpt>
      <trkpt lat="46.17468" lon="4.63483">
        <ele>499.2</ele>
        <time>2022-06-25T14:27:22Z</time>
      </trkpt>
      <trkpt lat="46.17472" lon="4.63472">
        <ele>498.8</ele>
        <time>2022-06-25T14:27:23Z</time>
      </trkpt>
      <trkpt lat="46.17476" lon="4.63461">
        <ele>498.2</ele>
        <time>2022-06-25T14:27:24Z</time>
      </trkpt>
      <trkpt lat="46.1748" lon="4.6345">
        <ele>497.8</ele>
        <time>2022-06-25T14:27:25Z</time>
      </trkpt>
      <trkpt lat="46.17484" lon="4.63439">
        <ele>497.4</ele>
        <time>2022-06-25T14:27:26Z</time>
      </trkpt>
      <trkpt lat="46.17487" lon="4.63428">
        <ele>497</ele>
        <time>2022-06-25T14:27:27Z</time>
      </trkpt>
      <trkpt lat="46.17488" lon="4.63417">
        <ele>496.6</ele>
        <time>2022-06-25T14:27:28Z</time>
      </trkpt>
      <trkpt lat="46.17488" lon="4.63406">
        <ele>496.2</ele>
        <time>2022-06-25T14:27:29Z</time>
      </trkpt>
      <trkpt lat="46.17485" lon="4.63397">
        <ele>495.8</ele>
        <time>2022-06-25T14:27:30Z</time>
      </trkpt>
      <trkpt lat="46.1748" lon="4.63389">
        <ele>495.6</ele>
        <time>2022-06-25T14:27:31Z</time>
      </trkpt>
      <trkpt lat="46.17474" lon="4.63385">
        <ele>495.4</ele>
        <time>2022-06-25T14:27:32Z</time>
      </trkpt>
      <trkpt lat="46.17467" lon="4.63385">
        <ele>495.4</ele>
        <time>2022-06-25T14:27:33Z</time>
      </trkpt>
      <trkpt lat="46.1746" lon="4.63387">
        <ele>495.2</ele>
        <time>2022-06-25T14:27:34Z</time>
      </trkpt>
      <trkpt lat="46.17454" lon="4.6339">
        <ele>495.2</ele>
        <time>2022-06-25T14:27:35Z</time>
      </trkpt>
      <trkpt lat="46.17449" lon="4.63395">
        <ele>495.2</ele>
        <time>2022-06-25T14:27:36Z</time>
      </trkpt>
      <trkpt lat="46.17444" lon="4.634">
        <ele>495.2</ele>
        <time>2022-06-25T14:27:37Z</time>
      </trkpt>
      <trkpt lat="46.17439" lon="4.63404">
        <ele>495.2</ele>
        <time>2022-06-25T14:27:38Z</time>
      </trkpt>
      <trkpt lat="46.17434" lon="4.63409">
        <ele>495.4</ele>
        <time>2022-06-25T14:27:39Z</time>
      </trkpt>
      <trkpt lat="46.17429" lon="4.63414">
        <ele>495.4</ele>
        <time>2022-06-25T14:27:40Z</time>
      </trkpt>
      <trkpt lat="46.17425" lon="4.63418">
        <ele>495.6</ele>
        <time>2022-06-25T14:27:41Z</time>
      </trkpt>
      <trkpt lat="46.1742" lon="4.63423">
        <ele>495.6</ele>
        <time>2022-06-25T14:27:42Z</time>
      </trkpt>
      <trkpt lat="46.17415" lon="4.63428">
        <ele>495.6</ele>
        <time>2022-06-25T14:27:43Z</time>
      </trkpt>
      <trkpt lat="46.17411" lon="4.63432">
        <ele>495.6</ele>
        <time>2022-06-25T14:27:44Z</time>
      </trkpt>
      <trkpt lat="46.17406" lon="4.63437">
        <ele>495.6</ele>
        <time>2022-06-25T14:27:45Z</time>
      </trkpt>
      <trkpt lat="46.17401" lon="4.63442">
        <ele>495.6</ele>
        <time>2022-06-25T14:27:46Z</time>
      </trkpt>
      <trkpt lat="46.17397" lon="4.63446">
        <ele>495.6</ele>
        <time>2022-06-25T14:27:47Z</time>
      </trkpt>
      <trkpt lat="46.17392" lon="4.63451">
        <ele>495.6</ele>
        <time>2022-06-25T14:27:48Z</time>
      </trkpt>
      <trkpt lat="46.17387" lon="4.63456">
        <ele>495.6</ele>
        <time>2022-06-25T14:27:49Z</time>
      </trkpt>
      <trkpt lat="46.17382" lon="4.63461">
        <ele>495.6</ele>
        <time>2022-06-25T14:27:50Z</time>
      </trkpt>
      <trkpt lat="46.17377" lon="4.63464">
        <ele>495.8</ele>
        <time>2022-06-25T14:27:51Z</time>
      </trkpt>
      <trkpt lat="46.17372" lon="4.63468">
        <ele>495.8</ele>
        <time>2022-06-25T14:27:52Z</time>
      </trkpt>
      <trkpt lat="46.17367" lon="4.6347">
        <ele>495.8</ele>
        <time>2022-06-25T14:27:53Z</time>
      </trkpt>
      <trkpt lat="46.17361" lon="4.63472">
        <ele>495.8</ele>
        <time>2022-06-25T14:27:54Z</time>
      </trkpt>
      <trkpt lat="46.17355" lon="4.63473">
        <ele>495.8</ele>
        <time>2022-06-25T14:27:55Z</time>
      </trkpt>
      <trkpt lat="46.17348" lon="4.63473">
        <ele>495.6</ele>
        <time>2022-06-25T14:27:56Z</time>
      </trkpt>
      <trkpt lat="46.17342" lon="4.63472">
        <ele>495.6</ele>
        <time>2022-06-25T14:27:57Z</time>
      </trkpt>
      <trkpt lat="46.17337" lon="4.6347">
        <ele>495.6</ele>
        <time>2022-06-25T14:27:58Z</time>
      </trkpt>
      <trkpt lat="46.17331" lon="4.63467">
        <ele>495.6</ele>
        <time>2022-06-25T14:27:59Z</time>
      </trkpt>
      <trkpt lat="46.17326" lon="4.63463">
        <ele>495.6</ele>
        <time>2022-06-25T14:28:00Z</time>
      </trkpt>
      <trkpt lat="46.1732" lon="4.63459">
        <ele>495.4</ele>
        <time>2022-06-25T14:28:01Z</time>
      </trkpt>
      <trkpt lat="46.17314" lon="4.63455">
        <ele>495.4</ele>
        <time>2022-06-25T14:28:02Z</time>
      </trkpt>
      <trkpt lat="46.17309" lon="4.63451">
        <ele>495.4</ele>
        <time>2022-06-25T14:28:03Z</time>
      </trkpt>
      <trkpt lat="46.17303" lon="4.63447">
        <ele>495.4</ele>
        <time>2022-06-25T14:28:04Z</time>
      </trkpt>
      <trkpt lat="46.17298" lon="4.63443">
        <ele>495.4</ele>
        <time>2022-06-25T14:28:05Z</time>
      </trkpt>
      <trkpt lat="46.17292" lon="4.63439">
        <ele>495.6</ele>
        <time>2022-06-25T14:28:06Z</time>
      </trkpt>
      <trkpt lat="46.17287" lon="4.63435">
        <ele>495.6</ele>
        <time>2022-06-25T14:28:07Z</time>
      </trkpt>
      <trkpt lat="46.17282" lon="4.6343">
        <ele>495.6</ele>
        <time>2022-06-25T14:28:08Z</time>
      </trkpt>
      <trkpt lat="46.17277" lon="4.63427">
        <ele>495.6</ele>
        <time>2022-06-25T14:28:09Z</time>
      </trkpt>
      <trkpt lat="46.17272" lon="4.63423">
        <ele>495.6</ele>
        <time>2022-06-25T14:28:10Z</time>
      </trkpt>
      <trkpt lat="46.17267" lon="4.6342">
        <ele>495.6</ele>
        <time>2022-06-25T14:28:11Z</time>
      </trkpt>
      <trkpt lat="46.17261" lon="4.63417">
        <ele>495.6</ele>
        <time>2022-06-25T14:28:12Z</time>
      </trkpt>
      <trkpt lat="46.17256" lon="4.63413">
        <ele>495.6</ele>
        <time>2022-06-25T14:28:13Z</time>
      </trkpt>
      <trkpt lat="46.1725" lon="4.6341">
        <ele>495.6</ele>
        <time>2022-06-25T14:28:14Z</time>
      </trkpt>
      <trkpt lat="46.17244" lon="4.63408">
        <ele>495.6</ele>
        <time>2022-06-25T14:28:15Z</time>
      </trkpt>
      <trkpt lat="46.17239" lon="4.63405">
        <ele>495.6</ele>
        <time>2022-06-25T14:28:16Z</time>
      </trkpt>
      <trkpt lat="46.17233" lon="4.63402">
        <ele>495.6</ele>
        <time>2022-06-25T14:28:17Z</time>
      </trkpt>
      <trkpt lat="46.17227" lon="4.63399">
        <ele>495.6</ele>
        <time>2022-06-25T14:28:18Z</time>
      </trkpt>
      <trkpt lat="46.17222" lon="4.63397">
        <ele>495.6</ele>
        <time>2022-06-25T14:28:19Z</time>
      </trkpt>
      <trkpt lat="46.17216" lon="4.63394">
        <ele>495.6</ele>
        <time>2022-06-25T14:28:20Z</time>
      </trkpt>
      <trkpt lat="46.17211" lon="4.63392">
        <ele>495.6</ele>
        <time>2022-06-25T14:28:21Z</time>
      </trkpt>
      <trkpt lat="46.17205" lon="4.63389">
        <ele>495.6</ele>
        <time>2022-06-25T14:28:22Z</time>
      </trkpt>
      <trkpt lat="46.172" lon="4.63386">
        <ele>495.6</ele>
        <time>2022-06-25T14:28:23Z</time>
      </trkpt>
      <trkpt lat="46.17194" lon="4.63382">
        <ele>495.4</ele>
        <time>2022-06-25T14:28:24Z</time>
      </trkpt>
      <trkpt lat="46.17188" lon="4.63379">
        <ele>495.4</ele>
        <time>2022-06-25T14:28:25Z</time>
      </trkpt>
      <trkpt lat="46.17182" lon="4.63376">
        <ele>495.2</ele>
        <time>2022-06-25T14:28:26Z</time>
      </trkpt>
      <trkpt lat="46.17175" lon="4.63373">
        <ele>495.2</ele>
        <time>2022-06-25T14:28:27Z</time>
      </trkpt>
      <trkpt lat="46.17169" lon="4.63369">
        <ele>495.2</ele>
        <time>2022-06-25T14:28:28Z</time>
      </trkpt>
      <trkpt lat="46.17163" lon="4.63365">
        <ele>494.8</ele>
        <time>2022-06-25T14:28:29Z</time>
      </trkpt>
      <trkpt lat="46.17157" lon="4.6336">
        <ele>494.6</ele>
        <time>2022-06-25T14:28:30Z</time>
      </trkpt>
      <trkpt lat="46.17151" lon="4.63355">
        <ele>494.4</ele>
        <time>2022-06-25T14:28:31Z</time>
      </trkpt>
      <trkpt lat="46.17145" lon="4.63349">
        <ele>494.4</ele>
        <time>2022-06-25T14:28:32Z</time>
      </trkpt>
      <trkpt lat="46.1714" lon="4.63342">
        <ele>494</ele>
        <time>2022-06-25T14:28:33Z</time>
      </trkpt>
      <trkpt lat="46.17135" lon="4.63334">
        <ele>493.6</ele>
        <time>2022-06-25T14:28:34Z</time>
      </trkpt>
      <trkpt lat="46.17131" lon="4.63325">
        <ele>493.4</ele>
        <time>2022-06-25T14:28:35Z</time>
      </trkpt>
      <trkpt lat="46.17127" lon="4.63315">
        <ele>493.4</ele>
        <time>2022-06-25T14:28:36Z</time>
      </trkpt>
      <trkpt lat="46.17123" lon="4.63306">
        <ele>493</ele>
        <time>2022-06-25T14:28:37Z</time>
      </trkpt>
      <trkpt lat="46.17119" lon="4.63297">
        <ele>492.8</ele>
        <time>2022-06-25T14:28:38Z</time>
      </trkpt>
      <trkpt lat="46.17115" lon="4.63287">
        <ele>492.6</ele>
        <time>2022-06-25T14:28:39Z</time>
      </trkpt>
      <trkpt lat="46.17111" lon="4.63278">
        <ele>492.2</ele>
        <time>2022-06-25T14:28:40Z</time>
      </trkpt>
      <trkpt lat="46.17107" lon="4.63267">
        <ele>492</ele>
        <time>2022-06-25T14:28:41Z</time>
      </trkpt>
      <trkpt lat="46.17104" lon="4.63257">
        <ele>491.6</ele>
        <time>2022-06-25T14:28:42Z</time>
      </trkpt>
      <trkpt lat="46.17101" lon="4.63245">
        <ele>491.2</ele>
        <time>2022-06-25T14:28:43Z</time>
      </trkpt>
      <trkpt lat="46.17099" lon="4.63234">
        <ele>490.8</ele>
        <time>2022-06-25T14:28:44Z</time>
      </trkpt>
      <trkpt lat="46.17095" lon="4.63222">
        <ele>490.4</ele>
        <time>2022-06-25T14:28:45Z</time>
      </trkpt>
      <trkpt lat="46.17091" lon="4.63211">
        <ele>490.2</ele>
        <time>2022-06-25T14:28:46Z</time>
      </trkpt>
      <trkpt lat="46.17086" lon="4.632">
        <ele>489.6</ele>
        <time>2022-06-25T14:28:47Z</time>
      </trkpt>
      <trkpt lat="46.1708" lon="4.63189">
        <ele>489.2</ele>
        <time>2022-06-25T14:28:48Z</time>
      </trkpt>
      <trkpt lat="46.17074" lon="4.63179">
        <ele>488.8</ele>
        <time>2022-06-25T14:28:49Z</time>
      </trkpt>
      <trkpt lat="46.17067" lon="4.63171">
        <ele>488.4</ele>
        <time>2022-06-25T14:28:50Z</time>
      </trkpt>
      <trkpt lat="46.1706" lon="4.63162">
        <ele>487.8</ele>
        <time>2022-06-25T14:28:51Z</time>
      </trkpt>
      <trkpt lat="46.17053" lon="4.63154">
        <ele>487.4</ele>
        <time>2022-06-25T14:28:52Z</time>
      </trkpt>
      <trkpt lat="46.17046" lon="4.63147">
        <ele>487</ele>
        <time>2022-06-25T14:28:53Z</time>
      </trkpt>
      <trkpt lat="46.17038" lon="4.63144">
        <ele>486.4</ele>
        <time>2022-06-25T14:28:54Z</time>
      </trkpt>
      <trkpt lat="46.1703" lon="4.63144">
        <ele>486</ele>
        <time>2022-06-25T14:28:55Z</time>
      </trkpt>
      <trkpt lat="46.17022" lon="4.63147">
        <ele>485.6</ele>
        <time>2022-06-25T14:28:56Z</time>
      </trkpt>
      <trkpt lat="46.17014" lon="4.63152">
        <ele>485.2</ele>
        <time>2022-06-25T14:28:57Z</time>
      </trkpt>
      <trkpt lat="46.17007" lon="4.63159">
        <ele>484.8</ele>
        <time>2022-06-25T14:28:58Z</time>
      </trkpt>
      <trkpt lat="46.17" lon="4.63167">
        <ele>484.6</ele>
        <time>2022-06-25T14:28:59Z</time>
      </trkpt>
      <trkpt lat="46.16993" lon="4.63175">
        <ele>484.6</ele>
        <time>2022-06-25T14:29:00Z</time>
      </trkpt>
      <trkpt lat="46.16986" lon="4.63183">
        <ele>484</ele>
        <time>2022-06-25T14:29:01Z</time>
      </trkpt>
      <trkpt lat="46.16979" lon="4.6319">
        <ele>483.8</ele>
        <time>2022-06-25T14:29:02Z</time>
      </trkpt>
      <trkpt lat="46.16972" lon="4.63198">
        <ele>483.4</ele>
        <time>2022-06-25T14:29:03Z</time>
      </trkpt>
      <trkpt lat="46.16965" lon="4.63206">
        <ele>483.2</ele>
        <time>2022-06-25T14:29:04Z</time>
      </trkpt>
      <trkpt lat="46.16957" lon="4.63215">
        <ele>483.2</ele>
        <time>2022-06-25T14:29:05Z</time>
      </trkpt>
      <trkpt lat="46.16951" lon="4.63223">
        <ele>483</ele>
        <time>2022-06-25T14:29:06Z</time>
      </trkpt>
      <trkpt lat="46.16945" lon="4.63233">
        <ele>483</ele>
        <time>2022-06-25T14:29:07Z</time>
      </trkpt>
      <trkpt lat="46.16939" lon="4.63243">
        <ele>483</ele>
        <time>2022-06-25T14:29:08Z</time>
      </trkpt>
      <trkpt lat="46.16934" lon="4.63252">
        <ele>483</ele>
        <time>2022-06-25T14:29:09Z</time>
      </trkpt>
      <trkpt lat="46.1693" lon="4.63261">
        <ele>483</ele>
        <time>2022-06-25T14:29:10Z</time>
      </trkpt>
      <trkpt lat="46.16925" lon="4.63269">
        <ele>483</ele>
        <time>2022-06-25T14:29:11Z</time>
      </trkpt>
      <trkpt lat="46.16921" lon="4.63277">
        <ele>483.2</ele>
        <time>2022-06-25T14:29:12Z</time>
      </trkpt>
      <trkpt lat="46.16916" lon="4.63284">
        <ele>483.2</ele>
        <time>2022-06-25T14:29:13Z</time>
      </trkpt>
      <trkpt lat="46.16912" lon="4.63289">
        <ele>483.6</ele>
        <time>2022-06-25T14:29:14Z</time>
      </trkpt>
      <trkpt lat="46.16907" lon="4.63294">
        <ele>483.8</ele>
        <time>2022-06-25T14:29:15Z</time>
      </trkpt>
      <trkpt lat="46.16902" lon="4.63298">
        <ele>484.2</ele>
        <time>2022-06-25T14:29:16Z</time>
      </trkpt>
      <trkpt lat="46.16898" lon="4.63302">
        <ele>484.2</ele>
        <time>2022-06-25T14:29:17Z</time>
      </trkpt>
      <trkpt lat="46.16894" lon="4.63305">
        <ele>484.6</ele>
        <time>2022-06-25T14:29:18Z</time>
      </trkpt>
      <trkpt lat="46.1689" lon="4.63309">
        <ele>484.8</ele>
        <time>2022-06-25T14:29:19Z</time>
      </trkpt>
      <trkpt lat="46.16886" lon="4.63313">
        <ele>485</ele>
        <time>2022-06-25T14:29:20Z</time>
      </trkpt>
      <trkpt lat="46.16882" lon="4.63317">
        <ele>485</ele>
        <time>2022-06-25T14:29:21Z</time>
      </trkpt>
      <trkpt lat="46.16878" lon="4.63321">
        <ele>485.6</ele>
        <time>2022-06-25T14:29:22Z</time>
      </trkpt>
      <trkpt lat="46.16874" lon="4.63324">
        <ele>485.6</ele>
        <time>2022-06-25T14:29:23Z</time>
      </trkpt>
      <trkpt lat="46.1687" lon="4.63327">
        <ele>486</ele>
        <time>2022-06-25T14:29:24Z</time>
      </trkpt>
      <trkpt lat="46.16867" lon="4.63331">
        <ele>486</ele>
        <time>2022-06-25T14:29:25Z</time>
      </trkpt>
      <trkpt lat="46.16863" lon="4.63335">
        <ele>486.2</ele>
        <time>2022-06-25T14:29:26Z</time>
      </trkpt>
      <trkpt lat="46.16859" lon="4.63339">
        <ele>486.4</ele>
        <time>2022-06-25T14:29:27Z</time>
      </trkpt>
      <trkpt lat="46.16856" lon="4.63345">
        <ele>486.6</ele>
        <time>2022-06-25T14:29:28Z</time>
      </trkpt>
      <trkpt lat="46.16853" lon="4.6335">
        <ele>486.8</ele>
        <time>2022-06-25T14:29:29Z</time>
      </trkpt>
      <trkpt lat="46.1685" lon="4.63356">
        <ele>486.8</ele>
        <time>2022-06-25T14:29:30Z</time>
      </trkpt>
      <trkpt lat="46.16848" lon="4.63361">
        <ele>487.2</ele>
        <time>2022-06-25T14:29:31Z</time>
      </trkpt>
      <trkpt lat="46.16845" lon="4.63367">
        <ele>487.4</ele>
        <time>2022-06-25T14:29:32Z</time>
      </trkpt>
      <trkpt lat="46.16843" lon="4.63373">
        <ele>487.8</ele>
        <time>2022-06-25T14:29:33Z</time>
      </trkpt>
      <trkpt lat="46.1684" lon="4.63378">
        <ele>488</ele>
        <time>2022-06-25T14:29:34Z</time>
      </trkpt>
      <trkpt lat="46.16838" lon="4.63384">
        <ele>488.4</ele>
        <time>2022-06-25T14:29:35Z</time>
      </trkpt>
      <trkpt lat="46.16835" lon="4.63389">
        <ele>488.6</ele>
        <time>2022-06-25T14:29:36Z</time>
      </trkpt>
      <trkpt lat="46.16833" lon="4.63394">
        <ele>488.8</ele>
        <time>2022-06-25T14:29:37Z</time>
      </trkpt>
      <trkpt lat="46.1683" lon="4.63399">
        <ele>489</ele>
        <time>2022-06-25T14:29:38Z</time>
      </trkpt>
      <trkpt lat="46.16827" lon="4.63403">
        <ele>489.4</ele>
        <time>2022-06-25T14:29:39Z</time>
      </trkpt>
      <trkpt lat="46.16824" lon="4.63407">
        <ele>489.6</ele>
        <time>2022-06-25T14:29:40Z</time>
      </trkpt>
      <trkpt lat="46.16821" lon="4.63412">
        <ele>489.8</ele>
        <time>2022-06-25T14:29:41Z</time>
      </trkpt>
      <trkpt lat="46.16817" lon="4.63416">
        <ele>490.2</ele>
        <time>2022-06-25T14:29:42Z</time>
      </trkpt>
      <trkpt lat="46.16814" lon="4.6342">
        <ele>490.2</ele>
        <time>2022-06-25T14:29:43Z</time>
      </trkpt>
      <trkpt lat="46.1681" lon="4.63425">
        <ele>490.6</ele>
        <time>2022-06-25T14:29:44Z</time>
      </trkpt>
      <trkpt lat="46.16807" lon="4.6343">
        <ele>490.6</ele>
        <time>2022-06-25T14:29:45Z</time>
      </trkpt>
      <trkpt lat="46.16804" lon="4.63434">
        <ele>491</ele>
        <time>2022-06-25T14:29:46Z</time>
      </trkpt>
      <trkpt lat="46.16801" lon="4.63439">
        <ele>491.2</ele>
        <time>2022-06-25T14:29:47Z</time>
      </trkpt>
      <trkpt lat="46.16797" lon="4.63443">
        <ele>491.2</ele>
        <time>2022-06-25T14:29:48Z</time>
      </trkpt>
      <trkpt lat="46.16794" lon="4.63448">
        <ele>491.6</ele>
        <time>2022-06-25T14:29:49Z</time>
      </trkpt>
      <trkpt lat="46.16791" lon="4.63452">
        <ele>491.8</ele>
        <time>2022-06-25T14:29:50Z</time>
      </trkpt>
      <trkpt lat="46.16787" lon="4.63457">
        <ele>492.2</ele>
        <time>2022-06-25T14:29:51Z</time>
      </trkpt>
      <trkpt lat="46.16784" lon="4.63461">
        <ele>492.2</ele>
        <time>2022-06-25T14:29:52Z</time>
      </trkpt>
      <trkpt lat="46.1678" lon="4.63466">
        <ele>492.4</ele>
        <time>2022-06-25T14:29:53Z</time>
      </trkpt>
      <trkpt lat="46.16777" lon="4.6347">
        <ele>492.4</ele>
        <time>2022-06-25T14:29:54Z</time>
      </trkpt>
      <trkpt lat="46.16774" lon="4.63474">
        <ele>492.6</ele>
        <time>2022-06-25T14:29:55Z</time>
      </trkpt>
      <trkpt lat="46.16771" lon="4.63478">
        <ele>493</ele>
        <time>2022-06-25T14:29:56Z</time>
      </trkpt>
      <trkpt lat="46.16768" lon="4.63481">
        <ele>493.2</ele>
        <time>2022-06-25T14:29:57Z</time>
      </trkpt>
      <trkpt lat="46.16765" lon="4.63485">
        <ele>493.2</ele>
        <time>2022-06-25T14:29:58Z</time>
      </trkpt>
      <trkpt lat="46.16762" lon="4.63489">
        <ele>493.4</ele>
        <time>2022-06-25T14:29:59Z</time>
      </trkpt>
      <trkpt lat="46.16758" lon="4.63492">
        <ele>493.4</ele>
        <time>2022-06-25T14:30:00Z</time>
      </trkpt>
      <trkpt lat="46.16755" lon="4.63495">
        <ele>493.6</ele>
        <time>2022-06-25T14:30:01Z</time>
      </trkpt>
      <trkpt lat="46.16751" lon="4.63497">
        <ele>493.6</ele>
        <time>2022-06-25T14:30:02Z</time>
      </trkpt>
      <trkpt lat="46.16747" lon="4.63497">
        <ele>493.6</ele>
        <time>2022-06-25T14:30:03Z</time>
      </trkpt>
      <trkpt lat="46.16742" lon="4.63497">
        <ele>493.6</ele>
        <time>2022-06-25T14:30:04Z</time>
      </trkpt>
      <trkpt lat="46.16737" lon="4.63495">
        <ele>493.6</ele>
        <time>2022-06-25T14:30:05Z</time>
      </trkpt>
      <trkpt lat="46.16733" lon="4.63492">
        <ele>493.6</ele>
        <time>2022-06-25T14:30:06Z</time>
      </trkpt>
      <trkpt lat="46.16728" lon="4.63486">
        <ele>493.4</ele>
        <time>2022-06-25T14:30:07Z</time>
      </trkpt>
      <trkpt lat="46.16724" lon="4.63481">
        <ele>493.4</ele>
        <time>2022-06-25T14:30:08Z</time>
      </trkpt>
      <trkpt lat="46.1672" lon="4.63475">
        <ele>493</ele>
        <time>2022-06-25T14:30:09Z</time>
      </trkpt>
      <trkpt lat="46.16716" lon="4.63468">
        <ele>492.8</ele>
        <time>2022-06-25T14:30:10Z</time>
      </trkpt>
      <trkpt lat="46.16712" lon="4.63462">
        <ele>492.6</ele>
        <time>2022-06-25T14:30:11Z</time>
      </trkpt>
      <trkpt lat="46.16707" lon="4.63455">
        <ele>492.4</ele>
        <time>2022-06-25T14:30:12Z</time>
      </trkpt>
      <trkpt lat="46.16703" lon="4.63448">
        <ele>492</ele>
        <time>2022-06-25T14:30:13Z</time>
      </trkpt>
      <trkpt lat="46.16698" lon="4.63441">
        <ele>491.8</ele>
        <time>2022-06-25T14:30:14Z</time>
      </trkpt>
      <trkpt lat="46.16693" lon="4.63434">
        <ele>491.6</ele>
        <time>2022-06-25T14:30:15Z</time>
      </trkpt>
      <trkpt lat="46.16687" lon="4.63428">
        <ele>491.2</ele>
        <time>2022-06-25T14:30:16Z</time>
      </trkpt>
      <trkpt lat="46.16681" lon="4.63422">
        <ele>491</ele>
        <time>2022-06-25T14:30:17Z</time>
      </trkpt>
      <trkpt lat="46.16675" lon="4.63417">
        <ele>490.6</ele>
        <time>2022-06-25T14:30:18Z</time>
      </trkpt>
      <trkpt lat="46.16668" lon="4.63412">
        <ele>490.4</ele>
        <time>2022-06-25T14:30:19Z</time>
      </trkpt>
      <trkpt lat="46.16662" lon="4.63408">
        <ele>490</ele>
        <time>2022-06-25T14:30:20Z</time>
      </trkpt>
      <trkpt lat="46.16655" lon="4.63404">
        <ele>489.8</ele>
        <time>2022-06-25T14:30:21Z</time>
      </trkpt>
      <trkpt lat="46.16648" lon="4.63399">
        <ele>489.2</ele>
        <time>2022-06-25T14:30:22Z</time>
      </trkpt>
      <trkpt lat="46.16642" lon="4.63393">
        <ele>489.2</ele>
        <time>2022-06-25T14:30:23Z</time>
      </trkpt>
      <trkpt lat="46.16636" lon="4.63387">
        <ele>488.8</ele>
        <time>2022-06-25T14:30:24Z</time>
      </trkpt>
      <trkpt lat="46.1663" lon="4.63379">
        <ele>488.6</ele>
        <time>2022-06-25T14:30:25Z</time>
      </trkpt>
      <trkpt lat="46.16624" lon="4.63371">
        <ele>488.6</ele>
        <time>2022-06-25T14:30:26Z</time>
      </trkpt>
      <trkpt lat="46.16619" lon="4.63363">
        <ele>488</ele>
        <time>2022-06-25T14:30:27Z</time>
      </trkpt>
      <trkpt lat="46.16614" lon="4.63354">
        <ele>487.8</ele>
        <time>2022-06-25T14:30:28Z</time>
      </trkpt>
      <trkpt lat="46.16609" lon="4.63344">
        <ele>487.4</ele>
        <time>2022-06-25T14:30:29Z</time>
      </trkpt>
      <trkpt lat="46.16605" lon="4.63334">
        <ele>487</ele>
        <time>2022-06-25T14:30:30Z</time>
      </trkpt>
      <trkpt lat="46.16601" lon="4.63324">
        <ele>486.6</ele>
        <time>2022-06-25T14:30:31Z</time>
      </trkpt>
      <trkpt lat="46.16597" lon="4.63313">
        <ele>486.2</ele>
        <time>2022-06-25T14:30:32Z</time>
      </trkpt>
      <trkpt lat="46.16594" lon="4.63302">
        <ele>485.8</ele>
        <time>2022-06-25T14:30:33Z</time>
      </trkpt>
      <trkpt lat="46.16592" lon="4.6329">
        <ele>485.4</ele>
        <time>2022-06-25T14:30:34Z</time>
      </trkpt>
      <trkpt lat="46.16591" lon="4.63277">
        <ele>485</ele>
        <time>2022-06-25T14:30:35Z</time>
      </trkpt>
      <trkpt lat="46.16592" lon="4.63264">
        <ele>484.6</ele>
        <time>2022-06-25T14:30:36Z</time>
      </trkpt>
      <trkpt lat="46.16594" lon="4.63251">
        <ele>484</ele>
        <time>2022-06-25T14:30:37Z</time>
      </trkpt>
      <trkpt lat="46.16597" lon="4.63238">
        <ele>483.8</ele>
        <time>2022-06-25T14:30:38Z</time>
      </trkpt>
      <trkpt lat="46.16599" lon="4.63224">
        <ele>483.4</ele>
        <time>2022-06-25T14:30:39Z</time>
      </trkpt>
      <trkpt lat="46.16599" lon="4.6321">
        <ele>483</ele>
        <time>2022-06-25T14:30:40Z</time>
      </trkpt>
      <trkpt lat="46.16596" lon="4.63197">
        <ele>482.6</ele>
        <time>2022-06-25T14:30:41Z</time>
      </trkpt>
      <trkpt lat="46.16591" lon="4.63185">
        <ele>482.2</ele>
        <time>2022-06-25T14:30:42Z</time>
      </trkpt>
      <trkpt lat="46.16584" lon="4.63175">
        <ele>481.8</ele>
        <time>2022-06-25T14:30:43Z</time>
      </trkpt>
      <trkpt lat="46.16577" lon="4.63166">
        <ele>481.4</ele>
        <time>2022-06-25T14:30:44Z</time>
      </trkpt>
      <trkpt lat="46.16569" lon="4.63157">
        <ele>480.8</ele>
        <time>2022-06-25T14:30:45Z</time>
      </trkpt>
      <trkpt lat="46.16561" lon="4.63148">
        <ele>480.4</ele>
        <time>2022-06-25T14:30:46Z</time>
      </trkpt>
      <trkpt lat="46.16554" lon="4.63138">
        <ele>480</ele>
        <time>2022-06-25T14:30:47Z</time>
      </trkpt>
      <trkpt lat="46.16546" lon="4.63129">
        <ele>479.2</ele>
        <time>2022-06-25T14:30:48Z</time>
      </trkpt>
      <trkpt lat="46.16538" lon="4.6312">
        <ele>479</ele>
        <time>2022-06-25T14:30:49Z</time>
      </trkpt>
      <trkpt lat="46.1653" lon="4.63111">
        <ele>478.6</ele>
        <time>2022-06-25T14:30:50Z</time>
      </trkpt>
      <trkpt lat="46.16523" lon="4.63101">
        <ele>478.6</ele>
        <time>2022-06-25T14:30:51Z</time>
      </trkpt>
      <trkpt lat="46.16516" lon="4.63091">
        <ele>478.2</ele>
        <time>2022-06-25T14:30:52Z</time>
      </trkpt>
      <trkpt lat="46.16509" lon="4.63081">
        <ele>478</ele>
        <time>2022-06-25T14:30:53Z</time>
      </trkpt>
      <trkpt lat="46.16502" lon="4.63071">
        <ele>477.8</ele>
        <time>2022-06-25T14:30:54Z</time>
      </trkpt>
      <trkpt lat="46.16495" lon="4.63063">
        <ele>477.8</ele>
        <time>2022-06-25T14:30:55Z</time>
      </trkpt>
      <trkpt lat="46.16486" lon="4.63056">
        <ele>477.4</ele>
        <time>2022-06-25T14:30:56Z</time>
      </trkpt>
      <trkpt lat="46.16478" lon="4.6305">
        <ele>477.4</ele>
        <time>2022-06-25T14:30:57Z</time>
      </trkpt>
      <trkpt lat="46.1647" lon="4.63044">
        <ele>477.4</ele>
        <time>2022-06-25T14:30:58Z</time>
      </trkpt>
      <trkpt lat="46.16463" lon="4.63038">
        <ele>477.4</ele>
        <time>2022-06-25T14:30:59Z</time>
      </trkpt>
      <trkpt lat="46.16457" lon="4.63031">
        <ele>477.4</ele>
        <time>2022-06-25T14:31:00Z</time>
      </trkpt>
      <trkpt lat="46.16447" lon="4.6302">
        <ele>477.4</ele>
        <time>2022-06-25T14:31:01Z</time>
      </trkpt>
      <trkpt lat="46.16444" lon="4.63016">
        <ele>477.4</ele>
        <time>2022-06-25T14:31:02Z</time>
      </trkpt>
      <trkpt lat="46.16439" lon="4.63009">
        <ele>477.4</ele>
        <time>2022-06-25T14:31:03Z</time>
      </trkpt>
      <trkpt lat="46.16433" lon="4.63001">
        <ele>477.4</ele>
        <time>2022-06-25T14:31:04Z</time>
      </trkpt>
      <trkpt lat="46.16428" lon="4.62993">
        <ele>477.2</ele>
        <time>2022-06-25T14:31:05Z</time>
      </trkpt>
      <trkpt lat="46.16423" lon="4.62985">
        <ele>477.2</ele>
        <time>2022-06-25T14:31:06Z</time>
      </trkpt>
      <trkpt lat="46.16418" lon="4.62977">
        <ele>477.2</ele>
        <time>2022-06-25T14:31:07Z</time>
      </trkpt>
      <trkpt lat="46.16413" lon="4.62969">
        <ele>477</ele>
        <time>2022-06-25T14:31:08Z</time>
      </trkpt>
      <trkpt lat="46.16408" lon="4.62962">
        <ele>476.4</ele>
        <time>2022-06-25T14:31:09Z</time>
      </trkpt>
      <trkpt lat="46.16403" lon="4.62954">
        <ele>476.4</ele>
        <time>2022-06-25T14:31:10Z</time>
      </trkpt>
      <trkpt lat="46.16398" lon="4.62946">
        <ele>476</ele>
        <time>2022-06-25T14:31:11Z</time>
      </trkpt>
      <trkpt lat="46.16392" lon="4.62938">
        <ele>476</ele>
        <time>2022-06-25T14:31:12Z</time>
      </trkpt>
      <trkpt lat="46.16387" lon="4.6293">
        <ele>476</ele>
        <time>2022-06-25T14:31:13Z</time>
      </trkpt>
      <trkpt lat="46.16382" lon="4.62922">
        <ele>475.6</ele>
        <time>2022-06-25T14:31:14Z</time>
      </trkpt>
      <trkpt lat="46.16377" lon="4.62913">
        <ele>475.2</ele>
        <time>2022-06-25T14:31:15Z</time>
      </trkpt>
      <trkpt lat="46.16372" lon="4.62905">
        <ele>475</ele>
        <time>2022-06-25T14:31:16Z</time>
      </trkpt>
      <trkpt lat="46.16366" lon="4.62896">
        <ele>474.6</ele>
        <time>2022-06-25T14:31:17Z</time>
      </trkpt>
      <trkpt lat="46.16361" lon="4.62888">
        <ele>474.4</ele>
        <time>2022-06-25T14:31:18Z</time>
      </trkpt>
      <trkpt lat="46.16355" lon="4.62878">
        <ele>474</ele>
        <time>2022-06-25T14:31:19Z</time>
      </trkpt>
      <trkpt lat="46.16349" lon="4.62869">
        <ele>473.6</ele>
        <time>2022-06-25T14:31:20Z</time>
      </trkpt>
      <trkpt lat="46.16344" lon="4.62859">
        <ele>473.2</ele>
        <time>2022-06-25T14:31:21Z</time>
      </trkpt>
      <trkpt lat="46.16338" lon="4.6285">
        <ele>472.8</ele>
        <time>2022-06-25T14:31:22Z</time>
      </trkpt>
      <trkpt lat="46.16332" lon="4.62839">
        <ele>472.8</ele>
        <time>2022-06-25T14:31:23Z</time>
      </trkpt>
      <trkpt lat="46.16326" lon="4.62828">
        <ele>472.4</ele>
        <time>2022-06-25T14:31:24Z</time>
      </trkpt>
      <trkpt lat="46.16319" lon="4.62819">
        <ele>472.4</ele>
        <time>2022-06-25T14:31:25Z</time>
      </trkpt>
      <trkpt lat="46.16304" lon="4.628">
        <ele>472</ele>
        <time>2022-06-25T14:31:26Z</time>
      </trkpt>
      <trkpt lat="46.16296" lon="4.62792">
        <ele>471.6</ele>
        <time>2022-06-25T14:31:27Z</time>
      </trkpt>
      <trkpt lat="46.16288" lon="4.62783">
        <ele>471</ele>
        <time>2022-06-25T14:31:28Z</time>
      </trkpt>
      <trkpt lat="46.16279" lon="4.62775">
        <ele>470.6</ele>
        <time>2022-06-25T14:31:29Z</time>
      </trkpt>
      <trkpt lat="46.16271" lon="4.62767">
        <ele>470</ele>
        <time>2022-06-25T14:31:30Z</time>
      </trkpt>
      <trkpt lat="46.16262" lon="4.62759">
        <ele>469.6</ele>
        <time>2022-06-25T14:31:31Z</time>
      </trkpt>
      <trkpt lat="46.16253" lon="4.62751">
        <ele>468.8</ele>
        <time>2022-06-25T14:31:32Z</time>
      </trkpt>
      <trkpt lat="46.16243" lon="4.62743">
        <ele>468.2</ele>
        <time>2022-06-25T14:31:33Z</time>
      </trkpt>
      <trkpt lat="46.16235" lon="4.62734">
        <ele>467.6</ele>
        <time>2022-06-25T14:31:34Z</time>
      </trkpt>
      <trkpt lat="46.16226" lon="4.62726">
        <ele>467</ele>
        <time>2022-06-25T14:31:35Z</time>
      </trkpt>
      <trkpt lat="46.16218" lon="4.62717">
        <ele>466.4</ele>
        <time>2022-06-25T14:31:36Z</time>
      </trkpt>
      <trkpt lat="46.16209" lon="4.62709">
        <ele>465.8</ele>
        <time>2022-06-25T14:31:37Z</time>
      </trkpt>
      <trkpt lat="46.162" lon="4.627">
        <ele>465.4</ele>
        <time>2022-06-25T14:31:38Z</time>
      </trkpt>
      <trkpt lat="46.1619" lon="4.62693">
        <ele>465</ele>
        <time>2022-06-25T14:31:39Z</time>
      </trkpt>
      <trkpt lat="46.16181" lon="4.62684">
        <ele>464.6</ele>
        <time>2022-06-25T14:31:40Z</time>
      </trkpt>
      <trkpt lat="46.16172" lon="4.62676">
        <ele>464.4</ele>
        <time>2022-06-25T14:31:41Z</time>
      </trkpt>
      <trkpt lat="46.16163" lon="4.62668">
        <ele>463.8</ele>
        <time>2022-06-25T14:31:42Z</time>
      </trkpt>
      <trkpt lat="46.16154" lon="4.62663">
        <ele>463.6</ele>
        <time>2022-06-25T14:31:43Z</time>
      </trkpt>
      <trkpt lat="46.16145" lon="4.62659">
        <ele>463.2</ele>
        <time>2022-06-25T14:31:44Z</time>
      </trkpt>
      <trkpt lat="46.16136" lon="4.62655">
        <ele>463</ele>
        <time>2022-06-25T14:31:45Z</time>
      </trkpt>
      <trkpt lat="46.16126" lon="4.62652">
        <ele>462.6</ele>
        <time>2022-06-25T14:31:46Z</time>
      </trkpt>
      <trkpt lat="46.16117" lon="4.62649">
        <ele>462.4</ele>
        <time>2022-06-25T14:31:47Z</time>
      </trkpt>
      <trkpt lat="46.16107" lon="4.62645">
        <ele>462</ele>
        <time>2022-06-25T14:31:48Z</time>
      </trkpt>
      <trkpt lat="46.16098" lon="4.62642">
        <ele>461.8</ele>
        <time>2022-06-25T14:31:49Z</time>
      </trkpt>
      <trkpt lat="46.16089" lon="4.6264">
        <ele>461.6</ele>
        <time>2022-06-25T14:31:50Z</time>
      </trkpt>
      <trkpt lat="46.1608" lon="4.62637">
        <ele>461.4</ele>
        <time>2022-06-25T14:31:51Z</time>
      </trkpt>
      <trkpt lat="46.16071" lon="4.62634">
        <ele>461.2</ele>
        <time>2022-06-25T14:31:52Z</time>
      </trkpt>
      <trkpt lat="46.16063" lon="4.62631">
        <ele>461.2</ele>
        <time>2022-06-25T14:31:53Z</time>
      </trkpt>
      <trkpt lat="46.16054" lon="4.62628">
        <ele>461</ele>
        <time>2022-06-25T14:31:54Z</time>
      </trkpt>
      <trkpt lat="46.16045" lon="4.62625">
        <ele>461</ele>
        <time>2022-06-25T14:31:55Z</time>
      </trkpt>
      <trkpt lat="46.16037" lon="4.62623">
        <ele>461</ele>
        <time>2022-06-25T14:31:56Z</time>
      </trkpt>
      <trkpt lat="46.16029" lon="4.6262">
        <ele>460.6</ele>
        <time>2022-06-25T14:31:57Z</time>
      </trkpt>
      <trkpt lat="46.16021" lon="4.62617">
        <ele>460.6</ele>
        <time>2022-06-25T14:31:58Z</time>
      </trkpt>
      <trkpt lat="46.16017" lon="4.62616">
        <ele>460.6</ele>
        <time>2022-06-25T14:31:59Z</time>
      </trkpt>
      <trkpt lat="46.16013" lon="4.62614">
        <ele>460.6</ele>
        <time>2022-06-25T14:32:00Z</time>
      </trkpt>
      <trkpt lat="46.16006" lon="4.6261">
        <ele>460.6</ele>
        <time>2022-06-25T14:32:01Z</time>
      </trkpt>
      <trkpt lat="46.15998" lon="4.62606">
        <ele>460.6</ele>
        <time>2022-06-25T14:32:02Z</time>
      </trkpt>
      <trkpt lat="46.15991" lon="4.62601">
        <ele>460.6</ele>
        <time>2022-06-25T14:32:03Z</time>
      </trkpt>
      <trkpt lat="46.15985" lon="4.62595">
        <ele>460.6</ele>
        <time>2022-06-25T14:32:04Z</time>
      </trkpt>
      <trkpt lat="46.15981" lon="4.62588">
        <ele>460.6</ele>
        <time>2022-06-25T14:32:05Z</time>
      </trkpt>
      <trkpt lat="46.15976" lon="4.6258">
        <ele>460.6</ele>
        <time>2022-06-25T14:32:06Z</time>
      </trkpt>
      <trkpt lat="46.15973" lon="4.62572">
        <ele>461</ele>
        <time>2022-06-25T14:32:07Z</time>
      </trkpt>
      <trkpt lat="46.15969" lon="4.62564">
        <ele>461</ele>
        <time>2022-06-25T14:32:08Z</time>
      </trkpt>
      <trkpt lat="46.15967" lon="4.62554">
        <ele>461</ele>
        <time>2022-06-25T14:32:09Z</time>
      </trkpt>
      <trkpt lat="46.15965" lon="4.62545">
        <ele>461</ele>
        <time>2022-06-25T14:32:10Z</time>
      </trkpt>
      <trkpt lat="46.15963" lon="4.62535">
        <ele>460.6</ele>
        <time>2022-06-25T14:32:11Z</time>
      </trkpt>
      <trkpt lat="46.15961" lon="4.62525">
        <ele>460.6</ele>
        <time>2022-06-25T14:32:12Z</time>
      </trkpt>
      <trkpt lat="46.1596" lon="4.62514">
        <ele>460.4</ele>
        <time>2022-06-25T14:32:13Z</time>
      </trkpt>
      <trkpt lat="46.15958" lon="4.62503">
        <ele>460.2</ele>
        <time>2022-06-25T14:32:14Z</time>
      </trkpt>
      <trkpt lat="46.15957" lon="4.62491">
        <ele>459.8</ele>
        <time>2022-06-25T14:32:15Z</time>
      </trkpt>
      <trkpt lat="46.15956" lon="4.6248">
        <ele>459.6</ele>
        <time>2022-06-25T14:32:16Z</time>
      </trkpt>
      <trkpt lat="46.15955" lon="4.62467">
        <ele>459.2</ele>
        <time>2022-06-25T14:32:17Z</time>
      </trkpt>
      <trkpt lat="46.15955" lon="4.62455">
        <ele>458.8</ele>
        <time>2022-06-25T14:32:18Z</time>
      </trkpt>
      <trkpt lat="46.15954" lon="4.62442">
        <ele>458.4</ele>
        <time>2022-06-25T14:32:19Z</time>
      </trkpt>
      <trkpt lat="46.15955" lon="4.62426">
        <ele>458</ele>
        <time>2022-06-25T14:32:20Z</time>
      </trkpt>
      <trkpt lat="46.15955" lon="4.6241">
        <ele>457.4</ele>
        <time>2022-06-25T14:32:21Z</time>
      </trkpt>
      <trkpt lat="46.15954" lon="4.62395">
        <ele>457</ele>
        <time>2022-06-25T14:32:22Z</time>
      </trkpt>
      <trkpt lat="46.15952" lon="4.62381">
        <ele>456.6</ele>
        <time>2022-06-25T14:32:23Z</time>
      </trkpt>
      <trkpt lat="46.1595" lon="4.62367">
        <ele>456</ele>
        <time>2022-06-25T14:32:24Z</time>
      </trkpt>
      <trkpt lat="46.15948" lon="4.62354">
        <ele>455.6</ele>
        <time>2022-06-25T14:32:25Z</time>
      </trkpt>
      <trkpt lat="46.15945" lon="4.6234">
        <ele>455</ele>
        <time>2022-06-25T14:32:26Z</time>
      </trkpt>
      <trkpt lat="46.15941" lon="4.62326">
        <ele>454.6</ele>
        <time>2022-06-25T14:32:27Z</time>
      </trkpt>
      <trkpt lat="46.15935" lon="4.62312">
        <ele>454.2</ele>
        <time>2022-06-25T14:32:28Z</time>
      </trkpt>
      <trkpt lat="46.15928" lon="4.62299">
        <ele>453.6</ele>
        <time>2022-06-25T14:32:29Z</time>
      </trkpt>
      <trkpt lat="46.15921" lon="4.62288">
        <ele>453.2</ele>
        <time>2022-06-25T14:32:30Z</time>
      </trkpt>
      <trkpt lat="46.15912" lon="4.62279">
        <ele>452.8</ele>
        <time>2022-06-25T14:32:31Z</time>
      </trkpt>
      <trkpt lat="46.15903" lon="4.6227">
        <ele>452.2</ele>
        <time>2022-06-25T14:32:32Z</time>
      </trkpt>
      <trkpt lat="46.15893" lon="4.6226">
        <ele>451.6</ele>
        <time>2022-06-25T14:32:33Z</time>
      </trkpt>
      <trkpt lat="46.15884" lon="4.62249">
        <ele>451.2</ele>
        <time>2022-06-25T14:32:34Z</time>
      </trkpt>
      <trkpt lat="46.15875" lon="4.62238">
        <ele>450.6</ele>
        <time>2022-06-25T14:32:35Z</time>
      </trkpt>
      <trkpt lat="46.15866" lon="4.62227">
        <ele>450</ele>
        <time>2022-06-25T14:32:36Z</time>
      </trkpt>
      <trkpt lat="46.15857" lon="4.62218">
        <ele>449.4</ele>
        <time>2022-06-25T14:32:37Z</time>
      </trkpt>
      <trkpt lat="46.15848" lon="4.6221">
        <ele>448.8</ele>
        <time>2022-06-25T14:32:38Z</time>
      </trkpt>
      <trkpt lat="46.1584" lon="4.62202">
        <ele>448</ele>
        <time>2022-06-25T14:32:39Z</time>
      </trkpt>
      <trkpt lat="46.15833" lon="4.62193">
        <ele>447.4</ele>
        <time>2022-06-25T14:32:40Z</time>
      </trkpt>
      <trkpt lat="46.15826" lon="4.62183">
        <ele>446.8</ele>
        <time>2022-06-25T14:32:41Z</time>
      </trkpt>
      <trkpt lat="46.1582" lon="4.62174">
        <ele>446.2</ele>
        <time>2022-06-25T14:32:42Z</time>
      </trkpt>
      <trkpt lat="46.15816" lon="4.62162">
        <ele>445.6</ele>
        <time>2022-06-25T14:32:43Z</time>
      </trkpt>
      <trkpt lat="46.15812" lon="4.62149">
        <ele>444.8</ele>
        <time>2022-06-25T14:32:44Z</time>
      </trkpt>
      <trkpt lat="46.15808" lon="4.62135">
        <ele>444.2</ele>
        <time>2022-06-25T14:32:45Z</time>
      </trkpt>
      <trkpt lat="46.15806" lon="4.6212">
        <ele>443.6</ele>
        <time>2022-06-25T14:32:46Z</time>
      </trkpt>
      <trkpt lat="46.15803" lon="4.62105">
        <ele>443.2</ele>
        <time>2022-06-25T14:32:47Z</time>
      </trkpt>
      <trkpt lat="46.15799" lon="4.62091">
        <ele>442.6</ele>
        <time>2022-06-25T14:32:48Z</time>
      </trkpt>
      <trkpt lat="46.15793" lon="4.62081">
        <ele>442</ele>
        <time>2022-06-25T14:32:49Z</time>
      </trkpt>
      <trkpt lat="46.15785" lon="4.62072">
        <ele>441.6</ele>
        <time>2022-06-25T14:32:50Z</time>
      </trkpt>
      <trkpt lat="46.15778" lon="4.62063">
        <ele>441.2</ele>
        <time>2022-06-25T14:32:51Z</time>
      </trkpt>
      <trkpt lat="46.1577" lon="4.62053">
        <ele>440.8</ele>
        <time>2022-06-25T14:32:52Z</time>
      </trkpt>
      <trkpt lat="46.15762" lon="4.62043">
        <ele>440.6</ele>
        <time>2022-06-25T14:32:53Z</time>
      </trkpt>
      <trkpt lat="46.15756" lon="4.62032">
        <ele>440.6</ele>
        <time>2022-06-25T14:32:54Z</time>
      </trkpt>
      <trkpt lat="46.15751" lon="4.6202">
        <ele>440.2</ele>
        <time>2022-06-25T14:32:55Z</time>
      </trkpt>
      <trkpt lat="46.15746" lon="4.62007">
        <ele>439.8</ele>
        <time>2022-06-25T14:32:56Z</time>
      </trkpt>
      <trkpt lat="46.15742" lon="4.61995">
        <ele>439.6</ele>
        <time>2022-06-25T14:32:57Z</time>
      </trkpt>
      <trkpt lat="46.15737" lon="4.61983">
        <ele>439.2</ele>
        <time>2022-06-25T14:32:58Z</time>
      </trkpt>
      <trkpt lat="46.15733" lon="4.6197">
        <ele>439</ele>
        <time>2022-06-25T14:32:59Z</time>
      </trkpt>
      <trkpt lat="46.15729" lon="4.61958">
        <ele>438.6</ele>
        <time>2022-06-25T14:33:00Z</time>
      </trkpt>
      <trkpt lat="46.15725" lon="4.61946">
        <ele>438.4</ele>
        <time>2022-06-25T14:33:01Z</time>
      </trkpt>
      <trkpt lat="46.15722" lon="4.61933">
        <ele>438.2</ele>
        <time>2022-06-25T14:33:02Z</time>
      </trkpt>
      <trkpt lat="46.15718" lon="4.61921">
        <ele>438</ele>
        <time>2022-06-25T14:33:03Z</time>
      </trkpt>
      <trkpt lat="46.15714" lon="4.61908">
        <ele>437.8</ele>
        <time>2022-06-25T14:33:04Z</time>
      </trkpt>
      <trkpt lat="46.15711" lon="4.61895">
        <ele>437.8</ele>
        <time>2022-06-25T14:33:05Z</time>
      </trkpt>
      <trkpt lat="46.15707" lon="4.61883">
        <ele>437.4</ele>
        <time>2022-06-25T14:33:06Z</time>
      </trkpt>
      <trkpt lat="46.15703" lon="4.61871">
        <ele>437.4</ele>
        <time>2022-06-25T14:33:07Z</time>
      </trkpt>
      <trkpt lat="46.157" lon="4.61859">
        <ele>437.2</ele>
        <time>2022-06-25T14:33:08Z</time>
      </trkpt>
      <trkpt lat="46.15699" lon="4.61846">
        <ele>437</ele>
        <time>2022-06-25T14:33:09Z</time>
      </trkpt>
      <trkpt lat="46.15698" lon="4.61833">
        <ele>437</ele>
        <time>2022-06-25T14:33:10Z</time>
      </trkpt>
      <trkpt lat="46.15698" lon="4.6182">
        <ele>436.8</ele>
        <time>2022-06-25T14:33:11Z</time>
      </trkpt>
      <trkpt lat="46.15698" lon="4.61807">
        <ele>436.8</ele>
        <time>2022-06-25T14:33:12Z</time>
      </trkpt>
      <trkpt lat="46.15699" lon="4.61794">
        <ele>436.4</ele>
        <time>2022-06-25T14:33:13Z</time>
      </trkpt>
      <trkpt lat="46.157" lon="4.61782">
        <ele>436.4</ele>
        <time>2022-06-25T14:33:14Z</time>
      </trkpt>
      <trkpt lat="46.15701" lon="4.61769">
        <ele>436.4</ele>
        <time>2022-06-25T14:33:15Z</time>
      </trkpt>
      <trkpt lat="46.15701" lon="4.61757">
        <ele>436.2</ele>
        <time>2022-06-25T14:33:16Z</time>
      </trkpt>
      <trkpt lat="46.15702" lon="4.61745">
        <ele>436.2</ele>
        <time>2022-06-25T14:33:17Z</time>
      </trkpt>
      <trkpt lat="46.15701" lon="4.61733">
        <ele>435.8</ele>
        <time>2022-06-25T14:33:18Z</time>
      </trkpt>
      <trkpt lat="46.15698" lon="4.61721">
        <ele>435.6</ele>
        <time>2022-06-25T14:33:20Z</time>
      </trkpt>
      <trkpt lat="46.15695" lon="4.6171">
        <ele>435.6</ele>
        <time>2022-06-25T14:33:21Z</time>
      </trkpt>
      <trkpt lat="46.1569" lon="4.617">
        <ele>435.6</ele>
        <time>2022-06-25T14:33:22Z</time>
      </trkpt>
      <trkpt lat="46.15685" lon="4.61693">
        <ele>435.6</ele>
        <time>2022-06-25T14:33:23Z</time>
      </trkpt>
      <trkpt lat="46.15679" lon="4.61686">
        <ele>435.6</ele>
        <time>2022-06-25T14:33:24Z</time>
      </trkpt>
      <trkpt lat="46.15673" lon="4.61681">
        <ele>435.6</ele>
        <time>2022-06-25T14:33:25Z</time>
      </trkpt>
      <trkpt lat="46.15667" lon="4.61677">
        <ele>435.8</ele>
        <time>2022-06-25T14:33:26Z</time>
      </trkpt>
      <trkpt lat="46.15661" lon="4.61672">
        <ele>435.8</ele>
        <time>2022-06-25T14:33:27Z</time>
      </trkpt>
      <trkpt lat="46.15656" lon="4.61667">
        <ele>436</ele>
        <time>2022-06-25T14:33:28Z</time>
      </trkpt>
      <trkpt lat="46.15651" lon="4.61663">
        <ele>436.2</ele>
        <time>2022-06-25T14:33:29Z</time>
      </trkpt>
      <trkpt lat="46.15647" lon="4.61658">
        <ele>436.2</ele>
        <time>2022-06-25T14:33:30Z</time>
      </trkpt>
      <trkpt lat="46.15643" lon="4.61654">
        <ele>436.6</ele>
        <time>2022-06-25T14:33:31Z</time>
      </trkpt>
      <trkpt lat="46.15639" lon="4.61649">
        <ele>436.6</ele>
        <time>2022-06-25T14:33:32Z</time>
      </trkpt>
      <trkpt lat="46.15635" lon="4.61644">
        <ele>437</ele>
        <time>2022-06-25T14:33:33Z</time>
      </trkpt>
      <trkpt lat="46.15632" lon="4.6164">
        <ele>437</ele>
        <time>2022-06-25T14:33:34Z</time>
      </trkpt>
      <trkpt lat="46.15629" lon="4.61635">
        <ele>437.4</ele>
        <time>2022-06-25T14:33:35Z</time>
      </trkpt>
      <trkpt lat="46.15626" lon="4.61631">
        <ele>437.6</ele>
        <time>2022-06-25T14:33:36Z</time>
      </trkpt>
      <trkpt lat="46.15624" lon="4.61626">
        <ele>438</ele>
        <time>2022-06-25T14:33:37Z</time>
      </trkpt>
      <trkpt lat="46.15622" lon="4.61621">
        <ele>438.2</ele>
        <time>2022-06-25T14:33:38Z</time>
      </trkpt>
      <trkpt lat="46.15621" lon="4.61616">
        <ele>438.2</ele>
        <time>2022-06-25T14:33:39Z</time>
      </trkpt>
      <trkpt lat="46.15619" lon="4.6161">
        <ele>438.6</ele>
        <time>2022-06-25T14:33:40Z</time>
      </trkpt>
      <trkpt lat="46.15618" lon="4.61605">
        <ele>438.6</ele>
        <time>2022-06-25T14:33:41Z</time>
      </trkpt>
      <trkpt lat="46.15617" lon="4.61599">
        <ele>438.6</ele>
        <time>2022-06-25T14:33:42Z</time>
      </trkpt>
      <trkpt lat="46.15616" lon="4.61593">
        <ele>438.6</ele>
        <time>2022-06-25T14:33:43Z</time>
      </trkpt>
      <trkpt lat="46.15615" lon="4.61587">
        <ele>438.8</ele>
        <time>2022-06-25T14:33:44Z</time>
      </trkpt>
      <trkpt lat="46.15615" lon="4.61581">
        <ele>438.8</ele>
        <time>2022-06-25T14:33:45Z</time>
      </trkpt>
      <trkpt lat="46.15614" lon="4.61574">
        <ele>438.8</ele>
        <time>2022-06-25T14:33:46Z</time>
      </trkpt>
      <trkpt lat="46.15613" lon="4.61568">
        <ele>439.2</ele>
        <time>2022-06-25T14:33:47Z</time>
      </trkpt>
      <trkpt lat="46.15612" lon="4.61562">
        <ele>439.2</ele>
        <time>2022-06-25T14:33:48Z</time>
      </trkpt>
      <trkpt lat="46.15611" lon="4.61555">
        <ele>439.2</ele>
        <time>2022-06-25T14:33:49Z</time>
      </trkpt>
      <trkpt lat="46.1561" lon="4.61548">
        <ele>439.2</ele>
        <time>2022-06-25T14:33:50Z</time>
      </trkpt>
      <trkpt lat="46.15609" lon="4.6154">
        <ele>439.2</ele>
        <time>2022-06-25T14:33:51Z</time>
      </trkpt>
      <trkpt lat="46.15609" lon="4.61532">
        <ele>439.2</ele>
        <time>2022-06-25T14:33:52Z</time>
      </trkpt>
      <trkpt lat="46.15609" lon="4.61524">
        <ele>439.2</ele>
        <time>2022-06-25T14:33:53Z</time>
      </trkpt>
      <trkpt lat="46.15608" lon="4.61515">
        <ele>438.8</ele>
        <time>2022-06-25T14:33:54Z</time>
      </trkpt>
      <trkpt lat="46.15608" lon="4.61505">
        <ele>438.6</ele>
        <time>2022-06-25T14:33:55Z</time>
      </trkpt>
      <trkpt lat="46.15609" lon="4.61496">
        <ele>438.4</ele>
        <time>2022-06-25T14:33:56Z</time>
      </trkpt>
      <trkpt lat="46.15609" lon="4.61486">
        <ele>438</ele>
        <time>2022-06-25T14:33:57Z</time>
      </trkpt>
      <trkpt lat="46.1561" lon="4.61475">
        <ele>437.8</ele>
        <time>2022-06-25T14:33:58Z</time>
      </trkpt>
      <trkpt lat="46.15611" lon="4.61465">
        <ele>437.6</ele>
        <time>2022-06-25T14:33:59Z</time>
      </trkpt>
      <trkpt lat="46.15613" lon="4.61455">
        <ele>437.4</ele>
        <time>2022-06-25T14:34:00Z</time>
      </trkpt>
      <trkpt lat="46.15614" lon="4.61444">
        <ele>437</ele>
        <time>2022-06-25T14:34:01Z</time>
      </trkpt>
      <trkpt lat="46.15615" lon="4.61432">
        <ele>436.6</ele>
        <time>2022-06-25T14:34:02Z</time>
      </trkpt>
      <trkpt lat="46.15617" lon="4.61421">
        <ele>436.4</ele>
        <time>2022-06-25T14:34:03Z</time>
      </trkpt>
      <trkpt lat="46.15618" lon="4.61409">
        <ele>436.2</ele>
        <time>2022-06-25T14:34:04Z</time>
      </trkpt>
      <trkpt lat="46.15619" lon="4.61397">
        <ele>435.8</ele>
        <time>2022-06-25T14:34:05Z</time>
      </trkpt>
      <trkpt lat="46.15621" lon="4.61385">
        <ele>435.4</ele>
        <time>2022-06-25T14:34:06Z</time>
      </trkpt>
      <trkpt lat="46.15622" lon="4.61372">
        <ele>435</ele>
        <time>2022-06-25T14:34:07Z</time>
      </trkpt>
      <trkpt lat="46.15622" lon="4.6136">
        <ele>434.6</ele>
        <time>2022-06-25T14:34:08Z</time>
      </trkpt>
      <trkpt lat="46.15623" lon="4.61347">
        <ele>434.4</ele>
        <time>2022-06-25T14:34:09Z</time>
      </trkpt>
      <trkpt lat="46.15622" lon="4.61321">
        <ele>434.2</ele>
        <time>2022-06-25T14:34:10Z</time>
      </trkpt>
      <trkpt lat="46.1562" lon="4.61309">
        <ele>434.2</ele>
        <time>2022-06-25T14:34:11Z</time>
      </trkpt>
      <trkpt lat="46.15619" lon="4.61297">
        <ele>433.8</ele>
        <time>2022-06-25T14:34:12Z</time>
      </trkpt>
      <trkpt lat="46.15618" lon="4.61285">
        <ele>433.8</ele>
        <time>2022-06-25T14:34:13Z</time>
      </trkpt>
      <trkpt lat="46.15617" lon="4.61273">
        <ele>433.8</ele>
        <time>2022-06-25T14:34:14Z</time>
      </trkpt>
      <trkpt lat="46.15616" lon="4.61262">
        <ele>433.8</ele>
        <time>2022-06-25T14:34:15Z</time>
      </trkpt>
      <trkpt lat="46.15615" lon="4.61252">
        <ele>433.8</ele>
        <time>2022-06-25T14:34:16Z</time>
      </trkpt>
      <trkpt lat="46.15614" lon="4.61242">
        <ele>433.8</ele>
        <time>2022-06-25T14:34:17Z</time>
      </trkpt>
      <trkpt lat="46.15613" lon="4.61232">
        <ele>433.8</ele>
        <time>2022-06-25T14:34:18Z</time>
      </trkpt>
      <trkpt lat="46.15612" lon="4.61223">
        <ele>433.8</ele>
        <time>2022-06-25T14:34:19Z</time>
      </trkpt>
      <trkpt lat="46.15611" lon="4.61215">
        <ele>434</ele>
        <time>2022-06-25T14:34:20Z</time>
      </trkpt>
      <trkpt lat="46.1561" lon="4.61207">
        <ele>434</ele>
        <time>2022-06-25T14:34:21Z</time>
      </trkpt>
      <trkpt lat="46.15609" lon="4.61199">
        <ele>434.4</ele>
        <time>2022-06-25T14:34:22Z</time>
      </trkpt>
      <trkpt lat="46.15608" lon="4.61191">
        <ele>434.4</ele>
        <time>2022-06-25T14:34:23Z</time>
      </trkpt>
      <trkpt lat="46.15608" lon="4.61183">
        <ele>434.4</ele>
        <time>2022-06-25T14:34:24Z</time>
      </trkpt>
      <trkpt lat="46.15607" lon="4.61175">
        <ele>434.4</ele>
        <time>2022-06-25T14:34:25Z</time>
      </trkpt>
      <trkpt lat="46.15607" lon="4.61167">
        <ele>434.4</ele>
        <time>2022-06-25T14:34:26Z</time>
      </trkpt>
      <trkpt lat="46.15608" lon="4.61159">
        <ele>434.4</ele>
        <time>2022-06-25T14:34:27Z</time>
      </trkpt>
      <trkpt lat="46.1561" lon="4.61151">
        <ele>434.4</ele>
        <time>2022-06-25T14:34:28Z</time>
      </trkpt>
      <trkpt lat="46.15612" lon="4.61142">
        <ele>434.4</ele>
        <time>2022-06-25T14:34:29Z</time>
      </trkpt>
      <trkpt lat="46.15614" lon="4.61133">
        <ele>434</ele>
        <time>2022-06-25T14:34:30Z</time>
      </trkpt>
      <trkpt lat="46.15616" lon="4.61124">
        <ele>434</ele>
        <time>2022-06-25T14:34:31Z</time>
      </trkpt>
      <trkpt lat="46.15619" lon="4.61115">
        <ele>433.6</ele>
        <time>2022-06-25T14:34:32Z</time>
      </trkpt>
      <trkpt lat="46.15622" lon="4.61107">
        <ele>433.6</ele>
        <time>2022-06-25T14:34:33Z</time>
      </trkpt>
      <trkpt lat="46.15627" lon="4.61099">
        <ele>433.4</ele>
        <time>2022-06-25T14:34:34Z</time>
      </trkpt>
      <trkpt lat="46.15632" lon="4.6109">
        <ele>433.2</ele>
        <time>2022-06-25T14:34:35Z</time>
      </trkpt>
      <trkpt lat="46.15636" lon="4.61082">
        <ele>432.8</ele>
        <time>2022-06-25T14:34:36Z</time>
      </trkpt>
      <trkpt lat="46.15641" lon="4.61073">
        <ele>432.6</ele>
        <time>2022-06-25T14:34:37Z</time>
      </trkpt>
      <trkpt lat="46.15646" lon="4.61064">
        <ele>432.2</ele>
        <time>2022-06-25T14:34:38Z</time>
      </trkpt>
      <trkpt lat="46.15651" lon="4.61055">
        <ele>432</ele>
        <time>2022-06-25T14:34:39Z</time>
      </trkpt>
      <trkpt lat="46.15657" lon="4.61046">
        <ele>431.8</ele>
        <time>2022-06-25T14:34:40Z</time>
      </trkpt>
      <trkpt lat="46.15663" lon="4.61037">
        <ele>431.4</ele>
        <time>2022-06-25T14:34:41Z</time>
      </trkpt>
      <trkpt lat="46.15668" lon="4.61027">
        <ele>431.2</ele>
        <time>2022-06-25T14:34:42Z</time>
      </trkpt>
      <trkpt lat="46.15674" lon="4.61017">
        <ele>430.8</ele>
        <time>2022-06-25T14:34:43Z</time>
      </trkpt>
      <trkpt lat="46.1568" lon="4.61006">
        <ele>430.4</ele>
        <time>2022-06-25T14:34:44Z</time>
      </trkpt>
      <trkpt lat="46.15684" lon="4.60994">
        <ele>430</ele>
        <time>2022-06-25T14:34:45Z</time>
      </trkpt>
      <trkpt lat="46.15685" lon="4.60981">
        <ele>429.4</ele>
        <time>2022-06-25T14:34:46Z</time>
      </trkpt>
      <trkpt lat="46.15683" lon="4.60969">
        <ele>429</ele>
        <time>2022-06-25T14:34:47Z</time>
      </trkpt>
      <trkpt lat="46.1568" lon="4.60958">
        <ele>428.6</ele>
        <time>2022-06-25T14:34:48Z</time>
      </trkpt>
      <trkpt lat="46.15674" lon="4.60948">
        <ele>428.6</ele>
        <time>2022-06-25T14:34:49Z</time>
      </trkpt>
      <trkpt lat="46.15668" lon="4.6094">
        <ele>428.4</ele>
        <time>2022-06-25T14:34:50Z</time>
      </trkpt>
      <trkpt lat="46.15662" lon="4.60933">
        <ele>428.4</ele>
        <time>2022-06-25T14:34:51Z</time>
      </trkpt>
      <trkpt lat="46.15655" lon="4.60926">
        <ele>428.4</ele>
        <time>2022-06-25T14:34:52Z</time>
      </trkpt>
      <trkpt lat="46.15649" lon="4.60919">
        <ele>428.4</ele>
        <time>2022-06-25T14:34:53Z</time>
      </trkpt>
      <trkpt lat="46.15644" lon="4.60912">
        <ele>428.4</ele>
        <time>2022-06-25T14:34:54Z</time>
      </trkpt>
      <trkpt lat="46.1564" lon="4.60905">
        <ele>428.4</ele>
        <time>2022-06-25T14:34:55Z</time>
      </trkpt>
      <trkpt lat="46.15636" lon="4.60898">
        <ele>428.4</ele>
        <time>2022-06-25T14:34:56Z</time>
      </trkpt>
      <trkpt lat="46.15632" lon="4.60891">
        <ele>428.8</ele>
        <time>2022-06-25T14:34:57Z</time>
      </trkpt>
      <trkpt lat="46.15629" lon="4.60883">
        <ele>428.8</ele>
        <time>2022-06-25T14:34:58Z</time>
      </trkpt>
      <trkpt lat="46.15626" lon="4.60876">
        <ele>429</ele>
        <time>2022-06-25T14:34:59Z</time>
      </trkpt>
      <trkpt lat="46.15623" lon="4.60869">
        <ele>429</ele>
        <time>2022-06-25T14:35:00Z</time>
      </trkpt>
      <trkpt lat="46.15621" lon="4.60862">
        <ele>429.4</ele>
        <time>2022-06-25T14:35:01Z</time>
      </trkpt>
      <trkpt lat="46.15618" lon="4.60855">
        <ele>429.4</ele>
        <time>2022-06-25T14:35:02Z</time>
      </trkpt>
      <trkpt lat="46.15615" lon="4.60849">
        <ele>429.6</ele>
        <time>2022-06-25T14:35:03Z</time>
      </trkpt>
      <trkpt lat="46.15613" lon="4.60842">
        <ele>429.6</ele>
        <time>2022-06-25T14:35:04Z</time>
      </trkpt>
      <trkpt lat="46.1561" lon="4.60836">
        <ele>430</ele>
        <time>2022-06-25T14:35:05Z</time>
      </trkpt>
      <trkpt lat="46.15608" lon="4.60829">
        <ele>430.2</ele>
        <time>2022-06-25T14:35:06Z</time>
      </trkpt>
      <trkpt lat="46.15606" lon="4.60823">
        <ele>430.2</ele>
        <time>2022-06-25T14:35:07Z</time>
      </trkpt>
      <trkpt lat="46.15603" lon="4.60817">
        <ele>430.6</ele>
        <time>2022-06-25T14:35:08Z</time>
      </trkpt>
      <trkpt lat="46.15601" lon="4.60811">
        <ele>430.6</ele>
        <time>2022-06-25T14:35:09Z</time>
      </trkpt>
      <trkpt lat="46.15599" lon="4.60806">
        <ele>430.8</ele>
        <time>2022-06-25T14:35:10Z</time>
      </trkpt>
      <trkpt lat="46.15596" lon="4.608">
        <ele>430.8</ele>
        <time>2022-06-25T14:35:11Z</time>
      </trkpt>
      <trkpt lat="46.15593" lon="4.60794">
        <ele>430.8</ele>
        <time>2022-06-25T14:35:12Z</time>
      </trkpt>
      <trkpt lat="46.1559" lon="4.60788">
        <ele>430.8</ele>
        <time>2022-06-25T14:35:13Z</time>
      </trkpt>
      <trkpt lat="46.15586" lon="4.60782">
        <ele>430.8</ele>
        <time>2022-06-25T14:35:14Z</time>
      </trkpt>
      <trkpt lat="46.15583" lon="4.60775">
        <ele>430.8</ele>
        <time>2022-06-25T14:35:15Z</time>
      </trkpt>
      <trkpt lat="46.15579" lon="4.60769">
        <ele>430.8</ele>
        <time>2022-06-25T14:35:16Z</time>
      </trkpt>
      <trkpt lat="46.15575" lon="4.60762">
        <ele>431</ele>
        <time>2022-06-25T14:35:17Z</time>
      </trkpt>
      <trkpt lat="46.15571" lon="4.60755">
        <ele>431</ele>
        <time>2022-06-25T14:35:18Z</time>
      </trkpt>
      <trkpt lat="46.15567" lon="4.60748">
        <ele>431</ele>
        <time>2022-06-25T14:35:19Z</time>
      </trkpt>
      <trkpt lat="46.15563" lon="4.6074">
        <ele>431</ele>
        <time>2022-06-25T14:35:20Z</time>
      </trkpt>
      <trkpt lat="46.15559" lon="4.60733">
        <ele>430.8</ele>
        <time>2022-06-25T14:35:21Z</time>
      </trkpt>
      <trkpt lat="46.15555" lon="4.60726">
        <ele>430.8</ele>
        <time>2022-06-25T14:35:22Z</time>
      </trkpt>
      <trkpt lat="46.15551" lon="4.60718">
        <ele>430.8</ele>
        <time>2022-06-25T14:35:23Z</time>
      </trkpt>
      <trkpt lat="46.15547" lon="4.60711">
        <ele>430.8</ele>
        <time>2022-06-25T14:35:24Z</time>
      </trkpt>
      <trkpt lat="46.15543" lon="4.60703">
        <ele>430.4</ele>
        <time>2022-06-25T14:35:25Z</time>
      </trkpt>
      <trkpt lat="46.15539" lon="4.60696">
        <ele>430.4</ele>
        <time>2022-06-25T14:35:26Z</time>
      </trkpt>
      <trkpt lat="46.15534" lon="4.60688">
        <ele>430.4</ele>
        <time>2022-06-25T14:35:27Z</time>
      </trkpt>
      <trkpt lat="46.1553" lon="4.6068">
        <ele>430.2</ele>
        <time>2022-06-25T14:35:28Z</time>
      </trkpt>
      <trkpt lat="46.15526" lon="4.60673">
        <ele>430.2</ele>
        <time>2022-06-25T14:35:29Z</time>
      </trkpt>
      <trkpt lat="46.15521" lon="4.60666">
        <ele>429.8</ele>
        <time>2022-06-25T14:35:30Z</time>
      </trkpt>
      <trkpt lat="46.15517" lon="4.60658">
        <ele>429.8</ele>
        <time>2022-06-25T14:35:31Z</time>
      </trkpt>
      <trkpt lat="46.15512" lon="4.60651">
        <ele>429.4</ele>
        <time>2022-06-25T14:35:32Z</time>
      </trkpt>
      <trkpt lat="46.15507" lon="4.60644">
        <ele>429.4</ele>
        <time>2022-06-25T14:35:33Z</time>
      </trkpt>
      <trkpt lat="46.15501" lon="4.60636">
        <ele>429</ele>
        <time>2022-06-25T14:35:34Z</time>
      </trkpt>
      <trkpt lat="46.15495" lon="4.6063">
        <ele>428.8</ele>
        <time>2022-06-25T14:35:35Z</time>
      </trkpt>
      <trkpt lat="46.1549" lon="4.60623">
        <ele>428.6</ele>
        <time>2022-06-25T14:35:36Z</time>
      </trkpt>
      <trkpt lat="46.15484" lon="4.60616">
        <ele>428.2</ele>
        <time>2022-06-25T14:35:37Z</time>
      </trkpt>
      <trkpt lat="46.15478" lon="4.60609">
        <ele>428</ele>
        <time>2022-06-25T14:35:38Z</time>
      </trkpt>
      <trkpt lat="46.15472" lon="4.60602">
        <ele>427.8</ele>
        <time>2022-06-25T14:35:39Z</time>
      </trkpt>
      <trkpt lat="46.15466" lon="4.60595">
        <ele>427.6</ele>
        <time>2022-06-25T14:35:40Z</time>
      </trkpt>
      <trkpt lat="46.1546" lon="4.60588">
        <ele>427.2</ele>
        <time>2022-06-25T14:35:41Z</time>
      </trkpt>
      <trkpt lat="46.15454" lon="4.6058">
        <ele>426.8</ele>
        <time>2022-06-25T14:35:42Z</time>
      </trkpt>
      <trkpt lat="46.15448" lon="4.60573">
        <ele>426.6</ele>
        <time>2022-06-25T14:35:43Z</time>
      </trkpt>
      <trkpt lat="46.15442" lon="4.60566">
        <ele>426.4</ele>
        <time>2022-06-25T14:35:44Z</time>
      </trkpt>
      <trkpt lat="46.15435" lon="4.60558">
        <ele>426</ele>
        <time>2022-06-25T14:35:45Z</time>
      </trkpt>
      <trkpt lat="46.15429" lon="4.60551">
        <ele>425.6</ele>
        <time>2022-06-25T14:35:46Z</time>
      </trkpt>
      <trkpt lat="46.15422" lon="4.60543">
        <ele>425.2</ele>
        <time>2022-06-25T14:35:47Z</time>
      </trkpt>
      <trkpt lat="46.15416" lon="4.60535">
        <ele>424.8</ele>
        <time>2022-06-25T14:35:48Z</time>
      </trkpt>
      <trkpt lat="46.15409" lon="4.60526">
        <ele>424.4</ele>
        <time>2022-06-25T14:35:49Z</time>
      </trkpt>
      <trkpt lat="46.15402" lon="4.60518">
        <ele>424</ele>
        <time>2022-06-25T14:35:50Z</time>
      </trkpt>
      <trkpt lat="46.15393" lon="4.60509">
        <ele>423.6</ele>
        <time>2022-06-25T14:35:51Z</time>
      </trkpt>
      <trkpt lat="46.15385" lon="4.60501">
        <ele>423.2</ele>
        <time>2022-06-25T14:35:52Z</time>
      </trkpt>
      <trkpt lat="46.15377" lon="4.60492">
        <ele>422.8</ele>
        <time>2022-06-25T14:35:53Z</time>
      </trkpt>
      <trkpt lat="46.15369" lon="4.60484">
        <ele>422.4</ele>
        <time>2022-06-25T14:35:54Z</time>
      </trkpt>
      <trkpt lat="46.15361" lon="4.60474">
        <ele>421.6</ele>
        <time>2022-06-25T14:35:55Z</time>
      </trkpt>
      <trkpt lat="46.15353" lon="4.60464">
        <ele>421</ele>
        <time>2022-06-25T14:35:56Z</time>
      </trkpt>
      <trkpt lat="46.15345" lon="4.60452">
        <ele>420.4</ele>
        <time>2022-06-25T14:35:57Z</time>
      </trkpt>
      <trkpt lat="46.15337" lon="4.60442">
        <ele>420</ele>
        <time>2022-06-25T14:35:58Z</time>
      </trkpt>
      <trkpt lat="46.15329" lon="4.60432">
        <ele>419.2</ele>
        <time>2022-06-25T14:35:59Z</time>
      </trkpt>
      <trkpt lat="46.15322" lon="4.60423">
        <ele>418.6</ele>
        <time>2022-06-25T14:36:00Z</time>
      </trkpt>
      <trkpt lat="46.15315" lon="4.60411">
        <ele>417.8</ele>
        <time>2022-06-25T14:36:01Z</time>
      </trkpt>
      <trkpt lat="46.15307" lon="4.60404">
        <ele>417</ele>
        <time>2022-06-25T14:36:02Z</time>
      </trkpt>
      <trkpt lat="46.15299" lon="4.60398">
        <ele>416.6</ele>
        <time>2022-06-25T14:36:03Z</time>
      </trkpt>
      <trkpt lat="46.1529" lon="4.60394">
        <ele>416</ele>
        <time>2022-06-25T14:36:04Z</time>
      </trkpt>
      <trkpt lat="46.1528" lon="4.60396">
        <ele>415.6</ele>
        <time>2022-06-25T14:36:05Z</time>
      </trkpt>
      <trkpt lat="46.15271" lon="4.60397">
        <ele>415</ele>
        <time>2022-06-25T14:36:06Z</time>
      </trkpt>
      <trkpt lat="46.15262" lon="4.60398">
        <ele>414.8</ele>
        <time>2022-06-25T14:36:07Z</time>
      </trkpt>
      <trkpt lat="46.15251" lon="4.60399">
        <ele>414.4</ele>
        <time>2022-06-25T14:36:08Z</time>
      </trkpt>
      <trkpt lat="46.15241" lon="4.60401">
        <ele>413.8</ele>
        <time>2022-06-25T14:36:09Z</time>
      </trkpt>
      <trkpt lat="46.15231" lon="4.60403">
        <ele>413.2</ele>
        <time>2022-06-25T14:36:10Z</time>
      </trkpt>
      <trkpt lat="46.15221" lon="4.60405">
        <ele>412.8</ele>
        <time>2022-06-25T14:36:11Z</time>
      </trkpt>
      <trkpt lat="46.15211" lon="4.60407">
        <ele>412.4</ele>
        <time>2022-06-25T14:36:12Z</time>
      </trkpt>
      <trkpt lat="46.15201" lon="4.60409">
        <ele>411.8</ele>
        <time>2022-06-25T14:36:13Z</time>
      </trkpt>
      <trkpt lat="46.15191" lon="4.60411">
        <ele>411.4</ele>
        <time>2022-06-25T14:36:14Z</time>
      </trkpt>
      <trkpt lat="46.15181" lon="4.60414">
        <ele>410.6</ele>
        <time>2022-06-25T14:36:15Z</time>
      </trkpt>
      <trkpt lat="46.15162" lon="4.60426">
        <ele>410.2</ele>
        <time>2022-06-25T14:36:16Z</time>
      </trkpt>
      <trkpt lat="46.15154" lon="4.60434">
        <ele>409.6</ele>
        <time>2022-06-25T14:36:17Z</time>
      </trkpt>
      <trkpt lat="46.15146" lon="4.60444">
        <ele>408.8</ele>
        <time>2022-06-25T14:36:18Z</time>
      </trkpt>
      <trkpt lat="46.15139" lon="4.60456">
        <ele>407.6</ele>
        <time>2022-06-25T14:36:19Z</time>
      </trkpt>
      <trkpt lat="46.15134" lon="4.60469">
        <ele>407</ele>
        <time>2022-06-25T14:36:21Z</time>
      </trkpt>
      <trkpt lat="46.15128" lon="4.60481">
        <ele>406</ele>
        <time>2022-06-25T14:36:22Z</time>
      </trkpt>
      <trkpt lat="46.15121" lon="4.60492">
        <ele>405.4</ele>
        <time>2022-06-25T14:36:23Z</time>
      </trkpt>
      <trkpt lat="46.15114" lon="4.60502">
        <ele>404.6</ele>
        <time>2022-06-25T14:36:24Z</time>
      </trkpt>
      <trkpt lat="46.15106" lon="4.60511">
        <ele>404</ele>
        <time>2022-06-25T14:36:25Z</time>
      </trkpt>
      <trkpt lat="46.15097" lon="4.60517">
        <ele>403.4</ele>
        <time>2022-06-25T14:36:26Z</time>
      </trkpt>
      <trkpt lat="46.15088" lon="4.6052">
        <ele>403</ele>
        <time>2022-06-25T14:36:27Z</time>
      </trkpt>
      <trkpt lat="46.15078" lon="4.60521">
        <ele>402.6</ele>
        <time>2022-06-25T14:36:28Z</time>
      </trkpt>
      <trkpt lat="46.15068" lon="4.60522">
        <ele>402</ele>
        <time>2022-06-25T14:36:29Z</time>
      </trkpt>
      <trkpt lat="46.15057" lon="4.60523">
        <ele>401.6</ele>
        <time>2022-06-25T14:36:30Z</time>
      </trkpt>
      <trkpt lat="46.15048" lon="4.60525">
        <ele>401</ele>
        <time>2022-06-25T14:36:31Z</time>
      </trkpt>
      <trkpt lat="46.15037" lon="4.60527">
        <ele>400.6</ele>
        <time>2022-06-25T14:36:32Z</time>
      </trkpt>
      <trkpt lat="46.15027" lon="4.60529">
        <ele>399.8</ele>
        <time>2022-06-25T14:36:33Z</time>
      </trkpt>
      <trkpt lat="46.15017" lon="4.6053">
        <ele>399.2</ele>
        <time>2022-06-25T14:36:34Z</time>
      </trkpt>
      <trkpt lat="46.15007" lon="4.60531">
        <ele>398.4</ele>
        <time>2022-06-25T14:36:35Z</time>
      </trkpt>
      <trkpt lat="46.14996" lon="4.60527">
        <ele>397.8</ele>
        <time>2022-06-25T14:36:36Z</time>
      </trkpt>
      <trkpt lat="46.14986" lon="4.6052">
        <ele>397.4</ele>
        <time>2022-06-25T14:36:37Z</time>
      </trkpt>
      <trkpt lat="46.14976" lon="4.60512">
        <ele>396.8</ele>
        <time>2022-06-25T14:36:38Z</time>
      </trkpt>
      <trkpt lat="46.14967" lon="4.60503">
        <ele>396.2</ele>
        <time>2022-06-25T14:36:39Z</time>
      </trkpt>
      <trkpt lat="46.14959" lon="4.60493">
        <ele>395.6</ele>
        <time>2022-06-25T14:36:40Z</time>
      </trkpt>
      <trkpt lat="46.14951" lon="4.60484">
        <ele>395</ele>
        <time>2022-06-25T14:36:41Z</time>
      </trkpt>
      <trkpt lat="46.14943" lon="4.60477">
        <ele>394.6</ele>
        <time>2022-06-25T14:36:42Z</time>
      </trkpt>
      <trkpt lat="46.14935" lon="4.6047">
        <ele>394</ele>
        <time>2022-06-25T14:36:43Z</time>
      </trkpt>
      <trkpt lat="46.14928" lon="4.60463">
        <ele>393.4</ele>
        <time>2022-06-25T14:36:44Z</time>
      </trkpt>
      <trkpt lat="46.1492" lon="4.60456">
        <ele>393</ele>
        <time>2022-06-25T14:36:45Z</time>
      </trkpt>
      <trkpt lat="46.14913" lon="4.60449">
        <ele>392.4</ele>
        <time>2022-06-25T14:36:46Z</time>
      </trkpt>
      <trkpt lat="46.14905" lon="4.60442">
        <ele>391.8</ele>
        <time>2022-06-25T14:36:47Z</time>
      </trkpt>
      <trkpt lat="46.14899" lon="4.60436">
        <ele>391.4</ele>
        <time>2022-06-25T14:36:48Z</time>
      </trkpt>
      <trkpt lat="46.14892" lon="4.6043">
        <ele>391</ele>
        <time>2022-06-25T14:36:49Z</time>
      </trkpt>
      <trkpt lat="46.14886" lon="4.60425">
        <ele>390.4</ele>
        <time>2022-06-25T14:36:50Z</time>
      </trkpt>
      <trkpt lat="46.14881" lon="4.60422">
        <ele>389.8</ele>
        <time>2022-06-25T14:36:51Z</time>
      </trkpt>
      <trkpt lat="46.14877" lon="4.60418">
        <ele>389.4</ele>
        <time>2022-06-25T14:36:52Z</time>
      </trkpt>
      <trkpt lat="46.14874" lon="4.60416">
        <ele>388.8</ele>
        <time>2022-06-25T14:36:53Z</time>
      </trkpt>
      <trkpt lat="46.14871" lon="4.60415">
        <ele>388.6</ele>
        <time>2022-06-25T14:36:54Z</time>
      </trkpt>
      <trkpt lat="46.14869" lon="4.60414">
        <ele>388.2</ele>
        <time>2022-06-25T14:36:55Z</time>
      </trkpt>
      <trkpt lat="46.14868" lon="4.60412">
        <ele>388</ele>
        <time>2022-06-25T14:36:56Z</time>
      </trkpt>
      <trkpt lat="46.14867" lon="4.60411">
        <ele>387.8</ele>
        <time>2022-06-25T14:36:57Z</time>
      </trkpt>
      <trkpt lat="46.14866" lon="4.60411">
        <ele>387.4</ele>
        <time>2022-06-25T14:36:58Z</time>
      </trkpt>
      <trkpt lat="46.14866" lon="4.60411">
        <ele>387.2</ele>
        <time>2022-06-25T14:37:00Z</time>
      </trkpt>
      <trkpt lat="46.14863" lon="4.6041">
        <ele>386.8</ele>
        <time>2022-06-25T14:37:49Z</time>
      </trkpt>
      <trkpt lat="46.14861" lon="4.6041">
        <ele>386.8</ele>
        <time>2022-06-25T14:37:50Z</time>
      </trkpt>
      <trkpt lat="46.14859" lon="4.60409">
        <ele>386.8</ele>
        <time>2022-06-25T14:37:51Z</time>
      </trkpt>
      <trkpt lat="46.14857" lon="4.60408">
        <ele>386.8</ele>
        <time>2022-06-25T14:37:52Z</time>
      </trkpt>
      <trkpt lat="46.14854" lon="4.60406">
        <ele>386.6</ele>
        <time>2022-06-25T14:37:53Z</time>
      </trkpt>
      <trkpt lat="46.1485" lon="4.60404">
        <ele>386.6</ele>
        <time>2022-06-25T14:37:54Z</time>
      </trkpt>
      <trkpt lat="46.14847" lon="4.60402">
        <ele>386.6</ele>
        <time>2022-06-25T14:37:55Z</time>
      </trkpt>
      <trkpt lat="46.14842" lon="4.604">
        <ele>386.2</ele>
        <time>2022-06-25T14:37:56Z</time>
      </trkpt>
      <trkpt lat="46.14838" lon="4.60398">
        <ele>386.2</ele>
        <time>2022-06-25T14:37:57Z</time>
      </trkpt>
      <trkpt lat="46.14833" lon="4.60395">
        <ele>386</ele>
        <time>2022-06-25T14:37:58Z</time>
      </trkpt>
      <trkpt lat="46.14827" lon="4.60393">
        <ele>386</ele>
        <time>2022-06-25T14:37:59Z</time>
      </trkpt>
      <trkpt lat="46.14822" lon="4.60391">
        <ele>386</ele>
        <time>2022-06-25T14:38:00Z</time>
      </trkpt>
      <trkpt lat="46.14816" lon="4.60388">
        <ele>385.6</ele>
        <time>2022-06-25T14:38:01Z</time>
      </trkpt>
      <trkpt lat="46.14811" lon="4.60385">
        <ele>385.6</ele>
        <time>2022-06-25T14:38:02Z</time>
      </trkpt>
      <trkpt lat="46.14805" lon="4.60382">
        <ele>385.2</ele>
        <time>2022-06-25T14:38:03Z</time>
      </trkpt>
      <trkpt lat="46.14798" lon="4.60379">
        <ele>385.2</ele>
        <time>2022-06-25T14:38:04Z</time>
      </trkpt>
      <trkpt lat="46.14792" lon="4.60376">
        <ele>384.8</ele>
        <time>2022-06-25T14:38:05Z</time>
      </trkpt>
      <trkpt lat="46.14785" lon="4.60374">
        <ele>384.6</ele>
        <time>2022-06-25T14:38:06Z</time>
      </trkpt>
      <trkpt lat="46.14778" lon="4.60372">
        <ele>384.4</ele>
        <time>2022-06-25T14:38:07Z</time>
      </trkpt>
      <trkpt lat="46.14771" lon="4.60371">
        <ele>384</ele>
        <time>2022-06-25T14:38:08Z</time>
      </trkpt>
      <trkpt lat="46.14763" lon="4.6037">
        <ele>383.8</ele>
        <time>2022-06-25T14:38:09Z</time>
      </trkpt>
      <trkpt lat="46.14756" lon="4.6037">
        <ele>383.6</ele>
        <time>2022-06-25T14:38:10Z</time>
      </trkpt>
      <trkpt lat="46.14748" lon="4.6037">
        <ele>383.2</ele>
        <time>2022-06-25T14:38:11Z</time>
      </trkpt>
      <trkpt lat="46.1474" lon="4.60371">
        <ele>383</ele>
        <time>2022-06-25T14:38:12Z</time>
      </trkpt>
      <trkpt lat="46.14732" lon="4.60373">
        <ele>382.6</ele>
        <time>2022-06-25T14:38:13Z</time>
      </trkpt>
      <trkpt lat="46.14724" lon="4.60374">
        <ele>382.2</ele>
        <time>2022-06-25T14:38:14Z</time>
      </trkpt>
      <trkpt lat="46.14715" lon="4.60375">
        <ele>381.8</ele>
        <time>2022-06-25T14:38:15Z</time>
      </trkpt>
      <trkpt lat="46.14707" lon="4.60377">
        <ele>381.6</ele>
        <time>2022-06-25T14:38:16Z</time>
      </trkpt>
      <trkpt lat="46.14699" lon="4.60378">
        <ele>381.2</ele>
        <time>2022-06-25T14:38:17Z</time>
      </trkpt>
      <trkpt lat="46.1469" lon="4.6038">
        <ele>380.8</ele>
        <time>2022-06-25T14:38:18Z</time>
      </trkpt>
      <trkpt lat="46.14682" lon="4.60382">
        <ele>380.6</ele>
        <time>2022-06-25T14:38:19Z</time>
      </trkpt>
      <trkpt lat="46.14675" lon="4.60383">
        <ele>380.2</ele>
        <time>2022-06-25T14:38:20Z</time>
      </trkpt>
      <trkpt lat="46.14668" lon="4.60383">
        <ele>379.6</ele>
        <time>2022-06-25T14:38:21Z</time>
      </trkpt>
      <trkpt lat="46.14662" lon="4.6038">
        <ele>379.2</ele>
        <time>2022-06-25T14:38:22Z</time>
      </trkpt>
      <trkpt lat="46.14658" lon="4.60375">
        <ele>378.8</ele>
        <time>2022-06-25T14:38:23Z</time>
      </trkpt>
      <trkpt lat="46.14655" lon="4.60367">
        <ele>378.2</ele>
        <time>2022-06-25T14:38:24Z</time>
      </trkpt>
      <trkpt lat="46.14655" lon="4.60359">
        <ele>377.8</ele>
        <time>2022-06-25T14:38:25Z</time>
      </trkpt>
      <trkpt lat="46.14657" lon="4.6035">
        <ele>377.2</ele>
        <time>2022-06-25T14:38:26Z</time>
      </trkpt>
      <trkpt lat="46.14661" lon="4.60342">
        <ele>376.6</ele>
        <time>2022-06-25T14:38:27Z</time>
      </trkpt>
      <trkpt lat="46.14668" lon="4.60337">
        <ele>376.2</ele>
        <time>2022-06-25T14:38:28Z</time>
      </trkpt>
      <trkpt lat="46.14675" lon="4.60333">
        <ele>375.8</ele>
        <time>2022-06-25T14:38:29Z</time>
      </trkpt>
      <trkpt lat="46.14682" lon="4.60329">
        <ele>375.4</ele>
        <time>2022-06-25T14:38:30Z</time>
      </trkpt>
      <trkpt lat="46.1469" lon="4.60326">
        <ele>375</ele>
        <time>2022-06-25T14:38:31Z</time>
      </trkpt>
      <trkpt lat="46.14699" lon="4.60323">
        <ele>374.4</ele>
        <time>2022-06-25T14:38:32Z</time>
      </trkpt>
      <trkpt lat="46.14707" lon="4.60319">
        <ele>374</ele>
        <time>2022-06-25T14:38:33Z</time>
      </trkpt>
      <trkpt lat="46.14716" lon="4.60315">
        <ele>373.6</ele>
        <time>2022-06-25T14:38:34Z</time>
      </trkpt>
      <trkpt lat="46.14725" lon="4.60311">
        <ele>373.2</ele>
        <time>2022-06-25T14:38:35Z</time>
      </trkpt>
      <trkpt lat="46.14735" lon="4.60307">
        <ele>372.6</ele>
        <time>2022-06-25T14:38:36Z</time>
      </trkpt>
      <trkpt lat="46.14745" lon="4.60302">
        <ele>372.2</ele>
        <time>2022-06-25T14:38:37Z</time>
      </trkpt>
      <trkpt lat="46.14756" lon="4.60297">
        <ele>371.6</ele>
        <time>2022-06-25T14:38:38Z</time>
      </trkpt>
      <trkpt lat="46.14766" lon="4.60293">
        <ele>371</ele>
        <time>2022-06-25T14:38:39Z</time>
      </trkpt>
      <trkpt lat="46.14776" lon="4.60289">
        <ele>370.4</ele>
        <time>2022-06-25T14:38:40Z</time>
      </trkpt>
      <trkpt lat="46.14787" lon="4.60284">
        <ele>369.8</ele>
        <time>2022-06-25T14:38:41Z</time>
      </trkpt>
      <trkpt lat="46.14798" lon="4.60279">
        <ele>369.2</ele>
        <time>2022-06-25T14:38:42Z</time>
      </trkpt>
      <trkpt lat="46.14808" lon="4.60275">
        <ele>368.8</ele>
        <time>2022-06-25T14:38:43Z</time>
      </trkpt>
      <trkpt lat="46.14819" lon="4.60272">
        <ele>368.2</ele>
        <time>2022-06-25T14:38:44Z</time>
      </trkpt>
      <trkpt lat="46.14829" lon="4.6027">
        <ele>367.6</ele>
        <time>2022-06-25T14:38:45Z</time>
      </trkpt>
      <trkpt lat="46.14838" lon="4.60268">
        <ele>367</ele>
        <time>2022-06-25T14:38:46Z</time>
      </trkpt>
      <trkpt lat="46.14847" lon="4.60268">
        <ele>366.2</ele>
        <time>2022-06-25T14:38:47Z</time>
      </trkpt>
      <trkpt lat="46.14855" lon="4.60268">
        <ele>365.4</ele>
        <time>2022-06-25T14:38:48Z</time>
      </trkpt>
      <trkpt lat="46.14863" lon="4.60266">
        <ele>364.8</ele>
        <time>2022-06-25T14:38:49Z</time>
      </trkpt>
      <trkpt lat="46.1487" lon="4.60263">
        <ele>364.2</ele>
        <time>2022-06-25T14:38:50Z</time>
      </trkpt>
      <trkpt lat="46.14877" lon="4.60259">
        <ele>363.8</ele>
        <time>2022-06-25T14:38:51Z</time>
      </trkpt>
      <trkpt lat="46.14884" lon="4.60252">
        <ele>363.2</ele>
        <time>2022-06-25T14:38:52Z</time>
      </trkpt>
      <trkpt lat="46.14888" lon="4.60243">
        <ele>362.4</ele>
        <time>2022-06-25T14:38:53Z</time>
      </trkpt>
      <trkpt lat="46.14891" lon="4.60232">
        <ele>361.8</ele>
        <time>2022-06-25T14:38:54Z</time>
      </trkpt>
      <trkpt lat="46.1489" lon="4.60218">
        <ele>361.4</ele>
        <time>2022-06-25T14:38:55Z</time>
      </trkpt>
      <trkpt lat="46.14888" lon="4.60206">
        <ele>360.8</ele>
        <time>2022-06-25T14:38:56Z</time>
      </trkpt>
      <trkpt lat="46.14884" lon="4.60194">
        <ele>360.2</ele>
        <time>2022-06-25T14:38:57Z</time>
      </trkpt>
      <trkpt lat="46.14879" lon="4.60182">
        <ele>359.8</ele>
        <time>2022-06-25T14:38:58Z</time>
      </trkpt>
      <trkpt lat="46.14873" lon="4.60171">
        <ele>359.4</ele>
        <time>2022-06-25T14:38:59Z</time>
      </trkpt>
      <trkpt lat="46.14868" lon="4.60158">
        <ele>358.8</ele>
        <time>2022-06-25T14:39:00Z</time>
      </trkpt>
      <trkpt lat="46.14862" lon="4.60145">
        <ele>358.2</ele>
        <time>2022-06-25T14:39:01Z</time>
      </trkpt>
      <trkpt lat="46.14857" lon="4.60132">
        <ele>357.6</ele>
        <time>2022-06-25T14:39:02Z</time>
      </trkpt>
      <trkpt lat="46.14853" lon="4.6012">
        <ele>357</ele>
        <time>2022-06-25T14:39:03Z</time>
      </trkpt>
      <trkpt lat="46.14849" lon="4.60107">
        <ele>356.4</ele>
        <time>2022-06-25T14:39:04Z</time>
      </trkpt>
      <trkpt lat="46.14847" lon="4.60094">
        <ele>355.8</ele>
        <time>2022-06-25T14:39:05Z</time>
      </trkpt>
      <trkpt lat="46.14847" lon="4.60081">
        <ele>355.2</ele>
        <time>2022-06-25T14:39:06Z</time>
      </trkpt>
      <trkpt lat="46.14849" lon="4.60067">
        <ele>354.6</ele>
        <time>2022-06-25T14:39:07Z</time>
      </trkpt>
      <trkpt lat="46.14852" lon="4.60054">
        <ele>354</ele>
        <time>2022-06-25T14:39:08Z</time>
      </trkpt>
      <trkpt lat="46.14857" lon="4.60041">
        <ele>353.4</ele>
        <time>2022-06-25T14:39:09Z</time>
      </trkpt>
      <trkpt lat="46.14861" lon="4.60029">
        <ele>353</ele>
        <time>2022-06-25T14:39:10Z</time>
      </trkpt>
      <trkpt lat="46.14866" lon="4.60016">
        <ele>352.4</ele>
        <time>2022-06-25T14:39:11Z</time>
      </trkpt>
      <trkpt lat="46.1487" lon="4.60004">
        <ele>351.8</ele>
        <time>2022-06-25T14:39:12Z</time>
      </trkpt>
      <trkpt lat="46.14875" lon="4.59991">
        <ele>351.2</ele>
        <time>2022-06-25T14:39:13Z</time>
      </trkpt>
      <trkpt lat="46.14879" lon="4.59978">
        <ele>350.6</ele>
        <time>2022-06-25T14:39:14Z</time>
      </trkpt>
      <trkpt lat="46.14882" lon="4.59964">
        <ele>350</ele>
        <time>2022-06-25T14:39:15Z</time>
      </trkpt>
      <trkpt lat="46.14885" lon="4.5995">
        <ele>349.4</ele>
        <time>2022-06-25T14:39:16Z</time>
      </trkpt>
      <trkpt lat="46.14887" lon="4.59935">
        <ele>348.8</ele>
        <time>2022-06-25T14:39:17Z</time>
      </trkpt>
      <trkpt lat="46.14888" lon="4.59921">
        <ele>348.2</ele>
        <time>2022-06-25T14:39:18Z</time>
      </trkpt>
      <trkpt lat="46.1489" lon="4.59908">
        <ele>347.4</ele>
        <time>2022-06-25T14:39:19Z</time>
      </trkpt>
      <trkpt lat="46.14891" lon="4.59894">
        <ele>346.6</ele>
        <time>2022-06-25T14:39:20Z</time>
      </trkpt>
      <trkpt lat="46.14893" lon="4.5988">
        <ele>345.8</ele>
        <time>2022-06-25T14:39:21Z</time>
      </trkpt>
      <trkpt lat="46.14895" lon="4.59867">
        <ele>345.2</ele>
        <time>2022-06-25T14:39:22Z</time>
      </trkpt>
      <trkpt lat="46.14897" lon="4.59854">
        <ele>344.4</ele>
        <time>2022-06-25T14:39:23Z</time>
      </trkpt>
      <trkpt lat="46.14899" lon="4.59841">
        <ele>343.8</ele>
        <time>2022-06-25T14:39:24Z</time>
      </trkpt>
      <trkpt lat="46.14902" lon="4.59828">
        <ele>343.2</ele>
        <time>2022-06-25T14:39:25Z</time>
      </trkpt>
      <trkpt lat="46.14905" lon="4.59816">
        <ele>342.6</ele>
        <time>2022-06-25T14:39:26Z</time>
      </trkpt>
      <trkpt lat="46.14909" lon="4.59803">
        <ele>341.8</ele>
        <time>2022-06-25T14:39:27Z</time>
      </trkpt>
      <trkpt lat="46.14913" lon="4.59789">
        <ele>341.2</ele>
        <time>2022-06-25T14:39:28Z</time>
      </trkpt>
      <trkpt lat="46.14917" lon="4.59777">
        <ele>340.8</ele>
        <time>2022-06-25T14:39:29Z</time>
      </trkpt>
      <trkpt lat="46.14921" lon="4.59765">
        <ele>340.2</ele>
        <time>2022-06-25T14:39:30Z</time>
      </trkpt>
      <trkpt lat="46.14926" lon="4.59753">
        <ele>339.6</ele>
        <time>2022-06-25T14:39:31Z</time>
      </trkpt>
      <trkpt lat="46.14931" lon="4.59741">
        <ele>339</ele>
        <time>2022-06-25T14:39:32Z</time>
      </trkpt>
      <trkpt lat="46.14937" lon="4.59731">
        <ele>338.6</ele>
        <time>2022-06-25T14:39:33Z</time>
      </trkpt>
      <trkpt lat="46.14944" lon="4.59722">
        <ele>338</ele>
        <time>2022-06-25T14:39:34Z</time>
      </trkpt>
      <trkpt lat="46.14951" lon="4.59714">
        <ele>337.6</ele>
        <time>2022-06-25T14:39:35Z</time>
      </trkpt>
      <trkpt lat="46.14958" lon="4.59707">
        <ele>337.4</ele>
        <time>2022-06-25T14:39:36Z</time>
      </trkpt>
      <trkpt lat="46.14966" lon="4.59701">
        <ele>337</ele>
        <time>2022-06-25T14:39:37Z</time>
      </trkpt>
      <trkpt lat="46.14974" lon="4.59696">
        <ele>336.6</ele>
        <time>2022-06-25T14:39:38Z</time>
      </trkpt>
      <trkpt lat="46.14982" lon="4.5969">
        <ele>336.4</ele>
        <time>2022-06-25T14:39:39Z</time>
      </trkpt>
      <trkpt lat="46.1499" lon="4.59685">
        <ele>336.2</ele>
        <time>2022-06-25T14:39:40Z</time>
      </trkpt>
      <trkpt lat="46.14998" lon="4.5968">
        <ele>335.8</ele>
        <time>2022-06-25T14:39:41Z</time>
      </trkpt>
      <trkpt lat="46.15007" lon="4.59675">
        <ele>335.8</ele>
        <time>2022-06-25T14:39:42Z</time>
      </trkpt>
      <trkpt lat="46.15015" lon="4.5967">
        <ele>335.4</ele>
        <time>2022-06-25T14:39:43Z</time>
      </trkpt>
      <trkpt lat="46.15023" lon="4.59665">
        <ele>335</ele>
        <time>2022-06-25T14:39:44Z</time>
      </trkpt>
      <trkpt lat="46.1503" lon="4.5966">
        <ele>334.8</ele>
        <time>2022-06-25T14:39:45Z</time>
      </trkpt>
      <trkpt lat="46.15038" lon="4.59656">
        <ele>334.4</ele>
        <time>2022-06-25T14:39:46Z</time>
      </trkpt>
      <trkpt lat="46.15046" lon="4.59651">
        <ele>334</ele>
        <time>2022-06-25T14:39:47Z</time>
      </trkpt>
      <trkpt lat="46.15053" lon="4.59645">
        <ele>333.6</ele>
        <time>2022-06-25T14:39:48Z</time>
      </trkpt>
      <trkpt lat="46.15059" lon="4.59638">
        <ele>333.2</ele>
        <time>2022-06-25T14:39:49Z</time>
      </trkpt>
      <trkpt lat="46.15065" lon="4.5963">
        <ele>332.8</ele>
        <time>2022-06-25T14:39:50Z</time>
      </trkpt>
      <trkpt lat="46.15069" lon="4.5962">
        <ele>332.4</ele>
        <time>2022-06-25T14:39:51Z</time>
      </trkpt>
      <trkpt lat="46.15072" lon="4.59611">
        <ele>332</ele>
        <time>2022-06-25T14:39:52Z</time>
      </trkpt>
      <trkpt lat="46.15074" lon="4.596">
        <ele>331.8</ele>
        <time>2022-06-25T14:39:53Z</time>
      </trkpt>
      <trkpt lat="46.15074" lon="4.59591">
        <ele>331.4</ele>
        <time>2022-06-25T14:39:54Z</time>
      </trkpt>
      <trkpt lat="46.15074" lon="4.59581">
        <ele>331</ele>
        <time>2022-06-25T14:39:55Z</time>
      </trkpt>
      <trkpt lat="46.15075" lon="4.59572">
        <ele>330.6</ele>
        <time>2022-06-25T14:39:56Z</time>
      </trkpt>
      <trkpt lat="46.15075" lon="4.59564">
        <ele>330.4</ele>
        <time>2022-06-25T14:39:57Z</time>
      </trkpt>
      <trkpt lat="46.15076" lon="4.59556">
        <ele>330</ele>
        <time>2022-06-25T14:39:58Z</time>
      </trkpt>
      <trkpt lat="46.15076" lon="4.59549">
        <ele>329.6</ele>
        <time>2022-06-25T14:39:59Z</time>
      </trkpt>
      <trkpt lat="46.15076" lon="4.59543">
        <ele>329.4</ele>
        <time>2022-06-25T14:40:00Z</time>
      </trkpt>
      <trkpt lat="46.15075" lon="4.59539">
        <ele>329</ele>
        <time>2022-06-25T14:40:01Z</time>
      </trkpt>
      <trkpt lat="46.15076" lon="4.59536">
        <ele>328.8</ele>
        <time>2022-06-25T14:40:02Z</time>
      </trkpt>
      <trkpt lat="46.15076" lon="4.59533">
        <ele>328.6</ele>
        <time>2022-06-25T14:40:03Z</time>
      </trkpt>
      <trkpt lat="46.15077" lon="4.5953">
        <ele>328.6</ele>
        <time>2022-06-25T14:40:04Z</time>
      </trkpt>
      <trkpt lat="46.15078" lon="4.59526">
        <ele>328.2</ele>
        <time>2022-06-25T14:40:05Z</time>
      </trkpt>
      <trkpt lat="46.1508" lon="4.59521">
        <ele>328.2</ele>
        <time>2022-06-25T14:40:06Z</time>
      </trkpt>
      <trkpt lat="46.15082" lon="4.59517">
        <ele>328</ele>
        <time>2022-06-25T14:40:07Z</time>
      </trkpt>
      <trkpt lat="46.15085" lon="4.59512">
        <ele>328</ele>
        <time>2022-06-25T14:40:08Z</time>
      </trkpt>
      <trkpt lat="46.15087" lon="4.59507">
        <ele>328</ele>
        <time>2022-06-25T14:40:09Z</time>
      </trkpt>
      <trkpt lat="46.1509" lon="4.59502">
        <ele>328</ele>
        <time>2022-06-25T14:40:10Z</time>
      </trkpt>
      <trkpt lat="46.15092" lon="4.59497">
        <ele>328</ele>
        <time>2022-06-25T14:40:11Z</time>
      </trkpt>
      <trkpt lat="46.15095" lon="4.59492">
        <ele>328</ele>
        <time>2022-06-25T14:40:12Z</time>
      </trkpt>
      <trkpt lat="46.15098" lon="4.59487">
        <ele>328</ele>
        <time>2022-06-25T14:40:13Z</time>
      </trkpt>
      <trkpt lat="46.151" lon="4.59481">
        <ele>328</ele>
        <time>2022-06-25T14:40:14Z</time>
      </trkpt>
      <trkpt lat="46.15103" lon="4.59476">
        <ele>328</ele>
        <time>2022-06-25T14:40:15Z</time>
      </trkpt>
      <trkpt lat="46.15106" lon="4.5947">
        <ele>328</ele>
        <time>2022-06-25T14:40:16Z</time>
      </trkpt>
      <trkpt lat="46.15109" lon="4.59465">
        <ele>328</ele>
        <time>2022-06-25T14:40:17Z</time>
      </trkpt>
      <trkpt lat="46.15112" lon="4.59459">
        <ele>328</ele>
        <time>2022-06-25T14:40:18Z</time>
      </trkpt>
      <trkpt lat="46.15115" lon="4.59454">
        <ele>328</ele>
        <time>2022-06-25T14:40:19Z</time>
      </trkpt>
      <trkpt lat="46.15118" lon="4.59448">
        <ele>328</ele>
        <time>2022-06-25T14:40:20Z</time>
      </trkpt>
      <trkpt lat="46.15121" lon="4.59442">
        <ele>328</ele>
        <time>2022-06-25T14:40:21Z</time>
      </trkpt>
      <trkpt lat="46.15124" lon="4.59437">
        <ele>328</ele>
        <time>2022-06-25T14:40:22Z</time>
      </trkpt>
      <trkpt lat="46.15127" lon="4.59431">
        <ele>328</ele>
        <time>2022-06-25T14:40:23Z</time>
      </trkpt>
      <trkpt lat="46.15131" lon="4.59426">
        <ele>328</ele>
        <time>2022-06-25T14:40:24Z</time>
      </trkpt>
      <trkpt lat="46.15134" lon="4.59421">
        <ele>328.2</ele>
        <time>2022-06-25T14:40:25Z</time>
      </trkpt>
      <trkpt lat="46.15137" lon="4.59416">
        <ele>328.2</ele>
        <time>2022-06-25T14:40:26Z</time>
      </trkpt>
      <trkpt lat="46.15139" lon="4.59411">
        <ele>328.2</ele>
        <time>2022-06-25T14:40:27Z</time>
      </trkpt>
      <trkpt lat="46.15142" lon="4.59406">
        <ele>328.2</ele>
        <time>2022-06-25T14:40:28Z</time>
      </trkpt>
      <trkpt lat="46.15145" lon="4.59401">
        <ele>328.4</ele>
        <time>2022-06-25T14:40:29Z</time>
      </trkpt>
      <trkpt lat="46.15147" lon="4.59394">
        <ele>328.4</ele>
        <time>2022-06-25T14:40:30Z</time>
      </trkpt>
      <trkpt lat="46.1515" lon="4.59389">
        <ele>328.4</ele>
        <time>2022-06-25T14:40:31Z</time>
      </trkpt>
      <trkpt lat="46.15153" lon="4.59383">
        <ele>328.4</ele>
        <time>2022-06-25T14:40:32Z</time>
      </trkpt>
      <trkpt lat="46.15156" lon="4.59377">
        <ele>328.6</ele>
        <time>2022-06-25T14:40:33Z</time>
      </trkpt>
      <trkpt lat="46.1516" lon="4.59371">
        <ele>328.6</ele>
        <time>2022-06-25T14:40:34Z</time>
      </trkpt>
      <trkpt lat="46.15163" lon="4.59365">
        <ele>328.6</ele>
        <time>2022-06-25T14:40:35Z</time>
      </trkpt>
      <trkpt lat="46.15166" lon="4.5936">
        <ele>328.6</ele>
        <time>2022-06-25T14:40:36Z</time>
      </trkpt>
      <trkpt lat="46.15169" lon="4.59354">
        <ele>328.6</ele>
        <time>2022-06-25T14:40:37Z</time>
      </trkpt>
      <trkpt lat="46.15173" lon="4.59348">
        <ele>328.6</ele>
        <time>2022-06-25T14:40:38Z</time>
      </trkpt>
      <trkpt lat="46.15176" lon="4.59343">
        <ele>329</ele>
        <time>2022-06-25T14:40:39Z</time>
      </trkpt>
      <trkpt lat="46.15179" lon="4.59337">
        <ele>329</ele>
        <time>2022-06-25T14:40:40Z</time>
      </trkpt>
      <trkpt lat="46.15182" lon="4.59332">
        <ele>329</ele>
        <time>2022-06-25T14:40:41Z</time>
      </trkpt>
      <trkpt lat="46.15186" lon="4.59327">
        <ele>329</ele>
        <time>2022-06-25T14:40:42Z</time>
      </trkpt>
      <trkpt lat="46.15189" lon="4.59321">
        <ele>329</ele>
        <time>2022-06-25T14:40:43Z</time>
      </trkpt>
      <trkpt lat="46.15193" lon="4.59315">
        <ele>329.2</ele>
        <time>2022-06-25T14:40:44Z</time>
      </trkpt>
      <trkpt lat="46.15196" lon="4.59309">
        <ele>329.2</ele>
        <time>2022-06-25T14:40:45Z</time>
      </trkpt>
      <trkpt lat="46.15199" lon="4.59304">
        <ele>329.2</ele>
        <time>2022-06-25T14:40:46Z</time>
      </trkpt>
      <trkpt lat="46.15203" lon="4.59298">
        <ele>329.2</ele>
        <time>2022-06-25T14:40:47Z</time>
      </trkpt>
      <trkpt lat="46.15206" lon="4.59292">
        <ele>329.2</ele>
        <time>2022-06-25T14:40:48Z</time>
      </trkpt>
      <trkpt lat="46.15209" lon="4.59286">
        <ele>329.4</ele>
        <time>2022-06-25T14:40:49Z</time>
      </trkpt>
      <trkpt lat="46.15212" lon="4.5928">
        <ele>329.4</ele>
        <time>2022-06-25T14:40:50Z</time>
      </trkpt>
      <trkpt lat="46.15216" lon="4.59274">
        <ele>329.4</ele>
        <time>2022-06-25T14:40:51Z</time>
      </trkpt>
      <trkpt lat="46.15219" lon="4.59269">
        <ele>329.4</ele>
        <time>2022-06-25T14:40:52Z</time>
      </trkpt>
      <trkpt lat="46.15222" lon="4.59263">
        <ele>329.6</ele>
        <time>2022-06-25T14:40:53Z</time>
      </trkpt>
      <trkpt lat="46.15226" lon="4.59257">
        <ele>329.6</ele>
        <time>2022-06-25T14:40:54Z</time>
      </trkpt>
      <trkpt lat="46.15229" lon="4.59251">
        <ele>329.6</ele>
        <time>2022-06-25T14:40:55Z</time>
      </trkpt>
      <trkpt lat="46.15233" lon="4.59245">
        <ele>329.8</ele>
        <time>2022-06-25T14:40:56Z</time>
      </trkpt>
      <trkpt lat="46.15236" lon="4.5924">
        <ele>329.8</ele>
        <time>2022-06-25T14:40:57Z</time>
      </trkpt>
      <trkpt lat="46.15239" lon="4.59234">
        <ele>329.8</ele>
        <time>2022-06-25T14:40:58Z</time>
      </trkpt>
      <trkpt lat="46.15243" lon="4.59228">
        <ele>330</ele>
        <time>2022-06-25T14:40:59Z</time>
      </trkpt>
      <trkpt lat="46.15246" lon="4.59222">
        <ele>330</ele>
        <time>2022-06-25T14:41:00Z</time>
      </trkpt>
      <trkpt lat="46.15249" lon="4.59216">
        <ele>330</ele>
        <time>2022-06-25T14:41:01Z</time>
      </trkpt>
      <trkpt lat="46.15252" lon="4.5921">
        <ele>330.2</ele>
        <time>2022-06-25T14:41:02Z</time>
      </trkpt>
      <trkpt lat="46.15256" lon="4.59204">
        <ele>330.2</ele>
        <time>2022-06-25T14:41:03Z</time>
      </trkpt>
      <trkpt lat="46.15259" lon="4.59199">
        <ele>330.2</ele>
        <time>2022-06-25T14:41:04Z</time>
      </trkpt>
      <trkpt lat="46.15262" lon="4.59193">
        <ele>330.2</ele>
        <time>2022-06-25T14:41:05Z</time>
      </trkpt>
      <trkpt lat="46.15265" lon="4.59187">
        <ele>330.6</ele>
        <time>2022-06-25T14:41:06Z</time>
      </trkpt>
      <trkpt lat="46.15269" lon="4.59181">
        <ele>330.6</ele>
        <time>2022-06-25T14:41:07Z</time>
      </trkpt>
      <trkpt lat="46.15272" lon="4.59175">
        <ele>330.8</ele>
        <time>2022-06-25T14:41:08Z</time>
      </trkpt>
      <trkpt lat="46.15275" lon="4.5917">
        <ele>330.8</ele>
        <time>2022-06-25T14:41:09Z</time>
      </trkpt>
      <trkpt lat="46.15279" lon="4.59165">
        <ele>331</ele>
        <time>2022-06-25T14:41:10Z</time>
      </trkpt>
      <trkpt lat="46.15282" lon="4.59159">
        <ele>331</ele>
        <time>2022-06-25T14:41:11Z</time>
      </trkpt>
      <trkpt lat="46.15285" lon="4.59153">
        <ele>331.2</ele>
        <time>2022-06-25T14:41:12Z</time>
      </trkpt>
      <trkpt lat="46.15288" lon="4.59147">
        <ele>331.2</ele>
        <time>2022-06-25T14:41:13Z</time>
      </trkpt>
      <trkpt lat="46.15291" lon="4.59142">
        <ele>331.6</ele>
        <time>2022-06-25T14:41:14Z</time>
      </trkpt>
      <trkpt lat="46.15294" lon="4.59136">
        <ele>331.6</ele>
        <time>2022-06-25T14:41:15Z</time>
      </trkpt>
      <trkpt lat="46.15297" lon="4.59131">
        <ele>331.8</ele>
        <time>2022-06-25T14:41:16Z</time>
      </trkpt>
      <trkpt lat="46.153" lon="4.59126">
        <ele>331.8</ele>
        <time>2022-06-25T14:41:17Z</time>
      </trkpt>
      <trkpt lat="46.15303" lon="4.59121">
        <ele>332</ele>
        <time>2022-06-25T14:41:18Z</time>
      </trkpt>
      <trkpt lat="46.15306" lon="4.59115">
        <ele>332</ele>
        <time>2022-06-25T14:41:19Z</time>
      </trkpt>
      <trkpt lat="46.15309" lon="4.5911">
        <ele>332</ele>
        <time>2022-06-25T14:41:20Z</time>
      </trkpt>
      <trkpt lat="46.15312" lon="4.59105">
        <ele>332.2</ele>
        <time>2022-06-25T14:41:21Z</time>
      </trkpt>
      <trkpt lat="46.15315" lon="4.59099">
        <ele>332.2</ele>
        <time>2022-06-25T14:41:22Z</time>
      </trkpt>
      <trkpt lat="46.15318" lon="4.59094">
        <ele>332.4</ele>
        <time>2022-06-25T14:41:23Z</time>
      </trkpt>
      <trkpt lat="46.15321" lon="4.59089">
        <ele>332.4</ele>
        <time>2022-06-25T14:41:24Z</time>
      </trkpt>
      <trkpt lat="46.15324" lon="4.59084">
        <ele>332.8</ele>
        <time>2022-06-25T14:41:25Z</time>
      </trkpt>
      <trkpt lat="46.15327" lon="4.59079">
        <ele>332.8</ele>
        <time>2022-06-25T14:41:26Z</time>
      </trkpt>
      <trkpt lat="46.1533" lon="4.59073">
        <ele>333</ele>
        <time>2022-06-25T14:41:27Z</time>
      </trkpt>
      <trkpt lat="46.15333" lon="4.59068">
        <ele>333</ele>
        <time>2022-06-25T14:41:28Z</time>
      </trkpt>
      <trkpt lat="46.15335" lon="4.59063">
        <ele>333.4</ele>
        <time>2022-06-25T14:41:29Z</time>
      </trkpt>
      <trkpt lat="46.15338" lon="4.59058">
        <ele>333.4</ele>
        <time>2022-06-25T14:41:30Z</time>
      </trkpt>
      <trkpt lat="46.1534" lon="4.59053">
        <ele>333.6</ele>
        <time>2022-06-25T14:41:31Z</time>
      </trkpt>
      <trkpt lat="46.15343" lon="4.59047">
        <ele>333.6</ele>
        <time>2022-06-25T14:41:32Z</time>
      </trkpt>
      <trkpt lat="46.15346" lon="4.59042">
        <ele>333.8</ele>
        <time>2022-06-25T14:41:33Z</time>
      </trkpt>
      <trkpt lat="46.15348" lon="4.59036">
        <ele>333.8</ele>
        <time>2022-06-25T14:41:34Z</time>
      </trkpt>
      <trkpt lat="46.15351" lon="4.59031">
        <ele>334.2</ele>
        <time>2022-06-25T14:41:35Z</time>
      </trkpt>
      <trkpt lat="46.15353" lon="4.59026">
        <ele>334.2</ele>
        <time>2022-06-25T14:41:36Z</time>
      </trkpt>
      <trkpt lat="46.15356" lon="4.59022">
        <ele>334.4</ele>
        <time>2022-06-25T14:41:37Z</time>
      </trkpt>
      <trkpt lat="46.15359" lon="4.59017">
        <ele>334.6</ele>
        <time>2022-06-25T14:41:38Z</time>
      </trkpt>
      <trkpt lat="46.15362" lon="4.59012">
        <ele>334.6</ele>
        <time>2022-06-25T14:41:39Z</time>
      </trkpt>
      <trkpt lat="46.15365" lon="4.59007">
        <ele>335</ele>
        <time>2022-06-25T14:41:40Z</time>
      </trkpt>
      <trkpt lat="46.15368" lon="4.59002">
        <ele>335</ele>
        <time>2022-06-25T14:41:41Z</time>
      </trkpt>
      <trkpt lat="46.15371" lon="4.58997">
        <ele>335</ele>
        <time>2022-06-25T14:41:42Z</time>
      </trkpt>
      <trkpt lat="46.15374" lon="4.58992">
        <ele>335.2</ele>
        <time>2022-06-25T14:41:43Z</time>
      </trkpt>
      <trkpt lat="46.15377" lon="4.58987">
        <ele>335.2</ele>
        <time>2022-06-25T14:41:44Z</time>
      </trkpt>
      <trkpt lat="46.15381" lon="4.58982">
        <ele>335.2</ele>
        <time>2022-06-25T14:41:45Z</time>
      </trkpt>
      <trkpt lat="46.15385" lon="4.58978">
        <ele>335.2</ele>
        <time>2022-06-25T14:41:46Z</time>
      </trkpt>
      <trkpt lat="46.15389" lon="4.58973">
        <ele>335.4</ele>
        <time>2022-06-25T14:41:47Z</time>
      </trkpt>
      <trkpt lat="46.15393" lon="4.58968">
        <ele>335.4</ele>
        <time>2022-06-25T14:41:48Z</time>
      </trkpt>
      <trkpt lat="46.15397" lon="4.58963">
        <ele>335.4</ele>
        <time>2022-06-25T14:41:49Z</time>
      </trkpt>
      <trkpt lat="46.15401" lon="4.58957">
        <ele>335.4</ele>
        <time>2022-06-25T14:41:50Z</time>
      </trkpt>
      <trkpt lat="46.15405" lon="4.58951">
        <ele>335.4</ele>
        <time>2022-06-25T14:41:51Z</time>
      </trkpt>
      <trkpt lat="46.15408" lon="4.58945">
        <ele>335.4</ele>
        <time>2022-06-25T14:41:52Z</time>
      </trkpt>
      <trkpt lat="46.15413" lon="4.58939">
        <ele>335.4</ele>
        <time>2022-06-25T14:41:53Z</time>
      </trkpt>
      <trkpt lat="46.15416" lon="4.58932">
        <ele>335.4</ele>
        <time>2022-06-25T14:41:54Z</time>
      </trkpt>
      <trkpt lat="46.1542" lon="4.58926">
        <ele>335.2</ele>
        <time>2022-06-25T14:41:55Z</time>
      </trkpt>
      <trkpt lat="46.15423" lon="4.58919">
        <ele>335.2</ele>
        <time>2022-06-25T14:41:56Z</time>
      </trkpt>
      <trkpt lat="46.15427" lon="4.58912">
        <ele>335.2</ele>
        <time>2022-06-25T14:41:57Z</time>
      </trkpt>
      <trkpt lat="46.1543" lon="4.58906">
        <ele>335.2</ele>
        <time>2022-06-25T14:41:58Z</time>
      </trkpt>
      <trkpt lat="46.15434" lon="4.58899">
        <ele>335.2</ele>
        <time>2022-06-25T14:41:59Z</time>
      </trkpt>
      <trkpt lat="46.15438" lon="4.58893">
        <ele>335.2</ele>
        <time>2022-06-25T14:42:00Z</time>
      </trkpt>
      <trkpt lat="46.15441" lon="4.58886">
        <ele>335.4</ele>
        <time>2022-06-25T14:42:01Z</time>
      </trkpt>
      <trkpt lat="46.15445" lon="4.58879">
        <ele>335.4</ele>
        <time>2022-06-25T14:42:02Z</time>
      </trkpt>
      <trkpt lat="46.15448" lon="4.58872">
        <ele>335.4</ele>
        <time>2022-06-25T14:42:03Z</time>
      </trkpt>
      <trkpt lat="46.15452" lon="4.58865">
        <ele>335.6</ele>
        <time>2022-06-25T14:42:04Z</time>
      </trkpt>
      <trkpt lat="46.15455" lon="4.58858">
        <ele>335.6</ele>
        <time>2022-06-25T14:42:05Z</time>
      </trkpt>
      <trkpt lat="46.15459" lon="4.58852">
        <ele>335.6</ele>
        <time>2022-06-25T14:42:06Z</time>
      </trkpt>
      <trkpt lat="46.15462" lon="4.58845">
        <ele>335.8</ele>
        <time>2022-06-25T14:42:07Z</time>
      </trkpt>
      <trkpt lat="46.15465" lon="4.58838">
        <ele>335.8</ele>
        <time>2022-06-25T14:42:08Z</time>
      </trkpt>
      <trkpt lat="46.15469" lon="4.58832">
        <ele>336</ele>
        <time>2022-06-25T14:42:09Z</time>
      </trkpt>
      <trkpt lat="46.15472" lon="4.58825">
        <ele>336</ele>
        <time>2022-06-25T14:42:10Z</time>
      </trkpt>
      <trkpt lat="46.15474" lon="4.58819">
        <ele>336.2</ele>
        <time>2022-06-25T14:42:11Z</time>
      </trkpt>
      <trkpt lat="46.15477" lon="4.58813">
        <ele>336.2</ele>
        <time>2022-06-25T14:42:12Z</time>
      </trkpt>
      <trkpt lat="46.1548" lon="4.58807">
        <ele>336.2</ele>
        <time>2022-06-25T14:42:13Z</time>
      </trkpt>
      <trkpt lat="46.15482" lon="4.58801">
        <ele>336.6</ele>
        <time>2022-06-25T14:42:14Z</time>
      </trkpt>
      <trkpt lat="46.15484" lon="4.58795">
        <ele>336.6</ele>
        <time>2022-06-25T14:42:15Z</time>
      </trkpt>
      <trkpt lat="46.15485" lon="4.58789">
        <ele>336.8</ele>
        <time>2022-06-25T14:42:16Z</time>
      </trkpt>
      <trkpt lat="46.15486" lon="4.58783">
        <ele>336.8</ele>
        <time>2022-06-25T14:42:17Z</time>
      </trkpt>
      <trkpt lat="46.15488" lon="4.58778">
        <ele>337</ele>
        <time>2022-06-25T14:42:18Z</time>
      </trkpt>
      <trkpt lat="46.1549" lon="4.58772">
        <ele>337</ele>
        <time>2022-06-25T14:42:19Z</time>
      </trkpt>
      <trkpt lat="46.15491" lon="4.58766">
        <ele>337.2</ele>
        <time>2022-06-25T14:42:20Z</time>
      </trkpt>
      <trkpt lat="46.15492" lon="4.5876">
        <ele>337.2</ele>
        <time>2022-06-25T14:42:21Z</time>
      </trkpt>
      <trkpt lat="46.15493" lon="4.58754">
        <ele>337.6</ele>
        <time>2022-06-25T14:42:22Z</time>
      </trkpt>
      <trkpt lat="46.15494" lon="4.58748">
        <ele>337.6</ele>
        <time>2022-06-25T14:42:23Z</time>
      </trkpt>
      <trkpt lat="46.15495" lon="4.58743">
        <ele>337.8</ele>
        <time>2022-06-25T14:42:24Z</time>
      </trkpt>
      <trkpt lat="46.15496" lon="4.58737">
        <ele>337.8</ele>
        <time>2022-06-25T14:42:25Z</time>
      </trkpt>
      <trkpt lat="46.15497" lon="4.58732">
        <ele>337.8</ele>
        <time>2022-06-25T14:42:26Z</time>
      </trkpt>
      <trkpt lat="46.15499" lon="4.58726">
        <ele>337.8</ele>
        <time>2022-06-25T14:42:27Z</time>
      </trkpt>
      <trkpt lat="46.15501" lon="4.58721">
        <ele>337.8</ele>
        <time>2022-06-25T14:42:28Z</time>
      </trkpt>
      <trkpt lat="46.15504" lon="4.58716">
        <ele>337.8</ele>
        <time>2022-06-25T14:42:29Z</time>
      </trkpt>
      <trkpt lat="46.15505" lon="4.58711">
        <ele>337.8</ele>
        <time>2022-06-25T14:42:30Z</time>
      </trkpt>
      <trkpt lat="46.15507" lon="4.58705">
        <ele>337.8</ele>
        <time>2022-06-25T14:42:31Z</time>
      </trkpt>
      <trkpt lat="46.15508" lon="4.58698">
        <ele>337.8</ele>
        <time>2022-06-25T14:42:32Z</time>
      </trkpt>
      <trkpt lat="46.1551" lon="4.58692">
        <ele>337.8</ele>
        <time>2022-06-25T14:42:33Z</time>
      </trkpt>
      <trkpt lat="46.15512" lon="4.58685">
        <ele>337.8</ele>
        <time>2022-06-25T14:42:34Z</time>
      </trkpt>
      <trkpt lat="46.15513" lon="4.58679">
        <ele>337.8</ele>
        <time>2022-06-25T14:42:35Z</time>
      </trkpt>
      <trkpt lat="46.15514" lon="4.58672">
        <ele>337.8</ele>
        <time>2022-06-25T14:42:36Z</time>
      </trkpt>
      <trkpt lat="46.15515" lon="4.58665">
        <ele>337.8</ele>
        <time>2022-06-25T14:42:37Z</time>
      </trkpt>
      <trkpt lat="46.15516" lon="4.58659">
        <ele>337.8</ele>
        <time>2022-06-25T14:42:38Z</time>
      </trkpt>
      <trkpt lat="46.15517" lon="4.58653">
        <ele>337.8</ele>
        <time>2022-06-25T14:42:39Z</time>
      </trkpt>
      <trkpt lat="46.15517" lon="4.58647">
        <ele>338</ele>
        <time>2022-06-25T14:42:40Z</time>
      </trkpt>
      <trkpt lat="46.15517" lon="4.58642">
        <ele>338</ele>
        <time>2022-06-25T14:42:41Z</time>
      </trkpt>
      <trkpt lat="46.15518" lon="4.58637">
        <ele>338</ele>
        <time>2022-06-25T14:42:42Z</time>
      </trkpt>
      <trkpt lat="46.15519" lon="4.58631">
        <ele>338.2</ele>
        <time>2022-06-25T14:42:43Z</time>
      </trkpt>
      <trkpt lat="46.15519" lon="4.58627">
        <ele>338.2</ele>
        <time>2022-06-25T14:42:44Z</time>
      </trkpt>
      <trkpt lat="46.15519" lon="4.58624">
        <ele>338.2</ele>
        <time>2022-06-25T14:42:45Z</time>
      </trkpt>
      <trkpt lat="46.15519" lon="4.58621">
        <ele>338.2</ele>
        <time>2022-06-25T14:42:46Z</time>
      </trkpt>
      <trkpt lat="46.1552" lon="4.58619">
        <ele>338.2</ele>
        <time>2022-06-25T14:42:47Z</time>
      </trkpt>
      <trkpt lat="46.15521" lon="4.58617">
        <ele>338.2</ele>
        <time>2022-06-25T14:42:48Z</time>
      </trkpt>
      <trkpt lat="46.15522" lon="4.58616">
        <ele>338.2</ele>
        <time>2022-06-25T14:42:49Z</time>
      </trkpt>
      <trkpt lat="46.15524" lon="4.58614">
        <ele>338.6</ele>
        <time>2022-06-25T14:42:50Z</time>
      </trkpt>
      <trkpt lat="46.15527" lon="4.58613">
        <ele>338.6</ele>
        <time>2022-06-25T14:42:51Z</time>
      </trkpt>
      <trkpt lat="46.1553" lon="4.58611">
        <ele>339</ele>
        <time>2022-06-25T14:42:52Z</time>
      </trkpt>
      <trkpt lat="46.15532" lon="4.58609">
        <ele>339.2</ele>
        <time>2022-06-25T14:42:53Z</time>
      </trkpt>
      <trkpt lat="46.15535" lon="4.58605">
        <ele>339.6</ele>
        <time>2022-06-25T14:42:54Z</time>
      </trkpt>
      <trkpt lat="46.15537" lon="4.58601">
        <ele>339.8</ele>
        <time>2022-06-25T14:42:55Z</time>
      </trkpt>
      <trkpt lat="46.15539" lon="4.58598">
        <ele>340</ele>
        <time>2022-06-25T14:42:56Z</time>
      </trkpt>
      <trkpt lat="46.15541" lon="4.58595">
        <ele>340</ele>
        <time>2022-06-25T14:42:57Z</time>
      </trkpt>
      <trkpt lat="46.15542" lon="4.58591">
        <ele>340.4</ele>
        <time>2022-06-25T14:42:58Z</time>
      </trkpt>
      <trkpt lat="46.15544" lon="4.58589">
        <ele>340.6</ele>
        <time>2022-06-25T14:42:59Z</time>
      </trkpt>
      <trkpt lat="46.15545" lon="4.58586">
        <ele>340.8</ele>
        <time>2022-06-25T14:43:00Z</time>
      </trkpt>
      <trkpt lat="46.15548" lon="4.58583">
        <ele>341</ele>
        <time>2022-06-25T14:43:01Z</time>
      </trkpt>
      <trkpt lat="46.1555" lon="4.5858">
        <ele>341.4</ele>
        <time>2022-06-25T14:43:02Z</time>
      </trkpt>
      <trkpt lat="46.15553" lon="4.58577">
        <ele>341.4</ele>
        <time>2022-06-25T14:43:03Z</time>
      </trkpt>
      <trkpt lat="46.15555" lon="4.58575">
        <ele>341.6</ele>
        <time>2022-06-25T14:43:04Z</time>
      </trkpt>
      <trkpt lat="46.15558" lon="4.58572">
        <ele>341.6</ele>
        <time>2022-06-25T14:43:05Z</time>
      </trkpt>
      <trkpt lat="46.1556" lon="4.58569">
        <ele>341.8</ele>
        <time>2022-06-25T14:43:06Z</time>
      </trkpt>
      <trkpt lat="46.15562" lon="4.58566">
        <ele>341.8</ele>
        <time>2022-06-25T14:43:07Z</time>
      </trkpt>
      <trkpt lat="46.15565" lon="4.58562">
        <ele>342.2</ele>
        <time>2022-06-25T14:43:08Z</time>
      </trkpt>
      <trkpt lat="46.15568" lon="4.58559">
        <ele>342.2</ele>
        <time>2022-06-25T14:43:09Z</time>
      </trkpt>
      <trkpt lat="46.15571" lon="4.58557">
        <ele>342.4</ele>
        <time>2022-06-25T14:43:10Z</time>
      </trkpt>
      <trkpt lat="46.15573" lon="4.58555">
        <ele>342.4</ele>
        <time>2022-06-25T14:43:11Z</time>
      </trkpt>
      <trkpt lat="46.15576" lon="4.58553">
        <ele>342.6</ele>
        <time>2022-06-25T14:43:12Z</time>
      </trkpt>
      <trkpt lat="46.15578" lon="4.58552">
        <ele>342.6</ele>
        <time>2022-06-25T14:43:13Z</time>
      </trkpt>
      <trkpt lat="46.15578" lon="4.5855">
        <ele>342.6</ele>
        <time>2022-06-25T14:43:14Z</time>
      </trkpt>
      <trkpt lat="46.15578" lon="4.58549">
        <ele>342.6</ele>
        <time>2022-06-25T14:43:15Z</time>
      </trkpt>
      <trkpt lat="46.15577" lon="4.58549">
        <ele>342.8</ele>
        <time>2022-06-25T14:43:16Z</time>
      </trkpt>
      <trkpt lat="46.15576" lon="4.58551">
        <ele>342.8</ele>
        <time>2022-06-25T14:43:17Z</time>
      </trkpt>
      <trkpt lat="46.15575" lon="4.58553">
        <ele>342.8</ele>
        <time>2022-06-25T14:43:18Z</time>
      </trkpt>
      <trkpt lat="46.15574" lon="4.58555">
        <ele>342.8</ele>
        <time>2022-06-25T14:43:19Z</time>
      </trkpt>
      <trkpt lat="46.15572" lon="4.58557">
        <ele>342.8</ele>
        <time>2022-06-25T14:43:20Z</time>
      </trkpt>
      <trkpt lat="46.1557" lon="4.5856">
        <ele>342.8</ele>
        <time>2022-06-25T14:43:21Z</time>
      </trkpt>
      <trkpt lat="46.15568" lon="4.58563">
        <ele>342.8</ele>
        <time>2022-06-25T14:43:22Z</time>
      </trkpt>
      <trkpt lat="46.15566" lon="4.58567">
        <ele>342.8</ele>
        <time>2022-06-25T14:43:23Z</time>
      </trkpt>
      <trkpt lat="46.15563" lon="4.58571">
        <ele>342.6</ele>
        <time>2022-06-25T14:43:24Z</time>
      </trkpt>
      <trkpt lat="46.1556" lon="4.58575">
        <ele>342.6</ele>
        <time>2022-06-25T14:43:25Z</time>
      </trkpt>
      <trkpt lat="46.15557" lon="4.58579">
        <ele>342.2</ele>
        <time>2022-06-25T14:43:26Z</time>
      </trkpt>
      <trkpt lat="46.15554" lon="4.58583">
        <ele>342</ele>
        <time>2022-06-25T14:43:27Z</time>
      </trkpt>
      <trkpt lat="46.1555" lon="4.58588">
        <ele>341.8</ele>
        <time>2022-06-25T14:43:28Z</time>
      </trkpt>
      <trkpt lat="46.15546" lon="4.58591">
        <ele>341.6</ele>
        <time>2022-06-25T14:43:29Z</time>
      </trkpt>
      <trkpt lat="46.15542" lon="4.58594">
        <ele>341.2</ele>
        <time>2022-06-25T14:43:30Z</time>
      </trkpt>
      <trkpt lat="46.15539" lon="4.58597">
        <ele>340.8</ele>
        <time>2022-06-25T14:43:31Z</time>
      </trkpt>
      <trkpt lat="46.15537" lon="4.586">
        <ele>340.4</ele>
        <time>2022-06-25T14:43:32Z</time>
      </trkpt>
      <trkpt lat="46.15533" lon="4.586">
        <ele>340.2</ele>
        <time>2022-06-25T14:43:33Z</time>
      </trkpt>
      <trkpt lat="46.1553" lon="4.58601">
        <ele>339.8</ele>
        <time>2022-06-25T14:43:34Z</time>
      </trkpt>
      <trkpt lat="46.15527" lon="4.58601">
        <ele>339.4</ele>
        <time>2022-06-25T14:43:35Z</time>
      </trkpt>
      <trkpt lat="46.15525" lon="4.58601">
        <ele>339</ele>
        <time>2022-06-25T14:43:37Z</time>
      </trkpt>
      <trkpt lat="46.15524" lon="4.58601">
        <ele>338.8</ele>
        <time>2022-06-25T14:43:38Z</time>
      </trkpt>
      <trkpt lat="46.15523" lon="4.58602">
        <ele>338.8</ele>
        <time>2022-06-25T14:43:39Z</time>
      </trkpt>
      <trkpt lat="46.15523" lon="4.58603">
        <ele>338.6</ele>
        <time>2022-06-25T14:43:40Z</time>
      </trkpt>
      <trkpt lat="46.15523" lon="4.58605">
        <ele>338.6</ele>
        <time>2022-06-25T14:43:41Z</time>
      </trkpt>
      <trkpt lat="46.15522" lon="4.58607">
        <ele>338.6</ele>
        <time>2022-06-25T14:43:42Z</time>
      </trkpt>
      <trkpt lat="46.15522" lon="4.58609">
        <ele>338.6</ele>
        <time>2022-06-25T14:43:43Z</time>
      </trkpt>
      <trkpt lat="46.15521" lon="4.58612">
        <ele>338.6</ele>
        <time>2022-06-25T14:43:44Z</time>
      </trkpt>
      <trkpt lat="46.1552" lon="4.58615">
        <ele>338.4</ele>
        <time>2022-06-25T14:43:45Z</time>
      </trkpt>
      <trkpt lat="46.1552" lon="4.58618">
        <ele>338.4</ele>
        <time>2022-06-25T14:43:46Z</time>
      </trkpt>
      <trkpt lat="46.15518" lon="4.58622">
        <ele>338.4</ele>
        <time>2022-06-25T14:43:47Z</time>
      </trkpt>
      <trkpt lat="46.15517" lon="4.58627">
        <ele>338.4</ele>
        <time>2022-06-25T14:43:48Z</time>
      </trkpt>
      <trkpt lat="46.15516" lon="4.58633">
        <ele>338.4</ele>
        <time>2022-06-25T14:43:49Z</time>
      </trkpt>
      <trkpt lat="46.15515" lon="4.58639">
        <ele>338.4</ele>
        <time>2022-06-25T14:43:50Z</time>
      </trkpt>
      <trkpt lat="46.15515" lon="4.58646">
        <ele>338.4</ele>
        <time>2022-06-25T14:43:51Z</time>
      </trkpt>
      <trkpt lat="46.15514" lon="4.58652">
        <ele>338.4</ele>
        <time>2022-06-25T14:43:52Z</time>
      </trkpt>
      <trkpt lat="46.15513" lon="4.58658">
        <ele>338.2</ele>
        <time>2022-06-25T14:43:53Z</time>
      </trkpt>
      <trkpt lat="46.15513" lon="4.58662">
        <ele>338.2</ele>
        <time>2022-06-25T14:43:54Z</time>
      </trkpt>
      <trkpt lat="46.15512" lon="4.58667">
        <ele>338.2</ele>
        <time>2022-06-25T14:43:55Z</time>
      </trkpt>
      <trkpt lat="46.15511" lon="4.58672">
        <ele>338</ele>
        <time>2022-06-25T14:43:56Z</time>
      </trkpt>
      <trkpt lat="46.1551" lon="4.58678">
        <ele>338</ele>
        <time>2022-06-25T14:43:57Z</time>
      </trkpt>
      <trkpt lat="46.15509" lon="4.58683">
        <ele>338</ele>
        <time>2022-06-25T14:43:58Z</time>
      </trkpt>
      <trkpt lat="46.15509" lon="4.58688">
        <ele>338</ele>
        <time>2022-06-25T14:43:59Z</time>
      </trkpt>
      <trkpt lat="46.15509" lon="4.58692">
        <ele>338</ele>
        <time>2022-06-25T14:44:00Z</time>
      </trkpt>
      <trkpt lat="46.15509" lon="4.58696">
        <ele>338</ele>
        <time>2022-06-25T14:44:01Z</time>
      </trkpt>
      <trkpt lat="46.15508" lon="4.58697">
        <ele>337.8</ele>
        <time>2022-06-25T14:44:02Z</time>
      </trkpt>
      <trkpt lat="46.15505" lon="4.58696">
        <ele>337.8</ele>
        <time>2022-06-25T14:44:03Z</time>
      </trkpt>
      <trkpt lat="46.15503" lon="4.58695">
        <ele>337.8</ele>
        <time>2022-06-25T14:44:04Z</time>
      </trkpt>
      <trkpt lat="46.15501" lon="4.58695">
        <ele>337.4</ele>
        <time>2022-06-25T14:44:05Z</time>
      </trkpt>
      <trkpt lat="46.15498" lon="4.58695">
        <ele>337.4</ele>
        <time>2022-06-25T14:44:06Z</time>
      </trkpt>
      <trkpt lat="46.15494" lon="4.58696">
        <ele>337.4</ele>
        <time>2022-06-25T14:44:07Z</time>
      </trkpt>
      <trkpt lat="46.1549" lon="4.58697">
        <ele>337.4</ele>
        <time>2022-06-25T14:44:08Z</time>
      </trkpt>
      <trkpt lat="46.15486" lon="4.58698">
        <ele>337.2</ele>
        <time>2022-06-25T14:44:09Z</time>
      </trkpt>
      <trkpt lat="46.15483" lon="4.58698">
        <ele>337.2</ele>
        <time>2022-06-25T14:44:10Z</time>
      </trkpt>
      <trkpt lat="46.1548" lon="4.58698">
        <ele>337</ele>
        <time>2022-06-25T14:44:11Z</time>
      </trkpt>
      <trkpt lat="46.15476" lon="4.58699">
        <ele>337</ele>
        <time>2022-06-25T14:44:12Z</time>
      </trkpt>
      <trkpt lat="46.15473" lon="4.587">
        <ele>337</ele>
        <time>2022-06-25T14:44:13Z</time>
      </trkpt>
      <trkpt lat="46.15471" lon="4.58702">
        <ele>336.8</ele>
        <time>2022-06-25T14:44:14Z</time>
      </trkpt>
      <trkpt lat="46.15469" lon="4.58703">
        <ele>336.8</ele>
        <time>2022-06-25T14:44:15Z</time>
      </trkpt>
      <trkpt lat="46.15468" lon="4.58705">
        <ele>336.8</ele>
        <time>2022-06-25T14:44:16Z</time>
      </trkpt>
      <trkpt lat="46.15466" lon="4.58707">
        <ele>336.4</ele>
        <time>2022-06-25T14:44:17Z</time>
      </trkpt>
      <trkpt lat="46.15464" lon="4.58709">
        <ele>336.4</ele>
        <time>2022-06-25T14:44:18Z</time>
      </trkpt>
      <trkpt lat="46.15463" lon="4.58711">
        <ele>336.4</ele>
        <time>2022-06-25T14:44:19Z</time>
      </trkpt>
      <trkpt lat="46.15461" lon="4.58713">
        <ele>336.2</ele>
        <time>2022-06-25T14:44:20Z</time>
      </trkpt>
      <trkpt lat="46.15459" lon="4.58715">
        <ele>336.2</ele>
        <time>2022-06-25T14:44:21Z</time>
      </trkpt>
      <trkpt lat="46.15457" lon="4.58717">
        <ele>336.2</ele>
        <time>2022-06-25T14:44:22Z</time>
      </trkpt>
      <trkpt lat="46.15456" lon="4.58719">
        <ele>336.2</ele>
        <time>2022-06-25T14:44:23Z</time>
      </trkpt>
      <trkpt lat="46.15454" lon="4.58721">
        <ele>336</ele>
        <time>2022-06-25T14:44:24Z</time>
      </trkpt>
      <trkpt lat="46.15453" lon="4.58723">
        <ele>336</ele>
        <time>2022-06-25T14:44:25Z</time>
      </trkpt>
      <trkpt lat="46.15451" lon="4.58725">
        <ele>335.8</ele>
        <time>2022-06-25T14:44:26Z</time>
      </trkpt>
      <trkpt lat="46.15449" lon="4.58726">
        <ele>335.8</ele>
        <time>2022-06-25T14:44:27Z</time>
      </trkpt>
      <trkpt lat="46.15447" lon="4.58727">
        <ele>335.8</ele>
        <time>2022-06-25T14:44:28Z</time>
      </trkpt>
      <trkpt lat="46.15445" lon="4.58728">
        <ele>335.4</ele>
        <time>2022-06-25T14:44:29Z</time>
      </trkpt>
      <trkpt lat="46.15443" lon="4.58729">
        <ele>335.4</ele>
        <time>2022-06-25T14:44:30Z</time>
      </trkpt>
      <trkpt lat="46.1544" lon="4.5873">
        <ele>335.2</ele>
        <time>2022-06-25T14:44:31Z</time>
      </trkpt>
      <trkpt lat="46.15438" lon="4.58731">
        <ele>335.2</ele>
        <time>2022-06-25T14:44:32Z</time>
      </trkpt>
      <trkpt lat="46.15437" lon="4.58733">
        <ele>335.2</ele>
        <time>2022-06-25T14:44:33Z</time>
      </trkpt>
      <trkpt lat="46.15435" lon="4.58733">
        <ele>335.2</ele>
        <time>2022-06-25T14:44:34Z</time>
      </trkpt>
      <trkpt lat="46.15433" lon="4.58734">
        <ele>335.2</ele>
        <time>2022-06-25T14:44:35Z</time>
      </trkpt>
      <trkpt lat="46.15431" lon="4.58735">
        <ele>335.2</ele>
        <time>2022-06-25T14:44:36Z</time>
      </trkpt>
      <trkpt lat="46.15432" lon="4.58735">
        <ele>335.2</ele>
        <time>2022-06-25T14:44:38Z</time>
      </trkpt>
      <trkpt lat="46.15432" lon="4.58735">
        <ele>335.2</ele>
        <time>2022-06-25T14:44:39Z</time>
      </trkpt>
      <trkpt lat="46.15432" lon="4.58734">
        <ele>335.2</ele>
        <time>2022-06-25T14:44:40Z</time>
      </trkpt>
      <trkpt lat="46.15433" lon="4.58734">
        <ele>335.2</ele>
        <time>2022-06-25T14:44:41Z</time>
      </trkpt>
      <trkpt lat="46.15433" lon="4.58734">
        <ele>334.8</ele>
        <time>2022-06-25T14:44:43Z</time>
      </trkpt>
      <trkpt lat="46.15434" lon="4.58734">
        <ele>334.8</ele>
        <time>2022-06-25T14:44:44Z</time>
      </trkpt>
      <trkpt lat="46.15434" lon="4.58734">
        <ele>334.8</ele>
        <time>2022-06-25T14:44:46Z</time>
      </trkpt>
      <trkpt lat="46.15435" lon="4.58733">
        <ele>334.8</ele>
        <time>2022-06-25T14:44:47Z</time>
      </trkpt>
      <trkpt lat="46.15435" lon="4.58733">
        <ele>334.8</ele>
        <time>2022-06-25T14:44:49Z</time>
      </trkpt>
      <trkpt lat="46.15436" lon="4.58733">
        <ele>334.8</ele>
        <time>2022-06-25T14:44:51Z</time>
      </trkpt>
      <trkpt lat="46.15436" lon="4.58733">
        <ele>334.8</ele>
        <time>2022-06-25T14:44:52Z</time>
      </trkpt>
      <trkpt lat="46.15437" lon="4.58732">
        <ele>334.8</ele>
        <time>2022-06-25T14:45:41Z</time>
      </trkpt>
      <trkpt lat="46.15437" lon="4.58732">
        <ele>334.8</ele>
        <time>2022-06-25T14:45:42Z</time>
      </trkpt>
      <trkpt lat="46.15438" lon="4.58732">
        <ele>334.8</ele>
        <time>2022-06-25T14:45:46Z</time>
      </trkpt>
      <trkpt lat="46.15438" lon="4.58732">
        <ele>334.8</ele>
        <time>2022-06-25T14:45:47Z</time>
      </trkpt>
      <trkpt lat="46.1544" lon="4.58732">
        <ele>334.8</ele>
        <time>2022-06-25T14:45:48Z</time>
      </trkpt>
      <trkpt lat="46.15441" lon="4.58731">
        <ele>334.8</ele>
        <time>2022-06-25T14:45:49Z</time>
      </trkpt>
      <trkpt lat="46.15443" lon="4.5873">
        <ele>334.8</ele>
        <time>2022-06-25T14:45:50Z</time>
      </trkpt>
      <trkpt lat="46.15444" lon="4.58729">
        <ele>334.8</ele>
        <time>2022-06-25T14:45:51Z</time>
      </trkpt>
      <trkpt lat="46.15446" lon="4.58729">
        <ele>334.8</ele>
        <time>2022-06-25T14:45:52Z</time>
      </trkpt>
      <trkpt lat="46.15448" lon="4.58729">
        <ele>335.2</ele>
        <time>2022-06-25T14:45:53Z</time>
      </trkpt>
      <trkpt lat="46.1545" lon="4.5873">
        <ele>335.2</ele>
        <time>2022-06-25T14:45:54Z</time>
      </trkpt>
      <trkpt lat="46.15451" lon="4.58731">
        <ele>335.2</ele>
        <time>2022-06-25T14:45:55Z</time>
      </trkpt>
      <trkpt lat="46.15452" lon="4.58733">
        <ele>335.4</ele>
        <time>2022-06-25T14:45:56Z</time>
      </trkpt>
      <trkpt lat="46.15454" lon="4.58736">
        <ele>335.4</ele>
        <time>2022-06-25T14:45:57Z</time>
      </trkpt>
      <trkpt lat="46.15455" lon="4.58738">
        <ele>335.4</ele>
        <time>2022-06-25T14:45:58Z</time>
      </trkpt>
      <trkpt lat="46.15457" lon="4.58741">
        <ele>335.4</ele>
        <time>2022-06-25T14:45:59Z</time>
      </trkpt>
      <trkpt lat="46.15458" lon="4.58744">
        <ele>335.6</ele>
        <time>2022-06-25T14:46:00Z</time>
      </trkpt>
      <trkpt lat="46.1546" lon="4.58747">
        <ele>335.6</ele>
        <time>2022-06-25T14:46:01Z</time>
      </trkpt>
      <trkpt lat="46.15461" lon="4.5875">
        <ele>335.6</ele>
        <time>2022-06-25T14:46:02Z</time>
      </trkpt>
      <trkpt lat="46.15463" lon="4.58753">
        <ele>335.6</ele>
        <time>2022-06-25T14:46:03Z</time>
      </trkpt>
      <trkpt lat="46.15464" lon="4.58756">
        <ele>335.6</ele>
        <time>2022-06-25T14:46:04Z</time>
      </trkpt>
      <trkpt lat="46.15465" lon="4.5876">
        <ele>335.6</ele>
        <time>2022-06-25T14:46:05Z</time>
      </trkpt>
      <trkpt lat="46.15467" lon="4.58763">
        <ele>336</ele>
        <time>2022-06-25T14:46:06Z</time>
      </trkpt>
      <trkpt lat="46.15468" lon="4.58766">
        <ele>336</ele>
        <time>2022-06-25T14:46:07Z</time>
      </trkpt>
      <trkpt lat="46.1547" lon="4.58768">
        <ele>336.2</ele>
        <time>2022-06-25T14:46:08Z</time>
      </trkpt>
      <trkpt lat="46.15472" lon="4.5877">
        <ele>336.2</ele>
        <time>2022-06-25T14:46:09Z</time>
      </trkpt>
      <trkpt lat="46.15473" lon="4.58771">
        <ele>336.4</ele>
        <time>2022-06-25T14:46:10Z</time>
      </trkpt>
      <trkpt lat="46.15475" lon="4.58773">
        <ele>336.4</ele>
        <time>2022-06-25T14:46:11Z</time>
      </trkpt>
      <trkpt lat="46.15477" lon="4.58775">
        <ele>336.4</ele>
        <time>2022-06-25T14:46:12Z</time>
      </trkpt>
      <trkpt lat="46.15478" lon="4.58775">
        <ele>336.6</ele>
        <time>2022-06-25T14:46:13Z</time>
      </trkpt>
      <trkpt lat="46.1548" lon="4.58775">
        <ele>336.6</ele>
        <time>2022-06-25T14:46:14Z</time>
      </trkpt>
      <trkpt lat="46.15482" lon="4.58775">
        <ele>336.6</ele>
        <time>2022-06-25T14:46:15Z</time>
      </trkpt>
      <trkpt lat="46.15484" lon="4.58773">
        <ele>337</ele>
        <time>2022-06-25T14:46:16Z</time>
      </trkpt>
      <trkpt lat="46.15486" lon="4.58771">
        <ele>337</ele>
        <time>2022-06-25T14:46:17Z</time>
      </trkpt>
      <trkpt lat="46.15488" lon="4.58769">
        <ele>337</ele>
        <time>2022-06-25T14:46:18Z</time>
      </trkpt>
      <trkpt lat="46.15489" lon="4.58767">
        <ele>337.2</ele>
        <time>2022-06-25T14:46:19Z</time>
      </trkpt>
      <trkpt lat="46.1549" lon="4.58764">
        <ele>337.2</ele>
        <time>2022-06-25T14:46:20Z</time>
      </trkpt>
      <trkpt lat="46.15491" lon="4.5876">
        <ele>337.4</ele>
        <time>2022-06-25T14:46:21Z</time>
      </trkpt>
      <trkpt lat="46.15491" lon="4.58756">
        <ele>337.4</ele>
        <time>2022-06-25T14:46:22Z</time>
      </trkpt>
      <trkpt lat="46.15492" lon="4.58752">
        <ele>337.4</ele>
        <time>2022-06-25T14:46:23Z</time>
      </trkpt>
      <trkpt lat="46.15493" lon="4.58747">
        <ele>337.4</ele>
        <time>2022-06-25T14:46:24Z</time>
      </trkpt>
      <trkpt lat="46.15493" lon="4.58743">
        <ele>337.4</ele>
        <time>2022-06-25T14:46:25Z</time>
      </trkpt>
      <trkpt lat="46.15494" lon="4.58739">
        <ele>337.4</ele>
        <time>2022-06-25T14:46:26Z</time>
      </trkpt>
      <trkpt lat="46.15495" lon="4.58735">
        <ele>337.4</ele>
        <time>2022-06-25T14:46:27Z</time>
      </trkpt>
      <trkpt lat="46.15496" lon="4.5873">
        <ele>337.4</ele>
        <time>2022-06-25T14:46:28Z</time>
      </trkpt>
      <trkpt lat="46.15497" lon="4.58726">
        <ele>337.6</ele>
        <time>2022-06-25T14:46:29Z</time>
      </trkpt>
      <trkpt lat="46.15498" lon="4.58723">
        <ele>337.6</ele>
        <time>2022-06-25T14:46:30Z</time>
      </trkpt>
      <trkpt lat="46.15499" lon="4.58721">
        <ele>337.6</ele>
        <time>2022-06-25T14:46:31Z</time>
      </trkpt>
      <trkpt lat="46.15497" lon="4.58719">
        <ele>337.6</ele>
        <time>2022-06-25T14:46:32Z</time>
      </trkpt>
      <trkpt lat="46.15494" lon="4.58717">
        <ele>337.6</ele>
        <time>2022-06-25T14:46:33Z</time>
      </trkpt>
      <trkpt lat="46.1549" lon="4.58714">
        <ele>337.6</ele>
        <time>2022-06-25T14:46:34Z</time>
      </trkpt>
      <trkpt lat="46.15487" lon="4.58712">
        <ele>337.6</ele>
        <time>2022-06-25T14:46:35Z</time>
      </trkpt>
      <trkpt lat="46.15483" lon="4.58711">
        <ele>337.6</ele>
        <time>2022-06-25T14:46:36Z</time>
      </trkpt>
      <trkpt lat="46.15478" lon="4.58711">
        <ele>337.4</ele>
        <time>2022-06-25T14:46:37Z</time>
      </trkpt>
      <trkpt lat="46.15474" lon="4.58712">
        <ele>337.2</ele>
        <time>2022-06-25T14:46:38Z</time>
      </trkpt>
      <trkpt lat="46.15469" lon="4.58714">
        <ele>337.2</ele>
        <time>2022-06-25T14:46:39Z</time>
      </trkpt>
      <trkpt lat="46.15465" lon="4.58717">
        <ele>336.8</ele>
        <time>2022-06-25T14:46:40Z</time>
      </trkpt>
      <trkpt lat="46.1546" lon="4.58721">
        <ele>336.8</ele>
        <time>2022-06-25T14:46:41Z</time>
      </trkpt>
      <trkpt lat="46.15457" lon="4.58724">
        <ele>336.6</ele>
        <time>2022-06-25T14:46:42Z</time>
      </trkpt>
      <trkpt lat="46.15453" lon="4.58728">
        <ele>336.4</ele>
        <time>2022-06-25T14:46:43Z</time>
      </trkpt>
      <trkpt lat="46.15449" lon="4.58731">
        <ele>336.2</ele>
        <time>2022-06-25T14:46:44Z</time>
      </trkpt>
      <trkpt lat="46.15445" lon="4.58735">
        <ele>335.8</ele>
        <time>2022-06-25T14:46:45Z</time>
      </trkpt>
      <trkpt lat="46.1544" lon="4.58739">
        <ele>335.8</ele>
        <time>2022-06-25T14:46:46Z</time>
      </trkpt>
      <trkpt lat="46.15436" lon="4.58743">
        <ele>335.6</ele>
        <time>2022-06-25T14:46:47Z</time>
      </trkpt>
      <trkpt lat="46.15431" lon="4.58747">
        <ele>335.6</ele>
        <time>2022-06-25T14:46:48Z</time>
      </trkpt>
      <trkpt lat="46.15427" lon="4.58751">
        <ele>335.6</ele>
        <time>2022-06-25T14:46:49Z</time>
      </trkpt>
      <trkpt lat="46.15423" lon="4.58755">
        <ele>335.6</ele>
        <time>2022-06-25T14:46:50Z</time>
      </trkpt>
      <trkpt lat="46.15418" lon="4.58759">
        <ele>335.4</ele>
        <time>2022-06-25T14:46:51Z</time>
      </trkpt>
      <trkpt lat="46.15413" lon="4.58762">
        <ele>335.4</ele>
        <time>2022-06-25T14:46:52Z</time>
      </trkpt>
      <trkpt lat="46.15409" lon="4.58766">
        <ele>335.4</ele>
        <time>2022-06-25T14:46:53Z</time>
      </trkpt>
      <trkpt lat="46.15404" lon="4.58769">
        <ele>335</ele>
        <time>2022-06-25T14:46:54Z</time>
      </trkpt>
      <trkpt lat="46.154" lon="4.58773">
        <ele>335</ele>
        <time>2022-06-25T14:46:55Z</time>
      </trkpt>
      <trkpt lat="46.15395" lon="4.58777">
        <ele>335</ele>
        <time>2022-06-25T14:46:56Z</time>
      </trkpt>
      <trkpt lat="46.1539" lon="4.58781">
        <ele>334.8</ele>
        <time>2022-06-25T14:46:57Z</time>
      </trkpt>
      <trkpt lat="46.15386" lon="4.58785">
        <ele>334.8</ele>
        <time>2022-06-25T14:46:58Z</time>
      </trkpt>
      <trkpt lat="46.15382" lon="4.58788">
        <ele>334.8</ele>
        <time>2022-06-25T14:46:59Z</time>
      </trkpt>
      <trkpt lat="46.15377" lon="4.58792">
        <ele>334.8</ele>
        <time>2022-06-25T14:47:00Z</time>
      </trkpt>
      <trkpt lat="46.15373" lon="4.58795">
        <ele>334.6</ele>
        <time>2022-06-25T14:47:01Z</time>
      </trkpt>
      <trkpt lat="46.15369" lon="4.58799">
        <ele>334.6</ele>
        <time>2022-06-25T14:47:02Z</time>
      </trkpt>
      <trkpt lat="46.15364" lon="4.58801">
        <ele>334.2</ele>
        <time>2022-06-25T14:47:03Z</time>
      </trkpt>
      <trkpt lat="46.15359" lon="4.58804">
        <ele>334.2</ele>
        <time>2022-06-25T14:47:04Z</time>
      </trkpt>
      <trkpt lat="46.15355" lon="4.58807">
        <ele>334</ele>
        <time>2022-06-25T14:47:05Z</time>
      </trkpt>
      <trkpt lat="46.1535" lon="4.58811">
        <ele>334</ele>
        <time>2022-06-25T14:47:06Z</time>
      </trkpt>
      <trkpt lat="46.15345" lon="4.58814">
        <ele>333.8</ele>
        <time>2022-06-25T14:47:07Z</time>
      </trkpt>
      <trkpt lat="46.15341" lon="4.58818">
        <ele>333.8</ele>
        <time>2022-06-25T14:47:08Z</time>
      </trkpt>
      <trkpt lat="46.15336" lon="4.58821">
        <ele>333.8</ele>
        <time>2022-06-25T14:47:09Z</time>
      </trkpt>
      <trkpt lat="46.1533" lon="4.58825">
        <ele>333.4</ele>
        <time>2022-06-25T14:47:10Z</time>
      </trkpt>
      <trkpt lat="46.15325" lon="4.58829">
        <ele>333.4</ele>
        <time>2022-06-25T14:47:11Z</time>
      </trkpt>
      <trkpt lat="46.1532" lon="4.58834">
        <ele>333.2</ele>
        <time>2022-06-25T14:47:12Z</time>
      </trkpt>
      <trkpt lat="46.15315" lon="4.58839">
        <ele>333.2</ele>
        <time>2022-06-25T14:47:13Z</time>
      </trkpt>
      <trkpt lat="46.15311" lon="4.58844">
        <ele>333.2</ele>
        <time>2022-06-25T14:47:14Z</time>
      </trkpt>
      <trkpt lat="46.15306" lon="4.5885">
        <ele>332.8</ele>
        <time>2022-06-25T14:47:15Z</time>
      </trkpt>
      <trkpt lat="46.15302" lon="4.58856">
        <ele>332.8</ele>
        <time>2022-06-25T14:47:16Z</time>
      </trkpt>
      <trkpt lat="46.15298" lon="4.58862">
        <ele>332.8</ele>
        <time>2022-06-25T14:47:17Z</time>
      </trkpt>
      <trkpt lat="46.15295" lon="4.58868">
        <ele>332.8</ele>
        <time>2022-06-25T14:47:18Z</time>
      </trkpt>
      <trkpt lat="46.15291" lon="4.58875">
        <ele>332.8</ele>
        <time>2022-06-25T14:47:19Z</time>
      </trkpt>
      <trkpt lat="46.15288" lon="4.58881">
        <ele>332.8</ele>
        <time>2022-06-25T14:47:20Z</time>
      </trkpt>
      <trkpt lat="46.15285" lon="4.58888">
        <ele>332.8</ele>
        <time>2022-06-25T14:47:21Z</time>
      </trkpt>
      <trkpt lat="46.15282" lon="4.58894">
        <ele>332.8</ele>
        <time>2022-06-25T14:47:22Z</time>
      </trkpt>
      <trkpt lat="46.15279" lon="4.58901">
        <ele>332.8</ele>
        <time>2022-06-25T14:47:23Z</time>
      </trkpt>
      <trkpt lat="46.15278" lon="4.58908">
        <ele>332.8</ele>
        <time>2022-06-25T14:47:24Z</time>
      </trkpt>
      <trkpt lat="46.15277" lon="4.58915">
        <ele>333</ele>
        <time>2022-06-25T14:47:25Z</time>
      </trkpt>
      <trkpt lat="46.15277" lon="4.58923">
        <ele>333</ele>
        <time>2022-06-25T14:47:26Z</time>
      </trkpt>
      <trkpt lat="46.15277" lon="4.58931">
        <ele>333</ele>
        <time>2022-06-25T14:47:27Z</time>
      </trkpt>
      <trkpt lat="46.15278" lon="4.58939">
        <ele>333</ele>
        <time>2022-06-25T14:47:28Z</time>
      </trkpt>
      <trkpt lat="46.15278" lon="4.58947">
        <ele>333</ele>
        <time>2022-06-25T14:47:29Z</time>
      </trkpt>
      <trkpt lat="46.15278" lon="4.58954">
        <ele>333</ele>
        <time>2022-06-25T14:47:30Z</time>
      </trkpt>
      <trkpt lat="46.15278" lon="4.58962">
        <ele>333</ele>
        <time>2022-06-25T14:47:31Z</time>
      </trkpt>
      <trkpt lat="46.15279" lon="4.5897">
        <ele>333</ele>
        <time>2022-06-25T14:47:32Z</time>
      </trkpt>
      <trkpt lat="46.15281" lon="4.58978">
        <ele>332.8</ele>
        <time>2022-06-25T14:47:33Z</time>
      </trkpt>
      <trkpt lat="46.15284" lon="4.58985">
        <ele>332.8</ele>
        <time>2022-06-25T14:47:34Z</time>
      </trkpt>
      <trkpt lat="46.15287" lon="4.58992">
        <ele>332.6</ele>
        <time>2022-06-25T14:47:35Z</time>
      </trkpt>
      <trkpt lat="46.15291" lon="4.58998">
        <ele>332.6</ele>
        <time>2022-06-25T14:47:36Z</time>
      </trkpt>
      <trkpt lat="46.15296" lon="4.59003">
        <ele>332.6</ele>
        <time>2022-06-25T14:47:37Z</time>
      </trkpt>
      <trkpt lat="46.153" lon="4.59007">
        <ele>332.6</ele>
        <time>2022-06-25T14:47:38Z</time>
      </trkpt>
      <trkpt lat="46.15305" lon="4.5901">
        <ele>332.6</ele>
        <time>2022-06-25T14:47:39Z</time>
      </trkpt>
      <trkpt lat="46.15309" lon="4.59014">
        <ele>332.4</ele>
        <time>2022-06-25T14:47:40Z</time>
      </trkpt>
      <trkpt lat="46.15313" lon="4.59017">
        <ele>332.4</ele>
        <time>2022-06-25T14:47:41Z</time>
      </trkpt>
      <trkpt lat="46.15317" lon="4.59021">
        <ele>332.4</ele>
        <time>2022-06-25T14:47:42Z</time>
      </trkpt>
      <trkpt lat="46.15321" lon="4.59025">
        <ele>332.4</ele>
        <time>2022-06-25T14:47:43Z</time>
      </trkpt>
      <trkpt lat="46.15325" lon="4.59028">
        <ele>332.6</ele>
        <time>2022-06-25T14:47:44Z</time>
      </trkpt>
      <trkpt lat="46.15328" lon="4.59032">
        <ele>332.6</ele>
        <time>2022-06-25T14:47:45Z</time>
      </trkpt>
      <trkpt lat="46.1533" lon="4.59035">
        <ele>332.8</ele>
        <time>2022-06-25T14:47:46Z</time>
      </trkpt>
      <trkpt lat="46.15333" lon="4.59038">
        <ele>332.8</ele>
        <time>2022-06-25T14:47:47Z</time>
      </trkpt>
      <trkpt lat="46.15335" lon="4.59041">
        <ele>333.2</ele>
        <time>2022-06-25T14:47:48Z</time>
      </trkpt>
      <trkpt lat="46.15336" lon="4.59043">
        <ele>333.2</ele>
        <time>2022-06-25T14:47:49Z</time>
      </trkpt>
      <trkpt lat="46.15337" lon="4.59045">
        <ele>333.4</ele>
        <time>2022-06-25T14:47:50Z</time>
      </trkpt>
      <trkpt lat="46.15338" lon="4.59047">
        <ele>333.4</ele>
        <time>2022-06-25T14:47:51Z</time>
      </trkpt>
      <trkpt lat="46.15338" lon="4.59049">
        <ele>333.4</ele>
        <time>2022-06-25T14:47:52Z</time>
      </trkpt>
      <trkpt lat="46.15337" lon="4.59051">
        <ele>333.6</ele>
        <time>2022-06-25T14:47:53Z</time>
      </trkpt>
      <trkpt lat="46.15335" lon="4.59054">
        <ele>333.6</ele>
        <time>2022-06-25T14:47:54Z</time>
      </trkpt>
      <trkpt lat="46.15334" lon="4.59057">
        <ele>333.6</ele>
        <time>2022-06-25T14:47:55Z</time>
      </trkpt>
      <trkpt lat="46.15332" lon="4.5906">
        <ele>333.6</ele>
        <time>2022-06-25T14:47:56Z</time>
      </trkpt>
      <trkpt lat="46.15331" lon="4.59063">
        <ele>333.6</ele>
        <time>2022-06-25T14:47:57Z</time>
      </trkpt>
      <trkpt lat="46.1533" lon="4.59065">
        <ele>333.6</ele>
        <time>2022-06-25T14:47:58Z</time>
      </trkpt>
      <trkpt lat="46.15329" lon="4.59067">
        <ele>333.6</ele>
        <time>2022-06-25T14:47:59Z</time>
      </trkpt>
      <trkpt lat="46.1533" lon="4.59068">
        <ele>333.4</ele>
        <time>2022-06-25T14:48:00Z</time>
      </trkpt>
      <trkpt lat="46.1533" lon="4.59068">
        <ele>333.6</ele>
        <time>2022-06-25T14:48:19Z</time>
      </trkpt>
      <trkpt lat="46.1533" lon="4.59068">
        <ele>333.6</ele>
        <time>2022-06-25T14:50:47Z</time>
      </trkpt>
      <trkpt lat="46.1533" lon="4.59068">
        <ele>333.2</ele>
        <time>2022-06-25T14:55:16Z</time>
      </trkpt>
      <trkpt lat="46.1533" lon="4.59068">
        <ele>332.4</ele>
        <time>2022-06-25T14:58:29Z</time>
      </trkpt>
      <trkpt lat="46.1533" lon="4.59068">
        <ele>332.4</ele>
        <time>2022-06-25T14:59:46Z</time>
      </trkpt>
      <trkpt lat="46.1533" lon="4.59068">
        <ele>332.4</ele>
        <time>2022-06-25T15:01:07Z</time>
      </trkpt>
      <trkpt lat="46.1533" lon="4.59068">
        <ele>332.4</ele>
        <time>2022-06-25T15:02:55Z</time>
      </trkpt>
      <trkpt lat="46.1533" lon="4.59068">
        <ele>332</ele>
        <time>2022-06-25T15:05:08Z</time>
      </trkpt>
      <trkpt lat="46.15331" lon="4.59066">
        <ele>331</ele>
        <time>2022-06-25T15:12:13Z</time>
      </trkpt>
      <trkpt lat="46.15329" lon="4.5907">
        <ele>331</ele>
        <time>2022-06-25T15:12:15Z</time>
      </trkpt>
      <trkpt lat="46.15328" lon="4.59071">
        <ele>331</ele>
        <time>2022-06-25T15:12:16Z</time>
      </trkpt>
      <trkpt lat="46.15327" lon="4.59073">
        <ele>331</ele>
        <time>2022-06-25T15:12:17Z</time>
      </trkpt>
      <trkpt lat="46.15326" lon="4.59075">
        <ele>331</ele>
        <time>2022-06-25T15:12:18Z</time>
      </trkpt>
      <trkpt lat="46.15324" lon="4.59078">
        <ele>331</ele>
        <time>2022-06-25T15:12:19Z</time>
      </trkpt>
      <trkpt lat="46.15323" lon="4.5908">
        <ele>331</ele>
        <time>2022-06-25T15:12:20Z</time>
      </trkpt>
      <trkpt lat="46.15321" lon="4.59083">
        <ele>331</ele>
        <time>2022-06-25T15:12:21Z</time>
      </trkpt>
      <trkpt lat="46.15319" lon="4.59086">
        <ele>331</ele>
        <time>2022-06-25T15:12:22Z</time>
      </trkpt>
      <trkpt lat="46.15317" lon="4.59089">
        <ele>330.8</ele>
        <time>2022-06-25T15:12:23Z</time>
      </trkpt>
      <trkpt lat="46.15316" lon="4.59093">
        <ele>330.8</ele>
        <time>2022-06-25T15:12:24Z</time>
      </trkpt>
      <trkpt lat="46.15314" lon="4.59096">
        <ele>330.8</ele>
        <time>2022-06-25T15:12:25Z</time>
      </trkpt>
      <trkpt lat="46.15312" lon="4.591">
        <ele>330.4</ele>
        <time>2022-06-25T15:12:26Z</time>
      </trkpt>
      <trkpt lat="46.15311" lon="4.59103">
        <ele>330.4</ele>
        <time>2022-06-25T15:12:27Z</time>
      </trkpt>
      <trkpt lat="46.15309" lon="4.59107">
        <ele>330.4</ele>
        <time>2022-06-25T15:12:28Z</time>
      </trkpt>
      <trkpt lat="46.15308" lon="4.59109">
        <ele>330.2</ele>
        <time>2022-06-25T15:12:29Z</time>
      </trkpt>
      <trkpt lat="46.15307" lon="4.59112">
        <ele>330.2</ele>
        <time>2022-06-25T15:12:30Z</time>
      </trkpt>
      <trkpt lat="46.15306" lon="4.59114">
        <ele>330.2</ele>
        <time>2022-06-25T15:12:31Z</time>
      </trkpt>
      <trkpt lat="46.15305" lon="4.59118">
        <ele>330</ele>
        <time>2022-06-25T15:12:32Z</time>
      </trkpt>
      <trkpt lat="46.15304" lon="4.59121">
        <ele>330</ele>
        <time>2022-06-25T15:12:33Z</time>
      </trkpt>
      <trkpt lat="46.15302" lon="4.59125">
        <ele>330</ele>
        <time>2022-06-25T15:12:34Z</time>
      </trkpt>
      <trkpt lat="46.153" lon="4.59129">
        <ele>330</ele>
        <time>2022-06-25T15:12:35Z</time>
      </trkpt>
      <trkpt lat="46.15297" lon="4.59134">
        <ele>330</ele>
        <time>2022-06-25T15:12:36Z</time>
      </trkpt>
      <trkpt lat="46.15294" lon="4.59139">
        <ele>330</ele>
        <time>2022-06-25T15:12:37Z</time>
      </trkpt>
      <trkpt lat="46.15292" lon="4.59143">
        <ele>329.8</ele>
        <time>2022-06-25T15:12:38Z</time>
      </trkpt>
      <trkpt lat="46.15289" lon="4.59148">
        <ele>329.8</ele>
        <time>2022-06-25T15:12:39Z</time>
      </trkpt>
      <trkpt lat="46.15286" lon="4.59154">
        <ele>329.6</ele>
        <time>2022-06-25T15:12:40Z</time>
      </trkpt>
      <trkpt lat="46.15283" lon="4.59159">
        <ele>329.2</ele>
        <time>2022-06-25T15:12:41Z</time>
      </trkpt>
      <trkpt lat="46.15281" lon="4.59165">
        <ele>329.2</ele>
        <time>2022-06-25T15:12:42Z</time>
      </trkpt>
      <trkpt lat="46.15279" lon="4.5917">
        <ele>329.2</ele>
        <time>2022-06-25T15:12:43Z</time>
      </trkpt>
      <trkpt lat="46.15276" lon="4.59175">
        <ele>329</ele>
        <time>2022-06-25T15:12:44Z</time>
      </trkpt>
      <trkpt lat="46.15273" lon="4.5918">
        <ele>329</ele>
        <time>2022-06-25T15:12:45Z</time>
      </trkpt>
      <trkpt lat="46.1527" lon="4.59186">
        <ele>329</ele>
        <time>2022-06-25T15:12:46Z</time>
      </trkpt>
      <trkpt lat="46.15267" lon="4.59191">
        <ele>328.6</ele>
        <time>2022-06-25T15:12:47Z</time>
      </trkpt>
      <trkpt lat="46.15264" lon="4.59197">
        <ele>328.6</ele>
        <time>2022-06-25T15:12:48Z</time>
      </trkpt>
      <trkpt lat="46.1526" lon="4.59203">
        <ele>328.6</ele>
        <time>2022-06-25T15:12:49Z</time>
      </trkpt>
      <trkpt lat="46.15257" lon="4.5921">
        <ele>328.4</ele>
        <time>2022-06-25T15:12:50Z</time>
      </trkpt>
      <trkpt lat="46.15253" lon="4.59216">
        <ele>328.4</ele>
        <time>2022-06-25T15:12:51Z</time>
      </trkpt>
      <trkpt lat="46.15249" lon="4.59223">
        <ele>328.4</ele>
        <time>2022-06-25T15:12:52Z</time>
      </trkpt>
      <trkpt lat="46.15245" lon="4.5923">
        <ele>328.4</ele>
        <time>2022-06-25T15:12:53Z</time>
      </trkpt>
      <trkpt lat="46.15241" lon="4.59236">
        <ele>328.2</ele>
        <time>2022-06-25T15:12:54Z</time>
      </trkpt>
      <trkpt lat="46.15238" lon="4.59243">
        <ele>328.2</ele>
        <time>2022-06-25T15:12:55Z</time>
      </trkpt>
      <trkpt lat="46.15234" lon="4.5925">
        <ele>328</ele>
        <time>2022-06-25T15:12:56Z</time>
      </trkpt>
      <trkpt lat="46.1523" lon="4.59257">
        <ele>327.8</ele>
        <time>2022-06-25T15:12:57Z</time>
      </trkpt>
      <trkpt lat="46.15226" lon="4.59263">
        <ele>327.8</ele>
        <time>2022-06-25T15:12:58Z</time>
      </trkpt>
      <trkpt lat="46.15222" lon="4.5927">
        <ele>327.4</ele>
        <time>2022-06-25T15:12:59Z</time>
      </trkpt>
      <trkpt lat="46.15218" lon="4.59277">
        <ele>327.4</ele>
        <time>2022-06-25T15:13:00Z</time>
      </trkpt>
      <trkpt lat="46.15213" lon="4.59282">
        <ele>327.4</ele>
        <time>2022-06-25T15:13:01Z</time>
      </trkpt>
      <trkpt lat="46.15209" lon="4.59288">
        <ele>327.2</ele>
        <time>2022-06-25T15:13:02Z</time>
      </trkpt>
      <trkpt lat="46.15205" lon="4.59295">
        <ele>327.2</ele>
        <time>2022-06-25T15:13:03Z</time>
      </trkpt>
      <trkpt lat="46.15201" lon="4.59301">
        <ele>327.2</ele>
        <time>2022-06-25T15:13:04Z</time>
      </trkpt>
      <trkpt lat="46.15197" lon="4.59307">
        <ele>327.2</ele>
        <time>2022-06-25T15:13:05Z</time>
      </trkpt>
      <trkpt lat="46.15193" lon="4.59314">
        <ele>327</ele>
        <time>2022-06-25T15:13:06Z</time>
      </trkpt>
      <trkpt lat="46.15189" lon="4.59321">
        <ele>327</ele>
        <time>2022-06-25T15:13:07Z</time>
      </trkpt>
      <trkpt lat="46.15186" lon="4.59327">
        <ele>327</ele>
        <time>2022-06-25T15:13:08Z</time>
      </trkpt>
      <trkpt lat="46.15182" lon="4.59333">
        <ele>327</ele>
        <time>2022-06-25T15:13:09Z</time>
      </trkpt>
      <trkpt lat="46.15178" lon="4.59339">
        <ele>327</ele>
        <time>2022-06-25T15:13:10Z</time>
      </trkpt>
      <trkpt lat="46.15175" lon="4.59346">
        <ele>326.6</ele>
        <time>2022-06-25T15:13:11Z</time>
      </trkpt>
      <trkpt lat="46.15172" lon="4.59352">
        <ele>326.6</ele>
        <time>2022-06-25T15:13:12Z</time>
      </trkpt>
      <trkpt lat="46.15168" lon="4.59358">
        <ele>326.4</ele>
        <time>2022-06-25T15:13:13Z</time>
      </trkpt>
      <trkpt lat="46.15165" lon="4.59364">
        <ele>326.4</ele>
        <time>2022-06-25T15:13:14Z</time>
      </trkpt>
      <trkpt lat="46.15162" lon="4.5937">
        <ele>326.4</ele>
        <time>2022-06-25T15:13:15Z</time>
      </trkpt>
      <trkpt lat="46.15159" lon="4.59376">
        <ele>326.2</ele>
        <time>2022-06-25T15:13:16Z</time>
      </trkpt>
      <trkpt lat="46.15155" lon="4.59382">
        <ele>326.2</ele>
        <time>2022-06-25T15:13:17Z</time>
      </trkpt>
      <trkpt lat="46.15152" lon="4.59388">
        <ele>326.2</ele>
        <time>2022-06-25T15:13:18Z</time>
      </trkpt>
      <trkpt lat="46.15148" lon="4.59394">
        <ele>326.2</ele>
        <time>2022-06-25T15:13:19Z</time>
      </trkpt>
      <trkpt lat="46.15145" lon="4.59399">
        <ele>326.2</ele>
        <time>2022-06-25T15:13:20Z</time>
      </trkpt>
      <trkpt lat="46.15142" lon="4.59404">
        <ele>326</ele>
        <time>2022-06-25T15:13:21Z</time>
      </trkpt>
      <trkpt lat="46.15139" lon="4.5941">
        <ele>326</ele>
        <time>2022-06-25T15:13:22Z</time>
      </trkpt>
      <trkpt lat="46.15136" lon="4.59416">
        <ele>326</ele>
        <time>2022-06-25T15:13:23Z</time>
      </trkpt>
      <trkpt lat="46.15132" lon="4.59422">
        <ele>326</ele>
        <time>2022-06-25T15:13:24Z</time>
      </trkpt>
      <trkpt lat="46.15129" lon="4.59428">
        <ele>326</ele>
        <time>2022-06-25T15:13:25Z</time>
      </trkpt>
      <trkpt lat="46.15125" lon="4.59434">
        <ele>326</ele>
        <time>2022-06-25T15:13:26Z</time>
      </trkpt>
      <trkpt lat="46.15122" lon="4.59441">
        <ele>326</ele>
        <time>2022-06-25T15:13:27Z</time>
      </trkpt>
      <trkpt lat="46.15118" lon="4.59448">
        <ele>325.6</ele>
        <time>2022-06-25T15:13:28Z</time>
      </trkpt>
      <trkpt lat="46.15116" lon="4.59451">
        <ele>325.6</ele>
        <time>2022-06-25T15:13:29Z</time>
      </trkpt>
      <trkpt lat="46.15115" lon="4.59455">
        <ele>325.6</ele>
        <time>2022-06-25T15:13:30Z</time>
      </trkpt>
      <trkpt lat="46.15111" lon="4.59461">
        <ele>325.6</ele>
        <time>2022-06-25T15:13:31Z</time>
      </trkpt>
      <trkpt lat="46.15108" lon="4.59468">
        <ele>325.4</ele>
        <time>2022-06-25T15:13:32Z</time>
      </trkpt>
      <trkpt lat="46.15104" lon="4.59474">
        <ele>325.4</ele>
        <time>2022-06-25T15:13:33Z</time>
      </trkpt>
      <trkpt lat="46.15101" lon="4.5948">
        <ele>325.4</ele>
        <time>2022-06-25T15:13:34Z</time>
      </trkpt>
      <trkpt lat="46.15097" lon="4.59486">
        <ele>325.2</ele>
        <time>2022-06-25T15:13:35Z</time>
      </trkpt>
      <trkpt lat="46.15093" lon="4.59492">
        <ele>325.2</ele>
        <time>2022-06-25T15:13:36Z</time>
      </trkpt>
      <trkpt lat="46.15089" lon="4.59498">
        <ele>325.2</ele>
        <time>2022-06-25T15:13:37Z</time>
      </trkpt>
      <trkpt lat="46.15086" lon="4.59503">
        <ele>325.2</ele>
        <time>2022-06-25T15:13:38Z</time>
      </trkpt>
      <trkpt lat="46.15082" lon="4.5951">
        <ele>325.2</ele>
        <time>2022-06-25T15:13:39Z</time>
      </trkpt>
      <trkpt lat="46.15078" lon="4.59516">
        <ele>325.2</ele>
        <time>2022-06-25T15:13:40Z</time>
      </trkpt>
      <trkpt lat="46.15074" lon="4.59523">
        <ele>325.2</ele>
        <time>2022-06-25T15:13:41Z</time>
      </trkpt>
      <trkpt lat="46.1507" lon="4.5953">
        <ele>325.2</ele>
        <time>2022-06-25T15:13:42Z</time>
      </trkpt>
      <trkpt lat="46.15066" lon="4.59536">
        <ele>325.2</ele>
        <time>2022-06-25T15:13:43Z</time>
      </trkpt>
      <trkpt lat="46.15062" lon="4.59543">
        <ele>325.2</ele>
        <time>2022-06-25T15:13:44Z</time>
      </trkpt>
      <trkpt lat="46.15058" lon="4.59549">
        <ele>325.2</ele>
        <time>2022-06-25T15:13:45Z</time>
      </trkpt>
      <trkpt lat="46.15054" lon="4.59556">
        <ele>325.2</ele>
        <time>2022-06-25T15:13:46Z</time>
      </trkpt>
      <trkpt lat="46.1505" lon="4.59563">
        <ele>325.2</ele>
        <time>2022-06-25T15:13:47Z</time>
      </trkpt>
      <trkpt lat="46.15047" lon="4.5957">
        <ele>325</ele>
        <time>2022-06-25T15:13:48Z</time>
      </trkpt>
      <trkpt lat="46.15043" lon="4.59576">
        <ele>325</ele>
        <time>2022-06-25T15:13:49Z</time>
      </trkpt>
      <trkpt lat="46.15039" lon="4.59582">
        <ele>325</ele>
        <time>2022-06-25T15:13:50Z</time>
      </trkpt>
      <trkpt lat="46.15035" lon="4.59588">
        <ele>324.8</ele>
        <time>2022-06-25T15:13:51Z</time>
      </trkpt>
      <trkpt lat="46.15031" lon="4.59594">
        <ele>324.8</ele>
        <time>2022-06-25T15:13:52Z</time>
      </trkpt>
      <trkpt lat="46.15027" lon="4.59599">
        <ele>324.8</ele>
        <time>2022-06-25T15:13:53Z</time>
      </trkpt>
      <trkpt lat="46.15023" lon="4.59604">
        <ele>324.8</ele>
        <time>2022-06-25T15:13:54Z</time>
      </trkpt>
      <trkpt lat="46.15019" lon="4.59609">
        <ele>324.8</ele>
        <time>2022-06-25T15:13:55Z</time>
      </trkpt>
      <trkpt lat="46.15015" lon="4.59613">
        <ele>324.8</ele>
        <time>2022-06-25T15:13:56Z</time>
      </trkpt>
      <trkpt lat="46.1501" lon="4.59617">
        <ele>324.8</ele>
        <time>2022-06-25T15:13:57Z</time>
      </trkpt>
      <trkpt lat="46.15006" lon="4.59622">
        <ele>324.8</ele>
        <time>2022-06-25T15:13:58Z</time>
      </trkpt>
      <trkpt lat="46.15001" lon="4.59626">
        <ele>324.8</ele>
        <time>2022-06-25T15:13:59Z</time>
      </trkpt>
      <trkpt lat="46.14997" lon="4.5963">
        <ele>324.8</ele>
        <time>2022-06-25T15:14:00Z</time>
      </trkpt>
      <trkpt lat="46.14993" lon="4.59634">
        <ele>324.4</ele>
        <time>2022-06-25T15:14:01Z</time>
      </trkpt>
      <trkpt lat="46.14988" lon="4.59639">
        <ele>324.4</ele>
        <time>2022-06-25T15:14:02Z</time>
      </trkpt>
      <trkpt lat="46.14984" lon="4.59643">
        <ele>324.4</ele>
        <time>2022-06-25T15:14:03Z</time>
      </trkpt>
      <trkpt lat="46.1498" lon="4.59646">
        <ele>324.2</ele>
        <time>2022-06-25T15:14:04Z</time>
      </trkpt>
      <trkpt lat="46.14974" lon="4.59649">
        <ele>324.2</ele>
        <time>2022-06-25T15:14:05Z</time>
      </trkpt>
      <trkpt lat="46.14969" lon="4.59652">
        <ele>324</ele>
        <time>2022-06-25T15:14:06Z</time>
      </trkpt>
      <trkpt lat="46.14963" lon="4.59653">
        <ele>324</ele>
        <time>2022-06-25T15:14:07Z</time>
      </trkpt>
      <trkpt lat="46.14957" lon="4.59654">
        <ele>323.8</ele>
        <time>2022-06-25T15:14:08Z</time>
      </trkpt>
      <trkpt lat="46.14951" lon="4.59655">
        <ele>323.8</ele>
        <time>2022-06-25T15:14:09Z</time>
      </trkpt>
      <trkpt lat="46.14944" lon="4.59655">
        <ele>323.4</ele>
        <time>2022-06-25T15:14:10Z</time>
      </trkpt>
      <trkpt lat="46.14938" lon="4.59655">
        <ele>323.2</ele>
        <time>2022-06-25T15:14:11Z</time>
      </trkpt>
      <trkpt lat="46.14932" lon="4.59655">
        <ele>323.2</ele>
        <time>2022-06-25T15:14:12Z</time>
      </trkpt>
      <trkpt lat="46.14926" lon="4.59654">
        <ele>323</ele>
        <time>2022-06-25T15:14:13Z</time>
      </trkpt>
      <trkpt lat="46.14919" lon="4.59652">
        <ele>323</ele>
        <time>2022-06-25T15:14:14Z</time>
      </trkpt>
      <trkpt lat="46.14913" lon="4.5965">
        <ele>322.6</ele>
        <time>2022-06-25T15:14:15Z</time>
      </trkpt>
      <trkpt lat="46.14907" lon="4.59646">
        <ele>322.6</ele>
        <time>2022-06-25T15:14:16Z</time>
      </trkpt>
      <trkpt lat="46.14902" lon="4.59642">
        <ele>322.4</ele>
        <time>2022-06-25T15:14:17Z</time>
      </trkpt>
      <trkpt lat="46.14897" lon="4.59637">
        <ele>322.4</ele>
        <time>2022-06-25T15:14:18Z</time>
      </trkpt>
      <trkpt lat="46.14893" lon="4.59633">
        <ele>322.4</ele>
        <time>2022-06-25T15:14:19Z</time>
      </trkpt>
      <trkpt lat="46.14889" lon="4.59629">
        <ele>322.4</ele>
        <time>2022-06-25T15:14:20Z</time>
      </trkpt>
      <trkpt lat="46.14886" lon="4.59623">
        <ele>322.4</ele>
        <time>2022-06-25T15:14:21Z</time>
      </trkpt>
      <trkpt lat="46.14885" lon="4.59617">
        <ele>322</ele>
        <time>2022-06-25T15:14:22Z</time>
      </trkpt>
      <trkpt lat="46.14884" lon="4.5961">
        <ele>322</ele>
        <time>2022-06-25T15:14:23Z</time>
      </trkpt>
      <trkpt lat="46.14882" lon="4.59604">
        <ele>322</ele>
        <time>2022-06-25T15:14:24Z</time>
      </trkpt>
      <trkpt lat="46.14879" lon="4.59599">
        <ele>322</ele>
        <time>2022-06-25T15:14:25Z</time>
      </trkpt>
      <trkpt lat="46.14875" lon="4.59598">
        <ele>322</ele>
        <time>2022-06-25T15:14:26Z</time>
      </trkpt>
      <trkpt lat="46.14871" lon="4.59599">
        <ele>322</ele>
        <time>2022-06-25T15:14:27Z</time>
      </trkpt>
      <trkpt lat="46.14868" lon="4.59602">
        <ele>322</ele>
        <time>2022-06-25T15:14:28Z</time>
      </trkpt>
      <trkpt lat="46.14865" lon="4.59606">
        <ele>322</ele>
        <time>2022-06-25T15:14:29Z</time>
      </trkpt>
      <trkpt lat="46.14863" lon="4.59611">
        <ele>321.8</ele>
        <time>2022-06-25T15:14:30Z</time>
      </trkpt>
      <trkpt lat="46.14861" lon="4.59618">
        <ele>321.8</ele>
        <time>2022-06-25T15:14:31Z</time>
      </trkpt>
      <trkpt lat="46.14859" lon="4.59625">
        <ele>321.6</ele>
        <time>2022-06-25T15:14:32Z</time>
      </trkpt>
      <trkpt lat="46.14856" lon="4.59631">
        <ele>321.6</ele>
        <time>2022-06-25T15:14:33Z</time>
      </trkpt>
      <trkpt lat="46.14852" lon="4.59638">
        <ele>321.2</ele>
        <time>2022-06-25T15:14:34Z</time>
      </trkpt>
      <trkpt lat="46.14848" lon="4.59645">
        <ele>321</ele>
        <time>2022-06-25T15:14:35Z</time>
      </trkpt>
      <trkpt lat="46.14843" lon="4.59652">
        <ele>320.8</ele>
        <time>2022-06-25T15:14:36Z</time>
      </trkpt>
      <trkpt lat="46.14839" lon="4.59659">
        <ele>320.8</ele>
        <time>2022-06-25T15:14:37Z</time>
      </trkpt>
      <trkpt lat="46.14835" lon="4.59666">
        <ele>320.8</ele>
        <time>2022-06-25T15:14:38Z</time>
      </trkpt>
      <trkpt lat="46.14831" lon="4.59673">
        <ele>320.4</ele>
        <time>2022-06-25T15:14:39Z</time>
      </trkpt>
      <trkpt lat="46.14826" lon="4.5968">
        <ele>320.4</ele>
        <time>2022-06-25T15:14:40Z</time>
      </trkpt>
      <trkpt lat="46.14822" lon="4.59686">
        <ele>320.2</ele>
        <time>2022-06-25T15:14:41Z</time>
      </trkpt>
      <trkpt lat="46.14818" lon="4.59693">
        <ele>320.2</ele>
        <time>2022-06-25T15:14:42Z</time>
      </trkpt>
      <trkpt lat="46.14814" lon="4.597">
        <ele>320.2</ele>
        <time>2022-06-25T15:14:43Z</time>
      </trkpt>
      <trkpt lat="46.14809" lon="4.59707">
        <ele>320.2</ele>
        <time>2022-06-25T15:14:44Z</time>
      </trkpt>
      <trkpt lat="46.14805" lon="4.59715">
        <ele>320.2</ele>
        <time>2022-06-25T15:14:45Z</time>
      </trkpt>
      <trkpt lat="46.148" lon="4.59722">
        <ele>320</ele>
        <time>2022-06-25T15:14:46Z</time>
      </trkpt>
      <trkpt lat="46.14796" lon="4.59729">
        <ele>320</ele>
        <time>2022-06-25T15:14:47Z</time>
      </trkpt>
      <trkpt lat="46.14791" lon="4.59737">
        <ele>320</ele>
        <time>2022-06-25T15:14:48Z</time>
      </trkpt>
      <trkpt lat="46.14787" lon="4.59744">
        <ele>320</ele>
        <time>2022-06-25T15:14:49Z</time>
      </trkpt>
      <trkpt lat="46.14783" lon="4.59751">
        <ele>320</ele>
        <time>2022-06-25T15:14:50Z</time>
      </trkpt>
      <trkpt lat="46.14779" lon="4.59757">
        <ele>320</ele>
        <time>2022-06-25T15:14:51Z</time>
      </trkpt>
      <trkpt lat="46.14776" lon="4.59764">
        <ele>320</ele>
        <time>2022-06-25T15:14:52Z</time>
      </trkpt>
      <trkpt lat="46.14772" lon="4.5977">
        <ele>320</ele>
        <time>2022-06-25T15:14:53Z</time>
      </trkpt>
      <trkpt lat="46.14768" lon="4.59776">
        <ele>320</ele>
        <time>2022-06-25T15:14:54Z</time>
      </trkpt>
      <trkpt lat="46.14764" lon="4.59782">
        <ele>320.2</ele>
        <time>2022-06-25T15:14:55Z</time>
      </trkpt>
      <trkpt lat="46.14759" lon="4.59788">
        <ele>320.2</ele>
        <time>2022-06-25T15:14:56Z</time>
      </trkpt>
      <trkpt lat="46.14755" lon="4.59794">
        <ele>320.2</ele>
        <time>2022-06-25T15:14:57Z</time>
      </trkpt>
      <trkpt lat="46.1475" lon="4.59799">
        <ele>320.2</ele>
        <time>2022-06-25T15:14:58Z</time>
      </trkpt>
      <trkpt lat="46.14745" lon="4.59803">
        <ele>320.2</ele>
        <time>2022-06-25T15:14:59Z</time>
      </trkpt>
      <trkpt lat="46.1474" lon="4.59807">
        <ele>320.4</ele>
        <time>2022-06-25T15:15:00Z</time>
      </trkpt>
      <trkpt lat="46.14734" lon="4.59811">
        <ele>320.4</ele>
        <time>2022-06-25T15:15:01Z</time>
      </trkpt>
      <trkpt lat="46.14729" lon="4.59815">
        <ele>320.4</ele>
        <time>2022-06-25T15:15:02Z</time>
      </trkpt>
      <trkpt lat="46.14724" lon="4.59819">
        <ele>320.4</ele>
        <time>2022-06-25T15:15:03Z</time>
      </trkpt>
      <trkpt lat="46.14719" lon="4.59823">
        <ele>320.6</ele>
        <time>2022-06-25T15:15:04Z</time>
      </trkpt>
      <trkpt lat="46.14713" lon="4.59827">
        <ele>320.6</ele>
        <time>2022-06-25T15:15:05Z</time>
      </trkpt>
      <trkpt lat="46.14708" lon="4.59832">
        <ele>320.6</ele>
        <time>2022-06-25T15:15:06Z</time>
      </trkpt>
      <trkpt lat="46.14702" lon="4.59836">
        <ele>320.6</ele>
        <time>2022-06-25T15:15:07Z</time>
      </trkpt>
      <trkpt lat="46.14696" lon="4.5984">
        <ele>320.6</ele>
        <time>2022-06-25T15:15:08Z</time>
      </trkpt>
      <trkpt lat="46.14691" lon="4.59845">
        <ele>320.6</ele>
        <time>2022-06-25T15:15:09Z</time>
      </trkpt>
      <trkpt lat="46.14685" lon="4.59849">
        <ele>320.6</ele>
        <time>2022-06-25T15:15:10Z</time>
      </trkpt>
      <trkpt lat="46.14679" lon="4.59854">
        <ele>320.6</ele>
        <time>2022-06-25T15:15:11Z</time>
      </trkpt>
      <trkpt lat="46.14673" lon="4.59858">
        <ele>320.6</ele>
        <time>2022-06-25T15:15:12Z</time>
      </trkpt>
      <trkpt lat="46.14666" lon="4.59863">
        <ele>320.4</ele>
        <time>2022-06-25T15:15:13Z</time>
      </trkpt>
      <trkpt lat="46.1466" lon="4.59867">
        <ele>320.4</ele>
        <time>2022-06-25T15:15:14Z</time>
      </trkpt>
      <trkpt lat="46.14654" lon="4.59872">
        <ele>320</ele>
        <time>2022-06-25T15:15:15Z</time>
      </trkpt>
      <trkpt lat="46.14647" lon="4.59876">
        <ele>320</ele>
        <time>2022-06-25T15:15:16Z</time>
      </trkpt>
      <trkpt lat="46.14641" lon="4.59881">
        <ele>319.8</ele>
        <time>2022-06-25T15:15:17Z</time>
      </trkpt>
      <trkpt lat="46.14634" lon="4.59886">
        <ele>319.8</ele>
        <time>2022-06-25T15:15:18Z</time>
      </trkpt>
      <trkpt lat="46.14628" lon="4.59891">
        <ele>319.4</ele>
        <time>2022-06-25T15:15:19Z</time>
      </trkpt>
      <trkpt lat="46.14621" lon="4.59896">
        <ele>319.4</ele>
        <time>2022-06-25T15:15:20Z</time>
      </trkpt>
      <trkpt lat="46.14615" lon="4.59901">
        <ele>319.2</ele>
        <time>2022-06-25T15:15:21Z</time>
      </trkpt>
      <trkpt lat="46.14608" lon="4.59906">
        <ele>319.2</ele>
        <time>2022-06-25T15:15:22Z</time>
      </trkpt>
      <trkpt lat="46.14601" lon="4.59911">
        <ele>319</ele>
        <time>2022-06-25T15:15:23Z</time>
      </trkpt>
      <trkpt lat="46.14594" lon="4.59916">
        <ele>319</ele>
        <time>2022-06-25T15:15:24Z</time>
      </trkpt>
      <trkpt lat="46.14588" lon="4.59921">
        <ele>319</ele>
        <time>2022-06-25T15:15:25Z</time>
      </trkpt>
      <trkpt lat="46.14581" lon="4.59926">
        <ele>318.8</ele>
        <time>2022-06-25T15:15:26Z</time>
      </trkpt>
      <trkpt lat="46.14574" lon="4.59931">
        <ele>318.8</ele>
        <time>2022-06-25T15:15:27Z</time>
      </trkpt>
      <trkpt lat="46.14568" lon="4.59936">
        <ele>318.8</ele>
        <time>2022-06-25T15:15:28Z</time>
      </trkpt>
      <trkpt lat="46.14561" lon="4.59941">
        <ele>318.8</ele>
        <time>2022-06-25T15:15:29Z</time>
      </trkpt>
      <trkpt lat="46.14554" lon="4.59947">
        <ele>318.8</ele>
        <time>2022-06-25T15:15:30Z</time>
      </trkpt>
      <trkpt lat="46.14548" lon="4.59952">
        <ele>318.8</ele>
        <time>2022-06-25T15:15:31Z</time>
      </trkpt>
      <trkpt lat="46.14541" lon="4.59957">
        <ele>318.6</ele>
        <time>2022-06-25T15:15:32Z</time>
      </trkpt>
      <trkpt lat="46.14528" lon="4.59967">
        <ele>318.6</ele>
        <time>2022-06-25T15:15:33Z</time>
      </trkpt>
      <trkpt lat="46.14521" lon="4.59972">
        <ele>318.6</ele>
        <time>2022-06-25T15:15:34Z</time>
      </trkpt>
      <trkpt lat="46.14515" lon="4.59977">
        <ele>318.4</ele>
        <time>2022-06-25T15:15:35Z</time>
      </trkpt>
      <trkpt lat="46.14508" lon="4.59982">
        <ele>318.4</ele>
        <time>2022-06-25T15:15:36Z</time>
      </trkpt>
      <trkpt lat="46.14501" lon="4.59987">
        <ele>318.4</ele>
        <time>2022-06-25T15:15:37Z</time>
      </trkpt>
      <trkpt lat="46.14495" lon="4.59992">
        <ele>318.4</ele>
        <time>2022-06-25T15:15:38Z</time>
      </trkpt>
      <trkpt lat="46.14488" lon="4.59997">
        <ele>318.4</ele>
        <time>2022-06-25T15:15:39Z</time>
      </trkpt>
      <trkpt lat="46.14482" lon="4.60002">
        <ele>318.4</ele>
        <time>2022-06-25T15:15:40Z</time>
      </trkpt>
      <trkpt lat="46.14476" lon="4.60007">
        <ele>318.4</ele>
        <time>2022-06-25T15:15:41Z</time>
      </trkpt>
      <trkpt lat="46.14469" lon="4.60012">
        <ele>318.4</ele>
        <time>2022-06-25T15:15:42Z</time>
      </trkpt>
      <trkpt lat="46.14463" lon="4.60017">
        <ele>318.4</ele>
        <time>2022-06-25T15:15:43Z</time>
      </trkpt>
      <trkpt lat="46.14456" lon="4.60022">
        <ele>318.4</ele>
        <time>2022-06-25T15:15:44Z</time>
      </trkpt>
      <trkpt lat="46.1445" lon="4.60027">
        <ele>318.4</ele>
        <time>2022-06-25T15:15:45Z</time>
      </trkpt>
      <trkpt lat="46.14444" lon="4.60032">
        <ele>318.4</ele>
        <time>2022-06-25T15:15:46Z</time>
      </trkpt>
      <trkpt lat="46.14438" lon="4.60037">
        <ele>318.6</ele>
        <time>2022-06-25T15:15:47Z</time>
      </trkpt>
      <trkpt lat="46.14432" lon="4.60041">
        <ele>318.6</ele>
        <time>2022-06-25T15:15:48Z</time>
      </trkpt>
      <trkpt lat="46.14426" lon="4.60046">
        <ele>318.6</ele>
        <time>2022-06-25T15:15:49Z</time>
      </trkpt>
      <trkpt lat="46.1442" lon="4.6005">
        <ele>318.6</ele>
        <time>2022-06-25T15:15:50Z</time>
      </trkpt>
      <trkpt lat="46.14414" lon="4.60055">
        <ele>318.8</ele>
        <time>2022-06-25T15:15:51Z</time>
      </trkpt>
      <trkpt lat="46.14408" lon="4.6006">
        <ele>318.8</ele>
        <time>2022-06-25T15:15:52Z</time>
      </trkpt>
      <trkpt lat="46.14403" lon="4.60064">
        <ele>318.8</ele>
        <time>2022-06-25T15:15:53Z</time>
      </trkpt>
      <trkpt lat="46.14397" lon="4.60068">
        <ele>318.8</ele>
        <time>2022-06-25T15:15:54Z</time>
      </trkpt>
      <trkpt lat="46.14391" lon="4.60072">
        <ele>318.8</ele>
        <time>2022-06-25T15:15:55Z</time>
      </trkpt>
      <trkpt lat="46.14385" lon="4.60077">
        <ele>319.2</ele>
        <time>2022-06-25T15:15:56Z</time>
      </trkpt>
      <trkpt lat="46.14379" lon="4.60081">
        <ele>319.2</ele>
        <time>2022-06-25T15:15:57Z</time>
      </trkpt>
      <trkpt lat="46.14373" lon="4.60085">
        <ele>319.2</ele>
        <time>2022-06-25T15:15:58Z</time>
      </trkpt>
      <trkpt lat="46.14368" lon="4.6009">
        <ele>319.2</ele>
        <time>2022-06-25T15:15:59Z</time>
      </trkpt>
      <trkpt lat="46.14362" lon="4.60094">
        <ele>319.2</ele>
        <time>2022-06-25T15:16:00Z</time>
      </trkpt>
      <trkpt lat="46.14356" lon="4.60098">
        <ele>319.4</ele>
        <time>2022-06-25T15:16:01Z</time>
      </trkpt>
      <trkpt lat="46.1435" lon="4.60102">
        <ele>319.4</ele>
        <time>2022-06-25T15:16:02Z</time>
      </trkpt>
      <trkpt lat="46.14345" lon="4.60106">
        <ele>319.4</ele>
        <time>2022-06-25T15:16:03Z</time>
      </trkpt>
      <trkpt lat="46.14339" lon="4.6011">
        <ele>319.4</ele>
        <time>2022-06-25T15:16:04Z</time>
      </trkpt>
      <trkpt lat="46.14333" lon="4.60114">
        <ele>319.6</ele>
        <time>2022-06-25T15:16:05Z</time>
      </trkpt>
      <trkpt lat="46.14328" lon="4.60119">
        <ele>319.6</ele>
        <time>2022-06-25T15:16:06Z</time>
      </trkpt>
      <trkpt lat="46.14322" lon="4.60123">
        <ele>319.6</ele>
        <time>2022-06-25T15:16:07Z</time>
      </trkpt>
      <trkpt lat="46.14316" lon="4.60127">
        <ele>319.6</ele>
        <time>2022-06-25T15:16:08Z</time>
      </trkpt>
      <trkpt lat="46.1431" lon="4.60131">
        <ele>319.8</ele>
        <time>2022-06-25T15:16:09Z</time>
      </trkpt>
      <trkpt lat="46.14305" lon="4.60136">
        <ele>319.8</ele>
        <time>2022-06-25T15:16:10Z</time>
      </trkpt>
      <trkpt lat="46.14299" lon="4.6014">
        <ele>319.8</ele>
        <time>2022-06-25T15:16:11Z</time>
      </trkpt>
      <trkpt lat="46.14294" lon="4.60145">
        <ele>319.8</ele>
        <time>2022-06-25T15:16:12Z</time>
      </trkpt>
      <trkpt lat="46.14288" lon="4.60149">
        <ele>319.8</ele>
        <time>2022-06-25T15:16:13Z</time>
      </trkpt>
      <trkpt lat="46.14282" lon="4.60153">
        <ele>320</ele>
        <time>2022-06-25T15:16:14Z</time>
      </trkpt>
      <trkpt lat="46.14277" lon="4.60157">
        <ele>320</ele>
        <time>2022-06-25T15:16:15Z</time>
      </trkpt>
      <trkpt lat="46.14271" lon="4.60161">
        <ele>320</ele>
        <time>2022-06-25T15:16:16Z</time>
      </trkpt>
      <trkpt lat="46.14266" lon="4.60165">
        <ele>320</ele>
        <time>2022-06-25T15:16:17Z</time>
      </trkpt>
      <trkpt lat="46.1426" lon="4.6017">
        <ele>320.4</ele>
        <time>2022-06-25T15:16:18Z</time>
      </trkpt>
      <trkpt lat="46.14254" lon="4.60174">
        <ele>320.4</ele>
        <time>2022-06-25T15:16:19Z</time>
      </trkpt>
      <trkpt lat="46.14248" lon="4.60179">
        <ele>320.4</ele>
        <time>2022-06-25T15:16:20Z</time>
      </trkpt>
      <trkpt lat="46.14242" lon="4.60183">
        <ele>320.4</ele>
        <time>2022-06-25T15:16:21Z</time>
      </trkpt>
      <trkpt lat="46.14236" lon="4.60187">
        <ele>320.4</ele>
        <time>2022-06-25T15:16:22Z</time>
      </trkpt>
      <trkpt lat="46.14231" lon="4.60192">
        <ele>320.4</ele>
        <time>2022-06-25T15:16:23Z</time>
      </trkpt>
      <trkpt lat="46.14225" lon="4.60197">
        <ele>320.4</ele>
        <time>2022-06-25T15:16:24Z</time>
      </trkpt>
      <trkpt lat="46.1422" lon="4.60203">
        <ele>320.4</ele>
        <time>2022-06-25T15:16:25Z</time>
      </trkpt>
      <trkpt lat="46.14215" lon="4.60209">
        <ele>320.4</ele>
        <time>2022-06-25T15:16:26Z</time>
      </trkpt>
      <trkpt lat="46.1421" lon="4.60216">
        <ele>320.6</ele>
        <time>2022-06-25T15:16:27Z</time>
      </trkpt>
      <trkpt lat="46.14205" lon="4.60223">
        <ele>320.6</ele>
        <time>2022-06-25T15:16:28Z</time>
      </trkpt>
      <trkpt lat="46.142" lon="4.6023">
        <ele>320.6</ele>
        <time>2022-06-25T15:16:29Z</time>
      </trkpt>
      <trkpt lat="46.14196" lon="4.60238">
        <ele>320.6</ele>
        <time>2022-06-25T15:16:30Z</time>
      </trkpt>
      <trkpt lat="46.14191" lon="4.60245">
        <ele>320.6</ele>
        <time>2022-06-25T15:16:31Z</time>
      </trkpt>
      <trkpt lat="46.14187" lon="4.60252">
        <ele>320.6</ele>
        <time>2022-06-25T15:16:32Z</time>
      </trkpt>
      <trkpt lat="46.14183" lon="4.6026">
        <ele>320.8</ele>
        <time>2022-06-25T15:16:33Z</time>
      </trkpt>
      <trkpt lat="46.14179" lon="4.60267">
        <ele>320.8</ele>
        <time>2022-06-25T15:16:34Z</time>
      </trkpt>
      <trkpt lat="46.14176" lon="4.60275">
        <ele>320.8</ele>
        <time>2022-06-25T15:16:35Z</time>
      </trkpt>
      <trkpt lat="46.14173" lon="4.60284">
        <ele>320.8</ele>
        <time>2022-06-25T15:16:36Z</time>
      </trkpt>
      <trkpt lat="46.14169" lon="4.60292">
        <ele>320.6</ele>
        <time>2022-06-25T15:16:37Z</time>
      </trkpt>
      <trkpt lat="46.14166" lon="4.60301">
        <ele>320.6</ele>
        <time>2022-06-25T15:16:38Z</time>
      </trkpt>
      <trkpt lat="46.14163" lon="4.6031">
        <ele>320.6</ele>
        <time>2022-06-25T15:16:39Z</time>
      </trkpt>
      <trkpt lat="46.14159" lon="4.60318">
        <ele>320.6</ele>
        <time>2022-06-25T15:16:40Z</time>
      </trkpt>
      <trkpt lat="46.14156" lon="4.60326">
        <ele>320.6</ele>
        <time>2022-06-25T15:16:41Z</time>
      </trkpt>
      <trkpt lat="46.14153" lon="4.60333">
        <ele>320.6</ele>
        <time>2022-06-25T15:16:42Z</time>
      </trkpt>
      <trkpt lat="46.14149" lon="4.60341">
        <ele>320.6</ele>
        <time>2022-06-25T15:16:43Z</time>
      </trkpt>
      <trkpt lat="46.14146" lon="4.60349">
        <ele>320.6</ele>
        <time>2022-06-25T15:16:44Z</time>
      </trkpt>
      <trkpt lat="46.14143" lon="4.60357">
        <ele>320.6</ele>
        <time>2022-06-25T15:16:45Z</time>
      </trkpt>
      <trkpt lat="46.1414" lon="4.60364">
        <ele>320.2</ele>
        <time>2022-06-25T15:16:46Z</time>
      </trkpt>
      <trkpt lat="46.14137" lon="4.60371">
        <ele>320.2</ele>
        <time>2022-06-25T15:16:47Z</time>
      </trkpt>
      <trkpt lat="46.14134" lon="4.60378">
        <ele>320</ele>
        <time>2022-06-25T15:16:48Z</time>
      </trkpt>
      <trkpt lat="46.14131" lon="4.60386">
        <ele>320</ele>
        <time>2022-06-25T15:16:49Z</time>
      </trkpt>
      <trkpt lat="46.14128" lon="4.60394">
        <ele>320</ele>
        <time>2022-06-25T15:16:50Z</time>
      </trkpt>
      <trkpt lat="46.14125" lon="4.60401">
        <ele>320</ele>
        <time>2022-06-25T15:16:51Z</time>
      </trkpt>
      <trkpt lat="46.14121" lon="4.60409">
        <ele>320</ele>
        <time>2022-06-25T15:16:52Z</time>
      </trkpt>
      <trkpt lat="46.14118" lon="4.60418">
        <ele>320</ele>
        <time>2022-06-25T15:16:53Z</time>
      </trkpt>
      <trkpt lat="46.14115" lon="4.60426">
        <ele>320</ele>
        <time>2022-06-25T15:16:54Z</time>
      </trkpt>
      <trkpt lat="46.14111" lon="4.60434">
        <ele>320</ele>
        <time>2022-06-25T15:16:55Z</time>
      </trkpt>
      <trkpt lat="46.14108" lon="4.60442">
        <ele>320</ele>
        <time>2022-06-25T15:16:56Z</time>
      </trkpt>
      <trkpt lat="46.14104" lon="4.60451">
        <ele>320</ele>
        <time>2022-06-25T15:16:57Z</time>
      </trkpt>
      <trkpt lat="46.141" lon="4.60459">
        <ele>320</ele>
        <time>2022-06-25T15:16:58Z</time>
      </trkpt>
      <trkpt lat="46.14097" lon="4.60468">
        <ele>320</ele>
        <time>2022-06-25T15:16:59Z</time>
      </trkpt>
      <trkpt lat="46.14094" lon="4.60477">
        <ele>320</ele>
        <time>2022-06-25T15:17:00Z</time>
      </trkpt>
      <trkpt lat="46.1409" lon="4.60485">
        <ele>320</ele>
        <time>2022-06-25T15:17:01Z</time>
      </trkpt>
      <trkpt lat="46.14086" lon="4.60494">
        <ele>320</ele>
        <time>2022-06-25T15:17:02Z</time>
      </trkpt>
      <trkpt lat="46.14083" lon="4.60503">
        <ele>320</ele>
        <time>2022-06-25T15:17:03Z</time>
      </trkpt>
      <trkpt lat="46.14079" lon="4.60511">
        <ele>320</ele>
        <time>2022-06-25T15:17:04Z</time>
      </trkpt>
      <trkpt lat="46.14076" lon="4.6052">
        <ele>320</ele>
        <time>2022-06-25T15:17:05Z</time>
      </trkpt>
      <trkpt lat="46.14072" lon="4.60529">
        <ele>320</ele>
        <time>2022-06-25T15:17:06Z</time>
      </trkpt>
      <trkpt lat="46.14069" lon="4.60537">
        <ele>320</ele>
        <time>2022-06-25T15:17:07Z</time>
      </trkpt>
      <trkpt lat="46.14065" lon="4.60546">
        <ele>320</ele>
        <time>2022-06-25T15:17:08Z</time>
      </trkpt>
      <trkpt lat="46.14061" lon="4.60555">
        <ele>320</ele>
        <time>2022-06-25T15:17:09Z</time>
      </trkpt>
      <trkpt lat="46.14058" lon="4.60563">
        <ele>320</ele>
        <time>2022-06-25T15:17:10Z</time>
      </trkpt>
      <trkpt lat="46.14055" lon="4.60572">
        <ele>320</ele>
        <time>2022-06-25T15:17:11Z</time>
      </trkpt>
      <trkpt lat="46.14051" lon="4.60581">
        <ele>320</ele>
        <time>2022-06-25T15:17:12Z</time>
      </trkpt>
      <trkpt lat="46.14048" lon="4.60589">
        <ele>320</ele>
        <time>2022-06-25T15:17:13Z</time>
      </trkpt>
      <trkpt lat="46.14044" lon="4.60598">
        <ele>320</ele>
        <time>2022-06-25T15:17:14Z</time>
      </trkpt>
      <trkpt lat="46.14041" lon="4.60607">
        <ele>320</ele>
        <time>2022-06-25T15:17:15Z</time>
      </trkpt>
      <trkpt lat="46.14037" lon="4.60615">
        <ele>320</ele>
        <time>2022-06-25T15:17:16Z</time>
      </trkpt>
      <trkpt lat="46.14033" lon="4.60624">
        <ele>320</ele>
        <time>2022-06-25T15:17:17Z</time>
      </trkpt>
      <trkpt lat="46.1403" lon="4.60633">
        <ele>320</ele>
        <time>2022-06-25T15:17:18Z</time>
      </trkpt>
      <trkpt lat="46.14026" lon="4.60642">
        <ele>320</ele>
        <time>2022-06-25T15:17:19Z</time>
      </trkpt>
      <trkpt lat="46.14023" lon="4.60651">
        <ele>320</ele>
        <time>2022-06-25T15:17:20Z</time>
      </trkpt>
      <trkpt lat="46.14019" lon="4.60659">
        <ele>320</ele>
        <time>2022-06-25T15:17:21Z</time>
      </trkpt>
      <trkpt lat="46.14015" lon="4.60668">
        <ele>320</ele>
        <time>2022-06-25T15:17:22Z</time>
      </trkpt>
      <trkpt lat="46.1401" lon="4.60677">
        <ele>320</ele>
        <time>2022-06-25T15:17:23Z</time>
      </trkpt>
      <trkpt lat="46.14006" lon="4.60686">
        <ele>319.8</ele>
        <time>2022-06-25T15:17:24Z</time>
      </trkpt>
      <trkpt lat="46.14001" lon="4.60695">
        <ele>319.8</ele>
        <time>2022-06-25T15:17:25Z</time>
      </trkpt>
      <trkpt lat="46.13996" lon="4.60705">
        <ele>319.6</ele>
        <time>2022-06-25T15:17:26Z</time>
      </trkpt>
      <trkpt lat="46.13991" lon="4.60714">
        <ele>319.6</ele>
        <time>2022-06-25T15:17:27Z</time>
      </trkpt>
      <trkpt lat="46.13985" lon="4.60724">
        <ele>319.4</ele>
        <time>2022-06-25T15:17:28Z</time>
      </trkpt>
      <trkpt lat="46.13979" lon="4.60734">
        <ele>319.4</ele>
        <time>2022-06-25T15:17:29Z</time>
      </trkpt>
      <trkpt lat="46.13972" lon="4.60744">
        <ele>318.8</ele>
        <time>2022-06-25T15:17:30Z</time>
      </trkpt>
      <trkpt lat="46.13965" lon="4.60755">
        <ele>318.4</ele>
        <time>2022-06-25T15:17:31Z</time>
      </trkpt>
      <trkpt lat="46.13958" lon="4.60765">
        <ele>318</ele>
        <time>2022-06-25T15:17:32Z</time>
      </trkpt>
      <trkpt lat="46.1395" lon="4.60774">
        <ele>317.6</ele>
        <time>2022-06-25T15:17:33Z</time>
      </trkpt>
      <trkpt lat="46.13944" lon="4.60785">
        <ele>317.2</ele>
        <time>2022-06-25T15:17:34Z</time>
      </trkpt>
      <trkpt lat="46.13936" lon="4.60796">
        <ele>316.8</ele>
        <time>2022-06-25T15:17:35Z</time>
      </trkpt>
      <trkpt lat="46.13928" lon="4.60806">
        <ele>316.4</ele>
        <time>2022-06-25T15:17:36Z</time>
      </trkpt>
      <trkpt lat="46.13919" lon="4.60818">
        <ele>316.2</ele>
        <time>2022-06-25T15:17:37Z</time>
      </trkpt>
      <trkpt lat="46.13911" lon="4.6083">
        <ele>315.8</ele>
        <time>2022-06-25T15:17:38Z</time>
      </trkpt>
      <trkpt lat="46.13903" lon="4.6084">
        <ele>315.4</ele>
        <time>2022-06-25T15:17:39Z</time>
      </trkpt>
      <trkpt lat="46.13896" lon="4.60852">
        <ele>315.2</ele>
        <time>2022-06-25T15:17:40Z</time>
      </trkpt>
      <trkpt lat="46.1389" lon="4.60863">
        <ele>315</ele>
        <time>2022-06-25T15:17:41Z</time>
      </trkpt>
      <trkpt lat="46.13883" lon="4.60875">
        <ele>314.6</ele>
        <time>2022-06-25T15:17:42Z</time>
      </trkpt>
      <trkpt lat="46.13878" lon="4.60886">
        <ele>314.4</ele>
        <time>2022-06-25T15:17:43Z</time>
      </trkpt>
      <trkpt lat="46.13873" lon="4.60899">
        <ele>314.2</ele>
        <time>2022-06-25T15:17:44Z</time>
      </trkpt>
      <trkpt lat="46.13867" lon="4.60911">
        <ele>314.2</ele>
        <time>2022-06-25T15:17:45Z</time>
      </trkpt>
      <trkpt lat="46.13862" lon="4.60924">
        <ele>314</ele>
        <time>2022-06-25T15:17:46Z</time>
      </trkpt>
      <trkpt lat="46.13857" lon="4.60935">
        <ele>314</ele>
        <time>2022-06-25T15:17:47Z</time>
      </trkpt>
      <trkpt lat="46.13852" lon="4.60946">
        <ele>314</ele>
        <time>2022-06-25T15:17:48Z</time>
      </trkpt>
      <trkpt lat="46.13847" lon="4.60957">
        <ele>314</ele>
        <time>2022-06-25T15:17:49Z</time>
      </trkpt>
      <trkpt lat="46.13842" lon="4.60968">
        <ele>313.8</ele>
        <time>2022-06-25T15:17:50Z</time>
      </trkpt>
      <trkpt lat="46.13838" lon="4.60979">
        <ele>313.8</ele>
        <time>2022-06-25T15:17:51Z</time>
      </trkpt>
      <trkpt lat="46.13833" lon="4.60989">
        <ele>313.8</ele>
        <time>2022-06-25T15:17:52Z</time>
      </trkpt>
      <trkpt lat="46.13828" lon="4.61">
        <ele>313.8</ele>
        <time>2022-06-25T15:17:53Z</time>
      </trkpt>
      <trkpt lat="46.13824" lon="4.6101">
        <ele>313.8</ele>
        <time>2022-06-25T15:17:54Z</time>
      </trkpt>
      <trkpt lat="46.13819" lon="4.61019">
        <ele>313.8</ele>
        <time>2022-06-25T15:17:55Z</time>
      </trkpt>
      <trkpt lat="46.13815" lon="4.61029">
        <ele>313.8</ele>
        <time>2022-06-25T15:17:56Z</time>
      </trkpt>
      <trkpt lat="46.13811" lon="4.61039">
        <ele>313.8</ele>
        <time>2022-06-25T15:17:57Z</time>
      </trkpt>
      <trkpt lat="46.13806" lon="4.61049">
        <ele>313.8</ele>
        <time>2022-06-25T15:17:58Z</time>
      </trkpt>
      <trkpt lat="46.13802" lon="4.61058">
        <ele>313.8</ele>
        <time>2022-06-25T15:17:59Z</time>
      </trkpt>
      <trkpt lat="46.13798" lon="4.61068">
        <ele>313.8</ele>
        <time>2022-06-25T15:18:00Z</time>
      </trkpt>
      <trkpt lat="46.13794" lon="4.61077">
        <ele>314</ele>
        <time>2022-06-25T15:18:01Z</time>
      </trkpt>
      <trkpt lat="46.1379" lon="4.61086">
        <ele>314</ele>
        <time>2022-06-25T15:18:02Z</time>
      </trkpt>
      <trkpt lat="46.13787" lon="4.61095">
        <ele>314.2</ele>
        <time>2022-06-25T15:18:03Z</time>
      </trkpt>
      <trkpt lat="46.13783" lon="4.61104">
        <ele>314.2</ele>
        <time>2022-06-25T15:18:04Z</time>
      </trkpt>
      <trkpt lat="46.13779" lon="4.61113">
        <ele>314.2</ele>
        <time>2022-06-25T15:18:05Z</time>
      </trkpt>
      <trkpt lat="46.13776" lon="4.61121">
        <ele>314.2</ele>
        <time>2022-06-25T15:18:06Z</time>
      </trkpt>
      <trkpt lat="46.13772" lon="4.61129">
        <ele>314.4</ele>
        <time>2022-06-25T15:18:07Z</time>
      </trkpt>
      <trkpt lat="46.13769" lon="4.61138">
        <ele>314.4</ele>
        <time>2022-06-25T15:18:08Z</time>
      </trkpt>
      <trkpt lat="46.13765" lon="4.61145">
        <ele>314.4</ele>
        <time>2022-06-25T15:18:09Z</time>
      </trkpt>
      <trkpt lat="46.13762" lon="4.61153">
        <ele>314.8</ele>
        <time>2022-06-25T15:18:10Z</time>
      </trkpt>
      <trkpt lat="46.13758" lon="4.61161">
        <ele>314.8</ele>
        <time>2022-06-25T15:18:11Z</time>
      </trkpt>
      <trkpt lat="46.13755" lon="4.61168">
        <ele>314.8</ele>
        <time>2022-06-25T15:18:12Z</time>
      </trkpt>
      <trkpt lat="46.13752" lon="4.61176">
        <ele>315</ele>
        <time>2022-06-25T15:18:13Z</time>
      </trkpt>
      <trkpt lat="46.13749" lon="4.61183">
        <ele>315.2</ele>
        <time>2022-06-25T15:18:14Z</time>
      </trkpt>
      <trkpt lat="46.13745" lon="4.61191">
        <ele>315.2</ele>
        <time>2022-06-25T15:18:15Z</time>
      </trkpt>
      <trkpt lat="46.13742" lon="4.61198">
        <ele>315.2</ele>
        <time>2022-06-25T15:18:16Z</time>
      </trkpt>
      <trkpt lat="46.13739" lon="4.61206">
        <ele>315.4</ele>
        <time>2022-06-25T15:18:17Z</time>
      </trkpt>
      <trkpt lat="46.13736" lon="4.61213">
        <ele>315.4</ele>
        <time>2022-06-25T15:18:18Z</time>
      </trkpt>
      <trkpt lat="46.13733" lon="4.61221">
        <ele>315.4</ele>
        <time>2022-06-25T15:18:19Z</time>
      </trkpt>
      <trkpt lat="46.1373" lon="4.61228">
        <ele>315.4</ele>
        <time>2022-06-25T15:18:20Z</time>
      </trkpt>
      <trkpt lat="46.13727" lon="4.61236">
        <ele>315.8</ele>
        <time>2022-06-25T15:18:21Z</time>
      </trkpt>
      <trkpt lat="46.13724" lon="4.61244">
        <ele>315.8</ele>
        <time>2022-06-25T15:18:22Z</time>
      </trkpt>
      <trkpt lat="46.13721" lon="4.61251">
        <ele>315.8</ele>
        <time>2022-06-25T15:18:23Z</time>
      </trkpt>
      <trkpt lat="46.13718" lon="4.61259">
        <ele>315.8</ele>
        <time>2022-06-25T15:18:24Z</time>
      </trkpt>
      <trkpt lat="46.13715" lon="4.61266">
        <ele>315.8</ele>
        <time>2022-06-25T15:18:25Z</time>
      </trkpt>
      <trkpt lat="46.13712" lon="4.61274">
        <ele>315.8</ele>
        <time>2022-06-25T15:18:26Z</time>
      </trkpt>
      <trkpt lat="46.13709" lon="4.61282">
        <ele>315.8</ele>
        <time>2022-06-25T15:18:27Z</time>
      </trkpt>
      <trkpt lat="46.13706" lon="4.6129">
        <ele>315.8</ele>
        <time>2022-06-25T15:18:28Z</time>
      </trkpt>
      <trkpt lat="46.13703" lon="4.61297">
        <ele>315.8</ele>
        <time>2022-06-25T15:18:29Z</time>
      </trkpt>
      <trkpt lat="46.13699" lon="4.61305">
        <ele>316</ele>
        <time>2022-06-25T15:18:30Z</time>
      </trkpt>
      <trkpt lat="46.13697" lon="4.61312">
        <ele>316</ele>
        <time>2022-06-25T15:18:31Z</time>
      </trkpt>
      <trkpt lat="46.13694" lon="4.6132">
        <ele>316.2</ele>
        <time>2022-06-25T15:18:32Z</time>
      </trkpt>
      <trkpt lat="46.13691" lon="4.61328">
        <ele>316.2</ele>
        <time>2022-06-25T15:18:33Z</time>
      </trkpt>
      <trkpt lat="46.13688" lon="4.61335">
        <ele>316.2</ele>
        <time>2022-06-25T15:18:34Z</time>
      </trkpt>
      <trkpt lat="46.13685" lon="4.61343">
        <ele>316.4</ele>
        <time>2022-06-25T15:18:35Z</time>
      </trkpt>
      <trkpt lat="46.13682" lon="4.6135">
        <ele>316.4</ele>
        <time>2022-06-25T15:18:36Z</time>
      </trkpt>
      <trkpt lat="46.13679" lon="4.61357">
        <ele>316.4</ele>
        <time>2022-06-25T15:18:37Z</time>
      </trkpt>
      <trkpt lat="46.13676" lon="4.61365">
        <ele>316.4</ele>
        <time>2022-06-25T15:18:38Z</time>
      </trkpt>
      <trkpt lat="46.13673" lon="4.61372">
        <ele>316.4</ele>
        <time>2022-06-25T15:18:39Z</time>
      </trkpt>
      <trkpt lat="46.1367" lon="4.6138">
        <ele>317</ele>
        <time>2022-06-25T15:18:40Z</time>
      </trkpt>
      <trkpt lat="46.13667" lon="4.61387">
        <ele>317</ele>
        <time>2022-06-25T15:18:41Z</time>
      </trkpt>
      <trkpt lat="46.13664" lon="4.61394">
        <ele>317</ele>
        <time>2022-06-25T15:18:42Z</time>
      </trkpt>
      <trkpt lat="46.1366" lon="4.61402">
        <ele>317</ele>
        <time>2022-06-25T15:18:43Z</time>
      </trkpt>
      <trkpt lat="46.13656" lon="4.61409">
        <ele>317</ele>
        <time>2022-06-25T15:18:44Z</time>
      </trkpt>
      <trkpt lat="46.13652" lon="4.61416">
        <ele>317</ele>
        <time>2022-06-25T15:18:45Z</time>
      </trkpt>
      <trkpt lat="46.13647" lon="4.61423">
        <ele>317</ele>
        <time>2022-06-25T15:18:46Z</time>
      </trkpt>
      <trkpt lat="46.13643" lon="4.6143">
        <ele>317</ele>
        <time>2022-06-25T15:18:47Z</time>
      </trkpt>
      <trkpt lat="46.13638" lon="4.61436">
        <ele>317</ele>
        <time>2022-06-25T15:18:48Z</time>
      </trkpt>
      <trkpt lat="46.13633" lon="4.61443">
        <ele>316.8</ele>
        <time>2022-06-25T15:18:49Z</time>
      </trkpt>
      <trkpt lat="46.13627" lon="4.6145">
        <ele>316.8</ele>
        <time>2022-06-25T15:18:50Z</time>
      </trkpt>
      <trkpt lat="46.13622" lon="4.61456">
        <ele>316.6</ele>
        <time>2022-06-25T15:18:51Z</time>
      </trkpt>
      <trkpt lat="46.13616" lon="4.61463">
        <ele>316.6</ele>
        <time>2022-06-25T15:18:52Z</time>
      </trkpt>
      <trkpt lat="46.1361" lon="4.61471">
        <ele>316.2</ele>
        <time>2022-06-25T15:18:53Z</time>
      </trkpt>
      <trkpt lat="46.13604" lon="4.61478">
        <ele>316.2</ele>
        <time>2022-06-25T15:18:54Z</time>
      </trkpt>
      <trkpt lat="46.13598" lon="4.61485">
        <ele>316.2</ele>
        <time>2022-06-25T15:18:55Z</time>
      </trkpt>
      <trkpt lat="46.13592" lon="4.61493">
        <ele>316.2</ele>
        <time>2022-06-25T15:18:56Z</time>
      </trkpt>
      <trkpt lat="46.13586" lon="4.615">
        <ele>316</ele>
        <time>2022-06-25T15:18:57Z</time>
      </trkpt>
      <trkpt lat="46.1358" lon="4.61507">
        <ele>316</ele>
        <time>2022-06-25T15:18:58Z</time>
      </trkpt>
      <trkpt lat="46.13574" lon="4.61515">
        <ele>316</ele>
        <time>2022-06-25T15:18:59Z</time>
      </trkpt>
      <trkpt lat="46.13568" lon="4.61523">
        <ele>315.8</ele>
        <time>2022-06-25T15:19:00Z</time>
      </trkpt>
      <trkpt lat="46.13562" lon="4.6153">
        <ele>315.8</ele>
        <time>2022-06-25T15:19:01Z</time>
      </trkpt>
      <trkpt lat="46.13556" lon="4.61538">
        <ele>315.8</ele>
        <time>2022-06-25T15:19:02Z</time>
      </trkpt>
      <trkpt lat="46.13549" lon="4.61546">
        <ele>315.6</ele>
        <time>2022-06-25T15:19:03Z</time>
      </trkpt>
      <trkpt lat="46.13543" lon="4.61554">
        <ele>315.6</ele>
        <time>2022-06-25T15:19:04Z</time>
      </trkpt>
      <trkpt lat="46.13537" lon="4.61562">
        <ele>315.2</ele>
        <time>2022-06-25T15:19:05Z</time>
      </trkpt>
      <trkpt lat="46.1353" lon="4.6157">
        <ele>315.2</ele>
        <time>2022-06-25T15:19:06Z</time>
      </trkpt>
      <trkpt lat="46.13524" lon="4.61578">
        <ele>315.2</ele>
        <time>2022-06-25T15:19:07Z</time>
      </trkpt>
      <trkpt lat="46.13518" lon="4.61586">
        <ele>315</ele>
        <time>2022-06-25T15:19:08Z</time>
      </trkpt>
      <trkpt lat="46.13511" lon="4.61594">
        <ele>315</ele>
        <time>2022-06-25T15:19:09Z</time>
      </trkpt>
      <trkpt lat="46.13505" lon="4.61602">
        <ele>314.6</ele>
        <time>2022-06-25T15:19:10Z</time>
      </trkpt>
      <trkpt lat="46.13499" lon="4.6161">
        <ele>314.6</ele>
        <time>2022-06-25T15:19:11Z</time>
      </trkpt>
      <trkpt lat="46.13492" lon="4.61618">
        <ele>314.4</ele>
        <time>2022-06-25T15:19:12Z</time>
      </trkpt>
      <trkpt lat="46.13486" lon="4.61626">
        <ele>314.4</ele>
        <time>2022-06-25T15:19:13Z</time>
      </trkpt>
      <trkpt lat="46.13479" lon="4.61634">
        <ele>314.2</ele>
        <time>2022-06-25T15:19:14Z</time>
      </trkpt>
      <trkpt lat="46.13473" lon="4.61642">
        <ele>314.2</ele>
        <time>2022-06-25T15:19:15Z</time>
      </trkpt>
      <trkpt lat="46.13467" lon="4.6165">
        <ele>313.8</ele>
        <time>2022-06-25T15:19:16Z</time>
      </trkpt>
      <trkpt lat="46.1346" lon="4.61659">
        <ele>313.6</ele>
        <time>2022-06-25T15:19:17Z</time>
      </trkpt>
      <trkpt lat="46.13454" lon="4.61667">
        <ele>313.6</ele>
        <time>2022-06-25T15:19:18Z</time>
      </trkpt>
      <trkpt lat="46.13447" lon="4.61674">
        <ele>313.4</ele>
        <time>2022-06-25T15:19:19Z</time>
      </trkpt>
      <trkpt lat="46.13441" lon="4.61682">
        <ele>313.4</ele>
        <time>2022-06-25T15:19:20Z</time>
      </trkpt>
      <trkpt lat="46.13435" lon="4.6169">
        <ele>313</ele>
        <time>2022-06-25T15:19:21Z</time>
      </trkpt>
      <trkpt lat="46.13429" lon="4.61698">
        <ele>313</ele>
        <time>2022-06-25T15:19:22Z</time>
      </trkpt>
      <trkpt lat="46.13423" lon="4.61706">
        <ele>312.8</ele>
        <time>2022-06-25T15:19:23Z</time>
      </trkpt>
      <trkpt lat="46.13417" lon="4.61714">
        <ele>312.8</ele>
        <time>2022-06-25T15:19:24Z</time>
      </trkpt>
      <trkpt lat="46.1341" lon="4.61721">
        <ele>312.6</ele>
        <time>2022-06-25T15:19:25Z</time>
      </trkpt>
      <trkpt lat="46.13404" lon="4.61729">
        <ele>312.6</ele>
        <time>2022-06-25T15:19:26Z</time>
      </trkpt>
      <trkpt lat="46.13398" lon="4.61737">
        <ele>312.2</ele>
        <time>2022-06-25T15:19:27Z</time>
      </trkpt>
      <trkpt lat="46.13392" lon="4.61745">
        <ele>312.2</ele>
        <time>2022-06-25T15:19:28Z</time>
      </trkpt>
      <trkpt lat="46.13386" lon="4.61752">
        <ele>312</ele>
        <time>2022-06-25T15:19:29Z</time>
      </trkpt>
      <trkpt lat="46.1338" lon="4.6176">
        <ele>312</ele>
        <time>2022-06-25T15:19:30Z</time>
      </trkpt>
      <trkpt lat="46.13374" lon="4.61768">
        <ele>312</ele>
        <time>2022-06-25T15:19:31Z</time>
      </trkpt>
      <trkpt lat="46.13368" lon="4.61775">
        <ele>311.8</ele>
        <time>2022-06-25T15:19:32Z</time>
      </trkpt>
      <trkpt lat="46.13362" lon="4.61783">
        <ele>311.8</ele>
        <time>2022-06-25T15:19:33Z</time>
      </trkpt>
      <trkpt lat="46.13356" lon="4.61791">
        <ele>311.4</ele>
        <time>2022-06-25T15:19:34Z</time>
      </trkpt>
      <trkpt lat="46.1335" lon="4.61798">
        <ele>311.4</ele>
        <time>2022-06-25T15:19:35Z</time>
      </trkpt>
      <trkpt lat="46.13344" lon="4.61806">
        <ele>311.4</ele>
        <time>2022-06-25T15:19:36Z</time>
      </trkpt>
      <trkpt lat="46.13339" lon="4.61813">
        <ele>311.4</ele>
        <time>2022-06-25T15:19:37Z</time>
      </trkpt>
      <trkpt lat="46.13333" lon="4.6182">
        <ele>311.2</ele>
        <time>2022-06-25T15:19:38Z</time>
      </trkpt>
      <trkpt lat="46.13327" lon="4.61828">
        <ele>311.2</ele>
        <time>2022-06-25T15:19:39Z</time>
      </trkpt>
      <trkpt lat="46.13321" lon="4.61835">
        <ele>311.2</ele>
        <time>2022-06-25T15:19:40Z</time>
      </trkpt>
      <trkpt lat="46.13315" lon="4.61842">
        <ele>311</ele>
        <time>2022-06-25T15:19:41Z</time>
      </trkpt>
      <trkpt lat="46.1331" lon="4.6185">
        <ele>311</ele>
        <time>2022-06-25T15:19:42Z</time>
      </trkpt>
      <trkpt lat="46.13304" lon="4.61857">
        <ele>310.8</ele>
        <time>2022-06-25T15:19:43Z</time>
      </trkpt>
      <trkpt lat="46.13298" lon="4.61865">
        <ele>310.4</ele>
        <time>2022-06-25T15:19:44Z</time>
      </trkpt>
      <trkpt lat="46.13292" lon="4.61872">
        <ele>310.4</ele>
        <time>2022-06-25T15:19:45Z</time>
      </trkpt>
      <trkpt lat="46.13286" lon="4.61879">
        <ele>310.4</ele>
        <time>2022-06-25T15:19:46Z</time>
      </trkpt>
      <trkpt lat="46.1328" lon="4.61887">
        <ele>310.4</ele>
        <time>2022-06-25T15:19:47Z</time>
      </trkpt>
      <trkpt lat="46.13274" lon="4.61894">
        <ele>310.4</ele>
        <time>2022-06-25T15:19:48Z</time>
      </trkpt>
      <trkpt lat="46.13269" lon="4.61902">
        <ele>310</ele>
        <time>2022-06-25T15:19:49Z</time>
      </trkpt>
      <trkpt lat="46.13263" lon="4.61909">
        <ele>310</ele>
        <time>2022-06-25T15:19:50Z</time>
      </trkpt>
      <trkpt lat="46.13257" lon="4.61916">
        <ele>310.4</ele>
        <time>2022-06-25T15:19:51Z</time>
      </trkpt>
      <trkpt lat="46.13251" lon="4.61924">
        <ele>310</ele>
        <time>2022-06-25T15:19:52Z</time>
      </trkpt>
      <trkpt lat="46.13245" lon="4.61931">
        <ele>310</ele>
        <time>2022-06-25T15:19:53Z</time>
      </trkpt>
      <trkpt lat="46.13239" lon="4.61939">
        <ele>310</ele>
        <time>2022-06-25T15:19:54Z</time>
      </trkpt>
      <trkpt lat="46.13233" lon="4.61946">
        <ele>309.8</ele>
        <time>2022-06-25T15:19:55Z</time>
      </trkpt>
      <trkpt lat="46.13227" lon="4.61954">
        <ele>309.8</ele>
        <time>2022-06-25T15:19:56Z</time>
      </trkpt>
      <trkpt lat="46.13221" lon="4.61962">
        <ele>309.4</ele>
        <time>2022-06-25T15:19:57Z</time>
      </trkpt>
      <trkpt lat="46.13215" lon="4.6197">
        <ele>309.4</ele>
        <time>2022-06-25T15:19:58Z</time>
      </trkpt>
      <trkpt lat="46.13209" lon="4.61977">
        <ele>309.4</ele>
        <time>2022-06-25T15:19:59Z</time>
      </trkpt>
      <trkpt lat="46.13203" lon="4.61985">
        <ele>309.4</ele>
        <time>2022-06-25T15:20:00Z</time>
      </trkpt>
      <trkpt lat="46.13197" lon="4.61993">
        <ele>309.2</ele>
        <time>2022-06-25T15:20:01Z</time>
      </trkpt>
      <trkpt lat="46.1319" lon="4.62001">
        <ele>309.2</ele>
        <time>2022-06-25T15:20:02Z</time>
      </trkpt>
      <trkpt lat="46.13184" lon="4.62009">
        <ele>309.2</ele>
        <time>2022-06-25T15:20:03Z</time>
      </trkpt>
      <trkpt lat="46.13178" lon="4.62017">
        <ele>308.8</ele>
        <time>2022-06-25T15:20:04Z</time>
      </trkpt>
      <trkpt lat="46.13172" lon="4.62025">
        <ele>308.8</ele>
        <time>2022-06-25T15:20:05Z</time>
      </trkpt>
      <trkpt lat="46.13166" lon="4.62033">
        <ele>308.8</ele>
        <time>2022-06-25T15:20:06Z</time>
      </trkpt>
      <trkpt lat="46.13159" lon="4.62041">
        <ele>308.8</ele>
        <time>2022-06-25T15:20:07Z</time>
      </trkpt>
      <trkpt lat="46.13153" lon="4.62049">
        <ele>308.6</ele>
        <time>2022-06-25T15:20:08Z</time>
      </trkpt>
      <trkpt lat="46.13147" lon="4.62057">
        <ele>308.6</ele>
        <time>2022-06-25T15:20:09Z</time>
      </trkpt>
      <trkpt lat="46.13141" lon="4.62065">
        <ele>308.4</ele>
        <time>2022-06-25T15:20:10Z</time>
      </trkpt>
      <trkpt lat="46.13135" lon="4.62072">
        <ele>308.4</ele>
        <time>2022-06-25T15:20:11Z</time>
      </trkpt>
      <trkpt lat="46.13128" lon="4.6208">
        <ele>308.4</ele>
        <time>2022-06-25T15:20:12Z</time>
      </trkpt>
      <trkpt lat="46.13122" lon="4.62088">
        <ele>308</ele>
        <time>2022-06-25T15:20:13Z</time>
      </trkpt>
      <trkpt lat="46.13116" lon="4.62095">
        <ele>308</ele>
        <time>2022-06-25T15:20:14Z</time>
      </trkpt>
      <trkpt lat="46.1311" lon="4.62103">
        <ele>308</ele>
        <time>2022-06-25T15:20:15Z</time>
      </trkpt>
      <trkpt lat="46.13104" lon="4.6211">
        <ele>307.8</ele>
        <time>2022-06-25T15:20:16Z</time>
      </trkpt>
      <trkpt lat="46.13098" lon="4.62118">
        <ele>307.8</ele>
        <time>2022-06-25T15:20:17Z</time>
      </trkpt>
      <trkpt lat="46.13092" lon="4.62126">
        <ele>307.4</ele>
        <time>2022-06-25T15:20:18Z</time>
      </trkpt>
      <trkpt lat="46.13086" lon="4.62133">
        <ele>307.4</ele>
        <time>2022-06-25T15:20:19Z</time>
      </trkpt>
      <trkpt lat="46.1308" lon="4.62141">
        <ele>307.2</ele>
        <time>2022-06-25T15:20:20Z</time>
      </trkpt>
      <trkpt lat="46.13075" lon="4.62149">
        <ele>307.2</ele>
        <time>2022-06-25T15:20:21Z</time>
      </trkpt>
      <trkpt lat="46.13069" lon="4.62156">
        <ele>307.2</ele>
        <time>2022-06-25T15:20:22Z</time>
      </trkpt>
      <trkpt lat="46.13063" lon="4.62163">
        <ele>306.8</ele>
        <time>2022-06-25T15:20:23Z</time>
      </trkpt>
      <trkpt lat="46.13057" lon="4.62171">
        <ele>306.8</ele>
        <time>2022-06-25T15:20:24Z</time>
      </trkpt>
      <trkpt lat="46.13051" lon="4.62178">
        <ele>306.8</ele>
        <time>2022-06-25T15:20:25Z</time>
      </trkpt>
      <trkpt lat="46.13045" lon="4.62185">
        <ele>306.8</ele>
        <time>2022-06-25T15:20:26Z</time>
      </trkpt>
      <trkpt lat="46.13039" lon="4.62192">
        <ele>306.8</ele>
        <time>2022-06-25T15:20:27Z</time>
      </trkpt>
      <trkpt lat="46.13033" lon="4.62199">
        <ele>306.6</ele>
        <time>2022-06-25T15:20:28Z</time>
      </trkpt>
      <trkpt lat="46.13028" lon="4.62207">
        <ele>306.6</ele>
        <time>2022-06-25T15:20:29Z</time>
      </trkpt>
      <trkpt lat="46.13022" lon="4.62214">
        <ele>306.6</ele>
        <time>2022-06-25T15:20:30Z</time>
      </trkpt>
      <trkpt lat="46.13016" lon="4.62222">
        <ele>306.4</ele>
        <time>2022-06-25T15:20:31Z</time>
      </trkpt>
      <trkpt lat="46.13011" lon="4.62229">
        <ele>306.4</ele>
        <time>2022-06-25T15:20:32Z</time>
      </trkpt>
      <trkpt lat="46.13005" lon="4.62237">
        <ele>306.4</ele>
        <time>2022-06-25T15:20:33Z</time>
      </trkpt>
      <trkpt lat="46.13" lon="4.62244">
        <ele>306.2</ele>
        <time>2022-06-25T15:20:34Z</time>
      </trkpt>
      <trkpt lat="46.12994" lon="4.62251">
        <ele>306.2</ele>
        <time>2022-06-25T15:20:35Z</time>
      </trkpt>
      <trkpt lat="46.12989" lon="4.62259">
        <ele>306.2</ele>
        <time>2022-06-25T15:20:36Z</time>
      </trkpt>
      <trkpt lat="46.12984" lon="4.62266">
        <ele>306.2</ele>
        <time>2022-06-25T15:20:37Z</time>
      </trkpt>
      <trkpt lat="46.12978" lon="4.62274">
        <ele>306</ele>
        <time>2022-06-25T15:20:38Z</time>
      </trkpt>
      <trkpt lat="46.12973" lon="4.62282">
        <ele>306</ele>
        <time>2022-06-25T15:20:39Z</time>
      </trkpt>
      <trkpt lat="46.12968" lon="4.6229">
        <ele>306</ele>
        <time>2022-06-25T15:20:40Z</time>
      </trkpt>
      <trkpt lat="46.12963" lon="4.62298">
        <ele>306</ele>
        <time>2022-06-25T15:20:41Z</time>
      </trkpt>
      <trkpt lat="46.12958" lon="4.62306">
        <ele>305.8</ele>
        <time>2022-06-25T15:20:42Z</time>
      </trkpt>
      <trkpt lat="46.12953" lon="4.62314">
        <ele>305.8</ele>
        <time>2022-06-25T15:20:43Z</time>
      </trkpt>
      <trkpt lat="46.12949" lon="4.62323">
        <ele>305.8</ele>
        <time>2022-06-25T15:20:44Z</time>
      </trkpt>
      <trkpt lat="46.12944" lon="4.62331">
        <ele>305.8</ele>
        <time>2022-06-25T15:20:45Z</time>
      </trkpt>
      <trkpt lat="46.1294" lon="4.6234">
        <ele>305.6</ele>
        <time>2022-06-25T15:20:46Z</time>
      </trkpt>
      <trkpt lat="46.12935" lon="4.62349">
        <ele>305.6</ele>
        <time>2022-06-25T15:20:47Z</time>
      </trkpt>
      <trkpt lat="46.12931" lon="4.62358">
        <ele>305.4</ele>
        <time>2022-06-25T15:20:48Z</time>
      </trkpt>
      <trkpt lat="46.12926" lon="4.62368">
        <ele>305.4</ele>
        <time>2022-06-25T15:20:49Z</time>
      </trkpt>
      <trkpt lat="46.12922" lon="4.62377">
        <ele>305</ele>
        <time>2022-06-25T15:20:50Z</time>
      </trkpt>
      <trkpt lat="46.12917" lon="4.62386">
        <ele>305</ele>
        <time>2022-06-25T15:20:51Z</time>
      </trkpt>
      <trkpt lat="46.12913" lon="4.62395">
        <ele>304.8</ele>
        <time>2022-06-25T15:20:52Z</time>
      </trkpt>
      <trkpt lat="46.12908" lon="4.62405">
        <ele>304.6</ele>
        <time>2022-06-25T15:20:53Z</time>
      </trkpt>
      <trkpt lat="46.12903" lon="4.62415">
        <ele>304.4</ele>
        <time>2022-06-25T15:20:54Z</time>
      </trkpt>
      <trkpt lat="46.12898" lon="4.62425">
        <ele>304.4</ele>
        <time>2022-06-25T15:20:55Z</time>
      </trkpt>
      <trkpt lat="46.12893" lon="4.62435">
        <ele>304</ele>
        <time>2022-06-25T15:20:56Z</time>
      </trkpt>
      <trkpt lat="46.12888" lon="4.62445">
        <ele>303.6</ele>
        <time>2022-06-25T15:20:57Z</time>
      </trkpt>
      <trkpt lat="46.12883" lon="4.62456">
        <ele>303.2</ele>
        <time>2022-06-25T15:20:58Z</time>
      </trkpt>
      <trkpt lat="46.12878" lon="4.62466">
        <ele>303</ele>
        <time>2022-06-25T15:20:59Z</time>
      </trkpt>
      <trkpt lat="46.12873" lon="4.62477">
        <ele>302.8</ele>
        <time>2022-06-25T15:21:00Z</time>
      </trkpt>
      <trkpt lat="46.12868" lon="4.62488">
        <ele>302.4</ele>
        <time>2022-06-25T15:21:01Z</time>
      </trkpt>
      <trkpt lat="46.12863" lon="4.625">
        <ele>302.2</ele>
        <time>2022-06-25T15:21:02Z</time>
      </trkpt>
      <trkpt lat="46.12857" lon="4.62511">
        <ele>302.2</ele>
        <time>2022-06-25T15:21:03Z</time>
      </trkpt>
      <trkpt lat="46.12852" lon="4.62522">
        <ele>301.6</ele>
        <time>2022-06-25T15:21:04Z</time>
      </trkpt>
      <trkpt lat="46.12847" lon="4.62531">
        <ele>301.4</ele>
        <time>2022-06-25T15:21:05Z</time>
      </trkpt>
      <trkpt lat="46.12842" lon="4.62543">
        <ele>301.2</ele>
        <time>2022-06-25T15:21:06Z</time>
      </trkpt>
      <trkpt lat="46.12836" lon="4.62555">
        <ele>301</ele>
        <time>2022-06-25T15:21:07Z</time>
      </trkpt>
      <trkpt lat="46.12831" lon="4.62566">
        <ele>300.6</ele>
        <time>2022-06-25T15:21:08Z</time>
      </trkpt>
      <trkpt lat="46.12826" lon="4.62576">
        <ele>300.2</ele>
        <time>2022-06-25T15:21:09Z</time>
      </trkpt>
      <trkpt lat="46.1282" lon="4.62587">
        <ele>300</ele>
        <time>2022-06-25T15:21:10Z</time>
      </trkpt>
      <trkpt lat="46.12814" lon="4.62599">
        <ele>299.8</ele>
        <time>2022-06-25T15:21:11Z</time>
      </trkpt>
      <trkpt lat="46.12809" lon="4.6261">
        <ele>299.4</ele>
        <time>2022-06-25T15:21:12Z</time>
      </trkpt>
      <trkpt lat="46.12804" lon="4.62621">
        <ele>299</ele>
        <time>2022-06-25T15:21:13Z</time>
      </trkpt>
      <trkpt lat="46.12798" lon="4.62632">
        <ele>298.6</ele>
        <time>2022-06-25T15:21:14Z</time>
      </trkpt>
      <trkpt lat="46.12793" lon="4.62643">
        <ele>298.2</ele>
        <time>2022-06-25T15:21:15Z</time>
      </trkpt>
      <trkpt lat="46.12787" lon="4.62655">
        <ele>297.8</ele>
        <time>2022-06-25T15:21:16Z</time>
      </trkpt>
      <trkpt lat="46.12781" lon="4.62666">
        <ele>297.6</ele>
        <time>2022-06-25T15:21:17Z</time>
      </trkpt>
      <trkpt lat="46.12776" lon="4.62678">
        <ele>297.4</ele>
        <time>2022-06-25T15:21:18Z</time>
      </trkpt>
      <trkpt lat="46.12771" lon="4.62688">
        <ele>297</ele>
        <time>2022-06-25T15:21:19Z</time>
      </trkpt>
      <trkpt lat="46.12766" lon="4.627">
        <ele>296.6</ele>
        <time>2022-06-25T15:21:20Z</time>
      </trkpt>
      <trkpt lat="46.1276" lon="4.62711">
        <ele>296.4</ele>
        <time>2022-06-25T15:21:21Z</time>
      </trkpt>
      <trkpt lat="46.12754" lon="4.62722">
        <ele>296</ele>
        <time>2022-06-25T15:21:22Z</time>
      </trkpt>
      <trkpt lat="46.12749" lon="4.62734">
        <ele>295.8</ele>
        <time>2022-06-25T15:21:23Z</time>
      </trkpt>
      <trkpt lat="46.12743" lon="4.62745">
        <ele>295.4</ele>
        <time>2022-06-25T15:21:24Z</time>
      </trkpt>
      <trkpt lat="46.12738" lon="4.62756">
        <ele>295.2</ele>
        <time>2022-06-25T15:21:25Z</time>
      </trkpt>
      <trkpt lat="46.12733" lon="4.62767">
        <ele>294.8</ele>
        <time>2022-06-25T15:21:26Z</time>
      </trkpt>
      <trkpt lat="46.12728" lon="4.62778">
        <ele>294.6</ele>
        <time>2022-06-25T15:21:27Z</time>
      </trkpt>
      <trkpt lat="46.12723" lon="4.62788">
        <ele>294</ele>
        <time>2022-06-25T15:21:29Z</time>
      </trkpt>
      <trkpt lat="46.12719" lon="4.62798">
        <ele>294</ele>
        <time>2022-06-25T15:21:30Z</time>
      </trkpt>
      <trkpt lat="46.12714" lon="4.62809">
        <ele>293.6</ele>
        <time>2022-06-25T15:21:31Z</time>
      </trkpt>
      <trkpt lat="46.12708" lon="4.6282">
        <ele>293.6</ele>
        <time>2022-06-25T15:21:32Z</time>
      </trkpt>
      <trkpt lat="46.12702" lon="4.62832">
        <ele>293.4</ele>
        <time>2022-06-25T15:21:33Z</time>
      </trkpt>
      <trkpt lat="46.12696" lon="4.62843">
        <ele>293.2</ele>
        <time>2022-06-25T15:21:34Z</time>
      </trkpt>
      <trkpt lat="46.12691" lon="4.62855">
        <ele>292.8</ele>
        <time>2022-06-25T15:21:35Z</time>
      </trkpt>
      <trkpt lat="46.12686" lon="4.62865">
        <ele>292.8</ele>
        <time>2022-06-25T15:21:36Z</time>
      </trkpt>
      <trkpt lat="46.12681" lon="4.62874">
        <ele>292.6</ele>
        <time>2022-06-25T15:21:37Z</time>
      </trkpt>
      <trkpt lat="46.12675" lon="4.62885">
        <ele>292.6</ele>
        <time>2022-06-25T15:21:38Z</time>
      </trkpt>
      <trkpt lat="46.1267" lon="4.62897">
        <ele>292.2</ele>
        <time>2022-06-25T15:21:39Z</time>
      </trkpt>
      <trkpt lat="46.12665" lon="4.62908">
        <ele>292.2</ele>
        <time>2022-06-25T15:21:40Z</time>
      </trkpt>
      <trkpt lat="46.1266" lon="4.62918">
        <ele>291.8</ele>
        <time>2022-06-25T15:21:41Z</time>
      </trkpt>
      <trkpt lat="46.12655" lon="4.62928">
        <ele>291.8</ele>
        <time>2022-06-25T15:21:42Z</time>
      </trkpt>
      <trkpt lat="46.1265" lon="4.62938">
        <ele>291.8</ele>
        <time>2022-06-25T15:21:43Z</time>
      </trkpt>
      <trkpt lat="46.12645" lon="4.62948">
        <ele>291.8</ele>
        <time>2022-06-25T15:21:44Z</time>
      </trkpt>
      <trkpt lat="46.1264" lon="4.62957">
        <ele>291.8</ele>
        <time>2022-06-25T15:21:45Z</time>
      </trkpt>
      <trkpt lat="46.12636" lon="4.62967">
        <ele>291.6</ele>
        <time>2022-06-25T15:21:46Z</time>
      </trkpt>
      <trkpt lat="46.12631" lon="4.62976">
        <ele>291.6</ele>
        <time>2022-06-25T15:21:47Z</time>
      </trkpt>
      <trkpt lat="46.12627" lon="4.62986">
        <ele>291.6</ele>
        <time>2022-06-25T15:21:48Z</time>
      </trkpt>
      <trkpt lat="46.12622" lon="4.62995">
        <ele>291.6</ele>
        <time>2022-06-25T15:21:49Z</time>
      </trkpt>
      <trkpt lat="46.12618" lon="4.63005">
        <ele>291.6</ele>
        <time>2022-06-25T15:21:50Z</time>
      </trkpt>
      <trkpt lat="46.12614" lon="4.63014">
        <ele>291.6</ele>
        <time>2022-06-25T15:21:51Z</time>
      </trkpt>
      <trkpt lat="46.12609" lon="4.63023">
        <ele>291.6</ele>
        <time>2022-06-25T15:21:52Z</time>
      </trkpt>
      <trkpt lat="46.12605" lon="4.63032">
        <ele>291.6</ele>
        <time>2022-06-25T15:21:53Z</time>
      </trkpt>
      <trkpt lat="46.126" lon="4.63041">
        <ele>291.6</ele>
        <time>2022-06-25T15:21:54Z</time>
      </trkpt>
      <trkpt lat="46.12596" lon="4.6305">
        <ele>291.6</ele>
        <time>2022-06-25T15:21:55Z</time>
      </trkpt>
      <trkpt lat="46.12591" lon="4.63059">
        <ele>291.6</ele>
        <time>2022-06-25T15:21:56Z</time>
      </trkpt>
      <trkpt lat="46.12587" lon="4.63068">
        <ele>291.6</ele>
        <time>2022-06-25T15:21:57Z</time>
      </trkpt>
      <trkpt lat="46.12583" lon="4.63076">
        <ele>291.6</ele>
        <time>2022-06-25T15:21:58Z</time>
      </trkpt>
      <trkpt lat="46.12578" lon="4.63085">
        <ele>291.6</ele>
        <time>2022-06-25T15:21:59Z</time>
      </trkpt>
      <trkpt lat="46.12574" lon="4.63094">
        <ele>291.4</ele>
        <time>2022-06-25T15:22:00Z</time>
      </trkpt>
      <trkpt lat="46.12569" lon="4.63103">
        <ele>291.4</ele>
        <time>2022-06-25T15:22:01Z</time>
      </trkpt>
      <trkpt lat="46.12565" lon="4.63112">
        <ele>291.4</ele>
        <time>2022-06-25T15:22:02Z</time>
      </trkpt>
      <trkpt lat="46.12561" lon="4.6312">
        <ele>291.4</ele>
        <time>2022-06-25T15:22:03Z</time>
      </trkpt>
      <trkpt lat="46.12557" lon="4.63128">
        <ele>291.4</ele>
        <time>2022-06-25T15:22:04Z</time>
      </trkpt>
      <trkpt lat="46.12552" lon="4.63136">
        <ele>291.4</ele>
        <time>2022-06-25T15:22:05Z</time>
      </trkpt>
      <trkpt lat="46.12548" lon="4.63145">
        <ele>291.4</ele>
        <time>2022-06-25T15:22:06Z</time>
      </trkpt>
      <trkpt lat="46.12545" lon="4.63153">
        <ele>291.4</ele>
        <time>2022-06-25T15:22:07Z</time>
      </trkpt>
      <trkpt lat="46.12541" lon="4.63161">
        <ele>291.4</ele>
        <time>2022-06-25T15:22:08Z</time>
      </trkpt>
      <trkpt lat="46.12536" lon="4.63169">
        <ele>291.4</ele>
        <time>2022-06-25T15:22:09Z</time>
      </trkpt>
      <trkpt lat="46.12532" lon="4.63178">
        <ele>291.4</ele>
        <time>2022-06-25T15:22:10Z</time>
      </trkpt>
      <trkpt lat="46.12528" lon="4.63186">
        <ele>291.4</ele>
        <time>2022-06-25T15:22:11Z</time>
      </trkpt>
      <trkpt lat="46.12524" lon="4.63195">
        <ele>291.4</ele>
        <time>2022-06-25T15:22:12Z</time>
      </trkpt>
      <trkpt lat="46.1252" lon="4.63204">
        <ele>291.2</ele>
        <time>2022-06-25T15:22:13Z</time>
      </trkpt>
      <trkpt lat="46.12516" lon="4.63212">
        <ele>291.2</ele>
        <time>2022-06-25T15:22:14Z</time>
      </trkpt>
      <trkpt lat="46.12512" lon="4.6322">
        <ele>290.8</ele>
        <time>2022-06-25T15:22:15Z</time>
      </trkpt>
      <trkpt lat="46.12508" lon="4.63229">
        <ele>290.8</ele>
        <time>2022-06-25T15:22:16Z</time>
      </trkpt>
      <trkpt lat="46.12505" lon="4.63237">
        <ele>290.4</ele>
        <time>2022-06-25T15:22:17Z</time>
      </trkpt>
      <trkpt lat="46.125" lon="4.63245">
        <ele>290.4</ele>
        <time>2022-06-25T15:22:18Z</time>
      </trkpt>
      <trkpt lat="46.12496" lon="4.63253">
        <ele>290.2</ele>
        <time>2022-06-25T15:22:19Z</time>
      </trkpt>
      <trkpt lat="46.12491" lon="4.63262">
        <ele>290</ele>
        <time>2022-06-25T15:22:20Z</time>
      </trkpt>
      <trkpt lat="46.12487" lon="4.63271">
        <ele>290</ele>
        <time>2022-06-25T15:22:21Z</time>
      </trkpt>
      <trkpt lat="46.12482" lon="4.6328">
        <ele>289.6</ele>
        <time>2022-06-25T15:22:22Z</time>
      </trkpt>
      <trkpt lat="46.12478" lon="4.63289">
        <ele>289.4</ele>
        <time>2022-06-25T15:22:23Z</time>
      </trkpt>
      <trkpt lat="46.12473" lon="4.63299">
        <ele>289.4</ele>
        <time>2022-06-25T15:22:24Z</time>
      </trkpt>
      <trkpt lat="46.12468" lon="4.63309">
        <ele>289.2</ele>
        <time>2022-06-25T15:22:25Z</time>
      </trkpt>
      <trkpt lat="46.12464" lon="4.63319">
        <ele>288.8</ele>
        <time>2022-06-25T15:22:26Z</time>
      </trkpt>
      <trkpt lat="46.12459" lon="4.63329">
        <ele>288.8</ele>
        <time>2022-06-25T15:22:27Z</time>
      </trkpt>
      <trkpt lat="46.12453" lon="4.63339">
        <ele>288.6</ele>
        <time>2022-06-25T15:22:28Z</time>
      </trkpt>
      <trkpt lat="46.12448" lon="4.6335">
        <ele>288.2</ele>
        <time>2022-06-25T15:22:29Z</time>
      </trkpt>
      <trkpt lat="46.12443" lon="4.63361">
        <ele>288</ele>
        <time>2022-06-25T15:22:30Z</time>
      </trkpt>
      <trkpt lat="46.12438" lon="4.63373">
        <ele>287.6</ele>
        <time>2022-06-25T15:22:31Z</time>
      </trkpt>
      <trkpt lat="46.12434" lon="4.63384">
        <ele>287.4</ele>
        <time>2022-06-25T15:22:32Z</time>
      </trkpt>
      <trkpt lat="46.12428" lon="4.63394">
        <ele>287.2</ele>
        <time>2022-06-25T15:22:33Z</time>
      </trkpt>
      <trkpt lat="46.12423" lon="4.63405">
        <ele>287</ele>
        <time>2022-06-25T15:22:34Z</time>
      </trkpt>
      <trkpt lat="46.12417" lon="4.63414">
        <ele>287</ele>
        <time>2022-06-25T15:22:35Z</time>
      </trkpt>
      <trkpt lat="46.12412" lon="4.63427">
        <ele>286.6</ele>
        <time>2022-06-25T15:22:36Z</time>
      </trkpt>
      <trkpt lat="46.12407" lon="4.63437">
        <ele>286.4</ele>
        <time>2022-06-25T15:22:37Z</time>
      </trkpt>
      <trkpt lat="46.12401" lon="4.63448">
        <ele>286.4</ele>
        <time>2022-06-25T15:22:38Z</time>
      </trkpt>
      <trkpt lat="46.12396" lon="4.63459">
        <ele>286</ele>
        <time>2022-06-25T15:22:39Z</time>
      </trkpt>
      <trkpt lat="46.12391" lon="4.63471">
        <ele>285.8</ele>
        <time>2022-06-25T15:22:40Z</time>
      </trkpt>
      <trkpt lat="46.12386" lon="4.63481">
        <ele>285.6</ele>
        <time>2022-06-25T15:22:41Z</time>
      </trkpt>
      <trkpt lat="46.12381" lon="4.63492">
        <ele>285.6</ele>
        <time>2022-06-25T15:22:42Z</time>
      </trkpt>
      <trkpt lat="46.12375" lon="4.63504">
        <ele>285</ele>
        <time>2022-06-25T15:22:43Z</time>
      </trkpt>
      <trkpt lat="46.12369" lon="4.63515">
        <ele>284.8</ele>
        <time>2022-06-25T15:22:44Z</time>
      </trkpt>
      <trkpt lat="46.12363" lon="4.63526">
        <ele>284.6</ele>
        <time>2022-06-25T15:22:45Z</time>
      </trkpt>
      <trkpt lat="46.12358" lon="4.63537">
        <ele>284.2</ele>
        <time>2022-06-25T15:22:46Z</time>
      </trkpt>
      <trkpt lat="46.12352" lon="4.63548">
        <ele>284.2</ele>
        <time>2022-06-25T15:22:47Z</time>
      </trkpt>
      <trkpt lat="46.12347" lon="4.63559">
        <ele>283.8</ele>
        <time>2022-06-25T15:22:48Z</time>
      </trkpt>
      <trkpt lat="46.12341" lon="4.6357">
        <ele>283.6</ele>
        <time>2022-06-25T15:22:49Z</time>
      </trkpt>
      <trkpt lat="46.12336" lon="4.6358">
        <ele>283.4</ele>
        <time>2022-06-25T15:22:50Z</time>
      </trkpt>
      <trkpt lat="46.1233" lon="4.63591">
        <ele>283.2</ele>
        <time>2022-06-25T15:22:51Z</time>
      </trkpt>
      <trkpt lat="46.12325" lon="4.63603">
        <ele>283.2</ele>
        <time>2022-06-25T15:22:52Z</time>
      </trkpt>
      <trkpt lat="46.1232" lon="4.63614">
        <ele>282.8</ele>
        <time>2022-06-25T15:22:53Z</time>
      </trkpt>
      <trkpt lat="46.12315" lon="4.63625">
        <ele>282.6</ele>
        <time>2022-06-25T15:22:54Z</time>
      </trkpt>
      <trkpt lat="46.1231" lon="4.63636">
        <ele>282.6</ele>
        <time>2022-06-25T15:22:55Z</time>
      </trkpt>
      <trkpt lat="46.12305" lon="4.63647">
        <ele>282.2</ele>
        <time>2022-06-25T15:22:56Z</time>
      </trkpt>
      <trkpt lat="46.123" lon="4.63658">
        <ele>282</ele>
        <time>2022-06-25T15:22:57Z</time>
      </trkpt>
      <trkpt lat="46.12294" lon="4.63669">
        <ele>282</ele>
        <time>2022-06-25T15:22:58Z</time>
      </trkpt>
      <trkpt lat="46.12289" lon="4.6368">
        <ele>281.6</ele>
        <time>2022-06-25T15:22:59Z</time>
      </trkpt>
      <trkpt lat="46.12284" lon="4.63692">
        <ele>281.2</ele>
        <time>2022-06-25T15:23:00Z</time>
      </trkpt>
      <trkpt lat="46.12279" lon="4.63702">
        <ele>281.2</ele>
        <time>2022-06-25T15:23:01Z</time>
      </trkpt>
      <trkpt lat="46.12273" lon="4.63713">
        <ele>280.8</ele>
        <time>2022-06-25T15:23:02Z</time>
      </trkpt>
      <trkpt lat="46.12268" lon="4.63723">
        <ele>280.8</ele>
        <time>2022-06-25T15:23:03Z</time>
      </trkpt>
      <trkpt lat="46.12263" lon="4.63734">
        <ele>280.4</ele>
        <time>2022-06-25T15:23:04Z</time>
      </trkpt>
      <trkpt lat="46.12257" lon="4.63745">
        <ele>280.4</ele>
        <time>2022-06-25T15:23:05Z</time>
      </trkpt>
      <trkpt lat="46.12252" lon="4.63757">
        <ele>280.2</ele>
        <time>2022-06-25T15:23:06Z</time>
      </trkpt>
      <trkpt lat="46.12247" lon="4.63768">
        <ele>279.8</ele>
        <time>2022-06-25T15:23:07Z</time>
      </trkpt>
      <trkpt lat="46.12242" lon="4.63778">
        <ele>279.6</ele>
        <time>2022-06-25T15:23:08Z</time>
      </trkpt>
      <trkpt lat="46.12237" lon="4.63789">
        <ele>279.6</ele>
        <time>2022-06-25T15:23:09Z</time>
      </trkpt>
      <trkpt lat="46.12231" lon="4.638">
        <ele>279.4</ele>
        <time>2022-06-25T15:23:10Z</time>
      </trkpt>
      <trkpt lat="46.12226" lon="4.6381">
        <ele>279.2</ele>
        <time>2022-06-25T15:23:11Z</time>
      </trkpt>
      <trkpt lat="46.1222" lon="4.63822">
        <ele>278.8</ele>
        <time>2022-06-25T15:23:12Z</time>
      </trkpt>
      <trkpt lat="46.12214" lon="4.63833">
        <ele>278.6</ele>
        <time>2022-06-25T15:23:13Z</time>
      </trkpt>
      <trkpt lat="46.12209" lon="4.63844">
        <ele>278.4</ele>
        <time>2022-06-25T15:23:14Z</time>
      </trkpt>
      <trkpt lat="46.12203" lon="4.63855">
        <ele>278.2</ele>
        <time>2022-06-25T15:23:15Z</time>
      </trkpt>
      <trkpt lat="46.12198" lon="4.63866">
        <ele>278</ele>
        <time>2022-06-25T15:23:16Z</time>
      </trkpt>
      <trkpt lat="46.12192" lon="4.63877">
        <ele>278</ele>
        <time>2022-06-25T15:23:17Z</time>
      </trkpt>
      <trkpt lat="46.12187" lon="4.63888">
        <ele>277.6</ele>
        <time>2022-06-25T15:23:18Z</time>
      </trkpt>
      <trkpt lat="46.12181" lon="4.63899">
        <ele>277.6</ele>
        <time>2022-06-25T15:23:19Z</time>
      </trkpt>
      <trkpt lat="46.12176" lon="4.63911">
        <ele>277.2</ele>
        <time>2022-06-25T15:23:20Z</time>
      </trkpt>
      <trkpt lat="46.12171" lon="4.63922">
        <ele>277</ele>
        <time>2022-06-25T15:23:21Z</time>
      </trkpt>
      <trkpt lat="46.12165" lon="4.63933">
        <ele>277</ele>
        <time>2022-06-25T15:23:22Z</time>
      </trkpt>
      <trkpt lat="46.1216" lon="4.63945">
        <ele>276.6</ele>
        <time>2022-06-25T15:23:23Z</time>
      </trkpt>
      <trkpt lat="46.12155" lon="4.63957">
        <ele>276.4</ele>
        <time>2022-06-25T15:23:24Z</time>
      </trkpt>
      <trkpt lat="46.1215" lon="4.63968">
        <ele>276.2</ele>
        <time>2022-06-25T15:23:25Z</time>
      </trkpt>
      <trkpt lat="46.12144" lon="4.63978">
        <ele>275.8</ele>
        <time>2022-06-25T15:23:26Z</time>
      </trkpt>
      <trkpt lat="46.12139" lon="4.63988">
        <ele>275.6</ele>
        <time>2022-06-25T15:23:27Z</time>
      </trkpt>
      <trkpt lat="46.12134" lon="4.63998">
        <ele>275.4</ele>
        <time>2022-06-25T15:23:28Z</time>
      </trkpt>
      <trkpt lat="46.12129" lon="4.64008">
        <ele>275.2</ele>
        <time>2022-06-25T15:23:29Z</time>
      </trkpt>
      <trkpt lat="46.12124" lon="4.64018">
        <ele>275.2</ele>
        <time>2022-06-25T15:23:30Z</time>
      </trkpt>
      <trkpt lat="46.12119" lon="4.64028">
        <ele>274.8</ele>
        <time>2022-06-25T15:23:31Z</time>
      </trkpt>
      <trkpt lat="46.12114" lon="4.64039">
        <ele>274.6</ele>
        <time>2022-06-25T15:23:32Z</time>
      </trkpt>
      <trkpt lat="46.12109" lon="4.64049">
        <ele>274.6</ele>
        <time>2022-06-25T15:23:33Z</time>
      </trkpt>
      <trkpt lat="46.12104" lon="4.64059">
        <ele>274.2</ele>
        <time>2022-06-25T15:23:34Z</time>
      </trkpt>
      <trkpt lat="46.12099" lon="4.6407">
        <ele>274.2</ele>
        <time>2022-06-25T15:23:35Z</time>
      </trkpt>
      <trkpt lat="46.12093" lon="4.64081">
        <ele>274.2</ele>
        <time>2022-06-25T15:23:36Z</time>
      </trkpt>
      <trkpt lat="46.12088" lon="4.64091">
        <ele>274</ele>
        <time>2022-06-25T15:23:37Z</time>
      </trkpt>
      <trkpt lat="46.12083" lon="4.64102">
        <ele>273.8</ele>
        <time>2022-06-25T15:23:38Z</time>
      </trkpt>
      <trkpt lat="46.12078" lon="4.64112">
        <ele>273.8</ele>
        <time>2022-06-25T15:23:39Z</time>
      </trkpt>
      <trkpt lat="46.12073" lon="4.64122">
        <ele>273.6</ele>
        <time>2022-06-25T15:23:40Z</time>
      </trkpt>
      <trkpt lat="46.12068" lon="4.64132">
        <ele>273.6</ele>
        <time>2022-06-25T15:23:41Z</time>
      </trkpt>
      <trkpt lat="46.12063" lon="4.64143">
        <ele>273.2</ele>
        <time>2022-06-25T15:23:42Z</time>
      </trkpt>
      <trkpt lat="46.12058" lon="4.64153">
        <ele>273.2</ele>
        <time>2022-06-25T15:23:43Z</time>
      </trkpt>
      <trkpt lat="46.12053" lon="4.64163">
        <ele>273</ele>
        <time>2022-06-25T15:23:44Z</time>
      </trkpt>
      <trkpt lat="46.12048" lon="4.64173">
        <ele>273</ele>
        <time>2022-06-25T15:23:45Z</time>
      </trkpt>
      <trkpt lat="46.12043" lon="4.64184">
        <ele>273</ele>
        <time>2022-06-25T15:23:46Z</time>
      </trkpt>
      <trkpt lat="46.12038" lon="4.64194">
        <ele>272.8</ele>
        <time>2022-06-25T15:23:47Z</time>
      </trkpt>
      <trkpt lat="46.12033" lon="4.64204">
        <ele>272.8</ele>
        <time>2022-06-25T15:23:48Z</time>
      </trkpt>
      <trkpt lat="46.12028" lon="4.64214">
        <ele>272.8</ele>
        <time>2022-06-25T15:23:49Z</time>
      </trkpt>
      <trkpt lat="46.12023" lon="4.64225">
        <ele>272.8</ele>
        <time>2022-06-25T15:23:50Z</time>
      </trkpt>
      <trkpt lat="46.12018" lon="4.64234">
        <ele>272.8</ele>
        <time>2022-06-25T15:23:51Z</time>
      </trkpt>
      <trkpt lat="46.12013" lon="4.64244">
        <ele>272.8</ele>
        <time>2022-06-25T15:23:52Z</time>
      </trkpt>
      <trkpt lat="46.12008" lon="4.64254">
        <ele>272.8</ele>
        <time>2022-06-25T15:23:53Z</time>
      </trkpt>
      <trkpt lat="46.12004" lon="4.64264">
        <ele>272.8</ele>
        <time>2022-06-25T15:23:54Z</time>
      </trkpt>
      <trkpt lat="46.11999" lon="4.64274">
        <ele>272.8</ele>
        <time>2022-06-25T15:23:55Z</time>
      </trkpt>
      <trkpt lat="46.11994" lon="4.64283">
        <ele>272.8</ele>
        <time>2022-06-25T15:23:56Z</time>
      </trkpt>
      <trkpt lat="46.1199" lon="4.64292">
        <ele>272.8</ele>
        <time>2022-06-25T15:23:57Z</time>
      </trkpt>
      <trkpt lat="46.11985" lon="4.64302">
        <ele>272.8</ele>
        <time>2022-06-25T15:23:58Z</time>
      </trkpt>
      <trkpt lat="46.11981" lon="4.6431">
        <ele>272.8</ele>
        <time>2022-06-25T15:23:59Z</time>
      </trkpt>
      <trkpt lat="46.11977" lon="4.64319">
        <ele>273</ele>
        <time>2022-06-25T15:24:00Z</time>
      </trkpt>
      <trkpt lat="46.11972" lon="4.64328">
        <ele>273</ele>
        <time>2022-06-25T15:24:01Z</time>
      </trkpt>
      <trkpt lat="46.11968" lon="4.64337">
        <ele>273</ele>
        <time>2022-06-25T15:24:02Z</time>
      </trkpt>
      <trkpt lat="46.11964" lon="4.64345">
        <ele>273</ele>
        <time>2022-06-25T15:24:03Z</time>
      </trkpt>
      <trkpt lat="46.1196" lon="4.64354">
        <ele>273</ele>
        <time>2022-06-25T15:24:04Z</time>
      </trkpt>
      <trkpt lat="46.11954" lon="4.64366">
        <ele>273</ele>
        <time>2022-06-25T15:24:05Z</time>
      </trkpt>
      <trkpt lat="46.11952" lon="4.64371">
        <ele>273</ele>
        <time>2022-06-25T15:24:06Z</time>
      </trkpt>
      <trkpt lat="46.11948" lon="4.64379">
        <ele>273</ele>
        <time>2022-06-25T15:24:07Z</time>
      </trkpt>
      <trkpt lat="46.11944" lon="4.64387">
        <ele>273.2</ele>
        <time>2022-06-25T15:24:08Z</time>
      </trkpt>
      <trkpt lat="46.1194" lon="4.64395">
        <ele>273.2</ele>
        <time>2022-06-25T15:24:09Z</time>
      </trkpt>
      <trkpt lat="46.11936" lon="4.64403">
        <ele>273.2</ele>
        <time>2022-06-25T15:24:10Z</time>
      </trkpt>
      <trkpt lat="46.11932" lon="4.64412">
        <ele>273.2</ele>
        <time>2022-06-25T15:24:11Z</time>
      </trkpt>
      <trkpt lat="46.11928" lon="4.6442">
        <ele>273.2</ele>
        <time>2022-06-25T15:24:12Z</time>
      </trkpt>
      <trkpt lat="46.11924" lon="4.64428">
        <ele>273.2</ele>
        <time>2022-06-25T15:24:13Z</time>
      </trkpt>
      <trkpt lat="46.1192" lon="4.64436">
        <ele>273.2</ele>
        <time>2022-06-25T15:24:14Z</time>
      </trkpt>
      <trkpt lat="46.11916" lon="4.64444">
        <ele>273.2</ele>
        <time>2022-06-25T15:24:15Z</time>
      </trkpt>
      <trkpt lat="46.11912" lon="4.64453">
        <ele>273.2</ele>
        <time>2022-06-25T15:24:16Z</time>
      </trkpt>
      <trkpt lat="46.11908" lon="4.64461">
        <ele>273</ele>
        <time>2022-06-25T15:24:17Z</time>
      </trkpt>
      <trkpt lat="46.11904" lon="4.64469">
        <ele>273</ele>
        <time>2022-06-25T15:24:18Z</time>
      </trkpt>
      <trkpt lat="46.11895" lon="4.64485">
        <ele>273</ele>
        <time>2022-06-25T15:24:19Z</time>
      </trkpt>
      <trkpt lat="46.11891" lon="4.64493">
        <ele>273</ele>
        <time>2022-06-25T15:24:20Z</time>
      </trkpt>
      <trkpt lat="46.11887" lon="4.64501">
        <ele>273</ele>
        <time>2022-06-25T15:24:21Z</time>
      </trkpt>
      <trkpt lat="46.11882" lon="4.64509">
        <ele>273</ele>
        <time>2022-06-25T15:24:22Z</time>
      </trkpt>
      <trkpt lat="46.11878" lon="4.64516">
        <ele>272.8</ele>
        <time>2022-06-25T15:24:23Z</time>
      </trkpt>
      <trkpt lat="46.11873" lon="4.64523">
        <ele>272.8</ele>
        <time>2022-06-25T15:24:24Z</time>
      </trkpt>
      <trkpt lat="46.11869" lon="4.64531">
        <ele>272.8</ele>
        <time>2022-06-25T15:24:25Z</time>
      </trkpt>
      <trkpt lat="46.11865" lon="4.64537">
        <ele>272.8</ele>
        <time>2022-06-25T15:24:26Z</time>
      </trkpt>
      <trkpt lat="46.1186" lon="4.64542">
        <ele>273</ele>
        <time>2022-06-25T15:24:27Z</time>
      </trkpt>
      <trkpt lat="46.11855" lon="4.64544">
        <ele>273</ele>
        <time>2022-06-25T15:24:28Z</time>
      </trkpt>
      <trkpt lat="46.1185" lon="4.64545">
        <ele>273.4</ele>
        <time>2022-06-25T15:24:29Z</time>
      </trkpt>
      <trkpt lat="46.11845" lon="4.64546">
        <ele>273.4</ele>
        <time>2022-06-25T15:24:30Z</time>
      </trkpt>
      <trkpt lat="46.1184" lon="4.64549">
        <ele>273.6</ele>
        <time>2022-06-25T15:24:31Z</time>
      </trkpt>
      <trkpt lat="46.11837" lon="4.64553">
        <ele>273.6</ele>
        <time>2022-06-25T15:24:32Z</time>
      </trkpt>
      <trkpt lat="46.11834" lon="4.64559">
        <ele>273.6</ele>
        <time>2022-06-25T15:24:33Z</time>
      </trkpt>
      <trkpt lat="46.11834" lon="4.64566">
        <ele>273.6</ele>
        <time>2022-06-25T15:24:34Z</time>
      </trkpt>
      <trkpt lat="46.11834" lon="4.64573">
        <ele>273.6</ele>
        <time>2022-06-25T15:24:35Z</time>
      </trkpt>
      <trkpt lat="46.11836" lon="4.64581">
        <ele>273.6</ele>
        <time>2022-06-25T15:24:36Z</time>
      </trkpt>
      <trkpt lat="46.11839" lon="4.64588">
        <ele>273.6</ele>
        <time>2022-06-25T15:24:37Z</time>
      </trkpt>
      <trkpt lat="46.11841" lon="4.64596">
        <ele>273.2</ele>
        <time>2022-06-25T15:24:38Z</time>
      </trkpt>
      <trkpt lat="46.11842" lon="4.64605">
        <ele>273.2</ele>
        <time>2022-06-25T15:24:39Z</time>
      </trkpt>
      <trkpt lat="46.11842" lon="4.64614">
        <ele>273</ele>
        <time>2022-06-25T15:24:40Z</time>
      </trkpt>
      <trkpt lat="46.11842" lon="4.64624">
        <ele>273</ele>
        <time>2022-06-25T15:24:41Z</time>
      </trkpt>
      <trkpt lat="46.11842" lon="4.64633">
        <ele>273</ele>
        <time>2022-06-25T15:24:42Z</time>
      </trkpt>
      <trkpt lat="46.11842" lon="4.64642">
        <ele>273</ele>
        <time>2022-06-25T15:24:43Z</time>
      </trkpt>
      <trkpt lat="46.11842" lon="4.64652">
        <ele>273</ele>
        <time>2022-06-25T15:24:44Z</time>
      </trkpt>
      <trkpt lat="46.11842" lon="4.64661">
        <ele>273</ele>
        <time>2022-06-25T15:24:45Z</time>
      </trkpt>
      <trkpt lat="46.11842" lon="4.64671">
        <ele>273</ele>
        <time>2022-06-25T15:24:46Z</time>
      </trkpt>
      <trkpt lat="46.11842" lon="4.6468">
        <ele>272.8</ele>
        <time>2022-06-25T15:24:47Z</time>
      </trkpt>
      <trkpt lat="46.11843" lon="4.6469">
        <ele>272.8</ele>
        <time>2022-06-25T15:24:48Z</time>
      </trkpt>
      <trkpt lat="46.11844" lon="4.647">
        <ele>272.8</ele>
        <time>2022-06-25T15:24:49Z</time>
      </trkpt>
      <trkpt lat="46.11844" lon="4.6471">
        <ele>272.8</ele>
        <time>2022-06-25T15:24:50Z</time>
      </trkpt>
      <trkpt lat="46.11844" lon="4.64721">
        <ele>272.8</ele>
        <time>2022-06-25T15:24:51Z</time>
      </trkpt>
      <trkpt lat="46.11845" lon="4.64731">
        <ele>272.6</ele>
        <time>2022-06-25T15:24:52Z</time>
      </trkpt>
      <trkpt lat="46.11846" lon="4.64742">
        <ele>272.4</ele>
        <time>2022-06-25T15:24:53Z</time>
      </trkpt>
      <trkpt lat="46.11846" lon="4.64753">
        <ele>272.4</ele>
        <time>2022-06-25T15:24:54Z</time>
      </trkpt>
      <trkpt lat="46.11847" lon="4.64765">
        <ele>272</ele>
        <time>2022-06-25T15:24:55Z</time>
      </trkpt>
      <trkpt lat="46.11848" lon="4.64777">
        <ele>271.6</ele>
        <time>2022-06-25T15:24:56Z</time>
      </trkpt>
      <trkpt lat="46.11848" lon="4.64789">
        <ele>271.6</ele>
        <time>2022-06-25T15:24:57Z</time>
      </trkpt>
      <trkpt lat="46.11849" lon="4.64801">
        <ele>271.4</ele>
        <time>2022-06-25T15:24:58Z</time>
      </trkpt>
      <trkpt lat="46.11849" lon="4.64813">
        <ele>271.4</ele>
        <time>2022-06-25T15:24:59Z</time>
      </trkpt>
      <trkpt lat="46.1185" lon="4.64826">
        <ele>271.2</ele>
        <time>2022-06-25T15:25:00Z</time>
      </trkpt>
      <trkpt lat="46.1185" lon="4.64839">
        <ele>271.2</ele>
        <time>2022-06-25T15:25:01Z</time>
      </trkpt>
      <trkpt lat="46.11851" lon="4.64852">
        <ele>271.2</ele>
        <time>2022-06-25T15:25:02Z</time>
      </trkpt>
      <trkpt lat="46.11852" lon="4.64865">
        <ele>270.6</ele>
        <time>2022-06-25T15:25:03Z</time>
      </trkpt>
      <trkpt lat="46.11853" lon="4.64879">
        <ele>270.4</ele>
        <time>2022-06-25T15:25:04Z</time>
      </trkpt>
      <trkpt lat="46.11854" lon="4.64893">
        <ele>270.2</ele>
        <time>2022-06-25T15:25:05Z</time>
      </trkpt>
      <trkpt lat="46.11855" lon="4.64907">
        <ele>270.2</ele>
        <time>2022-06-25T15:25:06Z</time>
      </trkpt>
      <trkpt lat="46.11855" lon="4.6492">
        <ele>269.8</ele>
        <time>2022-06-25T15:25:07Z</time>
      </trkpt>
      <trkpt lat="46.11855" lon="4.64933">
        <ele>269.8</ele>
        <time>2022-06-25T15:25:08Z</time>
      </trkpt>
      <trkpt lat="46.11856" lon="4.64945">
        <ele>269.4</ele>
        <time>2022-06-25T15:25:09Z</time>
      </trkpt>
      <trkpt lat="46.11857" lon="4.64959">
        <ele>269.4</ele>
        <time>2022-06-25T15:25:10Z</time>
      </trkpt>
      <trkpt lat="46.11858" lon="4.64972">
        <ele>269.4</ele>
        <time>2022-06-25T15:25:11Z</time>
      </trkpt>
      <trkpt lat="46.11858" lon="4.64985">
        <ele>269.2</ele>
        <time>2022-06-25T15:25:12Z</time>
      </trkpt>
      <trkpt lat="46.11859" lon="4.64997">
        <ele>269.2</ele>
        <time>2022-06-25T15:25:13Z</time>
      </trkpt>
      <trkpt lat="46.11859" lon="4.65009">
        <ele>268.8</ele>
        <time>2022-06-25T15:25:14Z</time>
      </trkpt>
      <trkpt lat="46.1186" lon="4.65022">
        <ele>268.8</ele>
        <time>2022-06-25T15:25:15Z</time>
      </trkpt>
      <trkpt lat="46.1186" lon="4.65034">
        <ele>268.4</ele>
        <time>2022-06-25T15:25:16Z</time>
      </trkpt>
      <trkpt lat="46.1186" lon="4.65047">
        <ele>268.4</ele>
        <time>2022-06-25T15:25:17Z</time>
      </trkpt>
      <trkpt lat="46.11861" lon="4.65059">
        <ele>268.4</ele>
        <time>2022-06-25T15:25:18Z</time>
      </trkpt>
      <trkpt lat="46.11861" lon="4.65071">
        <ele>268.4</ele>
        <time>2022-06-25T15:25:19Z</time>
      </trkpt>
      <trkpt lat="46.11862" lon="4.65083">
        <ele>268.2</ele>
        <time>2022-06-25T15:25:20Z</time>
      </trkpt>
      <trkpt lat="46.11862" lon="4.65095">
        <ele>268.2</ele>
        <time>2022-06-25T15:25:21Z</time>
      </trkpt>
      <trkpt lat="46.11863" lon="4.65106">
        <ele>268.2</ele>
        <time>2022-06-25T15:25:22Z</time>
      </trkpt>
      <trkpt lat="46.11864" lon="4.65117">
        <ele>268</ele>
        <time>2022-06-25T15:25:23Z</time>
      </trkpt>
      <trkpt lat="46.11865" lon="4.65128">
        <ele>268</ele>
        <time>2022-06-25T15:25:24Z</time>
      </trkpt>
      <trkpt lat="46.11866" lon="4.65137">
        <ele>267.6</ele>
        <time>2022-06-25T15:25:25Z</time>
      </trkpt>
      <trkpt lat="46.11866" lon="4.65145">
        <ele>267.6</ele>
        <time>2022-06-25T15:25:26Z</time>
      </trkpt>
      <trkpt lat="46.11864" lon="4.65151">
        <ele>267.6</ele>
        <time>2022-06-25T15:25:27Z</time>
      </trkpt>
      <trkpt lat="46.11861" lon="4.65155">
        <ele>267.4</ele>
        <time>2022-06-25T15:25:28Z</time>
      </trkpt>
      <trkpt lat="46.11857" lon="4.65156">
        <ele>267.4</ele>
        <time>2022-06-25T15:25:29Z</time>
      </trkpt>
      <trkpt lat="46.11853" lon="4.65156">
        <ele>267.4</ele>
        <time>2022-06-25T15:25:30Z</time>
      </trkpt>
      <trkpt lat="46.1185" lon="4.65154">
        <ele>267.4</ele>
        <time>2022-06-25T15:25:31Z</time>
      </trkpt>
      <trkpt lat="46.11847" lon="4.65151">
        <ele>267.4</ele>
        <time>2022-06-25T15:25:32Z</time>
      </trkpt>
      <trkpt lat="46.11843" lon="4.6515">
        <ele>267.4</ele>
        <time>2022-06-25T15:25:33Z</time>
      </trkpt>
      <trkpt lat="46.1184" lon="4.65148">
        <ele>267.6</ele>
        <time>2022-06-25T15:25:34Z</time>
      </trkpt>
      <trkpt lat="46.11837" lon="4.65147">
        <ele>267.6</ele>
        <time>2022-06-25T15:25:35Z</time>
      </trkpt>
      <trkpt lat="46.11833" lon="4.65145">
        <ele>267.6</ele>
        <time>2022-06-25T15:25:36Z</time>
      </trkpt>
      <trkpt lat="46.1183" lon="4.65144">
        <ele>268</ele>
        <time>2022-06-25T15:25:37Z</time>
      </trkpt>
      <trkpt lat="46.11827" lon="4.65143">
        <ele>268</ele>
        <time>2022-06-25T15:25:38Z</time>
      </trkpt>
      <trkpt lat="46.11824" lon="4.65141">
        <ele>268.2</ele>
        <time>2022-06-25T15:25:39Z</time>
      </trkpt>
      <trkpt lat="46.11821" lon="4.65139">
        <ele>268.2</ele>
        <time>2022-06-25T15:25:40Z</time>
      </trkpt>
      <trkpt lat="46.11817" lon="4.65138">
        <ele>268.6</ele>
        <time>2022-06-25T15:25:41Z</time>
      </trkpt>
      <trkpt lat="46.11814" lon="4.65137">
        <ele>268.6</ele>
        <time>2022-06-25T15:25:42Z</time>
      </trkpt>
      <trkpt lat="46.11811" lon="4.65136">
        <ele>269</ele>
        <time>2022-06-25T15:25:43Z</time>
      </trkpt>
      <trkpt lat="46.11807" lon="4.65135">
        <ele>269</ele>
        <time>2022-06-25T15:25:44Z</time>
      </trkpt>
      <trkpt lat="46.11804" lon="4.65133">
        <ele>269.2</ele>
        <time>2022-06-25T15:25:45Z</time>
      </trkpt>
      <trkpt lat="46.11801" lon="4.65132">
        <ele>269.2</ele>
        <time>2022-06-25T15:25:46Z</time>
      </trkpt>
      <trkpt lat="46.11797" lon="4.65131">
        <ele>269.6</ele>
        <time>2022-06-25T15:25:47Z</time>
      </trkpt>
      <trkpt lat="46.11794" lon="4.65131">
        <ele>269.8</ele>
        <time>2022-06-25T15:25:48Z</time>
      </trkpt>
      <trkpt lat="46.11791" lon="4.6513">
        <ele>269.8</ele>
        <time>2022-06-25T15:25:49Z</time>
      </trkpt>
      <trkpt lat="46.11788" lon="4.65129">
        <ele>270.2</ele>
        <time>2022-06-25T15:25:50Z</time>
      </trkpt>
      <trkpt lat="46.11784" lon="4.65129">
        <ele>270.4</ele>
        <time>2022-06-25T15:25:51Z</time>
      </trkpt>
      <trkpt lat="46.11781" lon="4.65128">
        <ele>270.6</ele>
        <time>2022-06-25T15:25:52Z</time>
      </trkpt>
      <trkpt lat="46.11779" lon="4.65128">
        <ele>270.6</ele>
        <time>2022-06-25T15:25:53Z</time>
      </trkpt>
      <trkpt lat="46.11776" lon="4.65128">
        <ele>271</ele>
        <time>2022-06-25T15:25:54Z</time>
      </trkpt>
      <trkpt lat="46.11773" lon="4.65127">
        <ele>271.2</ele>
        <time>2022-06-25T15:25:55Z</time>
      </trkpt>
      <trkpt lat="46.1177" lon="4.65127">
        <ele>271.4</ele>
        <time>2022-06-25T15:25:56Z</time>
      </trkpt>
      <trkpt lat="46.11767" lon="4.65127">
        <ele>271.8</ele>
        <time>2022-06-25T15:25:57Z</time>
      </trkpt>
      <trkpt lat="46.11764" lon="4.65128">
        <ele>272</ele>
        <time>2022-06-25T15:25:58Z</time>
      </trkpt>
      <trkpt lat="46.11761" lon="4.65129">
        <ele>272.4</ele>
        <time>2022-06-25T15:25:59Z</time>
      </trkpt>
      <trkpt lat="46.11759" lon="4.6513">
        <ele>272.6</ele>
        <time>2022-06-25T15:26:00Z</time>
      </trkpt>
      <trkpt lat="46.11756" lon="4.65132">
        <ele>273</ele>
        <time>2022-06-25T15:26:01Z</time>
      </trkpt>
      <trkpt lat="46.11753" lon="4.65133">
        <ele>273</ele>
        <time>2022-06-25T15:26:02Z</time>
      </trkpt>
      <trkpt lat="46.11751" lon="4.65135">
        <ele>273.4</ele>
        <time>2022-06-25T15:26:03Z</time>
      </trkpt>
      <trkpt lat="46.11749" lon="4.65136">
        <ele>273.6</ele>
        <time>2022-06-25T15:26:04Z</time>
      </trkpt>
      <trkpt lat="46.11746" lon="4.65138">
        <ele>274</ele>
        <time>2022-06-25T15:26:05Z</time>
      </trkpt>
      <trkpt lat="46.11745" lon="4.65141">
        <ele>274.4</ele>
        <time>2022-06-25T15:26:06Z</time>
      </trkpt>
      <trkpt lat="46.11743" lon="4.65143">
        <ele>274.8</ele>
        <time>2022-06-25T15:26:07Z</time>
      </trkpt>
      <trkpt lat="46.11741" lon="4.65146">
        <ele>275.2</ele>
        <time>2022-06-25T15:26:08Z</time>
      </trkpt>
      <trkpt lat="46.1174" lon="4.65149">
        <ele>275.4</ele>
        <time>2022-06-25T15:26:09Z</time>
      </trkpt>
      <trkpt lat="46.11738" lon="4.65152">
        <ele>275.8</ele>
        <time>2022-06-25T15:26:10Z</time>
      </trkpt>
      <trkpt lat="46.11736" lon="4.65154">
        <ele>276.2</ele>
        <time>2022-06-25T15:26:11Z</time>
      </trkpt>
      <trkpt lat="46.11734" lon="4.65157">
        <ele>276.4</ele>
        <time>2022-06-25T15:26:12Z</time>
      </trkpt>
      <trkpt lat="46.11732" lon="4.65159">
        <ele>276.6</ele>
        <time>2022-06-25T15:26:13Z</time>
      </trkpt>
      <trkpt lat="46.11731" lon="4.65163">
        <ele>277</ele>
        <time>2022-06-25T15:26:14Z</time>
      </trkpt>
      <trkpt lat="46.11729" lon="4.65166">
        <ele>277.2</ele>
        <time>2022-06-25T15:26:15Z</time>
      </trkpt>
      <trkpt lat="46.11728" lon="4.65169">
        <ele>277.4</ele>
        <time>2022-06-25T15:26:16Z</time>
      </trkpt>
      <trkpt lat="46.11726" lon="4.65172">
        <ele>277.6</ele>
        <time>2022-06-25T15:26:17Z</time>
      </trkpt>
      <trkpt lat="46.11724" lon="4.65175">
        <ele>278</ele>
        <time>2022-06-25T15:26:18Z</time>
      </trkpt>
      <trkpt lat="46.11723" lon="4.65177">
        <ele>278.2</ele>
        <time>2022-06-25T15:26:19Z</time>
      </trkpt>
      <trkpt lat="46.11721" lon="4.6518">
        <ele>278.4</ele>
        <time>2022-06-25T15:26:20Z</time>
      </trkpt>
      <trkpt lat="46.1172" lon="4.65183">
        <ele>278.8</ele>
        <time>2022-06-25T15:26:21Z</time>
      </trkpt>
      <trkpt lat="46.11718" lon="4.65185">
        <ele>279</ele>
        <time>2022-06-25T15:26:22Z</time>
      </trkpt>
      <trkpt lat="46.11717" lon="4.65187">
        <ele>279.2</ele>
        <time>2022-06-25T15:26:23Z</time>
      </trkpt>
      <trkpt lat="46.11716" lon="4.65189">
        <ele>279.6</ele>
        <time>2022-06-25T15:26:24Z</time>
      </trkpt>
      <trkpt lat="46.11715" lon="4.65192">
        <ele>279.8</ele>
        <time>2022-06-25T15:26:25Z</time>
      </trkpt>
      <trkpt lat="46.11713" lon="4.65194">
        <ele>280</ele>
        <time>2022-06-25T15:26:26Z</time>
      </trkpt>
      <trkpt lat="46.11712" lon="4.65197">
        <ele>280.2</ele>
        <time>2022-06-25T15:26:27Z</time>
      </trkpt>
      <trkpt lat="46.11711" lon="4.65199">
        <ele>280.6</ele>
        <time>2022-06-25T15:26:28Z</time>
      </trkpt>
      <trkpt lat="46.11711" lon="4.65203">
        <ele>280.8</ele>
        <time>2022-06-25T15:26:29Z</time>
      </trkpt>
      <trkpt lat="46.1171" lon="4.65206">
        <ele>281</ele>
        <time>2022-06-25T15:26:30Z</time>
      </trkpt>
      <trkpt lat="46.1171" lon="4.65209">
        <ele>281.2</ele>
        <time>2022-06-25T15:26:31Z</time>
      </trkpt>
      <trkpt lat="46.11711" lon="4.65213">
        <ele>281.2</ele>
        <time>2022-06-25T15:26:32Z</time>
      </trkpt>
      <trkpt lat="46.11711" lon="4.65216">
        <ele>281.6</ele>
        <time>2022-06-25T15:26:33Z</time>
      </trkpt>
      <trkpt lat="46.11712" lon="4.6522">
        <ele>281.6</ele>
        <time>2022-06-25T15:26:34Z</time>
      </trkpt>
      <trkpt lat="46.11714" lon="4.65224">
        <ele>282</ele>
        <time>2022-06-25T15:26:35Z</time>
      </trkpt>
      <trkpt lat="46.11715" lon="4.65227">
        <ele>282</ele>
        <time>2022-06-25T15:26:36Z</time>
      </trkpt>
      <trkpt lat="46.11716" lon="4.65231">
        <ele>282.4</ele>
        <time>2022-06-25T15:26:37Z</time>
      </trkpt>
      <trkpt lat="46.11717" lon="4.65235">
        <ele>282.4</ele>
        <time>2022-06-25T15:26:38Z</time>
      </trkpt>
      <trkpt lat="46.11718" lon="4.65238">
        <ele>282.6</ele>
        <time>2022-06-25T15:26:39Z</time>
      </trkpt>
      <trkpt lat="46.11718" lon="4.65242">
        <ele>282.8</ele>
        <time>2022-06-25T15:26:40Z</time>
      </trkpt>
      <trkpt lat="46.11719" lon="4.65246">
        <ele>282.8</ele>
        <time>2022-06-25T15:26:41Z</time>
      </trkpt>
      <trkpt lat="46.1172" lon="4.65249">
        <ele>283.2</ele>
        <time>2022-06-25T15:26:42Z</time>
      </trkpt>
      <trkpt lat="46.1172" lon="4.65252">
        <ele>283.6</ele>
        <time>2022-06-25T15:26:43Z</time>
      </trkpt>
      <trkpt lat="46.11721" lon="4.65256">
        <ele>283.8</ele>
        <time>2022-06-25T15:26:44Z</time>
      </trkpt>
      <trkpt lat="46.11721" lon="4.65259">
        <ele>284.2</ele>
        <time>2022-06-25T15:26:45Z</time>
      </trkpt>
      <trkpt lat="46.11721" lon="4.65263">
        <ele>284.6</ele>
        <time>2022-06-25T15:26:46Z</time>
      </trkpt>
      <trkpt lat="46.11722" lon="4.65266">
        <ele>285</ele>
        <time>2022-06-25T15:26:47Z</time>
      </trkpt>
      <trkpt lat="46.11722" lon="4.65269">
        <ele>285.2</ele>
        <time>2022-06-25T15:26:48Z</time>
      </trkpt>
      <trkpt lat="46.11722" lon="4.65272">
        <ele>285.6</ele>
        <time>2022-06-25T15:26:49Z</time>
      </trkpt>
      <trkpt lat="46.11721" lon="4.65276">
        <ele>285.8</ele>
        <time>2022-06-25T15:26:50Z</time>
      </trkpt>
      <trkpt lat="46.1172" lon="4.65279">
        <ele>286.2</ele>
        <time>2022-06-25T15:26:51Z</time>
      </trkpt>
      <trkpt lat="46.11719" lon="4.65281">
        <ele>286.4</ele>
        <time>2022-06-25T15:26:52Z</time>
      </trkpt>
      <trkpt lat="46.11717" lon="4.65283">
        <ele>286.8</ele>
        <time>2022-06-25T15:26:53Z</time>
      </trkpt>
      <trkpt lat="46.11716" lon="4.65286">
        <ele>287</ele>
        <time>2022-06-25T15:26:54Z</time>
      </trkpt>
      <trkpt lat="46.11715" lon="4.65288">
        <ele>287.4</ele>
        <time>2022-06-25T15:26:55Z</time>
      </trkpt>
      <trkpt lat="46.11713" lon="4.65289">
        <ele>287.6</ele>
        <time>2022-06-25T15:26:56Z</time>
      </trkpt>
      <trkpt lat="46.11712" lon="4.65291">
        <ele>288</ele>
        <time>2022-06-25T15:26:57Z</time>
      </trkpt>
      <trkpt lat="46.1171" lon="4.65292">
        <ele>288.4</ele>
        <time>2022-06-25T15:26:58Z</time>
      </trkpt>
      <trkpt lat="46.11709" lon="4.65295">
        <ele>288.8</ele>
        <time>2022-06-25T15:26:59Z</time>
      </trkpt>
      <trkpt lat="46.11708" lon="4.65298">
        <ele>289</ele>
        <time>2022-06-25T15:27:00Z</time>
      </trkpt>
      <trkpt lat="46.11707" lon="4.653">
        <ele>289.4</ele>
        <time>2022-06-25T15:27:01Z</time>
      </trkpt>
      <trkpt lat="46.11706" lon="4.65302">
        <ele>289.6</ele>
        <time>2022-06-25T15:27:02Z</time>
      </trkpt>
      <trkpt lat="46.11704" lon="4.65304">
        <ele>289.8</ele>
        <time>2022-06-25T15:27:03Z</time>
      </trkpt>
      <trkpt lat="46.11702" lon="4.65306">
        <ele>290.2</ele>
        <time>2022-06-25T15:27:04Z</time>
      </trkpt>
      <trkpt lat="46.11701" lon="4.65308">
        <ele>290.2</ele>
        <time>2022-06-25T15:27:05Z</time>
      </trkpt>
      <trkpt lat="46.11698" lon="4.6531">
        <ele>290.4</ele>
        <time>2022-06-25T15:27:06Z</time>
      </trkpt>
      <trkpt lat="46.11696" lon="4.65312">
        <ele>290.4</ele>
        <time>2022-06-25T15:27:07Z</time>
      </trkpt>
      <trkpt lat="46.11693" lon="4.65313">
        <ele>290.8</ele>
        <time>2022-06-25T15:27:08Z</time>
      </trkpt>
      <trkpt lat="46.1169" lon="4.65314">
        <ele>290.8</ele>
        <time>2022-06-25T15:27:09Z</time>
      </trkpt>
      <trkpt lat="46.11687" lon="4.65314">
        <ele>291</ele>
        <time>2022-06-25T15:27:10Z</time>
      </trkpt>
      <trkpt lat="46.11685" lon="4.65315">
        <ele>291</ele>
        <time>2022-06-25T15:27:11Z</time>
      </trkpt>
      <trkpt lat="46.11683" lon="4.65315">
        <ele>291</ele>
        <time>2022-06-25T15:27:12Z</time>
      </trkpt>
      <trkpt lat="46.1168" lon="4.65316">
        <ele>291.4</ele>
        <time>2022-06-25T15:27:13Z</time>
      </trkpt>
      <trkpt lat="46.11678" lon="4.65317">
        <ele>291.4</ele>
        <time>2022-06-25T15:27:14Z</time>
      </trkpt>
      <trkpt lat="46.11676" lon="4.65318">
        <ele>291.8</ele>
        <time>2022-06-25T15:27:15Z</time>
      </trkpt>
      <trkpt lat="46.11674" lon="4.6532">
        <ele>291.8</ele>
        <time>2022-06-25T15:27:16Z</time>
      </trkpt>
      <trkpt lat="46.11672" lon="4.6532">
        <ele>292</ele>
        <time>2022-06-25T15:27:17Z</time>
      </trkpt>
      <trkpt lat="46.1167" lon="4.6532">
        <ele>292</ele>
        <time>2022-06-25T15:27:18Z</time>
      </trkpt>
      <trkpt lat="46.11668" lon="4.65321">
        <ele>292.4</ele>
        <time>2022-06-25T15:27:19Z</time>
      </trkpt>
      <trkpt lat="46.11666" lon="4.65321">
        <ele>292.8</ele>
        <time>2022-06-25T15:27:20Z</time>
      </trkpt>
      <trkpt lat="46.11664" lon="4.65321">
        <ele>293</ele>
        <time>2022-06-25T15:27:21Z</time>
      </trkpt>
      <trkpt lat="46.11662" lon="4.65322">
        <ele>293.4</ele>
        <time>2022-06-25T15:27:22Z</time>
      </trkpt>
      <trkpt lat="46.11661" lon="4.65323">
        <ele>293.6</ele>
        <time>2022-06-25T15:27:23Z</time>
      </trkpt>
      <trkpt lat="46.11659" lon="4.65323">
        <ele>293.8</ele>
        <time>2022-06-25T15:27:24Z</time>
      </trkpt>
      <trkpt lat="46.11657" lon="4.65324">
        <ele>294.2</ele>
        <time>2022-06-25T15:27:25Z</time>
      </trkpt>
      <trkpt lat="46.11655" lon="4.65325">
        <ele>294.4</ele>
        <time>2022-06-25T15:27:26Z</time>
      </trkpt>
      <trkpt lat="46.11653" lon="4.65325">
        <ele>294.4</ele>
        <time>2022-06-25T15:27:27Z</time>
      </trkpt>
      <trkpt lat="46.11651" lon="4.65326">
        <ele>294.8</ele>
        <time>2022-06-25T15:27:28Z</time>
      </trkpt>
      <trkpt lat="46.11649" lon="4.65326">
        <ele>295</ele>
        <time>2022-06-25T15:27:29Z</time>
      </trkpt>
      <trkpt lat="46.11648" lon="4.65326">
        <ele>295.2</ele>
        <time>2022-06-25T15:27:30Z</time>
      </trkpt>
      <trkpt lat="46.11646" lon="4.65327">
        <ele>295.4</ele>
        <time>2022-06-25T15:27:31Z</time>
      </trkpt>
      <trkpt lat="46.11644" lon="4.65328">
        <ele>295.4</ele>
        <time>2022-06-25T15:27:32Z</time>
      </trkpt>
      <trkpt lat="46.11642" lon="4.65328">
        <ele>295.8</ele>
        <time>2022-06-25T15:27:33Z</time>
      </trkpt>
      <trkpt lat="46.1164" lon="4.65329">
        <ele>296</ele>
        <time>2022-06-25T15:27:34Z</time>
      </trkpt>
      <trkpt lat="46.11638" lon="4.65329">
        <ele>296.2</ele>
        <time>2022-06-25T15:27:35Z</time>
      </trkpt>
      <trkpt lat="46.11637" lon="4.65329">
        <ele>296.4</ele>
        <time>2022-06-25T15:27:36Z</time>
      </trkpt>
      <trkpt lat="46.11635" lon="4.6533">
        <ele>296.6</ele>
        <time>2022-06-25T15:27:37Z</time>
      </trkpt>
      <trkpt lat="46.11633" lon="4.6533">
        <ele>296.6</ele>
        <time>2022-06-25T15:27:38Z</time>
      </trkpt>
      <trkpt lat="46.11631" lon="4.6533">
        <ele>297.2</ele>
        <time>2022-06-25T15:27:39Z</time>
      </trkpt>
      <trkpt lat="46.1163" lon="4.65329">
        <ele>297.4</ele>
        <time>2022-06-25T15:27:40Z</time>
      </trkpt>
      <trkpt lat="46.11628" lon="4.6533">
        <ele>297.4</ele>
        <time>2022-06-25T15:27:41Z</time>
      </trkpt>
      <trkpt lat="46.11626" lon="4.6533">
        <ele>297.8</ele>
        <time>2022-06-25T15:27:42Z</time>
      </trkpt>
      <trkpt lat="46.11624" lon="4.6533">
        <ele>298</ele>
        <time>2022-06-25T15:27:43Z</time>
      </trkpt>
      <trkpt lat="46.11622" lon="4.65331">
        <ele>298.2</ele>
        <time>2022-06-25T15:27:44Z</time>
      </trkpt>
      <trkpt lat="46.11621" lon="4.65332">
        <ele>298.2</ele>
        <time>2022-06-25T15:27:45Z</time>
      </trkpt>
      <trkpt lat="46.11619" lon="4.65332">
        <ele>298.6</ele>
        <time>2022-06-25T15:27:46Z</time>
      </trkpt>
      <trkpt lat="46.11617" lon="4.65332">
        <ele>298.6</ele>
        <time>2022-06-25T15:27:47Z</time>
      </trkpt>
      <trkpt lat="46.11616" lon="4.65332">
        <ele>299</ele>
        <time>2022-06-25T15:27:48Z</time>
      </trkpt>
      <trkpt lat="46.11614" lon="4.65332">
        <ele>299.2</ele>
        <time>2022-06-25T15:27:49Z</time>
      </trkpt>
      <trkpt lat="46.11612" lon="4.65332">
        <ele>299.4</ele>
        <time>2022-06-25T15:27:50Z</time>
      </trkpt>
      <trkpt lat="46.1161" lon="4.65332">
        <ele>299.6</ele>
        <time>2022-06-25T15:27:51Z</time>
      </trkpt>
      <trkpt lat="46.11609" lon="4.65332">
        <ele>299.8</ele>
        <time>2022-06-25T15:27:52Z</time>
      </trkpt>
      <trkpt lat="46.11607" lon="4.65332">
        <ele>299.8</ele>
        <time>2022-06-25T15:27:53Z</time>
      </trkpt>
      <trkpt lat="46.11606" lon="4.65332">
        <ele>300.2</ele>
        <time>2022-06-25T15:27:54Z</time>
      </trkpt>
      <trkpt lat="46.11604" lon="4.65332">
        <ele>300.4</ele>
        <time>2022-06-25T15:27:55Z</time>
      </trkpt>
      <trkpt lat="46.11602" lon="4.65332">
        <ele>300.4</ele>
        <time>2022-06-25T15:27:56Z</time>
      </trkpt>
      <trkpt lat="46.11601" lon="4.65332">
        <ele>300.8</ele>
        <time>2022-06-25T15:27:57Z</time>
      </trkpt>
      <trkpt lat="46.11599" lon="4.65332">
        <ele>301</ele>
        <time>2022-06-25T15:27:58Z</time>
      </trkpt>
      <trkpt lat="46.11597" lon="4.65332">
        <ele>301.4</ele>
        <time>2022-06-25T15:27:59Z</time>
      </trkpt>
      <trkpt lat="46.11595" lon="4.65333">
        <ele>301.6</ele>
        <time>2022-06-25T15:28:00Z</time>
      </trkpt>
      <trkpt lat="46.11593" lon="4.65333">
        <ele>301.8</ele>
        <time>2022-06-25T15:28:01Z</time>
      </trkpt>
      <trkpt lat="46.11592" lon="4.65334">
        <ele>302</ele>
        <time>2022-06-25T15:28:02Z</time>
      </trkpt>
      <trkpt lat="46.1159" lon="4.65334">
        <ele>302.2</ele>
        <time>2022-06-25T15:28:03Z</time>
      </trkpt>
      <trkpt lat="46.11588" lon="4.65335">
        <ele>302.6</ele>
        <time>2022-06-25T15:28:04Z</time>
      </trkpt>
      <trkpt lat="46.11587" lon="4.65336">
        <ele>302.8</ele>
        <time>2022-06-25T15:28:05Z</time>
      </trkpt>
      <trkpt lat="46.11585" lon="4.65337">
        <ele>303</ele>
        <time>2022-06-25T15:28:06Z</time>
      </trkpt>
      <trkpt lat="46.11583" lon="4.65337">
        <ele>303.2</ele>
        <time>2022-06-25T15:28:07Z</time>
      </trkpt>
      <trkpt lat="46.11581" lon="4.65338">
        <ele>303.6</ele>
        <time>2022-06-25T15:28:08Z</time>
      </trkpt>
      <trkpt lat="46.1158" lon="4.65339">
        <ele>303.8</ele>
        <time>2022-06-25T15:28:09Z</time>
      </trkpt>
      <trkpt lat="46.11578" lon="4.6534">
        <ele>304</ele>
        <time>2022-06-25T15:28:10Z</time>
      </trkpt>
      <trkpt lat="46.11577" lon="4.65342">
        <ele>304.2</ele>
        <time>2022-06-25T15:28:11Z</time>
      </trkpt>
      <trkpt lat="46.11575" lon="4.65343">
        <ele>304.6</ele>
        <time>2022-06-25T15:28:12Z</time>
      </trkpt>
      <trkpt lat="46.11574" lon="4.65344">
        <ele>304.8</ele>
        <time>2022-06-25T15:28:13Z</time>
      </trkpt>
      <trkpt lat="46.11573" lon="4.65345">
        <ele>305</ele>
        <time>2022-06-25T15:28:14Z</time>
      </trkpt>
      <trkpt lat="46.11571" lon="4.65346">
        <ele>305.4</ele>
        <time>2022-06-25T15:28:15Z</time>
      </trkpt>
      <trkpt lat="46.1157" lon="4.65348">
        <ele>305.6</ele>
        <time>2022-06-25T15:28:16Z</time>
      </trkpt>
      <trkpt lat="46.11569" lon="4.65349">
        <ele>305.8</ele>
        <time>2022-06-25T15:28:17Z</time>
      </trkpt>
      <trkpt lat="46.11568" lon="4.65351">
        <ele>306.2</ele>
        <time>2022-06-25T15:28:18Z</time>
      </trkpt>
      <trkpt lat="46.11567" lon="4.65353">
        <ele>306.4</ele>
        <time>2022-06-25T15:28:19Z</time>
      </trkpt>
      <trkpt lat="46.11566" lon="4.65355">
        <ele>306.6</ele>
        <time>2022-06-25T15:28:20Z</time>
      </trkpt>
      <trkpt lat="46.11564" lon="4.65357">
        <ele>307</ele>
        <time>2022-06-25T15:28:21Z</time>
      </trkpt>
      <trkpt lat="46.11563" lon="4.65358">
        <ele>307.2</ele>
        <time>2022-06-25T15:28:22Z</time>
      </trkpt>
      <trkpt lat="46.11562" lon="4.6536">
        <ele>307.4</ele>
        <time>2022-06-25T15:28:23Z</time>
      </trkpt>
      <trkpt lat="46.11561" lon="4.65362">
        <ele>307.8</ele>
        <time>2022-06-25T15:28:24Z</time>
      </trkpt>
      <trkpt lat="46.1156" lon="4.65364">
        <ele>308</ele>
        <time>2022-06-25T15:28:25Z</time>
      </trkpt>
      <trkpt lat="46.11559" lon="4.65365">
        <ele>308.2</ele>
        <time>2022-06-25T15:28:26Z</time>
      </trkpt>
      <trkpt lat="46.11557" lon="4.65367">
        <ele>308.6</ele>
        <time>2022-06-25T15:28:27Z</time>
      </trkpt>
      <trkpt lat="46.11556" lon="4.65369">
        <ele>309.2</ele>
        <time>2022-06-25T15:28:28Z</time>
      </trkpt>
      <trkpt lat="46.11555" lon="4.6537">
        <ele>309.4</ele>
        <time>2022-06-25T15:28:29Z</time>
      </trkpt>
      <trkpt lat="46.11554" lon="4.65372">
        <ele>309.6</ele>
        <time>2022-06-25T15:28:30Z</time>
      </trkpt>
      <trkpt lat="46.11553" lon="4.65374">
        <ele>309.8</ele>
        <time>2022-06-25T15:28:31Z</time>
      </trkpt>
      <trkpt lat="46.11551" lon="4.65375">
        <ele>310.2</ele>
        <time>2022-06-25T15:28:32Z</time>
      </trkpt>
      <trkpt lat="46.1155" lon="4.65376">
        <ele>310.2</ele>
        <time>2022-06-25T15:28:33Z</time>
      </trkpt>
      <trkpt lat="46.11549" lon="4.65378">
        <ele>310.6</ele>
        <time>2022-06-25T15:28:34Z</time>
      </trkpt>
      <trkpt lat="46.11548" lon="4.65379">
        <ele>310.8</ele>
        <time>2022-06-25T15:28:35Z</time>
      </trkpt>
      <trkpt lat="46.11546" lon="4.6538">
        <ele>310.8</ele>
        <time>2022-06-25T15:28:36Z</time>
      </trkpt>
      <trkpt lat="46.11545" lon="4.65382">
        <ele>311.2</ele>
        <time>2022-06-25T15:28:37Z</time>
      </trkpt>
      <trkpt lat="46.11543" lon="4.65383">
        <ele>311.4</ele>
        <time>2022-06-25T15:28:38Z</time>
      </trkpt>
      <trkpt lat="46.11542" lon="4.65385">
        <ele>311.6</ele>
        <time>2022-06-25T15:28:39Z</time>
      </trkpt>
      <trkpt lat="46.11541" lon="4.65386">
        <ele>312</ele>
        <time>2022-06-25T15:28:40Z</time>
      </trkpt>
      <trkpt lat="46.11539" lon="4.65388">
        <ele>312.2</ele>
        <time>2022-06-25T15:28:41Z</time>
      </trkpt>
      <trkpt lat="46.11538" lon="4.65389">
        <ele>312.4</ele>
        <time>2022-06-25T15:28:42Z</time>
      </trkpt>
      <trkpt lat="46.11537" lon="4.6539">
        <ele>312.6</ele>
        <time>2022-06-25T15:28:43Z</time>
      </trkpt>
      <trkpt lat="46.11535" lon="4.65391">
        <ele>312.8</ele>
        <time>2022-06-25T15:28:44Z</time>
      </trkpt>
      <trkpt lat="46.11534" lon="4.65392">
        <ele>313</ele>
        <time>2022-06-25T15:28:45Z</time>
      </trkpt>
      <trkpt lat="46.11532" lon="4.65394">
        <ele>313.2</ele>
        <time>2022-06-25T15:28:46Z</time>
      </trkpt>
      <trkpt lat="46.11531" lon="4.65395">
        <ele>313.6</ele>
        <time>2022-06-25T15:28:47Z</time>
      </trkpt>
      <trkpt lat="46.1153" lon="4.65396">
        <ele>313.8</ele>
        <time>2022-06-25T15:28:48Z</time>
      </trkpt>
      <trkpt lat="46.11528" lon="4.65397">
        <ele>314</ele>
        <time>2022-06-25T15:28:49Z</time>
      </trkpt>
      <trkpt lat="46.11527" lon="4.65398">
        <ele>314.2</ele>
        <time>2022-06-25T15:28:50Z</time>
      </trkpt>
      <trkpt lat="46.11525" lon="4.65399">
        <ele>314.2</ele>
        <time>2022-06-25T15:28:51Z</time>
      </trkpt>
      <trkpt lat="46.11524" lon="4.654">
        <ele>314.8</ele>
        <time>2022-06-25T15:28:52Z</time>
      </trkpt>
      <trkpt lat="46.11523" lon="4.65402">
        <ele>315</ele>
        <time>2022-06-25T15:28:53Z</time>
      </trkpt>
      <trkpt lat="46.11523" lon="4.65404">
        <ele>315.4</ele>
        <time>2022-06-25T15:28:54Z</time>
      </trkpt>
      <trkpt lat="46.11523" lon="4.65406">
        <ele>315.6</ele>
        <time>2022-06-25T15:28:55Z</time>
      </trkpt>
      <trkpt lat="46.11524" lon="4.65409">
        <ele>315.8</ele>
        <time>2022-06-25T15:28:56Z</time>
      </trkpt>
      <trkpt lat="46.11524" lon="4.65411">
        <ele>315.8</ele>
        <time>2022-06-25T15:28:57Z</time>
      </trkpt>
      <trkpt lat="46.11525" lon="4.65414">
        <ele>316.2</ele>
        <time>2022-06-25T15:28:58Z</time>
      </trkpt>
      <trkpt lat="46.11525" lon="4.65417">
        <ele>316.2</ele>
        <time>2022-06-25T15:28:59Z</time>
      </trkpt>
      <trkpt lat="46.11526" lon="4.6542">
        <ele>316.2</ele>
        <time>2022-06-25T15:29:00Z</time>
      </trkpt>
      <trkpt lat="46.11527" lon="4.65422">
        <ele>316.2</ele>
        <time>2022-06-25T15:29:01Z</time>
      </trkpt>
      <trkpt lat="46.11527" lon="4.65425">
        <ele>316.2</ele>
        <time>2022-06-25T15:29:02Z</time>
      </trkpt>
      <trkpt lat="46.11528" lon="4.65428">
        <ele>316.2</ele>
        <time>2022-06-25T15:29:03Z</time>
      </trkpt>
      <trkpt lat="46.11528" lon="4.65431">
        <ele>316.4</ele>
        <time>2022-06-25T15:29:04Z</time>
      </trkpt>
      <trkpt lat="46.11528" lon="4.65435">
        <ele>316.4</ele>
        <time>2022-06-25T15:29:05Z</time>
      </trkpt>
      <trkpt lat="46.11529" lon="4.65438">
        <ele>316.4</ele>
        <time>2022-06-25T15:29:06Z</time>
      </trkpt>
      <trkpt lat="46.11529" lon="4.65442">
        <ele>316.4</ele>
        <time>2022-06-25T15:29:07Z</time>
      </trkpt>
      <trkpt lat="46.1153" lon="4.65446">
        <ele>316.4</ele>
        <time>2022-06-25T15:29:08Z</time>
      </trkpt>
      <trkpt lat="46.1153" lon="4.6545">
        <ele>316.4</ele>
        <time>2022-06-25T15:29:09Z</time>
      </trkpt>
      <trkpt lat="46.11531" lon="4.65454">
        <ele>316.4</ele>
        <time>2022-06-25T15:29:10Z</time>
      </trkpt>
      <trkpt lat="46.11531" lon="4.65458">
        <ele>316.4</ele>
        <time>2022-06-25T15:29:11Z</time>
      </trkpt>
      <trkpt lat="46.11532" lon="4.65462">
        <ele>316.6</ele>
        <time>2022-06-25T15:29:12Z</time>
      </trkpt>
      <trkpt lat="46.11532" lon="4.65466">
        <ele>316.6</ele>
        <time>2022-06-25T15:29:13Z</time>
      </trkpt>
      <trkpt lat="46.11533" lon="4.65469">
        <ele>316.6</ele>
        <time>2022-06-25T15:29:14Z</time>
      </trkpt>
      <trkpt lat="46.11533" lon="4.65473">
        <ele>316.8</ele>
        <time>2022-06-25T15:29:15Z</time>
      </trkpt>
      <trkpt lat="46.11534" lon="4.65477">
        <ele>316.8</ele>
        <time>2022-06-25T15:29:16Z</time>
      </trkpt>
      <trkpt lat="46.11534" lon="4.65481">
        <ele>317</ele>
        <time>2022-06-25T15:29:17Z</time>
      </trkpt>
      <trkpt lat="46.11535" lon="4.65485">
        <ele>317</ele>
        <time>2022-06-25T15:29:18Z</time>
      </trkpt>
      <trkpt lat="46.11535" lon="4.65489">
        <ele>317</ele>
        <time>2022-06-25T15:29:19Z</time>
      </trkpt>
      <trkpt lat="46.11535" lon="4.65493">
        <ele>317</ele>
        <time>2022-06-25T15:29:20Z</time>
      </trkpt>
      <trkpt lat="46.11536" lon="4.65497">
        <ele>317.4</ele>
        <time>2022-06-25T15:29:21Z</time>
      </trkpt>
      <trkpt lat="46.11537" lon="4.65502">
        <ele>317.4</ele>
        <time>2022-06-25T15:29:22Z</time>
      </trkpt>
      <trkpt lat="46.11537" lon="4.65506">
        <ele>317.4</ele>
        <time>2022-06-25T15:29:23Z</time>
      </trkpt>
      <trkpt lat="46.11538" lon="4.65511">
        <ele>317.6</ele>
        <time>2022-06-25T15:29:24Z</time>
      </trkpt>
      <trkpt lat="46.11539" lon="4.65515">
        <ele>317.6</ele>
        <time>2022-06-25T15:29:25Z</time>
      </trkpt>
      <trkpt lat="46.11539" lon="4.6552">
        <ele>317.8</ele>
        <time>2022-06-25T15:29:26Z</time>
      </trkpt>
      <trkpt lat="46.1154" lon="4.65524">
        <ele>317.8</ele>
        <time>2022-06-25T15:29:27Z</time>
      </trkpt>
      <trkpt lat="46.11541" lon="4.65528">
        <ele>318.2</ele>
        <time>2022-06-25T15:29:28Z</time>
      </trkpt>
      <trkpt lat="46.11542" lon="4.65532">
        <ele>318.2</ele>
        <time>2022-06-25T15:29:29Z</time>
      </trkpt>
      <trkpt lat="46.11543" lon="4.65536">
        <ele>318.6</ele>
        <time>2022-06-25T15:29:30Z</time>
      </trkpt>
      <trkpt lat="46.11544" lon="4.65541">
        <ele>318.6</ele>
        <time>2022-06-25T15:29:31Z</time>
      </trkpt>
      <trkpt lat="46.11544" lon="4.65545">
        <ele>318.8</ele>
        <time>2022-06-25T15:29:32Z</time>
      </trkpt>
      <trkpt lat="46.11545" lon="4.65549">
        <ele>318.8</ele>
        <time>2022-06-25T15:29:33Z</time>
      </trkpt>
      <trkpt lat="46.11546" lon="4.65554">
        <ele>319</ele>
        <time>2022-06-25T15:29:34Z</time>
      </trkpt>
      <trkpt lat="46.11547" lon="4.65558">
        <ele>319</ele>
        <time>2022-06-25T15:29:35Z</time>
      </trkpt>
      <trkpt lat="46.11548" lon="4.65563">
        <ele>319</ele>
        <time>2022-06-25T15:29:36Z</time>
      </trkpt>
      <trkpt lat="46.11549" lon="4.65568">
        <ele>319.2</ele>
        <time>2022-06-25T15:29:37Z</time>
      </trkpt>
      <trkpt lat="46.1155" lon="4.65573">
        <ele>319.2</ele>
        <time>2022-06-25T15:29:38Z</time>
      </trkpt>
      <trkpt lat="46.11551" lon="4.65579">
        <ele>319.2</ele>
        <time>2022-06-25T15:29:39Z</time>
      </trkpt>
      <trkpt lat="46.11552" lon="4.65585">
        <ele>319.2</ele>
        <time>2022-06-25T15:29:40Z</time>
      </trkpt>
      <trkpt lat="46.11554" lon="4.65592">
        <ele>319.2</ele>
        <time>2022-06-25T15:29:41Z</time>
      </trkpt>
      <trkpt lat="46.11555" lon="4.65598">
        <ele>319.2</ele>
        <time>2022-06-25T15:29:42Z</time>
      </trkpt>
      <trkpt lat="46.11557" lon="4.65605">
        <ele>319.2</ele>
        <time>2022-06-25T15:29:43Z</time>
      </trkpt>
      <trkpt lat="46.11558" lon="4.65611">
        <ele>319.2</ele>
        <time>2022-06-25T15:29:44Z</time>
      </trkpt>
      <trkpt lat="46.1156" lon="4.65618">
        <ele>319.2</ele>
        <time>2022-06-25T15:29:45Z</time>
      </trkpt>
      <trkpt lat="46.11561" lon="4.65625">
        <ele>319.2</ele>
        <time>2022-06-25T15:29:46Z</time>
      </trkpt>
      <trkpt lat="46.11563" lon="4.65631">
        <ele>319.2</ele>
        <time>2022-06-25T15:29:47Z</time>
      </trkpt>
      <trkpt lat="46.11565" lon="4.65638">
        <ele>319.2</ele>
        <time>2022-06-25T15:29:48Z</time>
      </trkpt>
      <trkpt lat="46.11566" lon="4.65645">
        <ele>319.2</ele>
        <time>2022-06-25T15:29:49Z</time>
      </trkpt>
      <trkpt lat="46.11568" lon="4.65653">
        <ele>319.2</ele>
        <time>2022-06-25T15:29:50Z</time>
      </trkpt>
      <trkpt lat="46.1157" lon="4.6566">
        <ele>319.2</ele>
        <time>2022-06-25T15:29:51Z</time>
      </trkpt>
      <trkpt lat="46.11572" lon="4.65667">
        <ele>319.2</ele>
        <time>2022-06-25T15:29:52Z</time>
      </trkpt>
      <trkpt lat="46.11574" lon="4.65675">
        <ele>319.2</ele>
        <time>2022-06-25T15:29:53Z</time>
      </trkpt>
      <trkpt lat="46.11577" lon="4.65683">
        <ele>319.2</ele>
        <time>2022-06-25T15:29:54Z</time>
      </trkpt>
      <trkpt lat="46.11578" lon="4.65691">
        <ele>319.2</ele>
        <time>2022-06-25T15:29:55Z</time>
      </trkpt>
      <trkpt lat="46.1158" lon="4.65698">
        <ele>319.2</ele>
        <time>2022-06-25T15:29:56Z</time>
      </trkpt>
      <trkpt lat="46.11583" lon="4.65706">
        <ele>319.4</ele>
        <time>2022-06-25T15:29:57Z</time>
      </trkpt>
      <trkpt lat="46.11585" lon="4.65713">
        <ele>319.4</ele>
        <time>2022-06-25T15:29:58Z</time>
      </trkpt>
      <trkpt lat="46.11587" lon="4.65721">
        <ele>319.4</ele>
        <time>2022-06-25T15:29:59Z</time>
      </trkpt>
      <trkpt lat="46.11589" lon="4.65729">
        <ele>319.4</ele>
        <time>2022-06-25T15:30:00Z</time>
      </trkpt>
      <trkpt lat="46.11592" lon="4.65737">
        <ele>319.4</ele>
        <time>2022-06-25T15:30:01Z</time>
      </trkpt>
      <trkpt lat="46.11594" lon="4.65745">
        <ele>319.4</ele>
        <time>2022-06-25T15:30:02Z</time>
      </trkpt>
      <trkpt lat="46.11596" lon="4.65752">
        <ele>319.4</ele>
        <time>2022-06-25T15:30:03Z</time>
      </trkpt>
      <trkpt lat="46.11599" lon="4.6576">
        <ele>319.4</ele>
        <time>2022-06-25T15:30:04Z</time>
      </trkpt>
      <trkpt lat="46.11601" lon="4.65768">
        <ele>319.4</ele>
        <time>2022-06-25T15:30:05Z</time>
      </trkpt>
      <trkpt lat="46.11603" lon="4.65776">
        <ele>319.4</ele>
        <time>2022-06-25T15:30:06Z</time>
      </trkpt>
      <trkpt lat="46.11606" lon="4.65784">
        <ele>319.4</ele>
        <time>2022-06-25T15:30:07Z</time>
      </trkpt>
      <trkpt lat="46.11608" lon="4.65792">
        <ele>319.4</ele>
        <time>2022-06-25T15:30:08Z</time>
      </trkpt>
      <trkpt lat="46.11611" lon="4.658">
        <ele>319.8</ele>
        <time>2022-06-25T15:30:09Z</time>
      </trkpt>
      <trkpt lat="46.11613" lon="4.65808">
        <ele>319.8</ele>
        <time>2022-06-25T15:30:10Z</time>
      </trkpt>
      <trkpt lat="46.11615" lon="4.65815">
        <ele>320</ele>
        <time>2022-06-25T15:30:11Z</time>
      </trkpt>
      <trkpt lat="46.11616" lon="4.65823">
        <ele>320</ele>
        <time>2022-06-25T15:30:12Z</time>
      </trkpt>
      <trkpt lat="46.11618" lon="4.6583">
        <ele>320</ele>
        <time>2022-06-25T15:30:13Z</time>
      </trkpt>
      <trkpt lat="46.1162" lon="4.65837">
        <ele>320.4</ele>
        <time>2022-06-25T15:30:14Z</time>
      </trkpt>
      <trkpt lat="46.11621" lon="4.65844">
        <ele>320.4</ele>
        <time>2022-06-25T15:30:15Z</time>
      </trkpt>
      <trkpt lat="46.11622" lon="4.65851">
        <ele>320.6</ele>
        <time>2022-06-25T15:30:16Z</time>
      </trkpt>
      <trkpt lat="46.11623" lon="4.65859">
        <ele>320.6</ele>
        <time>2022-06-25T15:30:17Z</time>
      </trkpt>
      <trkpt lat="46.11624" lon="4.65865">
        <ele>320.8</ele>
        <time>2022-06-25T15:30:18Z</time>
      </trkpt>
      <trkpt lat="46.11625" lon="4.65872">
        <ele>320.8</ele>
        <time>2022-06-25T15:30:19Z</time>
      </trkpt>
      <trkpt lat="46.11625" lon="4.65879">
        <ele>321.2</ele>
        <time>2022-06-25T15:30:21Z</time>
      </trkpt>
      <trkpt lat="46.11626" lon="4.65885">
        <ele>321.6</ele>
        <time>2022-06-25T15:30:22Z</time>
      </trkpt>
      <trkpt lat="46.11627" lon="4.65892">
        <ele>321.6</ele>
        <time>2022-06-25T15:30:23Z</time>
      </trkpt>
      <trkpt lat="46.11627" lon="4.65898">
        <ele>322</ele>
        <time>2022-06-25T15:30:24Z</time>
      </trkpt>
      <trkpt lat="46.11627" lon="4.65904">
        <ele>322.2</ele>
        <time>2022-06-25T15:30:25Z</time>
      </trkpt>
      <trkpt lat="46.11628" lon="4.65911">
        <ele>322.4</ele>
        <time>2022-06-25T15:30:26Z</time>
      </trkpt>
      <trkpt lat="46.11628" lon="4.65917">
        <ele>322.4</ele>
        <time>2022-06-25T15:30:27Z</time>
      </trkpt>
      <trkpt lat="46.11627" lon="4.65923">
        <ele>322.8</ele>
        <time>2022-06-25T15:30:28Z</time>
      </trkpt>
      <trkpt lat="46.11627" lon="4.65929">
        <ele>322.8</ele>
        <time>2022-06-25T15:30:29Z</time>
      </trkpt>
      <trkpt lat="46.11627" lon="4.65934">
        <ele>323</ele>
        <time>2022-06-25T15:30:30Z</time>
      </trkpt>
      <trkpt lat="46.11627" lon="4.6594">
        <ele>323.2</ele>
        <time>2022-06-25T15:30:31Z</time>
      </trkpt>
      <trkpt lat="46.11626" lon="4.65945">
        <ele>323.6</ele>
        <time>2022-06-25T15:30:32Z</time>
      </trkpt>
      <trkpt lat="46.11625" lon="4.6595">
        <ele>323.8</ele>
        <time>2022-06-25T15:30:33Z</time>
      </trkpt>
      <trkpt lat="46.11624" lon="4.65956">
        <ele>323.8</ele>
        <time>2022-06-25T15:30:34Z</time>
      </trkpt>
      <trkpt lat="46.11623" lon="4.65961">
        <ele>324.2</ele>
        <time>2022-06-25T15:30:35Z</time>
      </trkpt>
      <trkpt lat="46.11622" lon="4.65966">
        <ele>324.4</ele>
        <time>2022-06-25T15:30:36Z</time>
      </trkpt>
      <trkpt lat="46.11621" lon="4.65971">
        <ele>324.8</ele>
        <time>2022-06-25T15:30:37Z</time>
      </trkpt>
      <trkpt lat="46.1162" lon="4.65976">
        <ele>325</ele>
        <time>2022-06-25T15:30:38Z</time>
      </trkpt>
      <trkpt lat="46.11619" lon="4.65981">
        <ele>325.2</ele>
        <time>2022-06-25T15:30:39Z</time>
      </trkpt>
      <trkpt lat="46.11618" lon="4.65986">
        <ele>325.4</ele>
        <time>2022-06-25T15:30:40Z</time>
      </trkpt>
      <trkpt lat="46.11618" lon="4.65991">
        <ele>325.8</ele>
        <time>2022-06-25T15:30:41Z</time>
      </trkpt>
      <trkpt lat="46.11617" lon="4.65995">
        <ele>326</ele>
        <time>2022-06-25T15:30:42Z</time>
      </trkpt>
      <trkpt lat="46.11616" lon="4.66">
        <ele>326</ele>
        <time>2022-06-25T15:30:43Z</time>
      </trkpt>
      <trkpt lat="46.11616" lon="4.66004">
        <ele>326.4</ele>
        <time>2022-06-25T15:30:44Z</time>
      </trkpt>
      <trkpt lat="46.11615" lon="4.66008">
        <ele>326.4</ele>
        <time>2022-06-25T15:30:45Z</time>
      </trkpt>
      <trkpt lat="46.11615" lon="4.66013">
        <ele>326.8</ele>
        <time>2022-06-25T15:30:46Z</time>
      </trkpt>
      <trkpt lat="46.11614" lon="4.66017">
        <ele>326.8</ele>
        <time>2022-06-25T15:30:47Z</time>
      </trkpt>
      <trkpt lat="46.11614" lon="4.66022">
        <ele>327.2</ele>
        <time>2022-06-25T15:30:48Z</time>
      </trkpt>
      <trkpt lat="46.11613" lon="4.66026">
        <ele>327.2</ele>
        <time>2022-06-25T15:30:49Z</time>
      </trkpt>
      <trkpt lat="46.11613" lon="4.6603">
        <ele>327.6</ele>
        <time>2022-06-25T15:30:50Z</time>
      </trkpt>
      <trkpt lat="46.11612" lon="4.66035">
        <ele>327.6</ele>
        <time>2022-06-25T15:30:51Z</time>
      </trkpt>
      <trkpt lat="46.11612" lon="4.6604">
        <ele>328</ele>
        <time>2022-06-25T15:30:52Z</time>
      </trkpt>
      <trkpt lat="46.11612" lon="4.66044">
        <ele>328</ele>
        <time>2022-06-25T15:30:53Z</time>
      </trkpt>
      <trkpt lat="46.11612" lon="4.66049">
        <ele>328.2</ele>
        <time>2022-06-25T15:30:54Z</time>
      </trkpt>
      <trkpt lat="46.11611" lon="4.66053">
        <ele>328.2</ele>
        <time>2022-06-25T15:30:55Z</time>
      </trkpt>
      <trkpt lat="46.11611" lon="4.66058">
        <ele>328.6</ele>
        <time>2022-06-25T15:30:56Z</time>
      </trkpt>
      <trkpt lat="46.11611" lon="4.66062">
        <ele>328.6</ele>
        <time>2022-06-25T15:30:57Z</time>
      </trkpt>
      <trkpt lat="46.1161" lon="4.66066">
        <ele>329</ele>
        <time>2022-06-25T15:30:58Z</time>
      </trkpt>
      <trkpt lat="46.1161" lon="4.66071">
        <ele>329</ele>
        <time>2022-06-25T15:30:59Z</time>
      </trkpt>
      <trkpt lat="46.11609" lon="4.66076">
        <ele>329.2</ele>
        <time>2022-06-25T15:31:00Z</time>
      </trkpt>
      <trkpt lat="46.11609" lon="4.6608">
        <ele>329.2</ele>
        <time>2022-06-25T15:31:01Z</time>
      </trkpt>
      <trkpt lat="46.11609" lon="4.66085">
        <ele>329.4</ele>
        <time>2022-06-25T15:31:02Z</time>
      </trkpt>
      <trkpt lat="46.11608" lon="4.6609">
        <ele>329.4</ele>
        <time>2022-06-25T15:31:03Z</time>
      </trkpt>
      <trkpt lat="46.11607" lon="4.66094">
        <ele>329.8</ele>
        <time>2022-06-25T15:31:04Z</time>
      </trkpt>
      <trkpt lat="46.11607" lon="4.66099">
        <ele>329.8</ele>
        <time>2022-06-25T15:31:05Z</time>
      </trkpt>
      <trkpt lat="46.11606" lon="4.66105">
        <ele>330</ele>
        <time>2022-06-25T15:31:06Z</time>
      </trkpt>
      <trkpt lat="46.11606" lon="4.6611">
        <ele>330</ele>
        <time>2022-06-25T15:31:07Z</time>
      </trkpt>
      <trkpt lat="46.11605" lon="4.66115">
        <ele>330</ele>
        <time>2022-06-25T15:31:08Z</time>
      </trkpt>
      <trkpt lat="46.11604" lon="4.66121">
        <ele>330.2</ele>
        <time>2022-06-25T15:31:09Z</time>
      </trkpt>
      <trkpt lat="46.11603" lon="4.66126">
        <ele>330.2</ele>
        <time>2022-06-25T15:31:10Z</time>
      </trkpt>
      <trkpt lat="46.11602" lon="4.66132">
        <ele>330.2</ele>
        <time>2022-06-25T15:31:11Z</time>
      </trkpt>
      <trkpt lat="46.11601" lon="4.66138">
        <ele>330.2</ele>
        <time>2022-06-25T15:31:12Z</time>
      </trkpt>
      <trkpt lat="46.116" lon="4.66143">
        <ele>330.2</ele>
        <time>2022-06-25T15:31:13Z</time>
      </trkpt>
      <trkpt lat="46.11599" lon="4.66149">
        <ele>330.4</ele>
        <time>2022-06-25T15:31:14Z</time>
      </trkpt>
      <trkpt lat="46.11599" lon="4.66155">
        <ele>330.4</ele>
        <time>2022-06-25T15:31:15Z</time>
      </trkpt>
      <trkpt lat="46.11598" lon="4.6616">
        <ele>330.4</ele>
        <time>2022-06-25T15:31:16Z</time>
      </trkpt>
      <trkpt lat="46.11597" lon="4.66166">
        <ele>330.4</ele>
        <time>2022-06-25T15:31:17Z</time>
      </trkpt>
      <trkpt lat="46.11595" lon="4.66172">
        <ele>330.4</ele>
        <time>2022-06-25T15:31:18Z</time>
      </trkpt>
      <trkpt lat="46.11594" lon="4.66177">
        <ele>330.4</ele>
        <time>2022-06-25T15:31:19Z</time>
      </trkpt>
      <trkpt lat="46.11593" lon="4.66183">
        <ele>330.8</ele>
        <time>2022-06-25T15:31:20Z</time>
      </trkpt>
      <trkpt lat="46.11591" lon="4.66189">
        <ele>330.8</ele>
        <time>2022-06-25T15:31:21Z</time>
      </trkpt>
      <trkpt lat="46.1159" lon="4.66195">
        <ele>330.8</ele>
        <time>2022-06-25T15:31:22Z</time>
      </trkpt>
      <trkpt lat="46.1159" lon="4.662">
        <ele>331</ele>
        <time>2022-06-25T15:31:23Z</time>
      </trkpt>
      <trkpt lat="46.11588" lon="4.66205">
        <ele>331</ele>
        <time>2022-06-25T15:31:24Z</time>
      </trkpt>
      <trkpt lat="46.11587" lon="4.66211">
        <ele>331</ele>
        <time>2022-06-25T15:31:25Z</time>
      </trkpt>
      <trkpt lat="46.11586" lon="4.66216">
        <ele>331.2</ele>
        <time>2022-06-25T15:31:26Z</time>
      </trkpt>
      <trkpt lat="46.11585" lon="4.66222">
        <ele>331.2</ele>
        <time>2022-06-25T15:31:27Z</time>
      </trkpt>
      <trkpt lat="46.11584" lon="4.66227">
        <ele>331.2</ele>
        <time>2022-06-25T15:31:28Z</time>
      </trkpt>
      <trkpt lat="46.11582" lon="4.66232">
        <ele>331.4</ele>
        <time>2022-06-25T15:31:29Z</time>
      </trkpt>
      <trkpt lat="46.11581" lon="4.66237">
        <ele>331.4</ele>
        <time>2022-06-25T15:31:30Z</time>
      </trkpt>
      <trkpt lat="46.1158" lon="4.66243">
        <ele>331.8</ele>
        <time>2022-06-25T15:31:31Z</time>
      </trkpt>
      <trkpt lat="46.11579" lon="4.66248">
        <ele>331.8</ele>
        <time>2022-06-25T15:31:32Z</time>
      </trkpt>
      <trkpt lat="46.11578" lon="4.66253">
        <ele>331.8</ele>
        <time>2022-06-25T15:31:33Z</time>
      </trkpt>
      <trkpt lat="46.11577" lon="4.66258">
        <ele>332</ele>
        <time>2022-06-25T15:31:34Z</time>
      </trkpt>
      <trkpt lat="46.11576" lon="4.66263">
        <ele>332</ele>
        <time>2022-06-25T15:31:35Z</time>
      </trkpt>
      <trkpt lat="46.11575" lon="4.66269">
        <ele>332.4</ele>
        <time>2022-06-25T15:31:36Z</time>
      </trkpt>
      <trkpt lat="46.11574" lon="4.66274">
        <ele>332.4</ele>
        <time>2022-06-25T15:31:37Z</time>
      </trkpt>
      <trkpt lat="46.11573" lon="4.66279">
        <ele>332.6</ele>
        <time>2022-06-25T15:31:38Z</time>
      </trkpt>
      <trkpt lat="46.11573" lon="4.66284">
        <ele>332.6</ele>
        <time>2022-06-25T15:31:39Z</time>
      </trkpt>
      <trkpt lat="46.11572" lon="4.66289">
        <ele>333</ele>
        <time>2022-06-25T15:31:40Z</time>
      </trkpt>
      <trkpt lat="46.11572" lon="4.66293">
        <ele>333</ele>
        <time>2022-06-25T15:31:41Z</time>
      </trkpt>
      <trkpt lat="46.11571" lon="4.66298">
        <ele>333</ele>
        <time>2022-06-25T15:31:42Z</time>
      </trkpt>
      <trkpt lat="46.1157" lon="4.66303">
        <ele>333</ele>
        <time>2022-06-25T15:31:43Z</time>
      </trkpt>
      <trkpt lat="46.11569" lon="4.66309">
        <ele>333</ele>
        <time>2022-06-25T15:31:44Z</time>
      </trkpt>
      <trkpt lat="46.11569" lon="4.66315">
        <ele>333</ele>
        <time>2022-06-25T15:31:45Z</time>
      </trkpt>
      <trkpt lat="46.11567" lon="4.66322">
        <ele>333</ele>
        <time>2022-06-25T15:31:46Z</time>
      </trkpt>
      <trkpt lat="46.11566" lon="4.66328">
        <ele>333</ele>
        <time>2022-06-25T15:31:47Z</time>
      </trkpt>
      <trkpt lat="46.11564" lon="4.66335">
        <ele>333</ele>
        <time>2022-06-25T15:31:48Z</time>
      </trkpt>
      <trkpt lat="46.11562" lon="4.66342">
        <ele>333</ele>
        <time>2022-06-25T15:31:49Z</time>
      </trkpt>
      <trkpt lat="46.11559" lon="4.66348">
        <ele>333</ele>
        <time>2022-06-25T15:31:50Z</time>
      </trkpt>
      <trkpt lat="46.11556" lon="4.66354">
        <ele>333</ele>
        <time>2022-06-25T15:31:51Z</time>
      </trkpt>
      <trkpt lat="46.11553" lon="4.66358">
        <ele>333</ele>
        <time>2022-06-25T15:31:52Z</time>
      </trkpt>
      <trkpt lat="46.1155" lon="4.66362">
        <ele>333</ele>
        <time>2022-06-25T15:31:53Z</time>
      </trkpt>
      <trkpt lat="46.11547" lon="4.66365">
        <ele>333</ele>
        <time>2022-06-25T15:31:54Z</time>
      </trkpt>
      <trkpt lat="46.11544" lon="4.66369">
        <ele>333</ele>
        <time>2022-06-25T15:31:55Z</time>
      </trkpt>
      <trkpt lat="46.11541" lon="4.66371">
        <ele>333.2</ele>
        <time>2022-06-25T15:31:56Z</time>
      </trkpt>
      <trkpt lat="46.11538" lon="4.66373">
        <ele>333.2</ele>
        <time>2022-06-25T15:31:57Z</time>
      </trkpt>
      <trkpt lat="46.11536" lon="4.66374">
        <ele>333.6</ele>
        <time>2022-06-25T15:31:58Z</time>
      </trkpt>
      <trkpt lat="46.11533" lon="4.66375">
        <ele>333.6</ele>
        <time>2022-06-25T15:31:59Z</time>
      </trkpt>
      <trkpt lat="46.1153" lon="4.66375">
        <ele>333.8</ele>
        <time>2022-06-25T15:32:00Z</time>
      </trkpt>
      <trkpt lat="46.11528" lon="4.66374">
        <ele>334</ele>
        <time>2022-06-25T15:32:01Z</time>
      </trkpt>
      <trkpt lat="46.11525" lon="4.66373">
        <ele>334</ele>
        <time>2022-06-25T15:32:02Z</time>
      </trkpt>
      <trkpt lat="46.11523" lon="4.66372">
        <ele>334.4</ele>
        <time>2022-06-25T15:32:03Z</time>
      </trkpt>
      <trkpt lat="46.1152" lon="4.66372">
        <ele>334.4</ele>
        <time>2022-06-25T15:32:04Z</time>
      </trkpt>
      <trkpt lat="46.11518" lon="4.66371">
        <ele>334.8</ele>
        <time>2022-06-25T15:32:05Z</time>
      </trkpt>
      <trkpt lat="46.11515" lon="4.66371">
        <ele>335</ele>
        <time>2022-06-25T15:32:06Z</time>
      </trkpt>
      <trkpt lat="46.11512" lon="4.6637">
        <ele>335.2</ele>
        <time>2022-06-25T15:32:07Z</time>
      </trkpt>
      <trkpt lat="46.11509" lon="4.6637">
        <ele>335.4</ele>
        <time>2022-06-25T15:32:08Z</time>
      </trkpt>
      <trkpt lat="46.11507" lon="4.66371">
        <ele>335.8</ele>
        <time>2022-06-25T15:32:09Z</time>
      </trkpt>
      <trkpt lat="46.11504" lon="4.66371">
        <ele>336</ele>
        <time>2022-06-25T15:32:10Z</time>
      </trkpt>
      <trkpt lat="46.11501" lon="4.66371">
        <ele>336</ele>
        <time>2022-06-25T15:32:11Z</time>
      </trkpt>
      <trkpt lat="46.11499" lon="4.66372">
        <ele>336.4</ele>
        <time>2022-06-25T15:32:12Z</time>
      </trkpt>
      <trkpt lat="46.11496" lon="4.66372">
        <ele>336.4</ele>
        <time>2022-06-25T15:32:13Z</time>
      </trkpt>
      <trkpt lat="46.11494" lon="4.66372">
        <ele>336.8</ele>
        <time>2022-06-25T15:32:14Z</time>
      </trkpt>
      <trkpt lat="46.11491" lon="4.66373">
        <ele>337</ele>
        <time>2022-06-25T15:32:15Z</time>
      </trkpt>
      <trkpt lat="46.11488" lon="4.66373">
        <ele>337.2</ele>
        <time>2022-06-25T15:32:16Z</time>
      </trkpt>
      <trkpt lat="46.11485" lon="4.66373">
        <ele>337.4</ele>
        <time>2022-06-25T15:32:17Z</time>
      </trkpt>
      <trkpt lat="46.11482" lon="4.66373">
        <ele>337.6</ele>
        <time>2022-06-25T15:32:18Z</time>
      </trkpt>
      <trkpt lat="46.1148" lon="4.66373">
        <ele>337.6</ele>
        <time>2022-06-25T15:32:19Z</time>
      </trkpt>
      <trkpt lat="46.11477" lon="4.66373">
        <ele>338</ele>
        <time>2022-06-25T15:32:20Z</time>
      </trkpt>
      <trkpt lat="46.11474" lon="4.66373">
        <ele>338</ele>
        <time>2022-06-25T15:32:21Z</time>
      </trkpt>
      <trkpt lat="46.11471" lon="4.66373">
        <ele>338.4</ele>
        <time>2022-06-25T15:32:22Z</time>
      </trkpt>
      <trkpt lat="46.11468" lon="4.66374">
        <ele>338.4</ele>
        <time>2022-06-25T15:32:23Z</time>
      </trkpt>
      <trkpt lat="46.11465" lon="4.66374">
        <ele>338.8</ele>
        <time>2022-06-25T15:32:24Z</time>
      </trkpt>
      <trkpt lat="46.11463" lon="4.66375">
        <ele>339</ele>
        <time>2022-06-25T15:32:25Z</time>
      </trkpt>
      <trkpt lat="46.1146" lon="4.66375">
        <ele>339.2</ele>
        <time>2022-06-25T15:32:26Z</time>
      </trkpt>
      <trkpt lat="46.11458" lon="4.66376">
        <ele>339.4</ele>
        <time>2022-06-25T15:32:27Z</time>
      </trkpt>
      <trkpt lat="46.11455" lon="4.66376">
        <ele>339.4</ele>
        <time>2022-06-25T15:32:28Z</time>
      </trkpt>
      <trkpt lat="46.11452" lon="4.66376">
        <ele>339.8</ele>
        <time>2022-06-25T15:32:29Z</time>
      </trkpt>
      <trkpt lat="46.11449" lon="4.66375">
        <ele>339.8</ele>
        <time>2022-06-25T15:32:30Z</time>
      </trkpt>
      <trkpt lat="46.11447" lon="4.66374">
        <ele>340.2</ele>
        <time>2022-06-25T15:32:31Z</time>
      </trkpt>
      <trkpt lat="46.11444" lon="4.66373">
        <ele>340.4</ele>
        <time>2022-06-25T15:32:32Z</time>
      </trkpt>
      <trkpt lat="46.11441" lon="4.66372">
        <ele>340.6</ele>
        <time>2022-06-25T15:32:33Z</time>
      </trkpt>
      <trkpt lat="46.11438" lon="4.66371">
        <ele>340.6</ele>
        <time>2022-06-25T15:32:34Z</time>
      </trkpt>
      <trkpt lat="46.11435" lon="4.66371">
        <ele>341</ele>
        <time>2022-06-25T15:32:35Z</time>
      </trkpt>
      <trkpt lat="46.11432" lon="4.66369">
        <ele>341.2</ele>
        <time>2022-06-25T15:32:36Z</time>
      </trkpt>
      <trkpt lat="46.1143" lon="4.66368">
        <ele>341.6</ele>
        <time>2022-06-25T15:32:37Z</time>
      </trkpt>
      <trkpt lat="46.11427" lon="4.66367">
        <ele>341.8</ele>
        <time>2022-06-25T15:32:38Z</time>
      </trkpt>
      <trkpt lat="46.11425" lon="4.66367">
        <ele>342</ele>
        <time>2022-06-25T15:32:39Z</time>
      </trkpt>
      <trkpt lat="46.11422" lon="4.66366">
        <ele>342.2</ele>
        <time>2022-06-25T15:32:40Z</time>
      </trkpt>
      <trkpt lat="46.1142" lon="4.66365">
        <ele>342.2</ele>
        <time>2022-06-25T15:32:41Z</time>
      </trkpt>
      <trkpt lat="46.11417" lon="4.66363">
        <ele>342.6</ele>
        <time>2022-06-25T15:32:42Z</time>
      </trkpt>
      <trkpt lat="46.11415" lon="4.66362">
        <ele>342.6</ele>
        <time>2022-06-25T15:32:43Z</time>
      </trkpt>
      <trkpt lat="46.11412" lon="4.66361">
        <ele>342.8</ele>
        <time>2022-06-25T15:32:44Z</time>
      </trkpt>
      <trkpt lat="46.1141" lon="4.66361">
        <ele>343</ele>
        <time>2022-06-25T15:32:45Z</time>
      </trkpt>
      <trkpt lat="46.11407" lon="4.66361">
        <ele>343</ele>
        <time>2022-06-25T15:32:46Z</time>
      </trkpt>
      <trkpt lat="46.11404" lon="4.6636">
        <ele>343.4</ele>
        <time>2022-06-25T15:32:47Z</time>
      </trkpt>
      <trkpt lat="46.11402" lon="4.6636">
        <ele>343.4</ele>
        <time>2022-06-25T15:32:48Z</time>
      </trkpt>
      <trkpt lat="46.11399" lon="4.6636">
        <ele>343.8</ele>
        <time>2022-06-25T15:32:49Z</time>
      </trkpt>
      <trkpt lat="46.11396" lon="4.6636">
        <ele>343.8</ele>
        <time>2022-06-25T15:32:50Z</time>
      </trkpt>
      <trkpt lat="46.11394" lon="4.6636">
        <ele>344.2</ele>
        <time>2022-06-25T15:32:51Z</time>
      </trkpt>
      <trkpt lat="46.11391" lon="4.66361">
        <ele>344.2</ele>
        <time>2022-06-25T15:32:52Z</time>
      </trkpt>
      <trkpt lat="46.11389" lon="4.66362">
        <ele>344.6</ele>
        <time>2022-06-25T15:32:53Z</time>
      </trkpt>
      <trkpt lat="46.11386" lon="4.66364">
        <ele>344.8</ele>
        <time>2022-06-25T15:32:54Z</time>
      </trkpt>
      <trkpt lat="46.11384" lon="4.66365">
        <ele>345</ele>
        <time>2022-06-25T15:32:55Z</time>
      </trkpt>
      <trkpt lat="46.11381" lon="4.66367">
        <ele>345.4</ele>
        <time>2022-06-25T15:32:56Z</time>
      </trkpt>
      <trkpt lat="46.11378" lon="4.66369">
        <ele>345.6</ele>
        <time>2022-06-25T15:32:57Z</time>
      </trkpt>
      <trkpt lat="46.11375" lon="4.66371">
        <ele>345.8</ele>
        <time>2022-06-25T15:32:58Z</time>
      </trkpt>
      <trkpt lat="46.11373" lon="4.66373">
        <ele>346</ele>
        <time>2022-06-25T15:32:59Z</time>
      </trkpt>
      <trkpt lat="46.1137" lon="4.66374">
        <ele>346.2</ele>
        <time>2022-06-25T15:33:00Z</time>
      </trkpt>
      <trkpt lat="46.11368" lon="4.66376">
        <ele>346.6</ele>
        <time>2022-06-25T15:33:01Z</time>
      </trkpt>
      <trkpt lat="46.11365" lon="4.66378">
        <ele>346.8</ele>
        <time>2022-06-25T15:33:02Z</time>
      </trkpt>
      <trkpt lat="46.11363" lon="4.6638">
        <ele>346.8</ele>
        <time>2022-06-25T15:33:03Z</time>
      </trkpt>
      <trkpt lat="46.1136" lon="4.66382">
        <ele>347.2</ele>
        <time>2022-06-25T15:33:04Z</time>
      </trkpt>
      <trkpt lat="46.11357" lon="4.66384">
        <ele>347.2</ele>
        <time>2022-06-25T15:33:05Z</time>
      </trkpt>
      <trkpt lat="46.11355" lon="4.66386">
        <ele>347.4</ele>
        <time>2022-06-25T15:33:06Z</time>
      </trkpt>
      <trkpt lat="46.11353" lon="4.66388">
        <ele>347.4</ele>
        <time>2022-06-25T15:33:07Z</time>
      </trkpt>
      <trkpt lat="46.1135" lon="4.6639">
        <ele>347.8</ele>
        <time>2022-06-25T15:33:08Z</time>
      </trkpt>
      <trkpt lat="46.11348" lon="4.66392">
        <ele>348</ele>
        <time>2022-06-25T15:33:09Z</time>
      </trkpt>
      <trkpt lat="46.11346" lon="4.66394">
        <ele>348.2</ele>
        <time>2022-06-25T15:33:10Z</time>
      </trkpt>
      <trkpt lat="46.11343" lon="4.66396">
        <ele>348.4</ele>
        <time>2022-06-25T15:33:11Z</time>
      </trkpt>
      <trkpt lat="46.11341" lon="4.66398">
        <ele>348.6</ele>
        <time>2022-06-25T15:33:12Z</time>
      </trkpt>
      <trkpt lat="46.11339" lon="4.664">
        <ele>348.8</ele>
        <time>2022-06-25T15:33:13Z</time>
      </trkpt>
      <trkpt lat="46.11336" lon="4.66402">
        <ele>349.2</ele>
        <time>2022-06-25T15:33:14Z</time>
      </trkpt>
      <trkpt lat="46.11334" lon="4.66403">
        <ele>349.4</ele>
        <time>2022-06-25T15:33:15Z</time>
      </trkpt>
      <trkpt lat="46.11332" lon="4.66405">
        <ele>349.6</ele>
        <time>2022-06-25T15:33:16Z</time>
      </trkpt>
      <trkpt lat="46.11329" lon="4.66405">
        <ele>349.6</ele>
        <time>2022-06-25T15:33:17Z</time>
      </trkpt>
      <trkpt lat="46.11327" lon="4.66406">
        <ele>349.8</ele>
        <time>2022-06-25T15:33:18Z</time>
      </trkpt>
      <trkpt lat="46.11324" lon="4.66408">
        <ele>349.8</ele>
        <time>2022-06-25T15:33:19Z</time>
      </trkpt>
      <trkpt lat="46.11322" lon="4.6641">
        <ele>350.2</ele>
        <time>2022-06-25T15:33:20Z</time>
      </trkpt>
      <trkpt lat="46.1132" lon="4.66411">
        <ele>350.2</ele>
        <time>2022-06-25T15:33:21Z</time>
      </trkpt>
      <trkpt lat="46.11317" lon="4.66413">
        <ele>350.6</ele>
        <time>2022-06-25T15:33:22Z</time>
      </trkpt>
      <trkpt lat="46.11315" lon="4.66415">
        <ele>350.6</ele>
        <time>2022-06-25T15:33:23Z</time>
      </trkpt>
      <trkpt lat="46.11313" lon="4.66417">
        <ele>351</ele>
        <time>2022-06-25T15:33:24Z</time>
      </trkpt>
      <trkpt lat="46.1131" lon="4.66419">
        <ele>351.4</ele>
        <time>2022-06-25T15:33:25Z</time>
      </trkpt>
      <trkpt lat="46.11307" lon="4.66421">
        <ele>351.4</ele>
        <time>2022-06-25T15:33:26Z</time>
      </trkpt>
      <trkpt lat="46.11305" lon="4.66422">
        <ele>351.8</ele>
        <time>2022-06-25T15:33:27Z</time>
      </trkpt>
      <trkpt lat="46.11302" lon="4.66423">
        <ele>352.2</ele>
        <time>2022-06-25T15:33:28Z</time>
      </trkpt>
      <trkpt lat="46.11299" lon="4.66425">
        <ele>352.4</ele>
        <time>2022-06-25T15:33:29Z</time>
      </trkpt>
      <trkpt lat="46.11297" lon="4.66426">
        <ele>352.6</ele>
        <time>2022-06-25T15:33:30Z</time>
      </trkpt>
      <trkpt lat="46.11294" lon="4.66427">
        <ele>352.8</ele>
        <time>2022-06-25T15:33:31Z</time>
      </trkpt>
      <trkpt lat="46.11291" lon="4.66429">
        <ele>353.2</ele>
        <time>2022-06-25T15:33:32Z</time>
      </trkpt>
      <trkpt lat="46.11289" lon="4.6643">
        <ele>353.2</ele>
        <time>2022-06-25T15:33:33Z</time>
      </trkpt>
      <trkpt lat="46.11286" lon="4.66431">
        <ele>353.6</ele>
        <time>2022-06-25T15:33:34Z</time>
      </trkpt>
      <trkpt lat="46.11284" lon="4.66433">
        <ele>353.8</ele>
        <time>2022-06-25T15:33:35Z</time>
      </trkpt>
      <trkpt lat="46.11281" lon="4.66434">
        <ele>354</ele>
        <time>2022-06-25T15:33:36Z</time>
      </trkpt>
      <trkpt lat="46.11279" lon="4.66435">
        <ele>354.2</ele>
        <time>2022-06-25T15:33:37Z</time>
      </trkpt>
      <trkpt lat="46.11276" lon="4.66437">
        <ele>354.6</ele>
        <time>2022-06-25T15:33:38Z</time>
      </trkpt>
      <trkpt lat="46.11274" lon="4.66439">
        <ele>354.8</ele>
        <time>2022-06-25T15:33:39Z</time>
      </trkpt>
      <trkpt lat="46.11272" lon="4.6644">
        <ele>355</ele>
        <time>2022-06-25T15:33:40Z</time>
      </trkpt>
      <trkpt lat="46.1127" lon="4.66442">
        <ele>355.4</ele>
        <time>2022-06-25T15:33:41Z</time>
      </trkpt>
      <trkpt lat="46.11267" lon="4.66444">
        <ele>355.6</ele>
        <time>2022-06-25T15:33:42Z</time>
      </trkpt>
      <trkpt lat="46.11265" lon="4.66445">
        <ele>355.6</ele>
        <time>2022-06-25T15:33:43Z</time>
      </trkpt>
      <trkpt lat="46.11262" lon="4.66446">
        <ele>356</ele>
        <time>2022-06-25T15:33:44Z</time>
      </trkpt>
      <trkpt lat="46.1126" lon="4.66447">
        <ele>356.2</ele>
        <time>2022-06-25T15:33:45Z</time>
      </trkpt>
      <trkpt lat="46.11258" lon="4.66448">
        <ele>356.4</ele>
        <time>2022-06-25T15:33:46Z</time>
      </trkpt>
      <trkpt lat="46.11255" lon="4.66449">
        <ele>356.8</ele>
        <time>2022-06-25T15:33:47Z</time>
      </trkpt>
      <trkpt lat="46.11253" lon="4.6645">
        <ele>357</ele>
        <time>2022-06-25T15:33:48Z</time>
      </trkpt>
      <trkpt lat="46.11251" lon="4.66451">
        <ele>357</ele>
        <time>2022-06-25T15:33:49Z</time>
      </trkpt>
      <trkpt lat="46.11248" lon="4.66453">
        <ele>357.6</ele>
        <time>2022-06-25T15:33:50Z</time>
      </trkpt>
      <trkpt lat="46.11246" lon="4.66454">
        <ele>357.8</ele>
        <time>2022-06-25T15:33:51Z</time>
      </trkpt>
      <trkpt lat="46.11243" lon="4.66455">
        <ele>358</ele>
        <time>2022-06-25T15:33:52Z</time>
      </trkpt>
      <trkpt lat="46.11241" lon="4.66456">
        <ele>358.4</ele>
        <time>2022-06-25T15:33:53Z</time>
      </trkpt>
      <trkpt lat="46.11236" lon="4.6646">
        <ele>358.6</ele>
        <time>2022-06-25T15:33:54Z</time>
      </trkpt>
      <trkpt lat="46.11233" lon="4.66462">
        <ele>358.8</ele>
        <time>2022-06-25T15:33:55Z</time>
      </trkpt>
      <trkpt lat="46.11231" lon="4.66464">
        <ele>359</ele>
        <time>2022-06-25T15:33:56Z</time>
      </trkpt>
      <trkpt lat="46.11228" lon="4.66465">
        <ele>359.4</ele>
        <time>2022-06-25T15:33:57Z</time>
      </trkpt>
      <trkpt lat="46.11225" lon="4.66466">
        <ele>359.6</ele>
        <time>2022-06-25T15:33:58Z</time>
      </trkpt>
      <trkpt lat="46.11223" lon="4.66467">
        <ele>359.8</ele>
        <time>2022-06-25T15:33:59Z</time>
      </trkpt>
      <trkpt lat="46.1122" lon="4.66468">
        <ele>359.8</ele>
        <time>2022-06-25T15:34:00Z</time>
      </trkpt>
      <trkpt lat="46.11218" lon="4.66469">
        <ele>360.2</ele>
        <time>2022-06-25T15:34:01Z</time>
      </trkpt>
      <trkpt lat="46.11216" lon="4.6647">
        <ele>360.2</ele>
        <time>2022-06-25T15:34:02Z</time>
      </trkpt>
      <trkpt lat="46.11213" lon="4.66471">
        <ele>360.6</ele>
        <time>2022-06-25T15:34:03Z</time>
      </trkpt>
      <trkpt lat="46.1121" lon="4.66471">
        <ele>360.6</ele>
        <time>2022-06-25T15:34:04Z</time>
      </trkpt>
      <trkpt lat="46.11208" lon="4.66471">
        <ele>360.8</ele>
        <time>2022-06-25T15:34:05Z</time>
      </trkpt>
      <trkpt lat="46.11206" lon="4.66471">
        <ele>360.8</ele>
        <time>2022-06-25T15:34:06Z</time>
      </trkpt>
      <trkpt lat="46.11205" lon="4.66472">
        <ele>361.2</ele>
        <time>2022-06-25T15:34:07Z</time>
      </trkpt>
      <trkpt lat="46.11202" lon="4.66472">
        <ele>361.2</ele>
        <time>2022-06-25T15:34:08Z</time>
      </trkpt>
      <trkpt lat="46.11199" lon="4.66474">
        <ele>361.6</ele>
        <time>2022-06-25T15:34:09Z</time>
      </trkpt>
      <trkpt lat="46.11196" lon="4.66475">
        <ele>361.6</ele>
        <time>2022-06-25T15:34:10Z</time>
      </trkpt>
      <trkpt lat="46.11194" lon="4.66475">
        <ele>361.8</ele>
        <time>2022-06-25T15:34:11Z</time>
      </trkpt>
      <trkpt lat="46.11191" lon="4.66476">
        <ele>361.8</ele>
        <time>2022-06-25T15:34:12Z</time>
      </trkpt>
      <trkpt lat="46.11187" lon="4.66477">
        <ele>362.2</ele>
        <time>2022-06-25T15:34:13Z</time>
      </trkpt>
      <trkpt lat="46.11184" lon="4.66478">
        <ele>362.2</ele>
        <time>2022-06-25T15:34:14Z</time>
      </trkpt>
      <trkpt lat="46.11181" lon="4.66478">
        <ele>362.2</ele>
        <time>2022-06-25T15:34:15Z</time>
      </trkpt>
      <trkpt lat="46.11178" lon="4.66479">
        <ele>362.4</ele>
        <time>2022-06-25T15:34:16Z</time>
      </trkpt>
      <trkpt lat="46.11174" lon="4.6648">
        <ele>362.4</ele>
        <time>2022-06-25T15:34:17Z</time>
      </trkpt>
      <trkpt lat="46.11171" lon="4.6648">
        <ele>362.4</ele>
        <time>2022-06-25T15:34:18Z</time>
      </trkpt>
      <trkpt lat="46.11167" lon="4.66481">
        <ele>362.4</ele>
        <time>2022-06-25T15:34:19Z</time>
      </trkpt>
      <trkpt lat="46.11163" lon="4.66481">
        <ele>362.6</ele>
        <time>2022-06-25T15:34:20Z</time>
      </trkpt>
      <trkpt lat="46.1116" lon="4.66482">
        <ele>362.6</ele>
        <time>2022-06-25T15:34:21Z</time>
      </trkpt>
      <trkpt lat="46.11156" lon="4.66483">
        <ele>362.6</ele>
        <time>2022-06-25T15:34:22Z</time>
      </trkpt>
      <trkpt lat="46.11152" lon="4.66484">
        <ele>362.6</ele>
        <time>2022-06-25T15:34:23Z</time>
      </trkpt>
      <trkpt lat="46.11148" lon="4.66484">
        <ele>362.6</ele>
        <time>2022-06-25T15:34:24Z</time>
      </trkpt>
      <trkpt lat="46.11144" lon="4.66484">
        <ele>362.6</ele>
        <time>2022-06-25T15:34:25Z</time>
      </trkpt>
      <trkpt lat="46.1114" lon="4.66484">
        <ele>362.6</ele>
        <time>2022-06-25T15:34:26Z</time>
      </trkpt>
      <trkpt lat="46.11136" lon="4.66483">
        <ele>362.6</ele>
        <time>2022-06-25T15:34:27Z</time>
      </trkpt>
      <trkpt lat="46.11132" lon="4.66482">
        <ele>362.8</ele>
        <time>2022-06-25T15:34:28Z</time>
      </trkpt>
      <trkpt lat="46.11128" lon="4.6648">
        <ele>362.8</ele>
        <time>2022-06-25T15:34:29Z</time>
      </trkpt>
      <trkpt lat="46.11125" lon="4.66476">
        <ele>363.2</ele>
        <time>2022-06-25T15:34:30Z</time>
      </trkpt>
      <trkpt lat="46.11122" lon="4.66473">
        <ele>363.2</ele>
        <time>2022-06-25T15:34:31Z</time>
      </trkpt>
      <trkpt lat="46.1112" lon="4.66469">
        <ele>363.6</ele>
        <time>2022-06-25T15:34:32Z</time>
      </trkpt>
      <trkpt lat="46.11117" lon="4.66465">
        <ele>363.6</ele>
        <time>2022-06-25T15:34:33Z</time>
      </trkpt>
      <trkpt lat="46.11115" lon="4.66462">
        <ele>364</ele>
        <time>2022-06-25T15:34:34Z</time>
      </trkpt>
      <trkpt lat="46.11113" lon="4.66459">
        <ele>364</ele>
        <time>2022-06-25T15:34:35Z</time>
      </trkpt>
      <trkpt lat="46.11111" lon="4.66456">
        <ele>364.4</ele>
        <time>2022-06-25T15:34:36Z</time>
      </trkpt>
      <trkpt lat="46.11109" lon="4.66453">
        <ele>364.8</ele>
        <time>2022-06-25T15:34:37Z</time>
      </trkpt>
      <trkpt lat="46.11106" lon="4.66448">
        <ele>365</ele>
        <time>2022-06-25T15:34:38Z</time>
      </trkpt>
      <trkpt lat="46.11104" lon="4.66445">
        <ele>365.2</ele>
        <time>2022-06-25T15:34:39Z</time>
      </trkpt>
      <trkpt lat="46.11103" lon="4.66443">
        <ele>365.4</ele>
        <time>2022-06-25T15:34:40Z</time>
      </trkpt>
      <trkpt lat="46.11101" lon="4.66441">
        <ele>365.6</ele>
        <time>2022-06-25T15:34:41Z</time>
      </trkpt>
      <trkpt lat="46.11099" lon="4.66438">
        <ele>365.8</ele>
        <time>2022-06-25T15:34:42Z</time>
      </trkpt>
      <trkpt lat="46.11098" lon="4.66435">
        <ele>366.2</ele>
        <time>2022-06-25T15:34:43Z</time>
      </trkpt>
      <trkpt lat="46.11097" lon="4.66432">
        <ele>366.4</ele>
        <time>2022-06-25T15:34:44Z</time>
      </trkpt>
      <trkpt lat="46.11096" lon="4.66429">
        <ele>366.6</ele>
        <time>2022-06-25T15:34:45Z</time>
      </trkpt>
      <trkpt lat="46.11095" lon="4.66426">
        <ele>366.6</ele>
        <time>2022-06-25T15:34:46Z</time>
      </trkpt>
      <trkpt lat="46.11093" lon="4.66423">
        <ele>367</ele>
        <time>2022-06-25T15:34:47Z</time>
      </trkpt>
      <trkpt lat="46.11092" lon="4.66421">
        <ele>367</ele>
        <time>2022-06-25T15:34:48Z</time>
      </trkpt>
      <trkpt lat="46.1109" lon="4.66418">
        <ele>367.4</ele>
        <time>2022-06-25T15:34:49Z</time>
      </trkpt>
      <trkpt lat="46.11089" lon="4.66415">
        <ele>367.4</ele>
        <time>2022-06-25T15:34:50Z</time>
      </trkpt>
      <trkpt lat="46.11088" lon="4.66413">
        <ele>367.6</ele>
        <time>2022-06-25T15:34:51Z</time>
      </trkpt>
      <trkpt lat="46.11086" lon="4.6641">
        <ele>368</ele>
        <time>2022-06-25T15:34:52Z</time>
      </trkpt>
      <trkpt lat="46.11085" lon="4.66407">
        <ele>368.2</ele>
        <time>2022-06-25T15:34:53Z</time>
      </trkpt>
      <trkpt lat="46.11083" lon="4.66405">
        <ele>368.2</ele>
        <time>2022-06-25T15:34:54Z</time>
      </trkpt>
      <trkpt lat="46.11082" lon="4.66402">
        <ele>368.6</ele>
        <time>2022-06-25T15:34:55Z</time>
      </trkpt>
      <trkpt lat="46.11081" lon="4.664">
        <ele>368.8</ele>
        <time>2022-06-25T15:34:56Z</time>
      </trkpt>
      <trkpt lat="46.1108" lon="4.66397">
        <ele>369</ele>
        <time>2022-06-25T15:34:57Z</time>
      </trkpt>
      <trkpt lat="46.11079" lon="4.66394">
        <ele>369</ele>
        <time>2022-06-25T15:34:58Z</time>
      </trkpt>
      <trkpt lat="46.11078" lon="4.66391">
        <ele>369.4</ele>
        <time>2022-06-25T15:34:59Z</time>
      </trkpt>
      <trkpt lat="46.11077" lon="4.66388">
        <ele>369.6</ele>
        <time>2022-06-25T15:35:00Z</time>
      </trkpt>
      <trkpt lat="46.11076" lon="4.66386">
        <ele>369.6</ele>
        <time>2022-06-25T15:35:01Z</time>
      </trkpt>
      <trkpt lat="46.11075" lon="4.66383">
        <ele>370</ele>
        <time>2022-06-25T15:35:02Z</time>
      </trkpt>
      <trkpt lat="46.11074" lon="4.66381">
        <ele>370.2</ele>
        <time>2022-06-25T15:35:03Z</time>
      </trkpt>
      <trkpt lat="46.11072" lon="4.66378">
        <ele>370.2</ele>
        <time>2022-06-25T15:35:04Z</time>
      </trkpt>
      <trkpt lat="46.11071" lon="4.66376">
        <ele>370.4</ele>
        <time>2022-06-25T15:35:05Z</time>
      </trkpt>
      <trkpt lat="46.1107" lon="4.66373">
        <ele>370.6</ele>
        <time>2022-06-25T15:35:06Z</time>
      </trkpt>
      <trkpt lat="46.11069" lon="4.6637">
        <ele>370.6</ele>
        <time>2022-06-25T15:35:07Z</time>
      </trkpt>
      <trkpt lat="46.11068" lon="4.66367">
        <ele>371</ele>
        <time>2022-06-25T15:35:08Z</time>
      </trkpt>
      <trkpt lat="46.11067" lon="4.66364">
        <ele>371.2</ele>
        <time>2022-06-25T15:35:09Z</time>
      </trkpt>
      <trkpt lat="46.11066" lon="4.66361">
        <ele>371.6</ele>
        <time>2022-06-25T15:35:10Z</time>
      </trkpt>
      <trkpt lat="46.11065" lon="4.66357">
        <ele>371.6</ele>
        <time>2022-06-25T15:35:11Z</time>
      </trkpt>
      <trkpt lat="46.11065" lon="4.66354">
        <ele>372</ele>
        <time>2022-06-25T15:35:12Z</time>
      </trkpt>
      <trkpt lat="46.11064" lon="4.66351">
        <ele>372</ele>
        <time>2022-06-25T15:35:13Z</time>
      </trkpt>
      <trkpt lat="46.11062" lon="4.66348">
        <ele>372.4</ele>
        <time>2022-06-25T15:35:14Z</time>
      </trkpt>
      <trkpt lat="46.11061" lon="4.66344">
        <ele>372.4</ele>
        <time>2022-06-25T15:35:15Z</time>
      </trkpt>
      <trkpt lat="46.1106" lon="4.66341">
        <ele>372.8</ele>
        <time>2022-06-25T15:35:16Z</time>
      </trkpt>
      <trkpt lat="46.11058" lon="4.66339">
        <ele>372.8</ele>
        <time>2022-06-25T15:35:17Z</time>
      </trkpt>
      <trkpt lat="46.11057" lon="4.66335">
        <ele>373.2</ele>
        <time>2022-06-25T15:35:18Z</time>
      </trkpt>
      <trkpt lat="46.11056" lon="4.66332">
        <ele>373.2</ele>
        <time>2022-06-25T15:35:19Z</time>
      </trkpt>
      <trkpt lat="46.11055" lon="4.66329">
        <ele>373.6</ele>
        <time>2022-06-25T15:35:20Z</time>
      </trkpt>
      <trkpt lat="46.11054" lon="4.66326">
        <ele>373.6</ele>
        <time>2022-06-25T15:35:21Z</time>
      </trkpt>
      <trkpt lat="46.11053" lon="4.66322">
        <ele>374</ele>
        <time>2022-06-25T15:35:22Z</time>
      </trkpt>
      <trkpt lat="46.11052" lon="4.66319">
        <ele>374.2</ele>
        <time>2022-06-25T15:35:23Z</time>
      </trkpt>
      <trkpt lat="46.11051" lon="4.66316">
        <ele>374.4</ele>
        <time>2022-06-25T15:35:24Z</time>
      </trkpt>
      <trkpt lat="46.1105" lon="4.66313">
        <ele>374.4</ele>
        <time>2022-06-25T15:35:25Z</time>
      </trkpt>
      <trkpt lat="46.11049" lon="4.66309">
        <ele>374.6</ele>
        <time>2022-06-25T15:35:26Z</time>
      </trkpt>
      <trkpt lat="46.11048" lon="4.66306">
        <ele>374.6</ele>
        <time>2022-06-25T15:35:27Z</time>
      </trkpt>
      <trkpt lat="46.11047" lon="4.66302">
        <ele>374.6</ele>
        <time>2022-06-25T15:35:28Z</time>
      </trkpt>
      <trkpt lat="46.11045" lon="4.66299">
        <ele>375</ele>
        <time>2022-06-25T15:35:29Z</time>
      </trkpt>
      <trkpt lat="46.11044" lon="4.66296">
        <ele>375</ele>
        <time>2022-06-25T15:35:30Z</time>
      </trkpt>
      <trkpt lat="46.11043" lon="4.66293">
        <ele>375.4</ele>
        <time>2022-06-25T15:35:31Z</time>
      </trkpt>
      <trkpt lat="46.11042" lon="4.6629">
        <ele>375.4</ele>
        <time>2022-06-25T15:35:32Z</time>
      </trkpt>
      <trkpt lat="46.1104" lon="4.66286">
        <ele>375.6</ele>
        <time>2022-06-25T15:35:33Z</time>
      </trkpt>
      <trkpt lat="46.11039" lon="4.66283">
        <ele>375.8</ele>
        <time>2022-06-25T15:35:34Z</time>
      </trkpt>
      <trkpt lat="46.11038" lon="4.6628">
        <ele>375.8</ele>
        <time>2022-06-25T15:35:35Z</time>
      </trkpt>
      <trkpt lat="46.11036" lon="4.66277">
        <ele>376.2</ele>
        <time>2022-06-25T15:35:36Z</time>
      </trkpt>
      <trkpt lat="46.11035" lon="4.66274">
        <ele>376.4</ele>
        <time>2022-06-25T15:35:37Z</time>
      </trkpt>
      <trkpt lat="46.11034" lon="4.66271">
        <ele>376.4</ele>
        <time>2022-06-25T15:35:38Z</time>
      </trkpt>
      <trkpt lat="46.11033" lon="4.66268">
        <ele>376.6</ele>
        <time>2022-06-25T15:35:39Z</time>
      </trkpt>
      <trkpt lat="46.11032" lon="4.66265">
        <ele>376.6</ele>
        <time>2022-06-25T15:35:40Z</time>
      </trkpt>
      <trkpt lat="46.11031" lon="4.66261">
        <ele>377</ele>
        <time>2022-06-25T15:35:41Z</time>
      </trkpt>
      <trkpt lat="46.1103" lon="4.66258">
        <ele>377.2</ele>
        <time>2022-06-25T15:35:42Z</time>
      </trkpt>
      <trkpt lat="46.11029" lon="4.66255">
        <ele>377.4</ele>
        <time>2022-06-25T15:35:43Z</time>
      </trkpt>
      <trkpt lat="46.11028" lon="4.66251">
        <ele>377.8</ele>
        <time>2022-06-25T15:35:44Z</time>
      </trkpt>
      <trkpt lat="46.11027" lon="4.66248">
        <ele>378</ele>
        <time>2022-06-25T15:35:45Z</time>
      </trkpt>
      <trkpt lat="46.11027" lon="4.66245">
        <ele>378</ele>
        <time>2022-06-25T15:35:46Z</time>
      </trkpt>
      <trkpt lat="46.11026" lon="4.66242">
        <ele>378.2</ele>
        <time>2022-06-25T15:35:47Z</time>
      </trkpt>
      <trkpt lat="46.11025" lon="4.66239">
        <ele>378.4</ele>
        <time>2022-06-25T15:35:48Z</time>
      </trkpt>
      <trkpt lat="46.11024" lon="4.66236">
        <ele>378.8</ele>
        <time>2022-06-25T15:35:49Z</time>
      </trkpt>
      <trkpt lat="46.11024" lon="4.66233">
        <ele>379</ele>
        <time>2022-06-25T15:35:50Z</time>
      </trkpt>
      <trkpt lat="46.11024" lon="4.66231">
        <ele>379.4</ele>
        <time>2022-06-25T15:35:51Z</time>
      </trkpt>
      <trkpt lat="46.11023" lon="4.66228">
        <ele>379.6</ele>
        <time>2022-06-25T15:35:52Z</time>
      </trkpt>
      <trkpt lat="46.11023" lon="4.66225">
        <ele>379.6</ele>
        <time>2022-06-25T15:35:53Z</time>
      </trkpt>
      <trkpt lat="46.11022" lon="4.66222">
        <ele>379.8</ele>
        <time>2022-06-25T15:35:54Z</time>
      </trkpt>
      <trkpt lat="46.11022" lon="4.6622">
        <ele>380.2</ele>
        <time>2022-06-25T15:35:55Z</time>
      </trkpt>
      <trkpt lat="46.11021" lon="4.66217">
        <ele>380.4</ele>
        <time>2022-06-25T15:35:56Z</time>
      </trkpt>
      <trkpt lat="46.11021" lon="4.66214">
        <ele>380.6</ele>
        <time>2022-06-25T15:35:57Z</time>
      </trkpt>
      <trkpt lat="46.1102" lon="4.66212">
        <ele>380.8</ele>
        <time>2022-06-25T15:35:58Z</time>
      </trkpt>
      <trkpt lat="46.1102" lon="4.66209">
        <ele>381.2</ele>
        <time>2022-06-25T15:35:59Z</time>
      </trkpt>
      <trkpt lat="46.1102" lon="4.66207">
        <ele>381.4</ele>
        <time>2022-06-25T15:36:00Z</time>
      </trkpt>
      <trkpt lat="46.11019" lon="4.66204">
        <ele>381.6</ele>
        <time>2022-06-25T15:36:01Z</time>
      </trkpt>
      <trkpt lat="46.11019" lon="4.66201">
        <ele>382</ele>
        <time>2022-06-25T15:36:02Z</time>
      </trkpt>
      <trkpt lat="46.11019" lon="4.66199">
        <ele>382.2</ele>
        <time>2022-06-25T15:36:03Z</time>
      </trkpt>
      <trkpt lat="46.11018" lon="4.66196">
        <ele>382.4</ele>
        <time>2022-06-25T15:36:04Z</time>
      </trkpt>
      <trkpt lat="46.11017" lon="4.66194">
        <ele>382.6</ele>
        <time>2022-06-25T15:36:05Z</time>
      </trkpt>
      <trkpt lat="46.11017" lon="4.66191">
        <ele>382.8</ele>
        <time>2022-06-25T15:36:06Z</time>
      </trkpt>
      <trkpt lat="46.11016" lon="4.66189">
        <ele>383</ele>
        <time>2022-06-25T15:36:07Z</time>
      </trkpt>
      <trkpt lat="46.11016" lon="4.66187">
        <ele>383.4</ele>
        <time>2022-06-25T15:36:08Z</time>
      </trkpt>
      <trkpt lat="46.11015" lon="4.66184">
        <ele>383.6</ele>
        <time>2022-06-25T15:36:09Z</time>
      </trkpt>
      <trkpt lat="46.11015" lon="4.66182">
        <ele>383.8</ele>
        <time>2022-06-25T15:36:10Z</time>
      </trkpt>
      <trkpt lat="46.11015" lon="4.6618">
        <ele>384</ele>
        <time>2022-06-25T15:36:11Z</time>
      </trkpt>
      <trkpt lat="46.11014" lon="4.66177">
        <ele>384.2</ele>
        <time>2022-06-25T15:36:12Z</time>
      </trkpt>
      <trkpt lat="46.11014" lon="4.66175">
        <ele>384.2</ele>
        <time>2022-06-25T15:36:13Z</time>
      </trkpt>
      <trkpt lat="46.11013" lon="4.66172">
        <ele>384.6</ele>
        <time>2022-06-25T15:36:14Z</time>
      </trkpt>
      <trkpt lat="46.11013" lon="4.6617">
        <ele>384.8</ele>
        <time>2022-06-25T15:36:15Z</time>
      </trkpt>
      <trkpt lat="46.11012" lon="4.66168">
        <ele>385.2</ele>
        <time>2022-06-25T15:36:16Z</time>
      </trkpt>
      <trkpt lat="46.11012" lon="4.66165">
        <ele>385.4</ele>
        <time>2022-06-25T15:36:17Z</time>
      </trkpt>
      <trkpt lat="46.11012" lon="4.66163">
        <ele>385.6</ele>
        <time>2022-06-25T15:36:18Z</time>
      </trkpt>
      <trkpt lat="46.11011" lon="4.6616">
        <ele>385.8</ele>
        <time>2022-06-25T15:36:19Z</time>
      </trkpt>
      <trkpt lat="46.11011" lon="4.66158">
        <ele>386.2</ele>
        <time>2022-06-25T15:36:20Z</time>
      </trkpt>
      <trkpt lat="46.11011" lon="4.66155">
        <ele>386.4</ele>
        <time>2022-06-25T15:36:21Z</time>
      </trkpt>
      <trkpt lat="46.11011" lon="4.66153">
        <ele>386.6</ele>
        <time>2022-06-25T15:36:22Z</time>
      </trkpt>
      <trkpt lat="46.1101" lon="4.6615">
        <ele>387</ele>
        <time>2022-06-25T15:36:23Z</time>
      </trkpt>
      <trkpt lat="46.1101" lon="4.66148">
        <ele>387.2</ele>
        <time>2022-06-25T15:36:24Z</time>
      </trkpt>
      <trkpt lat="46.1101" lon="4.66145">
        <ele>387.4</ele>
        <time>2022-06-25T15:36:25Z</time>
      </trkpt>
      <trkpt lat="46.11009" lon="4.66143">
        <ele>387.6</ele>
        <time>2022-06-25T15:36:26Z</time>
      </trkpt>
      <trkpt lat="46.11009" lon="4.66141">
        <ele>388</ele>
        <time>2022-06-25T15:36:27Z</time>
      </trkpt>
      <trkpt lat="46.11009" lon="4.66138">
        <ele>388.2</ele>
        <time>2022-06-25T15:36:28Z</time>
      </trkpt>
      <trkpt lat="46.11008" lon="4.66136">
        <ele>388.4</ele>
        <time>2022-06-25T15:36:29Z</time>
      </trkpt>
      <trkpt lat="46.11008" lon="4.66134">
        <ele>388.6</ele>
        <time>2022-06-25T15:36:30Z</time>
      </trkpt>
      <trkpt lat="46.11008" lon="4.66131">
        <ele>388.6</ele>
        <time>2022-06-25T15:36:31Z</time>
      </trkpt>
      <trkpt lat="46.11008" lon="4.66129">
        <ele>389</ele>
        <time>2022-06-25T15:36:32Z</time>
      </trkpt>
      <trkpt lat="46.11008" lon="4.66127">
        <ele>389.2</ele>
        <time>2022-06-25T15:36:33Z</time>
      </trkpt>
      <trkpt lat="46.11008" lon="4.66125">
        <ele>389.4</ele>
        <time>2022-06-25T15:36:34Z</time>
      </trkpt>
      <trkpt lat="46.11008" lon="4.66122">
        <ele>389.4</ele>
        <time>2022-06-25T15:36:35Z</time>
      </trkpt>
      <trkpt lat="46.11007" lon="4.6612">
        <ele>389.8</ele>
        <time>2022-06-25T15:36:36Z</time>
      </trkpt>
      <trkpt lat="46.11007" lon="4.66117">
        <ele>390.2</ele>
        <time>2022-06-25T15:36:37Z</time>
      </trkpt>
      <trkpt lat="46.11007" lon="4.66115">
        <ele>390.4</ele>
        <time>2022-06-25T15:36:38Z</time>
      </trkpt>
      <trkpt lat="46.11007" lon="4.66112">
        <ele>390.6</ele>
        <time>2022-06-25T15:36:39Z</time>
      </trkpt>
      <trkpt lat="46.11006" lon="4.6611">
        <ele>390.8</ele>
        <time>2022-06-25T15:36:40Z</time>
      </trkpt>
      <trkpt lat="46.11006" lon="4.66108">
        <ele>391</ele>
        <time>2022-06-25T15:36:41Z</time>
      </trkpt>
      <trkpt lat="46.11006" lon="4.66105">
        <ele>391.4</ele>
        <time>2022-06-25T15:36:42Z</time>
      </trkpt>
      <trkpt lat="46.11006" lon="4.66103">
        <ele>391.6</ele>
        <time>2022-06-25T15:36:43Z</time>
      </trkpt>
      <trkpt lat="46.11006" lon="4.66101">
        <ele>391.8</ele>
        <time>2022-06-25T15:36:44Z</time>
      </trkpt>
      <trkpt lat="46.11006" lon="4.66098">
        <ele>392</ele>
        <time>2022-06-25T15:36:45Z</time>
      </trkpt>
      <trkpt lat="46.11006" lon="4.66096">
        <ele>392.2</ele>
        <time>2022-06-25T15:36:46Z</time>
      </trkpt>
      <trkpt lat="46.11005" lon="4.66093">
        <ele>392.6</ele>
        <time>2022-06-25T15:36:47Z</time>
      </trkpt>
      <trkpt lat="46.11005" lon="4.66091">
        <ele>393</ele>
        <time>2022-06-25T15:36:48Z</time>
      </trkpt>
      <trkpt lat="46.11005" lon="4.66089">
        <ele>393.2</ele>
        <time>2022-06-25T15:36:49Z</time>
      </trkpt>
      <trkpt lat="46.11004" lon="4.66086">
        <ele>393.4</ele>
        <time>2022-06-25T15:36:50Z</time>
      </trkpt>
      <trkpt lat="46.11004" lon="4.66084">
        <ele>393.8</ele>
        <time>2022-06-25T15:36:51Z</time>
      </trkpt>
      <trkpt lat="46.11004" lon="4.66082">
        <ele>394</ele>
        <time>2022-06-25T15:36:52Z</time>
      </trkpt>
      <trkpt lat="46.11004" lon="4.6608">
        <ele>394.4</ele>
        <time>2022-06-25T15:36:53Z</time>
      </trkpt>
      <trkpt lat="46.11004" lon="4.66077">
        <ele>394.6</ele>
        <time>2022-06-25T15:36:54Z</time>
      </trkpt>
      <trkpt lat="46.11004" lon="4.66075">
        <ele>395</ele>
        <time>2022-06-25T15:36:55Z</time>
      </trkpt>
      <trkpt lat="46.11004" lon="4.66073">
        <ele>395.2</ele>
        <time>2022-06-25T15:36:56Z</time>
      </trkpt>
      <trkpt lat="46.11005" lon="4.66071">
        <ele>395.6</ele>
        <time>2022-06-25T15:36:57Z</time>
      </trkpt>
      <trkpt lat="46.11006" lon="4.66069">
        <ele>395.8</ele>
        <time>2022-06-25T15:36:58Z</time>
      </trkpt>
      <trkpt lat="46.11008" lon="4.66068">
        <ele>396</ele>
        <time>2022-06-25T15:36:59Z</time>
      </trkpt>
      <trkpt lat="46.11009" lon="4.66067">
        <ele>396.4</ele>
        <time>2022-06-25T15:37:00Z</time>
      </trkpt>
      <trkpt lat="46.11011" lon="4.66067">
        <ele>396.4</ele>
        <time>2022-06-25T15:37:01Z</time>
      </trkpt>
      <trkpt lat="46.11012" lon="4.66069">
        <ele>396.8</ele>
        <time>2022-06-25T15:37:02Z</time>
      </trkpt>
      <trkpt lat="46.11014" lon="4.66071">
        <ele>397</ele>
        <time>2022-06-25T15:37:03Z</time>
      </trkpt>
      <trkpt lat="46.11015" lon="4.66073">
        <ele>397</ele>
        <time>2022-06-25T15:37:04Z</time>
      </trkpt>
      <trkpt lat="46.11017" lon="4.66075">
        <ele>397.2</ele>
        <time>2022-06-25T15:37:05Z</time>
      </trkpt>
      <trkpt lat="46.11018" lon="4.66077">
        <ele>397.4</ele>
        <time>2022-06-25T15:37:06Z</time>
      </trkpt>
      <trkpt lat="46.11019" lon="4.66079">
        <ele>397.8</ele>
        <time>2022-06-25T15:37:07Z</time>
      </trkpt>
      <trkpt lat="46.11021" lon="4.66082">
        <ele>397.8</ele>
        <time>2022-06-25T15:37:08Z</time>
      </trkpt>
      <trkpt lat="46.11022" lon="4.66084">
        <ele>398</ele>
        <time>2022-06-25T15:37:09Z</time>
      </trkpt>
      <trkpt lat="46.11024" lon="4.66086">
        <ele>398</ele>
        <time>2022-06-25T15:37:10Z</time>
      </trkpt>
      <trkpt lat="46.11025" lon="4.66088">
        <ele>398.4</ele>
        <time>2022-06-25T15:37:11Z</time>
      </trkpt>
      <trkpt lat="46.11026" lon="4.6609">
        <ele>398.4</ele>
        <time>2022-06-25T15:37:12Z</time>
      </trkpt>
      <trkpt lat="46.11028" lon="4.66093">
        <ele>398.6</ele>
        <time>2022-06-25T15:37:13Z</time>
      </trkpt>
      <trkpt lat="46.11029" lon="4.66096">
        <ele>398.6</ele>
        <time>2022-06-25T15:37:14Z</time>
      </trkpt>
      <trkpt lat="46.1103" lon="4.66098">
        <ele>399</ele>
        <time>2022-06-25T15:37:15Z</time>
      </trkpt>
      <trkpt lat="46.11032" lon="4.66101">
        <ele>399.2</ele>
        <time>2022-06-25T15:37:16Z</time>
      </trkpt>
      <trkpt lat="46.11033" lon="4.66103">
        <ele>399.4</ele>
        <time>2022-06-25T15:37:17Z</time>
      </trkpt>
      <trkpt lat="46.11035" lon="4.66106">
        <ele>399.4</ele>
        <time>2022-06-25T15:37:18Z</time>
      </trkpt>
      <trkpt lat="46.11037" lon="4.66108">
        <ele>399.8</ele>
        <time>2022-06-25T15:37:19Z</time>
      </trkpt>
      <trkpt lat="46.11038" lon="4.6611">
        <ele>399.8</ele>
        <time>2022-06-25T15:37:20Z</time>
      </trkpt>
      <trkpt lat="46.1104" lon="4.66112">
        <ele>400.2</ele>
        <time>2022-06-25T15:37:21Z</time>
      </trkpt>
      <trkpt lat="46.11041" lon="4.66115">
        <ele>400.2</ele>
        <time>2022-06-25T15:37:22Z</time>
      </trkpt>
      <trkpt lat="46.11042" lon="4.66117">
        <ele>400.6</ele>
        <time>2022-06-25T15:37:23Z</time>
      </trkpt>
      <trkpt lat="46.11043" lon="4.66119">
        <ele>400.8</ele>
        <time>2022-06-25T15:37:24Z</time>
      </trkpt>
      <trkpt lat="46.11045" lon="4.66121">
        <ele>401</ele>
        <time>2022-06-25T15:37:25Z</time>
      </trkpt>
      <trkpt lat="46.11046" lon="4.66124">
        <ele>401</ele>
        <time>2022-06-25T15:37:26Z</time>
      </trkpt>
      <trkpt lat="46.11048" lon="4.66126">
        <ele>401.4</ele>
        <time>2022-06-25T15:37:27Z</time>
      </trkpt>
      <trkpt lat="46.11049" lon="4.66128">
        <ele>401.4</ele>
        <time>2022-06-25T15:37:28Z</time>
      </trkpt>
      <trkpt lat="46.1105" lon="4.6613">
        <ele>401.8</ele>
        <time>2022-06-25T15:37:29Z</time>
      </trkpt>
      <trkpt lat="46.11051" lon="4.66133">
        <ele>401.8</ele>
        <time>2022-06-25T15:37:30Z</time>
      </trkpt>
      <trkpt lat="46.11052" lon="4.66135">
        <ele>402</ele>
        <time>2022-06-25T15:37:31Z</time>
      </trkpt>
      <trkpt lat="46.11053" lon="4.66138">
        <ele>402.2</ele>
        <time>2022-06-25T15:37:32Z</time>
      </trkpt>
      <trkpt lat="46.11055" lon="4.6614">
        <ele>402.2</ele>
        <time>2022-06-25T15:37:33Z</time>
      </trkpt>
      <trkpt lat="46.11057" lon="4.66143">
        <ele>402.6</ele>
        <time>2022-06-25T15:37:34Z</time>
      </trkpt>
      <trkpt lat="46.11058" lon="4.66145">
        <ele>402.6</ele>
        <time>2022-06-25T15:37:35Z</time>
      </trkpt>
      <trkpt lat="46.1106" lon="4.66147">
        <ele>402.8</ele>
        <time>2022-06-25T15:37:36Z</time>
      </trkpt>
      <trkpt lat="46.11062" lon="4.66149">
        <ele>403</ele>
        <time>2022-06-25T15:37:37Z</time>
      </trkpt>
      <trkpt lat="46.11063" lon="4.66152">
        <ele>403</ele>
        <time>2022-06-25T15:37:38Z</time>
      </trkpt>
      <trkpt lat="46.11064" lon="4.66154">
        <ele>403.2</ele>
        <time>2022-06-25T15:37:39Z</time>
      </trkpt>
      <trkpt lat="46.11066" lon="4.66156">
        <ele>403.2</ele>
        <time>2022-06-25T15:37:40Z</time>
      </trkpt>
      <trkpt lat="46.11067" lon="4.66159">
        <ele>403.6</ele>
        <time>2022-06-25T15:37:41Z</time>
      </trkpt>
      <trkpt lat="46.11069" lon="4.66162">
        <ele>403.6</ele>
        <time>2022-06-25T15:37:42Z</time>
      </trkpt>
      <trkpt lat="46.1107" lon="4.66164">
        <ele>403.8</ele>
        <time>2022-06-25T15:37:43Z</time>
      </trkpt>
      <trkpt lat="46.11072" lon="4.66167">
        <ele>403.8</ele>
        <time>2022-06-25T15:37:44Z</time>
      </trkpt>
      <trkpt lat="46.11073" lon="4.66169">
        <ele>404.2</ele>
        <time>2022-06-25T15:37:45Z</time>
      </trkpt>
      <trkpt lat="46.11075" lon="4.66171">
        <ele>404.2</ele>
        <time>2022-06-25T15:37:46Z</time>
      </trkpt>
      <trkpt lat="46.11076" lon="4.66174">
        <ele>404.6</ele>
        <time>2022-06-25T15:37:47Z</time>
      </trkpt>
      <trkpt lat="46.11078" lon="4.66176">
        <ele>404.6</ele>
        <time>2022-06-25T15:37:48Z</time>
      </trkpt>
      <trkpt lat="46.11079" lon="4.66179">
        <ele>404.8</ele>
        <time>2022-06-25T15:37:49Z</time>
      </trkpt>
      <trkpt lat="46.1108" lon="4.66181">
        <ele>404.8</ele>
        <time>2022-06-25T15:37:50Z</time>
      </trkpt>
      <trkpt lat="46.11082" lon="4.66183">
        <ele>405.2</ele>
        <time>2022-06-25T15:37:51Z</time>
      </trkpt>
      <trkpt lat="46.11083" lon="4.66186">
        <ele>405.2</ele>
        <time>2022-06-25T15:37:52Z</time>
      </trkpt>
      <trkpt lat="46.11085" lon="4.66188">
        <ele>405.4</ele>
        <time>2022-06-25T15:37:53Z</time>
      </trkpt>
      <trkpt lat="46.11086" lon="4.6619">
        <ele>405.4</ele>
        <time>2022-06-25T15:37:54Z</time>
      </trkpt>
      <trkpt lat="46.11087" lon="4.66192">
        <ele>405.8</ele>
        <time>2022-06-25T15:37:55Z</time>
      </trkpt>
      <trkpt lat="46.11089" lon="4.66194">
        <ele>405.8</ele>
        <time>2022-06-25T15:37:56Z</time>
      </trkpt>
      <trkpt lat="46.11091" lon="4.66196">
        <ele>406</ele>
        <time>2022-06-25T15:37:57Z</time>
      </trkpt>
      <trkpt lat="46.11092" lon="4.66198">
        <ele>406</ele>
        <time>2022-06-25T15:37:58Z</time>
      </trkpt>
      <trkpt lat="46.11094" lon="4.662">
        <ele>406.4</ele>
        <time>2022-06-25T15:37:59Z</time>
      </trkpt>
      <trkpt lat="46.11096" lon="4.66202">
        <ele>406.6</ele>
        <time>2022-06-25T15:38:00Z</time>
      </trkpt>
      <trkpt lat="46.11098" lon="4.66203">
        <ele>407.2</ele>
        <time>2022-06-25T15:38:01Z</time>
      </trkpt>
      <trkpt lat="46.11099" lon="4.66205">
        <ele>407.2</ele>
        <time>2022-06-25T15:38:02Z</time>
      </trkpt>
      <trkpt lat="46.11101" lon="4.66206">
        <ele>407.4</ele>
        <time>2022-06-25T15:38:03Z</time>
      </trkpt>
      <trkpt lat="46.11103" lon="4.66207">
        <ele>407.8</ele>
        <time>2022-06-25T15:38:04Z</time>
      </trkpt>
      <trkpt lat="46.11105" lon="4.66208">
        <ele>408</ele>
        <time>2022-06-25T15:38:05Z</time>
      </trkpt>
      <trkpt lat="46.11107" lon="4.66209">
        <ele>408</ele>
        <time>2022-06-25T15:38:06Z</time>
      </trkpt>
      <trkpt lat="46.11108" lon="4.6621">
        <ele>408.4</ele>
        <time>2022-06-25T15:38:07Z</time>
      </trkpt>
      <trkpt lat="46.1111" lon="4.66211">
        <ele>408.6</ele>
        <time>2022-06-25T15:38:08Z</time>
      </trkpt>
      <trkpt lat="46.11112" lon="4.66212">
        <ele>408.8</ele>
        <time>2022-06-25T15:38:09Z</time>
      </trkpt>
      <trkpt lat="46.11114" lon="4.66213">
        <ele>408.8</ele>
        <time>2022-06-25T15:38:10Z</time>
      </trkpt>
      <trkpt lat="46.11116" lon="4.66214">
        <ele>409.2</ele>
        <time>2022-06-25T15:38:11Z</time>
      </trkpt>
      <trkpt lat="46.11118" lon="4.66215">
        <ele>409.4</ele>
        <time>2022-06-25T15:38:12Z</time>
      </trkpt>
      <trkpt lat="46.1112" lon="4.66215">
        <ele>409.8</ele>
        <time>2022-06-25T15:38:13Z</time>
      </trkpt>
      <trkpt lat="46.11122" lon="4.66216">
        <ele>410</ele>
        <time>2022-06-25T15:38:14Z</time>
      </trkpt>
      <trkpt lat="46.11124" lon="4.66216">
        <ele>410.2</ele>
        <time>2022-06-25T15:38:15Z</time>
      </trkpt>
      <trkpt lat="46.11126" lon="4.66217">
        <ele>410.6</ele>
        <time>2022-06-25T15:38:16Z</time>
      </trkpt>
      <trkpt lat="46.11128" lon="4.66218">
        <ele>410.8</ele>
        <time>2022-06-25T15:38:17Z</time>
      </trkpt>
      <trkpt lat="46.11131" lon="4.66218">
        <ele>411</ele>
        <time>2022-06-25T15:38:18Z</time>
      </trkpt>
      <trkpt lat="46.11133" lon="4.66219">
        <ele>411.4</ele>
        <time>2022-06-25T15:38:19Z</time>
      </trkpt>
      <trkpt lat="46.11135" lon="4.66219">
        <ele>411.6</ele>
        <time>2022-06-25T15:38:20Z</time>
      </trkpt>
      <trkpt lat="46.11136" lon="4.66218">
        <ele>411.8</ele>
        <time>2022-06-25T15:38:21Z</time>
      </trkpt>
      <trkpt lat="46.11138" lon="4.66218">
        <ele>412.2</ele>
        <time>2022-06-25T15:38:22Z</time>
      </trkpt>
      <trkpt lat="46.1114" lon="4.66217">
        <ele>412.4</ele>
        <time>2022-06-25T15:38:23Z</time>
      </trkpt>
      <trkpt lat="46.11142" lon="4.66217">
        <ele>412.6</ele>
        <time>2022-06-25T15:38:24Z</time>
      </trkpt>
      <trkpt lat="46.11144" lon="4.66216">
        <ele>412.8</ele>
        <time>2022-06-25T15:38:25Z</time>
      </trkpt>
      <trkpt lat="46.11145" lon="4.66215">
        <ele>413.2</ele>
        <time>2022-06-25T15:38:26Z</time>
      </trkpt>
      <trkpt lat="46.11146" lon="4.66213">
        <ele>413.4</ele>
        <time>2022-06-25T15:38:27Z</time>
      </trkpt>
      <trkpt lat="46.11147" lon="4.66211">
        <ele>413.6</ele>
        <time>2022-06-25T15:38:28Z</time>
      </trkpt>
      <trkpt lat="46.11148" lon="4.66209">
        <ele>413.8</ele>
        <time>2022-06-25T15:38:29Z</time>
      </trkpt>
      <trkpt lat="46.11148" lon="4.66207">
        <ele>413.8</ele>
        <time>2022-06-25T15:38:30Z</time>
      </trkpt>
      <trkpt lat="46.11148" lon="4.66204">
        <ele>414.2</ele>
        <time>2022-06-25T15:38:31Z</time>
      </trkpt>
      <trkpt lat="46.11148" lon="4.66201">
        <ele>414.4</ele>
        <time>2022-06-25T15:38:32Z</time>
      </trkpt>
      <trkpt lat="46.11148" lon="4.66198">
        <ele>414.8</ele>
        <time>2022-06-25T15:38:33Z</time>
      </trkpt>
      <trkpt lat="46.11148" lon="4.66196">
        <ele>415</ele>
        <time>2022-06-25T15:38:34Z</time>
      </trkpt>
      <trkpt lat="46.11147" lon="4.66193">
        <ele>415.2</ele>
        <time>2022-06-25T15:38:35Z</time>
      </trkpt>
      <trkpt lat="46.11147" lon="4.6619">
        <ele>415.4</ele>
        <time>2022-06-25T15:38:36Z</time>
      </trkpt>
      <trkpt lat="46.11147" lon="4.66188">
        <ele>415.8</ele>
        <time>2022-06-25T15:38:37Z</time>
      </trkpt>
      <trkpt lat="46.11147" lon="4.66185">
        <ele>416</ele>
        <time>2022-06-25T15:38:38Z</time>
      </trkpt>
      <trkpt lat="46.11147" lon="4.66182">
        <ele>416.4</ele>
        <time>2022-06-25T15:38:39Z</time>
      </trkpt>
      <trkpt lat="46.11146" lon="4.6618">
        <ele>416.6</ele>
        <time>2022-06-25T15:38:40Z</time>
      </trkpt>
      <trkpt lat="46.11146" lon="4.66178">
        <ele>416.8</ele>
        <time>2022-06-25T15:38:41Z</time>
      </trkpt>
      <trkpt lat="46.11145" lon="4.66176">
        <ele>417</ele>
        <time>2022-06-25T15:38:42Z</time>
      </trkpt>
      <trkpt lat="46.11145" lon="4.66173">
        <ele>417.2</ele>
        <time>2022-06-25T15:38:43Z</time>
      </trkpt>
      <trkpt lat="46.11144" lon="4.66171">
        <ele>417.6</ele>
        <time>2022-06-25T15:38:44Z</time>
      </trkpt>
      <trkpt lat="46.11144" lon="4.66169">
        <ele>417.8</ele>
        <time>2022-06-25T15:38:45Z</time>
      </trkpt>
      <trkpt lat="46.11143" lon="4.66167">
        <ele>418</ele>
        <time>2022-06-25T15:38:46Z</time>
      </trkpt>
      <trkpt lat="46.11142" lon="4.66164">
        <ele>418.2</ele>
        <time>2022-06-25T15:38:47Z</time>
      </trkpt>
      <trkpt lat="46.11142" lon="4.66162">
        <ele>418.4</ele>
        <time>2022-06-25T15:38:48Z</time>
      </trkpt>
      <trkpt lat="46.11142" lon="4.6616">
        <ele>418.4</ele>
        <time>2022-06-25T15:38:49Z</time>
      </trkpt>
      <trkpt lat="46.11142" lon="4.66158">
        <ele>418.8</ele>
        <time>2022-06-25T15:38:50Z</time>
      </trkpt>
      <trkpt lat="46.11142" lon="4.66155">
        <ele>419</ele>
        <time>2022-06-25T15:38:51Z</time>
      </trkpt>
      <trkpt lat="46.11143" lon="4.66153">
        <ele>419</ele>
        <time>2022-06-25T15:38:52Z</time>
      </trkpt>
      <trkpt lat="46.11143" lon="4.66151">
        <ele>419.6</ele>
        <time>2022-06-25T15:38:53Z</time>
      </trkpt>
      <trkpt lat="46.11143" lon="4.66149">
        <ele>419.6</ele>
        <time>2022-06-25T15:38:54Z</time>
      </trkpt>
      <trkpt lat="46.11144" lon="4.66147">
        <ele>419.8</ele>
        <time>2022-06-25T15:38:55Z</time>
      </trkpt>
      <trkpt lat="46.11144" lon="4.66144">
        <ele>419.8</ele>
        <time>2022-06-25T15:38:56Z</time>
      </trkpt>
      <trkpt lat="46.11144" lon="4.66142">
        <ele>420.2</ele>
        <time>2022-06-25T15:38:57Z</time>
      </trkpt>
      <trkpt lat="46.11144" lon="4.6614">
        <ele>420.4</ele>
        <time>2022-06-25T15:38:58Z</time>
      </trkpt>
      <trkpt lat="46.11145" lon="4.66138">
        <ele>420.8</ele>
        <time>2022-06-25T15:38:59Z</time>
      </trkpt>
      <trkpt lat="46.11146" lon="4.66135">
        <ele>421</ele>
        <time>2022-06-25T15:39:00Z</time>
      </trkpt>
      <trkpt lat="46.11146" lon="4.66133">
        <ele>421.2</ele>
        <time>2022-06-25T15:39:01Z</time>
      </trkpt>
      <trkpt lat="46.11146" lon="4.66131">
        <ele>421.6</ele>
        <time>2022-06-25T15:39:02Z</time>
      </trkpt>
      <trkpt lat="46.11146" lon="4.66129">
        <ele>421.6</ele>
        <time>2022-06-25T15:39:03Z</time>
      </trkpt>
      <trkpt lat="46.11146" lon="4.66126">
        <ele>421.8</ele>
        <time>2022-06-25T15:39:04Z</time>
      </trkpt>
      <trkpt lat="46.11147" lon="4.66124">
        <ele>422.2</ele>
        <time>2022-06-25T15:39:05Z</time>
      </trkpt>
      <trkpt lat="46.11147" lon="4.66122">
        <ele>422.2</ele>
        <time>2022-06-25T15:39:06Z</time>
      </trkpt>
      <trkpt lat="46.11147" lon="4.6612">
        <ele>422.4</ele>
        <time>2022-06-25T15:39:07Z</time>
      </trkpt>
      <trkpt lat="46.11148" lon="4.66118">
        <ele>422.8</ele>
        <time>2022-06-25T15:39:08Z</time>
      </trkpt>
      <trkpt lat="46.11149" lon="4.66117">
        <ele>422.8</ele>
        <time>2022-06-25T15:39:09Z</time>
      </trkpt>
      <trkpt lat="46.1115" lon="4.66115">
        <ele>423.2</ele>
        <time>2022-06-25T15:39:10Z</time>
      </trkpt>
      <trkpt lat="46.1115" lon="4.66113">
        <ele>423.6</ele>
        <time>2022-06-25T15:39:11Z</time>
      </trkpt>
      <trkpt lat="46.1115" lon="4.66111">
        <ele>423.8</ele>
        <time>2022-06-25T15:39:12Z</time>
      </trkpt>
      <trkpt lat="46.11151" lon="4.66109">
        <ele>424</ele>
        <time>2022-06-25T15:39:13Z</time>
      </trkpt>
      <trkpt lat="46.11151" lon="4.66107">
        <ele>424</ele>
        <time>2022-06-25T15:39:14Z</time>
      </trkpt>
      <trkpt lat="46.11151" lon="4.66104">
        <ele>424.4</ele>
        <time>2022-06-25T15:39:15Z</time>
      </trkpt>
      <trkpt lat="46.11151" lon="4.66102">
        <ele>424.4</ele>
        <time>2022-06-25T15:39:16Z</time>
      </trkpt>
      <trkpt lat="46.11151" lon="4.661">
        <ele>424.8</ele>
        <time>2022-06-25T15:39:17Z</time>
      </trkpt>
      <trkpt lat="46.11152" lon="4.66097">
        <ele>424.8</ele>
        <time>2022-06-25T15:39:18Z</time>
      </trkpt>
      <trkpt lat="46.11152" lon="4.66095">
        <ele>425.2</ele>
        <time>2022-06-25T15:39:19Z</time>
      </trkpt>
      <trkpt lat="46.11152" lon="4.66093">
        <ele>425.2</ele>
        <time>2022-06-25T15:39:20Z</time>
      </trkpt>
      <trkpt lat="46.11153" lon="4.6609">
        <ele>425.6</ele>
        <time>2022-06-25T15:39:21Z</time>
      </trkpt>
      <trkpt lat="46.11153" lon="4.66088">
        <ele>425.8</ele>
        <time>2022-06-25T15:39:22Z</time>
      </trkpt>
      <trkpt lat="46.11154" lon="4.66086">
        <ele>426</ele>
        <time>2022-06-25T15:39:23Z</time>
      </trkpt>
      <trkpt lat="46.11154" lon="4.66083">
        <ele>426.4</ele>
        <time>2022-06-25T15:39:24Z</time>
      </trkpt>
      <trkpt lat="46.11154" lon="4.66081">
        <ele>426.6</ele>
        <time>2022-06-25T15:39:25Z</time>
      </trkpt>
      <trkpt lat="46.11154" lon="4.66079">
        <ele>427</ele>
        <time>2022-06-25T15:39:26Z</time>
      </trkpt>
      <trkpt lat="46.11155" lon="4.66076">
        <ele>427.2</ele>
        <time>2022-06-25T15:39:27Z</time>
      </trkpt>
      <trkpt lat="46.11155" lon="4.66074">
        <ele>427.6</ele>
        <time>2022-06-25T15:39:28Z</time>
      </trkpt>
      <trkpt lat="46.11155" lon="4.66071">
        <ele>428</ele>
        <time>2022-06-25T15:39:29Z</time>
      </trkpt>
      <trkpt lat="46.11156" lon="4.66069">
        <ele>428.2</ele>
        <time>2022-06-25T15:39:30Z</time>
      </trkpt>
      <trkpt lat="46.11156" lon="4.66067">
        <ele>428.4</ele>
        <time>2022-06-25T15:39:31Z</time>
      </trkpt>
      <trkpt lat="46.11156" lon="4.66064">
        <ele>428.8</ele>
        <time>2022-06-25T15:39:32Z</time>
      </trkpt>
      <trkpt lat="46.11157" lon="4.66062">
        <ele>429.2</ele>
        <time>2022-06-25T15:39:33Z</time>
      </trkpt>
      <trkpt lat="46.11157" lon="4.66059">
        <ele>429.4</ele>
        <time>2022-06-25T15:39:34Z</time>
      </trkpt>
      <trkpt lat="46.11157" lon="4.66057">
        <ele>429.8</ele>
        <time>2022-06-25T15:39:35Z</time>
      </trkpt>
      <trkpt lat="46.11157" lon="4.66055">
        <ele>430</ele>
        <time>2022-06-25T15:39:36Z</time>
      </trkpt>
      <trkpt lat="46.11157" lon="4.66052">
        <ele>430.4</ele>
        <time>2022-06-25T15:39:37Z</time>
      </trkpt>
      <trkpt lat="46.11156" lon="4.66051">
        <ele>430.6</ele>
        <time>2022-06-25T15:39:38Z</time>
      </trkpt>
      <trkpt lat="46.11155" lon="4.66049">
        <ele>431</ele>
        <time>2022-06-25T15:39:39Z</time>
      </trkpt>
      <trkpt lat="46.11154" lon="4.66047">
        <ele>431.2</ele>
        <time>2022-06-25T15:39:40Z</time>
      </trkpt>
      <trkpt lat="46.11153" lon="4.66045">
        <ele>431.4</ele>
        <time>2022-06-25T15:39:41Z</time>
      </trkpt>
      <trkpt lat="46.11152" lon="4.66042">
        <ele>431.6</ele>
        <time>2022-06-25T15:39:42Z</time>
      </trkpt>
      <trkpt lat="46.11152" lon="4.6604">
        <ele>431.6</ele>
        <time>2022-06-25T15:39:43Z</time>
      </trkpt>
      <trkpt lat="46.11151" lon="4.66038">
        <ele>432</ele>
        <time>2022-06-25T15:39:44Z</time>
      </trkpt>
      <trkpt lat="46.1115" lon="4.66036">
        <ele>432</ele>
        <time>2022-06-25T15:39:45Z</time>
      </trkpt>
      <trkpt lat="46.11149" lon="4.66033">
        <ele>432.2</ele>
        <time>2022-06-25T15:39:46Z</time>
      </trkpt>
      <trkpt lat="46.11148" lon="4.66031">
        <ele>432.2</ele>
        <time>2022-06-25T15:39:47Z</time>
      </trkpt>
      <trkpt lat="46.11147" lon="4.66029">
        <ele>432.2</ele>
        <time>2022-06-25T15:39:48Z</time>
      </trkpt>
      <trkpt lat="46.11146" lon="4.66027">
        <ele>432.6</ele>
        <time>2022-06-25T15:39:49Z</time>
      </trkpt>
      <trkpt lat="46.11144" lon="4.66024">
        <ele>432.6</ele>
        <time>2022-06-25T15:39:50Z</time>
      </trkpt>
      <trkpt lat="46.11143" lon="4.66022">
        <ele>432.6</ele>
        <time>2022-06-25T15:39:51Z</time>
      </trkpt>
      <trkpt lat="46.11142" lon="4.66019">
        <ele>432.8</ele>
        <time>2022-06-25T15:39:52Z</time>
      </trkpt>
      <trkpt lat="46.11141" lon="4.66016">
        <ele>432.8</ele>
        <time>2022-06-25T15:39:53Z</time>
      </trkpt>
      <trkpt lat="46.1114" lon="4.66012">
        <ele>433</ele>
        <time>2022-06-25T15:39:54Z</time>
      </trkpt>
      <trkpt lat="46.11138" lon="4.66009">
        <ele>433</ele>
        <time>2022-06-25T15:39:55Z</time>
      </trkpt>
      <trkpt lat="46.11137" lon="4.66006">
        <ele>433.2</ele>
        <time>2022-06-25T15:39:56Z</time>
      </trkpt>
      <trkpt lat="46.11136" lon="4.66002">
        <ele>433.2</ele>
        <time>2022-06-25T15:39:57Z</time>
      </trkpt>
      <trkpt lat="46.11134" lon="4.65999">
        <ele>433.4</ele>
        <time>2022-06-25T15:39:58Z</time>
      </trkpt>
      <trkpt lat="46.11133" lon="4.65995">
        <ele>433.4</ele>
        <time>2022-06-25T15:39:59Z</time>
      </trkpt>
      <trkpt lat="46.11132" lon="4.65992">
        <ele>433.4</ele>
        <time>2022-06-25T15:40:00Z</time>
      </trkpt>
      <trkpt lat="46.11131" lon="4.65988">
        <ele>433.8</ele>
        <time>2022-06-25T15:40:01Z</time>
      </trkpt>
      <trkpt lat="46.1113" lon="4.65985">
        <ele>433.8</ele>
        <time>2022-06-25T15:40:02Z</time>
      </trkpt>
      <trkpt lat="46.11129" lon="4.65981">
        <ele>434</ele>
        <time>2022-06-25T15:40:03Z</time>
      </trkpt>
      <trkpt lat="46.11128" lon="4.65978">
        <ele>434</ele>
        <time>2022-06-25T15:40:04Z</time>
      </trkpt>
      <trkpt lat="46.11127" lon="4.65975">
        <ele>434.4</ele>
        <time>2022-06-25T15:40:05Z</time>
      </trkpt>
      <trkpt lat="46.11126" lon="4.65971">
        <ele>434.4</ele>
        <time>2022-06-25T15:40:06Z</time>
      </trkpt>
      <trkpt lat="46.11125" lon="4.65968">
        <ele>434.6</ele>
        <time>2022-06-25T15:40:07Z</time>
      </trkpt>
      <trkpt lat="46.11125" lon="4.65965">
        <ele>434.6</ele>
        <time>2022-06-25T15:40:08Z</time>
      </trkpt>
      <trkpt lat="46.11124" lon="4.65961">
        <ele>435</ele>
        <time>2022-06-25T15:40:09Z</time>
      </trkpt>
      <trkpt lat="46.11124" lon="4.65958">
        <ele>435.2</ele>
        <time>2022-06-25T15:40:10Z</time>
      </trkpt>
      <trkpt lat="46.11123" lon="4.65954">
        <ele>435.2</ele>
        <time>2022-06-25T15:40:11Z</time>
      </trkpt>
      <trkpt lat="46.11123" lon="4.65951">
        <ele>435.6</ele>
        <time>2022-06-25T15:40:12Z</time>
      </trkpt>
      <trkpt lat="46.11122" lon="4.65947">
        <ele>435.8</ele>
        <time>2022-06-25T15:40:13Z</time>
      </trkpt>
      <trkpt lat="46.11122" lon="4.65944">
        <ele>436.2</ele>
        <time>2022-06-25T15:40:14Z</time>
      </trkpt>
      <trkpt lat="46.11122" lon="4.65941">
        <ele>436.4</ele>
        <time>2022-06-25T15:40:15Z</time>
      </trkpt>
      <trkpt lat="46.11121" lon="4.65938">
        <ele>436.6</ele>
        <time>2022-06-25T15:40:16Z</time>
      </trkpt>
      <trkpt lat="46.11121" lon="4.65934">
        <ele>436.8</ele>
        <time>2022-06-25T15:40:17Z</time>
      </trkpt>
      <trkpt lat="46.1112" lon="4.65931">
        <ele>437</ele>
        <time>2022-06-25T15:40:18Z</time>
      </trkpt>
      <trkpt lat="46.1112" lon="4.65928">
        <ele>437.4</ele>
        <time>2022-06-25T15:40:19Z</time>
      </trkpt>
      <trkpt lat="46.1112" lon="4.65925">
        <ele>437.4</ele>
        <time>2022-06-25T15:40:20Z</time>
      </trkpt>
      <trkpt lat="46.11119" lon="4.65921">
        <ele>437.6</ele>
        <time>2022-06-25T15:40:21Z</time>
      </trkpt>
      <trkpt lat="46.11119" lon="4.65918">
        <ele>438</ele>
        <time>2022-06-25T15:40:22Z</time>
      </trkpt>
      <trkpt lat="46.11119" lon="4.65915">
        <ele>438</ele>
        <time>2022-06-25T15:40:23Z</time>
      </trkpt>
      <trkpt lat="46.11118" lon="4.65912">
        <ele>438.2</ele>
        <time>2022-06-25T15:40:24Z</time>
      </trkpt>
      <trkpt lat="46.11117" lon="4.65909">
        <ele>438.4</ele>
        <time>2022-06-25T15:40:25Z</time>
      </trkpt>
      <trkpt lat="46.11116" lon="4.65906">
        <ele>438.4</ele>
        <time>2022-06-25T15:40:26Z</time>
      </trkpt>
      <trkpt lat="46.11115" lon="4.65903">
        <ele>438.8</ele>
        <time>2022-06-25T15:40:27Z</time>
      </trkpt>
      <trkpt lat="46.11113" lon="4.659">
        <ele>438.8</ele>
        <time>2022-06-25T15:40:28Z</time>
      </trkpt>
      <trkpt lat="46.11111" lon="4.65898">
        <ele>438.8</ele>
        <time>2022-06-25T15:40:29Z</time>
      </trkpt>
      <trkpt lat="46.11109" lon="4.65895">
        <ele>439</ele>
        <time>2022-06-25T15:40:30Z</time>
      </trkpt>
      <trkpt lat="46.11107" lon="4.65892">
        <ele>439</ele>
        <time>2022-06-25T15:40:31Z</time>
      </trkpt>
      <trkpt lat="46.11104" lon="4.6589">
        <ele>439</ele>
        <time>2022-06-25T15:40:32Z</time>
      </trkpt>
      <trkpt lat="46.11102" lon="4.65887">
        <ele>439</ele>
        <time>2022-06-25T15:40:33Z</time>
      </trkpt>
      <trkpt lat="46.11099" lon="4.65885">
        <ele>439.2</ele>
        <time>2022-06-25T15:40:34Z</time>
      </trkpt>
      <trkpt lat="46.11096" lon="4.65883">
        <ele>439.2</ele>
        <time>2022-06-25T15:40:36Z</time>
      </trkpt>
      <trkpt lat="46.11093" lon="4.65881">
        <ele>439.4</ele>
        <time>2022-06-25T15:40:37Z</time>
      </trkpt>
      <trkpt lat="46.1109" lon="4.65879">
        <ele>439.4</ele>
        <time>2022-06-25T15:40:38Z</time>
      </trkpt>
      <trkpt lat="46.11087" lon="4.65877">
        <ele>439.4</ele>
        <time>2022-06-25T15:40:39Z</time>
      </trkpt>
      <trkpt lat="46.11085" lon="4.65875">
        <ele>439.4</ele>
        <time>2022-06-25T15:40:40Z</time>
      </trkpt>
      <trkpt lat="46.11082" lon="4.65872">
        <ele>439.8</ele>
        <time>2022-06-25T15:40:41Z</time>
      </trkpt>
      <trkpt lat="46.11079" lon="4.65869">
        <ele>439.8</ele>
        <time>2022-06-25T15:40:42Z</time>
      </trkpt>
      <trkpt lat="46.11076" lon="4.65867">
        <ele>439.8</ele>
        <time>2022-06-25T15:40:43Z</time>
      </trkpt>
      <trkpt lat="46.11074" lon="4.65864">
        <ele>440</ele>
        <time>2022-06-25T15:40:44Z</time>
      </trkpt>
      <trkpt lat="46.11071" lon="4.65862">
        <ele>440</ele>
        <time>2022-06-25T15:40:45Z</time>
      </trkpt>
      <trkpt lat="46.11069" lon="4.65859">
        <ele>440.2</ele>
        <time>2022-06-25T15:40:46Z</time>
      </trkpt>
      <trkpt lat="46.11067" lon="4.65857">
        <ele>440.2</ele>
        <time>2022-06-25T15:40:47Z</time>
      </trkpt>
      <trkpt lat="46.11064" lon="4.65854">
        <ele>440.6</ele>
        <time>2022-06-25T15:40:48Z</time>
      </trkpt>
      <trkpt lat="46.11062" lon="4.65851">
        <ele>440.6</ele>
        <time>2022-06-25T15:40:49Z</time>
      </trkpt>
      <trkpt lat="46.1106" lon="4.65849">
        <ele>440.8</ele>
        <time>2022-06-25T15:40:50Z</time>
      </trkpt>
      <trkpt lat="46.11058" lon="4.65846">
        <ele>440.8</ele>
        <time>2022-06-25T15:40:51Z</time>
      </trkpt>
      <trkpt lat="46.11056" lon="4.65844">
        <ele>441</ele>
        <time>2022-06-25T15:40:52Z</time>
      </trkpt>
      <trkpt lat="46.11053" lon="4.65841">
        <ele>441</ele>
        <time>2022-06-25T15:40:53Z</time>
      </trkpt>
      <trkpt lat="46.11051" lon="4.65839">
        <ele>441.4</ele>
        <time>2022-06-25T15:40:54Z</time>
      </trkpt>
      <trkpt lat="46.11049" lon="4.65836">
        <ele>441.4</ele>
        <time>2022-06-25T15:40:55Z</time>
      </trkpt>
      <trkpt lat="46.11047" lon="4.65834">
        <ele>441.8</ele>
        <time>2022-06-25T15:40:56Z</time>
      </trkpt>
      <trkpt lat="46.11045" lon="4.65832">
        <ele>442</ele>
        <time>2022-06-25T15:40:57Z</time>
      </trkpt>
      <trkpt lat="46.11044" lon="4.65829">
        <ele>442.2</ele>
        <time>2022-06-25T15:40:58Z</time>
      </trkpt>
      <trkpt lat="46.11042" lon="4.65826">
        <ele>442.4</ele>
        <time>2022-06-25T15:40:59Z</time>
      </trkpt>
      <trkpt lat="46.11041" lon="4.65823">
        <ele>442.8</ele>
        <time>2022-06-25T15:41:00Z</time>
      </trkpt>
      <trkpt lat="46.11039" lon="4.65821">
        <ele>442.8</ele>
        <time>2022-06-25T15:41:01Z</time>
      </trkpt>
      <trkpt lat="46.11038" lon="4.65819">
        <ele>443.2</ele>
        <time>2022-06-25T15:41:02Z</time>
      </trkpt>
      <trkpt lat="46.11036" lon="4.65817">
        <ele>443.2</ele>
        <time>2022-06-25T15:41:03Z</time>
      </trkpt>
      <trkpt lat="46.11034" lon="4.65815">
        <ele>443.4</ele>
        <time>2022-06-25T15:41:04Z</time>
      </trkpt>
      <trkpt lat="46.11033" lon="4.65813">
        <ele>443.4</ele>
        <time>2022-06-25T15:41:05Z</time>
      </trkpt>
      <trkpt lat="46.11031" lon="4.65811">
        <ele>443.8</ele>
        <time>2022-06-25T15:41:06Z</time>
      </trkpt>
      <trkpt lat="46.1103" lon="4.65809">
        <ele>443.8</ele>
        <time>2022-06-25T15:41:07Z</time>
      </trkpt>
      <trkpt lat="46.11029" lon="4.65807">
        <ele>444.2</ele>
        <time>2022-06-25T15:41:08Z</time>
      </trkpt>
      <trkpt lat="46.11028" lon="4.65805">
        <ele>444.6</ele>
        <time>2022-06-25T15:41:09Z</time>
      </trkpt>
      <trkpt lat="46.11026" lon="4.65804">
        <ele>444.6</ele>
        <time>2022-06-25T15:41:10Z</time>
      </trkpt>
      <trkpt lat="46.11025" lon="4.65802">
        <ele>444.8</ele>
        <time>2022-06-25T15:41:11Z</time>
      </trkpt>
      <trkpt lat="46.11024" lon="4.658">
        <ele>444.8</ele>
        <time>2022-06-25T15:41:12Z</time>
      </trkpt>
      <trkpt lat="46.11023" lon="4.65799">
        <ele>445.2</ele>
        <time>2022-06-25T15:41:13Z</time>
      </trkpt>
      <trkpt lat="46.11022" lon="4.65797">
        <ele>445.4</ele>
        <time>2022-06-25T15:41:14Z</time>
      </trkpt>
      <trkpt lat="46.11021" lon="4.65795">
        <ele>445.6</ele>
        <time>2022-06-25T15:41:15Z</time>
      </trkpt>
      <trkpt lat="46.1102" lon="4.65792">
        <ele>446</ele>
        <time>2022-06-25T15:41:16Z</time>
      </trkpt>
      <trkpt lat="46.11019" lon="4.6579">
        <ele>446</ele>
        <time>2022-06-25T15:41:17Z</time>
      </trkpt>
      <trkpt lat="46.11019" lon="4.65789">
        <ele>446.4</ele>
        <time>2022-06-25T15:41:18Z</time>
      </trkpt>
      <trkpt lat="46.11019" lon="4.65787">
        <ele>446.6</ele>
        <time>2022-06-25T15:41:19Z</time>
      </trkpt>
      <trkpt lat="46.11019" lon="4.65785">
        <ele>446.6</ele>
        <time>2022-06-25T15:41:20Z</time>
      </trkpt>
      <trkpt lat="46.11019" lon="4.65783">
        <ele>447</ele>
        <time>2022-06-25T15:41:21Z</time>
      </trkpt>
      <trkpt lat="46.11018" lon="4.65781">
        <ele>447.2</ele>
        <time>2022-06-25T15:41:22Z</time>
      </trkpt>
      <trkpt lat="46.11018" lon="4.65779">
        <ele>447.6</ele>
        <time>2022-06-25T15:41:23Z</time>
      </trkpt>
      <trkpt lat="46.11017" lon="4.65778">
        <ele>447.8</ele>
        <time>2022-06-25T15:41:24Z</time>
      </trkpt>
      <trkpt lat="46.11017" lon="4.65776">
        <ele>448.2</ele>
        <time>2022-06-25T15:41:25Z</time>
      </trkpt>
      <trkpt lat="46.11017" lon="4.65774">
        <ele>448.4</ele>
        <time>2022-06-25T15:41:26Z</time>
      </trkpt>
      <trkpt lat="46.11017" lon="4.65772">
        <ele>448.6</ele>
        <time>2022-06-25T15:41:27Z</time>
      </trkpt>
      <trkpt lat="46.11016" lon="4.6577">
        <ele>449</ele>
        <time>2022-06-25T15:41:28Z</time>
      </trkpt>
      <trkpt lat="46.11016" lon="4.65768">
        <ele>449.2</ele>
        <time>2022-06-25T15:41:29Z</time>
      </trkpt>
      <trkpt lat="46.11016" lon="4.65767">
        <ele>449.6</ele>
        <time>2022-06-25T15:41:30Z</time>
      </trkpt>
      <trkpt lat="46.11016" lon="4.65765">
        <ele>449.8</ele>
        <time>2022-06-25T15:41:31Z</time>
      </trkpt>
      <trkpt lat="46.11016" lon="4.65763">
        <ele>450</ele>
        <time>2022-06-25T15:41:32Z</time>
      </trkpt>
      <trkpt lat="46.11016" lon="4.65761">
        <ele>450.4</ele>
        <time>2022-06-25T15:41:33Z</time>
      </trkpt>
      <trkpt lat="46.11017" lon="4.65759">
        <ele>450.6</ele>
        <time>2022-06-25T15:41:34Z</time>
      </trkpt>
      <trkpt lat="46.11017" lon="4.65757">
        <ele>451</ele>
        <time>2022-06-25T15:41:35Z</time>
      </trkpt>
      <trkpt lat="46.11018" lon="4.65756">
        <ele>451.2</ele>
        <time>2022-06-25T15:41:36Z</time>
      </trkpt>
      <trkpt lat="46.11018" lon="4.65753">
        <ele>451.6</ele>
        <time>2022-06-25T15:41:37Z</time>
      </trkpt>
      <trkpt lat="46.11018" lon="4.65751">
        <ele>451.8</ele>
        <time>2022-06-25T15:41:38Z</time>
      </trkpt>
      <trkpt lat="46.11018" lon="4.65749">
        <ele>452.2</ele>
        <time>2022-06-25T15:41:39Z</time>
      </trkpt>
      <trkpt lat="46.11018" lon="4.65747">
        <ele>452.4</ele>
        <time>2022-06-25T15:41:40Z</time>
      </trkpt>
      <trkpt lat="46.11018" lon="4.65745">
        <ele>452.6</ele>
        <time>2022-06-25T15:41:41Z</time>
      </trkpt>
      <trkpt lat="46.11018" lon="4.65743">
        <ele>452.8</ele>
        <time>2022-06-25T15:41:42Z</time>
      </trkpt>
      <trkpt lat="46.11018" lon="4.6574">
        <ele>453</ele>
        <time>2022-06-25T15:41:43Z</time>
      </trkpt>
      <trkpt lat="46.11019" lon="4.65738">
        <ele>453.2</ele>
        <time>2022-06-25T15:41:44Z</time>
      </trkpt>
      <trkpt lat="46.11019" lon="4.65736">
        <ele>453.2</ele>
        <time>2022-06-25T15:41:45Z</time>
      </trkpt>
      <trkpt lat="46.11019" lon="4.65734">
        <ele>453.6</ele>
        <time>2022-06-25T15:41:46Z</time>
      </trkpt>
      <trkpt lat="46.11019" lon="4.65732">
        <ele>454</ele>
        <time>2022-06-25T15:41:47Z</time>
      </trkpt>
      <trkpt lat="46.1102" lon="4.65729">
        <ele>454.2</ele>
        <time>2022-06-25T15:41:48Z</time>
      </trkpt>
      <trkpt lat="46.1102" lon="4.65727">
        <ele>454.4</ele>
        <time>2022-06-25T15:41:49Z</time>
      </trkpt>
      <trkpt lat="46.1102" lon="4.65725">
        <ele>454.6</ele>
        <time>2022-06-25T15:41:50Z</time>
      </trkpt>
      <trkpt lat="46.11021" lon="4.65724">
        <ele>454.8</ele>
        <time>2022-06-25T15:41:51Z</time>
      </trkpt>
      <trkpt lat="46.11021" lon="4.65721">
        <ele>454.8</ele>
        <time>2022-06-25T15:41:52Z</time>
      </trkpt>
      <trkpt lat="46.11022" lon="4.65719">
        <ele>455.2</ele>
        <time>2022-06-25T15:41:53Z</time>
      </trkpt>
      <trkpt lat="46.11022" lon="4.65717">
        <ele>455.4</ele>
        <time>2022-06-25T15:41:54Z</time>
      </trkpt>
      <trkpt lat="46.11022" lon="4.65715">
        <ele>455.6</ele>
        <time>2022-06-25T15:41:55Z</time>
      </trkpt>
      <trkpt lat="46.11023" lon="4.65713">
        <ele>456</ele>
        <time>2022-06-25T15:41:56Z</time>
      </trkpt>
      <trkpt lat="46.11023" lon="4.65711">
        <ele>456.2</ele>
        <time>2022-06-25T15:41:57Z</time>
      </trkpt>
      <trkpt lat="46.11023" lon="4.65709">
        <ele>456.4</ele>
        <time>2022-06-25T15:41:58Z</time>
      </trkpt>
      <trkpt lat="46.11024" lon="4.65706">
        <ele>456.8</ele>
        <time>2022-06-25T15:41:59Z</time>
      </trkpt>
      <trkpt lat="46.11024" lon="4.65703">
        <ele>457</ele>
        <time>2022-06-25T15:42:00Z</time>
      </trkpt>
      <trkpt lat="46.11024" lon="4.65701">
        <ele>457.4</ele>
        <time>2022-06-25T15:42:01Z</time>
      </trkpt>
      <trkpt lat="46.11023" lon="4.657">
        <ele>457.6</ele>
        <time>2022-06-25T15:42:02Z</time>
      </trkpt>
      <trkpt lat="46.11022" lon="4.65698">
        <ele>457.8</ele>
        <time>2022-06-25T15:42:03Z</time>
      </trkpt>
      <trkpt lat="46.11021" lon="4.65696">
        <ele>458.2</ele>
        <time>2022-06-25T15:42:04Z</time>
      </trkpt>
      <trkpt lat="46.1102" lon="4.65695">
        <ele>458.4</ele>
        <time>2022-06-25T15:42:05Z</time>
      </trkpt>
      <trkpt lat="46.11019" lon="4.65694">
        <ele>458.6</ele>
        <time>2022-06-25T15:42:06Z</time>
      </trkpt>
      <trkpt lat="46.11018" lon="4.65693">
        <ele>459</ele>
        <time>2022-06-25T15:42:07Z</time>
      </trkpt>
      <trkpt lat="46.11017" lon="4.65692">
        <ele>459.2</ele>
        <time>2022-06-25T15:42:08Z</time>
      </trkpt>
      <trkpt lat="46.11015" lon="4.65692">
        <ele>459.4</ele>
        <time>2022-06-25T15:42:09Z</time>
      </trkpt>
      <trkpt lat="46.11014" lon="4.65692">
        <ele>459.4</ele>
        <time>2022-06-25T15:42:10Z</time>
      </trkpt>
      <trkpt lat="46.11013" lon="4.65691">
        <ele>459.8</ele>
        <time>2022-06-25T15:42:11Z</time>
      </trkpt>
      <trkpt lat="46.11011" lon="4.65691">
        <ele>459.8</ele>
        <time>2022-06-25T15:42:12Z</time>
      </trkpt>
      <trkpt lat="46.1101" lon="4.65691">
        <ele>460</ele>
        <time>2022-06-25T15:42:13Z</time>
      </trkpt>
      <trkpt lat="46.11008" lon="4.65691">
        <ele>460</ele>
        <time>2022-06-25T15:42:14Z</time>
      </trkpt>
      <trkpt lat="46.11006" lon="4.65691">
        <ele>460.4</ele>
        <time>2022-06-25T15:42:15Z</time>
      </trkpt>
      <trkpt lat="46.11005" lon="4.65691">
        <ele>460.4</ele>
        <time>2022-06-25T15:42:16Z</time>
      </trkpt>
      <trkpt lat="46.11003" lon="4.65691">
        <ele>460.6</ele>
        <time>2022-06-25T15:42:17Z</time>
      </trkpt>
      <trkpt lat="46.11002" lon="4.6569">
        <ele>460.8</ele>
        <time>2022-06-25T15:42:18Z</time>
      </trkpt>
      <trkpt lat="46.11" lon="4.65691">
        <ele>460.8</ele>
        <time>2022-06-25T15:42:19Z</time>
      </trkpt>
      <trkpt lat="46.10998" lon="4.6569">
        <ele>461.2</ele>
        <time>2022-06-25T15:42:20Z</time>
      </trkpt>
      <trkpt lat="46.10997" lon="4.6569">
        <ele>461.2</ele>
        <time>2022-06-25T15:42:21Z</time>
      </trkpt>
      <trkpt lat="46.10995" lon="4.65689">
        <ele>461.6</ele>
        <time>2022-06-25T15:42:22Z</time>
      </trkpt>
      <trkpt lat="46.10994" lon="4.65689">
        <ele>461.6</ele>
        <time>2022-06-25T15:42:23Z</time>
      </trkpt>
      <trkpt lat="46.10992" lon="4.65689">
        <ele>461.8</ele>
        <time>2022-06-25T15:42:24Z</time>
      </trkpt>
      <trkpt lat="46.10991" lon="4.65688">
        <ele>461.8</ele>
        <time>2022-06-25T15:42:25Z</time>
      </trkpt>
      <trkpt lat="46.10989" lon="4.65688">
        <ele>462.2</ele>
        <time>2022-06-25T15:42:26Z</time>
      </trkpt>
      <trkpt lat="46.10988" lon="4.65688">
        <ele>462.2</ele>
        <time>2022-06-25T15:42:27Z</time>
      </trkpt>
      <trkpt lat="46.10986" lon="4.65689">
        <ele>462.2</ele>
        <time>2022-06-25T15:42:28Z</time>
      </trkpt>
      <trkpt lat="46.10984" lon="4.65688">
        <ele>462.6</ele>
        <time>2022-06-25T15:42:29Z</time>
      </trkpt>
      <trkpt lat="46.10982" lon="4.65689">
        <ele>462.6</ele>
        <time>2022-06-25T15:42:30Z</time>
      </trkpt>
      <trkpt lat="46.10981" lon="4.65689">
        <ele>462.8</ele>
        <time>2022-06-25T15:42:31Z</time>
      </trkpt>
      <trkpt lat="46.10979" lon="4.65689">
        <ele>462.8</ele>
        <time>2022-06-25T15:42:32Z</time>
      </trkpt>
      <trkpt lat="46.10977" lon="4.65689">
        <ele>463</ele>
        <time>2022-06-25T15:42:33Z</time>
      </trkpt>
      <trkpt lat="46.10975" lon="4.65689">
        <ele>463</ele>
        <time>2022-06-25T15:42:34Z</time>
      </trkpt>
      <trkpt lat="46.10973" lon="4.65689">
        <ele>463.4</ele>
        <time>2022-06-25T15:42:35Z</time>
      </trkpt>
      <trkpt lat="46.1097" lon="4.65689">
        <ele>463.4</ele>
        <time>2022-06-25T15:42:36Z</time>
      </trkpt>
      <trkpt lat="46.10968" lon="4.65688">
        <ele>463.6</ele>
        <time>2022-06-25T15:42:37Z</time>
      </trkpt>
      <trkpt lat="46.10966" lon="4.65688">
        <ele>463.6</ele>
        <time>2022-06-25T15:42:38Z</time>
      </trkpt>
      <trkpt lat="46.10964" lon="4.65687">
        <ele>463.8</ele>
        <time>2022-06-25T15:42:39Z</time>
      </trkpt>
      <trkpt lat="46.10962" lon="4.65687">
        <ele>463.8</ele>
        <time>2022-06-25T15:42:40Z</time>
      </trkpt>
      <trkpt lat="46.1096" lon="4.65686">
        <ele>464.2</ele>
        <time>2022-06-25T15:42:41Z</time>
      </trkpt>
      <trkpt lat="46.10959" lon="4.65686">
        <ele>464.2</ele>
        <time>2022-06-25T15:42:42Z</time>
      </trkpt>
      <trkpt lat="46.10958" lon="4.65685">
        <ele>464.4</ele>
        <time>2022-06-25T15:42:43Z</time>
      </trkpt>
      <trkpt lat="46.10956" lon="4.65684">
        <ele>464.4</ele>
        <time>2022-06-25T15:42:44Z</time>
      </trkpt>
      <trkpt lat="46.10954" lon="4.65684">
        <ele>464.6</ele>
        <time>2022-06-25T15:42:45Z</time>
      </trkpt>
      <trkpt lat="46.10953" lon="4.65683">
        <ele>464.6</ele>
        <time>2022-06-25T15:42:46Z</time>
      </trkpt>
      <trkpt lat="46.10951" lon="4.65683">
        <ele>465</ele>
        <time>2022-06-25T15:42:47Z</time>
      </trkpt>
      <trkpt lat="46.1095" lon="4.65682">
        <ele>465</ele>
        <time>2022-06-25T15:42:48Z</time>
      </trkpt>
      <trkpt lat="46.10948" lon="4.65682">
        <ele>465.2</ele>
        <time>2022-06-25T15:42:49Z</time>
      </trkpt>
      <trkpt lat="46.10946" lon="4.65681">
        <ele>465.2</ele>
        <time>2022-06-25T15:42:50Z</time>
      </trkpt>
      <trkpt lat="46.10944" lon="4.65681">
        <ele>465.6</ele>
        <time>2022-06-25T15:42:51Z</time>
      </trkpt>
      <trkpt lat="46.10942" lon="4.65681">
        <ele>465.6</ele>
        <time>2022-06-25T15:42:52Z</time>
      </trkpt>
      <trkpt lat="46.1094" lon="4.6568">
        <ele>466</ele>
        <time>2022-06-25T15:42:53Z</time>
      </trkpt>
      <trkpt lat="46.10938" lon="4.65679">
        <ele>466.2</ele>
        <time>2022-06-25T15:42:54Z</time>
      </trkpt>
      <trkpt lat="46.10937" lon="4.65678">
        <ele>466.6</ele>
        <time>2022-06-25T15:42:55Z</time>
      </trkpt>
      <trkpt lat="46.10936" lon="4.65676">
        <ele>466.8</ele>
        <time>2022-06-25T15:42:56Z</time>
      </trkpt>
      <trkpt lat="46.10936" lon="4.65674">
        <ele>467</ele>
        <time>2022-06-25T15:42:57Z</time>
      </trkpt>
      <trkpt lat="46.10937" lon="4.65672">
        <ele>467.4</ele>
        <time>2022-06-25T15:42:58Z</time>
      </trkpt>
      <trkpt lat="46.10937" lon="4.6567">
        <ele>467.6</ele>
        <time>2022-06-25T15:42:59Z</time>
      </trkpt>
      <trkpt lat="46.10938" lon="4.65668">
        <ele>468</ele>
        <time>2022-06-25T15:43:00Z</time>
      </trkpt>
      <trkpt lat="46.10939" lon="4.65666">
        <ele>468.2</ele>
        <time>2022-06-25T15:43:01Z</time>
      </trkpt>
      <trkpt lat="46.1094" lon="4.65665">
        <ele>468.4</ele>
        <time>2022-06-25T15:43:02Z</time>
      </trkpt>
      <trkpt lat="46.10941" lon="4.65664">
        <ele>468.6</ele>
        <time>2022-06-25T15:43:03Z</time>
      </trkpt>
      <trkpt lat="46.10941" lon="4.65663">
        <ele>469</ele>
        <time>2022-06-25T15:43:04Z</time>
      </trkpt>
      <trkpt lat="46.10942" lon="4.65662">
        <ele>469</ele>
        <time>2022-06-25T15:43:05Z</time>
      </trkpt>
      <trkpt lat="46.10943" lon="4.65661">
        <ele>469.2</ele>
        <time>2022-06-25T15:43:06Z</time>
      </trkpt>
      <trkpt lat="46.10944" lon="4.65661">
        <ele>469.4</ele>
        <time>2022-06-25T15:43:07Z</time>
      </trkpt>
      <trkpt lat="46.10945" lon="4.6566">
        <ele>469.4</ele>
        <time>2022-06-25T15:43:08Z</time>
      </trkpt>
      <trkpt lat="46.10945" lon="4.65659">
        <ele>469.8</ele>
        <time>2022-06-25T15:43:09Z</time>
      </trkpt>
      <trkpt lat="46.10947" lon="4.65658">
        <ele>469.8</ele>
        <time>2022-06-25T15:43:10Z</time>
      </trkpt>
      <trkpt lat="46.10947" lon="4.65657">
        <ele>470</ele>
        <time>2022-06-25T15:43:11Z</time>
      </trkpt>
      <trkpt lat="46.10949" lon="4.65656">
        <ele>470.2</ele>
        <time>2022-06-25T15:43:12Z</time>
      </trkpt>
      <trkpt lat="46.10949" lon="4.65655">
        <ele>470.2</ele>
        <time>2022-06-25T15:43:13Z</time>
      </trkpt>
      <trkpt lat="46.1095" lon="4.65653">
        <ele>470.4</ele>
        <time>2022-06-25T15:43:14Z</time>
      </trkpt>
      <trkpt lat="46.10951" lon="4.65651">
        <ele>470.4</ele>
        <time>2022-06-25T15:43:15Z</time>
      </trkpt>
      <trkpt lat="46.10953" lon="4.6565">
        <ele>470.8</ele>
        <time>2022-06-25T15:43:16Z</time>
      </trkpt>
      <trkpt lat="46.10954" lon="4.65649">
        <ele>471</ele>
        <time>2022-06-25T15:43:17Z</time>
      </trkpt>
      <trkpt lat="46.10955" lon="4.65647">
        <ele>471</ele>
        <time>2022-06-25T15:43:18Z</time>
      </trkpt>
      <trkpt lat="46.10956" lon="4.65646">
        <ele>471.2</ele>
        <time>2022-06-25T15:43:19Z</time>
      </trkpt>
      <trkpt lat="46.10958" lon="4.65644">
        <ele>471.2</ele>
        <time>2022-06-25T15:43:20Z</time>
      </trkpt>
      <trkpt lat="46.10959" lon="4.65642">
        <ele>471.4</ele>
        <time>2022-06-25T15:43:21Z</time>
      </trkpt>
      <trkpt lat="46.1096" lon="4.65641">
        <ele>471.4</ele>
        <time>2022-06-25T15:43:22Z</time>
      </trkpt>
      <trkpt lat="46.10962" lon="4.65639">
        <ele>471.8</ele>
        <time>2022-06-25T15:43:23Z</time>
      </trkpt>
      <trkpt lat="46.10963" lon="4.65638">
        <ele>471.8</ele>
        <time>2022-06-25T15:43:24Z</time>
      </trkpt>
      <trkpt lat="46.10964" lon="4.65637">
        <ele>472</ele>
        <time>2022-06-25T15:43:25Z</time>
      </trkpt>
      <trkpt lat="46.10965" lon="4.65635">
        <ele>472</ele>
        <time>2022-06-25T15:43:26Z</time>
      </trkpt>
      <trkpt lat="46.10966" lon="4.65633">
        <ele>472.4</ele>
        <time>2022-06-25T15:43:27Z</time>
      </trkpt>
      <trkpt lat="46.10967" lon="4.65631">
        <ele>472.4</ele>
        <time>2022-06-25T15:43:28Z</time>
      </trkpt>
      <trkpt lat="46.10968" lon="4.65629">
        <ele>472.8</ele>
        <time>2022-06-25T15:43:29Z</time>
      </trkpt>
      <trkpt lat="46.10969" lon="4.65627">
        <ele>473</ele>
        <time>2022-06-25T15:43:30Z</time>
      </trkpt>
      <trkpt lat="46.1097" lon="4.65625">
        <ele>473</ele>
        <time>2022-06-25T15:43:31Z</time>
      </trkpt>
      <trkpt lat="46.10971" lon="4.65623">
        <ele>473.2</ele>
        <time>2022-06-25T15:43:32Z</time>
      </trkpt>
      <trkpt lat="46.10972" lon="4.6562">
        <ele>473.2</ele>
        <time>2022-06-25T15:43:33Z</time>
      </trkpt>
      <trkpt lat="46.10973" lon="4.65618">
        <ele>473.4</ele>
        <time>2022-06-25T15:43:34Z</time>
      </trkpt>
      <trkpt lat="46.10974" lon="4.65616">
        <ele>473.4</ele>
        <time>2022-06-25T15:43:35Z</time>
      </trkpt>
      <trkpt lat="46.10974" lon="4.65613">
        <ele>473.8</ele>
        <time>2022-06-25T15:43:36Z</time>
      </trkpt>
      <trkpt lat="46.10974" lon="4.65611">
        <ele>473.8</ele>
        <time>2022-06-25T15:43:37Z</time>
      </trkpt>
      <trkpt lat="46.10974" lon="4.65609">
        <ele>474.2</ele>
        <time>2022-06-25T15:43:38Z</time>
      </trkpt>
      <trkpt lat="46.10974" lon="4.65607">
        <ele>474.4</ele>
        <time>2022-06-25T15:43:39Z</time>
      </trkpt>
      <trkpt lat="46.10974" lon="4.65606">
        <ele>474.4</ele>
        <time>2022-06-25T15:43:40Z</time>
      </trkpt>
      <trkpt lat="46.10973" lon="4.65605">
        <ele>474.8</ele>
        <time>2022-06-25T15:43:41Z</time>
      </trkpt>
      <trkpt lat="46.10971" lon="4.65605">
        <ele>474.8</ele>
        <time>2022-06-25T15:43:42Z</time>
      </trkpt>
      <trkpt lat="46.1097" lon="4.65605">
        <ele>475.2</ele>
        <time>2022-06-25T15:43:43Z</time>
      </trkpt>
      <trkpt lat="46.10969" lon="4.65605">
        <ele>475.2</ele>
        <time>2022-06-25T15:43:44Z</time>
      </trkpt>
      <trkpt lat="46.10968" lon="4.65606">
        <ele>475.4</ele>
        <time>2022-06-25T15:43:45Z</time>
      </trkpt>
      <trkpt lat="46.10966" lon="4.65606">
        <ele>475.4</ele>
        <time>2022-06-25T15:43:46Z</time>
      </trkpt>
      <trkpt lat="46.10965" lon="4.65606">
        <ele>475.8</ele>
        <time>2022-06-25T15:43:47Z</time>
      </trkpt>
      <trkpt lat="46.10963" lon="4.65607">
        <ele>475.8</ele>
        <time>2022-06-25T15:43:48Z</time>
      </trkpt>
      <trkpt lat="46.10962" lon="4.65607">
        <ele>476.2</ele>
        <time>2022-06-25T15:43:49Z</time>
      </trkpt>
      <trkpt lat="46.1096" lon="4.65607">
        <ele>476.2</ele>
        <time>2022-06-25T15:43:50Z</time>
      </trkpt>
      <trkpt lat="46.10958" lon="4.65607">
        <ele>476.4</ele>
        <time>2022-06-25T15:43:51Z</time>
      </trkpt>
      <trkpt lat="46.10956" lon="4.65607">
        <ele>476.4</ele>
        <time>2022-06-25T15:43:52Z</time>
      </trkpt>
      <trkpt lat="46.10955" lon="4.65607">
        <ele>476.6</ele>
        <time>2022-06-25T15:43:53Z</time>
      </trkpt>
      <trkpt lat="46.10953" lon="4.65607">
        <ele>476.6</ele>
        <time>2022-06-25T15:43:54Z</time>
      </trkpt>
      <trkpt lat="46.10951" lon="4.65607">
        <ele>477</ele>
        <time>2022-06-25T15:43:55Z</time>
      </trkpt>
      <trkpt lat="46.1095" lon="4.65607">
        <ele>477</ele>
        <time>2022-06-25T15:43:56Z</time>
      </trkpt>
      <trkpt lat="46.10948" lon="4.65607">
        <ele>477.2</ele>
        <time>2022-06-25T15:43:57Z</time>
      </trkpt>
      <trkpt lat="46.10947" lon="4.65607">
        <ele>477.2</ele>
        <time>2022-06-25T15:43:58Z</time>
      </trkpt>
      <trkpt lat="46.10945" lon="4.65607">
        <ele>477.6</ele>
        <time>2022-06-25T15:43:59Z</time>
      </trkpt>
      <trkpt lat="46.10945" lon="4.65607">
        <ele>477.6</ele>
        <time>2022-06-25T15:44:01Z</time>
      </trkpt>
      <trkpt lat="46.10943" lon="4.65606">
        <ele>478.2</ele>
        <time>2022-06-25T15:44:40Z</time>
      </trkpt>
      <trkpt lat="46.10941" lon="4.65606">
        <ele>478.2</ele>
        <time>2022-06-25T15:44:41Z</time>
      </trkpt>
      <trkpt lat="46.1094" lon="4.65605">
        <ele>478.4</ele>
        <time>2022-06-25T15:44:42Z</time>
      </trkpt>
      <trkpt lat="46.10938" lon="4.65605">
        <ele>478.4</ele>
        <time>2022-06-25T15:44:43Z</time>
      </trkpt>
      <trkpt lat="46.10937" lon="4.65605">
        <ele>478.6</ele>
        <time>2022-06-25T15:44:44Z</time>
      </trkpt>
      <trkpt lat="46.10935" lon="4.65604">
        <ele>478.6</ele>
        <time>2022-06-25T15:44:45Z</time>
      </trkpt>
      <trkpt lat="46.10934" lon="4.65604">
        <ele>478.6</ele>
        <time>2022-06-25T15:44:46Z</time>
      </trkpt>
      <trkpt lat="46.10933" lon="4.65604">
        <ele>479</ele>
        <time>2022-06-25T15:44:47Z</time>
      </trkpt>
      <trkpt lat="46.10931" lon="4.65603">
        <ele>479</ele>
        <time>2022-06-25T15:44:48Z</time>
      </trkpt>
      <trkpt lat="46.1093" lon="4.65603">
        <ele>479.2</ele>
        <time>2022-06-25T15:44:49Z</time>
      </trkpt>
      <trkpt lat="46.10928" lon="4.65603">
        <ele>479.2</ele>
        <time>2022-06-25T15:44:50Z</time>
      </trkpt>
      <trkpt lat="46.10927" lon="4.65602">
        <ele>479.4</ele>
        <time>2022-06-25T15:44:51Z</time>
      </trkpt>
      <trkpt lat="46.10926" lon="4.65602">
        <ele>479.4</ele>
        <time>2022-06-25T15:44:52Z</time>
      </trkpt>
      <trkpt lat="46.10924" lon="4.65602">
        <ele>479.8</ele>
        <time>2022-06-25T15:44:53Z</time>
      </trkpt>
      <trkpt lat="46.10923" lon="4.65601">
        <ele>479.8</ele>
        <time>2022-06-25T15:44:54Z</time>
      </trkpt>
      <trkpt lat="46.10921" lon="4.65601">
        <ele>479.8</ele>
        <time>2022-06-25T15:44:55Z</time>
      </trkpt>
      <trkpt lat="46.10919" lon="4.656">
        <ele>480.2</ele>
        <time>2022-06-25T15:44:56Z</time>
      </trkpt>
      <trkpt lat="46.10918" lon="4.65599">
        <ele>480.2</ele>
        <time>2022-06-25T15:44:57Z</time>
      </trkpt>
      <trkpt lat="46.10916" lon="4.65599">
        <ele>480.4</ele>
        <time>2022-06-25T15:44:58Z</time>
      </trkpt>
      <trkpt lat="46.10914" lon="4.65598">
        <ele>480.4</ele>
        <time>2022-06-25T15:44:59Z</time>
      </trkpt>
      <trkpt lat="46.10912" lon="4.65597">
        <ele>480.6</ele>
        <time>2022-06-25T15:45:00Z</time>
      </trkpt>
      <trkpt lat="46.10911" lon="4.65597">
        <ele>480.6</ele>
        <time>2022-06-25T15:45:01Z</time>
      </trkpt>
      <trkpt lat="46.1091" lon="4.65597">
        <ele>480.8</ele>
        <time>2022-06-25T15:45:02Z</time>
      </trkpt>
      <trkpt lat="46.10908" lon="4.65596">
        <ele>480.8</ele>
        <time>2022-06-25T15:45:03Z</time>
      </trkpt>
      <trkpt lat="46.10907" lon="4.65596">
        <ele>481.2</ele>
        <time>2022-06-25T15:45:04Z</time>
      </trkpt>
      <trkpt lat="46.10905" lon="4.65595">
        <ele>481.2</ele>
        <time>2022-06-25T15:45:05Z</time>
      </trkpt>
      <trkpt lat="46.10903" lon="4.65594">
        <ele>481.4</ele>
        <time>2022-06-25T15:45:06Z</time>
      </trkpt>
      <trkpt lat="46.10901" lon="4.65593">
        <ele>481.8</ele>
        <time>2022-06-25T15:45:07Z</time>
      </trkpt>
      <trkpt lat="46.109" lon="4.65592">
        <ele>481.8</ele>
        <time>2022-06-25T15:45:08Z</time>
      </trkpt>
      <trkpt lat="46.10898" lon="4.65592">
        <ele>481.8</ele>
        <time>2022-06-25T15:45:09Z</time>
      </trkpt>
      <trkpt lat="46.10896" lon="4.65592">
        <ele>482.2</ele>
        <time>2022-06-25T15:45:10Z</time>
      </trkpt>
      <trkpt lat="46.10895" lon="4.65591">
        <ele>482.4</ele>
        <time>2022-06-25T15:45:11Z</time>
      </trkpt>
      <trkpt lat="46.10894" lon="4.65591">
        <ele>482.4</ele>
        <time>2022-06-25T15:45:12Z</time>
      </trkpt>
      <trkpt lat="46.10893" lon="4.6559">
        <ele>482.8</ele>
        <time>2022-06-25T15:45:13Z</time>
      </trkpt>
      <trkpt lat="46.10892" lon="4.65589">
        <ele>482.8</ele>
        <time>2022-06-25T15:45:14Z</time>
      </trkpt>
      <trkpt lat="46.10891" lon="4.65589">
        <ele>483.2</ele>
        <time>2022-06-25T15:45:15Z</time>
      </trkpt>
      <trkpt lat="46.10889" lon="4.65588">
        <ele>483.4</ele>
        <time>2022-06-25T15:45:16Z</time>
      </trkpt>
      <trkpt lat="46.10888" lon="4.65586">
        <ele>483.6</ele>
        <time>2022-06-25T15:45:17Z</time>
      </trkpt>
      <trkpt lat="46.10887" lon="4.65584">
        <ele>483.8</ele>
        <time>2022-06-25T15:45:18Z</time>
      </trkpt>
      <trkpt lat="46.10887" lon="4.65582">
        <ele>484.2</ele>
        <time>2022-06-25T15:45:19Z</time>
      </trkpt>
      <trkpt lat="46.10886" lon="4.65579">
        <ele>484.4</ele>
        <time>2022-06-25T15:45:20Z</time>
      </trkpt>
      <trkpt lat="46.10886" lon="4.65577">
        <ele>484.8</ele>
        <time>2022-06-25T15:45:21Z</time>
      </trkpt>
      <trkpt lat="46.10886" lon="4.65574">
        <ele>484.8</ele>
        <time>2022-06-25T15:45:22Z</time>
      </trkpt>
      <trkpt lat="46.10887" lon="4.65571">
        <ele>485</ele>
        <time>2022-06-25T15:45:23Z</time>
      </trkpt>
      <trkpt lat="46.10888" lon="4.65569">
        <ele>485</ele>
        <time>2022-06-25T15:45:24Z</time>
      </trkpt>
      <trkpt lat="46.10889" lon="4.65568">
        <ele>485.4</ele>
        <time>2022-06-25T15:45:25Z</time>
      </trkpt>
      <trkpt lat="46.1089" lon="4.65566">
        <ele>485.4</ele>
        <time>2022-06-25T15:45:26Z</time>
      </trkpt>
      <trkpt lat="46.1089" lon="4.65564">
        <ele>486</ele>
        <time>2022-06-25T15:45:27Z</time>
      </trkpt>
      <trkpt lat="46.10891" lon="4.65563">
        <ele>486.2</ele>
        <time>2022-06-25T15:45:28Z</time>
      </trkpt>
      <trkpt lat="46.10892" lon="4.65561">
        <ele>486.4</ele>
        <time>2022-06-25T15:45:29Z</time>
      </trkpt>
      <trkpt lat="46.10892" lon="4.65559">
        <ele>486.6</ele>
        <time>2022-06-25T15:45:30Z</time>
      </trkpt>
      <trkpt lat="46.10893" lon="4.65558">
        <ele>486.6</ele>
        <time>2022-06-25T15:45:31Z</time>
      </trkpt>
      <trkpt lat="46.10894" lon="4.65556">
        <ele>487</ele>
        <time>2022-06-25T15:45:32Z</time>
      </trkpt>
      <trkpt lat="46.10895" lon="4.65554">
        <ele>487</ele>
        <time>2022-06-25T15:45:33Z</time>
      </trkpt>
      <trkpt lat="46.10896" lon="4.65552">
        <ele>487.4</ele>
        <time>2022-06-25T15:45:34Z</time>
      </trkpt>
      <trkpt lat="46.10897" lon="4.6555">
        <ele>487.4</ele>
        <time>2022-06-25T15:45:35Z</time>
      </trkpt>
      <trkpt lat="46.10898" lon="4.65548">
        <ele>487.8</ele>
        <time>2022-06-25T15:45:36Z</time>
      </trkpt>
      <trkpt lat="46.10899" lon="4.65546">
        <ele>488.2</ele>
        <time>2022-06-25T15:45:37Z</time>
      </trkpt>
      <trkpt lat="46.109" lon="4.65544">
        <ele>488.4</ele>
        <time>2022-06-25T15:45:38Z</time>
      </trkpt>
      <trkpt lat="46.10901" lon="4.65543">
        <ele>488.4</ele>
        <time>2022-06-25T15:45:39Z</time>
      </trkpt>
      <trkpt lat="46.10902" lon="4.65541">
        <ele>489</ele>
        <time>2022-06-25T15:45:40Z</time>
      </trkpt>
      <trkpt lat="46.10903" lon="4.65539">
        <ele>489.2</ele>
        <time>2022-06-25T15:45:41Z</time>
      </trkpt>
      <trkpt lat="46.10904" lon="4.65538">
        <ele>489.4</ele>
        <time>2022-06-25T15:45:42Z</time>
      </trkpt>
      <trkpt lat="46.10905" lon="4.65536">
        <ele>489.8</ele>
        <time>2022-06-25T15:45:43Z</time>
      </trkpt>
      <trkpt lat="46.10906" lon="4.65535">
        <ele>490</ele>
        <time>2022-06-25T15:45:44Z</time>
      </trkpt>
      <trkpt lat="46.10908" lon="4.65533">
        <ele>490.2</ele>
        <time>2022-06-25T15:45:45Z</time>
      </trkpt>
      <trkpt lat="46.10909" lon="4.65532">
        <ele>490.4</ele>
        <time>2022-06-25T15:45:46Z</time>
      </trkpt>
      <trkpt lat="46.1091" lon="4.6553">
        <ele>490.6</ele>
        <time>2022-06-25T15:45:47Z</time>
      </trkpt>
      <trkpt lat="46.10911" lon="4.65528">
        <ele>490.6</ele>
        <time>2022-06-25T15:45:48Z</time>
      </trkpt>
      <trkpt lat="46.10912" lon="4.65526">
        <ele>491</ele>
        <time>2022-06-25T15:45:49Z</time>
      </trkpt>
      <trkpt lat="46.10913" lon="4.65525">
        <ele>491.2</ele>
        <time>2022-06-25T15:45:50Z</time>
      </trkpt>
      <trkpt lat="46.10914" lon="4.65523">
        <ele>491.6</ele>
        <time>2022-06-25T15:45:51Z</time>
      </trkpt>
      <trkpt lat="46.10915" lon="4.65521">
        <ele>491.8</ele>
        <time>2022-06-25T15:45:52Z</time>
      </trkpt>
      <trkpt lat="46.10916" lon="4.65519">
        <ele>492</ele>
        <time>2022-06-25T15:45:53Z</time>
      </trkpt>
      <trkpt lat="46.10916" lon="4.65517">
        <ele>492.4</ele>
        <time>2022-06-25T15:45:54Z</time>
      </trkpt>
      <trkpt lat="46.10917" lon="4.65515">
        <ele>492.6</ele>
        <time>2022-06-25T15:45:55Z</time>
      </trkpt>
      <trkpt lat="46.10917" lon="4.65513">
        <ele>492.8</ele>
        <time>2022-06-25T15:45:56Z</time>
      </trkpt>
      <trkpt lat="46.10917" lon="4.65512">
        <ele>493</ele>
        <time>2022-06-25T15:45:57Z</time>
      </trkpt>
      <trkpt lat="46.10916" lon="4.6551">
        <ele>493.4</ele>
        <time>2022-06-25T15:45:58Z</time>
      </trkpt>
      <trkpt lat="46.10916" lon="4.65508">
        <ele>493.6</ele>
        <time>2022-06-25T15:45:59Z</time>
      </trkpt>
      <trkpt lat="46.10915" lon="4.65507">
        <ele>493.8</ele>
        <time>2022-06-25T15:46:00Z</time>
      </trkpt>
      <trkpt lat="46.10913" lon="4.65506">
        <ele>494</ele>
        <time>2022-06-25T15:46:01Z</time>
      </trkpt>
      <trkpt lat="46.10912" lon="4.65505">
        <ele>494.2</ele>
        <time>2022-06-25T15:46:02Z</time>
      </trkpt>
      <trkpt lat="46.10911" lon="4.65504">
        <ele>494.6</ele>
        <time>2022-06-25T15:46:03Z</time>
      </trkpt>
      <trkpt lat="46.10909" lon="4.65504">
        <ele>494.8</ele>
        <time>2022-06-25T15:46:04Z</time>
      </trkpt>
      <trkpt lat="46.10908" lon="4.65504">
        <ele>495</ele>
        <time>2022-06-25T15:46:05Z</time>
      </trkpt>
      <trkpt lat="46.10906" lon="4.65503">
        <ele>495</ele>
        <time>2022-06-25T15:46:06Z</time>
      </trkpt>
      <trkpt lat="46.10905" lon="4.65504">
        <ele>495.4</ele>
        <time>2022-06-25T15:46:07Z</time>
      </trkpt>
      <trkpt lat="46.10903" lon="4.65504">
        <ele>495.4</ele>
        <time>2022-06-25T15:46:08Z</time>
      </trkpt>
      <trkpt lat="46.10901" lon="4.65504">
        <ele>495.8</ele>
        <time>2022-06-25T15:46:09Z</time>
      </trkpt>
      <trkpt lat="46.10899" lon="4.65504">
        <ele>495.8</ele>
        <time>2022-06-25T15:46:10Z</time>
      </trkpt>
      <trkpt lat="46.10897" lon="4.65504">
        <ele>496</ele>
        <time>2022-06-25T15:46:11Z</time>
      </trkpt>
      <trkpt lat="46.10896" lon="4.65504">
        <ele>496</ele>
        <time>2022-06-25T15:46:12Z</time>
      </trkpt>
      <trkpt lat="46.10894" lon="4.65504">
        <ele>496.4</ele>
        <time>2022-06-25T15:46:13Z</time>
      </trkpt>
      <trkpt lat="46.10892" lon="4.65504">
        <ele>496.6</ele>
        <time>2022-06-25T15:46:14Z</time>
      </trkpt>
      <trkpt lat="46.10891" lon="4.65504">
        <ele>496.6</ele>
        <time>2022-06-25T15:46:15Z</time>
      </trkpt>
      <trkpt lat="46.10889" lon="4.65504">
        <ele>496.8</ele>
        <time>2022-06-25T15:46:16Z</time>
      </trkpt>
      <trkpt lat="46.10887" lon="4.65504">
        <ele>496.8</ele>
        <time>2022-06-25T15:46:17Z</time>
      </trkpt>
      <trkpt lat="46.10885" lon="4.65504">
        <ele>497</ele>
        <time>2022-06-25T15:46:18Z</time>
      </trkpt>
      <trkpt lat="46.10883" lon="4.65503">
        <ele>497</ele>
        <time>2022-06-25T15:46:19Z</time>
      </trkpt>
      <trkpt lat="46.10881" lon="4.65503">
        <ele>497.4</ele>
        <time>2022-06-25T15:46:20Z</time>
      </trkpt>
      <trkpt lat="46.10879" lon="4.65503">
        <ele>497.4</ele>
        <time>2022-06-25T15:46:21Z</time>
      </trkpt>
      <trkpt lat="46.10877" lon="4.65503">
        <ele>497.6</ele>
        <time>2022-06-25T15:46:22Z</time>
      </trkpt>
      <trkpt lat="46.10875" lon="4.65502">
        <ele>497.6</ele>
        <time>2022-06-25T15:46:23Z</time>
      </trkpt>
      <trkpt lat="46.10873" lon="4.65501">
        <ele>497.8</ele>
        <time>2022-06-25T15:46:24Z</time>
      </trkpt>
      <trkpt lat="46.10871" lon="4.65501">
        <ele>497.8</ele>
        <time>2022-06-25T15:46:25Z</time>
      </trkpt>
      <trkpt lat="46.10869" lon="4.65501">
        <ele>498</ele>
        <time>2022-06-25T15:46:26Z</time>
      </trkpt>
      <trkpt lat="46.10867" lon="4.655">
        <ele>498</ele>
        <time>2022-06-25T15:46:27Z</time>
      </trkpt>
      <trkpt lat="46.10864" lon="4.655">
        <ele>498.4</ele>
        <time>2022-06-25T15:46:28Z</time>
      </trkpt>
      <trkpt lat="46.10862" lon="4.655">
        <ele>498.4</ele>
        <time>2022-06-25T15:46:29Z</time>
      </trkpt>
      <trkpt lat="46.10861" lon="4.655">
        <ele>498.4</ele>
        <time>2022-06-25T15:46:30Z</time>
      </trkpt>
      <trkpt lat="46.10859" lon="4.655">
        <ele>498.6</ele>
        <time>2022-06-25T15:46:31Z</time>
      </trkpt>
      <trkpt lat="46.10857" lon="4.655">
        <ele>498.6</ele>
        <time>2022-06-25T15:46:32Z</time>
      </trkpt>
      <trkpt lat="46.10855" lon="4.65499">
        <ele>499</ele>
        <time>2022-06-25T15:46:33Z</time>
      </trkpt>
      <trkpt lat="46.10854" lon="4.65498">
        <ele>499</ele>
        <time>2022-06-25T15:46:34Z</time>
      </trkpt>
      <trkpt lat="46.10852" lon="4.65497">
        <ele>499.4</ele>
        <time>2022-06-25T15:46:35Z</time>
      </trkpt>
      <trkpt lat="46.1085" lon="4.65496">
        <ele>499.4</ele>
        <time>2022-06-25T15:46:36Z</time>
      </trkpt>
      <trkpt lat="46.10848" lon="4.65495">
        <ele>499.6</ele>
        <time>2022-06-25T15:46:37Z</time>
      </trkpt>
      <trkpt lat="46.10846" lon="4.65493">
        <ele>499.6</ele>
        <time>2022-06-25T15:46:38Z</time>
      </trkpt>
      <trkpt lat="46.10844" lon="4.65492">
        <ele>500</ele>
        <time>2022-06-25T15:46:39Z</time>
      </trkpt>
      <trkpt lat="46.10843" lon="4.65492">
        <ele>500.2</ele>
        <time>2022-06-25T15:46:40Z</time>
      </trkpt>
      <trkpt lat="46.10841" lon="4.65491">
        <ele>500.6</ele>
        <time>2022-06-25T15:46:41Z</time>
      </trkpt>
      <trkpt lat="46.1084" lon="4.6549">
        <ele>500.8</ele>
        <time>2022-06-25T15:46:42Z</time>
      </trkpt>
      <trkpt lat="46.10839" lon="4.65489">
        <ele>501.2</ele>
        <time>2022-06-25T15:46:43Z</time>
      </trkpt>
      <trkpt lat="46.10837" lon="4.65488">
        <ele>501.4</ele>
        <time>2022-06-25T15:46:44Z</time>
      </trkpt>
      <trkpt lat="46.10836" lon="4.65486">
        <ele>501.4</ele>
        <time>2022-06-25T15:46:45Z</time>
      </trkpt>
      <trkpt lat="46.10835" lon="4.65484">
        <ele>501.8</ele>
        <time>2022-06-25T15:46:46Z</time>
      </trkpt>
      <trkpt lat="46.10834" lon="4.65483">
        <ele>502.2</ele>
        <time>2022-06-25T15:46:47Z</time>
      </trkpt>
      <trkpt lat="46.10833" lon="4.65481">
        <ele>502.4</ele>
        <time>2022-06-25T15:46:48Z</time>
      </trkpt>
      <trkpt lat="46.10832" lon="4.6548">
        <ele>502.4</ele>
        <time>2022-06-25T15:46:49Z</time>
      </trkpt>
      <trkpt lat="46.1083" lon="4.65478">
        <ele>502.6</ele>
        <time>2022-06-25T15:46:50Z</time>
      </trkpt>
      <trkpt lat="46.10829" lon="4.65477">
        <ele>502.6</ele>
        <time>2022-06-25T15:46:51Z</time>
      </trkpt>
      <trkpt lat="46.10828" lon="4.65475">
        <ele>503</ele>
        <time>2022-06-25T15:46:52Z</time>
      </trkpt>
      <trkpt lat="46.10827" lon="4.65474">
        <ele>503</ele>
        <time>2022-06-25T15:46:53Z</time>
      </trkpt>
      <trkpt lat="46.10825" lon="4.65472">
        <ele>503.4</ele>
        <time>2022-06-25T15:46:54Z</time>
      </trkpt>
      <trkpt lat="46.10824" lon="4.65471">
        <ele>503.4</ele>
        <time>2022-06-25T15:46:55Z</time>
      </trkpt>
      <trkpt lat="46.10823" lon="4.65469">
        <ele>503.6</ele>
        <time>2022-06-25T15:46:56Z</time>
      </trkpt>
      <trkpt lat="46.10821" lon="4.65468">
        <ele>503.8</ele>
        <time>2022-06-25T15:46:57Z</time>
      </trkpt>
      <trkpt lat="46.1082" lon="4.65466">
        <ele>503.8</ele>
        <time>2022-06-25T15:46:58Z</time>
      </trkpt>
      <trkpt lat="46.10818" lon="4.65465">
        <ele>504.2</ele>
        <time>2022-06-25T15:46:59Z</time>
      </trkpt>
      <trkpt lat="46.10816" lon="4.65465">
        <ele>504.2</ele>
        <time>2022-06-25T15:47:00Z</time>
      </trkpt>
      <trkpt lat="46.10814" lon="4.65464">
        <ele>504.6</ele>
        <time>2022-06-25T15:47:01Z</time>
      </trkpt>
      <trkpt lat="46.10812" lon="4.65464">
        <ele>504.6</ele>
        <time>2022-06-25T15:47:02Z</time>
      </trkpt>
      <trkpt lat="46.1081" lon="4.65464">
        <ele>504.8</ele>
        <time>2022-06-25T15:47:03Z</time>
      </trkpt>
      <trkpt lat="46.10809" lon="4.65464">
        <ele>505</ele>
        <time>2022-06-25T15:47:04Z</time>
      </trkpt>
      <trkpt lat="46.10807" lon="4.65464">
        <ele>505</ele>
        <time>2022-06-25T15:47:05Z</time>
      </trkpt>
      <trkpt lat="46.10805" lon="4.65464">
        <ele>505.2</ele>
        <time>2022-06-25T15:47:06Z</time>
      </trkpt>
      <trkpt lat="46.10804" lon="4.65464">
        <ele>505.2</ele>
        <time>2022-06-25T15:47:07Z</time>
      </trkpt>
      <trkpt lat="46.10802" lon="4.65464">
        <ele>505.6</ele>
        <time>2022-06-25T15:47:08Z</time>
      </trkpt>
      <trkpt lat="46.108" lon="4.65464">
        <ele>505.8</ele>
        <time>2022-06-25T15:47:09Z</time>
      </trkpt>
      <trkpt lat="46.10799" lon="4.65464">
        <ele>505.8</ele>
        <time>2022-06-25T15:47:10Z</time>
      </trkpt>
      <trkpt lat="46.10797" lon="4.65464">
        <ele>506</ele>
        <time>2022-06-25T15:47:11Z</time>
      </trkpt>
      <trkpt lat="46.10796" lon="4.65465">
        <ele>506</ele>
        <time>2022-06-25T15:47:12Z</time>
      </trkpt>
      <trkpt lat="46.10794" lon="4.65466">
        <ele>506.4</ele>
        <time>2022-06-25T15:47:13Z</time>
      </trkpt>
      <trkpt lat="46.10793" lon="4.65466">
        <ele>506.4</ele>
        <time>2022-06-25T15:47:14Z</time>
      </trkpt>
      <trkpt lat="46.10792" lon="4.65467">
        <ele>506.6</ele>
        <time>2022-06-25T15:47:15Z</time>
      </trkpt>
      <trkpt lat="46.1079" lon="4.65468">
        <ele>506.6</ele>
        <time>2022-06-25T15:47:16Z</time>
      </trkpt>
      <trkpt lat="46.10789" lon="4.65469">
        <ele>507</ele>
        <time>2022-06-25T15:47:17Z</time>
      </trkpt>
      <trkpt lat="46.10787" lon="4.6547">
        <ele>507</ele>
        <time>2022-06-25T15:47:18Z</time>
      </trkpt>
      <trkpt lat="46.10786" lon="4.6547">
        <ele>507.2</ele>
        <time>2022-06-25T15:47:19Z</time>
      </trkpt>
      <trkpt lat="46.10785" lon="4.65471">
        <ele>507.2</ele>
        <time>2022-06-25T15:47:20Z</time>
      </trkpt>
      <trkpt lat="46.10783" lon="4.65471">
        <ele>507.2</ele>
        <time>2022-06-25T15:47:21Z</time>
      </trkpt>
      <trkpt lat="46.10782" lon="4.65472">
        <ele>507.6</ele>
        <time>2022-06-25T15:47:22Z</time>
      </trkpt>
      <trkpt lat="46.10781" lon="4.65473">
        <ele>507.6</ele>
        <time>2022-06-25T15:47:23Z</time>
      </trkpt>
      <trkpt lat="46.10779" lon="4.65474">
        <ele>507.8</ele>
        <time>2022-06-25T15:47:24Z</time>
      </trkpt>
      <trkpt lat="46.10778" lon="4.65475">
        <ele>507.8</ele>
        <time>2022-06-25T15:47:25Z</time>
      </trkpt>
      <trkpt lat="46.10776" lon="4.65477">
        <ele>508</ele>
        <time>2022-06-25T15:47:26Z</time>
      </trkpt>
      <trkpt lat="46.10775" lon="4.65478">
        <ele>508</ele>
        <time>2022-06-25T15:47:27Z</time>
      </trkpt>
      <trkpt lat="46.10774" lon="4.65479">
        <ele>508.4</ele>
        <time>2022-06-25T15:47:28Z</time>
      </trkpt>
      <trkpt lat="46.10773" lon="4.65481">
        <ele>508.4</ele>
        <time>2022-06-25T15:47:29Z</time>
      </trkpt>
      <trkpt lat="46.10772" lon="4.65482">
        <ele>508.6</ele>
        <time>2022-06-25T15:47:30Z</time>
      </trkpt>
      <trkpt lat="46.10771" lon="4.65485">
        <ele>508.6</ele>
        <time>2022-06-25T15:47:31Z</time>
      </trkpt>
      <trkpt lat="46.1077" lon="4.65487">
        <ele>509</ele>
        <time>2022-06-25T15:47:32Z</time>
      </trkpt>
      <trkpt lat="46.10769" lon="4.65489">
        <ele>509</ele>
        <time>2022-06-25T15:47:33Z</time>
      </trkpt>
      <trkpt lat="46.10768" lon="4.65491">
        <ele>509</ele>
        <time>2022-06-25T15:47:34Z</time>
      </trkpt>
      <trkpt lat="46.10768" lon="4.65493">
        <ele>509.4</ele>
        <time>2022-06-25T15:47:35Z</time>
      </trkpt>
      <trkpt lat="46.10767" lon="4.65495">
        <ele>509.4</ele>
        <time>2022-06-25T15:47:36Z</time>
      </trkpt>
      <trkpt lat="46.10765" lon="4.65497">
        <ele>509.4</ele>
        <time>2022-06-25T15:47:37Z</time>
      </trkpt>
      <trkpt lat="46.10764" lon="4.65499">
        <ele>509.6</ele>
        <time>2022-06-25T15:47:38Z</time>
      </trkpt>
      <trkpt lat="46.10762" lon="4.65502">
        <ele>509.6</ele>
        <time>2022-06-25T15:47:39Z</time>
      </trkpt>
      <trkpt lat="46.1076" lon="4.65504">
        <ele>509.6</ele>
        <time>2022-06-25T15:47:40Z</time>
      </trkpt>
      <trkpt lat="46.10758" lon="4.65506">
        <ele>509.8</ele>
        <time>2022-06-25T15:47:41Z</time>
      </trkpt>
      <trkpt lat="46.10756" lon="4.65507">
        <ele>509.8</ele>
        <time>2022-06-25T15:47:42Z</time>
      </trkpt>
      <trkpt lat="46.10754" lon="4.65508">
        <ele>509.8</ele>
        <time>2022-06-25T15:47:43Z</time>
      </trkpt>
      <trkpt lat="46.10753" lon="4.65509">
        <ele>510</ele>
        <time>2022-06-25T15:47:44Z</time>
      </trkpt>
      <trkpt lat="46.10751" lon="4.65509">
        <ele>510</ele>
        <time>2022-06-25T15:47:45Z</time>
      </trkpt>
      <trkpt lat="46.10749" lon="4.6551">
        <ele>510.4</ele>
        <time>2022-06-25T15:47:46Z</time>
      </trkpt>
      <trkpt lat="46.10747" lon="4.6551">
        <ele>510.4</ele>
        <time>2022-06-25T15:47:47Z</time>
      </trkpt>
      <trkpt lat="46.10745" lon="4.6551">
        <ele>510.4</ele>
        <time>2022-06-25T15:47:48Z</time>
      </trkpt>
      <trkpt lat="46.10743" lon="4.6551">
        <ele>510.6</ele>
        <time>2022-06-25T15:47:49Z</time>
      </trkpt>
      <trkpt lat="46.10741" lon="4.6551">
        <ele>510.6</ele>
        <time>2022-06-25T15:47:50Z</time>
      </trkpt>
      <trkpt lat="46.10739" lon="4.65509">
        <ele>510.6</ele>
        <time>2022-06-25T15:47:51Z</time>
      </trkpt>
      <trkpt lat="46.10736" lon="4.65508">
        <ele>510.6</ele>
        <time>2022-06-25T15:47:52Z</time>
      </trkpt>
      <trkpt lat="46.10734" lon="4.65508">
        <ele>510.6</ele>
        <time>2022-06-25T15:47:53Z</time>
      </trkpt>
      <trkpt lat="46.10732" lon="4.65507">
        <ele>510.6</ele>
        <time>2022-06-25T15:47:54Z</time>
      </trkpt>
      <trkpt lat="46.1073" lon="4.65506">
        <ele>510.8</ele>
        <time>2022-06-25T15:47:55Z</time>
      </trkpt>
      <trkpt lat="46.10728" lon="4.65505">
        <ele>510.8</ele>
        <time>2022-06-25T15:47:56Z</time>
      </trkpt>
      <trkpt lat="46.10726" lon="4.65505">
        <ele>510.8</ele>
        <time>2022-06-25T15:47:57Z</time>
      </trkpt>
      <trkpt lat="46.10724" lon="4.65505">
        <ele>510.8</ele>
        <time>2022-06-25T15:47:58Z</time>
      </trkpt>
      <trkpt lat="46.10722" lon="4.65505">
        <ele>510.8</ele>
        <time>2022-06-25T15:47:59Z</time>
      </trkpt>
      <trkpt lat="46.1072" lon="4.65506">
        <ele>510.8</ele>
        <time>2022-06-25T15:48:00Z</time>
      </trkpt>
      <trkpt lat="46.10718" lon="4.65506">
        <ele>510.8</ele>
        <time>2022-06-25T15:48:01Z</time>
      </trkpt>
      <trkpt lat="46.10717" lon="4.65506">
        <ele>510.8</ele>
        <time>2022-06-25T15:48:02Z</time>
      </trkpt>
      <trkpt lat="46.10716" lon="4.65506">
        <ele>510.8</ele>
        <time>2022-06-25T15:48:03Z</time>
      </trkpt>
      <trkpt lat="46.10716" lon="4.65506">
        <ele>510.6</ele>
        <time>2022-06-25T15:48:05Z</time>
      </trkpt>
      <trkpt lat="46.10716" lon="4.65506">
        <ele>510.6</ele>
        <time>2022-06-25T15:49:04Z</time>
      </trkpt>
      <trkpt lat="46.10718" lon="4.65503">
        <ele>510.6</ele>
        <time>2022-06-25T15:49:06Z</time>
      </trkpt>
      <trkpt lat="46.10719" lon="4.65503">
        <ele>510.6</ele>
        <time>2022-06-25T15:49:07Z</time>
      </trkpt>
      <trkpt lat="46.1072" lon="4.65503">
        <ele>510.6</ele>
        <time>2022-06-25T15:49:08Z</time>
      </trkpt>
      <trkpt lat="46.1072" lon="4.65503">
        <ele>510.6</ele>
        <time>2022-06-25T15:49:10Z</time>
      </trkpt>
      <trkpt lat="46.10721" lon="4.65503">
        <ele>510.6</ele>
        <time>2022-06-25T15:49:12Z</time>
      </trkpt>
      <trkpt lat="46.10721" lon="4.65503">
        <ele>510.6</ele>
        <time>2022-06-25T15:49:13Z</time>
      </trkpt>
      <trkpt lat="46.10721" lon="4.65504">
        <ele>510.6</ele>
        <time>2022-06-25T15:49:14Z</time>
      </trkpt>
      <trkpt lat="46.10722" lon="4.65504">
        <ele>510.6</ele>
        <time>2022-06-25T15:49:16Z</time>
      </trkpt>
      <trkpt lat="46.10722" lon="4.65504">
        <ele>510.6</ele>
        <time>2022-06-25T15:49:17Z</time>
      </trkpt>
      <trkpt lat="46.10722" lon="4.65504">
        <ele>510.6</ele>
        <time>2022-06-25T15:49:19Z</time>
      </trkpt>
      <trkpt lat="46.10723" lon="4.65504">
        <ele>510.6</ele>
        <time>2022-06-25T15:49:20Z</time>
      </trkpt>
      <trkpt lat="46.10723" lon="4.65504">
        <ele>510.6</ele>
        <time>2022-06-25T15:49:22Z</time>
      </trkpt>
      <trkpt lat="46.10724" lon="4.65504">
        <ele>510.6</ele>
        <time>2022-06-25T15:49:24Z</time>
      </trkpt>
      <trkpt lat="46.10724" lon="4.65504">
        <ele>510.6</ele>
        <time>2022-06-25T15:49:25Z</time>
      </trkpt>
      <trkpt lat="46.10724" lon="4.65505">
        <ele>510.6</ele>
        <time>2022-06-25T15:49:26Z</time>
      </trkpt>
      <trkpt lat="46.10725" lon="4.65505">
        <ele>510.6</ele>
        <time>2022-06-25T15:49:28Z</time>
      </trkpt>
      <trkpt lat="46.10725" lon="4.65505">
        <ele>510.8</ele>
        <time>2022-06-25T15:49:30Z</time>
      </trkpt>
      <trkpt lat="46.10725" lon="4.65505">
        <ele>510.8</ele>
        <time>2022-06-25T15:49:32Z</time>
      </trkpt>
      <trkpt lat="46.10726" lon="4.65505">
        <ele>510.8</ele>
        <time>2022-06-25T15:49:33Z</time>
      </trkpt>
      <trkpt lat="46.10726" lon="4.65505">
        <ele>510.8</ele>
        <time>2022-06-25T15:49:36Z</time>
      </trkpt>
      <trkpt lat="46.10727" lon="4.65505">
        <ele>511.2</ele>
        <time>2022-06-25T15:50:28Z</time>
      </trkpt>
      <trkpt lat="46.10727" lon="4.65505">
        <ele>511.2</ele>
        <time>2022-06-25T15:50:30Z</time>
      </trkpt>
      <trkpt lat="46.10727" lon="4.65506">
        <ele>511.2</ele>
        <time>2022-06-25T15:50:31Z</time>
      </trkpt>
      <trkpt lat="46.10727" lon="4.65506">
        <ele>511.6</ele>
        <time>2022-06-25T15:51:54Z</time>
      </trkpt>
      <trkpt lat="46.10728" lon="4.65506">
        <ele>511.6</ele>
        <time>2022-06-25T15:51:55Z</time>
      </trkpt>
      <trkpt lat="46.10728" lon="4.65506">
        <ele>511.6</ele>
        <time>2022-06-25T15:51:57Z</time>
      </trkpt>
      <trkpt lat="46.10729" lon="4.65506">
        <ele>511.6</ele>
        <time>2022-06-25T15:51:59Z</time>
      </trkpt>
      <trkpt lat="46.10729" lon="4.65506">
        <ele>510.6</ele>
        <time>2022-06-25T15:56:08Z</time>
      </trkpt>
      <trkpt lat="46.10729" lon="4.65506">
        <ele>510.6</ele>
        <time>2022-06-25T15:56:10Z</time>
      </trkpt>
      <trkpt lat="46.1073" lon="4.65506">
        <ele>510.6</ele>
        <time>2022-06-25T15:56:11Z</time>
      </trkpt>
      <trkpt lat="46.1073" lon="4.65507">
        <ele>510.6</ele>
        <time>2022-06-25T15:56:13Z</time>
      </trkpt>
      <trkpt lat="46.1073" lon="4.65507">
        <ele>510.6</ele>
        <time>2022-06-25T15:56:14Z</time>
      </trkpt>
      <trkpt lat="46.10731" lon="4.65507">
        <ele>510.6</ele>
        <time>2022-06-25T15:56:18Z</time>
      </trkpt>
      <trkpt lat="46.10731" lon="4.65507">
        <ele>510.6</ele>
        <time>2022-06-25T15:56:20Z</time>
      </trkpt>
      <trkpt lat="46.10732" lon="4.65507">
        <ele>510.4</ele>
        <time>2022-06-25T15:56:22Z</time>
      </trkpt>
      <trkpt lat="46.10732" lon="4.65507">
        <ele>510.4</ele>
        <time>2022-06-25T15:56:23Z</time>
      </trkpt>
      <trkpt lat="46.10732" lon="4.65507">
        <ele>510.4</ele>
        <time>2022-06-25T15:56:25Z</time>
      </trkpt>
      <trkpt lat="46.10733" lon="4.65507">
        <ele>510.4</ele>
        <time>2022-06-25T15:56:26Z</time>
      </trkpt>
      <trkpt lat="46.10733" lon="4.65508">
        <ele>510.4</ele>
        <time>2022-06-25T15:56:28Z</time>
      </trkpt>
      <trkpt lat="46.10732" lon="4.65507">
        <ele>510.4</ele>
        <time>2022-06-25T15:56:29Z</time>
      </trkpt>
      <trkpt lat="46.1073" lon="4.65506">
        <ele>510.4</ele>
        <time>2022-06-25T15:56:30Z</time>
      </trkpt>
      <trkpt lat="46.10728" lon="4.65506">
        <ele>510.4</ele>
        <time>2022-06-25T15:56:31Z</time>
      </trkpt>
      <trkpt lat="46.10726" lon="4.65506">
        <ele>510.6</ele>
        <time>2022-06-25T15:56:32Z</time>
      </trkpt>
      <trkpt lat="46.10725" lon="4.65505">
        <ele>510.6</ele>
        <time>2022-06-25T15:56:33Z</time>
      </trkpt>
      <trkpt lat="46.10723" lon="4.65504">
        <ele>510.6</ele>
        <time>2022-06-25T15:56:34Z</time>
      </trkpt>
      <trkpt lat="46.1072" lon="4.65504">
        <ele>510.6</ele>
        <time>2022-06-25T15:56:35Z</time>
      </trkpt>
      <trkpt lat="46.10718" lon="4.65503">
        <ele>510.6</ele>
        <time>2022-06-25T15:56:36Z</time>
      </trkpt>
      <trkpt lat="46.10715" lon="4.65502">
        <ele>510.6</ele>
        <time>2022-06-25T15:56:37Z</time>
      </trkpt>
      <trkpt lat="46.10712" lon="4.65501">
        <ele>510.4</ele>
        <time>2022-06-25T15:56:38Z</time>
      </trkpt>
      <trkpt lat="46.10709" lon="4.65501">
        <ele>510.4</ele>
        <time>2022-06-25T15:56:39Z</time>
      </trkpt>
      <trkpt lat="46.10705" lon="4.65501">
        <ele>510.4</ele>
        <time>2022-06-25T15:56:40Z</time>
      </trkpt>
      <trkpt lat="46.10702" lon="4.65501">
        <ele>510.2</ele>
        <time>2022-06-25T15:56:41Z</time>
      </trkpt>
      <trkpt lat="46.10698" lon="4.65501">
        <ele>509.8</ele>
        <time>2022-06-25T15:56:42Z</time>
      </trkpt>
      <trkpt lat="46.10695" lon="4.65502">
        <ele>509.6</ele>
        <time>2022-06-25T15:56:43Z</time>
      </trkpt>
      <trkpt lat="46.10693" lon="4.65502">
        <ele>509.4</ele>
        <time>2022-06-25T15:56:44Z</time>
      </trkpt>
      <trkpt lat="46.10691" lon="4.65502">
        <ele>509</ele>
        <time>2022-06-25T15:56:45Z</time>
      </trkpt>
      <trkpt lat="46.10689" lon="4.65501">
        <ele>509</ele>
        <time>2022-06-25T15:56:46Z</time>
      </trkpt>
      <trkpt lat="46.10688" lon="4.655">
        <ele>508.6</ele>
        <time>2022-06-25T15:56:47Z</time>
      </trkpt>
      <trkpt lat="46.10686" lon="4.65498">
        <ele>508.6</ele>
        <time>2022-06-25T15:56:48Z</time>
      </trkpt>
      <trkpt lat="46.10685" lon="4.65497">
        <ele>508.2</ele>
        <time>2022-06-25T15:56:49Z</time>
      </trkpt>
      <trkpt lat="46.10684" lon="4.65494">
        <ele>508.2</ele>
        <time>2022-06-25T15:56:50Z</time>
      </trkpt>
      <trkpt lat="46.10683" lon="4.65493">
        <ele>508</ele>
        <time>2022-06-25T15:56:51Z</time>
      </trkpt>
      <trkpt lat="46.10682" lon="4.65492">
        <ele>508</ele>
        <time>2022-06-25T15:56:52Z</time>
      </trkpt>
      <trkpt lat="46.10682" lon="4.65492">
        <ele>508</ele>
        <time>2022-06-25T15:56:54Z</time>
      </trkpt>
      <trkpt lat="46.10682" lon="4.65492">
        <ele>507.4</ele>
        <time>2022-06-25T15:57:54Z</time>
      </trkpt>
      <trkpt lat="46.10682" lon="4.65492">
        <ele>507.8</ele>
        <time>2022-06-25T16:00:47Z</time>
      </trkpt>
      <trkpt lat="46.10682" lon="4.65492">
        <ele>508</ele>
        <time>2022-06-25T16:03:05Z</time>
      </trkpt>
      <trkpt lat="46.10682" lon="4.65492">
        <ele>508.4</ele>
        <time>2022-06-25T16:04:16Z</time>
      </trkpt>
      <trkpt lat="46.10682" lon="4.65492">
        <ele>508.2</ele>
        <time>2022-06-25T16:06:11Z</time>
      </trkpt>
      <trkpt lat="46.10682" lon="4.65492">
        <ele>505.2</ele>
        <time>2022-06-25T16:10:28Z</time>
      </trkpt>
      <trkpt lat="46.10688" lon="4.65502">
        <ele>504.8</ele>
        <time>2022-06-25T16:10:50Z</time>
      </trkpt>
      <trkpt lat="46.10689" lon="4.65502">
        <ele>504.8</ele>
        <time>2022-06-25T16:10:51Z</time>
      </trkpt>
      <trkpt lat="46.10689" lon="4.65502">
        <ele>504.8</ele>
        <time>2022-06-25T16:10:53Z</time>
      </trkpt>
      <trkpt lat="46.10689" lon="4.65502">
        <ele>504.8</ele>
        <time>2022-06-25T16:10:55Z</time>
      </trkpt>
      <trkpt lat="46.1069" lon="4.65502">
        <ele>505</ele>
        <time>2022-06-25T16:10:56Z</time>
      </trkpt>
      <trkpt lat="46.1069" lon="4.65502">
        <ele>505</ele>
        <time>2022-06-25T16:10:58Z</time>
      </trkpt>
      <trkpt lat="46.10691" lon="4.65502">
        <ele>505</ele>
        <time>2022-06-25T16:11:00Z</time>
      </trkpt>
      <trkpt lat="46.10691" lon="4.65502">
        <ele>505.2</ele>
        <time>2022-06-25T16:11:01Z</time>
      </trkpt>
      <trkpt lat="46.10691" lon="4.65502">
        <ele>505.2</ele>
        <time>2022-06-25T16:11:03Z</time>
      </trkpt>
      <trkpt lat="46.10692" lon="4.65501">
        <ele>505.4</ele>
        <time>2022-06-25T16:11:05Z</time>
      </trkpt>
      <trkpt lat="46.10692" lon="4.65501">
        <ele>505.8</ele>
        <time>2022-06-25T16:11:06Z</time>
      </trkpt>
      <trkpt lat="46.10692" lon="4.65501">
        <ele>505.8</ele>
        <time>2022-06-25T16:11:08Z</time>
      </trkpt>
      <trkpt lat="46.10693" lon="4.65501">
        <ele>506</ele>
        <time>2022-06-25T16:11:09Z</time>
      </trkpt>
      <trkpt lat="46.10693" lon="4.65501">
        <ele>506</ele>
        <time>2022-06-25T16:11:11Z</time>
      </trkpt>
      <trkpt lat="46.10693" lon="4.65501">
        <ele>506.2</ele>
        <time>2022-06-25T16:11:13Z</time>
      </trkpt>
      <trkpt lat="46.10694" lon="4.65501">
        <ele>506.2</ele>
        <time>2022-06-25T16:11:14Z</time>
      </trkpt>
      <trkpt lat="46.10694" lon="4.65501">
        <ele>506.4</ele>
        <time>2022-06-25T16:11:16Z</time>
      </trkpt>
      <trkpt lat="46.10695" lon="4.65501">
        <ele>506.6</ele>
        <time>2022-06-25T16:11:18Z</time>
      </trkpt>
      <trkpt lat="46.10695" lon="4.65501">
        <ele>506.6</ele>
        <time>2022-06-25T16:11:19Z</time>
      </trkpt>
      <trkpt lat="46.10695" lon="4.65501">
        <ele>506.6</ele>
        <time>2022-06-25T16:11:21Z</time>
      </trkpt>
      <trkpt lat="46.10696" lon="4.65501">
        <ele>506.6</ele>
        <time>2022-06-25T16:11:23Z</time>
      </trkpt>
      <trkpt lat="46.10696" lon="4.65501">
        <ele>506.6</ele>
        <time>2022-06-25T16:11:24Z</time>
      </trkpt>
      <trkpt lat="46.10696" lon="4.65501">
        <ele>506.8</ele>
        <time>2022-06-25T16:11:26Z</time>
      </trkpt>
      <trkpt lat="46.10697" lon="4.65501">
        <ele>506.8</ele>
        <time>2022-06-25T16:11:28Z</time>
      </trkpt>
      <trkpt lat="46.10697" lon="4.65501">
        <ele>506.8</ele>
        <time>2022-06-25T16:11:29Z</time>
      </trkpt>
      <trkpt lat="46.10697" lon="4.655">
        <ele>506.8</ele>
        <time>2022-06-25T16:11:31Z</time>
      </trkpt>
      <trkpt lat="46.10698" lon="4.655">
        <ele>506.8</ele>
        <time>2022-06-25T16:11:32Z</time>
      </trkpt>
      <trkpt lat="46.10698" lon="4.655">
        <ele>507.2</ele>
        <time>2022-06-25T16:11:35Z</time>
      </trkpt>
      <trkpt lat="46.10698" lon="4.655">
        <ele>507.8</ele>
        <time>2022-06-25T16:11:40Z</time>
      </trkpt>
      <trkpt lat="46.10699" lon="4.655">
        <ele>507.8</ele>
        <time>2022-06-25T16:11:41Z</time>
      </trkpt>
      <trkpt lat="46.10699" lon="4.655">
        <ele>508</ele>
        <time>2022-06-25T16:11:43Z</time>
      </trkpt>
      <trkpt lat="46.107" lon="4.655">
        <ele>508</ele>
        <time>2022-06-25T16:11:45Z</time>
      </trkpt>
      <trkpt lat="46.107" lon="4.655">
        <ele>508</ele>
        <time>2022-06-25T16:11:46Z</time>
      </trkpt>
      <trkpt lat="46.107" lon="4.655">
        <ele>508</ele>
        <time>2022-06-25T16:11:48Z</time>
      </trkpt>
      <trkpt lat="46.10701" lon="4.655">
        <ele>508</ele>
        <time>2022-06-25T16:11:50Z</time>
      </trkpt>
      <trkpt lat="46.10701" lon="4.655">
        <ele>508</ele>
        <time>2022-06-25T16:11:51Z</time>
      </trkpt>
      <trkpt lat="46.10701" lon="4.655">
        <ele>508</ele>
        <time>2022-06-25T16:11:53Z</time>
      </trkpt>
      <trkpt lat="46.10702" lon="4.655">
        <ele>508</ele>
        <time>2022-06-25T16:11:54Z</time>
      </trkpt>
      <trkpt lat="46.10702" lon="4.655">
        <ele>508</ele>
        <time>2022-06-25T16:11:56Z</time>
      </trkpt>
      <trkpt lat="46.10702" lon="4.655">
        <ele>508</ele>
        <time>2022-06-25T16:11:58Z</time>
      </trkpt>
      <trkpt lat="46.10703" lon="4.655">
        <ele>508</ele>
        <time>2022-06-25T16:11:59Z</time>
      </trkpt>
      <trkpt lat="46.10703" lon="4.65499">
        <ele>507.8</ele>
        <time>2022-06-25T16:12:01Z</time>
      </trkpt>
      <trkpt lat="46.10703" lon="4.65499">
        <ele>507.8</ele>
        <time>2022-06-25T16:12:02Z</time>
      </trkpt>
      <trkpt lat="46.10704" lon="4.65499">
        <ele>507.8</ele>
        <time>2022-06-25T16:12:04Z</time>
      </trkpt>
      <trkpt lat="46.10704" lon="4.65499">
        <ele>507.8</ele>
        <time>2022-06-25T16:12:05Z</time>
      </trkpt>
      <trkpt lat="46.10704" lon="4.65499">
        <ele>507.6</ele>
        <time>2022-06-25T16:12:07Z</time>
      </trkpt>
      <trkpt lat="46.10705" lon="4.65499">
        <ele>507.6</ele>
        <time>2022-06-25T16:12:08Z</time>
      </trkpt>
      <trkpt lat="46.10705" lon="4.65499">
        <ele>507.6</ele>
        <time>2022-06-25T16:12:11Z</time>
      </trkpt>
      <trkpt lat="46.10705" lon="4.65499">
        <ele>507.6</ele>
        <time>2022-06-25T16:12:14Z</time>
      </trkpt>
      <trkpt lat="46.10706" lon="4.65499">
        <ele>507.6</ele>
        <time>2022-06-25T16:12:15Z</time>
      </trkpt>
      <trkpt lat="46.10706" lon="4.65499">
        <ele>507.4</ele>
        <time>2022-06-25T16:12:17Z</time>
      </trkpt>
      <trkpt lat="46.10707" lon="4.65499">
        <ele>507.4</ele>
        <time>2022-06-25T16:12:20Z</time>
      </trkpt>
      <trkpt lat="46.10707" lon="4.65499">
        <ele>507.4</ele>
        <time>2022-06-25T16:12:21Z</time>
      </trkpt>
      <trkpt lat="46.10707" lon="4.65499">
        <ele>507.4</ele>
        <time>2022-06-25T16:12:23Z</time>
      </trkpt>
      <trkpt lat="46.10708" lon="4.65499">
        <ele>507.4</ele>
        <time>2022-06-25T16:12:25Z</time>
      </trkpt>
      <trkpt lat="46.10708" lon="4.65499">
        <ele>507.4</ele>
        <time>2022-06-25T16:12:26Z</time>
      </trkpt>
      <trkpt lat="46.10708" lon="4.65499">
        <ele>507.4</ele>
        <time>2022-06-25T16:12:28Z</time>
      </trkpt>
      <trkpt lat="46.10709" lon="4.65499">
        <ele>507.4</ele>
        <time>2022-06-25T16:12:29Z</time>
      </trkpt>
      <trkpt lat="46.10709" lon="4.65498">
        <ele>507.4</ele>
        <time>2022-06-25T16:12:30Z</time>
      </trkpt>
      <trkpt lat="46.10709" lon="4.65498">
        <ele>507.4</ele>
        <time>2022-06-25T16:12:32Z</time>
      </trkpt>
      <trkpt lat="46.1071" lon="4.65498">
        <ele>507.4</ele>
        <time>2022-06-25T16:12:34Z</time>
      </trkpt>
      <trkpt lat="46.1071" lon="4.65498">
        <ele>507.4</ele>
        <time>2022-06-25T16:12:35Z</time>
      </trkpt>
      <trkpt lat="46.1071" lon="4.65498">
        <ele>507.2</ele>
        <time>2022-06-25T16:12:37Z</time>
      </trkpt>
      <trkpt lat="46.10711" lon="4.65498">
        <ele>507.2</ele>
        <time>2022-06-25T16:12:39Z</time>
      </trkpt>
      <trkpt lat="46.10711" lon="4.65498">
        <ele>507.2</ele>
        <time>2022-06-25T16:12:40Z</time>
      </trkpt>
      <trkpt lat="46.10711" lon="4.65498">
        <ele>507.2</ele>
        <time>2022-06-25T16:12:42Z</time>
      </trkpt>
      <trkpt lat="46.10712" lon="4.65498">
        <ele>507.2</ele>
        <time>2022-06-25T16:12:43Z</time>
      </trkpt>
      <trkpt lat="46.10712" lon="4.65498">
        <ele>507.2</ele>
        <time>2022-06-25T16:12:45Z</time>
      </trkpt>
      <trkpt lat="46.10712" lon="4.65498">
        <ele>507.2</ele>
        <time>2022-06-25T16:12:47Z</time>
      </trkpt>
      <trkpt lat="46.10713" lon="4.65498">
        <ele>507.2</ele>
        <time>2022-06-25T16:12:48Z</time>
      </trkpt>
      <trkpt lat="46.10713" lon="4.65498">
        <ele>507.2</ele>
        <time>2022-06-25T16:12:50Z</time>
      </trkpt>
      <trkpt lat="46.10714" lon="4.65498">
        <ele>507.2</ele>
        <time>2022-06-25T16:12:52Z</time>
      </trkpt>
      <trkpt lat="46.10714" lon="4.65498">
        <ele>507.2</ele>
        <time>2022-06-25T16:12:53Z</time>
      </trkpt>
      <trkpt lat="46.10714" lon="4.65498">
        <ele>507.2</ele>
        <time>2022-06-25T16:12:55Z</time>
      </trkpt>
      <trkpt lat="46.10715" lon="4.65497">
        <ele>507.2</ele>
        <time>2022-06-25T16:12:57Z</time>
      </trkpt>
      <trkpt lat="46.10715" lon="4.65497">
        <ele>507.2</ele>
        <time>2022-06-25T16:12:58Z</time>
      </trkpt>
      <trkpt lat="46.10715" lon="4.65497">
        <ele>507.2</ele>
        <time>2022-06-25T16:13:00Z</time>
      </trkpt>
      <trkpt lat="46.10716" lon="4.65497">
        <ele>507.2</ele>
        <time>2022-06-25T16:13:01Z</time>
      </trkpt>
      <trkpt lat="46.10716" lon="4.65497">
        <ele>507.2</ele>
        <time>2022-06-25T16:13:03Z</time>
      </trkpt>
      <trkpt lat="46.10716" lon="4.65497">
        <ele>507.2</ele>
        <time>2022-06-25T16:13:05Z</time>
      </trkpt>
      <trkpt lat="46.10717" lon="4.65497">
        <ele>507</ele>
        <time>2022-06-25T16:13:06Z</time>
      </trkpt>
      <trkpt lat="46.10717" lon="4.65497">
        <ele>507</ele>
        <time>2022-06-25T16:13:08Z</time>
      </trkpt>
      <trkpt lat="46.10717" lon="4.65497">
        <ele>507</ele>
        <time>2022-06-25T16:13:12Z</time>
      </trkpt>
      <trkpt lat="46.10718" lon="4.65497">
        <ele>507</ele>
        <time>2022-06-25T16:13:13Z</time>
      </trkpt>
      <trkpt lat="46.10718" lon="4.65497">
        <ele>507</ele>
        <time>2022-06-25T16:13:15Z</time>
      </trkpt>
      <trkpt lat="46.10719" lon="4.65497">
        <ele>507</ele>
        <time>2022-06-25T16:13:17Z</time>
      </trkpt>
      <trkpt lat="46.10719" lon="4.65497">
        <ele>507</ele>
        <time>2022-06-25T16:13:18Z</time>
      </trkpt>
      <trkpt lat="46.10719" lon="4.65497">
        <ele>507</ele>
        <time>2022-06-25T16:13:20Z</time>
      </trkpt>
      <trkpt lat="46.1072" lon="4.65497">
        <ele>507</ele>
        <time>2022-06-25T16:13:22Z</time>
      </trkpt>
      <trkpt lat="46.1072" lon="4.65497">
        <ele>507</ele>
        <time>2022-06-25T16:13:23Z</time>
      </trkpt>
      <trkpt lat="46.1072" lon="4.65496">
        <ele>507</ele>
        <time>2022-06-25T16:13:25Z</time>
      </trkpt>
      <trkpt lat="46.10721" lon="4.65496">
        <ele>507</ele>
        <time>2022-06-25T16:13:26Z</time>
      </trkpt>
      <trkpt lat="46.10721" lon="4.65496">
        <ele>507</ele>
        <time>2022-06-25T16:13:28Z</time>
      </trkpt>
      <trkpt lat="46.10721" lon="4.65496">
        <ele>507</ele>
        <time>2022-06-25T16:13:31Z</time>
      </trkpt>
      <trkpt lat="46.10722" lon="4.65496">
        <ele>507</ele>
        <time>2022-06-25T16:13:32Z</time>
      </trkpt>
      <trkpt lat="46.10722" lon="4.65496">
        <ele>507</ele>
        <time>2022-06-25T16:13:34Z</time>
      </trkpt>
      <trkpt lat="46.10723" lon="4.65496">
        <ele>507.2</ele>
        <time>2022-06-25T16:13:36Z</time>
      </trkpt>
      <trkpt lat="46.10723" lon="4.65496">
        <ele>507.2</ele>
        <time>2022-06-25T16:13:37Z</time>
      </trkpt>
      <trkpt lat="46.10723" lon="4.65496">
        <ele>507.2</ele>
        <time>2022-06-25T16:13:39Z</time>
      </trkpt>
      <trkpt lat="46.10724" lon="4.65496">
        <ele>507.4</ele>
        <time>2022-06-25T16:13:41Z</time>
      </trkpt>
      <trkpt lat="46.10724" lon="4.65496">
        <ele>507.4</ele>
        <time>2022-06-25T16:13:42Z</time>
      </trkpt>
      <trkpt lat="46.10724" lon="4.65496">
        <ele>507.4</ele>
        <time>2022-06-25T16:13:44Z</time>
      </trkpt>
      <trkpt lat="46.10725" lon="4.65496">
        <ele>507.4</ele>
        <time>2022-06-25T16:13:46Z</time>
      </trkpt>
      <trkpt lat="46.10725" lon="4.65496">
        <ele>507.4</ele>
        <time>2022-06-25T16:13:47Z</time>
      </trkpt>
      <trkpt lat="46.10725" lon="4.65496">
        <ele>507.4</ele>
        <time>2022-06-25T16:13:49Z</time>
      </trkpt>
      <trkpt lat="46.10726" lon="4.65496">
        <ele>507.4</ele>
        <time>2022-06-25T16:13:50Z</time>
      </trkpt>
      <trkpt lat="46.10726" lon="4.65495">
        <ele>507.4</ele>
        <time>2022-06-25T16:13:52Z</time>
      </trkpt>
      <trkpt lat="46.10726" lon="4.65495">
        <ele>507.6</ele>
        <time>2022-06-25T16:13:53Z</time>
      </trkpt>
      <trkpt lat="46.10727" lon="4.65495">
        <ele>507.6</ele>
        <time>2022-06-25T16:13:55Z</time>
      </trkpt>
      <trkpt lat="46.10727" lon="4.65495">
        <ele>507.6</ele>
        <time>2022-06-25T16:13:56Z</time>
      </trkpt>
      <trkpt lat="46.10727" lon="4.65495">
        <ele>507.8</ele>
        <time>2022-06-25T16:14:00Z</time>
      </trkpt>
      <trkpt lat="46.10728" lon="4.65495">
        <ele>508.2</ele>
        <time>2022-06-25T16:14:01Z</time>
      </trkpt>
      <trkpt lat="46.10728" lon="4.65495">
        <ele>508.2</ele>
        <time>2022-06-25T16:14:04Z</time>
      </trkpt>
      <trkpt lat="46.10728" lon="4.65495">
        <ele>508</ele>
        <time>2022-06-25T16:14:06Z</time>
      </trkpt>
      <trkpt lat="46.10729" lon="4.65495">
        <ele>508</ele>
        <time>2022-06-25T16:14:07Z</time>
      </trkpt>
      <trkpt lat="46.10729" lon="4.65495">
        <ele>507.6</ele>
        <time>2022-06-25T16:14:09Z</time>
      </trkpt>
      <trkpt lat="46.1073" lon="4.65495">
        <ele>507.2</ele>
        <time>2022-06-25T16:14:11Z</time>
      </trkpt>
      <trkpt lat="46.1073" lon="4.65495">
        <ele>506.8</ele>
        <time>2022-06-25T16:14:13Z</time>
      </trkpt>
      <trkpt lat="46.1073" lon="4.65495">
        <ele>506.8</ele>
        <time>2022-06-25T16:14:15Z</time>
      </trkpt>
      <trkpt lat="46.10731" lon="4.65495">
        <ele>507</ele>
        <time>2022-06-25T16:14:17Z</time>
      </trkpt>
      <trkpt lat="46.10731" lon="4.65495">
        <ele>507</ele>
        <time>2022-06-25T16:14:18Z</time>
      </trkpt>
      <trkpt lat="46.10731" lon="4.65495">
        <ele>507.4</ele>
        <time>2022-06-25T16:14:20Z</time>
      </trkpt>
      <trkpt lat="46.10732" lon="4.65494">
        <ele>507.6</ele>
        <time>2022-06-25T16:14:22Z</time>
      </trkpt>
      <trkpt lat="46.10732" lon="4.65494">
        <ele>507.6</ele>
        <time>2022-06-25T16:14:23Z</time>
      </trkpt>
      <trkpt lat="46.10732" lon="4.65494">
        <ele>507.6</ele>
        <time>2022-06-25T16:14:25Z</time>
      </trkpt>
      <trkpt lat="46.10733" lon="4.65494">
        <ele>507.4</ele>
        <time>2022-06-25T16:14:26Z</time>
      </trkpt>
      <trkpt lat="46.10733" lon="4.65494">
        <ele>507.4</ele>
        <time>2022-06-25T16:14:28Z</time>
      </trkpt>
      <trkpt lat="46.10733" lon="4.65494">
        <ele>507.4</ele>
        <time>2022-06-25T16:14:30Z</time>
      </trkpt>
      <trkpt lat="46.10734" lon="4.65494">
        <ele>507.4</ele>
        <time>2022-06-25T16:14:32Z</time>
      </trkpt>
      <trkpt lat="46.10734" lon="4.65494">
        <ele>507.4</ele>
        <time>2022-06-25T16:14:36Z</time>
      </trkpt>
      <trkpt lat="46.10735" lon="4.65494">
        <ele>507.2</ele>
        <time>2022-06-25T16:14:41Z</time>
      </trkpt>
      <trkpt lat="46.10735" lon="4.65494">
        <ele>507.2</ele>
        <time>2022-06-25T16:14:42Z</time>
      </trkpt>
      <trkpt lat="46.10735" lon="4.65494">
        <ele>507.2</ele>
        <time>2022-06-25T16:14:50Z</time>
      </trkpt>
      <trkpt lat="46.10736" lon="4.65494">
        <ele>507</ele>
        <time>2022-06-25T16:14:52Z</time>
      </trkpt>
      <trkpt lat="46.10736" lon="4.65494">
        <ele>507</ele>
        <time>2022-06-25T16:14:57Z</time>
      </trkpt>
      <trkpt lat="46.10736" lon="4.65494">
        <ele>507</ele>
        <time>2022-06-25T16:14:59Z</time>
      </trkpt>
      <trkpt lat="46.10737" lon="4.65494">
        <ele>507</ele>
        <time>2022-06-25T16:15:00Z</time>
      </trkpt>
      <trkpt lat="46.10737" lon="4.65494">
        <ele>506.8</ele>
        <time>2022-06-25T16:15:02Z</time>
      </trkpt>
      <trkpt lat="46.10737" lon="4.65493">
        <ele>506.8</ele>
        <time>2022-06-25T16:15:04Z</time>
      </trkpt>
      <trkpt lat="46.10738" lon="4.65493">
        <ele>506.8</ele>
        <time>2022-06-25T16:15:05Z</time>
      </trkpt>
      <trkpt lat="46.10738" lon="4.65493">
        <ele>506.8</ele>
        <time>2022-06-25T16:15:07Z</time>
      </trkpt>
      <trkpt lat="46.10738" lon="4.65493">
        <ele>506.8</ele>
        <time>2022-06-25T16:15:09Z</time>
      </trkpt>
      <trkpt lat="46.10739" lon="4.65493">
        <ele>506.8</ele>
        <time>2022-06-25T16:15:10Z</time>
      </trkpt>
      <trkpt lat="46.10739" lon="4.65493">
        <ele>506.8</ele>
        <time>2022-06-25T16:15:12Z</time>
      </trkpt>
      <trkpt lat="46.1074" lon="4.65493">
        <ele>506.8</ele>
        <time>2022-06-25T16:15:15Z</time>
      </trkpt>
      <trkpt lat="46.1074" lon="4.65493">
        <ele>506.8</ele>
        <time>2022-06-25T16:15:19Z</time>
      </trkpt>
      <trkpt lat="46.1074" lon="4.65493">
        <ele>506.8</ele>
        <time>2022-06-25T16:15:27Z</time>
      </trkpt>
      <trkpt lat="46.10741" lon="4.65493">
        <ele>506.8</ele>
        <time>2022-06-25T16:15:31Z</time>
      </trkpt>
      <trkpt lat="46.10741" lon="4.65493">
        <ele>506.8</ele>
        <time>2022-06-25T16:15:32Z</time>
      </trkpt>
      <trkpt lat="46.10741" lon="4.65492">
        <ele>506.8</ele>
        <time>2022-06-25T16:15:33Z</time>
      </trkpt>
      <trkpt lat="46.10741" lon="4.65492">
        <ele>506.8</ele>
        <time>2022-06-25T16:15:35Z</time>
      </trkpt>
      <trkpt lat="46.10742" lon="4.65492">
        <ele>506.8</ele>
        <time>2022-06-25T16:15:40Z</time>
      </trkpt>
      <trkpt lat="46.10742" lon="4.65492">
        <ele>506.8</ele>
        <time>2022-06-25T16:15:41Z</time>
      </trkpt>
      <trkpt lat="46.10742" lon="4.65492">
        <ele>506.8</ele>
        <time>2022-06-25T16:15:47Z</time>
      </trkpt>
      <trkpt lat="46.10742" lon="4.65491">
        <ele>506.8</ele>
        <time>2022-06-25T16:15:48Z</time>
      </trkpt>
      <trkpt lat="46.10742" lon="4.65491">
        <ele>507</ele>
        <time>2022-06-25T16:15:56Z</time>
      </trkpt>
      <trkpt lat="46.10742" lon="4.65491">
        <ele>507</ele>
        <time>2022-06-25T16:15:58Z</time>
      </trkpt>
      <trkpt lat="46.10743" lon="4.65491">
        <ele>507</ele>
        <time>2022-06-25T16:15:59Z</time>
      </trkpt>
      <trkpt lat="46.10743" lon="4.65491">
        <ele>507</ele>
        <time>2022-06-25T16:16:01Z</time>
      </trkpt>
      <trkpt lat="46.10743" lon="4.6549">
        <ele>507</ele>
        <time>2022-06-25T16:16:03Z</time>
      </trkpt>
      <trkpt lat="46.10743" lon="4.6549">
        <ele>507</ele>
        <time>2022-06-25T16:16:04Z</time>
      </trkpt>
      <trkpt lat="46.10743" lon="4.6549">
        <ele>507.2</ele>
        <time>2022-06-25T16:16:06Z</time>
      </trkpt>
      <trkpt lat="46.10744" lon="4.6549">
        <ele>507.2</ele>
        <time>2022-06-25T16:16:07Z</time>
      </trkpt>
      <trkpt lat="46.10744" lon="4.6549">
        <ele>507.2</ele>
        <time>2022-06-25T16:16:09Z</time>
      </trkpt>
      <trkpt lat="46.10744" lon="4.65489">
        <ele>507.4</ele>
        <time>2022-06-25T16:16:11Z</time>
      </trkpt>
      <trkpt lat="46.10744" lon="4.65489">
        <ele>507.4</ele>
        <time>2022-06-25T16:16:12Z</time>
      </trkpt>
      <trkpt lat="46.10744" lon="4.65489">
        <ele>507.4</ele>
        <time>2022-06-25T16:16:14Z</time>
      </trkpt>
      <trkpt lat="46.10745" lon="4.65489">
        <ele>507.4</ele>
        <time>2022-06-25T16:16:17Z</time>
      </trkpt>
      <trkpt lat="46.10745" lon="4.65489">
        <ele>507.6</ele>
        <time>2022-06-25T16:16:28Z</time>
      </trkpt>
      <trkpt lat="46.10745" lon="4.65489">
        <ele>507.6</ele>
        <time>2022-06-25T16:16:35Z</time>
      </trkpt>
      <trkpt lat="46.10745" lon="4.65488">
        <ele>507.6</ele>
        <time>2022-06-25T16:16:36Z</time>
      </trkpt>
      <trkpt lat="46.10745" lon="4.65488">
        <ele>507.6</ele>
        <time>2022-06-25T16:16:41Z</time>
      </trkpt>
      <trkpt lat="46.10746" lon="4.65488">
        <ele>507.6</ele>
        <time>2022-06-25T16:16:42Z</time>
      </trkpt>
      <trkpt lat="46.10746" lon="4.65488">
        <ele>507.6</ele>
        <time>2022-06-25T16:16:44Z</time>
      </trkpt>
      <trkpt lat="46.10746" lon="4.65488">
        <ele>507.4</ele>
        <time>2022-06-25T16:16:46Z</time>
      </trkpt>
      <trkpt lat="46.10746" lon="4.65487">
        <ele>507.4</ele>
        <time>2022-06-25T16:16:47Z</time>
      </trkpt>
      <trkpt lat="46.10746" lon="4.65487">
        <ele>507.4</ele>
        <time>2022-06-25T16:16:49Z</time>
      </trkpt>
      <trkpt lat="46.10747" lon="4.65487">
        <ele>507.4</ele>
        <time>2022-06-25T16:16:50Z</time>
      </trkpt>
      <trkpt lat="46.10747" lon="4.65487">
        <ele>507.4</ele>
        <time>2022-06-25T16:16:52Z</time>
      </trkpt>
      <trkpt lat="46.10747" lon="4.65487">
        <ele>507.2</ele>
        <time>2022-06-25T16:16:54Z</time>
      </trkpt>
      <trkpt lat="46.10747" lon="4.65486">
        <ele>507.2</ele>
        <time>2022-06-25T16:16:55Z</time>
      </trkpt>
      <trkpt lat="46.10747" lon="4.65486">
        <ele>507.2</ele>
        <time>2022-06-25T16:16:57Z</time>
      </trkpt>
      <trkpt lat="46.10748" lon="4.65486">
        <ele>507.2</ele>
        <time>2022-06-25T16:16:58Z</time>
      </trkpt>
      <trkpt lat="46.10748" lon="4.65486">
        <ele>507.2</ele>
        <time>2022-06-25T16:17:00Z</time>
      </trkpt>
      <trkpt lat="46.10748" lon="4.65486">
        <ele>507.2</ele>
        <time>2022-06-25T16:17:02Z</time>
      </trkpt>
      <trkpt lat="46.10748" lon="4.65485">
        <ele>507.2</ele>
        <time>2022-06-25T16:17:04Z</time>
      </trkpt>
      <trkpt lat="46.10748" lon="4.65485">
        <ele>507.2</ele>
        <time>2022-06-25T16:17:05Z</time>
      </trkpt>
      <trkpt lat="46.10749" lon="4.65485">
        <ele>507.2</ele>
        <time>2022-06-25T16:17:06Z</time>
      </trkpt>
      <trkpt lat="46.10749" lon="4.65485">
        <ele>507.2</ele>
        <time>2022-06-25T16:17:08Z</time>
      </trkpt>
      <trkpt lat="46.10749" lon="4.65485">
        <ele>507.2</ele>
        <time>2022-06-25T16:17:10Z</time>
      </trkpt>
      <trkpt lat="46.10749" lon="4.65485">
        <ele>507.2</ele>
        <time>2022-06-25T16:17:12Z</time>
      </trkpt>
      <trkpt lat="46.10749" lon="4.65485">
        <ele>507.2</ele>
        <time>2022-06-25T16:17:14Z</time>
      </trkpt>
      <trkpt lat="46.10748" lon="4.65485">
        <ele>507.2</ele>
        <time>2022-06-25T16:17:17Z</time>
      </trkpt>
      <trkpt lat="46.10748" lon="4.65485">
        <ele>507.2</ele>
        <time>2022-06-25T16:17:18Z</time>
      </trkpt>
      <trkpt lat="46.10748" lon="4.65485">
        <ele>507.2</ele>
        <time>2022-06-25T16:17:20Z</time>
      </trkpt>
      <trkpt lat="46.10748" lon="4.65485">
        <ele>507.2</ele>
        <time>2022-06-25T16:17:22Z</time>
      </trkpt>
      <trkpt lat="46.10748" lon="4.65485">
        <ele>507.4</ele>
        <time>2022-06-25T16:17:25Z</time>
      </trkpt>
      <trkpt lat="46.10748" lon="4.65485">
        <ele>507.4</ele>
        <time>2022-06-25T16:17:27Z</time>
      </trkpt>
      <trkpt lat="46.10747" lon="4.65485">
        <ele>507.4</ele>
        <time>2022-06-25T16:17:28Z</time>
      </trkpt>
      <trkpt lat="46.10747" lon="4.65485">
        <ele>507.4</ele>
        <time>2022-06-25T16:17:30Z</time>
      </trkpt>
      <trkpt lat="46.10747" lon="4.65485">
        <ele>507.4</ele>
        <time>2022-06-25T16:17:33Z</time>
      </trkpt>
      <trkpt lat="46.10747" lon="4.65485">
        <ele>507.6</ele>
        <time>2022-06-25T16:17:35Z</time>
      </trkpt>
      <trkpt lat="46.10747" lon="4.65485">
        <ele>507.6</ele>
        <time>2022-06-25T16:17:37Z</time>
      </trkpt>
      <trkpt lat="46.10746" lon="4.65485">
        <ele>507.6</ele>
        <time>2022-06-25T16:17:40Z</time>
      </trkpt>
      <trkpt lat="46.10746" lon="4.65485">
        <ele>507.6</ele>
        <time>2022-06-25T16:17:41Z</time>
      </trkpt>
      <trkpt lat="46.10746" lon="4.65485">
        <ele>507.6</ele>
        <time>2022-06-25T16:17:43Z</time>
      </trkpt>
      <trkpt lat="46.10746" lon="4.65485">
        <ele>507.6</ele>
        <time>2022-06-25T16:17:45Z</time>
      </trkpt>
      <trkpt lat="46.10746" lon="4.65485">
        <ele>507.8</ele>
        <time>2022-06-25T16:17:48Z</time>
      </trkpt>
      <trkpt lat="46.10746" lon="4.65485">
        <ele>507.8</ele>
        <time>2022-06-25T16:17:50Z</time>
      </trkpt>
      <trkpt lat="46.10745" lon="4.65485">
        <ele>507.8</ele>
        <time>2022-06-25T16:17:51Z</time>
      </trkpt>
      <trkpt lat="46.10745" lon="4.65485">
        <ele>507.8</ele>
        <time>2022-06-25T16:17:53Z</time>
      </trkpt>
      <trkpt lat="46.10745" lon="4.65485">
        <ele>507.8</ele>
        <time>2022-06-25T16:17:59Z</time>
      </trkpt>
      <trkpt lat="46.10745" lon="4.65485">
        <ele>507.8</ele>
        <time>2022-06-25T16:18:01Z</time>
      </trkpt>
      <trkpt lat="46.10745" lon="4.65485">
        <ele>507.8</ele>
        <time>2022-06-25T16:18:03Z</time>
      </trkpt>
      <trkpt lat="46.10744" lon="4.65485">
        <ele>507.8</ele>
        <time>2022-06-25T16:18:06Z</time>
      </trkpt>
      <trkpt lat="46.10744" lon="4.65485">
        <ele>507.8</ele>
        <time>2022-06-25T16:18:07Z</time>
      </trkpt>
      <trkpt lat="46.10744" lon="4.65485">
        <ele>507.8</ele>
        <time>2022-06-25T16:18:09Z</time>
      </trkpt>
      <trkpt lat="46.10744" lon="4.65485">
        <ele>507.8</ele>
        <time>2022-06-25T16:18:11Z</time>
      </trkpt>
      <trkpt lat="46.10744" lon="4.65485">
        <ele>507.8</ele>
        <time>2022-06-25T16:18:14Z</time>
      </trkpt>
      <trkpt lat="46.10744" lon="4.65485">
        <ele>508.2</ele>
        <time>2022-06-25T16:18:16Z</time>
      </trkpt>
      <trkpt lat="46.10743" lon="4.65485">
        <ele>508.2</ele>
        <time>2022-06-25T16:18:17Z</time>
      </trkpt>
      <trkpt lat="46.10743" lon="4.65485">
        <ele>508.2</ele>
        <time>2022-06-25T16:18:19Z</time>
      </trkpt>
      <trkpt lat="46.10743" lon="4.65485">
        <ele>508.2</ele>
        <time>2022-06-25T16:18:22Z</time>
      </trkpt>
      <trkpt lat="46.10743" lon="4.65485">
        <ele>508.2</ele>
        <time>2022-06-25T16:18:25Z</time>
      </trkpt>
      <trkpt lat="46.10743" lon="4.65485">
        <ele>508.2</ele>
        <time>2022-06-25T16:18:27Z</time>
      </trkpt>
      <trkpt lat="46.10742" lon="4.65485">
        <ele>508.2</ele>
        <time>2022-06-25T16:18:29Z</time>
      </trkpt>
      <trkpt lat="46.10742" lon="4.65485">
        <ele>508.2</ele>
        <time>2022-06-25T16:18:31Z</time>
      </trkpt>
      <trkpt lat="46.10742" lon="4.65485">
        <ele>508.2</ele>
        <time>2022-06-25T16:18:33Z</time>
      </trkpt>
      <trkpt lat="46.10742" lon="4.65485">
        <ele>508.2</ele>
        <time>2022-06-25T16:18:35Z</time>
      </trkpt>
      <trkpt lat="46.10742" lon="4.65485">
        <ele>508.2</ele>
        <time>2022-06-25T16:18:37Z</time>
      </trkpt>
      <trkpt lat="46.10742" lon="4.65485">
        <ele>508.2</ele>
        <time>2022-06-25T16:18:40Z</time>
      </trkpt>
      <trkpt lat="46.10741" lon="4.65485">
        <ele>508.2</ele>
        <time>2022-06-25T16:18:41Z</time>
      </trkpt>
      <trkpt lat="46.10741" lon="4.65485">
        <ele>508.2</ele>
        <time>2022-06-25T16:18:43Z</time>
      </trkpt>
      <trkpt lat="46.10741" lon="4.65485">
        <ele>508.2</ele>
        <time>2022-06-25T16:18:45Z</time>
      </trkpt>
      <trkpt lat="46.10741" lon="4.65485">
        <ele>508.2</ele>
        <time>2022-06-25T16:18:49Z</time>
      </trkpt>
      <trkpt lat="46.10741" lon="4.65485">
        <ele>508.2</ele>
        <time>2022-06-25T16:18:56Z</time>
      </trkpt>
      <trkpt lat="46.1074" lon="4.65485">
        <ele>508.2</ele>
        <time>2022-06-25T16:18:58Z</time>
      </trkpt>
      <trkpt lat="46.1074" lon="4.65485">
        <ele>508.2</ele>
        <time>2022-06-25T16:18:59Z</time>
      </trkpt>
      <trkpt lat="46.1074" lon="4.65485">
        <ele>508.2</ele>
        <time>2022-06-25T16:19:02Z</time>
      </trkpt>
      <trkpt lat="46.1074" lon="4.65484">
        <ele>508.2</ele>
        <time>2022-06-25T16:19:04Z</time>
      </trkpt>
      <trkpt lat="46.1074" lon="4.65484">
        <ele>508.2</ele>
        <time>2022-06-25T16:19:05Z</time>
      </trkpt>
      <trkpt lat="46.1074" lon="4.65485">
        <ele>508.2</ele>
        <time>2022-06-25T16:19:12Z</time>
      </trkpt>
      <trkpt lat="46.1074" lon="4.65485">
        <ele>508.2</ele>
        <time>2022-06-25T16:19:22Z</time>
      </trkpt>
      <trkpt lat="46.1074" lon="4.65485">
        <ele>508.2</ele>
        <time>2022-06-25T16:19:41Z</time>
      </trkpt>
      <trkpt lat="46.1074" lon="4.65485">
        <ele>508.2</ele>
        <time>2022-06-25T16:19:52Z</time>
      </trkpt>
      <trkpt lat="46.1074" lon="4.65485">
        <ele>508.2</ele>
        <time>2022-06-25T16:19:54Z</time>
      </trkpt>
      <trkpt lat="46.1074" lon="4.65485">
        <ele>508.2</ele>
        <time>2022-06-25T16:20:11Z</time>
      </trkpt>
      <trkpt lat="46.10739" lon="4.65485">
        <ele>508.2</ele>
        <time>2022-06-25T16:20:14Z</time>
      </trkpt>
      <trkpt lat="46.10739" lon="4.65485">
        <ele>508.2</ele>
        <time>2022-06-25T16:20:23Z</time>
      </trkpt>
      <trkpt lat="46.10739" lon="4.65486">
        <ele>508.2</ele>
        <time>2022-06-25T16:20:32Z</time>
      </trkpt>
      <trkpt lat="46.10739" lon="4.65486">
        <ele>508.2</ele>
        <time>2022-06-25T16:20:40Z</time>
      </trkpt>
      <trkpt lat="46.10739" lon="4.65486">
        <ele>508.4</ele>
        <time>2022-06-25T16:20:50Z</time>
      </trkpt>
      <trkpt lat="46.10739" lon="4.65486">
        <ele>508.4</ele>
        <time>2022-06-25T16:21:00Z</time>
      </trkpt>
      <trkpt lat="46.10739" lon="4.65486">
        <ele>508.6</ele>
        <time>2022-06-25T16:21:06Z</time>
      </trkpt>
      <trkpt lat="46.10739" lon="4.65486">
        <ele>508.6</ele>
        <time>2022-06-25T16:21:15Z</time>
      </trkpt>
      <trkpt lat="46.10739" lon="4.65486">
        <ele>508.6</ele>
        <time>2022-06-25T16:21:27Z</time>
      </trkpt>
      <trkpt lat="46.10739" lon="4.65486">
        <ele>508.6</ele>
        <time>2022-06-25T16:21:33Z</time>
      </trkpt>
      <trkpt lat="46.10739" lon="4.65487">
        <ele>508.6</ele>
        <time>2022-06-25T16:21:39Z</time>
      </trkpt>
      <trkpt lat="46.10739" lon="4.65487">
        <ele>508.6</ele>
        <time>2022-06-25T16:21:52Z</time>
      </trkpt>
      <trkpt lat="46.10739" lon="4.65487">
        <ele>508.6</ele>
        <time>2022-06-25T16:22:00Z</time>
      </trkpt>
      <trkpt lat="46.10739" lon="4.65487">
        <ele>508.8</ele>
        <time>2022-06-25T16:22:11Z</time>
      </trkpt>
      <trkpt lat="46.10739" lon="4.65487">
        <ele>508.6</ele>
        <time>2022-06-25T16:22:23Z</time>
      </trkpt>
      <trkpt lat="46.10739" lon="4.65487">
        <ele>508.4</ele>
        <time>2022-06-25T16:22:35Z</time>
      </trkpt>
      <trkpt lat="46.10739" lon="4.65487">
        <ele>508.4</ele>
        <time>2022-06-25T16:22:42Z</time>
      </trkpt>
      <trkpt lat="46.10739" lon="4.65488">
        <ele>508.4</ele>
        <time>2022-06-25T16:22:48Z</time>
      </trkpt>
      <trkpt lat="46.10738" lon="4.65488">
        <ele>508.4</ele>
        <time>2022-06-25T16:22:49Z</time>
      </trkpt>
      <trkpt lat="46.10738" lon="4.65488">
        <ele>508.4</ele>
        <time>2022-06-25T16:23:00Z</time>
      </trkpt>
      <trkpt lat="46.10738" lon="4.65488">
        <ele>508</ele>
        <time>2022-06-25T16:23:06Z</time>
      </trkpt>
      <trkpt lat="46.10738" lon="4.65488">
        <ele>507.8</ele>
        <time>2022-06-25T16:23:16Z</time>
      </trkpt>
      <trkpt lat="46.10738" lon="4.65488">
        <ele>507.6</ele>
        <time>2022-06-25T16:23:24Z</time>
      </trkpt>
      <trkpt lat="46.10738" lon="4.65488">
        <ele>507.6</ele>
        <time>2022-06-25T16:23:36Z</time>
      </trkpt>
      <trkpt lat="46.10738" lon="4.65488">
        <ele>507.6</ele>
        <time>2022-06-25T16:23:44Z</time>
      </trkpt>
      <trkpt lat="46.10738" lon="4.65489">
        <ele>507.6</ele>
        <time>2022-06-25T16:23:52Z</time>
      </trkpt>
      <trkpt lat="46.10738" lon="4.65489">
        <ele>507.4</ele>
        <time>2022-06-25T16:23:57Z</time>
      </trkpt>
      <trkpt lat="46.10738" lon="4.65489">
        <ele>507.4</ele>
        <time>2022-06-25T16:24:03Z</time>
      </trkpt>
      <trkpt lat="46.10738" lon="4.65489">
        <ele>507.2</ele>
        <time>2022-06-25T16:24:15Z</time>
      </trkpt>
      <trkpt lat="46.10738" lon="4.65489">
        <ele>507</ele>
        <time>2022-06-25T16:24:27Z</time>
      </trkpt>
      <trkpt lat="46.10738" lon="4.65489">
        <ele>507</ele>
        <time>2022-06-25T16:24:30Z</time>
      </trkpt>
      <trkpt lat="46.10738" lon="4.65489">
        <ele>507.2</ele>
        <time>2022-06-25T16:24:50Z</time>
      </trkpt>
      <trkpt lat="46.10738" lon="4.65489">
        <ele>507</ele>
        <time>2022-06-25T16:24:56Z</time>
      </trkpt>
      <trkpt lat="46.10738" lon="4.6549">
        <ele>506.8</ele>
        <time>2022-06-25T16:25:06Z</time>
      </trkpt>
      <trkpt lat="46.10738" lon="4.6549">
        <ele>506.8</ele>
        <time>2022-06-25T16:25:12Z</time>
      </trkpt>
      <trkpt lat="46.10737" lon="4.6549">
        <ele>507</ele>
        <time>2022-06-25T16:25:28Z</time>
      </trkpt>
      <trkpt lat="46.10737" lon="4.6549">
        <ele>507</ele>
        <time>2022-06-25T16:25:32Z</time>
      </trkpt>
      <trkpt lat="46.10737" lon="4.6549">
        <ele>506.8</ele>
        <time>2022-06-25T16:25:42Z</time>
      </trkpt>
      <trkpt lat="46.10737" lon="4.6549">
        <ele>507</ele>
        <time>2022-06-25T16:25:48Z</time>
      </trkpt>
      <trkpt lat="46.10737" lon="4.6549">
        <ele>507</ele>
        <time>2022-06-25T16:25:57Z</time>
      </trkpt>
      <trkpt lat="46.10737" lon="4.6549">
        <ele>507</ele>
        <time>2022-06-25T16:26:06Z</time>
      </trkpt>
      <trkpt lat="46.10737" lon="4.65491">
        <ele>506.6</ele>
        <time>2022-06-25T16:26:12Z</time>
      </trkpt>
      <trkpt lat="46.10737" lon="4.65491">
        <ele>506.6</ele>
        <time>2022-06-25T16:26:18Z</time>
      </trkpt>
      <trkpt lat="46.10737" lon="4.65491">
        <ele>506.8</ele>
        <time>2022-06-25T16:26:53Z</time>
      </trkpt>
      <trkpt lat="46.10737" lon="4.65491">
        <ele>506.8</ele>
        <time>2022-06-25T16:27:01Z</time>
      </trkpt>
      <trkpt lat="46.10737" lon="4.65491">
        <ele>506.8</ele>
        <time>2022-06-25T16:27:11Z</time>
      </trkpt>
      <trkpt lat="46.10737" lon="4.65491">
        <ele>506.4</ele>
        <time>2022-06-25T16:27:17Z</time>
      </trkpt>
      <trkpt lat="46.10737" lon="4.65491">
        <ele>507</ele>
        <time>2022-06-25T16:27:28Z</time>
      </trkpt>
      <trkpt lat="46.10737" lon="4.65492">
        <ele>507.4</ele>
        <time>2022-06-25T16:27:35Z</time>
      </trkpt>
      <trkpt lat="46.10737" lon="4.65492">
        <ele>507.4</ele>
        <time>2022-06-25T16:27:41Z</time>
      </trkpt>
      <trkpt lat="46.10737" lon="4.65492">
        <ele>508</ele>
        <time>2022-06-25T16:27:48Z</time>
      </trkpt>
      <trkpt lat="46.10737" lon="4.65492">
        <ele>508.2</ele>
        <time>2022-06-25T16:27:56Z</time>
      </trkpt>
      <trkpt lat="46.10737" lon="4.65492">
        <ele>508.4</ele>
        <time>2022-06-25T16:28:11Z</time>
      </trkpt>
      <trkpt lat="46.10736" lon="4.65492">
        <ele>508.6</ele>
        <time>2022-06-25T16:28:15Z</time>
      </trkpt>
      <trkpt lat="46.10736" lon="4.65492">
        <ele>508.4</ele>
        <time>2022-06-25T16:28:23Z</time>
      </trkpt>
      <trkpt lat="46.10736" lon="4.65492">
        <ele>508.6</ele>
        <time>2022-06-25T16:28:39Z</time>
      </trkpt>
      <trkpt lat="46.10736" lon="4.65493">
        <ele>508.6</ele>
        <time>2022-06-25T16:28:46Z</time>
      </trkpt>
      <trkpt lat="46.10736" lon="4.65493">
        <ele>509.2</ele>
        <time>2022-06-25T16:28:48Z</time>
      </trkpt>
      <trkpt lat="46.10736" lon="4.65493">
        <ele>509</ele>
        <time>2022-06-25T16:28:58Z</time>
      </trkpt>
      <trkpt lat="46.10736" lon="4.65493">
        <ele>509.2</ele>
        <time>2022-06-25T16:29:04Z</time>
      </trkpt>
      <trkpt lat="46.10736" lon="4.65493">
        <ele>509.6</ele>
        <time>2022-06-25T16:29:16Z</time>
      </trkpt>
      <trkpt lat="46.10736" lon="4.65493">
        <ele>509.8</ele>
        <time>2022-06-25T16:29:23Z</time>
      </trkpt>
      <trkpt lat="46.10736" lon="4.65493">
        <ele>509.6</ele>
        <time>2022-06-25T16:29:30Z</time>
      </trkpt>
      <trkpt lat="46.10736" lon="4.65493">
        <ele>509.4</ele>
        <time>2022-06-25T16:29:44Z</time>
      </trkpt>
      <trkpt lat="46.10736" lon="4.65494">
        <ele>509.6</ele>
        <time>2022-06-25T16:30:03Z</time>
      </trkpt>
      <trkpt lat="46.10736" lon="4.65494">
        <ele>509</ele>
        <time>2022-06-25T16:30:16Z</time>
      </trkpt>
      <trkpt lat="46.10736" lon="4.65494">
        <ele>509</ele>
        <time>2022-06-25T16:30:22Z</time>
      </trkpt>
      <trkpt lat="46.10736" lon="4.65494">
        <ele>508.8</ele>
        <time>2022-06-25T16:30:54Z</time>
      </trkpt>
      <trkpt lat="46.10736" lon="4.65494">
        <ele>508.6</ele>
        <time>2022-06-25T16:31:23Z</time>
      </trkpt>
      <trkpt lat="46.10736" lon="4.65494">
        <ele>509</ele>
        <time>2022-06-25T16:31:31Z</time>
      </trkpt>
      <trkpt lat="46.10736" lon="4.65494">
        <ele>508</ele>
        <time>2022-06-25T16:32:06Z</time>
      </trkpt>
      <trkpt lat="46.10735" lon="4.65494">
        <ele>508</ele>
        <time>2022-06-25T16:32:09Z</time>
      </trkpt>
      <trkpt lat="46.10735" lon="4.65495">
        <ele>507.8</ele>
        <time>2022-06-25T16:32:18Z</time>
      </trkpt>
      <trkpt lat="46.10735" lon="4.65495">
        <ele>508</ele>
        <time>2022-06-25T16:32:30Z</time>
      </trkpt>
      <trkpt lat="46.10735" lon="4.65495">
        <ele>508</ele>
        <time>2022-06-25T16:32:47Z</time>
      </trkpt>
      <trkpt lat="46.10735" lon="4.65495">
        <ele>507.6</ele>
        <time>2022-06-25T16:33:18Z</time>
      </trkpt>
      <trkpt lat="46.10735" lon="4.65495">
        <ele>507.6</ele>
        <time>2022-06-25T16:33:26Z</time>
      </trkpt>
      <trkpt lat="46.10735" lon="4.65495">
        <ele>507.8</ele>
        <time>2022-06-25T16:33:42Z</time>
      </trkpt>
      <trkpt lat="46.10735" lon="4.65495">
        <ele>507.8</ele>
        <time>2022-06-25T16:33:50Z</time>
      </trkpt>
      <trkpt lat="46.10735" lon="4.65495">
        <ele>507.4</ele>
        <time>2022-06-25T16:33:59Z</time>
      </trkpt>
      <trkpt lat="46.10735" lon="4.65495">
        <ele>508</ele>
        <time>2022-06-25T16:34:09Z</time>
      </trkpt>
      <trkpt lat="46.10735" lon="4.65495">
        <ele>508</ele>
        <time>2022-06-25T16:34:14Z</time>
      </trkpt>
      <trkpt lat="46.10735" lon="4.65495">
        <ele>508.6</ele>
        <time>2022-06-25T16:34:22Z</time>
      </trkpt>
      <trkpt lat="46.10735" lon="4.65495">
        <ele>508.6</ele>
        <time>2022-06-25T16:34:26Z</time>
      </trkpt>
      <trkpt lat="46.10735" lon="4.65494">
        <ele>508.6</ele>
        <time>2022-06-25T16:34:28Z</time>
      </trkpt>
      <trkpt lat="46.10735" lon="4.65494">
        <ele>508.2</ele>
        <time>2022-06-25T16:34:33Z</time>
      </trkpt>
      <trkpt lat="46.10735" lon="4.65494">
        <ele>508.2</ele>
        <time>2022-06-25T16:34:38Z</time>
      </trkpt>
      <trkpt lat="46.10735" lon="4.65494">
        <ele>508.4</ele>
        <time>2022-06-25T16:34:41Z</time>
      </trkpt>
      <trkpt lat="46.10735" lon="4.65494">
        <ele>508.4</ele>
        <time>2022-06-25T16:34:45Z</time>
      </trkpt>
      <trkpt lat="46.10735" lon="4.65494">
        <ele>508.6</ele>
        <time>2022-06-25T16:34:50Z</time>
      </trkpt>
      <trkpt lat="46.10736" lon="4.65494">
        <ele>509</ele>
        <time>2022-06-25T16:34:51Z</time>
      </trkpt>
      <trkpt lat="46.10736" lon="4.65493">
        <ele>509</ele>
        <time>2022-06-25T16:34:53Z</time>
      </trkpt>
      <trkpt lat="46.10736" lon="4.65493">
        <ele>508.8</ele>
        <time>2022-06-25T16:34:58Z</time>
      </trkpt>
      <trkpt lat="46.10736" lon="4.65493">
        <ele>509</ele>
        <time>2022-06-25T16:35:01Z</time>
      </trkpt>
      <trkpt lat="46.10736" lon="4.65493">
        <ele>508.6</ele>
        <time>2022-06-25T16:35:05Z</time>
      </trkpt>
      <trkpt lat="46.10736" lon="4.65493">
        <ele>508.4</ele>
        <time>2022-06-25T16:35:10Z</time>
      </trkpt>
      <trkpt lat="46.10736" lon="4.65493">
        <ele>508.4</ele>
        <time>2022-06-25T16:35:12Z</time>
      </trkpt>
      <trkpt lat="46.10736" lon="4.65492">
        <ele>508</ele>
        <time>2022-06-25T16:35:17Z</time>
      </trkpt>
      <trkpt lat="46.10736" lon="4.65492">
        <ele>508</ele>
        <time>2022-06-25T16:35:21Z</time>
      </trkpt>
      <trkpt lat="46.10736" lon="4.65492">
        <ele>508.4</ele>
        <time>2022-06-25T16:35:24Z</time>
      </trkpt>
      <trkpt lat="46.10736" lon="4.65492">
        <ele>508.2</ele>
        <time>2022-06-25T16:35:29Z</time>
      </trkpt>
      <trkpt lat="46.10736" lon="4.65492">
        <ele>508.2</ele>
        <time>2022-06-25T16:35:33Z</time>
      </trkpt>
      <trkpt lat="46.10736" lon="4.65492">
        <ele>508.6</ele>
        <time>2022-06-25T16:35:36Z</time>
      </trkpt>
      <trkpt lat="46.10736" lon="4.65492">
        <ele>509</ele>
        <time>2022-06-25T16:35:41Z</time>
      </trkpt>
      <trkpt lat="46.10736" lon="4.65491">
        <ele>509</ele>
        <time>2022-06-25T16:35:44Z</time>
      </trkpt>
      <trkpt lat="46.10736" lon="4.65491">
        <ele>509</ele>
        <time>2022-06-25T16:35:46Z</time>
      </trkpt>
      <trkpt lat="46.10736" lon="4.65491">
        <ele>509.6</ele>
        <time>2022-06-25T16:35:51Z</time>
      </trkpt>
      <trkpt lat="46.10736" lon="4.65491">
        <ele>509.2</ele>
        <time>2022-06-25T16:35:54Z</time>
      </trkpt>
      <trkpt lat="46.10736" lon="4.65491">
        <ele>509.2</ele>
        <time>2022-06-25T16:35:59Z</time>
      </trkpt>
      <trkpt lat="46.10736" lon="4.65491">
        <ele>509.6</ele>
        <time>2022-06-25T16:36:03Z</time>
      </trkpt>
      <trkpt lat="46.10736" lon="4.6549">
        <ele>509.2</ele>
        <time>2022-06-25T16:36:08Z</time>
      </trkpt>
      <trkpt lat="46.10736" lon="4.6549">
        <ele>509.2</ele>
        <time>2022-06-25T16:36:11Z</time>
      </trkpt>
      <trkpt lat="46.10736" lon="4.6549">
        <ele>509</ele>
        <time>2022-06-25T16:36:16Z</time>
      </trkpt>
      <trkpt lat="46.10736" lon="4.6549">
        <ele>508.8</ele>
        <time>2022-06-25T16:36:26Z</time>
      </trkpt>
      <trkpt lat="46.10736" lon="4.6549">
        <ele>509</ele>
        <time>2022-06-25T16:36:42Z</time>
      </trkpt>
      <trkpt lat="46.10736" lon="4.6549">
        <ele>508.4</ele>
        <time>2022-06-25T16:36:46Z</time>
      </trkpt>
      <trkpt lat="46.10737" lon="4.65489">
        <ele>508.6</ele>
        <time>2022-06-25T16:36:49Z</time>
      </trkpt>
      <trkpt lat="46.10737" lon="4.65489">
        <ele>508.6</ele>
        <time>2022-06-25T16:36:54Z</time>
      </trkpt>
      <trkpt lat="46.10737" lon="4.65489">
        <ele>508.6</ele>
        <time>2022-06-25T16:36:59Z</time>
      </trkpt>
      <trkpt lat="46.10737" lon="4.65489">
        <ele>508.8</ele>
        <time>2022-06-25T16:37:04Z</time>
      </trkpt>
      <trkpt lat="46.10737" lon="4.65489">
        <ele>508.6</ele>
        <time>2022-06-25T16:37:09Z</time>
      </trkpt>
      <trkpt lat="46.10737" lon="4.65488">
        <ele>508.2</ele>
        <time>2022-06-25T16:37:16Z</time>
      </trkpt>
      <trkpt lat="46.10737" lon="4.65488">
        <ele>508.2</ele>
        <time>2022-06-25T16:37:18Z</time>
      </trkpt>
      <trkpt lat="46.10737" lon="4.65488">
        <ele>507.8</ele>
        <time>2022-06-25T16:37:21Z</time>
      </trkpt>
      <trkpt lat="46.10737" lon="4.65488">
        <ele>507.8</ele>
        <time>2022-06-25T16:37:25Z</time>
      </trkpt>
      <trkpt lat="46.10737" lon="4.65488">
        <ele>507.2</ele>
        <time>2022-06-25T16:37:30Z</time>
      </trkpt>
      <trkpt lat="46.10737" lon="4.65488">
        <ele>507.2</ele>
        <time>2022-06-25T16:37:33Z</time>
      </trkpt>
      <trkpt lat="46.10737" lon="4.65488">
        <ele>507.2</ele>
        <time>2022-06-25T16:37:39Z</time>
      </trkpt>
      <trkpt lat="46.10737" lon="4.65487">
        <ele>507</ele>
        <time>2022-06-25T16:37:44Z</time>
      </trkpt>
      <trkpt lat="46.10737" lon="4.65487">
        <ele>507</ele>
        <time>2022-06-25T16:37:47Z</time>
      </trkpt>
      <trkpt lat="46.10737" lon="4.65487">
        <ele>507.4</ele>
        <time>2022-06-25T16:37:52Z</time>
      </trkpt>
      <trkpt lat="46.10737" lon="4.65487">
        <ele>507.4</ele>
        <time>2022-06-25T16:37:56Z</time>
      </trkpt>
      <trkpt lat="46.10737" lon="4.65487">
        <ele>507</ele>
        <time>2022-06-25T16:38:00Z</time>
      </trkpt>
      <trkpt lat="46.10737" lon="4.65487">
        <ele>507.8</ele>
        <time>2022-06-25T16:38:05Z</time>
      </trkpt>
      <trkpt lat="46.10737" lon="4.65487">
        <ele>507.6</ele>
        <time>2022-06-25T16:38:07Z</time>
      </trkpt>
      <trkpt lat="46.10737" lon="4.65486">
        <ele>507.8</ele>
        <time>2022-06-25T16:38:12Z</time>
      </trkpt>
      <trkpt lat="46.10737" lon="4.65486">
        <ele>507.6</ele>
        <time>2022-06-25T16:38:17Z</time>
      </trkpt>
      <trkpt lat="46.10737" lon="4.65486">
        <ele>507.6</ele>
        <time>2022-06-25T16:38:19Z</time>
      </trkpt>
      <trkpt lat="46.10737" lon="4.65486">
        <ele>508.2</ele>
        <time>2022-06-25T16:38:24Z</time>
      </trkpt>
      <trkpt lat="46.10737" lon="4.65486">
        <ele>508.2</ele>
        <time>2022-06-25T16:38:28Z</time>
      </trkpt>
      <trkpt lat="46.10737" lon="4.65486">
        <ele>508</ele>
        <time>2022-06-25T16:38:31Z</time>
      </trkpt>
      <trkpt lat="46.10737" lon="4.65485">
        <ele>507.6</ele>
        <time>2022-06-25T16:38:38Z</time>
      </trkpt>
      <trkpt lat="46.10738" lon="4.65485">
        <ele>507.6</ele>
        <time>2022-06-25T16:38:40Z</time>
      </trkpt>
      <trkpt lat="46.10738" lon="4.65485">
        <ele>507.6</ele>
        <time>2022-06-25T16:38:43Z</time>
      </trkpt>
      <trkpt lat="46.10738" lon="4.65485">
        <ele>508.2</ele>
        <time>2022-06-25T16:38:48Z</time>
      </trkpt>
      <trkpt lat="46.10738" lon="4.65485">
        <ele>507.8</ele>
        <time>2022-06-25T16:38:53Z</time>
      </trkpt>
      <trkpt lat="46.10738" lon="4.65485">
        <ele>508</ele>
        <time>2022-06-25T16:38:58Z</time>
      </trkpt>
      <trkpt lat="46.10738" lon="4.65484">
        <ele>508.4</ele>
        <time>2022-06-25T16:39:03Z</time>
      </trkpt>
      <trkpt lat="46.10738" lon="4.65484">
        <ele>508.8</ele>
        <time>2022-06-25T16:39:05Z</time>
      </trkpt>
      <trkpt lat="46.10738" lon="4.65484">
        <ele>508.8</ele>
        <time>2022-06-25T16:39:10Z</time>
      </trkpt>
      <trkpt lat="46.10738" lon="4.65484">
        <ele>508.8</ele>
        <time>2022-06-25T16:39:15Z</time>
      </trkpt>
      <trkpt lat="46.10738" lon="4.65484">
        <ele>507.8</ele>
        <time>2022-06-25T16:39:20Z</time>
      </trkpt>
      <trkpt lat="46.10738" lon="4.65484">
        <ele>507.8</ele>
        <time>2022-06-25T16:39:25Z</time>
      </trkpt>
      <trkpt lat="46.10738" lon="4.65483">
        <ele>508.2</ele>
        <time>2022-06-25T16:39:27Z</time>
      </trkpt>
      <trkpt lat="46.10738" lon="4.65483">
        <ele>509</ele>
        <time>2022-06-25T16:39:32Z</time>
      </trkpt>
      <trkpt lat="46.10738" lon="4.65483">
        <ele>509</ele>
        <time>2022-06-25T16:39:36Z</time>
      </trkpt>
      <trkpt lat="46.10738" lon="4.65483">
        <ele>508.8</ele>
        <time>2022-06-25T16:40:08Z</time>
      </trkpt>
      <trkpt lat="46.10738" lon="4.65483">
        <ele>509.6</ele>
        <time>2022-06-25T16:40:48Z</time>
      </trkpt>
      <trkpt lat="46.10738" lon="4.65483">
        <ele>509.4</ele>
        <time>2022-06-25T16:41:20Z</time>
      </trkpt>
      <trkpt lat="46.10738" lon="4.65483">
        <ele>509.6</ele>
        <time>2022-06-25T16:41:58Z</time>
      </trkpt>
      <trkpt lat="46.10738" lon="4.65483">
        <ele>510.2</ele>
        <time>2022-06-25T16:42:30Z</time>
      </trkpt>
      <trkpt lat="46.10738" lon="4.65483">
        <ele>511.4</ele>
        <time>2022-06-25T16:43:08Z</time>
      </trkpt>
      <trkpt lat="46.10738" lon="4.65483">
        <ele>510.6</ele>
        <time>2022-06-25T16:43:43Z</time>
      </trkpt>
      <trkpt lat="46.10738" lon="4.65483">
        <ele>509.6</ele>
        <time>2022-06-25T16:44:16Z</time>
      </trkpt>
      <trkpt lat="46.1073" lon="4.65498">
        <ele>471.4</ele>
        <time>2022-06-25T17:28:12Z</time>
      </trkpt>
      <trkpt lat="46.10729" lon="4.65498">
        <ele>471.4</ele>
        <time>2022-06-25T17:28:16Z</time>
      </trkpt>
      <trkpt lat="46.10729" lon="4.65497">
        <ele>474.2</ele>
        <time>2022-06-25T17:28:18Z</time>
      </trkpt>
      <trkpt lat="46.10728" lon="4.65497">
        <ele>474.2</ele>
        <time>2022-06-25T17:28:19Z</time>
      </trkpt>
      <trkpt lat="46.10727" lon="4.65497">
        <ele>474.2</ele>
        <time>2022-06-25T17:28:20Z</time>
      </trkpt>
      <trkpt lat="46.10725" lon="4.65496">
        <ele>474.2</ele>
        <time>2022-06-25T17:28:21Z</time>
      </trkpt>
      <trkpt lat="46.10723" lon="4.65495">
        <ele>474</ele>
        <time>2022-06-25T17:28:22Z</time>
      </trkpt>
      <trkpt lat="46.10721" lon="4.65494">
        <ele>474</ele>
        <time>2022-06-25T17:28:23Z</time>
      </trkpt>
      <trkpt lat="46.10718" lon="4.65493">
        <ele>474</ele>
        <time>2022-06-25T17:28:24Z</time>
      </trkpt>
      <trkpt lat="46.10715" lon="4.65493">
        <ele>473.6</ele>
        <time>2022-06-25T17:28:25Z</time>
      </trkpt>
      <trkpt lat="46.10711" lon="4.65492">
        <ele>473.4</ele>
        <time>2022-06-25T17:28:26Z</time>
      </trkpt>
      <trkpt lat="46.10707" lon="4.65493">
        <ele>473</ele>
        <time>2022-06-25T17:28:27Z</time>
      </trkpt>
      <trkpt lat="46.10702" lon="4.65493">
        <ele>472.8</ele>
        <time>2022-06-25T17:28:28Z</time>
      </trkpt>
      <trkpt lat="46.10697" lon="4.65494">
        <ele>472.4</ele>
        <time>2022-06-25T17:28:29Z</time>
      </trkpt>
      <trkpt lat="46.10692" lon="4.65494">
        <ele>472.2</ele>
        <time>2022-06-25T17:28:30Z</time>
      </trkpt>
      <trkpt lat="46.10687" lon="4.65494">
        <ele>472</ele>
        <time>2022-06-25T17:28:31Z</time>
      </trkpt>
      <trkpt lat="46.10681" lon="4.65494">
        <ele>471.6</ele>
        <time>2022-06-25T17:28:32Z</time>
      </trkpt>
      <trkpt lat="46.10675" lon="4.65495">
        <ele>471</ele>
        <time>2022-06-25T17:28:33Z</time>
      </trkpt>
      <trkpt lat="46.1067" lon="4.65494">
        <ele>470.8</ele>
        <time>2022-06-25T17:28:34Z</time>
      </trkpt>
      <trkpt lat="46.10665" lon="4.65492">
        <ele>470.2</ele>
        <time>2022-06-25T17:28:35Z</time>
      </trkpt>
      <trkpt lat="46.10661" lon="4.65489">
        <ele>469.8</ele>
        <time>2022-06-25T17:28:36Z</time>
      </trkpt>
      <trkpt lat="46.10657" lon="4.65484">
        <ele>469.8</ele>
        <time>2022-06-25T17:28:37Z</time>
      </trkpt>
      <trkpt lat="46.10654" lon="4.65477">
        <ele>469.6</ele>
        <time>2022-06-25T17:28:38Z</time>
      </trkpt>
      <trkpt lat="46.10652" lon="4.6547">
        <ele>469.2</ele>
        <time>2022-06-25T17:28:39Z</time>
      </trkpt>
      <trkpt lat="46.10652" lon="4.65462">
        <ele>469.2</ele>
        <time>2022-06-25T17:28:40Z</time>
      </trkpt>
      <trkpt lat="46.10652" lon="4.65455">
        <ele>469.2</ele>
        <time>2022-06-25T17:28:41Z</time>
      </trkpt>
      <trkpt lat="46.10654" lon="4.65447">
        <ele>469</ele>
        <time>2022-06-25T17:28:42Z</time>
      </trkpt>
      <trkpt lat="46.10656" lon="4.6544">
        <ele>468.6</ele>
        <time>2022-06-25T17:28:43Z</time>
      </trkpt>
      <trkpt lat="46.10658" lon="4.65433">
        <ele>468.2</ele>
        <time>2022-06-25T17:28:44Z</time>
      </trkpt>
      <trkpt lat="46.10662" lon="4.65425">
        <ele>467.8</ele>
        <time>2022-06-25T17:28:45Z</time>
      </trkpt>
      <trkpt lat="46.10666" lon="4.65418">
        <ele>467.4</ele>
        <time>2022-06-25T17:28:46Z</time>
      </trkpt>
      <trkpt lat="46.1067" lon="4.65411">
        <ele>467</ele>
        <time>2022-06-25T17:28:47Z</time>
      </trkpt>
      <trkpt lat="46.10675" lon="4.65404">
        <ele>466.4</ele>
        <time>2022-06-25T17:28:48Z</time>
      </trkpt>
      <trkpt lat="46.10679" lon="4.65396">
        <ele>465.8</ele>
        <time>2022-06-25T17:28:49Z</time>
      </trkpt>
      <trkpt lat="46.10684" lon="4.65389">
        <ele>465.2</ele>
        <time>2022-06-25T17:28:50Z</time>
      </trkpt>
      <trkpt lat="46.10689" lon="4.65381">
        <ele>464.6</ele>
        <time>2022-06-25T17:28:51Z</time>
      </trkpt>
      <trkpt lat="46.10694" lon="4.65373">
        <ele>464.6</ele>
        <time>2022-06-25T17:28:52Z</time>
      </trkpt>
      <trkpt lat="46.107" lon="4.65366">
        <ele>463.6</ele>
        <time>2022-06-25T17:28:53Z</time>
      </trkpt>
      <trkpt lat="46.10705" lon="4.65358">
        <ele>462.4</ele>
        <time>2022-06-25T17:28:54Z</time>
      </trkpt>
      <trkpt lat="46.1071" lon="4.6535">
        <ele>461.4</ele>
        <time>2022-06-25T17:28:55Z</time>
      </trkpt>
      <trkpt lat="46.10715" lon="4.65342">
        <ele>460.6</ele>
        <time>2022-06-25T17:28:56Z</time>
      </trkpt>
      <trkpt lat="46.1072" lon="4.65335">
        <ele>459.8</ele>
        <time>2022-06-25T17:28:57Z</time>
      </trkpt>
      <trkpt lat="46.10725" lon="4.65329">
        <ele>458.6</ele>
        <time>2022-06-25T17:28:58Z</time>
      </trkpt>
      <trkpt lat="46.10731" lon="4.65323">
        <ele>457.6</ele>
        <time>2022-06-25T17:28:59Z</time>
      </trkpt>
      <trkpt lat="46.10737" lon="4.65317">
        <ele>456.4</ele>
        <time>2022-06-25T17:29:00Z</time>
      </trkpt>
      <trkpt lat="46.10743" lon="4.65312">
        <ele>455.4</ele>
        <time>2022-06-25T17:29:01Z</time>
      </trkpt>
      <trkpt lat="46.10749" lon="4.65308">
        <ele>454.4</ele>
        <time>2022-06-25T17:29:02Z</time>
      </trkpt>
      <trkpt lat="46.10753" lon="4.65303">
        <ele>453.6</ele>
        <time>2022-06-25T17:29:03Z</time>
      </trkpt>
      <trkpt lat="46.10757" lon="4.65298">
        <ele>452.8</ele>
        <time>2022-06-25T17:29:04Z</time>
      </trkpt>
      <trkpt lat="46.10759" lon="4.65292">
        <ele>452.2</ele>
        <time>2022-06-25T17:29:05Z</time>
      </trkpt>
      <trkpt lat="46.1076" lon="4.65286">
        <ele>451.6</ele>
        <time>2022-06-25T17:29:06Z</time>
      </trkpt>
      <trkpt lat="46.1076" lon="4.65278">
        <ele>451.2</ele>
        <time>2022-06-25T17:29:07Z</time>
      </trkpt>
      <trkpt lat="46.10758" lon="4.65271">
        <ele>450.8</ele>
        <time>2022-06-25T17:29:08Z</time>
      </trkpt>
      <trkpt lat="46.10755" lon="4.65265">
        <ele>450.2</ele>
        <time>2022-06-25T17:29:09Z</time>
      </trkpt>
      <trkpt lat="46.10751" lon="4.6526">
        <ele>449.8</ele>
        <time>2022-06-25T17:29:10Z</time>
      </trkpt>
      <trkpt lat="46.10746" lon="4.65257">
        <ele>449.4</ele>
        <time>2022-06-25T17:29:11Z</time>
      </trkpt>
      <trkpt lat="46.10741" lon="4.65256">
        <ele>448.8</ele>
        <time>2022-06-25T17:29:12Z</time>
      </trkpt>
      <trkpt lat="46.10735" lon="4.65258">
        <ele>448.4</ele>
        <time>2022-06-25T17:29:13Z</time>
      </trkpt>
      <trkpt lat="46.10729" lon="4.6526">
        <ele>447.6</ele>
        <time>2022-06-25T17:29:15Z</time>
      </trkpt>
      <trkpt lat="46.10722" lon="4.65262">
        <ele>447</ele>
        <time>2022-06-25T17:29:16Z</time>
      </trkpt>
      <trkpt lat="46.10714" lon="4.65264">
        <ele>446.6</ele>
        <time>2022-06-25T17:29:17Z</time>
      </trkpt>
      <trkpt lat="46.10706" lon="4.65266">
        <ele>446</ele>
        <time>2022-06-25T17:29:18Z</time>
      </trkpt>
      <trkpt lat="46.10698" lon="4.65268">
        <ele>445.4</ele>
        <time>2022-06-25T17:29:19Z</time>
      </trkpt>
      <trkpt lat="46.1069" lon="4.65269">
        <ele>444.8</ele>
        <time>2022-06-25T17:29:20Z</time>
      </trkpt>
      <trkpt lat="46.10682" lon="4.6527">
        <ele>444</ele>
        <time>2022-06-25T17:29:21Z</time>
      </trkpt>
      <trkpt lat="46.10674" lon="4.6527">
        <ele>443.2</ele>
        <time>2022-06-25T17:29:22Z</time>
      </trkpt>
      <trkpt lat="46.10666" lon="4.6527">
        <ele>442.4</ele>
        <time>2022-06-25T17:29:23Z</time>
      </trkpt>
      <trkpt lat="46.10659" lon="4.6527">
        <ele>441.6</ele>
        <time>2022-06-25T17:29:24Z</time>
      </trkpt>
      <trkpt lat="46.10652" lon="4.65268">
        <ele>441</ele>
        <time>2022-06-25T17:29:25Z</time>
      </trkpt>
      <trkpt lat="46.10644" lon="4.65268">
        <ele>440.4</ele>
        <time>2022-06-25T17:29:26Z</time>
      </trkpt>
      <trkpt lat="46.10636" lon="4.65268">
        <ele>439.8</ele>
        <time>2022-06-25T17:29:27Z</time>
      </trkpt>
      <trkpt lat="46.10628" lon="4.65269">
        <ele>439.2</ele>
        <time>2022-06-25T17:29:28Z</time>
      </trkpt>
      <trkpt lat="46.10619" lon="4.65272">
        <ele>438.6</ele>
        <time>2022-06-25T17:29:29Z</time>
      </trkpt>
      <trkpt lat="46.10611" lon="4.65275">
        <ele>438.2</ele>
        <time>2022-06-25T17:29:30Z</time>
      </trkpt>
      <trkpt lat="46.10602" lon="4.6528">
        <ele>438</ele>
        <time>2022-06-25T17:29:31Z</time>
      </trkpt>
      <trkpt lat="46.10594" lon="4.65285">
        <ele>437.6</ele>
        <time>2022-06-25T17:29:32Z</time>
      </trkpt>
      <trkpt lat="46.10586" lon="4.65289">
        <ele>437</ele>
        <time>2022-06-25T17:29:33Z</time>
      </trkpt>
      <trkpt lat="46.10579" lon="4.65293">
        <ele>436.6</ele>
        <time>2022-06-25T17:29:34Z</time>
      </trkpt>
      <trkpt lat="46.10573" lon="4.65296">
        <ele>436.2</ele>
        <time>2022-06-25T17:29:35Z</time>
      </trkpt>
      <trkpt lat="46.10567" lon="4.65299">
        <ele>435.8</ele>
        <time>2022-06-25T17:29:36Z</time>
      </trkpt>
      <trkpt lat="46.10561" lon="4.65301">
        <ele>435.4</ele>
        <time>2022-06-25T17:29:37Z</time>
      </trkpt>
      <trkpt lat="46.10555" lon="4.65303">
        <ele>435</ele>
        <time>2022-06-25T17:29:38Z</time>
      </trkpt>
      <trkpt lat="46.1055" lon="4.65306">
        <ele>434.4</ele>
        <time>2022-06-25T17:29:39Z</time>
      </trkpt>
      <trkpt lat="46.10544" lon="4.6531">
        <ele>434</ele>
        <time>2022-06-25T17:29:40Z</time>
      </trkpt>
      <trkpt lat="46.10539" lon="4.65314">
        <ele>433.6</ele>
        <time>2022-06-25T17:29:41Z</time>
      </trkpt>
      <trkpt lat="46.10533" lon="4.65318">
        <ele>433</ele>
        <time>2022-06-25T17:29:42Z</time>
      </trkpt>
      <trkpt lat="46.10528" lon="4.65323">
        <ele>432.4</ele>
        <time>2022-06-25T17:29:43Z</time>
      </trkpt>
      <trkpt lat="46.10524" lon="4.65328">
        <ele>431.8</ele>
        <time>2022-06-25T17:29:44Z</time>
      </trkpt>
      <trkpt lat="46.10519" lon="4.65333">
        <ele>431.2</ele>
        <time>2022-06-25T17:29:45Z</time>
      </trkpt>
      <trkpt lat="46.10515" lon="4.65338">
        <ele>430.8</ele>
        <time>2022-06-25T17:29:46Z</time>
      </trkpt>
      <trkpt lat="46.10512" lon="4.65342">
        <ele>430</ele>
        <time>2022-06-25T17:29:47Z</time>
      </trkpt>
      <trkpt lat="46.10509" lon="4.65347">
        <ele>429.4</ele>
        <time>2022-06-25T17:29:48Z</time>
      </trkpt>
      <trkpt lat="46.10507" lon="4.65352">
        <ele>428.6</ele>
        <time>2022-06-25T17:29:49Z</time>
      </trkpt>
      <trkpt lat="46.10504" lon="4.65358">
        <ele>427.8</ele>
        <time>2022-06-25T17:29:50Z</time>
      </trkpt>
      <trkpt lat="46.10502" lon="4.65364">
        <ele>427.2</ele>
        <time>2022-06-25T17:29:51Z</time>
      </trkpt>
      <trkpt lat="46.10501" lon="4.65371">
        <ele>426.4</ele>
        <time>2022-06-25T17:29:52Z</time>
      </trkpt>
      <trkpt lat="46.105" lon="4.65378">
        <ele>425.8</ele>
        <time>2022-06-25T17:29:53Z</time>
      </trkpt>
      <trkpt lat="46.10498" lon="4.65385">
        <ele>425.2</ele>
        <time>2022-06-25T17:29:54Z</time>
      </trkpt>
      <trkpt lat="46.10498" lon="4.65393">
        <ele>424.8</ele>
        <time>2022-06-25T17:29:55Z</time>
      </trkpt>
      <trkpt lat="46.10498" lon="4.65402">
        <ele>424.2</ele>
        <time>2022-06-25T17:29:56Z</time>
      </trkpt>
      <trkpt lat="46.10499" lon="4.65411">
        <ele>423.6</ele>
        <time>2022-06-25T17:29:57Z</time>
      </trkpt>
      <trkpt lat="46.105" lon="4.6542">
        <ele>423</ele>
        <time>2022-06-25T17:29:58Z</time>
      </trkpt>
      <trkpt lat="46.10502" lon="4.65429">
        <ele>422.8</ele>
        <time>2022-06-25T17:29:59Z</time>
      </trkpt>
      <trkpt lat="46.10504" lon="4.65437">
        <ele>422.6</ele>
        <time>2022-06-25T17:30:00Z</time>
      </trkpt>
      <trkpt lat="46.10506" lon="4.65445">
        <ele>422.2</ele>
        <time>2022-06-25T17:30:01Z</time>
      </trkpt>
      <trkpt lat="46.10508" lon="4.65452">
        <ele>421.8</ele>
        <time>2022-06-25T17:30:02Z</time>
      </trkpt>
      <trkpt lat="46.1051" lon="4.65459">
        <ele>421.4</ele>
        <time>2022-06-25T17:30:03Z</time>
      </trkpt>
      <trkpt lat="46.10511" lon="4.65466">
        <ele>421</ele>
        <time>2022-06-25T17:30:04Z</time>
      </trkpt>
      <trkpt lat="46.10511" lon="4.65472">
        <ele>420.4</ele>
        <time>2022-06-25T17:30:05Z</time>
      </trkpt>
      <trkpt lat="46.10511" lon="4.65478">
        <ele>419.8</ele>
        <time>2022-06-25T17:30:06Z</time>
      </trkpt>
      <trkpt lat="46.1051" lon="4.65484">
        <ele>419.4</ele>
        <time>2022-06-25T17:30:07Z</time>
      </trkpt>
      <trkpt lat="46.10507" lon="4.6549">
        <ele>418.8</ele>
        <time>2022-06-25T17:30:08Z</time>
      </trkpt>
      <trkpt lat="46.10505" lon="4.65494">
        <ele>418.4</ele>
        <time>2022-06-25T17:30:09Z</time>
      </trkpt>
      <trkpt lat="46.10502" lon="4.65497">
        <ele>417.8</ele>
        <time>2022-06-25T17:30:10Z</time>
      </trkpt>
      <trkpt lat="46.10498" lon="4.65498">
        <ele>417.2</ele>
        <time>2022-06-25T17:30:11Z</time>
      </trkpt>
      <trkpt lat="46.10494" lon="4.65497">
        <ele>416.8</ele>
        <time>2022-06-25T17:30:12Z</time>
      </trkpt>
      <trkpt lat="46.1049" lon="4.65493">
        <ele>416.2</ele>
        <time>2022-06-25T17:30:13Z</time>
      </trkpt>
      <trkpt lat="46.10486" lon="4.65487">
        <ele>415.6</ele>
        <time>2022-06-25T17:30:14Z</time>
      </trkpt>
      <trkpt lat="46.10483" lon="4.65479">
        <ele>415</ele>
        <time>2022-06-25T17:30:15Z</time>
      </trkpt>
      <trkpt lat="46.1048" lon="4.6547">
        <ele>414.6</ele>
        <time>2022-06-25T17:30:16Z</time>
      </trkpt>
      <trkpt lat="46.10477" lon="4.6546">
        <ele>414</ele>
        <time>2022-06-25T17:30:17Z</time>
      </trkpt>
      <trkpt lat="46.10474" lon="4.6545">
        <ele>413.4</ele>
        <time>2022-06-25T17:30:18Z</time>
      </trkpt>
      <trkpt lat="46.10472" lon="4.65439">
        <ele>413</ele>
        <time>2022-06-25T17:30:19Z</time>
      </trkpt>
      <trkpt lat="46.10469" lon="4.65428">
        <ele>412.4</ele>
        <time>2022-06-25T17:30:20Z</time>
      </trkpt>
      <trkpt lat="46.10466" lon="4.65417">
        <ele>411.6</ele>
        <time>2022-06-25T17:30:21Z</time>
      </trkpt>
      <trkpt lat="46.10463" lon="4.65405">
        <ele>411</ele>
        <time>2022-06-25T17:30:22Z</time>
      </trkpt>
      <trkpt lat="46.1046" lon="4.65394">
        <ele>410</ele>
        <time>2022-06-25T17:30:23Z</time>
      </trkpt>
      <trkpt lat="46.10457" lon="4.65383">
        <ele>409.2</ele>
        <time>2022-06-25T17:30:24Z</time>
      </trkpt>
      <trkpt lat="46.10454" lon="4.65373">
        <ele>408.4</ele>
        <time>2022-06-25T17:30:25Z</time>
      </trkpt>
      <trkpt lat="46.10449" lon="4.65356">
        <ele>407</ele>
        <time>2022-06-25T17:30:26Z</time>
      </trkpt>
      <trkpt lat="46.10447" lon="4.65348">
        <ele>406.4</ele>
        <time>2022-06-25T17:30:27Z</time>
      </trkpt>
      <trkpt lat="46.10445" lon="4.65341">
        <ele>405.4</ele>
        <time>2022-06-25T17:30:28Z</time>
      </trkpt>
      <trkpt lat="46.10444" lon="4.65335">
        <ele>404.8</ele>
        <time>2022-06-25T17:30:29Z</time>
      </trkpt>
      <trkpt lat="46.10442" lon="4.65329">
        <ele>404</ele>
        <time>2022-06-25T17:30:30Z</time>
      </trkpt>
      <trkpt lat="46.10441" lon="4.65323">
        <ele>403.4</ele>
        <time>2022-06-25T17:30:31Z</time>
      </trkpt>
      <trkpt lat="46.1044" lon="4.65318">
        <ele>403</ele>
        <time>2022-06-25T17:30:32Z</time>
      </trkpt>
      <trkpt lat="46.10439" lon="4.65314">
        <ele>402.4</ele>
        <time>2022-06-25T17:30:33Z</time>
      </trkpt>
      <trkpt lat="46.10438" lon="4.6531">
        <ele>402</ele>
        <time>2022-06-25T17:30:34Z</time>
      </trkpt>
      <trkpt lat="46.10437" lon="4.65307">
        <ele>401.4</ele>
        <time>2022-06-25T17:30:35Z</time>
      </trkpt>
      <trkpt lat="46.10437" lon="4.65305">
        <ele>400.8</ele>
        <time>2022-06-25T17:30:36Z</time>
      </trkpt>
      <trkpt lat="46.10437" lon="4.65304">
        <ele>400.4</ele>
        <time>2022-06-25T17:30:37Z</time>
      </trkpt>
      <trkpt lat="46.10436" lon="4.65304">
        <ele>399.8</ele>
        <time>2022-06-25T17:30:38Z</time>
      </trkpt>
      <trkpt lat="46.10435" lon="4.65302">
        <ele>399.8</ele>
        <time>2022-06-25T17:30:39Z</time>
      </trkpt>
      <trkpt lat="46.10434" lon="4.653">
        <ele>399.8</ele>
        <time>2022-06-25T17:30:40Z</time>
      </trkpt>
      <trkpt lat="46.10433" lon="4.65296">
        <ele>399.6</ele>
        <time>2022-06-25T17:30:41Z</time>
      </trkpt>
      <trkpt lat="46.10432" lon="4.65292">
        <ele>399.6</ele>
        <time>2022-06-25T17:30:42Z</time>
      </trkpt>
      <trkpt lat="46.10431" lon="4.65286">
        <ele>399.6</ele>
        <time>2022-06-25T17:30:43Z</time>
      </trkpt>
      <trkpt lat="46.1043" lon="4.6528">
        <ele>399.4</ele>
        <time>2022-06-25T17:30:44Z</time>
      </trkpt>
      <trkpt lat="46.10429" lon="4.65273">
        <ele>399</ele>
        <time>2022-06-25T17:30:45Z</time>
      </trkpt>
      <trkpt lat="46.10427" lon="4.65265">
        <ele>398.8</ele>
        <time>2022-06-25T17:30:46Z</time>
      </trkpt>
      <trkpt lat="46.10425" lon="4.65257">
        <ele>398.2</ele>
        <time>2022-06-25T17:30:47Z</time>
      </trkpt>
      <trkpt lat="46.10423" lon="4.65249">
        <ele>397.4</ele>
        <time>2022-06-25T17:30:48Z</time>
      </trkpt>
      <trkpt lat="46.10422" lon="4.65241">
        <ele>396.6</ele>
        <time>2022-06-25T17:30:49Z</time>
      </trkpt>
      <trkpt lat="46.1042" lon="4.65232">
        <ele>396.2</ele>
        <time>2022-06-25T17:30:50Z</time>
      </trkpt>
      <trkpt lat="46.10419" lon="4.65223">
        <ele>395.2</ele>
        <time>2022-06-25T17:30:51Z</time>
      </trkpt>
      <trkpt lat="46.10418" lon="4.65214">
        <ele>394.4</ele>
        <time>2022-06-25T17:30:52Z</time>
      </trkpt>
      <trkpt lat="46.10418" lon="4.65206">
        <ele>393.6</ele>
        <time>2022-06-25T17:30:53Z</time>
      </trkpt>
      <trkpt lat="46.10419" lon="4.65198">
        <ele>392.8</ele>
        <time>2022-06-25T17:30:54Z</time>
      </trkpt>
      <trkpt lat="46.1042" lon="4.65189">
        <ele>392</ele>
        <time>2022-06-25T17:30:55Z</time>
      </trkpt>
      <trkpt lat="46.10423" lon="4.65181">
        <ele>391.2</ele>
        <time>2022-06-25T17:30:56Z</time>
      </trkpt>
      <trkpt lat="46.10426" lon="4.65173">
        <ele>390.4</ele>
        <time>2022-06-25T17:30:57Z</time>
      </trkpt>
      <trkpt lat="46.1043" lon="4.65165">
        <ele>389.8</ele>
        <time>2022-06-25T17:30:58Z</time>
      </trkpt>
      <trkpt lat="46.10434" lon="4.65158">
        <ele>389.2</ele>
        <time>2022-06-25T17:30:59Z</time>
      </trkpt>
      <trkpt lat="46.10439" lon="4.65151">
        <ele>388.4</ele>
        <time>2022-06-25T17:31:00Z</time>
      </trkpt>
      <trkpt lat="46.10444" lon="4.65145">
        <ele>388</ele>
        <time>2022-06-25T17:31:01Z</time>
      </trkpt>
      <trkpt lat="46.1045" lon="4.65139">
        <ele>387.4</ele>
        <time>2022-06-25T17:31:02Z</time>
      </trkpt>
      <trkpt lat="46.10456" lon="4.65132">
        <ele>386.6</ele>
        <time>2022-06-25T17:31:03Z</time>
      </trkpt>
      <trkpt lat="46.10462" lon="4.65125">
        <ele>385.8</ele>
        <time>2022-06-25T17:31:04Z</time>
      </trkpt>
      <trkpt lat="46.10468" lon="4.65117">
        <ele>384.8</ele>
        <time>2022-06-25T17:31:05Z</time>
      </trkpt>
      <trkpt lat="46.10475" lon="4.65109">
        <ele>384</ele>
        <time>2022-06-25T17:31:06Z</time>
      </trkpt>
      <trkpt lat="46.10482" lon="4.65101">
        <ele>383</ele>
        <time>2022-06-25T17:31:07Z</time>
      </trkpt>
      <trkpt lat="46.10489" lon="4.65093">
        <ele>382.2</ele>
        <time>2022-06-25T17:31:08Z</time>
      </trkpt>
      <trkpt lat="46.10495" lon="4.65085">
        <ele>381.2</ele>
        <time>2022-06-25T17:31:09Z</time>
      </trkpt>
      <trkpt lat="46.10502" lon="4.65077">
        <ele>380</ele>
        <time>2022-06-25T17:31:10Z</time>
      </trkpt>
      <trkpt lat="46.10509" lon="4.65068">
        <ele>378.8</ele>
        <time>2022-06-25T17:31:11Z</time>
      </trkpt>
      <trkpt lat="46.10516" lon="4.6506">
        <ele>377.8</ele>
        <time>2022-06-25T17:31:12Z</time>
      </trkpt>
      <trkpt lat="46.10523" lon="4.65052">
        <ele>376.8</ele>
        <time>2022-06-25T17:31:13Z</time>
      </trkpt>
      <trkpt lat="46.10531" lon="4.65045">
        <ele>375.8</ele>
        <time>2022-06-25T17:31:14Z</time>
      </trkpt>
      <trkpt lat="46.10538" lon="4.65036">
        <ele>374.8</ele>
        <time>2022-06-25T17:31:15Z</time>
      </trkpt>
      <trkpt lat="46.10546" lon="4.65029">
        <ele>374</ele>
        <time>2022-06-25T17:31:16Z</time>
      </trkpt>
      <trkpt lat="46.10553" lon="4.65022">
        <ele>373.2</ele>
        <time>2022-06-25T17:31:17Z</time>
      </trkpt>
      <trkpt lat="46.10561" lon="4.65015">
        <ele>372.4</ele>
        <time>2022-06-25T17:31:18Z</time>
      </trkpt>
      <trkpt lat="46.10567" lon="4.65008">
        <ele>371.4</ele>
        <time>2022-06-25T17:31:19Z</time>
      </trkpt>
      <trkpt lat="46.10574" lon="4.65002">
        <ele>370.4</ele>
        <time>2022-06-25T17:31:20Z</time>
      </trkpt>
      <trkpt lat="46.1058" lon="4.64996">
        <ele>369.2</ele>
        <time>2022-06-25T17:31:21Z</time>
      </trkpt>
      <trkpt lat="46.10587" lon="4.64989">
        <ele>368.6</ele>
        <time>2022-06-25T17:31:22Z</time>
      </trkpt>
      <trkpt lat="46.10593" lon="4.64983">
        <ele>367.6</ele>
        <time>2022-06-25T17:31:23Z</time>
      </trkpt>
      <trkpt lat="46.106" lon="4.64977">
        <ele>366.8</ele>
        <time>2022-06-25T17:31:24Z</time>
      </trkpt>
      <trkpt lat="46.10607" lon="4.64972">
        <ele>366</ele>
        <time>2022-06-25T17:31:25Z</time>
      </trkpt>
      <trkpt lat="46.10613" lon="4.64966">
        <ele>365.2</ele>
        <time>2022-06-25T17:31:26Z</time>
      </trkpt>
      <trkpt lat="46.1062" lon="4.64961">
        <ele>364.4</ele>
        <time>2022-06-25T17:31:27Z</time>
      </trkpt>
      <trkpt lat="46.10626" lon="4.64957">
        <ele>363.6</ele>
        <time>2022-06-25T17:31:28Z</time>
      </trkpt>
      <trkpt lat="46.10633" lon="4.64951">
        <ele>362.6</ele>
        <time>2022-06-25T17:31:29Z</time>
      </trkpt>
      <trkpt lat="46.10639" lon="4.64946">
        <ele>361.8</ele>
        <time>2022-06-25T17:31:30Z</time>
      </trkpt>
      <trkpt lat="46.10644" lon="4.6494">
        <ele>361</ele>
        <time>2022-06-25T17:31:31Z</time>
      </trkpt>
      <trkpt lat="46.10649" lon="4.64934">
        <ele>360.2</ele>
        <time>2022-06-25T17:31:32Z</time>
      </trkpt>
      <trkpt lat="46.10654" lon="4.64928">
        <ele>359.6</ele>
        <time>2022-06-25T17:31:33Z</time>
      </trkpt>
      <trkpt lat="46.10658" lon="4.6492">
        <ele>359</ele>
        <time>2022-06-25T17:31:34Z</time>
      </trkpt>
      <trkpt lat="46.10661" lon="4.64911">
        <ele>358.4</ele>
        <time>2022-06-25T17:31:35Z</time>
      </trkpt>
      <trkpt lat="46.10664" lon="4.64902">
        <ele>357.8</ele>
        <time>2022-06-25T17:31:36Z</time>
      </trkpt>
      <trkpt lat="46.10666" lon="4.64892">
        <ele>357.2</ele>
        <time>2022-06-25T17:31:37Z</time>
      </trkpt>
      <trkpt lat="46.10668" lon="4.64883">
        <ele>356.8</ele>
        <time>2022-06-25T17:31:38Z</time>
      </trkpt>
      <trkpt lat="46.1067" lon="4.64874">
        <ele>356.2</ele>
        <time>2022-06-25T17:31:39Z</time>
      </trkpt>
      <trkpt lat="46.10672" lon="4.64867">
        <ele>355.6</ele>
        <time>2022-06-25T17:31:40Z</time>
      </trkpt>
      <trkpt lat="46.10674" lon="4.6486">
        <ele>355</ele>
        <time>2022-06-25T17:31:41Z</time>
      </trkpt>
      <trkpt lat="46.10675" lon="4.64853">
        <ele>354.4</ele>
        <time>2022-06-25T17:31:42Z</time>
      </trkpt>
      <trkpt lat="46.10675" lon="4.64847">
        <ele>353.6</ele>
        <time>2022-06-25T17:31:43Z</time>
      </trkpt>
      <trkpt lat="46.10674" lon="4.64841">
        <ele>353</ele>
        <time>2022-06-25T17:31:44Z</time>
      </trkpt>
      <trkpt lat="46.10673" lon="4.64835">
        <ele>352.2</ele>
        <time>2022-06-25T17:31:45Z</time>
      </trkpt>
      <trkpt lat="46.1067" lon="4.6483">
        <ele>351.8</ele>
        <time>2022-06-25T17:31:46Z</time>
      </trkpt>
      <trkpt lat="46.10666" lon="4.64825">
        <ele>351.2</ele>
        <time>2022-06-25T17:31:47Z</time>
      </trkpt>
      <trkpt lat="46.10661" lon="4.64821">
        <ele>350.4</ele>
        <time>2022-06-25T17:31:48Z</time>
      </trkpt>
      <trkpt lat="46.10656" lon="4.64818">
        <ele>349.8</ele>
        <time>2022-06-25T17:31:49Z</time>
      </trkpt>
      <trkpt lat="46.10651" lon="4.64817">
        <ele>349.2</ele>
        <time>2022-06-25T17:31:50Z</time>
      </trkpt>
      <trkpt lat="46.10647" lon="4.64815">
        <ele>348.4</ele>
        <time>2022-06-25T17:31:51Z</time>
      </trkpt>
      <trkpt lat="46.10642" lon="4.64813">
        <ele>347.8</ele>
        <time>2022-06-25T17:31:52Z</time>
      </trkpt>
      <trkpt lat="46.10638" lon="4.6481">
        <ele>347.4</ele>
        <time>2022-06-25T17:31:53Z</time>
      </trkpt>
      <trkpt lat="46.10635" lon="4.64806">
        <ele>346.8</ele>
        <time>2022-06-25T17:31:54Z</time>
      </trkpt>
      <trkpt lat="46.10633" lon="4.648">
        <ele>346.2</ele>
        <time>2022-06-25T17:31:55Z</time>
      </trkpt>
      <trkpt lat="46.10631" lon="4.64793">
        <ele>345.6</ele>
        <time>2022-06-25T17:31:56Z</time>
      </trkpt>
      <trkpt lat="46.1063" lon="4.64785">
        <ele>344.8</ele>
        <time>2022-06-25T17:31:57Z</time>
      </trkpt>
      <trkpt lat="46.10629" lon="4.64778">
        <ele>344</ele>
        <time>2022-06-25T17:31:58Z</time>
      </trkpt>
      <trkpt lat="46.10628" lon="4.64771">
        <ele>343.4</ele>
        <time>2022-06-25T17:31:59Z</time>
      </trkpt>
      <trkpt lat="46.10627" lon="4.64764">
        <ele>342.6</ele>
        <time>2022-06-25T17:32:00Z</time>
      </trkpt>
      <trkpt lat="46.10626" lon="4.64758">
        <ele>342</ele>
        <time>2022-06-25T17:32:01Z</time>
      </trkpt>
      <trkpt lat="46.10625" lon="4.64752">
        <ele>341.4</ele>
        <time>2022-06-25T17:32:02Z</time>
      </trkpt>
      <trkpt lat="46.10625" lon="4.64747">
        <ele>340.8</ele>
        <time>2022-06-25T17:32:03Z</time>
      </trkpt>
      <trkpt lat="46.10624" lon="4.64743">
        <ele>340.2</ele>
        <time>2022-06-25T17:32:04Z</time>
      </trkpt>
      <trkpt lat="46.10624" lon="4.64739">
        <ele>339.8</ele>
        <time>2022-06-25T17:32:05Z</time>
      </trkpt>
      <trkpt lat="46.10622" lon="4.64737">
        <ele>339.4</ele>
        <time>2022-06-25T17:32:06Z</time>
      </trkpt>
      <trkpt lat="46.1062" lon="4.64736">
        <ele>339</ele>
        <time>2022-06-25T17:32:07Z</time>
      </trkpt>
      <trkpt lat="46.10618" lon="4.64737">
        <ele>338.6</ele>
        <time>2022-06-25T17:32:08Z</time>
      </trkpt>
      <trkpt lat="46.10615" lon="4.6474">
        <ele>338.2</ele>
        <time>2022-06-25T17:32:09Z</time>
      </trkpt>
      <trkpt lat="46.10611" lon="4.64743">
        <ele>337.8</ele>
        <time>2022-06-25T17:32:10Z</time>
      </trkpt>
      <trkpt lat="46.10607" lon="4.64747">
        <ele>337.4</ele>
        <time>2022-06-25T17:32:11Z</time>
      </trkpt>
      <trkpt lat="46.10603" lon="4.64751">
        <ele>337</ele>
        <time>2022-06-25T17:32:12Z</time>
      </trkpt>
      <trkpt lat="46.10599" lon="4.64755">
        <ele>336.6</ele>
        <time>2022-06-25T17:32:13Z</time>
      </trkpt>
      <trkpt lat="46.10595" lon="4.64759">
        <ele>336.2</ele>
        <time>2022-06-25T17:32:14Z</time>
      </trkpt>
      <trkpt lat="46.10592" lon="4.64762">
        <ele>335.6</ele>
        <time>2022-06-25T17:32:15Z</time>
      </trkpt>
      <trkpt lat="46.10588" lon="4.64765">
        <ele>335.2</ele>
        <time>2022-06-25T17:32:16Z</time>
      </trkpt>
      <trkpt lat="46.10585" lon="4.64768">
        <ele>334.8</ele>
        <time>2022-06-25T17:32:17Z</time>
      </trkpt>
      <trkpt lat="46.10582" lon="4.6477">
        <ele>334.4</ele>
        <time>2022-06-25T17:32:18Z</time>
      </trkpt>
      <trkpt lat="46.1058" lon="4.64771">
        <ele>334</ele>
        <time>2022-06-25T17:32:20Z</time>
      </trkpt>
      <trkpt lat="46.10577" lon="4.64772">
        <ele>333.8</ele>
        <time>2022-06-25T17:32:21Z</time>
      </trkpt>
      <trkpt lat="46.10575" lon="4.64773">
        <ele>333.4</ele>
        <time>2022-06-25T17:32:22Z</time>
      </trkpt>
      <trkpt lat="46.10572" lon="4.64774">
        <ele>333.2</ele>
        <time>2022-06-25T17:32:23Z</time>
      </trkpt>
      <trkpt lat="46.10571" lon="4.64773">
        <ele>333</ele>
        <time>2022-06-25T17:32:24Z</time>
      </trkpt>
      <trkpt lat="46.10569" lon="4.6477">
        <ele>332.6</ele>
        <time>2022-06-25T17:32:25Z</time>
      </trkpt>
      <trkpt lat="46.10567" lon="4.64768">
        <ele>332.4</ele>
        <time>2022-06-25T17:32:26Z</time>
      </trkpt>
      <trkpt lat="46.10564" lon="4.64764">
        <ele>332</ele>
        <time>2022-06-25T17:32:27Z</time>
      </trkpt>
      <trkpt lat="46.10561" lon="4.64761">
        <ele>331.6</ele>
        <time>2022-06-25T17:32:28Z</time>
      </trkpt>
      <trkpt lat="46.1056" lon="4.64757">
        <ele>331.2</ele>
        <time>2022-06-25T17:32:29Z</time>
      </trkpt>
      <trkpt lat="46.10558" lon="4.64753">
        <ele>330.8</ele>
        <time>2022-06-25T17:32:30Z</time>
      </trkpt>
      <trkpt lat="46.10555" lon="4.6475">
        <ele>330.2</ele>
        <time>2022-06-25T17:32:31Z</time>
      </trkpt>
      <trkpt lat="46.10552" lon="4.64748">
        <ele>329.6</ele>
        <time>2022-06-25T17:32:32Z</time>
      </trkpt>
      <trkpt lat="46.10548" lon="4.64746">
        <ele>329.2</ele>
        <time>2022-06-25T17:32:33Z</time>
      </trkpt>
      <trkpt lat="46.10544" lon="4.64744">
        <ele>328.6</ele>
        <time>2022-06-25T17:32:34Z</time>
      </trkpt>
      <trkpt lat="46.1054" lon="4.6474">
        <ele>328</ele>
        <time>2022-06-25T17:32:35Z</time>
      </trkpt>
      <trkpt lat="46.10536" lon="4.64738">
        <ele>327.4</ele>
        <time>2022-06-25T17:32:36Z</time>
      </trkpt>
      <trkpt lat="46.10532" lon="4.64735">
        <ele>326.8</ele>
        <time>2022-06-25T17:32:37Z</time>
      </trkpt>
      <trkpt lat="46.10527" lon="4.64733">
        <ele>326.4</ele>
        <time>2022-06-25T17:32:38Z</time>
      </trkpt>
      <trkpt lat="46.10523" lon="4.64729">
        <ele>325.8</ele>
        <time>2022-06-25T17:32:39Z</time>
      </trkpt>
      <trkpt lat="46.10519" lon="4.64727">
        <ele>325.4</ele>
        <time>2022-06-25T17:32:40Z</time>
      </trkpt>
      <trkpt lat="46.10516" lon="4.64724">
        <ele>325</ele>
        <time>2022-06-25T17:32:41Z</time>
      </trkpt>
      <trkpt lat="46.10514" lon="4.64721">
        <ele>324.6</ele>
        <time>2022-06-25T17:32:42Z</time>
      </trkpt>
      <trkpt lat="46.10512" lon="4.64718">
        <ele>324.2</ele>
        <time>2022-06-25T17:32:43Z</time>
      </trkpt>
      <trkpt lat="46.10509" lon="4.64716">
        <ele>323.8</ele>
        <time>2022-06-25T17:32:44Z</time>
      </trkpt>
      <trkpt lat="46.10507" lon="4.64712">
        <ele>323.4</ele>
        <time>2022-06-25T17:32:45Z</time>
      </trkpt>
      <trkpt lat="46.10505" lon="4.64708">
        <ele>323</ele>
        <time>2022-06-25T17:32:46Z</time>
      </trkpt>
      <trkpt lat="46.10503" lon="4.64703">
        <ele>322.6</ele>
        <time>2022-06-25T17:32:47Z</time>
      </trkpt>
      <trkpt lat="46.10501" lon="4.64698">
        <ele>322.2</ele>
        <time>2022-06-25T17:32:48Z</time>
      </trkpt>
      <trkpt lat="46.10499" lon="4.64693">
        <ele>321.8</ele>
        <time>2022-06-25T17:32:49Z</time>
      </trkpt>
      <trkpt lat="46.10497" lon="4.64688">
        <ele>321.2</ele>
        <time>2022-06-25T17:32:50Z</time>
      </trkpt>
      <trkpt lat="46.10495" lon="4.64684">
        <ele>320.8</ele>
        <time>2022-06-25T17:32:51Z</time>
      </trkpt>
      <trkpt lat="46.10494" lon="4.64679">
        <ele>320.2</ele>
        <time>2022-06-25T17:32:52Z</time>
      </trkpt>
      <trkpt lat="46.10492" lon="4.64675">
        <ele>319.6</ele>
        <time>2022-06-25T17:32:53Z</time>
      </trkpt>
      <trkpt lat="46.10491" lon="4.64671">
        <ele>319.2</ele>
        <time>2022-06-25T17:32:54Z</time>
      </trkpt>
      <trkpt lat="46.10491" lon="4.64667">
        <ele>318.6</ele>
        <time>2022-06-25T17:32:55Z</time>
      </trkpt>
      <trkpt lat="46.1049" lon="4.64664">
        <ele>318</ele>
        <time>2022-06-25T17:32:56Z</time>
      </trkpt>
      <trkpt lat="46.10489" lon="4.64662">
        <ele>317.6</ele>
        <time>2022-06-25T17:32:57Z</time>
      </trkpt>
      <trkpt lat="46.10487" lon="4.6466">
        <ele>317.2</ele>
        <time>2022-06-25T17:32:58Z</time>
      </trkpt>
      <trkpt lat="46.10484" lon="4.64661">
        <ele>316.8</ele>
        <time>2022-06-25T17:32:59Z</time>
      </trkpt>
      <trkpt lat="46.10482" lon="4.64662">
        <ele>316</ele>
        <time>2022-06-25T17:33:01Z</time>
      </trkpt>
      <trkpt lat="46.10479" lon="4.64664">
        <ele>315.6</ele>
        <time>2022-06-25T17:33:02Z</time>
      </trkpt>
      <trkpt lat="46.10476" lon="4.64667">
        <ele>315.2</ele>
        <time>2022-06-25T17:33:03Z</time>
      </trkpt>
      <trkpt lat="46.10473" lon="4.6467">
        <ele>314.8</ele>
        <time>2022-06-25T17:33:04Z</time>
      </trkpt>
      <trkpt lat="46.10469" lon="4.64672">
        <ele>314.4</ele>
        <time>2022-06-25T17:33:05Z</time>
      </trkpt>
      <trkpt lat="46.10466" lon="4.64675">
        <ele>314</ele>
        <time>2022-06-25T17:33:06Z</time>
      </trkpt>
      <trkpt lat="46.10463" lon="4.64677">
        <ele>313.6</ele>
        <time>2022-06-25T17:33:07Z</time>
      </trkpt>
      <trkpt lat="46.1046" lon="4.6468">
        <ele>313.2</ele>
        <time>2022-06-25T17:33:08Z</time>
      </trkpt>
      <trkpt lat="46.10457" lon="4.64682">
        <ele>313</ele>
        <time>2022-06-25T17:33:09Z</time>
      </trkpt>
      <trkpt lat="46.10454" lon="4.64685">
        <ele>312.6</ele>
        <time>2022-06-25T17:33:10Z</time>
      </trkpt>
      <trkpt lat="46.1045" lon="4.64687">
        <ele>312.2</ele>
        <time>2022-06-25T17:33:11Z</time>
      </trkpt>
      <trkpt lat="46.10447" lon="4.6469">
        <ele>311.8</ele>
        <time>2022-06-25T17:33:12Z</time>
      </trkpt>
      <trkpt lat="46.1044" lon="4.64695">
        <ele>311.4</ele>
        <time>2022-06-25T17:33:13Z</time>
      </trkpt>
      <trkpt lat="46.10436" lon="4.64698">
        <ele>311.2</ele>
        <time>2022-06-25T17:33:14Z</time>
      </trkpt>
      <trkpt lat="46.10432" lon="4.64701">
        <ele>310.8</ele>
        <time>2022-06-25T17:33:15Z</time>
      </trkpt>
      <trkpt lat="46.10428" lon="4.64704">
        <ele>310.6</ele>
        <time>2022-06-25T17:33:16Z</time>
      </trkpt>
      <trkpt lat="46.10425" lon="4.64707">
        <ele>310.2</ele>
        <time>2022-06-25T17:33:17Z</time>
      </trkpt>
      <trkpt lat="46.10421" lon="4.6471">
        <ele>309.8</ele>
        <time>2022-06-25T17:33:18Z</time>
      </trkpt>
      <trkpt lat="46.10417" lon="4.64713">
        <ele>309.6</ele>
        <time>2022-06-25T17:33:19Z</time>
      </trkpt>
      <trkpt lat="46.10413" lon="4.64716">
        <ele>309.2</ele>
        <time>2022-06-25T17:33:20Z</time>
      </trkpt>
      <trkpt lat="46.10409" lon="4.64719">
        <ele>308.8</ele>
        <time>2022-06-25T17:33:21Z</time>
      </trkpt>
      <trkpt lat="46.10405" lon="4.64721">
        <ele>308.6</ele>
        <time>2022-06-25T17:33:22Z</time>
      </trkpt>
      <trkpt lat="46.104" lon="4.64724">
        <ele>308.4</ele>
        <time>2022-06-25T17:33:23Z</time>
      </trkpt>
      <trkpt lat="46.10396" lon="4.64727">
        <ele>308</ele>
        <time>2022-06-25T17:33:24Z</time>
      </trkpt>
      <trkpt lat="46.10391" lon="4.6473">
        <ele>307.6</ele>
        <time>2022-06-25T17:33:25Z</time>
      </trkpt>
      <trkpt lat="46.10386" lon="4.64733">
        <ele>307.2</ele>
        <time>2022-06-25T17:33:26Z</time>
      </trkpt>
      <trkpt lat="46.1038" lon="4.64737">
        <ele>307</ele>
        <time>2022-06-25T17:33:27Z</time>
      </trkpt>
      <trkpt lat="46.10375" lon="4.6474">
        <ele>306.6</ele>
        <time>2022-06-25T17:33:28Z</time>
      </trkpt>
      <trkpt lat="46.10369" lon="4.64743">
        <ele>306.4</ele>
        <time>2022-06-25T17:33:29Z</time>
      </trkpt>
      <trkpt lat="46.10363" lon="4.64747">
        <ele>306</ele>
        <time>2022-06-25T17:33:30Z</time>
      </trkpt>
      <trkpt lat="46.10358" lon="4.6475">
        <ele>305.8</ele>
        <time>2022-06-25T17:33:31Z</time>
      </trkpt>
      <trkpt lat="46.10353" lon="4.64754">
        <ele>305.6</ele>
        <time>2022-06-25T17:33:32Z</time>
      </trkpt>
      <trkpt lat="46.10347" lon="4.64757">
        <ele>305.2</ele>
        <time>2022-06-25T17:33:33Z</time>
      </trkpt>
      <trkpt lat="46.10342" lon="4.6476">
        <ele>305</ele>
        <time>2022-06-25T17:33:34Z</time>
      </trkpt>
      <trkpt lat="46.10338" lon="4.64764">
        <ele>304.8</ele>
        <time>2022-06-25T17:33:35Z</time>
      </trkpt>
      <trkpt lat="46.10333" lon="4.64767">
        <ele>304.8</ele>
        <time>2022-06-25T17:33:36Z</time>
      </trkpt>
      <trkpt lat="46.10329" lon="4.64771">
        <ele>304.4</ele>
        <time>2022-06-25T17:33:37Z</time>
      </trkpt>
      <trkpt lat="46.10326" lon="4.64775">
        <ele>304.4</ele>
        <time>2022-06-25T17:33:38Z</time>
      </trkpt>
      <trkpt lat="46.10322" lon="4.64779">
        <ele>304</ele>
        <time>2022-06-25T17:33:39Z</time>
      </trkpt>
      <trkpt lat="46.1032" lon="4.64784">
        <ele>303.8</ele>
        <time>2022-06-25T17:33:40Z</time>
      </trkpt>
      <trkpt lat="46.10317" lon="4.64787">
        <ele>303.4</ele>
        <time>2022-06-25T17:33:41Z</time>
      </trkpt>
      <trkpt lat="46.10316" lon="4.6479">
        <ele>303.2</ele>
        <time>2022-06-25T17:33:42Z</time>
      </trkpt>
      <trkpt lat="46.10315" lon="4.64792">
        <ele>303.2</ele>
        <time>2022-06-25T17:33:43Z</time>
      </trkpt>
      <trkpt lat="46.10314" lon="4.64794">
        <ele>303</ele>
        <time>2022-06-25T17:33:45Z</time>
      </trkpt>
      <trkpt lat="46.10313" lon="4.64796">
        <ele>303</ele>
        <time>2022-06-25T17:33:46Z</time>
      </trkpt>
      <trkpt lat="46.10312" lon="4.64799">
        <ele>302.8</ele>
        <time>2022-06-25T17:33:47Z</time>
      </trkpt>
      <trkpt lat="46.1031" lon="4.64802">
        <ele>302.8</ele>
        <time>2022-06-25T17:33:48Z</time>
      </trkpt>
      <trkpt lat="46.10309" lon="4.64805">
        <ele>302.8</ele>
        <time>2022-06-25T17:33:49Z</time>
      </trkpt>
      <trkpt lat="46.10307" lon="4.64808">
        <ele>302.8</ele>
        <time>2022-06-25T17:33:50Z</time>
      </trkpt>
      <trkpt lat="46.10306" lon="4.64812">
        <ele>302.6</ele>
        <time>2022-06-25T17:33:51Z</time>
      </trkpt>
      <trkpt lat="46.10306" lon="4.64815">
        <ele>302.6</ele>
        <time>2022-06-25T17:33:52Z</time>
      </trkpt>
      <trkpt lat="46.10307" lon="4.64816">
        <ele>302.6</ele>
        <time>2022-06-25T17:33:53Z</time>
      </trkpt>
      <trkpt lat="46.10307" lon="4.64816">
        <ele>302.6</ele>
        <time>2022-06-25T17:33:55Z</time>
      </trkpt>
      <trkpt lat="46.10307" lon="4.64817">
        <ele>302.6</ele>
        <time>2022-06-25T17:33:56Z</time>
      </trkpt>
      <trkpt lat="46.10307" lon="4.64817">
        <ele>302.6</ele>
        <time>2022-06-25T17:33:58Z</time>
      </trkpt>
      <trkpt lat="46.10307" lon="4.64817">
        <ele>302.6</ele>
        <time>2022-06-25T17:34:00Z</time>
      </trkpt>
      <trkpt lat="46.10307" lon="4.64817">
        <ele>302.6</ele>
        <time>2022-06-25T17:34:02Z</time>
      </trkpt>
      <trkpt lat="46.10307" lon="4.64818">
        <ele>302.6</ele>
        <time>2022-06-25T17:34:03Z</time>
      </trkpt>
      <trkpt lat="46.10307" lon="4.64818">
        <ele>302.6</ele>
        <time>2022-06-25T17:34:05Z</time>
      </trkpt>
      <trkpt lat="46.10307" lon="4.64818">
        <ele>302.6</ele>
        <time>2022-06-25T17:34:07Z</time>
      </trkpt>
      <trkpt lat="46.10307" lon="4.64819">
        <ele>302.6</ele>
        <time>2022-06-25T17:34:11Z</time>
      </trkpt>
      <trkpt lat="46.10307" lon="4.64819">
        <ele>302.6</ele>
        <time>2022-06-25T17:34:25Z</time>
      </trkpt>
      <trkpt lat="46.10307" lon="4.64819">
        <ele>302.6</ele>
        <time>2022-06-25T17:34:27Z</time>
      </trkpt>
      <trkpt lat="46.10307" lon="4.64819">
        <ele>302.6</ele>
        <time>2022-06-25T17:34:29Z</time>
      </trkpt>
      <trkpt lat="46.10307" lon="4.6482">
        <ele>302.6</ele>
        <time>2022-06-25T17:34:30Z</time>
      </trkpt>
      <trkpt lat="46.10307" lon="4.6482">
        <ele>302.6</ele>
        <time>2022-06-25T17:34:36Z</time>
      </trkpt>
      <trkpt lat="46.10307" lon="4.6482">
        <ele>302.6</ele>
        <time>2022-06-25T17:34:38Z</time>
      </trkpt>
      <trkpt lat="46.10307" lon="4.6482">
        <ele>302.6</ele>
        <time>2022-06-25T17:34:40Z</time>
      </trkpt>
      <trkpt lat="46.10307" lon="4.64821">
        <ele>302.6</ele>
        <time>2022-06-25T17:34:41Z</time>
      </trkpt>
      <trkpt lat="46.10306" lon="4.64821">
        <ele>302.6</ele>
        <time>2022-06-25T17:34:43Z</time>
      </trkpt>
      <trkpt lat="46.10306" lon="4.64821">
        <ele>302.6</ele>
        <time>2022-06-25T17:34:44Z</time>
      </trkpt>
      <trkpt lat="46.10306" lon="4.64821">
        <ele>302.6</ele>
        <time>2022-06-25T17:34:46Z</time>
      </trkpt>
      <trkpt lat="46.10306" lon="4.64822">
        <ele>302.6</ele>
        <time>2022-06-25T17:34:47Z</time>
      </trkpt>
      <trkpt lat="46.10306" lon="4.64822">
        <ele>302.6</ele>
        <time>2022-06-25T17:34:50Z</time>
      </trkpt>
      <trkpt lat="46.10306" lon="4.64822">
        <ele>302.6</ele>
        <time>2022-06-25T17:34:52Z</time>
      </trkpt>
      <trkpt lat="46.10305" lon="4.64824">
        <ele>302.6</ele>
        <time>2022-06-25T17:34:54Z</time>
      </trkpt>
      <trkpt lat="46.10303" lon="4.64827">
        <ele>302.6</ele>
        <time>2022-06-25T17:34:55Z</time>
      </trkpt>
      <trkpt lat="46.10302" lon="4.6483">
        <ele>302.6</ele>
        <time>2022-06-25T17:34:56Z</time>
      </trkpt>
      <trkpt lat="46.103" lon="4.64834">
        <ele>302.6</ele>
        <time>2022-06-25T17:34:57Z</time>
      </trkpt>
      <trkpt lat="46.10299" lon="4.64838">
        <ele>302.6</ele>
        <time>2022-06-25T17:34:58Z</time>
      </trkpt>
      <trkpt lat="46.10297" lon="4.64842">
        <ele>302.8</ele>
        <time>2022-06-25T17:34:59Z</time>
      </trkpt>
      <trkpt lat="46.10296" lon="4.64845">
        <ele>302.8</ele>
        <time>2022-06-25T17:35:00Z</time>
      </trkpt>
      <trkpt lat="46.10294" lon="4.64849">
        <ele>302.8</ele>
        <time>2022-06-25T17:35:01Z</time>
      </trkpt>
      <trkpt lat="46.10292" lon="4.64853">
        <ele>303.2</ele>
        <time>2022-06-25T17:35:02Z</time>
      </trkpt>
      <trkpt lat="46.1029" lon="4.64858">
        <ele>303.2</ele>
        <time>2022-06-25T17:35:03Z</time>
      </trkpt>
      <trkpt lat="46.10288" lon="4.64861">
        <ele>303.2</ele>
        <time>2022-06-25T17:35:04Z</time>
      </trkpt>
      <trkpt lat="46.10285" lon="4.64865">
        <ele>303.4</ele>
        <time>2022-06-25T17:35:05Z</time>
      </trkpt>
      <trkpt lat="46.10282" lon="4.64869">
        <ele>303.4</ele>
        <time>2022-06-25T17:35:06Z</time>
      </trkpt>
      <trkpt lat="46.10279" lon="4.64872">
        <ele>303.6</ele>
        <time>2022-06-25T17:35:07Z</time>
      </trkpt>
      <trkpt lat="46.10275" lon="4.64875">
        <ele>303.8</ele>
        <time>2022-06-25T17:35:08Z</time>
      </trkpt>
      <trkpt lat="46.10272" lon="4.64878">
        <ele>304</ele>
        <time>2022-06-25T17:35:09Z</time>
      </trkpt>
      <trkpt lat="46.10269" lon="4.6488">
        <ele>304</ele>
        <time>2022-06-25T17:35:10Z</time>
      </trkpt>
      <trkpt lat="46.10265" lon="4.64883">
        <ele>304.4</ele>
        <time>2022-06-25T17:35:11Z</time>
      </trkpt>
      <trkpt lat="46.10262" lon="4.64885">
        <ele>304.4</ele>
        <time>2022-06-25T17:35:12Z</time>
      </trkpt>
      <trkpt lat="46.10258" lon="4.64888">
        <ele>304.8</ele>
        <time>2022-06-25T17:35:13Z</time>
      </trkpt>
      <trkpt lat="46.10255" lon="4.64891">
        <ele>304.8</ele>
        <time>2022-06-25T17:35:14Z</time>
      </trkpt>
      <trkpt lat="46.10251" lon="4.64894">
        <ele>305</ele>
        <time>2022-06-25T17:35:15Z</time>
      </trkpt>
      <trkpt lat="46.10248" lon="4.64898">
        <ele>305</ele>
        <time>2022-06-25T17:35:16Z</time>
      </trkpt>
      <trkpt lat="46.10244" lon="4.649">
        <ele>305.2</ele>
        <time>2022-06-25T17:35:17Z</time>
      </trkpt>
      <trkpt lat="46.10241" lon="4.64903">
        <ele>305.2</ele>
        <time>2022-06-25T17:35:18Z</time>
      </trkpt>
      <trkpt lat="46.10238" lon="4.64905">
        <ele>305.6</ele>
        <time>2022-06-25T17:35:19Z</time>
      </trkpt>
      <trkpt lat="46.10235" lon="4.64908">
        <ele>305.8</ele>
        <time>2022-06-25T17:35:20Z</time>
      </trkpt>
      <trkpt lat="46.10232" lon="4.64911">
        <ele>306</ele>
        <time>2022-06-25T17:35:21Z</time>
      </trkpt>
      <trkpt lat="46.10228" lon="4.64913">
        <ele>306.4</ele>
        <time>2022-06-25T17:35:22Z</time>
      </trkpt>
      <trkpt lat="46.10225" lon="4.64916">
        <ele>306.4</ele>
        <time>2022-06-25T17:35:23Z</time>
      </trkpt>
      <trkpt lat="46.10222" lon="4.64918">
        <ele>306.6</ele>
        <time>2022-06-25T17:35:24Z</time>
      </trkpt>
      <trkpt lat="46.10219" lon="4.6492">
        <ele>306.6</ele>
        <time>2022-06-25T17:35:25Z</time>
      </trkpt>
      <trkpt lat="46.10215" lon="4.64923">
        <ele>307</ele>
        <time>2022-06-25T17:35:26Z</time>
      </trkpt>
      <trkpt lat="46.10211" lon="4.64925">
        <ele>307.2</ele>
        <time>2022-06-25T17:35:27Z</time>
      </trkpt>
      <trkpt lat="46.10207" lon="4.64928">
        <ele>307.2</ele>
        <time>2022-06-25T17:35:28Z</time>
      </trkpt>
      <trkpt lat="46.10202" lon="4.64932">
        <ele>307.2</ele>
        <time>2022-06-25T17:35:29Z</time>
      </trkpt>
      <trkpt lat="46.10197" lon="4.64935">
        <ele>307</ele>
        <time>2022-06-25T17:35:30Z</time>
      </trkpt>
      <trkpt lat="46.10192" lon="4.64938">
        <ele>307</ele>
        <time>2022-06-25T17:35:31Z</time>
      </trkpt>
      <trkpt lat="46.10187" lon="4.64943">
        <ele>306.8</ele>
        <time>2022-06-25T17:35:32Z</time>
      </trkpt>
      <trkpt lat="46.10181" lon="4.64948">
        <ele>306.4</ele>
        <time>2022-06-25T17:35:33Z</time>
      </trkpt>
      <trkpt lat="46.10169" lon="4.64959">
        <ele>305.8</ele>
        <time>2022-06-25T17:35:34Z</time>
      </trkpt>
      <trkpt lat="46.10162" lon="4.64966">
        <ele>305.4</ele>
        <time>2022-06-25T17:35:35Z</time>
      </trkpt>
      <trkpt lat="46.10155" lon="4.64973">
        <ele>305.2</ele>
        <time>2022-06-25T17:35:36Z</time>
      </trkpt>
      <trkpt lat="46.10148" lon="4.6498">
        <ele>304.8</ele>
        <time>2022-06-25T17:35:37Z</time>
      </trkpt>
      <trkpt lat="46.10142" lon="4.64989">
        <ele>304.6</ele>
        <time>2022-06-25T17:35:38Z</time>
      </trkpt>
      <trkpt lat="46.10135" lon="4.64997">
        <ele>304.4</ele>
        <time>2022-06-25T17:35:39Z</time>
      </trkpt>
      <trkpt lat="46.10129" lon="4.65007">
        <ele>304</ele>
        <time>2022-06-25T17:35:40Z</time>
      </trkpt>
      <trkpt lat="46.10124" lon="4.65017">
        <ele>304</ele>
        <time>2022-06-25T17:35:41Z</time>
      </trkpt>
      <trkpt lat="46.1012" lon="4.65028">
        <ele>303.8</ele>
        <time>2022-06-25T17:35:42Z</time>
      </trkpt>
      <trkpt lat="46.10116" lon="4.65039">
        <ele>303.8</ele>
        <time>2022-06-25T17:35:43Z</time>
      </trkpt>
      <trkpt lat="46.10113" lon="4.6505">
        <ele>303.8</ele>
        <time>2022-06-25T17:35:44Z</time>
      </trkpt>
      <trkpt lat="46.1011" lon="4.65061">
        <ele>303.8</ele>
        <time>2022-06-25T17:35:45Z</time>
      </trkpt>
      <trkpt lat="46.10107" lon="4.65071">
        <ele>303.8</ele>
        <time>2022-06-25T17:35:46Z</time>
      </trkpt>
      <trkpt lat="46.10104" lon="4.65081">
        <ele>303.8</ele>
        <time>2022-06-25T17:35:47Z</time>
      </trkpt>
      <trkpt lat="46.10101" lon="4.65091">
        <ele>303.8</ele>
        <time>2022-06-25T17:35:48Z</time>
      </trkpt>
      <trkpt lat="46.10098" lon="4.65101">
        <ele>303.8</ele>
        <time>2022-06-25T17:35:49Z</time>
      </trkpt>
      <trkpt lat="46.10094" lon="4.6511">
        <ele>303.8</ele>
        <time>2022-06-25T17:35:50Z</time>
      </trkpt>
      <trkpt lat="46.10091" lon="4.65119">
        <ele>303.8</ele>
        <time>2022-06-25T17:35:51Z</time>
      </trkpt>
      <trkpt lat="46.10086" lon="4.65127">
        <ele>303.8</ele>
        <time>2022-06-25T17:35:52Z</time>
      </trkpt>
      <trkpt lat="46.10082" lon="4.65136">
        <ele>303.4</ele>
        <time>2022-06-25T17:35:53Z</time>
      </trkpt>
      <trkpt lat="46.10077" lon="4.65144">
        <ele>303.4</ele>
        <time>2022-06-25T17:35:54Z</time>
      </trkpt>
      <trkpt lat="46.10071" lon="4.65152">
        <ele>303.2</ele>
        <time>2022-06-25T17:35:55Z</time>
      </trkpt>
      <trkpt lat="46.10066" lon="4.6516">
        <ele>303.2</ele>
        <time>2022-06-25T17:35:56Z</time>
      </trkpt>
      <trkpt lat="46.10061" lon="4.65169">
        <ele>303.2</ele>
        <time>2022-06-25T17:35:57Z</time>
      </trkpt>
      <trkpt lat="46.10056" lon="4.65178">
        <ele>302.8</ele>
        <time>2022-06-25T17:35:58Z</time>
      </trkpt>
      <trkpt lat="46.10051" lon="4.65187">
        <ele>302.8</ele>
        <time>2022-06-25T17:35:59Z</time>
      </trkpt>
      <trkpt lat="46.10047" lon="4.65196">
        <ele>302.4</ele>
        <time>2022-06-25T17:36:00Z</time>
      </trkpt>
      <trkpt lat="46.10043" lon="4.65206">
        <ele>302.4</ele>
        <time>2022-06-25T17:36:01Z</time>
      </trkpt>
      <trkpt lat="46.1004" lon="4.65215">
        <ele>302.2</ele>
        <time>2022-06-25T17:36:02Z</time>
      </trkpt>
      <trkpt lat="46.10037" lon="4.65225">
        <ele>301.8</ele>
        <time>2022-06-25T17:36:03Z</time>
      </trkpt>
      <trkpt lat="46.10035" lon="4.65235">
        <ele>301.4</ele>
        <time>2022-06-25T17:36:04Z</time>
      </trkpt>
      <trkpt lat="46.10033" lon="4.65246">
        <ele>301</ele>
        <time>2022-06-25T17:36:05Z</time>
      </trkpt>
      <trkpt lat="46.10031" lon="4.65257">
        <ele>300.4</ele>
        <time>2022-06-25T17:36:06Z</time>
      </trkpt>
      <trkpt lat="46.1003" lon="4.65269">
        <ele>300</ele>
        <time>2022-06-25T17:36:07Z</time>
      </trkpt>
      <trkpt lat="46.1003" lon="4.65281">
        <ele>299.6</ele>
        <time>2022-06-25T17:36:08Z</time>
      </trkpt>
      <trkpt lat="46.10031" lon="4.65294">
        <ele>299</ele>
        <time>2022-06-25T17:36:09Z</time>
      </trkpt>
      <trkpt lat="46.10032" lon="4.65307">
        <ele>298.4</ele>
        <time>2022-06-25T17:36:10Z</time>
      </trkpt>
      <trkpt lat="46.10033" lon="4.65319">
        <ele>298</ele>
        <time>2022-06-25T17:36:11Z</time>
      </trkpt>
      <trkpt lat="46.10034" lon="4.65332">
        <ele>297.4</ele>
        <time>2022-06-25T17:36:12Z</time>
      </trkpt>
      <trkpt lat="46.10035" lon="4.65343">
        <ele>297.2</ele>
        <time>2022-06-25T17:36:13Z</time>
      </trkpt>
      <trkpt lat="46.10036" lon="4.65355">
        <ele>296.8</ele>
        <time>2022-06-25T17:36:14Z</time>
      </trkpt>
      <trkpt lat="46.10037" lon="4.65367">
        <ele>296.4</ele>
        <time>2022-06-25T17:36:15Z</time>
      </trkpt>
      <trkpt lat="46.10039" lon="4.65379">
        <ele>296</ele>
        <time>2022-06-25T17:36:16Z</time>
      </trkpt>
      <trkpt lat="46.1004" lon="4.65391">
        <ele>295.6</ele>
        <time>2022-06-25T17:36:17Z</time>
      </trkpt>
      <trkpt lat="46.1004" lon="4.65403">
        <ele>295.2</ele>
        <time>2022-06-25T17:36:18Z</time>
      </trkpt>
      <trkpt lat="46.10041" lon="4.65415">
        <ele>294.6</ele>
        <time>2022-06-25T17:36:19Z</time>
      </trkpt>
      <trkpt lat="46.10041" lon="4.65427">
        <ele>294</ele>
        <time>2022-06-25T17:36:20Z</time>
      </trkpt>
      <trkpt lat="46.10041" lon="4.6544">
        <ele>293.6</ele>
        <time>2022-06-25T17:36:21Z</time>
      </trkpt>
      <trkpt lat="46.10041" lon="4.65453">
        <ele>293</ele>
        <time>2022-06-25T17:36:22Z</time>
      </trkpt>
      <trkpt lat="46.10041" lon="4.65467">
        <ele>292.4</ele>
        <time>2022-06-25T17:36:23Z</time>
      </trkpt>
      <trkpt lat="46.10041" lon="4.65482">
        <ele>292</ele>
        <time>2022-06-25T17:36:24Z</time>
      </trkpt>
      <trkpt lat="46.10042" lon="4.65496">
        <ele>291.4</ele>
        <time>2022-06-25T17:36:25Z</time>
      </trkpt>
      <trkpt lat="46.10042" lon="4.65511">
        <ele>290.8</ele>
        <time>2022-06-25T17:36:26Z</time>
      </trkpt>
      <trkpt lat="46.10041" lon="4.65526">
        <ele>290</ele>
        <time>2022-06-25T17:36:27Z</time>
      </trkpt>
      <trkpt lat="46.10041" lon="4.65541">
        <ele>289.2</ele>
        <time>2022-06-25T17:36:28Z</time>
      </trkpt>
      <trkpt lat="46.10041" lon="4.65555">
        <ele>288.6</ele>
        <time>2022-06-25T17:36:29Z</time>
      </trkpt>
      <trkpt lat="46.10041" lon="4.6557">
        <ele>288.2</ele>
        <time>2022-06-25T17:36:30Z</time>
      </trkpt>
      <trkpt lat="46.10041" lon="4.65584">
        <ele>287.6</ele>
        <time>2022-06-25T17:36:31Z</time>
      </trkpt>
      <trkpt lat="46.10041" lon="4.65597">
        <ele>287.2</ele>
        <time>2022-06-25T17:36:32Z</time>
      </trkpt>
      <trkpt lat="46.10041" lon="4.6561">
        <ele>286.8</ele>
        <time>2022-06-25T17:36:33Z</time>
      </trkpt>
      <trkpt lat="46.10041" lon="4.65622">
        <ele>286.6</ele>
        <time>2022-06-25T17:36:34Z</time>
      </trkpt>
      <trkpt lat="46.10041" lon="4.65632">
        <ele>286.2</ele>
        <time>2022-06-25T17:36:35Z</time>
      </trkpt>
      <trkpt lat="46.10041" lon="4.65641">
        <ele>286</ele>
        <time>2022-06-25T17:36:36Z</time>
      </trkpt>
      <trkpt lat="46.10041" lon="4.65649">
        <ele>285.8</ele>
        <time>2022-06-25T17:36:37Z</time>
      </trkpt>
      <trkpt lat="46.10041" lon="4.65656">
        <ele>285.8</ele>
        <time>2022-06-25T17:36:38Z</time>
      </trkpt>
      <trkpt lat="46.10041" lon="4.65661">
        <ele>285.4</ele>
        <time>2022-06-25T17:36:39Z</time>
      </trkpt>
      <trkpt lat="46.10041" lon="4.65665">
        <ele>285.4</ele>
        <time>2022-06-25T17:36:40Z</time>
      </trkpt>
      <trkpt lat="46.1004" lon="4.65666">
        <ele>285.4</ele>
        <time>2022-06-25T17:36:41Z</time>
      </trkpt>
      <trkpt lat="46.10039" lon="4.65666">
        <ele>285.4</ele>
        <time>2022-06-25T17:36:42Z</time>
      </trkpt>
      <trkpt lat="46.10039" lon="4.65667">
        <ele>285.4</ele>
        <time>2022-06-25T17:36:43Z</time>
      </trkpt>
      <trkpt lat="46.10038" lon="4.65667">
        <ele>285.2</ele>
        <time>2022-06-25T17:36:44Z</time>
      </trkpt>
      <trkpt lat="46.10037" lon="4.65667">
        <ele>285</ele>
        <time>2022-06-25T17:36:47Z</time>
      </trkpt>
      <trkpt lat="46.10034" lon="4.6567">
        <ele>284.4</ele>
        <time>2022-06-25T17:36:49Z</time>
      </trkpt>
      <trkpt lat="46.10032" lon="4.65674">
        <ele>283.8</ele>
        <time>2022-06-25T17:36:50Z</time>
      </trkpt>
      <trkpt lat="46.10029" lon="4.6568">
        <ele>283.4</ele>
        <time>2022-06-25T17:36:51Z</time>
      </trkpt>
      <trkpt lat="46.10026" lon="4.65687">
        <ele>282.8</ele>
        <time>2022-06-25T17:36:52Z</time>
      </trkpt>
      <trkpt lat="46.10023" lon="4.65695">
        <ele>282.2</ele>
        <time>2022-06-25T17:36:53Z</time>
      </trkpt>
      <trkpt lat="46.1002" lon="4.65703">
        <ele>281.4</ele>
        <time>2022-06-25T17:36:54Z</time>
      </trkpt>
      <trkpt lat="46.10018" lon="4.65711">
        <ele>280.8</ele>
        <time>2022-06-25T17:36:55Z</time>
      </trkpt>
      <trkpt lat="46.10015" lon="4.65719">
        <ele>280</ele>
        <time>2022-06-25T17:36:56Z</time>
      </trkpt>
      <trkpt lat="46.10012" lon="4.65727">
        <ele>279.2</ele>
        <time>2022-06-25T17:36:57Z</time>
      </trkpt>
      <trkpt lat="46.1001" lon="4.65736">
        <ele>278.6</ele>
        <time>2022-06-25T17:36:58Z</time>
      </trkpt>
      <trkpt lat="46.10007" lon="4.65744">
        <ele>277.8</ele>
        <time>2022-06-25T17:36:59Z</time>
      </trkpt>
      <trkpt lat="46.10004" lon="4.65751">
        <ele>276.8</ele>
        <time>2022-06-25T17:37:00Z</time>
      </trkpt>
      <trkpt lat="46.10001" lon="4.65759">
        <ele>276.2</ele>
        <time>2022-06-25T17:37:01Z</time>
      </trkpt>
      <trkpt lat="46.09997" lon="4.65768">
        <ele>275.2</ele>
        <time>2022-06-25T17:37:02Z</time>
      </trkpt>
      <trkpt lat="46.09993" lon="4.65776">
        <ele>274.2</ele>
        <time>2022-06-25T17:37:03Z</time>
      </trkpt>
      <trkpt lat="46.09989" lon="4.65784">
        <ele>273.2</ele>
        <time>2022-06-25T17:37:04Z</time>
      </trkpt>
      <trkpt lat="46.09985" lon="4.65794">
        <ele>272.2</ele>
        <time>2022-06-25T17:37:05Z</time>
      </trkpt>
      <trkpt lat="46.09982" lon="4.65805">
        <ele>271.2</ele>
        <time>2022-06-25T17:37:06Z</time>
      </trkpt>
      <trkpt lat="46.09979" lon="4.65817">
        <ele>270.4</ele>
        <time>2022-06-25T17:37:07Z</time>
      </trkpt>
      <trkpt lat="46.09977" lon="4.6583">
        <ele>269.4</ele>
        <time>2022-06-25T17:37:08Z</time>
      </trkpt>
      <trkpt lat="46.09975" lon="4.65843">
        <ele>268.6</ele>
        <time>2022-06-25T17:37:09Z</time>
      </trkpt>
      <trkpt lat="46.09974" lon="4.65857">
        <ele>267.8</ele>
        <time>2022-06-25T17:37:10Z</time>
      </trkpt>
      <trkpt lat="46.09972" lon="4.65872">
        <ele>267</ele>
        <time>2022-06-25T17:37:11Z</time>
      </trkpt>
      <trkpt lat="46.09972" lon="4.65885">
        <ele>266.4</ele>
        <time>2022-06-25T17:37:12Z</time>
      </trkpt>
      <trkpt lat="46.09971" lon="4.65898">
        <ele>265.6</ele>
        <time>2022-06-25T17:37:13Z</time>
      </trkpt>
      <trkpt lat="46.0997" lon="4.65912">
        <ele>264.8</ele>
        <time>2022-06-25T17:37:14Z</time>
      </trkpt>
      <trkpt lat="46.09971" lon="4.65926">
        <ele>263.8</ele>
        <time>2022-06-25T17:37:15Z</time>
      </trkpt>
      <trkpt lat="46.09971" lon="4.6594">
        <ele>263.2</ele>
        <time>2022-06-25T17:37:16Z</time>
      </trkpt>
      <trkpt lat="46.09971" lon="4.65955">
        <ele>262.2</ele>
        <time>2022-06-25T17:37:17Z</time>
      </trkpt>
      <trkpt lat="46.09972" lon="4.65969">
        <ele>261.2</ele>
        <time>2022-06-25T17:37:18Z</time>
      </trkpt>
      <trkpt lat="46.09972" lon="4.65983">
        <ele>260.2</ele>
        <time>2022-06-25T17:37:19Z</time>
      </trkpt>
      <trkpt lat="46.09973" lon="4.65997">
        <ele>259</ele>
        <time>2022-06-25T17:37:20Z</time>
      </trkpt>
      <trkpt lat="46.09973" lon="4.66011">
        <ele>258</ele>
        <time>2022-06-25T17:37:21Z</time>
      </trkpt>
      <trkpt lat="46.09973" lon="4.66025">
        <ele>257</ele>
        <time>2022-06-25T17:37:22Z</time>
      </trkpt>
      <trkpt lat="46.09973" lon="4.66038">
        <ele>255.8</ele>
        <time>2022-06-25T17:37:23Z</time>
      </trkpt>
      <trkpt lat="46.09973" lon="4.66051">
        <ele>254.8</ele>
        <time>2022-06-25T17:37:24Z</time>
      </trkpt>
      <trkpt lat="46.09973" lon="4.66063">
        <ele>253.8</ele>
        <time>2022-06-25T17:37:25Z</time>
      </trkpt>
      <trkpt lat="46.09972" lon="4.66075">
        <ele>253.2</ele>
        <time>2022-06-25T17:37:26Z</time>
      </trkpt>
      <trkpt lat="46.09973" lon="4.66086">
        <ele>252.4</ele>
        <time>2022-06-25T17:37:27Z</time>
      </trkpt>
      <trkpt lat="46.09973" lon="4.66097">
        <ele>251.8</ele>
        <time>2022-06-25T17:37:28Z</time>
      </trkpt>
      <trkpt lat="46.09974" lon="4.66108">
        <ele>251</ele>
        <time>2022-06-25T17:37:29Z</time>
      </trkpt>
      <trkpt lat="46.09974" lon="4.66118">
        <ele>250.6</ele>
        <time>2022-06-25T17:37:30Z</time>
      </trkpt>
      <trkpt lat="46.09973" lon="4.66128">
        <ele>250</ele>
        <time>2022-06-25T17:37:31Z</time>
      </trkpt>
      <trkpt lat="46.09972" lon="4.66138">
        <ele>249.6</ele>
        <time>2022-06-25T17:37:32Z</time>
      </trkpt>
      <trkpt lat="46.09971" lon="4.66149">
        <ele>249</ele>
        <time>2022-06-25T17:37:33Z</time>
      </trkpt>
      <trkpt lat="46.09971" lon="4.66161">
        <ele>248.6</ele>
        <time>2022-06-25T17:37:34Z</time>
      </trkpt>
      <trkpt lat="46.09971" lon="4.66172">
        <ele>248.2</ele>
        <time>2022-06-25T17:37:35Z</time>
      </trkpt>
      <trkpt lat="46.09971" lon="4.66184">
        <ele>247.8</ele>
        <time>2022-06-25T17:37:36Z</time>
      </trkpt>
      <trkpt lat="46.0997" lon="4.66196">
        <ele>247.2</ele>
        <time>2022-06-25T17:37:37Z</time>
      </trkpt>
      <trkpt lat="46.0997" lon="4.66206">
        <ele>246.6</ele>
        <time>2022-06-25T17:37:38Z</time>
      </trkpt>
      <trkpt lat="46.09969" lon="4.66216">
        <ele>246.2</ele>
        <time>2022-06-25T17:37:39Z</time>
      </trkpt>
      <trkpt lat="46.09968" lon="4.66226">
        <ele>245.8</ele>
        <time>2022-06-25T17:37:40Z</time>
      </trkpt>
      <trkpt lat="46.09966" lon="4.66234">
        <ele>245.4</ele>
        <time>2022-06-25T17:37:41Z</time>
      </trkpt>
      <trkpt lat="46.09963" lon="4.66242">
        <ele>245</ele>
        <time>2022-06-25T17:37:42Z</time>
      </trkpt>
      <trkpt lat="46.09958" lon="4.66248">
        <ele>244.6</ele>
        <time>2022-06-25T17:37:43Z</time>
      </trkpt>
      <trkpt lat="46.09952" lon="4.66253">
        <ele>244.4</ele>
        <time>2022-06-25T17:37:44Z</time>
      </trkpt>
      <trkpt lat="46.09946" lon="4.66257">
        <ele>244</ele>
        <time>2022-06-25T17:37:45Z</time>
      </trkpt>
      <trkpt lat="46.09939" lon="4.66259">
        <ele>244</ele>
        <time>2022-06-25T17:37:46Z</time>
      </trkpt>
      <trkpt lat="46.09933" lon="4.66262">
        <ele>243.6</ele>
        <time>2022-06-25T17:37:47Z</time>
      </trkpt>
      <trkpt lat="46.09926" lon="4.66263">
        <ele>243.4</ele>
        <time>2022-06-25T17:37:48Z</time>
      </trkpt>
      <trkpt lat="46.0992" lon="4.66265">
        <ele>243.4</ele>
        <time>2022-06-25T17:37:49Z</time>
      </trkpt>
      <trkpt lat="46.09914" lon="4.66267">
        <ele>243</ele>
        <time>2022-06-25T17:37:50Z</time>
      </trkpt>
      <trkpt lat="46.09908" lon="4.66269">
        <ele>242.8</ele>
        <time>2022-06-25T17:37:51Z</time>
      </trkpt>
      <trkpt lat="46.09902" lon="4.66271">
        <ele>242.6</ele>
        <time>2022-06-25T17:37:52Z</time>
      </trkpt>
      <trkpt lat="46.09897" lon="4.66274">
        <ele>242.2</ele>
        <time>2022-06-25T17:37:53Z</time>
      </trkpt>
      <trkpt lat="46.09892" lon="4.66276">
        <ele>242.2</ele>
        <time>2022-06-25T17:37:54Z</time>
      </trkpt>
      <trkpt lat="46.09887" lon="4.66277">
        <ele>242.2</ele>
        <time>2022-06-25T17:37:55Z</time>
      </trkpt>
      <trkpt lat="46.09882" lon="4.66275">
        <ele>242.2</ele>
        <time>2022-06-25T17:37:56Z</time>
      </trkpt>
      <trkpt lat="46.09878" lon="4.66273">
        <ele>242.2</ele>
        <time>2022-06-25T17:37:57Z</time>
      </trkpt>
      <trkpt lat="46.09874" lon="4.66268">
        <ele>242.4</ele>
        <time>2022-06-25T17:37:58Z</time>
      </trkpt>
      <trkpt lat="46.0987" lon="4.66263">
        <ele>242.4</ele>
        <time>2022-06-25T17:37:59Z</time>
      </trkpt>
      <trkpt lat="46.09866" lon="4.66258">
        <ele>243</ele>
        <time>2022-06-25T17:38:00Z</time>
      </trkpt>
      <trkpt lat="46.09862" lon="4.66254">
        <ele>243.2</ele>
        <time>2022-06-25T17:38:01Z</time>
      </trkpt>
      <trkpt lat="46.09858" lon="4.66249">
        <ele>243.2</ele>
        <time>2022-06-25T17:38:02Z</time>
      </trkpt>
      <trkpt lat="46.09854" lon="4.66244">
        <ele>243.2</ele>
        <time>2022-06-25T17:38:03Z</time>
      </trkpt>
      <trkpt lat="46.09851" lon="4.66239">
        <ele>243.4</ele>
        <time>2022-06-25T17:38:04Z</time>
      </trkpt>
      <trkpt lat="46.09847" lon="4.66234">
        <ele>243.6</ele>
        <time>2022-06-25T17:38:05Z</time>
      </trkpt>
      <trkpt lat="46.09843" lon="4.66229">
        <ele>244</ele>
        <time>2022-06-25T17:38:06Z</time>
      </trkpt>
      <trkpt lat="46.0984" lon="4.66225">
        <ele>244</ele>
        <time>2022-06-25T17:38:07Z</time>
      </trkpt>
      <trkpt lat="46.09836" lon="4.66221">
        <ele>244.2</ele>
        <time>2022-06-25T17:38:08Z</time>
      </trkpt>
      <trkpt lat="46.09833" lon="4.66217">
        <ele>244.4</ele>
        <time>2022-06-25T17:38:09Z</time>
      </trkpt>
      <trkpt lat="46.0983" lon="4.66212">
        <ele>244.4</ele>
        <time>2022-06-25T17:38:10Z</time>
      </trkpt>
      <trkpt lat="46.09826" lon="4.66208">
        <ele>245</ele>
        <time>2022-06-25T17:38:11Z</time>
      </trkpt>
      <trkpt lat="46.09823" lon="4.66205">
        <ele>245.2</ele>
        <time>2022-06-25T17:38:12Z</time>
      </trkpt>
      <trkpt lat="46.0982" lon="4.66202">
        <ele>245.4</ele>
        <time>2022-06-25T17:38:13Z</time>
      </trkpt>
      <trkpt lat="46.09816" lon="4.66199">
        <ele>245.8</ele>
        <time>2022-06-25T17:38:14Z</time>
      </trkpt>
      <trkpt lat="46.09812" lon="4.66197">
        <ele>246</ele>
        <time>2022-06-25T17:38:15Z</time>
      </trkpt>
      <trkpt lat="46.09808" lon="4.66195">
        <ele>246</ele>
        <time>2022-06-25T17:38:16Z</time>
      </trkpt>
      <trkpt lat="46.09804" lon="4.66193">
        <ele>246.4</ele>
        <time>2022-06-25T17:38:17Z</time>
      </trkpt>
      <trkpt lat="46.098" lon="4.66191">
        <ele>246.4</ele>
        <time>2022-06-25T17:38:18Z</time>
      </trkpt>
      <trkpt lat="46.09796" lon="4.6619">
        <ele>246.8</ele>
        <time>2022-06-25T17:38:19Z</time>
      </trkpt>
      <trkpt lat="46.09792" lon="4.66188">
        <ele>247</ele>
        <time>2022-06-25T17:38:20Z</time>
      </trkpt>
      <trkpt lat="46.09787" lon="4.66187">
        <ele>247</ele>
        <time>2022-06-25T17:38:21Z</time>
      </trkpt>
      <trkpt lat="46.09783" lon="4.66186">
        <ele>247.4</ele>
        <time>2022-06-25T17:38:22Z</time>
      </trkpt>
      <trkpt lat="46.09779" lon="4.66184">
        <ele>247.8</ele>
        <time>2022-06-25T17:38:23Z</time>
      </trkpt>
      <trkpt lat="46.09775" lon="4.66183">
        <ele>247.8</ele>
        <time>2022-06-25T17:38:24Z</time>
      </trkpt>
      <trkpt lat="46.09771" lon="4.66183">
        <ele>248.2</ele>
        <time>2022-06-25T17:38:25Z</time>
      </trkpt>
      <trkpt lat="46.09766" lon="4.66182">
        <ele>248.4</ele>
        <time>2022-06-25T17:38:26Z</time>
      </trkpt>
      <trkpt lat="46.09763" lon="4.6618">
        <ele>248.6</ele>
        <time>2022-06-25T17:38:27Z</time>
      </trkpt>
      <trkpt lat="46.09759" lon="4.66179">
        <ele>249</ele>
        <time>2022-06-25T17:38:28Z</time>
      </trkpt>
      <trkpt lat="46.09755" lon="4.66178">
        <ele>249.2</ele>
        <time>2022-06-25T17:38:29Z</time>
      </trkpt>
      <trkpt lat="46.09751" lon="4.66177">
        <ele>249.6</ele>
        <time>2022-06-25T17:38:30Z</time>
      </trkpt>
      <trkpt lat="46.09747" lon="4.66176">
        <ele>249.8</ele>
        <time>2022-06-25T17:38:31Z</time>
      </trkpt>
      <trkpt lat="46.09743" lon="4.66174">
        <ele>250.2</ele>
        <time>2022-06-25T17:38:32Z</time>
      </trkpt>
      <trkpt lat="46.09739" lon="4.66173">
        <ele>250.4</ele>
        <time>2022-06-25T17:38:33Z</time>
      </trkpt>
      <trkpt lat="46.09735" lon="4.66171">
        <ele>250.6</ele>
        <time>2022-06-25T17:38:34Z</time>
      </trkpt>
      <trkpt lat="46.09731" lon="4.6617">
        <ele>251</ele>
        <time>2022-06-25T17:38:35Z</time>
      </trkpt>
      <trkpt lat="46.09728" lon="4.66167">
        <ele>251.2</ele>
        <time>2022-06-25T17:38:36Z</time>
      </trkpt>
      <trkpt lat="46.09724" lon="4.66164">
        <ele>251.4</ele>
        <time>2022-06-25T17:38:37Z</time>
      </trkpt>
      <trkpt lat="46.09722" lon="4.6616">
        <ele>251.8</ele>
        <time>2022-06-25T17:38:38Z</time>
      </trkpt>
      <trkpt lat="46.09719" lon="4.66156">
        <ele>252</ele>
        <time>2022-06-25T17:38:39Z</time>
      </trkpt>
      <trkpt lat="46.09717" lon="4.66151">
        <ele>252.4</ele>
        <time>2022-06-25T17:38:40Z</time>
      </trkpt>
      <trkpt lat="46.09716" lon="4.66147">
        <ele>252.6</ele>
        <time>2022-06-25T17:38:41Z</time>
      </trkpt>
      <trkpt lat="46.09715" lon="4.66142">
        <ele>252.8</ele>
        <time>2022-06-25T17:38:42Z</time>
      </trkpt>
      <trkpt lat="46.09715" lon="4.66138">
        <ele>253.2</ele>
        <time>2022-06-25T17:38:43Z</time>
      </trkpt>
      <trkpt lat="46.09715" lon="4.66133">
        <ele>253.2</ele>
        <time>2022-06-25T17:38:44Z</time>
      </trkpt>
      <trkpt lat="46.09715" lon="4.66129">
        <ele>253.4</ele>
        <time>2022-06-25T17:38:45Z</time>
      </trkpt>
      <trkpt lat="46.09715" lon="4.66125">
        <ele>253.8</ele>
        <time>2022-06-25T17:38:46Z</time>
      </trkpt>
      <trkpt lat="46.09715" lon="4.66121">
        <ele>254</ele>
        <time>2022-06-25T17:38:47Z</time>
      </trkpt>
      <trkpt lat="46.09715" lon="4.66118">
        <ele>254.2</ele>
        <time>2022-06-25T17:38:48Z</time>
      </trkpt>
      <trkpt lat="46.09716" lon="4.66115">
        <ele>254.6</ele>
        <time>2022-06-25T17:38:49Z</time>
      </trkpt>
      <trkpt lat="46.09716" lon="4.66112">
        <ele>254.8</ele>
        <time>2022-06-25T17:38:50Z</time>
      </trkpt>
      <trkpt lat="46.09717" lon="4.66109">
        <ele>254.8</ele>
        <time>2022-06-25T17:38:51Z</time>
      </trkpt>
      <trkpt lat="46.09717" lon="4.66106">
        <ele>255.2</ele>
        <time>2022-06-25T17:38:52Z</time>
      </trkpt>
      <trkpt lat="46.09717" lon="4.66103">
        <ele>255.2</ele>
        <time>2022-06-25T17:38:53Z</time>
      </trkpt>
      <trkpt lat="46.09717" lon="4.661">
        <ele>255.4</ele>
        <time>2022-06-25T17:38:54Z</time>
      </trkpt>
      <trkpt lat="46.09716" lon="4.66098">
        <ele>255.4</ele>
        <time>2022-06-25T17:38:55Z</time>
      </trkpt>
      <trkpt lat="46.09715" lon="4.66097">
        <ele>255.6</ele>
        <time>2022-06-25T17:38:56Z</time>
      </trkpt>
      <trkpt lat="46.09714" lon="4.66098">
        <ele>255.6</ele>
        <time>2022-06-25T17:38:57Z</time>
      </trkpt>
      <trkpt lat="46.09714" lon="4.66099">
        <ele>256</ele>
        <time>2022-06-25T17:38:58Z</time>
      </trkpt>
      <trkpt lat="46.09714" lon="4.661">
        <ele>256</ele>
        <time>2022-06-25T17:38:59Z</time>
      </trkpt>
      <trkpt lat="46.09713" lon="4.66105">
        <ele>256.2</ele>
        <time>2022-06-25T17:39:14Z</time>
      </trkpt>
      <trkpt lat="46.09713" lon="4.66109">
        <ele>256</ele>
        <time>2022-06-25T17:39:15Z</time>
      </trkpt>
      <trkpt lat="46.09713" lon="4.66113">
        <ele>256</ele>
        <time>2022-06-25T17:39:16Z</time>
      </trkpt>
      <trkpt lat="46.09712" lon="4.66118">
        <ele>255.8</ele>
        <time>2022-06-25T17:39:17Z</time>
      </trkpt>
      <trkpt lat="46.09712" lon="4.66123">
        <ele>255.8</ele>
        <time>2022-06-25T17:39:18Z</time>
      </trkpt>
      <trkpt lat="46.09712" lon="4.66128">
        <ele>255.2</ele>
        <time>2022-06-25T17:39:19Z</time>
      </trkpt>
      <trkpt lat="46.09712" lon="4.66133">
        <ele>255.2</ele>
        <time>2022-06-25T17:39:20Z</time>
      </trkpt>
      <trkpt lat="46.09712" lon="4.66138">
        <ele>255</ele>
        <time>2022-06-25T17:39:21Z</time>
      </trkpt>
      <trkpt lat="46.09713" lon="4.66143">
        <ele>255</ele>
        <time>2022-06-25T17:39:22Z</time>
      </trkpt>
      <trkpt lat="46.09714" lon="4.66148">
        <ele>254.6</ele>
        <time>2022-06-25T17:39:23Z</time>
      </trkpt>
      <trkpt lat="46.09716" lon="4.66153">
        <ele>254.6</ele>
        <time>2022-06-25T17:39:24Z</time>
      </trkpt>
      <trkpt lat="46.09718" lon="4.66157">
        <ele>254.2</ele>
        <time>2022-06-25T17:39:25Z</time>
      </trkpt>
      <trkpt lat="46.09721" lon="4.66161">
        <ele>254</ele>
        <time>2022-06-25T17:39:26Z</time>
      </trkpt>
      <trkpt lat="46.09723" lon="4.66164">
        <ele>253.8</ele>
        <time>2022-06-25T17:39:27Z</time>
      </trkpt>
      <trkpt lat="46.09725" lon="4.66167">
        <ele>253.8</ele>
        <time>2022-06-25T17:39:28Z</time>
      </trkpt>
      <trkpt lat="46.09728" lon="4.66169">
        <ele>253.4</ele>
        <time>2022-06-25T17:39:29Z</time>
      </trkpt>
      <trkpt lat="46.0973" lon="4.66171">
        <ele>253.2</ele>
        <time>2022-06-25T17:39:30Z</time>
      </trkpt>
      <trkpt lat="46.09733" lon="4.66173">
        <ele>253.2</ele>
        <time>2022-06-25T17:39:31Z</time>
      </trkpt>
      <trkpt lat="46.09735" lon="4.66174">
        <ele>253</ele>
        <time>2022-06-25T17:39:32Z</time>
      </trkpt>
      <trkpt lat="46.09738" lon="4.66176">
        <ele>252.8</ele>
        <time>2022-06-25T17:39:33Z</time>
      </trkpt>
      <trkpt lat="46.09741" lon="4.66177">
        <ele>252.4</ele>
        <time>2022-06-25T17:39:34Z</time>
      </trkpt>
      <trkpt lat="46.09743" lon="4.66177">
        <ele>252.2</ele>
        <time>2022-06-25T17:39:35Z</time>
      </trkpt>
      <trkpt lat="46.09744" lon="4.66177">
        <ele>251.8</ele>
        <time>2022-06-25T17:39:36Z</time>
      </trkpt>
      <trkpt lat="46.09744" lon="4.66175">
        <ele>251.6</ele>
        <time>2022-06-25T17:39:37Z</time>
      </trkpt>
      <trkpt lat="46.09742" lon="4.66174">
        <ele>251.6</ele>
        <time>2022-06-25T17:39:38Z</time>
      </trkpt>
      <trkpt lat="46.09741" lon="4.66173">
        <ele>251.4</ele>
        <time>2022-06-25T17:39:39Z</time>
      </trkpt>
      <trkpt lat="46.09739" lon="4.66172">
        <ele>251.4</ele>
        <time>2022-06-25T17:39:40Z</time>
      </trkpt>
      <trkpt lat="46.09737" lon="4.66171">
        <ele>251.4</ele>
        <time>2022-06-25T17:39:41Z</time>
      </trkpt>
      <trkpt lat="46.09735" lon="4.6617">
        <ele>251.4</ele>
        <time>2022-06-25T17:39:42Z</time>
      </trkpt>
      <trkpt lat="46.09732" lon="4.66169">
        <ele>251.4</ele>
        <time>2022-06-25T17:39:43Z</time>
      </trkpt>
      <trkpt lat="46.0973" lon="4.66167">
        <ele>251.6</ele>
        <time>2022-06-25T17:39:44Z</time>
      </trkpt>
      <trkpt lat="46.09727" lon="4.66164">
        <ele>251.6</ele>
        <time>2022-06-25T17:39:45Z</time>
      </trkpt>
      <trkpt lat="46.09725" lon="4.66161">
        <ele>251.8</ele>
        <time>2022-06-25T17:39:46Z</time>
      </trkpt>
      <trkpt lat="46.09723" lon="4.66158">
        <ele>251.8</ele>
        <time>2022-06-25T17:39:47Z</time>
      </trkpt>
      <trkpt lat="46.09721" lon="4.66155">
        <ele>252.2</ele>
        <time>2022-06-25T17:39:48Z</time>
      </trkpt>
      <trkpt lat="46.09719" lon="4.66151">
        <ele>252.4</ele>
        <time>2022-06-25T17:39:49Z</time>
      </trkpt>
      <trkpt lat="46.09718" lon="4.66148">
        <ele>252.8</ele>
        <time>2022-06-25T17:39:50Z</time>
      </trkpt>
      <trkpt lat="46.09717" lon="4.66144">
        <ele>253</ele>
        <time>2022-06-25T17:39:51Z</time>
      </trkpt>
      <trkpt lat="46.09716" lon="4.6614">
        <ele>253.4</ele>
        <time>2022-06-25T17:39:52Z</time>
      </trkpt>
      <trkpt lat="46.09716" lon="4.66137">
        <ele>253.4</ele>
        <time>2022-06-25T17:39:53Z</time>
      </trkpt>
      <trkpt lat="46.09715" lon="4.66133">
        <ele>253.8</ele>
        <time>2022-06-25T17:39:54Z</time>
      </trkpt>
      <trkpt lat="46.09715" lon="4.66129">
        <ele>254</ele>
        <time>2022-06-25T17:39:55Z</time>
      </trkpt>
      <trkpt lat="46.09715" lon="4.66126">
        <ele>254.4</ele>
        <time>2022-06-25T17:39:56Z</time>
      </trkpt>
      <trkpt lat="46.09716" lon="4.66122">
        <ele>254.4</ele>
        <time>2022-06-25T17:39:57Z</time>
      </trkpt>
      <trkpt lat="46.09716" lon="4.66118">
        <ele>254.8</ele>
        <time>2022-06-25T17:39:58Z</time>
      </trkpt>
      <trkpt lat="46.09716" lon="4.66114">
        <ele>255</ele>
        <time>2022-06-25T17:39:59Z</time>
      </trkpt>
      <trkpt lat="46.09717" lon="4.66111">
        <ele>255</ele>
        <time>2022-06-25T17:40:00Z</time>
      </trkpt>
      <trkpt lat="46.09717" lon="4.66107">
        <ele>255.4</ele>
        <time>2022-06-25T17:40:01Z</time>
      </trkpt>
      <trkpt lat="46.09718" lon="4.66105">
        <ele>255.6</ele>
        <time>2022-06-25T17:40:02Z</time>
      </trkpt>
      <trkpt lat="46.09718" lon="4.66102">
        <ele>255.6</ele>
        <time>2022-06-25T17:40:03Z</time>
      </trkpt>
      <trkpt lat="46.09718" lon="4.66099">
        <ele>256</ele>
        <time>2022-06-25T17:40:04Z</time>
      </trkpt>
      <trkpt lat="46.09719" lon="4.66096">
        <ele>256.2</ele>
        <time>2022-06-25T17:40:05Z</time>
      </trkpt>
      <trkpt lat="46.09719" lon="4.66092">
        <ele>256.6</ele>
        <time>2022-06-25T17:40:06Z</time>
      </trkpt>
      <trkpt lat="46.09719" lon="4.66089">
        <ele>256.8</ele>
        <time>2022-06-25T17:40:07Z</time>
      </trkpt>
      <trkpt lat="46.0972" lon="4.66085">
        <ele>256.8</ele>
        <time>2022-06-25T17:40:08Z</time>
      </trkpt>
      <trkpt lat="46.0972" lon="4.66082">
        <ele>256.8</ele>
        <time>2022-06-25T17:40:09Z</time>
      </trkpt>
      <trkpt lat="46.09721" lon="4.6608">
        <ele>257.2</ele>
        <time>2022-06-25T17:40:10Z</time>
      </trkpt>
      <trkpt lat="46.09721" lon="4.66077">
        <ele>257.2</ele>
        <time>2022-06-25T17:40:11Z</time>
      </trkpt>
      <trkpt lat="46.09721" lon="4.66074">
        <ele>257.4</ele>
        <time>2022-06-25T17:40:12Z</time>
      </trkpt>
      <trkpt lat="46.09721" lon="4.6607">
        <ele>257.6</ele>
        <time>2022-06-25T17:40:13Z</time>
      </trkpt>
      <trkpt lat="46.09722" lon="4.66067">
        <ele>257.6</ele>
        <time>2022-06-25T17:40:14Z</time>
      </trkpt>
      <trkpt lat="46.09722" lon="4.66063">
        <ele>258</ele>
        <time>2022-06-25T17:40:15Z</time>
      </trkpt>
      <trkpt lat="46.09723" lon="4.66059">
        <ele>258</ele>
        <time>2022-06-25T17:40:16Z</time>
      </trkpt>
      <trkpt lat="46.09723" lon="4.66054">
        <ele>258.4</ele>
        <time>2022-06-25T17:40:17Z</time>
      </trkpt>
      <trkpt lat="46.09724" lon="4.6605">
        <ele>258.8</ele>
        <time>2022-06-25T17:40:18Z</time>
      </trkpt>
      <trkpt lat="46.09724" lon="4.66045">
        <ele>259.2</ele>
        <time>2022-06-25T17:40:19Z</time>
      </trkpt>
      <trkpt lat="46.09724" lon="4.66041">
        <ele>259.2</ele>
        <time>2022-06-25T17:40:20Z</time>
      </trkpt>
      <trkpt lat="46.09724" lon="4.66036">
        <ele>259.4</ele>
        <time>2022-06-25T17:40:21Z</time>
      </trkpt>
      <trkpt lat="46.09724" lon="4.66031">
        <ele>259.4</ele>
        <time>2022-06-25T17:40:22Z</time>
      </trkpt>
      <trkpt lat="46.09723" lon="4.66026">
        <ele>259.8</ele>
        <time>2022-06-25T17:40:23Z</time>
      </trkpt>
      <trkpt lat="46.09723" lon="4.66021">
        <ele>259.8</ele>
        <time>2022-06-25T17:40:24Z</time>
      </trkpt>
      <trkpt lat="46.09723" lon="4.66016">
        <ele>260.2</ele>
        <time>2022-06-25T17:40:25Z</time>
      </trkpt>
      <trkpt lat="46.09723" lon="4.6601">
        <ele>260.4</ele>
        <time>2022-06-25T17:40:26Z</time>
      </trkpt>
      <trkpt lat="46.09722" lon="4.66005">
        <ele>260.6</ele>
        <time>2022-06-25T17:40:27Z</time>
      </trkpt>
      <trkpt lat="46.09722" lon="4.66">
        <ele>260.8</ele>
        <time>2022-06-25T17:40:28Z</time>
      </trkpt>
      <trkpt lat="46.09722" lon="4.65994">
        <ele>260.8</ele>
        <time>2022-06-25T17:40:29Z</time>
      </trkpt>
      <trkpt lat="46.09722" lon="4.65989">
        <ele>261.2</ele>
        <time>2022-06-25T17:40:30Z</time>
      </trkpt>
      <trkpt lat="46.09721" lon="4.65984">
        <ele>261.4</ele>
        <time>2022-06-25T17:40:31Z</time>
      </trkpt>
      <trkpt lat="46.09721" lon="4.65979">
        <ele>261.6</ele>
        <time>2022-06-25T17:40:32Z</time>
      </trkpt>
      <trkpt lat="46.0972" lon="4.65974">
        <ele>261.6</ele>
        <time>2022-06-25T17:40:33Z</time>
      </trkpt>
      <trkpt lat="46.09719" lon="4.65969">
        <ele>262.2</ele>
        <time>2022-06-25T17:40:34Z</time>
      </trkpt>
      <trkpt lat="46.09719" lon="4.65964">
        <ele>262.2</ele>
        <time>2022-06-25T17:40:35Z</time>
      </trkpt>
      <trkpt lat="46.09719" lon="4.6596">
        <ele>262.4</ele>
        <time>2022-06-25T17:40:36Z</time>
      </trkpt>
      <trkpt lat="46.09718" lon="4.65955">
        <ele>262.4</ele>
        <time>2022-06-25T17:40:37Z</time>
      </trkpt>
      <trkpt lat="46.09718" lon="4.6595">
        <ele>263</ele>
        <time>2022-06-25T17:40:38Z</time>
      </trkpt>
      <trkpt lat="46.09717" lon="4.65945">
        <ele>263.4</ele>
        <time>2022-06-25T17:40:39Z</time>
      </trkpt>
      <trkpt lat="46.09717" lon="4.65941">
        <ele>263.8</ele>
        <time>2022-06-25T17:40:40Z</time>
      </trkpt>
      <trkpt lat="46.09716" lon="4.65937">
        <ele>263.8</ele>
        <time>2022-06-25T17:40:41Z</time>
      </trkpt>
      <trkpt lat="46.09716" lon="4.65933">
        <ele>264</ele>
        <time>2022-06-25T17:40:42Z</time>
      </trkpt>
      <trkpt lat="46.09716" lon="4.65928">
        <ele>264</ele>
        <time>2022-06-25T17:40:43Z</time>
      </trkpt>
      <trkpt lat="46.09716" lon="4.65924">
        <ele>264.4</ele>
        <time>2022-06-25T17:40:44Z</time>
      </trkpt>
      <trkpt lat="46.09715" lon="4.6592">
        <ele>264.6</ele>
        <time>2022-06-25T17:40:45Z</time>
      </trkpt>
      <trkpt lat="46.09715" lon="4.65915">
        <ele>264.6</ele>
        <time>2022-06-25T17:40:46Z</time>
      </trkpt>
      <trkpt lat="46.09714" lon="4.65911">
        <ele>265</ele>
        <time>2022-06-25T17:40:47Z</time>
      </trkpt>
      <trkpt lat="46.09714" lon="4.65907">
        <ele>265.2</ele>
        <time>2022-06-25T17:40:48Z</time>
      </trkpt>
      <trkpt lat="46.09714" lon="4.65902">
        <ele>265.2</ele>
        <time>2022-06-25T17:40:49Z</time>
      </trkpt>
      <trkpt lat="46.09713" lon="4.65898">
        <ele>265.4</ele>
        <time>2022-06-25T17:40:50Z</time>
      </trkpt>
      <trkpt lat="46.09713" lon="4.65893">
        <ele>265.6</ele>
        <time>2022-06-25T17:40:51Z</time>
      </trkpt>
      <trkpt lat="46.09713" lon="4.65889">
        <ele>266</ele>
        <time>2022-06-25T17:40:52Z</time>
      </trkpt>
      <trkpt lat="46.09713" lon="4.65885">
        <ele>266.2</ele>
        <time>2022-06-25T17:40:53Z</time>
      </trkpt>
      <trkpt lat="46.09713" lon="4.65881">
        <ele>266.4</ele>
        <time>2022-06-25T17:40:54Z</time>
      </trkpt>
      <trkpt lat="46.09713" lon="4.65877">
        <ele>266.8</ele>
        <time>2022-06-25T17:40:55Z</time>
      </trkpt>
      <trkpt lat="46.09713" lon="4.65873">
        <ele>266.8</ele>
        <time>2022-06-25T17:40:56Z</time>
      </trkpt>
      <trkpt lat="46.09712" lon="4.65869">
        <ele>266.8</ele>
        <time>2022-06-25T17:40:57Z</time>
      </trkpt>
      <trkpt lat="46.09712" lon="4.65865">
        <ele>267</ele>
        <time>2022-06-25T17:40:58Z</time>
      </trkpt>
      <trkpt lat="46.09712" lon="4.6586">
        <ele>267</ele>
        <time>2022-06-25T17:40:59Z</time>
      </trkpt>
      <trkpt lat="46.09712" lon="4.65856">
        <ele>267.2</ele>
        <time>2022-06-25T17:41:00Z</time>
      </trkpt>
      <trkpt lat="46.09712" lon="4.65852">
        <ele>267.2</ele>
        <time>2022-06-25T17:41:01Z</time>
      </trkpt>
      <trkpt lat="46.09712" lon="4.65847">
        <ele>267.6</ele>
        <time>2022-06-25T17:41:02Z</time>
      </trkpt>
      <trkpt lat="46.09712" lon="4.65843">
        <ele>267.8</ele>
        <time>2022-06-25T17:41:03Z</time>
      </trkpt>
      <trkpt lat="46.09712" lon="4.65839">
        <ele>268</ele>
        <time>2022-06-25T17:41:04Z</time>
      </trkpt>
      <trkpt lat="46.09712" lon="4.65834">
        <ele>268.6</ele>
        <time>2022-06-25T17:41:05Z</time>
      </trkpt>
      <trkpt lat="46.09712" lon="4.6583">
        <ele>268.8</ele>
        <time>2022-06-25T17:41:06Z</time>
      </trkpt>
      <trkpt lat="46.09712" lon="4.65825">
        <ele>268.8</ele>
        <time>2022-06-25T17:41:07Z</time>
      </trkpt>
      <trkpt lat="46.09712" lon="4.65821">
        <ele>268.8</ele>
        <time>2022-06-25T17:41:08Z</time>
      </trkpt>
      <trkpt lat="46.09712" lon="4.65816">
        <ele>268.8</ele>
        <time>2022-06-25T17:41:09Z</time>
      </trkpt>
      <trkpt lat="46.09712" lon="4.65812">
        <ele>269.2</ele>
        <time>2022-06-25T17:41:10Z</time>
      </trkpt>
      <trkpt lat="46.09712" lon="4.65807">
        <ele>269.2</ele>
        <time>2022-06-25T17:41:11Z</time>
      </trkpt>
      <trkpt lat="46.09712" lon="4.65803">
        <ele>269.4</ele>
        <time>2022-06-25T17:41:13Z</time>
      </trkpt>
      <trkpt lat="46.09712" lon="4.65798">
        <ele>269.4</ele>
        <time>2022-06-25T17:41:14Z</time>
      </trkpt>
      <trkpt lat="46.09712" lon="4.65793">
        <ele>269.4</ele>
        <time>2022-06-25T17:41:15Z</time>
      </trkpt>
      <trkpt lat="46.09711" lon="4.65789">
        <ele>269.8</ele>
        <time>2022-06-25T17:41:16Z</time>
      </trkpt>
      <trkpt lat="46.09711" lon="4.65784">
        <ele>269.8</ele>
        <time>2022-06-25T17:41:17Z</time>
      </trkpt>
      <trkpt lat="46.09711" lon="4.65779">
        <ele>270.4</ele>
        <time>2022-06-25T17:41:18Z</time>
      </trkpt>
      <trkpt lat="46.09711" lon="4.65775">
        <ele>270.6</ele>
        <time>2022-06-25T17:41:19Z</time>
      </trkpt>
      <trkpt lat="46.09711" lon="4.65771">
        <ele>270.8</ele>
        <time>2022-06-25T17:41:20Z</time>
      </trkpt>
      <trkpt lat="46.09711" lon="4.65766">
        <ele>270.8</ele>
        <time>2022-06-25T17:41:21Z</time>
      </trkpt>
      <trkpt lat="46.09711" lon="4.65762">
        <ele>271.2</ele>
        <time>2022-06-25T17:41:22Z</time>
      </trkpt>
      <trkpt lat="46.09711" lon="4.65757">
        <ele>271.2</ele>
        <time>2022-06-25T17:41:23Z</time>
      </trkpt>
      <trkpt lat="46.09711" lon="4.65753">
        <ele>271.2</ele>
        <time>2022-06-25T17:41:24Z</time>
      </trkpt>
      <trkpt lat="46.09711" lon="4.65748">
        <ele>271.6</ele>
        <time>2022-06-25T17:41:25Z</time>
      </trkpt>
      <trkpt lat="46.09711" lon="4.65743">
        <ele>271.6</ele>
        <time>2022-06-25T17:41:26Z</time>
      </trkpt>
      <trkpt lat="46.09711" lon="4.65739">
        <ele>272</ele>
        <time>2022-06-25T17:41:27Z</time>
      </trkpt>
      <trkpt lat="46.09711" lon="4.65734">
        <ele>272</ele>
        <time>2022-06-25T17:41:28Z</time>
      </trkpt>
      <trkpt lat="46.09711" lon="4.65729">
        <ele>272</ele>
        <time>2022-06-25T17:41:29Z</time>
      </trkpt>
      <trkpt lat="46.09711" lon="4.65724">
        <ele>272.2</ele>
        <time>2022-06-25T17:41:30Z</time>
      </trkpt>
      <trkpt lat="46.09711" lon="4.65719">
        <ele>272.2</ele>
        <time>2022-06-25T17:41:31Z</time>
      </trkpt>
      <trkpt lat="46.09711" lon="4.65714">
        <ele>272.4</ele>
        <time>2022-06-25T17:41:32Z</time>
      </trkpt>
      <trkpt lat="46.09711" lon="4.65709">
        <ele>272.4</ele>
        <time>2022-06-25T17:41:33Z</time>
      </trkpt>
      <trkpt lat="46.09711" lon="4.65704">
        <ele>272.4</ele>
        <time>2022-06-25T17:41:34Z</time>
      </trkpt>
      <trkpt lat="46.09711" lon="4.65699">
        <ele>272.4</ele>
        <time>2022-06-25T17:41:35Z</time>
      </trkpt>
      <trkpt lat="46.09711" lon="4.65694">
        <ele>272.8</ele>
        <time>2022-06-25T17:41:36Z</time>
      </trkpt>
      <trkpt lat="46.09711" lon="4.65689">
        <ele>272.8</ele>
        <time>2022-06-25T17:41:37Z</time>
      </trkpt>
      <trkpt lat="46.09711" lon="4.65684">
        <ele>273</ele>
        <time>2022-06-25T17:41:38Z</time>
      </trkpt>
      <trkpt lat="46.09711" lon="4.65679">
        <ele>273</ele>
        <time>2022-06-25T17:41:39Z</time>
      </trkpt>
      <trkpt lat="46.09711" lon="4.65674">
        <ele>273.2</ele>
        <time>2022-06-25T17:41:40Z</time>
      </trkpt>
      <trkpt lat="46.09711" lon="4.65669">
        <ele>273.6</ele>
        <time>2022-06-25T17:41:41Z</time>
      </trkpt>
      <trkpt lat="46.09711" lon="4.65665">
        <ele>273.6</ele>
        <time>2022-06-25T17:41:42Z</time>
      </trkpt>
      <trkpt lat="46.09711" lon="4.6566">
        <ele>273.8</ele>
        <time>2022-06-25T17:41:43Z</time>
      </trkpt>
      <trkpt lat="46.09711" lon="4.65655">
        <ele>273.8</ele>
        <time>2022-06-25T17:41:44Z</time>
      </trkpt>
      <trkpt lat="46.09711" lon="4.6565">
        <ele>274.2</ele>
        <time>2022-06-25T17:41:45Z</time>
      </trkpt>
      <trkpt lat="46.09711" lon="4.65646">
        <ele>274.2</ele>
        <time>2022-06-25T17:41:46Z</time>
      </trkpt>
      <trkpt lat="46.09711" lon="4.65641">
        <ele>274.4</ele>
        <time>2022-06-25T17:41:47Z</time>
      </trkpt>
      <trkpt lat="46.09711" lon="4.65636">
        <ele>274.6</ele>
        <time>2022-06-25T17:41:48Z</time>
      </trkpt>
      <trkpt lat="46.09711" lon="4.65631">
        <ele>275</ele>
        <time>2022-06-25T17:41:49Z</time>
      </trkpt>
      <trkpt lat="46.09711" lon="4.65626">
        <ele>275</ele>
        <time>2022-06-25T17:41:50Z</time>
      </trkpt>
      <trkpt lat="46.09711" lon="4.65621">
        <ele>275</ele>
        <time>2022-06-25T17:41:51Z</time>
      </trkpt>
      <trkpt lat="46.09711" lon="4.65617">
        <ele>275.4</ele>
        <time>2022-06-25T17:41:52Z</time>
      </trkpt>
      <trkpt lat="46.0971" lon="4.65612">
        <ele>275.4</ele>
        <time>2022-06-25T17:41:53Z</time>
      </trkpt>
      <trkpt lat="46.0971" lon="4.65607">
        <ele>275.6</ele>
        <time>2022-06-25T17:41:54Z</time>
      </trkpt>
      <trkpt lat="46.09709" lon="4.65603">
        <ele>275.6</ele>
        <time>2022-06-25T17:41:55Z</time>
      </trkpt>
      <trkpt lat="46.09709" lon="4.65598">
        <ele>276</ele>
        <time>2022-06-25T17:41:56Z</time>
      </trkpt>
      <trkpt lat="46.09709" lon="4.65594">
        <ele>276</ele>
        <time>2022-06-25T17:41:57Z</time>
      </trkpt>
      <trkpt lat="46.09708" lon="4.65589">
        <ele>276.4</ele>
        <time>2022-06-25T17:41:58Z</time>
      </trkpt>
      <trkpt lat="46.09708" lon="4.65585">
        <ele>276.4</ele>
        <time>2022-06-25T17:41:59Z</time>
      </trkpt>
      <trkpt lat="46.09707" lon="4.6558">
        <ele>276.8</ele>
        <time>2022-06-25T17:42:00Z</time>
      </trkpt>
      <trkpt lat="46.09707" lon="4.65576">
        <ele>277.2</ele>
        <time>2022-06-25T17:42:01Z</time>
      </trkpt>
      <trkpt lat="46.09706" lon="4.65572">
        <ele>277.4</ele>
        <time>2022-06-25T17:42:02Z</time>
      </trkpt>
      <trkpt lat="46.09705" lon="4.65567">
        <ele>277.4</ele>
        <time>2022-06-25T17:42:03Z</time>
      </trkpt>
      <trkpt lat="46.09704" lon="4.65563">
        <ele>277.8</ele>
        <time>2022-06-25T17:42:04Z</time>
      </trkpt>
      <trkpt lat="46.09703" lon="4.65558">
        <ele>277.8</ele>
        <time>2022-06-25T17:42:05Z</time>
      </trkpt>
      <trkpt lat="46.09702" lon="4.65554">
        <ele>278.2</ele>
        <time>2022-06-25T17:42:06Z</time>
      </trkpt>
      <trkpt lat="46.09701" lon="4.65549">
        <ele>278.2</ele>
        <time>2022-06-25T17:42:07Z</time>
      </trkpt>
      <trkpt lat="46.097" lon="4.65545">
        <ele>278.4</ele>
        <time>2022-06-25T17:42:08Z</time>
      </trkpt>
      <trkpt lat="46.09699" lon="4.6554">
        <ele>278.4</ele>
        <time>2022-06-25T17:42:09Z</time>
      </trkpt>
      <trkpt lat="46.09698" lon="4.65536">
        <ele>278.8</ele>
        <time>2022-06-25T17:42:10Z</time>
      </trkpt>
      <trkpt lat="46.09698" lon="4.65532">
        <ele>278.8</ele>
        <time>2022-06-25T17:42:11Z</time>
      </trkpt>
      <trkpt lat="46.09697" lon="4.65527">
        <ele>279.2</ele>
        <time>2022-06-25T17:42:12Z</time>
      </trkpt>
      <trkpt lat="46.09696" lon="4.65523">
        <ele>279.2</ele>
        <time>2022-06-25T17:42:13Z</time>
      </trkpt>
      <trkpt lat="46.09695" lon="4.65519">
        <ele>279.6</ele>
        <time>2022-06-25T17:42:14Z</time>
      </trkpt>
      <trkpt lat="46.09694" lon="4.65515">
        <ele>279.6</ele>
        <time>2022-06-25T17:42:15Z</time>
      </trkpt>
      <trkpt lat="46.09693" lon="4.6551">
        <ele>280</ele>
        <time>2022-06-25T17:42:16Z</time>
      </trkpt>
      <trkpt lat="46.09692" lon="4.65506">
        <ele>280.2</ele>
        <time>2022-06-25T17:42:17Z</time>
      </trkpt>
      <trkpt lat="46.09691" lon="4.65502">
        <ele>280.2</ele>
        <time>2022-06-25T17:42:18Z</time>
      </trkpt>
      <trkpt lat="46.0969" lon="4.65498">
        <ele>280.6</ele>
        <time>2022-06-25T17:42:19Z</time>
      </trkpt>
      <trkpt lat="46.09689" lon="4.65494">
        <ele>280.6</ele>
        <time>2022-06-25T17:42:20Z</time>
      </trkpt>
      <trkpt lat="46.09688" lon="4.6549">
        <ele>280.8</ele>
        <time>2022-06-25T17:42:21Z</time>
      </trkpt>
      <trkpt lat="46.09686" lon="4.65485">
        <ele>280.8</ele>
        <time>2022-06-25T17:42:22Z</time>
      </trkpt>
      <trkpt lat="46.09685" lon="4.65481">
        <ele>281.2</ele>
        <time>2022-06-25T17:42:23Z</time>
      </trkpt>
      <trkpt lat="46.09683" lon="4.65477">
        <ele>281.2</ele>
        <time>2022-06-25T17:42:24Z</time>
      </trkpt>
      <trkpt lat="46.09681" lon="4.65473">
        <ele>281.6</ele>
        <time>2022-06-25T17:42:25Z</time>
      </trkpt>
      <trkpt lat="46.09679" lon="4.65469">
        <ele>281.8</ele>
        <time>2022-06-25T17:42:26Z</time>
      </trkpt>
      <trkpt lat="46.09678" lon="4.65465">
        <ele>282</ele>
        <time>2022-06-25T17:42:27Z</time>
      </trkpt>
      <trkpt lat="46.09676" lon="4.65461">
        <ele>282.4</ele>
        <time>2022-06-25T17:42:28Z</time>
      </trkpt>
      <trkpt lat="46.09674" lon="4.65457">
        <ele>282.6</ele>
        <time>2022-06-25T17:42:29Z</time>
      </trkpt>
      <trkpt lat="46.09672" lon="4.65453">
        <ele>282.6</ele>
        <time>2022-06-25T17:42:30Z</time>
      </trkpt>
      <trkpt lat="46.09669" lon="4.65448">
        <ele>282.8</ele>
        <time>2022-06-25T17:42:31Z</time>
      </trkpt>
      <trkpt lat="46.09667" lon="4.65444">
        <ele>283.2</ele>
        <time>2022-06-25T17:42:32Z</time>
      </trkpt>
      <trkpt lat="46.09665" lon="4.6544">
        <ele>283.4</ele>
        <time>2022-06-25T17:42:33Z</time>
      </trkpt>
      <trkpt lat="46.09663" lon="4.65435">
        <ele>283.4</ele>
        <time>2022-06-25T17:42:34Z</time>
      </trkpt>
      <trkpt lat="46.09661" lon="4.65431">
        <ele>283.6</ele>
        <time>2022-06-25T17:42:35Z</time>
      </trkpt>
      <trkpt lat="46.09658" lon="4.65427">
        <ele>283.6</ele>
        <time>2022-06-25T17:42:36Z</time>
      </trkpt>
      <trkpt lat="46.09656" lon="4.65423">
        <ele>284</ele>
        <time>2022-06-25T17:42:37Z</time>
      </trkpt>
      <trkpt lat="46.09654" lon="4.65418">
        <ele>284</ele>
        <time>2022-06-25T17:42:38Z</time>
      </trkpt>
      <trkpt lat="46.09652" lon="4.65414">
        <ele>284</ele>
        <time>2022-06-25T17:42:39Z</time>
      </trkpt>
      <trkpt lat="46.09649" lon="4.6541">
        <ele>284.2</ele>
        <time>2022-06-25T17:42:40Z</time>
      </trkpt>
      <trkpt lat="46.09647" lon="4.65406">
        <ele>284.2</ele>
        <time>2022-06-25T17:42:41Z</time>
      </trkpt>
      <trkpt lat="46.09645" lon="4.65402">
        <ele>284.2</ele>
        <time>2022-06-25T17:42:42Z</time>
      </trkpt>
      <trkpt lat="46.09642" lon="4.65398">
        <ele>284.6</ele>
        <time>2022-06-25T17:42:43Z</time>
      </trkpt>
      <trkpt lat="46.0964" lon="4.65395">
        <ele>284.6</ele>
        <time>2022-06-25T17:42:44Z</time>
      </trkpt>
      <trkpt lat="46.09637" lon="4.65391">
        <ele>285</ele>
        <time>2022-06-25T17:42:45Z</time>
      </trkpt>
      <trkpt lat="46.09635" lon="4.65387">
        <ele>285</ele>
        <time>2022-06-25T17:42:46Z</time>
      </trkpt>
      <trkpt lat="46.09632" lon="4.65383">
        <ele>285.4</ele>
        <time>2022-06-25T17:42:47Z</time>
      </trkpt>
      <trkpt lat="46.0963" lon="4.6538">
        <ele>285.4</ele>
        <time>2022-06-25T17:42:48Z</time>
      </trkpt>
      <trkpt lat="46.09627" lon="4.65376">
        <ele>285.6</ele>
        <time>2022-06-25T17:42:49Z</time>
      </trkpt>
      <trkpt lat="46.09624" lon="4.65373">
        <ele>285.6</ele>
        <time>2022-06-25T17:42:50Z</time>
      </trkpt>
      <trkpt lat="46.09622" lon="4.6537">
        <ele>285.8</ele>
        <time>2022-06-25T17:42:51Z</time>
      </trkpt>
      <trkpt lat="46.09619" lon="4.65366">
        <ele>285.8</ele>
        <time>2022-06-25T17:42:52Z</time>
      </trkpt>
      <trkpt lat="46.09617" lon="4.65362">
        <ele>286.2</ele>
        <time>2022-06-25T17:42:53Z</time>
      </trkpt>
      <trkpt lat="46.09614" lon="4.65358">
        <ele>286.2</ele>
        <time>2022-06-25T17:42:54Z</time>
      </trkpt>
      <trkpt lat="46.09611" lon="4.65355">
        <ele>286.4</ele>
        <time>2022-06-25T17:42:55Z</time>
      </trkpt>
      <trkpt lat="46.09609" lon="4.65351">
        <ele>286.8</ele>
        <time>2022-06-25T17:42:56Z</time>
      </trkpt>
      <trkpt lat="46.09606" lon="4.65348">
        <ele>286.8</ele>
        <time>2022-06-25T17:42:57Z</time>
      </trkpt>
      <trkpt lat="46.09603" lon="4.65344">
        <ele>287</ele>
        <time>2022-06-25T17:42:58Z</time>
      </trkpt>
      <trkpt lat="46.096" lon="4.65341">
        <ele>287</ele>
        <time>2022-06-25T17:42:59Z</time>
      </trkpt>
      <trkpt lat="46.09598" lon="4.65337">
        <ele>287</ele>
        <time>2022-06-25T17:43:00Z</time>
      </trkpt>
      <trkpt lat="46.09595" lon="4.65334">
        <ele>287</ele>
        <time>2022-06-25T17:43:01Z</time>
      </trkpt>
      <trkpt lat="46.09593" lon="4.65331">
        <ele>287.2</ele>
        <time>2022-06-25T17:43:02Z</time>
      </trkpt>
      <trkpt lat="46.0959" lon="4.65327">
        <ele>287.2</ele>
        <time>2022-06-25T17:43:03Z</time>
      </trkpt>
      <trkpt lat="46.09588" lon="4.65324">
        <ele>287.4</ele>
        <time>2022-06-25T17:43:04Z</time>
      </trkpt>
      <trkpt lat="46.09585" lon="4.65321">
        <ele>287.4</ele>
        <time>2022-06-25T17:43:05Z</time>
      </trkpt>
      <trkpt lat="46.09583" lon="4.65318">
        <ele>287.8</ele>
        <time>2022-06-25T17:43:06Z</time>
      </trkpt>
      <trkpt lat="46.0958" lon="4.65315">
        <ele>287.8</ele>
        <time>2022-06-25T17:43:07Z</time>
      </trkpt>
      <trkpt lat="46.09578" lon="4.65312">
        <ele>288</ele>
        <time>2022-06-25T17:43:08Z</time>
      </trkpt>
      <trkpt lat="46.09576" lon="4.65309">
        <ele>288.4</ele>
        <time>2022-06-25T17:43:09Z</time>
      </trkpt>
      <trkpt lat="46.09573" lon="4.65305">
        <ele>288.6</ele>
        <time>2022-06-25T17:43:10Z</time>
      </trkpt>
      <trkpt lat="46.09571" lon="4.65302">
        <ele>288.6</ele>
        <time>2022-06-25T17:43:11Z</time>
      </trkpt>
      <trkpt lat="46.09565" lon="4.65296">
        <ele>288.8</ele>
        <time>2022-06-25T17:43:12Z</time>
      </trkpt>
      <trkpt lat="46.09563" lon="4.65293">
        <ele>289.2</ele>
        <time>2022-06-25T17:43:13Z</time>
      </trkpt>
      <trkpt lat="46.0956" lon="4.65289">
        <ele>289.4</ele>
        <time>2022-06-25T17:43:14Z</time>
      </trkpt>
      <trkpt lat="46.09557" lon="4.65286">
        <ele>289.8</ele>
        <time>2022-06-25T17:43:15Z</time>
      </trkpt>
      <trkpt lat="46.09555" lon="4.65283">
        <ele>290</ele>
        <time>2022-06-25T17:43:16Z</time>
      </trkpt>
      <trkpt lat="46.09552" lon="4.6528">
        <ele>290.2</ele>
        <time>2022-06-25T17:43:17Z</time>
      </trkpt>
      <trkpt lat="46.09549" lon="4.65277">
        <ele>290.4</ele>
        <time>2022-06-25T17:43:18Z</time>
      </trkpt>
      <trkpt lat="46.09546" lon="4.65274">
        <ele>290.8</ele>
        <time>2022-06-25T17:43:19Z</time>
      </trkpt>
      <trkpt lat="46.09543" lon="4.65271">
        <ele>290.8</ele>
        <time>2022-06-25T17:43:20Z</time>
      </trkpt>
      <trkpt lat="46.0954" lon="4.65269">
        <ele>291</ele>
        <time>2022-06-25T17:43:21Z</time>
      </trkpt>
      <trkpt lat="46.09537" lon="4.65266">
        <ele>291</ele>
        <time>2022-06-25T17:43:22Z</time>
      </trkpt>
      <trkpt lat="46.09534" lon="4.65264">
        <ele>291.4</ele>
        <time>2022-06-25T17:43:23Z</time>
      </trkpt>
      <trkpt lat="46.09531" lon="4.65262">
        <ele>291.4</ele>
        <time>2022-06-25T17:43:24Z</time>
      </trkpt>
      <trkpt lat="46.09528" lon="4.65259">
        <ele>291.6</ele>
        <time>2022-06-25T17:43:25Z</time>
      </trkpt>
      <trkpt lat="46.09524" lon="4.65257">
        <ele>291.6</ele>
        <time>2022-06-25T17:43:26Z</time>
      </trkpt>
      <trkpt lat="46.09521" lon="4.65255">
        <ele>291.6</ele>
        <time>2022-06-25T17:43:27Z</time>
      </trkpt>
      <trkpt lat="46.09517" lon="4.65253">
        <ele>292</ele>
        <time>2022-06-25T17:43:28Z</time>
      </trkpt>
      <trkpt lat="46.09513" lon="4.65251">
        <ele>292</ele>
        <time>2022-06-25T17:43:29Z</time>
      </trkpt>
      <trkpt lat="46.09509" lon="4.65249">
        <ele>292</ele>
        <time>2022-06-25T17:43:30Z</time>
      </trkpt>
      <trkpt lat="46.09505" lon="4.65247">
        <ele>292.2</ele>
        <time>2022-06-25T17:43:31Z</time>
      </trkpt>
      <trkpt lat="46.09502" lon="4.65245">
        <ele>292.2</ele>
        <time>2022-06-25T17:43:32Z</time>
      </trkpt>
      <trkpt lat="46.09498" lon="4.65243">
        <ele>292.6</ele>
        <time>2022-06-25T17:43:33Z</time>
      </trkpt>
      <trkpt lat="46.09493" lon="4.65242">
        <ele>292.6</ele>
        <time>2022-06-25T17:43:34Z</time>
      </trkpt>
      <trkpt lat="46.09489" lon="4.6524">
        <ele>292.6</ele>
        <time>2022-06-25T17:43:35Z</time>
      </trkpt>
      <trkpt lat="46.09485" lon="4.65239">
        <ele>292.8</ele>
        <time>2022-06-25T17:43:36Z</time>
      </trkpt>
      <trkpt lat="46.09481" lon="4.65237">
        <ele>292.8</ele>
        <time>2022-06-25T17:43:37Z</time>
      </trkpt>
      <trkpt lat="46.09477" lon="4.65235">
        <ele>293.2</ele>
        <time>2022-06-25T17:43:38Z</time>
      </trkpt>
      <trkpt lat="46.09472" lon="4.65233">
        <ele>293.2</ele>
        <time>2022-06-25T17:43:39Z</time>
      </trkpt>
      <trkpt lat="46.09468" lon="4.65231">
        <ele>293.2</ele>
        <time>2022-06-25T17:43:40Z</time>
      </trkpt>
      <trkpt lat="46.09463" lon="4.65229">
        <ele>293.2</ele>
        <time>2022-06-25T17:43:41Z</time>
      </trkpt>
      <trkpt lat="46.09458" lon="4.65226">
        <ele>293.2</ele>
        <time>2022-06-25T17:43:42Z</time>
      </trkpt>
      <trkpt lat="46.09452" lon="4.65224">
        <ele>293.2</ele>
        <time>2022-06-25T17:43:43Z</time>
      </trkpt>
      <trkpt lat="46.09447" lon="4.65221">
        <ele>293.2</ele>
        <time>2022-06-25T17:43:44Z</time>
      </trkpt>
      <trkpt lat="46.09442" lon="4.65218">
        <ele>293.2</ele>
        <time>2022-06-25T17:43:45Z</time>
      </trkpt>
      <trkpt lat="46.09436" lon="4.65214">
        <ele>293.4</ele>
        <time>2022-06-25T17:43:46Z</time>
      </trkpt>
      <trkpt lat="46.09431" lon="4.65211">
        <ele>293.4</ele>
        <time>2022-06-25T17:43:47Z</time>
      </trkpt>
      <trkpt lat="46.09425" lon="4.65207">
        <ele>293.4</ele>
        <time>2022-06-25T17:43:48Z</time>
      </trkpt>
      <trkpt lat="46.09419" lon="4.65203">
        <ele>293.4</ele>
        <time>2022-06-25T17:43:49Z</time>
      </trkpt>
      <trkpt lat="46.09414" lon="4.65199">
        <ele>293.4</ele>
        <time>2022-06-25T17:43:50Z</time>
      </trkpt>
      <trkpt lat="46.09409" lon="4.65195">
        <ele>293.4</ele>
        <time>2022-06-25T17:43:51Z</time>
      </trkpt>
      <trkpt lat="46.09403" lon="4.65191">
        <ele>293.6</ele>
        <time>2022-06-25T17:43:52Z</time>
      </trkpt>
      <trkpt lat="46.09398" lon="4.65186">
        <ele>293.6</ele>
        <time>2022-06-25T17:43:53Z</time>
      </trkpt>
      <trkpt lat="46.09392" lon="4.65182">
        <ele>293.6</ele>
        <time>2022-06-25T17:43:54Z</time>
      </trkpt>
      <trkpt lat="46.09387" lon="4.65177">
        <ele>293.6</ele>
        <time>2022-06-25T17:43:55Z</time>
      </trkpt>
      <trkpt lat="46.09381" lon="4.65172">
        <ele>293.6</ele>
        <time>2022-06-25T17:43:56Z</time>
      </trkpt>
      <trkpt lat="46.09376" lon="4.65167">
        <ele>293.6</ele>
        <time>2022-06-25T17:43:57Z</time>
      </trkpt>
      <trkpt lat="46.0937" lon="4.65162">
        <ele>293.4</ele>
        <time>2022-06-25T17:43:58Z</time>
      </trkpt>
      <trkpt lat="46.09364" lon="4.65156">
        <ele>293.4</ele>
        <time>2022-06-25T17:43:59Z</time>
      </trkpt>
      <trkpt lat="46.09359" lon="4.65151">
        <ele>293.4</ele>
        <time>2022-06-25T17:44:00Z</time>
      </trkpt>
      <trkpt lat="46.09353" lon="4.65145">
        <ele>293</ele>
        <time>2022-06-25T17:44:01Z</time>
      </trkpt>
      <trkpt lat="46.09348" lon="4.65139">
        <ele>293</ele>
        <time>2022-06-25T17:44:02Z</time>
      </trkpt>
      <trkpt lat="46.09343" lon="4.65132">
        <ele>293</ele>
        <time>2022-06-25T17:44:03Z</time>
      </trkpt>
      <trkpt lat="46.09338" lon="4.65125">
        <ele>293</ele>
        <time>2022-06-25T17:44:04Z</time>
      </trkpt>
      <trkpt lat="46.09333" lon="4.65118">
        <ele>293</ele>
        <time>2022-06-25T17:44:05Z</time>
      </trkpt>
      <trkpt lat="46.09329" lon="4.65112">
        <ele>293.2</ele>
        <time>2022-06-25T17:44:06Z</time>
      </trkpt>
      <trkpt lat="46.09324" lon="4.65106">
        <ele>293.2</ele>
        <time>2022-06-25T17:44:07Z</time>
      </trkpt>
      <trkpt lat="46.09319" lon="4.65101">
        <ele>293.2</ele>
        <time>2022-06-25T17:44:08Z</time>
      </trkpt>
      <trkpt lat="46.09314" lon="4.65095">
        <ele>293.2</ele>
        <time>2022-06-25T17:44:09Z</time>
      </trkpt>
      <trkpt lat="46.09309" lon="4.6509">
        <ele>293.4</ele>
        <time>2022-06-25T17:44:10Z</time>
      </trkpt>
      <trkpt lat="46.09304" lon="4.65085">
        <ele>293.4</ele>
        <time>2022-06-25T17:44:11Z</time>
      </trkpt>
      <trkpt lat="46.09298" lon="4.65079">
        <ele>293.4</ele>
        <time>2022-06-25T17:44:12Z</time>
      </trkpt>
      <trkpt lat="46.09293" lon="4.65074">
        <ele>293.2</ele>
        <time>2022-06-25T17:44:13Z</time>
      </trkpt>
      <trkpt lat="46.09287" lon="4.65069">
        <ele>293.2</ele>
        <time>2022-06-25T17:44:14Z</time>
      </trkpt>
      <trkpt lat="46.09281" lon="4.65064">
        <ele>293.2</ele>
        <time>2022-06-25T17:44:15Z</time>
      </trkpt>
      <trkpt lat="46.09275" lon="4.65059">
        <ele>293.2</ele>
        <time>2022-06-25T17:44:16Z</time>
      </trkpt>
      <trkpt lat="46.09269" lon="4.65055">
        <ele>293.2</ele>
        <time>2022-06-25T17:44:17Z</time>
      </trkpt>
      <trkpt lat="46.09264" lon="4.6505">
        <ele>293.2</ele>
        <time>2022-06-25T17:44:18Z</time>
      </trkpt>
      <trkpt lat="46.09258" lon="4.65045">
        <ele>293.2</ele>
        <time>2022-06-25T17:44:19Z</time>
      </trkpt>
      <trkpt lat="46.09253" lon="4.6504">
        <ele>293.2</ele>
        <time>2022-06-25T17:44:20Z</time>
      </trkpt>
      <trkpt lat="46.09247" lon="4.65035">
        <ele>293</ele>
        <time>2022-06-25T17:44:21Z</time>
      </trkpt>
      <trkpt lat="46.09242" lon="4.6503">
        <ele>293</ele>
        <time>2022-06-25T17:44:22Z</time>
      </trkpt>
      <trkpt lat="46.09237" lon="4.65025">
        <ele>293</ele>
        <time>2022-06-25T17:44:23Z</time>
      </trkpt>
      <trkpt lat="46.09232" lon="4.65019">
        <ele>293</ele>
        <time>2022-06-25T17:44:24Z</time>
      </trkpt>
      <trkpt lat="46.09227" lon="4.65014">
        <ele>293</ele>
        <time>2022-06-25T17:44:25Z</time>
      </trkpt>
      <trkpt lat="46.09221" lon="4.65008">
        <ele>293</ele>
        <time>2022-06-25T17:44:26Z</time>
      </trkpt>
      <trkpt lat="46.09216" lon="4.65003">
        <ele>293</ele>
        <time>2022-06-25T17:44:27Z</time>
      </trkpt>
      <trkpt lat="46.09211" lon="4.64997">
        <ele>293</ele>
        <time>2022-06-25T17:44:28Z</time>
      </trkpt>
      <trkpt lat="46.09206" lon="4.64992">
        <ele>293.2</ele>
        <time>2022-06-25T17:44:29Z</time>
      </trkpt>
      <trkpt lat="46.09201" lon="4.64986">
        <ele>293.2</ele>
        <time>2022-06-25T17:44:30Z</time>
      </trkpt>
      <trkpt lat="46.09196" lon="4.6498">
        <ele>293.2</ele>
        <time>2022-06-25T17:44:31Z</time>
      </trkpt>
      <trkpt lat="46.09192" lon="4.64974">
        <ele>293.2</ele>
        <time>2022-06-25T17:44:32Z</time>
      </trkpt>
      <trkpt lat="46.09187" lon="4.64969">
        <ele>293.2</ele>
        <time>2022-06-25T17:44:33Z</time>
      </trkpt>
      <trkpt lat="46.09182" lon="4.64963">
        <ele>293.2</ele>
        <time>2022-06-25T17:44:34Z</time>
      </trkpt>
      <trkpt lat="46.09177" lon="4.64958">
        <ele>293.6</ele>
        <time>2022-06-25T17:44:35Z</time>
      </trkpt>
      <trkpt lat="46.09172" lon="4.64953">
        <ele>293.6</ele>
        <time>2022-06-25T17:44:36Z</time>
      </trkpt>
      <trkpt lat="46.09168" lon="4.64948">
        <ele>293.6</ele>
        <time>2022-06-25T17:44:37Z</time>
      </trkpt>
      <trkpt lat="46.09163" lon="4.64943">
        <ele>293.6</ele>
        <time>2022-06-25T17:44:38Z</time>
      </trkpt>
      <trkpt lat="46.09158" lon="4.64939">
        <ele>293.8</ele>
        <time>2022-06-25T17:44:39Z</time>
      </trkpt>
      <trkpt lat="46.09153" lon="4.64935">
        <ele>293.8</ele>
        <time>2022-06-25T17:44:40Z</time>
      </trkpt>
      <trkpt lat="46.09149" lon="4.6493">
        <ele>293.8</ele>
        <time>2022-06-25T17:44:41Z</time>
      </trkpt>
      <trkpt lat="46.09144" lon="4.64926">
        <ele>294</ele>
        <time>2022-06-25T17:44:42Z</time>
      </trkpt>
      <trkpt lat="46.09139" lon="4.64922">
        <ele>294</ele>
        <time>2022-06-25T17:44:43Z</time>
      </trkpt>
      <trkpt lat="46.09134" lon="4.64918">
        <ele>294</ele>
        <time>2022-06-25T17:44:44Z</time>
      </trkpt>
      <trkpt lat="46.09129" lon="4.64914">
        <ele>294</ele>
        <time>2022-06-25T17:44:45Z</time>
      </trkpt>
      <trkpt lat="46.09124" lon="4.6491">
        <ele>294</ele>
        <time>2022-06-25T17:44:46Z</time>
      </trkpt>
      <trkpt lat="46.0912" lon="4.64907">
        <ele>294</ele>
        <time>2022-06-25T17:44:47Z</time>
      </trkpt>
      <trkpt lat="46.09115" lon="4.64903">
        <ele>294</ele>
        <time>2022-06-25T17:44:48Z</time>
      </trkpt>
      <trkpt lat="46.0911" lon="4.649">
        <ele>294.4</ele>
        <time>2022-06-25T17:44:49Z</time>
      </trkpt>
      <trkpt lat="46.09106" lon="4.64897">
        <ele>294.4</ele>
        <time>2022-06-25T17:44:50Z</time>
      </trkpt>
      <trkpt lat="46.09101" lon="4.64893">
        <ele>294.4</ele>
        <time>2022-06-25T17:44:51Z</time>
      </trkpt>
      <trkpt lat="46.09096" lon="4.6489">
        <ele>294.4</ele>
        <time>2022-06-25T17:44:52Z</time>
      </trkpt>
      <trkpt lat="46.09092" lon="4.64887">
        <ele>294.6</ele>
        <time>2022-06-25T17:44:53Z</time>
      </trkpt>
      <trkpt lat="46.09087" lon="4.64884">
        <ele>294.6</ele>
        <time>2022-06-25T17:44:54Z</time>
      </trkpt>
      <trkpt lat="46.09082" lon="4.64881">
        <ele>294.6</ele>
        <time>2022-06-25T17:44:55Z</time>
      </trkpt>
      <trkpt lat="46.09077" lon="4.64878">
        <ele>294.6</ele>
        <time>2022-06-25T17:44:56Z</time>
      </trkpt>
      <trkpt lat="46.09073" lon="4.64875">
        <ele>294.8</ele>
        <time>2022-06-25T17:44:57Z</time>
      </trkpt>
      <trkpt lat="46.09068" lon="4.64871">
        <ele>294.8</ele>
        <time>2022-06-25T17:44:58Z</time>
      </trkpt>
      <trkpt lat="46.09063" lon="4.64868">
        <ele>294.8</ele>
        <time>2022-06-25T17:44:59Z</time>
      </trkpt>
      <trkpt lat="46.09058" lon="4.64865">
        <ele>294.8</ele>
        <time>2022-06-25T17:45:00Z</time>
      </trkpt>
      <trkpt lat="46.09053" lon="4.64861">
        <ele>295</ele>
        <time>2022-06-25T17:45:01Z</time>
      </trkpt>
      <trkpt lat="46.09049" lon="4.64857">
        <ele>295</ele>
        <time>2022-06-25T17:45:02Z</time>
      </trkpt>
      <trkpt lat="46.09045" lon="4.64853">
        <ele>295.2</ele>
        <time>2022-06-25T17:45:03Z</time>
      </trkpt>
      <trkpt lat="46.09041" lon="4.64848">
        <ele>295.2</ele>
        <time>2022-06-25T17:45:04Z</time>
      </trkpt>
      <trkpt lat="46.09038" lon="4.64843">
        <ele>295.4</ele>
        <time>2022-06-25T17:45:06Z</time>
      </trkpt>
      <trkpt lat="46.09035" lon="4.64839">
        <ele>295.4</ele>
        <time>2022-06-25T17:45:07Z</time>
      </trkpt>
      <trkpt lat="46.09032" lon="4.64834">
        <ele>295.8</ele>
        <time>2022-06-25T17:45:08Z</time>
      </trkpt>
      <trkpt lat="46.0903" lon="4.64829">
        <ele>295.8</ele>
        <time>2022-06-25T17:45:09Z</time>
      </trkpt>
      <trkpt lat="46.09027" lon="4.64824">
        <ele>295.8</ele>
        <time>2022-06-25T17:45:10Z</time>
      </trkpt>
      <trkpt lat="46.09025" lon="4.6482">
        <ele>296</ele>
        <time>2022-06-25T17:45:11Z</time>
      </trkpt>
      <trkpt lat="46.09023" lon="4.64814">
        <ele>296</ele>
        <time>2022-06-25T17:45:12Z</time>
      </trkpt>
      <trkpt lat="46.0902" lon="4.64809">
        <ele>296</ele>
        <time>2022-06-25T17:45:13Z</time>
      </trkpt>
      <trkpt lat="46.09018" lon="4.64804">
        <ele>296</ele>
        <time>2022-06-25T17:45:14Z</time>
      </trkpt>
      <trkpt lat="46.09015" lon="4.64799">
        <ele>296.2</ele>
        <time>2022-06-25T17:45:15Z</time>
      </trkpt>
      <trkpt lat="46.09012" lon="4.64794">
        <ele>296.2</ele>
        <time>2022-06-25T17:45:16Z</time>
      </trkpt>
      <trkpt lat="46.09009" lon="4.64789">
        <ele>296.2</ele>
        <time>2022-06-25T17:45:17Z</time>
      </trkpt>
      <trkpt lat="46.09007" lon="4.64783">
        <ele>296.2</ele>
        <time>2022-06-25T17:45:18Z</time>
      </trkpt>
      <trkpt lat="46.09004" lon="4.64778">
        <ele>296.2</ele>
        <time>2022-06-25T17:45:19Z</time>
      </trkpt>
      <trkpt lat="46.09001" lon="4.64772">
        <ele>296.2</ele>
        <time>2022-06-25T17:45:20Z</time>
      </trkpt>
      <trkpt lat="46.08999" lon="4.64767">
        <ele>296.4</ele>
        <time>2022-06-25T17:45:21Z</time>
      </trkpt>
      <trkpt lat="46.08996" lon="4.64761">
        <ele>296.4</ele>
        <time>2022-06-25T17:45:22Z</time>
      </trkpt>
      <trkpt lat="46.08993" lon="4.64756">
        <ele>296.4</ele>
        <time>2022-06-25T17:45:23Z</time>
      </trkpt>
      <trkpt lat="46.0899" lon="4.6475">
        <ele>296.4</ele>
        <time>2022-06-25T17:45:24Z</time>
      </trkpt>
      <trkpt lat="46.08987" lon="4.64745">
        <ele>296.4</ele>
        <time>2022-06-25T17:45:25Z</time>
      </trkpt>
      <trkpt lat="46.08984" lon="4.6474">
        <ele>296.4</ele>
        <time>2022-06-25T17:45:26Z</time>
      </trkpt>
      <trkpt lat="46.08981" lon="4.64735">
        <ele>296.4</ele>
        <time>2022-06-25T17:45:27Z</time>
      </trkpt>
      <trkpt lat="46.0898" lon="4.6473">
        <ele>296.2</ele>
        <time>2022-06-25T17:45:28Z</time>
      </trkpt>
      <trkpt lat="46.08978" lon="4.64725">
        <ele>296.2</ele>
        <time>2022-06-25T17:45:29Z</time>
      </trkpt>
      <trkpt lat="46.08978" lon="4.64717">
        <ele>296.2</ele>
        <time>2022-06-25T17:45:30Z</time>
      </trkpt>
      <trkpt lat="46.08979" lon="4.64712">
        <ele>296.2</ele>
        <time>2022-06-25T17:45:31Z</time>
      </trkpt>
      <trkpt lat="46.08979" lon="4.64708">
        <ele>296.6</ele>
        <time>2022-06-25T17:45:32Z</time>
      </trkpt>
      <trkpt lat="46.08978" lon="4.64704">
        <ele>296.6</ele>
        <time>2022-06-25T17:45:33Z</time>
      </trkpt>
      <trkpt lat="46.08977" lon="4.647">
        <ele>296.6</ele>
        <time>2022-06-25T17:45:34Z</time>
      </trkpt>
      <trkpt lat="46.08974" lon="4.64697">
        <ele>296.6</ele>
        <time>2022-06-25T17:45:35Z</time>
      </trkpt>
      <trkpt lat="46.0897" lon="4.64694">
        <ele>296.6</ele>
        <time>2022-06-25T17:45:36Z</time>
      </trkpt>
      <trkpt lat="46.08965" lon="4.64691">
        <ele>296.6</ele>
        <time>2022-06-25T17:45:37Z</time>
      </trkpt>
      <trkpt lat="46.08961" lon="4.64689">
        <ele>296.6</ele>
        <time>2022-06-25T17:45:38Z</time>
      </trkpt>
      <trkpt lat="46.08956" lon="4.64687">
        <ele>296.2</ele>
        <time>2022-06-25T17:45:39Z</time>
      </trkpt>
      <trkpt lat="46.08951" lon="4.64686">
        <ele>296.2</ele>
        <time>2022-06-25T17:45:40Z</time>
      </trkpt>
      <trkpt lat="46.08947" lon="4.64685">
        <ele>295.8</ele>
        <time>2022-06-25T17:45:41Z</time>
      </trkpt>
      <trkpt lat="46.08942" lon="4.64684">
        <ele>295.8</ele>
        <time>2022-06-25T17:45:42Z</time>
      </trkpt>
      <trkpt lat="46.08937" lon="4.64684">
        <ele>295.6</ele>
        <time>2022-06-25T17:45:43Z</time>
      </trkpt>
      <trkpt lat="46.08933" lon="4.64683">
        <ele>295.4</ele>
        <time>2022-06-25T17:45:44Z</time>
      </trkpt>
      <trkpt lat="46.08929" lon="4.64682">
        <ele>295.4</ele>
        <time>2022-06-25T17:45:45Z</time>
      </trkpt>
      <trkpt lat="46.08925" lon="4.6468">
        <ele>295</ele>
        <time>2022-06-25T17:45:46Z</time>
      </trkpt>
      <trkpt lat="46.08922" lon="4.64678">
        <ele>295</ele>
        <time>2022-06-25T17:45:47Z</time>
      </trkpt>
      <trkpt lat="46.08919" lon="4.64676">
        <ele>295</ele>
        <time>2022-06-25T17:45:48Z</time>
      </trkpt>
      <trkpt lat="46.08917" lon="4.64675">
        <ele>295</ele>
        <time>2022-06-25T17:45:49Z</time>
      </trkpt>
      <trkpt lat="46.08915" lon="4.64675">
        <ele>294.8</ele>
        <time>2022-06-25T17:45:50Z</time>
      </trkpt>
      <trkpt lat="46.08913" lon="4.64675">
        <ele>294.8</ele>
        <time>2022-06-25T17:45:51Z</time>
      </trkpt>
      <trkpt lat="46.08913" lon="4.64675">
        <ele>294.8</ele>
        <time>2022-06-25T17:45:57Z</time>
      </trkpt>
      <trkpt lat="46.08913" lon="4.64675">
        <ele>294.8</ele>
        <time>2022-06-25T17:46:01Z</time>
      </trkpt>
      <trkpt lat="46.08913" lon="4.64675">
        <ele>294.6</ele>
        <time>2022-06-25T17:46:05Z</time>
      </trkpt>
      <trkpt lat="46.08913" lon="4.64675">
        <ele>294.8</ele>
        <time>2022-06-25T17:46:11Z</time>
      </trkpt>
      <trkpt lat="46.08913" lon="4.64675">
        <ele>294.8</ele>
        <time>2022-06-25T17:46:16Z</time>
      </trkpt>
      <trkpt lat="46.08913" lon="4.64675">
        <ele>294.8</ele>
        <time>2022-06-25T17:46:21Z</time>
      </trkpt>
      <trkpt lat="46.08912" lon="4.64675">
        <ele>295.2</ele>
        <time>2022-06-25T17:46:53Z</time>
      </trkpt>
      <trkpt lat="46.08912" lon="4.64675">
        <ele>295.2</ele>
        <time>2022-06-25T17:46:57Z</time>
      </trkpt>
      <trkpt lat="46.08912" lon="4.64675">
        <ele>295.6</ele>
        <time>2022-06-25T17:47:05Z</time>
      </trkpt>
      <trkpt lat="46.08912" lon="4.64674">
        <ele>295.6</ele>
        <time>2022-06-25T17:47:22Z</time>
      </trkpt>
      <trkpt lat="46.08912" lon="4.64674">
        <ele>295.6</ele>
        <time>2022-06-25T17:47:25Z</time>
      </trkpt>
      <trkpt lat="46.08912" lon="4.64674">
        <ele>295.8</ele>
        <time>2022-06-25T17:48:05Z</time>
      </trkpt>
      <trkpt lat="46.08911" lon="4.64674">
        <ele>295.8</ele>
        <time>2022-06-25T17:49:13Z</time>
      </trkpt>
      <trkpt lat="46.08911" lon="4.64674">
        <ele>295.8</ele>
        <time>2022-06-25T17:49:16Z</time>
      </trkpt>
      <trkpt lat="46.08911" lon="4.64674">
        <ele>295.8</ele>
        <time>2022-06-25T17:49:23Z</time>
      </trkpt>
      <trkpt lat="46.08911" lon="4.64674">
        <ele>295.4</ele>
        <time>2022-06-25T17:49:44Z</time>
      </trkpt>
      <trkpt lat="46.08911" lon="4.64674">
        <ele>295.4</ele>
        <time>2022-06-25T17:49:51Z</time>
      </trkpt>
      <trkpt lat="46.08911" lon="4.64674">
        <ele>295.2</ele>
        <time>2022-06-25T17:49:57Z</time>
      </trkpt>
      <trkpt lat="46.08911" lon="4.64674">
        <ele>295</ele>
        <time>2022-06-25T17:50:12Z</time>
      </trkpt>
      <trkpt lat="46.08911" lon="4.64674">
        <ele>294.8</ele>
        <time>2022-06-25T17:50:18Z</time>
      </trkpt>
      <trkpt lat="46.0891" lon="4.64674">
        <ele>294.6</ele>
        <time>2022-06-25T17:50:27Z</time>
      </trkpt>
      <trkpt lat="46.0891" lon="4.64674">
        <ele>294.2</ele>
        <time>2022-06-25T17:50:55Z</time>
      </trkpt>
      <trkpt lat="46.0891" lon="4.64674">
        <ele>293.6</ele>
        <time>2022-06-25T17:51:06Z</time>
      </trkpt>
      <trkpt lat="46.0891" lon="4.64674">
        <ele>293</ele>
        <time>2022-06-25T17:52:20Z</time>
      </trkpt>
      <trkpt lat="46.0891" lon="4.64673">
        <ele>293</ele>
        <time>2022-06-25T17:52:22Z</time>
      </trkpt>
      <trkpt lat="46.0891" lon="4.64673">
        <ele>292.8</ele>
        <time>2022-06-25T17:52:32Z</time>
      </trkpt>
      <trkpt lat="46.0891" lon="4.64673">
        <ele>293</ele>
        <time>2022-06-25T17:52:35Z</time>
      </trkpt>
      <trkpt lat="46.0891" lon="4.64673">
        <ele>293</ele>
        <time>2022-06-25T17:52:58Z</time>
      </trkpt>
      <trkpt lat="46.08909" lon="4.64673">
        <ele>292.6</ele>
        <time>2022-06-25T17:53:03Z</time>
      </trkpt>
      <trkpt lat="46.08909" lon="4.64673">
        <ele>292.6</ele>
        <time>2022-06-25T17:53:07Z</time>
      </trkpt>
      <trkpt lat="46.08909" lon="4.64673">
        <ele>292.6</ele>
        <time>2022-06-25T17:53:13Z</time>
      </trkpt>
      <trkpt lat="46.08909" lon="4.64673">
        <ele>292.4</ele>
        <time>2022-06-25T17:54:13Z</time>
      </trkpt>
      <trkpt lat="46.08909" lon="4.64673">
        <ele>292.4</ele>
        <time>2022-06-25T17:54:27Z</time>
      </trkpt>
      <trkpt lat="46.08909" lon="4.64673">
        <ele>292.4</ele>
        <time>2022-06-25T17:54:41Z</time>
      </trkpt>
      <trkpt lat="46.08909" lon="4.64673">
        <ele>292</ele>
        <time>2022-06-25T17:55:30Z</time>
      </trkpt>
      <trkpt lat="46.08908" lon="4.64673">
        <ele>292</ele>
        <time>2022-06-25T17:55:40Z</time>
      </trkpt>
      <trkpt lat="46.08908" lon="4.64673">
        <ele>291.4</ele>
        <time>2022-06-25T17:56:27Z</time>
      </trkpt>
      <trkpt lat="46.08908" lon="4.64673">
        <ele>291.6</ele>
        <time>2022-06-25T17:56:34Z</time>
      </trkpt>
      <trkpt lat="46.08908" lon="4.64672">
        <ele>292</ele>
        <time>2022-06-25T17:56:37Z</time>
      </trkpt>
      <trkpt lat="46.08908" lon="4.64672">
        <ele>292</ele>
        <time>2022-06-25T17:56:43Z</time>
      </trkpt>
      <trkpt lat="46.08906" lon="4.64673">
        <ele>292</ele>
        <time>2022-06-25T17:56:45Z</time>
      </trkpt>
      <trkpt lat="46.08904" lon="4.64673">
        <ele>292</ele>
        <time>2022-06-25T17:56:46Z</time>
      </trkpt>
      <trkpt lat="46.08901" lon="4.64672">
        <ele>292</ele>
        <time>2022-06-25T17:56:47Z</time>
      </trkpt>
      <trkpt lat="46.08899" lon="4.64672">
        <ele>292</ele>
        <time>2022-06-25T17:56:48Z</time>
      </trkpt>
      <trkpt lat="46.08896" lon="4.64671">
        <ele>292</ele>
        <time>2022-06-25T17:56:49Z</time>
      </trkpt>
      <trkpt lat="46.08894" lon="4.6467">
        <ele>292</ele>
        <time>2022-06-25T17:56:50Z</time>
      </trkpt>
      <trkpt lat="46.08891" lon="4.6467">
        <ele>292</ele>
        <time>2022-06-25T17:56:51Z</time>
      </trkpt>
      <trkpt lat="46.08889" lon="4.64671">
        <ele>292</ele>
        <time>2022-06-25T17:56:52Z</time>
      </trkpt>
      <trkpt lat="46.08887" lon="4.64673">
        <ele>292</ele>
        <time>2022-06-25T17:56:53Z</time>
      </trkpt>
      <trkpt lat="46.08885" lon="4.64675">
        <ele>292</ele>
        <time>2022-06-25T17:56:54Z</time>
      </trkpt>
      <trkpt lat="46.08884" lon="4.64678">
        <ele>292</ele>
        <time>2022-06-25T17:56:55Z</time>
      </trkpt>
      <trkpt lat="46.08883" lon="4.64681">
        <ele>292</ele>
        <time>2022-06-25T17:56:56Z</time>
      </trkpt>
      <trkpt lat="46.08882" lon="4.64685">
        <ele>292</ele>
        <time>2022-06-25T17:56:57Z</time>
      </trkpt>
      <trkpt lat="46.08881" lon="4.64689">
        <ele>292</ele>
        <time>2022-06-25T17:56:58Z</time>
      </trkpt>
      <trkpt lat="46.08881" lon="4.64693">
        <ele>291.6</ele>
        <time>2022-06-25T17:56:59Z</time>
      </trkpt>
      <trkpt lat="46.08881" lon="4.64697">
        <ele>291.6</ele>
        <time>2022-06-25T17:57:00Z</time>
      </trkpt>
      <trkpt lat="46.0888" lon="4.64701">
        <ele>291.4</ele>
        <time>2022-06-25T17:57:01Z</time>
      </trkpt>
      <trkpt lat="46.0888" lon="4.64705">
        <ele>291.4</ele>
        <time>2022-06-25T17:57:02Z</time>
      </trkpt>
      <trkpt lat="46.0888" lon="4.64709">
        <ele>291.2</ele>
        <time>2022-06-25T17:57:03Z</time>
      </trkpt>
      <trkpt lat="46.0888" lon="4.64712">
        <ele>291.2</ele>
        <time>2022-06-25T17:57:04Z</time>
      </trkpt>
      <trkpt lat="46.0888" lon="4.64715">
        <ele>291.2</ele>
        <time>2022-06-25T17:57:05Z</time>
      </trkpt>
      <trkpt lat="46.08881" lon="4.64718">
        <ele>290.8</ele>
        <time>2022-06-25T17:57:06Z</time>
      </trkpt>
      <trkpt lat="46.08881" lon="4.6472">
        <ele>290.8</ele>
        <time>2022-06-25T17:57:07Z</time>
      </trkpt>
      <trkpt lat="46.08881" lon="4.64722">
        <ele>290.8</ele>
        <time>2022-06-25T17:57:08Z</time>
      </trkpt>
      <trkpt lat="46.08881" lon="4.64722">
        <ele>290.8</ele>
        <time>2022-06-25T17:57:10Z</time>
      </trkpt>
      <trkpt lat="46.08883" lon="4.64721">
        <ele>288.8</ele>
        <time>2022-06-25T17:58:59Z</time>
      </trkpt>
      <trkpt lat="46.08884" lon="4.64719">
        <ele>288.8</ele>
        <time>2022-06-25T17:59:00Z</time>
      </trkpt>
      <trkpt lat="46.08886" lon="4.64717">
        <ele>288.8</ele>
        <time>2022-06-25T17:59:01Z</time>
      </trkpt>
      <trkpt lat="46.08887" lon="4.64716">
        <ele>288.8</ele>
        <time>2022-06-25T17:59:02Z</time>
      </trkpt>
      <trkpt lat="46.08888" lon="4.64714">
        <ele>288.8</ele>
        <time>2022-06-25T17:59:03Z</time>
      </trkpt>
      <trkpt lat="46.0889" lon="4.64712">
        <ele>288.8</ele>
        <time>2022-06-25T17:59:04Z</time>
      </trkpt>
      <trkpt lat="46.08891" lon="4.6471">
        <ele>288.8</ele>
        <time>2022-06-25T17:59:05Z</time>
      </trkpt>
      <trkpt lat="46.08892" lon="4.64707">
        <ele>289</ele>
        <time>2022-06-25T17:59:06Z</time>
      </trkpt>
      <trkpt lat="46.08894" lon="4.64704">
        <ele>289</ele>
        <time>2022-06-25T17:59:07Z</time>
      </trkpt>
      <trkpt lat="46.08895" lon="4.647">
        <ele>289</ele>
        <time>2022-06-25T17:59:08Z</time>
      </trkpt>
      <trkpt lat="46.08895" lon="4.64697">
        <ele>289</ele>
        <time>2022-06-25T17:59:09Z</time>
      </trkpt>
      <trkpt lat="46.08895" lon="4.64693">
        <ele>289</ele>
        <time>2022-06-25T17:59:10Z</time>
      </trkpt>
      <trkpt lat="46.08895" lon="4.6469">
        <ele>289</ele>
        <time>2022-06-25T17:59:11Z</time>
      </trkpt>
      <trkpt lat="46.08895" lon="4.64687">
        <ele>289.4</ele>
        <time>2022-06-25T17:59:12Z</time>
      </trkpt>
      <trkpt lat="46.08895" lon="4.64684">
        <ele>289.4</ele>
        <time>2022-06-25T17:59:13Z</time>
      </trkpt>
      <trkpt lat="46.08896" lon="4.64682">
        <ele>289.4</ele>
        <time>2022-06-25T17:59:14Z</time>
      </trkpt>
      <trkpt lat="46.08896" lon="4.64681">
        <ele>289.4</ele>
        <time>2022-06-25T17:59:15Z</time>
      </trkpt>
      <trkpt lat="46.08897" lon="4.64679">
        <ele>289.4</ele>
        <time>2022-06-25T17:59:16Z</time>
      </trkpt>
      <trkpt lat="46.08899" lon="4.64678">
        <ele>289.4</ele>
        <time>2022-06-25T17:59:17Z</time>
      </trkpt>
      <trkpt lat="46.08901" lon="4.64678">
        <ele>289.4</ele>
        <time>2022-06-25T17:59:18Z</time>
      </trkpt>
      <trkpt lat="46.08903" lon="4.64679">
        <ele>289.4</ele>
        <time>2022-06-25T17:59:19Z</time>
      </trkpt>
      <trkpt lat="46.08905" lon="4.64679">
        <ele>289.6</ele>
        <time>2022-06-25T17:59:20Z</time>
      </trkpt>
      <trkpt lat="46.08907" lon="4.6468">
        <ele>289.6</ele>
        <time>2022-06-25T17:59:21Z</time>
      </trkpt>
      <trkpt lat="46.08909" lon="4.64681">
        <ele>289.6</ele>
        <time>2022-06-25T17:59:22Z</time>
      </trkpt>
      <trkpt lat="46.08912" lon="4.64681">
        <ele>289.6</ele>
        <time>2022-06-25T17:59:23Z</time>
      </trkpt>
      <trkpt lat="46.08914" lon="4.64682">
        <ele>289.6</ele>
        <time>2022-06-25T17:59:24Z</time>
      </trkpt>
      <trkpt lat="46.08916" lon="4.64682">
        <ele>289.6</ele>
        <time>2022-06-25T17:59:25Z</time>
      </trkpt>
      <trkpt lat="46.08918" lon="4.64683">
        <ele>289.6</ele>
        <time>2022-06-25T17:59:26Z</time>
      </trkpt>
      <trkpt lat="46.08921" lon="4.64684">
        <ele>289.6</ele>
        <time>2022-06-25T17:59:27Z</time>
      </trkpt>
      <trkpt lat="46.08923" lon="4.64684">
        <ele>289.6</ele>
        <time>2022-06-25T17:59:28Z</time>
      </trkpt>
      <trkpt lat="46.08926" lon="4.64685">
        <ele>289.6</ele>
        <time>2022-06-25T17:59:29Z</time>
      </trkpt>
      <trkpt lat="46.08928" lon="4.64686">
        <ele>289.6</ele>
        <time>2022-06-25T17:59:30Z</time>
      </trkpt>
      <trkpt lat="46.08931" lon="4.64686">
        <ele>289.6</ele>
        <time>2022-06-25T17:59:31Z</time>
      </trkpt>
      <trkpt lat="46.08933" lon="4.64687">
        <ele>289.6</ele>
        <time>2022-06-25T17:59:32Z</time>
      </trkpt>
      <trkpt lat="46.08935" lon="4.64688">
        <ele>289.6</ele>
        <time>2022-06-25T17:59:33Z</time>
      </trkpt>
      <trkpt lat="46.08936" lon="4.64689">
        <ele>289.6</ele>
        <time>2022-06-25T17:59:34Z</time>
      </trkpt>
      <trkpt lat="46.08936" lon="4.64689">
        <ele>289.6</ele>
        <time>2022-06-25T17:59:36Z</time>
      </trkpt>
      <trkpt lat="46.08937" lon="4.64689">
        <ele>289.8</ele>
        <time>2022-06-25T17:59:38Z</time>
      </trkpt>
      <trkpt lat="46.08937" lon="4.64689">
        <ele>289.8</ele>
        <time>2022-06-25T17:59:39Z</time>
      </trkpt>
      <trkpt lat="46.08937" lon="4.64689">
        <ele>289.8</ele>
        <time>2022-06-25T17:59:41Z</time>
      </trkpt>
      <trkpt lat="46.08937" lon="4.64689">
        <ele>290</ele>
        <time>2022-06-25T17:59:43Z</time>
      </trkpt>
      <trkpt lat="46.08938" lon="4.64689">
        <ele>290.2</ele>
        <time>2022-06-25T17:59:48Z</time>
      </trkpt>
      <trkpt lat="46.08938" lon="4.64689">
        <ele>290.2</ele>
        <time>2022-06-25T17:59:49Z</time>
      </trkpt>
      <trkpt lat="46.08938" lon="4.64689">
        <ele>290.2</ele>
        <time>2022-06-25T17:59:52Z</time>
      </trkpt>
      <trkpt lat="46.08938" lon="4.64689">
        <ele>290.2</ele>
        <time>2022-06-25T17:59:54Z</time>
      </trkpt>
      <trkpt lat="46.08939" lon="4.64689">
        <ele>290.2</ele>
        <time>2022-06-25T17:59:56Z</time>
      </trkpt>
      <trkpt lat="46.08939" lon="4.64689">
        <ele>290.2</ele>
        <time>2022-06-25T17:59:57Z</time>
      </trkpt>
      <trkpt lat="46.08939" lon="4.64689">
        <ele>290.2</ele>
        <time>2022-06-25T17:59:59Z</time>
      </trkpt>
      <trkpt lat="46.08939" lon="4.64689">
        <ele>290.2</ele>
        <time>2022-06-25T18:00:02Z</time>
      </trkpt>
      <trkpt lat="46.0894" lon="4.64689">
        <ele>290.2</ele>
        <time>2022-06-25T18:00:04Z</time>
      </trkpt>
      <trkpt lat="46.0894" lon="4.64689">
        <ele>290.2</ele>
        <time>2022-06-25T18:00:05Z</time>
      </trkpt>
      <trkpt lat="46.0894" lon="4.64689">
        <ele>290.2</ele>
        <time>2022-06-25T18:00:07Z</time>
      </trkpt>
      <trkpt lat="46.0894" lon="4.64689">
        <ele>290.2</ele>
        <time>2022-06-25T18:00:09Z</time>
      </trkpt>
      <trkpt lat="46.08941" lon="4.64689">
        <ele>290.2</ele>
        <time>2022-06-25T18:00:30Z</time>
      </trkpt>
      <trkpt lat="46.08941" lon="4.64689">
        <ele>290.2</ele>
        <time>2022-06-25T18:00:34Z</time>
      </trkpt>
      <trkpt lat="46.08941" lon="4.64689">
        <ele>290.2</ele>
        <time>2022-06-25T18:00:57Z</time>
      </trkpt>
      <trkpt lat="46.08941" lon="4.64689">
        <ele>290.2</ele>
        <time>2022-06-25T18:01:05Z</time>
      </trkpt>
      <trkpt lat="46.08942" lon="4.64689">
        <ele>290</ele>
        <time>2022-06-25T18:02:27Z</time>
      </trkpt>
      <trkpt lat="46.08942" lon="4.64689">
        <ele>290</ele>
        <time>2022-06-25T18:02:28Z</time>
      </trkpt>
      <trkpt lat="46.08942" lon="4.64689">
        <ele>290</ele>
        <time>2022-06-25T18:02:30Z</time>
      </trkpt>
      <trkpt lat="46.08942" lon="4.64689">
        <ele>290</ele>
        <time>2022-06-25T18:02:32Z</time>
      </trkpt>
      <trkpt lat="46.08943" lon="4.64689">
        <ele>290</ele>
        <time>2022-06-25T18:02:36Z</time>
      </trkpt>
      <trkpt lat="46.08943" lon="4.64689">
        <ele>290</ele>
        <time>2022-06-25T18:02:38Z</time>
      </trkpt>
      <trkpt lat="46.08943" lon="4.64688">
        <ele>290</ele>
        <time>2022-06-25T18:02:40Z</time>
      </trkpt>
      <trkpt lat="46.08943" lon="4.64688">
        <ele>290</ele>
        <time>2022-06-25T18:02:41Z</time>
      </trkpt>
      <trkpt lat="46.08943" lon="4.64688">
        <ele>290</ele>
        <time>2022-06-25T18:02:43Z</time>
      </trkpt>
      <trkpt lat="46.08944" lon="4.64688">
        <ele>290</ele>
        <time>2022-06-25T18:02:44Z</time>
      </trkpt>
      <trkpt lat="46.08944" lon="4.64688">
        <ele>290</ele>
        <time>2022-06-25T18:02:46Z</time>
      </trkpt>
      <trkpt lat="46.08944" lon="4.64688">
        <ele>290</ele>
        <time>2022-06-25T18:02:48Z</time>
      </trkpt>
      <trkpt lat="46.08944" lon="4.64688">
        <ele>290</ele>
        <time>2022-06-25T18:02:50Z</time>
      </trkpt>
      <trkpt lat="46.08945" lon="4.64688">
        <ele>290</ele>
        <time>2022-06-25T18:02:51Z</time>
      </trkpt>
      <trkpt lat="46.08945" lon="4.64688">
        <ele>290</ele>
        <time>2022-06-25T18:02:53Z</time>
      </trkpt>
      <trkpt lat="46.08945" lon="4.64688">
        <ele>290</ele>
        <time>2022-06-25T18:02:55Z</time>
      </trkpt>
      <trkpt lat="46.08945" lon="4.64688">
        <ele>290</ele>
        <time>2022-06-25T18:02:57Z</time>
      </trkpt>
      <trkpt lat="46.08946" lon="4.64688">
        <ele>290</ele>
        <time>2022-06-25T18:02:58Z</time>
      </trkpt>
      <trkpt lat="46.08946" lon="4.64688">
        <ele>290</ele>
        <time>2022-06-25T18:03:00Z</time>
      </trkpt>
      <trkpt lat="46.08946" lon="4.64688">
        <ele>290</ele>
        <time>2022-06-25T18:03:02Z</time>
      </trkpt>
      <trkpt lat="46.08946" lon="4.64688">
        <ele>290</ele>
        <time>2022-06-25T18:03:04Z</time>
      </trkpt>
      <trkpt lat="46.08947" lon="4.64688">
        <ele>290</ele>
        <time>2022-06-25T18:03:05Z</time>
      </trkpt>
      <trkpt lat="46.08947" lon="4.64688">
        <ele>290</ele>
        <time>2022-06-25T18:03:07Z</time>
      </trkpt>
      <trkpt lat="46.08947" lon="4.64688">
        <ele>290</ele>
        <time>2022-06-25T18:03:09Z</time>
      </trkpt>
      <trkpt lat="46.08947" lon="4.64689">
        <ele>290</ele>
        <time>2022-06-25T18:03:10Z</time>
      </trkpt>
      <trkpt lat="46.08947" lon="4.64689">
        <ele>290</ele>
        <time>2022-06-25T18:03:12Z</time>
      </trkpt>
      <trkpt lat="46.08947" lon="4.6469">
        <ele>290</ele>
        <time>2022-06-25T18:03:14Z</time>
      </trkpt>
      <trkpt lat="46.08947" lon="4.6469">
        <ele>290</ele>
        <time>2022-06-25T18:03:15Z</time>
      </trkpt>
      <trkpt lat="46.08947" lon="4.6469">
        <ele>290</ele>
        <time>2022-06-25T18:03:17Z</time>
      </trkpt>
      <trkpt lat="46.08947" lon="4.64691">
        <ele>290</ele>
        <time>2022-06-25T18:03:18Z</time>
      </trkpt>
      <trkpt lat="46.08947" lon="4.64691">
        <ele>289.8</ele>
        <time>2022-06-25T18:03:20Z</time>
      </trkpt>
      <trkpt lat="46.08947" lon="4.64692">
        <ele>289.8</ele>
        <time>2022-06-25T18:03:22Z</time>
      </trkpt>
      <trkpt lat="46.08947" lon="4.64692">
        <ele>289.8</ele>
        <time>2022-06-25T18:03:23Z</time>
      </trkpt>
      <trkpt lat="46.08947" lon="4.64692">
        <ele>289.8</ele>
        <time>2022-06-25T18:03:25Z</time>
      </trkpt>
      <trkpt lat="46.08947" lon="4.64693">
        <ele>289.8</ele>
        <time>2022-06-25T18:03:26Z</time>
      </trkpt>
      <trkpt lat="46.08947" lon="4.64693">
        <ele>289.8</ele>
        <time>2022-06-25T18:03:28Z</time>
      </trkpt>
      <trkpt lat="46.08947" lon="4.64694">
        <ele>289.8</ele>
        <time>2022-06-25T18:03:30Z</time>
      </trkpt>
      <trkpt lat="46.08947" lon="4.64694">
        <ele>289.8</ele>
        <time>2022-06-25T18:03:31Z</time>
      </trkpt>
      <trkpt lat="46.08947" lon="4.64694">
        <ele>289.8</ele>
        <time>2022-06-25T18:03:33Z</time>
      </trkpt>
      <trkpt lat="46.08947" lon="4.64695">
        <ele>289.8</ele>
        <time>2022-06-25T18:03:34Z</time>
      </trkpt>
      <trkpt lat="46.08947" lon="4.64695">
        <ele>289.8</ele>
        <time>2022-06-25T18:03:36Z</time>
      </trkpt>
      <trkpt lat="46.08947" lon="4.64695">
        <ele>289.8</ele>
        <time>2022-06-25T18:03:38Z</time>
      </trkpt>
      <trkpt lat="46.08947" lon="4.64696">
        <ele>289.8</ele>
        <time>2022-06-25T18:03:42Z</time>
      </trkpt>
      <trkpt lat="46.08947" lon="4.64696">
        <ele>289.8</ele>
        <time>2022-06-25T18:03:44Z</time>
      </trkpt>
      <trkpt lat="46.08947" lon="4.64697">
        <ele>289.8</ele>
        <time>2022-06-25T18:03:46Z</time>
      </trkpt>
      <trkpt lat="46.08947" lon="4.64697">
        <ele>289.8</ele>
        <time>2022-06-25T18:03:47Z</time>
      </trkpt>
      <trkpt lat="46.08947" lon="4.64697">
        <ele>289.8</ele>
        <time>2022-06-25T18:03:54Z</time>
      </trkpt>
      <trkpt lat="46.08947" lon="4.64698">
        <ele>289.6</ele>
        <time>2022-06-25T18:03:56Z</time>
      </trkpt>
      <trkpt lat="46.08947" lon="4.64698">
        <ele>289.6</ele>
        <time>2022-06-25T18:03:58Z</time>
      </trkpt>
      <trkpt lat="46.08947" lon="4.64699">
        <ele>289.6</ele>
        <time>2022-06-25T18:04:00Z</time>
      </trkpt>
      <trkpt lat="46.08947" lon="4.64699">
        <ele>289.6</ele>
        <time>2022-06-25T18:04:01Z</time>
      </trkpt>
      <trkpt lat="46.08947" lon="4.64699">
        <ele>289.6</ele>
        <time>2022-06-25T18:04:03Z</time>
      </trkpt>
      <trkpt lat="46.08947" lon="4.647">
        <ele>289.6</ele>
        <time>2022-06-25T18:04:04Z</time>
      </trkpt>
      <trkpt lat="46.08947" lon="4.647">
        <ele>289.6</ele>
        <time>2022-06-25T18:04:06Z</time>
      </trkpt>
      <trkpt lat="46.08947" lon="4.64698">
        <ele>289.6</ele>
        <time>2022-06-25T18:04:07Z</time>
      </trkpt>
      <trkpt lat="46.08947" lon="4.64697">
        <ele>289.6</ele>
        <time>2022-06-25T18:04:08Z</time>
      </trkpt>
      <trkpt lat="46.08947" lon="4.64695">
        <ele>289.6</ele>
        <time>2022-06-25T18:04:09Z</time>
      </trkpt>
      <trkpt lat="46.08947" lon="4.64694">
        <ele>289.6</ele>
        <time>2022-06-25T18:04:10Z</time>
      </trkpt>
      <trkpt lat="46.08947" lon="4.64692">
        <ele>289.6</ele>
        <time>2022-06-25T18:04:11Z</time>
      </trkpt>
      <trkpt lat="46.08947" lon="4.64691">
        <ele>289.6</ele>
        <time>2022-06-25T18:04:14Z</time>
      </trkpt>
      <trkpt lat="46.08947" lon="4.6469">
        <ele>289.6</ele>
        <time>2022-06-25T18:04:15Z</time>
      </trkpt>
      <trkpt lat="46.08947" lon="4.64688">
        <ele>289.6</ele>
        <time>2022-06-25T18:04:16Z</time>
      </trkpt>
      <trkpt lat="46.08947" lon="4.64687">
        <ele>289.6</ele>
        <time>2022-06-25T18:04:17Z</time>
      </trkpt>
      <trkpt lat="46.08947" lon="4.64683">
        <ele>289.6</ele>
        <time>2022-06-25T18:04:18Z</time>
      </trkpt>
      <trkpt lat="46.08948" lon="4.64681">
        <ele>289.6</ele>
        <time>2022-06-25T18:04:19Z</time>
      </trkpt>
      <trkpt lat="46.08948" lon="4.6468">
        <ele>289.6</ele>
        <time>2022-06-25T18:04:20Z</time>
      </trkpt>
      <trkpt lat="46.08949" lon="4.6468">
        <ele>289.6</ele>
        <time>2022-06-25T18:04:21Z</time>
      </trkpt>
      <trkpt lat="46.0895" lon="4.64679">
        <ele>289.6</ele>
        <time>2022-06-25T18:04:24Z</time>
      </trkpt>
      <trkpt lat="46.0895" lon="4.64679">
        <ele>289.6</ele>
        <time>2022-06-25T18:04:25Z</time>
      </trkpt>
      <trkpt lat="46.0895" lon="4.64678">
        <ele>289.6</ele>
        <time>2022-06-25T18:04:26Z</time>
      </trkpt>
      <trkpt lat="46.08951" lon="4.64678">
        <ele>289.6</ele>
        <time>2022-06-25T18:04:27Z</time>
      </trkpt>
      <trkpt lat="46.08951" lon="4.64677">
        <ele>289.6</ele>
        <time>2022-06-25T18:04:28Z</time>
      </trkpt>
      <trkpt lat="46.08952" lon="4.64677">
        <ele>289.6</ele>
        <time>2022-06-25T18:04:29Z</time>
      </trkpt>
      <trkpt lat="46.08953" lon="4.64676">
        <ele>289.6</ele>
        <time>2022-06-25T18:04:31Z</time>
      </trkpt>
      <trkpt lat="46.08953" lon="4.64676">
        <ele>289.6</ele>
        <time>2022-06-25T18:04:32Z</time>
      </trkpt>
      <trkpt lat="46.08953" lon="4.64675">
        <ele>289.6</ele>
        <time>2022-06-25T18:04:33Z</time>
      </trkpt>
      <trkpt lat="46.08954" lon="4.64675">
        <ele>289.2</ele>
        <time>2022-06-25T18:04:34Z</time>
      </trkpt>
      <trkpt lat="46.08955" lon="4.64674">
        <ele>289.2</ele>
        <time>2022-06-25T18:04:36Z</time>
      </trkpt>
      <trkpt lat="46.08955" lon="4.64674">
        <ele>288.8</ele>
        <time>2022-06-25T18:04:37Z</time>
      </trkpt>
      <trkpt lat="46.08957" lon="4.64674">
        <ele>288.8</ele>
        <time>2022-06-25T18:04:38Z</time>
      </trkpt>
      <trkpt lat="46.08958" lon="4.64674">
        <ele>288.8</ele>
        <time>2022-06-25T18:04:39Z</time>
      </trkpt>
      <trkpt lat="46.08959" lon="4.64674">
        <ele>288.6</ele>
        <time>2022-06-25T18:04:40Z</time>
      </trkpt>
      <trkpt lat="46.0896" lon="4.64674">
        <ele>288.6</ele>
        <time>2022-06-25T18:04:41Z</time>
      </trkpt>
      <trkpt lat="46.08961" lon="4.64674">
        <ele>288.6</ele>
        <time>2022-06-25T18:04:43Z</time>
      </trkpt>
      <trkpt lat="46.08962" lon="4.64675">
        <ele>288.6</ele>
        <time>2022-06-25T18:04:44Z</time>
      </trkpt>
      <trkpt lat="46.08963" lon="4.64675">
        <ele>288.6</ele>
        <time>2022-06-25T18:04:45Z</time>
      </trkpt>
      <trkpt lat="46.08964" lon="4.64675">
        <ele>288.6</ele>
        <time>2022-06-25T18:04:46Z</time>
      </trkpt>
      <trkpt lat="46.08965" lon="4.64675">
        <ele>288.6</ele>
        <time>2022-06-25T18:04:47Z</time>
      </trkpt>
      <trkpt lat="46.08966" lon="4.64675">
        <ele>288.6</ele>
        <time>2022-06-25T18:04:48Z</time>
      </trkpt>
      <trkpt lat="46.08967" lon="4.64675">
        <ele>288.6</ele>
        <time>2022-06-25T18:04:49Z</time>
      </trkpt>
      <trkpt lat="46.08968" lon="4.64675">
        <ele>288.6</ele>
        <time>2022-06-25T18:04:50Z</time>
      </trkpt>
      <trkpt lat="46.08969" lon="4.64675">
        <ele>288.6</ele>
        <time>2022-06-25T18:04:51Z</time>
      </trkpt>
      <trkpt lat="46.0897" lon="4.64675">
        <ele>288.6</ele>
        <time>2022-06-25T18:04:52Z</time>
      </trkpt>
      <trkpt lat="46.08971" lon="4.64675">
        <ele>288.6</ele>
        <time>2022-06-25T18:04:53Z</time>
      </trkpt>
      <trkpt lat="46.08973" lon="4.64675">
        <ele>288.6</ele>
        <time>2022-06-25T18:04:54Z</time>
      </trkpt>
      <trkpt lat="46.08972" lon="4.64688">
        <ele>288.6</ele>
        <time>2022-06-25T18:05:09Z</time>
      </trkpt>
      <trkpt lat="46.08972" lon="4.64689">
        <ele>288.6</ele>
        <time>2022-06-25T18:05:10Z</time>
      </trkpt>
      <trkpt lat="46.08973" lon="4.64689">
        <ele>288.6</ele>
        <time>2022-06-25T18:05:12Z</time>
      </trkpt>
      <trkpt lat="46.08966" lon="4.64699">
        <ele>288.6</ele>
        <time>2022-06-25T18:05:21Z</time>
      </trkpt>
      <trkpt lat="46.0896" lon="4.64702">
        <ele>288.6</ele>
        <time>2022-06-25T18:05:22Z</time>
      </trkpt>
      <trkpt lat="46.08958" lon="4.64703">
        <ele>288.6</ele>
        <time>2022-06-25T18:05:23Z</time>
      </trkpt>
      <trkpt lat="46.08957" lon="4.64702">
        <ele>288.6</ele>
        <time>2022-06-25T18:05:24Z</time>
      </trkpt>
      <trkpt lat="46.08958" lon="4.64701">
        <ele>288.6</ele>
        <time>2022-06-25T18:05:25Z</time>
      </trkpt>
      <trkpt lat="46.08958" lon="4.647">
        <ele>288.6</ele>
        <time>2022-06-25T18:05:26Z</time>
      </trkpt>
      <trkpt lat="46.08959" lon="4.64698">
        <ele>288.6</ele>
        <time>2022-06-25T18:05:27Z</time>
      </trkpt>
      <trkpt lat="46.08959" lon="4.64697">
        <ele>288.6</ele>
        <time>2022-06-25T18:05:29Z</time>
      </trkpt>
      <trkpt lat="46.0896" lon="4.64696">
        <ele>288.6</ele>
        <time>2022-06-25T18:05:30Z</time>
      </trkpt>
      <trkpt lat="46.08961" lon="4.64695">
        <ele>288.6</ele>
        <time>2022-06-25T18:05:31Z</time>
      </trkpt>
      <trkpt lat="46.08961" lon="4.64693">
        <ele>288.6</ele>
        <time>2022-06-25T18:05:32Z</time>
      </trkpt>
      <trkpt lat="46.08962" lon="4.64692">
        <ele>288.6</ele>
        <time>2022-06-25T18:05:33Z</time>
      </trkpt>
      <trkpt lat="46.08964" lon="4.64689">
        <ele>288.6</ele>
        <time>2022-06-25T18:05:34Z</time>
      </trkpt>
      <trkpt lat="46.08965" lon="4.64687">
        <ele>288.6</ele>
        <time>2022-06-25T18:05:35Z</time>
      </trkpt>
      <trkpt lat="46.08967" lon="4.64686">
        <ele>288.6</ele>
        <time>2022-06-25T18:05:36Z</time>
      </trkpt>
      <trkpt lat="46.08968" lon="4.64684">
        <ele>288.6</ele>
        <time>2022-06-25T18:05:37Z</time>
      </trkpt>
      <trkpt lat="46.0897" lon="4.64682">
        <ele>288.6</ele>
        <time>2022-06-25T18:05:38Z</time>
      </trkpt>
      <trkpt lat="46.08971" lon="4.6468">
        <ele>288.6</ele>
        <time>2022-06-25T18:05:39Z</time>
      </trkpt>
      <trkpt lat="46.08979" lon="4.64674">
        <ele>288.6</ele>
        <time>2022-06-25T18:05:40Z</time>
      </trkpt>
      <trkpt lat="46.08983" lon="4.64672">
        <ele>288.6</ele>
        <time>2022-06-25T18:05:41Z</time>
      </trkpt>
      <trkpt lat="46.08986" lon="4.64668">
        <ele>288.6</ele>
        <time>2022-06-25T18:05:42Z</time>
      </trkpt>
      <trkpt lat="46.08988" lon="4.64666">
        <ele>288.6</ele>
        <time>2022-06-25T18:05:43Z</time>
      </trkpt>
      <trkpt lat="46.08989" lon="4.64664">
        <ele>288.6</ele>
        <time>2022-06-25T18:05:44Z</time>
      </trkpt>
      <trkpt lat="46.08991" lon="4.64663">
        <ele>288.6</ele>
        <time>2022-06-25T18:05:45Z</time>
      </trkpt>
      <trkpt lat="46.08997" lon="4.64657">
        <ele>288.6</ele>
        <time>2022-06-25T18:05:46Z</time>
      </trkpt>
      <trkpt lat="46.08998" lon="4.64656">
        <ele>288.6</ele>
        <time>2022-06-25T18:05:47Z</time>
      </trkpt>
      <trkpt lat="46.08999" lon="4.64657">
        <ele>288.6</ele>
        <time>2022-06-25T18:05:48Z</time>
      </trkpt>
      <trkpt lat="46.09" lon="4.64657">
        <ele>288.6</ele>
        <time>2022-06-25T18:05:49Z</time>
      </trkpt>
      <trkpt lat="46.09002" lon="4.64655">
        <ele>288.6</ele>
        <time>2022-06-25T18:05:50Z</time>
      </trkpt>
      <trkpt lat="46.09004" lon="4.64654">
        <ele>288.6</ele>
        <time>2022-06-25T18:05:51Z</time>
      </trkpt>
      <trkpt lat="46.09005" lon="4.64652">
        <ele>288.6</ele>
        <time>2022-06-25T18:05:52Z</time>
      </trkpt>
      <trkpt lat="46.09006" lon="4.64652">
        <ele>288.6</ele>
        <time>2022-06-25T18:05:53Z</time>
      </trkpt>
      <trkpt lat="46.09007" lon="4.6465">
        <ele>288.6</ele>
        <time>2022-06-25T18:05:55Z</time>
      </trkpt>
      <trkpt lat="46.09007" lon="4.64649">
        <ele>288.6</ele>
        <time>2022-06-25T18:05:56Z</time>
      </trkpt>
      <trkpt lat="46.09008" lon="4.64648">
        <ele>288.6</ele>
        <time>2022-06-25T18:05:57Z</time>
      </trkpt>
      <trkpt lat="46.09009" lon="4.64647">
        <ele>288.8</ele>
        <time>2022-06-25T18:05:58Z</time>
      </trkpt>
      <trkpt lat="46.09009" lon="4.64645">
        <ele>288.8</ele>
        <time>2022-06-25T18:06:00Z</time>
      </trkpt>
      <trkpt lat="46.0901" lon="4.64645">
        <ele>288.8</ele>
        <time>2022-06-25T18:06:01Z</time>
      </trkpt>
      <trkpt lat="46.0901" lon="4.64644">
        <ele>288.8</ele>
        <time>2022-06-25T18:06:02Z</time>
      </trkpt>
      <trkpt lat="46.0901" lon="4.64643">
        <ele>288.8</ele>
        <time>2022-06-25T18:06:03Z</time>
      </trkpt>
      <trkpt lat="46.0901" lon="4.64644">
        <ele>288.8</ele>
        <time>2022-06-25T18:06:04Z</time>
      </trkpt>
      <trkpt lat="46.09009" lon="4.64644">
        <ele>288.8</ele>
        <time>2022-06-25T18:06:05Z</time>
      </trkpt>
      <trkpt lat="46.09008" lon="4.64646">
        <ele>288.8</ele>
        <time>2022-06-25T18:06:06Z</time>
      </trkpt>
      <trkpt lat="46.09007" lon="4.64647">
        <ele>288.8</ele>
        <time>2022-06-25T18:06:07Z</time>
      </trkpt>
      <trkpt lat="46.09006" lon="4.64649">
        <ele>288.8</ele>
        <time>2022-06-25T18:06:08Z</time>
      </trkpt>
      <trkpt lat="46.09004" lon="4.6465">
        <ele>288.8</ele>
        <time>2022-06-25T18:06:09Z</time>
      </trkpt>
      <trkpt lat="46.09003" lon="4.64652">
        <ele>288.8</ele>
        <time>2022-06-25T18:06:10Z</time>
      </trkpt>
      <trkpt lat="46.09" lon="4.64655">
        <ele>288.8</ele>
        <time>2022-06-25T18:06:11Z</time>
      </trkpt>
      <trkpt lat="46.08998" lon="4.64657">
        <ele>288.8</ele>
        <time>2022-06-25T18:06:12Z</time>
      </trkpt>
      <trkpt lat="46.08985" lon="4.64676">
        <ele>288.8</ele>
        <time>2022-06-25T18:06:20Z</time>
      </trkpt>
      <trkpt lat="46.08984" lon="4.64677">
        <ele>288.8</ele>
        <time>2022-06-25T18:06:21Z</time>
      </trkpt>
      <trkpt lat="46.08982" lon="4.64679">
        <ele>288.8</ele>
        <time>2022-06-25T18:06:22Z</time>
      </trkpt>
      <trkpt lat="46.08981" lon="4.64681">
        <ele>288.8</ele>
        <time>2022-06-25T18:06:23Z</time>
      </trkpt>
      <trkpt lat="46.0898" lon="4.64683">
        <ele>288.8</ele>
        <time>2022-06-25T18:06:24Z</time>
      </trkpt>
      <trkpt lat="46.08979" lon="4.64686">
        <ele>288.8</ele>
        <time>2022-06-25T18:06:25Z</time>
      </trkpt>
      <trkpt lat="46.0892" lon="4.64673">
        <ele>286</ele>
        <time>2022-06-25T19:09:31Z</time>
      </trkpt>
      <trkpt lat="46.08938" lon="4.64689">
        <ele>286.8</ele>
        <time>2022-06-25T19:10:01Z</time>
      </trkpt>
      <trkpt lat="46.08942" lon="4.64689">
        <ele>286.8</ele>
        <time>2022-06-25T19:10:02Z</time>
      </trkpt>
      <trkpt lat="46.08943" lon="4.64689">
        <ele>286.8</ele>
        <time>2022-06-25T19:10:03Z</time>
      </trkpt>
      <trkpt lat="46.08944" lon="4.64688">
        <ele>286.8</ele>
        <time>2022-06-25T19:10:04Z</time>
      </trkpt>
      <trkpt lat="46.08945" lon="4.64687">
        <ele>287</ele>
        <time>2022-06-25T19:10:06Z</time>
      </trkpt>
      <trkpt lat="46.08945" lon="4.64686">
        <ele>287</ele>
        <time>2022-06-25T19:10:07Z</time>
      </trkpt>
      <trkpt lat="46.08946" lon="4.64685">
        <ele>287.2</ele>
        <time>2022-06-25T19:10:08Z</time>
      </trkpt>
      <trkpt lat="46.08947" lon="4.64685">
        <ele>287.2</ele>
        <time>2022-06-25T19:10:09Z</time>
      </trkpt>
      <trkpt lat="46.08947" lon="4.64684">
        <ele>287</ele>
        <time>2022-06-25T19:10:28Z</time>
      </trkpt>
      <trkpt lat="46.08948" lon="4.64683">
        <ele>287</ele>
        <time>2022-06-25T19:10:29Z</time>
      </trkpt>
      <trkpt lat="46.08949" lon="4.64682">
        <ele>287</ele>
        <time>2022-06-25T19:10:30Z</time>
      </trkpt>
      <trkpt lat="46.08949" lon="4.64681">
        <ele>287</ele>
        <time>2022-06-25T19:10:32Z</time>
      </trkpt>
      <trkpt lat="46.08949" lon="4.64681">
        <ele>287</ele>
        <time>2022-06-25T19:10:33Z</time>
      </trkpt>
      <trkpt lat="46.08948" lon="4.64682">
        <ele>287.2</ele>
        <time>2022-06-25T19:10:35Z</time>
      </trkpt>
      <trkpt lat="46.08948" lon="4.64682">
        <ele>287.2</ele>
        <time>2022-06-25T19:10:36Z</time>
      </trkpt>
      <trkpt lat="46.08948" lon="4.64682">
        <ele>287.2</ele>
        <time>2022-06-25T19:10:38Z</time>
      </trkpt>
      <trkpt lat="46.08948" lon="4.64683">
        <ele>287.2</ele>
        <time>2022-06-25T19:10:40Z</time>
      </trkpt>
      <trkpt lat="46.08947" lon="4.64683">
        <ele>287</ele>
        <time>2022-06-25T19:10:44Z</time>
      </trkpt>
      <trkpt lat="46.08947" lon="4.64683">
        <ele>287</ele>
        <time>2022-06-25T19:10:45Z</time>
      </trkpt>
      <trkpt lat="46.08947" lon="4.64684">
        <ele>287</ele>
        <time>2022-06-25T19:10:47Z</time>
      </trkpt>
      <trkpt lat="46.08947" lon="4.64684">
        <ele>287</ele>
        <time>2022-06-25T19:10:49Z</time>
      </trkpt>
      <trkpt lat="46.08947" lon="4.64685">
        <ele>287</ele>
        <time>2022-06-25T19:10:50Z</time>
      </trkpt>
      <trkpt lat="46.08946" lon="4.64685">
        <ele>287</ele>
        <time>2022-06-25T19:10:51Z</time>
      </trkpt>
      <trkpt lat="46.08946" lon="4.64685">
        <ele>287</ele>
        <time>2022-06-25T19:10:53Z</time>
      </trkpt>
      <trkpt lat="46.08946" lon="4.64686">
        <ele>286.6</ele>
        <time>2022-06-25T19:10:54Z</time>
      </trkpt>
      <trkpt lat="46.08946" lon="4.64686">
        <ele>286.6</ele>
        <time>2022-06-25T19:10:56Z</time>
      </trkpt>
      <trkpt lat="46.08945" lon="4.64687">
        <ele>286.8</ele>
        <time>2022-06-25T19:10:58Z</time>
      </trkpt>
      <trkpt lat="46.08945" lon="4.64687">
        <ele>286.8</ele>
        <time>2022-06-25T19:10:59Z</time>
      </trkpt>
      <trkpt lat="46.08945" lon="4.64687">
        <ele>287</ele>
        <time>2022-06-25T19:11:04Z</time>
      </trkpt>
      <trkpt lat="46.08941" lon="4.64696">
        <ele>287</ele>
        <time>2022-06-25T19:11:05Z</time>
      </trkpt>
      <trkpt lat="46.08941" lon="4.64697">
        <ele>287</ele>
        <time>2022-06-25T19:11:06Z</time>
      </trkpt>
      <trkpt lat="46.08941" lon="4.64698">
        <ele>287</ele>
        <time>2022-06-25T19:11:07Z</time>
      </trkpt>
      <trkpt lat="46.08941" lon="4.647">
        <ele>287</ele>
        <time>2022-06-25T19:11:08Z</time>
      </trkpt>
      <trkpt lat="46.0894" lon="4.64701">
        <ele>287</ele>
        <time>2022-06-25T19:11:09Z</time>
      </trkpt>
      <trkpt lat="46.0894" lon="4.64703">
        <ele>287</ele>
        <time>2022-06-25T19:11:10Z</time>
      </trkpt>
      <trkpt lat="46.0894" lon="4.64704">
        <ele>287</ele>
        <time>2022-06-25T19:11:11Z</time>
      </trkpt>
      <trkpt lat="46.0894" lon="4.64705">
        <ele>287</ele>
        <time>2022-06-25T19:11:12Z</time>
      </trkpt>
      <trkpt lat="46.08939" lon="4.64707">
        <ele>287</ele>
        <time>2022-06-25T19:11:13Z</time>
      </trkpt>
      <trkpt lat="46.08939" lon="4.64708">
        <ele>287</ele>
        <time>2022-06-25T19:11:14Z</time>
      </trkpt>
      <trkpt lat="46.08939" lon="4.64709">
        <ele>287</ele>
        <time>2022-06-25T19:11:17Z</time>
      </trkpt>
      <trkpt lat="46.08939" lon="4.64711">
        <ele>287</ele>
        <time>2022-06-25T19:11:18Z</time>
      </trkpt>
      <trkpt lat="46.08938" lon="4.64712">
        <ele>287</ele>
        <time>2022-06-25T19:11:19Z</time>
      </trkpt>
      <trkpt lat="46.08954" lon="4.64727">
        <ele>287</ele>
        <time>2022-06-25T19:11:27Z</time>
      </trkpt>
      <trkpt lat="46.08957" lon="4.64728">
        <ele>287</ele>
        <time>2022-06-25T19:11:28Z</time>
      </trkpt>
      <trkpt lat="46.08959" lon="4.64728">
        <ele>287</ele>
        <time>2022-06-25T19:11:29Z</time>
      </trkpt>
      <trkpt lat="46.08957" lon="4.64719">
        <ele>287</ele>
        <time>2022-06-25T19:11:30Z</time>
      </trkpt>
      <trkpt lat="46.08955" lon="4.64713">
        <ele>287</ele>
        <time>2022-06-25T19:11:31Z</time>
      </trkpt>
      <trkpt lat="46.08954" lon="4.64707">
        <ele>287</ele>
        <time>2022-06-25T19:11:32Z</time>
      </trkpt>
      <trkpt lat="46.08949" lon="4.64688">
        <ele>287</ele>
        <time>2022-06-25T19:11:33Z</time>
      </trkpt>
      <trkpt lat="46.08949" lon="4.64688">
        <ele>287</ele>
        <time>2022-06-25T19:11:36Z</time>
      </trkpt>
      <trkpt lat="46.08949" lon="4.64688">
        <ele>287</ele>
        <time>2022-06-25T19:11:40Z</time>
      </trkpt>
      <trkpt lat="46.0895" lon="4.64688">
        <ele>287</ele>
        <time>2022-06-25T19:11:43Z</time>
      </trkpt>
      <trkpt lat="46.0895" lon="4.64689">
        <ele>287</ele>
        <time>2022-06-25T19:11:46Z</time>
      </trkpt>
      <trkpt lat="46.0895" lon="4.64689">
        <ele>287</ele>
        <time>2022-06-25T19:11:53Z</time>
      </trkpt>
      <trkpt lat="46.0895" lon="4.64689">
        <ele>287</ele>
        <time>2022-06-25T19:11:59Z</time>
      </trkpt>
      <trkpt lat="46.0895" lon="4.64689">
        <ele>287</ele>
        <time>2022-06-25T19:12:03Z</time>
      </trkpt>
      <trkpt lat="46.0895" lon="4.64689">
        <ele>287</ele>
        <time>2022-06-25T19:12:12Z</time>
      </trkpt>
      <trkpt lat="46.0895" lon="4.64689">
        <ele>287.2</ele>
        <time>2022-06-25T19:12:19Z</time>
      </trkpt>
      <trkpt lat="46.0895" lon="4.64689">
        <ele>287.2</ele>
        <time>2022-06-25T19:12:22Z</time>
      </trkpt>
      <trkpt lat="46.0895" lon="4.6469">
        <ele>287.2</ele>
        <time>2022-06-25T19:12:25Z</time>
      </trkpt>
      <trkpt lat="46.0895" lon="4.6469">
        <ele>287.2</ele>
        <time>2022-06-25T19:12:28Z</time>
      </trkpt>
      <trkpt lat="46.08951" lon="4.6469">
        <ele>287.2</ele>
        <time>2022-06-25T19:12:42Z</time>
      </trkpt>
      <trkpt lat="46.08951" lon="4.6469">
        <ele>287.2</ele>
        <time>2022-06-25T19:12:45Z</time>
      </trkpt>
      <trkpt lat="46.08951" lon="4.6469">
        <ele>287.2</ele>
        <time>2022-06-25T19:12:51Z</time>
      </trkpt>
      <trkpt lat="46.08951" lon="4.6469">
        <ele>287.2</ele>
        <time>2022-06-25T19:12:54Z</time>
      </trkpt>
      <trkpt lat="46.08951" lon="4.6469">
        <ele>287.4</ele>
        <time>2022-06-25T19:12:57Z</time>
      </trkpt>
      <trkpt lat="46.08951" lon="4.6469">
        <ele>287.4</ele>
        <time>2022-06-25T19:13:08Z</time>
      </trkpt>
      <trkpt lat="46.08951" lon="4.6469">
        <ele>287.4</ele>
        <time>2022-06-25T19:13:11Z</time>
      </trkpt>
      <trkpt lat="46.08951" lon="4.64691">
        <ele>287.4</ele>
        <time>2022-06-25T19:13:17Z</time>
      </trkpt>
      <trkpt lat="46.08951" lon="4.64691">
        <ele>287</ele>
        <time>2022-06-25T19:13:20Z</time>
      </trkpt>
      <trkpt lat="46.08951" lon="4.64691">
        <ele>287.4</ele>
        <time>2022-06-25T19:13:22Z</time>
      </trkpt>
      <trkpt lat="46.08951" lon="4.64691">
        <ele>287.4</ele>
        <time>2022-06-25T19:13:26Z</time>
      </trkpt>
      <trkpt lat="46.08951" lon="4.64691">
        <ele>287.4</ele>
        <time>2022-06-25T19:13:32Z</time>
      </trkpt>
      <trkpt lat="46.08952" lon="4.64691">
        <ele>287.4</ele>
        <time>2022-06-25T19:13:33Z</time>
      </trkpt>
      <trkpt lat="46.08952" lon="4.64691">
        <ele>287.4</ele>
        <time>2022-06-25T19:13:36Z</time>
      </trkpt>
      <trkpt lat="46.08952" lon="4.64691">
        <ele>287.8</ele>
        <time>2022-06-25T19:13:43Z</time>
      </trkpt>
      <trkpt lat="46.08952" lon="4.64691">
        <ele>287.6</ele>
        <time>2022-06-25T19:13:47Z</time>
      </trkpt>
      <trkpt lat="46.08952" lon="4.64692">
        <ele>287.6</ele>
        <time>2022-06-25T19:13:49Z</time>
      </trkpt>
      <trkpt lat="46.08952" lon="4.64692">
        <ele>287.6</ele>
        <time>2022-06-25T19:13:58Z</time>
      </trkpt>
      <trkpt lat="46.08952" lon="4.64692">
        <ele>287.6</ele>
        <time>2022-06-25T19:14:01Z</time>
      </trkpt>
      <trkpt lat="46.08952" lon="4.64692">
        <ele>287.6</ele>
        <time>2022-06-25T19:14:04Z</time>
      </trkpt>
      <trkpt lat="46.08952" lon="4.64692">
        <ele>287.6</ele>
        <time>2022-06-25T19:14:07Z</time>
      </trkpt>
      <trkpt lat="46.08952" lon="4.64692">
        <ele>287.6</ele>
        <time>2022-06-25T19:14:11Z</time>
      </trkpt>
      <trkpt lat="46.08952" lon="4.64692">
        <ele>287.6</ele>
        <time>2022-06-25T19:14:17Z</time>
      </trkpt>
      <trkpt lat="46.08953" lon="4.64692">
        <ele>287.6</ele>
        <time>2022-06-25T19:14:22Z</time>
      </trkpt>
      <trkpt lat="46.08953" lon="4.64692">
        <ele>287.8</ele>
        <time>2022-06-25T19:14:24Z</time>
      </trkpt>
      <trkpt lat="46.08953" lon="4.64693">
        <ele>287.6</ele>
        <time>2022-06-25T19:14:27Z</time>
      </trkpt>
      <trkpt lat="46.08953" lon="4.64693">
        <ele>287.8</ele>
        <time>2022-06-25T19:14:30Z</time>
      </trkpt>
      <trkpt lat="46.08953" lon="4.64693">
        <ele>287.6</ele>
        <time>2022-06-25T19:14:37Z</time>
      </trkpt>
      <trkpt lat="46.08953" lon="4.64693">
        <ele>287.6</ele>
        <time>2022-06-25T19:14:39Z</time>
      </trkpt>
      <trkpt lat="46.08955" lon="4.64693">
        <ele>287.6</ele>
        <time>2022-06-25T19:14:44Z</time>
      </trkpt>
      <trkpt lat="46.08956" lon="4.64694">
        <ele>287.6</ele>
        <time>2022-06-25T19:14:45Z</time>
      </trkpt>
      <trkpt lat="46.08958" lon="4.64695">
        <ele>287.8</ele>
        <time>2022-06-25T19:14:46Z</time>
      </trkpt>
      <trkpt lat="46.08959" lon="4.64697">
        <ele>287.8</ele>
        <time>2022-06-25T19:14:47Z</time>
      </trkpt>
      <trkpt lat="46.0896" lon="4.64699">
        <ele>287.8</ele>
        <time>2022-06-25T19:14:48Z</time>
      </trkpt>
      <trkpt lat="46.08961" lon="4.64702">
        <ele>287.8</ele>
        <time>2022-06-25T19:14:49Z</time>
      </trkpt>
      <trkpt lat="46.08962" lon="4.64705">
        <ele>288.2</ele>
        <time>2022-06-25T19:14:50Z</time>
      </trkpt>
      <trkpt lat="46.08963" lon="4.64708">
        <ele>288.2</ele>
        <time>2022-06-25T19:14:51Z</time>
      </trkpt>
      <trkpt lat="46.08963" lon="4.64711">
        <ele>288.2</ele>
        <time>2022-06-25T19:14:52Z</time>
      </trkpt>
      <trkpt lat="46.08963" lon="4.64713">
        <ele>288.2</ele>
        <time>2022-06-25T19:14:53Z</time>
      </trkpt>
      <trkpt lat="46.08963" lon="4.64715">
        <ele>288.2</ele>
        <time>2022-06-25T19:14:54Z</time>
      </trkpt>
      <trkpt lat="46.08962" lon="4.64717">
        <ele>288.2</ele>
        <time>2022-06-25T19:14:55Z</time>
      </trkpt>
      <trkpt lat="46.08961" lon="4.6472">
        <ele>288.2</ele>
        <time>2022-06-25T19:14:56Z</time>
      </trkpt>
      <trkpt lat="46.0896" lon="4.64723">
        <ele>288.2</ele>
        <time>2022-06-25T19:14:57Z</time>
      </trkpt>
      <trkpt lat="46.08959" lon="4.64726">
        <ele>288.2</ele>
        <time>2022-06-25T19:14:58Z</time>
      </trkpt>
      <trkpt lat="46.08958" lon="4.64729">
        <ele>288</ele>
        <time>2022-06-25T19:14:59Z</time>
      </trkpt>
      <trkpt lat="46.08957" lon="4.64732">
        <ele>288</ele>
        <time>2022-06-25T19:15:00Z</time>
      </trkpt>
      <trkpt lat="46.08956" lon="4.64735">
        <ele>288</ele>
        <time>2022-06-25T19:15:01Z</time>
      </trkpt>
      <trkpt lat="46.08956" lon="4.64738">
        <ele>287.6</ele>
        <time>2022-06-25T19:15:02Z</time>
      </trkpt>
      <trkpt lat="46.08955" lon="4.6474">
        <ele>287.6</ele>
        <time>2022-06-25T19:15:03Z</time>
      </trkpt>
      <trkpt lat="46.08955" lon="4.64742">
        <ele>287.4</ele>
        <time>2022-06-25T19:15:04Z</time>
      </trkpt>
      <trkpt lat="46.08954" lon="4.64744">
        <ele>287.4</ele>
        <time>2022-06-25T19:15:05Z</time>
      </trkpt>
      <trkpt lat="46.08954" lon="4.64746">
        <ele>287.2</ele>
        <time>2022-06-25T19:15:06Z</time>
      </trkpt>
      <trkpt lat="46.08956" lon="4.64746">
        <ele>287.2</ele>
        <time>2022-06-25T19:15:07Z</time>
      </trkpt>
      <trkpt lat="46.08957" lon="4.64746">
        <ele>287.2</ele>
        <time>2022-06-25T19:15:08Z</time>
      </trkpt>
      <trkpt lat="46.08958" lon="4.64744">
        <ele>287.2</ele>
        <time>2022-06-25T19:15:09Z</time>
      </trkpt>
      <trkpt lat="46.08958" lon="4.64741">
        <ele>287.2</ele>
        <time>2022-06-25T19:15:10Z</time>
      </trkpt>
      <trkpt lat="46.08959" lon="4.64739">
        <ele>287.2</ele>
        <time>2022-06-25T19:15:11Z</time>
      </trkpt>
      <trkpt lat="46.0896" lon="4.64736">
        <ele>287.2</ele>
        <time>2022-06-25T19:15:12Z</time>
      </trkpt>
      <trkpt lat="46.08962" lon="4.64733">
        <ele>287.4</ele>
        <time>2022-06-25T19:15:13Z</time>
      </trkpt>
      <trkpt lat="46.08963" lon="4.64731">
        <ele>287.4</ele>
        <time>2022-06-25T19:15:14Z</time>
      </trkpt>
      <trkpt lat="46.08966" lon="4.6473">
        <ele>287.8</ele>
        <time>2022-06-25T19:15:15Z</time>
      </trkpt>
      <trkpt lat="46.08968" lon="4.64729">
        <ele>287.8</ele>
        <time>2022-06-25T19:15:16Z</time>
      </trkpt>
      <trkpt lat="46.08971" lon="4.6473">
        <ele>288</ele>
        <time>2022-06-25T19:15:17Z</time>
      </trkpt>
      <trkpt lat="46.08973" lon="4.64732">
        <ele>288</ele>
        <time>2022-06-25T19:15:18Z</time>
      </trkpt>
      <trkpt lat="46.08976" lon="4.64734">
        <ele>288</ele>
        <time>2022-06-25T19:15:19Z</time>
      </trkpt>
      <trkpt lat="46.08978" lon="4.64737">
        <ele>288.4</ele>
        <time>2022-06-25T19:15:20Z</time>
      </trkpt>
      <trkpt lat="46.0898" lon="4.64741">
        <ele>288.4</ele>
        <time>2022-06-25T19:15:21Z</time>
      </trkpt>
      <trkpt lat="46.08983" lon="4.64745">
        <ele>288.4</ele>
        <time>2022-06-25T19:15:22Z</time>
      </trkpt>
      <trkpt lat="46.08985" lon="4.64748">
        <ele>288.4</ele>
        <time>2022-06-25T19:15:23Z</time>
      </trkpt>
      <trkpt lat="46.08987" lon="4.64752">
        <ele>288.8</ele>
        <time>2022-06-25T19:15:24Z</time>
      </trkpt>
      <trkpt lat="46.08989" lon="4.64755">
        <ele>288.8</ele>
        <time>2022-06-25T19:15:25Z</time>
      </trkpt>
      <trkpt lat="46.08991" lon="4.64759">
        <ele>288.8</ele>
        <time>2022-06-25T19:15:26Z</time>
      </trkpt>
      <trkpt lat="46.08993" lon="4.64763">
        <ele>288.8</ele>
        <time>2022-06-25T19:15:27Z</time>
      </trkpt>
      <trkpt lat="46.08996" lon="4.64766">
        <ele>288.8</ele>
        <time>2022-06-25T19:15:28Z</time>
      </trkpt>
      <trkpt lat="46.08999" lon="4.64768">
        <ele>288.8</ele>
        <time>2022-06-25T19:15:29Z</time>
      </trkpt>
      <trkpt lat="46.09001" lon="4.64768">
        <ele>288.8</ele>
        <time>2022-06-25T19:15:30Z</time>
      </trkpt>
      <trkpt lat="46.09004" lon="4.64767">
        <ele>288.8</ele>
        <time>2022-06-25T19:15:31Z</time>
      </trkpt>
      <trkpt lat="46.09006" lon="4.64765">
        <ele>289</ele>
        <time>2022-06-25T19:15:32Z</time>
      </trkpt>
      <trkpt lat="46.09008" lon="4.64763">
        <ele>289</ele>
        <time>2022-06-25T19:15:33Z</time>
      </trkpt>
      <trkpt lat="46.09009" lon="4.64761">
        <ele>289.2</ele>
        <time>2022-06-25T19:15:34Z</time>
      </trkpt>
      <trkpt lat="46.0901" lon="4.64758">
        <ele>289.4</ele>
        <time>2022-06-25T19:15:35Z</time>
      </trkpt>
      <trkpt lat="46.09011" lon="4.64756">
        <ele>289.4</ele>
        <time>2022-06-25T19:15:36Z</time>
      </trkpt>
      <trkpt lat="46.09012" lon="4.64754">
        <ele>289.4</ele>
        <time>2022-06-25T19:15:37Z</time>
      </trkpt>
      <trkpt lat="46.09013" lon="4.64751">
        <ele>289.6</ele>
        <time>2022-06-25T19:15:38Z</time>
      </trkpt>
      <trkpt lat="46.09012" lon="4.64749">
        <ele>289.6</ele>
        <time>2022-06-25T19:15:39Z</time>
      </trkpt>
      <trkpt lat="46.09012" lon="4.64747">
        <ele>289.6</ele>
        <time>2022-06-25T19:15:40Z</time>
      </trkpt>
      <trkpt lat="46.09011" lon="4.64745">
        <ele>289.6</ele>
        <time>2022-06-25T19:15:41Z</time>
      </trkpt>
      <trkpt lat="46.0901" lon="4.64744">
        <ele>289.8</ele>
        <time>2022-06-25T19:15:42Z</time>
      </trkpt>
      <trkpt lat="46.0901" lon="4.64743">
        <ele>289.8</ele>
        <time>2022-06-25T19:15:43Z</time>
      </trkpt>
      <trkpt lat="46.0901" lon="4.64742">
        <ele>289.8</ele>
        <time>2022-06-25T19:15:44Z</time>
      </trkpt>
      <trkpt lat="46.0901" lon="4.64742">
        <ele>289.6</ele>
        <time>2022-06-25T19:16:05Z</time>
      </trkpt>
      <trkpt lat="46.0901" lon="4.64742">
        <ele>289.6</ele>
        <time>2022-06-25T19:16:44Z</time>
      </trkpt>
      <trkpt lat="46.09009" lon="4.64747">
        <ele>289.6</ele>
        <time>2022-06-25T19:16:48Z</time>
      </trkpt>
      <trkpt lat="46.09009" lon="4.6475">
        <ele>289.6</ele>
        <time>2022-06-25T19:16:49Z</time>
      </trkpt>
      <trkpt lat="46.09008" lon="4.64753">
        <ele>289.6</ele>
        <time>2022-06-25T19:16:50Z</time>
      </trkpt>
      <trkpt lat="46.09007" lon="4.64757">
        <ele>289.6</ele>
        <time>2022-06-25T19:16:51Z</time>
      </trkpt>
      <trkpt lat="46.09005" lon="4.64759">
        <ele>289.4</ele>
        <time>2022-06-25T19:16:52Z</time>
      </trkpt>
      <trkpt lat="46.09004" lon="4.64762">
        <ele>289.4</ele>
        <time>2022-06-25T19:16:53Z</time>
      </trkpt>
      <trkpt lat="46.09002" lon="4.64764">
        <ele>289.2</ele>
        <time>2022-06-25T19:16:54Z</time>
      </trkpt>
      <trkpt lat="46.09001" lon="4.64765">
        <ele>289.2</ele>
        <time>2022-06-25T19:16:55Z</time>
      </trkpt>
      <trkpt lat="46.08999" lon="4.64766">
        <ele>289.2</ele>
        <time>2022-06-25T19:16:56Z</time>
      </trkpt>
      <trkpt lat="46.08997" lon="4.64765">
        <ele>289</ele>
        <time>2022-06-25T19:16:57Z</time>
      </trkpt>
      <trkpt lat="46.08995" lon="4.64763">
        <ele>289</ele>
        <time>2022-06-25T19:16:58Z</time>
      </trkpt>
      <trkpt lat="46.08994" lon="4.6476">
        <ele>289</ele>
        <time>2022-06-25T19:16:59Z</time>
      </trkpt>
      <trkpt lat="46.08992" lon="4.64757">
        <ele>289</ele>
        <time>2022-06-25T19:17:00Z</time>
      </trkpt>
      <trkpt lat="46.08991" lon="4.64753">
        <ele>289</ele>
        <time>2022-06-25T19:17:01Z</time>
      </trkpt>
      <trkpt lat="46.08989" lon="4.6475">
        <ele>289</ele>
        <time>2022-06-25T19:17:02Z</time>
      </trkpt>
      <trkpt lat="46.08987" lon="4.64746">
        <ele>289</ele>
        <time>2022-06-25T19:17:03Z</time>
      </trkpt>
      <trkpt lat="46.08985" lon="4.64742">
        <ele>289</ele>
        <time>2022-06-25T19:17:04Z</time>
      </trkpt>
      <trkpt lat="46.08982" lon="4.64738">
        <ele>289</ele>
        <time>2022-06-25T19:17:05Z</time>
      </trkpt>
      <trkpt lat="46.0898" lon="4.64734">
        <ele>289</ele>
        <time>2022-06-25T19:17:06Z</time>
      </trkpt>
      <trkpt lat="46.08978" lon="4.6473">
        <ele>289</ele>
        <time>2022-06-25T19:17:07Z</time>
      </trkpt>
      <trkpt lat="46.08976" lon="4.64727">
        <ele>289</ele>
        <time>2022-06-25T19:17:08Z</time>
      </trkpt>
      <trkpt lat="46.08974" lon="4.64724">
        <ele>289</ele>
        <time>2022-06-25T19:17:09Z</time>
      </trkpt>
      <trkpt lat="46.08971" lon="4.64721">
        <ele>288.6</ele>
        <time>2022-06-25T19:17:10Z</time>
      </trkpt>
      <trkpt lat="46.08968" lon="4.64719">
        <ele>288.6</ele>
        <time>2022-06-25T19:17:11Z</time>
      </trkpt>
      <trkpt lat="46.08965" lon="4.64719">
        <ele>288.6</ele>
        <time>2022-06-25T19:17:12Z</time>
      </trkpt>
      <trkpt lat="46.08962" lon="4.64722">
        <ele>288.4</ele>
        <time>2022-06-25T19:17:13Z</time>
      </trkpt>
      <trkpt lat="46.0896" lon="4.64726">
        <ele>288.2</ele>
        <time>2022-06-25T19:17:14Z</time>
      </trkpt>
      <trkpt lat="46.08957" lon="4.64731">
        <ele>288.2</ele>
        <time>2022-06-25T19:17:15Z</time>
      </trkpt>
      <trkpt lat="46.08955" lon="4.64738">
        <ele>288.2</ele>
        <time>2022-06-25T19:17:16Z</time>
      </trkpt>
      <trkpt lat="46.08954" lon="4.64744">
        <ele>287.8</ele>
        <time>2022-06-25T19:17:17Z</time>
      </trkpt>
      <trkpt lat="46.08952" lon="4.6475">
        <ele>287.6</ele>
        <time>2022-06-25T19:17:18Z</time>
      </trkpt>
      <trkpt lat="46.08948" lon="4.64762">
        <ele>287.6</ele>
        <time>2022-06-25T19:17:19Z</time>
      </trkpt>
      <trkpt lat="46.08947" lon="4.64765">
        <ele>287.4</ele>
        <time>2022-06-25T19:17:20Z</time>
      </trkpt>
      <trkpt lat="46.08946" lon="4.64768">
        <ele>287.4</ele>
        <time>2022-06-25T19:17:21Z</time>
      </trkpt>
      <trkpt lat="46.08945" lon="4.64774">
        <ele>287</ele>
        <time>2022-06-25T19:17:22Z</time>
      </trkpt>
      <trkpt lat="46.08944" lon="4.6478">
        <ele>286.8</ele>
        <time>2022-06-25T19:17:23Z</time>
      </trkpt>
      <trkpt lat="46.08942" lon="4.64785">
        <ele>286.8</ele>
        <time>2022-06-25T19:17:24Z</time>
      </trkpt>
      <trkpt lat="46.08941" lon="4.6479">
        <ele>286.2</ele>
        <time>2022-06-25T19:17:25Z</time>
      </trkpt>
      <trkpt lat="46.08939" lon="4.64794">
        <ele>286</ele>
        <time>2022-06-25T19:17:26Z</time>
      </trkpt>
      <trkpt lat="46.08938" lon="4.64798">
        <ele>285.8</ele>
        <time>2022-06-25T19:17:27Z</time>
      </trkpt>
      <trkpt lat="46.08936" lon="4.648">
        <ele>285.8</ele>
        <time>2022-06-25T19:17:28Z</time>
      </trkpt>
      <trkpt lat="46.08935" lon="4.64801">
        <ele>285.6</ele>
        <time>2022-06-25T19:17:29Z</time>
      </trkpt>
      <trkpt lat="46.08932" lon="4.64802">
        <ele>285.6</ele>
        <time>2022-06-25T19:17:30Z</time>
      </trkpt>
      <trkpt lat="46.0893" lon="4.64802">
        <ele>285.6</ele>
        <time>2022-06-25T19:17:31Z</time>
      </trkpt>
      <trkpt lat="46.08927" lon="4.64801">
        <ele>285</ele>
        <time>2022-06-25T19:17:32Z</time>
      </trkpt>
      <trkpt lat="46.08925" lon="4.64799">
        <ele>285</ele>
        <time>2022-06-25T19:17:33Z</time>
      </trkpt>
      <trkpt lat="46.08922" lon="4.64798">
        <ele>284.8</ele>
        <time>2022-06-25T19:17:34Z</time>
      </trkpt>
      <trkpt lat="46.0892" lon="4.64796">
        <ele>284.8</ele>
        <time>2022-06-25T19:17:35Z</time>
      </trkpt>
      <trkpt lat="46.08918" lon="4.64794">
        <ele>284.6</ele>
        <time>2022-06-25T19:17:36Z</time>
      </trkpt>
      <trkpt lat="46.08915" lon="4.64793">
        <ele>284.6</ele>
        <time>2022-06-25T19:17:37Z</time>
      </trkpt>
      <trkpt lat="46.08914" lon="4.64791">
        <ele>284.2</ele>
        <time>2022-06-25T19:17:38Z</time>
      </trkpt>
      <trkpt lat="46.08912" lon="4.64789">
        <ele>284.2</ele>
        <time>2022-06-25T19:17:39Z</time>
      </trkpt>
      <trkpt lat="46.0891" lon="4.64787">
        <ele>284.2</ele>
        <time>2022-06-25T19:17:40Z</time>
      </trkpt>
      <trkpt lat="46.08909" lon="4.64785">
        <ele>284.2</ele>
        <time>2022-06-25T19:17:41Z</time>
      </trkpt>
      <trkpt lat="46.08908" lon="4.64784">
        <ele>284</ele>
        <time>2022-06-25T19:17:42Z</time>
      </trkpt>
      <trkpt lat="46.08906" lon="4.64784">
        <ele>284</ele>
        <time>2022-06-25T19:17:43Z</time>
      </trkpt>
      <trkpt lat="46.08905" lon="4.64785">
        <ele>283.8</ele>
        <time>2022-06-25T19:17:45Z</time>
      </trkpt>
      <trkpt lat="46.08904" lon="4.64786">
        <ele>283.8</ele>
        <time>2022-06-25T19:17:46Z</time>
      </trkpt>
      <trkpt lat="46.08902" lon="4.64785">
        <ele>283.4</ele>
        <time>2022-06-25T19:17:47Z</time>
      </trkpt>
      <trkpt lat="46.089" lon="4.64785">
        <ele>283.2</ele>
        <time>2022-06-25T19:17:48Z</time>
      </trkpt>
      <trkpt lat="46.08898" lon="4.64784">
        <ele>283.2</ele>
        <time>2022-06-25T19:17:49Z</time>
      </trkpt>
      <trkpt lat="46.08895" lon="4.64782">
        <ele>283.2</ele>
        <time>2022-06-25T19:17:50Z</time>
      </trkpt>
      <trkpt lat="46.08893" lon="4.64779">
        <ele>283.2</ele>
        <time>2022-06-25T19:17:51Z</time>
      </trkpt>
      <trkpt lat="46.08891" lon="4.64776">
        <ele>283.2</ele>
        <time>2022-06-25T19:17:52Z</time>
      </trkpt>
      <trkpt lat="46.0889" lon="4.64772">
        <ele>283.2</ele>
        <time>2022-06-25T19:17:53Z</time>
      </trkpt>
      <trkpt lat="46.08889" lon="4.64768">
        <ele>283.2</ele>
        <time>2022-06-25T19:17:54Z</time>
      </trkpt>
      <trkpt lat="46.08888" lon="4.64764">
        <ele>283.2</ele>
        <time>2022-06-25T19:17:55Z</time>
      </trkpt>
      <trkpt lat="46.08888" lon="4.6476">
        <ele>283.2</ele>
        <time>2022-06-25T19:17:56Z</time>
      </trkpt>
      <trkpt lat="46.08887" lon="4.64756">
        <ele>283.2</ele>
        <time>2022-06-25T19:17:57Z</time>
      </trkpt>
      <trkpt lat="46.08887" lon="4.64752">
        <ele>283.2</ele>
        <time>2022-06-25T19:17:58Z</time>
      </trkpt>
      <trkpt lat="46.08887" lon="4.64749">
        <ele>283.2</ele>
        <time>2022-06-25T19:17:59Z</time>
      </trkpt>
      <trkpt lat="46.08887" lon="4.64746">
        <ele>283.2</ele>
        <time>2022-06-25T19:18:00Z</time>
      </trkpt>
      <trkpt lat="46.08887" lon="4.64743">
        <ele>283.2</ele>
        <time>2022-06-25T19:18:01Z</time>
      </trkpt>
      <trkpt lat="46.08887" lon="4.64743">
        <ele>283.2</ele>
        <time>2022-06-25T19:18:03Z</time>
      </trkpt>
      <trkpt lat="46.08887" lon="4.64742">
        <ele>283.2</ele>
        <time>2022-06-25T19:18:04Z</time>
      </trkpt>
      <trkpt lat="46.08887" lon="4.64742">
        <ele>283.2</ele>
        <time>2022-06-25T19:18:06Z</time>
      </trkpt>
      <trkpt lat="46.08887" lon="4.64742">
        <ele>283.2</ele>
        <time>2022-06-25T19:18:09Z</time>
      </trkpt>
      <trkpt lat="46.08887" lon="4.64741">
        <ele>283.2</ele>
        <time>2022-06-25T19:18:10Z</time>
      </trkpt>
      <trkpt lat="46.08887" lon="4.64741">
        <ele>283.2</ele>
        <time>2022-06-25T19:18:12Z</time>
      </trkpt>
      <trkpt lat="46.08887" lon="4.64741">
        <ele>283.2</ele>
        <time>2022-06-25T19:18:14Z</time>
      </trkpt>
      <trkpt lat="46.08887" lon="4.6474">
        <ele>283.2</ele>
        <time>2022-06-25T19:18:16Z</time>
      </trkpt>
      <trkpt lat="46.08887" lon="4.6474">
        <ele>283.2</ele>
        <time>2022-06-25T19:18:17Z</time>
      </trkpt>
      <trkpt lat="46.08887" lon="4.6474">
        <ele>283.2</ele>
        <time>2022-06-25T19:18:19Z</time>
      </trkpt>
      <trkpt lat="46.08887" lon="4.6474">
        <ele>283.2</ele>
        <time>2022-06-25T19:18:21Z</time>
      </trkpt>
      <trkpt lat="46.08887" lon="4.64739">
        <ele>283.2</ele>
        <time>2022-06-25T19:18:22Z</time>
      </trkpt>
      <trkpt lat="46.08887" lon="4.64739">
        <ele>283.2</ele>
        <time>2022-06-25T19:18:24Z</time>
      </trkpt>
      <trkpt lat="46.08887" lon="4.64739">
        <ele>283.2</ele>
        <time>2022-06-25T19:18:26Z</time>
      </trkpt>
      <trkpt lat="46.08887" lon="4.64738">
        <ele>283.2</ele>
        <time>2022-06-25T19:18:27Z</time>
      </trkpt>
      <trkpt lat="46.08887" lon="4.64738">
        <ele>283.2</ele>
        <time>2022-06-25T19:18:29Z</time>
      </trkpt>
      <trkpt lat="46.08887" lon="4.64738">
        <ele>283.2</ele>
        <time>2022-06-25T19:18:31Z</time>
      </trkpt>
      <trkpt lat="46.08887" lon="4.64737">
        <ele>283.2</ele>
        <time>2022-06-25T19:18:33Z</time>
      </trkpt>
      <trkpt lat="46.08887" lon="4.64737">
        <ele>283.2</ele>
        <time>2022-06-25T19:18:34Z</time>
      </trkpt>
      <trkpt lat="46.08887" lon="4.64737">
        <ele>283.2</ele>
        <time>2022-06-25T19:18:36Z</time>
      </trkpt>
      <trkpt lat="46.08887" lon="4.64737">
        <ele>283.2</ele>
        <time>2022-06-25T19:18:39Z</time>
      </trkpt>
      <trkpt lat="46.08887" lon="4.64736">
        <ele>283.2</ele>
        <time>2022-06-25T19:18:40Z</time>
      </trkpt>
      <trkpt lat="46.08887" lon="4.64736">
        <ele>283.2</ele>
        <time>2022-06-25T19:18:42Z</time>
      </trkpt>
      <trkpt lat="46.08887" lon="4.64736">
        <ele>283.2</ele>
        <time>2022-06-25T19:18:44Z</time>
      </trkpt>
      <trkpt lat="46.08887" lon="4.64735">
        <ele>283.2</ele>
        <time>2022-06-25T19:18:47Z</time>
      </trkpt>
      <trkpt lat="46.08887" lon="4.64735">
        <ele>283.2</ele>
        <time>2022-06-25T19:18:48Z</time>
      </trkpt>
      <trkpt lat="46.08887" lon="4.64735">
        <ele>283.2</ele>
        <time>2022-06-25T19:18:50Z</time>
      </trkpt>
      <trkpt lat="46.08887" lon="4.64734">
        <ele>283.2</ele>
        <time>2022-06-25T19:18:52Z</time>
      </trkpt>
      <trkpt lat="46.08887" lon="4.64734">
        <ele>283.2</ele>
        <time>2022-06-25T19:18:53Z</time>
      </trkpt>
      <trkpt lat="46.08887" lon="4.64734">
        <ele>283.2</ele>
        <time>2022-06-25T19:18:55Z</time>
      </trkpt>
      <trkpt lat="46.08887" lon="4.64734">
        <ele>283.2</ele>
        <time>2022-06-25T19:18:57Z</time>
      </trkpt>
      <trkpt lat="46.08887" lon="4.64733">
        <ele>283.2</ele>
        <time>2022-06-25T19:18:58Z</time>
      </trkpt>
      <trkpt lat="46.08887" lon="4.64733">
        <ele>283.2</ele>
        <time>2022-06-25T19:19:01Z</time>
      </trkpt>
      <trkpt lat="46.08887" lon="4.64733">
        <ele>283.2</ele>
        <time>2022-06-25T19:19:03Z</time>
      </trkpt>
      <trkpt lat="46.08887" lon="4.64732">
        <ele>283</ele>
        <time>2022-06-25T19:19:05Z</time>
      </trkpt>
      <trkpt lat="46.08887" lon="4.64732">
        <ele>283</ele>
        <time>2022-06-25T19:19:06Z</time>
      </trkpt>
      <trkpt lat="46.08887" lon="4.64732">
        <ele>283</ele>
        <time>2022-06-25T19:19:08Z</time>
      </trkpt>
      <trkpt lat="46.08887" lon="4.64731">
        <ele>283</ele>
        <time>2022-06-25T19:19:10Z</time>
      </trkpt>
      <trkpt lat="46.08887" lon="4.64731">
        <ele>283</ele>
        <time>2022-06-25T19:19:11Z</time>
      </trkpt>
      <trkpt lat="46.08887" lon="4.64731">
        <ele>282.8</ele>
        <time>2022-06-25T19:19:13Z</time>
      </trkpt>
      <trkpt lat="46.08887" lon="4.64731">
        <ele>282.8</ele>
        <time>2022-06-25T19:19:15Z</time>
      </trkpt>
      <trkpt lat="46.08887" lon="4.6473">
        <ele>282.8</ele>
        <time>2022-06-25T19:19:16Z</time>
      </trkpt>
      <trkpt lat="46.08887" lon="4.6473">
        <ele>282.8</ele>
        <time>2022-06-25T19:19:20Z</time>
      </trkpt>
      <trkpt lat="46.08887" lon="4.6473">
        <ele>282.6</ele>
        <time>2022-06-25T19:19:24Z</time>
      </trkpt>
      <trkpt lat="46.08887" lon="4.64729">
        <ele>282.6</ele>
        <time>2022-06-25T19:19:26Z</time>
      </trkpt>
      <trkpt lat="46.08887" lon="4.64729">
        <ele>282.6</ele>
        <time>2022-06-25T19:19:27Z</time>
      </trkpt>
      <trkpt lat="46.08887" lon="4.64729">
        <ele>282.6</ele>
        <time>2022-06-25T19:19:29Z</time>
      </trkpt>
      <trkpt lat="46.08887" lon="4.64729">
        <ele>282.6</ele>
        <time>2022-06-25T19:19:31Z</time>
      </trkpt>
      <trkpt lat="46.08887" lon="4.64728">
        <ele>282.6</ele>
        <time>2022-06-25T19:19:32Z</time>
      </trkpt>
      <trkpt lat="46.08887" lon="4.64728">
        <ele>282.6</ele>
        <time>2022-06-25T19:19:34Z</time>
      </trkpt>
      <trkpt lat="46.08887" lon="4.64728">
        <ele>282.6</ele>
        <time>2022-06-25T19:19:36Z</time>
      </trkpt>
      <trkpt lat="46.08887" lon="4.64727">
        <ele>282.6</ele>
        <time>2022-06-25T19:19:39Z</time>
      </trkpt>
      <trkpt lat="46.08887" lon="4.64727">
        <ele>282.6</ele>
        <time>2022-06-25T19:19:41Z</time>
      </trkpt>
      <trkpt lat="46.08887" lon="4.64727">
        <ele>282.2</ele>
        <time>2022-06-25T19:19:43Z</time>
      </trkpt>
      <trkpt lat="46.08887" lon="4.64726">
        <ele>282.2</ele>
        <time>2022-06-25T19:19:49Z</time>
      </trkpt>
      <trkpt lat="46.08887" lon="4.64726">
        <ele>282</ele>
        <time>2022-06-25T19:19:53Z</time>
      </trkpt>
      <trkpt lat="46.08887" lon="4.64726">
        <ele>282</ele>
        <time>2022-06-25T19:19:55Z</time>
      </trkpt>
      <trkpt lat="46.08887" lon="4.64726">
        <ele>282</ele>
        <time>2022-06-25T19:20:03Z</time>
      </trkpt>
      <trkpt lat="46.08887" lon="4.64725">
        <ele>281.8</ele>
        <time>2022-06-25T19:20:11Z</time>
      </trkpt>
      <trkpt lat="46.08887" lon="4.64725">
        <ele>281.6</ele>
        <time>2022-06-25T19:20:15Z</time>
      </trkpt>
      <trkpt lat="46.08887" lon="4.64725">
        <ele>280.8</ele>
        <time>2022-06-25T19:21:16Z</time>
      </trkpt>
      <trkpt lat="46.08887" lon="4.64724">
        <ele>280.8</ele>
        <time>2022-06-25T19:21:17Z</time>
      </trkpt>
      <trkpt lat="46.08887" lon="4.64724">
        <ele>280.8</ele>
        <time>2022-06-25T19:21:20Z</time>
      </trkpt>
      <trkpt lat="46.08887" lon="4.64724">
        <ele>280.8</ele>
        <time>2022-06-25T19:21:22Z</time>
      </trkpt>
      <trkpt lat="46.08887" lon="4.64723">
        <ele>280.8</ele>
        <time>2022-06-25T19:21:24Z</time>
      </trkpt>
      <trkpt lat="46.08887" lon="4.64723">
        <ele>280.8</ele>
        <time>2022-06-25T19:21:25Z</time>
      </trkpt>
      <trkpt lat="46.08887" lon="4.64723">
        <ele>280.8</ele>
        <time>2022-06-25T19:21:27Z</time>
      </trkpt>
      <trkpt lat="46.08887" lon="4.64723">
        <ele>280.4</ele>
        <time>2022-06-25T19:21:29Z</time>
      </trkpt>
      <trkpt lat="46.08887" lon="4.64722">
        <ele>280.4</ele>
        <time>2022-06-25T19:21:30Z</time>
      </trkpt>
      <trkpt lat="46.08887" lon="4.64722">
        <ele>280.6</ele>
        <time>2022-06-25T19:21:33Z</time>
      </trkpt>
      <trkpt lat="46.08887" lon="4.64722">
        <ele>281.6</ele>
        <time>2022-06-25T19:21:38Z</time>
      </trkpt>
      <trkpt lat="46.08887" lon="4.64721">
        <ele>281.6</ele>
        <time>2022-06-25T19:21:40Z</time>
      </trkpt>
      <trkpt lat="46.08887" lon="4.64721">
        <ele>281.8</ele>
        <time>2022-06-25T19:21:41Z</time>
      </trkpt>
      <trkpt lat="46.08887" lon="4.64721">
        <ele>282.2</ele>
        <time>2022-06-25T19:21:43Z</time>
      </trkpt>
      <trkpt lat="46.08887" lon="4.6472">
        <ele>282.4</ele>
        <time>2022-06-25T19:21:46Z</time>
      </trkpt>
      <trkpt lat="46.08887" lon="4.6472">
        <ele>282.4</ele>
        <time>2022-06-25T19:21:47Z</time>
      </trkpt>
      <trkpt lat="46.08887" lon="4.6472">
        <ele>282.4</ele>
        <time>2022-06-25T19:21:49Z</time>
      </trkpt>
      <trkpt lat="46.08887" lon="4.6472">
        <ele>282.4</ele>
        <time>2022-06-25T19:22:13Z</time>
      </trkpt>
      <trkpt lat="46.08887" lon="4.64719">
        <ele>282.4</ele>
        <time>2022-06-25T19:22:14Z</time>
      </trkpt>
      <trkpt lat="46.08887" lon="4.64719">
        <ele>282.4</ele>
        <time>2022-06-25T19:22:17Z</time>
      </trkpt>
      <trkpt lat="46.08887" lon="4.64719">
        <ele>282.4</ele>
        <time>2022-06-25T19:22:19Z</time>
      </trkpt>
      <trkpt lat="46.08888" lon="4.64716">
        <ele>282.4</ele>
        <time>2022-06-25T19:22:21Z</time>
      </trkpt>
      <trkpt lat="46.08889" lon="4.64714">
        <ele>282.4</ele>
        <time>2022-06-25T19:22:22Z</time>
      </trkpt>
      <trkpt lat="46.08891" lon="4.64713">
        <ele>282.4</ele>
        <time>2022-06-25T19:22:23Z</time>
      </trkpt>
      <trkpt lat="46.08893" lon="4.6471">
        <ele>282.4</ele>
        <time>2022-06-25T19:22:24Z</time>
      </trkpt>
      <trkpt lat="46.08894" lon="4.64707">
        <ele>282.4</ele>
        <time>2022-06-25T19:22:25Z</time>
      </trkpt>
      <trkpt lat="46.08895" lon="4.64704">
        <ele>282.4</ele>
        <time>2022-06-25T19:22:26Z</time>
      </trkpt>
      <trkpt lat="46.08896" lon="4.64701">
        <ele>282.4</ele>
        <time>2022-06-25T19:22:27Z</time>
      </trkpt>
      <trkpt lat="46.08896" lon="4.64697">
        <ele>282.8</ele>
        <time>2022-06-25T19:22:28Z</time>
      </trkpt>
      <trkpt lat="46.08897" lon="4.64694">
        <ele>282.8</ele>
        <time>2022-06-25T19:22:29Z</time>
      </trkpt>
      <trkpt lat="46.08897" lon="4.6469">
        <ele>282.8</ele>
        <time>2022-06-25T19:22:30Z</time>
      </trkpt>
      <trkpt lat="46.08898" lon="4.64687">
        <ele>282.8</ele>
        <time>2022-06-25T19:22:31Z</time>
      </trkpt>
      <trkpt lat="46.08898" lon="4.64685">
        <ele>283</ele>
        <time>2022-06-25T19:22:32Z</time>
      </trkpt>
      <trkpt lat="46.08898" lon="4.64683">
        <ele>283</ele>
        <time>2022-06-25T19:22:33Z</time>
      </trkpt>
      <trkpt lat="46.08898" lon="4.6468">
        <ele>283</ele>
        <time>2022-06-25T19:22:34Z</time>
      </trkpt>
      <trkpt lat="46.08897" lon="4.64678">
        <ele>283</ele>
        <time>2022-06-25T19:22:35Z</time>
      </trkpt>
      <trkpt lat="46.08896" lon="4.64676">
        <ele>283</ele>
        <time>2022-06-25T19:22:36Z</time>
      </trkpt>
      <trkpt lat="46.08893" lon="4.64675">
        <ele>283</ele>
        <time>2022-06-25T19:22:37Z</time>
      </trkpt>
      <trkpt lat="46.08891" lon="4.64674">
        <ele>283</ele>
        <time>2022-06-25T19:22:38Z</time>
      </trkpt>
      <trkpt lat="46.08887" lon="4.64673">
        <ele>283</ele>
        <time>2022-06-25T19:22:39Z</time>
      </trkpt>
      <trkpt lat="46.08884" lon="4.64672">
        <ele>283</ele>
        <time>2022-06-25T19:22:40Z</time>
      </trkpt>
      <trkpt lat="46.08879" lon="4.64671">
        <ele>283</ele>
        <time>2022-06-25T19:22:41Z</time>
      </trkpt>
      <trkpt lat="46.08875" lon="4.6467">
        <ele>283</ele>
        <time>2022-06-25T19:22:42Z</time>
      </trkpt>
      <trkpt lat="46.0887" lon="4.6467">
        <ele>283</ele>
        <time>2022-06-25T19:22:43Z</time>
      </trkpt>
      <trkpt lat="46.08865" lon="4.64669">
        <ele>283</ele>
        <time>2022-06-25T19:22:44Z</time>
      </trkpt>
      <trkpt lat="46.08861" lon="4.64668">
        <ele>283</ele>
        <time>2022-06-25T19:22:45Z</time>
      </trkpt>
      <trkpt lat="46.08857" lon="4.64668">
        <ele>283</ele>
        <time>2022-06-25T19:22:46Z</time>
      </trkpt>
      <trkpt lat="46.08852" lon="4.64667">
        <ele>283</ele>
        <time>2022-06-25T19:22:47Z</time>
      </trkpt>
      <trkpt lat="46.08848" lon="4.64667">
        <ele>283</ele>
        <time>2022-06-25T19:22:48Z</time>
      </trkpt>
      <trkpt lat="46.08844" lon="4.64667">
        <ele>283</ele>
        <time>2022-06-25T19:22:49Z</time>
      </trkpt>
      <trkpt lat="46.0884" lon="4.64667">
        <ele>283</ele>
        <time>2022-06-25T19:22:50Z</time>
      </trkpt>
      <trkpt lat="46.08836" lon="4.64667">
        <ele>283</ele>
        <time>2022-06-25T19:22:51Z</time>
      </trkpt>
      <trkpt lat="46.08833" lon="4.64668">
        <ele>283</ele>
        <time>2022-06-25T19:22:52Z</time>
      </trkpt>
      <trkpt lat="46.08829" lon="4.64668">
        <ele>283.2</ele>
        <time>2022-06-25T19:22:53Z</time>
      </trkpt>
      <trkpt lat="46.08826" lon="4.64668">
        <ele>283.2</ele>
        <time>2022-06-25T19:22:54Z</time>
      </trkpt>
      <trkpt lat="46.08824" lon="4.64668">
        <ele>283.6</ele>
        <time>2022-06-25T19:22:55Z</time>
      </trkpt>
      <trkpt lat="46.0882" lon="4.64668">
        <ele>283.6</ele>
        <time>2022-06-25T19:22:56Z</time>
      </trkpt>
      <trkpt lat="46.08817" lon="4.64668">
        <ele>283.8</ele>
        <time>2022-06-25T19:22:57Z</time>
      </trkpt>
      <trkpt lat="46.08814" lon="4.64667">
        <ele>283.8</ele>
        <time>2022-06-25T19:22:58Z</time>
      </trkpt>
      <trkpt lat="46.08811" lon="4.64666">
        <ele>284</ele>
        <time>2022-06-25T19:22:59Z</time>
      </trkpt>
      <trkpt lat="46.08808" lon="4.64666">
        <ele>284</ele>
        <time>2022-06-25T19:23:00Z</time>
      </trkpt>
      <trkpt lat="46.08805" lon="4.64665">
        <ele>284.4</ele>
        <time>2022-06-25T19:23:01Z</time>
      </trkpt>
      <trkpt lat="46.08801" lon="4.64665">
        <ele>284.4</ele>
        <time>2022-06-25T19:23:02Z</time>
      </trkpt>
      <trkpt lat="46.08798" lon="4.64664">
        <ele>284.8</ele>
        <time>2022-06-25T19:23:03Z</time>
      </trkpt>
      <trkpt lat="46.08794" lon="4.64664">
        <ele>284.8</ele>
        <time>2022-06-25T19:23:04Z</time>
      </trkpt>
      <trkpt lat="46.08791" lon="4.64664">
        <ele>285</ele>
        <time>2022-06-25T19:23:05Z</time>
      </trkpt>
      <trkpt lat="46.08786" lon="4.64665">
        <ele>285.4</ele>
        <time>2022-06-25T19:23:06Z</time>
      </trkpt>
      <trkpt lat="46.08782" lon="4.64665">
        <ele>285.4</ele>
        <time>2022-06-25T19:23:07Z</time>
      </trkpt>
      <trkpt lat="46.08779" lon="4.64665">
        <ele>285.8</ele>
        <time>2022-06-25T19:23:08Z</time>
      </trkpt>
      <trkpt lat="46.08775" lon="4.64664">
        <ele>285.8</ele>
        <time>2022-06-25T19:23:09Z</time>
      </trkpt>
      <trkpt lat="46.08772" lon="4.64663">
        <ele>286.2</ele>
        <time>2022-06-25T19:23:10Z</time>
      </trkpt>
      <trkpt lat="46.08769" lon="4.64663">
        <ele>286.2</ele>
        <time>2022-06-25T19:23:11Z</time>
      </trkpt>
      <trkpt lat="46.08766" lon="4.64662">
        <ele>286.6</ele>
        <time>2022-06-25T19:23:12Z</time>
      </trkpt>
      <trkpt lat="46.08762" lon="4.64661">
        <ele>286.6</ele>
        <time>2022-06-25T19:23:13Z</time>
      </trkpt>
      <trkpt lat="46.08759" lon="4.64661">
        <ele>286.8</ele>
        <time>2022-06-25T19:23:14Z</time>
      </trkpt>
      <trkpt lat="46.08756" lon="4.6466">
        <ele>286.8</ele>
        <time>2022-06-25T19:23:15Z</time>
      </trkpt>
      <trkpt lat="46.08753" lon="4.6466">
        <ele>287</ele>
        <time>2022-06-25T19:23:16Z</time>
      </trkpt>
      <trkpt lat="46.0875" lon="4.64659">
        <ele>287</ele>
        <time>2022-06-25T19:23:17Z</time>
      </trkpt>
      <trkpt lat="46.08747" lon="4.64658">
        <ele>287.2</ele>
        <time>2022-06-25T19:23:18Z</time>
      </trkpt>
      <trkpt lat="46.08745" lon="4.64656">
        <ele>287.2</ele>
        <time>2022-06-25T19:23:19Z</time>
      </trkpt>
      <trkpt lat="46.08742" lon="4.64655">
        <ele>287.4</ele>
        <time>2022-06-25T19:23:20Z</time>
      </trkpt>
      <trkpt lat="46.08739" lon="4.64654">
        <ele>287.4</ele>
        <time>2022-06-25T19:23:21Z</time>
      </trkpt>
      <trkpt lat="46.08736" lon="4.64654">
        <ele>287.8</ele>
        <time>2022-06-25T19:23:22Z</time>
      </trkpt>
      <trkpt lat="46.08733" lon="4.64652">
        <ele>287.8</ele>
        <time>2022-06-25T19:23:23Z</time>
      </trkpt>
      <trkpt lat="46.0873" lon="4.64651">
        <ele>287.8</ele>
        <time>2022-06-25T19:23:24Z</time>
      </trkpt>
      <trkpt lat="46.08726" lon="4.64649">
        <ele>288</ele>
        <time>2022-06-25T19:23:25Z</time>
      </trkpt>
      <trkpt lat="46.08722" lon="4.64647">
        <ele>288</ele>
        <time>2022-06-25T19:23:26Z</time>
      </trkpt>
      <trkpt lat="46.08718" lon="4.64645">
        <ele>288</ele>
        <time>2022-06-25T19:23:27Z</time>
      </trkpt>
      <trkpt lat="46.08714" lon="4.64642">
        <ele>288</ele>
        <time>2022-06-25T19:23:28Z</time>
      </trkpt>
      <trkpt lat="46.0871" lon="4.6464">
        <ele>288</ele>
        <time>2022-06-25T19:23:29Z</time>
      </trkpt>
      <trkpt lat="46.08706" lon="4.64638">
        <ele>288.4</ele>
        <time>2022-06-25T19:23:30Z</time>
      </trkpt>
      <trkpt lat="46.08702" lon="4.64636">
        <ele>288.4</ele>
        <time>2022-06-25T19:23:31Z</time>
      </trkpt>
      <trkpt lat="46.08697" lon="4.64633">
        <ele>288.4</ele>
        <time>2022-06-25T19:23:32Z</time>
      </trkpt>
      <trkpt lat="46.08693" lon="4.64631">
        <ele>288.4</ele>
        <time>2022-06-25T19:23:33Z</time>
      </trkpt>
      <trkpt lat="46.08688" lon="4.64628">
        <ele>288.4</ele>
        <time>2022-06-25T19:23:34Z</time>
      </trkpt>
      <trkpt lat="46.08684" lon="4.64625">
        <ele>288.4</ele>
        <time>2022-06-25T19:23:35Z</time>
      </trkpt>
      <trkpt lat="46.0868" lon="4.64622">
        <ele>288.4</ele>
        <time>2022-06-25T19:23:36Z</time>
      </trkpt>
      <trkpt lat="46.08675" lon="4.6462">
        <ele>288.4</ele>
        <time>2022-06-25T19:23:37Z</time>
      </trkpt>
      <trkpt lat="46.0867" lon="4.64617">
        <ele>288</ele>
        <time>2022-06-25T19:23:38Z</time>
      </trkpt>
      <trkpt lat="46.08665" lon="4.64615">
        <ele>288</ele>
        <time>2022-06-25T19:23:40Z</time>
      </trkpt>
      <trkpt lat="46.0866" lon="4.64612">
        <ele>288</ele>
        <time>2022-06-25T19:23:41Z</time>
      </trkpt>
      <trkpt lat="46.08655" lon="4.6461">
        <ele>288</ele>
        <time>2022-06-25T19:23:42Z</time>
      </trkpt>
      <trkpt lat="46.0865" lon="4.64607">
        <ele>287.8</ele>
        <time>2022-06-25T19:23:43Z</time>
      </trkpt>
      <trkpt lat="46.08645" lon="4.64604">
        <ele>287.8</ele>
        <time>2022-06-25T19:23:44Z</time>
      </trkpt>
      <trkpt lat="46.0864" lon="4.64601">
        <ele>287.6</ele>
        <time>2022-06-25T19:23:45Z</time>
      </trkpt>
      <trkpt lat="46.08635" lon="4.64598">
        <ele>287.6</ele>
        <time>2022-06-25T19:23:46Z</time>
      </trkpt>
      <trkpt lat="46.0863" lon="4.64596">
        <ele>287.2</ele>
        <time>2022-06-25T19:23:47Z</time>
      </trkpt>
      <trkpt lat="46.08625" lon="4.64593">
        <ele>287.2</ele>
        <time>2022-06-25T19:23:48Z</time>
      </trkpt>
      <trkpt lat="46.0862" lon="4.64589">
        <ele>286.8</ele>
        <time>2022-06-25T19:23:49Z</time>
      </trkpt>
      <trkpt lat="46.08614" lon="4.64586">
        <ele>286.6</ele>
        <time>2022-06-25T19:23:50Z</time>
      </trkpt>
      <trkpt lat="46.08609" lon="4.64583">
        <ele>286.6</ele>
        <time>2022-06-25T19:23:51Z</time>
      </trkpt>
      <trkpt lat="46.08603" lon="4.6458">
        <ele>286.2</ele>
        <time>2022-06-25T19:23:52Z</time>
      </trkpt>
      <trkpt lat="46.08598" lon="4.64577">
        <ele>286.2</ele>
        <time>2022-06-25T19:23:53Z</time>
      </trkpt>
      <trkpt lat="46.08594" lon="4.64575">
        <ele>285.8</ele>
        <time>2022-06-25T19:23:54Z</time>
      </trkpt>
      <trkpt lat="46.08589" lon="4.64572">
        <ele>285.8</ele>
        <time>2022-06-25T19:23:55Z</time>
      </trkpt>
      <trkpt lat="46.08585" lon="4.64569">
        <ele>285.4</ele>
        <time>2022-06-25T19:23:56Z</time>
      </trkpt>
      <trkpt lat="46.08582" lon="4.64566">
        <ele>285.4</ele>
        <time>2022-06-25T19:23:57Z</time>
      </trkpt>
      <trkpt lat="46.08579" lon="4.64561">
        <ele>285</ele>
        <time>2022-06-25T19:23:58Z</time>
      </trkpt>
      <trkpt lat="46.08577" lon="4.64557">
        <ele>285</ele>
        <time>2022-06-25T19:23:59Z</time>
      </trkpt>
      <trkpt lat="46.08576" lon="4.64551">
        <ele>284.8</ele>
        <time>2022-06-25T19:24:00Z</time>
      </trkpt>
      <trkpt lat="46.08576" lon="4.64545">
        <ele>284.8</ele>
        <time>2022-06-25T19:24:01Z</time>
      </trkpt>
      <trkpt lat="46.08576" lon="4.64539">
        <ele>284.8</ele>
        <time>2022-06-25T19:24:02Z</time>
      </trkpt>
      <trkpt lat="46.08577" lon="4.64533">
        <ele>284.8</ele>
        <time>2022-06-25T19:24:03Z</time>
      </trkpt>
      <trkpt lat="46.08579" lon="4.64528">
        <ele>285</ele>
        <time>2022-06-25T19:24:04Z</time>
      </trkpt>
      <trkpt lat="46.08581" lon="4.64523">
        <ele>285</ele>
        <time>2022-06-25T19:24:05Z</time>
      </trkpt>
      <trkpt lat="46.08583" lon="4.64518">
        <ele>285.4</ele>
        <time>2022-06-25T19:24:06Z</time>
      </trkpt>
      <trkpt lat="46.08585" lon="4.64512">
        <ele>285.4</ele>
        <time>2022-06-25T19:24:07Z</time>
      </trkpt>
      <trkpt lat="46.08587" lon="4.64507">
        <ele>285.8</ele>
        <time>2022-06-25T19:24:08Z</time>
      </trkpt>
      <trkpt lat="46.08588" lon="4.64502">
        <ele>286</ele>
        <time>2022-06-25T19:24:09Z</time>
      </trkpt>
      <trkpt lat="46.08591" lon="4.64496">
        <ele>286.2</ele>
        <time>2022-06-25T19:24:10Z</time>
      </trkpt>
      <trkpt lat="46.08593" lon="4.64491">
        <ele>286.2</ele>
        <time>2022-06-25T19:24:11Z</time>
      </trkpt>
      <trkpt lat="46.08595" lon="4.64486">
        <ele>286.6</ele>
        <time>2022-06-25T19:24:12Z</time>
      </trkpt>
      <trkpt lat="46.08596" lon="4.64481">
        <ele>286.8</ele>
        <time>2022-06-25T19:24:13Z</time>
      </trkpt>
      <trkpt lat="46.08598" lon="4.64476">
        <ele>286.8</ele>
        <time>2022-06-25T19:24:14Z</time>
      </trkpt>
      <trkpt lat="46.086" lon="4.6447">
        <ele>287.2</ele>
        <time>2022-06-25T19:24:15Z</time>
      </trkpt>
      <trkpt lat="46.08602" lon="4.64465">
        <ele>287.2</ele>
        <time>2022-06-25T19:24:16Z</time>
      </trkpt>
      <trkpt lat="46.08604" lon="4.6446">
        <ele>287.6</ele>
        <time>2022-06-25T19:24:17Z</time>
      </trkpt>
      <trkpt lat="46.08606" lon="4.64455">
        <ele>287.8</ele>
        <time>2022-06-25T19:24:18Z</time>
      </trkpt>
      <trkpt lat="46.08608" lon="4.6445">
        <ele>287.8</ele>
        <time>2022-06-25T19:24:19Z</time>
      </trkpt>
      <trkpt lat="46.0861" lon="4.64445">
        <ele>288</ele>
        <time>2022-06-25T19:24:20Z</time>
      </trkpt>
      <trkpt lat="46.08612" lon="4.6444">
        <ele>288.4</ele>
        <time>2022-06-25T19:24:21Z</time>
      </trkpt>
      <trkpt lat="46.08614" lon="4.64435">
        <ele>288.6</ele>
        <time>2022-06-25T19:24:22Z</time>
      </trkpt>
      <trkpt lat="46.08616" lon="4.64429">
        <ele>288.6</ele>
        <time>2022-06-25T19:24:23Z</time>
      </trkpt>
      <trkpt lat="46.08618" lon="4.64424">
        <ele>289</ele>
        <time>2022-06-25T19:24:24Z</time>
      </trkpt>
      <trkpt lat="46.0862" lon="4.64419">
        <ele>289.2</ele>
        <time>2022-06-25T19:24:25Z</time>
      </trkpt>
      <trkpt lat="46.08622" lon="4.64414">
        <ele>289.4</ele>
        <time>2022-06-25T19:24:26Z</time>
      </trkpt>
      <trkpt lat="46.08624" lon="4.64409">
        <ele>289.6</ele>
        <time>2022-06-25T19:24:27Z</time>
      </trkpt>
      <trkpt lat="46.08625" lon="4.64404">
        <ele>289.8</ele>
        <time>2022-06-25T19:24:28Z</time>
      </trkpt>
      <trkpt lat="46.08627" lon="4.64399">
        <ele>290.2</ele>
        <time>2022-06-25T19:24:29Z</time>
      </trkpt>
      <trkpt lat="46.08629" lon="4.64394">
        <ele>290.2</ele>
        <time>2022-06-25T19:24:30Z</time>
      </trkpt>
      <trkpt lat="46.08631" lon="4.64389">
        <ele>290.4</ele>
        <time>2022-06-25T19:24:31Z</time>
      </trkpt>
      <trkpt lat="46.08633" lon="4.64384">
        <ele>290.6</ele>
        <time>2022-06-25T19:24:32Z</time>
      </trkpt>
      <trkpt lat="46.08634" lon="4.64379">
        <ele>290.8</ele>
        <time>2022-06-25T19:24:33Z</time>
      </trkpt>
      <trkpt lat="46.08636" lon="4.64374">
        <ele>290.8</ele>
        <time>2022-06-25T19:24:34Z</time>
      </trkpt>
      <trkpt lat="46.08638" lon="4.64369">
        <ele>291.2</ele>
        <time>2022-06-25T19:24:35Z</time>
      </trkpt>
      <trkpt lat="46.0864" lon="4.64365">
        <ele>291.4</ele>
        <time>2022-06-25T19:24:36Z</time>
      </trkpt>
      <trkpt lat="46.08642" lon="4.6436">
        <ele>291.6</ele>
        <time>2022-06-25T19:24:37Z</time>
      </trkpt>
      <trkpt lat="46.08644" lon="4.64355">
        <ele>291.6</ele>
        <time>2022-06-25T19:24:38Z</time>
      </trkpt>
      <trkpt lat="46.08646" lon="4.6435">
        <ele>292</ele>
        <time>2022-06-25T19:24:39Z</time>
      </trkpt>
      <trkpt lat="46.08648" lon="4.64345">
        <ele>292</ele>
        <time>2022-06-25T19:24:40Z</time>
      </trkpt>
      <trkpt lat="46.0865" lon="4.64341">
        <ele>292.2</ele>
        <time>2022-06-25T19:24:41Z</time>
      </trkpt>
      <trkpt lat="46.08652" lon="4.64336">
        <ele>292.2</ele>
        <time>2022-06-25T19:24:42Z</time>
      </trkpt>
      <trkpt lat="46.08654" lon="4.64332">
        <ele>292.6</ele>
        <time>2022-06-25T19:24:43Z</time>
      </trkpt>
      <trkpt lat="46.08656" lon="4.64327">
        <ele>292.6</ele>
        <time>2022-06-25T19:24:44Z</time>
      </trkpt>
      <trkpt lat="46.08657" lon="4.64323">
        <ele>293</ele>
        <time>2022-06-25T19:24:45Z</time>
      </trkpt>
      <trkpt lat="46.08659" lon="4.64319">
        <ele>293</ele>
        <time>2022-06-25T19:24:46Z</time>
      </trkpt>
      <trkpt lat="46.0866" lon="4.64315">
        <ele>293.2</ele>
        <time>2022-06-25T19:24:47Z</time>
      </trkpt>
      <trkpt lat="46.08661" lon="4.64312">
        <ele>293.6</ele>
        <time>2022-06-25T19:24:48Z</time>
      </trkpt>
      <trkpt lat="46.08663" lon="4.64308">
        <ele>293.6</ele>
        <time>2022-06-25T19:24:49Z</time>
      </trkpt>
      <trkpt lat="46.08665" lon="4.64304">
        <ele>293.8</ele>
        <time>2022-06-25T19:24:50Z</time>
      </trkpt>
      <trkpt lat="46.08666" lon="4.64301">
        <ele>293.8</ele>
        <time>2022-06-25T19:24:51Z</time>
      </trkpt>
      <trkpt lat="46.08667" lon="4.64297">
        <ele>294.2</ele>
        <time>2022-06-25T19:24:52Z</time>
      </trkpt>
      <trkpt lat="46.08669" lon="4.64293">
        <ele>294.4</ele>
        <time>2022-06-25T19:24:53Z</time>
      </trkpt>
      <trkpt lat="46.0867" lon="4.6429">
        <ele>294.4</ele>
        <time>2022-06-25T19:24:54Z</time>
      </trkpt>
      <trkpt lat="46.08671" lon="4.64286">
        <ele>294.8</ele>
        <time>2022-06-25T19:24:55Z</time>
      </trkpt>
      <trkpt lat="46.08672" lon="4.64282">
        <ele>294.8</ele>
        <time>2022-06-25T19:24:56Z</time>
      </trkpt>
      <trkpt lat="46.08673" lon="4.64279">
        <ele>295.2</ele>
        <time>2022-06-25T19:24:57Z</time>
      </trkpt>
      <trkpt lat="46.08674" lon="4.64275">
        <ele>295.2</ele>
        <time>2022-06-25T19:24:58Z</time>
      </trkpt>
      <trkpt lat="46.08675" lon="4.64272">
        <ele>295.6</ele>
        <time>2022-06-25T19:24:59Z</time>
      </trkpt>
      <trkpt lat="46.08677" lon="4.64268">
        <ele>295.8</ele>
        <time>2022-06-25T19:25:00Z</time>
      </trkpt>
      <trkpt lat="46.08678" lon="4.64265">
        <ele>296</ele>
        <time>2022-06-25T19:25:01Z</time>
      </trkpt>
      <trkpt lat="46.08679" lon="4.64261">
        <ele>296</ele>
        <time>2022-06-25T19:25:02Z</time>
      </trkpt>
      <trkpt lat="46.0868" lon="4.64258">
        <ele>296.4</ele>
        <time>2022-06-25T19:25:03Z</time>
      </trkpt>
      <trkpt lat="46.08681" lon="4.64255">
        <ele>296.6</ele>
        <time>2022-06-25T19:25:04Z</time>
      </trkpt>
      <trkpt lat="46.08683" lon="4.64252">
        <ele>296.6</ele>
        <time>2022-06-25T19:25:05Z</time>
      </trkpt>
      <trkpt lat="46.08684" lon="4.64249">
        <ele>297</ele>
        <time>2022-06-25T19:25:06Z</time>
      </trkpt>
      <trkpt lat="46.08685" lon="4.64245">
        <ele>297.2</ele>
        <time>2022-06-25T19:25:07Z</time>
      </trkpt>
      <trkpt lat="46.08686" lon="4.64242">
        <ele>297.2</ele>
        <time>2022-06-25T19:25:08Z</time>
      </trkpt>
      <trkpt lat="46.08688" lon="4.64239">
        <ele>297.6</ele>
        <time>2022-06-25T19:25:09Z</time>
      </trkpt>
      <trkpt lat="46.08689" lon="4.64236">
        <ele>297.6</ele>
        <time>2022-06-25T19:25:10Z</time>
      </trkpt>
      <trkpt lat="46.0869" lon="4.64233">
        <ele>298</ele>
        <time>2022-06-25T19:25:11Z</time>
      </trkpt>
      <trkpt lat="46.08691" lon="4.6423">
        <ele>298.2</ele>
        <time>2022-06-25T19:25:12Z</time>
      </trkpt>
      <trkpt lat="46.08693" lon="4.64227">
        <ele>298.4</ele>
        <time>2022-06-25T19:25:13Z</time>
      </trkpt>
      <trkpt lat="46.08694" lon="4.64224">
        <ele>298.4</ele>
        <time>2022-06-25T19:25:14Z</time>
      </trkpt>
      <trkpt lat="46.08695" lon="4.6422">
        <ele>298.6</ele>
        <time>2022-06-25T19:25:15Z</time>
      </trkpt>
      <trkpt lat="46.08696" lon="4.64217">
        <ele>298.8</ele>
        <time>2022-06-25T19:25:16Z</time>
      </trkpt>
      <trkpt lat="46.08698" lon="4.64214">
        <ele>298.8</ele>
        <time>2022-06-25T19:25:17Z</time>
      </trkpt>
      <trkpt lat="46.08699" lon="4.64211">
        <ele>299.2</ele>
        <time>2022-06-25T19:25:18Z</time>
      </trkpt>
      <trkpt lat="46.087" lon="4.64207">
        <ele>299.2</ele>
        <time>2022-06-25T19:25:19Z</time>
      </trkpt>
      <trkpt lat="46.08701" lon="4.64204">
        <ele>299.4</ele>
        <time>2022-06-25T19:25:20Z</time>
      </trkpt>
      <trkpt lat="46.08703" lon="4.64201">
        <ele>299.4</ele>
        <time>2022-06-25T19:25:21Z</time>
      </trkpt>
      <trkpt lat="46.08704" lon="4.64197">
        <ele>299.8</ele>
        <time>2022-06-25T19:25:22Z</time>
      </trkpt>
      <trkpt lat="46.08705" lon="4.64194">
        <ele>299.8</ele>
        <time>2022-06-25T19:25:23Z</time>
      </trkpt>
      <trkpt lat="46.08706" lon="4.64191">
        <ele>300.2</ele>
        <time>2022-06-25T19:25:24Z</time>
      </trkpt>
      <trkpt lat="46.08708" lon="4.64188">
        <ele>300.2</ele>
        <time>2022-06-25T19:25:25Z</time>
      </trkpt>
      <trkpt lat="46.08709" lon="4.64184">
        <ele>300.6</ele>
        <time>2022-06-25T19:25:26Z</time>
      </trkpt>
      <trkpt lat="46.0871" lon="4.64181">
        <ele>300.6</ele>
        <time>2022-06-25T19:25:27Z</time>
      </trkpt>
      <trkpt lat="46.08712" lon="4.64177">
        <ele>300.8</ele>
        <time>2022-06-25T19:25:28Z</time>
      </trkpt>
      <trkpt lat="46.08713" lon="4.64174">
        <ele>300.8</ele>
        <time>2022-06-25T19:25:29Z</time>
      </trkpt>
      <trkpt lat="46.08715" lon="4.64171">
        <ele>301</ele>
        <time>2022-06-25T19:25:30Z</time>
      </trkpt>
      <trkpt lat="46.08716" lon="4.64167">
        <ele>301</ele>
        <time>2022-06-25T19:25:31Z</time>
      </trkpt>
      <trkpt lat="46.08717" lon="4.64163">
        <ele>301.4</ele>
        <time>2022-06-25T19:25:32Z</time>
      </trkpt>
      <trkpt lat="46.08718" lon="4.6416">
        <ele>301.4</ele>
        <time>2022-06-25T19:25:33Z</time>
      </trkpt>
      <trkpt lat="46.08719" lon="4.64157">
        <ele>301.8</ele>
        <time>2022-06-25T19:25:34Z</time>
      </trkpt>
      <trkpt lat="46.0872" lon="4.64153">
        <ele>301.8</ele>
        <time>2022-06-25T19:25:35Z</time>
      </trkpt>
      <trkpt lat="46.08721" lon="4.6415">
        <ele>302.2</ele>
        <time>2022-06-25T19:25:36Z</time>
      </trkpt>
      <trkpt lat="46.08723" lon="4.64146">
        <ele>302.2</ele>
        <time>2022-06-25T19:25:37Z</time>
      </trkpt>
      <trkpt lat="46.08724" lon="4.64143">
        <ele>302.6</ele>
        <time>2022-06-25T19:25:38Z</time>
      </trkpt>
      <trkpt lat="46.08725" lon="4.64139">
        <ele>302.6</ele>
        <time>2022-06-25T19:25:39Z</time>
      </trkpt>
      <trkpt lat="46.08726" lon="4.64136">
        <ele>303</ele>
        <time>2022-06-25T19:25:40Z</time>
      </trkpt>
      <trkpt lat="46.08727" lon="4.64133">
        <ele>303</ele>
        <time>2022-06-25T19:25:41Z</time>
      </trkpt>
      <trkpt lat="46.08728" lon="4.64129">
        <ele>303.2</ele>
        <time>2022-06-25T19:25:42Z</time>
      </trkpt>
      <trkpt lat="46.08729" lon="4.64126">
        <ele>303.2</ele>
        <time>2022-06-25T19:25:43Z</time>
      </trkpt>
      <trkpt lat="46.08731" lon="4.64122">
        <ele>303.6</ele>
        <time>2022-06-25T19:25:44Z</time>
      </trkpt>
      <trkpt lat="46.08732" lon="4.64119">
        <ele>303.6</ele>
        <time>2022-06-25T19:25:45Z</time>
      </trkpt>
      <trkpt lat="46.08734" lon="4.64116">
        <ele>304</ele>
        <time>2022-06-25T19:25:46Z</time>
      </trkpt>
      <trkpt lat="46.08735" lon="4.64112">
        <ele>304.2</ele>
        <time>2022-06-25T19:25:47Z</time>
      </trkpt>
      <trkpt lat="46.08736" lon="4.64108">
        <ele>304.2</ele>
        <time>2022-06-25T19:25:48Z</time>
      </trkpt>
      <trkpt lat="46.08737" lon="4.64105">
        <ele>304.4</ele>
        <time>2022-06-25T19:25:49Z</time>
      </trkpt>
      <trkpt lat="46.08738" lon="4.64102">
        <ele>304.4</ele>
        <time>2022-06-25T19:25:50Z</time>
      </trkpt>
      <trkpt lat="46.0874" lon="4.64099">
        <ele>304.8</ele>
        <time>2022-06-25T19:25:51Z</time>
      </trkpt>
      <trkpt lat="46.08741" lon="4.64095">
        <ele>305</ele>
        <time>2022-06-25T19:25:52Z</time>
      </trkpt>
      <trkpt lat="46.08743" lon="4.64092">
        <ele>305</ele>
        <time>2022-06-25T19:25:53Z</time>
      </trkpt>
      <trkpt lat="46.08744" lon="4.64089">
        <ele>305.4</ele>
        <time>2022-06-25T19:25:54Z</time>
      </trkpt>
      <trkpt lat="46.08745" lon="4.64085">
        <ele>305.4</ele>
        <time>2022-06-25T19:25:55Z</time>
      </trkpt>
      <trkpt lat="46.08746" lon="4.64082">
        <ele>305.8</ele>
        <time>2022-06-25T19:25:56Z</time>
      </trkpt>
      <trkpt lat="46.08747" lon="4.64078">
        <ele>306</ele>
        <time>2022-06-25T19:25:57Z</time>
      </trkpt>
      <trkpt lat="46.08747" lon="4.64075">
        <ele>306</ele>
        <time>2022-06-25T19:25:58Z</time>
      </trkpt>
      <trkpt lat="46.08747" lon="4.64071">
        <ele>306.4</ele>
        <time>2022-06-25T19:25:59Z</time>
      </trkpt>
      <trkpt lat="46.08746" lon="4.64068">
        <ele>306.6</ele>
        <time>2022-06-25T19:26:00Z</time>
      </trkpt>
      <trkpt lat="46.08746" lon="4.64064">
        <ele>307</ele>
        <time>2022-06-25T19:26:01Z</time>
      </trkpt>
      <trkpt lat="46.08745" lon="4.6406">
        <ele>307.2</ele>
        <time>2022-06-25T19:26:02Z</time>
      </trkpt>
      <trkpt lat="46.08744" lon="4.64057">
        <ele>307.4</ele>
        <time>2022-06-25T19:26:03Z</time>
      </trkpt>
      <trkpt lat="46.08743" lon="4.64053">
        <ele>307.4</ele>
        <time>2022-06-25T19:26:04Z</time>
      </trkpt>
      <trkpt lat="46.08742" lon="4.6405">
        <ele>307.6</ele>
        <time>2022-06-25T19:26:05Z</time>
      </trkpt>
      <trkpt lat="46.0874" lon="4.64046">
        <ele>307.6</ele>
        <time>2022-06-25T19:26:06Z</time>
      </trkpt>
      <trkpt lat="46.08739" lon="4.64043">
        <ele>307.8</ele>
        <time>2022-06-25T19:26:07Z</time>
      </trkpt>
      <trkpt lat="46.08737" lon="4.64039">
        <ele>307.8</ele>
        <time>2022-06-25T19:26:08Z</time>
      </trkpt>
      <trkpt lat="46.08735" lon="4.64035">
        <ele>308.2</ele>
        <time>2022-06-25T19:26:09Z</time>
      </trkpt>
      <trkpt lat="46.08733" lon="4.64032">
        <ele>308.2</ele>
        <time>2022-06-25T19:26:10Z</time>
      </trkpt>
      <trkpt lat="46.08731" lon="4.64029">
        <ele>308.4</ele>
        <time>2022-06-25T19:26:11Z</time>
      </trkpt>
      <trkpt lat="46.08728" lon="4.64027">
        <ele>308.4</ele>
        <time>2022-06-25T19:26:12Z</time>
      </trkpt>
      <trkpt lat="46.08725" lon="4.64025">
        <ele>308.8</ele>
        <time>2022-06-25T19:26:13Z</time>
      </trkpt>
      <trkpt lat="46.08722" lon="4.64023">
        <ele>308.8</ele>
        <time>2022-06-25T19:26:14Z</time>
      </trkpt>
      <trkpt lat="46.08719" lon="4.64022">
        <ele>309</ele>
        <time>2022-06-25T19:26:15Z</time>
      </trkpt>
      <trkpt lat="46.08716" lon="4.64022">
        <ele>309</ele>
        <time>2022-06-25T19:26:16Z</time>
      </trkpt>
      <trkpt lat="46.08713" lon="4.64021">
        <ele>309.2</ele>
        <time>2022-06-25T19:26:17Z</time>
      </trkpt>
      <trkpt lat="46.0871" lon="4.6402">
        <ele>309.2</ele>
        <time>2022-06-25T19:26:18Z</time>
      </trkpt>
      <trkpt lat="46.08708" lon="4.6402">
        <ele>309.6</ele>
        <time>2022-06-25T19:26:19Z</time>
      </trkpt>
      <trkpt lat="46.08705" lon="4.64019">
        <ele>309.6</ele>
        <time>2022-06-25T19:26:20Z</time>
      </trkpt>
      <trkpt lat="46.08702" lon="4.64019">
        <ele>309.8</ele>
        <time>2022-06-25T19:26:21Z</time>
      </trkpt>
      <trkpt lat="46.08699" lon="4.64018">
        <ele>309.8</ele>
        <time>2022-06-25T19:26:22Z</time>
      </trkpt>
      <trkpt lat="46.08696" lon="4.64018">
        <ele>310.2</ele>
        <time>2022-06-25T19:26:23Z</time>
      </trkpt>
      <trkpt lat="46.08694" lon="4.64017">
        <ele>310.2</ele>
        <time>2022-06-25T19:26:24Z</time>
      </trkpt>
      <trkpt lat="46.08691" lon="4.64016">
        <ele>310.4</ele>
        <time>2022-06-25T19:26:25Z</time>
      </trkpt>
      <trkpt lat="46.08688" lon="4.64016">
        <ele>310.4</ele>
        <time>2022-06-25T19:26:26Z</time>
      </trkpt>
      <trkpt lat="46.08685" lon="4.64015">
        <ele>310.8</ele>
        <time>2022-06-25T19:26:27Z</time>
      </trkpt>
      <trkpt lat="46.08682" lon="4.64015">
        <ele>310.8</ele>
        <time>2022-06-25T19:26:28Z</time>
      </trkpt>
      <trkpt lat="46.0868" lon="4.64015">
        <ele>311</ele>
        <time>2022-06-25T19:26:29Z</time>
      </trkpt>
      <trkpt lat="46.08677" lon="4.64014">
        <ele>311</ele>
        <time>2022-06-25T19:26:30Z</time>
      </trkpt>
      <trkpt lat="46.08674" lon="4.64014">
        <ele>311</ele>
        <time>2022-06-25T19:26:31Z</time>
      </trkpt>
      <trkpt lat="46.08671" lon="4.64013">
        <ele>311.4</ele>
        <time>2022-06-25T19:26:32Z</time>
      </trkpt>
      <trkpt lat="46.08668" lon="4.64012">
        <ele>311.4</ele>
        <time>2022-06-25T19:26:33Z</time>
      </trkpt>
      <trkpt lat="46.08666" lon="4.64011">
        <ele>311.8</ele>
        <time>2022-06-25T19:26:34Z</time>
      </trkpt>
      <trkpt lat="46.08663" lon="4.6401">
        <ele>311.8</ele>
        <time>2022-06-25T19:26:35Z</time>
      </trkpt>
      <trkpt lat="46.0866" lon="4.64009">
        <ele>312.2</ele>
        <time>2022-06-25T19:26:36Z</time>
      </trkpt>
      <trkpt lat="46.08658" lon="4.64008">
        <ele>312.4</ele>
        <time>2022-06-25T19:26:37Z</time>
      </trkpt>
      <trkpt lat="46.08655" lon="4.64007">
        <ele>312.6</ele>
        <time>2022-06-25T19:26:38Z</time>
      </trkpt>
      <trkpt lat="46.08652" lon="4.64007">
        <ele>312.6</ele>
        <time>2022-06-25T19:26:39Z</time>
      </trkpt>
      <trkpt lat="46.0865" lon="4.64006">
        <ele>312.8</ele>
        <time>2022-06-25T19:26:40Z</time>
      </trkpt>
      <trkpt lat="46.08647" lon="4.64006">
        <ele>312.8</ele>
        <time>2022-06-25T19:26:41Z</time>
      </trkpt>
      <trkpt lat="46.08644" lon="4.64005">
        <ele>313.2</ele>
        <time>2022-06-25T19:26:42Z</time>
      </trkpt>
      <trkpt lat="46.08642" lon="4.64005">
        <ele>313.2</ele>
        <time>2022-06-25T19:26:43Z</time>
      </trkpt>
      <trkpt lat="46.08639" lon="4.64004">
        <ele>313.6</ele>
        <time>2022-06-25T19:26:44Z</time>
      </trkpt>
      <trkpt lat="46.08637" lon="4.64003">
        <ele>313.8</ele>
        <time>2022-06-25T19:26:45Z</time>
      </trkpt>
      <trkpt lat="46.08634" lon="4.64003">
        <ele>313.8</ele>
        <time>2022-06-25T19:26:46Z</time>
      </trkpt>
      <trkpt lat="46.08631" lon="4.64003">
        <ele>314.2</ele>
        <time>2022-06-25T19:26:47Z</time>
      </trkpt>
      <trkpt lat="46.08629" lon="4.64002">
        <ele>314.2</ele>
        <time>2022-06-25T19:26:48Z</time>
      </trkpt>
      <trkpt lat="46.08626" lon="4.64002">
        <ele>314.6</ele>
        <time>2022-06-25T19:26:49Z</time>
      </trkpt>
      <trkpt lat="46.08624" lon="4.64001">
        <ele>314.6</ele>
        <time>2022-06-25T19:26:50Z</time>
      </trkpt>
      <trkpt lat="46.08621" lon="4.64001">
        <ele>315.2</ele>
        <time>2022-06-25T19:26:51Z</time>
      </trkpt>
      <trkpt lat="46.08618" lon="4.64">
        <ele>315.4</ele>
        <time>2022-06-25T19:26:52Z</time>
      </trkpt>
      <trkpt lat="46.08616" lon="4.64">
        <ele>315.6</ele>
        <time>2022-06-25T19:26:53Z</time>
      </trkpt>
      <trkpt lat="46.08613" lon="4.63999">
        <ele>315.6</ele>
        <time>2022-06-25T19:26:54Z</time>
      </trkpt>
      <trkpt lat="46.0861" lon="4.63999">
        <ele>316</ele>
        <time>2022-06-25T19:26:55Z</time>
      </trkpt>
      <trkpt lat="46.08608" lon="4.63998">
        <ele>316</ele>
        <time>2022-06-25T19:26:56Z</time>
      </trkpt>
      <trkpt lat="46.08605" lon="4.63998">
        <ele>316.4</ele>
        <time>2022-06-25T19:26:57Z</time>
      </trkpt>
      <trkpt lat="46.08603" lon="4.63997">
        <ele>316.6</ele>
        <time>2022-06-25T19:26:58Z</time>
      </trkpt>
      <trkpt lat="46.08601" lon="4.63997">
        <ele>316.6</ele>
        <time>2022-06-25T19:26:59Z</time>
      </trkpt>
      <trkpt lat="46.08598" lon="4.63996">
        <ele>316.8</ele>
        <time>2022-06-25T19:27:00Z</time>
      </trkpt>
      <trkpt lat="46.08596" lon="4.63995">
        <ele>316.8</ele>
        <time>2022-06-25T19:27:01Z</time>
      </trkpt>
      <trkpt lat="46.08593" lon="4.63994">
        <ele>317.2</ele>
        <time>2022-06-25T19:27:02Z</time>
      </trkpt>
      <trkpt lat="46.0859" lon="4.63993">
        <ele>317.2</ele>
        <time>2022-06-25T19:27:03Z</time>
      </trkpt>
      <trkpt lat="46.08588" lon="4.63992">
        <ele>317.4</ele>
        <time>2022-06-25T19:27:04Z</time>
      </trkpt>
      <trkpt lat="46.08585" lon="4.63991">
        <ele>317.4</ele>
        <time>2022-06-25T19:27:05Z</time>
      </trkpt>
      <trkpt lat="46.08582" lon="4.63991">
        <ele>317.8</ele>
        <time>2022-06-25T19:27:06Z</time>
      </trkpt>
      <trkpt lat="46.0858" lon="4.6399">
        <ele>317.8</ele>
        <time>2022-06-25T19:27:07Z</time>
      </trkpt>
      <trkpt lat="46.08577" lon="4.6399">
        <ele>318.2</ele>
        <time>2022-06-25T19:27:08Z</time>
      </trkpt>
      <trkpt lat="46.08575" lon="4.6399">
        <ele>318.2</ele>
        <time>2022-06-25T19:27:09Z</time>
      </trkpt>
      <trkpt lat="46.08572" lon="4.63989">
        <ele>318.4</ele>
        <time>2022-06-25T19:27:10Z</time>
      </trkpt>
      <trkpt lat="46.0857" lon="4.63989">
        <ele>318.4</ele>
        <time>2022-06-25T19:27:11Z</time>
      </trkpt>
      <trkpt lat="46.08567" lon="4.63988">
        <ele>318.8</ele>
        <time>2022-06-25T19:27:12Z</time>
      </trkpt>
      <trkpt lat="46.08565" lon="4.63987">
        <ele>318.8</ele>
        <time>2022-06-25T19:27:13Z</time>
      </trkpt>
      <trkpt lat="46.08562" lon="4.63986">
        <ele>319</ele>
        <time>2022-06-25T19:27:14Z</time>
      </trkpt>
      <trkpt lat="46.08559" lon="4.63986">
        <ele>319</ele>
        <time>2022-06-25T19:27:15Z</time>
      </trkpt>
      <trkpt lat="46.08557" lon="4.63985">
        <ele>319.4</ele>
        <time>2022-06-25T19:27:16Z</time>
      </trkpt>
      <trkpt lat="46.08554" lon="4.63985">
        <ele>319.4</ele>
        <time>2022-06-25T19:27:17Z</time>
      </trkpt>
      <trkpt lat="46.08552" lon="4.63984">
        <ele>319.6</ele>
        <time>2022-06-25T19:27:18Z</time>
      </trkpt>
      <trkpt lat="46.08549" lon="4.63984">
        <ele>319.6</ele>
        <time>2022-06-25T19:27:19Z</time>
      </trkpt>
      <trkpt lat="46.08547" lon="4.63984">
        <ele>319.8</ele>
        <time>2022-06-25T19:27:20Z</time>
      </trkpt>
      <trkpt lat="46.08544" lon="4.63984">
        <ele>319.8</ele>
        <time>2022-06-25T19:27:21Z</time>
      </trkpt>
      <trkpt lat="46.08541" lon="4.63983">
        <ele>320</ele>
        <time>2022-06-25T19:27:22Z</time>
      </trkpt>
      <trkpt lat="46.08538" lon="4.63983">
        <ele>320</ele>
        <time>2022-06-25T19:27:23Z</time>
      </trkpt>
      <trkpt lat="46.08535" lon="4.63982">
        <ele>320</ele>
        <time>2022-06-25T19:27:24Z</time>
      </trkpt>
      <trkpt lat="46.08532" lon="4.63981">
        <ele>320.4</ele>
        <time>2022-06-25T19:27:25Z</time>
      </trkpt>
      <trkpt lat="46.08528" lon="4.6398">
        <ele>320.4</ele>
        <time>2022-06-25T19:27:26Z</time>
      </trkpt>
      <trkpt lat="46.08525" lon="4.63979">
        <ele>320.4</ele>
        <time>2022-06-25T19:27:27Z</time>
      </trkpt>
      <trkpt lat="46.08522" lon="4.63978">
        <ele>320.4</ele>
        <time>2022-06-25T19:27:28Z</time>
      </trkpt>
      <trkpt lat="46.08518" lon="4.63976">
        <ele>320.4</ele>
        <time>2022-06-25T19:27:29Z</time>
      </trkpt>
      <trkpt lat="46.08515" lon="4.63974">
        <ele>320.4</ele>
        <time>2022-06-25T19:27:30Z</time>
      </trkpt>
      <trkpt lat="46.08511" lon="4.63972">
        <ele>320.4</ele>
        <time>2022-06-25T19:27:31Z</time>
      </trkpt>
      <trkpt lat="46.08508" lon="4.6397">
        <ele>320.4</ele>
        <time>2022-06-25T19:27:32Z</time>
      </trkpt>
      <trkpt lat="46.08504" lon="4.63968">
        <ele>320.4</ele>
        <time>2022-06-25T19:27:33Z</time>
      </trkpt>
      <trkpt lat="46.085" lon="4.63966">
        <ele>320.6</ele>
        <time>2022-06-25T19:27:34Z</time>
      </trkpt>
      <trkpt lat="46.08496" lon="4.63964">
        <ele>320.6</ele>
        <time>2022-06-25T19:27:35Z</time>
      </trkpt>
      <trkpt lat="46.08493" lon="4.63962">
        <ele>320.6</ele>
        <time>2022-06-25T19:27:36Z</time>
      </trkpt>
      <trkpt lat="46.08489" lon="4.6396">
        <ele>320.6</ele>
        <time>2022-06-25T19:27:37Z</time>
      </trkpt>
      <trkpt lat="46.08485" lon="4.63958">
        <ele>320.8</ele>
        <time>2022-06-25T19:27:38Z</time>
      </trkpt>
      <trkpt lat="46.08481" lon="4.63957">
        <ele>320.8</ele>
        <time>2022-06-25T19:27:39Z</time>
      </trkpt>
      <trkpt lat="46.08478" lon="4.63954">
        <ele>320.8</ele>
        <time>2022-06-25T19:27:40Z</time>
      </trkpt>
      <trkpt lat="46.08474" lon="4.63952">
        <ele>321</ele>
        <time>2022-06-25T19:27:41Z</time>
      </trkpt>
      <trkpt lat="46.0847" lon="4.6395">
        <ele>321</ele>
        <time>2022-06-25T19:27:42Z</time>
      </trkpt>
      <trkpt lat="46.08466" lon="4.63948">
        <ele>321</ele>
        <time>2022-06-25T19:27:43Z</time>
      </trkpt>
      <trkpt lat="46.08462" lon="4.63946">
        <ele>321</ele>
        <time>2022-06-25T19:27:44Z</time>
      </trkpt>
      <trkpt lat="46.08457" lon="4.63943">
        <ele>321</ele>
        <time>2022-06-25T19:27:45Z</time>
      </trkpt>
      <trkpt lat="46.08453" lon="4.63941">
        <ele>321</ele>
        <time>2022-06-25T19:27:46Z</time>
      </trkpt>
      <trkpt lat="46.08448" lon="4.63938">
        <ele>321</ele>
        <time>2022-06-25T19:27:47Z</time>
      </trkpt>
      <trkpt lat="46.08444" lon="4.63935">
        <ele>321.2</ele>
        <time>2022-06-25T19:27:48Z</time>
      </trkpt>
      <trkpt lat="46.0844" lon="4.63933">
        <ele>321.2</ele>
        <time>2022-06-25T19:27:49Z</time>
      </trkpt>
      <trkpt lat="46.08435" lon="4.63931">
        <ele>321.2</ele>
        <time>2022-06-25T19:27:50Z</time>
      </trkpt>
      <trkpt lat="46.08431" lon="4.63928">
        <ele>321.2</ele>
        <time>2022-06-25T19:27:51Z</time>
      </trkpt>
      <trkpt lat="46.08427" lon="4.63925">
        <ele>321.2</ele>
        <time>2022-06-25T19:27:52Z</time>
      </trkpt>
      <trkpt lat="46.08423" lon="4.63922">
        <ele>321.2</ele>
        <time>2022-06-25T19:27:53Z</time>
      </trkpt>
      <trkpt lat="46.08419" lon="4.63919">
        <ele>321.2</ele>
        <time>2022-06-25T19:27:54Z</time>
      </trkpt>
      <trkpt lat="46.08415" lon="4.63916">
        <ele>321.4</ele>
        <time>2022-06-25T19:27:55Z</time>
      </trkpt>
      <trkpt lat="46.0841" lon="4.63912">
        <ele>321.4</ele>
        <time>2022-06-25T19:27:56Z</time>
      </trkpt>
      <trkpt lat="46.08407" lon="4.63908">
        <ele>321.8</ele>
        <time>2022-06-25T19:27:57Z</time>
      </trkpt>
      <trkpt lat="46.08403" lon="4.63905">
        <ele>321.8</ele>
        <time>2022-06-25T19:27:58Z</time>
      </trkpt>
      <trkpt lat="46.08399" lon="4.63901">
        <ele>322</ele>
        <time>2022-06-25T19:27:59Z</time>
      </trkpt>
      <trkpt lat="46.08396" lon="4.63898">
        <ele>322</ele>
        <time>2022-06-25T19:28:00Z</time>
      </trkpt>
      <trkpt lat="46.08392" lon="4.63894">
        <ele>322</ele>
        <time>2022-06-25T19:28:01Z</time>
      </trkpt>
      <trkpt lat="46.08389" lon="4.6389">
        <ele>322.4</ele>
        <time>2022-06-25T19:28:02Z</time>
      </trkpt>
      <trkpt lat="46.08386" lon="4.63886">
        <ele>322.4</ele>
        <time>2022-06-25T19:28:03Z</time>
      </trkpt>
      <trkpt lat="46.08382" lon="4.63882">
        <ele>322.6</ele>
        <time>2022-06-25T19:28:04Z</time>
      </trkpt>
      <trkpt lat="46.08379" lon="4.63879">
        <ele>322.6</ele>
        <time>2022-06-25T19:28:05Z</time>
      </trkpt>
      <trkpt lat="46.08376" lon="4.63875">
        <ele>322.8</ele>
        <time>2022-06-25T19:28:06Z</time>
      </trkpt>
      <trkpt lat="46.08373" lon="4.63872">
        <ele>322.8</ele>
        <time>2022-06-25T19:28:07Z</time>
      </trkpt>
      <trkpt lat="46.0837" lon="4.63868">
        <ele>323</ele>
        <time>2022-06-25T19:28:08Z</time>
      </trkpt>
      <trkpt lat="46.08367" lon="4.63865">
        <ele>323</ele>
        <time>2022-06-25T19:28:09Z</time>
      </trkpt>
      <trkpt lat="46.08365" lon="4.63861">
        <ele>323.4</ele>
        <time>2022-06-25T19:28:10Z</time>
      </trkpt>
      <trkpt lat="46.08362" lon="4.63857">
        <ele>323.4</ele>
        <time>2022-06-25T19:28:11Z</time>
      </trkpt>
      <trkpt lat="46.0836" lon="4.63853">
        <ele>323.6</ele>
        <time>2022-06-25T19:28:12Z</time>
      </trkpt>
      <trkpt lat="46.08357" lon="4.63849">
        <ele>323.6</ele>
        <time>2022-06-25T19:28:13Z</time>
      </trkpt>
      <trkpt lat="46.08354" lon="4.63846">
        <ele>323.8</ele>
        <time>2022-06-25T19:28:14Z</time>
      </trkpt>
      <trkpt lat="46.08352" lon="4.63842">
        <ele>323.8</ele>
        <time>2022-06-25T19:28:15Z</time>
      </trkpt>
      <trkpt lat="46.08349" lon="4.63839">
        <ele>324</ele>
        <time>2022-06-25T19:28:16Z</time>
      </trkpt>
      <trkpt lat="46.08346" lon="4.63835">
        <ele>324</ele>
        <time>2022-06-25T19:28:17Z</time>
      </trkpt>
      <trkpt lat="46.08344" lon="4.63831">
        <ele>324.6</ele>
        <time>2022-06-25T19:28:18Z</time>
      </trkpt>
      <trkpt lat="46.08341" lon="4.63828">
        <ele>324.6</ele>
        <time>2022-06-25T19:28:19Z</time>
      </trkpt>
      <trkpt lat="46.08339" lon="4.63825">
        <ele>324.8</ele>
        <time>2022-06-25T19:28:20Z</time>
      </trkpt>
      <trkpt lat="46.08336" lon="4.63821">
        <ele>324.8</ele>
        <time>2022-06-25T19:28:21Z</time>
      </trkpt>
      <trkpt lat="46.08334" lon="4.63818">
        <ele>325.2</ele>
        <time>2022-06-25T19:28:22Z</time>
      </trkpt>
      <trkpt lat="46.08331" lon="4.63815">
        <ele>325.2</ele>
        <time>2022-06-25T19:28:23Z</time>
      </trkpt>
      <trkpt lat="46.08329" lon="4.63811">
        <ele>325.4</ele>
        <time>2022-06-25T19:28:24Z</time>
      </trkpt>
      <trkpt lat="46.08327" lon="4.63808">
        <ele>325.4</ele>
        <time>2022-06-25T19:28:25Z</time>
      </trkpt>
      <trkpt lat="46.08325" lon="4.63805">
        <ele>325.8</ele>
        <time>2022-06-25T19:28:26Z</time>
      </trkpt>
      <trkpt lat="46.08323" lon="4.63801">
        <ele>325.8</ele>
        <time>2022-06-25T19:28:27Z</time>
      </trkpt>
      <trkpt lat="46.08321" lon="4.63798">
        <ele>326.2</ele>
        <time>2022-06-25T19:28:28Z</time>
      </trkpt>
      <trkpt lat="46.08319" lon="4.63795">
        <ele>326.2</ele>
        <time>2022-06-25T19:28:29Z</time>
      </trkpt>
      <trkpt lat="46.08317" lon="4.63791">
        <ele>326.6</ele>
        <time>2022-06-25T19:28:30Z</time>
      </trkpt>
      <trkpt lat="46.08316" lon="4.63788">
        <ele>326.6</ele>
        <time>2022-06-25T19:28:31Z</time>
      </trkpt>
      <trkpt lat="46.08314" lon="4.63784">
        <ele>327</ele>
        <time>2022-06-25T19:28:32Z</time>
      </trkpt>
      <trkpt lat="46.08313" lon="4.63781">
        <ele>327.2</ele>
        <time>2022-06-25T19:28:33Z</time>
      </trkpt>
      <trkpt lat="46.08311" lon="4.63778">
        <ele>327.4</ele>
        <time>2022-06-25T19:28:34Z</time>
      </trkpt>
      <trkpt lat="46.0831" lon="4.63776">
        <ele>327.4</ele>
        <time>2022-06-25T19:28:35Z</time>
      </trkpt>
      <trkpt lat="46.08309" lon="4.63773">
        <ele>327.8</ele>
        <time>2022-06-25T19:28:36Z</time>
      </trkpt>
      <trkpt lat="46.08308" lon="4.6377">
        <ele>327.8</ele>
        <time>2022-06-25T19:28:37Z</time>
      </trkpt>
      <trkpt lat="46.08307" lon="4.63767">
        <ele>328.2</ele>
        <time>2022-06-25T19:28:38Z</time>
      </trkpt>
      <trkpt lat="46.08306" lon="4.63764">
        <ele>328.2</ele>
        <time>2022-06-25T19:28:39Z</time>
      </trkpt>
      <trkpt lat="46.08305" lon="4.6376">
        <ele>328.4</ele>
        <time>2022-06-25T19:28:40Z</time>
      </trkpt>
      <trkpt lat="46.08304" lon="4.63756">
        <ele>328.4</ele>
        <time>2022-06-25T19:28:41Z</time>
      </trkpt>
      <trkpt lat="46.08302" lon="4.63752">
        <ele>328.4</ele>
        <time>2022-06-25T19:28:42Z</time>
      </trkpt>
      <trkpt lat="46.08301" lon="4.63749">
        <ele>328.8</ele>
        <time>2022-06-25T19:28:43Z</time>
      </trkpt>
      <trkpt lat="46.083" lon="4.63745">
        <ele>329</ele>
        <time>2022-06-25T19:28:44Z</time>
      </trkpt>
      <trkpt lat="46.08299" lon="4.63741">
        <ele>329</ele>
        <time>2022-06-25T19:28:45Z</time>
      </trkpt>
      <trkpt lat="46.08298" lon="4.63737">
        <ele>329.2</ele>
        <time>2022-06-25T19:28:46Z</time>
      </trkpt>
      <trkpt lat="46.08297" lon="4.63733">
        <ele>329.2</ele>
        <time>2022-06-25T19:28:47Z</time>
      </trkpt>
      <trkpt lat="46.08296" lon="4.63729">
        <ele>329.6</ele>
        <time>2022-06-25T19:28:48Z</time>
      </trkpt>
      <trkpt lat="46.08295" lon="4.63725">
        <ele>329.6</ele>
        <time>2022-06-25T19:28:49Z</time>
      </trkpt>
      <trkpt lat="46.08294" lon="4.63721">
        <ele>330</ele>
        <time>2022-06-25T19:28:50Z</time>
      </trkpt>
      <trkpt lat="46.08292" lon="4.63718">
        <ele>330</ele>
        <time>2022-06-25T19:28:51Z</time>
      </trkpt>
      <trkpt lat="46.08291" lon="4.63714">
        <ele>330.2</ele>
        <time>2022-06-25T19:28:52Z</time>
      </trkpt>
      <trkpt lat="46.0829" lon="4.6371">
        <ele>330.2</ele>
        <time>2022-06-25T19:28:53Z</time>
      </trkpt>
      <trkpt lat="46.0829" lon="4.63706">
        <ele>330.6</ele>
        <time>2022-06-25T19:28:54Z</time>
      </trkpt>
      <trkpt lat="46.08289" lon="4.63703">
        <ele>330.6</ele>
        <time>2022-06-25T19:28:55Z</time>
      </trkpt>
      <trkpt lat="46.08288" lon="4.63699">
        <ele>330.8</ele>
        <time>2022-06-25T19:28:56Z</time>
      </trkpt>
      <trkpt lat="46.08287" lon="4.63695">
        <ele>330.8</ele>
        <time>2022-06-25T19:28:57Z</time>
      </trkpt>
      <trkpt lat="46.08286" lon="4.63691">
        <ele>330.8</ele>
        <time>2022-06-25T19:28:58Z</time>
      </trkpt>
      <trkpt lat="46.08285" lon="4.63687">
        <ele>331</ele>
        <time>2022-06-25T19:28:59Z</time>
      </trkpt>
      <trkpt lat="46.08284" lon="4.63683">
        <ele>331</ele>
        <time>2022-06-25T19:29:00Z</time>
      </trkpt>
      <trkpt lat="46.08283" lon="4.6368">
        <ele>331.4</ele>
        <time>2022-06-25T19:29:01Z</time>
      </trkpt>
      <trkpt lat="46.08281" lon="4.63676">
        <ele>331.4</ele>
        <time>2022-06-25T19:29:02Z</time>
      </trkpt>
      <trkpt lat="46.0828" lon="4.63672">
        <ele>331.8</ele>
        <time>2022-06-25T19:29:03Z</time>
      </trkpt>
      <trkpt lat="46.08279" lon="4.63668">
        <ele>331.8</ele>
        <time>2022-06-25T19:29:04Z</time>
      </trkpt>
      <trkpt lat="46.08279" lon="4.63665">
        <ele>332</ele>
        <time>2022-06-25T19:29:05Z</time>
      </trkpt>
      <trkpt lat="46.08278" lon="4.63661">
        <ele>332</ele>
        <time>2022-06-25T19:29:06Z</time>
      </trkpt>
      <trkpt lat="46.08276" lon="4.63657">
        <ele>332.4</ele>
        <time>2022-06-25T19:29:07Z</time>
      </trkpt>
      <trkpt lat="46.08275" lon="4.63653">
        <ele>332.4</ele>
        <time>2022-06-25T19:29:08Z</time>
      </trkpt>
      <trkpt lat="46.08274" lon="4.6365">
        <ele>332.6</ele>
        <time>2022-06-25T19:29:09Z</time>
      </trkpt>
      <trkpt lat="46.08272" lon="4.63647">
        <ele>332.6</ele>
        <time>2022-06-25T19:29:10Z</time>
      </trkpt>
      <trkpt lat="46.08271" lon="4.63643">
        <ele>332.8</ele>
        <time>2022-06-25T19:29:11Z</time>
      </trkpt>
      <trkpt lat="46.08269" lon="4.6364">
        <ele>332.8</ele>
        <time>2022-06-25T19:29:12Z</time>
      </trkpt>
      <trkpt lat="46.08268" lon="4.63636">
        <ele>333.2</ele>
        <time>2022-06-25T19:29:13Z</time>
      </trkpt>
      <trkpt lat="46.08267" lon="4.63633">
        <ele>333.2</ele>
        <time>2022-06-25T19:29:14Z</time>
      </trkpt>
      <trkpt lat="46.08265" lon="4.63629">
        <ele>333.4</ele>
        <time>2022-06-25T19:29:15Z</time>
      </trkpt>
      <trkpt lat="46.08264" lon="4.63626">
        <ele>333.4</ele>
        <time>2022-06-25T19:29:16Z</time>
      </trkpt>
      <trkpt lat="46.08262" lon="4.63622">
        <ele>333.8</ele>
        <time>2022-06-25T19:29:17Z</time>
      </trkpt>
      <trkpt lat="46.08261" lon="4.63619">
        <ele>333.8</ele>
        <time>2022-06-25T19:29:18Z</time>
      </trkpt>
      <trkpt lat="46.08259" lon="4.63616">
        <ele>334.2</ele>
        <time>2022-06-25T19:29:19Z</time>
      </trkpt>
      <trkpt lat="46.08257" lon="4.63613">
        <ele>334.4</ele>
        <time>2022-06-25T19:29:20Z</time>
      </trkpt>
      <trkpt lat="46.08255" lon="4.6361">
        <ele>334.6</ele>
        <time>2022-06-25T19:29:21Z</time>
      </trkpt>
      <trkpt lat="46.08253" lon="4.63607">
        <ele>335</ele>
        <time>2022-06-25T19:29:22Z</time>
      </trkpt>
      <trkpt lat="46.08252" lon="4.63605">
        <ele>335.2</ele>
        <time>2022-06-25T19:29:23Z</time>
      </trkpt>
      <trkpt lat="46.0825" lon="4.63602">
        <ele>335.4</ele>
        <time>2022-06-25T19:29:24Z</time>
      </trkpt>
      <trkpt lat="46.08248" lon="4.63599">
        <ele>335.6</ele>
        <time>2022-06-25T19:29:25Z</time>
      </trkpt>
      <trkpt lat="46.08246" lon="4.63596">
        <ele>335.8</ele>
        <time>2022-06-25T19:29:26Z</time>
      </trkpt>
      <trkpt lat="46.08244" lon="4.63593">
        <ele>335.8</ele>
        <time>2022-06-25T19:29:27Z</time>
      </trkpt>
      <trkpt lat="46.08242" lon="4.6359">
        <ele>336.2</ele>
        <time>2022-06-25T19:29:28Z</time>
      </trkpt>
      <trkpt lat="46.08241" lon="4.63587">
        <ele>336.2</ele>
        <time>2022-06-25T19:29:29Z</time>
      </trkpt>
      <trkpt lat="46.08239" lon="4.63585">
        <ele>336.6</ele>
        <time>2022-06-25T19:29:30Z</time>
      </trkpt>
      <trkpt lat="46.08238" lon="4.63582">
        <ele>336.8</ele>
        <time>2022-06-25T19:29:31Z</time>
      </trkpt>
      <trkpt lat="46.08236" lon="4.63579">
        <ele>337.2</ele>
        <time>2022-06-25T19:29:32Z</time>
      </trkpt>
      <trkpt lat="46.08234" lon="4.63577">
        <ele>337.2</ele>
        <time>2022-06-25T19:29:33Z</time>
      </trkpt>
      <trkpt lat="46.08233" lon="4.63574">
        <ele>337.4</ele>
        <time>2022-06-25T19:29:34Z</time>
      </trkpt>
      <trkpt lat="46.08231" lon="4.63571">
        <ele>337.4</ele>
        <time>2022-06-25T19:29:35Z</time>
      </trkpt>
      <trkpt lat="46.0823" lon="4.63569">
        <ele>337.8</ele>
        <time>2022-06-25T19:29:36Z</time>
      </trkpt>
      <trkpt lat="46.08228" lon="4.63566">
        <ele>337.8</ele>
        <time>2022-06-25T19:29:37Z</time>
      </trkpt>
      <trkpt lat="46.08226" lon="4.63564">
        <ele>338</ele>
        <time>2022-06-25T19:29:38Z</time>
      </trkpt>
      <trkpt lat="46.08225" lon="4.63562">
        <ele>338</ele>
        <time>2022-06-25T19:29:39Z</time>
      </trkpt>
      <trkpt lat="46.08223" lon="4.6356">
        <ele>338.2</ele>
        <time>2022-06-25T19:29:40Z</time>
      </trkpt>
      <trkpt lat="46.08221" lon="4.63557">
        <ele>338.2</ele>
        <time>2022-06-25T19:29:41Z</time>
      </trkpt>
      <trkpt lat="46.0822" lon="4.63555">
        <ele>338.6</ele>
        <time>2022-06-25T19:29:42Z</time>
      </trkpt>
      <trkpt lat="46.08218" lon="4.63552">
        <ele>338.8</ele>
        <time>2022-06-25T19:29:43Z</time>
      </trkpt>
      <trkpt lat="46.08217" lon="4.63549">
        <ele>338.8</ele>
        <time>2022-06-25T19:29:44Z</time>
      </trkpt>
      <trkpt lat="46.08215" lon="4.63546">
        <ele>339.2</ele>
        <time>2022-06-25T19:29:45Z</time>
      </trkpt>
      <trkpt lat="46.08213" lon="4.63543">
        <ele>339.2</ele>
        <time>2022-06-25T19:29:46Z</time>
      </trkpt>
      <trkpt lat="46.08211" lon="4.63541">
        <ele>339.6</ele>
        <time>2022-06-25T19:29:47Z</time>
      </trkpt>
      <trkpt lat="46.0821" lon="4.63538">
        <ele>339.6</ele>
        <time>2022-06-25T19:29:48Z</time>
      </trkpt>
      <trkpt lat="46.08208" lon="4.63536">
        <ele>340</ele>
        <time>2022-06-25T19:29:49Z</time>
      </trkpt>
      <trkpt lat="46.08206" lon="4.63533">
        <ele>340.2</ele>
        <time>2022-06-25T19:29:50Z</time>
      </trkpt>
      <trkpt lat="46.08205" lon="4.6353">
        <ele>340.4</ele>
        <time>2022-06-25T19:29:51Z</time>
      </trkpt>
      <trkpt lat="46.08203" lon="4.63527">
        <ele>340.4</ele>
        <time>2022-06-25T19:29:52Z</time>
      </trkpt>
      <trkpt lat="46.08201" lon="4.63524">
        <ele>340.8</ele>
        <time>2022-06-25T19:29:53Z</time>
      </trkpt>
      <trkpt lat="46.08199" lon="4.63522">
        <ele>340.8</ele>
        <time>2022-06-25T19:29:54Z</time>
      </trkpt>
      <trkpt lat="46.08198" lon="4.63519">
        <ele>341.2</ele>
        <time>2022-06-25T19:29:55Z</time>
      </trkpt>
      <trkpt lat="46.08196" lon="4.63516">
        <ele>341.4</ele>
        <time>2022-06-25T19:29:56Z</time>
      </trkpt>
      <trkpt lat="46.08194" lon="4.63513">
        <ele>341.4</ele>
        <time>2022-06-25T19:29:57Z</time>
      </trkpt>
      <trkpt lat="46.08193" lon="4.6351">
        <ele>341.6</ele>
        <time>2022-06-25T19:29:58Z</time>
      </trkpt>
      <trkpt lat="46.08191" lon="4.63508">
        <ele>342</ele>
        <time>2022-06-25T19:29:59Z</time>
      </trkpt>
      <trkpt lat="46.08189" lon="4.63505">
        <ele>342.2</ele>
        <time>2022-06-25T19:30:00Z</time>
      </trkpt>
      <trkpt lat="46.08187" lon="4.63502">
        <ele>342.2</ele>
        <time>2022-06-25T19:30:01Z</time>
      </trkpt>
      <trkpt lat="46.08185" lon="4.635">
        <ele>342.6</ele>
        <time>2022-06-25T19:30:02Z</time>
      </trkpt>
      <trkpt lat="46.08184" lon="4.63497">
        <ele>342.6</ele>
        <time>2022-06-25T19:30:03Z</time>
      </trkpt>
      <trkpt lat="46.08182" lon="4.63494">
        <ele>342.8</ele>
        <time>2022-06-25T19:30:04Z</time>
      </trkpt>
      <trkpt lat="46.0818" lon="4.63492">
        <ele>342.8</ele>
        <time>2022-06-25T19:30:05Z</time>
      </trkpt>
      <trkpt lat="46.08178" lon="4.63489">
        <ele>343.2</ele>
        <time>2022-06-25T19:30:06Z</time>
      </trkpt>
      <trkpt lat="46.08177" lon="4.63487">
        <ele>343.4</ele>
        <time>2022-06-25T19:30:07Z</time>
      </trkpt>
      <trkpt lat="46.08175" lon="4.63484">
        <ele>343.8</ele>
        <time>2022-06-25T19:30:08Z</time>
      </trkpt>
      <trkpt lat="46.08173" lon="4.63482">
        <ele>344</ele>
        <time>2022-06-25T19:30:09Z</time>
      </trkpt>
      <trkpt lat="46.08172" lon="4.63479">
        <ele>344</ele>
        <time>2022-06-25T19:30:10Z</time>
      </trkpt>
      <trkpt lat="46.0817" lon="4.63477">
        <ele>344.4</ele>
        <time>2022-06-25T19:30:11Z</time>
      </trkpt>
      <trkpt lat="46.08168" lon="4.63474">
        <ele>344.4</ele>
        <time>2022-06-25T19:30:12Z</time>
      </trkpt>
      <trkpt lat="46.08167" lon="4.63471">
        <ele>344.6</ele>
        <time>2022-06-25T19:30:13Z</time>
      </trkpt>
      <trkpt lat="46.08165" lon="4.63469">
        <ele>344.6</ele>
        <time>2022-06-25T19:30:14Z</time>
      </trkpt>
      <trkpt lat="46.08164" lon="4.63466">
        <ele>345</ele>
        <time>2022-06-25T19:30:15Z</time>
      </trkpt>
      <trkpt lat="46.08162" lon="4.63463">
        <ele>345</ele>
        <time>2022-06-25T19:30:16Z</time>
      </trkpt>
      <trkpt lat="46.08161" lon="4.63461">
        <ele>345.2</ele>
        <time>2022-06-25T19:30:17Z</time>
      </trkpt>
      <trkpt lat="46.08159" lon="4.63458">
        <ele>345.2</ele>
        <time>2022-06-25T19:30:18Z</time>
      </trkpt>
      <trkpt lat="46.08158" lon="4.63455">
        <ele>345.6</ele>
        <time>2022-06-25T19:30:19Z</time>
      </trkpt>
      <trkpt lat="46.08156" lon="4.63452">
        <ele>345.6</ele>
        <time>2022-06-25T19:30:20Z</time>
      </trkpt>
      <trkpt lat="46.08154" lon="4.63448">
        <ele>345.8</ele>
        <time>2022-06-25T19:30:21Z</time>
      </trkpt>
      <trkpt lat="46.08152" lon="4.63445">
        <ele>345.8</ele>
        <time>2022-06-25T19:30:22Z</time>
      </trkpt>
      <trkpt lat="46.08151" lon="4.63442">
        <ele>346.2</ele>
        <time>2022-06-25T19:30:23Z</time>
      </trkpt>
      <trkpt lat="46.08149" lon="4.63439">
        <ele>346.2</ele>
        <time>2022-06-25T19:30:24Z</time>
      </trkpt>
      <trkpt lat="46.08147" lon="4.63435">
        <ele>346.4</ele>
        <time>2022-06-25T19:30:25Z</time>
      </trkpt>
      <trkpt lat="46.08145" lon="4.63432">
        <ele>346.4</ele>
        <time>2022-06-25T19:30:26Z</time>
      </trkpt>
      <trkpt lat="46.08143" lon="4.63429">
        <ele>346.6</ele>
        <time>2022-06-25T19:30:27Z</time>
      </trkpt>
      <trkpt lat="46.08142" lon="4.63425">
        <ele>346.6</ele>
        <time>2022-06-25T19:30:28Z</time>
      </trkpt>
      <trkpt lat="46.0814" lon="4.63422">
        <ele>347</ele>
        <time>2022-06-25T19:30:29Z</time>
      </trkpt>
      <trkpt lat="46.08138" lon="4.63419">
        <ele>347</ele>
        <time>2022-06-25T19:30:30Z</time>
      </trkpt>
      <trkpt lat="46.08136" lon="4.63415">
        <ele>347.2</ele>
        <time>2022-06-25T19:30:31Z</time>
      </trkpt>
      <trkpt lat="46.08134" lon="4.63412">
        <ele>347.2</ele>
        <time>2022-06-25T19:30:32Z</time>
      </trkpt>
      <trkpt lat="46.08133" lon="4.63408">
        <ele>347.4</ele>
        <time>2022-06-25T19:30:33Z</time>
      </trkpt>
      <trkpt lat="46.08131" lon="4.63405">
        <ele>347.4</ele>
        <time>2022-06-25T19:30:34Z</time>
      </trkpt>
      <trkpt lat="46.08129" lon="4.63401">
        <ele>347.8</ele>
        <time>2022-06-25T19:30:35Z</time>
      </trkpt>
      <trkpt lat="46.08128" lon="4.63398">
        <ele>347.8</ele>
        <time>2022-06-25T19:30:36Z</time>
      </trkpt>
      <trkpt lat="46.08126" lon="4.63394">
        <ele>348</ele>
        <time>2022-06-25T19:30:37Z</time>
      </trkpt>
      <trkpt lat="46.08124" lon="4.63391">
        <ele>348</ele>
        <time>2022-06-25T19:30:38Z</time>
      </trkpt>
      <trkpt lat="46.08123" lon="4.63387">
        <ele>348.2</ele>
        <time>2022-06-25T19:30:39Z</time>
      </trkpt>
      <trkpt lat="46.08121" lon="4.63384">
        <ele>348.2</ele>
        <time>2022-06-25T19:30:40Z</time>
      </trkpt>
      <trkpt lat="46.0812" lon="4.6338">
        <ele>348.4</ele>
        <time>2022-06-25T19:30:41Z</time>
      </trkpt>
      <trkpt lat="46.08118" lon="4.63377">
        <ele>348.4</ele>
        <time>2022-06-25T19:30:42Z</time>
      </trkpt>
      <trkpt lat="46.08116" lon="4.63373">
        <ele>348.8</ele>
        <time>2022-06-25T19:30:43Z</time>
      </trkpt>
      <trkpt lat="46.08114" lon="4.63369">
        <ele>349</ele>
        <time>2022-06-25T19:30:44Z</time>
      </trkpt>
      <trkpt lat="46.08113" lon="4.63365">
        <ele>349.2</ele>
        <time>2022-06-25T19:30:45Z</time>
      </trkpt>
      <trkpt lat="46.08111" lon="4.63362">
        <ele>349.2</ele>
        <time>2022-06-25T19:30:46Z</time>
      </trkpt>
      <trkpt lat="46.0811" lon="4.63358">
        <ele>349.6</ele>
        <time>2022-06-25T19:30:47Z</time>
      </trkpt>
      <trkpt lat="46.08108" lon="4.63354">
        <ele>349.6</ele>
        <time>2022-06-25T19:30:48Z</time>
      </trkpt>
      <trkpt lat="46.08107" lon="4.6335">
        <ele>350</ele>
        <time>2022-06-25T19:30:49Z</time>
      </trkpt>
      <trkpt lat="46.08106" lon="4.63346">
        <ele>350</ele>
        <time>2022-06-25T19:30:50Z</time>
      </trkpt>
      <trkpt lat="46.08104" lon="4.63342">
        <ele>350.4</ele>
        <time>2022-06-25T19:30:51Z</time>
      </trkpt>
      <trkpt lat="46.08103" lon="4.63338">
        <ele>350.4</ele>
        <time>2022-06-25T19:30:52Z</time>
      </trkpt>
      <trkpt lat="46.08102" lon="4.63333">
        <ele>350.6</ele>
        <time>2022-06-25T19:30:53Z</time>
      </trkpt>
      <trkpt lat="46.08101" lon="4.63329">
        <ele>350.6</ele>
        <time>2022-06-25T19:30:54Z</time>
      </trkpt>
      <trkpt lat="46.081" lon="4.63325">
        <ele>351</ele>
        <time>2022-06-25T19:30:55Z</time>
      </trkpt>
      <trkpt lat="46.08099" lon="4.6332">
        <ele>351</ele>
        <time>2022-06-25T19:30:56Z</time>
      </trkpt>
      <trkpt lat="46.08098" lon="4.63316">
        <ele>351.2</ele>
        <time>2022-06-25T19:30:57Z</time>
      </trkpt>
      <trkpt lat="46.08097" lon="4.63312">
        <ele>351.2</ele>
        <time>2022-06-25T19:30:58Z</time>
      </trkpt>
      <trkpt lat="46.08097" lon="4.63308">
        <ele>351.6</ele>
        <time>2022-06-25T19:30:59Z</time>
      </trkpt>
      <trkpt lat="46.08096" lon="4.63304">
        <ele>351.8</ele>
        <time>2022-06-25T19:31:00Z</time>
      </trkpt>
      <trkpt lat="46.08095" lon="4.633">
        <ele>351.8</ele>
        <time>2022-06-25T19:31:01Z</time>
      </trkpt>
      <trkpt lat="46.08094" lon="4.63296">
        <ele>351.8</ele>
        <time>2022-06-25T19:31:02Z</time>
      </trkpt>
      <trkpt lat="46.08093" lon="4.63292">
        <ele>352.2</ele>
        <time>2022-06-25T19:31:03Z</time>
      </trkpt>
      <trkpt lat="46.08092" lon="4.63287">
        <ele>352.2</ele>
        <time>2022-06-25T19:31:04Z</time>
      </trkpt>
      <trkpt lat="46.08091" lon="4.63283">
        <ele>352.4</ele>
        <time>2022-06-25T19:31:05Z</time>
      </trkpt>
      <trkpt lat="46.0809" lon="4.63278">
        <ele>352.4</ele>
        <time>2022-06-25T19:31:06Z</time>
      </trkpt>
      <trkpt lat="46.0809" lon="4.63274">
        <ele>352.4</ele>
        <time>2022-06-25T19:31:07Z</time>
      </trkpt>
      <trkpt lat="46.08089" lon="4.63269">
        <ele>352.6</ele>
        <time>2022-06-25T19:31:08Z</time>
      </trkpt>
      <trkpt lat="46.08088" lon="4.63264">
        <ele>352.6</ele>
        <time>2022-06-25T19:31:09Z</time>
      </trkpt>
      <trkpt lat="46.08087" lon="4.6326">
        <ele>352.6</ele>
        <time>2022-06-25T19:31:10Z</time>
      </trkpt>
      <trkpt lat="46.08086" lon="4.63255">
        <ele>352.6</ele>
        <time>2022-06-25T19:31:11Z</time>
      </trkpt>
      <trkpt lat="46.08084" lon="4.6325">
        <ele>352.6</ele>
        <time>2022-06-25T19:31:12Z</time>
      </trkpt>
      <trkpt lat="46.08083" lon="4.63246">
        <ele>353</ele>
        <time>2022-06-25T19:31:13Z</time>
      </trkpt>
      <trkpt lat="46.08083" lon="4.63241">
        <ele>353</ele>
        <time>2022-06-25T19:31:14Z</time>
      </trkpt>
      <trkpt lat="46.08082" lon="4.63236">
        <ele>353.2</ele>
        <time>2022-06-25T19:31:15Z</time>
      </trkpt>
      <trkpt lat="46.08081" lon="4.63232">
        <ele>353.2</ele>
        <time>2022-06-25T19:31:16Z</time>
      </trkpt>
      <trkpt lat="46.0808" lon="4.63227">
        <ele>353.4</ele>
        <time>2022-06-25T19:31:17Z</time>
      </trkpt>
      <trkpt lat="46.08079" lon="4.63222">
        <ele>353.4</ele>
        <time>2022-06-25T19:31:18Z</time>
      </trkpt>
      <trkpt lat="46.08078" lon="4.63217">
        <ele>353.4</ele>
        <time>2022-06-25T19:31:19Z</time>
      </trkpt>
      <trkpt lat="46.08077" lon="4.63213">
        <ele>353.4</ele>
        <time>2022-06-25T19:31:20Z</time>
      </trkpt>
      <trkpt lat="46.08076" lon="4.63208">
        <ele>353.4</ele>
        <time>2022-06-25T19:31:21Z</time>
      </trkpt>
      <trkpt lat="46.08075" lon="4.63204">
        <ele>353.6</ele>
        <time>2022-06-25T19:31:22Z</time>
      </trkpt>
      <trkpt lat="46.08073" lon="4.63199">
        <ele>353.6</ele>
        <time>2022-06-25T19:31:23Z</time>
      </trkpt>
      <trkpt lat="46.08072" lon="4.63195">
        <ele>354</ele>
        <time>2022-06-25T19:31:24Z</time>
      </trkpt>
      <trkpt lat="46.08071" lon="4.6319">
        <ele>354</ele>
        <time>2022-06-25T19:31:25Z</time>
      </trkpt>
      <trkpt lat="46.0807" lon="4.63186">
        <ele>354.2</ele>
        <time>2022-06-25T19:31:26Z</time>
      </trkpt>
      <trkpt lat="46.08069" lon="4.63182">
        <ele>354.2</ele>
        <time>2022-06-25T19:31:27Z</time>
      </trkpt>
      <trkpt lat="46.08067" lon="4.63177">
        <ele>354.6</ele>
        <time>2022-06-25T19:31:28Z</time>
      </trkpt>
      <trkpt lat="46.08066" lon="4.63173">
        <ele>354.6</ele>
        <time>2022-06-25T19:31:29Z</time>
      </trkpt>
      <trkpt lat="46.08064" lon="4.63164">
        <ele>354.8</ele>
        <time>2022-06-25T19:31:30Z</time>
      </trkpt>
      <trkpt lat="46.08062" lon="4.6316">
        <ele>354.8</ele>
        <time>2022-06-25T19:31:31Z</time>
      </trkpt>
      <trkpt lat="46.0806" lon="4.63155">
        <ele>354.8</ele>
        <time>2022-06-25T19:31:32Z</time>
      </trkpt>
      <trkpt lat="46.08059" lon="4.63151">
        <ele>355.2</ele>
        <time>2022-06-25T19:31:33Z</time>
      </trkpt>
      <trkpt lat="46.08057" lon="4.63147">
        <ele>355.2</ele>
        <time>2022-06-25T19:31:34Z</time>
      </trkpt>
      <trkpt lat="46.08055" lon="4.63142">
        <ele>355.4</ele>
        <time>2022-06-25T19:31:35Z</time>
      </trkpt>
      <trkpt lat="46.08054" lon="4.63138">
        <ele>355.4</ele>
        <time>2022-06-25T19:31:36Z</time>
      </trkpt>
      <trkpt lat="46.08052" lon="4.63133">
        <ele>355.6</ele>
        <time>2022-06-25T19:31:37Z</time>
      </trkpt>
      <trkpt lat="46.0805" lon="4.63129">
        <ele>355.6</ele>
        <time>2022-06-25T19:31:38Z</time>
      </trkpt>
      <trkpt lat="46.08049" lon="4.63125">
        <ele>355.8</ele>
        <time>2022-06-25T19:31:39Z</time>
      </trkpt>
      <trkpt lat="46.08047" lon="4.6312">
        <ele>355.8</ele>
        <time>2022-06-25T19:31:40Z</time>
      </trkpt>
      <trkpt lat="46.08045" lon="4.63116">
        <ele>355.8</ele>
        <time>2022-06-25T19:31:41Z</time>
      </trkpt>
      <trkpt lat="46.08043" lon="4.63113">
        <ele>356</ele>
        <time>2022-06-25T19:31:42Z</time>
      </trkpt>
      <trkpt lat="46.0804" lon="4.63109">
        <ele>356</ele>
        <time>2022-06-25T19:31:43Z</time>
      </trkpt>
      <trkpt lat="46.08038" lon="4.63105">
        <ele>356</ele>
        <time>2022-06-25T19:31:44Z</time>
      </trkpt>
      <trkpt lat="46.08036" lon="4.63102">
        <ele>356.4</ele>
        <time>2022-06-25T19:31:45Z</time>
      </trkpt>
      <trkpt lat="46.08034" lon="4.63098">
        <ele>356.6</ele>
        <time>2022-06-25T19:31:46Z</time>
      </trkpt>
      <trkpt lat="46.08032" lon="4.63095">
        <ele>356.6</ele>
        <time>2022-06-25T19:31:47Z</time>
      </trkpt>
      <trkpt lat="46.0803" lon="4.63091">
        <ele>356.8</ele>
        <time>2022-06-25T19:31:48Z</time>
      </trkpt>
      <trkpt lat="46.08028" lon="4.63088">
        <ele>356.8</ele>
        <time>2022-06-25T19:31:49Z</time>
      </trkpt>
      <trkpt lat="46.08026" lon="4.63084">
        <ele>357</ele>
        <time>2022-06-25T19:31:50Z</time>
      </trkpt>
      <trkpt lat="46.08024" lon="4.63081">
        <ele>357</ele>
        <time>2022-06-25T19:31:51Z</time>
      </trkpt>
      <trkpt lat="46.08022" lon="4.63078">
        <ele>357.4</ele>
        <time>2022-06-25T19:31:52Z</time>
      </trkpt>
      <trkpt lat="46.0802" lon="4.63075">
        <ele>357.4</ele>
        <time>2022-06-25T19:31:53Z</time>
      </trkpt>
      <trkpt lat="46.08018" lon="4.63072">
        <ele>357.8</ele>
        <time>2022-06-25T19:31:54Z</time>
      </trkpt>
      <trkpt lat="46.08016" lon="4.63069">
        <ele>358</ele>
        <time>2022-06-25T19:31:55Z</time>
      </trkpt>
      <trkpt lat="46.08014" lon="4.63065">
        <ele>358</ele>
        <time>2022-06-25T19:31:56Z</time>
      </trkpt>
      <trkpt lat="46.08012" lon="4.63062">
        <ele>358.2</ele>
        <time>2022-06-25T19:31:57Z</time>
      </trkpt>
      <trkpt lat="46.08011" lon="4.63059">
        <ele>358.6</ele>
        <time>2022-06-25T19:31:58Z</time>
      </trkpt>
      <trkpt lat="46.08009" lon="4.63055">
        <ele>358.6</ele>
        <time>2022-06-25T19:31:59Z</time>
      </trkpt>
      <trkpt lat="46.08007" lon="4.63052">
        <ele>358.8</ele>
        <time>2022-06-25T19:32:00Z</time>
      </trkpt>
      <trkpt lat="46.08005" lon="4.63049">
        <ele>358.8</ele>
        <time>2022-06-25T19:32:01Z</time>
      </trkpt>
      <trkpt lat="46.08003" lon="4.63046">
        <ele>359</ele>
        <time>2022-06-25T19:32:02Z</time>
      </trkpt>
      <trkpt lat="46.08001" lon="4.63043">
        <ele>359</ele>
        <time>2022-06-25T19:32:03Z</time>
      </trkpt>
      <trkpt lat="46.07999" lon="4.6304">
        <ele>359.4</ele>
        <time>2022-06-25T19:32:04Z</time>
      </trkpt>
      <trkpt lat="46.07997" lon="4.63036">
        <ele>359.4</ele>
        <time>2022-06-25T19:32:05Z</time>
      </trkpt>
      <trkpt lat="46.07995" lon="4.63033">
        <ele>359.6</ele>
        <time>2022-06-25T19:32:06Z</time>
      </trkpt>
      <trkpt lat="46.07993" lon="4.6303">
        <ele>359.8</ele>
        <time>2022-06-25T19:32:07Z</time>
      </trkpt>
      <trkpt lat="46.07991" lon="4.63026">
        <ele>359.8</ele>
        <time>2022-06-25T19:32:08Z</time>
      </trkpt>
      <trkpt lat="46.07989" lon="4.63023">
        <ele>360.2</ele>
        <time>2022-06-25T19:32:09Z</time>
      </trkpt>
      <trkpt lat="46.07987" lon="4.6302">
        <ele>360.2</ele>
        <time>2022-06-25T19:32:10Z</time>
      </trkpt>
      <trkpt lat="46.07985" lon="4.63017">
        <ele>360.2</ele>
        <time>2022-06-25T19:32:11Z</time>
      </trkpt>
      <trkpt lat="46.07983" lon="4.63013">
        <ele>360.4</ele>
        <time>2022-06-25T19:32:12Z</time>
      </trkpt>
      <trkpt lat="46.07982" lon="4.6301">
        <ele>360.4</ele>
        <time>2022-06-25T19:32:13Z</time>
      </trkpt>
      <trkpt lat="46.0798" lon="4.63007">
        <ele>360.8</ele>
        <time>2022-06-25T19:32:14Z</time>
      </trkpt>
      <trkpt lat="46.07978" lon="4.63004">
        <ele>360.8</ele>
        <time>2022-06-25T19:32:15Z</time>
      </trkpt>
      <trkpt lat="46.07976" lon="4.63001">
        <ele>360.8</ele>
        <time>2022-06-25T19:32:16Z</time>
      </trkpt>
      <trkpt lat="46.07974" lon="4.62998">
        <ele>361</ele>
        <time>2022-06-25T19:32:17Z</time>
      </trkpt>
      <trkpt lat="46.07972" lon="4.62995">
        <ele>361</ele>
        <time>2022-06-25T19:32:18Z</time>
      </trkpt>
      <trkpt lat="46.0797" lon="4.62991">
        <ele>361</ele>
        <time>2022-06-25T19:32:19Z</time>
      </trkpt>
      <trkpt lat="46.07968" lon="4.62988">
        <ele>361.2</ele>
        <time>2022-06-25T19:32:20Z</time>
      </trkpt>
      <trkpt lat="46.07966" lon="4.62984">
        <ele>361.2</ele>
        <time>2022-06-25T19:32:21Z</time>
      </trkpt>
      <trkpt lat="46.07964" lon="4.62981">
        <ele>361.2</ele>
        <time>2022-06-25T19:32:22Z</time>
      </trkpt>
      <trkpt lat="46.07962" lon="4.62978">
        <ele>361.6</ele>
        <time>2022-06-25T19:32:23Z</time>
      </trkpt>
      <trkpt lat="46.0796" lon="4.62975">
        <ele>361.6</ele>
        <time>2022-06-25T19:32:24Z</time>
      </trkpt>
      <trkpt lat="46.07959" lon="4.62972">
        <ele>361.8</ele>
        <time>2022-06-25T19:32:25Z</time>
      </trkpt>
      <trkpt lat="46.07957" lon="4.62969">
        <ele>361.8</ele>
        <time>2022-06-25T19:32:26Z</time>
      </trkpt>
      <trkpt lat="46.07955" lon="4.62965">
        <ele>361.8</ele>
        <time>2022-06-25T19:32:27Z</time>
      </trkpt>
      <trkpt lat="46.07953" lon="4.62963">
        <ele>361.8</ele>
        <time>2022-06-25T19:32:28Z</time>
      </trkpt>
      <trkpt lat="46.07951" lon="4.6296">
        <ele>361.8</ele>
        <time>2022-06-25T19:32:29Z</time>
      </trkpt>
      <trkpt lat="46.07949" lon="4.62957">
        <ele>362</ele>
        <time>2022-06-25T19:32:30Z</time>
      </trkpt>
      <trkpt lat="46.07947" lon="4.62954">
        <ele>362</ele>
        <time>2022-06-25T19:32:31Z</time>
      </trkpt>
      <trkpt lat="46.07945" lon="4.62952">
        <ele>362.2</ele>
        <time>2022-06-25T19:32:32Z</time>
      </trkpt>
      <trkpt lat="46.07943" lon="4.62949">
        <ele>362.2</ele>
        <time>2022-06-25T19:32:33Z</time>
      </trkpt>
      <trkpt lat="46.0794" lon="4.62946">
        <ele>362.2</ele>
        <time>2022-06-25T19:32:34Z</time>
      </trkpt>
      <trkpt lat="46.07938" lon="4.62944">
        <ele>362.4</ele>
        <time>2022-06-25T19:32:35Z</time>
      </trkpt>
      <trkpt lat="46.07936" lon="4.62941">
        <ele>362.4</ele>
        <time>2022-06-25T19:32:36Z</time>
      </trkpt>
      <trkpt lat="46.07934" lon="4.62939">
        <ele>362.4</ele>
        <time>2022-06-25T19:32:37Z</time>
      </trkpt>
      <trkpt lat="46.07931" lon="4.62937">
        <ele>362.4</ele>
        <time>2022-06-25T19:32:38Z</time>
      </trkpt>
      <trkpt lat="46.07929" lon="4.62935">
        <ele>362.4</ele>
        <time>2022-06-25T19:32:39Z</time>
      </trkpt>
      <trkpt lat="46.07927" lon="4.62934">
        <ele>362.4</ele>
        <time>2022-06-25T19:32:40Z</time>
      </trkpt>
      <trkpt lat="46.07925" lon="4.62932">
        <ele>362.4</ele>
        <time>2022-06-25T19:32:41Z</time>
      </trkpt>
      <trkpt lat="46.07923" lon="4.62931">
        <ele>362.4</ele>
        <time>2022-06-25T19:32:42Z</time>
      </trkpt>
      <trkpt lat="46.0792" lon="4.6293">
        <ele>362.4</ele>
        <time>2022-06-25T19:32:43Z</time>
      </trkpt>
      <trkpt lat="46.07917" lon="4.6293">
        <ele>362.4</ele>
        <time>2022-06-25T19:32:44Z</time>
      </trkpt>
      <trkpt lat="46.07913" lon="4.6293">
        <ele>362.4</ele>
        <time>2022-06-25T19:32:45Z</time>
      </trkpt>
      <trkpt lat="46.0791" lon="4.6293">
        <ele>362.4</ele>
        <time>2022-06-25T19:32:46Z</time>
      </trkpt>
      <trkpt lat="46.07906" lon="4.62931">
        <ele>362.4</ele>
        <time>2022-06-25T19:32:47Z</time>
      </trkpt>
      <trkpt lat="46.07902" lon="4.62932">
        <ele>362.4</ele>
        <time>2022-06-25T19:32:48Z</time>
      </trkpt>
      <trkpt lat="46.07898" lon="4.62933">
        <ele>362.4</ele>
        <time>2022-06-25T19:32:49Z</time>
      </trkpt>
      <trkpt lat="46.07893" lon="4.62934">
        <ele>362.4</ele>
        <time>2022-06-25T19:32:50Z</time>
      </trkpt>
      <trkpt lat="46.07889" lon="4.62934">
        <ele>362.4</ele>
        <time>2022-06-25T19:32:51Z</time>
      </trkpt>
      <trkpt lat="46.07885" lon="4.62935">
        <ele>362.4</ele>
        <time>2022-06-25T19:32:53Z</time>
      </trkpt>
      <trkpt lat="46.07881" lon="4.62935">
        <ele>362.4</ele>
        <time>2022-06-25T19:32:54Z</time>
      </trkpt>
      <trkpt lat="46.07876" lon="4.62936">
        <ele>362.6</ele>
        <time>2022-06-25T19:32:55Z</time>
      </trkpt>
      <trkpt lat="46.07872" lon="4.62937">
        <ele>362.6</ele>
        <time>2022-06-25T19:32:56Z</time>
      </trkpt>
      <trkpt lat="46.07868" lon="4.62938">
        <ele>362.6</ele>
        <time>2022-06-25T19:32:57Z</time>
      </trkpt>
      <trkpt lat="46.07865" lon="4.62939">
        <ele>363</ele>
        <time>2022-06-25T19:32:58Z</time>
      </trkpt>
      <trkpt lat="46.07861" lon="4.62939">
        <ele>363</ele>
        <time>2022-06-25T19:32:59Z</time>
      </trkpt>
      <trkpt lat="46.07857" lon="4.6294">
        <ele>363</ele>
        <time>2022-06-25T19:33:00Z</time>
      </trkpt>
      <trkpt lat="46.07853" lon="4.6294">
        <ele>363</ele>
        <time>2022-06-25T19:33:01Z</time>
      </trkpt>
      <trkpt lat="46.0785" lon="4.62941">
        <ele>363.2</ele>
        <time>2022-06-25T19:33:02Z</time>
      </trkpt>
      <trkpt lat="46.07846" lon="4.62942">
        <ele>363.2</ele>
        <time>2022-06-25T19:33:03Z</time>
      </trkpt>
      <trkpt lat="46.07842" lon="4.62943">
        <ele>363.4</ele>
        <time>2022-06-25T19:33:04Z</time>
      </trkpt>
      <trkpt lat="46.07839" lon="4.62943">
        <ele>363.4</ele>
        <time>2022-06-25T19:33:05Z</time>
      </trkpt>
      <trkpt lat="46.07835" lon="4.62944">
        <ele>363.4</ele>
        <time>2022-06-25T19:33:06Z</time>
      </trkpt>
      <trkpt lat="46.07832" lon="4.62944">
        <ele>363.4</ele>
        <time>2022-06-25T19:33:07Z</time>
      </trkpt>
      <trkpt lat="46.07828" lon="4.62945">
        <ele>363.6</ele>
        <time>2022-06-25T19:33:08Z</time>
      </trkpt>
      <trkpt lat="46.07825" lon="4.62945">
        <ele>363.6</ele>
        <time>2022-06-25T19:33:09Z</time>
      </trkpt>
      <trkpt lat="46.07821" lon="4.62945">
        <ele>363.6</ele>
        <time>2022-06-25T19:33:10Z</time>
      </trkpt>
      <trkpt lat="46.07818" lon="4.62946">
        <ele>364</ele>
        <time>2022-06-25T19:33:11Z</time>
      </trkpt>
      <trkpt lat="46.07815" lon="4.62946">
        <ele>364</ele>
        <time>2022-06-25T19:33:12Z</time>
      </trkpt>
      <trkpt lat="46.07812" lon="4.62947">
        <ele>364.2</ele>
        <time>2022-06-25T19:33:13Z</time>
      </trkpt>
      <trkpt lat="46.07809" lon="4.62948">
        <ele>364.2</ele>
        <time>2022-06-25T19:33:14Z</time>
      </trkpt>
      <trkpt lat="46.07806" lon="4.62949">
        <ele>364.4</ele>
        <time>2022-06-25T19:33:15Z</time>
      </trkpt>
      <trkpt lat="46.07804" lon="4.6295">
        <ele>364.4</ele>
        <time>2022-06-25T19:33:16Z</time>
      </trkpt>
      <trkpt lat="46.07801" lon="4.6295">
        <ele>364.8</ele>
        <time>2022-06-25T19:33:17Z</time>
      </trkpt>
      <trkpt lat="46.07798" lon="4.62951">
        <ele>365</ele>
        <time>2022-06-25T19:33:18Z</time>
      </trkpt>
      <trkpt lat="46.07795" lon="4.62952">
        <ele>365.2</ele>
        <time>2022-06-25T19:33:19Z</time>
      </trkpt>
      <trkpt lat="46.07792" lon="4.62953">
        <ele>365.2</ele>
        <time>2022-06-25T19:33:20Z</time>
      </trkpt>
      <trkpt lat="46.07789" lon="4.62954">
        <ele>365.4</ele>
        <time>2022-06-25T19:33:21Z</time>
      </trkpt>
      <trkpt lat="46.07786" lon="4.62955">
        <ele>365.4</ele>
        <time>2022-06-25T19:33:22Z</time>
      </trkpt>
      <trkpt lat="46.07783" lon="4.62955">
        <ele>365.4</ele>
        <time>2022-06-25T19:33:23Z</time>
      </trkpt>
      <trkpt lat="46.0778" lon="4.62955">
        <ele>365.6</ele>
        <time>2022-06-25T19:33:24Z</time>
      </trkpt>
      <trkpt lat="46.07776" lon="4.62956">
        <ele>365.6</ele>
        <time>2022-06-25T19:33:25Z</time>
      </trkpt>
      <trkpt lat="46.07773" lon="4.62956">
        <ele>365.8</ele>
        <time>2022-06-25T19:33:26Z</time>
      </trkpt>
      <trkpt lat="46.0777" lon="4.62956">
        <ele>365.8</ele>
        <time>2022-06-25T19:33:27Z</time>
      </trkpt>
      <trkpt lat="46.07767" lon="4.62957">
        <ele>366.2</ele>
        <time>2022-06-25T19:33:28Z</time>
      </trkpt>
      <trkpt lat="46.07764" lon="4.62957">
        <ele>366.2</ele>
        <time>2022-06-25T19:33:29Z</time>
      </trkpt>
      <trkpt lat="46.07761" lon="4.62958">
        <ele>366.6</ele>
        <time>2022-06-25T19:33:30Z</time>
      </trkpt>
      <trkpt lat="46.07758" lon="4.62958">
        <ele>366.6</ele>
        <time>2022-06-25T19:33:31Z</time>
      </trkpt>
      <trkpt lat="46.07756" lon="4.6296">
        <ele>366.8</ele>
        <time>2022-06-25T19:33:32Z</time>
      </trkpt>
      <trkpt lat="46.07753" lon="4.6296">
        <ele>366.8</ele>
        <time>2022-06-25T19:33:33Z</time>
      </trkpt>
      <trkpt lat="46.0775" lon="4.62961">
        <ele>367.2</ele>
        <time>2022-06-25T19:33:34Z</time>
      </trkpt>
      <trkpt lat="46.07747" lon="4.62962">
        <ele>367.2</ele>
        <time>2022-06-25T19:33:35Z</time>
      </trkpt>
      <trkpt lat="46.07745" lon="4.62962">
        <ele>367.6</ele>
        <time>2022-06-25T19:33:36Z</time>
      </trkpt>
      <trkpt lat="46.07742" lon="4.62962">
        <ele>367.6</ele>
        <time>2022-06-25T19:33:37Z</time>
      </trkpt>
      <trkpt lat="46.07739" lon="4.62962">
        <ele>367.8</ele>
        <time>2022-06-25T19:33:38Z</time>
      </trkpt>
      <trkpt lat="46.07736" lon="4.62962">
        <ele>367.8</ele>
        <time>2022-06-25T19:33:39Z</time>
      </trkpt>
      <trkpt lat="46.07734" lon="4.62963">
        <ele>368</ele>
        <time>2022-06-25T19:33:40Z</time>
      </trkpt>
      <trkpt lat="46.07732" lon="4.62964">
        <ele>368</ele>
        <time>2022-06-25T19:33:41Z</time>
      </trkpt>
      <trkpt lat="46.0773" lon="4.62965">
        <ele>368</ele>
        <time>2022-06-25T19:33:42Z</time>
      </trkpt>
      <trkpt lat="46.07728" lon="4.62965">
        <ele>368.2</ele>
        <time>2022-06-25T19:33:43Z</time>
      </trkpt>
      <trkpt lat="46.07726" lon="4.62966">
        <ele>368.2</ele>
        <time>2022-06-25T19:33:44Z</time>
      </trkpt>
      <trkpt lat="46.07723" lon="4.62966">
        <ele>368.2</ele>
        <time>2022-06-25T19:33:45Z</time>
      </trkpt>
      <trkpt lat="46.07722" lon="4.62967">
        <ele>368.2</ele>
        <time>2022-06-25T19:33:46Z</time>
      </trkpt>
      <trkpt lat="46.0772" lon="4.62968">
        <ele>368.2</ele>
        <time>2022-06-25T19:33:47Z</time>
      </trkpt>
      <trkpt lat="46.07718" lon="4.62969">
        <ele>368.4</ele>
        <time>2022-06-25T19:33:48Z</time>
      </trkpt>
      <trkpt lat="46.07716" lon="4.62971">
        <ele>368.4</ele>
        <time>2022-06-25T19:33:49Z</time>
      </trkpt>
      <trkpt lat="46.07714" lon="4.62972">
        <ele>368.4</ele>
        <time>2022-06-25T19:33:50Z</time>
      </trkpt>
      <trkpt lat="46.07712" lon="4.62974">
        <ele>368.4</ele>
        <time>2022-06-25T19:33:51Z</time>
      </trkpt>
      <trkpt lat="46.0771" lon="4.62975">
        <ele>368.4</ele>
        <time>2022-06-25T19:33:52Z</time>
      </trkpt>
      <trkpt lat="46.07708" lon="4.62977">
        <ele>368.4</ele>
        <time>2022-06-25T19:33:53Z</time>
      </trkpt>
      <trkpt lat="46.07706" lon="4.62979">
        <ele>368.4</ele>
        <time>2022-06-25T19:33:54Z</time>
      </trkpt>
      <trkpt lat="46.07704" lon="4.62983">
        <ele>368.4</ele>
        <time>2022-06-25T19:33:55Z</time>
      </trkpt>
      <trkpt lat="46.07702" lon="4.62986">
        <ele>368.4</ele>
        <time>2022-06-25T19:33:56Z</time>
      </trkpt>
      <trkpt lat="46.07701" lon="4.62988">
        <ele>368.4</ele>
        <time>2022-06-25T19:33:57Z</time>
      </trkpt>
      <trkpt lat="46.07699" lon="4.6299">
        <ele>368.2</ele>
        <time>2022-06-25T19:33:58Z</time>
      </trkpt>
      <trkpt lat="46.07697" lon="4.62993">
        <ele>368.2</ele>
        <time>2022-06-25T19:33:59Z</time>
      </trkpt>
      <trkpt lat="46.07695" lon="4.62995">
        <ele>368.2</ele>
        <time>2022-06-25T19:34:00Z</time>
      </trkpt>
      <trkpt lat="46.07694" lon="4.62997">
        <ele>368</ele>
        <time>2022-06-25T19:34:01Z</time>
      </trkpt>
      <trkpt lat="46.07693" lon="4.62998">
        <ele>368</ele>
        <time>2022-06-25T19:34:02Z</time>
      </trkpt>
      <trkpt lat="46.07691" lon="4.63">
        <ele>368</ele>
        <time>2022-06-25T19:34:03Z</time>
      </trkpt>
      <trkpt lat="46.0769" lon="4.63002">
        <ele>367.8</ele>
        <time>2022-06-25T19:34:04Z</time>
      </trkpt>
      <trkpt lat="46.07689" lon="4.63004">
        <ele>367.8</ele>
        <time>2022-06-25T19:34:05Z</time>
      </trkpt>
      <trkpt lat="46.07687" lon="4.63006">
        <ele>367.8</ele>
        <time>2022-06-25T19:34:06Z</time>
      </trkpt>
      <trkpt lat="46.07686" lon="4.63008">
        <ele>367.8</ele>
        <time>2022-06-25T19:34:07Z</time>
      </trkpt>
      <trkpt lat="46.07684" lon="4.6301">
        <ele>367.4</ele>
        <time>2022-06-25T19:34:08Z</time>
      </trkpt>
      <trkpt lat="46.07682" lon="4.63013">
        <ele>367.4</ele>
        <time>2022-06-25T19:34:09Z</time>
      </trkpt>
      <trkpt lat="46.0768" lon="4.63015">
        <ele>367.2</ele>
        <time>2022-06-25T19:34:10Z</time>
      </trkpt>
      <trkpt lat="46.07678" lon="4.63018">
        <ele>367.2</ele>
        <time>2022-06-25T19:34:11Z</time>
      </trkpt>
      <trkpt lat="46.07676" lon="4.6302">
        <ele>367</ele>
        <time>2022-06-25T19:34:12Z</time>
      </trkpt>
      <trkpt lat="46.07674" lon="4.63022">
        <ele>367</ele>
        <time>2022-06-25T19:34:13Z</time>
      </trkpt>
      <trkpt lat="46.07671" lon="4.63024">
        <ele>366.6</ele>
        <time>2022-06-25T19:34:14Z</time>
      </trkpt>
      <trkpt lat="46.07669" lon="4.63026">
        <ele>366.6</ele>
        <time>2022-06-25T19:34:15Z</time>
      </trkpt>
      <trkpt lat="46.07666" lon="4.63029">
        <ele>366.4</ele>
        <time>2022-06-25T19:34:16Z</time>
      </trkpt>
      <trkpt lat="46.07664" lon="4.63031">
        <ele>366.4</ele>
        <time>2022-06-25T19:34:17Z</time>
      </trkpt>
      <trkpt lat="46.07662" lon="4.63033">
        <ele>366</ele>
        <time>2022-06-25T19:34:18Z</time>
      </trkpt>
      <trkpt lat="46.07661" lon="4.63036">
        <ele>366</ele>
        <time>2022-06-25T19:34:19Z</time>
      </trkpt>
      <trkpt lat="46.07661" lon="4.63038">
        <ele>366</ele>
        <time>2022-06-25T19:34:20Z</time>
      </trkpt>
      <trkpt lat="46.0766" lon="4.6304">
        <ele>366</ele>
        <time>2022-06-25T19:34:21Z</time>
      </trkpt>
      <trkpt lat="46.0766" lon="4.63042">
        <ele>366</ele>
        <time>2022-06-25T19:34:22Z</time>
      </trkpt>
      <trkpt lat="46.07658" lon="4.63043">
        <ele>366</ele>
        <time>2022-06-25T19:34:23Z</time>
      </trkpt>
      <trkpt lat="46.07657" lon="4.63044">
        <ele>365.8</ele>
        <time>2022-06-25T19:34:24Z</time>
      </trkpt>
      <trkpt lat="46.07655" lon="4.63046">
        <ele>365.8</ele>
        <time>2022-06-25T19:34:25Z</time>
      </trkpt>
      <trkpt lat="46.07654" lon="4.63047">
        <ele>365.8</ele>
        <time>2022-06-25T19:34:26Z</time>
      </trkpt>
      <trkpt lat="46.07652" lon="4.63049">
        <ele>365.8</ele>
        <time>2022-06-25T19:34:27Z</time>
      </trkpt>
      <trkpt lat="46.0765" lon="4.63051">
        <ele>365.8</ele>
        <time>2022-06-25T19:34:28Z</time>
      </trkpt>
      <trkpt lat="46.07649" lon="4.63052">
        <ele>365.8</ele>
        <time>2022-06-25T19:34:29Z</time>
      </trkpt>
      <trkpt lat="46.07647" lon="4.63054">
        <ele>365.6</ele>
        <time>2022-06-25T19:34:30Z</time>
      </trkpt>
      <trkpt lat="46.07645" lon="4.63056">
        <ele>365.6</ele>
        <time>2022-06-25T19:34:31Z</time>
      </trkpt>
      <trkpt lat="46.07644" lon="4.63057">
        <ele>365.6</ele>
        <time>2022-06-25T19:34:32Z</time>
      </trkpt>
      <trkpt lat="46.07643" lon="4.63058">
        <ele>365.6</ele>
        <time>2022-06-25T19:34:33Z</time>
      </trkpt>
      <trkpt lat="46.07641" lon="4.63059">
        <ele>365.6</ele>
        <time>2022-06-25T19:34:34Z</time>
      </trkpt>
      <trkpt lat="46.07641" lon="4.63061">
        <ele>365.6</ele>
        <time>2022-06-25T19:34:35Z</time>
      </trkpt>
      <trkpt lat="46.0764" lon="4.63063">
        <ele>365.6</ele>
        <time>2022-06-25T19:34:36Z</time>
      </trkpt>
      <trkpt lat="46.07641" lon="4.63065">
        <ele>365.4</ele>
        <time>2022-06-25T19:34:37Z</time>
      </trkpt>
      <trkpt lat="46.07642" lon="4.63066">
        <ele>365.4</ele>
        <time>2022-06-25T19:34:38Z</time>
      </trkpt>
      <trkpt lat="46.07643" lon="4.63066">
        <ele>365.4</ele>
        <time>2022-06-25T19:34:39Z</time>
      </trkpt>
      <trkpt lat="46.07645" lon="4.63067">
        <ele>365.4</ele>
        <time>2022-06-25T19:34:40Z</time>
      </trkpt>
      <trkpt lat="46.07646" lon="4.63068">
        <ele>365.4</ele>
        <time>2022-06-25T19:34:41Z</time>
      </trkpt>
      <trkpt lat="46.07648" lon="4.63069">
        <ele>365.6</ele>
        <time>2022-06-25T19:34:42Z</time>
      </trkpt>
      <trkpt lat="46.0765" lon="4.63071">
        <ele>365.6</ele>
        <time>2022-06-25T19:34:43Z</time>
      </trkpt>
      <trkpt lat="46.07652" lon="4.63072">
        <ele>365.6</ele>
        <time>2022-06-25T19:34:44Z</time>
      </trkpt>
      <trkpt lat="46.07654" lon="4.63073">
        <ele>365.8</ele>
        <time>2022-06-25T19:34:45Z</time>
      </trkpt>
      <trkpt lat="46.07656" lon="4.63075">
        <ele>365.8</ele>
        <time>2022-06-25T19:34:46Z</time>
      </trkpt>
      <trkpt lat="46.07658" lon="4.63076">
        <ele>365.8</ele>
        <time>2022-06-25T19:34:47Z</time>
      </trkpt>
      <trkpt lat="46.0766" lon="4.63077">
        <ele>365.8</ele>
        <time>2022-06-25T19:34:48Z</time>
      </trkpt>
      <trkpt lat="46.07662" lon="4.63078">
        <ele>365.8</ele>
        <time>2022-06-25T19:34:49Z</time>
      </trkpt>
      <trkpt lat="46.07663" lon="4.63079">
        <ele>366</ele>
        <time>2022-06-25T19:34:50Z</time>
      </trkpt>
      <trkpt lat="46.07665" lon="4.6308">
        <ele>366</ele>
        <time>2022-06-25T19:34:51Z</time>
      </trkpt>
      <trkpt lat="46.07667" lon="4.63081">
        <ele>366</ele>
        <time>2022-06-25T19:34:52Z</time>
      </trkpt>
      <trkpt lat="46.0767" lon="4.63082">
        <ele>366</ele>
        <time>2022-06-25T19:34:53Z</time>
      </trkpt>
      <trkpt lat="46.07672" lon="4.63083">
        <ele>366</ele>
        <time>2022-06-25T19:34:54Z</time>
      </trkpt>
      <trkpt lat="46.07675" lon="4.63083">
        <ele>366</ele>
        <time>2022-06-25T19:34:55Z</time>
      </trkpt>
      <trkpt lat="46.07677" lon="4.63084">
        <ele>366</ele>
        <time>2022-06-25T19:34:56Z</time>
      </trkpt>
      <trkpt lat="46.07679" lon="4.63085">
        <ele>365.8</ele>
        <time>2022-06-25T19:34:57Z</time>
      </trkpt>
      <trkpt lat="46.0768" lon="4.63086">
        <ele>365.8</ele>
        <time>2022-06-25T19:34:58Z</time>
      </trkpt>
      <trkpt lat="46.07682" lon="4.63086">
        <ele>365.4</ele>
        <time>2022-06-25T19:34:59Z</time>
      </trkpt>
      <trkpt lat="46.07684" lon="4.63087">
        <ele>365.4</ele>
        <time>2022-06-25T19:35:00Z</time>
      </trkpt>
      <trkpt lat="46.07686" lon="4.63087">
        <ele>365.2</ele>
        <time>2022-06-25T19:35:01Z</time>
      </trkpt>
      <trkpt lat="46.07687" lon="4.63087">
        <ele>365.2</ele>
        <time>2022-06-25T19:35:02Z</time>
      </trkpt>
      <trkpt lat="46.07688" lon="4.63086">
        <ele>365.2</ele>
        <time>2022-06-25T19:35:03Z</time>
      </trkpt>
      <trkpt lat="46.0769" lon="4.63085">
        <ele>365.2</ele>
        <time>2022-06-25T19:35:04Z</time>
      </trkpt>
      <trkpt lat="46.07691" lon="4.63082">
        <ele>365.2</ele>
        <time>2022-06-25T19:35:05Z</time>
      </trkpt>
      <trkpt lat="46.07692" lon="4.6308">
        <ele>365.2</ele>
        <time>2022-06-25T19:35:06Z</time>
      </trkpt>
      <trkpt lat="46.07692" lon="4.63076">
        <ele>365.2</ele>
        <time>2022-06-25T19:35:07Z</time>
      </trkpt>
      <trkpt lat="46.07692" lon="4.63073">
        <ele>365.2</ele>
        <time>2022-06-25T19:35:08Z</time>
      </trkpt>
      <trkpt lat="46.07692" lon="4.6307">
        <ele>365.6</ele>
        <time>2022-06-25T19:35:09Z</time>
      </trkpt>
      <trkpt lat="46.07692" lon="4.63067">
        <ele>365.6</ele>
        <time>2022-06-25T19:35:10Z</time>
      </trkpt>
      <trkpt lat="46.07693" lon="4.63064">
        <ele>365.8</ele>
        <time>2022-06-25T19:35:11Z</time>
      </trkpt>
      <trkpt lat="46.07694" lon="4.63061">
        <ele>365.8</ele>
        <time>2022-06-25T19:35:12Z</time>
      </trkpt>
      <trkpt lat="46.07694" lon="4.63058">
        <ele>366.2</ele>
        <time>2022-06-25T19:35:13Z</time>
      </trkpt>
      <trkpt lat="46.07695" lon="4.63055">
        <ele>366.2</ele>
        <time>2022-06-25T19:35:14Z</time>
      </trkpt>
      <trkpt lat="46.07695" lon="4.63051">
        <ele>366.4</ele>
        <time>2022-06-25T19:35:15Z</time>
      </trkpt>
      <trkpt lat="46.07695" lon="4.63048">
        <ele>366.6</ele>
        <time>2022-06-25T19:35:16Z</time>
      </trkpt>
      <trkpt lat="46.07695" lon="4.63044">
        <ele>367</ele>
        <time>2022-06-25T19:35:17Z</time>
      </trkpt>
      <trkpt lat="46.07696" lon="4.6304">
        <ele>367</ele>
        <time>2022-06-25T19:35:18Z</time>
      </trkpt>
      <trkpt lat="46.07696" lon="4.63037">
        <ele>367.2</ele>
        <time>2022-06-25T19:35:19Z</time>
      </trkpt>
      <trkpt lat="46.07696" lon="4.63034">
        <ele>367.4</ele>
        <time>2022-06-25T19:35:20Z</time>
      </trkpt>
      <trkpt lat="46.07697" lon="4.63031">
        <ele>367.8</ele>
        <time>2022-06-25T19:35:21Z</time>
      </trkpt>
      <trkpt lat="46.07697" lon="4.63028">
        <ele>368</ele>
        <time>2022-06-25T19:35:22Z</time>
      </trkpt>
      <trkpt lat="46.07698" lon="4.63025">
        <ele>368.2</ele>
        <time>2022-06-25T19:35:23Z</time>
      </trkpt>
      <trkpt lat="46.07699" lon="4.63023">
        <ele>368.4</ele>
        <time>2022-06-25T19:35:24Z</time>
      </trkpt>
      <trkpt lat="46.07699" lon="4.6302">
        <ele>368.4</ele>
        <time>2022-06-25T19:35:25Z</time>
      </trkpt>
      <trkpt lat="46.07699" lon="4.63017">
        <ele>368.8</ele>
        <time>2022-06-25T19:35:26Z</time>
      </trkpt>
      <trkpt lat="46.077" lon="4.63014">
        <ele>368.8</ele>
        <time>2022-06-25T19:35:27Z</time>
      </trkpt>
      <trkpt lat="46.077" lon="4.6301">
        <ele>368.8</ele>
        <time>2022-06-25T19:35:28Z</time>
      </trkpt>
      <trkpt lat="46.077" lon="4.63007">
        <ele>369</ele>
        <time>2022-06-25T19:35:29Z</time>
      </trkpt>
      <trkpt lat="46.07701" lon="4.63003">
        <ele>369</ele>
        <time>2022-06-25T19:35:30Z</time>
      </trkpt>
      <trkpt lat="46.07702" lon="4.62999">
        <ele>369</ele>
        <time>2022-06-25T19:35:31Z</time>
      </trkpt>
      <trkpt lat="46.07704" lon="4.62995">
        <ele>369</ele>
        <time>2022-06-25T19:35:32Z</time>
      </trkpt>
      <trkpt lat="46.07705" lon="4.62992">
        <ele>369.2</ele>
        <time>2022-06-25T19:35:33Z</time>
      </trkpt>
      <trkpt lat="46.07707" lon="4.62988">
        <ele>369.2</ele>
        <time>2022-06-25T19:35:34Z</time>
      </trkpt>
      <trkpt lat="46.07709" lon="4.62986">
        <ele>369.2</ele>
        <time>2022-06-25T19:35:35Z</time>
      </trkpt>
      <trkpt lat="46.07711" lon="4.62984">
        <ele>369.6</ele>
        <time>2022-06-25T19:35:36Z</time>
      </trkpt>
      <trkpt lat="46.07713" lon="4.62982">
        <ele>369.6</ele>
        <time>2022-06-25T19:35:37Z</time>
      </trkpt>
      <trkpt lat="46.07715" lon="4.6298">
        <ele>369.8</ele>
        <time>2022-06-25T19:35:38Z</time>
      </trkpt>
      <trkpt lat="46.07717" lon="4.62979">
        <ele>369.8</ele>
        <time>2022-06-25T19:35:39Z</time>
      </trkpt>
      <trkpt lat="46.07719" lon="4.62977">
        <ele>370</ele>
        <time>2022-06-25T19:35:40Z</time>
      </trkpt>
      <trkpt lat="46.0772" lon="4.62977">
        <ele>370</ele>
        <time>2022-06-25T19:35:41Z</time>
      </trkpt>
      <trkpt lat="46.07722" lon="4.62977">
        <ele>370</ele>
        <time>2022-06-25T19:35:42Z</time>
      </trkpt>
      <trkpt lat="46.07723" lon="4.62977">
        <ele>370</ele>
        <time>2022-06-25T19:35:43Z</time>
      </trkpt>
      <trkpt lat="46.07725" lon="4.62977">
        <ele>370.2</ele>
        <time>2022-06-25T19:35:44Z</time>
      </trkpt>
      <trkpt lat="46.07726" lon="4.62978">
        <ele>370.2</ele>
        <time>2022-06-25T19:35:45Z</time>
      </trkpt>
      <trkpt lat="46.07728" lon="4.62979">
        <ele>370.2</ele>
        <time>2022-06-25T19:35:46Z</time>
      </trkpt>
      <trkpt lat="46.07728" lon="4.6298">
        <ele>370.2</ele>
        <time>2022-06-25T19:35:47Z</time>
      </trkpt>
      <trkpt lat="46.07729" lon="4.62982">
        <ele>370.2</ele>
        <time>2022-06-25T19:35:48Z</time>
      </trkpt>
      <trkpt lat="46.0773" lon="4.62984">
        <ele>370.2</ele>
        <time>2022-06-25T19:35:49Z</time>
      </trkpt>
      <trkpt lat="46.0773" lon="4.62986">
        <ele>370.4</ele>
        <time>2022-06-25T19:35:50Z</time>
      </trkpt>
      <trkpt lat="46.0773" lon="4.62988">
        <ele>370.4</ele>
        <time>2022-06-25T19:35:51Z</time>
      </trkpt>
      <trkpt lat="46.07731" lon="4.6299">
        <ele>370.4</ele>
        <time>2022-06-25T19:35:52Z</time>
      </trkpt>
      <trkpt lat="46.07731" lon="4.6299">
        <ele>370.4</ele>
        <time>2022-06-25T19:35:54Z</time>
      </trkpt>
      <trkpt lat="46.07729" lon="4.62986">
        <ele>371.6</ele>
        <time>2022-06-25T19:37:01Z</time>
      </trkpt>
      <trkpt lat="46.0773" lon="4.62984">
        <ele>371.6</ele>
        <time>2022-06-25T19:37:02Z</time>
      </trkpt>
      <trkpt lat="46.0773" lon="4.62981">
        <ele>371.6</ele>
        <time>2022-06-25T19:37:03Z</time>
      </trkpt>
      <trkpt lat="46.0773" lon="4.62978">
        <ele>371.6</ele>
        <time>2022-06-25T19:37:04Z</time>
      </trkpt>
      <trkpt lat="46.07731" lon="4.62975">
        <ele>371.6</ele>
        <time>2022-06-25T19:37:05Z</time>
      </trkpt>
      <trkpt lat="46.07732" lon="4.62973">
        <ele>371.6</ele>
        <time>2022-06-25T19:37:06Z</time>
      </trkpt>
      <trkpt lat="46.07734" lon="4.62971">
        <ele>371.6</ele>
        <time>2022-06-25T19:37:07Z</time>
      </trkpt>
      <trkpt lat="46.07736" lon="4.62969">
        <ele>371.6</ele>
        <time>2022-06-25T19:37:08Z</time>
      </trkpt>
      <trkpt lat="46.07739" lon="4.62968">
        <ele>371.6</ele>
        <time>2022-06-25T19:37:09Z</time>
      </trkpt>
      <trkpt lat="46.07742" lon="4.62967">
        <ele>371.4</ele>
        <time>2022-06-25T19:37:10Z</time>
      </trkpt>
      <trkpt lat="46.07745" lon="4.62967">
        <ele>371.4</ele>
        <time>2022-06-25T19:37:11Z</time>
      </trkpt>
      <trkpt lat="46.07748" lon="4.62966">
        <ele>371.4</ele>
        <time>2022-06-25T19:37:12Z</time>
      </trkpt>
      <trkpt lat="46.07752" lon="4.62965">
        <ele>371.4</ele>
        <time>2022-06-25T19:37:13Z</time>
      </trkpt>
      <trkpt lat="46.07756" lon="4.62965">
        <ele>371.4</ele>
        <time>2022-06-25T19:37:14Z</time>
      </trkpt>
      <trkpt lat="46.0776" lon="4.62964">
        <ele>371.2</ele>
        <time>2022-06-25T19:37:15Z</time>
      </trkpt>
      <trkpt lat="46.07764" lon="4.62963">
        <ele>371.2</ele>
        <time>2022-06-25T19:37:16Z</time>
      </trkpt>
      <trkpt lat="46.07769" lon="4.62962">
        <ele>370.8</ele>
        <time>2022-06-25T19:37:17Z</time>
      </trkpt>
      <trkpt lat="46.07774" lon="4.62961">
        <ele>370.8</ele>
        <time>2022-06-25T19:37:18Z</time>
      </trkpt>
      <trkpt lat="46.07779" lon="4.6296">
        <ele>370.6</ele>
        <time>2022-06-25T19:37:19Z</time>
      </trkpt>
      <trkpt lat="46.07785" lon="4.62959">
        <ele>370.4</ele>
        <time>2022-06-25T19:37:20Z</time>
      </trkpt>
      <trkpt lat="46.0779" lon="4.62958">
        <ele>370.2</ele>
        <time>2022-06-25T19:37:21Z</time>
      </trkpt>
      <trkpt lat="46.07796" lon="4.62957">
        <ele>370.2</ele>
        <time>2022-06-25T19:37:22Z</time>
      </trkpt>
      <trkpt lat="46.07801" lon="4.62956">
        <ele>369.8</ele>
        <time>2022-06-25T19:37:23Z</time>
      </trkpt>
      <trkpt lat="46.07805" lon="4.62955">
        <ele>369.8</ele>
        <time>2022-06-25T19:37:24Z</time>
      </trkpt>
      <trkpt lat="46.07809" lon="4.62955">
        <ele>369.4</ele>
        <time>2022-06-25T19:37:25Z</time>
      </trkpt>
      <trkpt lat="46.07811" lon="4.62955">
        <ele>369.2</ele>
        <time>2022-06-25T19:37:26Z</time>
      </trkpt>
      <trkpt lat="46.07813" lon="4.62954">
        <ele>369</ele>
        <time>2022-06-25T19:37:27Z</time>
      </trkpt>
      <trkpt lat="46.07814" lon="4.62952">
        <ele>369</ele>
        <time>2022-06-25T19:37:28Z</time>
      </trkpt>
      <trkpt lat="46.07814" lon="4.6295">
        <ele>368.6</ele>
        <time>2022-06-25T19:37:29Z</time>
      </trkpt>
      <trkpt lat="46.07812" lon="4.62949">
        <ele>368.6</ele>
        <time>2022-06-25T19:37:30Z</time>
      </trkpt>
      <trkpt lat="46.0781" lon="4.6295">
        <ele>368.6</ele>
        <time>2022-06-25T19:37:31Z</time>
      </trkpt>
      <trkpt lat="46.07808" lon="4.62951">
        <ele>368.6</ele>
        <time>2022-06-25T19:37:32Z</time>
      </trkpt>
      <trkpt lat="46.07806" lon="4.62952">
        <ele>368.6</ele>
        <time>2022-06-25T19:37:33Z</time>
      </trkpt>
      <trkpt lat="46.07804" lon="4.62953">
        <ele>368.6</ele>
        <time>2022-06-25T19:37:34Z</time>
      </trkpt>
      <trkpt lat="46.07802" lon="4.62953">
        <ele>368.6</ele>
        <time>2022-06-25T19:37:35Z</time>
      </trkpt>
      <trkpt lat="46.07799" lon="4.62954">
        <ele>368.6</ele>
        <time>2022-06-25T19:37:36Z</time>
      </trkpt>
      <trkpt lat="46.07797" lon="4.62955">
        <ele>368.6</ele>
        <time>2022-06-25T19:37:37Z</time>
      </trkpt>
      <trkpt lat="46.07794" lon="4.62956">
        <ele>368.6</ele>
        <time>2022-06-25T19:37:38Z</time>
      </trkpt>
      <trkpt lat="46.07791" lon="4.62957">
        <ele>368.8</ele>
        <time>2022-06-25T19:37:39Z</time>
      </trkpt>
      <trkpt lat="46.07788" lon="4.62957">
        <ele>368.8</ele>
        <time>2022-06-25T19:37:40Z</time>
      </trkpt>
      <trkpt lat="46.07785" lon="4.62958">
        <ele>368.8</ele>
        <time>2022-06-25T19:37:41Z</time>
      </trkpt>
      <trkpt lat="46.07782" lon="4.62958">
        <ele>369.2</ele>
        <time>2022-06-25T19:37:42Z</time>
      </trkpt>
      <trkpt lat="46.07779" lon="4.62958">
        <ele>369.2</ele>
        <time>2022-06-25T19:37:43Z</time>
      </trkpt>
      <trkpt lat="46.07776" lon="4.62959">
        <ele>369.6</ele>
        <time>2022-06-25T19:37:44Z</time>
      </trkpt>
      <trkpt lat="46.07774" lon="4.62961">
        <ele>369.6</ele>
        <time>2022-06-25T19:37:45Z</time>
      </trkpt>
      <trkpt lat="46.07773" lon="4.62962">
        <ele>370</ele>
        <time>2022-06-25T19:37:46Z</time>
      </trkpt>
      <trkpt lat="46.07774" lon="4.62962">
        <ele>370.2</ele>
        <time>2022-06-25T19:37:48Z</time>
      </trkpt>
      <trkpt lat="46.07774" lon="4.62962">
        <ele>370.2</ele>
        <time>2022-06-25T19:37:49Z</time>
      </trkpt>
      <trkpt lat="46.07774" lon="4.62962">
        <ele>370.4</ele>
        <time>2022-06-25T19:37:52Z</time>
      </trkpt>
      <trkpt lat="46.07775" lon="4.62962">
        <ele>370.4</ele>
        <time>2022-06-25T19:37:54Z</time>
      </trkpt>
      <trkpt lat="46.07775" lon="4.62963">
        <ele>370.4</ele>
        <time>2022-06-25T19:37:55Z</time>
      </trkpt>
      <trkpt lat="46.07775" lon="4.62963">
        <ele>370.6</ele>
        <time>2022-06-25T19:37:57Z</time>
      </trkpt>
      <trkpt lat="46.07776" lon="4.62963">
        <ele>370.6</ele>
        <time>2022-06-25T19:37:59Z</time>
      </trkpt>
      <trkpt lat="46.07776" lon="4.62963">
        <ele>370.6</ele>
        <time>2022-06-25T19:38:00Z</time>
      </trkpt>
      <trkpt lat="46.07776" lon="4.62963">
        <ele>370.6</ele>
        <time>2022-06-25T19:38:02Z</time>
      </trkpt>
      <trkpt lat="46.07777" lon="4.62963">
        <ele>370.6</ele>
        <time>2022-06-25T19:38:04Z</time>
      </trkpt>
      <trkpt lat="46.07777" lon="4.62963">
        <ele>370.6</ele>
        <time>2022-06-25T19:38:05Z</time>
      </trkpt>
      <trkpt lat="46.07779" lon="4.62962">
        <ele>370.6</ele>
        <time>2022-06-25T19:38:06Z</time>
      </trkpt>
      <trkpt lat="46.07782" lon="4.62961">
        <ele>370.6</ele>
        <time>2022-06-25T19:38:07Z</time>
      </trkpt>
      <trkpt lat="46.07785" lon="4.6296">
        <ele>370.6</ele>
        <time>2022-06-25T19:38:08Z</time>
      </trkpt>
      <trkpt lat="46.07788" lon="4.6296">
        <ele>370.6</ele>
        <time>2022-06-25T19:38:09Z</time>
      </trkpt>
      <trkpt lat="46.07792" lon="4.62959">
        <ele>370.6</ele>
        <time>2022-06-25T19:38:10Z</time>
      </trkpt>
      <trkpt lat="46.07796" lon="4.62959">
        <ele>370.6</ele>
        <time>2022-06-25T19:38:11Z</time>
      </trkpt>
      <trkpt lat="46.078" lon="4.62958">
        <ele>370.6</ele>
        <time>2022-06-25T19:38:12Z</time>
      </trkpt>
      <trkpt lat="46.07804" lon="4.62957">
        <ele>370.6</ele>
        <time>2022-06-25T19:38:13Z</time>
      </trkpt>
      <trkpt lat="46.07808" lon="4.62956">
        <ele>370.6</ele>
        <time>2022-06-25T19:38:14Z</time>
      </trkpt>
      <trkpt lat="46.07813" lon="4.62955">
        <ele>370.2</ele>
        <time>2022-06-25T19:38:15Z</time>
      </trkpt>
      <trkpt lat="46.07818" lon="4.62954">
        <ele>370</ele>
        <time>2022-06-25T19:38:16Z</time>
      </trkpt>
      <trkpt lat="46.07823" lon="4.62952">
        <ele>370</ele>
        <time>2022-06-25T19:38:17Z</time>
      </trkpt>
      <trkpt lat="46.07828" lon="4.62951">
        <ele>369.6</ele>
        <time>2022-06-25T19:38:18Z</time>
      </trkpt>
      <trkpt lat="46.07834" lon="4.6295">
        <ele>369.4</ele>
        <time>2022-06-25T19:38:19Z</time>
      </trkpt>
      <trkpt lat="46.07839" lon="4.62949">
        <ele>369.2</ele>
        <time>2022-06-25T19:38:20Z</time>
      </trkpt>
      <trkpt lat="46.07845" lon="4.62947">
        <ele>369.2</ele>
        <time>2022-06-25T19:38:21Z</time>
      </trkpt>
      <trkpt lat="46.0785" lon="4.62946">
        <ele>368.8</ele>
        <time>2022-06-25T19:38:22Z</time>
      </trkpt>
      <trkpt lat="46.07856" lon="4.62944">
        <ele>368.8</ele>
        <time>2022-06-25T19:38:23Z</time>
      </trkpt>
      <trkpt lat="46.07861" lon="4.62943">
        <ele>368.6</ele>
        <time>2022-06-25T19:38:24Z</time>
      </trkpt>
      <trkpt lat="46.07867" lon="4.62942">
        <ele>368.6</ele>
        <time>2022-06-25T19:38:25Z</time>
      </trkpt>
      <trkpt lat="46.07872" lon="4.62942">
        <ele>368.2</ele>
        <time>2022-06-25T19:38:26Z</time>
      </trkpt>
      <trkpt lat="46.07876" lon="4.62941">
        <ele>368.2</ele>
        <time>2022-06-25T19:38:27Z</time>
      </trkpt>
      <trkpt lat="46.0788" lon="4.62939">
        <ele>367.8</ele>
        <time>2022-06-25T19:38:28Z</time>
      </trkpt>
      <trkpt lat="46.07884" lon="4.62937">
        <ele>367.6</ele>
        <time>2022-06-25T19:38:29Z</time>
      </trkpt>
      <trkpt lat="46.07886" lon="4.62935">
        <ele>367.4</ele>
        <time>2022-06-25T19:38:30Z</time>
      </trkpt>
      <trkpt lat="46.07888" lon="4.62932">
        <ele>367.4</ele>
        <time>2022-06-25T19:38:31Z</time>
      </trkpt>
      <trkpt lat="46.0789" lon="4.62929">
        <ele>367.4</ele>
        <time>2022-06-25T19:38:32Z</time>
      </trkpt>
      <trkpt lat="46.07891" lon="4.62926">
        <ele>367.4</ele>
        <time>2022-06-25T19:38:33Z</time>
      </trkpt>
      <trkpt lat="46.07892" lon="4.62922">
        <ele>367</ele>
        <time>2022-06-25T19:38:34Z</time>
      </trkpt>
      <trkpt lat="46.07892" lon="4.62919">
        <ele>367</ele>
        <time>2022-06-25T19:38:35Z</time>
      </trkpt>
      <trkpt lat="46.07891" lon="4.62916">
        <ele>366.8</ele>
        <time>2022-06-25T19:38:36Z</time>
      </trkpt>
      <trkpt lat="46.0789" lon="4.62913">
        <ele>366.8</ele>
        <time>2022-06-25T19:38:37Z</time>
      </trkpt>
      <trkpt lat="46.07887" lon="4.6291">
        <ele>366.4</ele>
        <time>2022-06-25T19:38:38Z</time>
      </trkpt>
      <trkpt lat="46.07884" lon="4.62906">
        <ele>366.4</ele>
        <time>2022-06-25T19:38:39Z</time>
      </trkpt>
      <trkpt lat="46.07879" lon="4.62903">
        <ele>366.2</ele>
        <time>2022-06-25T19:38:40Z</time>
      </trkpt>
      <trkpt lat="46.07875" lon="4.62901">
        <ele>366.2</ele>
        <time>2022-06-25T19:38:41Z</time>
      </trkpt>
      <trkpt lat="46.07869" lon="4.62899">
        <ele>366</ele>
        <time>2022-06-25T19:38:42Z</time>
      </trkpt>
      <trkpt lat="46.07864" lon="4.62897">
        <ele>365.6</ele>
        <time>2022-06-25T19:38:43Z</time>
      </trkpt>
      <trkpt lat="46.07858" lon="4.62896">
        <ele>365.6</ele>
        <time>2022-06-25T19:38:44Z</time>
      </trkpt>
      <trkpt lat="46.07851" lon="4.62895">
        <ele>365.2</ele>
        <time>2022-06-25T19:38:45Z</time>
      </trkpt>
      <trkpt lat="46.07844" lon="4.62894">
        <ele>364.8</ele>
        <time>2022-06-25T19:38:46Z</time>
      </trkpt>
      <trkpt lat="46.07837" lon="4.62894">
        <ele>364.4</ele>
        <time>2022-06-25T19:38:47Z</time>
      </trkpt>
      <trkpt lat="46.0783" lon="4.62894">
        <ele>364.2</ele>
        <time>2022-06-25T19:38:48Z</time>
      </trkpt>
      <trkpt lat="46.07822" lon="4.62894">
        <ele>363.8</ele>
        <time>2022-06-25T19:38:49Z</time>
      </trkpt>
      <trkpt lat="46.07814" lon="4.62895">
        <ele>363.6</ele>
        <time>2022-06-25T19:38:50Z</time>
      </trkpt>
      <trkpt lat="46.07806" lon="4.62896">
        <ele>363.6</ele>
        <time>2022-06-25T19:38:51Z</time>
      </trkpt>
      <trkpt lat="46.07798" lon="4.62897">
        <ele>363</ele>
        <time>2022-06-25T19:38:52Z</time>
      </trkpt>
      <trkpt lat="46.0779" lon="4.62898">
        <ele>362.8</ele>
        <time>2022-06-25T19:38:53Z</time>
      </trkpt>
      <trkpt lat="46.07783" lon="4.62899">
        <ele>362.4</ele>
        <time>2022-06-25T19:38:54Z</time>
      </trkpt>
      <trkpt lat="46.07776" lon="4.629">
        <ele>361.8</ele>
        <time>2022-06-25T19:38:55Z</time>
      </trkpt>
      <trkpt lat="46.07769" lon="4.62901">
        <ele>361.2</ele>
        <time>2022-06-25T19:38:56Z</time>
      </trkpt>
      <trkpt lat="46.07763" lon="4.62902">
        <ele>360.8</ele>
        <time>2022-06-25T19:38:57Z</time>
      </trkpt>
      <trkpt lat="46.07758" lon="4.62903">
        <ele>360.4</ele>
        <time>2022-06-25T19:38:58Z</time>
      </trkpt>
      <trkpt lat="46.07752" lon="4.62903">
        <ele>359.8</ele>
        <time>2022-06-25T19:38:59Z</time>
      </trkpt>
      <trkpt lat="46.07747" lon="4.62904">
        <ele>359.4</ele>
        <time>2022-06-25T19:39:00Z</time>
      </trkpt>
      <trkpt lat="46.07742" lon="4.62905">
        <ele>359</ele>
        <time>2022-06-25T19:39:01Z</time>
      </trkpt>
      <trkpt lat="46.07737" lon="4.62905">
        <ele>358.6</ele>
        <time>2022-06-25T19:39:02Z</time>
      </trkpt>
      <trkpt lat="46.07733" lon="4.62906">
        <ele>358.4</ele>
        <time>2022-06-25T19:39:03Z</time>
      </trkpt>
      <trkpt lat="46.07728" lon="4.62906">
        <ele>358</ele>
        <time>2022-06-25T19:39:04Z</time>
      </trkpt>
      <trkpt lat="46.07725" lon="4.62906">
        <ele>357.6</ele>
        <time>2022-06-25T19:39:05Z</time>
      </trkpt>
      <trkpt lat="46.07722" lon="4.62906">
        <ele>357.4</ele>
        <time>2022-06-25T19:39:06Z</time>
      </trkpt>
      <trkpt lat="46.0772" lon="4.62906">
        <ele>357</ele>
        <time>2022-06-25T19:39:07Z</time>
      </trkpt>
      <trkpt lat="46.07718" lon="4.62906">
        <ele>356.8</ele>
        <time>2022-06-25T19:39:08Z</time>
      </trkpt>
      <trkpt lat="46.07717" lon="4.62907">
        <ele>356.6</ele>
        <time>2022-06-25T19:39:09Z</time>
      </trkpt>
      <trkpt lat="46.07717" lon="4.62907">
        <ele>356.4</ele>
        <time>2022-06-25T19:39:11Z</time>
      </trkpt>
      <trkpt lat="46.07715" lon="4.62908">
        <ele>356.4</ele>
        <time>2022-06-25T19:39:20Z</time>
      </trkpt>
      <trkpt lat="46.07713" lon="4.62908">
        <ele>356.4</ele>
        <time>2022-06-25T19:39:21Z</time>
      </trkpt>
      <trkpt lat="46.0771" lon="4.62909">
        <ele>356.2</ele>
        <time>2022-06-25T19:39:22Z</time>
      </trkpt>
      <trkpt lat="46.07707" lon="4.62909">
        <ele>356.2</ele>
        <time>2022-06-25T19:39:23Z</time>
      </trkpt>
      <trkpt lat="46.07703" lon="4.6291">
        <ele>356</ele>
        <time>2022-06-25T19:39:24Z</time>
      </trkpt>
      <trkpt lat="46.07699" lon="4.62911">
        <ele>356</ele>
        <time>2022-06-25T19:39:25Z</time>
      </trkpt>
      <trkpt lat="46.07694" lon="4.62912">
        <ele>355.6</ele>
        <time>2022-06-25T19:39:26Z</time>
      </trkpt>
      <trkpt lat="46.07689" lon="4.62913">
        <ele>355.6</ele>
        <time>2022-06-25T19:39:27Z</time>
      </trkpt>
      <trkpt lat="46.07683" lon="4.62913">
        <ele>355.2</ele>
        <time>2022-06-25T19:39:28Z</time>
      </trkpt>
      <trkpt lat="46.07677" lon="4.62914">
        <ele>355</ele>
        <time>2022-06-25T19:39:29Z</time>
      </trkpt>
      <trkpt lat="46.07671" lon="4.62915">
        <ele>354.8</ele>
        <time>2022-06-25T19:39:30Z</time>
      </trkpt>
      <trkpt lat="46.07664" lon="4.62915">
        <ele>354.6</ele>
        <time>2022-06-25T19:39:31Z</time>
      </trkpt>
      <trkpt lat="46.07657" lon="4.62916">
        <ele>354.2</ele>
        <time>2022-06-25T19:39:32Z</time>
      </trkpt>
      <trkpt lat="46.0765" lon="4.62917">
        <ele>354</ele>
        <time>2022-06-25T19:39:33Z</time>
      </trkpt>
      <trkpt lat="46.07642" lon="4.62918">
        <ele>353.8</ele>
        <time>2022-06-25T19:39:34Z</time>
      </trkpt>
      <trkpt lat="46.07635" lon="4.62919">
        <ele>353.4</ele>
        <time>2022-06-25T19:39:35Z</time>
      </trkpt>
      <trkpt lat="46.07627" lon="4.6292">
        <ele>353.2</ele>
        <time>2022-06-25T19:39:36Z</time>
      </trkpt>
      <trkpt lat="46.07619" lon="4.62922">
        <ele>352.8</ele>
        <time>2022-06-25T19:39:37Z</time>
      </trkpt>
      <trkpt lat="46.07611" lon="4.62925">
        <ele>352.4</ele>
        <time>2022-06-25T19:39:38Z</time>
      </trkpt>
      <trkpt lat="46.07603" lon="4.62929">
        <ele>352</ele>
        <time>2022-06-25T19:39:39Z</time>
      </trkpt>
      <trkpt lat="46.07595" lon="4.62934">
        <ele>351.6</ele>
        <time>2022-06-25T19:39:40Z</time>
      </trkpt>
      <trkpt lat="46.07586" lon="4.6294">
        <ele>351</ele>
        <time>2022-06-25T19:39:41Z</time>
      </trkpt>
      <trkpt lat="46.07577" lon="4.62947">
        <ele>350.6</ele>
        <time>2022-06-25T19:39:42Z</time>
      </trkpt>
      <trkpt lat="46.07568" lon="4.62954">
        <ele>350.2</ele>
        <time>2022-06-25T19:39:43Z</time>
      </trkpt>
      <trkpt lat="46.0756" lon="4.62962">
        <ele>349.8</ele>
        <time>2022-06-25T19:39:44Z</time>
      </trkpt>
      <trkpt lat="46.07552" lon="4.62969">
        <ele>349.6</ele>
        <time>2022-06-25T19:39:45Z</time>
      </trkpt>
      <trkpt lat="46.07543" lon="4.62978">
        <ele>349</ele>
        <time>2022-06-25T19:39:46Z</time>
      </trkpt>
      <trkpt lat="46.07537" lon="4.62987">
        <ele>348.6</ele>
        <time>2022-06-25T19:39:47Z</time>
      </trkpt>
      <trkpt lat="46.07529" lon="4.62996">
        <ele>348</ele>
        <time>2022-06-25T19:39:48Z</time>
      </trkpt>
      <trkpt lat="46.07523" lon="4.63006">
        <ele>347.4</ele>
        <time>2022-06-25T19:39:49Z</time>
      </trkpt>
      <trkpt lat="46.07515" lon="4.63016">
        <ele>347</ele>
        <time>2022-06-25T19:39:50Z</time>
      </trkpt>
      <trkpt lat="46.07508" lon="4.63027">
        <ele>346.4</ele>
        <time>2022-06-25T19:39:51Z</time>
      </trkpt>
      <trkpt lat="46.07501" lon="4.63036">
        <ele>345.8</ele>
        <time>2022-06-25T19:39:52Z</time>
      </trkpt>
      <trkpt lat="46.07493" lon="4.63047">
        <ele>345.4</ele>
        <time>2022-06-25T19:39:53Z</time>
      </trkpt>
      <trkpt lat="46.07486" lon="4.63058">
        <ele>344.8</ele>
        <time>2022-06-25T19:39:54Z</time>
      </trkpt>
      <trkpt lat="46.07478" lon="4.63069">
        <ele>344.2</ele>
        <time>2022-06-25T19:39:55Z</time>
      </trkpt>
      <trkpt lat="46.07471" lon="4.6308">
        <ele>343.4</ele>
        <time>2022-06-25T19:39:56Z</time>
      </trkpt>
      <trkpt lat="46.07463" lon="4.63089">
        <ele>343</ele>
        <time>2022-06-25T19:39:57Z</time>
      </trkpt>
      <trkpt lat="46.07456" lon="4.63099">
        <ele>342.2</ele>
        <time>2022-06-25T19:39:58Z</time>
      </trkpt>
      <trkpt lat="46.07449" lon="4.63107">
        <ele>341.6</ele>
        <time>2022-06-25T19:39:59Z</time>
      </trkpt>
      <trkpt lat="46.07443" lon="4.63115">
        <ele>340.8</ele>
        <time>2022-06-25T19:40:00Z</time>
      </trkpt>
      <trkpt lat="46.07438" lon="4.63123">
        <ele>340.2</ele>
        <time>2022-06-25T19:40:01Z</time>
      </trkpt>
      <trkpt lat="46.07432" lon="4.63131">
        <ele>339.4</ele>
        <time>2022-06-25T19:40:02Z</time>
      </trkpt>
      <trkpt lat="46.07427" lon="4.63139">
        <ele>338.8</ele>
        <time>2022-06-25T19:40:03Z</time>
      </trkpt>
      <trkpt lat="46.07421" lon="4.63147">
        <ele>338.2</ele>
        <time>2022-06-25T19:40:04Z</time>
      </trkpt>
      <trkpt lat="46.07415" lon="4.63154">
        <ele>337.6</ele>
        <time>2022-06-25T19:40:05Z</time>
      </trkpt>
      <trkpt lat="46.07409" lon="4.63161">
        <ele>337</ele>
        <time>2022-06-25T19:40:06Z</time>
      </trkpt>
      <trkpt lat="46.07403" lon="4.63169">
        <ele>336.4</ele>
        <time>2022-06-25T19:40:07Z</time>
      </trkpt>
      <trkpt lat="46.07397" lon="4.63177">
        <ele>336</ele>
        <time>2022-06-25T19:40:08Z</time>
      </trkpt>
      <trkpt lat="46.07391" lon="4.63185">
        <ele>335.6</ele>
        <time>2022-06-25T19:40:09Z</time>
      </trkpt>
      <trkpt lat="46.07385" lon="4.63192">
        <ele>335</ele>
        <time>2022-06-25T19:40:10Z</time>
      </trkpt>
      <trkpt lat="46.0738" lon="4.632">
        <ele>334.6</ele>
        <time>2022-06-25T19:40:11Z</time>
      </trkpt>
      <trkpt lat="46.07374" lon="4.63207">
        <ele>334</ele>
        <time>2022-06-25T19:40:12Z</time>
      </trkpt>
      <trkpt lat="46.07369" lon="4.63214">
        <ele>333.6</ele>
        <time>2022-06-25T19:40:13Z</time>
      </trkpt>
      <trkpt lat="46.07363" lon="4.63221">
        <ele>333.2</ele>
        <time>2022-06-25T19:40:14Z</time>
      </trkpt>
      <trkpt lat="46.07357" lon="4.63229">
        <ele>332.6</ele>
        <time>2022-06-25T19:40:15Z</time>
      </trkpt>
      <trkpt lat="46.07351" lon="4.63237">
        <ele>332.2</ele>
        <time>2022-06-25T19:40:16Z</time>
      </trkpt>
      <trkpt lat="46.07345" lon="4.63245">
        <ele>331.8</ele>
        <time>2022-06-25T19:40:17Z</time>
      </trkpt>
      <trkpt lat="46.07338" lon="4.63253">
        <ele>331.4</ele>
        <time>2022-06-25T19:40:18Z</time>
      </trkpt>
      <trkpt lat="46.07332" lon="4.63262">
        <ele>331</ele>
        <time>2022-06-25T19:40:19Z</time>
      </trkpt>
      <trkpt lat="46.07325" lon="4.6327">
        <ele>330.6</ele>
        <time>2022-06-25T19:40:20Z</time>
      </trkpt>
      <trkpt lat="46.07318" lon="4.63279">
        <ele>330</ele>
        <time>2022-06-25T19:40:21Z</time>
      </trkpt>
      <trkpt lat="46.07311" lon="4.63288">
        <ele>329.6</ele>
        <time>2022-06-25T19:40:22Z</time>
      </trkpt>
      <trkpt lat="46.07305" lon="4.63297">
        <ele>329.2</ele>
        <time>2022-06-25T19:40:23Z</time>
      </trkpt>
      <trkpt lat="46.07298" lon="4.63306">
        <ele>328.6</ele>
        <time>2022-06-25T19:40:24Z</time>
      </trkpt>
      <trkpt lat="46.07291" lon="4.63316">
        <ele>328.2</ele>
        <time>2022-06-25T19:40:25Z</time>
      </trkpt>
      <trkpt lat="46.07284" lon="4.63324">
        <ele>327.6</ele>
        <time>2022-06-25T19:40:26Z</time>
      </trkpt>
      <trkpt lat="46.07277" lon="4.63333">
        <ele>327</ele>
        <time>2022-06-25T19:40:27Z</time>
      </trkpt>
      <trkpt lat="46.0727" lon="4.63341">
        <ele>326.4</ele>
        <time>2022-06-25T19:40:28Z</time>
      </trkpt>
      <trkpt lat="46.07264" lon="4.63349">
        <ele>326</ele>
        <time>2022-06-25T19:40:29Z</time>
      </trkpt>
      <trkpt lat="46.07257" lon="4.63358">
        <ele>325.4</ele>
        <time>2022-06-25T19:40:30Z</time>
      </trkpt>
      <trkpt lat="46.0725" lon="4.63368">
        <ele>325</ele>
        <time>2022-06-25T19:40:31Z</time>
      </trkpt>
      <trkpt lat="46.07244" lon="4.63377">
        <ele>324.4</ele>
        <time>2022-06-25T19:40:32Z</time>
      </trkpt>
      <trkpt lat="46.07237" lon="4.63385">
        <ele>323.8</ele>
        <time>2022-06-25T19:40:33Z</time>
      </trkpt>
      <trkpt lat="46.0723" lon="4.63395">
        <ele>322.8</ele>
        <time>2022-06-25T19:40:35Z</time>
      </trkpt>
      <trkpt lat="46.07223" lon="4.63405">
        <ele>322.4</ele>
        <time>2022-06-25T19:40:36Z</time>
      </trkpt>
      <trkpt lat="46.07216" lon="4.63414">
        <ele>322.2</ele>
        <time>2022-06-25T19:40:37Z</time>
      </trkpt>
      <trkpt lat="46.07209" lon="4.63422">
        <ele>321.8</ele>
        <time>2022-06-25T19:40:38Z</time>
      </trkpt>
      <trkpt lat="46.07202" lon="4.6343">
        <ele>321.4</ele>
        <time>2022-06-25T19:40:39Z</time>
      </trkpt>
      <trkpt lat="46.07195" lon="4.63439">
        <ele>320.8</ele>
        <time>2022-06-25T19:40:40Z</time>
      </trkpt>
      <trkpt lat="46.07189" lon="4.63447">
        <ele>320.4</ele>
        <time>2022-06-25T19:40:41Z</time>
      </trkpt>
      <trkpt lat="46.07183" lon="4.63455">
        <ele>320</ele>
        <time>2022-06-25T19:40:42Z</time>
      </trkpt>
      <trkpt lat="46.07178" lon="4.63463">
        <ele>319.8</ele>
        <time>2022-06-25T19:40:43Z</time>
      </trkpt>
      <trkpt lat="46.07173" lon="4.63469">
        <ele>319.4</ele>
        <time>2022-06-25T19:40:44Z</time>
      </trkpt>
      <trkpt lat="46.07168" lon="4.63476">
        <ele>319.2</ele>
        <time>2022-06-25T19:40:45Z</time>
      </trkpt>
      <trkpt lat="46.07163" lon="4.63482">
        <ele>318.8</ele>
        <time>2022-06-25T19:40:46Z</time>
      </trkpt>
      <trkpt lat="46.07158" lon="4.63488">
        <ele>318.4</ele>
        <time>2022-06-25T19:40:47Z</time>
      </trkpt>
      <trkpt lat="46.07154" lon="4.63493">
        <ele>318.2</ele>
        <time>2022-06-25T19:40:48Z</time>
      </trkpt>
      <trkpt lat="46.0715" lon="4.63498">
        <ele>318</ele>
        <time>2022-06-25T19:40:49Z</time>
      </trkpt>
      <trkpt lat="46.07146" lon="4.63503">
        <ele>317.8</ele>
        <time>2022-06-25T19:40:50Z</time>
      </trkpt>
      <trkpt lat="46.07143" lon="4.63507">
        <ele>317.6</ele>
        <time>2022-06-25T19:40:51Z</time>
      </trkpt>
      <trkpt lat="46.0714" lon="4.63511">
        <ele>317.4</ele>
        <time>2022-06-25T19:40:52Z</time>
      </trkpt>
      <trkpt lat="46.07137" lon="4.63514">
        <ele>317</ele>
        <time>2022-06-25T19:40:53Z</time>
      </trkpt>
      <trkpt lat="46.07135" lon="4.63517">
        <ele>316.8</ele>
        <time>2022-06-25T19:40:54Z</time>
      </trkpt>
      <trkpt lat="46.07132" lon="4.6352">
        <ele>316.8</ele>
        <time>2022-06-25T19:40:55Z</time>
      </trkpt>
      <trkpt lat="46.0713" lon="4.63524">
        <ele>316.4</ele>
        <time>2022-06-25T19:40:56Z</time>
      </trkpt>
      <trkpt lat="46.07127" lon="4.63527">
        <ele>316.4</ele>
        <time>2022-06-25T19:40:57Z</time>
      </trkpt>
      <trkpt lat="46.07125" lon="4.63529">
        <ele>316.2</ele>
        <time>2022-06-25T19:40:58Z</time>
      </trkpt>
      <trkpt lat="46.07123" lon="4.63532">
        <ele>316.2</ele>
        <time>2022-06-25T19:40:59Z</time>
      </trkpt>
      <trkpt lat="46.0712" lon="4.63535">
        <ele>316</ele>
        <time>2022-06-25T19:41:00Z</time>
      </trkpt>
      <trkpt lat="46.07118" lon="4.63538">
        <ele>316</ele>
        <time>2022-06-25T19:41:01Z</time>
      </trkpt>
      <trkpt lat="46.07116" lon="4.6354">
        <ele>315.8</ele>
        <time>2022-06-25T19:41:02Z</time>
      </trkpt>
      <trkpt lat="46.07115" lon="4.63542">
        <ele>315.8</ele>
        <time>2022-06-25T19:41:03Z</time>
      </trkpt>
      <trkpt lat="46.07113" lon="4.63544">
        <ele>315.8</ele>
        <time>2022-06-25T19:41:04Z</time>
      </trkpt>
      <trkpt lat="46.07112" lon="4.63547">
        <ele>315.4</ele>
        <time>2022-06-25T19:41:05Z</time>
      </trkpt>
      <trkpt lat="46.07111" lon="4.63549">
        <ele>315.4</ele>
        <time>2022-06-25T19:41:06Z</time>
      </trkpt>
      <trkpt lat="46.07108" lon="4.63551">
        <ele>315.4</ele>
        <time>2022-06-25T19:41:07Z</time>
      </trkpt>
      <trkpt lat="46.07106" lon="4.63553">
        <ele>315.4</ele>
        <time>2022-06-25T19:41:08Z</time>
      </trkpt>
      <trkpt lat="46.07103" lon="4.63556">
        <ele>315.4</ele>
        <time>2022-06-25T19:41:09Z</time>
      </trkpt>
      <trkpt lat="46.071" lon="4.63558">
        <ele>315.2</ele>
        <time>2022-06-25T19:41:10Z</time>
      </trkpt>
      <trkpt lat="46.07097" lon="4.63561">
        <ele>315.2</ele>
        <time>2022-06-25T19:41:11Z</time>
      </trkpt>
      <trkpt lat="46.07094" lon="4.63564">
        <ele>315.2</ele>
        <time>2022-06-25T19:41:12Z</time>
      </trkpt>
      <trkpt lat="46.07091" lon="4.63566">
        <ele>315.2</ele>
        <time>2022-06-25T19:41:13Z</time>
      </trkpt>
      <trkpt lat="46.07088" lon="4.63568">
        <ele>315.2</ele>
        <time>2022-06-25T19:41:14Z</time>
      </trkpt>
      <trkpt lat="46.07084" lon="4.63569">
        <ele>315</ele>
        <time>2022-06-25T19:41:15Z</time>
      </trkpt>
      <trkpt lat="46.07081" lon="4.6357">
        <ele>315</ele>
        <time>2022-06-25T19:41:16Z</time>
      </trkpt>
      <trkpt lat="46.07078" lon="4.6357">
        <ele>314.8</ele>
        <time>2022-06-25T19:41:17Z</time>
      </trkpt>
      <trkpt lat="46.07076" lon="4.63571">
        <ele>314.8</ele>
        <time>2022-06-25T19:41:18Z</time>
      </trkpt>
      <trkpt lat="46.07075" lon="4.63573">
        <ele>314.8</ele>
        <time>2022-06-25T19:41:19Z</time>
      </trkpt>
      <trkpt lat="46.07075" lon="4.63575">
        <ele>314.8</ele>
        <time>2022-06-25T19:41:20Z</time>
      </trkpt>
      <trkpt lat="46.07076" lon="4.63575">
        <ele>314.8</ele>
        <time>2022-06-25T19:41:21Z</time>
      </trkpt>
      <trkpt lat="46.07078" lon="4.63575">
        <ele>314.8</ele>
        <time>2022-06-25T19:41:22Z</time>
      </trkpt>
      <trkpt lat="46.0708" lon="4.63574">
        <ele>314.8</ele>
        <time>2022-06-25T19:41:23Z</time>
      </trkpt>
      <trkpt lat="46.07081" lon="4.63573">
        <ele>314.8</ele>
        <time>2022-06-25T19:41:24Z</time>
      </trkpt>
      <trkpt lat="46.07083" lon="4.63572">
        <ele>314.8</ele>
        <time>2022-06-25T19:41:25Z</time>
      </trkpt>
      <trkpt lat="46.07085" lon="4.63571">
        <ele>315</ele>
        <time>2022-06-25T19:41:26Z</time>
      </trkpt>
      <trkpt lat="46.07088" lon="4.6357">
        <ele>315</ele>
        <time>2022-06-25T19:41:27Z</time>
      </trkpt>
      <trkpt lat="46.0709" lon="4.63568">
        <ele>315.2</ele>
        <time>2022-06-25T19:41:28Z</time>
      </trkpt>
      <trkpt lat="46.07093" lon="4.63567">
        <ele>315.2</ele>
        <time>2022-06-25T19:41:29Z</time>
      </trkpt>
      <trkpt lat="46.07096" lon="4.63565">
        <ele>315.2</ele>
        <time>2022-06-25T19:41:30Z</time>
      </trkpt>
      <trkpt lat="46.07099" lon="4.63563">
        <ele>315.6</ele>
        <time>2022-06-25T19:41:31Z</time>
      </trkpt>
      <trkpt lat="46.07101" lon="4.63561">
        <ele>315.6</ele>
        <time>2022-06-25T19:41:32Z</time>
      </trkpt>
      <trkpt lat="46.07104" lon="4.63558">
        <ele>315.6</ele>
        <time>2022-06-25T19:41:33Z</time>
      </trkpt>
      <trkpt lat="46.07106" lon="4.63555">
        <ele>315.6</ele>
        <time>2022-06-25T19:41:34Z</time>
      </trkpt>
      <trkpt lat="46.07109" lon="4.63552">
        <ele>315.8</ele>
        <time>2022-06-25T19:41:35Z</time>
      </trkpt>
      <trkpt lat="46.07112" lon="4.63549">
        <ele>315.8</ele>
        <time>2022-06-25T19:41:36Z</time>
      </trkpt>
      <trkpt lat="46.07115" lon="4.63545">
        <ele>315.8</ele>
        <time>2022-06-25T19:41:37Z</time>
      </trkpt>
      <trkpt lat="46.07118" lon="4.63542">
        <ele>316</ele>
        <time>2022-06-25T19:41:38Z</time>
      </trkpt>
      <trkpt lat="46.07121" lon="4.63538">
        <ele>316</ele>
        <time>2022-06-25T19:41:39Z</time>
      </trkpt>
      <trkpt lat="46.07124" lon="4.63535">
        <ele>316</ele>
        <time>2022-06-25T19:41:40Z</time>
      </trkpt>
      <trkpt lat="46.07127" lon="4.63532">
        <ele>316</ele>
        <time>2022-06-25T19:41:41Z</time>
      </trkpt>
      <trkpt lat="46.07129" lon="4.63528">
        <ele>316.2</ele>
        <time>2022-06-25T19:41:42Z</time>
      </trkpt>
      <trkpt lat="46.07132" lon="4.63524">
        <ele>316.2</ele>
        <time>2022-06-25T19:41:43Z</time>
      </trkpt>
      <trkpt lat="46.07135" lon="4.63521">
        <ele>316.4</ele>
        <time>2022-06-25T19:41:44Z</time>
      </trkpt>
      <trkpt lat="46.07138" lon="4.63517">
        <ele>316.4</ele>
        <time>2022-06-25T19:41:45Z</time>
      </trkpt>
      <trkpt lat="46.07141" lon="4.63514">
        <ele>316.4</ele>
        <time>2022-06-25T19:41:46Z</time>
      </trkpt>
      <trkpt lat="46.07144" lon="4.6351">
        <ele>316.6</ele>
        <time>2022-06-25T19:41:47Z</time>
      </trkpt>
      <trkpt lat="46.07146" lon="4.63507">
        <ele>316.6</ele>
        <time>2022-06-25T19:41:48Z</time>
      </trkpt>
      <trkpt lat="46.07149" lon="4.63503">
        <ele>316.6</ele>
        <time>2022-06-25T19:41:49Z</time>
      </trkpt>
      <trkpt lat="46.07151" lon="4.635">
        <ele>316.6</ele>
        <time>2022-06-25T19:41:50Z</time>
      </trkpt>
      <trkpt lat="46.07153" lon="4.63498">
        <ele>316.8</ele>
        <time>2022-06-25T19:41:51Z</time>
      </trkpt>
      <trkpt lat="46.07154" lon="4.63496">
        <ele>316.8</ele>
        <time>2022-06-25T19:41:52Z</time>
      </trkpt>
      <trkpt lat="46.07156" lon="4.63495">
        <ele>316.8</ele>
        <time>2022-06-25T19:41:53Z</time>
      </trkpt>
      <trkpt lat="46.07157" lon="4.63493">
        <ele>316.8</ele>
        <time>2022-06-25T19:41:54Z</time>
      </trkpt>
      <trkpt lat="46.07157" lon="4.63491">
        <ele>316.8</ele>
        <time>2022-06-25T19:41:55Z</time>
      </trkpt>
      <trkpt lat="46.07158" lon="4.63489">
        <ele>317.2</ele>
        <time>2022-06-25T19:41:56Z</time>
      </trkpt>
      <trkpt lat="46.07158" lon="4.63487">
        <ele>317.2</ele>
        <time>2022-06-25T19:41:57Z</time>
      </trkpt>
      <trkpt lat="46.07158" lon="4.63484">
        <ele>317.2</ele>
        <time>2022-06-25T19:41:58Z</time>
      </trkpt>
      <trkpt lat="46.07157" lon="4.63481">
        <ele>317.2</ele>
        <time>2022-06-25T19:41:59Z</time>
      </trkpt>
      <trkpt lat="46.07156" lon="4.63477">
        <ele>317.2</ele>
        <time>2022-06-25T19:42:00Z</time>
      </trkpt>
      <trkpt lat="46.07154" lon="4.63473">
        <ele>317.2</ele>
        <time>2022-06-25T19:42:01Z</time>
      </trkpt>
      <trkpt lat="46.07153" lon="4.63468">
        <ele>317.2</ele>
        <time>2022-06-25T19:42:02Z</time>
      </trkpt>
      <trkpt lat="46.07151" lon="4.63463">
        <ele>317</ele>
        <time>2022-06-25T19:42:03Z</time>
      </trkpt>
      <trkpt lat="46.07149" lon="4.63457">
        <ele>317</ele>
        <time>2022-06-25T19:42:04Z</time>
      </trkpt>
      <trkpt lat="46.07147" lon="4.6345">
        <ele>316.6</ele>
        <time>2022-06-25T19:42:05Z</time>
      </trkpt>
      <trkpt lat="46.07145" lon="4.63444">
        <ele>316.6</ele>
        <time>2022-06-25T19:42:06Z</time>
      </trkpt>
      <trkpt lat="46.07143" lon="4.63436">
        <ele>316</ele>
        <time>2022-06-25T19:42:07Z</time>
      </trkpt>
      <trkpt lat="46.0714" lon="4.63429">
        <ele>315.8</ele>
        <time>2022-06-25T19:42:08Z</time>
      </trkpt>
      <trkpt lat="46.07138" lon="4.63421">
        <ele>315.6</ele>
        <time>2022-06-25T19:42:09Z</time>
      </trkpt>
      <trkpt lat="46.07136" lon="4.63412">
        <ele>315.6</ele>
        <time>2022-06-25T19:42:10Z</time>
      </trkpt>
      <trkpt lat="46.07133" lon="4.63403">
        <ele>315.2</ele>
        <time>2022-06-25T19:42:11Z</time>
      </trkpt>
      <trkpt lat="46.07131" lon="4.63394">
        <ele>314.8</ele>
        <time>2022-06-25T19:42:12Z</time>
      </trkpt>
      <trkpt lat="46.07128" lon="4.63384">
        <ele>314.4</ele>
        <time>2022-06-25T19:42:13Z</time>
      </trkpt>
      <trkpt lat="46.07125" lon="4.63375">
        <ele>313.8</ele>
        <time>2022-06-25T19:42:14Z</time>
      </trkpt>
      <trkpt lat="46.07122" lon="4.63365">
        <ele>313.8</ele>
        <time>2022-06-25T19:42:15Z</time>
      </trkpt>
      <trkpt lat="46.07119" lon="4.63355">
        <ele>313.4</ele>
        <time>2022-06-25T19:42:16Z</time>
      </trkpt>
      <trkpt lat="46.07115" lon="4.63345">
        <ele>313</ele>
        <time>2022-06-25T19:42:17Z</time>
      </trkpt>
      <trkpt lat="46.07112" lon="4.63334">
        <ele>312.6</ele>
        <time>2022-06-25T19:42:18Z</time>
      </trkpt>
      <trkpt lat="46.07109" lon="4.63323">
        <ele>312.2</ele>
        <time>2022-06-25T19:42:19Z</time>
      </trkpt>
      <trkpt lat="46.07106" lon="4.63312">
        <ele>311.8</ele>
        <time>2022-06-25T19:42:20Z</time>
      </trkpt>
      <trkpt lat="46.07103" lon="4.63301">
        <ele>311.6</ele>
        <time>2022-06-25T19:42:21Z</time>
      </trkpt>
      <trkpt lat="46.071" lon="4.6329">
        <ele>311.2</ele>
        <time>2022-06-25T19:42:22Z</time>
      </trkpt>
      <trkpt lat="46.07097" lon="4.63279">
        <ele>310.8</ele>
        <time>2022-06-25T19:42:23Z</time>
      </trkpt>
      <trkpt lat="46.07093" lon="4.63268">
        <ele>310.2</ele>
        <time>2022-06-25T19:42:24Z</time>
      </trkpt>
      <trkpt lat="46.0709" lon="4.63256">
        <ele>309.8</ele>
        <time>2022-06-25T19:42:25Z</time>
      </trkpt>
      <trkpt lat="46.07087" lon="4.63245">
        <ele>309.4</ele>
        <time>2022-06-25T19:42:26Z</time>
      </trkpt>
      <trkpt lat="46.07085" lon="4.63232">
        <ele>309</ele>
        <time>2022-06-25T19:42:27Z</time>
      </trkpt>
      <trkpt lat="46.07083" lon="4.6322">
        <ele>308.8</ele>
        <time>2022-06-25T19:42:28Z</time>
      </trkpt>
      <trkpt lat="46.07081" lon="4.63207">
        <ele>308.8</ele>
        <time>2022-06-25T19:42:29Z</time>
      </trkpt>
      <trkpt lat="46.0708" lon="4.63195">
        <ele>308.6</ele>
        <time>2022-06-25T19:42:30Z</time>
      </trkpt>
      <trkpt lat="46.0708" lon="4.63182">
        <ele>308</ele>
        <time>2022-06-25T19:42:31Z</time>
      </trkpt>
      <trkpt lat="46.07079" lon="4.63169">
        <ele>307.6</ele>
        <time>2022-06-25T19:42:32Z</time>
      </trkpt>
      <trkpt lat="46.07079" lon="4.63156">
        <ele>307</ele>
        <time>2022-06-25T19:42:33Z</time>
      </trkpt>
      <trkpt lat="46.07079" lon="4.63142">
        <ele>306.4</ele>
        <time>2022-06-25T19:42:34Z</time>
      </trkpt>
      <trkpt lat="46.07079" lon="4.63129">
        <ele>305.8</ele>
        <time>2022-06-25T19:42:35Z</time>
      </trkpt>
      <trkpt lat="46.07079" lon="4.63117">
        <ele>305.4</ele>
        <time>2022-06-25T19:42:36Z</time>
      </trkpt>
      <trkpt lat="46.07078" lon="4.63105">
        <ele>305</ele>
        <time>2022-06-25T19:42:37Z</time>
      </trkpt>
      <trkpt lat="46.07077" lon="4.63093">
        <ele>304.4</ele>
        <time>2022-06-25T19:42:38Z</time>
      </trkpt>
      <trkpt lat="46.07077" lon="4.63082">
        <ele>304</ele>
        <time>2022-06-25T19:42:39Z</time>
      </trkpt>
      <trkpt lat="46.07076" lon="4.6307">
        <ele>303.8</ele>
        <time>2022-06-25T19:42:40Z</time>
      </trkpt>
      <trkpt lat="46.07076" lon="4.63058">
        <ele>303.4</ele>
        <time>2022-06-25T19:42:41Z</time>
      </trkpt>
      <trkpt lat="46.07076" lon="4.63046">
        <ele>303.2</ele>
        <time>2022-06-25T19:42:42Z</time>
      </trkpt>
      <trkpt lat="46.07075" lon="4.63034">
        <ele>302.8</ele>
        <time>2022-06-25T19:42:43Z</time>
      </trkpt>
      <trkpt lat="46.07075" lon="4.63021">
        <ele>302.6</ele>
        <time>2022-06-25T19:42:44Z</time>
      </trkpt>
      <trkpt lat="46.07075" lon="4.63009">
        <ele>302.2</ele>
        <time>2022-06-25T19:42:45Z</time>
      </trkpt>
      <trkpt lat="46.07075" lon="4.62997">
        <ele>302.2</ele>
        <time>2022-06-25T19:42:46Z</time>
      </trkpt>
      <trkpt lat="46.07075" lon="4.62985">
        <ele>301.8</ele>
        <time>2022-06-25T19:42:47Z</time>
      </trkpt>
      <trkpt lat="46.07075" lon="4.62973">
        <ele>301.8</ele>
        <time>2022-06-25T19:42:48Z</time>
      </trkpt>
      <trkpt lat="46.07075" lon="4.62962">
        <ele>301.6</ele>
        <time>2022-06-25T19:42:49Z</time>
      </trkpt>
      <trkpt lat="46.07075" lon="4.62951">
        <ele>301.6</ele>
        <time>2022-06-25T19:42:50Z</time>
      </trkpt>
      <trkpt lat="46.07075" lon="4.62941">
        <ele>301.6</ele>
        <time>2022-06-25T19:42:51Z</time>
      </trkpt>
      <trkpt lat="46.07075" lon="4.62931">
        <ele>301.6</ele>
        <time>2022-06-25T19:42:52Z</time>
      </trkpt>
      <trkpt lat="46.07075" lon="4.62922">
        <ele>301.6</ele>
        <time>2022-06-25T19:42:53Z</time>
      </trkpt>
      <trkpt lat="46.07074" lon="4.62913">
        <ele>301.6</ele>
        <time>2022-06-25T19:42:54Z</time>
      </trkpt>
      <trkpt lat="46.07074" lon="4.62905">
        <ele>301.8</ele>
        <time>2022-06-25T19:42:55Z</time>
      </trkpt>
      <trkpt lat="46.07073" lon="4.62897">
        <ele>301.8</ele>
        <time>2022-06-25T19:42:56Z</time>
      </trkpt>
      <trkpt lat="46.07072" lon="4.62889">
        <ele>302.2</ele>
        <time>2022-06-25T19:42:57Z</time>
      </trkpt>
      <trkpt lat="46.07071" lon="4.62882">
        <ele>302.4</ele>
        <time>2022-06-25T19:42:58Z</time>
      </trkpt>
      <trkpt lat="46.0707" lon="4.62875">
        <ele>302.8</ele>
        <time>2022-06-25T19:42:59Z</time>
      </trkpt>
      <trkpt lat="46.07069" lon="4.62868">
        <ele>303</ele>
        <time>2022-06-25T19:43:00Z</time>
      </trkpt>
      <trkpt lat="46.07068" lon="4.62862">
        <ele>303.4</ele>
        <time>2022-06-25T19:43:01Z</time>
      </trkpt>
      <trkpt lat="46.07066" lon="4.62856">
        <ele>303.6</ele>
        <time>2022-06-25T19:43:02Z</time>
      </trkpt>
      <trkpt lat="46.07065" lon="4.6285">
        <ele>304</ele>
        <time>2022-06-25T19:43:03Z</time>
      </trkpt>
      <trkpt lat="46.07064" lon="4.62844">
        <ele>304.2</ele>
        <time>2022-06-25T19:43:04Z</time>
      </trkpt>
      <trkpt lat="46.07063" lon="4.62838">
        <ele>304.4</ele>
        <time>2022-06-25T19:43:05Z</time>
      </trkpt>
      <trkpt lat="46.07062" lon="4.62832">
        <ele>304.6</ele>
        <time>2022-06-25T19:43:06Z</time>
      </trkpt>
      <trkpt lat="46.07062" lon="4.62826">
        <ele>305</ele>
        <time>2022-06-25T19:43:07Z</time>
      </trkpt>
      <trkpt lat="46.07061" lon="4.6282">
        <ele>305.2</ele>
        <time>2022-06-25T19:43:08Z</time>
      </trkpt>
      <trkpt lat="46.0706" lon="4.62815">
        <ele>305.4</ele>
        <time>2022-06-25T19:43:09Z</time>
      </trkpt>
      <trkpt lat="46.07059" lon="4.6281">
        <ele>305.6</ele>
        <time>2022-06-25T19:43:10Z</time>
      </trkpt>
      <trkpt lat="46.07058" lon="4.62804">
        <ele>305.6</ele>
        <time>2022-06-25T19:43:11Z</time>
      </trkpt>
      <trkpt lat="46.07057" lon="4.62799">
        <ele>306</ele>
        <time>2022-06-25T19:43:12Z</time>
      </trkpt>
      <trkpt lat="46.07056" lon="4.62794">
        <ele>306.2</ele>
        <time>2022-06-25T19:43:13Z</time>
      </trkpt>
      <trkpt lat="46.07056" lon="4.62788">
        <ele>306.2</ele>
        <time>2022-06-25T19:43:14Z</time>
      </trkpt>
      <trkpt lat="46.07055" lon="4.62783">
        <ele>306.6</ele>
        <time>2022-06-25T19:43:15Z</time>
      </trkpt>
      <trkpt lat="46.07054" lon="4.62778">
        <ele>306.8</ele>
        <time>2022-06-25T19:43:16Z</time>
      </trkpt>
      <trkpt lat="46.07054" lon="4.62773">
        <ele>307.2</ele>
        <time>2022-06-25T19:43:17Z</time>
      </trkpt>
      <trkpt lat="46.07053" lon="4.62767">
        <ele>307.4</ele>
        <time>2022-06-25T19:43:18Z</time>
      </trkpt>
      <trkpt lat="46.07052" lon="4.62762">
        <ele>307.6</ele>
        <time>2022-06-25T19:43:19Z</time>
      </trkpt>
      <trkpt lat="46.07051" lon="4.62757">
        <ele>307.8</ele>
        <time>2022-06-25T19:43:20Z</time>
      </trkpt>
      <trkpt lat="46.0705" lon="4.62751">
        <ele>308</ele>
        <time>2022-06-25T19:43:21Z</time>
      </trkpt>
      <trkpt lat="46.07049" lon="4.62746">
        <ele>308</ele>
        <time>2022-06-25T19:43:22Z</time>
      </trkpt>
      <trkpt lat="46.07047" lon="4.62741">
        <ele>308.4</ele>
        <time>2022-06-25T19:43:23Z</time>
      </trkpt>
      <trkpt lat="46.07046" lon="4.62735">
        <ele>308.4</ele>
        <time>2022-06-25T19:43:24Z</time>
      </trkpt>
      <trkpt lat="46.07044" lon="4.6273">
        <ele>308.6</ele>
        <time>2022-06-25T19:43:25Z</time>
      </trkpt>
      <trkpt lat="46.07043" lon="4.62725">
        <ele>308.6</ele>
        <time>2022-06-25T19:43:26Z</time>
      </trkpt>
      <trkpt lat="46.07042" lon="4.6272">
        <ele>309</ele>
        <time>2022-06-25T19:43:27Z</time>
      </trkpt>
      <trkpt lat="46.07041" lon="4.62714">
        <ele>309.2</ele>
        <time>2022-06-25T19:43:28Z</time>
      </trkpt>
      <trkpt lat="46.0704" lon="4.62709">
        <ele>309.6</ele>
        <time>2022-06-25T19:43:29Z</time>
      </trkpt>
      <trkpt lat="46.07038" lon="4.62704">
        <ele>309.8</ele>
        <time>2022-06-25T19:43:30Z</time>
      </trkpt>
      <trkpt lat="46.07037" lon="4.62699">
        <ele>309.8</ele>
        <time>2022-06-25T19:43:31Z</time>
      </trkpt>
      <trkpt lat="46.07036" lon="4.62694">
        <ele>310.2</ele>
        <time>2022-06-25T19:43:32Z</time>
      </trkpt>
      <trkpt lat="46.07035" lon="4.62689">
        <ele>310.4</ele>
        <time>2022-06-25T19:43:33Z</time>
      </trkpt>
      <trkpt lat="46.07034" lon="4.62684">
        <ele>310.4</ele>
        <time>2022-06-25T19:43:34Z</time>
      </trkpt>
      <trkpt lat="46.07034" lon="4.62678">
        <ele>310.8</ele>
        <time>2022-06-25T19:43:35Z</time>
      </trkpt>
      <trkpt lat="46.07033" lon="4.62673">
        <ele>311</ele>
        <time>2022-06-25T19:43:36Z</time>
      </trkpt>
      <trkpt lat="46.07032" lon="4.62668">
        <ele>311.4</ele>
        <time>2022-06-25T19:43:37Z</time>
      </trkpt>
      <trkpt lat="46.07031" lon="4.62664">
        <ele>311.6</ele>
        <time>2022-06-25T19:43:38Z</time>
      </trkpt>
      <trkpt lat="46.0703" lon="4.62659">
        <ele>312</ele>
        <time>2022-06-25T19:43:39Z</time>
      </trkpt>
      <trkpt lat="46.0703" lon="4.62654">
        <ele>312.2</ele>
        <time>2022-06-25T19:43:40Z</time>
      </trkpt>
      <trkpt lat="46.07029" lon="4.6265">
        <ele>312.4</ele>
        <time>2022-06-25T19:43:41Z</time>
      </trkpt>
      <trkpt lat="46.07029" lon="4.62645">
        <ele>312.6</ele>
        <time>2022-06-25T19:43:42Z</time>
      </trkpt>
      <trkpt lat="46.07028" lon="4.62641">
        <ele>313</ele>
        <time>2022-06-25T19:43:43Z</time>
      </trkpt>
      <trkpt lat="46.07028" lon="4.62637">
        <ele>313.2</ele>
        <time>2022-06-25T19:43:44Z</time>
      </trkpt>
      <trkpt lat="46.07028" lon="4.62632">
        <ele>313.6</ele>
        <time>2022-06-25T19:43:45Z</time>
      </trkpt>
      <trkpt lat="46.07027" lon="4.62627">
        <ele>313.6</ele>
        <time>2022-06-25T19:43:46Z</time>
      </trkpt>
      <trkpt lat="46.07027" lon="4.62623">
        <ele>313.8</ele>
        <time>2022-06-25T19:43:47Z</time>
      </trkpt>
      <trkpt lat="46.07026" lon="4.62619">
        <ele>313.8</ele>
        <time>2022-06-25T19:43:48Z</time>
      </trkpt>
      <trkpt lat="46.07026" lon="4.62614">
        <ele>314</ele>
        <time>2022-06-25T19:43:49Z</time>
      </trkpt>
      <trkpt lat="46.07025" lon="4.62609">
        <ele>314</ele>
        <time>2022-06-25T19:43:50Z</time>
      </trkpt>
      <trkpt lat="46.07025" lon="4.62605">
        <ele>314</ele>
        <time>2022-06-25T19:43:51Z</time>
      </trkpt>
      <trkpt lat="46.07024" lon="4.626">
        <ele>314</ele>
        <time>2022-06-25T19:43:52Z</time>
      </trkpt>
      <trkpt lat="46.07024" lon="4.62596">
        <ele>314.2</ele>
        <time>2022-06-25T19:43:53Z</time>
      </trkpt>
      <trkpt lat="46.07023" lon="4.62591">
        <ele>314.2</ele>
        <time>2022-06-25T19:43:54Z</time>
      </trkpt>
      <trkpt lat="46.07023" lon="4.62586">
        <ele>314.2</ele>
        <time>2022-06-25T19:43:55Z</time>
      </trkpt>
      <trkpt lat="46.07022" lon="4.62581">
        <ele>314.2</ele>
        <time>2022-06-25T19:43:56Z</time>
      </trkpt>
      <trkpt lat="46.07022" lon="4.62576">
        <ele>314.2</ele>
        <time>2022-06-25T19:43:57Z</time>
      </trkpt>
      <trkpt lat="46.07021" lon="4.62571">
        <ele>314.6</ele>
        <time>2022-06-25T19:43:58Z</time>
      </trkpt>
      <trkpt lat="46.07021" lon="4.62566">
        <ele>314.6</ele>
        <time>2022-06-25T19:43:59Z</time>
      </trkpt>
      <trkpt lat="46.0702" lon="4.6256">
        <ele>314.6</ele>
        <time>2022-06-25T19:44:00Z</time>
      </trkpt>
      <trkpt lat="46.0702" lon="4.62555">
        <ele>315</ele>
        <time>2022-06-25T19:44:01Z</time>
      </trkpt>
      <trkpt lat="46.07019" lon="4.62549">
        <ele>315</ele>
        <time>2022-06-25T19:44:02Z</time>
      </trkpt>
      <trkpt lat="46.07018" lon="4.62544">
        <ele>315.4</ele>
        <time>2022-06-25T19:44:03Z</time>
      </trkpt>
      <trkpt lat="46.07017" lon="4.62538">
        <ele>315.4</ele>
        <time>2022-06-25T19:44:04Z</time>
      </trkpt>
      <trkpt lat="46.07016" lon="4.62533">
        <ele>315.4</ele>
        <time>2022-06-25T19:44:05Z</time>
      </trkpt>
      <trkpt lat="46.07016" lon="4.62528">
        <ele>315.6</ele>
        <time>2022-06-25T19:44:06Z</time>
      </trkpt>
      <trkpt lat="46.07015" lon="4.62522">
        <ele>315.6</ele>
        <time>2022-06-25T19:44:07Z</time>
      </trkpt>
      <trkpt lat="46.07015" lon="4.62516">
        <ele>315.6</ele>
        <time>2022-06-25T19:44:08Z</time>
      </trkpt>
      <trkpt lat="46.07014" lon="4.6251">
        <ele>316</ele>
        <time>2022-06-25T19:44:09Z</time>
      </trkpt>
      <trkpt lat="46.07014" lon="4.62504">
        <ele>316</ele>
        <time>2022-06-25T19:44:10Z</time>
      </trkpt>
      <trkpt lat="46.07013" lon="4.62499">
        <ele>316.2</ele>
        <time>2022-06-25T19:44:11Z</time>
      </trkpt>
      <trkpt lat="46.07012" lon="4.62493">
        <ele>316.2</ele>
        <time>2022-06-25T19:44:12Z</time>
      </trkpt>
      <trkpt lat="46.07011" lon="4.62488">
        <ele>316.4</ele>
        <time>2022-06-25T19:44:13Z</time>
      </trkpt>
      <trkpt lat="46.07011" lon="4.62483">
        <ele>316.4</ele>
        <time>2022-06-25T19:44:14Z</time>
      </trkpt>
      <trkpt lat="46.0701" lon="4.62477">
        <ele>316.8</ele>
        <time>2022-06-25T19:44:15Z</time>
      </trkpt>
      <trkpt lat="46.0701" lon="4.62472">
        <ele>316.8</ele>
        <time>2022-06-25T19:44:16Z</time>
      </trkpt>
      <trkpt lat="46.0701" lon="4.62466">
        <ele>317</ele>
        <time>2022-06-25T19:44:17Z</time>
      </trkpt>
      <trkpt lat="46.0701" lon="4.6246">
        <ele>317</ele>
        <time>2022-06-25T19:44:18Z</time>
      </trkpt>
      <trkpt lat="46.07009" lon="4.62454">
        <ele>317</ele>
        <time>2022-06-25T19:44:19Z</time>
      </trkpt>
      <trkpt lat="46.07009" lon="4.62448">
        <ele>317.2</ele>
        <time>2022-06-25T19:44:20Z</time>
      </trkpt>
      <trkpt lat="46.07008" lon="4.62443">
        <ele>317.2</ele>
        <time>2022-06-25T19:44:21Z</time>
      </trkpt>
      <trkpt lat="46.07008" lon="4.62437">
        <ele>317.2</ele>
        <time>2022-06-25T19:44:22Z</time>
      </trkpt>
      <trkpt lat="46.07008" lon="4.6243">
        <ele>317.4</ele>
        <time>2022-06-25T19:44:23Z</time>
      </trkpt>
      <trkpt lat="46.07008" lon="4.62424">
        <ele>317.4</ele>
        <time>2022-06-25T19:44:24Z</time>
      </trkpt>
      <trkpt lat="46.07008" lon="4.62418">
        <ele>317.8</ele>
        <time>2022-06-25T19:44:25Z</time>
      </trkpt>
      <trkpt lat="46.07007" lon="4.62412">
        <ele>317.8</ele>
        <time>2022-06-25T19:44:26Z</time>
      </trkpt>
      <trkpt lat="46.07007" lon="4.62406">
        <ele>317.8</ele>
        <time>2022-06-25T19:44:27Z</time>
      </trkpt>
      <trkpt lat="46.07006" lon="4.62399">
        <ele>318</ele>
        <time>2022-06-25T19:44:28Z</time>
      </trkpt>
      <trkpt lat="46.07006" lon="4.62393">
        <ele>318</ele>
        <time>2022-06-25T19:44:29Z</time>
      </trkpt>
      <trkpt lat="46.07006" lon="4.62386">
        <ele>318</ele>
        <time>2022-06-25T19:44:30Z</time>
      </trkpt>
      <trkpt lat="46.07005" lon="4.6238">
        <ele>318.2</ele>
        <time>2022-06-25T19:44:31Z</time>
      </trkpt>
      <trkpt lat="46.07005" lon="4.62373">
        <ele>318.2</ele>
        <time>2022-06-25T19:44:32Z</time>
      </trkpt>
      <trkpt lat="46.07004" lon="4.62367">
        <ele>318.4</ele>
        <time>2022-06-25T19:44:33Z</time>
      </trkpt>
      <trkpt lat="46.07004" lon="4.62361">
        <ele>318.4</ele>
        <time>2022-06-25T19:44:34Z</time>
      </trkpt>
      <trkpt lat="46.07004" lon="4.62354">
        <ele>318.4</ele>
        <time>2022-06-25T19:44:35Z</time>
      </trkpt>
      <trkpt lat="46.07003" lon="4.62348">
        <ele>318.6</ele>
        <time>2022-06-25T19:44:36Z</time>
      </trkpt>
      <trkpt lat="46.07003" lon="4.62342">
        <ele>318.6</ele>
        <time>2022-06-25T19:44:37Z</time>
      </trkpt>
      <trkpt lat="46.07002" lon="4.62335">
        <ele>318.6</ele>
        <time>2022-06-25T19:44:38Z</time>
      </trkpt>
      <trkpt lat="46.07002" lon="4.62329">
        <ele>318.6</ele>
        <time>2022-06-25T19:44:39Z</time>
      </trkpt>
      <trkpt lat="46.07002" lon="4.62322">
        <ele>318.6</ele>
        <time>2022-06-25T19:44:40Z</time>
      </trkpt>
      <trkpt lat="46.07001" lon="4.62316">
        <ele>318.6</ele>
        <time>2022-06-25T19:44:41Z</time>
      </trkpt>
      <trkpt lat="46.07001" lon="4.62309">
        <ele>318.6</ele>
        <time>2022-06-25T19:44:42Z</time>
      </trkpt>
      <trkpt lat="46.07001" lon="4.62303">
        <ele>318.6</ele>
        <time>2022-06-25T19:44:43Z</time>
      </trkpt>
      <trkpt lat="46.07" lon="4.62296">
        <ele>318.6</ele>
        <time>2022-06-25T19:44:44Z</time>
      </trkpt>
      <trkpt lat="46.07" lon="4.62289">
        <ele>318.6</ele>
        <time>2022-06-25T19:44:45Z</time>
      </trkpt>
      <trkpt lat="46.07" lon="4.62282">
        <ele>318.6</ele>
        <time>2022-06-25T19:44:46Z</time>
      </trkpt>
      <trkpt lat="46.06999" lon="4.62275">
        <ele>318.4</ele>
        <time>2022-06-25T19:44:47Z</time>
      </trkpt>
      <trkpt lat="46.06999" lon="4.62269">
        <ele>318.4</ele>
        <time>2022-06-25T19:44:48Z</time>
      </trkpt>
      <trkpt lat="46.06999" lon="4.62262">
        <ele>318.4</ele>
        <time>2022-06-25T19:44:49Z</time>
      </trkpt>
      <trkpt lat="46.06998" lon="4.62255">
        <ele>318.2</ele>
        <time>2022-06-25T19:44:50Z</time>
      </trkpt>
      <trkpt lat="46.06999" lon="4.62247">
        <ele>318.2</ele>
        <time>2022-06-25T19:44:51Z</time>
      </trkpt>
      <trkpt lat="46.06999" lon="4.6224">
        <ele>317.8</ele>
        <time>2022-06-25T19:44:52Z</time>
      </trkpt>
      <trkpt lat="46.07" lon="4.62233">
        <ele>317.6</ele>
        <time>2022-06-25T19:44:53Z</time>
      </trkpt>
      <trkpt lat="46.07001" lon="4.62225">
        <ele>317.6</ele>
        <time>2022-06-25T19:44:54Z</time>
      </trkpt>
      <trkpt lat="46.07004" lon="4.62218">
        <ele>317.2</ele>
        <time>2022-06-25T19:44:55Z</time>
      </trkpt>
      <trkpt lat="46.07006" lon="4.62211">
        <ele>317</ele>
        <time>2022-06-25T19:44:56Z</time>
      </trkpt>
      <trkpt lat="46.07009" lon="4.62204">
        <ele>316.6</ele>
        <time>2022-06-25T19:44:57Z</time>
      </trkpt>
      <trkpt lat="46.07013" lon="4.62198">
        <ele>316.6</ele>
        <time>2022-06-25T19:44:58Z</time>
      </trkpt>
      <trkpt lat="46.07017" lon="4.62192">
        <ele>316.6</ele>
        <time>2022-06-25T19:44:59Z</time>
      </trkpt>
      <trkpt lat="46.07021" lon="4.62186">
        <ele>316.6</ele>
        <time>2022-06-25T19:45:00Z</time>
      </trkpt>
      <trkpt lat="46.07025" lon="4.62181">
        <ele>316.6</ele>
        <time>2022-06-25T19:45:01Z</time>
      </trkpt>
      <trkpt lat="46.0703" lon="4.62176">
        <ele>316.6</ele>
        <time>2022-06-25T19:45:02Z</time>
      </trkpt>
      <trkpt lat="46.07034" lon="4.62171">
        <ele>316.6</ele>
        <time>2022-06-25T19:45:03Z</time>
      </trkpt>
      <trkpt lat="46.07037" lon="4.62165">
        <ele>316.6</ele>
        <time>2022-06-25T19:45:04Z</time>
      </trkpt>
      <trkpt lat="46.07041" lon="4.62159">
        <ele>316.6</ele>
        <time>2022-06-25T19:45:05Z</time>
      </trkpt>
      <trkpt lat="46.07043" lon="4.62152">
        <ele>316.6</ele>
        <time>2022-06-25T19:45:06Z</time>
      </trkpt>
      <trkpt lat="46.07045" lon="4.62145">
        <ele>316.6</ele>
        <time>2022-06-25T19:45:07Z</time>
      </trkpt>
      <trkpt lat="46.07047" lon="4.62137">
        <ele>316.6</ele>
        <time>2022-06-25T19:45:08Z</time>
      </trkpt>
      <trkpt lat="46.07048" lon="4.6213">
        <ele>316.6</ele>
        <time>2022-06-25T19:45:09Z</time>
      </trkpt>
      <trkpt lat="46.07048" lon="4.62122">
        <ele>317</ele>
        <time>2022-06-25T19:45:10Z</time>
      </trkpt>
      <trkpt lat="46.07047" lon="4.62115">
        <ele>317</ele>
        <time>2022-06-25T19:45:11Z</time>
      </trkpt>
      <trkpt lat="46.07045" lon="4.62108">
        <ele>317</ele>
        <time>2022-06-25T19:45:12Z</time>
      </trkpt>
      <trkpt lat="46.07042" lon="4.62102">
        <ele>317</ele>
        <time>2022-06-25T19:45:13Z</time>
      </trkpt>
      <trkpt lat="46.07039" lon="4.62096">
        <ele>317.2</ele>
        <time>2022-06-25T19:45:14Z</time>
      </trkpt>
      <trkpt lat="46.07035" lon="4.62091">
        <ele>317.6</ele>
        <time>2022-06-25T19:45:15Z</time>
      </trkpt>
      <trkpt lat="46.07031" lon="4.62086">
        <ele>317.6</ele>
        <time>2022-06-25T19:45:16Z</time>
      </trkpt>
      <trkpt lat="46.07027" lon="4.62082">
        <ele>317.8</ele>
        <time>2022-06-25T19:45:17Z</time>
      </trkpt>
      <trkpt lat="46.07023" lon="4.62078">
        <ele>318</ele>
        <time>2022-06-25T19:45:18Z</time>
      </trkpt>
      <trkpt lat="46.0702" lon="4.62074">
        <ele>318</ele>
        <time>2022-06-25T19:45:19Z</time>
      </trkpt>
      <trkpt lat="46.07016" lon="4.6207">
        <ele>318.4</ele>
        <time>2022-06-25T19:45:20Z</time>
      </trkpt>
      <trkpt lat="46.07012" lon="4.62065">
        <ele>318.4</ele>
        <time>2022-06-25T19:45:21Z</time>
      </trkpt>
      <trkpt lat="46.07008" lon="4.62061">
        <ele>318.4</ele>
        <time>2022-06-25T19:45:22Z</time>
      </trkpt>
      <trkpt lat="46.07005" lon="4.62057">
        <ele>318.6</ele>
        <time>2022-06-25T19:45:23Z</time>
      </trkpt>
      <trkpt lat="46.07001" lon="4.62053">
        <ele>318.6</ele>
        <time>2022-06-25T19:45:24Z</time>
      </trkpt>
      <trkpt lat="46.06997" lon="4.62049">
        <ele>318.6</ele>
        <time>2022-06-25T19:45:25Z</time>
      </trkpt>
      <trkpt lat="46.06993" lon="4.62045">
        <ele>318.6</ele>
        <time>2022-06-25T19:45:26Z</time>
      </trkpt>
      <trkpt lat="46.0699" lon="4.62041">
        <ele>318.6</ele>
        <time>2022-06-25T19:45:27Z</time>
      </trkpt>
      <trkpt lat="46.06987" lon="4.62036">
        <ele>318.6</ele>
        <time>2022-06-25T19:45:28Z</time>
      </trkpt>
      <trkpt lat="46.06984" lon="4.62031">
        <ele>318.6</ele>
        <time>2022-06-25T19:45:29Z</time>
      </trkpt>
      <trkpt lat="46.06981" lon="4.62025">
        <ele>318.6</ele>
        <time>2022-06-25T19:45:30Z</time>
      </trkpt>
      <trkpt lat="46.06979" lon="4.62019">
        <ele>318.6</ele>
        <time>2022-06-25T19:45:31Z</time>
      </trkpt>
      <trkpt lat="46.06977" lon="4.62013">
        <ele>319</ele>
        <time>2022-06-25T19:45:32Z</time>
      </trkpt>
      <trkpt lat="46.06975" lon="4.62007">
        <ele>319</ele>
        <time>2022-06-25T19:45:33Z</time>
      </trkpt>
      <trkpt lat="46.06973" lon="4.62001">
        <ele>319.2</ele>
        <time>2022-06-25T19:45:34Z</time>
      </trkpt>
      <trkpt lat="46.06971" lon="4.61994">
        <ele>319.2</ele>
        <time>2022-06-25T19:45:35Z</time>
      </trkpt>
      <trkpt lat="46.0697" lon="4.61987">
        <ele>319.2</ele>
        <time>2022-06-25T19:45:36Z</time>
      </trkpt>
      <trkpt lat="46.06969" lon="4.6198">
        <ele>319</ele>
        <time>2022-06-25T19:45:37Z</time>
      </trkpt>
      <trkpt lat="46.06968" lon="4.61973">
        <ele>319</ele>
        <time>2022-06-25T19:45:38Z</time>
      </trkpt>
      <trkpt lat="46.06967" lon="4.61966">
        <ele>319</ele>
        <time>2022-06-25T19:45:39Z</time>
      </trkpt>
      <trkpt lat="46.06965" lon="4.6196">
        <ele>319</ele>
        <time>2022-06-25T19:45:40Z</time>
      </trkpt>
      <trkpt lat="46.06964" lon="4.61953">
        <ele>319</ele>
        <time>2022-06-25T19:45:41Z</time>
      </trkpt>
      <trkpt lat="46.06962" lon="4.61946">
        <ele>319</ele>
        <time>2022-06-25T19:45:42Z</time>
      </trkpt>
      <trkpt lat="46.06961" lon="4.61939">
        <ele>319</ele>
        <time>2022-06-25T19:45:43Z</time>
      </trkpt>
      <trkpt lat="46.0696" lon="4.61933">
        <ele>319</ele>
        <time>2022-06-25T19:45:44Z</time>
      </trkpt>
      <trkpt lat="46.06959" lon="4.61926">
        <ele>319.2</ele>
        <time>2022-06-25T19:45:45Z</time>
      </trkpt>
      <trkpt lat="46.06957" lon="4.6192">
        <ele>319.2</ele>
        <time>2022-06-25T19:45:46Z</time>
      </trkpt>
      <trkpt lat="46.06956" lon="4.61914">
        <ele>319.2</ele>
        <time>2022-06-25T19:45:47Z</time>
      </trkpt>
      <trkpt lat="46.06954" lon="4.61907">
        <ele>319.2</ele>
        <time>2022-06-25T19:45:48Z</time>
      </trkpt>
      <trkpt lat="46.06953" lon="4.61901">
        <ele>319.2</ele>
        <time>2022-06-25T19:45:49Z</time>
      </trkpt>
      <trkpt lat="46.06952" lon="4.61895">
        <ele>319.2</ele>
        <time>2022-06-25T19:45:50Z</time>
      </trkpt>
      <trkpt lat="46.06951" lon="4.61889">
        <ele>319.2</ele>
        <time>2022-06-25T19:45:51Z</time>
      </trkpt>
      <trkpt lat="46.0695" lon="4.61882">
        <ele>319.2</ele>
        <time>2022-06-25T19:45:52Z</time>
      </trkpt>
      <trkpt lat="46.06949" lon="4.61876">
        <ele>319.2</ele>
        <time>2022-06-25T19:45:53Z</time>
      </trkpt>
      <trkpt lat="46.06947" lon="4.6187">
        <ele>319.2</ele>
        <time>2022-06-25T19:45:54Z</time>
      </trkpt>
      <trkpt lat="46.06946" lon="4.61864">
        <ele>319.4</ele>
        <time>2022-06-25T19:45:55Z</time>
      </trkpt>
      <trkpt lat="46.06945" lon="4.61857">
        <ele>319.4</ele>
        <time>2022-06-25T19:45:56Z</time>
      </trkpt>
      <trkpt lat="46.06944" lon="4.61851">
        <ele>319.4</ele>
        <time>2022-06-25T19:45:57Z</time>
      </trkpt>
      <trkpt lat="46.06943" lon="4.61844">
        <ele>319.4</ele>
        <time>2022-06-25T19:45:58Z</time>
      </trkpt>
      <trkpt lat="46.06941" lon="4.61838">
        <ele>319.2</ele>
        <time>2022-06-25T19:45:59Z</time>
      </trkpt>
      <trkpt lat="46.0694" lon="4.61832">
        <ele>319.2</ele>
        <time>2022-06-25T19:46:00Z</time>
      </trkpt>
      <trkpt lat="46.06939" lon="4.61826">
        <ele>319.2</ele>
        <time>2022-06-25T19:46:01Z</time>
      </trkpt>
      <trkpt lat="46.06938" lon="4.61819">
        <ele>319.2</ele>
        <time>2022-06-25T19:46:02Z</time>
      </trkpt>
      <trkpt lat="46.06937" lon="4.61812">
        <ele>319.2</ele>
        <time>2022-06-25T19:46:03Z</time>
      </trkpt>
      <trkpt lat="46.06936" lon="4.61805">
        <ele>319.2</ele>
        <time>2022-06-25T19:46:04Z</time>
      </trkpt>
      <trkpt lat="46.06934" lon="4.61799">
        <ele>319.2</ele>
        <time>2022-06-25T19:46:05Z</time>
      </trkpt>
      <trkpt lat="46.06933" lon="4.61792">
        <ele>319.2</ele>
        <time>2022-06-25T19:46:06Z</time>
      </trkpt>
      <trkpt lat="46.06931" lon="4.61785">
        <ele>319.2</ele>
        <time>2022-06-25T19:46:07Z</time>
      </trkpt>
      <trkpt lat="46.0693" lon="4.61778">
        <ele>319.2</ele>
        <time>2022-06-25T19:46:08Z</time>
      </trkpt>
      <trkpt lat="46.06929" lon="4.61771">
        <ele>319.2</ele>
        <time>2022-06-25T19:46:09Z</time>
      </trkpt>
      <trkpt lat="46.06928" lon="4.61764">
        <ele>319.2</ele>
        <time>2022-06-25T19:46:10Z</time>
      </trkpt>
      <trkpt lat="46.06927" lon="4.61757">
        <ele>319</ele>
        <time>2022-06-25T19:46:11Z</time>
      </trkpt>
      <trkpt lat="46.06927" lon="4.6175">
        <ele>319</ele>
        <time>2022-06-25T19:46:12Z</time>
      </trkpt>
      <trkpt lat="46.06926" lon="4.61742">
        <ele>319</ele>
        <time>2022-06-25T19:46:13Z</time>
      </trkpt>
      <trkpt lat="46.06926" lon="4.61734">
        <ele>319</ele>
        <time>2022-06-25T19:46:14Z</time>
      </trkpt>
      <trkpt lat="46.06925" lon="4.61727">
        <ele>319</ele>
        <time>2022-06-25T19:46:15Z</time>
      </trkpt>
      <trkpt lat="46.06925" lon="4.61719">
        <ele>319</ele>
        <time>2022-06-25T19:46:16Z</time>
      </trkpt>
      <trkpt lat="46.06925" lon="4.61712">
        <ele>319</ele>
        <time>2022-06-25T19:46:17Z</time>
      </trkpt>
      <trkpt lat="46.06925" lon="4.61705">
        <ele>319</ele>
        <time>2022-06-25T19:46:18Z</time>
      </trkpt>
      <trkpt lat="46.06924" lon="4.61698">
        <ele>319.4</ele>
        <time>2022-06-25T19:46:19Z</time>
      </trkpt>
      <trkpt lat="46.06924" lon="4.61691">
        <ele>319.4</ele>
        <time>2022-06-25T19:46:20Z</time>
      </trkpt>
      <trkpt lat="46.06924" lon="4.61685">
        <ele>319.4</ele>
        <time>2022-06-25T19:46:21Z</time>
      </trkpt>
      <trkpt lat="46.06924" lon="4.61678">
        <ele>319.4</ele>
        <time>2022-06-25T19:46:22Z</time>
      </trkpt>
      <trkpt lat="46.06925" lon="4.61671">
        <ele>319.6</ele>
        <time>2022-06-25T19:46:23Z</time>
      </trkpt>
      <trkpt lat="46.06925" lon="4.61664">
        <ele>319.6</ele>
        <time>2022-06-25T19:46:24Z</time>
      </trkpt>
      <trkpt lat="46.06925" lon="4.61657">
        <ele>320</ele>
        <time>2022-06-25T19:46:25Z</time>
      </trkpt>
      <trkpt lat="46.06925" lon="4.6165">
        <ele>320</ele>
        <time>2022-06-25T19:46:26Z</time>
      </trkpt>
      <trkpt lat="46.06925" lon="4.61644">
        <ele>320.2</ele>
        <time>2022-06-25T19:46:27Z</time>
      </trkpt>
      <trkpt lat="46.06925" lon="4.61638">
        <ele>320.2</ele>
        <time>2022-06-25T19:46:28Z</time>
      </trkpt>
      <trkpt lat="46.06925" lon="4.61631">
        <ele>320.2</ele>
        <time>2022-06-25T19:46:29Z</time>
      </trkpt>
      <trkpt lat="46.06925" lon="4.61625">
        <ele>320.2</ele>
        <time>2022-06-25T19:46:30Z</time>
      </trkpt>
      <trkpt lat="46.06925" lon="4.61619">
        <ele>320.4</ele>
        <time>2022-06-25T19:46:31Z</time>
      </trkpt>
      <trkpt lat="46.06924" lon="4.61613">
        <ele>320.4</ele>
        <time>2022-06-25T19:46:32Z</time>
      </trkpt>
      <trkpt lat="46.06924" lon="4.61607">
        <ele>320.4</ele>
        <time>2022-06-25T19:46:33Z</time>
      </trkpt>
      <trkpt lat="46.06924" lon="4.61601">
        <ele>320.4</ele>
        <time>2022-06-25T19:46:34Z</time>
      </trkpt>
      <trkpt lat="46.06924" lon="4.61594">
        <ele>320.8</ele>
        <time>2022-06-25T19:46:35Z</time>
      </trkpt>
      <trkpt lat="46.06924" lon="4.61588">
        <ele>320.8</ele>
        <time>2022-06-25T19:46:36Z</time>
      </trkpt>
      <trkpt lat="46.06923" lon="4.61582">
        <ele>321</ele>
        <time>2022-06-25T19:46:37Z</time>
      </trkpt>
      <trkpt lat="46.06923" lon="4.61576">
        <ele>321</ele>
        <time>2022-06-25T19:46:38Z</time>
      </trkpt>
      <trkpt lat="46.06923" lon="4.6157">
        <ele>321.2</ele>
        <time>2022-06-25T19:46:39Z</time>
      </trkpt>
      <trkpt lat="46.06922" lon="4.61564">
        <ele>321.2</ele>
        <time>2022-06-25T19:46:40Z</time>
      </trkpt>
      <trkpt lat="46.06922" lon="4.61558">
        <ele>321.2</ele>
        <time>2022-06-25T19:46:41Z</time>
      </trkpt>
      <trkpt lat="46.06921" lon="4.61552">
        <ele>321.2</ele>
        <time>2022-06-25T19:46:42Z</time>
      </trkpt>
      <trkpt lat="46.06921" lon="4.61546">
        <ele>321.2</ele>
        <time>2022-06-25T19:46:43Z</time>
      </trkpt>
      <trkpt lat="46.0692" lon="4.6154">
        <ele>321.2</ele>
        <time>2022-06-25T19:46:44Z</time>
      </trkpt>
      <trkpt lat="46.06919" lon="4.61534">
        <ele>321.2</ele>
        <time>2022-06-25T19:46:45Z</time>
      </trkpt>
      <trkpt lat="46.06919" lon="4.61528">
        <ele>321.2</ele>
        <time>2022-06-25T19:46:46Z</time>
      </trkpt>
      <trkpt lat="46.06918" lon="4.61522">
        <ele>321.6</ele>
        <time>2022-06-25T19:46:47Z</time>
      </trkpt>
      <trkpt lat="46.06917" lon="4.61516">
        <ele>321.6</ele>
        <time>2022-06-25T19:46:48Z</time>
      </trkpt>
      <trkpt lat="46.06916" lon="4.61511">
        <ele>321.6</ele>
        <time>2022-06-25T19:46:49Z</time>
      </trkpt>
      <trkpt lat="46.06915" lon="4.61505">
        <ele>321.6</ele>
        <time>2022-06-25T19:46:50Z</time>
      </trkpt>
      <trkpt lat="46.06913" lon="4.615">
        <ele>321.6</ele>
        <time>2022-06-25T19:46:51Z</time>
      </trkpt>
      <trkpt lat="46.06912" lon="4.61495">
        <ele>321.6</ele>
        <time>2022-06-25T19:46:52Z</time>
      </trkpt>
      <trkpt lat="46.0691" lon="4.6149">
        <ele>321.6</ele>
        <time>2022-06-25T19:46:53Z</time>
      </trkpt>
      <trkpt lat="46.06909" lon="4.61485">
        <ele>321.8</ele>
        <time>2022-06-25T19:46:54Z</time>
      </trkpt>
      <trkpt lat="46.06908" lon="4.6148">
        <ele>321.8</ele>
        <time>2022-06-25T19:46:55Z</time>
      </trkpt>
      <trkpt lat="46.06906" lon="4.61474">
        <ele>321.8</ele>
        <time>2022-06-25T19:46:56Z</time>
      </trkpt>
      <trkpt lat="46.06905" lon="4.61468">
        <ele>321.8</ele>
        <time>2022-06-25T19:46:57Z</time>
      </trkpt>
      <trkpt lat="46.06903" lon="4.61462">
        <ele>321.8</ele>
        <time>2022-06-25T19:46:58Z</time>
      </trkpt>
      <trkpt lat="46.06901" lon="4.61456">
        <ele>321.8</ele>
        <time>2022-06-25T19:46:59Z</time>
      </trkpt>
      <trkpt lat="46.06899" lon="4.6145">
        <ele>321.8</ele>
        <time>2022-06-25T19:47:00Z</time>
      </trkpt>
      <trkpt lat="46.06897" lon="4.61443">
        <ele>321.6</ele>
        <time>2022-06-25T19:47:01Z</time>
      </trkpt>
      <trkpt lat="46.06895" lon="4.61437">
        <ele>321.6</ele>
        <time>2022-06-25T19:47:02Z</time>
      </trkpt>
      <trkpt lat="46.06893" lon="4.6143">
        <ele>321.6</ele>
        <time>2022-06-25T19:47:03Z</time>
      </trkpt>
      <trkpt lat="46.06891" lon="4.61424">
        <ele>321.4</ele>
        <time>2022-06-25T19:47:04Z</time>
      </trkpt>
      <trkpt lat="46.06889" lon="4.61417">
        <ele>321.4</ele>
        <time>2022-06-25T19:47:05Z</time>
      </trkpt>
      <trkpt lat="46.06887" lon="4.61411">
        <ele>321.4</ele>
        <time>2022-06-25T19:47:06Z</time>
      </trkpt>
      <trkpt lat="46.06885" lon="4.61404">
        <ele>321.4</ele>
        <time>2022-06-25T19:47:07Z</time>
      </trkpt>
      <trkpt lat="46.06884" lon="4.61398">
        <ele>321.4</ele>
        <time>2022-06-25T19:47:08Z</time>
      </trkpt>
      <trkpt lat="46.06883" lon="4.61392">
        <ele>321.4</ele>
        <time>2022-06-25T19:47:09Z</time>
      </trkpt>
      <trkpt lat="46.06882" lon="4.61386">
        <ele>321.4</ele>
        <time>2022-06-25T19:47:10Z</time>
      </trkpt>
      <trkpt lat="46.06882" lon="4.6138">
        <ele>321.4</ele>
        <time>2022-06-25T19:47:11Z</time>
      </trkpt>
      <trkpt lat="46.06882" lon="4.61374">
        <ele>321.4</ele>
        <time>2022-06-25T19:47:12Z</time>
      </trkpt>
      <trkpt lat="46.06882" lon="4.61367">
        <ele>321.4</ele>
        <time>2022-06-25T19:47:13Z</time>
      </trkpt>
      <trkpt lat="46.06882" lon="4.61361">
        <ele>321.4</ele>
        <time>2022-06-25T19:47:14Z</time>
      </trkpt>
      <trkpt lat="46.06882" lon="4.61355">
        <ele>321.4</ele>
        <time>2022-06-25T19:47:15Z</time>
      </trkpt>
      <trkpt lat="46.06882" lon="4.61349">
        <ele>321.4</ele>
        <time>2022-06-25T19:47:16Z</time>
      </trkpt>
      <trkpt lat="46.06882" lon="4.61343">
        <ele>321.4</ele>
        <time>2022-06-25T19:47:17Z</time>
      </trkpt>
      <trkpt lat="46.06881" lon="4.61336">
        <ele>321.4</ele>
        <time>2022-06-25T19:47:18Z</time>
      </trkpt>
      <trkpt lat="46.06881" lon="4.6133">
        <ele>321.4</ele>
        <time>2022-06-25T19:47:19Z</time>
      </trkpt>
      <trkpt lat="46.0688" lon="4.61324">
        <ele>321.2</ele>
        <time>2022-06-25T19:47:20Z</time>
      </trkpt>
      <trkpt lat="46.06878" lon="4.61318">
        <ele>320.8</ele>
        <time>2022-06-25T19:47:21Z</time>
      </trkpt>
      <trkpt lat="46.06877" lon="4.61311">
        <ele>320.8</ele>
        <time>2022-06-25T19:47:22Z</time>
      </trkpt>
      <trkpt lat="46.06875" lon="4.61305">
        <ele>320.6</ele>
        <time>2022-06-25T19:47:23Z</time>
      </trkpt>
      <trkpt lat="46.06873" lon="4.61298">
        <ele>320.6</ele>
        <time>2022-06-25T19:47:24Z</time>
      </trkpt>
      <trkpt lat="46.06871" lon="4.61291">
        <ele>320.4</ele>
        <time>2022-06-25T19:47:25Z</time>
      </trkpt>
      <trkpt lat="46.06869" lon="4.61284">
        <ele>320.4</ele>
        <time>2022-06-25T19:47:26Z</time>
      </trkpt>
      <trkpt lat="46.06867" lon="4.61276">
        <ele>320.4</ele>
        <time>2022-06-25T19:47:27Z</time>
      </trkpt>
      <trkpt lat="46.06865" lon="4.61269">
        <ele>320.4</ele>
        <time>2022-06-25T19:47:28Z</time>
      </trkpt>
      <trkpt lat="46.06863" lon="4.61262">
        <ele>320</ele>
        <time>2022-06-25T19:47:29Z</time>
      </trkpt>
      <trkpt lat="46.06861" lon="4.61254">
        <ele>320</ele>
        <time>2022-06-25T19:47:30Z</time>
      </trkpt>
      <trkpt lat="46.06859" lon="4.61247">
        <ele>319.8</ele>
        <time>2022-06-25T19:47:31Z</time>
      </trkpt>
      <trkpt lat="46.06857" lon="4.61239">
        <ele>319.8</ele>
        <time>2022-06-25T19:47:32Z</time>
      </trkpt>
      <trkpt lat="46.06855" lon="4.61231">
        <ele>319.4</ele>
        <time>2022-06-25T19:47:33Z</time>
      </trkpt>
      <trkpt lat="46.06854" lon="4.61222">
        <ele>319.4</ele>
        <time>2022-06-25T19:47:34Z</time>
      </trkpt>
      <trkpt lat="46.06852" lon="4.61214">
        <ele>319.4</ele>
        <time>2022-06-25T19:47:35Z</time>
      </trkpt>
      <trkpt lat="46.06851" lon="4.61206">
        <ele>319.4</ele>
        <time>2022-06-25T19:47:36Z</time>
      </trkpt>
      <trkpt lat="46.06849" lon="4.61198">
        <ele>319.4</ele>
        <time>2022-06-25T19:47:37Z</time>
      </trkpt>
      <trkpt lat="46.06847" lon="4.6119">
        <ele>319.2</ele>
        <time>2022-06-25T19:47:38Z</time>
      </trkpt>
      <trkpt lat="46.06844" lon="4.61183">
        <ele>319.2</ele>
        <time>2022-06-25T19:47:39Z</time>
      </trkpt>
      <trkpt lat="46.0684" lon="4.61177">
        <ele>319</ele>
        <time>2022-06-25T19:47:40Z</time>
      </trkpt>
      <trkpt lat="46.06836" lon="4.61172">
        <ele>318.8</ele>
        <time>2022-06-25T19:47:41Z</time>
      </trkpt>
      <trkpt lat="46.06832" lon="4.61169">
        <ele>318.6</ele>
        <time>2022-06-25T19:47:42Z</time>
      </trkpt>
      <trkpt lat="46.06827" lon="4.61165">
        <ele>318.6</ele>
        <time>2022-06-25T19:47:43Z</time>
      </trkpt>
      <trkpt lat="46.06822" lon="4.61163">
        <ele>318.2</ele>
        <time>2022-06-25T19:47:44Z</time>
      </trkpt>
      <trkpt lat="46.06817" lon="4.6116">
        <ele>318.2</ele>
        <time>2022-06-25T19:47:45Z</time>
      </trkpt>
      <trkpt lat="46.06812" lon="4.61158">
        <ele>318.2</ele>
        <time>2022-06-25T19:47:46Z</time>
      </trkpt>
      <trkpt lat="46.06807" lon="4.61155">
        <ele>318.2</ele>
        <time>2022-06-25T19:47:47Z</time>
      </trkpt>
      <trkpt lat="46.06802" lon="4.61152">
        <ele>318.2</ele>
        <time>2022-06-25T19:47:48Z</time>
      </trkpt>
      <trkpt lat="46.06797" lon="4.61149">
        <ele>318</ele>
        <time>2022-06-25T19:47:49Z</time>
      </trkpt>
      <trkpt lat="46.06792" lon="4.61145">
        <ele>318</ele>
        <time>2022-06-25T19:47:50Z</time>
      </trkpt>
      <trkpt lat="46.06788" lon="4.61141">
        <ele>318</ele>
        <time>2022-06-25T19:47:51Z</time>
      </trkpt>
      <trkpt lat="46.06783" lon="4.61137">
        <ele>318</ele>
        <time>2022-06-25T19:47:52Z</time>
      </trkpt>
      <trkpt lat="46.06778" lon="4.61133">
        <ele>317.6</ele>
        <time>2022-06-25T19:47:53Z</time>
      </trkpt>
      <trkpt lat="46.06773" lon="4.61129">
        <ele>317.6</ele>
        <time>2022-06-25T19:47:54Z</time>
      </trkpt>
      <trkpt lat="46.06768" lon="4.61125">
        <ele>317.6</ele>
        <time>2022-06-25T19:47:55Z</time>
      </trkpt>
      <trkpt lat="46.06764" lon="4.6112">
        <ele>317.6</ele>
        <time>2022-06-25T19:47:56Z</time>
      </trkpt>
      <trkpt lat="46.0676" lon="4.61115">
        <ele>317.4</ele>
        <time>2022-06-25T19:47:57Z</time>
      </trkpt>
      <trkpt lat="46.06756" lon="4.61109">
        <ele>317.4</ele>
        <time>2022-06-25T19:47:58Z</time>
      </trkpt>
      <trkpt lat="46.06752" lon="4.61103">
        <ele>317.4</ele>
        <time>2022-06-25T19:47:59Z</time>
      </trkpt>
      <trkpt lat="46.06748" lon="4.61097">
        <ele>317.4</ele>
        <time>2022-06-25T19:48:00Z</time>
      </trkpt>
      <trkpt lat="46.06745" lon="4.61091">
        <ele>317.4</ele>
        <time>2022-06-25T19:48:01Z</time>
      </trkpt>
      <trkpt lat="46.06742" lon="4.61084">
        <ele>317.6</ele>
        <time>2022-06-25T19:48:02Z</time>
      </trkpt>
      <trkpt lat="46.06739" lon="4.61077">
        <ele>317.6</ele>
        <time>2022-06-25T19:48:03Z</time>
      </trkpt>
      <trkpt lat="46.06737" lon="4.6107">
        <ele>317.6</ele>
        <time>2022-06-25T19:48:04Z</time>
      </trkpt>
      <trkpt lat="46.06734" lon="4.61063">
        <ele>317.6</ele>
        <time>2022-06-25T19:48:05Z</time>
      </trkpt>
      <trkpt lat="46.06731" lon="4.61056">
        <ele>317.6</ele>
        <time>2022-06-25T19:48:06Z</time>
      </trkpt>
      <trkpt lat="46.06728" lon="4.61048">
        <ele>317.4</ele>
        <time>2022-06-25T19:48:07Z</time>
      </trkpt>
      <trkpt lat="46.06726" lon="4.61041">
        <ele>317.4</ele>
        <time>2022-06-25T19:48:08Z</time>
      </trkpt>
      <trkpt lat="46.06723" lon="4.61033">
        <ele>317</ele>
        <time>2022-06-25T19:48:09Z</time>
      </trkpt>
      <trkpt lat="46.0672" lon="4.61026">
        <ele>317</ele>
        <time>2022-06-25T19:48:10Z</time>
      </trkpt>
      <trkpt lat="46.06718" lon="4.61019">
        <ele>317</ele>
        <time>2022-06-25T19:48:11Z</time>
      </trkpt>
      <trkpt lat="46.06715" lon="4.61012">
        <ele>317</ele>
        <time>2022-06-25T19:48:12Z</time>
      </trkpt>
      <trkpt lat="46.06712" lon="4.61004">
        <ele>317</ele>
        <time>2022-06-25T19:48:13Z</time>
      </trkpt>
      <trkpt lat="46.0671" lon="4.60997">
        <ele>317</ele>
        <time>2022-06-25T19:48:14Z</time>
      </trkpt>
      <trkpt lat="46.06707" lon="4.6099">
        <ele>317</ele>
        <time>2022-06-25T19:48:15Z</time>
      </trkpt>
      <trkpt lat="46.06704" lon="4.60982">
        <ele>317</ele>
        <time>2022-06-25T19:48:16Z</time>
      </trkpt>
      <trkpt lat="46.06701" lon="4.60975">
        <ele>317</ele>
        <time>2022-06-25T19:48:17Z</time>
      </trkpt>
      <trkpt lat="46.06699" lon="4.60968">
        <ele>317</ele>
        <time>2022-06-25T19:48:18Z</time>
      </trkpt>
      <trkpt lat="46.06696" lon="4.60962">
        <ele>317</ele>
        <time>2022-06-25T19:48:19Z</time>
      </trkpt>
      <trkpt lat="46.06693" lon="4.60955">
        <ele>316.8</ele>
        <time>2022-06-25T19:48:20Z</time>
      </trkpt>
      <trkpt lat="46.06689" lon="4.60948">
        <ele>316.8</ele>
        <time>2022-06-25T19:48:21Z</time>
      </trkpt>
      <trkpt lat="46.06686" lon="4.60942">
        <ele>316.8</ele>
        <time>2022-06-25T19:48:22Z</time>
      </trkpt>
      <trkpt lat="46.06683" lon="4.60935">
        <ele>316.8</ele>
        <time>2022-06-25T19:48:23Z</time>
      </trkpt>
      <trkpt lat="46.06681" lon="4.60929">
        <ele>316.6</ele>
        <time>2022-06-25T19:48:24Z</time>
      </trkpt>
      <trkpt lat="46.06677" lon="4.60923">
        <ele>316.6</ele>
        <time>2022-06-25T19:48:25Z</time>
      </trkpt>
      <trkpt lat="46.06674" lon="4.60917">
        <ele>316.2</ele>
        <time>2022-06-25T19:48:26Z</time>
      </trkpt>
      <trkpt lat="46.06671" lon="4.6091">
        <ele>316.2</ele>
        <time>2022-06-25T19:48:27Z</time>
      </trkpt>
      <trkpt lat="46.06668" lon="4.60904">
        <ele>316.2</ele>
        <time>2022-06-25T19:48:28Z</time>
      </trkpt>
      <trkpt lat="46.06665" lon="4.60897">
        <ele>316</ele>
        <time>2022-06-25T19:48:29Z</time>
      </trkpt>
      <trkpt lat="46.06661" lon="4.60891">
        <ele>316</ele>
        <time>2022-06-25T19:48:30Z</time>
      </trkpt>
      <trkpt lat="46.06658" lon="4.60884">
        <ele>315.6</ele>
        <time>2022-06-25T19:48:31Z</time>
      </trkpt>
      <trkpt lat="46.06655" lon="4.60877">
        <ele>315.4</ele>
        <time>2022-06-25T19:48:32Z</time>
      </trkpt>
      <trkpt lat="46.06651" lon="4.60869">
        <ele>315.4</ele>
        <time>2022-06-25T19:48:33Z</time>
      </trkpt>
      <trkpt lat="46.06648" lon="4.60862">
        <ele>315.2</ele>
        <time>2022-06-25T19:48:34Z</time>
      </trkpt>
      <trkpt lat="46.06644" lon="4.60854">
        <ele>315.2</ele>
        <time>2022-06-25T19:48:35Z</time>
      </trkpt>
      <trkpt lat="46.06641" lon="4.60846">
        <ele>314.8</ele>
        <time>2022-06-25T19:48:36Z</time>
      </trkpt>
      <trkpt lat="46.06638" lon="4.60838">
        <ele>314.8</ele>
        <time>2022-06-25T19:48:37Z</time>
      </trkpt>
      <trkpt lat="46.06635" lon="4.60831">
        <ele>314.6</ele>
        <time>2022-06-25T19:48:38Z</time>
      </trkpt>
      <trkpt lat="46.06633" lon="4.60823">
        <ele>314.6</ele>
        <time>2022-06-25T19:48:39Z</time>
      </trkpt>
      <trkpt lat="46.06631" lon="4.60815">
        <ele>314.4</ele>
        <time>2022-06-25T19:48:40Z</time>
      </trkpt>
      <trkpt lat="46.06629" lon="4.60807">
        <ele>314.4</ele>
        <time>2022-06-25T19:48:41Z</time>
      </trkpt>
      <trkpt lat="46.06627" lon="4.608">
        <ele>314</ele>
        <time>2022-06-25T19:48:42Z</time>
      </trkpt>
      <trkpt lat="46.06625" lon="4.60792">
        <ele>314</ele>
        <time>2022-06-25T19:48:43Z</time>
      </trkpt>
      <trkpt lat="46.06623" lon="4.60785">
        <ele>313.8</ele>
        <time>2022-06-25T19:48:44Z</time>
      </trkpt>
      <trkpt lat="46.06622" lon="4.60778">
        <ele>313.8</ele>
        <time>2022-06-25T19:48:45Z</time>
      </trkpt>
      <trkpt lat="46.0662" lon="4.60771">
        <ele>313.8</ele>
        <time>2022-06-25T19:48:46Z</time>
      </trkpt>
      <trkpt lat="46.06618" lon="4.60765">
        <ele>313.8</ele>
        <time>2022-06-25T19:48:47Z</time>
      </trkpt>
      <trkpt lat="46.06617" lon="4.60758">
        <ele>313.8</ele>
        <time>2022-06-25T19:48:48Z</time>
      </trkpt>
      <trkpt lat="46.06615" lon="4.6075">
        <ele>313.8</ele>
        <time>2022-06-25T19:48:49Z</time>
      </trkpt>
      <trkpt lat="46.06613" lon="4.60743">
        <ele>313.6</ele>
        <time>2022-06-25T19:48:50Z</time>
      </trkpt>
      <trkpt lat="46.06612" lon="4.60735">
        <ele>313.6</ele>
        <time>2022-06-25T19:48:51Z</time>
      </trkpt>
      <trkpt lat="46.0661" lon="4.60727">
        <ele>313.2</ele>
        <time>2022-06-25T19:48:52Z</time>
      </trkpt>
      <trkpt lat="46.06608" lon="4.6072">
        <ele>313.2</ele>
        <time>2022-06-25T19:48:53Z</time>
      </trkpt>
      <trkpt lat="46.06607" lon="4.60711">
        <ele>312.8</ele>
        <time>2022-06-25T19:48:54Z</time>
      </trkpt>
      <trkpt lat="46.06605" lon="4.60703">
        <ele>312.6</ele>
        <time>2022-06-25T19:48:55Z</time>
      </trkpt>
      <trkpt lat="46.06603" lon="4.60694">
        <ele>312.4</ele>
        <time>2022-06-25T19:48:56Z</time>
      </trkpt>
      <trkpt lat="46.06601" lon="4.60685">
        <ele>312.4</ele>
        <time>2022-06-25T19:48:57Z</time>
      </trkpt>
      <trkpt lat="46.06599" lon="4.60676">
        <ele>312</ele>
        <time>2022-06-25T19:48:58Z</time>
      </trkpt>
      <trkpt lat="46.06597" lon="4.60667">
        <ele>311.6</ele>
        <time>2022-06-25T19:48:59Z</time>
      </trkpt>
      <trkpt lat="46.06595" lon="4.60658">
        <ele>311.6</ele>
        <time>2022-06-25T19:49:00Z</time>
      </trkpt>
      <trkpt lat="46.06594" lon="4.60649">
        <ele>311.4</ele>
        <time>2022-06-25T19:49:01Z</time>
      </trkpt>
      <trkpt lat="46.06592" lon="4.6064">
        <ele>311.4</ele>
        <time>2022-06-25T19:49:02Z</time>
      </trkpt>
      <trkpt lat="46.0659" lon="4.60631">
        <ele>311</ele>
        <time>2022-06-25T19:49:03Z</time>
      </trkpt>
      <trkpt lat="46.06587" lon="4.60623">
        <ele>311</ele>
        <time>2022-06-25T19:49:04Z</time>
      </trkpt>
      <trkpt lat="46.06585" lon="4.60614">
        <ele>310.6</ele>
        <time>2022-06-25T19:49:05Z</time>
      </trkpt>
      <trkpt lat="46.06583" lon="4.60605">
        <ele>310.4</ele>
        <time>2022-06-25T19:49:06Z</time>
      </trkpt>
      <trkpt lat="46.06582" lon="4.60595">
        <ele>310.2</ele>
        <time>2022-06-25T19:49:07Z</time>
      </trkpt>
      <trkpt lat="46.0658" lon="4.60586">
        <ele>310</ele>
        <time>2022-06-25T19:49:08Z</time>
      </trkpt>
      <trkpt lat="46.06579" lon="4.60577">
        <ele>310</ele>
        <time>2022-06-25T19:49:09Z</time>
      </trkpt>
      <trkpt lat="46.06578" lon="4.60567">
        <ele>309.6</ele>
        <time>2022-06-25T19:49:10Z</time>
      </trkpt>
      <trkpt lat="46.06578" lon="4.60557">
        <ele>309.2</ele>
        <time>2022-06-25T19:49:11Z</time>
      </trkpt>
      <trkpt lat="46.06577" lon="4.60548">
        <ele>309</ele>
        <time>2022-06-25T19:49:12Z</time>
      </trkpt>
      <trkpt lat="46.06577" lon="4.60539">
        <ele>308.8</ele>
        <time>2022-06-25T19:49:13Z</time>
      </trkpt>
      <trkpt lat="46.06577" lon="4.60531">
        <ele>308.8</ele>
        <time>2022-06-25T19:49:14Z</time>
      </trkpt>
      <trkpt lat="46.06577" lon="4.60522">
        <ele>308.6</ele>
        <time>2022-06-25T19:49:15Z</time>
      </trkpt>
      <trkpt lat="46.06577" lon="4.60513">
        <ele>308.6</ele>
        <time>2022-06-25T19:49:16Z</time>
      </trkpt>
      <trkpt lat="46.06577" lon="4.60505">
        <ele>308.2</ele>
        <time>2022-06-25T19:49:17Z</time>
      </trkpt>
      <trkpt lat="46.06576" lon="4.60496">
        <ele>308.2</ele>
        <time>2022-06-25T19:49:18Z</time>
      </trkpt>
      <trkpt lat="46.06574" lon="4.6048">
        <ele>308</ele>
        <time>2022-06-25T19:49:19Z</time>
      </trkpt>
      <trkpt lat="46.06571" lon="4.60473">
        <ele>308</ele>
        <time>2022-06-25T19:49:20Z</time>
      </trkpt>
      <trkpt lat="46.06568" lon="4.60466">
        <ele>307.6</ele>
        <time>2022-06-25T19:49:21Z</time>
      </trkpt>
      <trkpt lat="46.06564" lon="4.6046">
        <ele>307.2</ele>
        <time>2022-06-25T19:49:22Z</time>
      </trkpt>
      <trkpt lat="46.06559" lon="4.60455">
        <ele>306.8</ele>
        <time>2022-06-25T19:49:23Z</time>
      </trkpt>
      <trkpt lat="46.06554" lon="4.60451">
        <ele>306.4</ele>
        <time>2022-06-25T19:49:24Z</time>
      </trkpt>
      <trkpt lat="46.06548" lon="4.60447">
        <ele>306.2</ele>
        <time>2022-06-25T19:49:25Z</time>
      </trkpt>
      <trkpt lat="46.06542" lon="4.60443">
        <ele>305.8</ele>
        <time>2022-06-25T19:49:26Z</time>
      </trkpt>
      <trkpt lat="46.06537" lon="4.60439">
        <ele>305.4</ele>
        <time>2022-06-25T19:49:27Z</time>
      </trkpt>
      <trkpt lat="46.06531" lon="4.60435">
        <ele>305</ele>
        <time>2022-06-25T19:49:28Z</time>
      </trkpt>
      <trkpt lat="46.06526" lon="4.6043">
        <ele>304.6</ele>
        <time>2022-06-25T19:49:29Z</time>
      </trkpt>
      <trkpt lat="46.0652" lon="4.60425">
        <ele>304.2</ele>
        <time>2022-06-25T19:49:30Z</time>
      </trkpt>
      <trkpt lat="46.06516" lon="4.6042">
        <ele>304</ele>
        <time>2022-06-25T19:49:31Z</time>
      </trkpt>
      <trkpt lat="46.06512" lon="4.60414">
        <ele>303.8</ele>
        <time>2022-06-25T19:49:32Z</time>
      </trkpt>
      <trkpt lat="46.06508" lon="4.60407">
        <ele>303.4</ele>
        <time>2022-06-25T19:49:33Z</time>
      </trkpt>
      <trkpt lat="46.06504" lon="4.60399">
        <ele>303</ele>
        <time>2022-06-25T19:49:34Z</time>
      </trkpt>
      <trkpt lat="46.06501" lon="4.60391">
        <ele>302.8</ele>
        <time>2022-06-25T19:49:35Z</time>
      </trkpt>
      <trkpt lat="46.06498" lon="4.60383">
        <ele>302.6</ele>
        <time>2022-06-25T19:49:36Z</time>
      </trkpt>
      <trkpt lat="46.06496" lon="4.60375">
        <ele>302.2</ele>
        <time>2022-06-25T19:49:37Z</time>
      </trkpt>
      <trkpt lat="46.06493" lon="4.60366">
        <ele>301.8</ele>
        <time>2022-06-25T19:49:38Z</time>
      </trkpt>
      <trkpt lat="46.06492" lon="4.60358">
        <ele>301.4</ele>
        <time>2022-06-25T19:49:39Z</time>
      </trkpt>
      <trkpt lat="46.0649" lon="4.6035">
        <ele>301</ele>
        <time>2022-06-25T19:49:40Z</time>
      </trkpt>
      <trkpt lat="46.06489" lon="4.60342">
        <ele>300.6</ele>
        <time>2022-06-25T19:49:41Z</time>
      </trkpt>
      <trkpt lat="46.06488" lon="4.60333">
        <ele>300.4</ele>
        <time>2022-06-25T19:49:42Z</time>
      </trkpt>
      <trkpt lat="46.06487" lon="4.60325">
        <ele>300.2</ele>
        <time>2022-06-25T19:49:43Z</time>
      </trkpt>
      <trkpt lat="46.06485" lon="4.60317">
        <ele>300</ele>
        <time>2022-06-25T19:49:44Z</time>
      </trkpt>
      <trkpt lat="46.06482" lon="4.60309">
        <ele>299.6</ele>
        <time>2022-06-25T19:49:45Z</time>
      </trkpt>
      <trkpt lat="46.06479" lon="4.60302">
        <ele>299.4</ele>
        <time>2022-06-25T19:49:46Z</time>
      </trkpt>
      <trkpt lat="46.06475" lon="4.60295">
        <ele>299.2</ele>
        <time>2022-06-25T19:49:47Z</time>
      </trkpt>
      <trkpt lat="46.06471" lon="4.60288">
        <ele>298.8</ele>
        <time>2022-06-25T19:49:48Z</time>
      </trkpt>
      <trkpt lat="46.06467" lon="4.60282">
        <ele>298.4</ele>
        <time>2022-06-25T19:49:49Z</time>
      </trkpt>
      <trkpt lat="46.06462" lon="4.60276">
        <ele>298.2</ele>
        <time>2022-06-25T19:49:50Z</time>
      </trkpt>
      <trkpt lat="46.06457" lon="4.6027">
        <ele>298</ele>
        <time>2022-06-25T19:49:51Z</time>
      </trkpt>
      <trkpt lat="46.06453" lon="4.60264">
        <ele>297.6</ele>
        <time>2022-06-25T19:49:52Z</time>
      </trkpt>
      <trkpt lat="46.06448" lon="4.60258">
        <ele>297.4</ele>
        <time>2022-06-25T19:49:53Z</time>
      </trkpt>
      <trkpt lat="46.06444" lon="4.60253">
        <ele>297.2</ele>
        <time>2022-06-25T19:49:54Z</time>
      </trkpt>
      <trkpt lat="46.0644" lon="4.60248">
        <ele>297</ele>
        <time>2022-06-25T19:49:55Z</time>
      </trkpt>
      <trkpt lat="46.06435" lon="4.60242">
        <ele>296.6</ele>
        <time>2022-06-25T19:49:56Z</time>
      </trkpt>
      <trkpt lat="46.06431" lon="4.60237">
        <ele>296.4</ele>
        <time>2022-06-25T19:49:57Z</time>
      </trkpt>
      <trkpt lat="46.06427" lon="4.60231">
        <ele>296.2</ele>
        <time>2022-06-25T19:49:58Z</time>
      </trkpt>
      <trkpt lat="46.06422" lon="4.60226">
        <ele>296.2</ele>
        <time>2022-06-25T19:49:59Z</time>
      </trkpt>
      <trkpt lat="46.06418" lon="4.60221">
        <ele>296</ele>
        <time>2022-06-25T19:50:00Z</time>
      </trkpt>
      <trkpt lat="46.06414" lon="4.60216">
        <ele>296</ele>
        <time>2022-06-25T19:50:01Z</time>
      </trkpt>
      <trkpt lat="46.0641" lon="4.60212">
        <ele>295.6</ele>
        <time>2022-06-25T19:50:02Z</time>
      </trkpt>
      <trkpt lat="46.06406" lon="4.60207">
        <ele>295.6</ele>
        <time>2022-06-25T19:50:03Z</time>
      </trkpt>
      <trkpt lat="46.06403" lon="4.60201">
        <ele>295.4</ele>
        <time>2022-06-25T19:50:04Z</time>
      </trkpt>
      <trkpt lat="46.06399" lon="4.60195">
        <ele>295.4</ele>
        <time>2022-06-25T19:50:05Z</time>
      </trkpt>
      <trkpt lat="46.06396" lon="4.6019">
        <ele>295.4</ele>
        <time>2022-06-25T19:50:06Z</time>
      </trkpt>
      <trkpt lat="46.06393" lon="4.60185">
        <ele>295</ele>
        <time>2022-06-25T19:50:07Z</time>
      </trkpt>
      <trkpt lat="46.0639" lon="4.6018">
        <ele>295</ele>
        <time>2022-06-25T19:50:08Z</time>
      </trkpt>
      <trkpt lat="46.06387" lon="4.60176">
        <ele>294.8</ele>
        <time>2022-06-25T19:50:09Z</time>
      </trkpt>
      <trkpt lat="46.06384" lon="4.60172">
        <ele>294.6</ele>
        <time>2022-06-25T19:50:10Z</time>
      </trkpt>
      <trkpt lat="46.06381" lon="4.60168">
        <ele>294.6</ele>
        <time>2022-06-25T19:50:11Z</time>
      </trkpt>
      <trkpt lat="46.06379" lon="4.60165">
        <ele>294.2</ele>
        <time>2022-06-25T19:50:12Z</time>
      </trkpt>
      <trkpt lat="46.06378" lon="4.60162">
        <ele>294.2</ele>
        <time>2022-06-25T19:50:13Z</time>
      </trkpt>
      <trkpt lat="46.06376" lon="4.6016">
        <ele>294</ele>
        <time>2022-06-25T19:50:14Z</time>
      </trkpt>
      <trkpt lat="46.06374" lon="4.60158">
        <ele>294</ele>
        <time>2022-06-25T19:50:15Z</time>
      </trkpt>
      <trkpt lat="46.06373" lon="4.60155">
        <ele>294</ele>
        <time>2022-06-25T19:50:16Z</time>
      </trkpt>
      <trkpt lat="46.06372" lon="4.60152">
        <ele>294</ele>
        <time>2022-06-25T19:50:17Z</time>
      </trkpt>
      <trkpt lat="46.0637" lon="4.60149">
        <ele>293.8</ele>
        <time>2022-06-25T19:50:18Z</time>
      </trkpt>
      <trkpt lat="46.06369" lon="4.60146">
        <ele>293.8</ele>
        <time>2022-06-25T19:50:19Z</time>
      </trkpt>
      <trkpt lat="46.06368" lon="4.60143">
        <ele>293.4</ele>
        <time>2022-06-25T19:50:20Z</time>
      </trkpt>
      <trkpt lat="46.06367" lon="4.60141">
        <ele>293.4</ele>
        <time>2022-06-25T19:50:21Z</time>
      </trkpt>
      <trkpt lat="46.06366" lon="4.60139">
        <ele>293.4</ele>
        <time>2022-06-25T19:50:22Z</time>
      </trkpt>
      <trkpt lat="46.06365" lon="4.60138">
        <ele>293.2</ele>
        <time>2022-06-25T19:50:23Z</time>
      </trkpt>
      <trkpt lat="46.06364" lon="4.60137">
        <ele>293.2</ele>
        <time>2022-06-25T19:50:24Z</time>
      </trkpt>
      <trkpt lat="46.06364" lon="4.60138">
        <ele>293.2</ele>
        <time>2022-06-25T19:50:25Z</time>
      </trkpt>
      <trkpt lat="46.06364" lon="4.60139">
        <ele>293.2</ele>
        <time>2022-06-25T19:50:26Z</time>
      </trkpt>
      <trkpt lat="46.06365" lon="4.60142">
        <ele>293.2</ele>
        <time>2022-06-25T19:50:28Z</time>
      </trkpt>
      <trkpt lat="46.06366" lon="4.60143">
        <ele>293.2</ele>
        <time>2022-06-25T19:50:29Z</time>
      </trkpt>
      <trkpt lat="46.06367" lon="4.60145">
        <ele>293.2</ele>
        <time>2022-06-25T19:50:30Z</time>
      </trkpt>
      <trkpt lat="46.06368" lon="4.60147">
        <ele>293.2</ele>
        <time>2022-06-25T19:50:31Z</time>
      </trkpt>
      <trkpt lat="46.06369" lon="4.6015">
        <ele>293.2</ele>
        <time>2022-06-25T19:50:32Z</time>
      </trkpt>
      <trkpt lat="46.0637" lon="4.60152">
        <ele>293.2</ele>
        <time>2022-06-25T19:50:33Z</time>
      </trkpt>
      <trkpt lat="46.06371" lon="4.60155">
        <ele>293.2</ele>
        <time>2022-06-25T19:50:34Z</time>
      </trkpt>
      <trkpt lat="46.06373" lon="4.60157">
        <ele>293.4</ele>
        <time>2022-06-25T19:50:35Z</time>
      </trkpt>
      <trkpt lat="46.06374" lon="4.60159">
        <ele>293.4</ele>
        <time>2022-06-25T19:50:36Z</time>
      </trkpt>
      <trkpt lat="46.06375" lon="4.60161">
        <ele>293.6</ele>
        <time>2022-06-25T19:50:37Z</time>
      </trkpt>
      <trkpt lat="46.06377" lon="4.60164">
        <ele>293.6</ele>
        <time>2022-06-25T19:50:38Z</time>
      </trkpt>
      <trkpt lat="46.06379" lon="4.60165">
        <ele>293.6</ele>
        <time>2022-06-25T19:50:39Z</time>
      </trkpt>
      <trkpt lat="46.06381" lon="4.60165">
        <ele>293.8</ele>
        <time>2022-06-25T19:50:40Z</time>
      </trkpt>
      <trkpt lat="46.06383" lon="4.60165">
        <ele>293.8</ele>
        <time>2022-06-25T19:50:41Z</time>
      </trkpt>
      <trkpt lat="46.06385" lon="4.60163">
        <ele>293.8</ele>
        <time>2022-06-25T19:50:42Z</time>
      </trkpt>
      <trkpt lat="46.06386" lon="4.60162">
        <ele>294</ele>
        <time>2022-06-25T19:50:43Z</time>
      </trkpt>
      <trkpt lat="46.06387" lon="4.6016">
        <ele>294.4</ele>
        <time>2022-06-25T19:50:44Z</time>
      </trkpt>
      <trkpt lat="46.06388" lon="4.60159">
        <ele>294.4</ele>
        <time>2022-06-25T19:50:45Z</time>
      </trkpt>
      <trkpt lat="46.06389" lon="4.60158">
        <ele>294.6</ele>
        <time>2022-06-25T19:50:46Z</time>
      </trkpt>
      <trkpt lat="46.06389" lon="4.60157">
        <ele>294.6</ele>
        <time>2022-06-25T19:50:47Z</time>
      </trkpt>
      <trkpt lat="46.06389" lon="4.60156">
        <ele>294.8</ele>
        <time>2022-06-25T19:50:48Z</time>
      </trkpt>
      <trkpt lat="46.06391" lon="4.60154">
        <ele>294.8</ele>
        <time>2022-06-25T19:50:50Z</time>
      </trkpt>
      <trkpt lat="46.06392" lon="4.60153">
        <ele>294.8</ele>
        <time>2022-06-25T19:50:51Z</time>
      </trkpt>
      <trkpt lat="46.06392" lon="4.60153">
        <ele>295</ele>
        <time>2022-06-25T19:50:53Z</time>
      </trkpt>
      <trkpt lat="46.06389" lon="4.60155">
        <ele>295</ele>
        <time>2022-06-25T19:51:05Z</time>
      </trkpt>
      <trkpt lat="46.06388" lon="4.60157">
        <ele>295</ele>
        <time>2022-06-25T19:51:06Z</time>
      </trkpt>
      <trkpt lat="46.06386" lon="4.60159">
        <ele>295</ele>
        <time>2022-06-25T19:51:07Z</time>
      </trkpt>
      <trkpt lat="46.06385" lon="4.6016">
        <ele>295</ele>
        <time>2022-06-25T19:51:08Z</time>
      </trkpt>
      <trkpt lat="46.06383" lon="4.60162">
        <ele>294.8</ele>
        <time>2022-06-25T19:51:09Z</time>
      </trkpt>
      <trkpt lat="46.06381" lon="4.60162">
        <ele>294.8</ele>
        <time>2022-06-25T19:51:10Z</time>
      </trkpt>
      <trkpt lat="46.06379" lon="4.60161">
        <ele>294.6</ele>
        <time>2022-06-25T19:51:11Z</time>
      </trkpt>
      <trkpt lat="46.06377" lon="4.60159">
        <ele>294.6</ele>
        <time>2022-06-25T19:51:12Z</time>
      </trkpt>
      <trkpt lat="46.06375" lon="4.60157">
        <ele>294.4</ele>
        <time>2022-06-25T19:51:13Z</time>
      </trkpt>
      <trkpt lat="46.06374" lon="4.60155">
        <ele>294.4</ele>
        <time>2022-06-25T19:51:14Z</time>
      </trkpt>
      <trkpt lat="46.06373" lon="4.60152">
        <ele>294.2</ele>
        <time>2022-06-25T19:51:15Z</time>
      </trkpt>
      <trkpt lat="46.06372" lon="4.60149">
        <ele>294.2</ele>
        <time>2022-06-25T19:51:16Z</time>
      </trkpt>
      <trkpt lat="46.0637" lon="4.60145">
        <ele>294</ele>
        <time>2022-06-25T19:51:17Z</time>
      </trkpt>
      <trkpt lat="46.06368" lon="4.60141">
        <ele>294</ele>
        <time>2022-06-25T19:51:18Z</time>
      </trkpt>
      <trkpt lat="46.06367" lon="4.60138">
        <ele>294</ele>
        <time>2022-06-25T19:51:19Z</time>
      </trkpt>
      <trkpt lat="46.06365" lon="4.60134">
        <ele>293.6</ele>
        <time>2022-06-25T19:51:20Z</time>
      </trkpt>
      <trkpt lat="46.06364" lon="4.60131">
        <ele>293.6</ele>
        <time>2022-06-25T19:51:21Z</time>
      </trkpt>
      <trkpt lat="46.06362" lon="4.60128">
        <ele>293.6</ele>
        <time>2022-06-25T19:51:22Z</time>
      </trkpt>
      <trkpt lat="46.06361" lon="4.60125">
        <ele>293.4</ele>
        <time>2022-06-25T19:51:23Z</time>
      </trkpt>
      <trkpt lat="46.06361" lon="4.60121">
        <ele>293.4</ele>
        <time>2022-06-25T19:51:24Z</time>
      </trkpt>
      <trkpt lat="46.06359" lon="4.60119">
        <ele>293.4</ele>
        <time>2022-06-25T19:51:25Z</time>
      </trkpt>
      <trkpt lat="46.06358" lon="4.60116">
        <ele>293.2</ele>
        <time>2022-06-25T19:51:26Z</time>
      </trkpt>
      <trkpt lat="46.06357" lon="4.60113">
        <ele>293.2</ele>
        <time>2022-06-25T19:51:27Z</time>
      </trkpt>
      <trkpt lat="46.06355" lon="4.6011">
        <ele>293.2</ele>
        <time>2022-06-25T19:51:28Z</time>
      </trkpt>
      <trkpt lat="46.06354" lon="4.60107">
        <ele>293.2</ele>
        <time>2022-06-25T19:51:29Z</time>
      </trkpt>
      <trkpt lat="46.06352" lon="4.60103">
        <ele>293.2</ele>
        <time>2022-06-25T19:51:30Z</time>
      </trkpt>
      <trkpt lat="46.06351" lon="4.601">
        <ele>293</ele>
        <time>2022-06-25T19:51:31Z</time>
      </trkpt>
      <trkpt lat="46.06349" lon="4.60096">
        <ele>293</ele>
        <time>2022-06-25T19:51:32Z</time>
      </trkpt>
      <trkpt lat="46.06348" lon="4.60092">
        <ele>293</ele>
        <time>2022-06-25T19:51:33Z</time>
      </trkpt>
      <trkpt lat="46.06347" lon="4.60088">
        <ele>292.8</ele>
        <time>2022-06-25T19:51:34Z</time>
      </trkpt>
      <trkpt lat="46.06345" lon="4.60084">
        <ele>292.8</ele>
        <time>2022-06-25T19:51:35Z</time>
      </trkpt>
      <trkpt lat="46.06343" lon="4.6008">
        <ele>292.8</ele>
        <time>2022-06-25T19:51:36Z</time>
      </trkpt>
      <trkpt lat="46.0634" lon="4.60075">
        <ele>292.8</ele>
        <time>2022-06-25T19:51:37Z</time>
      </trkpt>
      <trkpt lat="46.06338" lon="4.6007">
        <ele>292.8</ele>
        <time>2022-06-25T19:51:38Z</time>
      </trkpt>
      <trkpt lat="46.06336" lon="4.60065">
        <ele>292.6</ele>
        <time>2022-06-25T19:51:39Z</time>
      </trkpt>
      <trkpt lat="46.06334" lon="4.6006">
        <ele>292.6</ele>
        <time>2022-06-25T19:51:40Z</time>
      </trkpt>
      <trkpt lat="46.06332" lon="4.60055">
        <ele>292.2</ele>
        <time>2022-06-25T19:51:41Z</time>
      </trkpt>
      <trkpt lat="46.0633" lon="4.6005">
        <ele>292.2</ele>
        <time>2022-06-25T19:51:42Z</time>
      </trkpt>
      <trkpt lat="46.06329" lon="4.60044">
        <ele>292</ele>
        <time>2022-06-25T19:51:43Z</time>
      </trkpt>
      <trkpt lat="46.06326" lon="4.60038">
        <ele>292</ele>
        <time>2022-06-25T19:51:44Z</time>
      </trkpt>
      <trkpt lat="46.06324" lon="4.60033">
        <ele>292</ele>
        <time>2022-06-25T19:51:45Z</time>
      </trkpt>
      <trkpt lat="46.06323" lon="4.60028">
        <ele>292</ele>
        <time>2022-06-25T19:51:46Z</time>
      </trkpt>
      <trkpt lat="46.06321" lon="4.60024">
        <ele>292</ele>
        <time>2022-06-25T19:51:47Z</time>
      </trkpt>
      <trkpt lat="46.06319" lon="4.60019">
        <ele>291.8</ele>
        <time>2022-06-25T19:51:48Z</time>
      </trkpt>
      <trkpt lat="46.06317" lon="4.60015">
        <ele>291.8</ele>
        <time>2022-06-25T19:51:49Z</time>
      </trkpt>
      <trkpt lat="46.06315" lon="4.60011">
        <ele>291.4</ele>
        <time>2022-06-25T19:51:50Z</time>
      </trkpt>
      <trkpt lat="46.06313" lon="4.60007">
        <ele>291.2</ele>
        <time>2022-06-25T19:51:51Z</time>
      </trkpt>
      <trkpt lat="46.06311" lon="4.60004">
        <ele>290.8</ele>
        <time>2022-06-25T19:51:52Z</time>
      </trkpt>
      <trkpt lat="46.0631" lon="4.60002">
        <ele>290.6</ele>
        <time>2022-06-25T19:51:53Z</time>
      </trkpt>
      <trkpt lat="46.06308" lon="4.60001">
        <ele>290.4</ele>
        <time>2022-06-25T19:51:54Z</time>
      </trkpt>
      <trkpt lat="46.06306" lon="4.60002">
        <ele>290.4</ele>
        <time>2022-06-25T19:51:55Z</time>
      </trkpt>
      <trkpt lat="46.06304" lon="4.60003">
        <ele>290</ele>
        <time>2022-06-25T19:51:56Z</time>
      </trkpt>
      <trkpt lat="46.06302" lon="4.60005">
        <ele>290</ele>
        <time>2022-06-25T19:51:57Z</time>
      </trkpt>
      <trkpt lat="46.06301" lon="4.60008">
        <ele>290</ele>
        <time>2022-06-25T19:51:58Z</time>
      </trkpt>
      <trkpt lat="46.063" lon="4.60012">
        <ele>290</ele>
        <time>2022-06-25T19:51:59Z</time>
      </trkpt>
      <trkpt lat="46.063" lon="4.60017">
        <ele>290</ele>
        <time>2022-06-25T19:52:00Z</time>
      </trkpt>
      <trkpt lat="46.06299" lon="4.60022">
        <ele>289.8</ele>
        <time>2022-06-25T19:52:01Z</time>
      </trkpt>
      <trkpt lat="46.06299" lon="4.60027">
        <ele>289.8</ele>
        <time>2022-06-25T19:52:02Z</time>
      </trkpt>
      <trkpt lat="46.06299" lon="4.60032">
        <ele>289.8</ele>
        <time>2022-06-25T19:52:03Z</time>
      </trkpt>
      <trkpt lat="46.06298" lon="4.60037">
        <ele>289.8</ele>
        <time>2022-06-25T19:52:04Z</time>
      </trkpt>
      <trkpt lat="46.06298" lon="4.60043">
        <ele>289.8</ele>
        <time>2022-06-25T19:52:05Z</time>
      </trkpt>
      <trkpt lat="46.06297" lon="4.60048">
        <ele>289.8</ele>
        <time>2022-06-25T19:52:06Z</time>
      </trkpt>
      <trkpt lat="46.06297" lon="4.60054">
        <ele>289.8</ele>
        <time>2022-06-25T19:52:07Z</time>
      </trkpt>
      <trkpt lat="46.06296" lon="4.6006">
        <ele>289.6</ele>
        <time>2022-06-25T19:52:08Z</time>
      </trkpt>
      <trkpt lat="46.06296" lon="4.60066">
        <ele>289.6</ele>
        <time>2022-06-25T19:52:09Z</time>
      </trkpt>
      <trkpt lat="46.06296" lon="4.60072">
        <ele>289.2</ele>
        <time>2022-06-25T19:52:10Z</time>
      </trkpt>
      <trkpt lat="46.06296" lon="4.60077">
        <ele>289.2</ele>
        <time>2022-06-25T19:52:11Z</time>
      </trkpt>
      <trkpt lat="46.06296" lon="4.60083">
        <ele>288.8</ele>
        <time>2022-06-25T19:52:12Z</time>
      </trkpt>
      <trkpt lat="46.06296" lon="4.60088">
        <ele>288.8</ele>
        <time>2022-06-25T19:52:13Z</time>
      </trkpt>
      <trkpt lat="46.06296" lon="4.60092">
        <ele>288.6</ele>
        <time>2022-06-25T19:52:14Z</time>
      </trkpt>
      <trkpt lat="46.06295" lon="4.60096">
        <ele>288.6</ele>
        <time>2022-06-25T19:52:15Z</time>
      </trkpt>
      <trkpt lat="46.06295" lon="4.60099">
        <ele>288.4</ele>
        <time>2022-06-25T19:52:16Z</time>
      </trkpt>
      <trkpt lat="46.06295" lon="4.60103">
        <ele>288.4</ele>
        <time>2022-06-25T19:52:17Z</time>
      </trkpt>
      <trkpt lat="46.06294" lon="4.60107">
        <ele>288.4</ele>
        <time>2022-06-25T19:52:18Z</time>
      </trkpt>
      <trkpt lat="46.06293" lon="4.60111">
        <ele>288</ele>
        <time>2022-06-25T19:52:19Z</time>
      </trkpt>
      <trkpt lat="46.06293" lon="4.60115">
        <ele>288</ele>
        <time>2022-06-25T19:52:20Z</time>
      </trkpt>
      <trkpt lat="46.06292" lon="4.6012">
        <ele>287.6</ele>
        <time>2022-06-25T19:52:21Z</time>
      </trkpt>
      <trkpt lat="46.06292" lon="4.60124">
        <ele>287.6</ele>
        <time>2022-06-25T19:52:22Z</time>
      </trkpt>
      <trkpt lat="46.06292" lon="4.60128">
        <ele>287.6</ele>
        <time>2022-06-25T19:52:23Z</time>
      </trkpt>
      <trkpt lat="46.06291" lon="4.60133">
        <ele>287.6</ele>
        <time>2022-06-25T19:52:24Z</time>
      </trkpt>
      <trkpt lat="46.06291" lon="4.60137">
        <ele>287.4</ele>
        <time>2022-06-25T19:52:26Z</time>
      </trkpt>
      <trkpt lat="46.0629" lon="4.60141">
        <ele>287.4</ele>
        <time>2022-06-25T19:52:27Z</time>
      </trkpt>
      <trkpt lat="46.0629" lon="4.60145">
        <ele>287.2</ele>
        <time>2022-06-25T19:52:28Z</time>
      </trkpt>
      <trkpt lat="46.06289" lon="4.60148">
        <ele>287.2</ele>
        <time>2022-06-25T19:52:29Z</time>
      </trkpt>
      <trkpt lat="46.06287" lon="4.60151">
        <ele>287.2</ele>
        <time>2022-06-25T19:52:30Z</time>
      </trkpt>
      <trkpt lat="46.06287" lon="4.60152">
        <ele>287</ele>
        <time>2022-06-25T19:52:31Z</time>
      </trkpt>
      <trkpt lat="46.06287" lon="4.60153">
        <ele>287</ele>
        <time>2022-06-25T19:52:32Z</time>
      </trkpt>
      <trkpt lat="46.06286" lon="4.60154">
        <ele>287</ele>
        <time>2022-06-25T19:52:33Z</time>
      </trkpt>
      <trkpt lat="46.06286" lon="4.60155">
        <ele>287</ele>
        <time>2022-06-25T19:52:34Z</time>
      </trkpt>
      <trkpt lat="46.06286" lon="4.60156">
        <ele>287</ele>
        <time>2022-06-25T19:52:35Z</time>
      </trkpt>
      <trkpt lat="46.06286" lon="4.60157">
        <ele>287</ele>
        <time>2022-06-25T19:52:36Z</time>
      </trkpt>
      <trkpt lat="46.06285" lon="4.60158">
        <ele>287</ele>
        <time>2022-06-25T19:52:37Z</time>
      </trkpt>
      <trkpt lat="46.06285" lon="4.60159">
        <ele>287</ele>
        <time>2022-06-25T19:52:38Z</time>
      </trkpt>
      <trkpt lat="46.06285" lon="4.6016">
        <ele>287</ele>
        <time>2022-06-25T19:52:40Z</time>
      </trkpt>
      <trkpt lat="46.06284" lon="4.60161">
        <ele>286.8</ele>
        <time>2022-06-25T19:52:41Z</time>
      </trkpt>
      <trkpt lat="46.06284" lon="4.60162">
        <ele>286.8</ele>
        <time>2022-06-25T19:52:42Z</time>
      </trkpt>
      <trkpt lat="46.06283" lon="4.60165">
        <ele>286.8</ele>
        <time>2022-06-25T19:52:43Z</time>
      </trkpt>
      <trkpt lat="46.06283" lon="4.60167">
        <ele>286.8</ele>
        <time>2022-06-25T19:52:44Z</time>
      </trkpt>
      <trkpt lat="46.06282" lon="4.60171">
        <ele>286.6</ele>
        <time>2022-06-25T19:52:45Z</time>
      </trkpt>
      <trkpt lat="46.06282" lon="4.60174">
        <ele>286.6</ele>
        <time>2022-06-25T19:52:46Z</time>
      </trkpt>
      <trkpt lat="46.06282" lon="4.60178">
        <ele>286.6</ele>
        <time>2022-06-25T19:52:47Z</time>
      </trkpt>
      <trkpt lat="46.06283" lon="4.60183">
        <ele>286.6</ele>
        <time>2022-06-25T19:52:48Z</time>
      </trkpt>
      <trkpt lat="46.06283" lon="4.60186">
        <ele>286.2</ele>
        <time>2022-06-25T19:52:49Z</time>
      </trkpt>
      <trkpt lat="46.06283" lon="4.60189">
        <ele>286.2</ele>
        <time>2022-06-25T19:52:50Z</time>
      </trkpt>
      <trkpt lat="46.06281" lon="4.60192">
        <ele>286</ele>
        <time>2022-06-25T19:52:51Z</time>
      </trkpt>
      <trkpt lat="46.0628" lon="4.60194">
        <ele>286</ele>
        <time>2022-06-25T19:52:52Z</time>
      </trkpt>
      <trkpt lat="46.06278" lon="4.60196">
        <ele>285.8</ele>
        <time>2022-06-25T19:52:53Z</time>
      </trkpt>
      <trkpt lat="46.06276" lon="4.60197">
        <ele>285.8</ele>
        <time>2022-06-25T19:52:54Z</time>
      </trkpt>
      <trkpt lat="46.06274" lon="4.60198">
        <ele>285.8</ele>
        <time>2022-06-25T19:52:55Z</time>
      </trkpt>
      <trkpt lat="46.06271" lon="4.60198">
        <ele>285.8</ele>
        <time>2022-06-25T19:52:56Z</time>
      </trkpt>
      <trkpt lat="46.06269" lon="4.60197">
        <ele>285.8</ele>
        <time>2022-06-25T19:52:57Z</time>
      </trkpt>
      <trkpt lat="46.06266" lon="4.60197">
        <ele>285.4</ele>
        <time>2022-06-25T19:52:58Z</time>
      </trkpt>
      <trkpt lat="46.06264" lon="4.60195">
        <ele>285.4</ele>
        <time>2022-06-25T19:52:59Z</time>
      </trkpt>
      <trkpt lat="46.06262" lon="4.60193">
        <ele>285.4</ele>
        <time>2022-06-25T19:53:00Z</time>
      </trkpt>
      <trkpt lat="46.0626" lon="4.6019">
        <ele>285.4</ele>
        <time>2022-06-25T19:53:01Z</time>
      </trkpt>
      <trkpt lat="46.06259" lon="4.60187">
        <ele>285.2</ele>
        <time>2022-06-25T19:53:02Z</time>
      </trkpt>
      <trkpt lat="46.06258" lon="4.60183">
        <ele>285.2</ele>
        <time>2022-06-25T19:53:03Z</time>
      </trkpt>
      <trkpt lat="46.06257" lon="4.60179">
        <ele>285.2</ele>
        <time>2022-06-25T19:53:04Z</time>
      </trkpt>
      <trkpt lat="46.06258" lon="4.60174">
        <ele>285.2</ele>
        <time>2022-06-25T19:53:05Z</time>
      </trkpt>
      <trkpt lat="46.06258" lon="4.6017">
        <ele>285.2</ele>
        <time>2022-06-25T19:53:06Z</time>
      </trkpt>
      <trkpt lat="46.06259" lon="4.60165">
        <ele>285.2</ele>
        <time>2022-06-25T19:53:07Z</time>
      </trkpt>
      <trkpt lat="46.0626" lon="4.60161">
        <ele>285.2</ele>
        <time>2022-06-25T19:53:08Z</time>
      </trkpt>
      <trkpt lat="46.06262" lon="4.60157">
        <ele>285.2</ele>
        <time>2022-06-25T19:53:09Z</time>
      </trkpt>
      <trkpt lat="46.06263" lon="4.60153">
        <ele>285.4</ele>
        <time>2022-06-25T19:53:10Z</time>
      </trkpt>
      <trkpt lat="46.06264" lon="4.6015">
        <ele>285.4</ele>
        <time>2022-06-25T19:53:11Z</time>
      </trkpt>
      <trkpt lat="46.06266" lon="4.60147">
        <ele>285.4</ele>
        <time>2022-06-25T19:53:12Z</time>
      </trkpt>
      <trkpt lat="46.06267" lon="4.60144">
        <ele>285.8</ele>
        <time>2022-06-25T19:53:13Z</time>
      </trkpt>
      <trkpt lat="46.0627" lon="4.60142">
        <ele>285.8</ele>
        <time>2022-06-25T19:53:14Z</time>
      </trkpt>
      <trkpt lat="46.06272" lon="4.6014">
        <ele>286</ele>
        <time>2022-06-25T19:53:15Z</time>
      </trkpt>
      <trkpt lat="46.06274" lon="4.60138">
        <ele>286</ele>
        <time>2022-06-25T19:53:16Z</time>
      </trkpt>
      <trkpt lat="46.06277" lon="4.60137">
        <ele>286.2</ele>
        <time>2022-06-25T19:53:17Z</time>
      </trkpt>
      <trkpt lat="46.0628" lon="4.60137">
        <ele>286.2</ele>
        <time>2022-06-25T19:53:18Z</time>
      </trkpt>
      <trkpt lat="46.06282" lon="4.60137">
        <ele>286.2</ele>
        <time>2022-06-25T19:53:19Z</time>
      </trkpt>
      <trkpt lat="46.06284" lon="4.60137">
        <ele>286.4</ele>
        <time>2022-06-25T19:53:20Z</time>
      </trkpt>
      <trkpt lat="46.06286" lon="4.60137">
        <ele>286.4</ele>
        <time>2022-06-25T19:53:21Z</time>
      </trkpt>
      <trkpt lat="46.06288" lon="4.60136">
        <ele>286.8</ele>
        <time>2022-06-25T19:53:22Z</time>
      </trkpt>
      <trkpt lat="46.06289" lon="4.60134">
        <ele>286.8</ele>
        <time>2022-06-25T19:53:23Z</time>
      </trkpt>
      <trkpt lat="46.0629" lon="4.60132">
        <ele>286.8</ele>
        <time>2022-06-25T19:53:24Z</time>
      </trkpt>
      <trkpt lat="46.0629" lon="4.6013">
        <ele>287</ele>
        <time>2022-06-25T19:53:25Z</time>
      </trkpt>
      <trkpt lat="46.06291" lon="4.60128">
        <ele>287</ele>
        <time>2022-06-25T19:53:26Z</time>
      </trkpt>
      <trkpt lat="46.06291" lon="4.60126">
        <ele>287</ele>
        <time>2022-06-25T19:53:27Z</time>
      </trkpt>
      <trkpt lat="46.06291" lon="4.60126">
        <ele>287</ele>
        <time>2022-06-25T19:53:29Z</time>
      </trkpt>
      <trkpt lat="46.0629" lon="4.60122">
        <ele>287.2</ele>
        <time>2022-06-25T19:53:39Z</time>
      </trkpt>
      <trkpt lat="46.06288" lon="4.60119">
        <ele>287.2</ele>
        <time>2022-06-25T19:53:40Z</time>
      </trkpt>
      <trkpt lat="46.06285" lon="4.60117">
        <ele>287.2</ele>
        <time>2022-06-25T19:53:41Z</time>
      </trkpt>
      <trkpt lat="46.06282" lon="4.60115">
        <ele>287.2</ele>
        <time>2022-06-25T19:53:42Z</time>
      </trkpt>
      <trkpt lat="46.06279" lon="4.60112">
        <ele>286.8</ele>
        <time>2022-06-25T19:53:43Z</time>
      </trkpt>
      <trkpt lat="46.06274" lon="4.6011">
        <ele>286.8</ele>
        <time>2022-06-25T19:53:44Z</time>
      </trkpt>
      <trkpt lat="46.0627" lon="4.60107">
        <ele>286.4</ele>
        <time>2022-06-25T19:53:45Z</time>
      </trkpt>
      <trkpt lat="46.06265" lon="4.60105">
        <ele>286.2</ele>
        <time>2022-06-25T19:53:46Z</time>
      </trkpt>
      <trkpt lat="46.06261" lon="4.60103">
        <ele>285.8</ele>
        <time>2022-06-25T19:53:47Z</time>
      </trkpt>
      <trkpt lat="46.06257" lon="4.60101">
        <ele>285.6</ele>
        <time>2022-06-25T19:53:48Z</time>
      </trkpt>
      <trkpt lat="46.06254" lon="4.60099">
        <ele>285.4</ele>
        <time>2022-06-25T19:53:49Z</time>
      </trkpt>
      <trkpt lat="46.06251" lon="4.60097">
        <ele>285</ele>
        <time>2022-06-25T19:53:50Z</time>
      </trkpt>
      <trkpt lat="46.06249" lon="4.60096">
        <ele>284.8</ele>
        <time>2022-06-25T19:53:51Z</time>
      </trkpt>
      <trkpt lat="46.06248" lon="4.60097">
        <ele>284.6</ele>
        <time>2022-06-25T19:53:52Z</time>
      </trkpt>
      <trkpt lat="46.06249" lon="4.60097">
        <ele>284.4</ele>
        <time>2022-06-25T19:53:54Z</time>
      </trkpt>
      <trkpt lat="46.06249" lon="4.60097">
        <ele>284.4</ele>
        <time>2022-06-25T19:53:55Z</time>
      </trkpt>
      <trkpt lat="46.0625" lon="4.60097">
        <ele>284.4</ele>
        <time>2022-06-25T19:53:57Z</time>
      </trkpt>
      <trkpt lat="46.0625" lon="4.60097">
        <ele>284.2</ele>
        <time>2022-06-25T19:54:03Z</time>
      </trkpt>
      <trkpt lat="46.06251" lon="4.60098">
        <ele>284.2</ele>
        <time>2022-06-25T19:54:04Z</time>
      </trkpt>
      <trkpt lat="46.06251" lon="4.60098">
        <ele>284.2</ele>
        <time>2022-06-25T19:54:06Z</time>
      </trkpt>
      <trkpt lat="46.06252" lon="4.60098">
        <ele>284.2</ele>
        <time>2022-06-25T19:54:07Z</time>
      </trkpt>
      <trkpt lat="46.06253" lon="4.60098">
        <ele>284.2</ele>
        <time>2022-06-25T19:54:09Z</time>
      </trkpt>
      <trkpt lat="46.06253" lon="4.60098">
        <ele>284.6</ele>
        <time>2022-06-25T19:54:13Z</time>
      </trkpt>
      <trkpt lat="46.06254" lon="4.60098">
        <ele>284.6</ele>
        <time>2022-06-25T19:54:14Z</time>
      </trkpt>
      <trkpt lat="46.06255" lon="4.60098">
        <ele>284.6</ele>
        <time>2022-06-25T19:54:15Z</time>
      </trkpt>
      <trkpt lat="46.06256" lon="4.60098">
        <ele>284.6</ele>
        <time>2022-06-25T19:54:16Z</time>
      </trkpt>
      <trkpt lat="46.06257" lon="4.60098">
        <ele>284.6</ele>
        <time>2022-06-25T19:54:17Z</time>
      </trkpt>
      <trkpt lat="46.06258" lon="4.60098">
        <ele>284.8</ele>
        <time>2022-06-25T19:54:18Z</time>
      </trkpt>
      <trkpt lat="46.06258" lon="4.60097">
        <ele>284.8</ele>
        <time>2022-06-25T19:54:20Z</time>
      </trkpt>
      <trkpt lat="46.06258" lon="4.60097">
        <ele>285.4</ele>
        <time>2022-06-25T19:54:36Z</time>
      </trkpt>
      <trkpt lat="46.06256" lon="4.601">
        <ele>284.4</ele>
        <time>2022-06-25T19:55:01Z</time>
      </trkpt>
      <trkpt lat="46.06253" lon="4.60099">
        <ele>284.2</ele>
        <time>2022-06-25T19:55:02Z</time>
      </trkpt>
      <trkpt lat="46.06251" lon="4.60098">
        <ele>284</ele>
        <time>2022-06-25T19:55:03Z</time>
      </trkpt>
      <trkpt lat="46.06248" lon="4.60097">
        <ele>284</ele>
        <time>2022-06-25T19:55:04Z</time>
      </trkpt>
      <trkpt lat="46.06244" lon="4.60095">
        <ele>283.6</ele>
        <time>2022-06-25T19:55:05Z</time>
      </trkpt>
      <trkpt lat="46.06241" lon="4.60094">
        <ele>283.6</ele>
        <time>2022-06-25T19:55:06Z</time>
      </trkpt>
      <trkpt lat="46.06236" lon="4.60091">
        <ele>283.2</ele>
        <time>2022-06-25T19:55:07Z</time>
      </trkpt>
      <trkpt lat="46.06232" lon="4.60089">
        <ele>283</ele>
        <time>2022-06-25T19:55:08Z</time>
      </trkpt>
      <trkpt lat="46.06227" lon="4.60087">
        <ele>282.6</ele>
        <time>2022-06-25T19:55:09Z</time>
      </trkpt>
      <trkpt lat="46.06222" lon="4.60085">
        <ele>282.4</ele>
        <time>2022-06-25T19:55:10Z</time>
      </trkpt>
      <trkpt lat="46.06218" lon="4.60082">
        <ele>282.2</ele>
        <time>2022-06-25T19:55:11Z</time>
      </trkpt>
      <trkpt lat="46.06213" lon="4.60079">
        <ele>281.8</ele>
        <time>2022-06-25T19:55:12Z</time>
      </trkpt>
      <trkpt lat="46.06209" lon="4.60076">
        <ele>281.4</ele>
        <time>2022-06-25T19:55:13Z</time>
      </trkpt>
      <trkpt lat="46.06204" lon="4.60073">
        <ele>281</ele>
        <time>2022-06-25T19:55:14Z</time>
      </trkpt>
      <trkpt lat="46.062" lon="4.60071">
        <ele>280.8</ele>
        <time>2022-06-25T19:55:15Z</time>
      </trkpt>
      <trkpt lat="46.06197" lon="4.60069">
        <ele>280.4</ele>
        <time>2022-06-25T19:55:16Z</time>
      </trkpt>
      <trkpt lat="46.06193" lon="4.60066">
        <ele>280.2</ele>
        <time>2022-06-25T19:55:17Z</time>
      </trkpt>
      <trkpt lat="46.06189" lon="4.60063">
        <ele>279.8</ele>
        <time>2022-06-25T19:55:18Z</time>
      </trkpt>
      <trkpt lat="46.06186" lon="4.6006">
        <ele>279.6</ele>
        <time>2022-06-25T19:55:19Z</time>
      </trkpt>
      <trkpt lat="46.06182" lon="4.60057">
        <ele>279.4</ele>
        <time>2022-06-25T19:55:20Z</time>
      </trkpt>
      <trkpt lat="46.06179" lon="4.60054">
        <ele>279.4</ele>
        <time>2022-06-25T19:55:21Z</time>
      </trkpt>
      <trkpt lat="46.06175" lon="4.60051">
        <ele>279</ele>
        <time>2022-06-25T19:55:22Z</time>
      </trkpt>
      <trkpt lat="46.06172" lon="4.60049">
        <ele>279</ele>
        <time>2022-06-25T19:55:23Z</time>
      </trkpt>
      <trkpt lat="46.0617" lon="4.60047">
        <ele>278.8</ele>
        <time>2022-06-25T19:55:24Z</time>
      </trkpt>
      <trkpt lat="46.06167" lon="4.60044">
        <ele>278.8</ele>
        <time>2022-06-25T19:55:25Z</time>
      </trkpt>
      <trkpt lat="46.06164" lon="4.60042">
        <ele>278.6</ele>
        <time>2022-06-25T19:55:26Z</time>
      </trkpt>
      <trkpt lat="46.06162" lon="4.6004">
        <ele>278.6</ele>
        <time>2022-06-25T19:55:27Z</time>
      </trkpt>
      <trkpt lat="46.0616" lon="4.60037">
        <ele>278.6</ele>
        <time>2022-06-25T19:55:28Z</time>
      </trkpt>
      <trkpt lat="46.06158" lon="4.60035">
        <ele>278.6</ele>
        <time>2022-06-25T19:55:29Z</time>
      </trkpt>
      <trkpt lat="46.06156" lon="4.60033">
        <ele>278.6</ele>
        <time>2022-06-25T19:55:30Z</time>
      </trkpt>
      <trkpt lat="46.06154" lon="4.60031">
        <ele>278.6</ele>
        <time>2022-06-25T19:55:31Z</time>
      </trkpt>
      <trkpt lat="46.06152" lon="4.60029">
        <ele>278.6</ele>
        <time>2022-06-25T19:55:32Z</time>
      </trkpt>
      <trkpt lat="46.06149" lon="4.60027">
        <ele>278.6</ele>
        <time>2022-06-25T19:55:33Z</time>
      </trkpt>
      <trkpt lat="46.06147" lon="4.60025">
        <ele>278.6</ele>
        <time>2022-06-25T19:55:34Z</time>
      </trkpt>
      <trkpt lat="46.06144" lon="4.60023">
        <ele>278.8</ele>
        <time>2022-06-25T19:55:35Z</time>
      </trkpt>
      <trkpt lat="46.0614" lon="4.60021">
        <ele>278.8</ele>
        <time>2022-06-25T19:55:36Z</time>
      </trkpt>
      <trkpt lat="46.06137" lon="4.60018">
        <ele>278.8</ele>
        <time>2022-06-25T19:55:37Z</time>
      </trkpt>
      <trkpt lat="46.06134" lon="4.60016">
        <ele>278.8</ele>
        <time>2022-06-25T19:55:38Z</time>
      </trkpt>
      <trkpt lat="46.06131" lon="4.60013">
        <ele>279</ele>
        <time>2022-06-25T19:55:39Z</time>
      </trkpt>
      <trkpt lat="46.06128" lon="4.60011">
        <ele>279</ele>
        <time>2022-06-25T19:55:40Z</time>
      </trkpt>
      <trkpt lat="46.06125" lon="4.6001">
        <ele>279</ele>
        <time>2022-06-25T19:55:41Z</time>
      </trkpt>
      <trkpt lat="46.06121" lon="4.60009">
        <ele>279.2</ele>
        <time>2022-06-25T19:55:42Z</time>
      </trkpt>
      <trkpt lat="46.06119" lon="4.60008">
        <ele>279.2</ele>
        <time>2022-06-25T19:55:43Z</time>
      </trkpt>
      <trkpt lat="46.06116" lon="4.60008">
        <ele>279.6</ele>
        <time>2022-06-25T19:55:44Z</time>
      </trkpt>
      <trkpt lat="46.06113" lon="4.60008">
        <ele>279.6</ele>
        <time>2022-06-25T19:55:45Z</time>
      </trkpt>
      <trkpt lat="46.0611" lon="4.60008">
        <ele>279.8</ele>
        <time>2022-06-25T19:55:46Z</time>
      </trkpt>
      <trkpt lat="46.06108" lon="4.60009">
        <ele>279.8</ele>
        <time>2022-06-25T19:55:47Z</time>
      </trkpt>
      <trkpt lat="46.06105" lon="4.6001">
        <ele>280.2</ele>
        <time>2022-06-25T19:55:48Z</time>
      </trkpt>
      <trkpt lat="46.06102" lon="4.60011">
        <ele>280.2</ele>
        <time>2022-06-25T19:55:49Z</time>
      </trkpt>
      <trkpt lat="46.061" lon="4.60012">
        <ele>280.4</ele>
        <time>2022-06-25T19:55:50Z</time>
      </trkpt>
      <trkpt lat="46.06097" lon="4.60013">
        <ele>280.4</ele>
        <time>2022-06-25T19:55:51Z</time>
      </trkpt>
      <trkpt lat="46.06095" lon="4.60015">
        <ele>280.8</ele>
        <time>2022-06-25T19:55:52Z</time>
      </trkpt>
      <trkpt lat="46.06093" lon="4.60017">
        <ele>280.8</ele>
        <time>2022-06-25T19:55:53Z</time>
      </trkpt>
      <trkpt lat="46.0609" lon="4.60019">
        <ele>281</ele>
        <time>2022-06-25T19:55:54Z</time>
      </trkpt>
      <trkpt lat="46.06088" lon="4.6002">
        <ele>281</ele>
        <time>2022-06-25T19:55:55Z</time>
      </trkpt>
      <trkpt lat="46.06086" lon="4.60022">
        <ele>281.4</ele>
        <time>2022-06-25T19:55:56Z</time>
      </trkpt>
      <trkpt lat="46.06084" lon="4.60024">
        <ele>281.4</ele>
        <time>2022-06-25T19:55:57Z</time>
      </trkpt>
      <trkpt lat="46.06082" lon="4.60026">
        <ele>281.8</ele>
        <time>2022-06-25T19:55:58Z</time>
      </trkpt>
      <trkpt lat="46.0608" lon="4.60028">
        <ele>281.8</ele>
        <time>2022-06-25T19:55:59Z</time>
      </trkpt>
      <trkpt lat="46.06078" lon="4.60031">
        <ele>282.2</ele>
        <time>2022-06-25T19:56:00Z</time>
      </trkpt>
      <trkpt lat="46.06076" lon="4.60033">
        <ele>282.4</ele>
        <time>2022-06-25T19:56:01Z</time>
      </trkpt>
      <trkpt lat="46.06075" lon="4.60036">
        <ele>282.4</ele>
        <time>2022-06-25T19:56:02Z</time>
      </trkpt>
      <trkpt lat="46.06073" lon="4.60038">
        <ele>282.8</ele>
        <time>2022-06-25T19:56:03Z</time>
      </trkpt>
      <trkpt lat="46.06071" lon="4.60041">
        <ele>283</ele>
        <time>2022-06-25T19:56:04Z</time>
      </trkpt>
      <trkpt lat="46.0607" lon="4.60044">
        <ele>283.2</ele>
        <time>2022-06-25T19:56:05Z</time>
      </trkpt>
      <trkpt lat="46.06068" lon="4.60047">
        <ele>283.4</ele>
        <time>2022-06-25T19:56:06Z</time>
      </trkpt>
      <trkpt lat="46.06066" lon="4.60049">
        <ele>283.4</ele>
        <time>2022-06-25T19:56:07Z</time>
      </trkpt>
      <trkpt lat="46.06065" lon="4.60052">
        <ele>283.8</ele>
        <time>2022-06-25T19:56:08Z</time>
      </trkpt>
      <trkpt lat="46.06063" lon="4.60055">
        <ele>284</ele>
        <time>2022-06-25T19:56:09Z</time>
      </trkpt>
      <trkpt lat="46.06062" lon="4.60058">
        <ele>284</ele>
        <time>2022-06-25T19:56:10Z</time>
      </trkpt>
      <trkpt lat="46.06061" lon="4.60061">
        <ele>284.2</ele>
        <time>2022-06-25T19:56:11Z</time>
      </trkpt>
      <trkpt lat="46.0606" lon="4.60065">
        <ele>284.2</ele>
        <time>2022-06-25T19:56:12Z</time>
      </trkpt>
      <trkpt lat="46.06059" lon="4.60068">
        <ele>284.6</ele>
        <time>2022-06-25T19:56:13Z</time>
      </trkpt>
      <trkpt lat="46.06058" lon="4.60071">
        <ele>284.6</ele>
        <time>2022-06-25T19:56:14Z</time>
      </trkpt>
      <trkpt lat="46.06057" lon="4.60075">
        <ele>285</ele>
        <time>2022-06-25T19:56:15Z</time>
      </trkpt>
      <trkpt lat="46.06056" lon="4.60078">
        <ele>285.2</ele>
        <time>2022-06-25T19:56:16Z</time>
      </trkpt>
      <trkpt lat="46.06055" lon="4.60082">
        <ele>285.2</ele>
        <time>2022-06-25T19:56:17Z</time>
      </trkpt>
      <trkpt lat="46.06055" lon="4.60085">
        <ele>285.4</ele>
        <time>2022-06-25T19:56:18Z</time>
      </trkpt>
      <trkpt lat="46.06054" lon="4.60089">
        <ele>285.4</ele>
        <time>2022-06-25T19:56:19Z</time>
      </trkpt>
      <trkpt lat="46.06053" lon="4.60092">
        <ele>285.6</ele>
        <time>2022-06-25T19:56:20Z</time>
      </trkpt>
      <trkpt lat="46.06052" lon="4.60096">
        <ele>285.6</ele>
        <time>2022-06-25T19:56:21Z</time>
      </trkpt>
      <trkpt lat="46.06049" lon="4.60102">
        <ele>286</ele>
        <time>2022-06-25T19:56:22Z</time>
      </trkpt>
      <trkpt lat="46.06048" lon="4.60106">
        <ele>286.4</ele>
        <time>2022-06-25T19:56:24Z</time>
      </trkpt>
      <trkpt lat="46.06047" lon="4.60109">
        <ele>286.4</ele>
        <time>2022-06-25T19:56:25Z</time>
      </trkpt>
      <trkpt lat="46.06046" lon="4.60112">
        <ele>286.6</ele>
        <time>2022-06-25T19:56:26Z</time>
      </trkpt>
      <trkpt lat="46.06045" lon="4.60116">
        <ele>286.6</ele>
        <time>2022-06-25T19:56:27Z</time>
      </trkpt>
      <trkpt lat="46.06044" lon="4.6012">
        <ele>286.8</ele>
        <time>2022-06-25T19:56:28Z</time>
      </trkpt>
      <trkpt lat="46.06043" lon="4.60123">
        <ele>286.8</ele>
        <time>2022-06-25T19:56:29Z</time>
      </trkpt>
      <trkpt lat="46.06042" lon="4.60126">
        <ele>287.2</ele>
        <time>2022-06-25T19:56:30Z</time>
      </trkpt>
      <trkpt lat="46.06041" lon="4.60129">
        <ele>287.2</ele>
        <time>2022-06-25T19:56:31Z</time>
      </trkpt>
      <trkpt lat="46.06039" lon="4.60132">
        <ele>287.4</ele>
        <time>2022-06-25T19:56:32Z</time>
      </trkpt>
      <trkpt lat="46.06038" lon="4.60136">
        <ele>287.4</ele>
        <time>2022-06-25T19:56:33Z</time>
      </trkpt>
      <trkpt lat="46.06038" lon="4.60139">
        <ele>287.8</ele>
        <time>2022-06-25T19:56:34Z</time>
      </trkpt>
      <trkpt lat="46.06037" lon="4.60143">
        <ele>288</ele>
        <time>2022-06-25T19:56:35Z</time>
      </trkpt>
      <trkpt lat="46.06036" lon="4.60146">
        <ele>288.2</ele>
        <time>2022-06-25T19:56:36Z</time>
      </trkpt>
      <trkpt lat="46.06036" lon="4.6015">
        <ele>288.2</ele>
        <time>2022-06-25T19:56:37Z</time>
      </trkpt>
      <trkpt lat="46.06035" lon="4.60153">
        <ele>288.4</ele>
        <time>2022-06-25T19:56:38Z</time>
      </trkpt>
      <trkpt lat="46.06034" lon="4.60157">
        <ele>288.4</ele>
        <time>2022-06-25T19:56:39Z</time>
      </trkpt>
      <trkpt lat="46.06033" lon="4.6016">
        <ele>288.8</ele>
        <time>2022-06-25T19:56:40Z</time>
      </trkpt>
      <trkpt lat="46.06032" lon="4.60164">
        <ele>288.8</ele>
        <time>2022-06-25T19:56:41Z</time>
      </trkpt>
      <trkpt lat="46.06031" lon="4.60167">
        <ele>289.2</ele>
        <time>2022-06-25T19:56:42Z</time>
      </trkpt>
      <trkpt lat="46.0603" lon="4.6017">
        <ele>289.2</ele>
        <time>2022-06-25T19:56:43Z</time>
      </trkpt>
      <trkpt lat="46.06029" lon="4.60174">
        <ele>289.4</ele>
        <time>2022-06-25T19:56:44Z</time>
      </trkpt>
      <trkpt lat="46.06028" lon="4.60177">
        <ele>289.6</ele>
        <time>2022-06-25T19:56:45Z</time>
      </trkpt>
      <trkpt lat="46.06027" lon="4.60181">
        <ele>289.6</ele>
        <time>2022-06-25T19:56:46Z</time>
      </trkpt>
      <trkpt lat="46.06025" lon="4.60184">
        <ele>290</ele>
        <time>2022-06-25T19:56:47Z</time>
      </trkpt>
      <trkpt lat="46.06024" lon="4.60188">
        <ele>290</ele>
        <time>2022-06-25T19:56:48Z</time>
      </trkpt>
      <trkpt lat="46.06023" lon="4.60191">
        <ele>290.2</ele>
        <time>2022-06-25T19:56:49Z</time>
      </trkpt>
      <trkpt lat="46.06022" lon="4.60195">
        <ele>290.2</ele>
        <time>2022-06-25T19:56:50Z</time>
      </trkpt>
      <trkpt lat="46.06021" lon="4.60198">
        <ele>290.6</ele>
        <time>2022-06-25T19:56:51Z</time>
      </trkpt>
      <trkpt lat="46.06019" lon="4.60202">
        <ele>290.8</ele>
        <time>2022-06-25T19:56:52Z</time>
      </trkpt>
      <trkpt lat="46.06018" lon="4.60205">
        <ele>291</ele>
        <time>2022-06-25T19:56:53Z</time>
      </trkpt>
      <trkpt lat="46.06017" lon="4.60208">
        <ele>291</ele>
        <time>2022-06-25T19:56:54Z</time>
      </trkpt>
      <trkpt lat="46.06015" lon="4.60212">
        <ele>291.4</ele>
        <time>2022-06-25T19:56:55Z</time>
      </trkpt>
      <trkpt lat="46.06014" lon="4.60215">
        <ele>291.4</ele>
        <time>2022-06-25T19:56:56Z</time>
      </trkpt>
      <trkpt lat="46.06012" lon="4.60218">
        <ele>291.6</ele>
        <time>2022-06-25T19:56:57Z</time>
      </trkpt>
      <trkpt lat="46.06011" lon="4.60221">
        <ele>291.8</ele>
        <time>2022-06-25T19:56:58Z</time>
      </trkpt>
      <trkpt lat="46.06009" lon="4.60223">
        <ele>291.8</ele>
        <time>2022-06-25T19:56:59Z</time>
      </trkpt>
      <trkpt lat="46.06007" lon="4.60226">
        <ele>292.2</ele>
        <time>2022-06-25T19:57:00Z</time>
      </trkpt>
      <trkpt lat="46.06005" lon="4.60229">
        <ele>292.2</ele>
        <time>2022-06-25T19:57:01Z</time>
      </trkpt>
      <trkpt lat="46.06003" lon="4.60232">
        <ele>292.4</ele>
        <time>2022-06-25T19:57:02Z</time>
      </trkpt>
      <trkpt lat="46.06001" lon="4.60234">
        <ele>292.4</ele>
        <time>2022-06-25T19:57:03Z</time>
      </trkpt>
      <trkpt lat="46.05999" lon="4.60237">
        <ele>292.6</ele>
        <time>2022-06-25T19:57:04Z</time>
      </trkpt>
      <trkpt lat="46.05998" lon="4.60239">
        <ele>292.6</ele>
        <time>2022-06-25T19:57:05Z</time>
      </trkpt>
      <trkpt lat="46.05996" lon="4.60242">
        <ele>293</ele>
        <time>2022-06-25T19:57:06Z</time>
      </trkpt>
      <trkpt lat="46.05994" lon="4.60244">
        <ele>293.2</ele>
        <time>2022-06-25T19:57:07Z</time>
      </trkpt>
      <trkpt lat="46.05993" lon="4.60247">
        <ele>293.2</ele>
        <time>2022-06-25T19:57:08Z</time>
      </trkpt>
      <trkpt lat="46.05991" lon="4.60249">
        <ele>293.6</ele>
        <time>2022-06-25T19:57:09Z</time>
      </trkpt>
      <trkpt lat="46.05989" lon="4.6025">
        <ele>293.8</ele>
        <time>2022-06-25T19:57:10Z</time>
      </trkpt>
      <trkpt lat="46.05986" lon="4.60252">
        <ele>293.8</ele>
        <time>2022-06-25T19:57:11Z</time>
      </trkpt>
      <trkpt lat="46.05984" lon="4.60253">
        <ele>294.2</ele>
        <time>2022-06-25T19:57:12Z</time>
      </trkpt>
      <trkpt lat="46.05982" lon="4.60253">
        <ele>294.2</ele>
        <time>2022-06-25T19:57:13Z</time>
      </trkpt>
      <trkpt lat="46.05979" lon="4.60254">
        <ele>294.4</ele>
        <time>2022-06-25T19:57:14Z</time>
      </trkpt>
      <trkpt lat="46.05976" lon="4.60255">
        <ele>294.4</ele>
        <time>2022-06-25T19:57:15Z</time>
      </trkpt>
      <trkpt lat="46.05974" lon="4.60257">
        <ele>294.8</ele>
        <time>2022-06-25T19:57:16Z</time>
      </trkpt>
      <trkpt lat="46.05972" lon="4.60258">
        <ele>294.8</ele>
        <time>2022-06-25T19:57:17Z</time>
      </trkpt>
      <trkpt lat="46.05969" lon="4.60259">
        <ele>295.2</ele>
        <time>2022-06-25T19:57:18Z</time>
      </trkpt>
      <trkpt lat="46.05967" lon="4.6026">
        <ele>295.4</ele>
        <time>2022-06-25T19:57:19Z</time>
      </trkpt>
      <trkpt lat="46.05965" lon="4.60261">
        <ele>295.6</ele>
        <time>2022-06-25T19:57:20Z</time>
      </trkpt>
      <trkpt lat="46.05963" lon="4.60262">
        <ele>295.8</ele>
        <time>2022-06-25T19:57:21Z</time>
      </trkpt>
      <trkpt lat="46.0596" lon="4.60262">
        <ele>295.8</ele>
        <time>2022-06-25T19:57:22Z</time>
      </trkpt>
      <trkpt lat="46.05958" lon="4.60263">
        <ele>296.2</ele>
        <time>2022-06-25T19:57:23Z</time>
      </trkpt>
      <trkpt lat="46.05956" lon="4.60264">
        <ele>296.2</ele>
        <time>2022-06-25T19:57:24Z</time>
      </trkpt>
      <trkpt lat="46.05954" lon="4.60265">
        <ele>296.6</ele>
        <time>2022-06-25T19:57:25Z</time>
      </trkpt>
      <trkpt lat="46.05951" lon="4.60266">
        <ele>296.8</ele>
        <time>2022-06-25T19:57:26Z</time>
      </trkpt>
      <trkpt lat="46.05949" lon="4.60266">
        <ele>296.8</ele>
        <time>2022-06-25T19:57:27Z</time>
      </trkpt>
      <trkpt lat="46.05947" lon="4.60266">
        <ele>297.2</ele>
        <time>2022-06-25T19:57:28Z</time>
      </trkpt>
      <trkpt lat="46.05944" lon="4.60266">
        <ele>297.2</ele>
        <time>2022-06-25T19:57:29Z</time>
      </trkpt>
      <trkpt lat="46.05942" lon="4.60266">
        <ele>297.6</ele>
        <time>2022-06-25T19:57:30Z</time>
      </trkpt>
      <trkpt lat="46.05939" lon="4.60266">
        <ele>297.8</ele>
        <time>2022-06-25T19:57:31Z</time>
      </trkpt>
      <trkpt lat="46.05937" lon="4.60266">
        <ele>297.8</ele>
        <time>2022-06-25T19:57:32Z</time>
      </trkpt>
      <trkpt lat="46.05935" lon="4.60265">
        <ele>298.2</ele>
        <time>2022-06-25T19:57:33Z</time>
      </trkpt>
      <trkpt lat="46.05932" lon="4.60265">
        <ele>298.2</ele>
        <time>2022-06-25T19:57:34Z</time>
      </trkpt>
      <trkpt lat="46.0593" lon="4.60265">
        <ele>298.4</ele>
        <time>2022-06-25T19:57:35Z</time>
      </trkpt>
      <trkpt lat="46.05928" lon="4.60264">
        <ele>298.4</ele>
        <time>2022-06-25T19:57:36Z</time>
      </trkpt>
      <trkpt lat="46.05926" lon="4.60263">
        <ele>298.8</ele>
        <time>2022-06-25T19:57:37Z</time>
      </trkpt>
      <trkpt lat="46.05923" lon="4.60262">
        <ele>299</ele>
        <time>2022-06-25T19:57:38Z</time>
      </trkpt>
      <trkpt lat="46.05921" lon="4.6026">
        <ele>299</ele>
        <time>2022-06-25T19:57:39Z</time>
      </trkpt>
      <trkpt lat="46.05919" lon="4.60258">
        <ele>299</ele>
        <time>2022-06-25T19:57:40Z</time>
      </trkpt>
      <trkpt lat="46.05917" lon="4.60255">
        <ele>299.4</ele>
        <time>2022-06-25T19:57:41Z</time>
      </trkpt>
      <trkpt lat="46.05915" lon="4.60253">
        <ele>299.4</ele>
        <time>2022-06-25T19:57:42Z</time>
      </trkpt>
      <trkpt lat="46.05913" lon="4.6025">
        <ele>299.8</ele>
        <time>2022-06-25T19:57:43Z</time>
      </trkpt>
      <trkpt lat="46.05911" lon="4.60248">
        <ele>299.8</ele>
        <time>2022-06-25T19:57:44Z</time>
      </trkpt>
      <trkpt lat="46.05909" lon="4.60245">
        <ele>300</ele>
        <time>2022-06-25T19:57:45Z</time>
      </trkpt>
      <trkpt lat="46.05907" lon="4.60243">
        <ele>300.4</ele>
        <time>2022-06-25T19:57:46Z</time>
      </trkpt>
      <trkpt lat="46.05906" lon="4.6024">
        <ele>300.4</ele>
        <time>2022-06-25T19:57:47Z</time>
      </trkpt>
      <trkpt lat="46.05904" lon="4.60238">
        <ele>300.8</ele>
        <time>2022-06-25T19:57:48Z</time>
      </trkpt>
      <trkpt lat="46.05902" lon="4.60235">
        <ele>301</ele>
        <time>2022-06-25T19:57:49Z</time>
      </trkpt>
      <trkpt lat="46.05901" lon="4.60233">
        <ele>301.2</ele>
        <time>2022-06-25T19:57:50Z</time>
      </trkpt>
      <trkpt lat="46.059" lon="4.6023">
        <ele>301.4</ele>
        <time>2022-06-25T19:57:51Z</time>
      </trkpt>
      <trkpt lat="46.05899" lon="4.60227">
        <ele>301.4</ele>
        <time>2022-06-25T19:57:52Z</time>
      </trkpt>
      <trkpt lat="46.05897" lon="4.60223">
        <ele>301.8</ele>
        <time>2022-06-25T19:57:53Z</time>
      </trkpt>
      <trkpt lat="46.05896" lon="4.6022">
        <ele>302</ele>
        <time>2022-06-25T19:57:54Z</time>
      </trkpt>
      <trkpt lat="46.05895" lon="4.60217">
        <ele>302.2</ele>
        <time>2022-06-25T19:57:55Z</time>
      </trkpt>
      <trkpt lat="46.05893" lon="4.60214">
        <ele>302.2</ele>
        <time>2022-06-25T19:57:56Z</time>
      </trkpt>
      <trkpt lat="46.05892" lon="4.60211">
        <ele>302.4</ele>
        <time>2022-06-25T19:57:57Z</time>
      </trkpt>
      <trkpt lat="46.05891" lon="4.60208">
        <ele>302.4</ele>
        <time>2022-06-25T19:57:58Z</time>
      </trkpt>
      <trkpt lat="46.0589" lon="4.60205">
        <ele>302.8</ele>
        <time>2022-06-25T19:57:59Z</time>
      </trkpt>
      <trkpt lat="46.05889" lon="4.60202">
        <ele>303</ele>
        <time>2022-06-25T19:58:00Z</time>
      </trkpt>
      <trkpt lat="46.05888" lon="4.60199">
        <ele>303</ele>
        <time>2022-06-25T19:58:01Z</time>
      </trkpt>
      <trkpt lat="46.05887" lon="4.60196">
        <ele>303.4</ele>
        <time>2022-06-25T19:58:02Z</time>
      </trkpt>
      <trkpt lat="46.05886" lon="4.60194">
        <ele>303.6</ele>
        <time>2022-06-25T19:58:03Z</time>
      </trkpt>
      <trkpt lat="46.05885" lon="4.60191">
        <ele>303.6</ele>
        <time>2022-06-25T19:58:04Z</time>
      </trkpt>
      <trkpt lat="46.05884" lon="4.60189">
        <ele>304</ele>
        <time>2022-06-25T19:58:05Z</time>
      </trkpt>
      <trkpt lat="46.05883" lon="4.60186">
        <ele>304</ele>
        <time>2022-06-25T19:58:06Z</time>
      </trkpt>
      <trkpt lat="46.05882" lon="4.60183">
        <ele>304.2</ele>
        <time>2022-06-25T19:58:07Z</time>
      </trkpt>
      <trkpt lat="46.05881" lon="4.60181">
        <ele>304.2</ele>
        <time>2022-06-25T19:58:08Z</time>
      </trkpt>
      <trkpt lat="46.0588" lon="4.60179">
        <ele>304.6</ele>
        <time>2022-06-25T19:58:09Z</time>
      </trkpt>
      <trkpt lat="46.05879" lon="4.60176">
        <ele>305</ele>
        <time>2022-06-25T19:58:10Z</time>
      </trkpt>
      <trkpt lat="46.05879" lon="4.60173">
        <ele>305</ele>
        <time>2022-06-25T19:58:11Z</time>
      </trkpt>
      <trkpt lat="46.05878" lon="4.60171">
        <ele>305.2</ele>
        <time>2022-06-25T19:58:12Z</time>
      </trkpt>
      <trkpt lat="46.05878" lon="4.60168">
        <ele>305.2</ele>
        <time>2022-06-25T19:58:13Z</time>
      </trkpt>
      <trkpt lat="46.05877" lon="4.60165">
        <ele>305.6</ele>
        <time>2022-06-25T19:58:14Z</time>
      </trkpt>
      <trkpt lat="46.05876" lon="4.60162">
        <ele>305.6</ele>
        <time>2022-06-25T19:58:15Z</time>
      </trkpt>
      <trkpt lat="46.05875" lon="4.6016">
        <ele>306</ele>
        <time>2022-06-25T19:58:16Z</time>
      </trkpt>
      <trkpt lat="46.05873" lon="4.60158">
        <ele>306</ele>
        <time>2022-06-25T19:58:17Z</time>
      </trkpt>
      <trkpt lat="46.05872" lon="4.60155">
        <ele>306.4</ele>
        <time>2022-06-25T19:58:18Z</time>
      </trkpt>
      <trkpt lat="46.05871" lon="4.60153">
        <ele>306.6</ele>
        <time>2022-06-25T19:58:19Z</time>
      </trkpt>
      <trkpt lat="46.0587" lon="4.60149">
        <ele>306.6</ele>
        <time>2022-06-25T19:58:20Z</time>
      </trkpt>
      <trkpt lat="46.0587" lon="4.60146">
        <ele>306.8</ele>
        <time>2022-06-25T19:58:21Z</time>
      </trkpt>
      <trkpt lat="46.0587" lon="4.60143">
        <ele>306.8</ele>
        <time>2022-06-25T19:58:22Z</time>
      </trkpt>
      <trkpt lat="46.05869" lon="4.6014">
        <ele>307.2</ele>
        <time>2022-06-25T19:58:23Z</time>
      </trkpt>
      <trkpt lat="46.05868" lon="4.60137">
        <ele>307.4</ele>
        <time>2022-06-25T19:58:24Z</time>
      </trkpt>
      <trkpt lat="46.05867" lon="4.60134">
        <ele>307.4</ele>
        <time>2022-06-25T19:58:25Z</time>
      </trkpt>
      <trkpt lat="46.05866" lon="4.60131">
        <ele>307.8</ele>
        <time>2022-06-25T19:58:26Z</time>
      </trkpt>
      <trkpt lat="46.05865" lon="4.60128">
        <ele>307.8</ele>
        <time>2022-06-25T19:58:27Z</time>
      </trkpt>
      <trkpt lat="46.05865" lon="4.60125">
        <ele>308</ele>
        <time>2022-06-25T19:58:28Z</time>
      </trkpt>
      <trkpt lat="46.05864" lon="4.60122">
        <ele>308</ele>
        <time>2022-06-25T19:58:29Z</time>
      </trkpt>
      <trkpt lat="46.05863" lon="4.60119">
        <ele>308.4</ele>
        <time>2022-06-25T19:58:30Z</time>
      </trkpt>
      <trkpt lat="46.05861" lon="4.60116">
        <ele>308.4</ele>
        <time>2022-06-25T19:58:31Z</time>
      </trkpt>
      <trkpt lat="46.0586" lon="4.60113">
        <ele>308.6</ele>
        <time>2022-06-25T19:58:32Z</time>
      </trkpt>
      <trkpt lat="46.05859" lon="4.6011">
        <ele>308.6</ele>
        <time>2022-06-25T19:58:33Z</time>
      </trkpt>
      <trkpt lat="46.05858" lon="4.60107">
        <ele>309</ele>
        <time>2022-06-25T19:58:34Z</time>
      </trkpt>
      <trkpt lat="46.05857" lon="4.60104">
        <ele>309</ele>
        <time>2022-06-25T19:58:35Z</time>
      </trkpt>
      <trkpt lat="46.05856" lon="4.60101">
        <ele>309.2</ele>
        <time>2022-06-25T19:58:36Z</time>
      </trkpt>
      <trkpt lat="46.05854" lon="4.60099">
        <ele>309.2</ele>
        <time>2022-06-25T19:58:37Z</time>
      </trkpt>
      <trkpt lat="46.05853" lon="4.60096">
        <ele>309.4</ele>
        <time>2022-06-25T19:58:38Z</time>
      </trkpt>
      <trkpt lat="46.05851" lon="4.60093">
        <ele>309.4</ele>
        <time>2022-06-25T19:58:39Z</time>
      </trkpt>
      <trkpt lat="46.05849" lon="4.60091">
        <ele>309.8</ele>
        <time>2022-06-25T19:58:40Z</time>
      </trkpt>
      <trkpt lat="46.05847" lon="4.60089">
        <ele>309.8</ele>
        <time>2022-06-25T19:58:41Z</time>
      </trkpt>
      <trkpt lat="46.05845" lon="4.60086">
        <ele>310</ele>
        <time>2022-06-25T19:58:42Z</time>
      </trkpt>
      <trkpt lat="46.05843" lon="4.60084">
        <ele>310</ele>
        <time>2022-06-25T19:58:43Z</time>
      </trkpt>
      <trkpt lat="46.05841" lon="4.60081">
        <ele>310.4</ele>
        <time>2022-06-25T19:58:44Z</time>
      </trkpt>
      <trkpt lat="46.05839" lon="4.60079">
        <ele>310.6</ele>
        <time>2022-06-25T19:58:45Z</time>
      </trkpt>
      <trkpt lat="46.05837" lon="4.60076">
        <ele>310.6</ele>
        <time>2022-06-25T19:58:46Z</time>
      </trkpt>
      <trkpt lat="46.05835" lon="4.60073">
        <ele>310.8</ele>
        <time>2022-06-25T19:58:47Z</time>
      </trkpt>
      <trkpt lat="46.05833" lon="4.60071">
        <ele>310.8</ele>
        <time>2022-06-25T19:58:48Z</time>
      </trkpt>
      <trkpt lat="46.05832" lon="4.60068">
        <ele>310.8</ele>
        <time>2022-06-25T19:58:49Z</time>
      </trkpt>
      <trkpt lat="46.0583" lon="4.60066">
        <ele>311.2</ele>
        <time>2022-06-25T19:58:50Z</time>
      </trkpt>
      <trkpt lat="46.05828" lon="4.60064">
        <ele>311.2</ele>
        <time>2022-06-25T19:58:51Z</time>
      </trkpt>
      <trkpt lat="46.05826" lon="4.60061">
        <ele>311.4</ele>
        <time>2022-06-25T19:58:52Z</time>
      </trkpt>
      <trkpt lat="46.05824" lon="4.60059">
        <ele>311.4</ele>
        <time>2022-06-25T19:58:53Z</time>
      </trkpt>
      <trkpt lat="46.05822" lon="4.60056">
        <ele>311.8</ele>
        <time>2022-06-25T19:58:54Z</time>
      </trkpt>
      <trkpt lat="46.05821" lon="4.60053">
        <ele>311.8</ele>
        <time>2022-06-25T19:58:55Z</time>
      </trkpt>
      <trkpt lat="46.05819" lon="4.6005">
        <ele>312</ele>
        <time>2022-06-25T19:58:56Z</time>
      </trkpt>
      <trkpt lat="46.05818" lon="4.60047">
        <ele>312</ele>
        <time>2022-06-25T19:58:57Z</time>
      </trkpt>
      <trkpt lat="46.05817" lon="4.60044">
        <ele>312.4</ele>
        <time>2022-06-25T19:58:58Z</time>
      </trkpt>
      <trkpt lat="46.05815" lon="4.60041">
        <ele>312.4</ele>
        <time>2022-06-25T19:58:59Z</time>
      </trkpt>
      <trkpt lat="46.05814" lon="4.60038">
        <ele>312.6</ele>
        <time>2022-06-25T19:59:00Z</time>
      </trkpt>
      <trkpt lat="46.05812" lon="4.60035">
        <ele>312.6</ele>
        <time>2022-06-25T19:59:01Z</time>
      </trkpt>
      <trkpt lat="46.05811" lon="4.60032">
        <ele>312.6</ele>
        <time>2022-06-25T19:59:02Z</time>
      </trkpt>
      <trkpt lat="46.05809" lon="4.60029">
        <ele>312.8</ele>
        <time>2022-06-25T19:59:03Z</time>
      </trkpt>
      <trkpt lat="46.05808" lon="4.60026">
        <ele>312.8</ele>
        <time>2022-06-25T19:59:04Z</time>
      </trkpt>
      <trkpt lat="46.05807" lon="4.60023">
        <ele>313.2</ele>
        <time>2022-06-25T19:59:05Z</time>
      </trkpt>
      <trkpt lat="46.05805" lon="4.6002">
        <ele>313.4</ele>
        <time>2022-06-25T19:59:06Z</time>
      </trkpt>
      <trkpt lat="46.05804" lon="4.60017">
        <ele>313.4</ele>
        <time>2022-06-25T19:59:07Z</time>
      </trkpt>
      <trkpt lat="46.05803" lon="4.60014">
        <ele>313.8</ele>
        <time>2022-06-25T19:59:08Z</time>
      </trkpt>
      <trkpt lat="46.05803" lon="4.60011">
        <ele>313.8</ele>
        <time>2022-06-25T19:59:09Z</time>
      </trkpt>
      <trkpt lat="46.05802" lon="4.60008">
        <ele>314</ele>
        <time>2022-06-25T19:59:10Z</time>
      </trkpt>
      <trkpt lat="46.05801" lon="4.60004">
        <ele>314</ele>
        <time>2022-06-25T19:59:11Z</time>
      </trkpt>
      <trkpt lat="46.05801" lon="4.60001">
        <ele>314.4</ele>
        <time>2022-06-25T19:59:12Z</time>
      </trkpt>
      <trkpt lat="46.058" lon="4.59998">
        <ele>314.4</ele>
        <time>2022-06-25T19:59:13Z</time>
      </trkpt>
      <trkpt lat="46.058" lon="4.59994">
        <ele>314.4</ele>
        <time>2022-06-25T19:59:14Z</time>
      </trkpt>
      <trkpt lat="46.058" lon="4.59991">
        <ele>314.6</ele>
        <time>2022-06-25T19:59:15Z</time>
      </trkpt>
      <trkpt lat="46.058" lon="4.59988">
        <ele>314.6</ele>
        <time>2022-06-25T19:59:16Z</time>
      </trkpt>
      <trkpt lat="46.058" lon="4.59985">
        <ele>315</ele>
        <time>2022-06-25T19:59:17Z</time>
      </trkpt>
      <trkpt lat="46.05799" lon="4.59981">
        <ele>315</ele>
        <time>2022-06-25T19:59:18Z</time>
      </trkpt>
      <trkpt lat="46.05799" lon="4.59978">
        <ele>315.4</ele>
        <time>2022-06-25T19:59:19Z</time>
      </trkpt>
      <trkpt lat="46.05799" lon="4.59975">
        <ele>315.6</ele>
        <time>2022-06-25T19:59:20Z</time>
      </trkpt>
      <trkpt lat="46.05799" lon="4.59971">
        <ele>315.8</ele>
        <time>2022-06-25T19:59:21Z</time>
      </trkpt>
      <trkpt lat="46.05799" lon="4.59968">
        <ele>315.8</ele>
        <time>2022-06-25T19:59:22Z</time>
      </trkpt>
      <trkpt lat="46.05798" lon="4.59964">
        <ele>315.8</ele>
        <time>2022-06-25T19:59:23Z</time>
      </trkpt>
      <trkpt lat="46.05798" lon="4.59961">
        <ele>316</ele>
        <time>2022-06-25T19:59:24Z</time>
      </trkpt>
      <trkpt lat="46.05798" lon="4.59957">
        <ele>316</ele>
        <time>2022-06-25T19:59:25Z</time>
      </trkpt>
      <trkpt lat="46.05798" lon="4.59953">
        <ele>316.4</ele>
        <time>2022-06-25T19:59:26Z</time>
      </trkpt>
      <trkpt lat="46.05798" lon="4.59949">
        <ele>316.4</ele>
        <time>2022-06-25T19:59:27Z</time>
      </trkpt>
      <trkpt lat="46.05798" lon="4.59946">
        <ele>316.6</ele>
        <time>2022-06-25T19:59:28Z</time>
      </trkpt>
      <trkpt lat="46.05797" lon="4.59942">
        <ele>316.6</ele>
        <time>2022-06-25T19:59:29Z</time>
      </trkpt>
      <trkpt lat="46.05797" lon="4.59938">
        <ele>316.8</ele>
        <time>2022-06-25T19:59:30Z</time>
      </trkpt>
      <trkpt lat="46.05796" lon="4.59935">
        <ele>316.8</ele>
        <time>2022-06-25T19:59:31Z</time>
      </trkpt>
      <trkpt lat="46.05795" lon="4.59931">
        <ele>316.8</ele>
        <time>2022-06-25T19:59:32Z</time>
      </trkpt>
      <trkpt lat="46.05795" lon="4.59927">
        <ele>317.2</ele>
        <time>2022-06-25T19:59:33Z</time>
      </trkpt>
      <trkpt lat="46.05794" lon="4.59924">
        <ele>317.2</ele>
        <time>2022-06-25T19:59:34Z</time>
      </trkpt>
      <trkpt lat="46.05794" lon="4.5992">
        <ele>317.2</ele>
        <time>2022-06-25T19:59:35Z</time>
      </trkpt>
      <trkpt lat="46.05793" lon="4.59916">
        <ele>317.6</ele>
        <time>2022-06-25T19:59:36Z</time>
      </trkpt>
      <trkpt lat="46.05792" lon="4.59912">
        <ele>317.6</ele>
        <time>2022-06-25T19:59:37Z</time>
      </trkpt>
      <trkpt lat="46.05791" lon="4.59908">
        <ele>317.8</ele>
        <time>2022-06-25T19:59:38Z</time>
      </trkpt>
      <trkpt lat="46.05791" lon="4.59905">
        <ele>317.8</ele>
        <time>2022-06-25T19:59:39Z</time>
      </trkpt>
      <trkpt lat="46.0579" lon="4.59901">
        <ele>317.8</ele>
        <time>2022-06-25T19:59:40Z</time>
      </trkpt>
      <trkpt lat="46.05789" lon="4.59897">
        <ele>318</ele>
        <time>2022-06-25T19:59:41Z</time>
      </trkpt>
      <trkpt lat="46.05788" lon="4.59894">
        <ele>318</ele>
        <time>2022-06-25T19:59:42Z</time>
      </trkpt>
      <trkpt lat="46.05788" lon="4.5989">
        <ele>318</ele>
        <time>2022-06-25T19:59:43Z</time>
      </trkpt>
      <trkpt lat="46.05786" lon="4.59887">
        <ele>318.2</ele>
        <time>2022-06-25T19:59:44Z</time>
      </trkpt>
      <trkpt lat="46.05785" lon="4.59883">
        <ele>318.2</ele>
        <time>2022-06-25T19:59:45Z</time>
      </trkpt>
      <trkpt lat="46.05785" lon="4.5988">
        <ele>318.2</ele>
        <time>2022-06-25T19:59:46Z</time>
      </trkpt>
      <trkpt lat="46.05784" lon="4.59876">
        <ele>318.6</ele>
        <time>2022-06-25T19:59:47Z</time>
      </trkpt>
      <trkpt lat="46.05783" lon="4.59873">
        <ele>318.6</ele>
        <time>2022-06-25T19:59:48Z</time>
      </trkpt>
      <trkpt lat="46.05783" lon="4.59869">
        <ele>318.8</ele>
        <time>2022-06-25T19:59:49Z</time>
      </trkpt>
      <trkpt lat="46.05782" lon="4.59866">
        <ele>319</ele>
        <time>2022-06-25T19:59:50Z</time>
      </trkpt>
      <trkpt lat="46.05782" lon="4.59862">
        <ele>319</ele>
        <time>2022-06-25T19:59:51Z</time>
      </trkpt>
      <trkpt lat="46.05781" lon="4.59859">
        <ele>319</ele>
        <time>2022-06-25T19:59:52Z</time>
      </trkpt>
      <trkpt lat="46.0578" lon="4.59855">
        <ele>319.4</ele>
        <time>2022-06-25T19:59:53Z</time>
      </trkpt>
      <trkpt lat="46.0578" lon="4.59852">
        <ele>319.4</ele>
        <time>2022-06-25T19:59:54Z</time>
      </trkpt>
      <trkpt lat="46.05779" lon="4.59848">
        <ele>319.6</ele>
        <time>2022-06-25T19:59:55Z</time>
      </trkpt>
      <trkpt lat="46.05778" lon="4.59845">
        <ele>319.6</ele>
        <time>2022-06-25T19:59:56Z</time>
      </trkpt>
      <trkpt lat="46.05777" lon="4.59841">
        <ele>319.8</ele>
        <time>2022-06-25T19:59:57Z</time>
      </trkpt>
      <trkpt lat="46.05776" lon="4.59838">
        <ele>319.8</ele>
        <time>2022-06-25T19:59:58Z</time>
      </trkpt>
      <trkpt lat="46.05775" lon="4.59834">
        <ele>319.8</ele>
        <time>2022-06-25T19:59:59Z</time>
      </trkpt>
      <trkpt lat="46.05775" lon="4.59831">
        <ele>320.2</ele>
        <time>2022-06-25T20:00:00Z</time>
      </trkpt>
      <trkpt lat="46.05774" lon="4.59827">
        <ele>320.2</ele>
        <time>2022-06-25T20:00:01Z</time>
      </trkpt>
      <trkpt lat="46.05773" lon="4.59823">
        <ele>320.4</ele>
        <time>2022-06-25T20:00:02Z</time>
      </trkpt>
      <trkpt lat="46.05772" lon="4.5982">
        <ele>320.4</ele>
        <time>2022-06-25T20:00:03Z</time>
      </trkpt>
      <trkpt lat="46.05771" lon="4.59816">
        <ele>320.8</ele>
        <time>2022-06-25T20:00:04Z</time>
      </trkpt>
      <trkpt lat="46.05771" lon="4.59813">
        <ele>320.8</ele>
        <time>2022-06-25T20:00:05Z</time>
      </trkpt>
      <trkpt lat="46.0577" lon="4.59809">
        <ele>321</ele>
        <time>2022-06-25T20:00:06Z</time>
      </trkpt>
      <trkpt lat="46.05769" lon="4.59805">
        <ele>321</ele>
        <time>2022-06-25T20:00:07Z</time>
      </trkpt>
      <trkpt lat="46.05769" lon="4.59802">
        <ele>321</ele>
        <time>2022-06-25T20:00:08Z</time>
      </trkpt>
      <trkpt lat="46.05768" lon="4.59798">
        <ele>321.2</ele>
        <time>2022-06-25T20:00:09Z</time>
      </trkpt>
      <trkpt lat="46.05767" lon="4.59794">
        <ele>321.2</ele>
        <time>2022-06-25T20:00:10Z</time>
      </trkpt>
      <trkpt lat="46.05767" lon="4.5979">
        <ele>321.4</ele>
        <time>2022-06-25T20:00:11Z</time>
      </trkpt>
      <trkpt lat="46.05767" lon="4.59786">
        <ele>321.4</ele>
        <time>2022-06-25T20:00:12Z</time>
      </trkpt>
      <trkpt lat="46.05766" lon="4.59782">
        <ele>321.8</ele>
        <time>2022-06-25T20:00:13Z</time>
      </trkpt>
      <trkpt lat="46.05766" lon="4.59778">
        <ele>321.8</ele>
        <time>2022-06-25T20:00:14Z</time>
      </trkpt>
      <trkpt lat="46.05766" lon="4.59774">
        <ele>322</ele>
        <time>2022-06-25T20:00:15Z</time>
      </trkpt>
      <trkpt lat="46.05765" lon="4.59771">
        <ele>322</ele>
        <time>2022-06-25T20:00:16Z</time>
      </trkpt>
      <trkpt lat="46.05765" lon="4.59767">
        <ele>322.2</ele>
        <time>2022-06-25T20:00:17Z</time>
      </trkpt>
      <trkpt lat="46.05765" lon="4.59763">
        <ele>322.2</ele>
        <time>2022-06-25T20:00:18Z</time>
      </trkpt>
      <trkpt lat="46.05764" lon="4.59759">
        <ele>322.6</ele>
        <time>2022-06-25T20:00:19Z</time>
      </trkpt>
      <trkpt lat="46.05764" lon="4.59756">
        <ele>322.6</ele>
        <time>2022-06-25T20:00:20Z</time>
      </trkpt>
      <trkpt lat="46.05764" lon="4.59752">
        <ele>322.6</ele>
        <time>2022-06-25T20:00:21Z</time>
      </trkpt>
      <trkpt lat="46.05763" lon="4.59748">
        <ele>322.8</ele>
        <time>2022-06-25T20:00:22Z</time>
      </trkpt>
      <trkpt lat="46.05762" lon="4.59745">
        <ele>322.8</ele>
        <time>2022-06-25T20:00:23Z</time>
      </trkpt>
      <trkpt lat="46.05762" lon="4.59741">
        <ele>323</ele>
        <time>2022-06-25T20:00:24Z</time>
      </trkpt>
      <trkpt lat="46.05761" lon="4.59737">
        <ele>323</ele>
        <time>2022-06-25T20:00:25Z</time>
      </trkpt>
      <trkpt lat="46.0576" lon="4.59733">
        <ele>323.4</ele>
        <time>2022-06-25T20:00:26Z</time>
      </trkpt>
      <trkpt lat="46.05759" lon="4.5973">
        <ele>323.4</ele>
        <time>2022-06-25T20:00:27Z</time>
      </trkpt>
      <trkpt lat="46.05758" lon="4.59726">
        <ele>323.8</ele>
        <time>2022-06-25T20:00:28Z</time>
      </trkpt>
      <trkpt lat="46.05757" lon="4.59722">
        <ele>323.8</ele>
        <time>2022-06-25T20:00:29Z</time>
      </trkpt>
      <trkpt lat="46.05756" lon="4.59718">
        <ele>324</ele>
        <time>2022-06-25T20:00:30Z</time>
      </trkpt>
      <trkpt lat="46.05755" lon="4.59715">
        <ele>324</ele>
        <time>2022-06-25T20:00:31Z</time>
      </trkpt>
      <trkpt lat="46.05754" lon="4.59711">
        <ele>324</ele>
        <time>2022-06-25T20:00:32Z</time>
      </trkpt>
      <trkpt lat="46.05752" lon="4.59708">
        <ele>324.2</ele>
        <time>2022-06-25T20:00:33Z</time>
      </trkpt>
      <trkpt lat="46.05751" lon="4.59704">
        <ele>324.2</ele>
        <time>2022-06-25T20:00:34Z</time>
      </trkpt>
      <trkpt lat="46.0575" lon="4.59701">
        <ele>324.4</ele>
        <time>2022-06-25T20:00:35Z</time>
      </trkpt>
      <trkpt lat="46.05748" lon="4.59698">
        <ele>324.4</ele>
        <time>2022-06-25T20:00:36Z</time>
      </trkpt>
      <trkpt lat="46.05747" lon="4.59695">
        <ele>324.8</ele>
        <time>2022-06-25T20:00:37Z</time>
      </trkpt>
      <trkpt lat="46.05745" lon="4.59692">
        <ele>324.8</ele>
        <time>2022-06-25T20:00:38Z</time>
      </trkpt>
      <trkpt lat="46.05744" lon="4.59689">
        <ele>325.2</ele>
        <time>2022-06-25T20:00:39Z</time>
      </trkpt>
      <trkpt lat="46.05742" lon="4.59686">
        <ele>325.2</ele>
        <time>2022-06-25T20:00:40Z</time>
      </trkpt>
      <trkpt lat="46.0574" lon="4.59684">
        <ele>325.6</ele>
        <time>2022-06-25T20:00:41Z</time>
      </trkpt>
      <trkpt lat="46.05738" lon="4.59681">
        <ele>325.6</ele>
        <time>2022-06-25T20:00:42Z</time>
      </trkpt>
      <trkpt lat="46.05737" lon="4.59678">
        <ele>326</ele>
        <time>2022-06-25T20:00:43Z</time>
      </trkpt>
      <trkpt lat="46.05735" lon="4.59675">
        <ele>326.2</ele>
        <time>2022-06-25T20:00:44Z</time>
      </trkpt>
      <trkpt lat="46.05733" lon="4.59673">
        <ele>326.4</ele>
        <time>2022-06-25T20:00:45Z</time>
      </trkpt>
      <trkpt lat="46.05731" lon="4.5967">
        <ele>326.6</ele>
        <time>2022-06-25T20:00:46Z</time>
      </trkpt>
      <trkpt lat="46.0573" lon="4.59667">
        <ele>326.6</ele>
        <time>2022-06-25T20:00:47Z</time>
      </trkpt>
      <trkpt lat="46.05728" lon="4.59665">
        <ele>327</ele>
        <time>2022-06-25T20:00:48Z</time>
      </trkpt>
      <trkpt lat="46.05727" lon="4.59662">
        <ele>327</ele>
        <time>2022-06-25T20:00:49Z</time>
      </trkpt>
      <trkpt lat="46.05725" lon="4.5966">
        <ele>327.4</ele>
        <time>2022-06-25T20:00:50Z</time>
      </trkpt>
      <trkpt lat="46.05724" lon="4.59658">
        <ele>327.4</ele>
        <time>2022-06-25T20:00:51Z</time>
      </trkpt>
      <trkpt lat="46.05722" lon="4.59655">
        <ele>327.6</ele>
        <time>2022-06-25T20:00:52Z</time>
      </trkpt>
      <trkpt lat="46.05721" lon="4.59653">
        <ele>328</ele>
        <time>2022-06-25T20:00:53Z</time>
      </trkpt>
      <trkpt lat="46.0572" lon="4.5965">
        <ele>328.2</ele>
        <time>2022-06-25T20:00:54Z</time>
      </trkpt>
      <trkpt lat="46.05718" lon="4.59648">
        <ele>328.4</ele>
        <time>2022-06-25T20:00:55Z</time>
      </trkpt>
      <trkpt lat="46.05717" lon="4.59646">
        <ele>328.6</ele>
        <time>2022-06-25T20:00:56Z</time>
      </trkpt>
      <trkpt lat="46.05715" lon="4.59643">
        <ele>328.8</ele>
        <time>2022-06-25T20:00:57Z</time>
      </trkpt>
      <trkpt lat="46.05713" lon="4.59641">
        <ele>328.8</ele>
        <time>2022-06-25T20:00:58Z</time>
      </trkpt>
      <trkpt lat="46.05711" lon="4.59639">
        <ele>329.2</ele>
        <time>2022-06-25T20:00:59Z</time>
      </trkpt>
      <trkpt lat="46.0571" lon="4.59637">
        <ele>329.2</ele>
        <time>2022-06-25T20:01:00Z</time>
      </trkpt>
      <trkpt lat="46.05708" lon="4.59635">
        <ele>329.6</ele>
        <time>2022-06-25T20:01:01Z</time>
      </trkpt>
      <trkpt lat="46.05707" lon="4.59633">
        <ele>329.6</ele>
        <time>2022-06-25T20:01:02Z</time>
      </trkpt>
      <trkpt lat="46.05705" lon="4.59631">
        <ele>329.8</ele>
        <time>2022-06-25T20:01:03Z</time>
      </trkpt>
      <trkpt lat="46.05704" lon="4.59629">
        <ele>330.2</ele>
        <time>2022-06-25T20:01:04Z</time>
      </trkpt>
      <trkpt lat="46.05702" lon="4.59627">
        <ele>330.2</ele>
        <time>2022-06-25T20:01:05Z</time>
      </trkpt>
      <trkpt lat="46.05701" lon="4.59625">
        <ele>330.4</ele>
        <time>2022-06-25T20:01:06Z</time>
      </trkpt>
      <trkpt lat="46.057" lon="4.59623">
        <ele>330.4</ele>
        <time>2022-06-25T20:01:07Z</time>
      </trkpt>
      <trkpt lat="46.05698" lon="4.59621">
        <ele>330.8</ele>
        <time>2022-06-25T20:01:08Z</time>
      </trkpt>
      <trkpt lat="46.05697" lon="4.59619">
        <ele>331</ele>
        <time>2022-06-25T20:01:09Z</time>
      </trkpt>
      <trkpt lat="46.05695" lon="4.59617">
        <ele>331</ele>
        <time>2022-06-25T20:01:10Z</time>
      </trkpt>
      <trkpt lat="46.05694" lon="4.59615">
        <ele>331.4</ele>
        <time>2022-06-25T20:01:11Z</time>
      </trkpt>
      <trkpt lat="46.05692" lon="4.59613">
        <ele>331.6</ele>
        <time>2022-06-25T20:01:12Z</time>
      </trkpt>
      <trkpt lat="46.05691" lon="4.59611">
        <ele>331.8</ele>
        <time>2022-06-25T20:01:13Z</time>
      </trkpt>
      <trkpt lat="46.0569" lon="4.59609">
        <ele>331.8</ele>
        <time>2022-06-25T20:01:14Z</time>
      </trkpt>
      <trkpt lat="46.05689" lon="4.59607">
        <ele>332.2</ele>
        <time>2022-06-25T20:01:15Z</time>
      </trkpt>
      <trkpt lat="46.05688" lon="4.59604">
        <ele>332.2</ele>
        <time>2022-06-25T20:01:16Z</time>
      </trkpt>
      <trkpt lat="46.05686" lon="4.59602">
        <ele>332.6</ele>
        <time>2022-06-25T20:01:17Z</time>
      </trkpt>
      <trkpt lat="46.05685" lon="4.596">
        <ele>332.8</ele>
        <time>2022-06-25T20:01:18Z</time>
      </trkpt>
      <trkpt lat="46.05684" lon="4.59598">
        <ele>332.8</ele>
        <time>2022-06-25T20:01:19Z</time>
      </trkpt>
      <trkpt lat="46.05683" lon="4.59596">
        <ele>333.2</ele>
        <time>2022-06-25T20:01:20Z</time>
      </trkpt>
      <trkpt lat="46.05682" lon="4.59593">
        <ele>333.2</ele>
        <time>2022-06-25T20:01:21Z</time>
      </trkpt>
      <trkpt lat="46.05681" lon="4.59591">
        <ele>333.4</ele>
        <time>2022-06-25T20:01:22Z</time>
      </trkpt>
      <trkpt lat="46.0568" lon="4.59589">
        <ele>333.4</ele>
        <time>2022-06-25T20:01:23Z</time>
      </trkpt>
      <trkpt lat="46.0568" lon="4.59586">
        <ele>333.6</ele>
        <time>2022-06-25T20:01:24Z</time>
      </trkpt>
      <trkpt lat="46.05679" lon="4.59584">
        <ele>333.8</ele>
        <time>2022-06-25T20:01:25Z</time>
      </trkpt>
      <trkpt lat="46.05678" lon="4.59581">
        <ele>333.8</ele>
        <time>2022-06-25T20:01:26Z</time>
      </trkpt>
      <trkpt lat="46.05677" lon="4.59579">
        <ele>334.2</ele>
        <time>2022-06-25T20:01:27Z</time>
      </trkpt>
      <trkpt lat="46.05676" lon="4.59577">
        <ele>334.4</ele>
        <time>2022-06-25T20:01:28Z</time>
      </trkpt>
      <trkpt lat="46.05675" lon="4.59575">
        <ele>334.4</ele>
        <time>2022-06-25T20:01:29Z</time>
      </trkpt>
      <trkpt lat="46.05673" lon="4.59573">
        <ele>334.8</ele>
        <time>2022-06-25T20:01:30Z</time>
      </trkpt>
      <trkpt lat="46.05672" lon="4.59571">
        <ele>334.8</ele>
        <time>2022-06-25T20:01:31Z</time>
      </trkpt>
      <trkpt lat="46.05671" lon="4.5957">
        <ele>335.2</ele>
        <time>2022-06-25T20:01:32Z</time>
      </trkpt>
      <trkpt lat="46.0567" lon="4.59568">
        <ele>335.2</ele>
        <time>2022-06-25T20:01:33Z</time>
      </trkpt>
      <trkpt lat="46.05669" lon="4.59566">
        <ele>335.4</ele>
        <time>2022-06-25T20:01:34Z</time>
      </trkpt>
      <trkpt lat="46.05668" lon="4.59563">
        <ele>335.4</ele>
        <time>2022-06-25T20:01:35Z</time>
      </trkpt>
      <trkpt lat="46.05667" lon="4.59561">
        <ele>335.8</ele>
        <time>2022-06-25T20:01:36Z</time>
      </trkpt>
      <trkpt lat="46.05666" lon="4.59559">
        <ele>335.8</ele>
        <time>2022-06-25T20:01:37Z</time>
      </trkpt>
      <trkpt lat="46.05665" lon="4.59557">
        <ele>336.2</ele>
        <time>2022-06-25T20:01:38Z</time>
      </trkpt>
      <trkpt lat="46.05664" lon="4.59555">
        <ele>336.2</ele>
        <time>2022-06-25T20:01:39Z</time>
      </trkpt>
      <trkpt lat="46.05664" lon="4.59552">
        <ele>336.4</ele>
        <time>2022-06-25T20:01:40Z</time>
      </trkpt>
      <trkpt lat="46.05663" lon="4.5955">
        <ele>336.4</ele>
        <time>2022-06-25T20:01:41Z</time>
      </trkpt>
      <trkpt lat="46.05662" lon="4.59548">
        <ele>336.8</ele>
        <time>2022-06-25T20:01:42Z</time>
      </trkpt>
      <trkpt lat="46.05662" lon="4.59546">
        <ele>336.8</ele>
        <time>2022-06-25T20:01:43Z</time>
      </trkpt>
      <trkpt lat="46.05661" lon="4.59543">
        <ele>337.2</ele>
        <time>2022-06-25T20:01:44Z</time>
      </trkpt>
      <trkpt lat="46.05661" lon="4.59541">
        <ele>337.2</ele>
        <time>2022-06-25T20:01:45Z</time>
      </trkpt>
      <trkpt lat="46.0566" lon="4.59538">
        <ele>337.4</ele>
        <time>2022-06-25T20:01:46Z</time>
      </trkpt>
      <trkpt lat="46.0566" lon="4.59536">
        <ele>337.4</ele>
        <time>2022-06-25T20:01:47Z</time>
      </trkpt>
      <trkpt lat="46.05659" lon="4.59534">
        <ele>337.8</ele>
        <time>2022-06-25T20:01:48Z</time>
      </trkpt>
      <trkpt lat="46.05659" lon="4.59531">
        <ele>337.8</ele>
        <time>2022-06-25T20:01:49Z</time>
      </trkpt>
      <trkpt lat="46.05658" lon="4.59528">
        <ele>338</ele>
        <time>2022-06-25T20:01:50Z</time>
      </trkpt>
      <trkpt lat="46.05658" lon="4.59526">
        <ele>338</ele>
        <time>2022-06-25T20:01:51Z</time>
      </trkpt>
      <trkpt lat="46.05658" lon="4.59523">
        <ele>338.4</ele>
        <time>2022-06-25T20:01:52Z</time>
      </trkpt>
      <trkpt lat="46.05657" lon="4.59521">
        <ele>338.4</ele>
        <time>2022-06-25T20:01:53Z</time>
      </trkpt>
      <trkpt lat="46.05657" lon="4.59518">
        <ele>338.8</ele>
        <time>2022-06-25T20:01:54Z</time>
      </trkpt>
      <trkpt lat="46.05657" lon="4.59516">
        <ele>338.8</ele>
        <time>2022-06-25T20:01:55Z</time>
      </trkpt>
      <trkpt lat="46.05657" lon="4.59514">
        <ele>339.2</ele>
        <time>2022-06-25T20:01:56Z</time>
      </trkpt>
      <trkpt lat="46.05657" lon="4.59511">
        <ele>339.2</ele>
        <time>2022-06-25T20:01:57Z</time>
      </trkpt>
      <trkpt lat="46.05657" lon="4.59509">
        <ele>339.4</ele>
        <time>2022-06-25T20:01:58Z</time>
      </trkpt>
      <trkpt lat="46.05657" lon="4.59507">
        <ele>339.4</ele>
        <time>2022-06-25T20:01:59Z</time>
      </trkpt>
      <trkpt lat="46.05657" lon="4.59504">
        <ele>339.6</ele>
        <time>2022-06-25T20:02:00Z</time>
      </trkpt>
      <trkpt lat="46.05657" lon="4.59502">
        <ele>339.6</ele>
        <time>2022-06-25T20:02:01Z</time>
      </trkpt>
      <trkpt lat="46.05657" lon="4.59499">
        <ele>339.8</ele>
        <time>2022-06-25T20:02:02Z</time>
      </trkpt>
      <trkpt lat="46.05657" lon="4.59496">
        <ele>339.8</ele>
        <time>2022-06-25T20:02:03Z</time>
      </trkpt>
      <trkpt lat="46.05657" lon="4.59493">
        <ele>339.8</ele>
        <time>2022-06-25T20:02:04Z</time>
      </trkpt>
      <trkpt lat="46.05657" lon="4.5949">
        <ele>339.8</ele>
        <time>2022-06-25T20:02:05Z</time>
      </trkpt>
      <trkpt lat="46.05657" lon="4.59486">
        <ele>339.8</ele>
        <time>2022-06-25T20:02:06Z</time>
      </trkpt>
      <trkpt lat="46.05656" lon="4.59483">
        <ele>339.8</ele>
        <time>2022-06-25T20:02:07Z</time>
      </trkpt>
      <trkpt lat="46.05656" lon="4.5948">
        <ele>339.8</ele>
        <time>2022-06-25T20:02:08Z</time>
      </trkpt>
      <trkpt lat="46.05655" lon="4.59476">
        <ele>339.8</ele>
        <time>2022-06-25T20:02:09Z</time>
      </trkpt>
      <trkpt lat="46.05655" lon="4.59473">
        <ele>339.8</ele>
        <time>2022-06-25T20:02:10Z</time>
      </trkpt>
      <trkpt lat="46.05655" lon="4.59469">
        <ele>339.8</ele>
        <time>2022-06-25T20:02:11Z</time>
      </trkpt>
      <trkpt lat="46.05655" lon="4.59466">
        <ele>340.2</ele>
        <time>2022-06-25T20:02:12Z</time>
      </trkpt>
      <trkpt lat="46.05654" lon="4.59462">
        <ele>340.2</ele>
        <time>2022-06-25T20:02:13Z</time>
      </trkpt>
      <trkpt lat="46.05654" lon="4.59458">
        <ele>340.2</ele>
        <time>2022-06-25T20:02:14Z</time>
      </trkpt>
      <trkpt lat="46.05654" lon="4.59455">
        <ele>340.2</ele>
        <time>2022-06-25T20:02:15Z</time>
      </trkpt>
      <trkpt lat="46.05653" lon="4.59451">
        <ele>340.2</ele>
        <time>2022-06-25T20:02:16Z</time>
      </trkpt>
      <trkpt lat="46.05653" lon="4.59448">
        <ele>340.2</ele>
        <time>2022-06-25T20:02:17Z</time>
      </trkpt>
      <trkpt lat="46.05652" lon="4.59444">
        <ele>340.2</ele>
        <time>2022-06-25T20:02:18Z</time>
      </trkpt>
      <trkpt lat="46.05651" lon="4.5944">
        <ele>340.2</ele>
        <time>2022-06-25T20:02:19Z</time>
      </trkpt>
      <trkpt lat="46.05651" lon="4.59436">
        <ele>340.2</ele>
        <time>2022-06-25T20:02:20Z</time>
      </trkpt>
      <trkpt lat="46.0565" lon="4.59433">
        <ele>340.2</ele>
        <time>2022-06-25T20:02:21Z</time>
      </trkpt>
      <trkpt lat="46.0565" lon="4.59429">
        <ele>340.2</ele>
        <time>2022-06-25T20:02:22Z</time>
      </trkpt>
      <trkpt lat="46.0565" lon="4.59426">
        <ele>340.2</ele>
        <time>2022-06-25T20:02:23Z</time>
      </trkpt>
      <trkpt lat="46.05649" lon="4.59423">
        <ele>340.2</ele>
        <time>2022-06-25T20:02:24Z</time>
      </trkpt>
      <trkpt lat="46.05648" lon="4.59421">
        <ele>340.2</ele>
        <time>2022-06-25T20:02:25Z</time>
      </trkpt>
      <trkpt lat="46.05648" lon="4.59418">
        <ele>340.2</ele>
        <time>2022-06-25T20:02:26Z</time>
      </trkpt>
      <trkpt lat="46.05647" lon="4.59416">
        <ele>340.2</ele>
        <time>2022-06-25T20:02:27Z</time>
      </trkpt>
      <trkpt lat="46.05647" lon="4.59413">
        <ele>340.2</ele>
        <time>2022-06-25T20:02:28Z</time>
      </trkpt>
      <trkpt lat="46.05647" lon="4.59411">
        <ele>340.2</ele>
        <time>2022-06-25T20:02:29Z</time>
      </trkpt>
      <trkpt lat="46.05646" lon="4.59409">
        <ele>340.4</ele>
        <time>2022-06-25T20:02:30Z</time>
      </trkpt>
      <trkpt lat="46.05645" lon="4.59407">
        <ele>340.4</ele>
        <time>2022-06-25T20:02:31Z</time>
      </trkpt>
      <trkpt lat="46.05644" lon="4.59405">
        <ele>340.4</ele>
        <time>2022-06-25T20:02:32Z</time>
      </trkpt>
      <trkpt lat="46.05644" lon="4.59403">
        <ele>340.6</ele>
        <time>2022-06-25T20:02:33Z</time>
      </trkpt>
      <trkpt lat="46.05644" lon="4.594">
        <ele>340.6</ele>
        <time>2022-06-25T20:02:34Z</time>
      </trkpt>
      <trkpt lat="46.05643" lon="4.59398">
        <ele>340.6</ele>
        <time>2022-06-25T20:02:35Z</time>
      </trkpt>
      <trkpt lat="46.05643" lon="4.59395">
        <ele>341</ele>
        <time>2022-06-25T20:02:36Z</time>
      </trkpt>
      <trkpt lat="46.05642" lon="4.59393">
        <ele>341</ele>
        <time>2022-06-25T20:02:37Z</time>
      </trkpt>
      <trkpt lat="46.05642" lon="4.59391">
        <ele>341.2</ele>
        <time>2022-06-25T20:02:38Z</time>
      </trkpt>
      <trkpt lat="46.05642" lon="4.59388">
        <ele>341.2</ele>
        <time>2022-06-25T20:02:39Z</time>
      </trkpt>
      <trkpt lat="46.05643" lon="4.59386">
        <ele>341.2</ele>
        <time>2022-06-25T20:02:40Z</time>
      </trkpt>
      <trkpt lat="46.05643" lon="4.59384">
        <ele>341.4</ele>
        <time>2022-06-25T20:02:41Z</time>
      </trkpt>
      <trkpt lat="46.05644" lon="4.59381">
        <ele>341.4</ele>
        <time>2022-06-25T20:02:42Z</time>
      </trkpt>
      <trkpt lat="46.05644" lon="4.59378">
        <ele>341.4</ele>
        <time>2022-06-25T20:02:43Z</time>
      </trkpt>
      <trkpt lat="46.05644" lon="4.59376">
        <ele>341.6</ele>
        <time>2022-06-25T20:02:44Z</time>
      </trkpt>
      <trkpt lat="46.05644" lon="4.59373">
        <ele>341.6</ele>
        <time>2022-06-25T20:02:45Z</time>
      </trkpt>
      <trkpt lat="46.05644" lon="4.5937">
        <ele>341.6</ele>
        <time>2022-06-25T20:02:46Z</time>
      </trkpt>
      <trkpt lat="46.05644" lon="4.59368">
        <ele>342</ele>
        <time>2022-06-25T20:02:47Z</time>
      </trkpt>
      <trkpt lat="46.05645" lon="4.59366">
        <ele>342</ele>
        <time>2022-06-25T20:02:48Z</time>
      </trkpt>
      <trkpt lat="46.05645" lon="4.59365">
        <ele>342</ele>
        <time>2022-06-25T20:02:49Z</time>
      </trkpt>
      <trkpt lat="46.05645" lon="4.59351">
        <ele>342.4</ele>
        <time>2022-06-25T20:03:02Z</time>
      </trkpt>
      <trkpt lat="46.05645" lon="4.59349">
        <ele>342.4</ele>
        <time>2022-06-25T20:03:03Z</time>
      </trkpt>
      <trkpt lat="46.05645" lon="4.59348">
        <ele>342.8</ele>
        <time>2022-06-25T20:03:04Z</time>
      </trkpt>
      <trkpt lat="46.05645" lon="4.59346">
        <ele>342.8</ele>
        <time>2022-06-25T20:03:05Z</time>
      </trkpt>
      <trkpt lat="46.05645" lon="4.59344">
        <ele>342.8</ele>
        <time>2022-06-25T20:03:06Z</time>
      </trkpt>
      <trkpt lat="46.05644" lon="4.59342">
        <ele>342.8</ele>
        <time>2022-06-25T20:03:07Z</time>
      </trkpt>
      <trkpt lat="46.05644" lon="4.5934">
        <ele>342.8</ele>
        <time>2022-06-25T20:03:08Z</time>
      </trkpt>
      <trkpt lat="46.05644" lon="4.59338">
        <ele>343</ele>
        <time>2022-06-25T20:03:09Z</time>
      </trkpt>
      <trkpt lat="46.05643" lon="4.59336">
        <ele>343</ele>
        <time>2022-06-25T20:03:10Z</time>
      </trkpt>
      <trkpt lat="46.05643" lon="4.59335">
        <ele>343</ele>
        <time>2022-06-25T20:03:11Z</time>
      </trkpt>
      <trkpt lat="46.05643" lon="4.59333">
        <ele>343.2</ele>
        <time>2022-06-25T20:03:12Z</time>
      </trkpt>
      <trkpt lat="46.05643" lon="4.59332">
        <ele>343.2</ele>
        <time>2022-06-25T20:03:13Z</time>
      </trkpt>
      <trkpt lat="46.05643" lon="4.5933">
        <ele>343.6</ele>
        <time>2022-06-25T20:03:14Z</time>
      </trkpt>
      <trkpt lat="46.05642" lon="4.59329">
        <ele>343.6</ele>
        <time>2022-06-25T20:03:15Z</time>
      </trkpt>
      <trkpt lat="46.05642" lon="4.59327">
        <ele>343.6</ele>
        <time>2022-06-25T20:03:16Z</time>
      </trkpt>
      <trkpt lat="46.05642" lon="4.59325">
        <ele>343.8</ele>
        <time>2022-06-25T20:03:17Z</time>
      </trkpt>
      <trkpt lat="46.05642" lon="4.59324">
        <ele>343.8</ele>
        <time>2022-06-25T20:03:18Z</time>
      </trkpt>
      <trkpt lat="46.05641" lon="4.59322">
        <ele>344</ele>
        <time>2022-06-25T20:03:19Z</time>
      </trkpt>
      <trkpt lat="46.05641" lon="4.5932">
        <ele>344</ele>
        <time>2022-06-25T20:03:20Z</time>
      </trkpt>
      <trkpt lat="46.0564" lon="4.59319">
        <ele>344</ele>
        <time>2022-06-25T20:03:21Z</time>
      </trkpt>
      <trkpt lat="46.0564" lon="4.59317">
        <ele>344.2</ele>
        <time>2022-06-25T20:03:22Z</time>
      </trkpt>
      <trkpt lat="46.0564" lon="4.59315">
        <ele>344.2</ele>
        <time>2022-06-25T20:03:23Z</time>
      </trkpt>
      <trkpt lat="46.0564" lon="4.59313">
        <ele>344.2</ele>
        <time>2022-06-25T20:03:24Z</time>
      </trkpt>
      <trkpt lat="46.0564" lon="4.59311">
        <ele>344.6</ele>
        <time>2022-06-25T20:03:25Z</time>
      </trkpt>
      <trkpt lat="46.0564" lon="4.59309">
        <ele>344.6</ele>
        <time>2022-06-25T20:03:26Z</time>
      </trkpt>
      <trkpt lat="46.05639" lon="4.59307">
        <ele>344.6</ele>
        <time>2022-06-25T20:03:27Z</time>
      </trkpt>
      <trkpt lat="46.05639" lon="4.59305">
        <ele>344.8</ele>
        <time>2022-06-25T20:03:28Z</time>
      </trkpt>
      <trkpt lat="46.05639" lon="4.59303">
        <ele>344.8</ele>
        <time>2022-06-25T20:03:29Z</time>
      </trkpt>
      <trkpt lat="46.05639" lon="4.59301">
        <ele>344.8</ele>
        <time>2022-06-25T20:03:30Z</time>
      </trkpt>
      <trkpt lat="46.05639" lon="4.59299">
        <ele>344.8</ele>
        <time>2022-06-25T20:03:31Z</time>
      </trkpt>
      <trkpt lat="46.05639" lon="4.59297">
        <ele>345</ele>
        <time>2022-06-25T20:03:32Z</time>
      </trkpt>
      <trkpt lat="46.05639" lon="4.59295">
        <ele>345</ele>
        <time>2022-06-25T20:03:33Z</time>
      </trkpt>
      <trkpt lat="46.05639" lon="4.59294">
        <ele>345</ele>
        <time>2022-06-25T20:03:34Z</time>
      </trkpt>
      <trkpt lat="46.05638" lon="4.59292">
        <ele>345.4</ele>
        <time>2022-06-25T20:03:35Z</time>
      </trkpt>
      <trkpt lat="46.05638" lon="4.5929">
        <ele>345.4</ele>
        <time>2022-06-25T20:03:36Z</time>
      </trkpt>
      <trkpt lat="46.05638" lon="4.59288">
        <ele>345.4</ele>
        <time>2022-06-25T20:03:37Z</time>
      </trkpt>
      <trkpt lat="46.05637" lon="4.59287">
        <ele>345.4</ele>
        <time>2022-06-25T20:03:38Z</time>
      </trkpt>
      <trkpt lat="46.05637" lon="4.59285">
        <ele>345.4</ele>
        <time>2022-06-25T20:03:39Z</time>
      </trkpt>
      <trkpt lat="46.05637" lon="4.59283">
        <ele>345.6</ele>
        <time>2022-06-25T20:03:40Z</time>
      </trkpt>
      <trkpt lat="46.05636" lon="4.59281">
        <ele>345.6</ele>
        <time>2022-06-25T20:03:41Z</time>
      </trkpt>
      <trkpt lat="46.05636" lon="4.59279">
        <ele>345.6</ele>
        <time>2022-06-25T20:03:42Z</time>
      </trkpt>
      <trkpt lat="46.05636" lon="4.59278">
        <ele>345.8</ele>
        <time>2022-06-25T20:03:43Z</time>
      </trkpt>
      <trkpt lat="46.05636" lon="4.59276">
        <ele>345.8</ele>
        <time>2022-06-25T20:03:44Z</time>
      </trkpt>
      <trkpt lat="46.05635" lon="4.59274">
        <ele>345.8</ele>
        <time>2022-06-25T20:03:45Z</time>
      </trkpt>
      <trkpt lat="46.05635" lon="4.59272">
        <ele>346</ele>
        <time>2022-06-25T20:03:46Z</time>
      </trkpt>
      <trkpt lat="46.05634" lon="4.5927">
        <ele>346</ele>
        <time>2022-06-25T20:03:47Z</time>
      </trkpt>
      <trkpt lat="46.05634" lon="4.59268">
        <ele>346</ele>
        <time>2022-06-25T20:03:48Z</time>
      </trkpt>
      <trkpt lat="46.05634" lon="4.59267">
        <ele>346</ele>
        <time>2022-06-25T20:03:49Z</time>
      </trkpt>
      <trkpt lat="46.05633" lon="4.59265">
        <ele>346.4</ele>
        <time>2022-06-25T20:03:50Z</time>
      </trkpt>
      <trkpt lat="46.05633" lon="4.59263">
        <ele>346.4</ele>
        <time>2022-06-25T20:03:51Z</time>
      </trkpt>
      <trkpt lat="46.05633" lon="4.59261">
        <ele>346.6</ele>
        <time>2022-06-25T20:03:52Z</time>
      </trkpt>
      <trkpt lat="46.05632" lon="4.5926">
        <ele>346.6</ele>
        <time>2022-06-25T20:03:53Z</time>
      </trkpt>
      <trkpt lat="46.05632" lon="4.59258">
        <ele>346.8</ele>
        <time>2022-06-25T20:03:54Z</time>
      </trkpt>
      <trkpt lat="46.05632" lon="4.59256">
        <ele>346.8</ele>
        <time>2022-06-25T20:03:55Z</time>
      </trkpt>
      <trkpt lat="46.05631" lon="4.59255">
        <ele>347</ele>
        <time>2022-06-25T20:03:56Z</time>
      </trkpt>
      <trkpt lat="46.05631" lon="4.59253">
        <ele>347</ele>
        <time>2022-06-25T20:03:57Z</time>
      </trkpt>
      <trkpt lat="46.0563" lon="4.59251">
        <ele>347</ele>
        <time>2022-06-25T20:03:58Z</time>
      </trkpt>
      <trkpt lat="46.05629" lon="4.5925">
        <ele>347.4</ele>
        <time>2022-06-25T20:03:59Z</time>
      </trkpt>
      <trkpt lat="46.05629" lon="4.59248">
        <ele>347.4</ele>
        <time>2022-06-25T20:04:00Z</time>
      </trkpt>
      <trkpt lat="46.05629" lon="4.59247">
        <ele>347.4</ele>
        <time>2022-06-25T20:04:01Z</time>
      </trkpt>
      <trkpt lat="46.05629" lon="4.59245">
        <ele>347.6</ele>
        <time>2022-06-25T20:04:02Z</time>
      </trkpt>
      <trkpt lat="46.05628" lon="4.59243">
        <ele>347.6</ele>
        <time>2022-06-25T20:04:03Z</time>
      </trkpt>
      <trkpt lat="46.05627" lon="4.59242">
        <ele>347.6</ele>
        <time>2022-06-25T20:04:04Z</time>
      </trkpt>
      <trkpt lat="46.05627" lon="4.59241">
        <ele>347.6</ele>
        <time>2022-06-25T20:04:05Z</time>
      </trkpt>
      <trkpt lat="46.05626" lon="4.59239">
        <ele>347.6</ele>
        <time>2022-06-25T20:04:06Z</time>
      </trkpt>
      <trkpt lat="46.05625" lon="4.59237">
        <ele>347.8</ele>
        <time>2022-06-25T20:04:07Z</time>
      </trkpt>
      <trkpt lat="46.05625" lon="4.59236">
        <ele>347.8</ele>
        <time>2022-06-25T20:04:08Z</time>
      </trkpt>
      <trkpt lat="46.05625" lon="4.59234">
        <ele>347.8</ele>
        <time>2022-06-25T20:04:09Z</time>
      </trkpt>
      <trkpt lat="46.05624" lon="4.59232">
        <ele>347.8</ele>
        <time>2022-06-25T20:04:10Z</time>
      </trkpt>
      <trkpt lat="46.05624" lon="4.5923">
        <ele>347.8</ele>
        <time>2022-06-25T20:04:11Z</time>
      </trkpt>
      <trkpt lat="46.05624" lon="4.59228">
        <ele>347.8</ele>
        <time>2022-06-25T20:04:12Z</time>
      </trkpt>
      <trkpt lat="46.05624" lon="4.59226">
        <ele>348</ele>
        <time>2022-06-25T20:04:13Z</time>
      </trkpt>
      <trkpt lat="46.05624" lon="4.59224">
        <ele>348</ele>
        <time>2022-06-25T20:04:14Z</time>
      </trkpt>
      <trkpt lat="46.05623" lon="4.59223">
        <ele>348.4</ele>
        <time>2022-06-25T20:04:15Z</time>
      </trkpt>
      <trkpt lat="46.05623" lon="4.59221">
        <ele>348.4</ele>
        <time>2022-06-25T20:04:16Z</time>
      </trkpt>
      <trkpt lat="46.05623" lon="4.5922">
        <ele>348.4</ele>
        <time>2022-06-25T20:04:17Z</time>
      </trkpt>
      <trkpt lat="46.05623" lon="4.59218">
        <ele>348.4</ele>
        <time>2022-06-25T20:04:18Z</time>
      </trkpt>
      <trkpt lat="46.05622" lon="4.59217">
        <ele>348.4</ele>
        <time>2022-06-25T20:04:19Z</time>
      </trkpt>
      <trkpt lat="46.05622" lon="4.59215">
        <ele>348.6</ele>
        <time>2022-06-25T20:04:20Z</time>
      </trkpt>
      <trkpt lat="46.05621" lon="4.59213">
        <ele>348.6</ele>
        <time>2022-06-25T20:04:21Z</time>
      </trkpt>
      <trkpt lat="46.05621" lon="4.59212">
        <ele>348.6</ele>
        <time>2022-06-25T20:04:22Z</time>
      </trkpt>
      <trkpt lat="46.0562" lon="4.5921">
        <ele>348.6</ele>
        <time>2022-06-25T20:04:23Z</time>
      </trkpt>
      <trkpt lat="46.0562" lon="4.59208">
        <ele>348.6</ele>
        <time>2022-06-25T20:04:24Z</time>
      </trkpt>
      <trkpt lat="46.0562" lon="4.59206">
        <ele>348.8</ele>
        <time>2022-06-25T20:04:25Z</time>
      </trkpt>
      <trkpt lat="46.05619" lon="4.59204">
        <ele>348.8</ele>
        <time>2022-06-25T20:04:26Z</time>
      </trkpt>
      <trkpt lat="46.05619" lon="4.59203">
        <ele>348.8</ele>
        <time>2022-06-25T20:04:27Z</time>
      </trkpt>
      <trkpt lat="46.05619" lon="4.59201">
        <ele>348.8</ele>
        <time>2022-06-25T20:04:28Z</time>
      </trkpt>
      <trkpt lat="46.05618" lon="4.59199">
        <ele>348.8</ele>
        <time>2022-06-25T20:04:29Z</time>
      </trkpt>
      <trkpt lat="46.05618" lon="4.59198">
        <ele>348.8</ele>
        <time>2022-06-25T20:04:30Z</time>
      </trkpt>
      <trkpt lat="46.05617" lon="4.59196">
        <ele>348.8</ele>
        <time>2022-06-25T20:04:31Z</time>
      </trkpt>
      <trkpt lat="46.05617" lon="4.59195">
        <ele>349.2</ele>
        <time>2022-06-25T20:04:32Z</time>
      </trkpt>
      <trkpt lat="46.05616" lon="4.59194">
        <ele>349.2</ele>
        <time>2022-06-25T20:04:33Z</time>
      </trkpt>
      <trkpt lat="46.05616" lon="4.59193">
        <ele>349.2</ele>
        <time>2022-06-25T20:04:34Z</time>
      </trkpt>
      <trkpt lat="46.05615" lon="4.59188">
        <ele>349.4</ele>
        <time>2022-06-25T20:04:39Z</time>
      </trkpt>
      <trkpt lat="46.05615" lon="4.59187">
        <ele>349.4</ele>
        <time>2022-06-25T20:04:40Z</time>
      </trkpt>
      <trkpt lat="46.05616" lon="4.59186">
        <ele>349.8</ele>
        <time>2022-06-25T20:04:41Z</time>
      </trkpt>
      <trkpt lat="46.05616" lon="4.59184">
        <ele>349.8</ele>
        <time>2022-06-25T20:04:42Z</time>
      </trkpt>
      <trkpt lat="46.05617" lon="4.59183">
        <ele>349.8</ele>
        <time>2022-06-25T20:04:43Z</time>
      </trkpt>
      <trkpt lat="46.05617" lon="4.59182">
        <ele>350</ele>
        <time>2022-06-25T20:04:44Z</time>
      </trkpt>
      <trkpt lat="46.05618" lon="4.59181">
        <ele>350</ele>
        <time>2022-06-25T20:04:45Z</time>
      </trkpt>
      <trkpt lat="46.05618" lon="4.5918">
        <ele>350</ele>
        <time>2022-06-25T20:04:46Z</time>
      </trkpt>
      <trkpt lat="46.05619" lon="4.59179">
        <ele>350</ele>
        <time>2022-06-25T20:04:47Z</time>
      </trkpt>
      <trkpt lat="46.0562" lon="4.59179">
        <ele>350.2</ele>
        <time>2022-06-25T20:04:48Z</time>
      </trkpt>
      <trkpt lat="46.05621" lon="4.5918">
        <ele>350.2</ele>
        <time>2022-06-25T20:04:49Z</time>
      </trkpt>
      <trkpt lat="46.05622" lon="4.59179">
        <ele>350.2</ele>
        <time>2022-06-25T20:04:50Z</time>
      </trkpt>
      <trkpt lat="46.05623" lon="4.59179">
        <ele>350.4</ele>
        <time>2022-06-25T20:04:51Z</time>
      </trkpt>
      <trkpt lat="46.05624" lon="4.59179">
        <ele>350.4</ele>
        <time>2022-06-25T20:04:52Z</time>
      </trkpt>
      <trkpt lat="46.05624" lon="4.59178">
        <ele>350.4</ele>
        <time>2022-06-25T20:04:53Z</time>
      </trkpt>
      <trkpt lat="46.05625" lon="4.59178">
        <ele>350.6</ele>
        <time>2022-06-25T20:04:54Z</time>
      </trkpt>
      <trkpt lat="46.0563" lon="4.5918">
        <ele>351.6</ele>
        <time>2022-06-25T20:05:02Z</time>
      </trkpt>
      <trkpt lat="46.05631" lon="4.59181">
        <ele>351.6</ele>
        <time>2022-06-25T20:05:03Z</time>
      </trkpt>
      <trkpt lat="46.05631" lon="4.59183">
        <ele>352</ele>
        <time>2022-06-25T20:05:04Z</time>
      </trkpt>
      <trkpt lat="46.05631" lon="4.59184">
        <ele>352</ele>
        <time>2022-06-25T20:05:05Z</time>
      </trkpt>
      <trkpt lat="46.05632" lon="4.59185">
        <ele>352</ele>
        <time>2022-06-25T20:05:06Z</time>
      </trkpt>
      <trkpt lat="46.05632" lon="4.59187">
        <ele>352.4</ele>
        <time>2022-06-25T20:05:07Z</time>
      </trkpt>
      <trkpt lat="46.05632" lon="4.59188">
        <ele>352.4</ele>
        <time>2022-06-25T20:05:08Z</time>
      </trkpt>
      <trkpt lat="46.05633" lon="4.5919">
        <ele>352.6</ele>
        <time>2022-06-25T20:05:09Z</time>
      </trkpt>
      <trkpt lat="46.05633" lon="4.59191">
        <ele>352.6</ele>
        <time>2022-06-25T20:05:10Z</time>
      </trkpt>
      <trkpt lat="46.05634" lon="4.59193">
        <ele>352.8</ele>
        <time>2022-06-25T20:05:11Z</time>
      </trkpt>
      <trkpt lat="46.05634" lon="4.59194">
        <ele>352.8</ele>
        <time>2022-06-25T20:05:12Z</time>
      </trkpt>
      <trkpt lat="46.05635" lon="4.59196">
        <ele>352.8</ele>
        <time>2022-06-25T20:05:13Z</time>
      </trkpt>
      <trkpt lat="46.05635" lon="4.59197">
        <ele>353</ele>
        <time>2022-06-25T20:05:14Z</time>
      </trkpt>
      <trkpt lat="46.05635" lon="4.59199">
        <ele>353</ele>
        <time>2022-06-25T20:05:15Z</time>
      </trkpt>
      <trkpt lat="46.05636" lon="4.592">
        <ele>353.2</ele>
        <time>2022-06-25T20:05:16Z</time>
      </trkpt>
      <trkpt lat="46.05636" lon="4.59202">
        <ele>353.2</ele>
        <time>2022-06-25T20:05:17Z</time>
      </trkpt>
      <trkpt lat="46.05637" lon="4.59204">
        <ele>353.2</ele>
        <time>2022-06-25T20:05:18Z</time>
      </trkpt>
      <trkpt lat="46.05637" lon="4.59205">
        <ele>353.6</ele>
        <time>2022-06-25T20:05:19Z</time>
      </trkpt>
      <trkpt lat="46.05638" lon="4.59207">
        <ele>353.6</ele>
        <time>2022-06-25T20:05:20Z</time>
      </trkpt>
      <trkpt lat="46.05638" lon="4.59208">
        <ele>353.6</ele>
        <time>2022-06-25T20:05:21Z</time>
      </trkpt>
      <trkpt lat="46.05639" lon="4.5921">
        <ele>353.6</ele>
        <time>2022-06-25T20:05:22Z</time>
      </trkpt>
      <trkpt lat="46.05639" lon="4.59211">
        <ele>353.8</ele>
        <time>2022-06-25T20:05:23Z</time>
      </trkpt>
      <trkpt lat="46.0564" lon="4.59212">
        <ele>353.8</ele>
        <time>2022-06-25T20:05:24Z</time>
      </trkpt>
      <trkpt lat="46.05641" lon="4.59213">
        <ele>354</ele>
        <time>2022-06-25T20:05:25Z</time>
      </trkpt>
      <trkpt lat="46.05641" lon="4.59215">
        <ele>354</ele>
        <time>2022-06-25T20:05:26Z</time>
      </trkpt>
      <trkpt lat="46.05642" lon="4.59216">
        <ele>354</ele>
        <time>2022-06-25T20:05:27Z</time>
      </trkpt>
      <trkpt lat="46.05643" lon="4.59216">
        <ele>354</ele>
        <time>2022-06-25T20:05:28Z</time>
      </trkpt>
      <trkpt lat="46.05644" lon="4.59217">
        <ele>354.2</ele>
        <time>2022-06-25T20:05:29Z</time>
      </trkpt>
      <trkpt lat="46.05645" lon="4.59218">
        <ele>354.2</ele>
        <time>2022-06-25T20:05:30Z</time>
      </trkpt>
      <trkpt lat="46.05645" lon="4.59219">
        <ele>354.2</ele>
        <time>2022-06-25T20:05:31Z</time>
      </trkpt>
      <trkpt lat="46.05648" lon="4.59218">
        <ele>354.8</ele>
        <time>2022-06-25T20:05:39Z</time>
      </trkpt>
      <trkpt lat="46.05649" lon="4.59216">
        <ele>354.8</ele>
        <time>2022-06-25T20:05:40Z</time>
      </trkpt>
      <trkpt lat="46.0565" lon="4.59215">
        <ele>354.8</ele>
        <time>2022-06-25T20:05:41Z</time>
      </trkpt>
      <trkpt lat="46.0565" lon="4.59214">
        <ele>354.8</ele>
        <time>2022-06-25T20:05:42Z</time>
      </trkpt>
      <trkpt lat="46.05651" lon="4.59213">
        <ele>355</ele>
        <time>2022-06-25T20:05:43Z</time>
      </trkpt>
      <trkpt lat="46.05652" lon="4.59211">
        <ele>355</ele>
        <time>2022-06-25T20:05:44Z</time>
      </trkpt>
      <trkpt lat="46.05652" lon="4.5921">
        <ele>355</ele>
        <time>2022-06-25T20:05:45Z</time>
      </trkpt>
      <trkpt lat="46.05653" lon="4.59209">
        <ele>355.2</ele>
        <time>2022-06-25T20:05:46Z</time>
      </trkpt>
      <trkpt lat="46.05654" lon="4.59208">
        <ele>355.2</ele>
        <time>2022-06-25T20:05:47Z</time>
      </trkpt>
      <trkpt lat="46.05654" lon="4.59207">
        <ele>355.2</ele>
        <time>2022-06-25T20:05:48Z</time>
      </trkpt>
      <trkpt lat="46.05655" lon="4.59206">
        <ele>355.4</ele>
        <time>2022-06-25T20:05:49Z</time>
      </trkpt>
      <trkpt lat="46.05656" lon="4.59206">
        <ele>355.4</ele>
        <time>2022-06-25T20:05:50Z</time>
      </trkpt>
      <trkpt lat="46.05656" lon="4.59205">
        <ele>355.6</ele>
        <time>2022-06-25T20:05:51Z</time>
      </trkpt>
      <trkpt lat="46.05656" lon="4.59205">
        <ele>356.4</ele>
        <time>2022-06-25T20:07:18Z</time>
      </trkpt>
      <trkpt lat="46.05656" lon="4.59205">
        <ele>356.4</ele>
        <time>2022-06-25T20:07:50Z</time>
      </trkpt>
      <trkpt lat="46.05656" lon="4.59205">
        <ele>356.4</ele>
        <time>2022-06-25T20:08:22Z</time>
      </trkpt>
      <trkpt lat="46.05656" lon="4.59205">
        <ele>356.6</ele>
        <time>2022-06-25T20:09:06Z</time>
      </trkpt>
      <trkpt lat="46.05664" lon="4.592">
        <ele>356.4</ele>
        <time>2022-06-25T20:09:59Z</time>
      </trkpt>
      <trkpt lat="46.05664" lon="4.592">
        <ele>356.4</ele>
        <time>2022-06-25T20:10:03Z</time>
      </trkpt>
      <trkpt lat="46.05664" lon="4.592">
        <ele>356.4</ele>
        <time>2022-06-25T20:11:30Z</time>
      </trkpt>
      <trkpt lat="46.05664" lon="4.592">
        <ele>357.2</ele>
        <time>2022-06-25T20:12:52Z</time>
      </trkpt>
      <trkpt lat="46.05664" lon="4.592">
        <ele>358.2</ele>
        <time>2022-06-25T20:13:47Z</time>
      </trkpt>
      <trkpt lat="46.05664" lon="4.592">
        <ele>359</ele>
        <time>2022-06-25T20:14:36Z</time>
      </trkpt>
      <trkpt lat="46.05664" lon="4.592">
        <ele>359.6</ele>
        <time>2022-06-25T20:15:25Z</time>
      </trkpt>
      <trkpt lat="46.05664" lon="4.592">
        <ele>359.6</ele>
        <time>2022-06-25T20:16:23Z</time>
      </trkpt>
      <trkpt lat="46.05664" lon="4.592">
        <ele>359.8</ele>
        <time>2022-06-25T20:17:15Z</time>
      </trkpt>
      <trkpt lat="46.05664" lon="4.592">
        <ele>359.8</ele>
        <time>2022-06-25T20:17:47Z</time>
      </trkpt>
      <trkpt lat="46.05664" lon="4.592">
        <ele>359.6</ele>
        <time>2022-06-25T20:18:23Z</time>
      </trkpt>
      <trkpt lat="46.05664" lon="4.592">
        <ele>360.4</ele>
        <time>2022-06-25T20:19:00Z</time>
      </trkpt>
      <trkpt lat="46.05664" lon="4.592">
        <ele>360</ele>
        <time>2022-06-25T20:19:38Z</time>
      </trkpt>
      <trkpt lat="46.05664" lon="4.592">
        <ele>360.2</ele>
        <time>2022-06-25T20:20:22Z</time>
      </trkpt>
      <trkpt lat="46.05664" lon="4.592">
        <ele>360.2</ele>
        <time>2022-06-25T20:21:00Z</time>
      </trkpt>
      <trkpt lat="46.05664" lon="4.592">
        <ele>358.6</ele>
        <time>2022-06-25T20:24:17Z</time>
      </trkpt>
      <trkpt lat="46.05664" lon="4.592">
        <ele>358.4</ele>
        <time>2022-06-25T20:24:55Z</time>
      </trkpt>
      <trkpt lat="46.05664" lon="4.592">
        <ele>357.4</ele>
        <time>2022-06-25T20:26:12Z</time>
      </trkpt>
      <trkpt lat="46.05664" lon="4.592">
        <ele>356.2</ele>
        <time>2022-06-25T20:28:30Z</time>
      </trkpt>
      <trkpt lat="46.05664" lon="4.592">
        <ele>353.6</ele>
        <time>2022-06-25T20:33:33Z</time>
      </trkpt>
      <trkpt lat="46.05664" lon="4.592">
        <ele>353.6</ele>
        <time>2022-06-25T20:34:10Z</time>
      </trkpt>
      <trkpt lat="46.05664" lon="4.592">
        <ele>354</ele>
        <time>2022-06-25T20:34:45Z</time>
      </trkpt>
      <trkpt lat="46.05664" lon="4.592">
        <ele>354</ele>
        <time>2022-06-25T20:35:20Z</time>
      </trkpt>
      <trkpt lat="46.05664" lon="4.592">
        <ele>354</ele>
        <time>2022-06-25T20:35:52Z</time>
      </trkpt>
      <trkpt lat="46.05664" lon="4.592">
        <ele>354</ele>
        <time>2022-06-25T20:36:25Z</time>
      </trkpt>
      <trkpt lat="46.05664" lon="4.592">
        <ele>353.8</ele>
        <time>2022-06-25T20:36:59Z</time>
      </trkpt>
      <trkpt lat="46.05664" lon="4.592">
        <ele>353.4</ele>
        <time>2022-06-25T20:37:46Z</time>
      </trkpt>
      <trkpt lat="46.05664" lon="4.592">
        <ele>353</ele>
        <time>2022-06-25T20:38:49Z</time>
      </trkpt>
      <trkpt lat="46.05664" lon="4.592">
        <ele>352.6</ele>
        <time>2022-06-25T20:39:33Z</time>
      </trkpt>
      <trkpt lat="46.05664" lon="4.592">
        <ele>352.4</ele>
        <time>2022-06-25T20:40:31Z</time>
      </trkpt>
      <trkpt lat="46.05664" lon="4.592">
        <ele>352.4</ele>
        <time>2022-06-25T20:41:16Z</time>
      </trkpt>
      <trkpt lat="46.05664" lon="4.592">
        <ele>352.4</ele>
        <time>2022-06-25T20:42:01Z</time>
      </trkpt>
      <trkpt lat="46.05664" lon="4.592">
        <ele>352</ele>
        <time>2022-06-25T20:43:09Z</time>
      </trkpt>
      <trkpt lat="46.05664" lon="4.592">
        <ele>351.4</ele>
        <time>2022-06-25T20:44:15Z</time>
      </trkpt>
      <trkpt lat="46.05664" lon="4.592">
        <ele>350</ele>
        <time>2022-06-25T20:46:16Z</time>
      </trkpt>
    </trkseg>
  </trk>
  <trk>
    <name><![CDATA[bpf 69 jour 2]]></name>
    <extensions>
      <line xmlns="http://www.topografix.com/GPX/gpx_style/0/2">
        <color>0000FF</color>
        <width>4</width>
      </line>
    </extensions>
    <trkseg>
      <trkpt lat="46.05612" lon="4.59177">
        <ele>372.6</ele>
        <time>2022-06-26T04:34:40Z</time>
      </trkpt>
      <trkpt lat="46.05612" lon="4.59173">
        <ele>373.2</ele>
        <time>2022-06-26T04:34:52Z</time>
      </trkpt>
      <trkpt lat="46.05611" lon="4.59171">
        <ele>373.2</ele>
        <time>2022-06-26T04:34:53Z</time>
      </trkpt>
      <trkpt lat="46.0561" lon="4.59168">
        <ele>372.8</ele>
        <time>2022-06-26T04:34:54Z</time>
      </trkpt>
      <trkpt lat="46.05609" lon="4.59164">
        <ele>372.8</ele>
        <time>2022-06-26T04:34:55Z</time>
      </trkpt>
      <trkpt lat="46.05607" lon="4.59159">
        <ele>372.4</ele>
        <time>2022-06-26T04:34:56Z</time>
      </trkpt>
      <trkpt lat="46.05606" lon="4.59154">
        <ele>372.2</ele>
        <time>2022-06-26T04:34:57Z</time>
      </trkpt>
      <trkpt lat="46.05603" lon="4.59149">
        <ele>371.8</ele>
        <time>2022-06-26T04:34:58Z</time>
      </trkpt>
      <trkpt lat="46.05601" lon="4.59144">
        <ele>371.4</ele>
        <time>2022-06-26T04:34:59Z</time>
      </trkpt>
      <trkpt lat="46.05598" lon="4.59137">
        <ele>371.2</ele>
        <time>2022-06-26T04:35:00Z</time>
      </trkpt>
      <trkpt lat="46.05595" lon="4.5913">
        <ele>370.6</ele>
        <time>2022-06-26T04:35:01Z</time>
      </trkpt>
      <trkpt lat="46.05592" lon="4.59124">
        <ele>370.2</ele>
        <time>2022-06-26T04:35:02Z</time>
      </trkpt>
      <trkpt lat="46.05589" lon="4.59116">
        <ele>370</ele>
        <time>2022-06-26T04:35:03Z</time>
      </trkpt>
      <trkpt lat="46.05585" lon="4.59107">
        <ele>369.4</ele>
        <time>2022-06-26T04:35:04Z</time>
      </trkpt>
      <trkpt lat="46.05582" lon="4.59099">
        <ele>369.2</ele>
        <time>2022-06-26T04:35:05Z</time>
      </trkpt>
      <trkpt lat="46.05578" lon="4.5909">
        <ele>368.8</ele>
        <time>2022-06-26T04:35:06Z</time>
      </trkpt>
      <trkpt lat="46.05574" lon="4.59081">
        <ele>368.4</ele>
        <time>2022-06-26T04:35:07Z</time>
      </trkpt>
      <trkpt lat="46.05571" lon="4.59071">
        <ele>368</ele>
        <time>2022-06-26T04:35:08Z</time>
      </trkpt>
      <trkpt lat="46.05569" lon="4.59061">
        <ele>367.6</ele>
        <time>2022-06-26T04:35:09Z</time>
      </trkpt>
      <trkpt lat="46.05566" lon="4.59051">
        <ele>367.4</ele>
        <time>2022-06-26T04:35:10Z</time>
      </trkpt>
      <trkpt lat="46.05563" lon="4.5904">
        <ele>367</ele>
        <time>2022-06-26T04:35:11Z</time>
      </trkpt>
      <trkpt lat="46.05561" lon="4.59028">
        <ele>366.6</ele>
        <time>2022-06-26T04:35:12Z</time>
      </trkpt>
      <trkpt lat="46.05558" lon="4.59017">
        <ele>366.2</ele>
        <time>2022-06-26T04:35:13Z</time>
      </trkpt>
      <trkpt lat="46.05555" lon="4.59006">
        <ele>365.6</ele>
        <time>2022-06-26T04:35:14Z</time>
      </trkpt>
      <trkpt lat="46.05551" lon="4.58995">
        <ele>365.4</ele>
        <time>2022-06-26T04:35:15Z</time>
      </trkpt>
      <trkpt lat="46.05547" lon="4.58984">
        <ele>365</ele>
        <time>2022-06-26T04:35:16Z</time>
      </trkpt>
      <trkpt lat="46.05543" lon="4.58974">
        <ele>364.8</ele>
        <time>2022-06-26T04:35:17Z</time>
      </trkpt>
      <trkpt lat="46.05539" lon="4.58965">
        <ele>364.6</ele>
        <time>2022-06-26T04:35:18Z</time>
      </trkpt>
      <trkpt lat="46.05536" lon="4.58955">
        <ele>364.4</ele>
        <time>2022-06-26T04:35:19Z</time>
      </trkpt>
      <trkpt lat="46.05532" lon="4.58946">
        <ele>364.4</ele>
        <time>2022-06-26T04:35:20Z</time>
      </trkpt>
      <trkpt lat="46.05529" lon="4.58938">
        <ele>364.4</ele>
        <time>2022-06-26T04:35:21Z</time>
      </trkpt>
      <trkpt lat="46.05525" lon="4.58929">
        <ele>364.2</ele>
        <time>2022-06-26T04:35:22Z</time>
      </trkpt>
      <trkpt lat="46.05522" lon="4.58921">
        <ele>364.2</ele>
        <time>2022-06-26T04:35:23Z</time>
      </trkpt>
      <trkpt lat="46.0552" lon="4.58912">
        <ele>363.8</ele>
        <time>2022-06-26T04:35:24Z</time>
      </trkpt>
      <trkpt lat="46.05519" lon="4.58903">
        <ele>363.6</ele>
        <time>2022-06-26T04:35:25Z</time>
      </trkpt>
      <trkpt lat="46.05517" lon="4.58894">
        <ele>363.6</ele>
        <time>2022-06-26T04:35:26Z</time>
      </trkpt>
      <trkpt lat="46.05516" lon="4.58885">
        <ele>363.2</ele>
        <time>2022-06-26T04:35:27Z</time>
      </trkpt>
      <trkpt lat="46.05514" lon="4.58876">
        <ele>363.2</ele>
        <time>2022-06-26T04:35:28Z</time>
      </trkpt>
      <trkpt lat="46.05512" lon="4.58866">
        <ele>363</ele>
        <time>2022-06-26T04:35:29Z</time>
      </trkpt>
      <trkpt lat="46.0551" lon="4.58856">
        <ele>362.8</ele>
        <time>2022-06-26T04:35:30Z</time>
      </trkpt>
      <trkpt lat="46.05508" lon="4.58845">
        <ele>362.6</ele>
        <time>2022-06-26T04:35:31Z</time>
      </trkpt>
      <trkpt lat="46.05506" lon="4.58834">
        <ele>362.2</ele>
        <time>2022-06-26T04:35:32Z</time>
      </trkpt>
      <trkpt lat="46.05504" lon="4.58823">
        <ele>362</ele>
        <time>2022-06-26T04:35:33Z</time>
      </trkpt>
      <trkpt lat="46.05502" lon="4.58811">
        <ele>361.6</ele>
        <time>2022-06-26T04:35:34Z</time>
      </trkpt>
      <trkpt lat="46.055" lon="4.588">
        <ele>361</ele>
        <time>2022-06-26T04:35:35Z</time>
      </trkpt>
      <trkpt lat="46.05498" lon="4.58789">
        <ele>360.6</ele>
        <time>2022-06-26T04:35:36Z</time>
      </trkpt>
      <trkpt lat="46.05496" lon="4.58777">
        <ele>360.4</ele>
        <time>2022-06-26T04:35:37Z</time>
      </trkpt>
      <trkpt lat="46.05493" lon="4.58766">
        <ele>360</ele>
        <time>2022-06-26T04:35:38Z</time>
      </trkpt>
      <trkpt lat="46.0549" lon="4.58756">
        <ele>359.6</ele>
        <time>2022-06-26T04:35:39Z</time>
      </trkpt>
      <trkpt lat="46.05485" lon="4.58747">
        <ele>359.2</ele>
        <time>2022-06-26T04:35:40Z</time>
      </trkpt>
      <trkpt lat="46.05479" lon="4.58739">
        <ele>358.6</ele>
        <time>2022-06-26T04:35:41Z</time>
      </trkpt>
      <trkpt lat="46.05471" lon="4.58734">
        <ele>358.2</ele>
        <time>2022-06-26T04:35:42Z</time>
      </trkpt>
      <trkpt lat="46.05463" lon="4.58731">
        <ele>357.8</ele>
        <time>2022-06-26T04:35:43Z</time>
      </trkpt>
      <trkpt lat="46.05455" lon="4.5873">
        <ele>357.6</ele>
        <time>2022-06-26T04:35:44Z</time>
      </trkpt>
      <trkpt lat="46.05446" lon="4.5873">
        <ele>357.2</ele>
        <time>2022-06-26T04:35:45Z</time>
      </trkpt>
      <trkpt lat="46.05438" lon="4.58729">
        <ele>356.8</ele>
        <time>2022-06-26T04:35:46Z</time>
      </trkpt>
      <trkpt lat="46.0543" lon="4.58726">
        <ele>356.2</ele>
        <time>2022-06-26T04:35:47Z</time>
      </trkpt>
      <trkpt lat="46.05422" lon="4.58723">
        <ele>355.8</ele>
        <time>2022-06-26T04:35:48Z</time>
      </trkpt>
      <trkpt lat="46.05415" lon="4.58718">
        <ele>355.2</ele>
        <time>2022-06-26T04:35:49Z</time>
      </trkpt>
      <trkpt lat="46.05408" lon="4.58711">
        <ele>354.8</ele>
        <time>2022-06-26T04:35:50Z</time>
      </trkpt>
      <trkpt lat="46.05401" lon="4.58704">
        <ele>354.4</ele>
        <time>2022-06-26T04:35:51Z</time>
      </trkpt>
      <trkpt lat="46.05394" lon="4.58696">
        <ele>353.8</ele>
        <time>2022-06-26T04:35:52Z</time>
      </trkpt>
      <trkpt lat="46.05388" lon="4.58686">
        <ele>353.4</ele>
        <time>2022-06-26T04:35:53Z</time>
      </trkpt>
      <trkpt lat="46.05383" lon="4.58676">
        <ele>352.8</ele>
        <time>2022-06-26T04:35:54Z</time>
      </trkpt>
      <trkpt lat="46.05379" lon="4.58665">
        <ele>352.4</ele>
        <time>2022-06-26T04:35:55Z</time>
      </trkpt>
      <trkpt lat="46.05375" lon="4.58654">
        <ele>352</ele>
        <time>2022-06-26T04:35:56Z</time>
      </trkpt>
      <trkpt lat="46.0537" lon="4.58644">
        <ele>351.6</ele>
        <time>2022-06-26T04:35:57Z</time>
      </trkpt>
      <trkpt lat="46.05366" lon="4.58634">
        <ele>351.2</ele>
        <time>2022-06-26T04:35:58Z</time>
      </trkpt>
      <trkpt lat="46.05361" lon="4.58625">
        <ele>350.6</ele>
        <time>2022-06-26T04:35:59Z</time>
      </trkpt>
      <trkpt lat="46.05356" lon="4.58616">
        <ele>350.2</ele>
        <time>2022-06-26T04:36:00Z</time>
      </trkpt>
      <trkpt lat="46.05351" lon="4.58608">
        <ele>349.8</ele>
        <time>2022-06-26T04:36:01Z</time>
      </trkpt>
      <trkpt lat="46.05346" lon="4.58601">
        <ele>349.4</ele>
        <time>2022-06-26T04:36:02Z</time>
      </trkpt>
      <trkpt lat="46.0534" lon="4.58596">
        <ele>349</ele>
        <time>2022-06-26T04:36:03Z</time>
      </trkpt>
      <trkpt lat="46.05333" lon="4.58591">
        <ele>348.6</ele>
        <time>2022-06-26T04:36:04Z</time>
      </trkpt>
      <trkpt lat="46.05326" lon="4.58587">
        <ele>348.2</ele>
        <time>2022-06-26T04:36:05Z</time>
      </trkpt>
      <trkpt lat="46.05319" lon="4.58583">
        <ele>347.6</ele>
        <time>2022-06-26T04:36:06Z</time>
      </trkpt>
      <trkpt lat="46.05312" lon="4.58579">
        <ele>347.2</ele>
        <time>2022-06-26T04:36:07Z</time>
      </trkpt>
      <trkpt lat="46.05306" lon="4.58574">
        <ele>346.8</ele>
        <time>2022-06-26T04:36:08Z</time>
      </trkpt>
      <trkpt lat="46.05299" lon="4.58569">
        <ele>346.4</ele>
        <time>2022-06-26T04:36:09Z</time>
      </trkpt>
      <trkpt lat="46.05293" lon="4.58564">
        <ele>346</ele>
        <time>2022-06-26T04:36:10Z</time>
      </trkpt>
      <trkpt lat="46.05286" lon="4.58559">
        <ele>345.6</ele>
        <time>2022-06-26T04:36:11Z</time>
      </trkpt>
      <trkpt lat="46.0528" lon="4.58554">
        <ele>345.2</ele>
        <time>2022-06-26T04:36:12Z</time>
      </trkpt>
      <trkpt lat="46.05274" lon="4.58548">
        <ele>344.8</ele>
        <time>2022-06-26T04:36:13Z</time>
      </trkpt>
      <trkpt lat="46.05268" lon="4.58542">
        <ele>344.6</ele>
        <time>2022-06-26T04:36:14Z</time>
      </trkpt>
      <trkpt lat="46.05263" lon="4.58536">
        <ele>344.2</ele>
        <time>2022-06-26T04:36:15Z</time>
      </trkpt>
      <trkpt lat="46.05258" lon="4.5853">
        <ele>343.8</ele>
        <time>2022-06-26T04:36:16Z</time>
      </trkpt>
      <trkpt lat="46.05253" lon="4.58525">
        <ele>343.4</ele>
        <time>2022-06-26T04:36:17Z</time>
      </trkpt>
      <trkpt lat="46.05248" lon="4.58519">
        <ele>343</ele>
        <time>2022-06-26T04:36:18Z</time>
      </trkpt>
      <trkpt lat="46.05242" lon="4.58515">
        <ele>342.6</ele>
        <time>2022-06-26T04:36:19Z</time>
      </trkpt>
      <trkpt lat="46.05236" lon="4.58511">
        <ele>342</ele>
        <time>2022-06-26T04:36:20Z</time>
      </trkpt>
      <trkpt lat="46.0523" lon="4.58508">
        <ele>341.6</ele>
        <time>2022-06-26T04:36:21Z</time>
      </trkpt>
      <trkpt lat="46.05224" lon="4.58505">
        <ele>341.2</ele>
        <time>2022-06-26T04:36:22Z</time>
      </trkpt>
      <trkpt lat="46.05218" lon="4.58502">
        <ele>340.8</ele>
        <time>2022-06-26T04:36:23Z</time>
      </trkpt>
      <trkpt lat="46.05212" lon="4.58498">
        <ele>340.4</ele>
        <time>2022-06-26T04:36:24Z</time>
      </trkpt>
      <trkpt lat="46.05206" lon="4.58494">
        <ele>340</ele>
        <time>2022-06-26T04:36:25Z</time>
      </trkpt>
      <trkpt lat="46.052" lon="4.58489">
        <ele>339.8</ele>
        <time>2022-06-26T04:36:26Z</time>
      </trkpt>
      <trkpt lat="46.05195" lon="4.58484">
        <ele>339.4</ele>
        <time>2022-06-26T04:36:27Z</time>
      </trkpt>
      <trkpt lat="46.05189" lon="4.58479">
        <ele>339</ele>
        <time>2022-06-26T04:36:28Z</time>
      </trkpt>
      <trkpt lat="46.05184" lon="4.58473">
        <ele>338.8</ele>
        <time>2022-06-26T04:36:29Z</time>
      </trkpt>
      <trkpt lat="46.05178" lon="4.58468">
        <ele>338.4</ele>
        <time>2022-06-26T04:36:30Z</time>
      </trkpt>
      <trkpt lat="46.05174" lon="4.58462">
        <ele>338.2</ele>
        <time>2022-06-26T04:36:31Z</time>
      </trkpt>
      <trkpt lat="46.0517" lon="4.58456">
        <ele>337.8</ele>
        <time>2022-06-26T04:36:32Z</time>
      </trkpt>
      <trkpt lat="46.05166" lon="4.5845">
        <ele>337.4</ele>
        <time>2022-06-26T04:36:33Z</time>
      </trkpt>
      <trkpt lat="46.05163" lon="4.58443">
        <ele>337.2</ele>
        <time>2022-06-26T04:36:34Z</time>
      </trkpt>
      <trkpt lat="46.05159" lon="4.58436">
        <ele>337</ele>
        <time>2022-06-26T04:36:35Z</time>
      </trkpt>
      <trkpt lat="46.05156" lon="4.58429">
        <ele>337</ele>
        <time>2022-06-26T04:36:36Z</time>
      </trkpt>
      <trkpt lat="46.05154" lon="4.58422">
        <ele>336.8</ele>
        <time>2022-06-26T04:36:37Z</time>
      </trkpt>
      <trkpt lat="46.05151" lon="4.58415">
        <ele>336.8</ele>
        <time>2022-06-26T04:36:38Z</time>
      </trkpt>
      <trkpt lat="46.05149" lon="4.58408">
        <ele>336.8</ele>
        <time>2022-06-26T04:36:39Z</time>
      </trkpt>
      <trkpt lat="46.05148" lon="4.584">
        <ele>336.4</ele>
        <time>2022-06-26T04:36:40Z</time>
      </trkpt>
      <trkpt lat="46.05146" lon="4.58393">
        <ele>336.4</ele>
        <time>2022-06-26T04:36:41Z</time>
      </trkpt>
      <trkpt lat="46.05146" lon="4.58387">
        <ele>336.4</ele>
        <time>2022-06-26T04:36:42Z</time>
      </trkpt>
      <trkpt lat="46.05145" lon="4.58381">
        <ele>336.4</ele>
        <time>2022-06-26T04:36:43Z</time>
      </trkpt>
      <trkpt lat="46.05144" lon="4.58376">
        <ele>336.4</ele>
        <time>2022-06-26T04:36:44Z</time>
      </trkpt>
      <trkpt lat="46.05144" lon="4.58371">
        <ele>336.4</ele>
        <time>2022-06-26T04:36:45Z</time>
      </trkpt>
      <trkpt lat="46.05143" lon="4.58366">
        <ele>336.4</ele>
        <time>2022-06-26T04:36:46Z</time>
      </trkpt>
      <trkpt lat="46.05142" lon="4.58362">
        <ele>336.4</ele>
        <time>2022-06-26T04:36:47Z</time>
      </trkpt>
      <trkpt lat="46.0514" lon="4.58357">
        <ele>336.4</ele>
        <time>2022-06-26T04:36:48Z</time>
      </trkpt>
      <trkpt lat="46.05139" lon="4.58353">
        <ele>336.8</ele>
        <time>2022-06-26T04:36:49Z</time>
      </trkpt>
      <trkpt lat="46.05138" lon="4.58348">
        <ele>336.8</ele>
        <time>2022-06-26T04:36:50Z</time>
      </trkpt>
      <trkpt lat="46.05137" lon="4.58343">
        <ele>337</ele>
        <time>2022-06-26T04:36:51Z</time>
      </trkpt>
      <trkpt lat="46.05135" lon="4.58339">
        <ele>337</ele>
        <time>2022-06-26T04:36:52Z</time>
      </trkpt>
      <trkpt lat="46.05134" lon="4.58334">
        <ele>337</ele>
        <time>2022-06-26T04:36:53Z</time>
      </trkpt>
      <trkpt lat="46.05132" lon="4.5833">
        <ele>337.4</ele>
        <time>2022-06-26T04:36:54Z</time>
      </trkpt>
      <trkpt lat="46.0513" lon="4.58326">
        <ele>337.4</ele>
        <time>2022-06-26T04:36:55Z</time>
      </trkpt>
      <trkpt lat="46.05128" lon="4.58321">
        <ele>337.4</ele>
        <time>2022-06-26T04:36:56Z</time>
      </trkpt>
      <trkpt lat="46.05127" lon="4.58317">
        <ele>337.6</ele>
        <time>2022-06-26T04:36:57Z</time>
      </trkpt>
      <trkpt lat="46.05126" lon="4.58313">
        <ele>337.6</ele>
        <time>2022-06-26T04:36:58Z</time>
      </trkpt>
      <trkpt lat="46.05124" lon="4.58309">
        <ele>337.8</ele>
        <time>2022-06-26T04:36:59Z</time>
      </trkpt>
      <trkpt lat="46.05122" lon="4.58305">
        <ele>338</ele>
        <time>2022-06-26T04:37:00Z</time>
      </trkpt>
      <trkpt lat="46.05121" lon="4.583">
        <ele>338</ele>
        <time>2022-06-26T04:37:01Z</time>
      </trkpt>
      <trkpt lat="46.0512" lon="4.58297">
        <ele>338.2</ele>
        <time>2022-06-26T04:37:02Z</time>
      </trkpt>
      <trkpt lat="46.05118" lon="4.58293">
        <ele>338.2</ele>
        <time>2022-06-26T04:37:03Z</time>
      </trkpt>
      <trkpt lat="46.05117" lon="4.5829">
        <ele>338.6</ele>
        <time>2022-06-26T04:37:04Z</time>
      </trkpt>
      <trkpt lat="46.05116" lon="4.58288">
        <ele>338.6</ele>
        <time>2022-06-26T04:37:05Z</time>
      </trkpt>
      <trkpt lat="46.05116" lon="4.58286">
        <ele>338.8</ele>
        <time>2022-06-26T04:37:06Z</time>
      </trkpt>
      <trkpt lat="46.05114" lon="4.58283">
        <ele>339</ele>
        <time>2022-06-26T04:37:33Z</time>
      </trkpt>
      <trkpt lat="46.05113" lon="4.5828">
        <ele>339</ele>
        <time>2022-06-26T04:37:34Z</time>
      </trkpt>
      <trkpt lat="46.05112" lon="4.58278">
        <ele>339.2</ele>
        <time>2022-06-26T04:37:35Z</time>
      </trkpt>
      <trkpt lat="46.05111" lon="4.58276">
        <ele>339.2</ele>
        <time>2022-06-26T04:37:36Z</time>
      </trkpt>
      <trkpt lat="46.05109" lon="4.58273">
        <ele>339.2</ele>
        <time>2022-06-26T04:37:37Z</time>
      </trkpt>
      <trkpt lat="46.05108" lon="4.5827">
        <ele>339.2</ele>
        <time>2022-06-26T04:37:38Z</time>
      </trkpt>
      <trkpt lat="46.05107" lon="4.58267">
        <ele>339.4</ele>
        <time>2022-06-26T04:37:39Z</time>
      </trkpt>
      <trkpt lat="46.05106" lon="4.58263">
        <ele>339.4</ele>
        <time>2022-06-26T04:37:40Z</time>
      </trkpt>
      <trkpt lat="46.05105" lon="4.5826">
        <ele>339.8</ele>
        <time>2022-06-26T04:37:41Z</time>
      </trkpt>
      <trkpt lat="46.05104" lon="4.58256">
        <ele>339.8</ele>
        <time>2022-06-26T04:37:42Z</time>
      </trkpt>
      <trkpt lat="46.05103" lon="4.58252">
        <ele>340</ele>
        <time>2022-06-26T04:37:43Z</time>
      </trkpt>
      <trkpt lat="46.05101" lon="4.58248">
        <ele>340</ele>
        <time>2022-06-26T04:37:44Z</time>
      </trkpt>
      <trkpt lat="46.051" lon="4.58244">
        <ele>340</ele>
        <time>2022-06-26T04:37:45Z</time>
      </trkpt>
      <trkpt lat="46.05098" lon="4.58239">
        <ele>340.2</ele>
        <time>2022-06-26T04:37:46Z</time>
      </trkpt>
      <trkpt lat="46.05096" lon="4.58235">
        <ele>340.2</ele>
        <time>2022-06-26T04:37:47Z</time>
      </trkpt>
      <trkpt lat="46.05095" lon="4.58231">
        <ele>340.2</ele>
        <time>2022-06-26T04:37:48Z</time>
      </trkpt>
      <trkpt lat="46.05093" lon="4.58226">
        <ele>340.4</ele>
        <time>2022-06-26T04:37:49Z</time>
      </trkpt>
      <trkpt lat="46.05091" lon="4.58222">
        <ele>340.4</ele>
        <time>2022-06-26T04:37:50Z</time>
      </trkpt>
      <trkpt lat="46.0509" lon="4.58217">
        <ele>340.4</ele>
        <time>2022-06-26T04:37:51Z</time>
      </trkpt>
      <trkpt lat="46.05088" lon="4.58212">
        <ele>340.6</ele>
        <time>2022-06-26T04:37:52Z</time>
      </trkpt>
      <trkpt lat="46.05086" lon="4.58207">
        <ele>340.6</ele>
        <time>2022-06-26T04:37:53Z</time>
      </trkpt>
      <trkpt lat="46.05085" lon="4.58202">
        <ele>340.8</ele>
        <time>2022-06-26T04:37:54Z</time>
      </trkpt>
      <trkpt lat="46.05083" lon="4.58197">
        <ele>340.8</ele>
        <time>2022-06-26T04:37:55Z</time>
      </trkpt>
      <trkpt lat="46.05081" lon="4.58192">
        <ele>340.8</ele>
        <time>2022-06-26T04:37:56Z</time>
      </trkpt>
      <trkpt lat="46.0508" lon="4.58187">
        <ele>341</ele>
        <time>2022-06-26T04:37:57Z</time>
      </trkpt>
      <trkpt lat="46.05078" lon="4.58182">
        <ele>341</ele>
        <time>2022-06-26T04:37:58Z</time>
      </trkpt>
      <trkpt lat="46.05077" lon="4.58177">
        <ele>341</ele>
        <time>2022-06-26T04:37:59Z</time>
      </trkpt>
      <trkpt lat="46.05075" lon="4.58172">
        <ele>341.4</ele>
        <time>2022-06-26T04:38:00Z</time>
      </trkpt>
      <trkpt lat="46.05073" lon="4.58167">
        <ele>341.4</ele>
        <time>2022-06-26T04:38:01Z</time>
      </trkpt>
      <trkpt lat="46.05072" lon="4.58162">
        <ele>341.6</ele>
        <time>2022-06-26T04:38:02Z</time>
      </trkpt>
      <trkpt lat="46.05071" lon="4.58156">
        <ele>341.6</ele>
        <time>2022-06-26T04:38:03Z</time>
      </trkpt>
      <trkpt lat="46.0507" lon="4.58151">
        <ele>341.8</ele>
        <time>2022-06-26T04:38:04Z</time>
      </trkpt>
      <trkpt lat="46.05069" lon="4.58146">
        <ele>341.8</ele>
        <time>2022-06-26T04:38:05Z</time>
      </trkpt>
      <trkpt lat="46.05068" lon="4.58141">
        <ele>342.2</ele>
        <time>2022-06-26T04:38:06Z</time>
      </trkpt>
      <trkpt lat="46.05068" lon="4.58136">
        <ele>342.4</ele>
        <time>2022-06-26T04:38:07Z</time>
      </trkpt>
      <trkpt lat="46.05068" lon="4.58131">
        <ele>342.6</ele>
        <time>2022-06-26T04:38:08Z</time>
      </trkpt>
      <trkpt lat="46.05067" lon="4.58126">
        <ele>342.6</ele>
        <time>2022-06-26T04:38:09Z</time>
      </trkpt>
      <trkpt lat="46.05067" lon="4.58121">
        <ele>342.8</ele>
        <time>2022-06-26T04:38:10Z</time>
      </trkpt>
      <trkpt lat="46.05066" lon="4.58116">
        <ele>343.2</ele>
        <time>2022-06-26T04:38:11Z</time>
      </trkpt>
      <trkpt lat="46.05065" lon="4.58112">
        <ele>343.4</ele>
        <time>2022-06-26T04:38:12Z</time>
      </trkpt>
      <trkpt lat="46.05065" lon="4.58107">
        <ele>343.6</ele>
        <time>2022-06-26T04:38:13Z</time>
      </trkpt>
      <trkpt lat="46.05064" lon="4.58103">
        <ele>343.8</ele>
        <time>2022-06-26T04:38:14Z</time>
      </trkpt>
      <trkpt lat="46.05063" lon="4.58098">
        <ele>344</ele>
        <time>2022-06-26T04:38:15Z</time>
      </trkpt>
      <trkpt lat="46.05062" lon="4.58094">
        <ele>344.2</ele>
        <time>2022-06-26T04:38:16Z</time>
      </trkpt>
      <trkpt lat="46.05061" lon="4.5809">
        <ele>344.4</ele>
        <time>2022-06-26T04:38:17Z</time>
      </trkpt>
      <trkpt lat="46.0506" lon="4.58086">
        <ele>344.8</ele>
        <time>2022-06-26T04:38:18Z</time>
      </trkpt>
      <trkpt lat="46.05058" lon="4.58082">
        <ele>345</ele>
        <time>2022-06-26T04:38:19Z</time>
      </trkpt>
      <trkpt lat="46.05057" lon="4.58078">
        <ele>345.2</ele>
        <time>2022-06-26T04:38:20Z</time>
      </trkpt>
      <trkpt lat="46.05056" lon="4.58074">
        <ele>345.4</ele>
        <time>2022-06-26T04:38:21Z</time>
      </trkpt>
      <trkpt lat="46.05055" lon="4.5807">
        <ele>345.8</ele>
        <time>2022-06-26T04:38:22Z</time>
      </trkpt>
      <trkpt lat="46.05054" lon="4.58066">
        <ele>345.8</ele>
        <time>2022-06-26T04:38:23Z</time>
      </trkpt>
      <trkpt lat="46.05053" lon="4.58063">
        <ele>346.2</ele>
        <time>2022-06-26T04:38:24Z</time>
      </trkpt>
      <trkpt lat="46.05052" lon="4.58059">
        <ele>346.4</ele>
        <time>2022-06-26T04:38:25Z</time>
      </trkpt>
      <trkpt lat="46.0505" lon="4.58055">
        <ele>346.6</ele>
        <time>2022-06-26T04:38:26Z</time>
      </trkpt>
      <trkpt lat="46.05049" lon="4.58052">
        <ele>346.6</ele>
        <time>2022-06-26T04:38:27Z</time>
      </trkpt>
      <trkpt lat="46.05048" lon="4.58048">
        <ele>347</ele>
        <time>2022-06-26T04:38:28Z</time>
      </trkpt>
      <trkpt lat="46.05047" lon="4.58045">
        <ele>347</ele>
        <time>2022-06-26T04:38:29Z</time>
      </trkpt>
      <trkpt lat="46.05046" lon="4.58041">
        <ele>347.4</ele>
        <time>2022-06-26T04:38:30Z</time>
      </trkpt>
      <trkpt lat="46.05045" lon="4.58038">
        <ele>347.4</ele>
        <time>2022-06-26T04:38:31Z</time>
      </trkpt>
      <trkpt lat="46.05044" lon="4.58035">
        <ele>347.8</ele>
        <time>2022-06-26T04:38:32Z</time>
      </trkpt>
      <trkpt lat="46.05043" lon="4.58031">
        <ele>348</ele>
        <time>2022-06-26T04:38:33Z</time>
      </trkpt>
      <trkpt lat="46.05042" lon="4.58028">
        <ele>348.2</ele>
        <time>2022-06-26T04:38:34Z</time>
      </trkpt>
      <trkpt lat="46.05041" lon="4.58024">
        <ele>348.4</ele>
        <time>2022-06-26T04:38:35Z</time>
      </trkpt>
      <trkpt lat="46.0504" lon="4.5802">
        <ele>348.4</ele>
        <time>2022-06-26T04:38:36Z</time>
      </trkpt>
      <trkpt lat="46.05039" lon="4.58016">
        <ele>348.6</ele>
        <time>2022-06-26T04:38:37Z</time>
      </trkpt>
      <trkpt lat="46.05037" lon="4.58012">
        <ele>348.6</ele>
        <time>2022-06-26T04:38:38Z</time>
      </trkpt>
      <trkpt lat="46.05036" lon="4.58008">
        <ele>349</ele>
        <time>2022-06-26T04:38:39Z</time>
      </trkpt>
      <trkpt lat="46.05035" lon="4.58004">
        <ele>349</ele>
        <time>2022-06-26T04:38:40Z</time>
      </trkpt>
      <trkpt lat="46.05033" lon="4.57999">
        <ele>349.2</ele>
        <time>2022-06-26T04:38:41Z</time>
      </trkpt>
      <trkpt lat="46.05032" lon="4.57995">
        <ele>349.2</ele>
        <time>2022-06-26T04:38:42Z</time>
      </trkpt>
      <trkpt lat="46.05031" lon="4.57991">
        <ele>349.6</ele>
        <time>2022-06-26T04:38:43Z</time>
      </trkpt>
      <trkpt lat="46.0503" lon="4.57987">
        <ele>349.6</ele>
        <time>2022-06-26T04:38:44Z</time>
      </trkpt>
      <trkpt lat="46.05029" lon="4.57983">
        <ele>349.8</ele>
        <time>2022-06-26T04:38:45Z</time>
      </trkpt>
      <trkpt lat="46.05028" lon="4.57979">
        <ele>349.8</ele>
        <time>2022-06-26T04:38:46Z</time>
      </trkpt>
      <trkpt lat="46.05026" lon="4.57975">
        <ele>350</ele>
        <time>2022-06-26T04:38:47Z</time>
      </trkpt>
      <trkpt lat="46.05025" lon="4.57971">
        <ele>350</ele>
        <time>2022-06-26T04:38:48Z</time>
      </trkpt>
      <trkpt lat="46.05023" lon="4.57967">
        <ele>350.4</ele>
        <time>2022-06-26T04:38:49Z</time>
      </trkpt>
      <trkpt lat="46.05022" lon="4.57964">
        <ele>350.4</ele>
        <time>2022-06-26T04:38:50Z</time>
      </trkpt>
      <trkpt lat="46.05021" lon="4.5796">
        <ele>350.6</ele>
        <time>2022-06-26T04:38:51Z</time>
      </trkpt>
      <trkpt lat="46.05019" lon="4.57956">
        <ele>350.6</ele>
        <time>2022-06-26T04:38:52Z</time>
      </trkpt>
      <trkpt lat="46.05018" lon="4.57953">
        <ele>351</ele>
        <time>2022-06-26T04:38:53Z</time>
      </trkpt>
      <trkpt lat="46.05017" lon="4.57949">
        <ele>351</ele>
        <time>2022-06-26T04:38:54Z</time>
      </trkpt>
      <trkpt lat="46.05016" lon="4.57946">
        <ele>351.4</ele>
        <time>2022-06-26T04:38:55Z</time>
      </trkpt>
      <trkpt lat="46.05015" lon="4.57942">
        <ele>351.4</ele>
        <time>2022-06-26T04:38:56Z</time>
      </trkpt>
      <trkpt lat="46.05014" lon="4.57939">
        <ele>351.6</ele>
        <time>2022-06-26T04:38:57Z</time>
      </trkpt>
      <trkpt lat="46.05012" lon="4.57936">
        <ele>352</ele>
        <time>2022-06-26T04:38:58Z</time>
      </trkpt>
      <trkpt lat="46.05011" lon="4.57933">
        <ele>352.2</ele>
        <time>2022-06-26T04:38:59Z</time>
      </trkpt>
      <trkpt lat="46.0501" lon="4.5793">
        <ele>352.4</ele>
        <time>2022-06-26T04:39:00Z</time>
      </trkpt>
      <trkpt lat="46.05009" lon="4.57927">
        <ele>352.6</ele>
        <time>2022-06-26T04:39:01Z</time>
      </trkpt>
      <trkpt lat="46.05008" lon="4.57924">
        <ele>353</ele>
        <time>2022-06-26T04:39:02Z</time>
      </trkpt>
      <trkpt lat="46.05007" lon="4.5792">
        <ele>353.2</ele>
        <time>2022-06-26T04:39:03Z</time>
      </trkpt>
      <trkpt lat="46.05006" lon="4.57917">
        <ele>353.2</ele>
        <time>2022-06-26T04:39:04Z</time>
      </trkpt>
      <trkpt lat="46.05005" lon="4.57912">
        <ele>353.6</ele>
        <time>2022-06-26T04:39:05Z</time>
      </trkpt>
      <trkpt lat="46.05004" lon="4.57911">
        <ele>353.6</ele>
        <time>2022-06-26T04:39:06Z</time>
      </trkpt>
      <trkpt lat="46.05003" lon="4.57908">
        <ele>354</ele>
        <time>2022-06-26T04:39:07Z</time>
      </trkpt>
      <trkpt lat="46.05002" lon="4.57905">
        <ele>354.2</ele>
        <time>2022-06-26T04:39:08Z</time>
      </trkpt>
      <trkpt lat="46.05001" lon="4.57903">
        <ele>354.2</ele>
        <time>2022-06-26T04:39:09Z</time>
      </trkpt>
      <trkpt lat="46.04999" lon="4.579">
        <ele>354.6</ele>
        <time>2022-06-26T04:39:10Z</time>
      </trkpt>
      <trkpt lat="46.04998" lon="4.57897">
        <ele>354.8</ele>
        <time>2022-06-26T04:39:11Z</time>
      </trkpt>
      <trkpt lat="46.04996" lon="4.57894">
        <ele>354.8</ele>
        <time>2022-06-26T04:39:12Z</time>
      </trkpt>
      <trkpt lat="46.04994" lon="4.57891">
        <ele>354.8</ele>
        <time>2022-06-26T04:39:13Z</time>
      </trkpt>
      <trkpt lat="46.04992" lon="4.57888">
        <ele>354.8</ele>
        <time>2022-06-26T04:39:14Z</time>
      </trkpt>
      <trkpt lat="46.04989" lon="4.57884">
        <ele>354.8</ele>
        <time>2022-06-26T04:39:15Z</time>
      </trkpt>
      <trkpt lat="46.04985" lon="4.57881">
        <ele>354.8</ele>
        <time>2022-06-26T04:39:16Z</time>
      </trkpt>
      <trkpt lat="46.04978" lon="4.57875">
        <ele>354.4</ele>
        <time>2022-06-26T04:39:17Z</time>
      </trkpt>
      <trkpt lat="46.04975" lon="4.57872">
        <ele>354</ele>
        <time>2022-06-26T04:39:18Z</time>
      </trkpt>
      <trkpt lat="46.04969" lon="4.57868">
        <ele>353.6</ele>
        <time>2022-06-26T04:39:19Z</time>
      </trkpt>
      <trkpt lat="46.04963" lon="4.57863">
        <ele>353.2</ele>
        <time>2022-06-26T04:39:20Z</time>
      </trkpt>
      <trkpt lat="46.04956" lon="4.57858">
        <ele>352.8</ele>
        <time>2022-06-26T04:39:21Z</time>
      </trkpt>
      <trkpt lat="46.0495" lon="4.57853">
        <ele>352.4</ele>
        <time>2022-06-26T04:39:22Z</time>
      </trkpt>
      <trkpt lat="46.04943" lon="4.57849">
        <ele>351.8</ele>
        <time>2022-06-26T04:39:23Z</time>
      </trkpt>
      <trkpt lat="46.04937" lon="4.57845">
        <ele>351.4</ele>
        <time>2022-06-26T04:39:24Z</time>
      </trkpt>
      <trkpt lat="46.04931" lon="4.57842">
        <ele>351</ele>
        <time>2022-06-26T04:39:25Z</time>
      </trkpt>
      <trkpt lat="46.04925" lon="4.5784">
        <ele>350.4</ele>
        <time>2022-06-26T04:39:26Z</time>
      </trkpt>
      <trkpt lat="46.04918" lon="4.57838">
        <ele>350</ele>
        <time>2022-06-26T04:39:27Z</time>
      </trkpt>
      <trkpt lat="46.04909" lon="4.57834">
        <ele>349.4</ele>
        <time>2022-06-26T04:39:28Z</time>
      </trkpt>
      <trkpt lat="46.04906" lon="4.57832">
        <ele>349</ele>
        <time>2022-06-26T04:39:29Z</time>
      </trkpt>
      <trkpt lat="46.049" lon="4.5783">
        <ele>348.6</ele>
        <time>2022-06-26T04:39:30Z</time>
      </trkpt>
      <trkpt lat="46.04895" lon="4.57825">
        <ele>348.2</ele>
        <time>2022-06-26T04:39:31Z</time>
      </trkpt>
      <trkpt lat="46.0489" lon="4.5782">
        <ele>347.8</ele>
        <time>2022-06-26T04:39:32Z</time>
      </trkpt>
      <trkpt lat="46.04885" lon="4.57815">
        <ele>347.4</ele>
        <time>2022-06-26T04:39:33Z</time>
      </trkpt>
      <trkpt lat="46.04881" lon="4.57809">
        <ele>347.2</ele>
        <time>2022-06-26T04:39:34Z</time>
      </trkpt>
      <trkpt lat="46.04877" lon="4.57804">
        <ele>346.8</ele>
        <time>2022-06-26T04:39:35Z</time>
      </trkpt>
      <trkpt lat="46.04874" lon="4.57799">
        <ele>346.8</ele>
        <time>2022-06-26T04:39:36Z</time>
      </trkpt>
      <trkpt lat="46.0487" lon="4.57795">
        <ele>346.4</ele>
        <time>2022-06-26T04:39:37Z</time>
      </trkpt>
      <trkpt lat="46.04865" lon="4.57792">
        <ele>346.4</ele>
        <time>2022-06-26T04:39:38Z</time>
      </trkpt>
      <trkpt lat="46.0486" lon="4.57791">
        <ele>346.4</ele>
        <time>2022-06-26T04:39:39Z</time>
      </trkpt>
      <trkpt lat="46.04856" lon="4.57792">
        <ele>346.2</ele>
        <time>2022-06-26T04:39:40Z</time>
      </trkpt>
      <trkpt lat="46.04852" lon="4.57794">
        <ele>346.2</ele>
        <time>2022-06-26T04:39:41Z</time>
      </trkpt>
      <trkpt lat="46.04848" lon="4.57796">
        <ele>346.2</ele>
        <time>2022-06-26T04:39:42Z</time>
      </trkpt>
      <trkpt lat="46.04844" lon="4.57798">
        <ele>346.2</ele>
        <time>2022-06-26T04:39:43Z</time>
      </trkpt>
      <trkpt lat="46.04841" lon="4.578">
        <ele>346.6</ele>
        <time>2022-06-26T04:39:44Z</time>
      </trkpt>
      <trkpt lat="46.04837" lon="4.57802">
        <ele>346.6</ele>
        <time>2022-06-26T04:39:45Z</time>
      </trkpt>
      <trkpt lat="46.04834" lon="4.57804">
        <ele>346.8</ele>
        <time>2022-06-26T04:39:46Z</time>
      </trkpt>
      <trkpt lat="46.04832" lon="4.57806">
        <ele>346.8</ele>
        <time>2022-06-26T04:39:47Z</time>
      </trkpt>
      <trkpt lat="46.04829" lon="4.57807">
        <ele>347.2</ele>
        <time>2022-06-26T04:39:48Z</time>
      </trkpt>
      <trkpt lat="46.04826" lon="4.57809">
        <ele>347.6</ele>
        <time>2022-06-26T04:39:49Z</time>
      </trkpt>
      <trkpt lat="46.04824" lon="4.5781">
        <ele>347.8</ele>
        <time>2022-06-26T04:39:50Z</time>
      </trkpt>
      <trkpt lat="46.04821" lon="4.57812">
        <ele>348</ele>
        <time>2022-06-26T04:39:51Z</time>
      </trkpt>
      <trkpt lat="46.04819" lon="4.57813">
        <ele>348.2</ele>
        <time>2022-06-26T04:39:52Z</time>
      </trkpt>
      <trkpt lat="46.04817" lon="4.57814">
        <ele>348.6</ele>
        <time>2022-06-26T04:39:53Z</time>
      </trkpt>
      <trkpt lat="46.04814" lon="4.57816">
        <ele>348.6</ele>
        <time>2022-06-26T04:39:54Z</time>
      </trkpt>
      <trkpt lat="46.04812" lon="4.57817">
        <ele>349</ele>
        <time>2022-06-26T04:39:55Z</time>
      </trkpt>
      <trkpt lat="46.0481" lon="4.57817">
        <ele>349.4</ele>
        <time>2022-06-26T04:39:56Z</time>
      </trkpt>
      <trkpt lat="46.04807" lon="4.57818">
        <ele>349.6</ele>
        <time>2022-06-26T04:39:57Z</time>
      </trkpt>
      <trkpt lat="46.04805" lon="4.57819">
        <ele>350</ele>
        <time>2022-06-26T04:39:58Z</time>
      </trkpt>
      <trkpt lat="46.04803" lon="4.57821">
        <ele>350.2</ele>
        <time>2022-06-26T04:39:59Z</time>
      </trkpt>
      <trkpt lat="46.04801" lon="4.57823">
        <ele>350.6</ele>
        <time>2022-06-26T04:40:00Z</time>
      </trkpt>
      <trkpt lat="46.04799" lon="4.57824">
        <ele>350.8</ele>
        <time>2022-06-26T04:40:01Z</time>
      </trkpt>
      <trkpt lat="46.04796" lon="4.57824">
        <ele>351</ele>
        <time>2022-06-26T04:40:02Z</time>
      </trkpt>
      <trkpt lat="46.04794" lon="4.57824">
        <ele>351.4</ele>
        <time>2022-06-26T04:40:03Z</time>
      </trkpt>
      <trkpt lat="46.04792" lon="4.57823">
        <ele>351.8</ele>
        <time>2022-06-26T04:40:04Z</time>
      </trkpt>
      <trkpt lat="46.04791" lon="4.57821">
        <ele>352</ele>
        <time>2022-06-26T04:40:05Z</time>
      </trkpt>
      <trkpt lat="46.0479" lon="4.57818">
        <ele>352.2</ele>
        <time>2022-06-26T04:40:06Z</time>
      </trkpt>
      <trkpt lat="46.04789" lon="4.57815">
        <ele>352.2</ele>
        <time>2022-06-26T04:40:07Z</time>
      </trkpt>
      <trkpt lat="46.0479" lon="4.57812">
        <ele>352.6</ele>
        <time>2022-06-26T04:40:08Z</time>
      </trkpt>
      <trkpt lat="46.04792" lon="4.57809">
        <ele>352.8</ele>
        <time>2022-06-26T04:40:09Z</time>
      </trkpt>
      <trkpt lat="46.04793" lon="4.57806">
        <ele>353.2</ele>
        <time>2022-06-26T04:40:10Z</time>
      </trkpt>
      <trkpt lat="46.04795" lon="4.57804">
        <ele>353.4</ele>
        <time>2022-06-26T04:40:11Z</time>
      </trkpt>
      <trkpt lat="46.04797" lon="4.57801">
        <ele>353.8</ele>
        <time>2022-06-26T04:40:12Z</time>
      </trkpt>
      <trkpt lat="46.04798" lon="4.57799">
        <ele>354</ele>
        <time>2022-06-26T04:40:13Z</time>
      </trkpt>
      <trkpt lat="46.04799" lon="4.57796">
        <ele>354.4</ele>
        <time>2022-06-26T04:40:14Z</time>
      </trkpt>
      <trkpt lat="46.048" lon="4.57793">
        <ele>354.8</ele>
        <time>2022-06-26T04:40:15Z</time>
      </trkpt>
      <trkpt lat="46.04801" lon="4.5779">
        <ele>355</ele>
        <time>2022-06-26T04:40:16Z</time>
      </trkpt>
      <trkpt lat="46.04802" lon="4.57787">
        <ele>355.4</ele>
        <time>2022-06-26T04:40:17Z</time>
      </trkpt>
      <trkpt lat="46.04803" lon="4.57784">
        <ele>355.6</ele>
        <time>2022-06-26T04:40:18Z</time>
      </trkpt>
      <trkpt lat="46.04804" lon="4.57781">
        <ele>356</ele>
        <time>2022-06-26T04:40:19Z</time>
      </trkpt>
      <trkpt lat="46.04805" lon="4.57778">
        <ele>356.2</ele>
        <time>2022-06-26T04:40:20Z</time>
      </trkpt>
      <trkpt lat="46.04805" lon="4.57775">
        <ele>356.6</ele>
        <time>2022-06-26T04:40:21Z</time>
      </trkpt>
      <trkpt lat="46.04806" lon="4.57772">
        <ele>356.6</ele>
        <time>2022-06-26T04:40:22Z</time>
      </trkpt>
      <trkpt lat="46.04806" lon="4.57769">
        <ele>357</ele>
        <time>2022-06-26T04:40:23Z</time>
      </trkpt>
      <trkpt lat="46.04807" lon="4.57766">
        <ele>357.2</ele>
        <time>2022-06-26T04:40:24Z</time>
      </trkpt>
      <trkpt lat="46.04807" lon="4.57764">
        <ele>357.6</ele>
        <time>2022-06-26T04:40:25Z</time>
      </trkpt>
      <trkpt lat="46.04807" lon="4.57763">
        <ele>357.6</ele>
        <time>2022-06-26T04:40:26Z</time>
      </trkpt>
      <trkpt lat="46.04807" lon="4.5776">
        <ele>357.8</ele>
        <time>2022-06-26T04:40:27Z</time>
      </trkpt>
      <trkpt lat="46.04808" lon="4.57757">
        <ele>358.2</ele>
        <time>2022-06-26T04:40:28Z</time>
      </trkpt>
      <trkpt lat="46.04808" lon="4.57753">
        <ele>358.4</ele>
        <time>2022-06-26T04:40:29Z</time>
      </trkpt>
      <trkpt lat="46.04809" lon="4.5775">
        <ele>358.4</ele>
        <time>2022-06-26T04:40:30Z</time>
      </trkpt>
      <trkpt lat="46.04809" lon="4.57747">
        <ele>358.6</ele>
        <time>2022-06-26T04:40:31Z</time>
      </trkpt>
      <trkpt lat="46.04809" lon="4.57743">
        <ele>358.6</ele>
        <time>2022-06-26T04:40:32Z</time>
      </trkpt>
      <trkpt lat="46.04809" lon="4.5774">
        <ele>359</ele>
        <time>2022-06-26T04:40:33Z</time>
      </trkpt>
      <trkpt lat="46.04809" lon="4.57736">
        <ele>359</ele>
        <time>2022-06-26T04:40:34Z</time>
      </trkpt>
      <trkpt lat="46.04809" lon="4.57732">
        <ele>359.2</ele>
        <time>2022-06-26T04:40:35Z</time>
      </trkpt>
      <trkpt lat="46.04809" lon="4.57729">
        <ele>359.2</ele>
        <time>2022-06-26T04:40:36Z</time>
      </trkpt>
      <trkpt lat="46.04808" lon="4.57725">
        <ele>359.6</ele>
        <time>2022-06-26T04:40:37Z</time>
      </trkpt>
      <trkpt lat="46.04808" lon="4.57722">
        <ele>359.6</ele>
        <time>2022-06-26T04:40:38Z</time>
      </trkpt>
      <trkpt lat="46.04807" lon="4.57719">
        <ele>359.8</ele>
        <time>2022-06-26T04:40:39Z</time>
      </trkpt>
      <trkpt lat="46.04807" lon="4.57716">
        <ele>360</ele>
        <time>2022-06-26T04:40:40Z</time>
      </trkpt>
      <trkpt lat="46.04806" lon="4.57712">
        <ele>360.2</ele>
        <time>2022-06-26T04:40:41Z</time>
      </trkpt>
      <trkpt lat="46.04806" lon="4.57709">
        <ele>360.2</ele>
        <time>2022-06-26T04:40:42Z</time>
      </trkpt>
      <trkpt lat="46.04805" lon="4.57705">
        <ele>360.6</ele>
        <time>2022-06-26T04:40:43Z</time>
      </trkpt>
      <trkpt lat="46.04804" lon="4.57701">
        <ele>360.6</ele>
        <time>2022-06-26T04:40:44Z</time>
      </trkpt>
      <trkpt lat="46.04803" lon="4.57698">
        <ele>360.8</ele>
        <time>2022-06-26T04:40:45Z</time>
      </trkpt>
      <trkpt lat="46.04801" lon="4.57694">
        <ele>361.2</ele>
        <time>2022-06-26T04:40:46Z</time>
      </trkpt>
      <trkpt lat="46.048" lon="4.57691">
        <ele>361.2</ele>
        <time>2022-06-26T04:40:47Z</time>
      </trkpt>
      <trkpt lat="46.04799" lon="4.57688">
        <ele>361.4</ele>
        <time>2022-06-26T04:40:48Z</time>
      </trkpt>
      <trkpt lat="46.04798" lon="4.57685">
        <ele>361.6</ele>
        <time>2022-06-26T04:40:49Z</time>
      </trkpt>
      <trkpt lat="46.04797" lon="4.57681">
        <ele>361.8</ele>
        <time>2022-06-26T04:40:50Z</time>
      </trkpt>
      <trkpt lat="46.04795" lon="4.57678">
        <ele>362</ele>
        <time>2022-06-26T04:40:51Z</time>
      </trkpt>
      <trkpt lat="46.04794" lon="4.57675">
        <ele>362.4</ele>
        <time>2022-06-26T04:40:52Z</time>
      </trkpt>
      <trkpt lat="46.04792" lon="4.57673">
        <ele>362.6</ele>
        <time>2022-06-26T04:40:53Z</time>
      </trkpt>
      <trkpt lat="46.04791" lon="4.5767">
        <ele>362.8</ele>
        <time>2022-06-26T04:40:54Z</time>
      </trkpt>
      <trkpt lat="46.0479" lon="4.57667">
        <ele>363</ele>
        <time>2022-06-26T04:40:55Z</time>
      </trkpt>
      <trkpt lat="46.04788" lon="4.57665">
        <ele>363</ele>
        <time>2022-06-26T04:40:56Z</time>
      </trkpt>
      <trkpt lat="46.04787" lon="4.57662">
        <ele>363.4</ele>
        <time>2022-06-26T04:40:57Z</time>
      </trkpt>
      <trkpt lat="46.04785" lon="4.5766">
        <ele>363.4</ele>
        <time>2022-06-26T04:40:58Z</time>
      </trkpt>
      <trkpt lat="46.04783" lon="4.57658">
        <ele>364</ele>
        <time>2022-06-26T04:40:59Z</time>
      </trkpt>
      <trkpt lat="46.04781" lon="4.57656">
        <ele>364</ele>
        <time>2022-06-26T04:41:00Z</time>
      </trkpt>
      <trkpt lat="46.0478" lon="4.57654">
        <ele>364.2</ele>
        <time>2022-06-26T04:41:01Z</time>
      </trkpt>
      <trkpt lat="46.04778" lon="4.57653">
        <ele>364.4</ele>
        <time>2022-06-26T04:41:02Z</time>
      </trkpt>
      <trkpt lat="46.04776" lon="4.57651">
        <ele>364.6</ele>
        <time>2022-06-26T04:41:03Z</time>
      </trkpt>
      <trkpt lat="46.04774" lon="4.57649">
        <ele>364.6</ele>
        <time>2022-06-26T04:41:04Z</time>
      </trkpt>
      <trkpt lat="46.04772" lon="4.57648">
        <ele>364.8</ele>
        <time>2022-06-26T04:41:05Z</time>
      </trkpt>
      <trkpt lat="46.0477" lon="4.57646">
        <ele>364.8</ele>
        <time>2022-06-26T04:41:06Z</time>
      </trkpt>
      <trkpt lat="46.04768" lon="4.57644">
        <ele>365.2</ele>
        <time>2022-06-26T04:41:07Z</time>
      </trkpt>
      <trkpt lat="46.04766" lon="4.57643">
        <ele>365.4</ele>
        <time>2022-06-26T04:41:08Z</time>
      </trkpt>
      <trkpt lat="46.04764" lon="4.57641">
        <ele>365.8</ele>
        <time>2022-06-26T04:41:09Z</time>
      </trkpt>
      <trkpt lat="46.04762" lon="4.57639">
        <ele>366</ele>
        <time>2022-06-26T04:41:10Z</time>
      </trkpt>
      <trkpt lat="46.0476" lon="4.57637">
        <ele>366.2</ele>
        <time>2022-06-26T04:41:11Z</time>
      </trkpt>
      <trkpt lat="46.04758" lon="4.57635">
        <ele>366.2</ele>
        <time>2022-06-26T04:41:12Z</time>
      </trkpt>
      <trkpt lat="46.04756" lon="4.57634">
        <ele>366.6</ele>
        <time>2022-06-26T04:41:13Z</time>
      </trkpt>
      <trkpt lat="46.04754" lon="4.57632">
        <ele>366.8</ele>
        <time>2022-06-26T04:41:14Z</time>
      </trkpt>
      <trkpt lat="46.04752" lon="4.5763">
        <ele>366.8</ele>
        <time>2022-06-26T04:41:15Z</time>
      </trkpt>
      <trkpt lat="46.04751" lon="4.57629">
        <ele>367.2</ele>
        <time>2022-06-26T04:41:16Z</time>
      </trkpt>
      <trkpt lat="46.04749" lon="4.57627">
        <ele>367.6</ele>
        <time>2022-06-26T04:41:17Z</time>
      </trkpt>
      <trkpt lat="46.04747" lon="4.57626">
        <ele>367.8</ele>
        <time>2022-06-26T04:41:18Z</time>
      </trkpt>
      <trkpt lat="46.04746" lon="4.57624">
        <ele>368.2</ele>
        <time>2022-06-26T04:41:19Z</time>
      </trkpt>
      <trkpt lat="46.04744" lon="4.57622">
        <ele>368.4</ele>
        <time>2022-06-26T04:41:20Z</time>
      </trkpt>
      <trkpt lat="46.04743" lon="4.5762">
        <ele>368.4</ele>
        <time>2022-06-26T04:41:21Z</time>
      </trkpt>
      <trkpt lat="46.04741" lon="4.57618">
        <ele>368.8</ele>
        <time>2022-06-26T04:41:22Z</time>
      </trkpt>
      <trkpt lat="46.04739" lon="4.57616">
        <ele>369</ele>
        <time>2022-06-26T04:41:23Z</time>
      </trkpt>
      <trkpt lat="46.04738" lon="4.57614">
        <ele>369</ele>
        <time>2022-06-26T04:41:24Z</time>
      </trkpt>
      <trkpt lat="46.04737" lon="4.57612">
        <ele>369.2</ele>
        <time>2022-06-26T04:41:25Z</time>
      </trkpt>
      <trkpt lat="46.04735" lon="4.57609">
        <ele>369.4</ele>
        <time>2022-06-26T04:41:26Z</time>
      </trkpt>
      <trkpt lat="46.04734" lon="4.57607">
        <ele>369.6</ele>
        <time>2022-06-26T04:41:27Z</time>
      </trkpt>
      <trkpt lat="46.04733" lon="4.57604">
        <ele>369.8</ele>
        <time>2022-06-26T04:41:28Z</time>
      </trkpt>
      <trkpt lat="46.04732" lon="4.57602">
        <ele>370.2</ele>
        <time>2022-06-26T04:41:29Z</time>
      </trkpt>
      <trkpt lat="46.0473" lon="4.57599">
        <ele>370.2</ele>
        <time>2022-06-26T04:41:30Z</time>
      </trkpt>
      <trkpt lat="46.04729" lon="4.57596">
        <ele>370.6</ele>
        <time>2022-06-26T04:41:31Z</time>
      </trkpt>
      <trkpt lat="46.04728" lon="4.57594">
        <ele>370.6</ele>
        <time>2022-06-26T04:41:32Z</time>
      </trkpt>
      <trkpt lat="46.04727" lon="4.57591">
        <ele>370.8</ele>
        <time>2022-06-26T04:41:33Z</time>
      </trkpt>
      <trkpt lat="46.04725" lon="4.57588">
        <ele>371</ele>
        <time>2022-06-26T04:41:34Z</time>
      </trkpt>
      <trkpt lat="46.04724" lon="4.57586">
        <ele>371.2</ele>
        <time>2022-06-26T04:41:35Z</time>
      </trkpt>
      <trkpt lat="46.04723" lon="4.57583">
        <ele>371.6</ele>
        <time>2022-06-26T04:41:36Z</time>
      </trkpt>
      <trkpt lat="46.04722" lon="4.57581">
        <ele>371.6</ele>
        <time>2022-06-26T04:41:37Z</time>
      </trkpt>
      <trkpt lat="46.0472" lon="4.57578">
        <ele>372</ele>
        <time>2022-06-26T04:41:38Z</time>
      </trkpt>
      <trkpt lat="46.04719" lon="4.57576">
        <ele>372.2</ele>
        <time>2022-06-26T04:41:39Z</time>
      </trkpt>
      <trkpt lat="46.04718" lon="4.57573">
        <ele>372.2</ele>
        <time>2022-06-26T04:41:40Z</time>
      </trkpt>
      <trkpt lat="46.04716" lon="4.57571">
        <ele>372.6</ele>
        <time>2022-06-26T04:41:41Z</time>
      </trkpt>
      <trkpt lat="46.04715" lon="4.57568">
        <ele>372.8</ele>
        <time>2022-06-26T04:41:42Z</time>
      </trkpt>
      <trkpt lat="46.04714" lon="4.57566">
        <ele>373</ele>
        <time>2022-06-26T04:41:43Z</time>
      </trkpt>
      <trkpt lat="46.04713" lon="4.57563">
        <ele>373.4</ele>
        <time>2022-06-26T04:41:44Z</time>
      </trkpt>
      <trkpt lat="46.04712" lon="4.57561">
        <ele>373.6</ele>
        <time>2022-06-26T04:41:45Z</time>
      </trkpt>
      <trkpt lat="46.04711" lon="4.57558">
        <ele>373.8</ele>
        <time>2022-06-26T04:41:46Z</time>
      </trkpt>
      <trkpt lat="46.04711" lon="4.57555">
        <ele>374</ele>
        <time>2022-06-26T04:41:47Z</time>
      </trkpt>
      <trkpt lat="46.0471" lon="4.57553">
        <ele>374</ele>
        <time>2022-06-26T04:41:48Z</time>
      </trkpt>
      <trkpt lat="46.04709" lon="4.5755">
        <ele>374.4</ele>
        <time>2022-06-26T04:41:49Z</time>
      </trkpt>
      <trkpt lat="46.04708" lon="4.57548">
        <ele>374.4</ele>
        <time>2022-06-26T04:41:50Z</time>
      </trkpt>
      <trkpt lat="46.04707" lon="4.57546">
        <ele>374.8</ele>
        <time>2022-06-26T04:41:51Z</time>
      </trkpt>
      <trkpt lat="46.04706" lon="4.57544">
        <ele>375</ele>
        <time>2022-06-26T04:41:52Z</time>
      </trkpt>
      <trkpt lat="46.04705" lon="4.57541">
        <ele>375.2</ele>
        <time>2022-06-26T04:41:53Z</time>
      </trkpt>
      <trkpt lat="46.04705" lon="4.57539">
        <ele>375.2</ele>
        <time>2022-06-26T04:41:54Z</time>
      </trkpt>
      <trkpt lat="46.04704" lon="4.57536">
        <ele>375.6</ele>
        <time>2022-06-26T04:41:55Z</time>
      </trkpt>
      <trkpt lat="46.04704" lon="4.57534">
        <ele>375.6</ele>
        <time>2022-06-26T04:41:56Z</time>
      </trkpt>
      <trkpt lat="46.04703" lon="4.57531">
        <ele>375.8</ele>
        <time>2022-06-26T04:41:57Z</time>
      </trkpt>
      <trkpt lat="46.04703" lon="4.57528">
        <ele>375.8</ele>
        <time>2022-06-26T04:41:58Z</time>
      </trkpt>
      <trkpt lat="46.04702" lon="4.57525">
        <ele>376.2</ele>
        <time>2022-06-26T04:41:59Z</time>
      </trkpt>
      <trkpt lat="46.04701" lon="4.57523">
        <ele>376.4</ele>
        <time>2022-06-26T04:42:00Z</time>
      </trkpt>
      <trkpt lat="46.04701" lon="4.5752">
        <ele>376.6</ele>
        <time>2022-06-26T04:42:01Z</time>
      </trkpt>
      <trkpt lat="46.047" lon="4.57517">
        <ele>376.6</ele>
        <time>2022-06-26T04:42:02Z</time>
      </trkpt>
      <trkpt lat="46.04699" lon="4.57514">
        <ele>377</ele>
        <time>2022-06-26T04:42:03Z</time>
      </trkpt>
      <trkpt lat="46.04698" lon="4.57512">
        <ele>377</ele>
        <time>2022-06-26T04:42:04Z</time>
      </trkpt>
      <trkpt lat="46.04698" lon="4.57509">
        <ele>377.2</ele>
        <time>2022-06-26T04:42:05Z</time>
      </trkpt>
      <trkpt lat="46.04697" lon="4.57506">
        <ele>377.2</ele>
        <time>2022-06-26T04:42:06Z</time>
      </trkpt>
      <trkpt lat="46.04696" lon="4.57503">
        <ele>377.6</ele>
        <time>2022-06-26T04:42:07Z</time>
      </trkpt>
      <trkpt lat="46.04696" lon="4.575">
        <ele>377.6</ele>
        <time>2022-06-26T04:42:08Z</time>
      </trkpt>
      <trkpt lat="46.04695" lon="4.57497">
        <ele>378</ele>
        <time>2022-06-26T04:42:09Z</time>
      </trkpt>
      <trkpt lat="46.04695" lon="4.57494">
        <ele>378</ele>
        <time>2022-06-26T04:42:10Z</time>
      </trkpt>
      <trkpt lat="46.04694" lon="4.57492">
        <ele>378.2</ele>
        <time>2022-06-26T04:42:11Z</time>
      </trkpt>
      <trkpt lat="46.04694" lon="4.57489">
        <ele>378.2</ele>
        <time>2022-06-26T04:42:12Z</time>
      </trkpt>
      <trkpt lat="46.04693" lon="4.57486">
        <ele>378.6</ele>
        <time>2022-06-26T04:42:13Z</time>
      </trkpt>
      <trkpt lat="46.04692" lon="4.57483">
        <ele>378.8</ele>
        <time>2022-06-26T04:42:14Z</time>
      </trkpt>
      <trkpt lat="46.04691" lon="4.57481">
        <ele>379</ele>
        <time>2022-06-26T04:42:15Z</time>
      </trkpt>
      <trkpt lat="46.04691" lon="4.57478">
        <ele>379.2</ele>
        <time>2022-06-26T04:42:16Z</time>
      </trkpt>
      <trkpt lat="46.0469" lon="4.57475">
        <ele>379.2</ele>
        <time>2022-06-26T04:42:17Z</time>
      </trkpt>
      <trkpt lat="46.04689" lon="4.57472">
        <ele>379.6</ele>
        <time>2022-06-26T04:42:18Z</time>
      </trkpt>
      <trkpt lat="46.04688" lon="4.5747">
        <ele>379.6</ele>
        <time>2022-06-26T04:42:19Z</time>
      </trkpt>
      <trkpt lat="46.04687" lon="4.57467">
        <ele>379.8</ele>
        <time>2022-06-26T04:42:20Z</time>
      </trkpt>
      <trkpt lat="46.04686" lon="4.57464">
        <ele>380</ele>
        <time>2022-06-26T04:42:21Z</time>
      </trkpt>
      <trkpt lat="46.04685" lon="4.57462">
        <ele>380</ele>
        <time>2022-06-26T04:42:22Z</time>
      </trkpt>
      <trkpt lat="46.04684" lon="4.5746">
        <ele>380.2</ele>
        <time>2022-06-26T04:42:23Z</time>
      </trkpt>
      <trkpt lat="46.04684" lon="4.57457">
        <ele>380.2</ele>
        <time>2022-06-26T04:42:24Z</time>
      </trkpt>
      <trkpt lat="46.04683" lon="4.57454">
        <ele>380.4</ele>
        <time>2022-06-26T04:42:25Z</time>
      </trkpt>
      <trkpt lat="46.04682" lon="4.57451">
        <ele>380.4</ele>
        <time>2022-06-26T04:42:26Z</time>
      </trkpt>
      <trkpt lat="46.04681" lon="4.57448">
        <ele>380.8</ele>
        <time>2022-06-26T04:42:27Z</time>
      </trkpt>
      <trkpt lat="46.0468" lon="4.57445">
        <ele>380.8</ele>
        <time>2022-06-26T04:42:28Z</time>
      </trkpt>
      <trkpt lat="46.04678" lon="4.57443">
        <ele>381.2</ele>
        <time>2022-06-26T04:42:29Z</time>
      </trkpt>
      <trkpt lat="46.04677" lon="4.5744">
        <ele>381.2</ele>
        <time>2022-06-26T04:42:30Z</time>
      </trkpt>
      <trkpt lat="46.04676" lon="4.57437">
        <ele>381.4</ele>
        <time>2022-06-26T04:42:31Z</time>
      </trkpt>
      <trkpt lat="46.04675" lon="4.57435">
        <ele>381.4</ele>
        <time>2022-06-26T04:42:32Z</time>
      </trkpt>
      <trkpt lat="46.04673" lon="4.57432">
        <ele>381.8</ele>
        <time>2022-06-26T04:42:33Z</time>
      </trkpt>
      <trkpt lat="46.04672" lon="4.5743">
        <ele>381.8</ele>
        <time>2022-06-26T04:42:34Z</time>
      </trkpt>
      <trkpt lat="46.04671" lon="4.57427">
        <ele>382.2</ele>
        <time>2022-06-26T04:42:35Z</time>
      </trkpt>
      <trkpt lat="46.0467" lon="4.57425">
        <ele>382.2</ele>
        <time>2022-06-26T04:42:36Z</time>
      </trkpt>
      <trkpt lat="46.04669" lon="4.57422">
        <ele>382.4</ele>
        <time>2022-06-26T04:42:37Z</time>
      </trkpt>
      <trkpt lat="46.04668" lon="4.5742">
        <ele>382.4</ele>
        <time>2022-06-26T04:42:38Z</time>
      </trkpt>
      <trkpt lat="46.04667" lon="4.57417">
        <ele>382.8</ele>
        <time>2022-06-26T04:42:39Z</time>
      </trkpt>
      <trkpt lat="46.04665" lon="4.57415">
        <ele>382.8</ele>
        <time>2022-06-26T04:42:40Z</time>
      </trkpt>
      <trkpt lat="46.04664" lon="4.57414">
        <ele>383</ele>
        <time>2022-06-26T04:42:41Z</time>
      </trkpt>
      <trkpt lat="46.04662" lon="4.57412">
        <ele>383.2</ele>
        <time>2022-06-26T04:42:42Z</time>
      </trkpt>
      <trkpt lat="46.0466" lon="4.57411">
        <ele>383.2</ele>
        <time>2022-06-26T04:42:43Z</time>
      </trkpt>
      <trkpt lat="46.04659" lon="4.5741">
        <ele>383.6</ele>
        <time>2022-06-26T04:42:44Z</time>
      </trkpt>
      <trkpt lat="46.04657" lon="4.57409">
        <ele>383.6</ele>
        <time>2022-06-26T04:42:45Z</time>
      </trkpt>
      <trkpt lat="46.04655" lon="4.57408">
        <ele>384</ele>
        <time>2022-06-26T04:42:46Z</time>
      </trkpt>
      <trkpt lat="46.04653" lon="4.57407">
        <ele>384</ele>
        <time>2022-06-26T04:42:47Z</time>
      </trkpt>
      <trkpt lat="46.04651" lon="4.57406">
        <ele>384.4</ele>
        <time>2022-06-26T04:42:48Z</time>
      </trkpt>
      <trkpt lat="46.04649" lon="4.57405">
        <ele>384.6</ele>
        <time>2022-06-26T04:42:49Z</time>
      </trkpt>
      <trkpt lat="46.04648" lon="4.57403">
        <ele>384.6</ele>
        <time>2022-06-26T04:42:50Z</time>
      </trkpt>
      <trkpt lat="46.04646" lon="4.57401">
        <ele>385</ele>
        <time>2022-06-26T04:42:51Z</time>
      </trkpt>
      <trkpt lat="46.04644" lon="4.574">
        <ele>385.2</ele>
        <time>2022-06-26T04:42:52Z</time>
      </trkpt>
      <trkpt lat="46.04642" lon="4.57399">
        <ele>385.4</ele>
        <time>2022-06-26T04:42:53Z</time>
      </trkpt>
      <trkpt lat="46.04639" lon="4.57398">
        <ele>385.4</ele>
        <time>2022-06-26T04:42:54Z</time>
      </trkpt>
      <trkpt lat="46.04637" lon="4.57397">
        <ele>385.8</ele>
        <time>2022-06-26T04:42:55Z</time>
      </trkpt>
      <trkpt lat="46.04635" lon="4.57397">
        <ele>386</ele>
        <time>2022-06-26T04:42:56Z</time>
      </trkpt>
      <trkpt lat="46.04633" lon="4.57397">
        <ele>386.4</ele>
        <time>2022-06-26T04:42:57Z</time>
      </trkpt>
      <trkpt lat="46.04628" lon="4.57396">
        <ele>386.4</ele>
        <time>2022-06-26T04:42:58Z</time>
      </trkpt>
      <trkpt lat="46.04625" lon="4.57396">
        <ele>386.8</ele>
        <time>2022-06-26T04:42:59Z</time>
      </trkpt>
      <trkpt lat="46.04623" lon="4.57396">
        <ele>387</ele>
        <time>2022-06-26T04:43:00Z</time>
      </trkpt>
      <trkpt lat="46.04621" lon="4.57396">
        <ele>387</ele>
        <time>2022-06-26T04:43:01Z</time>
      </trkpt>
      <trkpt lat="46.04618" lon="4.57396">
        <ele>387.4</ele>
        <time>2022-06-26T04:43:02Z</time>
      </trkpt>
      <trkpt lat="46.04616" lon="4.57396">
        <ele>387.4</ele>
        <time>2022-06-26T04:43:03Z</time>
      </trkpt>
      <trkpt lat="46.04614" lon="4.57395">
        <ele>387.6</ele>
        <time>2022-06-26T04:43:04Z</time>
      </trkpt>
      <trkpt lat="46.04611" lon="4.57395">
        <ele>387.6</ele>
        <time>2022-06-26T04:43:05Z</time>
      </trkpt>
      <trkpt lat="46.04609" lon="4.57395">
        <ele>388</ele>
        <time>2022-06-26T04:43:06Z</time>
      </trkpt>
      <trkpt lat="46.04607" lon="4.57395">
        <ele>388</ele>
        <time>2022-06-26T04:43:07Z</time>
      </trkpt>
      <trkpt lat="46.04604" lon="4.57395">
        <ele>388.4</ele>
        <time>2022-06-26T04:43:08Z</time>
      </trkpt>
      <trkpt lat="46.04602" lon="4.57395">
        <ele>388.4</ele>
        <time>2022-06-26T04:43:09Z</time>
      </trkpt>
      <trkpt lat="46.04599" lon="4.57394">
        <ele>388.6</ele>
        <time>2022-06-26T04:43:10Z</time>
      </trkpt>
      <trkpt lat="46.04597" lon="4.57394">
        <ele>388.6</ele>
        <time>2022-06-26T04:43:11Z</time>
      </trkpt>
      <trkpt lat="46.04595" lon="4.57392">
        <ele>389</ele>
        <time>2022-06-26T04:43:12Z</time>
      </trkpt>
      <trkpt lat="46.04593" lon="4.57391">
        <ele>389</ele>
        <time>2022-06-26T04:43:13Z</time>
      </trkpt>
      <trkpt lat="46.0459" lon="4.5739">
        <ele>389.4</ele>
        <time>2022-06-26T04:43:14Z</time>
      </trkpt>
      <trkpt lat="46.04588" lon="4.57389">
        <ele>389.4</ele>
        <time>2022-06-26T04:43:15Z</time>
      </trkpt>
      <trkpt lat="46.04586" lon="4.57388">
        <ele>389.8</ele>
        <time>2022-06-26T04:43:16Z</time>
      </trkpt>
      <trkpt lat="46.04584" lon="4.57387">
        <ele>390</ele>
        <time>2022-06-26T04:43:17Z</time>
      </trkpt>
      <trkpt lat="46.04581" lon="4.57386">
        <ele>390</ele>
        <time>2022-06-26T04:43:18Z</time>
      </trkpt>
      <trkpt lat="46.0458" lon="4.57384">
        <ele>390.2</ele>
        <time>2022-06-26T04:43:19Z</time>
      </trkpt>
      <trkpt lat="46.04578" lon="4.57383">
        <ele>390.2</ele>
        <time>2022-06-26T04:43:20Z</time>
      </trkpt>
      <trkpt lat="46.04576" lon="4.57381">
        <ele>390.6</ele>
        <time>2022-06-26T04:43:21Z</time>
      </trkpt>
      <trkpt lat="46.04574" lon="4.5738">
        <ele>390.6</ele>
        <time>2022-06-26T04:43:22Z</time>
      </trkpt>
      <trkpt lat="46.04572" lon="4.57379">
        <ele>391</ele>
        <time>2022-06-26T04:43:23Z</time>
      </trkpt>
      <trkpt lat="46.0457" lon="4.57377">
        <ele>391.2</ele>
        <time>2022-06-26T04:43:24Z</time>
      </trkpt>
      <trkpt lat="46.04568" lon="4.57375">
        <ele>391.2</ele>
        <time>2022-06-26T04:43:25Z</time>
      </trkpt>
      <trkpt lat="46.04566" lon="4.57373">
        <ele>391.4</ele>
        <time>2022-06-26T04:43:26Z</time>
      </trkpt>
      <trkpt lat="46.04564" lon="4.57372">
        <ele>391.4</ele>
        <time>2022-06-26T04:43:27Z</time>
      </trkpt>
      <trkpt lat="46.04562" lon="4.5737">
        <ele>391.8</ele>
        <time>2022-06-26T04:43:28Z</time>
      </trkpt>
      <trkpt lat="46.0456" lon="4.57368">
        <ele>391.8</ele>
        <time>2022-06-26T04:43:29Z</time>
      </trkpt>
      <trkpt lat="46.04559" lon="4.57366">
        <ele>392.2</ele>
        <time>2022-06-26T04:43:30Z</time>
      </trkpt>
      <trkpt lat="46.04557" lon="4.57364">
        <ele>392.4</ele>
        <time>2022-06-26T04:43:31Z</time>
      </trkpt>
      <trkpt lat="46.04556" lon="4.57362">
        <ele>392.6</ele>
        <time>2022-06-26T04:43:32Z</time>
      </trkpt>
      <trkpt lat="46.04554" lon="4.5736">
        <ele>392.8</ele>
        <time>2022-06-26T04:43:33Z</time>
      </trkpt>
      <trkpt lat="46.04552" lon="4.57358">
        <ele>392.8</ele>
        <time>2022-06-26T04:43:34Z</time>
      </trkpt>
      <trkpt lat="46.04551" lon="4.57356">
        <ele>393.2</ele>
        <time>2022-06-26T04:43:35Z</time>
      </trkpt>
      <trkpt lat="46.04549" lon="4.57354">
        <ele>393.2</ele>
        <time>2022-06-26T04:43:36Z</time>
      </trkpt>
      <trkpt lat="46.04548" lon="4.57352">
        <ele>393.6</ele>
        <time>2022-06-26T04:43:37Z</time>
      </trkpt>
      <trkpt lat="46.04547" lon="4.5735">
        <ele>394</ele>
        <time>2022-06-26T04:43:38Z</time>
      </trkpt>
      <trkpt lat="46.04545" lon="4.57349">
        <ele>394</ele>
        <time>2022-06-26T04:43:39Z</time>
      </trkpt>
      <trkpt lat="46.04543" lon="4.57347">
        <ele>394.2</ele>
        <time>2022-06-26T04:43:40Z</time>
      </trkpt>
      <trkpt lat="46.04542" lon="4.57345">
        <ele>394.4</ele>
        <time>2022-06-26T04:43:41Z</time>
      </trkpt>
      <trkpt lat="46.0454" lon="4.57343">
        <ele>394.4</ele>
        <time>2022-06-26T04:43:42Z</time>
      </trkpt>
      <trkpt lat="46.04539" lon="4.57341">
        <ele>394.8</ele>
        <time>2022-06-26T04:43:43Z</time>
      </trkpt>
      <trkpt lat="46.04537" lon="4.5734">
        <ele>394.8</ele>
        <time>2022-06-26T04:43:44Z</time>
      </trkpt>
      <trkpt lat="46.04536" lon="4.57338">
        <ele>395</ele>
        <time>2022-06-26T04:43:45Z</time>
      </trkpt>
      <trkpt lat="46.04534" lon="4.57337">
        <ele>395</ele>
        <time>2022-06-26T04:43:46Z</time>
      </trkpt>
      <trkpt lat="46.04533" lon="4.57336">
        <ele>395.4</ele>
        <time>2022-06-26T04:43:47Z</time>
      </trkpt>
      <trkpt lat="46.04531" lon="4.57334">
        <ele>395.4</ele>
        <time>2022-06-26T04:43:48Z</time>
      </trkpt>
      <trkpt lat="46.0453" lon="4.57333">
        <ele>395.6</ele>
        <time>2022-06-26T04:43:49Z</time>
      </trkpt>
      <trkpt lat="46.04529" lon="4.57332">
        <ele>395.6</ele>
        <time>2022-06-26T04:43:50Z</time>
      </trkpt>
      <trkpt lat="46.04527" lon="4.57331">
        <ele>396</ele>
        <time>2022-06-26T04:43:51Z</time>
      </trkpt>
      <trkpt lat="46.04526" lon="4.57329">
        <ele>396</ele>
        <time>2022-06-26T04:43:52Z</time>
      </trkpt>
      <trkpt lat="46.04524" lon="4.57328">
        <ele>396.4</ele>
        <time>2022-06-26T04:43:53Z</time>
      </trkpt>
      <trkpt lat="46.04523" lon="4.57326">
        <ele>396.4</ele>
        <time>2022-06-26T04:43:54Z</time>
      </trkpt>
      <trkpt lat="46.04521" lon="4.57325">
        <ele>396.6</ele>
        <time>2022-06-26T04:43:55Z</time>
      </trkpt>
      <trkpt lat="46.04519" lon="4.57324">
        <ele>396.6</ele>
        <time>2022-06-26T04:43:56Z</time>
      </trkpt>
      <trkpt lat="46.04518" lon="4.57323">
        <ele>397</ele>
        <time>2022-06-26T04:43:57Z</time>
      </trkpt>
      <trkpt lat="46.04516" lon="4.57321">
        <ele>397</ele>
        <time>2022-06-26T04:43:58Z</time>
      </trkpt>
      <trkpt lat="46.04514" lon="4.5732">
        <ele>397.4</ele>
        <time>2022-06-26T04:43:59Z</time>
      </trkpt>
      <trkpt lat="46.04512" lon="4.57318">
        <ele>397.4</ele>
        <time>2022-06-26T04:44:00Z</time>
      </trkpt>
      <trkpt lat="46.04511" lon="4.57316">
        <ele>397.6</ele>
        <time>2022-06-26T04:44:01Z</time>
      </trkpt>
      <trkpt lat="46.04509" lon="4.57314">
        <ele>397.8</ele>
        <time>2022-06-26T04:44:02Z</time>
      </trkpt>
      <trkpt lat="46.04506" lon="4.57313">
        <ele>398.2</ele>
        <time>2022-06-26T04:44:03Z</time>
      </trkpt>
      <trkpt lat="46.04505" lon="4.57311">
        <ele>398.4</ele>
        <time>2022-06-26T04:44:04Z</time>
      </trkpt>
      <trkpt lat="46.04503" lon="4.57309">
        <ele>398.4</ele>
        <time>2022-06-26T04:44:05Z</time>
      </trkpt>
      <trkpt lat="46.04501" lon="4.57308">
        <ele>398.6</ele>
        <time>2022-06-26T04:44:06Z</time>
      </trkpt>
      <trkpt lat="46.04499" lon="4.57306">
        <ele>398.6</ele>
        <time>2022-06-26T04:44:07Z</time>
      </trkpt>
      <trkpt lat="46.04497" lon="4.57304">
        <ele>399</ele>
        <time>2022-06-26T04:44:08Z</time>
      </trkpt>
      <trkpt lat="46.04495" lon="4.57303">
        <ele>399</ele>
        <time>2022-06-26T04:44:09Z</time>
      </trkpt>
      <trkpt lat="46.04493" lon="4.57301">
        <ele>399.2</ele>
        <time>2022-06-26T04:44:10Z</time>
      </trkpt>
      <trkpt lat="46.04491" lon="4.57299">
        <ele>399.4</ele>
        <time>2022-06-26T04:44:11Z</time>
      </trkpt>
      <trkpt lat="46.04489" lon="4.57298">
        <ele>399.4</ele>
        <time>2022-06-26T04:44:12Z</time>
      </trkpt>
      <trkpt lat="46.04487" lon="4.57296">
        <ele>399.8</ele>
        <time>2022-06-26T04:44:13Z</time>
      </trkpt>
      <trkpt lat="46.04486" lon="4.57295">
        <ele>400</ele>
        <time>2022-06-26T04:44:14Z</time>
      </trkpt>
      <trkpt lat="46.04484" lon="4.57293">
        <ele>400</ele>
        <time>2022-06-26T04:44:15Z</time>
      </trkpt>
      <trkpt lat="46.04482" lon="4.57292">
        <ele>400.4</ele>
        <time>2022-06-26T04:44:16Z</time>
      </trkpt>
      <trkpt lat="46.0448" lon="4.57291">
        <ele>400.6</ele>
        <time>2022-06-26T04:44:17Z</time>
      </trkpt>
      <trkpt lat="46.04478" lon="4.57289">
        <ele>400.8</ele>
        <time>2022-06-26T04:44:18Z</time>
      </trkpt>
      <trkpt lat="46.04476" lon="4.57287">
        <ele>400.8</ele>
        <time>2022-06-26T04:44:19Z</time>
      </trkpt>
      <trkpt lat="46.04475" lon="4.57285">
        <ele>401.2</ele>
        <time>2022-06-26T04:44:20Z</time>
      </trkpt>
      <trkpt lat="46.04473" lon="4.57282">
        <ele>401.2</ele>
        <time>2022-06-26T04:44:21Z</time>
      </trkpt>
      <trkpt lat="46.04472" lon="4.57279">
        <ele>401.4</ele>
        <time>2022-06-26T04:44:22Z</time>
      </trkpt>
      <trkpt lat="46.04472" lon="4.57276">
        <ele>401.4</ele>
        <time>2022-06-26T04:44:23Z</time>
      </trkpt>
      <trkpt lat="46.04472" lon="4.57273">
        <ele>401.8</ele>
        <time>2022-06-26T04:44:24Z</time>
      </trkpt>
      <trkpt lat="46.04473" lon="4.57269">
        <ele>401.8</ele>
        <time>2022-06-26T04:44:25Z</time>
      </trkpt>
      <trkpt lat="46.04474" lon="4.57267">
        <ele>402</ele>
        <time>2022-06-26T04:44:26Z</time>
      </trkpt>
      <trkpt lat="46.04475" lon="4.57264">
        <ele>402</ele>
        <time>2022-06-26T04:44:27Z</time>
      </trkpt>
      <trkpt lat="46.04477" lon="4.57262">
        <ele>402.2</ele>
        <time>2022-06-26T04:44:28Z</time>
      </trkpt>
      <trkpt lat="46.0448" lon="4.5726">
        <ele>402.2</ele>
        <time>2022-06-26T04:44:29Z</time>
      </trkpt>
      <trkpt lat="46.04482" lon="4.57258">
        <ele>402.6</ele>
        <time>2022-06-26T04:44:30Z</time>
      </trkpt>
      <trkpt lat="46.04485" lon="4.57257">
        <ele>402.6</ele>
        <time>2022-06-26T04:44:31Z</time>
      </trkpt>
      <trkpt lat="46.04488" lon="4.57257">
        <ele>402.6</ele>
        <time>2022-06-26T04:44:32Z</time>
      </trkpt>
      <trkpt lat="46.04491" lon="4.57256">
        <ele>402.6</ele>
        <time>2022-06-26T04:44:33Z</time>
      </trkpt>
      <trkpt lat="46.04494" lon="4.57255">
        <ele>402.8</ele>
        <time>2022-06-26T04:44:34Z</time>
      </trkpt>
      <trkpt lat="46.04497" lon="4.57255">
        <ele>402.8</ele>
        <time>2022-06-26T04:44:35Z</time>
      </trkpt>
      <trkpt lat="46.04499" lon="4.57255">
        <ele>402.8</ele>
        <time>2022-06-26T04:44:36Z</time>
      </trkpt>
      <trkpt lat="46.04502" lon="4.57255">
        <ele>403</ele>
        <time>2022-06-26T04:44:37Z</time>
      </trkpt>
      <trkpt lat="46.04505" lon="4.57254">
        <ele>403</ele>
        <time>2022-06-26T04:44:38Z</time>
      </trkpt>
      <trkpt lat="46.04508" lon="4.57254">
        <ele>403.4</ele>
        <time>2022-06-26T04:44:39Z</time>
      </trkpt>
      <trkpt lat="46.04511" lon="4.57254">
        <ele>403.4</ele>
        <time>2022-06-26T04:44:40Z</time>
      </trkpt>
      <trkpt lat="46.04513" lon="4.57253">
        <ele>403.6</ele>
        <time>2022-06-26T04:44:41Z</time>
      </trkpt>
      <trkpt lat="46.04516" lon="4.57253">
        <ele>403.6</ele>
        <time>2022-06-26T04:44:42Z</time>
      </trkpt>
      <trkpt lat="46.04519" lon="4.57252">
        <ele>403.8</ele>
        <time>2022-06-26T04:44:43Z</time>
      </trkpt>
      <trkpt lat="46.04522" lon="4.57252">
        <ele>403.8</ele>
        <time>2022-06-26T04:44:44Z</time>
      </trkpt>
      <trkpt lat="46.04524" lon="4.57252">
        <ele>404.2</ele>
        <time>2022-06-26T04:44:45Z</time>
      </trkpt>
      <trkpt lat="46.04527" lon="4.57251">
        <ele>404.2</ele>
        <time>2022-06-26T04:44:46Z</time>
      </trkpt>
      <trkpt lat="46.0453" lon="4.57251">
        <ele>404.6</ele>
        <time>2022-06-26T04:44:47Z</time>
      </trkpt>
      <trkpt lat="46.04532" lon="4.5725">
        <ele>404.6</ele>
        <time>2022-06-26T04:44:48Z</time>
      </trkpt>
      <trkpt lat="46.04535" lon="4.57249">
        <ele>405</ele>
        <time>2022-06-26T04:44:49Z</time>
      </trkpt>
      <trkpt lat="46.04537" lon="4.57248">
        <ele>405</ele>
        <time>2022-06-26T04:44:50Z</time>
      </trkpt>
      <trkpt lat="46.04539" lon="4.57246">
        <ele>405.2</ele>
        <time>2022-06-26T04:44:51Z</time>
      </trkpt>
      <trkpt lat="46.04541" lon="4.57243">
        <ele>405.2</ele>
        <time>2022-06-26T04:44:52Z</time>
      </trkpt>
      <trkpt lat="46.04543" lon="4.57241">
        <ele>405.6</ele>
        <time>2022-06-26T04:44:53Z</time>
      </trkpt>
      <trkpt lat="46.04544" lon="4.57238">
        <ele>405.8</ele>
        <time>2022-06-26T04:44:54Z</time>
      </trkpt>
      <trkpt lat="46.04545" lon="4.57234">
        <ele>405.8</ele>
        <time>2022-06-26T04:44:55Z</time>
      </trkpt>
      <trkpt lat="46.04546" lon="4.57231">
        <ele>406.2</ele>
        <time>2022-06-26T04:44:56Z</time>
      </trkpt>
      <trkpt lat="46.04546" lon="4.57228">
        <ele>406.4</ele>
        <time>2022-06-26T04:44:57Z</time>
      </trkpt>
      <trkpt lat="46.04546" lon="4.57225">
        <ele>406.4</ele>
        <time>2022-06-26T04:44:58Z</time>
      </trkpt>
      <trkpt lat="46.04547" lon="4.57222">
        <ele>406.8</ele>
        <time>2022-06-26T04:44:59Z</time>
      </trkpt>
      <trkpt lat="46.04547" lon="4.57219">
        <ele>406.8</ele>
        <time>2022-06-26T04:45:00Z</time>
      </trkpt>
      <trkpt lat="46.04547" lon="4.57216">
        <ele>407.2</ele>
        <time>2022-06-26T04:45:01Z</time>
      </trkpt>
      <trkpt lat="46.04546" lon="4.57214">
        <ele>407.2</ele>
        <time>2022-06-26T04:45:02Z</time>
      </trkpt>
      <trkpt lat="46.04546" lon="4.57211">
        <ele>407.6</ele>
        <time>2022-06-26T04:45:03Z</time>
      </trkpt>
      <trkpt lat="46.04546" lon="4.57208">
        <ele>407.6</ele>
        <time>2022-06-26T04:45:04Z</time>
      </trkpt>
      <trkpt lat="46.04546" lon="4.57205">
        <ele>408</ele>
        <time>2022-06-26T04:45:05Z</time>
      </trkpt>
      <trkpt lat="46.04546" lon="4.57202">
        <ele>408.2</ele>
        <time>2022-06-26T04:45:06Z</time>
      </trkpt>
      <trkpt lat="46.04546" lon="4.57199">
        <ele>408.4</ele>
        <time>2022-06-26T04:45:07Z</time>
      </trkpt>
      <trkpt lat="46.04546" lon="4.57196">
        <ele>408.8</ele>
        <time>2022-06-26T04:45:08Z</time>
      </trkpt>
      <trkpt lat="46.04546" lon="4.57192">
        <ele>409</ele>
        <time>2022-06-26T04:45:09Z</time>
      </trkpt>
      <trkpt lat="46.04547" lon="4.57189">
        <ele>409</ele>
        <time>2022-06-26T04:45:10Z</time>
      </trkpt>
      <trkpt lat="46.04547" lon="4.57186">
        <ele>409.4</ele>
        <time>2022-06-26T04:45:11Z</time>
      </trkpt>
      <trkpt lat="46.04547" lon="4.57183">
        <ele>409.6</ele>
        <time>2022-06-26T04:45:12Z</time>
      </trkpt>
      <trkpt lat="46.04547" lon="4.57181">
        <ele>409.8</ele>
        <time>2022-06-26T04:45:13Z</time>
      </trkpt>
      <trkpt lat="46.04546" lon="4.57177">
        <ele>410</ele>
        <time>2022-06-26T04:45:14Z</time>
      </trkpt>
      <trkpt lat="46.04546" lon="4.57174">
        <ele>410.2</ele>
        <time>2022-06-26T04:45:15Z</time>
      </trkpt>
      <trkpt lat="46.04545" lon="4.5717">
        <ele>410.6</ele>
        <time>2022-06-26T04:45:16Z</time>
      </trkpt>
      <trkpt lat="46.04545" lon="4.57166">
        <ele>410.8</ele>
        <time>2022-06-26T04:45:17Z</time>
      </trkpt>
      <trkpt lat="46.04545" lon="4.57163">
        <ele>411</ele>
        <time>2022-06-26T04:45:18Z</time>
      </trkpt>
      <trkpt lat="46.04544" lon="4.5716">
        <ele>411.2</ele>
        <time>2022-06-26T04:45:19Z</time>
      </trkpt>
      <trkpt lat="46.04543" lon="4.57157">
        <ele>411.4</ele>
        <time>2022-06-26T04:45:20Z</time>
      </trkpt>
      <trkpt lat="46.04542" lon="4.57154">
        <ele>411.4</ele>
        <time>2022-06-26T04:45:21Z</time>
      </trkpt>
      <trkpt lat="46.04541" lon="4.57151">
        <ele>411.8</ele>
        <time>2022-06-26T04:45:22Z</time>
      </trkpt>
      <trkpt lat="46.0454" lon="4.57148">
        <ele>412.2</ele>
        <time>2022-06-26T04:45:23Z</time>
      </trkpt>
      <trkpt lat="46.0454" lon="4.57145">
        <ele>412.4</ele>
        <time>2022-06-26T04:45:24Z</time>
      </trkpt>
      <trkpt lat="46.04539" lon="4.57142">
        <ele>412.6</ele>
        <time>2022-06-26T04:45:25Z</time>
      </trkpt>
      <trkpt lat="46.04538" lon="4.57139">
        <ele>412.8</ele>
        <time>2022-06-26T04:45:26Z</time>
      </trkpt>
      <trkpt lat="46.04537" lon="4.57136">
        <ele>413.2</ele>
        <time>2022-06-26T04:45:27Z</time>
      </trkpt>
      <trkpt lat="46.04537" lon="4.57133">
        <ele>413.4</ele>
        <time>2022-06-26T04:45:28Z</time>
      </trkpt>
      <trkpt lat="46.04536" lon="4.5713">
        <ele>413.4</ele>
        <time>2022-06-26T04:45:29Z</time>
      </trkpt>
      <trkpt lat="46.04535" lon="4.57127">
        <ele>413.8</ele>
        <time>2022-06-26T04:45:30Z</time>
      </trkpt>
      <trkpt lat="46.04534" lon="4.57125">
        <ele>414.2</ele>
        <time>2022-06-26T04:45:31Z</time>
      </trkpt>
      <trkpt lat="46.04533" lon="4.57122">
        <ele>414.4</ele>
        <time>2022-06-26T04:45:32Z</time>
      </trkpt>
      <trkpt lat="46.04532" lon="4.57119">
        <ele>414.8</ele>
        <time>2022-06-26T04:45:33Z</time>
      </trkpt>
      <trkpt lat="46.04531" lon="4.57116">
        <ele>414.8</ele>
        <time>2022-06-26T04:45:34Z</time>
      </trkpt>
      <trkpt lat="46.04531" lon="4.57114">
        <ele>415.2</ele>
        <time>2022-06-26T04:45:35Z</time>
      </trkpt>
      <trkpt lat="46.0453" lon="4.57111">
        <ele>415.4</ele>
        <time>2022-06-26T04:45:36Z</time>
      </trkpt>
      <trkpt lat="46.04529" lon="4.57108">
        <ele>415.6</ele>
        <time>2022-06-26T04:45:37Z</time>
      </trkpt>
      <trkpt lat="46.04528" lon="4.57106">
        <ele>415.8</ele>
        <time>2022-06-26T04:45:38Z</time>
      </trkpt>
      <trkpt lat="46.04527" lon="4.57103">
        <ele>416.2</ele>
        <time>2022-06-26T04:45:39Z</time>
      </trkpt>
      <trkpt lat="46.04527" lon="4.57101">
        <ele>416.4</ele>
        <time>2022-06-26T04:45:40Z</time>
      </trkpt>
      <trkpt lat="46.04526" lon="4.57098">
        <ele>416.6</ele>
        <time>2022-06-26T04:45:41Z</time>
      </trkpt>
      <trkpt lat="46.04524" lon="4.57095">
        <ele>416.8</ele>
        <time>2022-06-26T04:45:42Z</time>
      </trkpt>
      <trkpt lat="46.04523" lon="4.57093">
        <ele>417</ele>
        <time>2022-06-26T04:45:43Z</time>
      </trkpt>
      <trkpt lat="46.04522" lon="4.5709">
        <ele>417</ele>
        <time>2022-06-26T04:45:44Z</time>
      </trkpt>
      <trkpt lat="46.04522" lon="4.57088">
        <ele>417.6</ele>
        <time>2022-06-26T04:45:45Z</time>
      </trkpt>
      <trkpt lat="46.04521" lon="4.57086">
        <ele>417.8</ele>
        <time>2022-06-26T04:45:46Z</time>
      </trkpt>
      <trkpt lat="46.0452" lon="4.57084">
        <ele>418</ele>
        <time>2022-06-26T04:45:47Z</time>
      </trkpt>
      <trkpt lat="46.04519" lon="4.57081">
        <ele>418</ele>
        <time>2022-06-26T04:45:48Z</time>
      </trkpt>
      <trkpt lat="46.04518" lon="4.57079">
        <ele>418.4</ele>
        <time>2022-06-26T04:45:49Z</time>
      </trkpt>
      <trkpt lat="46.04517" lon="4.57076">
        <ele>418.4</ele>
        <time>2022-06-26T04:45:50Z</time>
      </trkpt>
      <trkpt lat="46.04516" lon="4.57074">
        <ele>418.8</ele>
        <time>2022-06-26T04:45:51Z</time>
      </trkpt>
      <trkpt lat="46.04514" lon="4.57071">
        <ele>419</ele>
        <time>2022-06-26T04:45:52Z</time>
      </trkpt>
      <trkpt lat="46.04513" lon="4.57068">
        <ele>419.2</ele>
        <time>2022-06-26T04:45:53Z</time>
      </trkpt>
      <trkpt lat="46.04513" lon="4.57066">
        <ele>419.2</ele>
        <time>2022-06-26T04:45:54Z</time>
      </trkpt>
      <trkpt lat="46.04512" lon="4.57063">
        <ele>419.6</ele>
        <time>2022-06-26T04:45:55Z</time>
      </trkpt>
      <trkpt lat="46.04511" lon="4.57061">
        <ele>419.8</ele>
        <time>2022-06-26T04:45:56Z</time>
      </trkpt>
      <trkpt lat="46.0451" lon="4.57058">
        <ele>420.2</ele>
        <time>2022-06-26T04:45:57Z</time>
      </trkpt>
      <trkpt lat="46.04509" lon="4.57056">
        <ele>420.4</ele>
        <time>2022-06-26T04:45:58Z</time>
      </trkpt>
      <trkpt lat="46.04508" lon="4.57054">
        <ele>420.4</ele>
        <time>2022-06-26T04:45:59Z</time>
      </trkpt>
      <trkpt lat="46.04507" lon="4.57051">
        <ele>420.8</ele>
        <time>2022-06-26T04:46:00Z</time>
      </trkpt>
      <trkpt lat="46.04506" lon="4.57048">
        <ele>421</ele>
        <time>2022-06-26T04:46:01Z</time>
      </trkpt>
      <trkpt lat="46.04504" lon="4.57045">
        <ele>421.2</ele>
        <time>2022-06-26T04:46:02Z</time>
      </trkpt>
      <trkpt lat="46.04503" lon="4.57043">
        <ele>421.4</ele>
        <time>2022-06-26T04:46:03Z</time>
      </trkpt>
      <trkpt lat="46.04502" lon="4.57041">
        <ele>421.8</ele>
        <time>2022-06-26T04:46:04Z</time>
      </trkpt>
      <trkpt lat="46.04502" lon="4.57038">
        <ele>422</ele>
        <time>2022-06-26T04:46:05Z</time>
      </trkpt>
      <trkpt lat="46.04501" lon="4.57036">
        <ele>422</ele>
        <time>2022-06-26T04:46:06Z</time>
      </trkpt>
      <trkpt lat="46.04501" lon="4.57034">
        <ele>422.4</ele>
        <time>2022-06-26T04:46:07Z</time>
      </trkpt>
      <trkpt lat="46.045" lon="4.57032">
        <ele>422.6</ele>
        <time>2022-06-26T04:46:08Z</time>
      </trkpt>
      <trkpt lat="46.04499" lon="4.57029">
        <ele>422.6</ele>
        <time>2022-06-26T04:46:09Z</time>
      </trkpt>
      <trkpt lat="46.04498" lon="4.57027">
        <ele>423</ele>
        <time>2022-06-26T04:46:10Z</time>
      </trkpt>
      <trkpt lat="46.04497" lon="4.57024">
        <ele>423</ele>
        <time>2022-06-26T04:46:11Z</time>
      </trkpt>
      <trkpt lat="46.04496" lon="4.57022">
        <ele>423.4</ele>
        <time>2022-06-26T04:46:12Z</time>
      </trkpt>
      <trkpt lat="46.04495" lon="4.57019">
        <ele>423.6</ele>
        <time>2022-06-26T04:46:13Z</time>
      </trkpt>
      <trkpt lat="46.04494" lon="4.57017">
        <ele>423.8</ele>
        <time>2022-06-26T04:46:14Z</time>
      </trkpt>
      <trkpt lat="46.04493" lon="4.57015">
        <ele>424</ele>
        <time>2022-06-26T04:46:15Z</time>
      </trkpt>
      <trkpt lat="46.04492" lon="4.57012">
        <ele>424.2</ele>
        <time>2022-06-26T04:46:16Z</time>
      </trkpt>
      <trkpt lat="46.04491" lon="4.5701">
        <ele>424.4</ele>
        <time>2022-06-26T04:46:17Z</time>
      </trkpt>
      <trkpt lat="46.04489" lon="4.57007">
        <ele>424.6</ele>
        <time>2022-06-26T04:46:18Z</time>
      </trkpt>
      <trkpt lat="46.04488" lon="4.57005">
        <ele>424.6</ele>
        <time>2022-06-26T04:46:19Z</time>
      </trkpt>
      <trkpt lat="46.04487" lon="4.57004">
        <ele>425</ele>
        <time>2022-06-26T04:46:20Z</time>
      </trkpt>
      <trkpt lat="46.04485" lon="4.57001">
        <ele>425</ele>
        <time>2022-06-26T04:46:21Z</time>
      </trkpt>
      <trkpt lat="46.04484" lon="4.56998">
        <ele>425.4</ele>
        <time>2022-06-26T04:46:22Z</time>
      </trkpt>
      <trkpt lat="46.04482" lon="4.56996">
        <ele>425.6</ele>
        <time>2022-06-26T04:46:23Z</time>
      </trkpt>
      <trkpt lat="46.0448" lon="4.56994">
        <ele>425.8</ele>
        <time>2022-06-26T04:46:24Z</time>
      </trkpt>
      <trkpt lat="46.04478" lon="4.56992">
        <ele>426</ele>
        <time>2022-06-26T04:46:25Z</time>
      </trkpt>
      <trkpt lat="46.04476" lon="4.5699">
        <ele>426.4</ele>
        <time>2022-06-26T04:46:26Z</time>
      </trkpt>
      <trkpt lat="46.04475" lon="4.56988">
        <ele>426.6</ele>
        <time>2022-06-26T04:46:27Z</time>
      </trkpt>
      <trkpt lat="46.04472" lon="4.56986">
        <ele>426.8</ele>
        <time>2022-06-26T04:46:28Z</time>
      </trkpt>
      <trkpt lat="46.0447" lon="4.56983">
        <ele>427</ele>
        <time>2022-06-26T04:46:29Z</time>
      </trkpt>
      <trkpt lat="46.04468" lon="4.56981">
        <ele>427</ele>
        <time>2022-06-26T04:46:30Z</time>
      </trkpt>
      <trkpt lat="46.04466" lon="4.5698">
        <ele>427.4</ele>
        <time>2022-06-26T04:46:31Z</time>
      </trkpt>
      <trkpt lat="46.04464" lon="4.56978">
        <ele>427.8</ele>
        <time>2022-06-26T04:46:32Z</time>
      </trkpt>
      <trkpt lat="46.04462" lon="4.56977">
        <ele>427.8</ele>
        <time>2022-06-26T04:46:33Z</time>
      </trkpt>
      <trkpt lat="46.0446" lon="4.56975">
        <ele>428</ele>
        <time>2022-06-26T04:46:34Z</time>
      </trkpt>
      <trkpt lat="46.04458" lon="4.56974">
        <ele>428.2</ele>
        <time>2022-06-26T04:46:35Z</time>
      </trkpt>
      <trkpt lat="46.04457" lon="4.56973">
        <ele>428.4</ele>
        <time>2022-06-26T04:46:36Z</time>
      </trkpt>
      <trkpt lat="46.04455" lon="4.56972">
        <ele>428.8</ele>
        <time>2022-06-26T04:46:37Z</time>
      </trkpt>
      <trkpt lat="46.04453" lon="4.5697">
        <ele>429</ele>
        <time>2022-06-26T04:46:38Z</time>
      </trkpt>
      <trkpt lat="46.04451" lon="4.56968">
        <ele>429.2</ele>
        <time>2022-06-26T04:46:39Z</time>
      </trkpt>
      <trkpt lat="46.04448" lon="4.56967">
        <ele>429.4</ele>
        <time>2022-06-26T04:46:40Z</time>
      </trkpt>
      <trkpt lat="46.04446" lon="4.56966">
        <ele>429.4</ele>
        <time>2022-06-26T04:46:41Z</time>
      </trkpt>
      <trkpt lat="46.04444" lon="4.56964">
        <ele>429.8</ele>
        <time>2022-06-26T04:46:42Z</time>
      </trkpt>
      <trkpt lat="46.04442" lon="4.56963">
        <ele>429.8</ele>
        <time>2022-06-26T04:46:43Z</time>
      </trkpt>
      <trkpt lat="46.0444" lon="4.56961">
        <ele>430.2</ele>
        <time>2022-06-26T04:46:44Z</time>
      </trkpt>
      <trkpt lat="46.04438" lon="4.56959">
        <ele>430.4</ele>
        <time>2022-06-26T04:46:45Z</time>
      </trkpt>
      <trkpt lat="46.04436" lon="4.56958">
        <ele>430.4</ele>
        <time>2022-06-26T04:46:46Z</time>
      </trkpt>
      <trkpt lat="46.04434" lon="4.56958">
        <ele>430.8</ele>
        <time>2022-06-26T04:46:47Z</time>
      </trkpt>
      <trkpt lat="46.04432" lon="4.56956">
        <ele>430.8</ele>
        <time>2022-06-26T04:46:48Z</time>
      </trkpt>
      <trkpt lat="46.04429" lon="4.56954">
        <ele>431.2</ele>
        <time>2022-06-26T04:46:49Z</time>
      </trkpt>
      <trkpt lat="46.04427" lon="4.56953">
        <ele>431.4</ele>
        <time>2022-06-26T04:46:50Z</time>
      </trkpt>
      <trkpt lat="46.04425" lon="4.56951">
        <ele>431.4</ele>
        <time>2022-06-26T04:46:51Z</time>
      </trkpt>
      <trkpt lat="46.04423" lon="4.5695">
        <ele>431.8</ele>
        <time>2022-06-26T04:46:52Z</time>
      </trkpt>
      <trkpt lat="46.04421" lon="4.56949">
        <ele>432</ele>
        <time>2022-06-26T04:46:53Z</time>
      </trkpt>
      <trkpt lat="46.04418" lon="4.56947">
        <ele>432.2</ele>
        <time>2022-06-26T04:46:54Z</time>
      </trkpt>
      <trkpt lat="46.04416" lon="4.56946">
        <ele>432.4</ele>
        <time>2022-06-26T04:46:55Z</time>
      </trkpt>
      <trkpt lat="46.04414" lon="4.56944">
        <ele>432.6</ele>
        <time>2022-06-26T04:46:56Z</time>
      </trkpt>
      <trkpt lat="46.04412" lon="4.56943">
        <ele>433</ele>
        <time>2022-06-26T04:46:57Z</time>
      </trkpt>
      <trkpt lat="46.0441" lon="4.56941">
        <ele>433.2</ele>
        <time>2022-06-26T04:46:58Z</time>
      </trkpt>
      <trkpt lat="46.04407" lon="4.5694">
        <ele>433.4</ele>
        <time>2022-06-26T04:46:59Z</time>
      </trkpt>
      <trkpt lat="46.04405" lon="4.56939">
        <ele>433.4</ele>
        <time>2022-06-26T04:47:00Z</time>
      </trkpt>
      <trkpt lat="46.04403" lon="4.56938">
        <ele>434</ele>
        <time>2022-06-26T04:47:01Z</time>
      </trkpt>
      <trkpt lat="46.04401" lon="4.56937">
        <ele>434.2</ele>
        <time>2022-06-26T04:47:02Z</time>
      </trkpt>
      <trkpt lat="46.04399" lon="4.56936">
        <ele>434.4</ele>
        <time>2022-06-26T04:47:03Z</time>
      </trkpt>
      <trkpt lat="46.04397" lon="4.56935">
        <ele>434.4</ele>
        <time>2022-06-26T04:47:04Z</time>
      </trkpt>
      <trkpt lat="46.04395" lon="4.56933">
        <ele>434.6</ele>
        <time>2022-06-26T04:47:05Z</time>
      </trkpt>
      <trkpt lat="46.04393" lon="4.56932">
        <ele>434.6</ele>
        <time>2022-06-26T04:47:06Z</time>
      </trkpt>
      <trkpt lat="46.04391" lon="4.56931">
        <ele>435</ele>
        <time>2022-06-26T04:47:07Z</time>
      </trkpt>
      <trkpt lat="46.04389" lon="4.5693">
        <ele>435</ele>
        <time>2022-06-26T04:47:08Z</time>
      </trkpt>
      <trkpt lat="46.04387" lon="4.56928">
        <ele>435.2</ele>
        <time>2022-06-26T04:47:09Z</time>
      </trkpt>
      <trkpt lat="46.04385" lon="4.56927">
        <ele>435.6</ele>
        <time>2022-06-26T04:47:10Z</time>
      </trkpt>
      <trkpt lat="46.04383" lon="4.56926">
        <ele>435.8</ele>
        <time>2022-06-26T04:47:11Z</time>
      </trkpt>
      <trkpt lat="46.04381" lon="4.56925">
        <ele>436</ele>
        <time>2022-06-26T04:47:12Z</time>
      </trkpt>
      <trkpt lat="46.04379" lon="4.56923">
        <ele>436.2</ele>
        <time>2022-06-26T04:47:13Z</time>
      </trkpt>
      <trkpt lat="46.04377" lon="4.56922">
        <ele>436.2</ele>
        <time>2022-06-26T04:47:14Z</time>
      </trkpt>
      <trkpt lat="46.04375" lon="4.56921">
        <ele>436.6</ele>
        <time>2022-06-26T04:47:15Z</time>
      </trkpt>
      <trkpt lat="46.04373" lon="4.56919">
        <ele>436.8</ele>
        <time>2022-06-26T04:47:16Z</time>
      </trkpt>
      <trkpt lat="46.04371" lon="4.56917">
        <ele>437</ele>
        <time>2022-06-26T04:47:17Z</time>
      </trkpt>
      <trkpt lat="46.0437" lon="4.56916">
        <ele>437</ele>
        <time>2022-06-26T04:47:18Z</time>
      </trkpt>
      <trkpt lat="46.04368" lon="4.56914">
        <ele>437.4</ele>
        <time>2022-06-26T04:47:19Z</time>
      </trkpt>
      <trkpt lat="46.04366" lon="4.56912">
        <ele>437.6</ele>
        <time>2022-06-26T04:47:20Z</time>
      </trkpt>
      <trkpt lat="46.04364" lon="4.56911">
        <ele>437.8</ele>
        <time>2022-06-26T04:47:21Z</time>
      </trkpt>
      <trkpt lat="46.04362" lon="4.56909">
        <ele>437.8</ele>
        <time>2022-06-26T04:47:22Z</time>
      </trkpt>
      <trkpt lat="46.04361" lon="4.56908">
        <ele>438.2</ele>
        <time>2022-06-26T04:47:23Z</time>
      </trkpt>
      <trkpt lat="46.04358" lon="4.56906">
        <ele>438.4</ele>
        <time>2022-06-26T04:47:24Z</time>
      </trkpt>
      <trkpt lat="46.04356" lon="4.56905">
        <ele>438.4</ele>
        <time>2022-06-26T04:47:25Z</time>
      </trkpt>
      <trkpt lat="46.04354" lon="4.56903">
        <ele>438.8</ele>
        <time>2022-06-26T04:47:26Z</time>
      </trkpt>
      <trkpt lat="46.04353" lon="4.56902">
        <ele>439</ele>
        <time>2022-06-26T04:47:27Z</time>
      </trkpt>
      <trkpt lat="46.04351" lon="4.56901">
        <ele>439.4</ele>
        <time>2022-06-26T04:47:28Z</time>
      </trkpt>
      <trkpt lat="46.04349" lon="4.56899">
        <ele>439.4</ele>
        <time>2022-06-26T04:47:29Z</time>
      </trkpt>
      <trkpt lat="46.04347" lon="4.56898">
        <ele>439.8</ele>
        <time>2022-06-26T04:47:30Z</time>
      </trkpt>
      <trkpt lat="46.04345" lon="4.56897">
        <ele>440</ele>
        <time>2022-06-26T04:47:31Z</time>
      </trkpt>
      <trkpt lat="46.04343" lon="4.56896">
        <ele>440</ele>
        <time>2022-06-26T04:47:32Z</time>
      </trkpt>
      <trkpt lat="46.04342" lon="4.56894">
        <ele>440.2</ele>
        <time>2022-06-26T04:47:33Z</time>
      </trkpt>
      <trkpt lat="46.0434" lon="4.56893">
        <ele>440.2</ele>
        <time>2022-06-26T04:47:34Z</time>
      </trkpt>
      <trkpt lat="46.04338" lon="4.56891">
        <ele>440.6</ele>
        <time>2022-06-26T04:47:35Z</time>
      </trkpt>
      <trkpt lat="46.04336" lon="4.5689">
        <ele>440.8</ele>
        <time>2022-06-26T04:47:36Z</time>
      </trkpt>
      <trkpt lat="46.04334" lon="4.56888">
        <ele>440.8</ele>
        <time>2022-06-26T04:47:37Z</time>
      </trkpt>
      <trkpt lat="46.04333" lon="4.56887">
        <ele>441.2</ele>
        <time>2022-06-26T04:47:38Z</time>
      </trkpt>
      <trkpt lat="46.04331" lon="4.56886">
        <ele>441.4</ele>
        <time>2022-06-26T04:47:39Z</time>
      </trkpt>
      <trkpt lat="46.0433" lon="4.56884">
        <ele>441.4</ele>
        <time>2022-06-26T04:47:40Z</time>
      </trkpt>
      <trkpt lat="46.04328" lon="4.56883">
        <ele>441.8</ele>
        <time>2022-06-26T04:47:41Z</time>
      </trkpt>
      <trkpt lat="46.04327" lon="4.56881">
        <ele>441.8</ele>
        <time>2022-06-26T04:47:42Z</time>
      </trkpt>
      <trkpt lat="46.04325" lon="4.5688">
        <ele>442</ele>
        <time>2022-06-26T04:47:43Z</time>
      </trkpt>
      <trkpt lat="46.04324" lon="4.56878">
        <ele>442</ele>
        <time>2022-06-26T04:47:44Z</time>
      </trkpt>
      <trkpt lat="46.04322" lon="4.56877">
        <ele>442.4</ele>
        <time>2022-06-26T04:47:45Z</time>
      </trkpt>
      <trkpt lat="46.0432" lon="4.56875">
        <ele>442.4</ele>
        <time>2022-06-26T04:47:46Z</time>
      </trkpt>
      <trkpt lat="46.04319" lon="4.56874">
        <ele>442.8</ele>
        <time>2022-06-26T04:47:47Z</time>
      </trkpt>
      <trkpt lat="46.04317" lon="4.56872">
        <ele>443</ele>
        <time>2022-06-26T04:47:48Z</time>
      </trkpt>
      <trkpt lat="46.04315" lon="4.56871">
        <ele>443</ele>
        <time>2022-06-26T04:47:49Z</time>
      </trkpt>
      <trkpt lat="46.04313" lon="4.5687">
        <ele>443.2</ele>
        <time>2022-06-26T04:47:50Z</time>
      </trkpt>
      <trkpt lat="46.04312" lon="4.56868">
        <ele>443.2</ele>
        <time>2022-06-26T04:47:51Z</time>
      </trkpt>
      <trkpt lat="46.0431" lon="4.56867">
        <ele>443.6</ele>
        <time>2022-06-26T04:47:52Z</time>
      </trkpt>
      <trkpt lat="46.04309" lon="4.56866">
        <ele>443.8</ele>
        <time>2022-06-26T04:47:53Z</time>
      </trkpt>
      <trkpt lat="46.04307" lon="4.56864">
        <ele>443.8</ele>
        <time>2022-06-26T04:47:54Z</time>
      </trkpt>
      <trkpt lat="46.04305" lon="4.56863">
        <ele>444.2</ele>
        <time>2022-06-26T04:47:55Z</time>
      </trkpt>
      <trkpt lat="46.04303" lon="4.56861">
        <ele>444.2</ele>
        <time>2022-06-26T04:47:56Z</time>
      </trkpt>
      <trkpt lat="46.04302" lon="4.5686">
        <ele>444.6</ele>
        <time>2022-06-26T04:47:57Z</time>
      </trkpt>
      <trkpt lat="46.043" lon="4.56859">
        <ele>444.8</ele>
        <time>2022-06-26T04:47:58Z</time>
      </trkpt>
      <trkpt lat="46.04298" lon="4.56858">
        <ele>444.8</ele>
        <time>2022-06-26T04:47:59Z</time>
      </trkpt>
      <trkpt lat="46.04296" lon="4.56856">
        <ele>445.2</ele>
        <time>2022-06-26T04:48:00Z</time>
      </trkpt>
      <trkpt lat="46.04294" lon="4.56855">
        <ele>445.4</ele>
        <time>2022-06-26T04:48:01Z</time>
      </trkpt>
      <trkpt lat="46.04292" lon="4.56853">
        <ele>445.4</ele>
        <time>2022-06-26T04:48:02Z</time>
      </trkpt>
      <trkpt lat="46.04291" lon="4.56852">
        <ele>445.6</ele>
        <time>2022-06-26T04:48:03Z</time>
      </trkpt>
      <trkpt lat="46.04289" lon="4.5685">
        <ele>445.6</ele>
        <time>2022-06-26T04:48:04Z</time>
      </trkpt>
      <trkpt lat="46.04288" lon="4.56849">
        <ele>446</ele>
        <time>2022-06-26T04:48:05Z</time>
      </trkpt>
      <trkpt lat="46.04286" lon="4.56848">
        <ele>446.4</ele>
        <time>2022-06-26T04:48:06Z</time>
      </trkpt>
      <trkpt lat="46.04284" lon="4.56846">
        <ele>446.6</ele>
        <time>2022-06-26T04:48:07Z</time>
      </trkpt>
      <trkpt lat="46.04282" lon="4.56845">
        <ele>446.8</ele>
        <time>2022-06-26T04:48:08Z</time>
      </trkpt>
      <trkpt lat="46.0428" lon="4.56844">
        <ele>446.8</ele>
        <time>2022-06-26T04:48:09Z</time>
      </trkpt>
      <trkpt lat="46.04278" lon="4.56843">
        <ele>447.2</ele>
        <time>2022-06-26T04:48:10Z</time>
      </trkpt>
      <trkpt lat="46.04275" lon="4.56842">
        <ele>447.2</ele>
        <time>2022-06-26T04:48:11Z</time>
      </trkpt>
      <trkpt lat="46.04273" lon="4.56841">
        <ele>447.4</ele>
        <time>2022-06-26T04:48:12Z</time>
      </trkpt>
      <trkpt lat="46.04271" lon="4.5684">
        <ele>447.8</ele>
        <time>2022-06-26T04:48:13Z</time>
      </trkpt>
      <trkpt lat="46.04269" lon="4.56839">
        <ele>448</ele>
        <time>2022-06-26T04:48:14Z</time>
      </trkpt>
      <trkpt lat="46.04267" lon="4.56838">
        <ele>448</ele>
        <time>2022-06-26T04:48:15Z</time>
      </trkpt>
      <trkpt lat="46.04265" lon="4.56838">
        <ele>448.2</ele>
        <time>2022-06-26T04:48:16Z</time>
      </trkpt>
      <trkpt lat="46.04263" lon="4.56838">
        <ele>448.2</ele>
        <time>2022-06-26T04:48:17Z</time>
      </trkpt>
      <trkpt lat="46.04261" lon="4.56837">
        <ele>448.4</ele>
        <time>2022-06-26T04:48:18Z</time>
      </trkpt>
      <trkpt lat="46.04258" lon="4.56837">
        <ele>448.4</ele>
        <time>2022-06-26T04:48:19Z</time>
      </trkpt>
      <trkpt lat="46.04256" lon="4.56838">
        <ele>448.8</ele>
        <time>2022-06-26T04:48:20Z</time>
      </trkpt>
      <trkpt lat="46.04254" lon="4.56839">
        <ele>448.8</ele>
        <time>2022-06-26T04:48:21Z</time>
      </trkpt>
      <trkpt lat="46.04252" lon="4.56839">
        <ele>448.8</ele>
        <time>2022-06-26T04:48:22Z</time>
      </trkpt>
      <trkpt lat="46.0425" lon="4.5684">
        <ele>449.2</ele>
        <time>2022-06-26T04:48:23Z</time>
      </trkpt>
      <trkpt lat="46.04248" lon="4.56841">
        <ele>449.4</ele>
        <time>2022-06-26T04:48:24Z</time>
      </trkpt>
      <trkpt lat="46.04246" lon="4.56842">
        <ele>449.4</ele>
        <time>2022-06-26T04:48:25Z</time>
      </trkpt>
      <trkpt lat="46.04244" lon="4.56843">
        <ele>449.6</ele>
        <time>2022-06-26T04:48:26Z</time>
      </trkpt>
      <trkpt lat="46.04241" lon="4.56844">
        <ele>449.6</ele>
        <time>2022-06-26T04:48:27Z</time>
      </trkpt>
      <trkpt lat="46.04239" lon="4.56846">
        <ele>450</ele>
        <time>2022-06-26T04:48:28Z</time>
      </trkpt>
      <trkpt lat="46.04237" lon="4.56848">
        <ele>450</ele>
        <time>2022-06-26T04:48:29Z</time>
      </trkpt>
      <trkpt lat="46.04235" lon="4.5685">
        <ele>450</ele>
        <time>2022-06-26T04:48:30Z</time>
      </trkpt>
      <trkpt lat="46.04233" lon="4.56852">
        <ele>450.2</ele>
        <time>2022-06-26T04:48:31Z</time>
      </trkpt>
      <trkpt lat="46.04231" lon="4.56855">
        <ele>450.2</ele>
        <time>2022-06-26T04:48:32Z</time>
      </trkpt>
      <trkpt lat="46.04229" lon="4.56857">
        <ele>450.2</ele>
        <time>2022-06-26T04:48:33Z</time>
      </trkpt>
      <trkpt lat="46.04227" lon="4.56859">
        <ele>450.6</ele>
        <time>2022-06-26T04:48:34Z</time>
      </trkpt>
      <trkpt lat="46.04225" lon="4.56861">
        <ele>450.6</ele>
        <time>2022-06-26T04:48:35Z</time>
      </trkpt>
      <trkpt lat="46.04223" lon="4.56863">
        <ele>450.8</ele>
        <time>2022-06-26T04:48:36Z</time>
      </trkpt>
      <trkpt lat="46.04221" lon="4.56865">
        <ele>450.8</ele>
        <time>2022-06-26T04:48:37Z</time>
      </trkpt>
      <trkpt lat="46.04219" lon="4.56867">
        <ele>451</ele>
        <time>2022-06-26T04:48:38Z</time>
      </trkpt>
      <trkpt lat="46.04217" lon="4.56869">
        <ele>451</ele>
        <time>2022-06-26T04:48:39Z</time>
      </trkpt>
      <trkpt lat="46.04215" lon="4.5687">
        <ele>451</ele>
        <time>2022-06-26T04:48:40Z</time>
      </trkpt>
      <trkpt lat="46.04213" lon="4.56871">
        <ele>451.2</ele>
        <time>2022-06-26T04:48:41Z</time>
      </trkpt>
      <trkpt lat="46.04211" lon="4.56871">
        <ele>451.2</ele>
        <time>2022-06-26T04:48:42Z</time>
      </trkpt>
      <trkpt lat="46.04209" lon="4.56872">
        <ele>451.4</ele>
        <time>2022-06-26T04:48:43Z</time>
      </trkpt>
      <trkpt lat="46.04207" lon="4.56873">
        <ele>451.4</ele>
        <time>2022-06-26T04:48:44Z</time>
      </trkpt>
      <trkpt lat="46.04205" lon="4.56873">
        <ele>451.6</ele>
        <time>2022-06-26T04:48:45Z</time>
      </trkpt>
      <trkpt lat="46.04203" lon="4.56873">
        <ele>451.6</ele>
        <time>2022-06-26T04:48:46Z</time>
      </trkpt>
      <trkpt lat="46.04201" lon="4.56873">
        <ele>452</ele>
        <time>2022-06-26T04:48:47Z</time>
      </trkpt>
      <trkpt lat="46.04198" lon="4.56872">
        <ele>452</ele>
        <time>2022-06-26T04:48:48Z</time>
      </trkpt>
      <trkpt lat="46.04195" lon="4.56871">
        <ele>452.4</ele>
        <time>2022-06-26T04:48:50Z</time>
      </trkpt>
      <trkpt lat="46.04193" lon="4.5687">
        <ele>452.6</ele>
        <time>2022-06-26T04:48:51Z</time>
      </trkpt>
      <trkpt lat="46.0419" lon="4.56869">
        <ele>452.6</ele>
        <time>2022-06-26T04:48:52Z</time>
      </trkpt>
      <trkpt lat="46.04188" lon="4.56868">
        <ele>453</ele>
        <time>2022-06-26T04:48:53Z</time>
      </trkpt>
      <trkpt lat="46.04186" lon="4.56867">
        <ele>453.2</ele>
        <time>2022-06-26T04:48:54Z</time>
      </trkpt>
      <trkpt lat="46.04184" lon="4.56865">
        <ele>453.4</ele>
        <time>2022-06-26T04:48:55Z</time>
      </trkpt>
      <trkpt lat="46.04182" lon="4.56864">
        <ele>453.4</ele>
        <time>2022-06-26T04:48:56Z</time>
      </trkpt>
      <trkpt lat="46.0418" lon="4.56862">
        <ele>453.8</ele>
        <time>2022-06-26T04:48:57Z</time>
      </trkpt>
      <trkpt lat="46.04178" lon="4.56861">
        <ele>454</ele>
        <time>2022-06-26T04:48:58Z</time>
      </trkpt>
      <trkpt lat="46.04176" lon="4.56859">
        <ele>454</ele>
        <time>2022-06-26T04:48:59Z</time>
      </trkpt>
      <trkpt lat="46.04175" lon="4.56857">
        <ele>454.4</ele>
        <time>2022-06-26T04:49:00Z</time>
      </trkpt>
      <trkpt lat="46.04174" lon="4.56856">
        <ele>454.6</ele>
        <time>2022-06-26T04:49:01Z</time>
      </trkpt>
      <trkpt lat="46.04173" lon="4.56854">
        <ele>454.6</ele>
        <time>2022-06-26T04:49:02Z</time>
      </trkpt>
      <trkpt lat="46.04171" lon="4.56852">
        <ele>455</ele>
        <time>2022-06-26T04:49:03Z</time>
      </trkpt>
      <trkpt lat="46.0417" lon="4.5685">
        <ele>455</ele>
        <time>2022-06-26T04:49:04Z</time>
      </trkpt>
      <trkpt lat="46.04169" lon="4.56848">
        <ele>455.4</ele>
        <time>2022-06-26T04:49:05Z</time>
      </trkpt>
      <trkpt lat="46.04168" lon="4.56846">
        <ele>455.6</ele>
        <time>2022-06-26T04:49:06Z</time>
      </trkpt>
      <trkpt lat="46.04167" lon="4.56844">
        <ele>455.6</ele>
        <time>2022-06-26T04:49:07Z</time>
      </trkpt>
      <trkpt lat="46.04165" lon="4.56841">
        <ele>455.6</ele>
        <time>2022-06-26T04:49:08Z</time>
      </trkpt>
      <trkpt lat="46.04163" lon="4.56839">
        <ele>456.2</ele>
        <time>2022-06-26T04:49:09Z</time>
      </trkpt>
      <trkpt lat="46.04162" lon="4.56836">
        <ele>456.4</ele>
        <time>2022-06-26T04:49:10Z</time>
      </trkpt>
      <trkpt lat="46.04161" lon="4.56834">
        <ele>456.6</ele>
        <time>2022-06-26T04:49:11Z</time>
      </trkpt>
      <trkpt lat="46.0416" lon="4.56832">
        <ele>456.8</ele>
        <time>2022-06-26T04:49:12Z</time>
      </trkpt>
      <trkpt lat="46.04159" lon="4.5683">
        <ele>456.8</ele>
        <time>2022-06-26T04:49:13Z</time>
      </trkpt>
      <trkpt lat="46.04158" lon="4.56827">
        <ele>457.2</ele>
        <time>2022-06-26T04:49:14Z</time>
      </trkpt>
      <trkpt lat="46.04157" lon="4.56824">
        <ele>457.2</ele>
        <time>2022-06-26T04:49:15Z</time>
      </trkpt>
      <trkpt lat="46.04156" lon="4.56821">
        <ele>457.6</ele>
        <time>2022-06-26T04:49:16Z</time>
      </trkpt>
      <trkpt lat="46.04155" lon="4.56818">
        <ele>457.6</ele>
        <time>2022-06-26T04:49:17Z</time>
      </trkpt>
      <trkpt lat="46.04154" lon="4.56814">
        <ele>458</ele>
        <time>2022-06-26T04:49:18Z</time>
      </trkpt>
      <trkpt lat="46.04153" lon="4.56811">
        <ele>458.4</ele>
        <time>2022-06-26T04:49:19Z</time>
      </trkpt>
      <trkpt lat="46.04152" lon="4.56808">
        <ele>458.6</ele>
        <time>2022-06-26T04:49:20Z</time>
      </trkpt>
      <trkpt lat="46.04151" lon="4.56805">
        <ele>458.8</ele>
        <time>2022-06-26T04:49:21Z</time>
      </trkpt>
      <trkpt lat="46.0415" lon="4.56802">
        <ele>458.8</ele>
        <time>2022-06-26T04:49:22Z</time>
      </trkpt>
      <trkpt lat="46.04148" lon="4.56799">
        <ele>459.2</ele>
        <time>2022-06-26T04:49:23Z</time>
      </trkpt>
      <trkpt lat="46.04147" lon="4.56796">
        <ele>459.2</ele>
        <time>2022-06-26T04:49:24Z</time>
      </trkpt>
      <trkpt lat="46.04145" lon="4.56794">
        <ele>459.6</ele>
        <time>2022-06-26T04:49:25Z</time>
      </trkpt>
      <trkpt lat="46.04143" lon="4.56792">
        <ele>459.6</ele>
        <time>2022-06-26T04:49:26Z</time>
      </trkpt>
      <trkpt lat="46.04142" lon="4.5679">
        <ele>460</ele>
        <time>2022-06-26T04:49:27Z</time>
      </trkpt>
      <trkpt lat="46.0414" lon="4.56788">
        <ele>460.2</ele>
        <time>2022-06-26T04:49:28Z</time>
      </trkpt>
      <trkpt lat="46.04138" lon="4.56787">
        <ele>460.6</ele>
        <time>2022-06-26T04:49:29Z</time>
      </trkpt>
      <trkpt lat="46.04136" lon="4.56785">
        <ele>460.6</ele>
        <time>2022-06-26T04:49:30Z</time>
      </trkpt>
      <trkpt lat="46.04134" lon="4.56783">
        <ele>460.8</ele>
        <time>2022-06-26T04:49:31Z</time>
      </trkpt>
      <trkpt lat="46.04132" lon="4.56781">
        <ele>460.8</ele>
        <time>2022-06-26T04:49:32Z</time>
      </trkpt>
      <trkpt lat="46.0413" lon="4.5678">
        <ele>461.2</ele>
        <time>2022-06-26T04:49:33Z</time>
      </trkpt>
      <trkpt lat="46.04127" lon="4.56779">
        <ele>461.2</ele>
        <time>2022-06-26T04:49:34Z</time>
      </trkpt>
      <trkpt lat="46.04125" lon="4.56777">
        <ele>461.4</ele>
        <time>2022-06-26T04:49:35Z</time>
      </trkpt>
      <trkpt lat="46.04123" lon="4.56777">
        <ele>461.8</ele>
        <time>2022-06-26T04:49:36Z</time>
      </trkpt>
      <trkpt lat="46.04121" lon="4.56776">
        <ele>461.8</ele>
        <time>2022-06-26T04:49:37Z</time>
      </trkpt>
      <trkpt lat="46.04118" lon="4.56775">
        <ele>462</ele>
        <time>2022-06-26T04:49:38Z</time>
      </trkpt>
      <trkpt lat="46.04116" lon="4.56775">
        <ele>462</ele>
        <time>2022-06-26T04:49:39Z</time>
      </trkpt>
      <trkpt lat="46.04114" lon="4.56775">
        <ele>462.4</ele>
        <time>2022-06-26T04:49:40Z</time>
      </trkpt>
      <trkpt lat="46.04112" lon="4.56774">
        <ele>462.4</ele>
        <time>2022-06-26T04:49:41Z</time>
      </trkpt>
      <trkpt lat="46.04111" lon="4.56774">
        <ele>462.8</ele>
        <time>2022-06-26T04:49:42Z</time>
      </trkpt>
      <trkpt lat="46.04109" lon="4.56774">
        <ele>463</ele>
        <time>2022-06-26T04:49:43Z</time>
      </trkpt>
      <trkpt lat="46.04107" lon="4.56773">
        <ele>463.2</ele>
        <time>2022-06-26T04:49:44Z</time>
      </trkpt>
      <trkpt lat="46.04105" lon="4.56773">
        <ele>463.2</ele>
        <time>2022-06-26T04:49:45Z</time>
      </trkpt>
      <trkpt lat="46.04103" lon="4.56773">
        <ele>463.6</ele>
        <time>2022-06-26T04:49:46Z</time>
      </trkpt>
      <trkpt lat="46.04101" lon="4.56773">
        <ele>463.6</ele>
        <time>2022-06-26T04:49:47Z</time>
      </trkpt>
      <trkpt lat="46.04098" lon="4.56774">
        <ele>464</ele>
        <time>2022-06-26T04:49:48Z</time>
      </trkpt>
      <trkpt lat="46.04096" lon="4.56774">
        <ele>464</ele>
        <time>2022-06-26T04:49:49Z</time>
      </trkpt>
      <trkpt lat="46.04094" lon="4.56775">
        <ele>464.2</ele>
        <time>2022-06-26T04:49:50Z</time>
      </trkpt>
      <trkpt lat="46.04092" lon="4.56775">
        <ele>464.2</ele>
        <time>2022-06-26T04:49:51Z</time>
      </trkpt>
      <trkpt lat="46.04091" lon="4.56775">
        <ele>464.6</ele>
        <time>2022-06-26T04:49:52Z</time>
      </trkpt>
      <trkpt lat="46.04089" lon="4.56774">
        <ele>464.6</ele>
        <time>2022-06-26T04:49:53Z</time>
      </trkpt>
      <trkpt lat="46.04087" lon="4.56775">
        <ele>465</ele>
        <time>2022-06-26T04:49:54Z</time>
      </trkpt>
      <trkpt lat="46.04085" lon="4.56775">
        <ele>465</ele>
        <time>2022-06-26T04:49:55Z</time>
      </trkpt>
      <trkpt lat="46.04084" lon="4.56775">
        <ele>465.2</ele>
        <time>2022-06-26T04:49:56Z</time>
      </trkpt>
      <trkpt lat="46.04082" lon="4.56775">
        <ele>465.2</ele>
        <time>2022-06-26T04:49:57Z</time>
      </trkpt>
      <trkpt lat="46.0408" lon="4.56776">
        <ele>465.4</ele>
        <time>2022-06-26T04:49:58Z</time>
      </trkpt>
      <trkpt lat="46.04079" lon="4.56776">
        <ele>465.4</ele>
        <time>2022-06-26T04:49:59Z</time>
      </trkpt>
      <trkpt lat="46.04077" lon="4.56777">
        <ele>465.8</ele>
        <time>2022-06-26T04:50:00Z</time>
      </trkpt>
      <trkpt lat="46.04075" lon="4.56778">
        <ele>465.8</ele>
        <time>2022-06-26T04:50:01Z</time>
      </trkpt>
      <trkpt lat="46.04074" lon="4.56779">
        <ele>466.2</ele>
        <time>2022-06-26T04:50:02Z</time>
      </trkpt>
      <trkpt lat="46.04072" lon="4.5678">
        <ele>466.4</ele>
        <time>2022-06-26T04:50:03Z</time>
      </trkpt>
      <trkpt lat="46.0407" lon="4.56781">
        <ele>466.8</ele>
        <time>2022-06-26T04:50:04Z</time>
      </trkpt>
      <trkpt lat="46.04068" lon="4.56782">
        <ele>466.8</ele>
        <time>2022-06-26T04:50:05Z</time>
      </trkpt>
      <trkpt lat="46.04066" lon="4.56784">
        <ele>467</ele>
        <time>2022-06-26T04:50:06Z</time>
      </trkpt>
      <trkpt lat="46.04065" lon="4.56786">
        <ele>467.4</ele>
        <time>2022-06-26T04:50:07Z</time>
      </trkpt>
      <trkpt lat="46.04063" lon="4.56788">
        <ele>467.4</ele>
        <time>2022-06-26T04:50:08Z</time>
      </trkpt>
      <trkpt lat="46.04062" lon="4.56789">
        <ele>467.6</ele>
        <time>2022-06-26T04:50:09Z</time>
      </trkpt>
      <trkpt lat="46.0406" lon="4.56791">
        <ele>467.6</ele>
        <time>2022-06-26T04:50:10Z</time>
      </trkpt>
      <trkpt lat="46.04059" lon="4.56792">
        <ele>468</ele>
        <time>2022-06-26T04:50:11Z</time>
      </trkpt>
      <trkpt lat="46.04057" lon="4.56794">
        <ele>468</ele>
        <time>2022-06-26T04:50:12Z</time>
      </trkpt>
      <trkpt lat="46.04055" lon="4.56796">
        <ele>468.4</ele>
        <time>2022-06-26T04:50:13Z</time>
      </trkpt>
      <trkpt lat="46.04054" lon="4.56798">
        <ele>468.6</ele>
        <time>2022-06-26T04:50:14Z</time>
      </trkpt>
      <trkpt lat="46.04053" lon="4.568">
        <ele>468.6</ele>
        <time>2022-06-26T04:50:15Z</time>
      </trkpt>
      <trkpt lat="46.04051" lon="4.56802">
        <ele>468.8</ele>
        <time>2022-06-26T04:50:16Z</time>
      </trkpt>
      <trkpt lat="46.0405" lon="4.56804">
        <ele>468.8</ele>
        <time>2022-06-26T04:50:17Z</time>
      </trkpt>
      <trkpt lat="46.04048" lon="4.56806">
        <ele>469.2</ele>
        <time>2022-06-26T04:50:18Z</time>
      </trkpt>
      <trkpt lat="46.04047" lon="4.56808">
        <ele>469.2</ele>
        <time>2022-06-26T04:50:19Z</time>
      </trkpt>
      <trkpt lat="46.04046" lon="4.56809">
        <ele>469.6</ele>
        <time>2022-06-26T04:50:20Z</time>
      </trkpt>
      <trkpt lat="46.04044" lon="4.56811">
        <ele>469.6</ele>
        <time>2022-06-26T04:50:21Z</time>
      </trkpt>
      <trkpt lat="46.04043" lon="4.56812">
        <ele>470</ele>
        <time>2022-06-26T04:50:22Z</time>
      </trkpt>
      <trkpt lat="46.04042" lon="4.56814">
        <ele>470.2</ele>
        <time>2022-06-26T04:50:23Z</time>
      </trkpt>
      <trkpt lat="46.04041" lon="4.56816">
        <ele>470.2</ele>
        <time>2022-06-26T04:50:24Z</time>
      </trkpt>
      <trkpt lat="46.04039" lon="4.56818">
        <ele>470.6</ele>
        <time>2022-06-26T04:50:25Z</time>
      </trkpt>
      <trkpt lat="46.04038" lon="4.56819">
        <ele>470.6</ele>
        <time>2022-06-26T04:50:26Z</time>
      </trkpt>
      <trkpt lat="46.04037" lon="4.56821">
        <ele>470.8</ele>
        <time>2022-06-26T04:50:27Z</time>
      </trkpt>
      <trkpt lat="46.04036" lon="4.56822">
        <ele>470.8</ele>
        <time>2022-06-26T04:50:28Z</time>
      </trkpt>
      <trkpt lat="46.04035" lon="4.56823">
        <ele>471.2</ele>
        <time>2022-06-26T04:50:29Z</time>
      </trkpt>
      <trkpt lat="46.04033" lon="4.56825">
        <ele>471.2</ele>
        <time>2022-06-26T04:50:30Z</time>
      </trkpt>
      <trkpt lat="46.04032" lon="4.56826">
        <ele>471.6</ele>
        <time>2022-06-26T04:50:31Z</time>
      </trkpt>
      <trkpt lat="46.04031" lon="4.56827">
        <ele>471.6</ele>
        <time>2022-06-26T04:50:32Z</time>
      </trkpt>
      <trkpt lat="46.04029" lon="4.56829">
        <ele>472</ele>
        <time>2022-06-26T04:50:33Z</time>
      </trkpt>
      <trkpt lat="46.04028" lon="4.56831">
        <ele>472</ele>
        <time>2022-06-26T04:50:34Z</time>
      </trkpt>
      <trkpt lat="46.04026" lon="4.56832">
        <ele>472.2</ele>
        <time>2022-06-26T04:50:35Z</time>
      </trkpt>
      <trkpt lat="46.04025" lon="4.56833">
        <ele>472.4</ele>
        <time>2022-06-26T04:50:36Z</time>
      </trkpt>
      <trkpt lat="46.04023" lon="4.56834">
        <ele>472.4</ele>
        <time>2022-06-26T04:50:37Z</time>
      </trkpt>
      <trkpt lat="46.04021" lon="4.56835">
        <ele>472.4</ele>
        <time>2022-06-26T04:50:38Z</time>
      </trkpt>
      <trkpt lat="46.0402" lon="4.56836">
        <ele>472.8</ele>
        <time>2022-06-26T04:50:39Z</time>
      </trkpt>
      <trkpt lat="46.04018" lon="4.56837">
        <ele>473</ele>
        <time>2022-06-26T04:50:41Z</time>
      </trkpt>
      <trkpt lat="46.04016" lon="4.56837">
        <ele>473.2</ele>
        <time>2022-06-26T04:50:42Z</time>
      </trkpt>
      <trkpt lat="46.04014" lon="4.56838">
        <ele>473.2</ele>
        <time>2022-06-26T04:50:43Z</time>
      </trkpt>
      <trkpt lat="46.04013" lon="4.5684">
        <ele>473.6</ele>
        <time>2022-06-26T04:50:44Z</time>
      </trkpt>
      <trkpt lat="46.04011" lon="4.5684">
        <ele>473.6</ele>
        <time>2022-06-26T04:50:45Z</time>
      </trkpt>
      <trkpt lat="46.0401" lon="4.56841">
        <ele>473.8</ele>
        <time>2022-06-26T04:50:46Z</time>
      </trkpt>
      <trkpt lat="46.04008" lon="4.56842">
        <ele>473.8</ele>
        <time>2022-06-26T04:50:47Z</time>
      </trkpt>
      <trkpt lat="46.04006" lon="4.56842">
        <ele>474.2</ele>
        <time>2022-06-26T04:50:48Z</time>
      </trkpt>
      <trkpt lat="46.04005" lon="4.56843">
        <ele>474.2</ele>
        <time>2022-06-26T04:50:49Z</time>
      </trkpt>
      <trkpt lat="46.04003" lon="4.56843">
        <ele>474.6</ele>
        <time>2022-06-26T04:50:50Z</time>
      </trkpt>
      <trkpt lat="46.04001" lon="4.56844">
        <ele>474.6</ele>
        <time>2022-06-26T04:50:51Z</time>
      </trkpt>
      <trkpt lat="46.04" lon="4.56845">
        <ele>474.8</ele>
        <time>2022-06-26T04:50:52Z</time>
      </trkpt>
      <trkpt lat="46.03998" lon="4.56846">
        <ele>475</ele>
        <time>2022-06-26T04:50:53Z</time>
      </trkpt>
      <trkpt lat="46.03996" lon="4.56846">
        <ele>475.2</ele>
        <time>2022-06-26T04:50:54Z</time>
      </trkpt>
      <trkpt lat="46.03995" lon="4.56846">
        <ele>475.4</ele>
        <time>2022-06-26T04:50:55Z</time>
      </trkpt>
      <trkpt lat="46.03993" lon="4.56846">
        <ele>475.4</ele>
        <time>2022-06-26T04:50:56Z</time>
      </trkpt>
      <trkpt lat="46.03991" lon="4.56846">
        <ele>475.8</ele>
        <time>2022-06-26T04:50:57Z</time>
      </trkpt>
      <trkpt lat="46.03989" lon="4.56847">
        <ele>475.8</ele>
        <time>2022-06-26T04:50:58Z</time>
      </trkpt>
      <trkpt lat="46.03987" lon="4.56847">
        <ele>476.2</ele>
        <time>2022-06-26T04:50:59Z</time>
      </trkpt>
      <trkpt lat="46.03985" lon="4.56848">
        <ele>476.2</ele>
        <time>2022-06-26T04:51:00Z</time>
      </trkpt>
      <trkpt lat="46.03984" lon="4.56849">
        <ele>476.4</ele>
        <time>2022-06-26T04:51:01Z</time>
      </trkpt>
      <trkpt lat="46.03982" lon="4.56849">
        <ele>476.4</ele>
        <time>2022-06-26T04:51:02Z</time>
      </trkpt>
      <trkpt lat="46.0398" lon="4.5685">
        <ele>476.8</ele>
        <time>2022-06-26T04:51:03Z</time>
      </trkpt>
      <trkpt lat="46.03979" lon="4.5685">
        <ele>476.8</ele>
        <time>2022-06-26T04:51:04Z</time>
      </trkpt>
      <trkpt lat="46.03977" lon="4.5685">
        <ele>477</ele>
        <time>2022-06-26T04:51:05Z</time>
      </trkpt>
      <trkpt lat="46.03975" lon="4.56851">
        <ele>477.2</ele>
        <time>2022-06-26T04:51:06Z</time>
      </trkpt>
      <trkpt lat="46.03973" lon="4.56851">
        <ele>477.4</ele>
        <time>2022-06-26T04:51:07Z</time>
      </trkpt>
      <trkpt lat="46.03972" lon="4.56852">
        <ele>477.4</ele>
        <time>2022-06-26T04:51:08Z</time>
      </trkpt>
      <trkpt lat="46.0397" lon="4.56852">
        <ele>477.8</ele>
        <time>2022-06-26T04:51:09Z</time>
      </trkpt>
      <trkpt lat="46.03968" lon="4.56853">
        <ele>477.8</ele>
        <time>2022-06-26T04:51:10Z</time>
      </trkpt>
      <trkpt lat="46.03967" lon="4.56854">
        <ele>478.2</ele>
        <time>2022-06-26T04:51:11Z</time>
      </trkpt>
      <trkpt lat="46.03965" lon="4.56854">
        <ele>478.2</ele>
        <time>2022-06-26T04:51:12Z</time>
      </trkpt>
      <trkpt lat="46.03963" lon="4.56855">
        <ele>478.4</ele>
        <time>2022-06-26T04:51:13Z</time>
      </trkpt>
      <trkpt lat="46.03962" lon="4.56856">
        <ele>478.8</ele>
        <time>2022-06-26T04:51:14Z</time>
      </trkpt>
      <trkpt lat="46.0396" lon="4.56856">
        <ele>478.8</ele>
        <time>2022-06-26T04:51:15Z</time>
      </trkpt>
      <trkpt lat="46.03958" lon="4.56856">
        <ele>479</ele>
        <time>2022-06-26T04:51:16Z</time>
      </trkpt>
      <trkpt lat="46.03956" lon="4.56857">
        <ele>479</ele>
        <time>2022-06-26T04:51:17Z</time>
      </trkpt>
      <trkpt lat="46.03955" lon="4.56857">
        <ele>479.4</ele>
        <time>2022-06-26T04:51:18Z</time>
      </trkpt>
      <trkpt lat="46.03953" lon="4.56857">
        <ele>479.4</ele>
        <time>2022-06-26T04:51:19Z</time>
      </trkpt>
      <trkpt lat="46.03951" lon="4.56858">
        <ele>479.6</ele>
        <time>2022-06-26T04:51:20Z</time>
      </trkpt>
      <trkpt lat="46.03949" lon="4.56858">
        <ele>479.6</ele>
        <time>2022-06-26T04:51:21Z</time>
      </trkpt>
      <trkpt lat="46.03947" lon="4.56858">
        <ele>480</ele>
        <time>2022-06-26T04:51:22Z</time>
      </trkpt>
      <trkpt lat="46.03945" lon="4.56858">
        <ele>480</ele>
        <time>2022-06-26T04:51:23Z</time>
      </trkpt>
      <trkpt lat="46.03943" lon="4.56859">
        <ele>480.2</ele>
        <time>2022-06-26T04:51:24Z</time>
      </trkpt>
      <trkpt lat="46.03941" lon="4.5686">
        <ele>480.2</ele>
        <time>2022-06-26T04:51:25Z</time>
      </trkpt>
      <trkpt lat="46.03939" lon="4.5686">
        <ele>480.6</ele>
        <time>2022-06-26T04:51:26Z</time>
      </trkpt>
      <trkpt lat="46.03938" lon="4.56861">
        <ele>480.6</ele>
        <time>2022-06-26T04:51:27Z</time>
      </trkpt>
      <trkpt lat="46.03936" lon="4.56862">
        <ele>481</ele>
        <time>2022-06-26T04:51:28Z</time>
      </trkpt>
      <trkpt lat="46.03934" lon="4.56863">
        <ele>481.2</ele>
        <time>2022-06-26T04:51:29Z</time>
      </trkpt>
      <trkpt lat="46.03932" lon="4.56864">
        <ele>481.2</ele>
        <time>2022-06-26T04:51:30Z</time>
      </trkpt>
      <trkpt lat="46.0393" lon="4.56864">
        <ele>481.6</ele>
        <time>2022-06-26T04:51:31Z</time>
      </trkpt>
      <trkpt lat="46.03928" lon="4.56865">
        <ele>481.6</ele>
        <time>2022-06-26T04:51:32Z</time>
      </trkpt>
      <trkpt lat="46.03926" lon="4.56866">
        <ele>482</ele>
        <time>2022-06-26T04:51:33Z</time>
      </trkpt>
      <trkpt lat="46.03924" lon="4.56867">
        <ele>482.2</ele>
        <time>2022-06-26T04:51:34Z</time>
      </trkpt>
      <trkpt lat="46.03922" lon="4.56868">
        <ele>482.2</ele>
        <time>2022-06-26T04:51:35Z</time>
      </trkpt>
      <trkpt lat="46.0392" lon="4.56869">
        <ele>482.6</ele>
        <time>2022-06-26T04:51:36Z</time>
      </trkpt>
      <trkpt lat="46.03918" lon="4.5687">
        <ele>482.8</ele>
        <time>2022-06-26T04:51:37Z</time>
      </trkpt>
      <trkpt lat="46.03917" lon="4.56871">
        <ele>483.2</ele>
        <time>2022-06-26T04:51:38Z</time>
      </trkpt>
      <trkpt lat="46.03915" lon="4.56873">
        <ele>483.4</ele>
        <time>2022-06-26T04:51:39Z</time>
      </trkpt>
      <trkpt lat="46.03913" lon="4.56874">
        <ele>483.6</ele>
        <time>2022-06-26T04:51:40Z</time>
      </trkpt>
      <trkpt lat="46.03911" lon="4.56875">
        <ele>483.8</ele>
        <time>2022-06-26T04:51:41Z</time>
      </trkpt>
      <trkpt lat="46.0391" lon="4.56876">
        <ele>483.8</ele>
        <time>2022-06-26T04:51:42Z</time>
      </trkpt>
      <trkpt lat="46.03908" lon="4.56877">
        <ele>484.2</ele>
        <time>2022-06-26T04:51:43Z</time>
      </trkpt>
      <trkpt lat="46.03906" lon="4.56878">
        <ele>484.4</ele>
        <time>2022-06-26T04:51:44Z</time>
      </trkpt>
      <trkpt lat="46.03904" lon="4.5688">
        <ele>484.6</ele>
        <time>2022-06-26T04:51:45Z</time>
      </trkpt>
      <trkpt lat="46.03903" lon="4.56881">
        <ele>485</ele>
        <time>2022-06-26T04:51:46Z</time>
      </trkpt>
      <trkpt lat="46.03901" lon="4.56882">
        <ele>485</ele>
        <time>2022-06-26T04:51:47Z</time>
      </trkpt>
      <trkpt lat="46.03899" lon="4.56884">
        <ele>485.2</ele>
        <time>2022-06-26T04:51:48Z</time>
      </trkpt>
      <trkpt lat="46.03898" lon="4.56885">
        <ele>485.2</ele>
        <time>2022-06-26T04:51:49Z</time>
      </trkpt>
      <trkpt lat="46.03896" lon="4.56887">
        <ele>485.6</ele>
        <time>2022-06-26T04:51:50Z</time>
      </trkpt>
      <trkpt lat="46.03895" lon="4.56889">
        <ele>485.6</ele>
        <time>2022-06-26T04:51:51Z</time>
      </trkpt>
      <trkpt lat="46.03893" lon="4.5689">
        <ele>486</ele>
        <time>2022-06-26T04:51:52Z</time>
      </trkpt>
      <trkpt lat="46.03892" lon="4.56892">
        <ele>486</ele>
        <time>2022-06-26T04:51:53Z</time>
      </trkpt>
      <trkpt lat="46.0389" lon="4.56893">
        <ele>486.2</ele>
        <time>2022-06-26T04:51:54Z</time>
      </trkpt>
      <trkpt lat="46.03889" lon="4.56895">
        <ele>486.2</ele>
        <time>2022-06-26T04:51:55Z</time>
      </trkpt>
      <trkpt lat="46.03887" lon="4.56896">
        <ele>486.6</ele>
        <time>2022-06-26T04:51:56Z</time>
      </trkpt>
      <trkpt lat="46.03886" lon="4.56898">
        <ele>486.6</ele>
        <time>2022-06-26T04:51:57Z</time>
      </trkpt>
      <trkpt lat="46.03884" lon="4.56899">
        <ele>487</ele>
        <time>2022-06-26T04:51:58Z</time>
      </trkpt>
      <trkpt lat="46.03882" lon="4.569">
        <ele>487</ele>
        <time>2022-06-26T04:51:59Z</time>
      </trkpt>
      <trkpt lat="46.03881" lon="4.56902">
        <ele>487.2</ele>
        <time>2022-06-26T04:52:00Z</time>
      </trkpt>
      <trkpt lat="46.03879" lon="4.56903">
        <ele>487.2</ele>
        <time>2022-06-26T04:52:01Z</time>
      </trkpt>
      <trkpt lat="46.03877" lon="4.56905">
        <ele>487.6</ele>
        <time>2022-06-26T04:52:02Z</time>
      </trkpt>
      <trkpt lat="46.03876" lon="4.56907">
        <ele>487.8</ele>
        <time>2022-06-26T04:52:03Z</time>
      </trkpt>
      <trkpt lat="46.03874" lon="4.56908">
        <ele>487.8</ele>
        <time>2022-06-26T04:52:04Z</time>
      </trkpt>
      <trkpt lat="46.03872" lon="4.5691">
        <ele>488</ele>
        <time>2022-06-26T04:52:05Z</time>
      </trkpt>
      <trkpt lat="46.03871" lon="4.56912">
        <ele>488</ele>
        <time>2022-06-26T04:52:06Z</time>
      </trkpt>
      <trkpt lat="46.03869" lon="4.56914">
        <ele>488.4</ele>
        <time>2022-06-26T04:52:07Z</time>
      </trkpt>
      <trkpt lat="46.03867" lon="4.56916">
        <ele>488.4</ele>
        <time>2022-06-26T04:52:08Z</time>
      </trkpt>
      <trkpt lat="46.03866" lon="4.56918">
        <ele>488.8</ele>
        <time>2022-06-26T04:52:09Z</time>
      </trkpt>
      <trkpt lat="46.03864" lon="4.5692">
        <ele>488.8</ele>
        <time>2022-06-26T04:52:10Z</time>
      </trkpt>
      <trkpt lat="46.03862" lon="4.56921">
        <ele>489.2</ele>
        <time>2022-06-26T04:52:11Z</time>
      </trkpt>
      <trkpt lat="46.03861" lon="4.56923">
        <ele>489.2</ele>
        <time>2022-06-26T04:52:12Z</time>
      </trkpt>
      <trkpt lat="46.03859" lon="4.56925">
        <ele>489.6</ele>
        <time>2022-06-26T04:52:13Z</time>
      </trkpt>
      <trkpt lat="46.03858" lon="4.56927">
        <ele>489.6</ele>
        <time>2022-06-26T04:52:14Z</time>
      </trkpt>
      <trkpt lat="46.03856" lon="4.56928">
        <ele>490</ele>
        <time>2022-06-26T04:52:15Z</time>
      </trkpt>
      <trkpt lat="46.03854" lon="4.5693">
        <ele>490</ele>
        <time>2022-06-26T04:52:16Z</time>
      </trkpt>
      <trkpt lat="46.03852" lon="4.56931">
        <ele>490.2</ele>
        <time>2022-06-26T04:52:17Z</time>
      </trkpt>
      <trkpt lat="46.03851" lon="4.56932">
        <ele>490.2</ele>
        <time>2022-06-26T04:52:18Z</time>
      </trkpt>
      <trkpt lat="46.03849" lon="4.56933">
        <ele>490.6</ele>
        <time>2022-06-26T04:52:19Z</time>
      </trkpt>
      <trkpt lat="46.03847" lon="4.56934">
        <ele>490.6</ele>
        <time>2022-06-26T04:52:20Z</time>
      </trkpt>
      <trkpt lat="46.03845" lon="4.56935">
        <ele>490.8</ele>
        <time>2022-06-26T04:52:21Z</time>
      </trkpt>
      <trkpt lat="46.03843" lon="4.56936">
        <ele>491</ele>
        <time>2022-06-26T04:52:22Z</time>
      </trkpt>
      <trkpt lat="46.03841" lon="4.56938">
        <ele>491</ele>
        <time>2022-06-26T04:52:23Z</time>
      </trkpt>
      <trkpt lat="46.03839" lon="4.56939">
        <ele>491.4</ele>
        <time>2022-06-26T04:52:24Z</time>
      </trkpt>
      <trkpt lat="46.03837" lon="4.56939">
        <ele>491.4</ele>
        <time>2022-06-26T04:52:25Z</time>
      </trkpt>
      <trkpt lat="46.03835" lon="4.56941">
        <ele>491.8</ele>
        <time>2022-06-26T04:52:26Z</time>
      </trkpt>
      <trkpt lat="46.03834" lon="4.56942">
        <ele>491.8</ele>
        <time>2022-06-26T04:52:27Z</time>
      </trkpt>
      <trkpt lat="46.03832" lon="4.56943">
        <ele>492.2</ele>
        <time>2022-06-26T04:52:28Z</time>
      </trkpt>
      <trkpt lat="46.0383" lon="4.56944">
        <ele>492.2</ele>
        <time>2022-06-26T04:52:29Z</time>
      </trkpt>
      <trkpt lat="46.03829" lon="4.56945">
        <ele>492.4</ele>
        <time>2022-06-26T04:52:30Z</time>
      </trkpt>
      <trkpt lat="46.03827" lon="4.56946">
        <ele>492.4</ele>
        <time>2022-06-26T04:52:31Z</time>
      </trkpt>
      <trkpt lat="46.03825" lon="4.56946">
        <ele>492.6</ele>
        <time>2022-06-26T04:52:32Z</time>
      </trkpt>
      <trkpt lat="46.03823" lon="4.56947">
        <ele>492.6</ele>
        <time>2022-06-26T04:52:33Z</time>
      </trkpt>
      <trkpt lat="46.03822" lon="4.56947">
        <ele>493</ele>
        <time>2022-06-26T04:52:34Z</time>
      </trkpt>
      <trkpt lat="46.0382" lon="4.56947">
        <ele>493</ele>
        <time>2022-06-26T04:52:35Z</time>
      </trkpt>
      <trkpt lat="46.03818" lon="4.56947">
        <ele>493.2</ele>
        <time>2022-06-26T04:52:36Z</time>
      </trkpt>
      <trkpt lat="46.03816" lon="4.56947">
        <ele>493.2</ele>
        <time>2022-06-26T04:52:37Z</time>
      </trkpt>
      <trkpt lat="46.03814" lon="4.56948">
        <ele>493.6</ele>
        <time>2022-06-26T04:52:38Z</time>
      </trkpt>
      <trkpt lat="46.03812" lon="4.56949">
        <ele>493.6</ele>
        <time>2022-06-26T04:52:39Z</time>
      </trkpt>
      <trkpt lat="46.03811" lon="4.56949">
        <ele>493.8</ele>
        <time>2022-06-26T04:52:40Z</time>
      </trkpt>
      <trkpt lat="46.03809" lon="4.56949">
        <ele>494</ele>
        <time>2022-06-26T04:52:41Z</time>
      </trkpt>
      <trkpt lat="46.03807" lon="4.56949">
        <ele>494</ele>
        <time>2022-06-26T04:52:42Z</time>
      </trkpt>
      <trkpt lat="46.03805" lon="4.56949">
        <ele>494.4</ele>
        <time>2022-06-26T04:52:43Z</time>
      </trkpt>
      <trkpt lat="46.03803" lon="4.5695">
        <ele>494.4</ele>
        <time>2022-06-26T04:52:44Z</time>
      </trkpt>
      <trkpt lat="46.03801" lon="4.5695">
        <ele>494.6</ele>
        <time>2022-06-26T04:52:45Z</time>
      </trkpt>
      <trkpt lat="46.03799" lon="4.5695">
        <ele>494.6</ele>
        <time>2022-06-26T04:52:46Z</time>
      </trkpt>
      <trkpt lat="46.03797" lon="4.56951">
        <ele>495</ele>
        <time>2022-06-26T04:52:47Z</time>
      </trkpt>
      <trkpt lat="46.03795" lon="4.56951">
        <ele>495</ele>
        <time>2022-06-26T04:52:48Z</time>
      </trkpt>
      <trkpt lat="46.03793" lon="4.56951">
        <ele>495.4</ele>
        <time>2022-06-26T04:52:49Z</time>
      </trkpt>
      <trkpt lat="46.03792" lon="4.56952">
        <ele>495.4</ele>
        <time>2022-06-26T04:52:50Z</time>
      </trkpt>
      <trkpt lat="46.0379" lon="4.56952">
        <ele>495.6</ele>
        <time>2022-06-26T04:52:51Z</time>
      </trkpt>
      <trkpt lat="46.03788" lon="4.56952">
        <ele>495.6</ele>
        <time>2022-06-26T04:52:52Z</time>
      </trkpt>
      <trkpt lat="46.03786" lon="4.56952">
        <ele>496</ele>
        <time>2022-06-26T04:52:53Z</time>
      </trkpt>
      <trkpt lat="46.03784" lon="4.56952">
        <ele>496</ele>
        <time>2022-06-26T04:52:54Z</time>
      </trkpt>
      <trkpt lat="46.03782" lon="4.56952">
        <ele>496.2</ele>
        <time>2022-06-26T04:52:55Z</time>
      </trkpt>
      <trkpt lat="46.0378" lon="4.56953">
        <ele>496.2</ele>
        <time>2022-06-26T04:52:56Z</time>
      </trkpt>
      <trkpt lat="46.03778" lon="4.56953">
        <ele>496.6</ele>
        <time>2022-06-26T04:52:57Z</time>
      </trkpt>
      <trkpt lat="46.03776" lon="4.56953">
        <ele>496.6</ele>
        <time>2022-06-26T04:52:58Z</time>
      </trkpt>
      <trkpt lat="46.03774" lon="4.56953">
        <ele>496.8</ele>
        <time>2022-06-26T04:52:59Z</time>
      </trkpt>
      <trkpt lat="46.03772" lon="4.56953">
        <ele>496.8</ele>
        <time>2022-06-26T04:53:00Z</time>
      </trkpt>
      <trkpt lat="46.0377" lon="4.56954">
        <ele>497.2</ele>
        <time>2022-06-26T04:53:01Z</time>
      </trkpt>
      <trkpt lat="46.03768" lon="4.56955">
        <ele>497.2</ele>
        <time>2022-06-26T04:53:02Z</time>
      </trkpt>
      <trkpt lat="46.03767" lon="4.56955">
        <ele>497.6</ele>
        <time>2022-06-26T04:53:03Z</time>
      </trkpt>
      <trkpt lat="46.03765" lon="4.56956">
        <ele>497.6</ele>
        <time>2022-06-26T04:53:04Z</time>
      </trkpt>
      <trkpt lat="46.03763" lon="4.56957">
        <ele>497.8</ele>
        <time>2022-06-26T04:53:05Z</time>
      </trkpt>
      <trkpt lat="46.03761" lon="4.56957">
        <ele>497.8</ele>
        <time>2022-06-26T04:53:06Z</time>
      </trkpt>
      <trkpt lat="46.03759" lon="4.56957">
        <ele>498.2</ele>
        <time>2022-06-26T04:53:07Z</time>
      </trkpt>
      <trkpt lat="46.03757" lon="4.56958">
        <ele>498.2</ele>
        <time>2022-06-26T04:53:08Z</time>
      </trkpt>
      <trkpt lat="46.03755" lon="4.56959">
        <ele>498.4</ele>
        <time>2022-06-26T04:53:09Z</time>
      </trkpt>
      <trkpt lat="46.03753" lon="4.56959">
        <ele>498.4</ele>
        <time>2022-06-26T04:53:10Z</time>
      </trkpt>
      <trkpt lat="46.03752" lon="4.56959">
        <ele>498.6</ele>
        <time>2022-06-26T04:53:11Z</time>
      </trkpt>
      <trkpt lat="46.0375" lon="4.56959">
        <ele>498.6</ele>
        <time>2022-06-26T04:53:12Z</time>
      </trkpt>
      <trkpt lat="46.03748" lon="4.5696">
        <ele>499</ele>
        <time>2022-06-26T04:53:13Z</time>
      </trkpt>
      <trkpt lat="46.03746" lon="4.5696">
        <ele>499</ele>
        <time>2022-06-26T04:53:14Z</time>
      </trkpt>
      <trkpt lat="46.03744" lon="4.5696">
        <ele>499.2</ele>
        <time>2022-06-26T04:53:15Z</time>
      </trkpt>
      <trkpt lat="46.03742" lon="4.56961">
        <ele>499.2</ele>
        <time>2022-06-26T04:53:16Z</time>
      </trkpt>
      <trkpt lat="46.0374" lon="4.56961">
        <ele>499.6</ele>
        <time>2022-06-26T04:53:17Z</time>
      </trkpt>
      <trkpt lat="46.03739" lon="4.56962">
        <ele>499.8</ele>
        <time>2022-06-26T04:53:18Z</time>
      </trkpt>
      <trkpt lat="46.03737" lon="4.56962">
        <ele>499.8</ele>
        <time>2022-06-26T04:53:19Z</time>
      </trkpt>
      <trkpt lat="46.03735" lon="4.56962">
        <ele>500</ele>
        <time>2022-06-26T04:53:20Z</time>
      </trkpt>
      <trkpt lat="46.03733" lon="4.56963">
        <ele>500</ele>
        <time>2022-06-26T04:53:21Z</time>
      </trkpt>
      <trkpt lat="46.03732" lon="4.56963">
        <ele>500.2</ele>
        <time>2022-06-26T04:53:22Z</time>
      </trkpt>
      <trkpt lat="46.0373" lon="4.56963">
        <ele>500.2</ele>
        <time>2022-06-26T04:53:23Z</time>
      </trkpt>
      <trkpt lat="46.03728" lon="4.56964">
        <ele>500.6</ele>
        <time>2022-06-26T04:53:24Z</time>
      </trkpt>
      <trkpt lat="46.03726" lon="4.56965">
        <ele>500.6</ele>
        <time>2022-06-26T04:53:25Z</time>
      </trkpt>
      <trkpt lat="46.03724" lon="4.56966">
        <ele>501</ele>
        <time>2022-06-26T04:53:26Z</time>
      </trkpt>
      <trkpt lat="46.03722" lon="4.56966">
        <ele>501</ele>
        <time>2022-06-26T04:53:27Z</time>
      </trkpt>
      <trkpt lat="46.0372" lon="4.56967">
        <ele>501.4</ele>
        <time>2022-06-26T04:53:28Z</time>
      </trkpt>
      <trkpt lat="46.03718" lon="4.56967">
        <ele>501.4</ele>
        <time>2022-06-26T04:53:29Z</time>
      </trkpt>
      <trkpt lat="46.03716" lon="4.56967">
        <ele>501.6</ele>
        <time>2022-06-26T04:53:30Z</time>
      </trkpt>
      <trkpt lat="46.03714" lon="4.56968">
        <ele>501.6</ele>
        <time>2022-06-26T04:53:31Z</time>
      </trkpt>
      <trkpt lat="46.03712" lon="4.56968">
        <ele>502</ele>
        <time>2022-06-26T04:53:32Z</time>
      </trkpt>
      <trkpt lat="46.0371" lon="4.56969">
        <ele>502.4</ele>
        <time>2022-06-26T04:53:33Z</time>
      </trkpt>
      <trkpt lat="46.03709" lon="4.5697">
        <ele>502.4</ele>
        <time>2022-06-26T04:53:34Z</time>
      </trkpt>
      <trkpt lat="46.03707" lon="4.5697">
        <ele>502.6</ele>
        <time>2022-06-26T04:53:35Z</time>
      </trkpt>
      <trkpt lat="46.03705" lon="4.5697">
        <ele>502.6</ele>
        <time>2022-06-26T04:53:36Z</time>
      </trkpt>
      <trkpt lat="46.03703" lon="4.56971">
        <ele>502.8</ele>
        <time>2022-06-26T04:53:37Z</time>
      </trkpt>
      <trkpt lat="46.03701" lon="4.56971">
        <ele>502.8</ele>
        <time>2022-06-26T04:53:38Z</time>
      </trkpt>
      <trkpt lat="46.03699" lon="4.56972">
        <ele>503.2</ele>
        <time>2022-06-26T04:53:39Z</time>
      </trkpt>
      <trkpt lat="46.03696" lon="4.56972">
        <ele>503.2</ele>
        <time>2022-06-26T04:53:40Z</time>
      </trkpt>
      <trkpt lat="46.03694" lon="4.56973">
        <ele>503.6</ele>
        <time>2022-06-26T04:53:41Z</time>
      </trkpt>
      <trkpt lat="46.03692" lon="4.56973">
        <ele>503.8</ele>
        <time>2022-06-26T04:53:42Z</time>
      </trkpt>
      <trkpt lat="46.03691" lon="4.56974">
        <ele>503.8</ele>
        <time>2022-06-26T04:53:43Z</time>
      </trkpt>
      <trkpt lat="46.03689" lon="4.56975">
        <ele>504</ele>
        <time>2022-06-26T04:53:44Z</time>
      </trkpt>
      <trkpt lat="46.03687" lon="4.56976">
        <ele>504</ele>
        <time>2022-06-26T04:53:45Z</time>
      </trkpt>
      <trkpt lat="46.03685" lon="4.56976">
        <ele>504.4</ele>
        <time>2022-06-26T04:53:46Z</time>
      </trkpt>
      <trkpt lat="46.03683" lon="4.56977">
        <ele>504.4</ele>
        <time>2022-06-26T04:53:47Z</time>
      </trkpt>
      <trkpt lat="46.03681" lon="4.56978">
        <ele>504.8</ele>
        <time>2022-06-26T04:53:48Z</time>
      </trkpt>
      <trkpt lat="46.03679" lon="4.56978">
        <ele>505</ele>
        <time>2022-06-26T04:53:49Z</time>
      </trkpt>
      <trkpt lat="46.03677" lon="4.56978">
        <ele>505</ele>
        <time>2022-06-26T04:53:50Z</time>
      </trkpt>
      <trkpt lat="46.03676" lon="4.56979">
        <ele>505.4</ele>
        <time>2022-06-26T04:53:51Z</time>
      </trkpt>
      <trkpt lat="46.03674" lon="4.56979">
        <ele>505.4</ele>
        <time>2022-06-26T04:53:52Z</time>
      </trkpt>
      <trkpt lat="46.03672" lon="4.56979">
        <ele>505.8</ele>
        <time>2022-06-26T04:53:53Z</time>
      </trkpt>
      <trkpt lat="46.0367" lon="4.56979">
        <ele>505.8</ele>
        <time>2022-06-26T04:53:54Z</time>
      </trkpt>
      <trkpt lat="46.03668" lon="4.5698">
        <ele>506.2</ele>
        <time>2022-06-26T04:53:55Z</time>
      </trkpt>
      <trkpt lat="46.03666" lon="4.5698">
        <ele>506.2</ele>
        <time>2022-06-26T04:53:56Z</time>
      </trkpt>
      <trkpt lat="46.03664" lon="4.5698">
        <ele>506.4</ele>
        <time>2022-06-26T04:53:57Z</time>
      </trkpt>
      <trkpt lat="46.03663" lon="4.56981">
        <ele>506.4</ele>
        <time>2022-06-26T04:53:58Z</time>
      </trkpt>
      <trkpt lat="46.03661" lon="4.56981">
        <ele>506.6</ele>
        <time>2022-06-26T04:53:59Z</time>
      </trkpt>
      <trkpt lat="46.03659" lon="4.56981">
        <ele>506.6</ele>
        <time>2022-06-26T04:54:00Z</time>
      </trkpt>
      <trkpt lat="46.03657" lon="4.56981">
        <ele>507</ele>
        <time>2022-06-26T04:54:01Z</time>
      </trkpt>
      <trkpt lat="46.03655" lon="4.56981">
        <ele>507</ele>
        <time>2022-06-26T04:54:02Z</time>
      </trkpt>
      <trkpt lat="46.03653" lon="4.56982">
        <ele>507.2</ele>
        <time>2022-06-26T04:54:03Z</time>
      </trkpt>
      <trkpt lat="46.03652" lon="4.56982">
        <ele>507.2</ele>
        <time>2022-06-26T04:54:04Z</time>
      </trkpt>
      <trkpt lat="46.0365" lon="4.56983">
        <ele>507.6</ele>
        <time>2022-06-26T04:54:05Z</time>
      </trkpt>
      <trkpt lat="46.03648" lon="4.56983">
        <ele>507.6</ele>
        <time>2022-06-26T04:54:06Z</time>
      </trkpt>
      <trkpt lat="46.03646" lon="4.56982">
        <ele>507.8</ele>
        <time>2022-06-26T04:54:07Z</time>
      </trkpt>
      <trkpt lat="46.03644" lon="4.56982">
        <ele>507.8</ele>
        <time>2022-06-26T04:54:08Z</time>
      </trkpt>
      <trkpt lat="46.03643" lon="4.56982">
        <ele>508.2</ele>
        <time>2022-06-26T04:54:09Z</time>
      </trkpt>
      <trkpt lat="46.03641" lon="4.56982">
        <ele>508.2</ele>
        <time>2022-06-26T04:54:10Z</time>
      </trkpt>
      <trkpt lat="46.03639" lon="4.56983">
        <ele>508.6</ele>
        <time>2022-06-26T04:54:11Z</time>
      </trkpt>
      <trkpt lat="46.03638" lon="4.56983">
        <ele>508.6</ele>
        <time>2022-06-26T04:54:12Z</time>
      </trkpt>
      <trkpt lat="46.03636" lon="4.56983">
        <ele>508.8</ele>
        <time>2022-06-26T04:54:13Z</time>
      </trkpt>
      <trkpt lat="46.03634" lon="4.56983">
        <ele>508.8</ele>
        <time>2022-06-26T04:54:14Z</time>
      </trkpt>
      <trkpt lat="46.03632" lon="4.56983">
        <ele>509</ele>
        <time>2022-06-26T04:54:15Z</time>
      </trkpt>
      <trkpt lat="46.0363" lon="4.56983">
        <ele>509</ele>
        <time>2022-06-26T04:54:16Z</time>
      </trkpt>
      <trkpt lat="46.03629" lon="4.56983">
        <ele>509.4</ele>
        <time>2022-06-26T04:54:17Z</time>
      </trkpt>
      <trkpt lat="46.03627" lon="4.56983">
        <ele>509.6</ele>
        <time>2022-06-26T04:54:18Z</time>
      </trkpt>
      <trkpt lat="46.03625" lon="4.56982">
        <ele>509.8</ele>
        <time>2022-06-26T04:54:19Z</time>
      </trkpt>
      <trkpt lat="46.03623" lon="4.56982">
        <ele>509.8</ele>
        <time>2022-06-26T04:54:20Z</time>
      </trkpt>
      <trkpt lat="46.03622" lon="4.56982">
        <ele>510</ele>
        <time>2022-06-26T04:54:21Z</time>
      </trkpt>
      <trkpt lat="46.0362" lon="4.56983">
        <ele>510</ele>
        <time>2022-06-26T04:54:22Z</time>
      </trkpt>
      <trkpt lat="46.03618" lon="4.56983">
        <ele>510.4</ele>
        <time>2022-06-26T04:54:23Z</time>
      </trkpt>
      <trkpt lat="46.03616" lon="4.56983">
        <ele>510.4</ele>
        <time>2022-06-26T04:54:24Z</time>
      </trkpt>
      <trkpt lat="46.03614" lon="4.56983">
        <ele>510.6</ele>
        <time>2022-06-26T04:54:25Z</time>
      </trkpt>
      <trkpt lat="46.03613" lon="4.56983">
        <ele>510.8</ele>
        <time>2022-06-26T04:54:26Z</time>
      </trkpt>
      <trkpt lat="46.03611" lon="4.56983">
        <ele>511</ele>
        <time>2022-06-26T04:54:27Z</time>
      </trkpt>
      <trkpt lat="46.03609" lon="4.56983">
        <ele>511</ele>
        <time>2022-06-26T04:54:28Z</time>
      </trkpt>
      <trkpt lat="46.03608" lon="4.56983">
        <ele>511.4</ele>
        <time>2022-06-26T04:54:29Z</time>
      </trkpt>
      <trkpt lat="46.03606" lon="4.56983">
        <ele>511.4</ele>
        <time>2022-06-26T04:54:30Z</time>
      </trkpt>
      <trkpt lat="46.03604" lon="4.56983">
        <ele>511.6</ele>
        <time>2022-06-26T04:54:31Z</time>
      </trkpt>
      <trkpt lat="46.03602" lon="4.56983">
        <ele>511.6</ele>
        <time>2022-06-26T04:54:32Z</time>
      </trkpt>
      <trkpt lat="46.03601" lon="4.56983">
        <ele>512</ele>
        <time>2022-06-26T04:54:33Z</time>
      </trkpt>
      <trkpt lat="46.03599" lon="4.56983">
        <ele>512</ele>
        <time>2022-06-26T04:54:34Z</time>
      </trkpt>
      <trkpt lat="46.03597" lon="4.56983">
        <ele>512.4</ele>
        <time>2022-06-26T04:54:35Z</time>
      </trkpt>
      <trkpt lat="46.03595" lon="4.56983">
        <ele>512.4</ele>
        <time>2022-06-26T04:54:36Z</time>
      </trkpt>
      <trkpt lat="46.03593" lon="4.56983">
        <ele>512.8</ele>
        <time>2022-06-26T04:54:37Z</time>
      </trkpt>
      <trkpt lat="46.03592" lon="4.56983">
        <ele>513</ele>
        <time>2022-06-26T04:54:38Z</time>
      </trkpt>
      <trkpt lat="46.0359" lon="4.56983">
        <ele>513</ele>
        <time>2022-06-26T04:54:39Z</time>
      </trkpt>
      <trkpt lat="46.03588" lon="4.56983">
        <ele>513.4</ele>
        <time>2022-06-26T04:54:40Z</time>
      </trkpt>
      <trkpt lat="46.03587" lon="4.56984">
        <ele>513.6</ele>
        <time>2022-06-26T04:54:41Z</time>
      </trkpt>
      <trkpt lat="46.03585" lon="4.56984">
        <ele>513.6</ele>
        <time>2022-06-26T04:54:42Z</time>
      </trkpt>
      <trkpt lat="46.03584" lon="4.56984">
        <ele>514</ele>
        <time>2022-06-26T04:54:43Z</time>
      </trkpt>
      <trkpt lat="46.03582" lon="4.56985">
        <ele>514</ele>
        <time>2022-06-26T04:54:44Z</time>
      </trkpt>
      <trkpt lat="46.0358" lon="4.56985">
        <ele>514.2</ele>
        <time>2022-06-26T04:54:45Z</time>
      </trkpt>
      <trkpt lat="46.03578" lon="4.56985">
        <ele>514.2</ele>
        <time>2022-06-26T04:54:46Z</time>
      </trkpt>
      <trkpt lat="46.03577" lon="4.56985">
        <ele>514.4</ele>
        <time>2022-06-26T04:54:47Z</time>
      </trkpt>
      <trkpt lat="46.03575" lon="4.56985">
        <ele>514.4</ele>
        <time>2022-06-26T04:54:48Z</time>
      </trkpt>
      <trkpt lat="46.03573" lon="4.56985">
        <ele>514.8</ele>
        <time>2022-06-26T04:54:49Z</time>
      </trkpt>
      <trkpt lat="46.03571" lon="4.56985">
        <ele>514.8</ele>
        <time>2022-06-26T04:54:50Z</time>
      </trkpt>
      <trkpt lat="46.0357" lon="4.56985">
        <ele>515</ele>
        <time>2022-06-26T04:54:51Z</time>
      </trkpt>
      <trkpt lat="46.03568" lon="4.56986">
        <ele>515</ele>
        <time>2022-06-26T04:54:52Z</time>
      </trkpt>
      <trkpt lat="46.03566" lon="4.56987">
        <ele>515.4</ele>
        <time>2022-06-26T04:54:53Z</time>
      </trkpt>
      <trkpt lat="46.03564" lon="4.56987">
        <ele>515.6</ele>
        <time>2022-06-26T04:54:54Z</time>
      </trkpt>
      <trkpt lat="46.03562" lon="4.56988">
        <ele>515.8</ele>
        <time>2022-06-26T04:54:55Z</time>
      </trkpt>
      <trkpt lat="46.0356" lon="4.56988">
        <ele>515.8</ele>
        <time>2022-06-26T04:54:56Z</time>
      </trkpt>
      <trkpt lat="46.03559" lon="4.56989">
        <ele>516</ele>
        <time>2022-06-26T04:54:57Z</time>
      </trkpt>
      <trkpt lat="46.03557" lon="4.5699">
        <ele>516</ele>
        <time>2022-06-26T04:54:58Z</time>
      </trkpt>
      <trkpt lat="46.03555" lon="4.5699">
        <ele>516.4</ele>
        <time>2022-06-26T04:54:59Z</time>
      </trkpt>
      <trkpt lat="46.03553" lon="4.56991">
        <ele>516.6</ele>
        <time>2022-06-26T04:55:00Z</time>
      </trkpt>
      <trkpt lat="46.03551" lon="4.56991">
        <ele>516.6</ele>
        <time>2022-06-26T04:55:01Z</time>
      </trkpt>
      <trkpt lat="46.03549" lon="4.56991">
        <ele>517</ele>
        <time>2022-06-26T04:55:02Z</time>
      </trkpt>
      <trkpt lat="46.03548" lon="4.56992">
        <ele>517</ele>
        <time>2022-06-26T04:55:03Z</time>
      </trkpt>
      <trkpt lat="46.03546" lon="4.56993">
        <ele>517.4</ele>
        <time>2022-06-26T04:55:04Z</time>
      </trkpt>
      <trkpt lat="46.03544" lon="4.56995">
        <ele>517.4</ele>
        <time>2022-06-26T04:55:05Z</time>
      </trkpt>
      <trkpt lat="46.03542" lon="4.56996">
        <ele>517.6</ele>
        <time>2022-06-26T04:55:06Z</time>
      </trkpt>
      <trkpt lat="46.0354" lon="4.56997">
        <ele>517.6</ele>
        <time>2022-06-26T04:55:07Z</time>
      </trkpt>
      <trkpt lat="46.03538" lon="4.56998">
        <ele>517.8</ele>
        <time>2022-06-26T04:55:08Z</time>
      </trkpt>
      <trkpt lat="46.03536" lon="4.56999">
        <ele>517.8</ele>
        <time>2022-06-26T04:55:09Z</time>
      </trkpt>
      <trkpt lat="46.03534" lon="4.56999">
        <ele>518.2</ele>
        <time>2022-06-26T04:55:10Z</time>
      </trkpt>
      <trkpt lat="46.03532" lon="4.57">
        <ele>518.2</ele>
        <time>2022-06-26T04:55:11Z</time>
      </trkpt>
      <trkpt lat="46.0353" lon="4.57001">
        <ele>518.6</ele>
        <time>2022-06-26T04:55:12Z</time>
      </trkpt>
      <trkpt lat="46.03528" lon="4.57002">
        <ele>518.6</ele>
        <time>2022-06-26T04:55:13Z</time>
      </trkpt>
      <trkpt lat="46.03526" lon="4.57003">
        <ele>519</ele>
        <time>2022-06-26T04:55:14Z</time>
      </trkpt>
      <trkpt lat="46.03524" lon="4.57003">
        <ele>519</ele>
        <time>2022-06-26T04:55:15Z</time>
      </trkpt>
      <trkpt lat="46.03522" lon="4.57004">
        <ele>519.2</ele>
        <time>2022-06-26T04:55:16Z</time>
      </trkpt>
      <trkpt lat="46.0352" lon="4.57005">
        <ele>519.2</ele>
        <time>2022-06-26T04:55:17Z</time>
      </trkpt>
      <trkpt lat="46.03519" lon="4.57006">
        <ele>519.2</ele>
        <time>2022-06-26T04:55:18Z</time>
      </trkpt>
      <trkpt lat="46.03517" lon="4.57007">
        <ele>519.6</ele>
        <time>2022-06-26T04:55:19Z</time>
      </trkpt>
      <trkpt lat="46.03515" lon="4.57008">
        <ele>519.6</ele>
        <time>2022-06-26T04:55:20Z</time>
      </trkpt>
      <trkpt lat="46.03514" lon="4.57009">
        <ele>519.8</ele>
        <time>2022-06-26T04:55:21Z</time>
      </trkpt>
      <trkpt lat="46.03512" lon="4.5701">
        <ele>520.2</ele>
        <time>2022-06-26T04:55:22Z</time>
      </trkpt>
      <trkpt lat="46.0351" lon="4.57011">
        <ele>520.2</ele>
        <time>2022-06-26T04:55:23Z</time>
      </trkpt>
      <trkpt lat="46.03509" lon="4.57012">
        <ele>520.4</ele>
        <time>2022-06-26T04:55:24Z</time>
      </trkpt>
      <trkpt lat="46.03507" lon="4.57013">
        <ele>520.4</ele>
        <time>2022-06-26T04:55:25Z</time>
      </trkpt>
      <trkpt lat="46.03505" lon="4.57014">
        <ele>520.6</ele>
        <time>2022-06-26T04:55:26Z</time>
      </trkpt>
      <trkpt lat="46.03503" lon="4.57015">
        <ele>520.6</ele>
        <time>2022-06-26T04:55:27Z</time>
      </trkpt>
      <trkpt lat="46.03502" lon="4.57016">
        <ele>521</ele>
        <time>2022-06-26T04:55:28Z</time>
      </trkpt>
      <trkpt lat="46.035" lon="4.57017">
        <ele>521</ele>
        <time>2022-06-26T04:55:29Z</time>
      </trkpt>
      <trkpt lat="46.03498" lon="4.57018">
        <ele>521.4</ele>
        <time>2022-06-26T04:55:30Z</time>
      </trkpt>
      <trkpt lat="46.03497" lon="4.57019">
        <ele>521.4</ele>
        <time>2022-06-26T04:55:31Z</time>
      </trkpt>
      <trkpt lat="46.03495" lon="4.5702">
        <ele>521.8</ele>
        <time>2022-06-26T04:55:32Z</time>
      </trkpt>
      <trkpt lat="46.03493" lon="4.57021">
        <ele>522</ele>
        <time>2022-06-26T04:55:33Z</time>
      </trkpt>
      <trkpt lat="46.03492" lon="4.57022">
        <ele>522</ele>
        <time>2022-06-26T04:55:34Z</time>
      </trkpt>
      <trkpt lat="46.0349" lon="4.57022">
        <ele>522.4</ele>
        <time>2022-06-26T04:55:35Z</time>
      </trkpt>
      <trkpt lat="46.03488" lon="4.57023">
        <ele>522.6</ele>
        <time>2022-06-26T04:55:36Z</time>
      </trkpt>
      <trkpt lat="46.03486" lon="4.57024">
        <ele>522.8</ele>
        <time>2022-06-26T04:55:37Z</time>
      </trkpt>
      <trkpt lat="46.03485" lon="4.57026">
        <ele>522.8</ele>
        <time>2022-06-26T04:55:38Z</time>
      </trkpt>
      <trkpt lat="46.03483" lon="4.57027">
        <ele>523.2</ele>
        <time>2022-06-26T04:55:39Z</time>
      </trkpt>
      <trkpt lat="46.03481" lon="4.57028">
        <ele>523.2</ele>
        <time>2022-06-26T04:55:40Z</time>
      </trkpt>
      <trkpt lat="46.0348" lon="4.5703">
        <ele>523.4</ele>
        <time>2022-06-26T04:55:41Z</time>
      </trkpt>
      <trkpt lat="46.03478" lon="4.57031">
        <ele>523.4</ele>
        <time>2022-06-26T04:55:42Z</time>
      </trkpt>
      <trkpt lat="46.03476" lon="4.57032">
        <ele>523.8</ele>
        <time>2022-06-26T04:55:43Z</time>
      </trkpt>
      <trkpt lat="46.03474" lon="4.57033">
        <ele>524</ele>
        <time>2022-06-26T04:55:44Z</time>
      </trkpt>
      <trkpt lat="46.03473" lon="4.57034">
        <ele>524.4</ele>
        <time>2022-06-26T04:55:45Z</time>
      </trkpt>
      <trkpt lat="46.03471" lon="4.57035">
        <ele>524.4</ele>
        <time>2022-06-26T04:55:46Z</time>
      </trkpt>
      <trkpt lat="46.03469" lon="4.57035">
        <ele>524.8</ele>
        <time>2022-06-26T04:55:47Z</time>
      </trkpt>
      <trkpt lat="46.03468" lon="4.57036">
        <ele>525</ele>
        <time>2022-06-26T04:55:48Z</time>
      </trkpt>
      <trkpt lat="46.03466" lon="4.57037">
        <ele>525</ele>
        <time>2022-06-26T04:55:49Z</time>
      </trkpt>
      <trkpt lat="46.03464" lon="4.57038">
        <ele>525.2</ele>
        <time>2022-06-26T04:55:50Z</time>
      </trkpt>
      <trkpt lat="46.03463" lon="4.57039">
        <ele>525.4</ele>
        <time>2022-06-26T04:55:51Z</time>
      </trkpt>
      <trkpt lat="46.03461" lon="4.5704">
        <ele>525.6</ele>
        <time>2022-06-26T04:55:52Z</time>
      </trkpt>
      <trkpt lat="46.0346" lon="4.57041">
        <ele>525.6</ele>
        <time>2022-06-26T04:55:53Z</time>
      </trkpt>
      <trkpt lat="46.03458" lon="4.57043">
        <ele>526</ele>
        <time>2022-06-26T04:55:54Z</time>
      </trkpt>
      <trkpt lat="46.03456" lon="4.57044">
        <ele>526.2</ele>
        <time>2022-06-26T04:55:55Z</time>
      </trkpt>
      <trkpt lat="46.03455" lon="4.57045">
        <ele>526.2</ele>
        <time>2022-06-26T04:55:56Z</time>
      </trkpt>
      <trkpt lat="46.03453" lon="4.57046">
        <ele>526.6</ele>
        <time>2022-06-26T04:55:57Z</time>
      </trkpt>
      <trkpt lat="46.03452" lon="4.57048">
        <ele>526.6</ele>
        <time>2022-06-26T04:55:58Z</time>
      </trkpt>
      <trkpt lat="46.0345" lon="4.57049">
        <ele>526.8</ele>
        <time>2022-06-26T04:55:59Z</time>
      </trkpt>
      <trkpt lat="46.03449" lon="4.5705">
        <ele>526.8</ele>
        <time>2022-06-26T04:56:00Z</time>
      </trkpt>
      <trkpt lat="46.03447" lon="4.57051">
        <ele>527.2</ele>
        <time>2022-06-26T04:56:01Z</time>
      </trkpt>
      <trkpt lat="46.03446" lon="4.57052">
        <ele>527.2</ele>
        <time>2022-06-26T04:56:02Z</time>
      </trkpt>
      <trkpt lat="46.03444" lon="4.57054">
        <ele>527.4</ele>
        <time>2022-06-26T04:56:03Z</time>
      </trkpt>
      <trkpt lat="46.03442" lon="4.57055">
        <ele>527.4</ele>
        <time>2022-06-26T04:56:04Z</time>
      </trkpt>
      <trkpt lat="46.03441" lon="4.57055">
        <ele>527.8</ele>
        <time>2022-06-26T04:56:05Z</time>
      </trkpt>
      <trkpt lat="46.03439" lon="4.57056">
        <ele>527.8</ele>
        <time>2022-06-26T04:56:06Z</time>
      </trkpt>
      <trkpt lat="46.03438" lon="4.57057">
        <ele>528.2</ele>
        <time>2022-06-26T04:56:07Z</time>
      </trkpt>
      <trkpt lat="46.03436" lon="4.57058">
        <ele>528.2</ele>
        <time>2022-06-26T04:56:08Z</time>
      </trkpt>
      <trkpt lat="46.03434" lon="4.5706">
        <ele>528.4</ele>
        <time>2022-06-26T04:56:09Z</time>
      </trkpt>
      <trkpt lat="46.03433" lon="4.57061">
        <ele>528.4</ele>
        <time>2022-06-26T04:56:10Z</time>
      </trkpt>
      <trkpt lat="46.03431" lon="4.57062">
        <ele>528.8</ele>
        <time>2022-06-26T04:56:11Z</time>
      </trkpt>
      <trkpt lat="46.03428" lon="4.57064">
        <ele>528.8</ele>
        <time>2022-06-26T04:56:12Z</time>
      </trkpt>
      <trkpt lat="46.03427" lon="4.57065">
        <ele>529.2</ele>
        <time>2022-06-26T04:56:13Z</time>
      </trkpt>
      <trkpt lat="46.03426" lon="4.57065">
        <ele>529.2</ele>
        <time>2022-06-26T04:56:14Z</time>
      </trkpt>
      <trkpt lat="46.03424" lon="4.57066">
        <ele>529.6</ele>
        <time>2022-06-26T04:56:15Z</time>
      </trkpt>
      <trkpt lat="46.03422" lon="4.57066">
        <ele>529.6</ele>
        <time>2022-06-26T04:56:16Z</time>
      </trkpt>
      <trkpt lat="46.03421" lon="4.57067">
        <ele>529.8</ele>
        <time>2022-06-26T04:56:17Z</time>
      </trkpt>
      <trkpt lat="46.03419" lon="4.57068">
        <ele>529.8</ele>
        <time>2022-06-26T04:56:18Z</time>
      </trkpt>
      <trkpt lat="46.03417" lon="4.57068">
        <ele>530.2</ele>
        <time>2022-06-26T04:56:19Z</time>
      </trkpt>
      <trkpt lat="46.03415" lon="4.57069">
        <ele>530.2</ele>
        <time>2022-06-26T04:56:20Z</time>
      </trkpt>
      <trkpt lat="46.03414" lon="4.57069">
        <ele>530.6</ele>
        <time>2022-06-26T04:56:21Z</time>
      </trkpt>
      <trkpt lat="46.03412" lon="4.5707">
        <ele>530.6</ele>
        <time>2022-06-26T04:56:22Z</time>
      </trkpt>
      <trkpt lat="46.0341" lon="4.5707">
        <ele>530.8</ele>
        <time>2022-06-26T04:56:23Z</time>
      </trkpt>
      <trkpt lat="46.03409" lon="4.5707">
        <ele>530.8</ele>
        <time>2022-06-26T04:56:24Z</time>
      </trkpt>
      <trkpt lat="46.03407" lon="4.57069">
        <ele>531.2</ele>
        <time>2022-06-26T04:56:25Z</time>
      </trkpt>
      <trkpt lat="46.03405" lon="4.57069">
        <ele>531.4</ele>
        <time>2022-06-26T04:56:26Z</time>
      </trkpt>
      <trkpt lat="46.03403" lon="4.57069">
        <ele>531.4</ele>
        <time>2022-06-26T04:56:27Z</time>
      </trkpt>
      <trkpt lat="46.03402" lon="4.57068">
        <ele>531.8</ele>
        <time>2022-06-26T04:56:28Z</time>
      </trkpt>
      <trkpt lat="46.034" lon="4.57067">
        <ele>531.8</ele>
        <time>2022-06-26T04:56:29Z</time>
      </trkpt>
      <trkpt lat="46.03398" lon="4.57066">
        <ele>532</ele>
        <time>2022-06-26T04:56:30Z</time>
      </trkpt>
      <trkpt lat="46.03397" lon="4.57064">
        <ele>532</ele>
        <time>2022-06-26T04:56:31Z</time>
      </trkpt>
      <trkpt lat="46.03396" lon="4.57062">
        <ele>532.4</ele>
        <time>2022-06-26T04:56:32Z</time>
      </trkpt>
      <trkpt lat="46.03395" lon="4.5706">
        <ele>532.6</ele>
        <time>2022-06-26T04:56:33Z</time>
      </trkpt>
      <trkpt lat="46.03394" lon="4.57058">
        <ele>533</ele>
        <time>2022-06-26T04:56:34Z</time>
      </trkpt>
      <trkpt lat="46.03393" lon="4.57056">
        <ele>533.2</ele>
        <time>2022-06-26T04:56:35Z</time>
      </trkpt>
      <trkpt lat="46.03392" lon="4.57053">
        <ele>533.2</ele>
        <time>2022-06-26T04:56:36Z</time>
      </trkpt>
      <trkpt lat="46.03392" lon="4.5705">
        <ele>533.4</ele>
        <time>2022-06-26T04:56:37Z</time>
      </trkpt>
      <trkpt lat="46.03391" lon="4.57048">
        <ele>533.4</ele>
        <time>2022-06-26T04:56:38Z</time>
      </trkpt>
      <trkpt lat="46.0339" lon="4.57045">
        <ele>533.8</ele>
        <time>2022-06-26T04:56:39Z</time>
      </trkpt>
      <trkpt lat="46.03389" lon="4.57042">
        <ele>533.8</ele>
        <time>2022-06-26T04:56:40Z</time>
      </trkpt>
      <trkpt lat="46.03389" lon="4.5704">
        <ele>534</ele>
        <time>2022-06-26T04:56:41Z</time>
      </trkpt>
      <trkpt lat="46.03388" lon="4.57037">
        <ele>534</ele>
        <time>2022-06-26T04:56:42Z</time>
      </trkpt>
      <trkpt lat="46.03387" lon="4.57035">
        <ele>534.4</ele>
        <time>2022-06-26T04:56:43Z</time>
      </trkpt>
      <trkpt lat="46.03386" lon="4.57032">
        <ele>534.4</ele>
        <time>2022-06-26T04:56:44Z</time>
      </trkpt>
      <trkpt lat="46.03386" lon="4.5703">
        <ele>534.8</ele>
        <time>2022-06-26T04:56:45Z</time>
      </trkpt>
      <trkpt lat="46.03385" lon="4.57027">
        <ele>535</ele>
        <time>2022-06-26T04:56:46Z</time>
      </trkpt>
      <trkpt lat="46.03385" lon="4.57025">
        <ele>535.2</ele>
        <time>2022-06-26T04:56:47Z</time>
      </trkpt>
      <trkpt lat="46.03384" lon="4.57022">
        <ele>535.6</ele>
        <time>2022-06-26T04:56:48Z</time>
      </trkpt>
      <trkpt lat="46.03383" lon="4.5702">
        <ele>535.8</ele>
        <time>2022-06-26T04:56:49Z</time>
      </trkpt>
      <trkpt lat="46.03382" lon="4.57018">
        <ele>535.8</ele>
        <time>2022-06-26T04:56:50Z</time>
      </trkpt>
      <trkpt lat="46.03381" lon="4.57016">
        <ele>536.2</ele>
        <time>2022-06-26T04:56:51Z</time>
      </trkpt>
      <trkpt lat="46.0338" lon="4.57013">
        <ele>536.2</ele>
        <time>2022-06-26T04:56:52Z</time>
      </trkpt>
      <trkpt lat="46.03379" lon="4.57011">
        <ele>536.4</ele>
        <time>2022-06-26T04:56:53Z</time>
      </trkpt>
      <trkpt lat="46.03378" lon="4.57008">
        <ele>536.4</ele>
        <time>2022-06-26T04:56:54Z</time>
      </trkpt>
      <trkpt lat="46.03377" lon="4.57005">
        <ele>537</ele>
        <time>2022-06-26T04:56:55Z</time>
      </trkpt>
      <trkpt lat="46.03375" lon="4.57">
        <ele>537.2</ele>
        <time>2022-06-26T04:56:56Z</time>
      </trkpt>
      <trkpt lat="46.03374" lon="4.56998">
        <ele>537.2</ele>
        <time>2022-06-26T04:56:57Z</time>
      </trkpt>
      <trkpt lat="46.03374" lon="4.56995">
        <ele>537.6</ele>
        <time>2022-06-26T04:56:58Z</time>
      </trkpt>
      <trkpt lat="46.03373" lon="4.56993">
        <ele>537.6</ele>
        <time>2022-06-26T04:56:59Z</time>
      </trkpt>
      <trkpt lat="46.03372" lon="4.5699">
        <ele>538</ele>
        <time>2022-06-26T04:57:00Z</time>
      </trkpt>
      <trkpt lat="46.03371" lon="4.56988">
        <ele>538.2</ele>
        <time>2022-06-26T04:57:01Z</time>
      </trkpt>
      <trkpt lat="46.0337" lon="4.56986">
        <ele>538.2</ele>
        <time>2022-06-26T04:57:02Z</time>
      </trkpt>
      <trkpt lat="46.03369" lon="4.56983">
        <ele>538.6</ele>
        <time>2022-06-26T04:57:03Z</time>
      </trkpt>
      <trkpt lat="46.03368" lon="4.56981">
        <ele>538.8</ele>
        <time>2022-06-26T04:57:04Z</time>
      </trkpt>
      <trkpt lat="46.03367" lon="4.56978">
        <ele>539.2</ele>
        <time>2022-06-26T04:57:05Z</time>
      </trkpt>
      <trkpt lat="46.03366" lon="4.56976">
        <ele>539.4</ele>
        <time>2022-06-26T04:57:06Z</time>
      </trkpt>
      <trkpt lat="46.03365" lon="4.56974">
        <ele>539.6</ele>
        <time>2022-06-26T04:57:07Z</time>
      </trkpt>
      <trkpt lat="46.03365" lon="4.56971">
        <ele>539.8</ele>
        <time>2022-06-26T04:57:08Z</time>
      </trkpt>
      <trkpt lat="46.03364" lon="4.56969">
        <ele>539.8</ele>
        <time>2022-06-26T04:57:09Z</time>
      </trkpt>
      <trkpt lat="46.03363" lon="4.56967">
        <ele>540.2</ele>
        <time>2022-06-26T04:57:10Z</time>
      </trkpt>
      <trkpt lat="46.03362" lon="4.56965">
        <ele>540.2</ele>
        <time>2022-06-26T04:57:11Z</time>
      </trkpt>
      <trkpt lat="46.03361" lon="4.56963">
        <ele>540.4</ele>
        <time>2022-06-26T04:57:12Z</time>
      </trkpt>
      <trkpt lat="46.03361" lon="4.5696">
        <ele>540.4</ele>
        <time>2022-06-26T04:57:13Z</time>
      </trkpt>
      <trkpt lat="46.0336" lon="4.56958">
        <ele>540.8</ele>
        <time>2022-06-26T04:57:14Z</time>
      </trkpt>
      <trkpt lat="46.0336" lon="4.56956">
        <ele>540.8</ele>
        <time>2022-06-26T04:57:15Z</time>
      </trkpt>
      <trkpt lat="46.03359" lon="4.56954">
        <ele>541.2</ele>
        <time>2022-06-26T04:57:16Z</time>
      </trkpt>
      <trkpt lat="46.03358" lon="4.56952">
        <ele>541.4</ele>
        <time>2022-06-26T04:57:17Z</time>
      </trkpt>
      <trkpt lat="46.03358" lon="4.5695">
        <ele>541.4</ele>
        <time>2022-06-26T04:57:18Z</time>
      </trkpt>
      <trkpt lat="46.03357" lon="4.56948">
        <ele>541.8</ele>
        <time>2022-06-26T04:57:19Z</time>
      </trkpt>
      <trkpt lat="46.03357" lon="4.56946">
        <ele>541.8</ele>
        <time>2022-06-26T04:57:20Z</time>
      </trkpt>
      <trkpt lat="46.03357" lon="4.56944">
        <ele>542.2</ele>
        <time>2022-06-26T04:57:21Z</time>
      </trkpt>
      <trkpt lat="46.03356" lon="4.56942">
        <ele>542.2</ele>
        <time>2022-06-26T04:57:22Z</time>
      </trkpt>
      <trkpt lat="46.03355" lon="4.5694">
        <ele>542.6</ele>
        <time>2022-06-26T04:57:23Z</time>
      </trkpt>
      <trkpt lat="46.03355" lon="4.56938">
        <ele>542.6</ele>
        <time>2022-06-26T04:57:24Z</time>
      </trkpt>
      <trkpt lat="46.03354" lon="4.56935">
        <ele>542.8</ele>
        <time>2022-06-26T04:57:25Z</time>
      </trkpt>
      <trkpt lat="46.03353" lon="4.56933">
        <ele>543</ele>
        <time>2022-06-26T04:57:26Z</time>
      </trkpt>
      <trkpt lat="46.03352" lon="4.56931">
        <ele>543.2</ele>
        <time>2022-06-26T04:57:27Z</time>
      </trkpt>
      <trkpt lat="46.03351" lon="4.56929">
        <ele>543.2</ele>
        <time>2022-06-26T04:57:28Z</time>
      </trkpt>
      <trkpt lat="46.0335" lon="4.56927">
        <ele>543.6</ele>
        <time>2022-06-26T04:57:29Z</time>
      </trkpt>
      <trkpt lat="46.03349" lon="4.56924">
        <ele>543.6</ele>
        <time>2022-06-26T04:57:30Z</time>
      </trkpt>
      <trkpt lat="46.03348" lon="4.56922">
        <ele>544</ele>
        <time>2022-06-26T04:57:31Z</time>
      </trkpt>
      <trkpt lat="46.03347" lon="4.5692">
        <ele>544</ele>
        <time>2022-06-26T04:57:32Z</time>
      </trkpt>
      <trkpt lat="46.03346" lon="4.56918">
        <ele>544.2</ele>
        <time>2022-06-26T04:57:33Z</time>
      </trkpt>
      <trkpt lat="46.03345" lon="4.56915">
        <ele>544.2</ele>
        <time>2022-06-26T04:57:34Z</time>
      </trkpt>
      <trkpt lat="46.03344" lon="4.56913">
        <ele>544.6</ele>
        <time>2022-06-26T04:57:35Z</time>
      </trkpt>
      <trkpt lat="46.03343" lon="4.56911">
        <ele>544.6</ele>
        <time>2022-06-26T04:57:36Z</time>
      </trkpt>
      <trkpt lat="46.03342" lon="4.56909">
        <ele>545</ele>
        <time>2022-06-26T04:57:37Z</time>
      </trkpt>
      <trkpt lat="46.03341" lon="4.56907">
        <ele>545</ele>
        <time>2022-06-26T04:57:38Z</time>
      </trkpt>
      <trkpt lat="46.0334" lon="4.56905">
        <ele>545.2</ele>
        <time>2022-06-26T04:57:39Z</time>
      </trkpt>
      <trkpt lat="46.03339" lon="4.56903">
        <ele>545.4</ele>
        <time>2022-06-26T04:57:40Z</time>
      </trkpt>
      <trkpt lat="46.03337" lon="4.56901">
        <ele>545.4</ele>
        <time>2022-06-26T04:57:41Z</time>
      </trkpt>
      <trkpt lat="46.03337" lon="4.56899">
        <ele>545.8</ele>
        <time>2022-06-26T04:57:42Z</time>
      </trkpt>
      <trkpt lat="46.03336" lon="4.56897">
        <ele>546</ele>
        <time>2022-06-26T04:57:43Z</time>
      </trkpt>
      <trkpt lat="46.03335" lon="4.56895">
        <ele>546</ele>
        <time>2022-06-26T04:57:44Z</time>
      </trkpt>
      <trkpt lat="46.03334" lon="4.56893">
        <ele>546.4</ele>
        <time>2022-06-26T04:57:45Z</time>
      </trkpt>
      <trkpt lat="46.03333" lon="4.5689">
        <ele>546.8</ele>
        <time>2022-06-26T04:57:46Z</time>
      </trkpt>
      <trkpt lat="46.03332" lon="4.56888">
        <ele>547</ele>
        <time>2022-06-26T04:57:47Z</time>
      </trkpt>
      <trkpt lat="46.03331" lon="4.56885">
        <ele>547</ele>
        <time>2022-06-26T04:57:48Z</time>
      </trkpt>
      <trkpt lat="46.03331" lon="4.56883">
        <ele>547.2</ele>
        <time>2022-06-26T04:57:49Z</time>
      </trkpt>
      <trkpt lat="46.03331" lon="4.5688">
        <ele>547.4</ele>
        <time>2022-06-26T04:57:50Z</time>
      </trkpt>
      <trkpt lat="46.0333" lon="4.56878">
        <ele>547.4</ele>
        <time>2022-06-26T04:57:51Z</time>
      </trkpt>
      <trkpt lat="46.0333" lon="4.56875">
        <ele>547.8</ele>
        <time>2022-06-26T04:57:52Z</time>
      </trkpt>
      <trkpt lat="46.03329" lon="4.56873">
        <ele>547.8</ele>
        <time>2022-06-26T04:57:53Z</time>
      </trkpt>
      <trkpt lat="46.03328" lon="4.56871">
        <ele>548.2</ele>
        <time>2022-06-26T04:57:54Z</time>
      </trkpt>
      <trkpt lat="46.03328" lon="4.56868">
        <ele>548.2</ele>
        <time>2022-06-26T04:57:55Z</time>
      </trkpt>
      <trkpt lat="46.03327" lon="4.56866">
        <ele>548.4</ele>
        <time>2022-06-26T04:57:56Z</time>
      </trkpt>
      <trkpt lat="46.03326" lon="4.56864">
        <ele>548.8</ele>
        <time>2022-06-26T04:57:57Z</time>
      </trkpt>
      <trkpt lat="46.03325" lon="4.56862">
        <ele>548.8</ele>
        <time>2022-06-26T04:57:58Z</time>
      </trkpt>
      <trkpt lat="46.03325" lon="4.56859">
        <ele>549</ele>
        <time>2022-06-26T04:57:59Z</time>
      </trkpt>
      <trkpt lat="46.03324" lon="4.56857">
        <ele>549</ele>
        <time>2022-06-26T04:58:00Z</time>
      </trkpt>
      <trkpt lat="46.03323" lon="4.56855">
        <ele>549.2</ele>
        <time>2022-06-26T04:58:01Z</time>
      </trkpt>
      <trkpt lat="46.03322" lon="4.56852">
        <ele>549.2</ele>
        <time>2022-06-26T04:58:02Z</time>
      </trkpt>
      <trkpt lat="46.03321" lon="4.5685">
        <ele>549.6</ele>
        <time>2022-06-26T04:58:03Z</time>
      </trkpt>
      <trkpt lat="46.0332" lon="4.56848">
        <ele>549.6</ele>
        <time>2022-06-26T04:58:04Z</time>
      </trkpt>
      <trkpt lat="46.0332" lon="4.56845">
        <ele>549.8</ele>
        <time>2022-06-26T04:58:05Z</time>
      </trkpt>
      <trkpt lat="46.03319" lon="4.56843">
        <ele>549.8</ele>
        <time>2022-06-26T04:58:06Z</time>
      </trkpt>
      <trkpt lat="46.03319" lon="4.5684">
        <ele>550.4</ele>
        <time>2022-06-26T04:58:07Z</time>
      </trkpt>
      <trkpt lat="46.03318" lon="4.56838">
        <ele>550.6</ele>
        <time>2022-06-26T04:58:08Z</time>
      </trkpt>
      <trkpt lat="46.03318" lon="4.56835">
        <ele>550.6</ele>
        <time>2022-06-26T04:58:09Z</time>
      </trkpt>
      <trkpt lat="46.03317" lon="4.56832">
        <ele>551</ele>
        <time>2022-06-26T04:58:10Z</time>
      </trkpt>
      <trkpt lat="46.03317" lon="4.5683">
        <ele>551</ele>
        <time>2022-06-26T04:58:11Z</time>
      </trkpt>
      <trkpt lat="46.03316" lon="4.56827">
        <ele>551.2</ele>
        <time>2022-06-26T04:58:12Z</time>
      </trkpt>
      <trkpt lat="46.03315" lon="4.56825">
        <ele>551.2</ele>
        <time>2022-06-26T04:58:13Z</time>
      </trkpt>
      <trkpt lat="46.03315" lon="4.56822">
        <ele>551.4</ele>
        <time>2022-06-26T04:58:14Z</time>
      </trkpt>
      <trkpt lat="46.03315" lon="4.5682">
        <ele>551.4</ele>
        <time>2022-06-26T04:58:15Z</time>
      </trkpt>
      <trkpt lat="46.03314" lon="4.56817">
        <ele>551.8</ele>
        <time>2022-06-26T04:58:16Z</time>
      </trkpt>
      <trkpt lat="46.03313" lon="4.56815">
        <ele>552</ele>
        <time>2022-06-26T04:58:17Z</time>
      </trkpt>
      <trkpt lat="46.03312" lon="4.56812">
        <ele>552.2</ele>
        <time>2022-06-26T04:58:18Z</time>
      </trkpt>
      <trkpt lat="46.03312" lon="4.56809">
        <ele>552.4</ele>
        <time>2022-06-26T04:58:19Z</time>
      </trkpt>
      <trkpt lat="46.03311" lon="4.56807">
        <ele>552.4</ele>
        <time>2022-06-26T04:58:20Z</time>
      </trkpt>
      <trkpt lat="46.03311" lon="4.56804">
        <ele>552.8</ele>
        <time>2022-06-26T04:58:21Z</time>
      </trkpt>
      <trkpt lat="46.0331" lon="4.56802">
        <ele>552.8</ele>
        <time>2022-06-26T04:58:22Z</time>
      </trkpt>
      <trkpt lat="46.03309" lon="4.568">
        <ele>553.2</ele>
        <time>2022-06-26T04:58:23Z</time>
      </trkpt>
      <trkpt lat="46.03308" lon="4.56797">
        <ele>553.2</ele>
        <time>2022-06-26T04:58:24Z</time>
      </trkpt>
      <trkpt lat="46.03308" lon="4.56795">
        <ele>553.4</ele>
        <time>2022-06-26T04:58:25Z</time>
      </trkpt>
      <trkpt lat="46.03307" lon="4.56793">
        <ele>553.6</ele>
        <time>2022-06-26T04:58:26Z</time>
      </trkpt>
      <trkpt lat="46.03306" lon="4.5679">
        <ele>553.8</ele>
        <time>2022-06-26T04:58:27Z</time>
      </trkpt>
      <trkpt lat="46.03305" lon="4.56788">
        <ele>553.8</ele>
        <time>2022-06-26T04:58:28Z</time>
      </trkpt>
      <trkpt lat="46.03304" lon="4.56786">
        <ele>554.2</ele>
        <time>2022-06-26T04:58:29Z</time>
      </trkpt>
      <trkpt lat="46.03304" lon="4.56784">
        <ele>554.2</ele>
        <time>2022-06-26T04:58:30Z</time>
      </trkpt>
      <trkpt lat="46.03303" lon="4.56782">
        <ele>554.6</ele>
        <time>2022-06-26T04:58:31Z</time>
      </trkpt>
      <trkpt lat="46.03302" lon="4.5678">
        <ele>554.6</ele>
        <time>2022-06-26T04:58:32Z</time>
      </trkpt>
      <trkpt lat="46.03301" lon="4.56778">
        <ele>554.8</ele>
        <time>2022-06-26T04:58:33Z</time>
      </trkpt>
      <trkpt lat="46.033" lon="4.56776">
        <ele>554.8</ele>
        <time>2022-06-26T04:58:34Z</time>
      </trkpt>
      <trkpt lat="46.03299" lon="4.56773">
        <ele>555.2</ele>
        <time>2022-06-26T04:58:35Z</time>
      </trkpt>
      <trkpt lat="46.03298" lon="4.56771">
        <ele>555.2</ele>
        <time>2022-06-26T04:58:36Z</time>
      </trkpt>
      <trkpt lat="46.03297" lon="4.56769">
        <ele>555.4</ele>
        <time>2022-06-26T04:58:37Z</time>
      </trkpt>
      <trkpt lat="46.03296" lon="4.56767">
        <ele>555.4</ele>
        <time>2022-06-26T04:58:38Z</time>
      </trkpt>
      <trkpt lat="46.03295" lon="4.56765">
        <ele>555.6</ele>
        <time>2022-06-26T04:58:39Z</time>
      </trkpt>
      <trkpt lat="46.03294" lon="4.56763">
        <ele>555.6</ele>
        <time>2022-06-26T04:58:40Z</time>
      </trkpt>
      <trkpt lat="46.03293" lon="4.56762">
        <ele>556</ele>
        <time>2022-06-26T04:58:41Z</time>
      </trkpt>
      <trkpt lat="46.03292" lon="4.5676">
        <ele>556</ele>
        <time>2022-06-26T04:58:42Z</time>
      </trkpt>
      <trkpt lat="46.03291" lon="4.56758">
        <ele>556.2</ele>
        <time>2022-06-26T04:58:43Z</time>
      </trkpt>
      <trkpt lat="46.03289" lon="4.56756">
        <ele>556.2</ele>
        <time>2022-06-26T04:58:44Z</time>
      </trkpt>
      <trkpt lat="46.03288" lon="4.56754">
        <ele>556.4</ele>
        <time>2022-06-26T04:58:45Z</time>
      </trkpt>
      <trkpt lat="46.03287" lon="4.56752">
        <ele>556.4</ele>
        <time>2022-06-26T04:58:46Z</time>
      </trkpt>
      <trkpt lat="46.03286" lon="4.56751">
        <ele>556.6</ele>
        <time>2022-06-26T04:58:47Z</time>
      </trkpt>
      <trkpt lat="46.03285" lon="4.56749">
        <ele>556.6</ele>
        <time>2022-06-26T04:58:48Z</time>
      </trkpt>
      <trkpt lat="46.03283" lon="4.56748">
        <ele>557</ele>
        <time>2022-06-26T04:58:49Z</time>
      </trkpt>
      <trkpt lat="46.03282" lon="4.56746">
        <ele>557</ele>
        <time>2022-06-26T04:58:50Z</time>
      </trkpt>
      <trkpt lat="46.03281" lon="4.56745">
        <ele>557.2</ele>
        <time>2022-06-26T04:58:51Z</time>
      </trkpt>
      <trkpt lat="46.0328" lon="4.56743">
        <ele>557.2</ele>
        <time>2022-06-26T04:58:52Z</time>
      </trkpt>
      <trkpt lat="46.03278" lon="4.56741">
        <ele>557.6</ele>
        <time>2022-06-26T04:58:53Z</time>
      </trkpt>
      <trkpt lat="46.03276" lon="4.5674">
        <ele>557.6</ele>
        <time>2022-06-26T04:58:54Z</time>
      </trkpt>
      <trkpt lat="46.03275" lon="4.56738">
        <ele>557.6</ele>
        <time>2022-06-26T04:58:55Z</time>
      </trkpt>
      <trkpt lat="46.03273" lon="4.56736">
        <ele>558</ele>
        <time>2022-06-26T04:58:56Z</time>
      </trkpt>
      <trkpt lat="46.03272" lon="4.56735">
        <ele>558</ele>
        <time>2022-06-26T04:58:57Z</time>
      </trkpt>
      <trkpt lat="46.0327" lon="4.56734">
        <ele>558.4</ele>
        <time>2022-06-26T04:58:58Z</time>
      </trkpt>
      <trkpt lat="46.03268" lon="4.56733">
        <ele>558.4</ele>
        <time>2022-06-26T04:58:59Z</time>
      </trkpt>
      <trkpt lat="46.03266" lon="4.56732">
        <ele>558.6</ele>
        <time>2022-06-26T04:59:00Z</time>
      </trkpt>
      <trkpt lat="46.03265" lon="4.5673">
        <ele>558.6</ele>
        <time>2022-06-26T04:59:01Z</time>
      </trkpt>
      <trkpt lat="46.03263" lon="4.56729">
        <ele>559</ele>
        <time>2022-06-26T04:59:02Z</time>
      </trkpt>
      <trkpt lat="46.03262" lon="4.56727">
        <ele>559</ele>
        <time>2022-06-26T04:59:03Z</time>
      </trkpt>
      <trkpt lat="46.0326" lon="4.56726">
        <ele>559.2</ele>
        <time>2022-06-26T04:59:04Z</time>
      </trkpt>
      <trkpt lat="46.03259" lon="4.56725">
        <ele>559.2</ele>
        <time>2022-06-26T04:59:05Z</time>
      </trkpt>
      <trkpt lat="46.03257" lon="4.56724">
        <ele>559.6</ele>
        <time>2022-06-26T04:59:06Z</time>
      </trkpt>
      <trkpt lat="46.03256" lon="4.56722">
        <ele>559.6</ele>
        <time>2022-06-26T04:59:07Z</time>
      </trkpt>
      <trkpt lat="46.03254" lon="4.56721">
        <ele>559.8</ele>
        <time>2022-06-26T04:59:08Z</time>
      </trkpt>
      <trkpt lat="46.03252" lon="4.5672">
        <ele>559.8</ele>
        <time>2022-06-26T04:59:09Z</time>
      </trkpt>
      <trkpt lat="46.03251" lon="4.56719">
        <ele>560.2</ele>
        <time>2022-06-26T04:59:10Z</time>
      </trkpt>
      <trkpt lat="46.0325" lon="4.56717">
        <ele>560.2</ele>
        <time>2022-06-26T04:59:11Z</time>
      </trkpt>
      <trkpt lat="46.03248" lon="4.56716">
        <ele>560.6</ele>
        <time>2022-06-26T04:59:12Z</time>
      </trkpt>
      <trkpt lat="46.03246" lon="4.56715">
        <ele>560.6</ele>
        <time>2022-06-26T04:59:13Z</time>
      </trkpt>
      <trkpt lat="46.03245" lon="4.56714">
        <ele>561</ele>
        <time>2022-06-26T04:59:14Z</time>
      </trkpt>
      <trkpt lat="46.03244" lon="4.56712">
        <ele>561</ele>
        <time>2022-06-26T04:59:15Z</time>
      </trkpt>
      <trkpt lat="46.03242" lon="4.56711">
        <ele>561.4</ele>
        <time>2022-06-26T04:59:16Z</time>
      </trkpt>
      <trkpt lat="46.03241" lon="4.5671">
        <ele>561.4</ele>
        <time>2022-06-26T04:59:17Z</time>
      </trkpt>
      <trkpt lat="46.0324" lon="4.56708">
        <ele>561.6</ele>
        <time>2022-06-26T04:59:18Z</time>
      </trkpt>
      <trkpt lat="46.03238" lon="4.56707">
        <ele>561.6</ele>
        <time>2022-06-26T04:59:19Z</time>
      </trkpt>
      <trkpt lat="46.03237" lon="4.56706">
        <ele>561.8</ele>
        <time>2022-06-26T04:59:20Z</time>
      </trkpt>
      <trkpt lat="46.03235" lon="4.56706">
        <ele>561.8</ele>
        <time>2022-06-26T04:59:21Z</time>
      </trkpt>
      <trkpt lat="46.03234" lon="4.56705">
        <ele>562</ele>
        <time>2022-06-26T04:59:22Z</time>
      </trkpt>
      <trkpt lat="46.03233" lon="4.56704">
        <ele>562</ele>
        <time>2022-06-26T04:59:23Z</time>
      </trkpt>
      <trkpt lat="46.03231" lon="4.56703">
        <ele>562.4</ele>
        <time>2022-06-26T04:59:24Z</time>
      </trkpt>
      <trkpt lat="46.0323" lon="4.56702">
        <ele>562.4</ele>
        <time>2022-06-26T04:59:25Z</time>
      </trkpt>
      <trkpt lat="46.03229" lon="4.56701">
        <ele>562.6</ele>
        <time>2022-06-26T04:59:26Z</time>
      </trkpt>
      <trkpt lat="46.03227" lon="4.56699">
        <ele>562.6</ele>
        <time>2022-06-26T04:59:27Z</time>
      </trkpt>
      <trkpt lat="46.03226" lon="4.56697">
        <ele>562.6</ele>
        <time>2022-06-26T04:59:28Z</time>
      </trkpt>
      <trkpt lat="46.03224" lon="4.56696">
        <ele>563</ele>
        <time>2022-06-26T04:59:29Z</time>
      </trkpt>
      <trkpt lat="46.03222" lon="4.56694">
        <ele>563</ele>
        <time>2022-06-26T04:59:30Z</time>
      </trkpt>
      <trkpt lat="46.03221" lon="4.56693">
        <ele>563.6</ele>
        <time>2022-06-26T04:59:31Z</time>
      </trkpt>
      <trkpt lat="46.0322" lon="4.56691">
        <ele>563.6</ele>
        <time>2022-06-26T04:59:32Z</time>
      </trkpt>
      <trkpt lat="46.03218" lon="4.56691">
        <ele>563.8</ele>
        <time>2022-06-26T04:59:33Z</time>
      </trkpt>
      <trkpt lat="46.03217" lon="4.5669">
        <ele>563.8</ele>
        <time>2022-06-26T04:59:34Z</time>
      </trkpt>
      <trkpt lat="46.03215" lon="4.56688">
        <ele>564.2</ele>
        <time>2022-06-26T04:59:35Z</time>
      </trkpt>
      <trkpt lat="46.03214" lon="4.56687">
        <ele>564.2</ele>
        <time>2022-06-26T04:59:36Z</time>
      </trkpt>
      <trkpt lat="46.03212" lon="4.56685">
        <ele>564.4</ele>
        <time>2022-06-26T04:59:37Z</time>
      </trkpt>
      <trkpt lat="46.03211" lon="4.56684">
        <ele>564.4</ele>
        <time>2022-06-26T04:59:38Z</time>
      </trkpt>
      <trkpt lat="46.03209" lon="4.56683">
        <ele>564.8</ele>
        <time>2022-06-26T04:59:39Z</time>
      </trkpt>
      <trkpt lat="46.03207" lon="4.56681">
        <ele>564.8</ele>
        <time>2022-06-26T04:59:40Z</time>
      </trkpt>
      <trkpt lat="46.03206" lon="4.5668">
        <ele>565</ele>
        <time>2022-06-26T04:59:41Z</time>
      </trkpt>
      <trkpt lat="46.03204" lon="4.56678">
        <ele>565.4</ele>
        <time>2022-06-26T04:59:42Z</time>
      </trkpt>
      <trkpt lat="46.03203" lon="4.56677">
        <ele>565.4</ele>
        <time>2022-06-26T04:59:43Z</time>
      </trkpt>
      <trkpt lat="46.03202" lon="4.56675">
        <ele>565.6</ele>
        <time>2022-06-26T04:59:44Z</time>
      </trkpt>
      <trkpt lat="46.03201" lon="4.56674">
        <ele>565.6</ele>
        <time>2022-06-26T04:59:45Z</time>
      </trkpt>
      <trkpt lat="46.03199" lon="4.56673">
        <ele>566</ele>
        <time>2022-06-26T04:59:46Z</time>
      </trkpt>
      <trkpt lat="46.03198" lon="4.56672">
        <ele>566</ele>
        <time>2022-06-26T04:59:47Z</time>
      </trkpt>
      <trkpt lat="46.03197" lon="4.56671">
        <ele>566.2</ele>
        <time>2022-06-26T04:59:48Z</time>
      </trkpt>
      <trkpt lat="46.03196" lon="4.5667">
        <ele>566.2</ele>
        <time>2022-06-26T04:59:49Z</time>
      </trkpt>
      <trkpt lat="46.03194" lon="4.56669">
        <ele>566.6</ele>
        <time>2022-06-26T04:59:50Z</time>
      </trkpt>
      <trkpt lat="46.03193" lon="4.56668">
        <ele>566.6</ele>
        <time>2022-06-26T04:59:51Z</time>
      </trkpt>
      <trkpt lat="46.03192" lon="4.56667">
        <ele>567</ele>
        <time>2022-06-26T04:59:52Z</time>
      </trkpt>
      <trkpt lat="46.03191" lon="4.56665">
        <ele>567</ele>
        <time>2022-06-26T04:59:53Z</time>
      </trkpt>
      <trkpt lat="46.03189" lon="4.56664">
        <ele>567.4</ele>
        <time>2022-06-26T04:59:54Z</time>
      </trkpt>
      <trkpt lat="46.03188" lon="4.56663">
        <ele>567.4</ele>
        <time>2022-06-26T04:59:55Z</time>
      </trkpt>
      <trkpt lat="46.03186" lon="4.56662">
        <ele>567.6</ele>
        <time>2022-06-26T04:59:56Z</time>
      </trkpt>
      <trkpt lat="46.03185" lon="4.56661">
        <ele>567.6</ele>
        <time>2022-06-26T04:59:57Z</time>
      </trkpt>
      <trkpt lat="46.03184" lon="4.56661">
        <ele>568</ele>
        <time>2022-06-26T04:59:58Z</time>
      </trkpt>
      <trkpt lat="46.03182" lon="4.5666">
        <ele>568</ele>
        <time>2022-06-26T04:59:59Z</time>
      </trkpt>
      <trkpt lat="46.0318" lon="4.56659">
        <ele>568.2</ele>
        <time>2022-06-26T05:00:00Z</time>
      </trkpt>
      <trkpt lat="46.03178" lon="4.56658">
        <ele>568.4</ele>
        <time>2022-06-26T05:00:01Z</time>
      </trkpt>
      <trkpt lat="46.03176" lon="4.56657">
        <ele>568.4</ele>
        <time>2022-06-26T05:00:02Z</time>
      </trkpt>
      <trkpt lat="46.03173" lon="4.56656">
        <ele>568.8</ele>
        <time>2022-06-26T05:00:03Z</time>
      </trkpt>
      <trkpt lat="46.03172" lon="4.56655">
        <ele>568.8</ele>
        <time>2022-06-26T05:00:04Z</time>
      </trkpt>
      <trkpt lat="46.0317" lon="4.56654">
        <ele>569.2</ele>
        <time>2022-06-26T05:00:05Z</time>
      </trkpt>
      <trkpt lat="46.03168" lon="4.56653">
        <ele>569.2</ele>
        <time>2022-06-26T05:00:06Z</time>
      </trkpt>
      <trkpt lat="46.03165" lon="4.56652">
        <ele>569.4</ele>
        <time>2022-06-26T05:00:07Z</time>
      </trkpt>
      <trkpt lat="46.03163" lon="4.56651">
        <ele>569.4</ele>
        <time>2022-06-26T05:00:08Z</time>
      </trkpt>
      <trkpt lat="46.03162" lon="4.5665">
        <ele>569.6</ele>
        <time>2022-06-26T05:00:09Z</time>
      </trkpt>
      <trkpt lat="46.0316" lon="4.56649">
        <ele>569.6</ele>
        <time>2022-06-26T05:00:10Z</time>
      </trkpt>
      <trkpt lat="46.03158" lon="4.56648">
        <ele>570</ele>
        <time>2022-06-26T05:00:11Z</time>
      </trkpt>
      <trkpt lat="46.03157" lon="4.56648">
        <ele>570</ele>
        <time>2022-06-26T05:00:12Z</time>
      </trkpt>
      <trkpt lat="46.03155" lon="4.56647">
        <ele>570.2</ele>
        <time>2022-06-26T05:00:13Z</time>
      </trkpt>
      <trkpt lat="46.03153" lon="4.56646">
        <ele>570.4</ele>
        <time>2022-06-26T05:00:14Z</time>
      </trkpt>
      <trkpt lat="46.03151" lon="4.56645">
        <ele>570.4</ele>
        <time>2022-06-26T05:00:15Z</time>
      </trkpt>
      <trkpt lat="46.03149" lon="4.56644">
        <ele>570.8</ele>
        <time>2022-06-26T05:00:16Z</time>
      </trkpt>
      <trkpt lat="46.03146" lon="4.56644">
        <ele>570.8</ele>
        <time>2022-06-26T05:00:17Z</time>
      </trkpt>
      <trkpt lat="46.03144" lon="4.56644">
        <ele>571</ele>
        <time>2022-06-26T05:00:18Z</time>
      </trkpt>
      <trkpt lat="46.03141" lon="4.56643">
        <ele>571</ele>
        <time>2022-06-26T05:00:19Z</time>
      </trkpt>
      <trkpt lat="46.03139" lon="4.56642">
        <ele>571</ele>
        <time>2022-06-26T05:00:20Z</time>
      </trkpt>
      <trkpt lat="46.03136" lon="4.56642">
        <ele>571.4</ele>
        <time>2022-06-26T05:00:21Z</time>
      </trkpt>
      <trkpt lat="46.03134" lon="4.56642">
        <ele>571.4</ele>
        <time>2022-06-26T05:00:22Z</time>
      </trkpt>
      <trkpt lat="46.03133" lon="4.56641">
        <ele>571.6</ele>
        <time>2022-06-26T05:00:23Z</time>
      </trkpt>
      <trkpt lat="46.03131" lon="4.56641">
        <ele>571.6</ele>
        <time>2022-06-26T05:00:24Z</time>
      </trkpt>
      <trkpt lat="46.03129" lon="4.56641">
        <ele>571.8</ele>
        <time>2022-06-26T05:00:25Z</time>
      </trkpt>
      <trkpt lat="46.03127" lon="4.5664">
        <ele>571.8</ele>
        <time>2022-06-26T05:00:26Z</time>
      </trkpt>
      <trkpt lat="46.03125" lon="4.5664">
        <ele>572.2</ele>
        <time>2022-06-26T05:00:27Z</time>
      </trkpt>
      <trkpt lat="46.03124" lon="4.56639">
        <ele>572.2</ele>
        <time>2022-06-26T05:00:28Z</time>
      </trkpt>
      <trkpt lat="46.03121" lon="4.56639">
        <ele>572.4</ele>
        <time>2022-06-26T05:00:29Z</time>
      </trkpt>
      <trkpt lat="46.03119" lon="4.56638">
        <ele>572.4</ele>
        <time>2022-06-26T05:00:30Z</time>
      </trkpt>
      <trkpt lat="46.03117" lon="4.56638">
        <ele>572.6</ele>
        <time>2022-06-26T05:00:32Z</time>
      </trkpt>
      <trkpt lat="46.03115" lon="4.56638">
        <ele>572.6</ele>
        <time>2022-06-26T05:00:33Z</time>
      </trkpt>
      <trkpt lat="46.03113" lon="4.56638">
        <ele>572.6</ele>
        <time>2022-06-26T05:00:34Z</time>
      </trkpt>
      <trkpt lat="46.03111" lon="4.56638">
        <ele>572.8</ele>
        <time>2022-06-26T05:00:35Z</time>
      </trkpt>
      <trkpt lat="46.03108" lon="4.56638">
        <ele>572.8</ele>
        <time>2022-06-26T05:00:36Z</time>
      </trkpt>
      <trkpt lat="46.03106" lon="4.56639">
        <ele>573.2</ele>
        <time>2022-06-26T05:00:37Z</time>
      </trkpt>
      <trkpt lat="46.03103" lon="4.56639">
        <ele>573.2</ele>
        <time>2022-06-26T05:00:38Z</time>
      </trkpt>
      <trkpt lat="46.03102" lon="4.56638">
        <ele>573.4</ele>
        <time>2022-06-26T05:00:39Z</time>
      </trkpt>
      <trkpt lat="46.031" lon="4.56638">
        <ele>573.4</ele>
        <time>2022-06-26T05:00:40Z</time>
      </trkpt>
      <trkpt lat="46.03099" lon="4.56639">
        <ele>573.8</ele>
        <time>2022-06-26T05:00:41Z</time>
      </trkpt>
      <trkpt lat="46.03097" lon="4.56639">
        <ele>573.8</ele>
        <time>2022-06-26T05:00:42Z</time>
      </trkpt>
      <trkpt lat="46.03096" lon="4.56639">
        <ele>574</ele>
        <time>2022-06-26T05:00:43Z</time>
      </trkpt>
      <trkpt lat="46.03094" lon="4.56639">
        <ele>574</ele>
        <time>2022-06-26T05:00:44Z</time>
      </trkpt>
      <trkpt lat="46.03092" lon="4.5664">
        <ele>574.2</ele>
        <time>2022-06-26T05:00:45Z</time>
      </trkpt>
      <trkpt lat="46.0309" lon="4.56639">
        <ele>574.2</ele>
        <time>2022-06-26T05:00:46Z</time>
      </trkpt>
      <trkpt lat="46.03087" lon="4.56639">
        <ele>574.2</ele>
        <time>2022-06-26T05:00:47Z</time>
      </trkpt>
      <trkpt lat="46.03085" lon="4.56639">
        <ele>574.4</ele>
        <time>2022-06-26T05:00:48Z</time>
      </trkpt>
      <trkpt lat="46.03083" lon="4.56639">
        <ele>574.4</ele>
        <time>2022-06-26T05:00:49Z</time>
      </trkpt>
      <trkpt lat="46.03081" lon="4.56639">
        <ele>574.6</ele>
        <time>2022-06-26T05:00:50Z</time>
      </trkpt>
      <trkpt lat="46.03079" lon="4.56639">
        <ele>574.6</ele>
        <time>2022-06-26T05:00:51Z</time>
      </trkpt>
      <trkpt lat="46.03077" lon="4.56639">
        <ele>575</ele>
        <time>2022-06-26T05:00:52Z</time>
      </trkpt>
      <trkpt lat="46.03076" lon="4.56639">
        <ele>575</ele>
        <time>2022-06-26T05:00:53Z</time>
      </trkpt>
      <trkpt lat="46.03074" lon="4.56639">
        <ele>575.2</ele>
        <time>2022-06-26T05:00:54Z</time>
      </trkpt>
      <trkpt lat="46.03072" lon="4.56639">
        <ele>575.2</ele>
        <time>2022-06-26T05:00:55Z</time>
      </trkpt>
      <trkpt lat="46.0307" lon="4.56639">
        <ele>575.4</ele>
        <time>2022-06-26T05:00:56Z</time>
      </trkpt>
      <trkpt lat="46.03068" lon="4.56639">
        <ele>575.4</ele>
        <time>2022-06-26T05:00:57Z</time>
      </trkpt>
      <trkpt lat="46.03066" lon="4.5664">
        <ele>575.8</ele>
        <time>2022-06-26T05:00:58Z</time>
      </trkpt>
      <trkpt lat="46.03065" lon="4.56641">
        <ele>575.8</ele>
        <time>2022-06-26T05:00:59Z</time>
      </trkpt>
      <trkpt lat="46.03063" lon="4.56642">
        <ele>576</ele>
        <time>2022-06-26T05:01:00Z</time>
      </trkpt>
      <trkpt lat="46.03062" lon="4.56642">
        <ele>576</ele>
        <time>2022-06-26T05:01:01Z</time>
      </trkpt>
      <trkpt lat="46.0306" lon="4.56642">
        <ele>576</ele>
        <time>2022-06-26T05:01:02Z</time>
      </trkpt>
      <trkpt lat="46.03059" lon="4.56643">
        <ele>576.2</ele>
        <time>2022-06-26T05:01:03Z</time>
      </trkpt>
      <trkpt lat="46.03057" lon="4.56643">
        <ele>576.6</ele>
        <time>2022-06-26T05:01:04Z</time>
      </trkpt>
      <trkpt lat="46.03056" lon="4.56643">
        <ele>576.6</ele>
        <time>2022-06-26T05:01:05Z</time>
      </trkpt>
      <trkpt lat="46.03054" lon="4.56644">
        <ele>576.6</ele>
        <time>2022-06-26T05:01:06Z</time>
      </trkpt>
      <trkpt lat="46.03053" lon="4.56644">
        <ele>576.8</ele>
        <time>2022-06-26T05:01:07Z</time>
      </trkpt>
      <trkpt lat="46.03051" lon="4.56644">
        <ele>576.8</ele>
        <time>2022-06-26T05:01:08Z</time>
      </trkpt>
      <trkpt lat="46.03049" lon="4.56645">
        <ele>577.2</ele>
        <time>2022-06-26T05:01:09Z</time>
      </trkpt>
      <trkpt lat="46.03047" lon="4.56645">
        <ele>577.4</ele>
        <time>2022-06-26T05:01:10Z</time>
      </trkpt>
      <trkpt lat="46.03044" lon="4.56645">
        <ele>577.4</ele>
        <time>2022-06-26T05:01:11Z</time>
      </trkpt>
      <trkpt lat="46.03042" lon="4.56645">
        <ele>577.6</ele>
        <time>2022-06-26T05:01:12Z</time>
      </trkpt>
      <trkpt lat="46.03041" lon="4.56645">
        <ele>577.6</ele>
        <time>2022-06-26T05:01:13Z</time>
      </trkpt>
      <trkpt lat="46.03039" lon="4.56645">
        <ele>578</ele>
        <time>2022-06-26T05:01:14Z</time>
      </trkpt>
      <trkpt lat="46.03037" lon="4.56646">
        <ele>578</ele>
        <time>2022-06-26T05:01:15Z</time>
      </trkpt>
      <trkpt lat="46.03035" lon="4.56646">
        <ele>578.2</ele>
        <time>2022-06-26T05:01:16Z</time>
      </trkpt>
      <trkpt lat="46.03032" lon="4.56647">
        <ele>578.2</ele>
        <time>2022-06-26T05:01:17Z</time>
      </trkpt>
      <trkpt lat="46.0303" lon="4.56647">
        <ele>578.4</ele>
        <time>2022-06-26T05:01:18Z</time>
      </trkpt>
      <trkpt lat="46.03028" lon="4.56648">
        <ele>578.4</ele>
        <time>2022-06-26T05:01:19Z</time>
      </trkpt>
      <trkpt lat="46.03026" lon="4.56649">
        <ele>578.8</ele>
        <time>2022-06-26T05:01:20Z</time>
      </trkpt>
      <trkpt lat="46.03023" lon="4.56649">
        <ele>578.8</ele>
        <time>2022-06-26T05:01:21Z</time>
      </trkpt>
      <trkpt lat="46.03021" lon="4.56649">
        <ele>578.8</ele>
        <time>2022-06-26T05:01:22Z</time>
      </trkpt>
      <trkpt lat="46.03018" lon="4.56649">
        <ele>579</ele>
        <time>2022-06-26T05:01:23Z</time>
      </trkpt>
      <trkpt lat="46.03016" lon="4.56649">
        <ele>579</ele>
        <time>2022-06-26T05:01:24Z</time>
      </trkpt>
      <trkpt lat="46.03014" lon="4.56649">
        <ele>579.4</ele>
        <time>2022-06-26T05:01:25Z</time>
      </trkpt>
      <trkpt lat="46.03012" lon="4.5665">
        <ele>579.4</ele>
        <time>2022-06-26T05:01:26Z</time>
      </trkpt>
      <trkpt lat="46.03011" lon="4.56649">
        <ele>579.6</ele>
        <time>2022-06-26T05:01:27Z</time>
      </trkpt>
      <trkpt lat="46.03009" lon="4.5665">
        <ele>579.6</ele>
        <time>2022-06-26T05:01:28Z</time>
      </trkpt>
      <trkpt lat="46.03007" lon="4.56652">
        <ele>579.8</ele>
        <time>2022-06-26T05:01:29Z</time>
      </trkpt>
      <trkpt lat="46.03005" lon="4.56652">
        <ele>579.8</ele>
        <time>2022-06-26T05:01:30Z</time>
      </trkpt>
      <trkpt lat="46.03005" lon="4.56653">
        <ele>580.2</ele>
        <time>2022-06-26T05:01:31Z</time>
      </trkpt>
      <trkpt lat="46.03003" lon="4.56653">
        <ele>580.4</ele>
        <time>2022-06-26T05:01:32Z</time>
      </trkpt>
      <trkpt lat="46.03002" lon="4.56653">
        <ele>580.4</ele>
        <time>2022-06-26T05:01:33Z</time>
      </trkpt>
      <trkpt lat="46.02999" lon="4.56653">
        <ele>580.8</ele>
        <time>2022-06-26T05:01:34Z</time>
      </trkpt>
      <trkpt lat="46.02997" lon="4.56654">
        <ele>580.8</ele>
        <time>2022-06-26T05:01:35Z</time>
      </trkpt>
      <trkpt lat="46.02995" lon="4.56654">
        <ele>581</ele>
        <time>2022-06-26T05:01:36Z</time>
      </trkpt>
      <trkpt lat="46.02993" lon="4.56655">
        <ele>581</ele>
        <time>2022-06-26T05:01:37Z</time>
      </trkpt>
      <trkpt lat="46.02991" lon="4.56655">
        <ele>581.4</ele>
        <time>2022-06-26T05:01:38Z</time>
      </trkpt>
      <trkpt lat="46.02989" lon="4.56656">
        <ele>581.6</ele>
        <time>2022-06-26T05:01:39Z</time>
      </trkpt>
      <trkpt lat="46.02987" lon="4.56656">
        <ele>581.6</ele>
        <time>2022-06-26T05:01:40Z</time>
      </trkpt>
      <trkpt lat="46.02985" lon="4.56657">
        <ele>581.8</ele>
        <time>2022-06-26T05:01:41Z</time>
      </trkpt>
      <trkpt lat="46.02983" lon="4.56657">
        <ele>581.8</ele>
        <time>2022-06-26T05:01:42Z</time>
      </trkpt>
      <trkpt lat="46.02981" lon="4.56658">
        <ele>582.2</ele>
        <time>2022-06-26T05:01:43Z</time>
      </trkpt>
      <trkpt lat="46.0298" lon="4.56658">
        <ele>582.2</ele>
        <time>2022-06-26T05:01:44Z</time>
      </trkpt>
      <trkpt lat="46.02979" lon="4.56658">
        <ele>582.4</ele>
        <time>2022-06-26T05:01:45Z</time>
      </trkpt>
      <trkpt lat="46.02977" lon="4.56659">
        <ele>582.4</ele>
        <time>2022-06-26T05:01:46Z</time>
      </trkpt>
      <trkpt lat="46.02974" lon="4.56659">
        <ele>582.8</ele>
        <time>2022-06-26T05:01:47Z</time>
      </trkpt>
      <trkpt lat="46.02972" lon="4.5666">
        <ele>582.8</ele>
        <time>2022-06-26T05:01:48Z</time>
      </trkpt>
      <trkpt lat="46.02968" lon="4.56662">
        <ele>582.8</ele>
        <time>2022-06-26T05:01:49Z</time>
      </trkpt>
      <trkpt lat="46.02966" lon="4.56662">
        <ele>583</ele>
        <time>2022-06-26T05:01:50Z</time>
      </trkpt>
      <trkpt lat="46.02964" lon="4.56662">
        <ele>583</ele>
        <time>2022-06-26T05:01:51Z</time>
      </trkpt>
      <trkpt lat="46.02962" lon="4.56663">
        <ele>583</ele>
        <time>2022-06-26T05:01:52Z</time>
      </trkpt>
      <trkpt lat="46.02961" lon="4.56662">
        <ele>583.4</ele>
        <time>2022-06-26T05:01:53Z</time>
      </trkpt>
      <trkpt lat="46.02959" lon="4.56662">
        <ele>583.4</ele>
        <time>2022-06-26T05:01:54Z</time>
      </trkpt>
      <trkpt lat="46.02957" lon="4.56662">
        <ele>583.6</ele>
        <time>2022-06-26T05:01:55Z</time>
      </trkpt>
      <trkpt lat="46.02956" lon="4.56662">
        <ele>583.6</ele>
        <time>2022-06-26T05:01:56Z</time>
      </trkpt>
      <trkpt lat="46.02955" lon="4.56662">
        <ele>584</ele>
        <time>2022-06-26T05:01:57Z</time>
      </trkpt>
      <trkpt lat="46.02952" lon="4.56663">
        <ele>584</ele>
        <time>2022-06-26T05:01:58Z</time>
      </trkpt>
      <trkpt lat="46.0295" lon="4.56662">
        <ele>584.4</ele>
        <time>2022-06-26T05:01:59Z</time>
      </trkpt>
      <trkpt lat="46.02947" lon="4.56663">
        <ele>584.4</ele>
        <time>2022-06-26T05:02:00Z</time>
      </trkpt>
      <trkpt lat="46.02945" lon="4.56665">
        <ele>584.6</ele>
        <time>2022-06-26T05:02:01Z</time>
      </trkpt>
      <trkpt lat="46.02943" lon="4.56666">
        <ele>584.6</ele>
        <time>2022-06-26T05:02:02Z</time>
      </trkpt>
      <trkpt lat="46.02941" lon="4.56667">
        <ele>584.8</ele>
        <time>2022-06-26T05:02:03Z</time>
      </trkpt>
      <trkpt lat="46.02938" lon="4.56668">
        <ele>584.8</ele>
        <time>2022-06-26T05:02:04Z</time>
      </trkpt>
      <trkpt lat="46.02935" lon="4.5667">
        <ele>584.8</ele>
        <time>2022-06-26T05:02:05Z</time>
      </trkpt>
      <trkpt lat="46.02933" lon="4.56671">
        <ele>585.2</ele>
        <time>2022-06-26T05:02:06Z</time>
      </trkpt>
      <trkpt lat="46.0293" lon="4.56671">
        <ele>585.2</ele>
        <time>2022-06-26T05:02:07Z</time>
      </trkpt>
      <trkpt lat="46.02929" lon="4.56672">
        <ele>585.6</ele>
        <time>2022-06-26T05:02:08Z</time>
      </trkpt>
      <trkpt lat="46.02927" lon="4.56672">
        <ele>585.8</ele>
        <time>2022-06-26T05:02:09Z</time>
      </trkpt>
      <trkpt lat="46.02926" lon="4.56673">
        <ele>585.8</ele>
        <time>2022-06-26T05:02:10Z</time>
      </trkpt>
      <trkpt lat="46.02924" lon="4.56673">
        <ele>585.8</ele>
        <time>2022-06-26T05:02:11Z</time>
      </trkpt>
      <trkpt lat="46.02921" lon="4.56673">
        <ele>586.2</ele>
        <time>2022-06-26T05:02:12Z</time>
      </trkpt>
      <trkpt lat="46.02918" lon="4.56674">
        <ele>586.2</ele>
        <time>2022-06-26T05:02:13Z</time>
      </trkpt>
      <trkpt lat="46.02915" lon="4.56676">
        <ele>586.4</ele>
        <time>2022-06-26T05:02:14Z</time>
      </trkpt>
      <trkpt lat="46.02912" lon="4.56677">
        <ele>586.4</ele>
        <time>2022-06-26T05:02:15Z</time>
      </trkpt>
      <trkpt lat="46.02909" lon="4.56678">
        <ele>586.6</ele>
        <time>2022-06-26T05:02:16Z</time>
      </trkpt>
      <trkpt lat="46.02906" lon="4.56679">
        <ele>586.6</ele>
        <time>2022-06-26T05:02:17Z</time>
      </trkpt>
      <trkpt lat="46.02904" lon="4.5668">
        <ele>587</ele>
        <time>2022-06-26T05:02:18Z</time>
      </trkpt>
      <trkpt lat="46.02902" lon="4.56681">
        <ele>587</ele>
        <time>2022-06-26T05:02:19Z</time>
      </trkpt>
      <trkpt lat="46.02899" lon="4.56682">
        <ele>587.4</ele>
        <time>2022-06-26T05:02:20Z</time>
      </trkpt>
      <trkpt lat="46.02897" lon="4.56683">
        <ele>587.4</ele>
        <time>2022-06-26T05:02:21Z</time>
      </trkpt>
      <trkpt lat="46.02894" lon="4.56684">
        <ele>587.6</ele>
        <time>2022-06-26T05:02:22Z</time>
      </trkpt>
      <trkpt lat="46.02891" lon="4.56685">
        <ele>587.6</ele>
        <time>2022-06-26T05:02:23Z</time>
      </trkpt>
      <trkpt lat="46.02888" lon="4.56686">
        <ele>588</ele>
        <time>2022-06-26T05:02:24Z</time>
      </trkpt>
      <trkpt lat="46.02885" lon="4.56687">
        <ele>588</ele>
        <time>2022-06-26T05:02:25Z</time>
      </trkpt>
      <trkpt lat="46.02883" lon="4.56688">
        <ele>588.2</ele>
        <time>2022-06-26T05:02:26Z</time>
      </trkpt>
      <trkpt lat="46.02879" lon="4.56689">
        <ele>588.2</ele>
        <time>2022-06-26T05:02:27Z</time>
      </trkpt>
      <trkpt lat="46.02878" lon="4.5669">
        <ele>588.6</ele>
        <time>2022-06-26T05:02:28Z</time>
      </trkpt>
      <trkpt lat="46.02876" lon="4.56691">
        <ele>588.6</ele>
        <time>2022-06-26T05:02:29Z</time>
      </trkpt>
      <trkpt lat="46.02875" lon="4.56691">
        <ele>588.8</ele>
        <time>2022-06-26T05:02:30Z</time>
      </trkpt>
      <trkpt lat="46.02872" lon="4.56691">
        <ele>588.8</ele>
        <time>2022-06-26T05:02:31Z</time>
      </trkpt>
      <trkpt lat="46.0287" lon="4.56691">
        <ele>589.2</ele>
        <time>2022-06-26T05:02:32Z</time>
      </trkpt>
      <trkpt lat="46.02869" lon="4.56692">
        <ele>589.2</ele>
        <time>2022-06-26T05:02:33Z</time>
      </trkpt>
      <trkpt lat="46.02867" lon="4.56692">
        <ele>589.4</ele>
        <time>2022-06-26T05:02:34Z</time>
      </trkpt>
      <trkpt lat="46.02864" lon="4.56692">
        <ele>589.4</ele>
        <time>2022-06-26T05:02:35Z</time>
      </trkpt>
      <trkpt lat="46.02862" lon="4.56693">
        <ele>589.6</ele>
        <time>2022-06-26T05:02:36Z</time>
      </trkpt>
      <trkpt lat="46.0286" lon="4.56693">
        <ele>589.6</ele>
        <time>2022-06-26T05:02:37Z</time>
      </trkpt>
      <trkpt lat="46.02859" lon="4.56693">
        <ele>590</ele>
        <time>2022-06-26T05:02:38Z</time>
      </trkpt>
      <trkpt lat="46.02857" lon="4.56694">
        <ele>590</ele>
        <time>2022-06-26T05:02:39Z</time>
      </trkpt>
      <trkpt lat="46.02855" lon="4.56694">
        <ele>590.2</ele>
        <time>2022-06-26T05:02:40Z</time>
      </trkpt>
      <trkpt lat="46.02853" lon="4.56695">
        <ele>590.2</ele>
        <time>2022-06-26T05:02:41Z</time>
      </trkpt>
      <trkpt lat="46.0285" lon="4.56695">
        <ele>590.6</ele>
        <time>2022-06-26T05:02:42Z</time>
      </trkpt>
      <trkpt lat="46.02848" lon="4.56695">
        <ele>590.8</ele>
        <time>2022-06-26T05:02:43Z</time>
      </trkpt>
      <trkpt lat="46.02846" lon="4.56696">
        <ele>590.8</ele>
        <time>2022-06-26T05:02:44Z</time>
      </trkpt>
      <trkpt lat="46.02844" lon="4.56696">
        <ele>591.2</ele>
        <time>2022-06-26T05:02:45Z</time>
      </trkpt>
      <trkpt lat="46.02842" lon="4.56696">
        <ele>591.4</ele>
        <time>2022-06-26T05:02:46Z</time>
      </trkpt>
      <trkpt lat="46.02839" lon="4.56696">
        <ele>591.4</ele>
        <time>2022-06-26T05:02:47Z</time>
      </trkpt>
      <trkpt lat="46.02837" lon="4.56696">
        <ele>591.6</ele>
        <time>2022-06-26T05:02:48Z</time>
      </trkpt>
      <trkpt lat="46.02835" lon="4.56697">
        <ele>591.6</ele>
        <time>2022-06-26T05:02:49Z</time>
      </trkpt>
      <trkpt lat="46.02833" lon="4.56698">
        <ele>592</ele>
        <time>2022-06-26T05:02:50Z</time>
      </trkpt>
      <trkpt lat="46.02831" lon="4.56698">
        <ele>592</ele>
        <time>2022-06-26T05:02:51Z</time>
      </trkpt>
      <trkpt lat="46.02829" lon="4.56699">
        <ele>592.2</ele>
        <time>2022-06-26T05:02:52Z</time>
      </trkpt>
      <trkpt lat="46.02827" lon="4.56699">
        <ele>592.2</ele>
        <time>2022-06-26T05:02:53Z</time>
      </trkpt>
      <trkpt lat="46.02825" lon="4.567">
        <ele>592.6</ele>
        <time>2022-06-26T05:02:54Z</time>
      </trkpt>
      <trkpt lat="46.02822" lon="4.56701">
        <ele>592.6</ele>
        <time>2022-06-26T05:02:55Z</time>
      </trkpt>
      <trkpt lat="46.0282" lon="4.56701">
        <ele>592.6</ele>
        <time>2022-06-26T05:02:56Z</time>
      </trkpt>
      <trkpt lat="46.02818" lon="4.56701">
        <ele>592.8</ele>
        <time>2022-06-26T05:02:57Z</time>
      </trkpt>
      <trkpt lat="46.02817" lon="4.56702">
        <ele>592.8</ele>
        <time>2022-06-26T05:02:58Z</time>
      </trkpt>
      <trkpt lat="46.02815" lon="4.56702">
        <ele>593.2</ele>
        <time>2022-06-26T05:02:59Z</time>
      </trkpt>
      <trkpt lat="46.02813" lon="4.56702">
        <ele>593.2</ele>
        <time>2022-06-26T05:03:00Z</time>
      </trkpt>
      <trkpt lat="46.02811" lon="4.56703">
        <ele>593.4</ele>
        <time>2022-06-26T05:03:01Z</time>
      </trkpt>
      <trkpt lat="46.02809" lon="4.56703">
        <ele>593.4</ele>
        <time>2022-06-26T05:03:02Z</time>
      </trkpt>
      <trkpt lat="46.02807" lon="4.56703">
        <ele>593.8</ele>
        <time>2022-06-26T05:03:03Z</time>
      </trkpt>
      <trkpt lat="46.02805" lon="4.56704">
        <ele>593.8</ele>
        <time>2022-06-26T05:03:04Z</time>
      </trkpt>
      <trkpt lat="46.02804" lon="4.56705">
        <ele>594</ele>
        <time>2022-06-26T05:03:05Z</time>
      </trkpt>
      <trkpt lat="46.02802" lon="4.56704">
        <ele>594</ele>
        <time>2022-06-26T05:03:06Z</time>
      </trkpt>
      <trkpt lat="46.028" lon="4.56705">
        <ele>594.4</ele>
        <time>2022-06-26T05:03:07Z</time>
      </trkpt>
      <trkpt lat="46.02798" lon="4.56705">
        <ele>594.4</ele>
        <time>2022-06-26T05:03:08Z</time>
      </trkpt>
      <trkpt lat="46.02796" lon="4.56705">
        <ele>594.6</ele>
        <time>2022-06-26T05:03:09Z</time>
      </trkpt>
      <trkpt lat="46.02794" lon="4.56706">
        <ele>594.8</ele>
        <time>2022-06-26T05:03:10Z</time>
      </trkpt>
      <trkpt lat="46.02792" lon="4.56707">
        <ele>595</ele>
        <time>2022-06-26T05:03:11Z</time>
      </trkpt>
      <trkpt lat="46.0279" lon="4.56707">
        <ele>595.2</ele>
        <time>2022-06-26T05:03:12Z</time>
      </trkpt>
      <trkpt lat="46.02787" lon="4.56707">
        <ele>595.2</ele>
        <time>2022-06-26T05:03:13Z</time>
      </trkpt>
      <trkpt lat="46.02785" lon="4.56708">
        <ele>595.4</ele>
        <time>2022-06-26T05:03:14Z</time>
      </trkpt>
      <trkpt lat="46.02782" lon="4.56708">
        <ele>595.4</ele>
        <time>2022-06-26T05:03:15Z</time>
      </trkpt>
      <trkpt lat="46.0278" lon="4.56708">
        <ele>595.8</ele>
        <time>2022-06-26T05:03:16Z</time>
      </trkpt>
      <trkpt lat="46.02777" lon="4.56708">
        <ele>595.8</ele>
        <time>2022-06-26T05:03:17Z</time>
      </trkpt>
      <trkpt lat="46.02775" lon="4.56708">
        <ele>595.8</ele>
        <time>2022-06-26T05:03:18Z</time>
      </trkpt>
      <trkpt lat="46.02773" lon="4.56708">
        <ele>596.2</ele>
        <time>2022-06-26T05:03:19Z</time>
      </trkpt>
      <trkpt lat="46.02772" lon="4.56707">
        <ele>596.2</ele>
        <time>2022-06-26T05:03:20Z</time>
      </trkpt>
      <trkpt lat="46.0277" lon="4.56707">
        <ele>596.4</ele>
        <time>2022-06-26T05:03:21Z</time>
      </trkpt>
      <trkpt lat="46.02768" lon="4.56707">
        <ele>596.4</ele>
        <time>2022-06-26T05:03:22Z</time>
      </trkpt>
      <trkpt lat="46.02766" lon="4.56706">
        <ele>596.6</ele>
        <time>2022-06-26T05:03:23Z</time>
      </trkpt>
      <trkpt lat="46.02764" lon="4.56705">
        <ele>596.6</ele>
        <time>2022-06-26T05:03:24Z</time>
      </trkpt>
      <trkpt lat="46.02763" lon="4.56704">
        <ele>597</ele>
        <time>2022-06-26T05:03:25Z</time>
      </trkpt>
      <trkpt lat="46.02761" lon="4.56703">
        <ele>597</ele>
        <time>2022-06-26T05:03:26Z</time>
      </trkpt>
      <trkpt lat="46.0276" lon="4.56702">
        <ele>597.2</ele>
        <time>2022-06-26T05:03:27Z</time>
      </trkpt>
      <trkpt lat="46.02759" lon="4.567">
        <ele>597.4</ele>
        <time>2022-06-26T05:03:28Z</time>
      </trkpt>
      <trkpt lat="46.02757" lon="4.56698">
        <ele>597.4</ele>
        <time>2022-06-26T05:03:29Z</time>
      </trkpt>
      <trkpt lat="46.02755" lon="4.56698">
        <ele>597.8</ele>
        <time>2022-06-26T05:03:30Z</time>
      </trkpt>
      <trkpt lat="46.02753" lon="4.56697">
        <ele>597.8</ele>
        <time>2022-06-26T05:03:31Z</time>
      </trkpt>
      <trkpt lat="46.02752" lon="4.56696">
        <ele>598.2</ele>
        <time>2022-06-26T05:03:32Z</time>
      </trkpt>
      <trkpt lat="46.02751" lon="4.56694">
        <ele>598.2</ele>
        <time>2022-06-26T05:03:33Z</time>
      </trkpt>
      <trkpt lat="46.02749" lon="4.56693">
        <ele>598.4</ele>
        <time>2022-06-26T05:03:34Z</time>
      </trkpt>
      <trkpt lat="46.02747" lon="4.56691">
        <ele>598.4</ele>
        <time>2022-06-26T05:03:35Z</time>
      </trkpt>
      <trkpt lat="46.02746" lon="4.5669">
        <ele>598.8</ele>
        <time>2022-06-26T05:03:36Z</time>
      </trkpt>
      <trkpt lat="46.02744" lon="4.56688">
        <ele>599</ele>
        <time>2022-06-26T05:03:37Z</time>
      </trkpt>
      <trkpt lat="46.02742" lon="4.56686">
        <ele>599</ele>
        <time>2022-06-26T05:03:38Z</time>
      </trkpt>
      <trkpt lat="46.0274" lon="4.56684">
        <ele>599.4</ele>
        <time>2022-06-26T05:03:39Z</time>
      </trkpt>
      <trkpt lat="46.02738" lon="4.56682">
        <ele>599.4</ele>
        <time>2022-06-26T05:03:40Z</time>
      </trkpt>
      <trkpt lat="46.02737" lon="4.5668">
        <ele>599.8</ele>
        <time>2022-06-26T05:03:41Z</time>
      </trkpt>
      <trkpt lat="46.02735" lon="4.56678">
        <ele>600</ele>
        <time>2022-06-26T05:03:42Z</time>
      </trkpt>
      <trkpt lat="46.02734" lon="4.56676">
        <ele>600</ele>
        <time>2022-06-26T05:03:43Z</time>
      </trkpt>
      <trkpt lat="46.02732" lon="4.56674">
        <ele>600.2</ele>
        <time>2022-06-26T05:03:44Z</time>
      </trkpt>
      <trkpt lat="46.0273" lon="4.56672">
        <ele>600.2</ele>
        <time>2022-06-26T05:03:45Z</time>
      </trkpt>
      <trkpt lat="46.02728" lon="4.56671">
        <ele>600.6</ele>
        <time>2022-06-26T05:03:46Z</time>
      </trkpt>
      <trkpt lat="46.02726" lon="4.5667">
        <ele>600.6</ele>
        <time>2022-06-26T05:03:47Z</time>
      </trkpt>
      <trkpt lat="46.02724" lon="4.5667">
        <ele>600.8</ele>
        <time>2022-06-26T05:03:48Z</time>
      </trkpt>
      <trkpt lat="46.02722" lon="4.56668">
        <ele>600.8</ele>
        <time>2022-06-26T05:03:49Z</time>
      </trkpt>
      <trkpt lat="46.02721" lon="4.56667">
        <ele>601</ele>
        <time>2022-06-26T05:03:50Z</time>
      </trkpt>
      <trkpt lat="46.02719" lon="4.56666">
        <ele>601.4</ele>
        <time>2022-06-26T05:03:51Z</time>
      </trkpt>
      <trkpt lat="46.02717" lon="4.56665">
        <ele>601.4</ele>
        <time>2022-06-26T05:03:52Z</time>
      </trkpt>
      <trkpt lat="46.02716" lon="4.56664">
        <ele>601.6</ele>
        <time>2022-06-26T05:03:53Z</time>
      </trkpt>
      <trkpt lat="46.02714" lon="4.56662">
        <ele>601.6</ele>
        <time>2022-06-26T05:03:54Z</time>
      </trkpt>
      <trkpt lat="46.02712" lon="4.56662">
        <ele>602</ele>
        <time>2022-06-26T05:03:55Z</time>
      </trkpt>
      <trkpt lat="46.0271" lon="4.56661">
        <ele>602</ele>
        <time>2022-06-26T05:03:56Z</time>
      </trkpt>
      <trkpt lat="46.02708" lon="4.56661">
        <ele>602.2</ele>
        <time>2022-06-26T05:03:57Z</time>
      </trkpt>
      <trkpt lat="46.02706" lon="4.5666">
        <ele>602.2</ele>
        <time>2022-06-26T05:03:58Z</time>
      </trkpt>
      <trkpt lat="46.02704" lon="4.56659">
        <ele>602.6</ele>
        <time>2022-06-26T05:03:59Z</time>
      </trkpt>
      <trkpt lat="46.02702" lon="4.56658">
        <ele>602.6</ele>
        <time>2022-06-26T05:04:00Z</time>
      </trkpt>
      <trkpt lat="46.027" lon="4.56658">
        <ele>602.8</ele>
        <time>2022-06-26T05:04:01Z</time>
      </trkpt>
      <trkpt lat="46.02698" lon="4.56657">
        <ele>602.8</ele>
        <time>2022-06-26T05:04:02Z</time>
      </trkpt>
      <trkpt lat="46.02696" lon="4.56656">
        <ele>603</ele>
        <time>2022-06-26T05:04:03Z</time>
      </trkpt>
      <trkpt lat="46.02694" lon="4.56655">
        <ele>603</ele>
        <time>2022-06-26T05:04:04Z</time>
      </trkpt>
      <trkpt lat="46.02693" lon="4.56655">
        <ele>603.2</ele>
        <time>2022-06-26T05:04:05Z</time>
      </trkpt>
      <trkpt lat="46.02691" lon="4.56654">
        <ele>603.2</ele>
        <time>2022-06-26T05:04:06Z</time>
      </trkpt>
      <trkpt lat="46.02689" lon="4.56654">
        <ele>603.6</ele>
        <time>2022-06-26T05:04:07Z</time>
      </trkpt>
      <trkpt lat="46.02687" lon="4.56653">
        <ele>603.6</ele>
        <time>2022-06-26T05:04:08Z</time>
      </trkpt>
      <trkpt lat="46.02684" lon="4.56653">
        <ele>603.8</ele>
        <time>2022-06-26T05:04:09Z</time>
      </trkpt>
      <trkpt lat="46.02682" lon="4.56652">
        <ele>603.8</ele>
        <time>2022-06-26T05:04:10Z</time>
      </trkpt>
      <trkpt lat="46.0268" lon="4.56651">
        <ele>604.2</ele>
        <time>2022-06-26T05:04:11Z</time>
      </trkpt>
      <trkpt lat="46.02679" lon="4.5665">
        <ele>604.4</ele>
        <time>2022-06-26T05:04:12Z</time>
      </trkpt>
      <trkpt lat="46.02677" lon="4.56649">
        <ele>604.4</ele>
        <time>2022-06-26T05:04:13Z</time>
      </trkpt>
      <trkpt lat="46.02675" lon="4.56648">
        <ele>604.8</ele>
        <time>2022-06-26T05:04:14Z</time>
      </trkpt>
      <trkpt lat="46.02673" lon="4.56647">
        <ele>605.2</ele>
        <time>2022-06-26T05:04:15Z</time>
      </trkpt>
      <trkpt lat="46.02672" lon="4.56645">
        <ele>605.4</ele>
        <time>2022-06-26T05:04:16Z</time>
      </trkpt>
      <trkpt lat="46.0267" lon="4.56644">
        <ele>605.6</ele>
        <time>2022-06-26T05:04:17Z</time>
      </trkpt>
      <trkpt lat="46.02668" lon="4.56642">
        <ele>605.6</ele>
        <time>2022-06-26T05:04:18Z</time>
      </trkpt>
      <trkpt lat="46.02666" lon="4.56639">
        <ele>606</ele>
        <time>2022-06-26T05:04:19Z</time>
      </trkpt>
      <trkpt lat="46.02665" lon="4.56637">
        <ele>606</ele>
        <time>2022-06-26T05:04:20Z</time>
      </trkpt>
      <trkpt lat="46.02664" lon="4.56634">
        <ele>606.4</ele>
        <time>2022-06-26T05:04:21Z</time>
      </trkpt>
      <trkpt lat="46.02662" lon="4.56631">
        <ele>606.6</ele>
        <time>2022-06-26T05:04:22Z</time>
      </trkpt>
      <trkpt lat="46.02661" lon="4.56629">
        <ele>606.6</ele>
        <time>2022-06-26T05:04:23Z</time>
      </trkpt>
      <trkpt lat="46.0266" lon="4.56627">
        <ele>606.8</ele>
        <time>2022-06-26T05:04:24Z</time>
      </trkpt>
      <trkpt lat="46.02659" lon="4.56624">
        <ele>606.8</ele>
        <time>2022-06-26T05:04:25Z</time>
      </trkpt>
      <trkpt lat="46.02659" lon="4.56621">
        <ele>607.2</ele>
        <time>2022-06-26T05:04:26Z</time>
      </trkpt>
      <trkpt lat="46.02658" lon="4.56618">
        <ele>607.2</ele>
        <time>2022-06-26T05:04:27Z</time>
      </trkpt>
      <trkpt lat="46.02658" lon="4.56615">
        <ele>607.4</ele>
        <time>2022-06-26T05:04:28Z</time>
      </trkpt>
      <trkpt lat="46.02658" lon="4.56612">
        <ele>607.4</ele>
        <time>2022-06-26T05:04:29Z</time>
      </trkpt>
      <trkpt lat="46.02658" lon="4.56609">
        <ele>607.4</ele>
        <time>2022-06-26T05:04:30Z</time>
      </trkpt>
      <trkpt lat="46.02658" lon="4.56606">
        <ele>607.8</ele>
        <time>2022-06-26T05:04:31Z</time>
      </trkpt>
      <trkpt lat="46.02658" lon="4.56604">
        <ele>607.8</ele>
        <time>2022-06-26T05:04:32Z</time>
      </trkpt>
      <trkpt lat="46.02659" lon="4.56601">
        <ele>608.2</ele>
        <time>2022-06-26T05:04:33Z</time>
      </trkpt>
      <trkpt lat="46.02658" lon="4.56598">
        <ele>608.2</ele>
        <time>2022-06-26T05:04:34Z</time>
      </trkpt>
      <trkpt lat="46.02658" lon="4.56595">
        <ele>608.6</ele>
        <time>2022-06-26T05:04:35Z</time>
      </trkpt>
      <trkpt lat="46.02658" lon="4.56592">
        <ele>608.6</ele>
        <time>2022-06-26T05:04:36Z</time>
      </trkpt>
      <trkpt lat="46.02657" lon="4.56589">
        <ele>608.8</ele>
        <time>2022-06-26T05:04:37Z</time>
      </trkpt>
      <trkpt lat="46.02657" lon="4.56587">
        <ele>608.8</ele>
        <time>2022-06-26T05:04:38Z</time>
      </trkpt>
      <trkpt lat="46.02656" lon="4.56584">
        <ele>609.2</ele>
        <time>2022-06-26T05:04:39Z</time>
      </trkpt>
      <trkpt lat="46.02656" lon="4.56581">
        <ele>609.2</ele>
        <time>2022-06-26T05:04:40Z</time>
      </trkpt>
      <trkpt lat="46.02656" lon="4.56578">
        <ele>609.6</ele>
        <time>2022-06-26T05:04:41Z</time>
      </trkpt>
      <trkpt lat="46.02655" lon="4.56575">
        <ele>609.6</ele>
        <time>2022-06-26T05:04:42Z</time>
      </trkpt>
      <trkpt lat="46.02655" lon="4.56573">
        <ele>609.8</ele>
        <time>2022-06-26T05:04:43Z</time>
      </trkpt>
      <trkpt lat="46.02654" lon="4.5657">
        <ele>610</ele>
        <time>2022-06-26T05:04:44Z</time>
      </trkpt>
      <trkpt lat="46.02654" lon="4.56568">
        <ele>610</ele>
        <time>2022-06-26T05:04:45Z</time>
      </trkpt>
      <trkpt lat="46.02653" lon="4.56566">
        <ele>610.4</ele>
        <time>2022-06-26T05:04:46Z</time>
      </trkpt>
      <trkpt lat="46.02652" lon="4.56563">
        <ele>610.4</ele>
        <time>2022-06-26T05:04:47Z</time>
      </trkpt>
      <trkpt lat="46.02651" lon="4.56561">
        <ele>610.6</ele>
        <time>2022-06-26T05:04:48Z</time>
      </trkpt>
      <trkpt lat="46.0265" lon="4.5656">
        <ele>610.6</ele>
        <time>2022-06-26T05:04:49Z</time>
      </trkpt>
      <trkpt lat="46.02649" lon="4.56558">
        <ele>611</ele>
        <time>2022-06-26T05:04:50Z</time>
      </trkpt>
      <trkpt lat="46.02648" lon="4.56555">
        <ele>611</ele>
        <time>2022-06-26T05:04:51Z</time>
      </trkpt>
      <trkpt lat="46.02647" lon="4.56553">
        <ele>611.4</ele>
        <time>2022-06-26T05:04:52Z</time>
      </trkpt>
      <trkpt lat="46.02645" lon="4.56551">
        <ele>611.4</ele>
        <time>2022-06-26T05:04:53Z</time>
      </trkpt>
      <trkpt lat="46.02644" lon="4.56549">
        <ele>611.8</ele>
        <time>2022-06-26T05:04:54Z</time>
      </trkpt>
      <trkpt lat="46.02643" lon="4.56547">
        <ele>611.8</ele>
        <time>2022-06-26T05:04:55Z</time>
      </trkpt>
      <trkpt lat="46.02641" lon="4.56542">
        <ele>612</ele>
        <time>2022-06-26T05:04:56Z</time>
      </trkpt>
      <trkpt lat="46.0264" lon="4.5654">
        <ele>612</ele>
        <time>2022-06-26T05:04:57Z</time>
      </trkpt>
      <trkpt lat="46.02639" lon="4.56538">
        <ele>612.2</ele>
        <time>2022-06-26T05:04:58Z</time>
      </trkpt>
      <trkpt lat="46.02638" lon="4.56536">
        <ele>612.2</ele>
        <time>2022-06-26T05:04:59Z</time>
      </trkpt>
      <trkpt lat="46.02637" lon="4.56534">
        <ele>612.6</ele>
        <time>2022-06-26T05:05:00Z</time>
      </trkpt>
      <trkpt lat="46.02636" lon="4.56532">
        <ele>612.8</ele>
        <time>2022-06-26T05:05:01Z</time>
      </trkpt>
      <trkpt lat="46.02635" lon="4.5653">
        <ele>612.8</ele>
        <time>2022-06-26T05:05:02Z</time>
      </trkpt>
      <trkpt lat="46.02634" lon="4.56528">
        <ele>613</ele>
        <time>2022-06-26T05:05:03Z</time>
      </trkpt>
      <trkpt lat="46.02633" lon="4.56527">
        <ele>613</ele>
        <time>2022-06-26T05:05:04Z</time>
      </trkpt>
      <trkpt lat="46.02631" lon="4.56525">
        <ele>613.4</ele>
        <time>2022-06-26T05:05:05Z</time>
      </trkpt>
      <trkpt lat="46.0263" lon="4.56523">
        <ele>613.4</ele>
        <time>2022-06-26T05:05:06Z</time>
      </trkpt>
      <trkpt lat="46.02629" lon="4.56522">
        <ele>613.4</ele>
        <time>2022-06-26T05:05:07Z</time>
      </trkpt>
      <trkpt lat="46.02627" lon="4.5652">
        <ele>613.8</ele>
        <time>2022-06-26T05:05:08Z</time>
      </trkpt>
      <trkpt lat="46.02626" lon="4.56519">
        <ele>613.8</ele>
        <time>2022-06-26T05:05:09Z</time>
      </trkpt>
      <trkpt lat="46.02625" lon="4.56517">
        <ele>614</ele>
        <time>2022-06-26T05:05:10Z</time>
      </trkpt>
      <trkpt lat="46.02624" lon="4.56515">
        <ele>614</ele>
        <time>2022-06-26T05:05:11Z</time>
      </trkpt>
      <trkpt lat="46.02622" lon="4.56514">
        <ele>614.4</ele>
        <time>2022-06-26T05:05:12Z</time>
      </trkpt>
      <trkpt lat="46.02621" lon="4.56513">
        <ele>614.4</ele>
        <time>2022-06-26T05:05:13Z</time>
      </trkpt>
      <trkpt lat="46.02619" lon="4.56511">
        <ele>614.6</ele>
        <time>2022-06-26T05:05:14Z</time>
      </trkpt>
      <trkpt lat="46.02618" lon="4.56509">
        <ele>614.6</ele>
        <time>2022-06-26T05:05:15Z</time>
      </trkpt>
      <trkpt lat="46.02617" lon="4.56508">
        <ele>614.8</ele>
        <time>2022-06-26T05:05:16Z</time>
      </trkpt>
      <trkpt lat="46.02615" lon="4.56506">
        <ele>614.8</ele>
        <time>2022-06-26T05:05:17Z</time>
      </trkpt>
      <trkpt lat="46.02614" lon="4.56505">
        <ele>615.2</ele>
        <time>2022-06-26T05:05:18Z</time>
      </trkpt>
      <trkpt lat="46.02612" lon="4.56503">
        <ele>615.2</ele>
        <time>2022-06-26T05:05:19Z</time>
      </trkpt>
      <trkpt lat="46.0261" lon="4.56502">
        <ele>615.4</ele>
        <time>2022-06-26T05:05:20Z</time>
      </trkpt>
      <trkpt lat="46.02609" lon="4.565">
        <ele>615.4</ele>
        <time>2022-06-26T05:05:21Z</time>
      </trkpt>
      <trkpt lat="46.02607" lon="4.56498">
        <ele>615.4</ele>
        <time>2022-06-26T05:05:22Z</time>
      </trkpt>
      <trkpt lat="46.02606" lon="4.56497">
        <ele>615.8</ele>
        <time>2022-06-26T05:05:23Z</time>
      </trkpt>
      <trkpt lat="46.02604" lon="4.56495">
        <ele>615.8</ele>
        <time>2022-06-26T05:05:24Z</time>
      </trkpt>
      <trkpt lat="46.02603" lon="4.56493">
        <ele>616.2</ele>
        <time>2022-06-26T05:05:25Z</time>
      </trkpt>
      <trkpt lat="46.02601" lon="4.56492">
        <ele>616.2</ele>
        <time>2022-06-26T05:05:26Z</time>
      </trkpt>
      <trkpt lat="46.02599" lon="4.5649">
        <ele>616.4</ele>
        <time>2022-06-26T05:05:27Z</time>
      </trkpt>
      <trkpt lat="46.02597" lon="4.56488">
        <ele>616.4</ele>
        <time>2022-06-26T05:05:28Z</time>
      </trkpt>
      <trkpt lat="46.02596" lon="4.56487">
        <ele>616.8</ele>
        <time>2022-06-26T05:05:29Z</time>
      </trkpt>
      <trkpt lat="46.02594" lon="4.56485">
        <ele>616.8</ele>
        <time>2022-06-26T05:05:30Z</time>
      </trkpt>
      <trkpt lat="46.02593" lon="4.56484">
        <ele>617</ele>
        <time>2022-06-26T05:05:31Z</time>
      </trkpt>
      <trkpt lat="46.02591" lon="4.56482">
        <ele>617</ele>
        <time>2022-06-26T05:05:32Z</time>
      </trkpt>
      <trkpt lat="46.0259" lon="4.5648">
        <ele>617</ele>
        <time>2022-06-26T05:05:33Z</time>
      </trkpt>
      <trkpt lat="46.02588" lon="4.56478">
        <ele>617.4</ele>
        <time>2022-06-26T05:05:34Z</time>
      </trkpt>
      <trkpt lat="46.02587" lon="4.56476">
        <ele>617.4</ele>
        <time>2022-06-26T05:05:35Z</time>
      </trkpt>
      <trkpt lat="46.02585" lon="4.56474">
        <ele>617.4</ele>
        <time>2022-06-26T05:05:36Z</time>
      </trkpt>
      <trkpt lat="46.02584" lon="4.56472">
        <ele>617.6</ele>
        <time>2022-06-26T05:05:37Z</time>
      </trkpt>
      <trkpt lat="46.02582" lon="4.5647">
        <ele>617.6</ele>
        <time>2022-06-26T05:05:38Z</time>
      </trkpt>
      <trkpt lat="46.02581" lon="4.56468">
        <ele>618</ele>
        <time>2022-06-26T05:05:39Z</time>
      </trkpt>
      <trkpt lat="46.0258" lon="4.56466">
        <ele>618</ele>
        <time>2022-06-26T05:05:40Z</time>
      </trkpt>
      <trkpt lat="46.02579" lon="4.56464">
        <ele>618.2</ele>
        <time>2022-06-26T05:05:41Z</time>
      </trkpt>
      <trkpt lat="46.02578" lon="4.56462">
        <ele>618.2</ele>
        <time>2022-06-26T05:05:42Z</time>
      </trkpt>
      <trkpt lat="46.02577" lon="4.56459">
        <ele>618.6</ele>
        <time>2022-06-26T05:05:43Z</time>
      </trkpt>
      <trkpt lat="46.02576" lon="4.56457">
        <ele>618.6</ele>
        <time>2022-06-26T05:05:44Z</time>
      </trkpt>
      <trkpt lat="46.02575" lon="4.56455">
        <ele>618.8</ele>
        <time>2022-06-26T05:05:45Z</time>
      </trkpt>
      <trkpt lat="46.02574" lon="4.56453">
        <ele>618.8</ele>
        <time>2022-06-26T05:05:46Z</time>
      </trkpt>
      <trkpt lat="46.02573" lon="4.5645">
        <ele>619.2</ele>
        <time>2022-06-26T05:05:47Z</time>
      </trkpt>
      <trkpt lat="46.02572" lon="4.56448">
        <ele>619.2</ele>
        <time>2022-06-26T05:05:48Z</time>
      </trkpt>
      <trkpt lat="46.02571" lon="4.56446">
        <ele>619.6</ele>
        <time>2022-06-26T05:05:49Z</time>
      </trkpt>
      <trkpt lat="46.0257" lon="4.56444">
        <ele>619.6</ele>
        <time>2022-06-26T05:05:50Z</time>
      </trkpt>
      <trkpt lat="46.0257" lon="4.56442">
        <ele>619.8</ele>
        <time>2022-06-26T05:05:51Z</time>
      </trkpt>
      <trkpt lat="46.02569" lon="4.5644">
        <ele>620.2</ele>
        <time>2022-06-26T05:05:52Z</time>
      </trkpt>
      <trkpt lat="46.02569" lon="4.56438">
        <ele>620.2</ele>
        <time>2022-06-26T05:05:53Z</time>
      </trkpt>
      <trkpt lat="46.02568" lon="4.56436">
        <ele>620.6</ele>
        <time>2022-06-26T05:05:54Z</time>
      </trkpt>
      <trkpt lat="46.02567" lon="4.56434">
        <ele>620.6</ele>
        <time>2022-06-26T05:05:55Z</time>
      </trkpt>
      <trkpt lat="46.02566" lon="4.56432">
        <ele>620.6</ele>
        <time>2022-06-26T05:05:56Z</time>
      </trkpt>
      <trkpt lat="46.02565" lon="4.56429">
        <ele>620.8</ele>
        <time>2022-06-26T05:05:57Z</time>
      </trkpt>
      <trkpt lat="46.02565" lon="4.56426">
        <ele>621</ele>
        <time>2022-06-26T05:05:58Z</time>
      </trkpt>
      <trkpt lat="46.02564" lon="4.56423">
        <ele>621.2</ele>
        <time>2022-06-26T05:05:59Z</time>
      </trkpt>
      <trkpt lat="46.02563" lon="4.5642">
        <ele>621.2</ele>
        <time>2022-06-26T05:06:00Z</time>
      </trkpt>
      <trkpt lat="46.02563" lon="4.56417">
        <ele>621.6</ele>
        <time>2022-06-26T05:06:01Z</time>
      </trkpt>
      <trkpt lat="46.02563" lon="4.56415">
        <ele>621.6</ele>
        <time>2022-06-26T05:06:02Z</time>
      </trkpt>
      <trkpt lat="46.02562" lon="4.56412">
        <ele>622</ele>
        <time>2022-06-26T05:06:03Z</time>
      </trkpt>
      <trkpt lat="46.02562" lon="4.5641">
        <ele>622.2</ele>
        <time>2022-06-26T05:06:04Z</time>
      </trkpt>
      <trkpt lat="46.02561" lon="4.56408">
        <ele>622.4</ele>
        <time>2022-06-26T05:06:05Z</time>
      </trkpt>
      <trkpt lat="46.0256" lon="4.56406">
        <ele>622.6</ele>
        <time>2022-06-26T05:06:06Z</time>
      </trkpt>
      <trkpt lat="46.0256" lon="4.56403">
        <ele>622.8</ele>
        <time>2022-06-26T05:06:07Z</time>
      </trkpt>
      <trkpt lat="46.02559" lon="4.564">
        <ele>623.2</ele>
        <time>2022-06-26T05:06:08Z</time>
      </trkpt>
      <trkpt lat="46.02558" lon="4.56398">
        <ele>623.2</ele>
        <time>2022-06-26T05:06:09Z</time>
      </trkpt>
      <trkpt lat="46.02558" lon="4.56395">
        <ele>623.4</ele>
        <time>2022-06-26T05:06:10Z</time>
      </trkpt>
      <trkpt lat="46.02557" lon="4.56392">
        <ele>623.4</ele>
        <time>2022-06-26T05:06:11Z</time>
      </trkpt>
      <trkpt lat="46.02556" lon="4.56389">
        <ele>623.8</ele>
        <time>2022-06-26T05:06:12Z</time>
      </trkpt>
      <trkpt lat="46.02555" lon="4.56386">
        <ele>623.8</ele>
        <time>2022-06-26T05:06:13Z</time>
      </trkpt>
      <trkpt lat="46.02554" lon="4.56383">
        <ele>624.4</ele>
        <time>2022-06-26T05:06:14Z</time>
      </trkpt>
      <trkpt lat="46.02554" lon="4.5638">
        <ele>624.6</ele>
        <time>2022-06-26T05:06:15Z</time>
      </trkpt>
      <trkpt lat="46.02553" lon="4.56377">
        <ele>624.8</ele>
        <time>2022-06-26T05:06:16Z</time>
      </trkpt>
      <trkpt lat="46.02553" lon="4.56374">
        <ele>624.8</ele>
        <time>2022-06-26T05:06:17Z</time>
      </trkpt>
      <trkpt lat="46.02552" lon="4.56371">
        <ele>625.2</ele>
        <time>2022-06-26T05:06:18Z</time>
      </trkpt>
      <trkpt lat="46.02551" lon="4.56369">
        <ele>625.4</ele>
        <time>2022-06-26T05:06:19Z</time>
      </trkpt>
      <trkpt lat="46.02551" lon="4.56366">
        <ele>625.4</ele>
        <time>2022-06-26T05:06:20Z</time>
      </trkpt>
      <trkpt lat="46.0255" lon="4.56364">
        <ele>625.8</ele>
        <time>2022-06-26T05:06:21Z</time>
      </trkpt>
      <trkpt lat="46.0255" lon="4.56363">
        <ele>626</ele>
        <time>2022-06-26T05:06:22Z</time>
      </trkpt>
      <trkpt lat="46.02549" lon="4.5636">
        <ele>626.2</ele>
        <time>2022-06-26T05:06:23Z</time>
      </trkpt>
      <trkpt lat="46.02548" lon="4.56357">
        <ele>626.2</ele>
        <time>2022-06-26T05:06:24Z</time>
      </trkpt>
      <trkpt lat="46.02547" lon="4.56355">
        <ele>626.6</ele>
        <time>2022-06-26T05:06:25Z</time>
      </trkpt>
      <trkpt lat="46.02546" lon="4.56352">
        <ele>626.8</ele>
        <time>2022-06-26T05:06:26Z</time>
      </trkpt>
      <trkpt lat="46.02546" lon="4.5635">
        <ele>627</ele>
        <time>2022-06-26T05:06:27Z</time>
      </trkpt>
      <trkpt lat="46.02545" lon="4.56348">
        <ele>627</ele>
        <time>2022-06-26T05:06:28Z</time>
      </trkpt>
      <trkpt lat="46.02544" lon="4.56346">
        <ele>627.4</ele>
        <time>2022-06-26T05:06:29Z</time>
      </trkpt>
      <trkpt lat="46.02544" lon="4.56343">
        <ele>627.4</ele>
        <time>2022-06-26T05:06:30Z</time>
      </trkpt>
      <trkpt lat="46.02544" lon="4.56341">
        <ele>627.8</ele>
        <time>2022-06-26T05:06:31Z</time>
      </trkpt>
      <trkpt lat="46.02543" lon="4.56338">
        <ele>627.8</ele>
        <time>2022-06-26T05:06:32Z</time>
      </trkpt>
      <trkpt lat="46.02542" lon="4.56336">
        <ele>628.2</ele>
        <time>2022-06-26T05:06:33Z</time>
      </trkpt>
      <trkpt lat="46.02542" lon="4.56334">
        <ele>628.4</ele>
        <time>2022-06-26T05:06:34Z</time>
      </trkpt>
      <trkpt lat="46.02541" lon="4.56332">
        <ele>628.4</ele>
        <time>2022-06-26T05:06:35Z</time>
      </trkpt>
      <trkpt lat="46.0254" lon="4.56329">
        <ele>628.6</ele>
        <time>2022-06-26T05:06:36Z</time>
      </trkpt>
      <trkpt lat="46.0254" lon="4.56327">
        <ele>628.6</ele>
        <time>2022-06-26T05:06:37Z</time>
      </trkpt>
      <trkpt lat="46.02539" lon="4.56325">
        <ele>629</ele>
        <time>2022-06-26T05:06:38Z</time>
      </trkpt>
      <trkpt lat="46.02538" lon="4.56323">
        <ele>629</ele>
        <time>2022-06-26T05:06:39Z</time>
      </trkpt>
      <trkpt lat="46.02537" lon="4.56321">
        <ele>629.2</ele>
        <time>2022-06-26T05:06:40Z</time>
      </trkpt>
      <trkpt lat="46.02536" lon="4.56318">
        <ele>629.2</ele>
        <time>2022-06-26T05:06:41Z</time>
      </trkpt>
      <trkpt lat="46.02535" lon="4.56316">
        <ele>629.6</ele>
        <time>2022-06-26T05:06:42Z</time>
      </trkpt>
      <trkpt lat="46.02534" lon="4.56314">
        <ele>629.6</ele>
        <time>2022-06-26T05:06:43Z</time>
      </trkpt>
      <trkpt lat="46.02533" lon="4.56312">
        <ele>629.8</ele>
        <time>2022-06-26T05:06:44Z</time>
      </trkpt>
      <trkpt lat="46.02532" lon="4.5631">
        <ele>629.8</ele>
        <time>2022-06-26T05:06:45Z</time>
      </trkpt>
      <trkpt lat="46.0253" lon="4.56308">
        <ele>630.2</ele>
        <time>2022-06-26T05:06:46Z</time>
      </trkpt>
      <trkpt lat="46.02529" lon="4.56306">
        <ele>630.4</ele>
        <time>2022-06-26T05:06:47Z</time>
      </trkpt>
      <trkpt lat="46.02528" lon="4.56304">
        <ele>630.4</ele>
        <time>2022-06-26T05:06:48Z</time>
      </trkpt>
      <trkpt lat="46.02527" lon="4.56302">
        <ele>630.8</ele>
        <time>2022-06-26T05:06:49Z</time>
      </trkpt>
      <trkpt lat="46.02526" lon="4.563">
        <ele>631</ele>
        <time>2022-06-26T05:06:50Z</time>
      </trkpt>
      <trkpt lat="46.02524" lon="4.56298">
        <ele>631</ele>
        <time>2022-06-26T05:06:51Z</time>
      </trkpt>
      <trkpt lat="46.02523" lon="4.56296">
        <ele>631.2</ele>
        <time>2022-06-26T05:06:52Z</time>
      </trkpt>
      <trkpt lat="46.02522" lon="4.56294">
        <ele>631.6</ele>
        <time>2022-06-26T05:06:53Z</time>
      </trkpt>
      <trkpt lat="46.02521" lon="4.56292">
        <ele>631.6</ele>
        <time>2022-06-26T05:06:54Z</time>
      </trkpt>
      <trkpt lat="46.0252" lon="4.5629">
        <ele>631.8</ele>
        <time>2022-06-26T05:06:55Z</time>
      </trkpt>
      <trkpt lat="46.02519" lon="4.56288">
        <ele>631.8</ele>
        <time>2022-06-26T05:06:56Z</time>
      </trkpt>
      <trkpt lat="46.02517" lon="4.56286">
        <ele>632.2</ele>
        <time>2022-06-26T05:06:57Z</time>
      </trkpt>
      <trkpt lat="46.02516" lon="4.56284">
        <ele>632.2</ele>
        <time>2022-06-26T05:06:58Z</time>
      </trkpt>
      <trkpt lat="46.02515" lon="4.56282">
        <ele>632.4</ele>
        <time>2022-06-26T05:06:59Z</time>
      </trkpt>
      <trkpt lat="46.02514" lon="4.5628">
        <ele>632.4</ele>
        <time>2022-06-26T05:07:00Z</time>
      </trkpt>
      <trkpt lat="46.02513" lon="4.56278">
        <ele>632.8</ele>
        <time>2022-06-26T05:07:01Z</time>
      </trkpt>
      <trkpt lat="46.02512" lon="4.56277">
        <ele>632.8</ele>
        <time>2022-06-26T05:07:02Z</time>
      </trkpt>
      <trkpt lat="46.02511" lon="4.56275">
        <ele>633.2</ele>
        <time>2022-06-26T05:07:03Z</time>
      </trkpt>
      <trkpt lat="46.02509" lon="4.56274">
        <ele>633.2</ele>
        <time>2022-06-26T05:07:04Z</time>
      </trkpt>
      <trkpt lat="46.02508" lon="4.56273">
        <ele>633.4</ele>
        <time>2022-06-26T05:07:05Z</time>
      </trkpt>
      <trkpt lat="46.02507" lon="4.56272">
        <ele>633.6</ele>
        <time>2022-06-26T05:07:06Z</time>
      </trkpt>
      <trkpt lat="46.02505" lon="4.56271">
        <ele>633.6</ele>
        <time>2022-06-26T05:07:07Z</time>
      </trkpt>
      <trkpt lat="46.02504" lon="4.56269">
        <ele>633.8</ele>
        <time>2022-06-26T05:07:08Z</time>
      </trkpt>
      <trkpt lat="46.02502" lon="4.56268">
        <ele>633.8</ele>
        <time>2022-06-26T05:07:09Z</time>
      </trkpt>
      <trkpt lat="46.02501" lon="4.56266">
        <ele>633.8</ele>
        <time>2022-06-26T05:07:10Z</time>
      </trkpt>
      <trkpt lat="46.025" lon="4.56265">
        <ele>634.2</ele>
        <time>2022-06-26T05:07:11Z</time>
      </trkpt>
      <trkpt lat="46.02498" lon="4.56263">
        <ele>634.2</ele>
        <time>2022-06-26T05:07:12Z</time>
      </trkpt>
      <trkpt lat="46.02497" lon="4.56262">
        <ele>634.4</ele>
        <time>2022-06-26T05:07:13Z</time>
      </trkpt>
      <trkpt lat="46.02496" lon="4.5626">
        <ele>634.4</ele>
        <time>2022-06-26T05:07:14Z</time>
      </trkpt>
      <trkpt lat="46.02494" lon="4.56259">
        <ele>634.6</ele>
        <time>2022-06-26T05:07:15Z</time>
      </trkpt>
      <trkpt lat="46.02492" lon="4.56257">
        <ele>634.6</ele>
        <time>2022-06-26T05:07:16Z</time>
      </trkpt>
      <trkpt lat="46.02491" lon="4.56255">
        <ele>634.8</ele>
        <time>2022-06-26T05:07:17Z</time>
      </trkpt>
      <trkpt lat="46.02489" lon="4.56254">
        <ele>634.8</ele>
        <time>2022-06-26T05:07:18Z</time>
      </trkpt>
      <trkpt lat="46.02487" lon="4.56252">
        <ele>634.8</ele>
        <time>2022-06-26T05:07:19Z</time>
      </trkpt>
      <trkpt lat="46.02485" lon="4.5625">
        <ele>634.8</ele>
        <time>2022-06-26T05:07:20Z</time>
      </trkpt>
      <trkpt lat="46.02483" lon="4.56249">
        <ele>634.8</ele>
        <time>2022-06-26T05:07:21Z</time>
      </trkpt>
      <trkpt lat="46.02481" lon="4.56247">
        <ele>634.8</ele>
        <time>2022-06-26T05:07:22Z</time>
      </trkpt>
      <trkpt lat="46.0248" lon="4.56246">
        <ele>634.8</ele>
        <time>2022-06-26T05:07:23Z</time>
      </trkpt>
      <trkpt lat="46.02479" lon="4.56247">
        <ele>634.6</ele>
        <time>2022-06-26T05:07:24Z</time>
      </trkpt>
      <trkpt lat="46.02477" lon="4.56248">
        <ele>634.6</ele>
        <time>2022-06-26T05:07:25Z</time>
      </trkpt>
      <trkpt lat="46.02475" lon="4.5625">
        <ele>634.6</ele>
        <time>2022-06-26T05:07:26Z</time>
      </trkpt>
      <trkpt lat="46.02473" lon="4.56251">
        <ele>634.6</ele>
        <time>2022-06-26T05:07:27Z</time>
      </trkpt>
      <trkpt lat="46.02471" lon="4.56254">
        <ele>634.6</ele>
        <time>2022-06-26T05:07:28Z</time>
      </trkpt>
      <trkpt lat="46.02469" lon="4.56256">
        <ele>634.2</ele>
        <time>2022-06-26T05:07:29Z</time>
      </trkpt>
      <trkpt lat="46.02467" lon="4.5626">
        <ele>634.2</ele>
        <time>2022-06-26T05:07:30Z</time>
      </trkpt>
      <trkpt lat="46.02465" lon="4.56264">
        <ele>634</ele>
        <time>2022-06-26T05:07:31Z</time>
      </trkpt>
      <trkpt lat="46.02463" lon="4.56269">
        <ele>634</ele>
        <time>2022-06-26T05:07:32Z</time>
      </trkpt>
      <trkpt lat="46.0246" lon="4.56274">
        <ele>633.6</ele>
        <time>2022-06-26T05:07:33Z</time>
      </trkpt>
      <trkpt lat="46.02457" lon="4.56279">
        <ele>633.6</ele>
        <time>2022-06-26T05:07:34Z</time>
      </trkpt>
      <trkpt lat="46.02454" lon="4.56285">
        <ele>633.2</ele>
        <time>2022-06-26T05:07:35Z</time>
      </trkpt>
      <trkpt lat="46.02452" lon="4.56291">
        <ele>633</ele>
        <time>2022-06-26T05:07:36Z</time>
      </trkpt>
      <trkpt lat="46.02449" lon="4.56297">
        <ele>632.6</ele>
        <time>2022-06-26T05:07:37Z</time>
      </trkpt>
      <trkpt lat="46.02445" lon="4.56304">
        <ele>632.6</ele>
        <time>2022-06-26T05:07:38Z</time>
      </trkpt>
      <trkpt lat="46.02442" lon="4.56311">
        <ele>632.4</ele>
        <time>2022-06-26T05:07:39Z</time>
      </trkpt>
      <trkpt lat="46.02438" lon="4.56319">
        <ele>632.4</ele>
        <time>2022-06-26T05:07:40Z</time>
      </trkpt>
      <trkpt lat="46.02435" lon="4.56326">
        <ele>631.8</ele>
        <time>2022-06-26T05:07:41Z</time>
      </trkpt>
      <trkpt lat="46.02432" lon="4.56332">
        <ele>631.6</ele>
        <time>2022-06-26T05:07:42Z</time>
      </trkpt>
      <trkpt lat="46.02429" lon="4.56337">
        <ele>631.6</ele>
        <time>2022-06-26T05:07:43Z</time>
      </trkpt>
      <trkpt lat="46.02427" lon="4.56341">
        <ele>631.2</ele>
        <time>2022-06-26T05:07:44Z</time>
      </trkpt>
      <trkpt lat="46.02426" lon="4.56344">
        <ele>631</ele>
        <time>2022-06-26T05:07:45Z</time>
      </trkpt>
      <trkpt lat="46.02425" lon="4.56346">
        <ele>631</ele>
        <time>2022-06-26T05:07:46Z</time>
      </trkpt>
      <trkpt lat="46.02424" lon="4.56349">
        <ele>630.8</ele>
        <time>2022-06-26T05:07:47Z</time>
      </trkpt>
      <trkpt lat="46.02425" lon="4.56352">
        <ele>630.8</ele>
        <time>2022-06-26T05:07:48Z</time>
      </trkpt>
      <trkpt lat="46.02426" lon="4.56351">
        <ele>630.8</ele>
        <time>2022-06-26T05:07:49Z</time>
      </trkpt>
      <trkpt lat="46.02427" lon="4.56349">
        <ele>630.8</ele>
        <time>2022-06-26T05:07:50Z</time>
      </trkpt>
      <trkpt lat="46.02428" lon="4.56347">
        <ele>630.8</ele>
        <time>2022-06-26T05:07:51Z</time>
      </trkpt>
      <trkpt lat="46.02429" lon="4.56345">
        <ele>630.8</ele>
        <time>2022-06-26T05:07:52Z</time>
      </trkpt>
      <trkpt lat="46.02429" lon="4.56343">
        <ele>630.8</ele>
        <time>2022-06-26T05:07:53Z</time>
      </trkpt>
      <trkpt lat="46.0243" lon="4.5634">
        <ele>630.8</ele>
        <time>2022-06-26T05:07:54Z</time>
      </trkpt>
      <trkpt lat="46.02432" lon="4.56338">
        <ele>630.8</ele>
        <time>2022-06-26T05:07:55Z</time>
      </trkpt>
      <trkpt lat="46.02433" lon="4.56335">
        <ele>630.8</ele>
        <time>2022-06-26T05:07:56Z</time>
      </trkpt>
      <trkpt lat="46.02434" lon="4.56332">
        <ele>630.8</ele>
        <time>2022-06-26T05:07:57Z</time>
      </trkpt>
      <trkpt lat="46.02435" lon="4.56329">
        <ele>631</ele>
        <time>2022-06-26T05:07:58Z</time>
      </trkpt>
      <trkpt lat="46.02437" lon="4.56326">
        <ele>631</ele>
        <time>2022-06-26T05:07:59Z</time>
      </trkpt>
      <trkpt lat="46.02438" lon="4.56322">
        <ele>631.2</ele>
        <time>2022-06-26T05:08:00Z</time>
      </trkpt>
      <trkpt lat="46.0244" lon="4.56319">
        <ele>631.2</ele>
        <time>2022-06-26T05:08:01Z</time>
      </trkpt>
      <trkpt lat="46.02441" lon="4.56316">
        <ele>631.4</ele>
        <time>2022-06-26T05:08:02Z</time>
      </trkpt>
      <trkpt lat="46.02442" lon="4.56313">
        <ele>631.4</ele>
        <time>2022-06-26T05:08:03Z</time>
      </trkpt>
      <trkpt lat="46.02444" lon="4.56309">
        <ele>631.8</ele>
        <time>2022-06-26T05:08:04Z</time>
      </trkpt>
      <trkpt lat="46.02445" lon="4.56306">
        <ele>631.8</ele>
        <time>2022-06-26T05:08:05Z</time>
      </trkpt>
      <trkpt lat="46.02447" lon="4.56303">
        <ele>632</ele>
        <time>2022-06-26T05:08:06Z</time>
      </trkpt>
      <trkpt lat="46.02448" lon="4.563">
        <ele>632</ele>
        <time>2022-06-26T05:08:07Z</time>
      </trkpt>
      <trkpt lat="46.0245" lon="4.56297">
        <ele>632</ele>
        <time>2022-06-26T05:08:08Z</time>
      </trkpt>
      <trkpt lat="46.02451" lon="4.56293">
        <ele>632.4</ele>
        <time>2022-06-26T05:08:09Z</time>
      </trkpt>
      <trkpt lat="46.02453" lon="4.5629">
        <ele>632.4</ele>
        <time>2022-06-26T05:08:10Z</time>
      </trkpt>
      <trkpt lat="46.02454" lon="4.56287">
        <ele>632.4</ele>
        <time>2022-06-26T05:08:11Z</time>
      </trkpt>
      <trkpt lat="46.02456" lon="4.56284">
        <ele>632.6</ele>
        <time>2022-06-26T05:08:12Z</time>
      </trkpt>
      <trkpt lat="46.02458" lon="4.56281">
        <ele>632.6</ele>
        <time>2022-06-26T05:08:13Z</time>
      </trkpt>
      <trkpt lat="46.02459" lon="4.56278">
        <ele>633</ele>
        <time>2022-06-26T05:08:14Z</time>
      </trkpt>
      <trkpt lat="46.02461" lon="4.56275">
        <ele>633</ele>
        <time>2022-06-26T05:08:15Z</time>
      </trkpt>
      <trkpt lat="46.02462" lon="4.56272">
        <ele>633.2</ele>
        <time>2022-06-26T05:08:16Z</time>
      </trkpt>
      <trkpt lat="46.02463" lon="4.56269">
        <ele>633.2</ele>
        <time>2022-06-26T05:08:17Z</time>
      </trkpt>
      <trkpt lat="46.02465" lon="4.56266">
        <ele>633.6</ele>
        <time>2022-06-26T05:08:18Z</time>
      </trkpt>
      <trkpt lat="46.02467" lon="4.56263">
        <ele>633.6</ele>
        <time>2022-06-26T05:08:19Z</time>
      </trkpt>
      <trkpt lat="46.02468" lon="4.5626">
        <ele>633.8</ele>
        <time>2022-06-26T05:08:20Z</time>
      </trkpt>
      <trkpt lat="46.02469" lon="4.56257">
        <ele>633.8</ele>
        <time>2022-06-26T05:08:21Z</time>
      </trkpt>
      <trkpt lat="46.02471" lon="4.56254">
        <ele>634</ele>
        <time>2022-06-26T05:08:22Z</time>
      </trkpt>
      <trkpt lat="46.02472" lon="4.56251">
        <ele>634</ele>
        <time>2022-06-26T05:08:23Z</time>
      </trkpt>
      <trkpt lat="46.02474" lon="4.56248">
        <ele>634.4</ele>
        <time>2022-06-26T05:08:24Z</time>
      </trkpt>
      <trkpt lat="46.02475" lon="4.56245">
        <ele>634.4</ele>
        <time>2022-06-26T05:08:25Z</time>
      </trkpt>
      <trkpt lat="46.02477" lon="4.56243">
        <ele>634.6</ele>
        <time>2022-06-26T05:08:26Z</time>
      </trkpt>
      <trkpt lat="46.02478" lon="4.5624">
        <ele>634.6</ele>
        <time>2022-06-26T05:08:27Z</time>
      </trkpt>
      <trkpt lat="46.02479" lon="4.56237">
        <ele>634.8</ele>
        <time>2022-06-26T05:08:28Z</time>
      </trkpt>
      <trkpt lat="46.0248" lon="4.56234">
        <ele>634.8</ele>
        <time>2022-06-26T05:08:29Z</time>
      </trkpt>
      <trkpt lat="46.02481" lon="4.56232">
        <ele>635.2</ele>
        <time>2022-06-26T05:08:30Z</time>
      </trkpt>
      <trkpt lat="46.02481" lon="4.5623">
        <ele>635.2</ele>
        <time>2022-06-26T05:08:31Z</time>
      </trkpt>
      <trkpt lat="46.02481" lon="4.56228">
        <ele>635.4</ele>
        <time>2022-06-26T05:08:32Z</time>
      </trkpt>
      <trkpt lat="46.02481" lon="4.56226">
        <ele>635.4</ele>
        <time>2022-06-26T05:08:33Z</time>
      </trkpt>
      <trkpt lat="46.0248" lon="4.56225">
        <ele>635.4</ele>
        <time>2022-06-26T05:08:34Z</time>
      </trkpt>
      <trkpt lat="46.02478" lon="4.56225">
        <ele>635.4</ele>
        <time>2022-06-26T05:08:35Z</time>
      </trkpt>
      <trkpt lat="46.02477" lon="4.56226">
        <ele>635.4</ele>
        <time>2022-06-26T05:08:36Z</time>
      </trkpt>
      <trkpt lat="46.02474" lon="4.56228">
        <ele>635.4</ele>
        <time>2022-06-26T05:08:37Z</time>
      </trkpt>
      <trkpt lat="46.02471" lon="4.5623">
        <ele>635</ele>
        <time>2022-06-26T05:08:38Z</time>
      </trkpt>
      <trkpt lat="46.02468" lon="4.56232">
        <ele>634.8</ele>
        <time>2022-06-26T05:08:39Z</time>
      </trkpt>
      <trkpt lat="46.02464" lon="4.56235">
        <ele>634.4</ele>
        <time>2022-06-26T05:08:40Z</time>
      </trkpt>
      <trkpt lat="46.02461" lon="4.5624">
        <ele>633.8</ele>
        <time>2022-06-26T05:08:41Z</time>
      </trkpt>
      <trkpt lat="46.02457" lon="4.56244">
        <ele>633.2</ele>
        <time>2022-06-26T05:08:42Z</time>
      </trkpt>
      <trkpt lat="46.02454" lon="4.5625">
        <ele>632.4</ele>
        <time>2022-06-26T05:08:43Z</time>
      </trkpt>
      <trkpt lat="46.0245" lon="4.56255">
        <ele>631.8</ele>
        <time>2022-06-26T05:08:44Z</time>
      </trkpt>
      <trkpt lat="46.02446" lon="4.5626">
        <ele>631</ele>
        <time>2022-06-26T05:08:45Z</time>
      </trkpt>
      <trkpt lat="46.02443" lon="4.56266">
        <ele>630.2</ele>
        <time>2022-06-26T05:08:46Z</time>
      </trkpt>
      <trkpt lat="46.02439" lon="4.56272">
        <ele>629.6</ele>
        <time>2022-06-26T05:08:47Z</time>
      </trkpt>
      <trkpt lat="46.02434" lon="4.56278">
        <ele>628.8</ele>
        <time>2022-06-26T05:08:48Z</time>
      </trkpt>
      <trkpt lat="46.02429" lon="4.56285">
        <ele>627.8</ele>
        <time>2022-06-26T05:08:49Z</time>
      </trkpt>
      <trkpt lat="46.02424" lon="4.56292">
        <ele>627</ele>
        <time>2022-06-26T05:08:50Z</time>
      </trkpt>
      <trkpt lat="46.02418" lon="4.56299">
        <ele>626</ele>
        <time>2022-06-26T05:08:51Z</time>
      </trkpt>
      <trkpt lat="46.02413" lon="4.56307">
        <ele>625</ele>
        <time>2022-06-26T05:08:52Z</time>
      </trkpt>
      <trkpt lat="46.02407" lon="4.56315">
        <ele>624</ele>
        <time>2022-06-26T05:08:53Z</time>
      </trkpt>
      <trkpt lat="46.02401" lon="4.56323">
        <ele>623</ele>
        <time>2022-06-26T05:08:54Z</time>
      </trkpt>
      <trkpt lat="46.02395" lon="4.56331">
        <ele>622</ele>
        <time>2022-06-26T05:08:55Z</time>
      </trkpt>
      <trkpt lat="46.02389" lon="4.56339">
        <ele>621.2</ele>
        <time>2022-06-26T05:08:56Z</time>
      </trkpt>
      <trkpt lat="46.02383" lon="4.56346">
        <ele>620.2</ele>
        <time>2022-06-26T05:08:57Z</time>
      </trkpt>
      <trkpt lat="46.02376" lon="4.56354">
        <ele>619.4</ele>
        <time>2022-06-26T05:08:58Z</time>
      </trkpt>
      <trkpt lat="46.0237" lon="4.56362">
        <ele>618.4</ele>
        <time>2022-06-26T05:08:59Z</time>
      </trkpt>
      <trkpt lat="46.02364" lon="4.56369">
        <ele>617.4</ele>
        <time>2022-06-26T05:09:00Z</time>
      </trkpt>
      <trkpt lat="46.02357" lon="4.56376">
        <ele>616.2</ele>
        <time>2022-06-26T05:09:01Z</time>
      </trkpt>
      <trkpt lat="46.0235" lon="4.56383">
        <ele>615.2</ele>
        <time>2022-06-26T05:09:02Z</time>
      </trkpt>
      <trkpt lat="46.02342" lon="4.56389">
        <ele>614.4</ele>
        <time>2022-06-26T05:09:03Z</time>
      </trkpt>
      <trkpt lat="46.02335" lon="4.56395">
        <ele>613.4</ele>
        <time>2022-06-26T05:09:04Z</time>
      </trkpt>
      <trkpt lat="46.02327" lon="4.56402">
        <ele>612.6</ele>
        <time>2022-06-26T05:09:05Z</time>
      </trkpt>
      <trkpt lat="46.02319" lon="4.56408">
        <ele>611.8</ele>
        <time>2022-06-26T05:09:06Z</time>
      </trkpt>
      <trkpt lat="46.0231" lon="4.56414">
        <ele>611</ele>
        <time>2022-06-26T05:09:07Z</time>
      </trkpt>
      <trkpt lat="46.02302" lon="4.56421">
        <ele>610.4</ele>
        <time>2022-06-26T05:09:08Z</time>
      </trkpt>
      <trkpt lat="46.02293" lon="4.56427">
        <ele>609.6</ele>
        <time>2022-06-26T05:09:09Z</time>
      </trkpt>
      <trkpt lat="46.02285" lon="4.56433">
        <ele>609</ele>
        <time>2022-06-26T05:09:10Z</time>
      </trkpt>
      <trkpt lat="46.02277" lon="4.56438">
        <ele>608.2</ele>
        <time>2022-06-26T05:09:11Z</time>
      </trkpt>
      <trkpt lat="46.0227" lon="4.56443">
        <ele>607.4</ele>
        <time>2022-06-26T05:09:12Z</time>
      </trkpt>
      <trkpt lat="46.02263" lon="4.56447">
        <ele>606.6</ele>
        <time>2022-06-26T05:09:13Z</time>
      </trkpt>
      <trkpt lat="46.02256" lon="4.56451">
        <ele>606</ele>
        <time>2022-06-26T05:09:14Z</time>
      </trkpt>
      <trkpt lat="46.02249" lon="4.56454">
        <ele>605.4</ele>
        <time>2022-06-26T05:09:15Z</time>
      </trkpt>
      <trkpt lat="46.02243" lon="4.56458">
        <ele>604.8</ele>
        <time>2022-06-26T05:09:16Z</time>
      </trkpt>
      <trkpt lat="46.02237" lon="4.56462">
        <ele>604.2</ele>
        <time>2022-06-26T05:09:17Z</time>
      </trkpt>
      <trkpt lat="46.02232" lon="4.56465">
        <ele>603.6</ele>
        <time>2022-06-26T05:09:18Z</time>
      </trkpt>
      <trkpt lat="46.02227" lon="4.56468">
        <ele>603</ele>
        <time>2022-06-26T05:09:19Z</time>
      </trkpt>
      <trkpt lat="46.02223" lon="4.56471">
        <ele>602.2</ele>
        <time>2022-06-26T05:09:20Z</time>
      </trkpt>
      <trkpt lat="46.02218" lon="4.56473">
        <ele>601.6</ele>
        <time>2022-06-26T05:09:21Z</time>
      </trkpt>
      <trkpt lat="46.02214" lon="4.56476">
        <ele>601.2</ele>
        <time>2022-06-26T05:09:22Z</time>
      </trkpt>
      <trkpt lat="46.02209" lon="4.56479">
        <ele>600.6</ele>
        <time>2022-06-26T05:09:23Z</time>
      </trkpt>
      <trkpt lat="46.02204" lon="4.56482">
        <ele>599.8</ele>
        <time>2022-06-26T05:09:24Z</time>
      </trkpt>
      <trkpt lat="46.02199" lon="4.56486">
        <ele>599.2</ele>
        <time>2022-06-26T05:09:25Z</time>
      </trkpt>
      <trkpt lat="46.02194" lon="4.56489">
        <ele>598.6</ele>
        <time>2022-06-26T05:09:26Z</time>
      </trkpt>
      <trkpt lat="46.02188" lon="4.56493">
        <ele>597.8</ele>
        <time>2022-06-26T05:09:27Z</time>
      </trkpt>
      <trkpt lat="46.02181" lon="4.56498">
        <ele>597</ele>
        <time>2022-06-26T05:09:28Z</time>
      </trkpt>
      <trkpt lat="46.02174" lon="4.56503">
        <ele>596.2</ele>
        <time>2022-06-26T05:09:29Z</time>
      </trkpt>
      <trkpt lat="46.02167" lon="4.56508">
        <ele>595</ele>
        <time>2022-06-26T05:09:30Z</time>
      </trkpt>
      <trkpt lat="46.0216" lon="4.56513">
        <ele>594</ele>
        <time>2022-06-26T05:09:31Z</time>
      </trkpt>
      <trkpt lat="46.02152" lon="4.5652">
        <ele>592.8</ele>
        <time>2022-06-26T05:09:32Z</time>
      </trkpt>
      <trkpt lat="46.02145" lon="4.56526">
        <ele>591.6</ele>
        <time>2022-06-26T05:09:33Z</time>
      </trkpt>
      <trkpt lat="46.02137" lon="4.56532">
        <ele>590.4</ele>
        <time>2022-06-26T05:09:34Z</time>
      </trkpt>
      <trkpt lat="46.0213" lon="4.56537">
        <ele>589.2</ele>
        <time>2022-06-26T05:09:35Z</time>
      </trkpt>
      <trkpt lat="46.02124" lon="4.56543">
        <ele>588</ele>
        <time>2022-06-26T05:09:36Z</time>
      </trkpt>
      <trkpt lat="46.02118" lon="4.56547">
        <ele>587</ele>
        <time>2022-06-26T05:09:37Z</time>
      </trkpt>
      <trkpt lat="46.02113" lon="4.56552">
        <ele>585.8</ele>
        <time>2022-06-26T05:09:38Z</time>
      </trkpt>
      <trkpt lat="46.02109" lon="4.56555">
        <ele>585</ele>
        <time>2022-06-26T05:09:39Z</time>
      </trkpt>
      <trkpt lat="46.02105" lon="4.56558">
        <ele>584</ele>
        <time>2022-06-26T05:09:40Z</time>
      </trkpt>
      <trkpt lat="46.02102" lon="4.5656">
        <ele>583</ele>
        <time>2022-06-26T05:09:41Z</time>
      </trkpt>
      <trkpt lat="46.02101" lon="4.56561">
        <ele>582.4</ele>
        <time>2022-06-26T05:09:42Z</time>
      </trkpt>
      <trkpt lat="46.02101" lon="4.56562">
        <ele>581.8</ele>
        <time>2022-06-26T05:09:43Z</time>
      </trkpt>
      <trkpt lat="46.02096" lon="4.56565">
        <ele>580.4</ele>
        <time>2022-06-26T05:09:52Z</time>
      </trkpt>
      <trkpt lat="46.02093" lon="4.56568">
        <ele>580</ele>
        <time>2022-06-26T05:09:53Z</time>
      </trkpt>
      <trkpt lat="46.0209" lon="4.5657">
        <ele>580</ele>
        <time>2022-06-26T05:09:54Z</time>
      </trkpt>
      <trkpt lat="46.02085" lon="4.56572">
        <ele>579.6</ele>
        <time>2022-06-26T05:09:55Z</time>
      </trkpt>
      <trkpt lat="46.0208" lon="4.56575">
        <ele>579.2</ele>
        <time>2022-06-26T05:09:56Z</time>
      </trkpt>
      <trkpt lat="46.02075" lon="4.56577">
        <ele>578.6</ele>
        <time>2022-06-26T05:09:57Z</time>
      </trkpt>
      <trkpt lat="46.02071" lon="4.56579">
        <ele>578</ele>
        <time>2022-06-26T05:09:58Z</time>
      </trkpt>
      <trkpt lat="46.02067" lon="4.56582">
        <ele>577.2</ele>
        <time>2022-06-26T05:09:59Z</time>
      </trkpt>
      <trkpt lat="46.02063" lon="4.56584">
        <ele>576.6</ele>
        <time>2022-06-26T05:10:00Z</time>
      </trkpt>
      <trkpt lat="46.02061" lon="4.56584">
        <ele>576.2</ele>
        <time>2022-06-26T05:10:01Z</time>
      </trkpt>
      <trkpt lat="46.02058" lon="4.56583">
        <ele>575.6</ele>
        <time>2022-06-26T05:10:02Z</time>
      </trkpt>
      <trkpt lat="46.02056" lon="4.56581">
        <ele>575.2</ele>
        <time>2022-06-26T05:10:03Z</time>
      </trkpt>
      <trkpt lat="46.02055" lon="4.56576">
        <ele>574.6</ele>
        <time>2022-06-26T05:10:04Z</time>
      </trkpt>
      <trkpt lat="46.02055" lon="4.56569">
        <ele>574</ele>
        <time>2022-06-26T05:10:05Z</time>
      </trkpt>
      <trkpt lat="46.02056" lon="4.56562">
        <ele>573.6</ele>
        <time>2022-06-26T05:10:06Z</time>
      </trkpt>
      <trkpt lat="46.02058" lon="4.56555">
        <ele>573.2</ele>
        <time>2022-06-26T05:10:07Z</time>
      </trkpt>
      <trkpt lat="46.02061" lon="4.56547">
        <ele>572.8</ele>
        <time>2022-06-26T05:10:08Z</time>
      </trkpt>
      <trkpt lat="46.02064" lon="4.56539">
        <ele>572.4</ele>
        <time>2022-06-26T05:10:09Z</time>
      </trkpt>
      <trkpt lat="46.02068" lon="4.56531">
        <ele>572</ele>
        <time>2022-06-26T05:10:10Z</time>
      </trkpt>
      <trkpt lat="46.02071" lon="4.56523">
        <ele>571.8</ele>
        <time>2022-06-26T05:10:11Z</time>
      </trkpt>
      <trkpt lat="46.02075" lon="4.56514">
        <ele>571.4</ele>
        <time>2022-06-26T05:10:12Z</time>
      </trkpt>
      <trkpt lat="46.02079" lon="4.56505">
        <ele>571</ele>
        <time>2022-06-26T05:10:13Z</time>
      </trkpt>
      <trkpt lat="46.02084" lon="4.56497">
        <ele>570.4</ele>
        <time>2022-06-26T05:10:14Z</time>
      </trkpt>
      <trkpt lat="46.02088" lon="4.56488">
        <ele>570</ele>
        <time>2022-06-26T05:10:15Z</time>
      </trkpt>
      <trkpt lat="46.02092" lon="4.5648">
        <ele>569.6</ele>
        <time>2022-06-26T05:10:16Z</time>
      </trkpt>
      <trkpt lat="46.02096" lon="4.56471">
        <ele>569.2</ele>
        <time>2022-06-26T05:10:17Z</time>
      </trkpt>
      <trkpt lat="46.021" lon="4.56463">
        <ele>568.8</ele>
        <time>2022-06-26T05:10:18Z</time>
      </trkpt>
      <trkpt lat="46.02105" lon="4.56455">
        <ele>568.6</ele>
        <time>2022-06-26T05:10:19Z</time>
      </trkpt>
      <trkpt lat="46.02109" lon="4.56447">
        <ele>568</ele>
        <time>2022-06-26T05:10:20Z</time>
      </trkpt>
      <trkpt lat="46.02113" lon="4.56439">
        <ele>567.8</ele>
        <time>2022-06-26T05:10:21Z</time>
      </trkpt>
      <trkpt lat="46.02118" lon="4.56431">
        <ele>567.4</ele>
        <time>2022-06-26T05:10:22Z</time>
      </trkpt>
      <trkpt lat="46.02122" lon="4.56424">
        <ele>567</ele>
        <time>2022-06-26T05:10:23Z</time>
      </trkpt>
      <trkpt lat="46.02126" lon="4.56416">
        <ele>566.8</ele>
        <time>2022-06-26T05:10:24Z</time>
      </trkpt>
      <trkpt lat="46.02131" lon="4.56408">
        <ele>566.4</ele>
        <time>2022-06-26T05:10:25Z</time>
      </trkpt>
      <trkpt lat="46.02135" lon="4.56401">
        <ele>566</ele>
        <time>2022-06-26T05:10:26Z</time>
      </trkpt>
      <trkpt lat="46.0214" lon="4.56393">
        <ele>566</ele>
        <time>2022-06-26T05:10:27Z</time>
      </trkpt>
      <trkpt lat="46.02145" lon="4.56386">
        <ele>565.6</ele>
        <time>2022-06-26T05:10:28Z</time>
      </trkpt>
      <trkpt lat="46.0215" lon="4.56378">
        <ele>565.2</ele>
        <time>2022-06-26T05:10:29Z</time>
      </trkpt>
      <trkpt lat="46.02156" lon="4.5637">
        <ele>564.8</ele>
        <time>2022-06-26T05:10:30Z</time>
      </trkpt>
      <trkpt lat="46.02162" lon="4.56362">
        <ele>564.2</ele>
        <time>2022-06-26T05:10:31Z</time>
      </trkpt>
      <trkpt lat="46.02168" lon="4.56355">
        <ele>563.6</ele>
        <time>2022-06-26T05:10:32Z</time>
      </trkpt>
      <trkpt lat="46.02174" lon="4.56347">
        <ele>563</ele>
        <time>2022-06-26T05:10:33Z</time>
      </trkpt>
      <trkpt lat="46.0218" lon="4.56339">
        <ele>562.4</ele>
        <time>2022-06-26T05:10:34Z</time>
      </trkpt>
      <trkpt lat="46.02186" lon="4.56332">
        <ele>561.8</ele>
        <time>2022-06-26T05:10:35Z</time>
      </trkpt>
      <trkpt lat="46.02192" lon="4.56325">
        <ele>561.2</ele>
        <time>2022-06-26T05:10:36Z</time>
      </trkpt>
      <trkpt lat="46.02197" lon="4.56319">
        <ele>560.6</ele>
        <time>2022-06-26T05:10:37Z</time>
      </trkpt>
      <trkpt lat="46.02201" lon="4.56314">
        <ele>559.8</ele>
        <time>2022-06-26T05:10:38Z</time>
      </trkpt>
      <trkpt lat="46.02205" lon="4.56309">
        <ele>559.2</ele>
        <time>2022-06-26T05:10:39Z</time>
      </trkpt>
      <trkpt lat="46.02208" lon="4.56305">
        <ele>558.8</ele>
        <time>2022-06-26T05:10:40Z</time>
      </trkpt>
      <trkpt lat="46.02209" lon="4.563">
        <ele>558.2</ele>
        <time>2022-06-26T05:10:41Z</time>
      </trkpt>
      <trkpt lat="46.02209" lon="4.56294">
        <ele>557.8</ele>
        <time>2022-06-26T05:10:42Z</time>
      </trkpt>
      <trkpt lat="46.02207" lon="4.56288">
        <ele>557.4</ele>
        <time>2022-06-26T05:10:43Z</time>
      </trkpt>
      <trkpt lat="46.02204" lon="4.56283">
        <ele>557</ele>
        <time>2022-06-26T05:10:44Z</time>
      </trkpt>
      <trkpt lat="46.022" lon="4.56279">
        <ele>556.6</ele>
        <time>2022-06-26T05:10:45Z</time>
      </trkpt>
      <trkpt lat="46.02196" lon="4.56277">
        <ele>556.4</ele>
        <time>2022-06-26T05:10:46Z</time>
      </trkpt>
      <trkpt lat="46.02192" lon="4.56274">
        <ele>556.4</ele>
        <time>2022-06-26T05:10:47Z</time>
      </trkpt>
      <trkpt lat="46.02188" lon="4.56272">
        <ele>556.2</ele>
        <time>2022-06-26T05:10:48Z</time>
      </trkpt>
      <trkpt lat="46.02185" lon="4.5627">
        <ele>556.2</ele>
        <time>2022-06-26T05:10:49Z</time>
      </trkpt>
      <trkpt lat="46.02182" lon="4.56268">
        <ele>556.2</ele>
        <time>2022-06-26T05:10:50Z</time>
      </trkpt>
      <trkpt lat="46.02179" lon="4.56266">
        <ele>556.2</ele>
        <time>2022-06-26T05:10:51Z</time>
      </trkpt>
      <trkpt lat="46.02175" lon="4.56264">
        <ele>556.2</ele>
        <time>2022-06-26T05:10:52Z</time>
      </trkpt>
      <trkpt lat="46.02171" lon="4.56262">
        <ele>556.2</ele>
        <time>2022-06-26T05:10:53Z</time>
      </trkpt>
      <trkpt lat="46.02167" lon="4.5626">
        <ele>556.2</ele>
        <time>2022-06-26T05:10:54Z</time>
      </trkpt>
      <trkpt lat="46.02162" lon="4.56259">
        <ele>556.2</ele>
        <time>2022-06-26T05:10:55Z</time>
      </trkpt>
      <trkpt lat="46.02158" lon="4.56258">
        <ele>556.2</ele>
        <time>2022-06-26T05:10:56Z</time>
      </trkpt>
      <trkpt lat="46.02152" lon="4.56258">
        <ele>556.2</ele>
        <time>2022-06-26T05:10:57Z</time>
      </trkpt>
      <trkpt lat="46.02147" lon="4.56257">
        <ele>556.2</ele>
        <time>2022-06-26T05:10:58Z</time>
      </trkpt>
      <trkpt lat="46.02141" lon="4.56256">
        <ele>555.8</ele>
        <time>2022-06-26T05:10:59Z</time>
      </trkpt>
      <trkpt lat="46.02136" lon="4.56256">
        <ele>555.8</ele>
        <time>2022-06-26T05:11:00Z</time>
      </trkpt>
      <trkpt lat="46.02131" lon="4.56254">
        <ele>555.4</ele>
        <time>2022-06-26T05:11:01Z</time>
      </trkpt>
      <trkpt lat="46.02126" lon="4.56253">
        <ele>555.4</ele>
        <time>2022-06-26T05:11:02Z</time>
      </trkpt>
      <trkpt lat="46.02121" lon="4.5625">
        <ele>555</ele>
        <time>2022-06-26T05:11:03Z</time>
      </trkpt>
      <trkpt lat="46.02117" lon="4.56247">
        <ele>555</ele>
        <time>2022-06-26T05:11:04Z</time>
      </trkpt>
      <trkpt lat="46.02113" lon="4.56244">
        <ele>554.4</ele>
        <time>2022-06-26T05:11:05Z</time>
      </trkpt>
      <trkpt lat="46.02108" lon="4.56241">
        <ele>554</ele>
        <time>2022-06-26T05:11:06Z</time>
      </trkpt>
      <trkpt lat="46.02104" lon="4.56237">
        <ele>553.6</ele>
        <time>2022-06-26T05:11:07Z</time>
      </trkpt>
      <trkpt lat="46.021" lon="4.56234">
        <ele>553</ele>
        <time>2022-06-26T05:11:08Z</time>
      </trkpt>
      <trkpt lat="46.02097" lon="4.56232">
        <ele>552.4</ele>
        <time>2022-06-26T05:11:09Z</time>
      </trkpt>
      <trkpt lat="46.02094" lon="4.56229">
        <ele>551.8</ele>
        <time>2022-06-26T05:11:10Z</time>
      </trkpt>
      <trkpt lat="46.02093" lon="4.56228">
        <ele>551.4</ele>
        <time>2022-06-26T05:11:11Z</time>
      </trkpt>
      <trkpt lat="46.02092" lon="4.56227">
        <ele>551</ele>
        <time>2022-06-26T05:11:12Z</time>
      </trkpt>
      <trkpt lat="46.02091" lon="4.56227">
        <ele>550.6</ele>
        <time>2022-06-26T05:11:13Z</time>
      </trkpt>
      <trkpt lat="46.02087" lon="4.56225">
        <ele>549.8</ele>
        <time>2022-06-26T05:11:35Z</time>
      </trkpt>
      <trkpt lat="46.02085" lon="4.56224">
        <ele>549.8</ele>
        <time>2022-06-26T05:11:36Z</time>
      </trkpt>
      <trkpt lat="46.02082" lon="4.56224">
        <ele>549.8</ele>
        <time>2022-06-26T05:11:37Z</time>
      </trkpt>
      <trkpt lat="46.0208" lon="4.56223">
        <ele>549.8</ele>
        <time>2022-06-26T05:11:38Z</time>
      </trkpt>
      <trkpt lat="46.02077" lon="4.56222">
        <ele>549.8</ele>
        <time>2022-06-26T05:11:39Z</time>
      </trkpt>
      <trkpt lat="46.02074" lon="4.56223">
        <ele>549.8</ele>
        <time>2022-06-26T05:11:40Z</time>
      </trkpt>
      <trkpt lat="46.02071" lon="4.56225">
        <ele>549.8</ele>
        <time>2022-06-26T05:11:41Z</time>
      </trkpt>
      <trkpt lat="46.02068" lon="4.56228">
        <ele>549.8</ele>
        <time>2022-06-26T05:11:42Z</time>
      </trkpt>
      <trkpt lat="46.02065" lon="4.56232">
        <ele>549.6</ele>
        <time>2022-06-26T05:11:43Z</time>
      </trkpt>
      <trkpt lat="46.02061" lon="4.56238">
        <ele>549.4</ele>
        <time>2022-06-26T05:11:44Z</time>
      </trkpt>
      <trkpt lat="46.02057" lon="4.56244">
        <ele>549</ele>
        <time>2022-06-26T05:11:45Z</time>
      </trkpt>
      <trkpt lat="46.02052" lon="4.56251">
        <ele>548.6</ele>
        <time>2022-06-26T05:11:46Z</time>
      </trkpt>
      <trkpt lat="46.02047" lon="4.56258">
        <ele>548.2</ele>
        <time>2022-06-26T05:11:47Z</time>
      </trkpt>
      <trkpt lat="46.02043" lon="4.56265">
        <ele>547.8</ele>
        <time>2022-06-26T05:11:48Z</time>
      </trkpt>
      <trkpt lat="46.02039" lon="4.56272">
        <ele>547.2</ele>
        <time>2022-06-26T05:11:49Z</time>
      </trkpt>
      <trkpt lat="46.02035" lon="4.56279">
        <ele>546.8</ele>
        <time>2022-06-26T05:11:50Z</time>
      </trkpt>
      <trkpt lat="46.0203" lon="4.56286">
        <ele>546.4</ele>
        <time>2022-06-26T05:11:51Z</time>
      </trkpt>
      <trkpt lat="46.02026" lon="4.56292">
        <ele>546</ele>
        <time>2022-06-26T05:11:52Z</time>
      </trkpt>
      <trkpt lat="46.02022" lon="4.56298">
        <ele>545.4</ele>
        <time>2022-06-26T05:11:53Z</time>
      </trkpt>
      <trkpt lat="46.02018" lon="4.56303">
        <ele>545</ele>
        <time>2022-06-26T05:11:54Z</time>
      </trkpt>
      <trkpt lat="46.02013" lon="4.56308">
        <ele>544.4</ele>
        <time>2022-06-26T05:11:55Z</time>
      </trkpt>
      <trkpt lat="46.02008" lon="4.56312">
        <ele>543.8</ele>
        <time>2022-06-26T05:11:56Z</time>
      </trkpt>
      <trkpt lat="46.02003" lon="4.56315">
        <ele>543.2</ele>
        <time>2022-06-26T05:11:57Z</time>
      </trkpt>
      <trkpt lat="46.01998" lon="4.56317">
        <ele>542.6</ele>
        <time>2022-06-26T05:11:58Z</time>
      </trkpt>
      <trkpt lat="46.01992" lon="4.56319">
        <ele>542</ele>
        <time>2022-06-26T05:11:59Z</time>
      </trkpt>
      <trkpt lat="46.01986" lon="4.56321">
        <ele>541.4</ele>
        <time>2022-06-26T05:12:00Z</time>
      </trkpt>
      <trkpt lat="46.0198" lon="4.56323">
        <ele>540.6</ele>
        <time>2022-06-26T05:12:01Z</time>
      </trkpt>
      <trkpt lat="46.01974" lon="4.56324">
        <ele>540</ele>
        <time>2022-06-26T05:12:02Z</time>
      </trkpt>
      <trkpt lat="46.01968" lon="4.56326">
        <ele>539.2</ele>
        <time>2022-06-26T05:12:03Z</time>
      </trkpt>
      <trkpt lat="46.01961" lon="4.56328">
        <ele>538.6</ele>
        <time>2022-06-26T05:12:04Z</time>
      </trkpt>
      <trkpt lat="46.01956" lon="4.56331">
        <ele>537.6</ele>
        <time>2022-06-26T05:12:05Z</time>
      </trkpt>
      <trkpt lat="46.01951" lon="4.56333">
        <ele>536.8</ele>
        <time>2022-06-26T05:12:06Z</time>
      </trkpt>
      <trkpt lat="46.01947" lon="4.56336">
        <ele>536.2</ele>
        <time>2022-06-26T05:12:07Z</time>
      </trkpt>
      <trkpt lat="46.01944" lon="4.56339">
        <ele>535.4</ele>
        <time>2022-06-26T05:12:08Z</time>
      </trkpt>
      <trkpt lat="46.01941" lon="4.56342">
        <ele>534.8</ele>
        <time>2022-06-26T05:12:09Z</time>
      </trkpt>
      <trkpt lat="46.0194" lon="4.56347">
        <ele>534.2</ele>
        <time>2022-06-26T05:12:10Z</time>
      </trkpt>
      <trkpt lat="46.0194" lon="4.56352">
        <ele>533.6</ele>
        <time>2022-06-26T05:12:11Z</time>
      </trkpt>
      <trkpt lat="46.01941" lon="4.56356">
        <ele>533</ele>
        <time>2022-06-26T05:12:12Z</time>
      </trkpt>
      <trkpt lat="46.01945" lon="4.56361">
        <ele>532.4</ele>
        <time>2022-06-26T05:12:13Z</time>
      </trkpt>
      <trkpt lat="46.0195" lon="4.56365">
        <ele>531.6</ele>
        <time>2022-06-26T05:12:14Z</time>
      </trkpt>
      <trkpt lat="46.01955" lon="4.56368">
        <ele>531.2</ele>
        <time>2022-06-26T05:12:15Z</time>
      </trkpt>
      <trkpt lat="46.0196" lon="4.56371">
        <ele>530.6</ele>
        <time>2022-06-26T05:12:16Z</time>
      </trkpt>
      <trkpt lat="46.01964" lon="4.56374">
        <ele>530</ele>
        <time>2022-06-26T05:12:17Z</time>
      </trkpt>
      <trkpt lat="46.01967" lon="4.56377">
        <ele>529.4</ele>
        <time>2022-06-26T05:12:18Z</time>
      </trkpt>
      <trkpt lat="46.01968" lon="4.56382">
        <ele>528.8</ele>
        <time>2022-06-26T05:12:19Z</time>
      </trkpt>
      <trkpt lat="46.01968" lon="4.56387">
        <ele>528.4</ele>
        <time>2022-06-26T05:12:20Z</time>
      </trkpt>
      <trkpt lat="46.01967" lon="4.56392">
        <ele>528</ele>
        <time>2022-06-26T05:12:21Z</time>
      </trkpt>
      <trkpt lat="46.01964" lon="4.56396">
        <ele>527.6</ele>
        <time>2022-06-26T05:12:23Z</time>
      </trkpt>
      <trkpt lat="46.01961" lon="4.56398">
        <ele>527.6</ele>
        <time>2022-06-26T05:12:24Z</time>
      </trkpt>
      <trkpt lat="46.01958" lon="4.56401">
        <ele>527.4</ele>
        <time>2022-06-26T05:12:25Z</time>
      </trkpt>
      <trkpt lat="46.01955" lon="4.56403">
        <ele>527.4</ele>
        <time>2022-06-26T05:12:26Z</time>
      </trkpt>
      <trkpt lat="46.01952" lon="4.56406">
        <ele>527.4</ele>
        <time>2022-06-26T05:12:27Z</time>
      </trkpt>
      <trkpt lat="46.01949" lon="4.56408">
        <ele>527.4</ele>
        <time>2022-06-26T05:12:28Z</time>
      </trkpt>
      <trkpt lat="46.01945" lon="4.56412">
        <ele>527.4</ele>
        <time>2022-06-26T05:12:29Z</time>
      </trkpt>
      <trkpt lat="46.01941" lon="4.56415">
        <ele>527.2</ele>
        <time>2022-06-26T05:12:30Z</time>
      </trkpt>
      <trkpt lat="46.01937" lon="4.56419">
        <ele>526.8</ele>
        <time>2022-06-26T05:12:31Z</time>
      </trkpt>
      <trkpt lat="46.01932" lon="4.56423">
        <ele>526.4</ele>
        <time>2022-06-26T05:12:32Z</time>
      </trkpt>
      <trkpt lat="46.01927" lon="4.56427">
        <ele>525.8</ele>
        <time>2022-06-26T05:12:33Z</time>
      </trkpt>
      <trkpt lat="46.01922" lon="4.5643">
        <ele>525.2</ele>
        <time>2022-06-26T05:12:34Z</time>
      </trkpt>
      <trkpt lat="46.01917" lon="4.56434">
        <ele>524.6</ele>
        <time>2022-06-26T05:12:35Z</time>
      </trkpt>
      <trkpt lat="46.01912" lon="4.56438">
        <ele>523.8</ele>
        <time>2022-06-26T05:12:36Z</time>
      </trkpt>
      <trkpt lat="46.01907" lon="4.56442">
        <ele>523</ele>
        <time>2022-06-26T05:12:37Z</time>
      </trkpt>
      <trkpt lat="46.01903" lon="4.56446">
        <ele>522.2</ele>
        <time>2022-06-26T05:12:38Z</time>
      </trkpt>
      <trkpt lat="46.01898" lon="4.5645">
        <ele>521.4</ele>
        <time>2022-06-26T05:12:39Z</time>
      </trkpt>
      <trkpt lat="46.01893" lon="4.56455">
        <ele>520.6</ele>
        <time>2022-06-26T05:12:40Z</time>
      </trkpt>
      <trkpt lat="46.01888" lon="4.56459">
        <ele>519.8</ele>
        <time>2022-06-26T05:12:41Z</time>
      </trkpt>
      <trkpt lat="46.01883" lon="4.56464">
        <ele>519</ele>
        <time>2022-06-26T05:12:42Z</time>
      </trkpt>
      <trkpt lat="46.01878" lon="4.56469">
        <ele>518.2</ele>
        <time>2022-06-26T05:12:43Z</time>
      </trkpt>
      <trkpt lat="46.01873" lon="4.56474">
        <ele>517.4</ele>
        <time>2022-06-26T05:12:44Z</time>
      </trkpt>
      <trkpt lat="46.01868" lon="4.56481">
        <ele>516.6</ele>
        <time>2022-06-26T05:12:45Z</time>
      </trkpt>
      <trkpt lat="46.01863" lon="4.56488">
        <ele>514.8</ele>
        <time>2022-06-26T05:12:46Z</time>
      </trkpt>
      <trkpt lat="46.01858" lon="4.56496">
        <ele>514</ele>
        <time>2022-06-26T05:12:47Z</time>
      </trkpt>
      <trkpt lat="46.01853" lon="4.56502">
        <ele>513.2</ele>
        <time>2022-06-26T05:12:48Z</time>
      </trkpt>
      <trkpt lat="46.01849" lon="4.56508">
        <ele>512.4</ele>
        <time>2022-06-26T05:12:49Z</time>
      </trkpt>
      <trkpt lat="46.01844" lon="4.56515">
        <ele>511.6</ele>
        <time>2022-06-26T05:12:50Z</time>
      </trkpt>
      <trkpt lat="46.01839" lon="4.56523">
        <ele>510.8</ele>
        <time>2022-06-26T05:12:51Z</time>
      </trkpt>
      <trkpt lat="46.01835" lon="4.5653">
        <ele>510</ele>
        <time>2022-06-26T05:12:52Z</time>
      </trkpt>
      <trkpt lat="46.0183" lon="4.56537">
        <ele>509.2</ele>
        <time>2022-06-26T05:12:53Z</time>
      </trkpt>
      <trkpt lat="46.01825" lon="4.56544">
        <ele>508.4</ele>
        <time>2022-06-26T05:12:54Z</time>
      </trkpt>
      <trkpt lat="46.01821" lon="4.56551">
        <ele>507.8</ele>
        <time>2022-06-26T05:12:55Z</time>
      </trkpt>
      <trkpt lat="46.01818" lon="4.56558">
        <ele>507.4</ele>
        <time>2022-06-26T05:12:56Z</time>
      </trkpt>
      <trkpt lat="46.01815" lon="4.56566">
        <ele>507</ele>
        <time>2022-06-26T05:12:57Z</time>
      </trkpt>
      <trkpt lat="46.01814" lon="4.56574">
        <ele>506.6</ele>
        <time>2022-06-26T05:12:58Z</time>
      </trkpt>
      <trkpt lat="46.01812" lon="4.56582">
        <ele>506</ele>
        <time>2022-06-26T05:12:59Z</time>
      </trkpt>
      <trkpt lat="46.01812" lon="4.56592">
        <ele>505.6</ele>
        <time>2022-06-26T05:13:00Z</time>
      </trkpt>
      <trkpt lat="46.01813" lon="4.56602">
        <ele>505</ele>
        <time>2022-06-26T05:13:01Z</time>
      </trkpt>
      <trkpt lat="46.01813" lon="4.56612">
        <ele>504.4</ele>
        <time>2022-06-26T05:13:02Z</time>
      </trkpt>
      <trkpt lat="46.01813" lon="4.56624">
        <ele>503.8</ele>
        <time>2022-06-26T05:13:03Z</time>
      </trkpt>
      <trkpt lat="46.01812" lon="4.56636">
        <ele>503.4</ele>
        <time>2022-06-26T05:13:04Z</time>
      </trkpt>
      <trkpt lat="46.01811" lon="4.56649">
        <ele>502.8</ele>
        <time>2022-06-26T05:13:05Z</time>
      </trkpt>
      <trkpt lat="46.0181" lon="4.56663">
        <ele>502.2</ele>
        <time>2022-06-26T05:13:06Z</time>
      </trkpt>
      <trkpt lat="46.01809" lon="4.56676">
        <ele>501.6</ele>
        <time>2022-06-26T05:13:07Z</time>
      </trkpt>
      <trkpt lat="46.01808" lon="4.5669">
        <ele>501.2</ele>
        <time>2022-06-26T05:13:08Z</time>
      </trkpt>
      <trkpt lat="46.01807" lon="4.56704">
        <ele>500.6</ele>
        <time>2022-06-26T05:13:09Z</time>
      </trkpt>
      <trkpt lat="46.01806" lon="4.56717">
        <ele>500</ele>
        <time>2022-06-26T05:13:10Z</time>
      </trkpt>
      <trkpt lat="46.01806" lon="4.5673">
        <ele>499.6</ele>
        <time>2022-06-26T05:13:11Z</time>
      </trkpt>
      <trkpt lat="46.01806" lon="4.56743">
        <ele>499</ele>
        <time>2022-06-26T05:13:12Z</time>
      </trkpt>
      <trkpt lat="46.01806" lon="4.56755">
        <ele>498.6</ele>
        <time>2022-06-26T05:13:13Z</time>
      </trkpt>
      <trkpt lat="46.01807" lon="4.56766">
        <ele>498</ele>
        <time>2022-06-26T05:13:14Z</time>
      </trkpt>
      <trkpt lat="46.01807" lon="4.56778">
        <ele>497.4</ele>
        <time>2022-06-26T05:13:15Z</time>
      </trkpt>
      <trkpt lat="46.01806" lon="4.56791">
        <ele>497</ele>
        <time>2022-06-26T05:13:16Z</time>
      </trkpt>
      <trkpt lat="46.01805" lon="4.56804">
        <ele>496.4</ele>
        <time>2022-06-26T05:13:17Z</time>
      </trkpt>
      <trkpt lat="46.01804" lon="4.56817">
        <ele>495.8</ele>
        <time>2022-06-26T05:13:18Z</time>
      </trkpt>
      <trkpt lat="46.01803" lon="4.56831">
        <ele>495.4</ele>
        <time>2022-06-26T05:13:19Z</time>
      </trkpt>
      <trkpt lat="46.01802" lon="4.56843">
        <ele>494.8</ele>
        <time>2022-06-26T05:13:20Z</time>
      </trkpt>
      <trkpt lat="46.01801" lon="4.56856">
        <ele>494.2</ele>
        <time>2022-06-26T05:13:21Z</time>
      </trkpt>
      <trkpt lat="46.018" lon="4.56868">
        <ele>493.8</ele>
        <time>2022-06-26T05:13:22Z</time>
      </trkpt>
      <trkpt lat="46.01799" lon="4.56879">
        <ele>493.2</ele>
        <time>2022-06-26T05:13:23Z</time>
      </trkpt>
      <trkpt lat="46.01799" lon="4.5689">
        <ele>492.6</ele>
        <time>2022-06-26T05:13:24Z</time>
      </trkpt>
      <trkpt lat="46.01798" lon="4.56899">
        <ele>492</ele>
        <time>2022-06-26T05:13:25Z</time>
      </trkpt>
      <trkpt lat="46.01799" lon="4.56909">
        <ele>491.2</ele>
        <time>2022-06-26T05:13:26Z</time>
      </trkpt>
      <trkpt lat="46.018" lon="4.56919">
        <ele>490.6</ele>
        <time>2022-06-26T05:13:27Z</time>
      </trkpt>
      <trkpt lat="46.01801" lon="4.56928">
        <ele>489.8</ele>
        <time>2022-06-26T05:13:28Z</time>
      </trkpt>
      <trkpt lat="46.01803" lon="4.56936">
        <ele>489</ele>
        <time>2022-06-26T05:13:29Z</time>
      </trkpt>
      <trkpt lat="46.01804" lon="4.56944">
        <ele>488.4</ele>
        <time>2022-06-26T05:13:30Z</time>
      </trkpt>
      <trkpt lat="46.01804" lon="4.56951">
        <ele>487.6</ele>
        <time>2022-06-26T05:13:31Z</time>
      </trkpt>
      <trkpt lat="46.01802" lon="4.56957">
        <ele>487.2</ele>
        <time>2022-06-26T05:13:32Z</time>
      </trkpt>
      <trkpt lat="46.01799" lon="4.56963">
        <ele>486.6</ele>
        <time>2022-06-26T05:13:33Z</time>
      </trkpt>
      <trkpt lat="46.01795" lon="4.56969">
        <ele>486.2</ele>
        <time>2022-06-26T05:13:34Z</time>
      </trkpt>
      <trkpt lat="46.01791" lon="4.56974">
        <ele>485.8</ele>
        <time>2022-06-26T05:13:35Z</time>
      </trkpt>
      <trkpt lat="46.01786" lon="4.5698">
        <ele>485.4</ele>
        <time>2022-06-26T05:13:36Z</time>
      </trkpt>
      <trkpt lat="46.01782" lon="4.56987">
        <ele>484.8</ele>
        <time>2022-06-26T05:13:37Z</time>
      </trkpt>
      <trkpt lat="46.01778" lon="4.56995">
        <ele>484.4</ele>
        <time>2022-06-26T05:13:38Z</time>
      </trkpt>
      <trkpt lat="46.01774" lon="4.57004">
        <ele>484</ele>
        <time>2022-06-26T05:13:39Z</time>
      </trkpt>
      <trkpt lat="46.01771" lon="4.57013">
        <ele>483.6</ele>
        <time>2022-06-26T05:13:40Z</time>
      </trkpt>
      <trkpt lat="46.01767" lon="4.57022">
        <ele>483</ele>
        <time>2022-06-26T05:13:41Z</time>
      </trkpt>
      <trkpt lat="46.01763" lon="4.57032">
        <ele>482.6</ele>
        <time>2022-06-26T05:13:42Z</time>
      </trkpt>
      <trkpt lat="46.01759" lon="4.57041">
        <ele>482.2</ele>
        <time>2022-06-26T05:13:43Z</time>
      </trkpt>
      <trkpt lat="46.01754" lon="4.57051">
        <ele>481.8</ele>
        <time>2022-06-26T05:13:44Z</time>
      </trkpt>
      <trkpt lat="46.0175" lon="4.5706">
        <ele>481.4</ele>
        <time>2022-06-26T05:13:45Z</time>
      </trkpt>
      <trkpt lat="46.01745" lon="4.5707">
        <ele>481</ele>
        <time>2022-06-26T05:13:46Z</time>
      </trkpt>
      <trkpt lat="46.01741" lon="4.57079">
        <ele>480.4</ele>
        <time>2022-06-26T05:13:47Z</time>
      </trkpt>
      <trkpt lat="46.01736" lon="4.57089">
        <ele>480</ele>
        <time>2022-06-26T05:13:48Z</time>
      </trkpt>
      <trkpt lat="46.01732" lon="4.57098">
        <ele>479.4</ele>
        <time>2022-06-26T05:13:49Z</time>
      </trkpt>
      <trkpt lat="46.01728" lon="4.57106">
        <ele>478.8</ele>
        <time>2022-06-26T05:13:50Z</time>
      </trkpt>
      <trkpt lat="46.01723" lon="4.57114">
        <ele>478.2</ele>
        <time>2022-06-26T05:13:51Z</time>
      </trkpt>
      <trkpt lat="46.01719" lon="4.57122">
        <ele>477.6</ele>
        <time>2022-06-26T05:13:52Z</time>
      </trkpt>
      <trkpt lat="46.01715" lon="4.57129">
        <ele>477.2</ele>
        <time>2022-06-26T05:13:53Z</time>
      </trkpt>
      <trkpt lat="46.01711" lon="4.57135">
        <ele>476.6</ele>
        <time>2022-06-26T05:13:54Z</time>
      </trkpt>
      <trkpt lat="46.01707" lon="4.57142">
        <ele>476.2</ele>
        <time>2022-06-26T05:13:55Z</time>
      </trkpt>
      <trkpt lat="46.01702" lon="4.57149">
        <ele>475.8</ele>
        <time>2022-06-26T05:13:56Z</time>
      </trkpt>
      <trkpt lat="46.01698" lon="4.57156">
        <ele>475.4</ele>
        <time>2022-06-26T05:13:57Z</time>
      </trkpt>
      <trkpt lat="46.01693" lon="4.57163">
        <ele>475</ele>
        <time>2022-06-26T05:13:58Z</time>
      </trkpt>
      <trkpt lat="46.01688" lon="4.57169">
        <ele>474.6</ele>
        <time>2022-06-26T05:13:59Z</time>
      </trkpt>
      <trkpt lat="46.01683" lon="4.57176">
        <ele>474.2</ele>
        <time>2022-06-26T05:14:00Z</time>
      </trkpt>
      <trkpt lat="46.01678" lon="4.57183">
        <ele>473.8</ele>
        <time>2022-06-26T05:14:01Z</time>
      </trkpt>
      <trkpt lat="46.01673" lon="4.57191">
        <ele>473.6</ele>
        <time>2022-06-26T05:14:02Z</time>
      </trkpt>
      <trkpt lat="46.01669" lon="4.572">
        <ele>473.4</ele>
        <time>2022-06-26T05:14:03Z</time>
      </trkpt>
      <trkpt lat="46.01665" lon="4.57208">
        <ele>473</ele>
        <time>2022-06-26T05:14:04Z</time>
      </trkpt>
      <trkpt lat="46.0166" lon="4.57215">
        <ele>472.8</ele>
        <time>2022-06-26T05:14:05Z</time>
      </trkpt>
      <trkpt lat="46.01657" lon="4.57223">
        <ele>472.6</ele>
        <time>2022-06-26T05:14:06Z</time>
      </trkpt>
      <trkpt lat="46.01653" lon="4.57229">
        <ele>472.4</ele>
        <time>2022-06-26T05:14:07Z</time>
      </trkpt>
      <trkpt lat="46.01649" lon="4.57235">
        <ele>472.2</ele>
        <time>2022-06-26T05:14:08Z</time>
      </trkpt>
      <trkpt lat="46.01645" lon="4.5724">
        <ele>471.8</ele>
        <time>2022-06-26T05:14:09Z</time>
      </trkpt>
      <trkpt lat="46.01641" lon="4.57244">
        <ele>471.4</ele>
        <time>2022-06-26T05:14:10Z</time>
      </trkpt>
      <trkpt lat="46.01636" lon="4.57247">
        <ele>471</ele>
        <time>2022-06-26T05:14:11Z</time>
      </trkpt>
      <trkpt lat="46.01631" lon="4.5725">
        <ele>470.6</ele>
        <time>2022-06-26T05:14:12Z</time>
      </trkpt>
      <trkpt lat="46.01627" lon="4.57254">
        <ele>470</ele>
        <time>2022-06-26T05:14:13Z</time>
      </trkpt>
      <trkpt lat="46.01622" lon="4.57257">
        <ele>469.4</ele>
        <time>2022-06-26T05:14:14Z</time>
      </trkpt>
      <trkpt lat="46.01616" lon="4.5726">
        <ele>469</ele>
        <time>2022-06-26T05:14:15Z</time>
      </trkpt>
      <trkpt lat="46.01611" lon="4.57264">
        <ele>468.4</ele>
        <time>2022-06-26T05:14:16Z</time>
      </trkpt>
      <trkpt lat="46.01605" lon="4.57269">
        <ele>468</ele>
        <time>2022-06-26T05:14:17Z</time>
      </trkpt>
      <trkpt lat="46.01599" lon="4.57273">
        <ele>467.4</ele>
        <time>2022-06-26T05:14:18Z</time>
      </trkpt>
      <trkpt lat="46.01594" lon="4.57277">
        <ele>466.8</ele>
        <time>2022-06-26T05:14:19Z</time>
      </trkpt>
      <trkpt lat="46.01587" lon="4.57283">
        <ele>466.4</ele>
        <time>2022-06-26T05:14:20Z</time>
      </trkpt>
      <trkpt lat="46.0158" lon="4.57288">
        <ele>465.8</ele>
        <time>2022-06-26T05:14:21Z</time>
      </trkpt>
      <trkpt lat="46.01575" lon="4.57294">
        <ele>465.4</ele>
        <time>2022-06-26T05:14:22Z</time>
      </trkpt>
      <trkpt lat="46.01569" lon="4.57301">
        <ele>465</ele>
        <time>2022-06-26T05:14:23Z</time>
      </trkpt>
      <trkpt lat="46.01564" lon="4.57306">
        <ele>464.4</ele>
        <time>2022-06-26T05:14:24Z</time>
      </trkpt>
      <trkpt lat="46.01558" lon="4.57312">
        <ele>464.2</ele>
        <time>2022-06-26T05:14:25Z</time>
      </trkpt>
      <trkpt lat="46.01553" lon="4.57318">
        <ele>463.8</ele>
        <time>2022-06-26T05:14:26Z</time>
      </trkpt>
      <trkpt lat="46.01548" lon="4.57325">
        <ele>463.4</ele>
        <time>2022-06-26T05:14:27Z</time>
      </trkpt>
      <trkpt lat="46.01543" lon="4.57332">
        <ele>463.2</ele>
        <time>2022-06-26T05:14:28Z</time>
      </trkpt>
      <trkpt lat="46.01538" lon="4.5734">
        <ele>462.8</ele>
        <time>2022-06-26T05:14:29Z</time>
      </trkpt>
      <trkpt lat="46.01534" lon="4.57348">
        <ele>462.4</ele>
        <time>2022-06-26T05:14:30Z</time>
      </trkpt>
      <trkpt lat="46.01529" lon="4.57357">
        <ele>462</ele>
        <time>2022-06-26T05:14:31Z</time>
      </trkpt>
      <trkpt lat="46.01524" lon="4.57366">
        <ele>461.8</ele>
        <time>2022-06-26T05:14:32Z</time>
      </trkpt>
      <trkpt lat="46.0152" lon="4.57375">
        <ele>461.4</ele>
        <time>2022-06-26T05:14:33Z</time>
      </trkpt>
      <trkpt lat="46.01516" lon="4.57383">
        <ele>461</ele>
        <time>2022-06-26T05:14:34Z</time>
      </trkpt>
      <trkpt lat="46.01512" lon="4.57391">
        <ele>460.6</ele>
        <time>2022-06-26T05:14:35Z</time>
      </trkpt>
      <trkpt lat="46.01507" lon="4.57398">
        <ele>460.4</ele>
        <time>2022-06-26T05:14:36Z</time>
      </trkpt>
      <trkpt lat="46.01502" lon="4.57405">
        <ele>460</ele>
        <time>2022-06-26T05:14:37Z</time>
      </trkpt>
      <trkpt lat="46.01497" lon="4.57412">
        <ele>459.6</ele>
        <time>2022-06-26T05:14:38Z</time>
      </trkpt>
      <trkpt lat="46.01491" lon="4.57419">
        <ele>459</ele>
        <time>2022-06-26T05:14:39Z</time>
      </trkpt>
      <trkpt lat="46.01486" lon="4.57426">
        <ele>458.6</ele>
        <time>2022-06-26T05:14:40Z</time>
      </trkpt>
      <trkpt lat="46.0148" lon="4.57433">
        <ele>458.2</ele>
        <time>2022-06-26T05:14:41Z</time>
      </trkpt>
      <trkpt lat="46.01475" lon="4.5744">
        <ele>457.8</ele>
        <time>2022-06-26T05:14:42Z</time>
      </trkpt>
      <trkpt lat="46.0147" lon="4.57446">
        <ele>457.4</ele>
        <time>2022-06-26T05:14:43Z</time>
      </trkpt>
      <trkpt lat="46.01466" lon="4.57453">
        <ele>457</ele>
        <time>2022-06-26T05:14:44Z</time>
      </trkpt>
      <trkpt lat="46.01461" lon="4.5746">
        <ele>456.6</ele>
        <time>2022-06-26T05:14:45Z</time>
      </trkpt>
      <trkpt lat="46.01456" lon="4.57466">
        <ele>456.2</ele>
        <time>2022-06-26T05:14:46Z</time>
      </trkpt>
      <trkpt lat="46.0145" lon="4.57473">
        <ele>455.8</ele>
        <time>2022-06-26T05:14:47Z</time>
      </trkpt>
      <trkpt lat="46.01444" lon="4.57479">
        <ele>455.6</ele>
        <time>2022-06-26T05:14:48Z</time>
      </trkpt>
      <trkpt lat="46.01438" lon="4.57485">
        <ele>455.2</ele>
        <time>2022-06-26T05:14:49Z</time>
      </trkpt>
      <trkpt lat="46.01433" lon="4.5749">
        <ele>455.2</ele>
        <time>2022-06-26T05:14:50Z</time>
      </trkpt>
      <trkpt lat="46.01428" lon="4.57496">
        <ele>454.6</ele>
        <time>2022-06-26T05:14:51Z</time>
      </trkpt>
      <trkpt lat="46.01423" lon="4.57501">
        <ele>454.4</ele>
        <time>2022-06-26T05:14:52Z</time>
      </trkpt>
      <trkpt lat="46.01418" lon="4.57506">
        <ele>454</ele>
        <time>2022-06-26T05:14:53Z</time>
      </trkpt>
      <trkpt lat="46.01413" lon="4.5751">
        <ele>453.6</ele>
        <time>2022-06-26T05:14:54Z</time>
      </trkpt>
      <trkpt lat="46.01408" lon="4.57514">
        <ele>453.4</ele>
        <time>2022-06-26T05:14:55Z</time>
      </trkpt>
      <trkpt lat="46.01403" lon="4.57518">
        <ele>453</ele>
        <time>2022-06-26T05:14:56Z</time>
      </trkpt>
      <trkpt lat="46.01398" lon="4.57522">
        <ele>452.8</ele>
        <time>2022-06-26T05:14:57Z</time>
      </trkpt>
      <trkpt lat="46.01393" lon="4.57527">
        <ele>452.4</ele>
        <time>2022-06-26T05:14:58Z</time>
      </trkpt>
      <trkpt lat="46.01388" lon="4.57532">
        <ele>452.2</ele>
        <time>2022-06-26T05:14:59Z</time>
      </trkpt>
      <trkpt lat="46.01383" lon="4.57537">
        <ele>451.8</ele>
        <time>2022-06-26T05:15:00Z</time>
      </trkpt>
      <trkpt lat="46.01379" lon="4.57543">
        <ele>451.4</ele>
        <time>2022-06-26T05:15:01Z</time>
      </trkpt>
      <trkpt lat="46.01374" lon="4.57548">
        <ele>451.4</ele>
        <time>2022-06-26T05:15:02Z</time>
      </trkpt>
      <trkpt lat="46.0137" lon="4.57555">
        <ele>450.8</ele>
        <time>2022-06-26T05:15:03Z</time>
      </trkpt>
      <trkpt lat="46.01367" lon="4.57561">
        <ele>450.6</ele>
        <time>2022-06-26T05:15:04Z</time>
      </trkpt>
      <trkpt lat="46.01362" lon="4.57567">
        <ele>450</ele>
        <time>2022-06-26T05:15:05Z</time>
      </trkpt>
      <trkpt lat="46.01358" lon="4.57573">
        <ele>449.8</ele>
        <time>2022-06-26T05:15:06Z</time>
      </trkpt>
      <trkpt lat="46.01354" lon="4.57581">
        <ele>449.6</ele>
        <time>2022-06-26T05:15:07Z</time>
      </trkpt>
      <trkpt lat="46.01349" lon="4.57588">
        <ele>449.4</ele>
        <time>2022-06-26T05:15:08Z</time>
      </trkpt>
      <trkpt lat="46.01345" lon="4.57597">
        <ele>448.8</ele>
        <time>2022-06-26T05:15:09Z</time>
      </trkpt>
      <trkpt lat="46.01341" lon="4.57605">
        <ele>448.4</ele>
        <time>2022-06-26T05:15:10Z</time>
      </trkpt>
      <trkpt lat="46.01337" lon="4.57613">
        <ele>448</ele>
        <time>2022-06-26T05:15:11Z</time>
      </trkpt>
      <trkpt lat="46.01332" lon="4.57621">
        <ele>447.8</ele>
        <time>2022-06-26T05:15:12Z</time>
      </trkpt>
      <trkpt lat="46.01328" lon="4.57629">
        <ele>447.4</ele>
        <time>2022-06-26T05:15:13Z</time>
      </trkpt>
      <trkpt lat="46.01325" lon="4.57637">
        <ele>447</ele>
        <time>2022-06-26T05:15:14Z</time>
      </trkpt>
      <trkpt lat="46.01322" lon="4.57644">
        <ele>446.6</ele>
        <time>2022-06-26T05:15:15Z</time>
      </trkpt>
      <trkpt lat="46.01319" lon="4.57652">
        <ele>446.4</ele>
        <time>2022-06-26T05:15:16Z</time>
      </trkpt>
      <trkpt lat="46.01315" lon="4.57658">
        <ele>446.2</ele>
        <time>2022-06-26T05:15:17Z</time>
      </trkpt>
      <trkpt lat="46.01312" lon="4.57664">
        <ele>446.2</ele>
        <time>2022-06-26T05:15:18Z</time>
      </trkpt>
      <trkpt lat="46.01308" lon="4.5767">
        <ele>445.6</ele>
        <time>2022-06-26T05:15:19Z</time>
      </trkpt>
      <trkpt lat="46.01304" lon="4.57677">
        <ele>445.4</ele>
        <time>2022-06-26T05:15:20Z</time>
      </trkpt>
      <trkpt lat="46.013" lon="4.57685">
        <ele>445.4</ele>
        <time>2022-06-26T05:15:21Z</time>
      </trkpt>
      <trkpt lat="46.01297" lon="4.57692">
        <ele>445</ele>
        <time>2022-06-26T05:15:22Z</time>
      </trkpt>
      <trkpt lat="46.01294" lon="4.57699">
        <ele>444.8</ele>
        <time>2022-06-26T05:15:23Z</time>
      </trkpt>
      <trkpt lat="46.01292" lon="4.57707">
        <ele>444.8</ele>
        <time>2022-06-26T05:15:24Z</time>
      </trkpt>
      <trkpt lat="46.01288" lon="4.57715">
        <ele>444.6</ele>
        <time>2022-06-26T05:15:25Z</time>
      </trkpt>
      <trkpt lat="46.01283" lon="4.57724">
        <ele>444.6</ele>
        <time>2022-06-26T05:15:26Z</time>
      </trkpt>
      <trkpt lat="46.01278" lon="4.57732">
        <ele>444.2</ele>
        <time>2022-06-26T05:15:27Z</time>
      </trkpt>
      <trkpt lat="46.01273" lon="4.5774">
        <ele>444</ele>
        <time>2022-06-26T05:15:28Z</time>
      </trkpt>
      <trkpt lat="46.01269" lon="4.57749">
        <ele>443.6</ele>
        <time>2022-06-26T05:15:29Z</time>
      </trkpt>
      <trkpt lat="46.01264" lon="4.57758">
        <ele>443.4</ele>
        <time>2022-06-26T05:15:30Z</time>
      </trkpt>
      <trkpt lat="46.01259" lon="4.57767">
        <ele>443.2</ele>
        <time>2022-06-26T05:15:31Z</time>
      </trkpt>
      <trkpt lat="46.01254" lon="4.57775">
        <ele>443.2</ele>
        <time>2022-06-26T05:15:32Z</time>
      </trkpt>
      <trkpt lat="46.01249" lon="4.57784">
        <ele>442.6</ele>
        <time>2022-06-26T05:15:33Z</time>
      </trkpt>
      <trkpt lat="46.01245" lon="4.57793">
        <ele>442.2</ele>
        <time>2022-06-26T05:15:34Z</time>
      </trkpt>
      <trkpt lat="46.0124" lon="4.57802">
        <ele>442</ele>
        <time>2022-06-26T05:15:35Z</time>
      </trkpt>
      <trkpt lat="46.01235" lon="4.5781">
        <ele>441.6</ele>
        <time>2022-06-26T05:15:36Z</time>
      </trkpt>
      <trkpt lat="46.01231" lon="4.57819">
        <ele>441.2</ele>
        <time>2022-06-26T05:15:37Z</time>
      </trkpt>
      <trkpt lat="46.01226" lon="4.57827">
        <ele>441</ele>
        <time>2022-06-26T05:15:38Z</time>
      </trkpt>
      <trkpt lat="46.01221" lon="4.57836">
        <ele>440.6</ele>
        <time>2022-06-26T05:15:39Z</time>
      </trkpt>
      <trkpt lat="46.01216" lon="4.57843">
        <ele>440.4</ele>
        <time>2022-06-26T05:15:40Z</time>
      </trkpt>
      <trkpt lat="46.01211" lon="4.57851">
        <ele>440.2</ele>
        <time>2022-06-26T05:15:41Z</time>
      </trkpt>
      <trkpt lat="46.01206" lon="4.57859">
        <ele>439.8</ele>
        <time>2022-06-26T05:15:42Z</time>
      </trkpt>
      <trkpt lat="46.01201" lon="4.57866">
        <ele>439.6</ele>
        <time>2022-06-26T05:15:43Z</time>
      </trkpt>
      <trkpt lat="46.01196" lon="4.57874">
        <ele>439.6</ele>
        <time>2022-06-26T05:15:44Z</time>
      </trkpt>
      <trkpt lat="46.01191" lon="4.57881">
        <ele>439.4</ele>
        <time>2022-06-26T05:15:45Z</time>
      </trkpt>
      <trkpt lat="46.01186" lon="4.57889">
        <ele>439</ele>
        <time>2022-06-26T05:15:46Z</time>
      </trkpt>
      <trkpt lat="46.01182" lon="4.57896">
        <ele>438.8</ele>
        <time>2022-06-26T05:15:47Z</time>
      </trkpt>
      <trkpt lat="46.01177" lon="4.57902">
        <ele>438.8</ele>
        <time>2022-06-26T05:15:48Z</time>
      </trkpt>
      <trkpt lat="46.01173" lon="4.57909">
        <ele>438.2</ele>
        <time>2022-06-26T05:15:49Z</time>
      </trkpt>
      <trkpt lat="46.01169" lon="4.57916">
        <ele>437.8</ele>
        <time>2022-06-26T05:15:50Z</time>
      </trkpt>
      <trkpt lat="46.01165" lon="4.57922">
        <ele>437.4</ele>
        <time>2022-06-26T05:15:51Z</time>
      </trkpt>
      <trkpt lat="46.0116" lon="4.57928">
        <ele>437</ele>
        <time>2022-06-26T05:15:52Z</time>
      </trkpt>
      <trkpt lat="46.01156" lon="4.57935">
        <ele>436.4</ele>
        <time>2022-06-26T05:15:53Z</time>
      </trkpt>
      <trkpt lat="46.01151" lon="4.57942">
        <ele>435.8</ele>
        <time>2022-06-26T05:15:54Z</time>
      </trkpt>
      <trkpt lat="46.01145" lon="4.57949">
        <ele>435.4</ele>
        <time>2022-06-26T05:15:55Z</time>
      </trkpt>
      <trkpt lat="46.0114" lon="4.57956">
        <ele>434.8</ele>
        <time>2022-06-26T05:15:56Z</time>
      </trkpt>
      <trkpt lat="46.01136" lon="4.57964">
        <ele>434.4</ele>
        <time>2022-06-26T05:15:57Z</time>
      </trkpt>
      <trkpt lat="46.01131" lon="4.57971">
        <ele>433.8</ele>
        <time>2022-06-26T05:15:58Z</time>
      </trkpt>
      <trkpt lat="46.01127" lon="4.57979">
        <ele>433.4</ele>
        <time>2022-06-26T05:15:59Z</time>
      </trkpt>
      <trkpt lat="46.01122" lon="4.57987">
        <ele>433</ele>
        <time>2022-06-26T05:16:00Z</time>
      </trkpt>
      <trkpt lat="46.01118" lon="4.57996">
        <ele>432.6</ele>
        <time>2022-06-26T05:16:01Z</time>
      </trkpt>
      <trkpt lat="46.01114" lon="4.58005">
        <ele>432.6</ele>
        <time>2022-06-26T05:16:02Z</time>
      </trkpt>
      <trkpt lat="46.01111" lon="4.58013">
        <ele>432.2</ele>
        <time>2022-06-26T05:16:03Z</time>
      </trkpt>
      <trkpt lat="46.01107" lon="4.58022">
        <ele>431.8</ele>
        <time>2022-06-26T05:16:04Z</time>
      </trkpt>
      <trkpt lat="46.01103" lon="4.58031">
        <ele>431.6</ele>
        <time>2022-06-26T05:16:05Z</time>
      </trkpt>
      <trkpt lat="46.01099" lon="4.58039">
        <ele>431.2</ele>
        <time>2022-06-26T05:16:06Z</time>
      </trkpt>
      <trkpt lat="46.01095" lon="4.58047">
        <ele>430.8</ele>
        <time>2022-06-26T05:16:07Z</time>
      </trkpt>
      <trkpt lat="46.01091" lon="4.58056">
        <ele>430.4</ele>
        <time>2022-06-26T05:16:08Z</time>
      </trkpt>
      <trkpt lat="46.01088" lon="4.58065">
        <ele>430</ele>
        <time>2022-06-26T05:16:09Z</time>
      </trkpt>
      <trkpt lat="46.01084" lon="4.58073">
        <ele>429.8</ele>
        <time>2022-06-26T05:16:10Z</time>
      </trkpt>
      <trkpt lat="46.01081" lon="4.5808">
        <ele>429.4</ele>
        <time>2022-06-26T05:16:11Z</time>
      </trkpt>
      <trkpt lat="46.01078" lon="4.58087">
        <ele>428.8</ele>
        <time>2022-06-26T05:16:12Z</time>
      </trkpt>
      <trkpt lat="46.01075" lon="4.58095">
        <ele>428.4</ele>
        <time>2022-06-26T05:16:13Z</time>
      </trkpt>
      <trkpt lat="46.01072" lon="4.58102">
        <ele>428</ele>
        <time>2022-06-26T05:16:14Z</time>
      </trkpt>
      <trkpt lat="46.01069" lon="4.58109">
        <ele>427.4</ele>
        <time>2022-06-26T05:16:15Z</time>
      </trkpt>
      <trkpt lat="46.01066" lon="4.58117">
        <ele>427</ele>
        <time>2022-06-26T05:16:16Z</time>
      </trkpt>
      <trkpt lat="46.01064" lon="4.58124">
        <ele>426.4</ele>
        <time>2022-06-26T05:16:17Z</time>
      </trkpt>
      <trkpt lat="46.01061" lon="4.58133">
        <ele>426</ele>
        <time>2022-06-26T05:16:18Z</time>
      </trkpt>
      <trkpt lat="46.01058" lon="4.58141">
        <ele>425.4</ele>
        <time>2022-06-26T05:16:19Z</time>
      </trkpt>
      <trkpt lat="46.01055" lon="4.58151">
        <ele>425</ele>
        <time>2022-06-26T05:16:20Z</time>
      </trkpt>
      <trkpt lat="46.01053" lon="4.58161">
        <ele>424.4</ele>
        <time>2022-06-26T05:16:21Z</time>
      </trkpt>
      <trkpt lat="46.01051" lon="4.58171">
        <ele>424</ele>
        <time>2022-06-26T05:16:22Z</time>
      </trkpt>
      <trkpt lat="46.0105" lon="4.58181">
        <ele>423.6</ele>
        <time>2022-06-26T05:16:23Z</time>
      </trkpt>
      <trkpt lat="46.01048" lon="4.58191">
        <ele>423</ele>
        <time>2022-06-26T05:16:24Z</time>
      </trkpt>
      <trkpt lat="46.01047" lon="4.582">
        <ele>422.4</ele>
        <time>2022-06-26T05:16:25Z</time>
      </trkpt>
      <trkpt lat="46.01046" lon="4.5821">
        <ele>422</ele>
        <time>2022-06-26T05:16:26Z</time>
      </trkpt>
      <trkpt lat="46.01045" lon="4.58219">
        <ele>421.4</ele>
        <time>2022-06-26T05:16:27Z</time>
      </trkpt>
      <trkpt lat="46.01044" lon="4.58228">
        <ele>421</ele>
        <time>2022-06-26T05:16:28Z</time>
      </trkpt>
      <trkpt lat="46.01045" lon="4.58237">
        <ele>420.4</ele>
        <time>2022-06-26T05:16:29Z</time>
      </trkpt>
      <trkpt lat="46.01046" lon="4.58246">
        <ele>420.2</ele>
        <time>2022-06-26T05:16:30Z</time>
      </trkpt>
      <trkpt lat="46.01047" lon="4.58254">
        <ele>419.8</ele>
        <time>2022-06-26T05:16:31Z</time>
      </trkpt>
      <trkpt lat="46.01049" lon="4.58263">
        <ele>419.6</ele>
        <time>2022-06-26T05:16:32Z</time>
      </trkpt>
      <trkpt lat="46.01051" lon="4.58273">
        <ele>419.2</ele>
        <time>2022-06-26T05:16:33Z</time>
      </trkpt>
      <trkpt lat="46.01053" lon="4.58282">
        <ele>418.8</ele>
        <time>2022-06-26T05:16:34Z</time>
      </trkpt>
      <trkpt lat="46.01054" lon="4.58291">
        <ele>418</ele>
        <time>2022-06-26T05:16:35Z</time>
      </trkpt>
      <trkpt lat="46.01056" lon="4.58299">
        <ele>417.6</ele>
        <time>2022-06-26T05:16:36Z</time>
      </trkpt>
      <trkpt lat="46.01056" lon="4.58308">
        <ele>417.2</ele>
        <time>2022-06-26T05:16:37Z</time>
      </trkpt>
      <trkpt lat="46.01057" lon="4.58317">
        <ele>416.8</ele>
        <time>2022-06-26T05:16:38Z</time>
      </trkpt>
      <trkpt lat="46.01057" lon="4.58325">
        <ele>416.8</ele>
        <time>2022-06-26T05:16:39Z</time>
      </trkpt>
      <trkpt lat="46.01056" lon="4.58333">
        <ele>416.4</ele>
        <time>2022-06-26T05:16:40Z</time>
      </trkpt>
      <trkpt lat="46.01054" lon="4.5834">
        <ele>416.8</ele>
        <time>2022-06-26T05:16:41Z</time>
      </trkpt>
      <trkpt lat="46.01052" lon="4.58348">
        <ele>416.2</ele>
        <time>2022-06-26T05:16:42Z</time>
      </trkpt>
      <trkpt lat="46.01049" lon="4.58357">
        <ele>415.8</ele>
        <time>2022-06-26T05:16:43Z</time>
      </trkpt>
      <trkpt lat="46.01046" lon="4.58365">
        <ele>415.2</ele>
        <time>2022-06-26T05:16:44Z</time>
      </trkpt>
      <trkpt lat="46.01044" lon="4.58374">
        <ele>414.8</ele>
        <time>2022-06-26T05:16:45Z</time>
      </trkpt>
      <trkpt lat="46.01041" lon="4.58381">
        <ele>414.4</ele>
        <time>2022-06-26T05:16:46Z</time>
      </trkpt>
      <trkpt lat="46.01038" lon="4.58388">
        <ele>413.8</ele>
        <time>2022-06-26T05:16:47Z</time>
      </trkpt>
      <trkpt lat="46.01036" lon="4.58397">
        <ele>413.4</ele>
        <time>2022-06-26T05:16:48Z</time>
      </trkpt>
      <trkpt lat="46.01034" lon="4.58407">
        <ele>412.6</ele>
        <time>2022-06-26T05:16:49Z</time>
      </trkpt>
      <trkpt lat="46.01032" lon="4.58418">
        <ele>412</ele>
        <time>2022-06-26T05:16:50Z</time>
      </trkpt>
      <trkpt lat="46.0103" lon="4.58431">
        <ele>411.6</ele>
        <time>2022-06-26T05:16:51Z</time>
      </trkpt>
      <trkpt lat="46.01027" lon="4.58444">
        <ele>410.8</ele>
        <time>2022-06-26T05:16:52Z</time>
      </trkpt>
      <trkpt lat="46.01025" lon="4.58457">
        <ele>410.4</ele>
        <time>2022-06-26T05:16:53Z</time>
      </trkpt>
      <trkpt lat="46.01022" lon="4.5847">
        <ele>409.8</ele>
        <time>2022-06-26T05:16:54Z</time>
      </trkpt>
      <trkpt lat="46.01019" lon="4.58482">
        <ele>409.2</ele>
        <time>2022-06-26T05:16:55Z</time>
      </trkpt>
      <trkpt lat="46.01017" lon="4.58493">
        <ele>408.8</ele>
        <time>2022-06-26T05:16:56Z</time>
      </trkpt>
      <trkpt lat="46.01014" lon="4.58503">
        <ele>408.4</ele>
        <time>2022-06-26T05:16:57Z</time>
      </trkpt>
      <trkpt lat="46.01012" lon="4.58512">
        <ele>408.2</ele>
        <time>2022-06-26T05:16:58Z</time>
      </trkpt>
      <trkpt lat="46.0101" lon="4.58521">
        <ele>408.2</ele>
        <time>2022-06-26T05:16:59Z</time>
      </trkpt>
      <trkpt lat="46.01008" lon="4.58529">
        <ele>407.8</ele>
        <time>2022-06-26T05:17:00Z</time>
      </trkpt>
      <trkpt lat="46.01006" lon="4.58536">
        <ele>407.8</ele>
        <time>2022-06-26T05:17:01Z</time>
      </trkpt>
      <trkpt lat="46.01003" lon="4.58542">
        <ele>407.8</ele>
        <time>2022-06-26T05:17:02Z</time>
      </trkpt>
      <trkpt lat="46.00999" lon="4.58548">
        <ele>407.6</ele>
        <time>2022-06-26T05:17:03Z</time>
      </trkpt>
      <trkpt lat="46.00995" lon="4.58552">
        <ele>407.6</ele>
        <time>2022-06-26T05:17:04Z</time>
      </trkpt>
      <trkpt lat="46.00989" lon="4.58559">
        <ele>406.6</ele>
        <time>2022-06-26T05:17:05Z</time>
      </trkpt>
      <trkpt lat="46.00987" lon="4.58561">
        <ele>406.6</ele>
        <time>2022-06-26T05:17:06Z</time>
      </trkpt>
      <trkpt lat="46.00983" lon="4.58565">
        <ele>406.8</ele>
        <time>2022-06-26T05:17:07Z</time>
      </trkpt>
      <trkpt lat="46.00979" lon="4.58569">
        <ele>406.8</ele>
        <time>2022-06-26T05:17:08Z</time>
      </trkpt>
      <trkpt lat="46.00976" lon="4.58575">
        <ele>406.8</ele>
        <time>2022-06-26T05:17:09Z</time>
      </trkpt>
      <trkpt lat="46.00972" lon="4.5858">
        <ele>406.8</ele>
        <time>2022-06-26T05:17:10Z</time>
      </trkpt>
      <trkpt lat="46.00969" lon="4.58585">
        <ele>406.8</ele>
        <time>2022-06-26T05:17:11Z</time>
      </trkpt>
      <trkpt lat="46.00965" lon="4.58591">
        <ele>406.6</ele>
        <time>2022-06-26T05:17:12Z</time>
      </trkpt>
      <trkpt lat="46.00962" lon="4.58596">
        <ele>406.6</ele>
        <time>2022-06-26T05:17:13Z</time>
      </trkpt>
      <trkpt lat="46.00959" lon="4.586">
        <ele>406.2</ele>
        <time>2022-06-26T05:17:14Z</time>
      </trkpt>
      <trkpt lat="46.00956" lon="4.58604">
        <ele>406.2</ele>
        <time>2022-06-26T05:17:15Z</time>
      </trkpt>
      <trkpt lat="46.00952" lon="4.58608">
        <ele>406</ele>
        <time>2022-06-26T05:17:16Z</time>
      </trkpt>
      <trkpt lat="46.00949" lon="4.58612">
        <ele>406</ele>
        <time>2022-06-26T05:17:17Z</time>
      </trkpt>
      <trkpt lat="46.00946" lon="4.58615">
        <ele>405.8</ele>
        <time>2022-06-26T05:17:18Z</time>
      </trkpt>
      <trkpt lat="46.00943" lon="4.58618">
        <ele>405.8</ele>
        <time>2022-06-26T05:17:19Z</time>
      </trkpt>
      <trkpt lat="46.00941" lon="4.58621">
        <ele>405.6</ele>
        <time>2022-06-26T05:17:20Z</time>
      </trkpt>
      <trkpt lat="46.00938" lon="4.58624">
        <ele>405.6</ele>
        <time>2022-06-26T05:17:21Z</time>
      </trkpt>
      <trkpt lat="46.00935" lon="4.58625">
        <ele>405.6</ele>
        <time>2022-06-26T05:17:22Z</time>
      </trkpt>
      <trkpt lat="46.00932" lon="4.58626">
        <ele>405.4</ele>
        <time>2022-06-26T05:17:23Z</time>
      </trkpt>
      <trkpt lat="46.00929" lon="4.58624">
        <ele>405.4</ele>
        <time>2022-06-26T05:17:24Z</time>
      </trkpt>
      <trkpt lat="46.00926" lon="4.58622">
        <ele>405.4</ele>
        <time>2022-06-26T05:17:25Z</time>
      </trkpt>
      <trkpt lat="46.00924" lon="4.58619">
        <ele>405.4</ele>
        <time>2022-06-26T05:17:26Z</time>
      </trkpt>
      <trkpt lat="46.00923" lon="4.58616">
        <ele>405.6</ele>
        <time>2022-06-26T05:17:27Z</time>
      </trkpt>
      <trkpt lat="46.00922" lon="4.58613">
        <ele>405.6</ele>
        <time>2022-06-26T05:17:28Z</time>
      </trkpt>
      <trkpt lat="46.00921" lon="4.58609">
        <ele>405.8</ele>
        <time>2022-06-26T05:17:29Z</time>
      </trkpt>
      <trkpt lat="46.0092" lon="4.58606">
        <ele>405.8</ele>
        <time>2022-06-26T05:17:30Z</time>
      </trkpt>
      <trkpt lat="46.00919" lon="4.58603">
        <ele>406</ele>
        <time>2022-06-26T05:17:31Z</time>
      </trkpt>
      <trkpt lat="46.00918" lon="4.58601">
        <ele>406</ele>
        <time>2022-06-26T05:17:32Z</time>
      </trkpt>
      <trkpt lat="46.00917" lon="4.58598">
        <ele>406.2</ele>
        <time>2022-06-26T05:17:33Z</time>
      </trkpt>
      <trkpt lat="46.00917" lon="4.58594">
        <ele>406.2</ele>
        <time>2022-06-26T05:17:34Z</time>
      </trkpt>
      <trkpt lat="46.00916" lon="4.58591">
        <ele>406.2</ele>
        <time>2022-06-26T05:17:35Z</time>
      </trkpt>
      <trkpt lat="46.00915" lon="4.58587">
        <ele>406.6</ele>
        <time>2022-06-26T05:17:36Z</time>
      </trkpt>
      <trkpt lat="46.00915" lon="4.58584">
        <ele>406.6</ele>
        <time>2022-06-26T05:17:37Z</time>
      </trkpt>
      <trkpt lat="46.00915" lon="4.58581">
        <ele>406.8</ele>
        <time>2022-06-26T05:17:38Z</time>
      </trkpt>
      <trkpt lat="46.00915" lon="4.58577">
        <ele>406.8</ele>
        <time>2022-06-26T05:17:39Z</time>
      </trkpt>
      <trkpt lat="46.00916" lon="4.58574">
        <ele>407.2</ele>
        <time>2022-06-26T05:17:40Z</time>
      </trkpt>
      <trkpt lat="46.00917" lon="4.5857">
        <ele>407.4</ele>
        <time>2022-06-26T05:17:41Z</time>
      </trkpt>
      <trkpt lat="46.00918" lon="4.58566">
        <ele>407.6</ele>
        <time>2022-06-26T05:17:42Z</time>
      </trkpt>
      <trkpt lat="46.00918" lon="4.58563">
        <ele>407.6</ele>
        <time>2022-06-26T05:17:43Z</time>
      </trkpt>
      <trkpt lat="46.00919" lon="4.5856">
        <ele>407.6</ele>
        <time>2022-06-26T05:17:44Z</time>
      </trkpt>
      <trkpt lat="46.0092" lon="4.58556">
        <ele>408</ele>
        <time>2022-06-26T05:17:45Z</time>
      </trkpt>
      <trkpt lat="46.0092" lon="4.58553">
        <ele>408</ele>
        <time>2022-06-26T05:17:46Z</time>
      </trkpt>
      <trkpt lat="46.00921" lon="4.58551">
        <ele>408.2</ele>
        <time>2022-06-26T05:17:47Z</time>
      </trkpt>
      <trkpt lat="46.00921" lon="4.58547">
        <ele>408.4</ele>
        <time>2022-06-26T05:17:48Z</time>
      </trkpt>
      <trkpt lat="46.00922" lon="4.58545">
        <ele>408.4</ele>
        <time>2022-06-26T05:17:49Z</time>
      </trkpt>
      <trkpt lat="46.00922" lon="4.58542">
        <ele>408.8</ele>
        <time>2022-06-26T05:17:50Z</time>
      </trkpt>
      <trkpt lat="46.00922" lon="4.58539">
        <ele>408.8</ele>
        <time>2022-06-26T05:17:51Z</time>
      </trkpt>
      <trkpt lat="46.00923" lon="4.58536">
        <ele>409</ele>
        <time>2022-06-26T05:17:52Z</time>
      </trkpt>
      <trkpt lat="46.00923" lon="4.58534">
        <ele>409</ele>
        <time>2022-06-26T05:17:53Z</time>
      </trkpt>
      <trkpt lat="46.00923" lon="4.58531">
        <ele>409.4</ele>
        <time>2022-06-26T05:17:54Z</time>
      </trkpt>
      <trkpt lat="46.00924" lon="4.58528">
        <ele>409.6</ele>
        <time>2022-06-26T05:17:55Z</time>
      </trkpt>
      <trkpt lat="46.00924" lon="4.58525">
        <ele>409.6</ele>
        <time>2022-06-26T05:17:56Z</time>
      </trkpt>
      <trkpt lat="46.00925" lon="4.58523">
        <ele>410</ele>
        <time>2022-06-26T05:17:57Z</time>
      </trkpt>
      <trkpt lat="46.00926" lon="4.5852">
        <ele>410.2</ele>
        <time>2022-06-26T05:17:58Z</time>
      </trkpt>
      <trkpt lat="46.00926" lon="4.58518">
        <ele>410.2</ele>
        <time>2022-06-26T05:17:59Z</time>
      </trkpt>
      <trkpt lat="46.00927" lon="4.58515">
        <ele>410.4</ele>
        <time>2022-06-26T05:18:00Z</time>
      </trkpt>
      <trkpt lat="46.00927" lon="4.58512">
        <ele>410.4</ele>
        <time>2022-06-26T05:18:01Z</time>
      </trkpt>
      <trkpt lat="46.00928" lon="4.58509">
        <ele>410.8</ele>
        <time>2022-06-26T05:18:02Z</time>
      </trkpt>
      <trkpt lat="46.00929" lon="4.58506">
        <ele>410.8</ele>
        <time>2022-06-26T05:18:03Z</time>
      </trkpt>
      <trkpt lat="46.0093" lon="4.58503">
        <ele>411</ele>
        <time>2022-06-26T05:18:04Z</time>
      </trkpt>
      <trkpt lat="46.00931" lon="4.585">
        <ele>411.4</ele>
        <time>2022-06-26T05:18:05Z</time>
      </trkpt>
      <trkpt lat="46.00932" lon="4.58497">
        <ele>411.4</ele>
        <time>2022-06-26T05:18:06Z</time>
      </trkpt>
      <trkpt lat="46.00933" lon="4.58494">
        <ele>411.6</ele>
        <time>2022-06-26T05:18:07Z</time>
      </trkpt>
      <trkpt lat="46.00934" lon="4.58491">
        <ele>411.6</ele>
        <time>2022-06-26T05:18:08Z</time>
      </trkpt>
      <trkpt lat="46.00934" lon="4.58488">
        <ele>411.8</ele>
        <time>2022-06-26T05:18:09Z</time>
      </trkpt>
      <trkpt lat="46.00935" lon="4.58485">
        <ele>411.8</ele>
        <time>2022-06-26T05:18:10Z</time>
      </trkpt>
      <trkpt lat="46.00936" lon="4.58482">
        <ele>412.2</ele>
        <time>2022-06-26T05:18:11Z</time>
      </trkpt>
      <trkpt lat="46.00937" lon="4.58479">
        <ele>412.2</ele>
        <time>2022-06-26T05:18:12Z</time>
      </trkpt>
      <trkpt lat="46.00938" lon="4.58476">
        <ele>412.2</ele>
        <time>2022-06-26T05:18:13Z</time>
      </trkpt>
      <trkpt lat="46.00938" lon="4.58473">
        <ele>412.6</ele>
        <time>2022-06-26T05:18:14Z</time>
      </trkpt>
      <trkpt lat="46.00939" lon="4.5847">
        <ele>412.6</ele>
        <time>2022-06-26T05:18:15Z</time>
      </trkpt>
      <trkpt lat="46.0094" lon="4.58467">
        <ele>412.8</ele>
        <time>2022-06-26T05:18:16Z</time>
      </trkpt>
      <trkpt lat="46.00941" lon="4.58463">
        <ele>413</ele>
        <time>2022-06-26T05:18:17Z</time>
      </trkpt>
      <trkpt lat="46.00941" lon="4.5846">
        <ele>413</ele>
        <time>2022-06-26T05:18:18Z</time>
      </trkpt>
      <trkpt lat="46.00942" lon="4.58457">
        <ele>413.2</ele>
        <time>2022-06-26T05:18:19Z</time>
      </trkpt>
      <trkpt lat="46.00943" lon="4.58454">
        <ele>413.2</ele>
        <time>2022-06-26T05:18:20Z</time>
      </trkpt>
      <trkpt lat="46.00944" lon="4.58451">
        <ele>413.6</ele>
        <time>2022-06-26T05:18:21Z</time>
      </trkpt>
      <trkpt lat="46.00945" lon="4.58448">
        <ele>413.6</ele>
        <time>2022-06-26T05:18:22Z</time>
      </trkpt>
      <trkpt lat="46.00945" lon="4.58445">
        <ele>414</ele>
        <time>2022-06-26T05:18:23Z</time>
      </trkpt>
      <trkpt lat="46.00945" lon="4.58442">
        <ele>414</ele>
        <time>2022-06-26T05:18:24Z</time>
      </trkpt>
      <trkpt lat="46.00946" lon="4.58439">
        <ele>414.2</ele>
        <time>2022-06-26T05:18:25Z</time>
      </trkpt>
      <trkpt lat="46.00947" lon="4.58436">
        <ele>414.2</ele>
        <time>2022-06-26T05:18:26Z</time>
      </trkpt>
      <trkpt lat="46.00947" lon="4.58433">
        <ele>414.6</ele>
        <time>2022-06-26T05:18:27Z</time>
      </trkpt>
      <trkpt lat="46.00948" lon="4.5843">
        <ele>414.6</ele>
        <time>2022-06-26T05:18:28Z</time>
      </trkpt>
      <trkpt lat="46.00949" lon="4.58427">
        <ele>414.8</ele>
        <time>2022-06-26T05:18:29Z</time>
      </trkpt>
      <trkpt lat="46.00949" lon="4.58424">
        <ele>414.8</ele>
        <time>2022-06-26T05:18:30Z</time>
      </trkpt>
      <trkpt lat="46.0095" lon="4.58421">
        <ele>415.2</ele>
        <time>2022-06-26T05:18:31Z</time>
      </trkpt>
      <trkpt lat="46.00951" lon="4.58418">
        <ele>415.2</ele>
        <time>2022-06-26T05:18:32Z</time>
      </trkpt>
      <trkpt lat="46.00951" lon="4.58415">
        <ele>415.4</ele>
        <time>2022-06-26T05:18:33Z</time>
      </trkpt>
      <trkpt lat="46.00952" lon="4.58412">
        <ele>415.4</ele>
        <time>2022-06-26T05:18:34Z</time>
      </trkpt>
      <trkpt lat="46.00952" lon="4.58409">
        <ele>415.8</ele>
        <time>2022-06-26T05:18:35Z</time>
      </trkpt>
      <trkpt lat="46.00953" lon="4.58406">
        <ele>415.8</ele>
        <time>2022-06-26T05:18:36Z</time>
      </trkpt>
      <trkpt lat="46.00953" lon="4.58403">
        <ele>416</ele>
        <time>2022-06-26T05:18:37Z</time>
      </trkpt>
      <trkpt lat="46.00953" lon="4.584">
        <ele>416</ele>
        <time>2022-06-26T05:18:38Z</time>
      </trkpt>
      <trkpt lat="46.00954" lon="4.58397">
        <ele>416.4</ele>
        <time>2022-06-26T05:18:39Z</time>
      </trkpt>
      <trkpt lat="46.00954" lon="4.58394">
        <ele>416.4</ele>
        <time>2022-06-26T05:18:40Z</time>
      </trkpt>
      <trkpt lat="46.00953" lon="4.58391">
        <ele>416.6</ele>
        <time>2022-06-26T05:18:41Z</time>
      </trkpt>
      <trkpt lat="46.00953" lon="4.58388">
        <ele>416.6</ele>
        <time>2022-06-26T05:18:42Z</time>
      </trkpt>
      <trkpt lat="46.00953" lon="4.58385">
        <ele>417</ele>
        <time>2022-06-26T05:18:43Z</time>
      </trkpt>
      <trkpt lat="46.00953" lon="4.58382">
        <ele>417</ele>
        <time>2022-06-26T05:18:44Z</time>
      </trkpt>
      <trkpt lat="46.00953" lon="4.58379">
        <ele>417.2</ele>
        <time>2022-06-26T05:18:45Z</time>
      </trkpt>
      <trkpt lat="46.00952" lon="4.58376">
        <ele>417.2</ele>
        <time>2022-06-26T05:18:46Z</time>
      </trkpt>
      <trkpt lat="46.00951" lon="4.58373">
        <ele>417.6</ele>
        <time>2022-06-26T05:18:47Z</time>
      </trkpt>
      <trkpt lat="46.0095" lon="4.5837">
        <ele>417.6</ele>
        <time>2022-06-26T05:18:48Z</time>
      </trkpt>
      <trkpt lat="46.00949" lon="4.58367">
        <ele>418</ele>
        <time>2022-06-26T05:18:49Z</time>
      </trkpt>
      <trkpt lat="46.00949" lon="4.58364">
        <ele>418</ele>
        <time>2022-06-26T05:18:50Z</time>
      </trkpt>
      <trkpt lat="46.00948" lon="4.58361">
        <ele>418.4</ele>
        <time>2022-06-26T05:18:51Z</time>
      </trkpt>
      <trkpt lat="46.00947" lon="4.58359">
        <ele>418.4</ele>
        <time>2022-06-26T05:18:52Z</time>
      </trkpt>
      <trkpt lat="46.00947" lon="4.58356">
        <ele>418.6</ele>
        <time>2022-06-26T05:18:53Z</time>
      </trkpt>
      <trkpt lat="46.00946" lon="4.58354">
        <ele>418.6</ele>
        <time>2022-06-26T05:18:54Z</time>
      </trkpt>
      <trkpt lat="46.00945" lon="4.58351">
        <ele>416.8</ele>
        <time>2022-06-26T05:18:55Z</time>
      </trkpt>
      <trkpt lat="46.00944" lon="4.58348">
        <ele>417.6</ele>
        <time>2022-06-26T05:18:56Z</time>
      </trkpt>
      <trkpt lat="46.00943" lon="4.58345">
        <ele>418.2</ele>
        <time>2022-06-26T05:18:57Z</time>
      </trkpt>
      <trkpt lat="46.00942" lon="4.58342">
        <ele>418.6</ele>
        <time>2022-06-26T05:18:58Z</time>
      </trkpt>
      <trkpt lat="46.00941" lon="4.58338">
        <ele>419</ele>
        <time>2022-06-26T05:18:59Z</time>
      </trkpt>
      <trkpt lat="46.0094" lon="4.58335">
        <ele>419.2</ele>
        <time>2022-06-26T05:19:00Z</time>
      </trkpt>
      <trkpt lat="46.00939" lon="4.58332">
        <ele>419.6</ele>
        <time>2022-06-26T05:19:01Z</time>
      </trkpt>
      <trkpt lat="46.00938" lon="4.58329">
        <ele>419.8</ele>
        <time>2022-06-26T05:19:02Z</time>
      </trkpt>
      <trkpt lat="46.00937" lon="4.58326">
        <ele>419.8</ele>
        <time>2022-06-26T05:19:03Z</time>
      </trkpt>
      <trkpt lat="46.00936" lon="4.58323">
        <ele>420.2</ele>
        <time>2022-06-26T05:19:04Z</time>
      </trkpt>
      <trkpt lat="46.00935" lon="4.5832">
        <ele>420.2</ele>
        <time>2022-06-26T05:19:05Z</time>
      </trkpt>
      <trkpt lat="46.00934" lon="4.58317">
        <ele>420.6</ele>
        <time>2022-06-26T05:19:06Z</time>
      </trkpt>
      <trkpt lat="46.00933" lon="4.58314">
        <ele>420.6</ele>
        <time>2022-06-26T05:19:07Z</time>
      </trkpt>
      <trkpt lat="46.00932" lon="4.58311">
        <ele>420.8</ele>
        <time>2022-06-26T05:19:08Z</time>
      </trkpt>
      <trkpt lat="46.00931" lon="4.58308">
        <ele>420.8</ele>
        <time>2022-06-26T05:19:09Z</time>
      </trkpt>
      <trkpt lat="46.0093" lon="4.58305">
        <ele>421.2</ele>
        <time>2022-06-26T05:19:10Z</time>
      </trkpt>
      <trkpt lat="46.00929" lon="4.58302">
        <ele>421.2</ele>
        <time>2022-06-26T05:19:11Z</time>
      </trkpt>
      <trkpt lat="46.00928" lon="4.58298">
        <ele>421.4</ele>
        <time>2022-06-26T05:19:12Z</time>
      </trkpt>
      <trkpt lat="46.00927" lon="4.58295">
        <ele>421.4</ele>
        <time>2022-06-26T05:19:13Z</time>
      </trkpt>
      <trkpt lat="46.00926" lon="4.58292">
        <ele>421.8</ele>
        <time>2022-06-26T05:19:14Z</time>
      </trkpt>
      <trkpt lat="46.00925" lon="4.58289">
        <ele>421.8</ele>
        <time>2022-06-26T05:19:15Z</time>
      </trkpt>
      <trkpt lat="46.00924" lon="4.58286">
        <ele>422.2</ele>
        <time>2022-06-26T05:19:16Z</time>
      </trkpt>
      <trkpt lat="46.00924" lon="4.58283">
        <ele>422.4</ele>
        <time>2022-06-26T05:19:17Z</time>
      </trkpt>
      <trkpt lat="46.00923" lon="4.5828">
        <ele>422.4</ele>
        <time>2022-06-26T05:19:18Z</time>
      </trkpt>
      <trkpt lat="46.00922" lon="4.58277">
        <ele>422.6</ele>
        <time>2022-06-26T05:19:19Z</time>
      </trkpt>
      <trkpt lat="46.00921" lon="4.58273">
        <ele>422.6</ele>
        <time>2022-06-26T05:19:20Z</time>
      </trkpt>
      <trkpt lat="46.00921" lon="4.5827">
        <ele>423</ele>
        <time>2022-06-26T05:19:21Z</time>
      </trkpt>
      <trkpt lat="46.0092" lon="4.58267">
        <ele>423</ele>
        <time>2022-06-26T05:19:22Z</time>
      </trkpt>
      <trkpt lat="46.0092" lon="4.58263">
        <ele>423.2</ele>
        <time>2022-06-26T05:19:23Z</time>
      </trkpt>
      <trkpt lat="46.00919" lon="4.5826">
        <ele>423.2</ele>
        <time>2022-06-26T05:19:24Z</time>
      </trkpt>
      <trkpt lat="46.00919" lon="4.58257">
        <ele>423.6</ele>
        <time>2022-06-26T05:19:25Z</time>
      </trkpt>
      <trkpt lat="46.00918" lon="4.58254">
        <ele>423.6</ele>
        <time>2022-06-26T05:19:26Z</time>
      </trkpt>
      <trkpt lat="46.00918" lon="4.58251">
        <ele>423.6</ele>
        <time>2022-06-26T05:19:27Z</time>
      </trkpt>
      <trkpt lat="46.00917" lon="4.58248">
        <ele>423.8</ele>
        <time>2022-06-26T05:19:28Z</time>
      </trkpt>
      <trkpt lat="46.00917" lon="4.58245">
        <ele>423.8</ele>
        <time>2022-06-26T05:19:29Z</time>
      </trkpt>
      <trkpt lat="46.00916" lon="4.58242">
        <ele>424.2</ele>
        <time>2022-06-26T05:19:30Z</time>
      </trkpt>
      <trkpt lat="46.00915" lon="4.58239">
        <ele>424.2</ele>
        <time>2022-06-26T05:19:31Z</time>
      </trkpt>
      <trkpt lat="46.00915" lon="4.58236">
        <ele>422.2</ele>
        <time>2022-06-26T05:19:32Z</time>
      </trkpt>
      <trkpt lat="46.00914" lon="4.58232">
        <ele>423.6</ele>
        <time>2022-06-26T05:19:33Z</time>
      </trkpt>
      <trkpt lat="46.00914" lon="4.58229">
        <ele>424.4</ele>
        <time>2022-06-26T05:19:34Z</time>
      </trkpt>
      <trkpt lat="46.00913" lon="4.58225">
        <ele>425.2</ele>
        <time>2022-06-26T05:19:35Z</time>
      </trkpt>
      <trkpt lat="46.00913" lon="4.58222">
        <ele>425.2</ele>
        <time>2022-06-26T05:19:36Z</time>
      </trkpt>
      <trkpt lat="46.00912" lon="4.58219">
        <ele>425.4</ele>
        <time>2022-06-26T05:19:37Z</time>
      </trkpt>
      <trkpt lat="46.00911" lon="4.58216">
        <ele>425.4</ele>
        <time>2022-06-26T05:19:38Z</time>
      </trkpt>
      <trkpt lat="46.00909" lon="4.58213">
        <ele>425.8</ele>
        <time>2022-06-26T05:19:39Z</time>
      </trkpt>
      <trkpt lat="46.00908" lon="4.58211">
        <ele>425.8</ele>
        <time>2022-06-26T05:19:40Z</time>
      </trkpt>
      <trkpt lat="46.00906" lon="4.58208">
        <ele>426</ele>
        <time>2022-06-26T05:19:41Z</time>
      </trkpt>
      <trkpt lat="46.00903" lon="4.58207">
        <ele>426</ele>
        <time>2022-06-26T05:19:42Z</time>
      </trkpt>
      <trkpt lat="46.00901" lon="4.58206">
        <ele>426</ele>
        <time>2022-06-26T05:19:43Z</time>
      </trkpt>
      <trkpt lat="46.00898" lon="4.58205">
        <ele>426.2</ele>
        <time>2022-06-26T05:19:44Z</time>
      </trkpt>
      <trkpt lat="46.00896" lon="4.58205">
        <ele>426.2</ele>
        <time>2022-06-26T05:19:45Z</time>
      </trkpt>
      <trkpt lat="46.00891" lon="4.58206">
        <ele>426.4</ele>
        <time>2022-06-26T05:19:46Z</time>
      </trkpt>
      <trkpt lat="46.00888" lon="4.58206">
        <ele>426.4</ele>
        <time>2022-06-26T05:19:47Z</time>
      </trkpt>
      <trkpt lat="46.00885" lon="4.58207">
        <ele>426.8</ele>
        <time>2022-06-26T05:19:48Z</time>
      </trkpt>
      <trkpt lat="46.00883" lon="4.58209">
        <ele>426.8</ele>
        <time>2022-06-26T05:19:49Z</time>
      </trkpt>
      <trkpt lat="46.00881" lon="4.5821">
        <ele>427</ele>
        <time>2022-06-26T05:19:50Z</time>
      </trkpt>
      <trkpt lat="46.00879" lon="4.58212">
        <ele>427</ele>
        <time>2022-06-26T05:19:51Z</time>
      </trkpt>
      <trkpt lat="46.00877" lon="4.58214">
        <ele>427.4</ele>
        <time>2022-06-26T05:19:52Z</time>
      </trkpt>
      <trkpt lat="46.00876" lon="4.58216">
        <ele>427.4</ele>
        <time>2022-06-26T05:19:53Z</time>
      </trkpt>
      <trkpt lat="46.00874" lon="4.58219">
        <ele>427.8</ele>
        <time>2022-06-26T05:19:54Z</time>
      </trkpt>
      <trkpt lat="46.00873" lon="4.58222">
        <ele>427.8</ele>
        <time>2022-06-26T05:19:55Z</time>
      </trkpt>
      <trkpt lat="46.00872" lon="4.58225">
        <ele>428.2</ele>
        <time>2022-06-26T05:19:56Z</time>
      </trkpt>
      <trkpt lat="46.0087" lon="4.58228">
        <ele>428.2</ele>
        <time>2022-06-26T05:19:57Z</time>
      </trkpt>
      <trkpt lat="46.00869" lon="4.58231">
        <ele>428.4</ele>
        <time>2022-06-26T05:19:58Z</time>
      </trkpt>
      <trkpt lat="46.00868" lon="4.58234">
        <ele>428.4</ele>
        <time>2022-06-26T05:19:59Z</time>
      </trkpt>
      <trkpt lat="46.00866" lon="4.58237">
        <ele>428.8</ele>
        <time>2022-06-26T05:20:00Z</time>
      </trkpt>
      <trkpt lat="46.00865" lon="4.58239">
        <ele>428.8</ele>
        <time>2022-06-26T05:20:01Z</time>
      </trkpt>
      <trkpt lat="46.00863" lon="4.58242">
        <ele>429</ele>
        <time>2022-06-26T05:20:02Z</time>
      </trkpt>
      <trkpt lat="46.00862" lon="4.58245">
        <ele>429</ele>
        <time>2022-06-26T05:20:03Z</time>
      </trkpt>
      <trkpt lat="46.0086" lon="4.58248">
        <ele>429.4</ele>
        <time>2022-06-26T05:20:04Z</time>
      </trkpt>
      <trkpt lat="46.00859" lon="4.5825">
        <ele>429.4</ele>
        <time>2022-06-26T05:20:05Z</time>
      </trkpt>
      <trkpt lat="46.00858" lon="4.58253">
        <ele>429.6</ele>
        <time>2022-06-26T05:20:06Z</time>
      </trkpt>
      <trkpt lat="46.00856" lon="4.58256">
        <ele>429.6</ele>
        <time>2022-06-26T05:20:07Z</time>
      </trkpt>
      <trkpt lat="46.00855" lon="4.5826">
        <ele>430</ele>
        <time>2022-06-26T05:20:08Z</time>
      </trkpt>
      <trkpt lat="46.00853" lon="4.58263">
        <ele>430</ele>
        <time>2022-06-26T05:20:09Z</time>
      </trkpt>
      <trkpt lat="46.00852" lon="4.58266">
        <ele>430.2</ele>
        <time>2022-06-26T05:20:10Z</time>
      </trkpt>
      <trkpt lat="46.0085" lon="4.58269">
        <ele>430.2</ele>
        <time>2022-06-26T05:20:11Z</time>
      </trkpt>
      <trkpt lat="46.00849" lon="4.58272">
        <ele>430.4</ele>
        <time>2022-06-26T05:20:12Z</time>
      </trkpt>
      <trkpt lat="46.00846" lon="4.58275">
        <ele>430.4</ele>
        <time>2022-06-26T05:20:13Z</time>
      </trkpt>
      <trkpt lat="46.00844" lon="4.58277">
        <ele>430.6</ele>
        <time>2022-06-26T05:20:14Z</time>
      </trkpt>
      <trkpt lat="46.00842" lon="4.5828">
        <ele>430.6</ele>
        <time>2022-06-26T05:20:15Z</time>
      </trkpt>
      <trkpt lat="46.00841" lon="4.58283">
        <ele>431</ele>
        <time>2022-06-26T05:20:16Z</time>
      </trkpt>
      <trkpt lat="46.00839" lon="4.58286">
        <ele>431</ele>
        <time>2022-06-26T05:20:17Z</time>
      </trkpt>
      <trkpt lat="46.00836" lon="4.58288">
        <ele>431.2</ele>
        <time>2022-06-26T05:20:18Z</time>
      </trkpt>
      <trkpt lat="46.00834" lon="4.5829">
        <ele>431.2</ele>
        <time>2022-06-26T05:20:19Z</time>
      </trkpt>
      <trkpt lat="46.00832" lon="4.58293">
        <ele>431.6</ele>
        <time>2022-06-26T05:20:20Z</time>
      </trkpt>
      <trkpt lat="46.00831" lon="4.58296">
        <ele>431.6</ele>
        <time>2022-06-26T05:20:21Z</time>
      </trkpt>
      <trkpt lat="46.00829" lon="4.58298">
        <ele>431.8</ele>
        <time>2022-06-26T05:20:22Z</time>
      </trkpt>
      <trkpt lat="46.00828" lon="4.58301">
        <ele>431.8</ele>
        <time>2022-06-26T05:20:23Z</time>
      </trkpt>
      <trkpt lat="46.00826" lon="4.58304">
        <ele>432.2</ele>
        <time>2022-06-26T05:20:24Z</time>
      </trkpt>
      <trkpt lat="46.00824" lon="4.58306">
        <ele>432.2</ele>
        <time>2022-06-26T05:20:25Z</time>
      </trkpt>
      <trkpt lat="46.00823" lon="4.58308">
        <ele>432.4</ele>
        <time>2022-06-26T05:20:26Z</time>
      </trkpt>
      <trkpt lat="46.00821" lon="4.58311">
        <ele>432.4</ele>
        <time>2022-06-26T05:20:27Z</time>
      </trkpt>
      <trkpt lat="46.00819" lon="4.58313">
        <ele>432.8</ele>
        <time>2022-06-26T05:20:28Z</time>
      </trkpt>
      <trkpt lat="46.00818" lon="4.58316">
        <ele>432.8</ele>
        <time>2022-06-26T05:20:29Z</time>
      </trkpt>
      <trkpt lat="46.00815" lon="4.58318">
        <ele>433</ele>
        <time>2022-06-26T05:20:30Z</time>
      </trkpt>
      <trkpt lat="46.00813" lon="4.58321">
        <ele>433.2</ele>
        <time>2022-06-26T05:20:31Z</time>
      </trkpt>
      <trkpt lat="46.00812" lon="4.58324">
        <ele>433.2</ele>
        <time>2022-06-26T05:20:32Z</time>
      </trkpt>
      <trkpt lat="46.00809" lon="4.58327">
        <ele>433.4</ele>
        <time>2022-06-26T05:20:33Z</time>
      </trkpt>
      <trkpt lat="46.00807" lon="4.58329">
        <ele>433.8</ele>
        <time>2022-06-26T05:20:34Z</time>
      </trkpt>
      <trkpt lat="46.00806" lon="4.58333">
        <ele>433.8</ele>
        <time>2022-06-26T05:20:35Z</time>
      </trkpt>
      <trkpt lat="46.00804" lon="4.58336">
        <ele>433.8</ele>
        <time>2022-06-26T05:20:36Z</time>
      </trkpt>
      <trkpt lat="46.00802" lon="4.58338">
        <ele>434</ele>
        <time>2022-06-26T05:20:37Z</time>
      </trkpt>
      <trkpt lat="46.008" lon="4.58341">
        <ele>434</ele>
        <time>2022-06-26T05:20:38Z</time>
      </trkpt>
      <trkpt lat="46.00798" lon="4.58344">
        <ele>434.4</ele>
        <time>2022-06-26T05:20:39Z</time>
      </trkpt>
      <trkpt lat="46.00796" lon="4.58347">
        <ele>434.4</ele>
        <time>2022-06-26T05:20:40Z</time>
      </trkpt>
      <trkpt lat="46.00793" lon="4.58349">
        <ele>434.6</ele>
        <time>2022-06-26T05:20:41Z</time>
      </trkpt>
      <trkpt lat="46.00792" lon="4.58352">
        <ele>434.6</ele>
        <time>2022-06-26T05:20:42Z</time>
      </trkpt>
      <trkpt lat="46.0079" lon="4.58354">
        <ele>435</ele>
        <time>2022-06-26T05:20:43Z</time>
      </trkpt>
      <trkpt lat="46.00788" lon="4.58356">
        <ele>435</ele>
        <time>2022-06-26T05:20:44Z</time>
      </trkpt>
      <trkpt lat="46.00787" lon="4.58358">
        <ele>435.2</ele>
        <time>2022-06-26T05:20:45Z</time>
      </trkpt>
      <trkpt lat="46.00786" lon="4.58359">
        <ele>435.2</ele>
        <time>2022-06-26T05:20:46Z</time>
      </trkpt>
      <trkpt lat="46.00785" lon="4.58362">
        <ele>435.2</ele>
        <time>2022-06-26T05:20:47Z</time>
      </trkpt>
      <trkpt lat="46.00783" lon="4.58365">
        <ele>435.6</ele>
        <time>2022-06-26T05:20:48Z</time>
      </trkpt>
      <trkpt lat="46.00782" lon="4.58367">
        <ele>435.6</ele>
        <time>2022-06-26T05:20:49Z</time>
      </trkpt>
      <trkpt lat="46.0078" lon="4.58369">
        <ele>436</ele>
        <time>2022-06-26T05:20:50Z</time>
      </trkpt>
      <trkpt lat="46.00779" lon="4.58371">
        <ele>436.2</ele>
        <time>2022-06-26T05:20:51Z</time>
      </trkpt>
      <trkpt lat="46.0078" lon="4.58374">
        <ele>436.2</ele>
        <time>2022-06-26T05:20:52Z</time>
      </trkpt>
      <trkpt lat="46.00778" lon="4.58377">
        <ele>436.6</ele>
        <time>2022-06-26T05:20:53Z</time>
      </trkpt>
      <trkpt lat="46.00777" lon="4.5838">
        <ele>436.8</ele>
        <time>2022-06-26T05:20:54Z</time>
      </trkpt>
      <trkpt lat="46.00777" lon="4.58383">
        <ele>437</ele>
        <time>2022-06-26T05:20:55Z</time>
      </trkpt>
      <trkpt lat="46.00776" lon="4.58386">
        <ele>437</ele>
        <time>2022-06-26T05:20:56Z</time>
      </trkpt>
      <trkpt lat="46.00775" lon="4.58389">
        <ele>437.2</ele>
        <time>2022-06-26T05:20:57Z</time>
      </trkpt>
      <trkpt lat="46.00774" lon="4.58393">
        <ele>437.2</ele>
        <time>2022-06-26T05:20:58Z</time>
      </trkpt>
      <trkpt lat="46.00772" lon="4.58396">
        <ele>437.4</ele>
        <time>2022-06-26T05:20:59Z</time>
      </trkpt>
      <trkpt lat="46.00771" lon="4.58398">
        <ele>437.4</ele>
        <time>2022-06-26T05:21:00Z</time>
      </trkpt>
      <trkpt lat="46.00769" lon="4.58401">
        <ele>437.4</ele>
        <time>2022-06-26T05:21:01Z</time>
      </trkpt>
      <trkpt lat="46.00768" lon="4.58404">
        <ele>437.8</ele>
        <time>2022-06-26T05:21:02Z</time>
      </trkpt>
      <trkpt lat="46.00766" lon="4.58407">
        <ele>437.8</ele>
        <time>2022-06-26T05:21:03Z</time>
      </trkpt>
      <trkpt lat="46.00764" lon="4.5841">
        <ele>437.8</ele>
        <time>2022-06-26T05:21:04Z</time>
      </trkpt>
      <trkpt lat="46.00763" lon="4.58412">
        <ele>438</ele>
        <time>2022-06-26T05:21:05Z</time>
      </trkpt>
      <trkpt lat="46.00761" lon="4.58415">
        <ele>438</ele>
        <time>2022-06-26T05:21:06Z</time>
      </trkpt>
      <trkpt lat="46.00759" lon="4.58418">
        <ele>438.2</ele>
        <time>2022-06-26T05:21:07Z</time>
      </trkpt>
      <trkpt lat="46.00757" lon="4.58421">
        <ele>438.2</ele>
        <time>2022-06-26T05:21:08Z</time>
      </trkpt>
      <trkpt lat="46.00755" lon="4.58424">
        <ele>438.6</ele>
        <time>2022-06-26T05:21:09Z</time>
      </trkpt>
      <trkpt lat="46.00753" lon="4.58426">
        <ele>438.6</ele>
        <time>2022-06-26T05:21:10Z</time>
      </trkpt>
      <trkpt lat="46.00751" lon="4.58428">
        <ele>439</ele>
        <time>2022-06-26T05:21:11Z</time>
      </trkpt>
      <trkpt lat="46.00749" lon="4.5843">
        <ele>439</ele>
        <time>2022-06-26T05:21:12Z</time>
      </trkpt>
      <trkpt lat="46.00747" lon="4.58433">
        <ele>439.2</ele>
        <time>2022-06-26T05:21:13Z</time>
      </trkpt>
      <trkpt lat="46.00745" lon="4.58435">
        <ele>439.4</ele>
        <time>2022-06-26T05:21:14Z</time>
      </trkpt>
      <trkpt lat="46.00743" lon="4.58437">
        <ele>439.4</ele>
        <time>2022-06-26T05:21:15Z</time>
      </trkpt>
      <trkpt lat="46.00741" lon="4.5844">
        <ele>439.8</ele>
        <time>2022-06-26T05:21:16Z</time>
      </trkpt>
      <trkpt lat="46.00739" lon="4.58442">
        <ele>439.8</ele>
        <time>2022-06-26T05:21:17Z</time>
      </trkpt>
      <trkpt lat="46.00737" lon="4.58444">
        <ele>440</ele>
        <time>2022-06-26T05:21:18Z</time>
      </trkpt>
      <trkpt lat="46.00735" lon="4.58445">
        <ele>440</ele>
        <time>2022-06-26T05:21:19Z</time>
      </trkpt>
      <trkpt lat="46.00733" lon="4.58447">
        <ele>440.4</ele>
        <time>2022-06-26T05:21:20Z</time>
      </trkpt>
      <trkpt lat="46.0073" lon="4.58449">
        <ele>440.4</ele>
        <time>2022-06-26T05:21:21Z</time>
      </trkpt>
      <trkpt lat="46.00728" lon="4.5845">
        <ele>440.6</ele>
        <time>2022-06-26T05:21:22Z</time>
      </trkpt>
      <trkpt lat="46.00726" lon="4.58452">
        <ele>440.6</ele>
        <time>2022-06-26T05:21:23Z</time>
      </trkpt>
      <trkpt lat="46.00723" lon="4.58454">
        <ele>440.8</ele>
        <time>2022-06-26T05:21:24Z</time>
      </trkpt>
      <trkpt lat="46.00721" lon="4.58456">
        <ele>440.8</ele>
        <time>2022-06-26T05:21:25Z</time>
      </trkpt>
      <trkpt lat="46.00719" lon="4.58457">
        <ele>441.2</ele>
        <time>2022-06-26T05:21:26Z</time>
      </trkpt>
      <trkpt lat="46.00717" lon="4.58459">
        <ele>441.2</ele>
        <time>2022-06-26T05:21:27Z</time>
      </trkpt>
      <trkpt lat="46.00714" lon="4.5846">
        <ele>441.4</ele>
        <time>2022-06-26T05:21:28Z</time>
      </trkpt>
      <trkpt lat="46.00712" lon="4.58462">
        <ele>441.4</ele>
        <time>2022-06-26T05:21:29Z</time>
      </trkpt>
      <trkpt lat="46.0071" lon="4.58464">
        <ele>441.8</ele>
        <time>2022-06-26T05:21:30Z</time>
      </trkpt>
      <trkpt lat="46.00707" lon="4.58465">
        <ele>441.8</ele>
        <time>2022-06-26T05:21:31Z</time>
      </trkpt>
      <trkpt lat="46.00705" lon="4.58466">
        <ele>442</ele>
        <time>2022-06-26T05:21:32Z</time>
      </trkpt>
      <trkpt lat="46.00702" lon="4.58467">
        <ele>442</ele>
        <time>2022-06-26T05:21:33Z</time>
      </trkpt>
      <trkpt lat="46.007" lon="4.58468">
        <ele>442.2</ele>
        <time>2022-06-26T05:21:34Z</time>
      </trkpt>
      <trkpt lat="46.00697" lon="4.58468">
        <ele>442.2</ele>
        <time>2022-06-26T05:21:35Z</time>
      </trkpt>
      <trkpt lat="46.00695" lon="4.58469">
        <ele>442.6</ele>
        <time>2022-06-26T05:21:36Z</time>
      </trkpt>
      <trkpt lat="46.00692" lon="4.5847">
        <ele>442.6</ele>
        <time>2022-06-26T05:21:37Z</time>
      </trkpt>
      <trkpt lat="46.00689" lon="4.5847">
        <ele>442.8</ele>
        <time>2022-06-26T05:21:38Z</time>
      </trkpt>
      <trkpt lat="46.00687" lon="4.58469">
        <ele>442.8</ele>
        <time>2022-06-26T05:21:39Z</time>
      </trkpt>
      <trkpt lat="46.00684" lon="4.58469">
        <ele>443.2</ele>
        <time>2022-06-26T05:21:40Z</time>
      </trkpt>
      <trkpt lat="46.00682" lon="4.58468">
        <ele>443.2</ele>
        <time>2022-06-26T05:21:41Z</time>
      </trkpt>
      <trkpt lat="46.00679" lon="4.58468">
        <ele>443.6</ele>
        <time>2022-06-26T05:21:42Z</time>
      </trkpt>
      <trkpt lat="46.00677" lon="4.58467">
        <ele>443.6</ele>
        <time>2022-06-26T05:21:43Z</time>
      </trkpt>
      <trkpt lat="46.00674" lon="4.58466">
        <ele>443.8</ele>
        <time>2022-06-26T05:21:44Z</time>
      </trkpt>
      <trkpt lat="46.00672" lon="4.58465">
        <ele>443.8</ele>
        <time>2022-06-26T05:21:45Z</time>
      </trkpt>
      <trkpt lat="46.0067" lon="4.58464">
        <ele>444.2</ele>
        <time>2022-06-26T05:21:46Z</time>
      </trkpt>
      <trkpt lat="46.00667" lon="4.58462">
        <ele>444.2</ele>
        <time>2022-06-26T05:21:47Z</time>
      </trkpt>
      <trkpt lat="46.00665" lon="4.58461">
        <ele>444.4</ele>
        <time>2022-06-26T05:21:48Z</time>
      </trkpt>
      <trkpt lat="46.00663" lon="4.58459">
        <ele>444.4</ele>
        <time>2022-06-26T05:21:49Z</time>
      </trkpt>
      <trkpt lat="46.0066" lon="4.58458">
        <ele>444.6</ele>
        <time>2022-06-26T05:21:50Z</time>
      </trkpt>
      <trkpt lat="46.00658" lon="4.58456">
        <ele>444.6</ele>
        <time>2022-06-26T05:21:51Z</time>
      </trkpt>
      <trkpt lat="46.00656" lon="4.58455">
        <ele>445</ele>
        <time>2022-06-26T05:21:52Z</time>
      </trkpt>
      <trkpt lat="46.00654" lon="4.58453">
        <ele>445</ele>
        <time>2022-06-26T05:21:53Z</time>
      </trkpt>
      <trkpt lat="46.00651" lon="4.58452">
        <ele>445</ele>
        <time>2022-06-26T05:21:54Z</time>
      </trkpt>
      <trkpt lat="46.00649" lon="4.5845">
        <ele>445.2</ele>
        <time>2022-06-26T05:21:55Z</time>
      </trkpt>
      <trkpt lat="46.00648" lon="4.58448">
        <ele>445.2</ele>
        <time>2022-06-26T05:21:56Z</time>
      </trkpt>
      <trkpt lat="46.00646" lon="4.58446">
        <ele>445.4</ele>
        <time>2022-06-26T05:21:57Z</time>
      </trkpt>
      <trkpt lat="46.00644" lon="4.58444">
        <ele>445.4</ele>
        <time>2022-06-26T05:21:58Z</time>
      </trkpt>
      <trkpt lat="46.00643" lon="4.58442">
        <ele>445.8</ele>
        <time>2022-06-26T05:21:59Z</time>
      </trkpt>
      <trkpt lat="46.00641" lon="4.5844">
        <ele>445.8</ele>
        <time>2022-06-26T05:22:00Z</time>
      </trkpt>
      <trkpt lat="46.0064" lon="4.58438">
        <ele>446</ele>
        <time>2022-06-26T05:22:01Z</time>
      </trkpt>
      <trkpt lat="46.00638" lon="4.58435">
        <ele>446</ele>
        <time>2022-06-26T05:22:02Z</time>
      </trkpt>
      <trkpt lat="46.00637" lon="4.58433">
        <ele>446.6</ele>
        <time>2022-06-26T05:22:03Z</time>
      </trkpt>
      <trkpt lat="46.00635" lon="4.58431">
        <ele>446.6</ele>
        <time>2022-06-26T05:22:04Z</time>
      </trkpt>
      <trkpt lat="46.00633" lon="4.58428">
        <ele>446.8</ele>
        <time>2022-06-26T05:22:05Z</time>
      </trkpt>
      <trkpt lat="46.00632" lon="4.58426">
        <ele>446.8</ele>
        <time>2022-06-26T05:22:06Z</time>
      </trkpt>
      <trkpt lat="46.00631" lon="4.58423">
        <ele>446.8</ele>
        <time>2022-06-26T05:22:07Z</time>
      </trkpt>
      <trkpt lat="46.0063" lon="4.5842">
        <ele>447.2</ele>
        <time>2022-06-26T05:22:08Z</time>
      </trkpt>
      <trkpt lat="46.0063" lon="4.58417">
        <ele>447.2</ele>
        <time>2022-06-26T05:22:09Z</time>
      </trkpt>
      <trkpt lat="46.00629" lon="4.58414">
        <ele>447.6</ele>
        <time>2022-06-26T05:22:10Z</time>
      </trkpt>
      <trkpt lat="46.00628" lon="4.58411">
        <ele>447.6</ele>
        <time>2022-06-26T05:22:11Z</time>
      </trkpt>
      <trkpt lat="46.00628" lon="4.58408">
        <ele>448</ele>
        <time>2022-06-26T05:22:12Z</time>
      </trkpt>
      <trkpt lat="46.00627" lon="4.58405">
        <ele>448</ele>
        <time>2022-06-26T05:22:13Z</time>
      </trkpt>
      <trkpt lat="46.00626" lon="4.58402">
        <ele>448.2</ele>
        <time>2022-06-26T05:22:14Z</time>
      </trkpt>
      <trkpt lat="46.00625" lon="4.584">
        <ele>448.2</ele>
        <time>2022-06-26T05:22:15Z</time>
      </trkpt>
      <trkpt lat="46.00624" lon="4.58397">
        <ele>448.4</ele>
        <time>2022-06-26T05:22:16Z</time>
      </trkpt>
      <trkpt lat="46.00623" lon="4.58394">
        <ele>448.6</ele>
        <time>2022-06-26T05:22:17Z</time>
      </trkpt>
      <trkpt lat="46.00622" lon="4.58391">
        <ele>448.6</ele>
        <time>2022-06-26T05:22:18Z</time>
      </trkpt>
      <trkpt lat="46.00621" lon="4.58388">
        <ele>448.8</ele>
        <time>2022-06-26T05:22:19Z</time>
      </trkpt>
      <trkpt lat="46.00619" lon="4.58385">
        <ele>448.8</ele>
        <time>2022-06-26T05:22:20Z</time>
      </trkpt>
      <trkpt lat="46.00617" lon="4.58382">
        <ele>449.2</ele>
        <time>2022-06-26T05:22:21Z</time>
      </trkpt>
      <trkpt lat="46.00615" lon="4.5838">
        <ele>449.2</ele>
        <time>2022-06-26T05:22:22Z</time>
      </trkpt>
      <trkpt lat="46.00613" lon="4.58377">
        <ele>449.2</ele>
        <time>2022-06-26T05:22:23Z</time>
      </trkpt>
      <trkpt lat="46.00611" lon="4.58374">
        <ele>449.2</ele>
        <time>2022-06-26T05:22:24Z</time>
      </trkpt>
      <trkpt lat="46.00609" lon="4.58372">
        <ele>449.4</ele>
        <time>2022-06-26T05:22:25Z</time>
      </trkpt>
      <trkpt lat="46.00607" lon="4.5837">
        <ele>449.4</ele>
        <time>2022-06-26T05:22:26Z</time>
      </trkpt>
      <trkpt lat="46.00604" lon="4.58367">
        <ele>449.6</ele>
        <time>2022-06-26T05:22:27Z</time>
      </trkpt>
      <trkpt lat="46.00602" lon="4.58365">
        <ele>449.6</ele>
        <time>2022-06-26T05:22:28Z</time>
      </trkpt>
      <trkpt lat="46.006" lon="4.58364">
        <ele>450</ele>
        <time>2022-06-26T05:22:29Z</time>
      </trkpt>
      <trkpt lat="46.00598" lon="4.58362">
        <ele>450</ele>
        <time>2022-06-26T05:22:30Z</time>
      </trkpt>
      <trkpt lat="46.00596" lon="4.5836">
        <ele>450.2</ele>
        <time>2022-06-26T05:22:31Z</time>
      </trkpt>
      <trkpt lat="46.00594" lon="4.58359">
        <ele>450.2</ele>
        <time>2022-06-26T05:22:32Z</time>
      </trkpt>
      <trkpt lat="46.00592" lon="4.58357">
        <ele>450.4</ele>
        <time>2022-06-26T05:22:33Z</time>
      </trkpt>
      <trkpt lat="46.0059" lon="4.58356">
        <ele>450.4</ele>
        <time>2022-06-26T05:22:34Z</time>
      </trkpt>
      <trkpt lat="46.00588" lon="4.58355">
        <ele>450.8</ele>
        <time>2022-06-26T05:22:35Z</time>
      </trkpt>
      <trkpt lat="46.00586" lon="4.58354">
        <ele>451</ele>
        <time>2022-06-26T05:22:36Z</time>
      </trkpt>
      <trkpt lat="46.00584" lon="4.58353">
        <ele>451</ele>
        <time>2022-06-26T05:22:37Z</time>
      </trkpt>
      <trkpt lat="46.00582" lon="4.58352">
        <ele>451.4</ele>
        <time>2022-06-26T05:22:38Z</time>
      </trkpt>
      <trkpt lat="46.0058" lon="4.5835">
        <ele>451.4</ele>
        <time>2022-06-26T05:22:39Z</time>
      </trkpt>
      <trkpt lat="46.00578" lon="4.58349">
        <ele>451.6</ele>
        <time>2022-06-26T05:22:40Z</time>
      </trkpt>
      <trkpt lat="46.00576" lon="4.58348">
        <ele>451.6</ele>
        <time>2022-06-26T05:22:41Z</time>
      </trkpt>
      <trkpt lat="46.00575" lon="4.58347">
        <ele>452</ele>
        <time>2022-06-26T05:22:42Z</time>
      </trkpt>
      <trkpt lat="46.00573" lon="4.58346">
        <ele>452</ele>
        <time>2022-06-26T05:22:43Z</time>
      </trkpt>
      <trkpt lat="46.00571" lon="4.58345">
        <ele>452.4</ele>
        <time>2022-06-26T05:22:44Z</time>
      </trkpt>
      <trkpt lat="46.00569" lon="4.58344">
        <ele>452.6</ele>
        <time>2022-06-26T05:22:45Z</time>
      </trkpt>
      <trkpt lat="46.00567" lon="4.58343">
        <ele>452.6</ele>
        <time>2022-06-26T05:22:46Z</time>
      </trkpt>
      <trkpt lat="46.00565" lon="4.58341">
        <ele>452.8</ele>
        <time>2022-06-26T05:22:47Z</time>
      </trkpt>
      <trkpt lat="46.00563" lon="4.5834">
        <ele>452.8</ele>
        <time>2022-06-26T05:22:48Z</time>
      </trkpt>
      <trkpt lat="46.00561" lon="4.58339">
        <ele>453.2</ele>
        <time>2022-06-26T05:22:49Z</time>
      </trkpt>
      <trkpt lat="46.00559" lon="4.58338">
        <ele>453.2</ele>
        <time>2022-06-26T05:22:50Z</time>
      </trkpt>
      <trkpt lat="46.00558" lon="4.58337">
        <ele>453.4</ele>
        <time>2022-06-26T05:22:51Z</time>
      </trkpt>
      <trkpt lat="46.00556" lon="4.58336">
        <ele>453.4</ele>
        <time>2022-06-26T05:22:52Z</time>
      </trkpt>
      <trkpt lat="46.00554" lon="4.58335">
        <ele>453.8</ele>
        <time>2022-06-26T05:22:53Z</time>
      </trkpt>
      <trkpt lat="46.00552" lon="4.58333">
        <ele>454</ele>
        <time>2022-06-26T05:22:54Z</time>
      </trkpt>
      <trkpt lat="46.0055" lon="4.58332">
        <ele>454</ele>
        <time>2022-06-26T05:22:55Z</time>
      </trkpt>
      <trkpt lat="46.00547" lon="4.58331">
        <ele>454.2</ele>
        <time>2022-06-26T05:22:56Z</time>
      </trkpt>
      <trkpt lat="46.00545" lon="4.5833">
        <ele>454.2</ele>
        <time>2022-06-26T05:22:57Z</time>
      </trkpt>
      <trkpt lat="46.00543" lon="4.58329">
        <ele>454.6</ele>
        <time>2022-06-26T05:22:58Z</time>
      </trkpt>
      <trkpt lat="46.00541" lon="4.58328">
        <ele>454.6</ele>
        <time>2022-06-26T05:22:59Z</time>
      </trkpt>
      <trkpt lat="46.00538" lon="4.58328">
        <ele>454.8</ele>
        <time>2022-06-26T05:23:00Z</time>
      </trkpt>
      <trkpt lat="46.00536" lon="4.58327">
        <ele>454.8</ele>
        <time>2022-06-26T05:23:01Z</time>
      </trkpt>
      <trkpt lat="46.00534" lon="4.58327">
        <ele>455</ele>
        <time>2022-06-26T05:23:02Z</time>
      </trkpt>
      <trkpt lat="46.00532" lon="4.58326">
        <ele>455</ele>
        <time>2022-06-26T05:23:03Z</time>
      </trkpt>
      <trkpt lat="46.0053" lon="4.58325">
        <ele>455.4</ele>
        <time>2022-06-26T05:23:04Z</time>
      </trkpt>
      <trkpt lat="46.00528" lon="4.58323">
        <ele>455.4</ele>
        <time>2022-06-26T05:23:05Z</time>
      </trkpt>
      <trkpt lat="46.00526" lon="4.58322">
        <ele>455.6</ele>
        <time>2022-06-26T05:23:06Z</time>
      </trkpt>
      <trkpt lat="46.00523" lon="4.58321">
        <ele>455.6</ele>
        <time>2022-06-26T05:23:07Z</time>
      </trkpt>
      <trkpt lat="46.00522" lon="4.58319">
        <ele>455.8</ele>
        <time>2022-06-26T05:23:08Z</time>
      </trkpt>
      <trkpt lat="46.0052" lon="4.58317">
        <ele>455.8</ele>
        <time>2022-06-26T05:23:09Z</time>
      </trkpt>
      <trkpt lat="46.00519" lon="4.58314">
        <ele>456.2</ele>
        <time>2022-06-26T05:23:10Z</time>
      </trkpt>
      <trkpt lat="46.00518" lon="4.58311">
        <ele>456.2</ele>
        <time>2022-06-26T05:23:11Z</time>
      </trkpt>
      <trkpt lat="46.00518" lon="4.58308">
        <ele>456.4</ele>
        <time>2022-06-26T05:23:12Z</time>
      </trkpt>
      <trkpt lat="46.00518" lon="4.58305">
        <ele>456.4</ele>
        <time>2022-06-26T05:23:13Z</time>
      </trkpt>
      <trkpt lat="46.00519" lon="4.58302">
        <ele>456.6</ele>
        <time>2022-06-26T05:23:14Z</time>
      </trkpt>
      <trkpt lat="46.00521" lon="4.583">
        <ele>456.6</ele>
        <time>2022-06-26T05:23:15Z</time>
      </trkpt>
      <trkpt lat="46.00523" lon="4.58299">
        <ele>457</ele>
        <time>2022-06-26T05:23:16Z</time>
      </trkpt>
      <trkpt lat="46.00525" lon="4.58298">
        <ele>457</ele>
        <time>2022-06-26T05:23:17Z</time>
      </trkpt>
      <trkpt lat="46.00527" lon="4.58298">
        <ele>457.2</ele>
        <time>2022-06-26T05:23:18Z</time>
      </trkpt>
      <trkpt lat="46.0053" lon="4.58298">
        <ele>457.2</ele>
        <time>2022-06-26T05:23:19Z</time>
      </trkpt>
      <trkpt lat="46.00532" lon="4.58298">
        <ele>457.4</ele>
        <time>2022-06-26T05:23:20Z</time>
      </trkpt>
      <trkpt lat="46.00534" lon="4.58298">
        <ele>457.4</ele>
        <time>2022-06-26T05:23:21Z</time>
      </trkpt>
      <trkpt lat="46.00536" lon="4.58299">
        <ele>457.4</ele>
        <time>2022-06-26T05:23:22Z</time>
      </trkpt>
      <trkpt lat="46.00539" lon="4.58299">
        <ele>457.6</ele>
        <time>2022-06-26T05:23:23Z</time>
      </trkpt>
      <trkpt lat="46.00541" lon="4.583">
        <ele>457.6</ele>
        <time>2022-06-26T05:23:24Z</time>
      </trkpt>
      <trkpt lat="46.00543" lon="4.583">
        <ele>458</ele>
        <time>2022-06-26T05:23:25Z</time>
      </trkpt>
      <trkpt lat="46.00546" lon="4.58301">
        <ele>458</ele>
        <time>2022-06-26T05:23:26Z</time>
      </trkpt>
      <trkpt lat="46.00548" lon="4.58301">
        <ele>458.2</ele>
        <time>2022-06-26T05:23:27Z</time>
      </trkpt>
      <trkpt lat="46.0055" lon="4.58302">
        <ele>458.2</ele>
        <time>2022-06-26T05:23:28Z</time>
      </trkpt>
      <trkpt lat="46.00552" lon="4.58302">
        <ele>458.4</ele>
        <time>2022-06-26T05:23:29Z</time>
      </trkpt>
      <trkpt lat="46.00554" lon="4.58303">
        <ele>458.4</ele>
        <time>2022-06-26T05:23:30Z</time>
      </trkpt>
      <trkpt lat="46.00557" lon="4.58304">
        <ele>458.8</ele>
        <time>2022-06-26T05:23:31Z</time>
      </trkpt>
      <trkpt lat="46.00559" lon="4.58305">
        <ele>459</ele>
        <time>2022-06-26T05:23:32Z</time>
      </trkpt>
      <trkpt lat="46.00561" lon="4.58306">
        <ele>459</ele>
        <time>2022-06-26T05:23:33Z</time>
      </trkpt>
      <trkpt lat="46.00563" lon="4.58306">
        <ele>459</ele>
        <time>2022-06-26T05:23:34Z</time>
      </trkpt>
      <trkpt lat="46.00565" lon="4.58307">
        <ele>459.2</ele>
        <time>2022-06-26T05:23:35Z</time>
      </trkpt>
      <trkpt lat="46.00567" lon="4.58307">
        <ele>459.2</ele>
        <time>2022-06-26T05:23:36Z</time>
      </trkpt>
      <trkpt lat="46.0057" lon="4.58307">
        <ele>459.4</ele>
        <time>2022-06-26T05:23:37Z</time>
      </trkpt>
      <trkpt lat="46.00572" lon="4.58308">
        <ele>459.4</ele>
        <time>2022-06-26T05:23:38Z</time>
      </trkpt>
      <trkpt lat="46.00574" lon="4.58309">
        <ele>459.6</ele>
        <time>2022-06-26T05:23:39Z</time>
      </trkpt>
      <trkpt lat="46.00576" lon="4.58311">
        <ele>459.6</ele>
        <time>2022-06-26T05:23:40Z</time>
      </trkpt>
      <trkpt lat="46.00578" lon="4.58311">
        <ele>460</ele>
        <time>2022-06-26T05:23:41Z</time>
      </trkpt>
      <trkpt lat="46.00581" lon="4.58312">
        <ele>460</ele>
        <time>2022-06-26T05:23:42Z</time>
      </trkpt>
      <trkpt lat="46.00583" lon="4.58313">
        <ele>460.4</ele>
        <time>2022-06-26T05:23:43Z</time>
      </trkpt>
      <trkpt lat="46.00585" lon="4.58313">
        <ele>460.4</ele>
        <time>2022-06-26T05:23:44Z</time>
      </trkpt>
      <trkpt lat="46.00588" lon="4.58314">
        <ele>460.6</ele>
        <time>2022-06-26T05:23:45Z</time>
      </trkpt>
      <trkpt lat="46.0059" lon="4.58313">
        <ele>460.6</ele>
        <time>2022-06-26T05:23:46Z</time>
      </trkpt>
      <trkpt lat="46.00593" lon="4.58313">
        <ele>461</ele>
        <time>2022-06-26T05:23:47Z</time>
      </trkpt>
      <trkpt lat="46.00595" lon="4.58312">
        <ele>461</ele>
        <time>2022-06-26T05:23:48Z</time>
      </trkpt>
      <trkpt lat="46.00597" lon="4.58311">
        <ele>461.2</ele>
        <time>2022-06-26T05:23:49Z</time>
      </trkpt>
      <trkpt lat="46.006" lon="4.58309">
        <ele>461.2</ele>
        <time>2022-06-26T05:23:50Z</time>
      </trkpt>
      <trkpt lat="46.00601" lon="4.58307">
        <ele>461.2</ele>
        <time>2022-06-26T05:23:51Z</time>
      </trkpt>
      <trkpt lat="46.00603" lon="4.58304">
        <ele>461.4</ele>
        <time>2022-06-26T05:23:52Z</time>
      </trkpt>
      <trkpt lat="46.00604" lon="4.58301">
        <ele>461.4</ele>
        <time>2022-06-26T05:23:53Z</time>
      </trkpt>
      <trkpt lat="46.00603" lon="4.58298">
        <ele>461.8</ele>
        <time>2022-06-26T05:23:54Z</time>
      </trkpt>
      <trkpt lat="46.00602" lon="4.58295">
        <ele>461.8</ele>
        <time>2022-06-26T05:23:55Z</time>
      </trkpt>
      <trkpt lat="46.00601" lon="4.58292">
        <ele>462</ele>
        <time>2022-06-26T05:23:56Z</time>
      </trkpt>
      <trkpt lat="46.00599" lon="4.58289">
        <ele>462</ele>
        <time>2022-06-26T05:23:57Z</time>
      </trkpt>
      <trkpt lat="46.00596" lon="4.58287">
        <ele>462.4</ele>
        <time>2022-06-26T05:23:58Z</time>
      </trkpt>
      <trkpt lat="46.00594" lon="4.58285">
        <ele>462.4</ele>
        <time>2022-06-26T05:23:59Z</time>
      </trkpt>
      <trkpt lat="46.00591" lon="4.58284">
        <ele>462.6</ele>
        <time>2022-06-26T05:24:00Z</time>
      </trkpt>
      <trkpt lat="46.00589" lon="4.58284">
        <ele>462.6</ele>
        <time>2022-06-26T05:24:01Z</time>
      </trkpt>
      <trkpt lat="46.00586" lon="4.58283">
        <ele>462.6</ele>
        <time>2022-06-26T05:24:02Z</time>
      </trkpt>
      <trkpt lat="46.00583" lon="4.58283">
        <ele>463</ele>
        <time>2022-06-26T05:24:03Z</time>
      </trkpt>
      <trkpt lat="46.00581" lon="4.58281">
        <ele>463</ele>
        <time>2022-06-26T05:24:04Z</time>
      </trkpt>
      <trkpt lat="46.00578" lon="4.5828">
        <ele>463</ele>
        <time>2022-06-26T05:24:05Z</time>
      </trkpt>
      <trkpt lat="46.00576" lon="4.58279">
        <ele>463</ele>
        <time>2022-06-26T05:24:06Z</time>
      </trkpt>
      <trkpt lat="46.00573" lon="4.58277">
        <ele>463.2</ele>
        <time>2022-06-26T05:24:07Z</time>
      </trkpt>
      <trkpt lat="46.00571" lon="4.58275">
        <ele>463.2</ele>
        <time>2022-06-26T05:24:08Z</time>
      </trkpt>
      <trkpt lat="46.00569" lon="4.58273">
        <ele>463.6</ele>
        <time>2022-06-26T05:24:09Z</time>
      </trkpt>
      <trkpt lat="46.00567" lon="4.58271">
        <ele>463.6</ele>
        <time>2022-06-26T05:24:10Z</time>
      </trkpt>
      <trkpt lat="46.00565" lon="4.5827">
        <ele>463.8</ele>
        <time>2022-06-26T05:24:11Z</time>
      </trkpt>
      <trkpt lat="46.00563" lon="4.58268">
        <ele>464</ele>
        <time>2022-06-26T05:24:12Z</time>
      </trkpt>
      <trkpt lat="46.00561" lon="4.58266">
        <ele>464.2</ele>
        <time>2022-06-26T05:24:13Z</time>
      </trkpt>
      <trkpt lat="46.00559" lon="4.58264">
        <ele>464.6</ele>
        <time>2022-06-26T05:24:14Z</time>
      </trkpt>
      <trkpt lat="46.00557" lon="4.58263">
        <ele>464.8</ele>
        <time>2022-06-26T05:24:15Z</time>
      </trkpt>
      <trkpt lat="46.00555" lon="4.58261">
        <ele>464.8</ele>
        <time>2022-06-26T05:24:16Z</time>
      </trkpt>
      <trkpt lat="46.00553" lon="4.58259">
        <ele>465</ele>
        <time>2022-06-26T05:24:17Z</time>
      </trkpt>
      <trkpt lat="46.00551" lon="4.58257">
        <ele>465</ele>
        <time>2022-06-26T05:24:18Z</time>
      </trkpt>
      <trkpt lat="46.0055" lon="4.58255">
        <ele>465.4</ele>
        <time>2022-06-26T05:24:19Z</time>
      </trkpt>
      <trkpt lat="46.00548" lon="4.58253">
        <ele>465.4</ele>
        <time>2022-06-26T05:24:20Z</time>
      </trkpt>
      <trkpt lat="46.00546" lon="4.58252">
        <ele>465.6</ele>
        <time>2022-06-26T05:24:21Z</time>
      </trkpt>
      <trkpt lat="46.00544" lon="4.58251">
        <ele>465.6</ele>
        <time>2022-06-26T05:24:22Z</time>
      </trkpt>
      <trkpt lat="46.00542" lon="4.58249">
        <ele>466</ele>
        <time>2022-06-26T05:24:23Z</time>
      </trkpt>
      <trkpt lat="46.0054" lon="4.58248">
        <ele>466</ele>
        <time>2022-06-26T05:24:24Z</time>
      </trkpt>
      <trkpt lat="46.00539" lon="4.58246">
        <ele>466.2</ele>
        <time>2022-06-26T05:24:25Z</time>
      </trkpt>
      <trkpt lat="46.00537" lon="4.58244">
        <ele>466.2</ele>
        <time>2022-06-26T05:24:26Z</time>
      </trkpt>
      <trkpt lat="46.00535" lon="4.58243">
        <ele>466.4</ele>
        <time>2022-06-26T05:24:27Z</time>
      </trkpt>
      <trkpt lat="46.00533" lon="4.58241">
        <ele>466.4</ele>
        <time>2022-06-26T05:24:28Z</time>
      </trkpt>
      <trkpt lat="46.00532" lon="4.5824">
        <ele>466.8</ele>
        <time>2022-06-26T05:24:29Z</time>
      </trkpt>
      <trkpt lat="46.0053" lon="4.58239">
        <ele>467</ele>
        <time>2022-06-26T05:24:30Z</time>
      </trkpt>
      <trkpt lat="46.00528" lon="4.58238">
        <ele>467</ele>
        <time>2022-06-26T05:24:31Z</time>
      </trkpt>
      <trkpt lat="46.00526" lon="4.58238">
        <ele>467.2</ele>
        <time>2022-06-26T05:24:32Z</time>
      </trkpt>
      <trkpt lat="46.00524" lon="4.58237">
        <ele>467.2</ele>
        <time>2022-06-26T05:24:33Z</time>
      </trkpt>
      <trkpt lat="46.00522" lon="4.58237">
        <ele>467.4</ele>
        <time>2022-06-26T05:24:34Z</time>
      </trkpt>
      <trkpt lat="46.00519" lon="4.58237">
        <ele>467.4</ele>
        <time>2022-06-26T05:24:35Z</time>
      </trkpt>
      <trkpt lat="46.00517" lon="4.58237">
        <ele>467.6</ele>
        <time>2022-06-26T05:24:36Z</time>
      </trkpt>
      <trkpt lat="46.00515" lon="4.58237">
        <ele>467.6</ele>
        <time>2022-06-26T05:24:37Z</time>
      </trkpt>
      <trkpt lat="46.00514" lon="4.58237">
        <ele>468</ele>
        <time>2022-06-26T05:24:38Z</time>
      </trkpt>
      <trkpt lat="46.00512" lon="4.58237">
        <ele>468</ele>
        <time>2022-06-26T05:24:39Z</time>
      </trkpt>
      <trkpt lat="46.0051" lon="4.58238">
        <ele>468.2</ele>
        <time>2022-06-26T05:24:40Z</time>
      </trkpt>
      <trkpt lat="46.00508" lon="4.58239">
        <ele>468.2</ele>
        <time>2022-06-26T05:24:41Z</time>
      </trkpt>
      <trkpt lat="46.00506" lon="4.5824">
        <ele>468.6</ele>
        <time>2022-06-26T05:24:42Z</time>
      </trkpt>
      <trkpt lat="46.00504" lon="4.5824">
        <ele>468.6</ele>
        <time>2022-06-26T05:24:43Z</time>
      </trkpt>
      <trkpt lat="46.00501" lon="4.5824">
        <ele>468.8</ele>
        <time>2022-06-26T05:24:44Z</time>
      </trkpt>
      <trkpt lat="46.00499" lon="4.58241">
        <ele>468.8</ele>
        <time>2022-06-26T05:24:45Z</time>
      </trkpt>
      <trkpt lat="46.00497" lon="4.58242">
        <ele>469.2</ele>
        <time>2022-06-26T05:24:46Z</time>
      </trkpt>
      <trkpt lat="46.00495" lon="4.58243">
        <ele>469.4</ele>
        <time>2022-06-26T05:24:47Z</time>
      </trkpt>
      <trkpt lat="46.00493" lon="4.58243">
        <ele>469.8</ele>
        <time>2022-06-26T05:24:49Z</time>
      </trkpt>
      <trkpt lat="46.00491" lon="4.58243">
        <ele>469.8</ele>
        <time>2022-06-26T05:24:50Z</time>
      </trkpt>
      <trkpt lat="46.00488" lon="4.58243">
        <ele>470.2</ele>
        <time>2022-06-26T05:24:51Z</time>
      </trkpt>
      <trkpt lat="46.00486" lon="4.58243">
        <ele>470.4</ele>
        <time>2022-06-26T05:24:52Z</time>
      </trkpt>
      <trkpt lat="46.00484" lon="4.58243">
        <ele>470.4</ele>
        <time>2022-06-26T05:24:53Z</time>
      </trkpt>
      <trkpt lat="46.00482" lon="4.58243">
        <ele>470.4</ele>
        <time>2022-06-26T05:24:54Z</time>
      </trkpt>
      <trkpt lat="46.0048" lon="4.58244">
        <ele>470.8</ele>
        <time>2022-06-26T05:24:55Z</time>
      </trkpt>
      <trkpt lat="46.00477" lon="4.58244">
        <ele>470.8</ele>
        <time>2022-06-26T05:24:56Z</time>
      </trkpt>
      <trkpt lat="46.00475" lon="4.58244">
        <ele>471.2</ele>
        <time>2022-06-26T05:24:57Z</time>
      </trkpt>
      <trkpt lat="46.00473" lon="4.58244">
        <ele>471.2</ele>
        <time>2022-06-26T05:24:58Z</time>
      </trkpt>
      <trkpt lat="46.00471" lon="4.58244">
        <ele>471.6</ele>
        <time>2022-06-26T05:24:59Z</time>
      </trkpt>
      <trkpt lat="46.00469" lon="4.58244">
        <ele>471.6</ele>
        <time>2022-06-26T05:25:00Z</time>
      </trkpt>
      <trkpt lat="46.00467" lon="4.58244">
        <ele>471.8</ele>
        <time>2022-06-26T05:25:01Z</time>
      </trkpt>
      <trkpt lat="46.00465" lon="4.58243">
        <ele>471.8</ele>
        <time>2022-06-26T05:25:02Z</time>
      </trkpt>
      <trkpt lat="46.00463" lon="4.58243">
        <ele>472.2</ele>
        <time>2022-06-26T05:25:03Z</time>
      </trkpt>
      <trkpt lat="46.00461" lon="4.58243">
        <ele>472.2</ele>
        <time>2022-06-26T05:25:04Z</time>
      </trkpt>
      <trkpt lat="46.00459" lon="4.58242">
        <ele>472.4</ele>
        <time>2022-06-26T05:25:05Z</time>
      </trkpt>
      <trkpt lat="46.00457" lon="4.58242">
        <ele>472.4</ele>
        <time>2022-06-26T05:25:06Z</time>
      </trkpt>
      <trkpt lat="46.00454" lon="4.58241">
        <ele>472.6</ele>
        <time>2022-06-26T05:25:07Z</time>
      </trkpt>
      <trkpt lat="46.00452" lon="4.5824">
        <ele>472.6</ele>
        <time>2022-06-26T05:25:08Z</time>
      </trkpt>
      <trkpt lat="46.0045" lon="4.5824">
        <ele>473</ele>
        <time>2022-06-26T05:25:09Z</time>
      </trkpt>
      <trkpt lat="46.00448" lon="4.58239">
        <ele>473</ele>
        <time>2022-06-26T05:25:10Z</time>
      </trkpt>
      <trkpt lat="46.00446" lon="4.58238">
        <ele>473.2</ele>
        <time>2022-06-26T05:25:11Z</time>
      </trkpt>
      <trkpt lat="46.00444" lon="4.58238">
        <ele>473.2</ele>
        <time>2022-06-26T05:25:12Z</time>
      </trkpt>
      <trkpt lat="46.00441" lon="4.58237">
        <ele>473.6</ele>
        <time>2022-06-26T05:25:13Z</time>
      </trkpt>
      <trkpt lat="46.00439" lon="4.58237">
        <ele>473.6</ele>
        <time>2022-06-26T05:25:14Z</time>
      </trkpt>
      <trkpt lat="46.00437" lon="4.58237">
        <ele>473.8</ele>
        <time>2022-06-26T05:25:15Z</time>
      </trkpt>
      <trkpt lat="46.00435" lon="4.58236">
        <ele>473.8</ele>
        <time>2022-06-26T05:25:16Z</time>
      </trkpt>
      <trkpt lat="46.00433" lon="4.58235">
        <ele>474</ele>
        <time>2022-06-26T05:25:17Z</time>
      </trkpt>
      <trkpt lat="46.00431" lon="4.58234">
        <ele>474</ele>
        <time>2022-06-26T05:25:18Z</time>
      </trkpt>
      <trkpt lat="46.00429" lon="4.58234">
        <ele>474.4</ele>
        <time>2022-06-26T05:25:19Z</time>
      </trkpt>
      <trkpt lat="46.00427" lon="4.58233">
        <ele>474.4</ele>
        <time>2022-06-26T05:25:20Z</time>
      </trkpt>
      <trkpt lat="46.00425" lon="4.58232">
        <ele>474.6</ele>
        <time>2022-06-26T05:25:21Z</time>
      </trkpt>
      <trkpt lat="46.00423" lon="4.58232">
        <ele>474.6</ele>
        <time>2022-06-26T05:25:22Z</time>
      </trkpt>
      <trkpt lat="46.00421" lon="4.58231">
        <ele>474.8</ele>
        <time>2022-06-26T05:25:23Z</time>
      </trkpt>
      <trkpt lat="46.00419" lon="4.5823">
        <ele>474.8</ele>
        <time>2022-06-26T05:25:24Z</time>
      </trkpt>
      <trkpt lat="46.00417" lon="4.58229">
        <ele>475.2</ele>
        <time>2022-06-26T05:25:25Z</time>
      </trkpt>
      <trkpt lat="46.00415" lon="4.58228">
        <ele>475.4</ele>
        <time>2022-06-26T05:25:26Z</time>
      </trkpt>
      <trkpt lat="46.00413" lon="4.58228">
        <ele>475.6</ele>
        <time>2022-06-26T05:25:27Z</time>
      </trkpt>
      <trkpt lat="46.00412" lon="4.58227">
        <ele>475.6</ele>
        <time>2022-06-26T05:25:28Z</time>
      </trkpt>
      <trkpt lat="46.0041" lon="4.58226">
        <ele>476</ele>
        <time>2022-06-26T05:25:29Z</time>
      </trkpt>
      <trkpt lat="46.00408" lon="4.58225">
        <ele>476</ele>
        <time>2022-06-26T05:25:30Z</time>
      </trkpt>
      <trkpt lat="46.00406" lon="4.58225">
        <ele>476.4</ele>
        <time>2022-06-26T05:25:31Z</time>
      </trkpt>
      <trkpt lat="46.00404" lon="4.58224">
        <ele>476.6</ele>
        <time>2022-06-26T05:25:32Z</time>
      </trkpt>
      <trkpt lat="46.00402" lon="4.58224">
        <ele>476.6</ele>
        <time>2022-06-26T05:25:33Z</time>
      </trkpt>
      <trkpt lat="46.004" lon="4.58224">
        <ele>476.8</ele>
        <time>2022-06-26T05:25:34Z</time>
      </trkpt>
      <trkpt lat="46.00398" lon="4.58223">
        <ele>476.8</ele>
        <time>2022-06-26T05:25:35Z</time>
      </trkpt>
      <trkpt lat="46.00396" lon="4.58222">
        <ele>477.2</ele>
        <time>2022-06-26T05:25:36Z</time>
      </trkpt>
      <trkpt lat="46.00394" lon="4.58222">
        <ele>477.4</ele>
        <time>2022-06-26T05:25:37Z</time>
      </trkpt>
      <trkpt lat="46.00392" lon="4.58221">
        <ele>477.4</ele>
        <time>2022-06-26T05:25:38Z</time>
      </trkpt>
      <trkpt lat="46.0039" lon="4.58221">
        <ele>477.6</ele>
        <time>2022-06-26T05:25:39Z</time>
      </trkpt>
      <trkpt lat="46.00388" lon="4.58221">
        <ele>477.6</ele>
        <time>2022-06-26T05:25:40Z</time>
      </trkpt>
      <trkpt lat="46.00386" lon="4.58221">
        <ele>478</ele>
        <time>2022-06-26T05:25:41Z</time>
      </trkpt>
      <trkpt lat="46.00384" lon="4.58221">
        <ele>478</ele>
        <time>2022-06-26T05:25:42Z</time>
      </trkpt>
      <trkpt lat="46.00382" lon="4.5822">
        <ele>478.2</ele>
        <time>2022-06-26T05:25:43Z</time>
      </trkpt>
      <trkpt lat="46.0038" lon="4.58221">
        <ele>478.2</ele>
        <time>2022-06-26T05:25:44Z</time>
      </trkpt>
      <trkpt lat="46.00378" lon="4.58221">
        <ele>478.6</ele>
        <time>2022-06-26T05:25:45Z</time>
      </trkpt>
      <trkpt lat="46.00376" lon="4.58221">
        <ele>478.6</ele>
        <time>2022-06-26T05:25:46Z</time>
      </trkpt>
      <trkpt lat="46.00374" lon="4.5822">
        <ele>479</ele>
        <time>2022-06-26T05:25:47Z</time>
      </trkpt>
      <trkpt lat="46.00372" lon="4.5822">
        <ele>479</ele>
        <time>2022-06-26T05:25:48Z</time>
      </trkpt>
      <trkpt lat="46.0037" lon="4.5822">
        <ele>479.2</ele>
        <time>2022-06-26T05:25:49Z</time>
      </trkpt>
      <trkpt lat="46.00368" lon="4.58219">
        <ele>479.2</ele>
        <time>2022-06-26T05:25:50Z</time>
      </trkpt>
      <trkpt lat="46.00366" lon="4.5822">
        <ele>479.2</ele>
        <time>2022-06-26T05:25:51Z</time>
      </trkpt>
      <trkpt lat="46.00364" lon="4.5822">
        <ele>479.6</ele>
        <time>2022-06-26T05:25:52Z</time>
      </trkpt>
      <trkpt lat="46.00362" lon="4.5822">
        <ele>479.6</ele>
        <time>2022-06-26T05:25:53Z</time>
      </trkpt>
      <trkpt lat="46.0036" lon="4.58221">
        <ele>480</ele>
        <time>2022-06-26T05:25:54Z</time>
      </trkpt>
      <trkpt lat="46.00358" lon="4.58221">
        <ele>480</ele>
        <time>2022-06-26T05:25:55Z</time>
      </trkpt>
      <trkpt lat="46.00356" lon="4.58221">
        <ele>480.2</ele>
        <time>2022-06-26T05:25:56Z</time>
      </trkpt>
      <trkpt lat="46.00354" lon="4.5822">
        <ele>480.2</ele>
        <time>2022-06-26T05:25:57Z</time>
      </trkpt>
      <trkpt lat="46.00352" lon="4.5822">
        <ele>480.4</ele>
        <time>2022-06-26T05:25:58Z</time>
      </trkpt>
      <trkpt lat="46.0035" lon="4.58219">
        <ele>480.6</ele>
        <time>2022-06-26T05:25:59Z</time>
      </trkpt>
      <trkpt lat="46.00348" lon="4.58218">
        <ele>480.6</ele>
        <time>2022-06-26T05:26:00Z</time>
      </trkpt>
      <trkpt lat="46.00346" lon="4.58217">
        <ele>481</ele>
        <time>2022-06-26T05:26:01Z</time>
      </trkpt>
      <trkpt lat="46.00344" lon="4.58216">
        <ele>481</ele>
        <time>2022-06-26T05:26:02Z</time>
      </trkpt>
      <trkpt lat="46.00342" lon="4.58215">
        <ele>481.4</ele>
        <time>2022-06-26T05:26:03Z</time>
      </trkpt>
      <trkpt lat="46.0034" lon="4.58213">
        <ele>481.4</ele>
        <time>2022-06-26T05:26:04Z</time>
      </trkpt>
      <trkpt lat="46.00338" lon="4.58212">
        <ele>481.6</ele>
        <time>2022-06-26T05:26:05Z</time>
      </trkpt>
      <trkpt lat="46.00337" lon="4.5821">
        <ele>481.6</ele>
        <time>2022-06-26T05:26:06Z</time>
      </trkpt>
      <trkpt lat="46.00335" lon="4.58209">
        <ele>481.8</ele>
        <time>2022-06-26T05:26:07Z</time>
      </trkpt>
      <trkpt lat="46.00333" lon="4.58207">
        <ele>481.8</ele>
        <time>2022-06-26T05:26:08Z</time>
      </trkpt>
      <trkpt lat="46.00331" lon="4.58206">
        <ele>482.2</ele>
        <time>2022-06-26T05:26:09Z</time>
      </trkpt>
      <trkpt lat="46.0033" lon="4.58204">
        <ele>482.2</ele>
        <time>2022-06-26T05:26:10Z</time>
      </trkpt>
      <trkpt lat="46.00328" lon="4.58202">
        <ele>482.4</ele>
        <time>2022-06-26T05:26:11Z</time>
      </trkpt>
      <trkpt lat="46.00327" lon="4.582">
        <ele>482.4</ele>
        <time>2022-06-26T05:26:12Z</time>
      </trkpt>
      <trkpt lat="46.00325" lon="4.58198">
        <ele>482.6</ele>
        <time>2022-06-26T05:26:13Z</time>
      </trkpt>
      <trkpt lat="46.00324" lon="4.58196">
        <ele>482.6</ele>
        <time>2022-06-26T05:26:14Z</time>
      </trkpt>
      <trkpt lat="46.00322" lon="4.58195">
        <ele>483</ele>
        <time>2022-06-26T05:26:15Z</time>
      </trkpt>
      <trkpt lat="46.00321" lon="4.58193">
        <ele>483</ele>
        <time>2022-06-26T05:26:16Z</time>
      </trkpt>
      <trkpt lat="46.00319" lon="4.58191">
        <ele>483.2</ele>
        <time>2022-06-26T05:26:17Z</time>
      </trkpt>
      <trkpt lat="46.00318" lon="4.58189">
        <ele>483.2</ele>
        <time>2022-06-26T05:26:18Z</time>
      </trkpt>
      <trkpt lat="46.00316" lon="4.58187">
        <ele>483.6</ele>
        <time>2022-06-26T05:26:19Z</time>
      </trkpt>
      <trkpt lat="46.00314" lon="4.58185">
        <ele>483.6</ele>
        <time>2022-06-26T05:26:20Z</time>
      </trkpt>
      <trkpt lat="46.00313" lon="4.58184">
        <ele>484</ele>
        <time>2022-06-26T05:26:21Z</time>
      </trkpt>
      <trkpt lat="46.00312" lon="4.58181">
        <ele>484</ele>
        <time>2022-06-26T05:26:22Z</time>
      </trkpt>
      <trkpt lat="46.0031" lon="4.58179">
        <ele>484.2</ele>
        <time>2022-06-26T05:26:23Z</time>
      </trkpt>
      <trkpt lat="46.00309" lon="4.58177">
        <ele>484.2</ele>
        <time>2022-06-26T05:26:24Z</time>
      </trkpt>
      <trkpt lat="46.00308" lon="4.58175">
        <ele>484.6</ele>
        <time>2022-06-26T05:26:25Z</time>
      </trkpt>
      <trkpt lat="46.00307" lon="4.58172">
        <ele>484.6</ele>
        <time>2022-06-26T05:26:26Z</time>
      </trkpt>
      <trkpt lat="46.00306" lon="4.58169">
        <ele>484.8</ele>
        <time>2022-06-26T05:26:27Z</time>
      </trkpt>
      <trkpt lat="46.00305" lon="4.58166">
        <ele>484.8</ele>
        <time>2022-06-26T05:26:28Z</time>
      </trkpt>
      <trkpt lat="46.00304" lon="4.58163">
        <ele>485.2</ele>
        <time>2022-06-26T05:26:29Z</time>
      </trkpt>
      <trkpt lat="46.00304" lon="4.5816">
        <ele>485.2</ele>
        <time>2022-06-26T05:26:30Z</time>
      </trkpt>
      <trkpt lat="46.00303" lon="4.58157">
        <ele>485.4</ele>
        <time>2022-06-26T05:26:31Z</time>
      </trkpt>
      <trkpt lat="46.00302" lon="4.58154">
        <ele>485.4</ele>
        <time>2022-06-26T05:26:32Z</time>
      </trkpt>
      <trkpt lat="46.00301" lon="4.58151">
        <ele>485.6</ele>
        <time>2022-06-26T05:26:33Z</time>
      </trkpt>
      <trkpt lat="46.00301" lon="4.58148">
        <ele>486</ele>
        <time>2022-06-26T05:26:34Z</time>
      </trkpt>
      <trkpt lat="46.003" lon="4.58145">
        <ele>486</ele>
        <time>2022-06-26T05:26:35Z</time>
      </trkpt>
      <trkpt lat="46.003" lon="4.58142">
        <ele>486.2</ele>
        <time>2022-06-26T05:26:36Z</time>
      </trkpt>
      <trkpt lat="46.00299" lon="4.58139">
        <ele>486.2</ele>
        <time>2022-06-26T05:26:37Z</time>
      </trkpt>
      <trkpt lat="46.00299" lon="4.58136">
        <ele>486.6</ele>
        <time>2022-06-26T05:26:38Z</time>
      </trkpt>
      <trkpt lat="46.00298" lon="4.58133">
        <ele>486.6</ele>
        <time>2022-06-26T05:26:39Z</time>
      </trkpt>
      <trkpt lat="46.00298" lon="4.58129">
        <ele>486.8</ele>
        <time>2022-06-26T05:26:40Z</time>
      </trkpt>
      <trkpt lat="46.00298" lon="4.58126">
        <ele>487</ele>
        <time>2022-06-26T05:26:41Z</time>
      </trkpt>
      <trkpt lat="46.00298" lon="4.58123">
        <ele>487.2</ele>
        <time>2022-06-26T05:26:42Z</time>
      </trkpt>
      <trkpt lat="46.00298" lon="4.5812">
        <ele>487.2</ele>
        <time>2022-06-26T05:26:43Z</time>
      </trkpt>
      <trkpt lat="46.00298" lon="4.58117">
        <ele>487.4</ele>
        <time>2022-06-26T05:26:44Z</time>
      </trkpt>
      <trkpt lat="46.00298" lon="4.58114">
        <ele>487.4</ele>
        <time>2022-06-26T05:26:45Z</time>
      </trkpt>
      <trkpt lat="46.00298" lon="4.58111">
        <ele>487.8</ele>
        <time>2022-06-26T05:26:46Z</time>
      </trkpt>
      <trkpt lat="46.00298" lon="4.58108">
        <ele>487.8</ele>
        <time>2022-06-26T05:26:47Z</time>
      </trkpt>
      <trkpt lat="46.00298" lon="4.58105">
        <ele>488.2</ele>
        <time>2022-06-26T05:26:48Z</time>
      </trkpt>
      <trkpt lat="46.00299" lon="4.58102">
        <ele>488.4</ele>
        <time>2022-06-26T05:26:49Z</time>
      </trkpt>
      <trkpt lat="46.00299" lon="4.58099">
        <ele>488.4</ele>
        <time>2022-06-26T05:26:50Z</time>
      </trkpt>
      <trkpt lat="46.00299" lon="4.58096">
        <ele>488.8</ele>
        <time>2022-06-26T05:26:51Z</time>
      </trkpt>
      <trkpt lat="46.00298" lon="4.58093">
        <ele>488.8</ele>
        <time>2022-06-26T05:26:52Z</time>
      </trkpt>
      <trkpt lat="46.00298" lon="4.5809">
        <ele>489.2</ele>
        <time>2022-06-26T05:26:53Z</time>
      </trkpt>
      <trkpt lat="46.00298" lon="4.58087">
        <ele>489.4</ele>
        <time>2022-06-26T05:26:54Z</time>
      </trkpt>
      <trkpt lat="46.00298" lon="4.58084">
        <ele>489.4</ele>
        <time>2022-06-26T05:26:55Z</time>
      </trkpt>
      <trkpt lat="46.00298" lon="4.58081">
        <ele>489.6</ele>
        <time>2022-06-26T05:26:56Z</time>
      </trkpt>
      <trkpt lat="46.00298" lon="4.58078">
        <ele>489.6</ele>
        <time>2022-06-26T05:26:57Z</time>
      </trkpt>
      <trkpt lat="46.00298" lon="4.58076">
        <ele>490</ele>
        <time>2022-06-26T05:26:58Z</time>
      </trkpt>
      <trkpt lat="46.00299" lon="4.58073">
        <ele>490</ele>
        <time>2022-06-26T05:26:59Z</time>
      </trkpt>
      <trkpt lat="46.00299" lon="4.5807">
        <ele>490.2</ele>
        <time>2022-06-26T05:27:00Z</time>
      </trkpt>
      <trkpt lat="46.00299" lon="4.58067">
        <ele>490.2</ele>
        <time>2022-06-26T05:27:01Z</time>
      </trkpt>
      <trkpt lat="46.00299" lon="4.58064">
        <ele>490.6</ele>
        <time>2022-06-26T05:27:02Z</time>
      </trkpt>
      <trkpt lat="46.00299" lon="4.58061">
        <ele>490.6</ele>
        <time>2022-06-26T05:27:03Z</time>
      </trkpt>
      <trkpt lat="46.00298" lon="4.58058">
        <ele>491</ele>
        <time>2022-06-26T05:27:04Z</time>
      </trkpt>
      <trkpt lat="46.00298" lon="4.58054">
        <ele>491</ele>
        <time>2022-06-26T05:27:05Z</time>
      </trkpt>
      <trkpt lat="46.00297" lon="4.58051">
        <ele>491.2</ele>
        <time>2022-06-26T05:27:06Z</time>
      </trkpt>
      <trkpt lat="46.00296" lon="4.58048">
        <ele>491.4</ele>
        <time>2022-06-26T05:27:07Z</time>
      </trkpt>
      <trkpt lat="46.00296" lon="4.58045">
        <ele>491.6</ele>
        <time>2022-06-26T05:27:08Z</time>
      </trkpt>
      <trkpt lat="46.00294" lon="4.58043">
        <ele>491.6</ele>
        <time>2022-06-26T05:27:09Z</time>
      </trkpt>
      <trkpt lat="46.00293" lon="4.5804">
        <ele>492</ele>
        <time>2022-06-26T05:27:10Z</time>
      </trkpt>
      <trkpt lat="46.00292" lon="4.58038">
        <ele>492</ele>
        <time>2022-06-26T05:27:11Z</time>
      </trkpt>
      <trkpt lat="46.0029" lon="4.58035">
        <ele>492.2</ele>
        <time>2022-06-26T05:27:12Z</time>
      </trkpt>
      <trkpt lat="46.00288" lon="4.58034">
        <ele>492.2</ele>
        <time>2022-06-26T05:27:13Z</time>
      </trkpt>
      <trkpt lat="46.00286" lon="4.58032">
        <ele>492.4</ele>
        <time>2022-06-26T05:27:14Z</time>
      </trkpt>
      <trkpt lat="46.00284" lon="4.58031">
        <ele>492.4</ele>
        <time>2022-06-26T05:27:15Z</time>
      </trkpt>
      <trkpt lat="46.00281" lon="4.5803">
        <ele>492.8</ele>
        <time>2022-06-26T05:27:16Z</time>
      </trkpt>
      <trkpt lat="46.00279" lon="4.5803">
        <ele>492.8</ele>
        <time>2022-06-26T05:27:17Z</time>
      </trkpt>
      <trkpt lat="46.00277" lon="4.5803">
        <ele>493</ele>
        <time>2022-06-26T05:27:18Z</time>
      </trkpt>
      <trkpt lat="46.00274" lon="4.5803">
        <ele>493</ele>
        <time>2022-06-26T05:27:19Z</time>
      </trkpt>
      <trkpt lat="46.00272" lon="4.5803">
        <ele>493.2</ele>
        <time>2022-06-26T05:27:20Z</time>
      </trkpt>
      <trkpt lat="46.0027" lon="4.5803">
        <ele>493.2</ele>
        <time>2022-06-26T05:27:21Z</time>
      </trkpt>
      <trkpt lat="46.00268" lon="4.5803">
        <ele>493.6</ele>
        <time>2022-06-26T05:27:22Z</time>
      </trkpt>
      <trkpt lat="46.00265" lon="4.5803">
        <ele>493.8</ele>
        <time>2022-06-26T05:27:23Z</time>
      </trkpt>
      <trkpt lat="46.00263" lon="4.5803">
        <ele>493.8</ele>
        <time>2022-06-26T05:27:24Z</time>
      </trkpt>
      <trkpt lat="46.00261" lon="4.5803">
        <ele>494</ele>
        <time>2022-06-26T05:27:25Z</time>
      </trkpt>
      <trkpt lat="46.00259" lon="4.58029">
        <ele>494</ele>
        <time>2022-06-26T05:27:26Z</time>
      </trkpt>
      <trkpt lat="46.00257" lon="4.58029">
        <ele>494.4</ele>
        <time>2022-06-26T05:27:27Z</time>
      </trkpt>
      <trkpt lat="46.00254" lon="4.58028">
        <ele>494.4</ele>
        <time>2022-06-26T05:27:28Z</time>
      </trkpt>
      <trkpt lat="46.00252" lon="4.58027">
        <ele>494.8</ele>
        <time>2022-06-26T05:27:29Z</time>
      </trkpt>
      <trkpt lat="46.0025" lon="4.58027">
        <ele>495</ele>
        <time>2022-06-26T05:27:30Z</time>
      </trkpt>
      <trkpt lat="46.00248" lon="4.58026">
        <ele>495</ele>
        <time>2022-06-26T05:27:31Z</time>
      </trkpt>
      <trkpt lat="46.00246" lon="4.58025">
        <ele>495.2</ele>
        <time>2022-06-26T05:27:32Z</time>
      </trkpt>
      <trkpt lat="46.00244" lon="4.58024">
        <ele>495.2</ele>
        <time>2022-06-26T05:27:33Z</time>
      </trkpt>
      <trkpt lat="46.00242" lon="4.58023">
        <ele>495.6</ele>
        <time>2022-06-26T05:27:34Z</time>
      </trkpt>
      <trkpt lat="46.0024" lon="4.58022">
        <ele>495.6</ele>
        <time>2022-06-26T05:27:35Z</time>
      </trkpt>
      <trkpt lat="46.00238" lon="4.58021">
        <ele>496</ele>
        <time>2022-06-26T05:27:36Z</time>
      </trkpt>
      <trkpt lat="46.00236" lon="4.5802">
        <ele>496</ele>
        <time>2022-06-26T05:27:37Z</time>
      </trkpt>
      <trkpt lat="46.00234" lon="4.58018">
        <ele>496.4</ele>
        <time>2022-06-26T05:27:38Z</time>
      </trkpt>
      <trkpt lat="46.00232" lon="4.58016">
        <ele>496.4</ele>
        <time>2022-06-26T05:27:39Z</time>
      </trkpt>
      <trkpt lat="46.0023" lon="4.58014">
        <ele>496.8</ele>
        <time>2022-06-26T05:27:40Z</time>
      </trkpt>
      <trkpt lat="46.00229" lon="4.58013">
        <ele>497</ele>
        <time>2022-06-26T05:27:41Z</time>
      </trkpt>
      <trkpt lat="46.00227" lon="4.58011">
        <ele>497</ele>
        <time>2022-06-26T05:27:42Z</time>
      </trkpt>
      <trkpt lat="46.00225" lon="4.5801">
        <ele>497.2</ele>
        <time>2022-06-26T05:27:43Z</time>
      </trkpt>
      <trkpt lat="46.00223" lon="4.58009">
        <ele>497.2</ele>
        <time>2022-06-26T05:27:44Z</time>
      </trkpt>
      <trkpt lat="46.00221" lon="4.58008">
        <ele>497.6</ele>
        <time>2022-06-26T05:27:45Z</time>
      </trkpt>
      <trkpt lat="46.00219" lon="4.58006">
        <ele>497.6</ele>
        <time>2022-06-26T05:27:46Z</time>
      </trkpt>
      <trkpt lat="46.00217" lon="4.58005">
        <ele>497.8</ele>
        <time>2022-06-26T05:27:47Z</time>
      </trkpt>
      <trkpt lat="46.00216" lon="4.58004">
        <ele>497.8</ele>
        <time>2022-06-26T05:27:48Z</time>
      </trkpt>
      <trkpt lat="46.00214" lon="4.58003">
        <ele>498.2</ele>
        <time>2022-06-26T05:27:49Z</time>
      </trkpt>
      <trkpt lat="46.00212" lon="4.58001">
        <ele>498.2</ele>
        <time>2022-06-26T05:27:50Z</time>
      </trkpt>
      <trkpt lat="46.0021" lon="4.58">
        <ele>498.4</ele>
        <time>2022-06-26T05:27:51Z</time>
      </trkpt>
      <trkpt lat="46.00209" lon="4.57999">
        <ele>498.4</ele>
        <time>2022-06-26T05:27:52Z</time>
      </trkpt>
      <trkpt lat="46.00207" lon="4.57998">
        <ele>498.8</ele>
        <time>2022-06-26T05:27:53Z</time>
      </trkpt>
      <trkpt lat="46.00206" lon="4.57997">
        <ele>498.8</ele>
        <time>2022-06-26T05:27:54Z</time>
      </trkpt>
      <trkpt lat="46.00204" lon="4.57996">
        <ele>499</ele>
        <time>2022-06-26T05:27:55Z</time>
      </trkpt>
      <trkpt lat="46.00202" lon="4.57995">
        <ele>499</ele>
        <time>2022-06-26T05:27:56Z</time>
      </trkpt>
      <trkpt lat="46.00201" lon="4.57993">
        <ele>499.2</ele>
        <time>2022-06-26T05:27:57Z</time>
      </trkpt>
      <trkpt lat="46.00199" lon="4.57992">
        <ele>499.2</ele>
        <time>2022-06-26T05:27:58Z</time>
      </trkpt>
      <trkpt lat="46.00197" lon="4.57991">
        <ele>499.6</ele>
        <time>2022-06-26T05:27:59Z</time>
      </trkpt>
      <trkpt lat="46.00196" lon="4.5799">
        <ele>499.6</ele>
        <time>2022-06-26T05:28:00Z</time>
      </trkpt>
      <trkpt lat="46.00194" lon="4.57989">
        <ele>499.8</ele>
        <time>2022-06-26T05:28:01Z</time>
      </trkpt>
      <trkpt lat="46.00192" lon="4.57988">
        <ele>499.8</ele>
        <time>2022-06-26T05:28:02Z</time>
      </trkpt>
      <trkpt lat="46.0019" lon="4.57987">
        <ele>500.2</ele>
        <time>2022-06-26T05:28:03Z</time>
      </trkpt>
      <trkpt lat="46.00188" lon="4.57985">
        <ele>500.2</ele>
        <time>2022-06-26T05:28:04Z</time>
      </trkpt>
      <trkpt lat="46.00187" lon="4.57984">
        <ele>500.4</ele>
        <time>2022-06-26T05:28:05Z</time>
      </trkpt>
      <trkpt lat="46.00185" lon="4.57983">
        <ele>500.4</ele>
        <time>2022-06-26T05:28:06Z</time>
      </trkpt>
      <trkpt lat="46.00183" lon="4.57982">
        <ele>500.4</ele>
        <time>2022-06-26T05:28:07Z</time>
      </trkpt>
      <trkpt lat="46.00181" lon="4.57981">
        <ele>500.8</ele>
        <time>2022-06-26T05:28:08Z</time>
      </trkpt>
      <trkpt lat="46.00179" lon="4.5798">
        <ele>500.8</ele>
        <time>2022-06-26T05:28:09Z</time>
      </trkpt>
      <trkpt lat="46.00178" lon="4.57979">
        <ele>501.2</ele>
        <time>2022-06-26T05:28:10Z</time>
      </trkpt>
      <trkpt lat="46.00176" lon="4.57979">
        <ele>501.2</ele>
        <time>2022-06-26T05:28:11Z</time>
      </trkpt>
      <trkpt lat="46.00174" lon="4.57978">
        <ele>501.4</ele>
        <time>2022-06-26T05:28:12Z</time>
      </trkpt>
      <trkpt lat="46.00172" lon="4.57977">
        <ele>501.4</ele>
        <time>2022-06-26T05:28:13Z</time>
      </trkpt>
      <trkpt lat="46.00171" lon="4.57977">
        <ele>501.8</ele>
        <time>2022-06-26T05:28:14Z</time>
      </trkpt>
      <trkpt lat="46.00169" lon="4.57976">
        <ele>501.8</ele>
        <time>2022-06-26T05:28:15Z</time>
      </trkpt>
      <trkpt lat="46.00167" lon="4.57976">
        <ele>502</ele>
        <time>2022-06-26T05:28:16Z</time>
      </trkpt>
      <trkpt lat="46.00166" lon="4.57975">
        <ele>502.2</ele>
        <time>2022-06-26T05:28:17Z</time>
      </trkpt>
      <trkpt lat="46.00164" lon="4.57975">
        <ele>502.2</ele>
        <time>2022-06-26T05:28:18Z</time>
      </trkpt>
      <trkpt lat="46.00162" lon="4.57975">
        <ele>502.4</ele>
        <time>2022-06-26T05:28:19Z</time>
      </trkpt>
      <trkpt lat="46.0016" lon="4.57975">
        <ele>502.4</ele>
        <time>2022-06-26T05:28:20Z</time>
      </trkpt>
      <trkpt lat="46.00158" lon="4.57975">
        <ele>502.8</ele>
        <time>2022-06-26T05:28:21Z</time>
      </trkpt>
      <trkpt lat="46.00156" lon="4.57976">
        <ele>502.8</ele>
        <time>2022-06-26T05:28:22Z</time>
      </trkpt>
      <trkpt lat="46.00154" lon="4.57976">
        <ele>503</ele>
        <time>2022-06-26T05:28:23Z</time>
      </trkpt>
      <trkpt lat="46.00152" lon="4.57977">
        <ele>503</ele>
        <time>2022-06-26T05:28:24Z</time>
      </trkpt>
      <trkpt lat="46.00151" lon="4.57977">
        <ele>503.2</ele>
        <time>2022-06-26T05:28:25Z</time>
      </trkpt>
      <trkpt lat="46.00149" lon="4.57978">
        <ele>503.2</ele>
        <time>2022-06-26T05:28:26Z</time>
      </trkpt>
      <trkpt lat="46.00147" lon="4.57978">
        <ele>503.6</ele>
        <time>2022-06-26T05:28:27Z</time>
      </trkpt>
      <trkpt lat="46.00145" lon="4.57979">
        <ele>503.6</ele>
        <time>2022-06-26T05:28:28Z</time>
      </trkpt>
      <trkpt lat="46.00143" lon="4.5798">
        <ele>503.8</ele>
        <time>2022-06-26T05:28:29Z</time>
      </trkpt>
      <trkpt lat="46.00141" lon="4.57981">
        <ele>503.8</ele>
        <time>2022-06-26T05:28:30Z</time>
      </trkpt>
      <trkpt lat="46.00139" lon="4.57982">
        <ele>504.2</ele>
        <time>2022-06-26T05:28:31Z</time>
      </trkpt>
      <trkpt lat="46.00137" lon="4.57983">
        <ele>504.2</ele>
        <time>2022-06-26T05:28:32Z</time>
      </trkpt>
      <trkpt lat="46.00136" lon="4.57985">
        <ele>504.4</ele>
        <time>2022-06-26T05:28:33Z</time>
      </trkpt>
      <trkpt lat="46.00134" lon="4.57986">
        <ele>504.4</ele>
        <time>2022-06-26T05:28:34Z</time>
      </trkpt>
      <trkpt lat="46.00133" lon="4.57989">
        <ele>504.6</ele>
        <time>2022-06-26T05:28:35Z</time>
      </trkpt>
      <trkpt lat="46.00132" lon="4.57991">
        <ele>504.6</ele>
        <time>2022-06-26T05:28:36Z</time>
      </trkpt>
      <trkpt lat="46.00131" lon="4.57993">
        <ele>505</ele>
        <time>2022-06-26T05:28:37Z</time>
      </trkpt>
      <trkpt lat="46.0013" lon="4.57996">
        <ele>505</ele>
        <time>2022-06-26T05:28:38Z</time>
      </trkpt>
      <trkpt lat="46.00129" lon="4.57998">
        <ele>505.2</ele>
        <time>2022-06-26T05:28:39Z</time>
      </trkpt>
      <trkpt lat="46.00129" lon="4.58001">
        <ele>505.2</ele>
        <time>2022-06-26T05:28:40Z</time>
      </trkpt>
      <trkpt lat="46.00127" lon="4.58006">
        <ele>505.4</ele>
        <time>2022-06-26T05:28:41Z</time>
      </trkpt>
      <trkpt lat="46.00127" lon="4.58009">
        <ele>505.6</ele>
        <time>2022-06-26T05:28:42Z</time>
      </trkpt>
      <trkpt lat="46.00127" lon="4.58012">
        <ele>505.6</ele>
        <time>2022-06-26T05:28:43Z</time>
      </trkpt>
      <trkpt lat="46.00126" lon="4.58014">
        <ele>505.6</ele>
        <time>2022-06-26T05:28:44Z</time>
      </trkpt>
      <trkpt lat="46.00125" lon="4.58017">
        <ele>506</ele>
        <time>2022-06-26T05:28:45Z</time>
      </trkpt>
      <trkpt lat="46.00124" lon="4.58019">
        <ele>506</ele>
        <time>2022-06-26T05:28:46Z</time>
      </trkpt>
      <trkpt lat="46.00123" lon="4.58021">
        <ele>506.4</ele>
        <time>2022-06-26T05:28:47Z</time>
      </trkpt>
      <trkpt lat="46.00122" lon="4.58023">
        <ele>506.4</ele>
        <time>2022-06-26T05:28:48Z</time>
      </trkpt>
      <trkpt lat="46.00122" lon="4.58026">
        <ele>506.6</ele>
        <time>2022-06-26T05:28:49Z</time>
      </trkpt>
      <trkpt lat="46.00121" lon="4.58028">
        <ele>506.6</ele>
        <time>2022-06-26T05:28:50Z</time>
      </trkpt>
      <trkpt lat="46.0012" lon="4.58031">
        <ele>506.6</ele>
        <time>2022-06-26T05:28:51Z</time>
      </trkpt>
      <trkpt lat="46.0012" lon="4.58033">
        <ele>507</ele>
        <time>2022-06-26T05:28:52Z</time>
      </trkpt>
      <trkpt lat="46.00119" lon="4.58035">
        <ele>507.2</ele>
        <time>2022-06-26T05:28:53Z</time>
      </trkpt>
      <trkpt lat="46.00118" lon="4.58037">
        <ele>507.4</ele>
        <time>2022-06-26T05:28:54Z</time>
      </trkpt>
      <trkpt lat="46.00117" lon="4.58039">
        <ele>507.4</ele>
        <time>2022-06-26T05:28:55Z</time>
      </trkpt>
      <trkpt lat="46.00116" lon="4.58041">
        <ele>507.6</ele>
        <time>2022-06-26T05:28:56Z</time>
      </trkpt>
      <trkpt lat="46.00115" lon="4.58043">
        <ele>507.6</ele>
        <time>2022-06-26T05:28:57Z</time>
      </trkpt>
      <trkpt lat="46.00114" lon="4.58045">
        <ele>508</ele>
        <time>2022-06-26T05:28:58Z</time>
      </trkpt>
      <trkpt lat="46.00112" lon="4.58047">
        <ele>508</ele>
        <time>2022-06-26T05:28:59Z</time>
      </trkpt>
      <trkpt lat="46.00111" lon="4.58048">
        <ele>508.2</ele>
        <time>2022-06-26T05:29:00Z</time>
      </trkpt>
      <trkpt lat="46.00109" lon="4.58049">
        <ele>508.2</ele>
        <time>2022-06-26T05:29:01Z</time>
      </trkpt>
      <trkpt lat="46.00107" lon="4.5805">
        <ele>508.6</ele>
        <time>2022-06-26T05:29:02Z</time>
      </trkpt>
      <trkpt lat="46.00105" lon="4.5805">
        <ele>508.6</ele>
        <time>2022-06-26T05:29:03Z</time>
      </trkpt>
      <trkpt lat="46.00103" lon="4.58051">
        <ele>508.8</ele>
        <time>2022-06-26T05:29:04Z</time>
      </trkpt>
      <trkpt lat="46.00102" lon="4.58051">
        <ele>508.8</ele>
        <time>2022-06-26T05:29:05Z</time>
      </trkpt>
      <trkpt lat="46.001" lon="4.58051">
        <ele>509</ele>
        <time>2022-06-26T05:29:06Z</time>
      </trkpt>
      <trkpt lat="46.00098" lon="4.58051">
        <ele>509</ele>
        <time>2022-06-26T05:29:07Z</time>
      </trkpt>
      <trkpt lat="46.00096" lon="4.58051">
        <ele>509.4</ele>
        <time>2022-06-26T05:29:08Z</time>
      </trkpt>
      <trkpt lat="46.00094" lon="4.58049">
        <ele>509.4</ele>
        <time>2022-06-26T05:29:09Z</time>
      </trkpt>
      <trkpt lat="46.00093" lon="4.58049">
        <ele>509.8</ele>
        <time>2022-06-26T05:29:10Z</time>
      </trkpt>
      <trkpt lat="46.00091" lon="4.58048">
        <ele>510</ele>
        <time>2022-06-26T05:29:12Z</time>
      </trkpt>
      <trkpt lat="46.00089" lon="4.58046">
        <ele>510</ele>
        <time>2022-06-26T05:29:13Z</time>
      </trkpt>
      <trkpt lat="46.00088" lon="4.58045">
        <ele>510.2</ele>
        <time>2022-06-26T05:29:14Z</time>
      </trkpt>
      <trkpt lat="46.00086" lon="4.58044">
        <ele>510.2</ele>
        <time>2022-06-26T05:29:15Z</time>
      </trkpt>
      <trkpt lat="46.00085" lon="4.58043">
        <ele>510.6</ele>
        <time>2022-06-26T05:29:16Z</time>
      </trkpt>
      <trkpt lat="46.00083" lon="4.58041">
        <ele>510.6</ele>
        <time>2022-06-26T05:29:17Z</time>
      </trkpt>
      <trkpt lat="46.00082" lon="4.5804">
        <ele>511</ele>
        <time>2022-06-26T05:29:18Z</time>
      </trkpt>
      <trkpt lat="46.0008" lon="4.58039">
        <ele>511</ele>
        <time>2022-06-26T05:29:19Z</time>
      </trkpt>
      <trkpt lat="46.00079" lon="4.58038">
        <ele>511.2</ele>
        <time>2022-06-26T05:29:20Z</time>
      </trkpt>
      <trkpt lat="46.00077" lon="4.58037">
        <ele>511.2</ele>
        <time>2022-06-26T05:29:21Z</time>
      </trkpt>
      <trkpt lat="46.00076" lon="4.58035">
        <ele>511.2</ele>
        <time>2022-06-26T05:29:22Z</time>
      </trkpt>
      <trkpt lat="46.00074" lon="4.58034">
        <ele>511.6</ele>
        <time>2022-06-26T05:29:23Z</time>
      </trkpt>
      <trkpt lat="46.00072" lon="4.58034">
        <ele>511.6</ele>
        <time>2022-06-26T05:29:24Z</time>
      </trkpt>
      <trkpt lat="46.00071" lon="4.58033">
        <ele>512</ele>
        <time>2022-06-26T05:29:25Z</time>
      </trkpt>
      <trkpt lat="46.00069" lon="4.58032">
        <ele>512</ele>
        <time>2022-06-26T05:29:26Z</time>
      </trkpt>
      <trkpt lat="46.00067" lon="4.58031">
        <ele>512.2</ele>
        <time>2022-06-26T05:29:27Z</time>
      </trkpt>
      <trkpt lat="46.00065" lon="4.58029">
        <ele>512.2</ele>
        <time>2022-06-26T05:29:28Z</time>
      </trkpt>
      <trkpt lat="46.00064" lon="4.58028">
        <ele>512.6</ele>
        <time>2022-06-26T05:29:29Z</time>
      </trkpt>
      <trkpt lat="46.00062" lon="4.58027">
        <ele>512.6</ele>
        <time>2022-06-26T05:29:30Z</time>
      </trkpt>
      <trkpt lat="46.0006" lon="4.58025">
        <ele>512.8</ele>
        <time>2022-06-26T05:29:31Z</time>
      </trkpt>
      <trkpt lat="46.00059" lon="4.58024">
        <ele>513</ele>
        <time>2022-06-26T05:29:32Z</time>
      </trkpt>
      <trkpt lat="46.00057" lon="4.58023">
        <ele>513</ele>
        <time>2022-06-26T05:29:33Z</time>
      </trkpt>
      <trkpt lat="46.00056" lon="4.58021">
        <ele>513.4</ele>
        <time>2022-06-26T05:29:34Z</time>
      </trkpt>
      <trkpt lat="46.00055" lon="4.58019">
        <ele>513.4</ele>
        <time>2022-06-26T05:29:35Z</time>
      </trkpt>
      <trkpt lat="46.00053" lon="4.58017">
        <ele>513.6</ele>
        <time>2022-06-26T05:29:36Z</time>
      </trkpt>
      <trkpt lat="46.00052" lon="4.58015">
        <ele>513.6</ele>
        <time>2022-06-26T05:29:37Z</time>
      </trkpt>
      <trkpt lat="46.0005" lon="4.58014">
        <ele>514</ele>
        <time>2022-06-26T05:29:38Z</time>
      </trkpt>
      <trkpt lat="46.00049" lon="4.58012">
        <ele>514.2</ele>
        <time>2022-06-26T05:29:39Z</time>
      </trkpt>
      <trkpt lat="46.00047" lon="4.58011">
        <ele>514.2</ele>
        <time>2022-06-26T05:29:40Z</time>
      </trkpt>
      <trkpt lat="46.00045" lon="4.58009">
        <ele>514.6</ele>
        <time>2022-06-26T05:29:41Z</time>
      </trkpt>
      <trkpt lat="46.00043" lon="4.58008">
        <ele>514.6</ele>
        <time>2022-06-26T05:29:42Z</time>
      </trkpt>
      <trkpt lat="46.00041" lon="4.58007">
        <ele>514.6</ele>
        <time>2022-06-26T05:29:43Z</time>
      </trkpt>
      <trkpt lat="46.00038" lon="4.58006">
        <ele>514.8</ele>
        <time>2022-06-26T05:29:44Z</time>
      </trkpt>
      <trkpt lat="46.00036" lon="4.58005">
        <ele>514.8</ele>
        <time>2022-06-26T05:29:45Z</time>
      </trkpt>
      <trkpt lat="46.00034" lon="4.58004">
        <ele>514.8</ele>
        <time>2022-06-26T05:29:46Z</time>
      </trkpt>
      <trkpt lat="46.00032" lon="4.58003">
        <ele>515</ele>
        <time>2022-06-26T05:29:47Z</time>
      </trkpt>
      <trkpt lat="46.0003" lon="4.58002">
        <ele>515</ele>
        <time>2022-06-26T05:29:48Z</time>
      </trkpt>
      <trkpt lat="46.00027" lon="4.58001">
        <ele>515.2</ele>
        <time>2022-06-26T05:29:49Z</time>
      </trkpt>
      <trkpt lat="46.00026" lon="4.58">
        <ele>515.4</ele>
        <time>2022-06-26T05:29:50Z</time>
      </trkpt>
      <trkpt lat="46.00024" lon="4.57999">
        <ele>515.6</ele>
        <time>2022-06-26T05:29:51Z</time>
      </trkpt>
      <trkpt lat="46.00022" lon="4.57998">
        <ele>515.8</ele>
        <time>2022-06-26T05:29:52Z</time>
      </trkpt>
      <trkpt lat="46.00021" lon="4.57997">
        <ele>516.2</ele>
        <time>2022-06-26T05:29:53Z</time>
      </trkpt>
      <trkpt lat="46.00019" lon="4.57997">
        <ele>516.4</ele>
        <time>2022-06-26T05:29:54Z</time>
      </trkpt>
      <trkpt lat="46.00016" lon="4.57996">
        <ele>516.4</ele>
        <time>2022-06-26T05:29:55Z</time>
      </trkpt>
      <trkpt lat="46.00014" lon="4.57996">
        <ele>516.6</ele>
        <time>2022-06-26T05:29:56Z</time>
      </trkpt>
      <trkpt lat="46.00012" lon="4.57995">
        <ele>516.6</ele>
        <time>2022-06-26T05:29:57Z</time>
      </trkpt>
      <trkpt lat="46.0001" lon="4.57995">
        <ele>517.2</ele>
        <time>2022-06-26T05:29:58Z</time>
      </trkpt>
      <trkpt lat="46.00008" lon="4.57996">
        <ele>517.2</ele>
        <time>2022-06-26T05:29:59Z</time>
      </trkpt>
      <trkpt lat="46.00006" lon="4.57997">
        <ele>517.6</ele>
        <time>2022-06-26T05:30:00Z</time>
      </trkpt>
      <trkpt lat="46.00005" lon="4.57997">
        <ele>517.8</ele>
        <time>2022-06-26T05:30:01Z</time>
      </trkpt>
      <trkpt lat="46.00003" lon="4.57997">
        <ele>518</ele>
        <time>2022-06-26T05:30:02Z</time>
      </trkpt>
      <trkpt lat="46.00001" lon="4.57997">
        <ele>518</ele>
        <time>2022-06-26T05:30:03Z</time>
      </trkpt>
      <trkpt lat="45.99999" lon="4.57997">
        <ele>518.6</ele>
        <time>2022-06-26T05:30:04Z</time>
      </trkpt>
      <trkpt lat="45.99997" lon="4.57997">
        <ele>518.8</ele>
        <time>2022-06-26T05:30:05Z</time>
      </trkpt>
      <trkpt lat="45.99995" lon="4.57997">
        <ele>518.8</ele>
        <time>2022-06-26T05:30:06Z</time>
      </trkpt>
      <trkpt lat="45.99994" lon="4.57998">
        <ele>519</ele>
        <time>2022-06-26T05:30:07Z</time>
      </trkpt>
      <trkpt lat="45.99991" lon="4.57999">
        <ele>519.2</ele>
        <time>2022-06-26T05:30:08Z</time>
      </trkpt>
      <trkpt lat="45.99989" lon="4.57999">
        <ele>519.6</ele>
        <time>2022-06-26T05:30:09Z</time>
      </trkpt>
      <trkpt lat="45.99987" lon="4.58">
        <ele>519.8</ele>
        <time>2022-06-26T05:30:10Z</time>
      </trkpt>
      <trkpt lat="45.99984" lon="4.58002">
        <ele>520</ele>
        <time>2022-06-26T05:30:11Z</time>
      </trkpt>
      <trkpt lat="45.99982" lon="4.58003">
        <ele>520</ele>
        <time>2022-06-26T05:30:12Z</time>
      </trkpt>
      <trkpt lat="45.9998" lon="4.58005">
        <ele>520.4</ele>
        <time>2022-06-26T05:30:13Z</time>
      </trkpt>
      <trkpt lat="45.99979" lon="4.58006">
        <ele>520.6</ele>
        <time>2022-06-26T05:30:14Z</time>
      </trkpt>
      <trkpt lat="45.99977" lon="4.58008">
        <ele>520.6</ele>
        <time>2022-06-26T05:30:15Z</time>
      </trkpt>
      <trkpt lat="45.99975" lon="4.58009">
        <ele>520.8</ele>
        <time>2022-06-26T05:30:16Z</time>
      </trkpt>
      <trkpt lat="45.99974" lon="4.5801">
        <ele>521</ele>
        <time>2022-06-26T05:30:17Z</time>
      </trkpt>
      <trkpt lat="45.99972" lon="4.58011">
        <ele>521</ele>
        <time>2022-06-26T05:30:18Z</time>
      </trkpt>
      <trkpt lat="45.99971" lon="4.58013">
        <ele>521.2</ele>
        <time>2022-06-26T05:30:19Z</time>
      </trkpt>
      <trkpt lat="45.99969" lon="4.58014">
        <ele>521.2</ele>
        <time>2022-06-26T05:30:20Z</time>
      </trkpt>
      <trkpt lat="45.99968" lon="4.58015">
        <ele>521.6</ele>
        <time>2022-06-26T05:30:21Z</time>
      </trkpt>
      <trkpt lat="45.99966" lon="4.58015">
        <ele>521.6</ele>
        <time>2022-06-26T05:30:22Z</time>
      </trkpt>
      <trkpt lat="45.99964" lon="4.58016">
        <ele>521.8</ele>
        <time>2022-06-26T05:30:23Z</time>
      </trkpt>
      <trkpt lat="45.99963" lon="4.58017">
        <ele>521.8</ele>
        <time>2022-06-26T05:30:24Z</time>
      </trkpt>
      <trkpt lat="45.99961" lon="4.58018">
        <ele>522.2</ele>
        <time>2022-06-26T05:30:25Z</time>
      </trkpt>
      <trkpt lat="45.99959" lon="4.58019">
        <ele>522.2</ele>
        <time>2022-06-26T05:30:26Z</time>
      </trkpt>
      <trkpt lat="45.99957" lon="4.5802">
        <ele>522.4</ele>
        <time>2022-06-26T05:30:27Z</time>
      </trkpt>
      <trkpt lat="45.99955" lon="4.5802">
        <ele>522.4</ele>
        <time>2022-06-26T05:30:28Z</time>
      </trkpt>
      <trkpt lat="45.99953" lon="4.5802">
        <ele>522.4</ele>
        <time>2022-06-26T05:30:29Z</time>
      </trkpt>
      <trkpt lat="45.9995" lon="4.5802">
        <ele>522.6</ele>
        <time>2022-06-26T05:30:30Z</time>
      </trkpt>
      <trkpt lat="45.99948" lon="4.5802">
        <ele>522.6</ele>
        <time>2022-06-26T05:30:31Z</time>
      </trkpt>
      <trkpt lat="45.99946" lon="4.5802">
        <ele>522.8</ele>
        <time>2022-06-26T05:30:32Z</time>
      </trkpt>
      <trkpt lat="45.99944" lon="4.5802">
        <ele>522.8</ele>
        <time>2022-06-26T05:30:33Z</time>
      </trkpt>
      <trkpt lat="45.99941" lon="4.58019">
        <ele>523</ele>
        <time>2022-06-26T05:30:34Z</time>
      </trkpt>
      <trkpt lat="45.99939" lon="4.58018">
        <ele>523</ele>
        <time>2022-06-26T05:30:35Z</time>
      </trkpt>
      <trkpt lat="45.99937" lon="4.58018">
        <ele>523.4</ele>
        <time>2022-06-26T05:30:36Z</time>
      </trkpt>
      <trkpt lat="45.99934" lon="4.58017">
        <ele>523.4</ele>
        <time>2022-06-26T05:30:37Z</time>
      </trkpt>
      <trkpt lat="45.99932" lon="4.58017">
        <ele>523.4</ele>
        <time>2022-06-26T05:30:38Z</time>
      </trkpt>
      <trkpt lat="45.9993" lon="4.58016">
        <ele>523.6</ele>
        <time>2022-06-26T05:30:39Z</time>
      </trkpt>
      <trkpt lat="45.99928" lon="4.58016">
        <ele>523.6</ele>
        <time>2022-06-26T05:30:40Z</time>
      </trkpt>
      <trkpt lat="45.99926" lon="4.58015">
        <ele>524</ele>
        <time>2022-06-26T05:30:41Z</time>
      </trkpt>
      <trkpt lat="45.99924" lon="4.58015">
        <ele>524</ele>
        <time>2022-06-26T05:30:42Z</time>
      </trkpt>
      <trkpt lat="45.99922" lon="4.58014">
        <ele>524.2</ele>
        <time>2022-06-26T05:30:43Z</time>
      </trkpt>
      <trkpt lat="45.9992" lon="4.58014">
        <ele>524.2</ele>
        <time>2022-06-26T05:30:44Z</time>
      </trkpt>
      <trkpt lat="45.99918" lon="4.58013">
        <ele>524.4</ele>
        <time>2022-06-26T05:30:45Z</time>
      </trkpt>
      <trkpt lat="45.99916" lon="4.58012">
        <ele>524.4</ele>
        <time>2022-06-26T05:30:46Z</time>
      </trkpt>
      <trkpt lat="45.99914" lon="4.58011">
        <ele>524.8</ele>
        <time>2022-06-26T05:30:47Z</time>
      </trkpt>
      <trkpt lat="45.99912" lon="4.58011">
        <ele>524.8</ele>
        <time>2022-06-26T05:30:48Z</time>
      </trkpt>
      <trkpt lat="45.9991" lon="4.5801">
        <ele>525.2</ele>
        <time>2022-06-26T05:30:49Z</time>
      </trkpt>
      <trkpt lat="45.99908" lon="4.58009">
        <ele>525.2</ele>
        <time>2022-06-26T05:30:50Z</time>
      </trkpt>
      <trkpt lat="45.99906" lon="4.58008">
        <ele>525.4</ele>
        <time>2022-06-26T05:30:51Z</time>
      </trkpt>
      <trkpt lat="45.99903" lon="4.58006">
        <ele>525.4</ele>
        <time>2022-06-26T05:30:52Z</time>
      </trkpt>
      <trkpt lat="45.99901" lon="4.58006">
        <ele>525.6</ele>
        <time>2022-06-26T05:30:53Z</time>
      </trkpt>
      <trkpt lat="45.99898" lon="4.58005">
        <ele>525.6</ele>
        <time>2022-06-26T05:30:54Z</time>
      </trkpt>
      <trkpt lat="45.99895" lon="4.58004">
        <ele>525.8</ele>
        <time>2022-06-26T05:30:55Z</time>
      </trkpt>
      <trkpt lat="45.99892" lon="4.58004">
        <ele>525.8</ele>
        <time>2022-06-26T05:30:56Z</time>
      </trkpt>
      <trkpt lat="45.99889" lon="4.58003">
        <ele>526</ele>
        <time>2022-06-26T05:30:57Z</time>
      </trkpt>
      <trkpt lat="45.99886" lon="4.58004">
        <ele>526</ele>
        <time>2022-06-26T05:30:58Z</time>
      </trkpt>
      <trkpt lat="45.99883" lon="4.58004">
        <ele>526</ele>
        <time>2022-06-26T05:30:59Z</time>
      </trkpt>
      <trkpt lat="45.9988" lon="4.58005">
        <ele>526</ele>
        <time>2022-06-26T05:31:00Z</time>
      </trkpt>
      <trkpt lat="45.99877" lon="4.58006">
        <ele>526</ele>
        <time>2022-06-26T05:31:01Z</time>
      </trkpt>
      <trkpt lat="45.99874" lon="4.58007">
        <ele>526.4</ele>
        <time>2022-06-26T05:31:02Z</time>
      </trkpt>
      <trkpt lat="45.99871" lon="4.58009">
        <ele>526.4</ele>
        <time>2022-06-26T05:31:03Z</time>
      </trkpt>
      <trkpt lat="45.99869" lon="4.58011">
        <ele>526.6</ele>
        <time>2022-06-26T05:31:04Z</time>
      </trkpt>
      <trkpt lat="45.99867" lon="4.58013">
        <ele>526.6</ele>
        <time>2022-06-26T05:31:05Z</time>
      </trkpt>
      <trkpt lat="45.99864" lon="4.58015">
        <ele>526.8</ele>
        <time>2022-06-26T05:31:06Z</time>
      </trkpt>
      <trkpt lat="45.99862" lon="4.58018">
        <ele>526.8</ele>
        <time>2022-06-26T05:31:07Z</time>
      </trkpt>
      <trkpt lat="45.99862" lon="4.58022">
        <ele>527</ele>
        <time>2022-06-26T05:31:08Z</time>
      </trkpt>
      <trkpt lat="45.99861" lon="4.58025">
        <ele>527</ele>
        <time>2022-06-26T05:31:09Z</time>
      </trkpt>
      <trkpt lat="45.9986" lon="4.58028">
        <ele>527</ele>
        <time>2022-06-26T05:31:10Z</time>
      </trkpt>
      <trkpt lat="45.99859" lon="4.58032">
        <ele>527.2</ele>
        <time>2022-06-26T05:31:11Z</time>
      </trkpt>
      <trkpt lat="45.99859" lon="4.58035">
        <ele>527.2</ele>
        <time>2022-06-26T05:31:12Z</time>
      </trkpt>
      <trkpt lat="45.99859" lon="4.58038">
        <ele>527.6</ele>
        <time>2022-06-26T05:31:13Z</time>
      </trkpt>
      <trkpt lat="45.99859" lon="4.58041">
        <ele>527.6</ele>
        <time>2022-06-26T05:31:14Z</time>
      </trkpt>
      <trkpt lat="45.99859" lon="4.58044">
        <ele>528</ele>
        <time>2022-06-26T05:31:15Z</time>
      </trkpt>
      <trkpt lat="45.99859" lon="4.58048">
        <ele>528</ele>
        <time>2022-06-26T05:31:16Z</time>
      </trkpt>
      <trkpt lat="45.99859" lon="4.58051">
        <ele>528.2</ele>
        <time>2022-06-26T05:31:17Z</time>
      </trkpt>
      <trkpt lat="45.99859" lon="4.58055">
        <ele>528.2</ele>
        <time>2022-06-26T05:31:18Z</time>
      </trkpt>
      <trkpt lat="45.9986" lon="4.58058">
        <ele>528.6</ele>
        <time>2022-06-26T05:31:19Z</time>
      </trkpt>
      <trkpt lat="45.9986" lon="4.58061">
        <ele>528.6</ele>
        <time>2022-06-26T05:31:20Z</time>
      </trkpt>
      <trkpt lat="45.9986" lon="4.58065">
        <ele>528.8</ele>
        <time>2022-06-26T05:31:21Z</time>
      </trkpt>
      <trkpt lat="45.99861" lon="4.58069">
        <ele>528.8</ele>
        <time>2022-06-26T05:31:22Z</time>
      </trkpt>
      <trkpt lat="45.99862" lon="4.58072">
        <ele>529.2</ele>
        <time>2022-06-26T05:31:23Z</time>
      </trkpt>
      <trkpt lat="45.99862" lon="4.58075">
        <ele>529.2</ele>
        <time>2022-06-26T05:31:24Z</time>
      </trkpt>
      <trkpt lat="45.99863" lon="4.58079">
        <ele>529.4</ele>
        <time>2022-06-26T05:31:25Z</time>
      </trkpt>
      <trkpt lat="45.99863" lon="4.58082">
        <ele>529.4</ele>
        <time>2022-06-26T05:31:26Z</time>
      </trkpt>
      <trkpt lat="45.99864" lon="4.58086">
        <ele>529.8</ele>
        <time>2022-06-26T05:31:27Z</time>
      </trkpt>
      <trkpt lat="45.99864" lon="4.58089">
        <ele>529.8</ele>
        <time>2022-06-26T05:31:28Z</time>
      </trkpt>
      <trkpt lat="45.99864" lon="4.58093">
        <ele>530</ele>
        <time>2022-06-26T05:31:29Z</time>
      </trkpt>
      <trkpt lat="45.99864" lon="4.58097">
        <ele>530</ele>
        <time>2022-06-26T05:31:30Z</time>
      </trkpt>
      <trkpt lat="45.99864" lon="4.581">
        <ele>530.4</ele>
        <time>2022-06-26T05:31:31Z</time>
      </trkpt>
      <trkpt lat="45.99865" lon="4.58103">
        <ele>530.4</ele>
        <time>2022-06-26T05:31:32Z</time>
      </trkpt>
      <trkpt lat="45.99865" lon="4.58107">
        <ele>530.6</ele>
        <time>2022-06-26T05:31:33Z</time>
      </trkpt>
      <trkpt lat="45.99865" lon="4.5811">
        <ele>530.6</ele>
        <time>2022-06-26T05:31:34Z</time>
      </trkpt>
      <trkpt lat="45.99866" lon="4.58113">
        <ele>531</ele>
        <time>2022-06-26T05:31:35Z</time>
      </trkpt>
      <trkpt lat="45.99866" lon="4.58116">
        <ele>531</ele>
        <time>2022-06-26T05:31:36Z</time>
      </trkpt>
      <trkpt lat="45.99867" lon="4.5812">
        <ele>531.4</ele>
        <time>2022-06-26T05:31:37Z</time>
      </trkpt>
      <trkpt lat="45.99867" lon="4.58123">
        <ele>531.4</ele>
        <time>2022-06-26T05:31:38Z</time>
      </trkpt>
      <trkpt lat="45.99867" lon="4.58126">
        <ele>531.8</ele>
        <time>2022-06-26T05:31:39Z</time>
      </trkpt>
      <trkpt lat="45.99868" lon="4.58129">
        <ele>532</ele>
        <time>2022-06-26T05:31:40Z</time>
      </trkpt>
      <trkpt lat="45.99868" lon="4.58132">
        <ele>532</ele>
        <time>2022-06-26T05:31:41Z</time>
      </trkpt>
      <trkpt lat="45.99869" lon="4.58135">
        <ele>532.2</ele>
        <time>2022-06-26T05:31:42Z</time>
      </trkpt>
      <trkpt lat="45.99869" lon="4.58138">
        <ele>532.2</ele>
        <time>2022-06-26T05:31:43Z</time>
      </trkpt>
      <trkpt lat="45.9987" lon="4.58141">
        <ele>532.6</ele>
        <time>2022-06-26T05:31:44Z</time>
      </trkpt>
      <trkpt lat="45.9987" lon="4.58144">
        <ele>532.6</ele>
        <time>2022-06-26T05:31:45Z</time>
      </trkpt>
      <trkpt lat="45.99871" lon="4.58147">
        <ele>532.8</ele>
        <time>2022-06-26T05:31:46Z</time>
      </trkpt>
      <trkpt lat="45.99871" lon="4.5815">
        <ele>532.8</ele>
        <time>2022-06-26T05:31:47Z</time>
      </trkpt>
      <trkpt lat="45.99872" lon="4.58153">
        <ele>533.2</ele>
        <time>2022-06-26T05:31:48Z</time>
      </trkpt>
      <trkpt lat="45.99872" lon="4.58156">
        <ele>533.4</ele>
        <time>2022-06-26T05:31:49Z</time>
      </trkpt>
      <trkpt lat="45.99873" lon="4.58159">
        <ele>533.4</ele>
        <time>2022-06-26T05:31:50Z</time>
      </trkpt>
      <trkpt lat="45.99874" lon="4.58161">
        <ele>533.8</ele>
        <time>2022-06-26T05:31:51Z</time>
      </trkpt>
      <trkpt lat="45.99875" lon="4.58164">
        <ele>534</ele>
        <time>2022-06-26T05:31:52Z</time>
      </trkpt>
      <trkpt lat="45.99875" lon="4.58167">
        <ele>534.2</ele>
        <time>2022-06-26T05:31:53Z</time>
      </trkpt>
      <trkpt lat="45.99876" lon="4.5817">
        <ele>534.4</ele>
        <time>2022-06-26T05:31:54Z</time>
      </trkpt>
      <trkpt lat="45.99876" lon="4.58172">
        <ele>534.8</ele>
        <time>2022-06-26T05:31:55Z</time>
      </trkpt>
      <trkpt lat="45.99877" lon="4.58175">
        <ele>535</ele>
        <time>2022-06-26T05:31:56Z</time>
      </trkpt>
      <trkpt lat="45.99878" lon="4.58177">
        <ele>535.2</ele>
        <time>2022-06-26T05:31:57Z</time>
      </trkpt>
      <trkpt lat="45.99878" lon="4.5818">
        <ele>535.2</ele>
        <time>2022-06-26T05:31:58Z</time>
      </trkpt>
      <trkpt lat="45.99879" lon="4.58183">
        <ele>535.4</ele>
        <time>2022-06-26T05:31:59Z</time>
      </trkpt>
      <trkpt lat="45.99879" lon="4.58185">
        <ele>535.8</ele>
        <time>2022-06-26T05:32:00Z</time>
      </trkpt>
      <trkpt lat="45.9988" lon="4.58187">
        <ele>535.8</ele>
        <time>2022-06-26T05:32:01Z</time>
      </trkpt>
      <trkpt lat="45.99881" lon="4.5819">
        <ele>536.2</ele>
        <time>2022-06-26T05:32:02Z</time>
      </trkpt>
      <trkpt lat="45.99882" lon="4.58192">
        <ele>536.4</ele>
        <time>2022-06-26T05:32:03Z</time>
      </trkpt>
      <trkpt lat="45.99882" lon="4.58194">
        <ele>536.6</ele>
        <time>2022-06-26T05:32:04Z</time>
      </trkpt>
      <trkpt lat="45.99883" lon="4.58196">
        <ele>537</ele>
        <time>2022-06-26T05:32:05Z</time>
      </trkpt>
      <trkpt lat="45.99883" lon="4.58198">
        <ele>537.2</ele>
        <time>2022-06-26T05:32:06Z</time>
      </trkpt>
      <trkpt lat="45.99884" lon="4.58201">
        <ele>537.4</ele>
        <time>2022-06-26T05:32:07Z</time>
      </trkpt>
      <trkpt lat="45.99885" lon="4.58203">
        <ele>537.6</ele>
        <time>2022-06-26T05:32:08Z</time>
      </trkpt>
      <trkpt lat="45.99886" lon="4.58205">
        <ele>537.6</ele>
        <time>2022-06-26T05:32:09Z</time>
      </trkpt>
      <trkpt lat="45.99887" lon="4.58207">
        <ele>538</ele>
        <time>2022-06-26T05:32:10Z</time>
      </trkpt>
      <trkpt lat="45.99889" lon="4.5821">
        <ele>538.2</ele>
        <time>2022-06-26T05:32:11Z</time>
      </trkpt>
      <trkpt lat="45.9989" lon="4.58212">
        <ele>538.4</ele>
        <time>2022-06-26T05:32:12Z</time>
      </trkpt>
      <trkpt lat="45.99891" lon="4.58214">
        <ele>538.4</ele>
        <time>2022-06-26T05:32:13Z</time>
      </trkpt>
      <trkpt lat="45.99892" lon="4.58216">
        <ele>538.4</ele>
        <time>2022-06-26T05:32:14Z</time>
      </trkpt>
      <trkpt lat="45.99893" lon="4.58219">
        <ele>538.8</ele>
        <time>2022-06-26T05:32:15Z</time>
      </trkpt>
      <trkpt lat="45.99893" lon="4.58221">
        <ele>538.8</ele>
        <time>2022-06-26T05:32:16Z</time>
      </trkpt>
      <trkpt lat="45.99894" lon="4.58224">
        <ele>539</ele>
        <time>2022-06-26T05:32:17Z</time>
      </trkpt>
      <trkpt lat="45.99894" lon="4.58227">
        <ele>539.4</ele>
        <time>2022-06-26T05:32:18Z</time>
      </trkpt>
      <trkpt lat="45.99895" lon="4.5823">
        <ele>539.6</ele>
        <time>2022-06-26T05:32:19Z</time>
      </trkpt>
      <trkpt lat="45.99895" lon="4.58232">
        <ele>539.8</ele>
        <time>2022-06-26T05:32:20Z</time>
      </trkpt>
      <trkpt lat="45.99895" lon="4.58235">
        <ele>539.8</ele>
        <time>2022-06-26T05:32:21Z</time>
      </trkpt>
      <trkpt lat="45.99895" lon="4.58238">
        <ele>540.2</ele>
        <time>2022-06-26T05:32:22Z</time>
      </trkpt>
      <trkpt lat="45.99896" lon="4.58241">
        <ele>540.4</ele>
        <time>2022-06-26T05:32:23Z</time>
      </trkpt>
      <trkpt lat="45.99896" lon="4.58243">
        <ele>540.4</ele>
        <time>2022-06-26T05:32:24Z</time>
      </trkpt>
      <trkpt lat="45.99896" lon="4.58246">
        <ele>540.6</ele>
        <time>2022-06-26T05:32:25Z</time>
      </trkpt>
      <trkpt lat="45.99896" lon="4.58249">
        <ele>540.6</ele>
        <time>2022-06-26T05:32:26Z</time>
      </trkpt>
      <trkpt lat="45.99896" lon="4.58252">
        <ele>541</ele>
        <time>2022-06-26T05:32:27Z</time>
      </trkpt>
      <trkpt lat="45.99896" lon="4.58254">
        <ele>541</ele>
        <time>2022-06-26T05:32:28Z</time>
      </trkpt>
      <trkpt lat="45.99896" lon="4.58257">
        <ele>541.2</ele>
        <time>2022-06-26T05:32:29Z</time>
      </trkpt>
      <trkpt lat="45.99896" lon="4.5826">
        <ele>541.2</ele>
        <time>2022-06-26T05:32:30Z</time>
      </trkpt>
      <trkpt lat="45.99896" lon="4.58262">
        <ele>541.2</ele>
        <time>2022-06-26T05:32:31Z</time>
      </trkpt>
      <trkpt lat="45.99895" lon="4.58265">
        <ele>541.4</ele>
        <time>2022-06-26T05:32:32Z</time>
      </trkpt>
      <trkpt lat="45.99895" lon="4.58268">
        <ele>541.4</ele>
        <time>2022-06-26T05:32:33Z</time>
      </trkpt>
      <trkpt lat="45.99894" lon="4.58271">
        <ele>541.4</ele>
        <time>2022-06-26T05:32:34Z</time>
      </trkpt>
      <trkpt lat="45.99894" lon="4.58274">
        <ele>541.4</ele>
        <time>2022-06-26T05:32:35Z</time>
      </trkpt>
      <trkpt lat="45.99893" lon="4.58277">
        <ele>541.8</ele>
        <time>2022-06-26T05:32:36Z</time>
      </trkpt>
      <trkpt lat="45.99892" lon="4.5828">
        <ele>541.8</ele>
        <time>2022-06-26T05:32:37Z</time>
      </trkpt>
      <trkpt lat="45.99891" lon="4.58282">
        <ele>541.8</ele>
        <time>2022-06-26T05:32:38Z</time>
      </trkpt>
      <trkpt lat="45.9989" lon="4.58285">
        <ele>541.8</ele>
        <time>2022-06-26T05:32:39Z</time>
      </trkpt>
      <trkpt lat="45.99889" lon="4.58288">
        <ele>541.8</ele>
        <time>2022-06-26T05:32:40Z</time>
      </trkpt>
      <trkpt lat="45.99887" lon="4.58292">
        <ele>541.8</ele>
        <time>2022-06-26T05:32:41Z</time>
      </trkpt>
      <trkpt lat="45.99886" lon="4.58295">
        <ele>541.8</ele>
        <time>2022-06-26T05:32:42Z</time>
      </trkpt>
      <trkpt lat="45.99884" lon="4.58299">
        <ele>541.8</ele>
        <time>2022-06-26T05:32:43Z</time>
      </trkpt>
      <trkpt lat="45.99883" lon="4.58303">
        <ele>541.8</ele>
        <time>2022-06-26T05:32:44Z</time>
      </trkpt>
      <trkpt lat="45.99881" lon="4.58307">
        <ele>541.8</ele>
        <time>2022-06-26T05:32:45Z</time>
      </trkpt>
      <trkpt lat="45.99879" lon="4.58311">
        <ele>541.6</ele>
        <time>2022-06-26T05:32:46Z</time>
      </trkpt>
      <trkpt lat="45.99876" lon="4.58315">
        <ele>541.6</ele>
        <time>2022-06-26T05:32:47Z</time>
      </trkpt>
      <trkpt lat="45.99874" lon="4.58319">
        <ele>541.2</ele>
        <time>2022-06-26T05:32:48Z</time>
      </trkpt>
      <trkpt lat="45.99871" lon="4.58322">
        <ele>541.2</ele>
        <time>2022-06-26T05:32:49Z</time>
      </trkpt>
      <trkpt lat="45.99867" lon="4.58326">
        <ele>541.2</ele>
        <time>2022-06-26T05:32:50Z</time>
      </trkpt>
      <trkpt lat="45.99864" lon="4.58329">
        <ele>541</ele>
        <time>2022-06-26T05:32:51Z</time>
      </trkpt>
      <trkpt lat="45.9986" lon="4.58332">
        <ele>541</ele>
        <time>2022-06-26T05:32:52Z</time>
      </trkpt>
      <trkpt lat="45.99855" lon="4.58335">
        <ele>541</ele>
        <time>2022-06-26T05:32:53Z</time>
      </trkpt>
      <trkpt lat="45.99851" lon="4.58338">
        <ele>541</ele>
        <time>2022-06-26T05:32:54Z</time>
      </trkpt>
      <trkpt lat="45.99846" lon="4.58341">
        <ele>540.8</ele>
        <time>2022-06-26T05:32:55Z</time>
      </trkpt>
      <trkpt lat="45.99842" lon="4.58343">
        <ele>540.8</ele>
        <time>2022-06-26T05:32:56Z</time>
      </trkpt>
      <trkpt lat="45.99837" lon="4.58346">
        <ele>540.8</ele>
        <time>2022-06-26T05:32:57Z</time>
      </trkpt>
      <trkpt lat="45.99832" lon="4.58349">
        <ele>540.8</ele>
        <time>2022-06-26T05:32:58Z</time>
      </trkpt>
      <trkpt lat="45.99828" lon="4.58352">
        <ele>540.4</ele>
        <time>2022-06-26T05:32:59Z</time>
      </trkpt>
      <trkpt lat="45.99823" lon="4.58354">
        <ele>540.4</ele>
        <time>2022-06-26T05:33:00Z</time>
      </trkpt>
      <trkpt lat="45.99818" lon="4.58356">
        <ele>540.4</ele>
        <time>2022-06-26T05:33:01Z</time>
      </trkpt>
      <trkpt lat="45.99813" lon="4.58358">
        <ele>540</ele>
        <time>2022-06-26T05:33:02Z</time>
      </trkpt>
      <trkpt lat="45.99808" lon="4.58359">
        <ele>540</ele>
        <time>2022-06-26T05:33:03Z</time>
      </trkpt>
      <trkpt lat="45.99803" lon="4.58361">
        <ele>540</ele>
        <time>2022-06-26T05:33:04Z</time>
      </trkpt>
      <trkpt lat="45.99798" lon="4.58362">
        <ele>539.8</ele>
        <time>2022-06-26T05:33:05Z</time>
      </trkpt>
      <trkpt lat="45.99794" lon="4.58363">
        <ele>539.8</ele>
        <time>2022-06-26T05:33:06Z</time>
      </trkpt>
      <trkpt lat="45.99789" lon="4.58365">
        <ele>539.8</ele>
        <time>2022-06-26T05:33:07Z</time>
      </trkpt>
      <trkpt lat="45.99785" lon="4.58366">
        <ele>539.6</ele>
        <time>2022-06-26T05:33:08Z</time>
      </trkpt>
      <trkpt lat="45.99781" lon="4.58366">
        <ele>539.6</ele>
        <time>2022-06-26T05:33:09Z</time>
      </trkpt>
      <trkpt lat="45.99777" lon="4.58367">
        <ele>539.4</ele>
        <time>2022-06-26T05:33:10Z</time>
      </trkpt>
      <trkpt lat="45.99772" lon="4.58368">
        <ele>539.4</ele>
        <time>2022-06-26T05:33:11Z</time>
      </trkpt>
      <trkpt lat="45.99767" lon="4.58369">
        <ele>539.4</ele>
        <time>2022-06-26T05:33:12Z</time>
      </trkpt>
      <trkpt lat="45.99763" lon="4.5837">
        <ele>539.4</ele>
        <time>2022-06-26T05:33:13Z</time>
      </trkpt>
      <trkpt lat="45.99758" lon="4.5837">
        <ele>539.4</ele>
        <time>2022-06-26T05:33:14Z</time>
      </trkpt>
      <trkpt lat="45.99753" lon="4.58371">
        <ele>539.4</ele>
        <time>2022-06-26T05:33:15Z</time>
      </trkpt>
      <trkpt lat="45.99748" lon="4.58372">
        <ele>539</ele>
        <time>2022-06-26T05:33:16Z</time>
      </trkpt>
      <trkpt lat="45.99743" lon="4.58374">
        <ele>539</ele>
        <time>2022-06-26T05:33:17Z</time>
      </trkpt>
      <trkpt lat="45.99738" lon="4.58375">
        <ele>539</ele>
        <time>2022-06-26T05:33:18Z</time>
      </trkpt>
      <trkpt lat="45.99732" lon="4.58377">
        <ele>539</ele>
        <time>2022-06-26T05:33:19Z</time>
      </trkpt>
      <trkpt lat="45.99727" lon="4.5838">
        <ele>538.8</ele>
        <time>2022-06-26T05:33:20Z</time>
      </trkpt>
      <trkpt lat="45.99722" lon="4.58384">
        <ele>538.8</ele>
        <time>2022-06-26T05:33:21Z</time>
      </trkpt>
      <trkpt lat="45.99717" lon="4.58387">
        <ele>538.4</ele>
        <time>2022-06-26T05:33:22Z</time>
      </trkpt>
      <trkpt lat="45.99711" lon="4.58391">
        <ele>538.4</ele>
        <time>2022-06-26T05:33:23Z</time>
      </trkpt>
      <trkpt lat="45.99706" lon="4.58394">
        <ele>538.2</ele>
        <time>2022-06-26T05:33:24Z</time>
      </trkpt>
      <trkpt lat="45.99701" lon="4.58397">
        <ele>538.2</ele>
        <time>2022-06-26T05:33:25Z</time>
      </trkpt>
      <trkpt lat="45.99696" lon="4.58399">
        <ele>537.8</ele>
        <time>2022-06-26T05:33:26Z</time>
      </trkpt>
      <trkpt lat="45.9969" lon="4.58402">
        <ele>537.8</ele>
        <time>2022-06-26T05:33:27Z</time>
      </trkpt>
      <trkpt lat="45.99684" lon="4.58403">
        <ele>537.6</ele>
        <time>2022-06-26T05:33:28Z</time>
      </trkpt>
      <trkpt lat="45.99679" lon="4.58404">
        <ele>537.6</ele>
        <time>2022-06-26T05:33:29Z</time>
      </trkpt>
      <trkpt lat="45.99672" lon="4.58405">
        <ele>537.4</ele>
        <time>2022-06-26T05:33:30Z</time>
      </trkpt>
      <trkpt lat="45.99666" lon="4.58405">
        <ele>537.4</ele>
        <time>2022-06-26T05:33:31Z</time>
      </trkpt>
      <trkpt lat="45.99661" lon="4.58405">
        <ele>537</ele>
        <time>2022-06-26T05:33:32Z</time>
      </trkpt>
      <trkpt lat="45.99656" lon="4.58406">
        <ele>537</ele>
        <time>2022-06-26T05:33:33Z</time>
      </trkpt>
      <trkpt lat="45.9965" lon="4.58408">
        <ele>537</ele>
        <time>2022-06-26T05:33:34Z</time>
      </trkpt>
      <trkpt lat="45.99645" lon="4.5841">
        <ele>537</ele>
        <time>2022-06-26T05:33:35Z</time>
      </trkpt>
      <trkpt lat="45.99639" lon="4.58414">
        <ele>537</ele>
        <time>2022-06-26T05:33:36Z</time>
      </trkpt>
      <trkpt lat="45.99634" lon="4.58418">
        <ele>537</ele>
        <time>2022-06-26T05:33:37Z</time>
      </trkpt>
      <trkpt lat="45.99629" lon="4.58422">
        <ele>537</ele>
        <time>2022-06-26T05:33:38Z</time>
      </trkpt>
      <trkpt lat="45.99623" lon="4.58426">
        <ele>537</ele>
        <time>2022-06-26T05:33:39Z</time>
      </trkpt>
      <trkpt lat="45.99618" lon="4.58429">
        <ele>537</ele>
        <time>2022-06-26T05:33:40Z</time>
      </trkpt>
      <trkpt lat="45.99612" lon="4.5843">
        <ele>537</ele>
        <time>2022-06-26T05:33:41Z</time>
      </trkpt>
      <trkpt lat="45.99607" lon="4.58432">
        <ele>537</ele>
        <time>2022-06-26T05:33:42Z</time>
      </trkpt>
      <trkpt lat="45.99601" lon="4.58432">
        <ele>537</ele>
        <time>2022-06-26T05:33:43Z</time>
      </trkpt>
      <trkpt lat="45.99596" lon="4.58431">
        <ele>537</ele>
        <time>2022-06-26T05:33:44Z</time>
      </trkpt>
      <trkpt lat="45.99592" lon="4.58431">
        <ele>537</ele>
        <time>2022-06-26T05:33:45Z</time>
      </trkpt>
      <trkpt lat="45.99587" lon="4.5843">
        <ele>537</ele>
        <time>2022-06-26T05:33:46Z</time>
      </trkpt>
      <trkpt lat="45.99583" lon="4.58429">
        <ele>537.2</ele>
        <time>2022-06-26T05:33:47Z</time>
      </trkpt>
      <trkpt lat="45.99579" lon="4.58428">
        <ele>537.2</ele>
        <time>2022-06-26T05:33:48Z</time>
      </trkpt>
      <trkpt lat="45.99575" lon="4.58427">
        <ele>537.6</ele>
        <time>2022-06-26T05:33:49Z</time>
      </trkpt>
      <trkpt lat="45.99572" lon="4.58426">
        <ele>537.8</ele>
        <time>2022-06-26T05:33:50Z</time>
      </trkpt>
      <trkpt lat="45.99569" lon="4.58424">
        <ele>538</ele>
        <time>2022-06-26T05:33:51Z</time>
      </trkpt>
      <trkpt lat="45.99566" lon="4.58424">
        <ele>538</ele>
        <time>2022-06-26T05:33:52Z</time>
      </trkpt>
      <trkpt lat="45.99563" lon="4.58424">
        <ele>538.4</ele>
        <time>2022-06-26T05:33:53Z</time>
      </trkpt>
      <trkpt lat="45.9956" lon="4.58423">
        <ele>538.4</ele>
        <time>2022-06-26T05:33:54Z</time>
      </trkpt>
      <trkpt lat="45.99557" lon="4.58423">
        <ele>538.4</ele>
        <time>2022-06-26T05:33:55Z</time>
      </trkpt>
      <trkpt lat="45.99553" lon="4.58422">
        <ele>538.6</ele>
        <time>2022-06-26T05:33:56Z</time>
      </trkpt>
      <trkpt lat="45.99549" lon="4.58422">
        <ele>538.6</ele>
        <time>2022-06-26T05:33:57Z</time>
      </trkpt>
      <trkpt lat="45.99546" lon="4.58422">
        <ele>538.6</ele>
        <time>2022-06-26T05:33:58Z</time>
      </trkpt>
      <trkpt lat="45.99542" lon="4.58427">
        <ele>538.6</ele>
        <time>2022-06-26T05:33:59Z</time>
      </trkpt>
      <trkpt lat="45.99539" lon="4.58432">
        <ele>538.6</ele>
        <time>2022-06-26T05:34:00Z</time>
      </trkpt>
      <trkpt lat="45.99536" lon="4.58437">
        <ele>538.6</ele>
        <time>2022-06-26T05:34:01Z</time>
      </trkpt>
      <trkpt lat="45.99533" lon="4.58442">
        <ele>538.8</ele>
        <time>2022-06-26T05:34:02Z</time>
      </trkpt>
      <trkpt lat="45.99531" lon="4.58448">
        <ele>538.8</ele>
        <time>2022-06-26T05:34:03Z</time>
      </trkpt>
      <trkpt lat="45.9953" lon="4.58455">
        <ele>539.4</ele>
        <time>2022-06-26T05:34:04Z</time>
      </trkpt>
      <trkpt lat="45.99528" lon="4.5846">
        <ele>539.6</ele>
        <time>2022-06-26T05:34:05Z</time>
      </trkpt>
      <trkpt lat="45.99527" lon="4.58465">
        <ele>539.8</ele>
        <time>2022-06-26T05:34:06Z</time>
      </trkpt>
      <trkpt lat="45.99525" lon="4.5847">
        <ele>540.2</ele>
        <time>2022-06-26T05:34:07Z</time>
      </trkpt>
      <trkpt lat="45.99523" lon="4.58474">
        <ele>540.4</ele>
        <time>2022-06-26T05:34:08Z</time>
      </trkpt>
      <trkpt lat="45.99522" lon="4.58478">
        <ele>540.6</ele>
        <time>2022-06-26T05:34:09Z</time>
      </trkpt>
      <trkpt lat="45.9952" lon="4.58482">
        <ele>540.8</ele>
        <time>2022-06-26T05:34:10Z</time>
      </trkpt>
      <trkpt lat="45.99519" lon="4.58485">
        <ele>541.4</ele>
        <time>2022-06-26T05:34:12Z</time>
      </trkpt>
      <trkpt lat="45.99516" lon="4.58488">
        <ele>541.6</ele>
        <time>2022-06-26T05:34:13Z</time>
      </trkpt>
      <trkpt lat="45.99514" lon="4.58491">
        <ele>541.8</ele>
        <time>2022-06-26T05:34:14Z</time>
      </trkpt>
      <trkpt lat="45.99511" lon="4.58494">
        <ele>541.8</ele>
        <time>2022-06-26T05:34:15Z</time>
      </trkpt>
      <trkpt lat="45.99508" lon="4.58496">
        <ele>542.2</ele>
        <time>2022-06-26T05:34:16Z</time>
      </trkpt>
      <trkpt lat="45.99505" lon="4.58498">
        <ele>542.2</ele>
        <time>2022-06-26T05:34:17Z</time>
      </trkpt>
      <trkpt lat="45.99502" lon="4.585">
        <ele>542.2</ele>
        <time>2022-06-26T05:34:18Z</time>
      </trkpt>
      <trkpt lat="45.99498" lon="4.58501">
        <ele>542.4</ele>
        <time>2022-06-26T05:34:19Z</time>
      </trkpt>
      <trkpt lat="45.99495" lon="4.58503">
        <ele>542.4</ele>
        <time>2022-06-26T05:34:20Z</time>
      </trkpt>
      <trkpt lat="45.99492" lon="4.58505">
        <ele>542.6</ele>
        <time>2022-06-26T05:34:21Z</time>
      </trkpt>
      <trkpt lat="45.99489" lon="4.58507">
        <ele>542.6</ele>
        <time>2022-06-26T05:34:22Z</time>
      </trkpt>
      <trkpt lat="45.99486" lon="4.58509">
        <ele>543</ele>
        <time>2022-06-26T05:34:23Z</time>
      </trkpt>
      <trkpt lat="45.99483" lon="4.5851">
        <ele>543</ele>
        <time>2022-06-26T05:34:24Z</time>
      </trkpt>
      <trkpt lat="45.9948" lon="4.58512">
        <ele>543.2</ele>
        <time>2022-06-26T05:34:25Z</time>
      </trkpt>
      <trkpt lat="45.99477" lon="4.58514">
        <ele>543.2</ele>
        <time>2022-06-26T05:34:26Z</time>
      </trkpt>
      <trkpt lat="45.99474" lon="4.58516">
        <ele>543.6</ele>
        <time>2022-06-26T05:34:27Z</time>
      </trkpt>
      <trkpt lat="45.99471" lon="4.58518">
        <ele>543.6</ele>
        <time>2022-06-26T05:34:28Z</time>
      </trkpt>
      <trkpt lat="45.99468" lon="4.5852">
        <ele>544</ele>
        <time>2022-06-26T05:34:29Z</time>
      </trkpt>
      <trkpt lat="45.99465" lon="4.58522">
        <ele>544</ele>
        <time>2022-06-26T05:34:30Z</time>
      </trkpt>
      <trkpt lat="45.99463" lon="4.58524">
        <ele>544.2</ele>
        <time>2022-06-26T05:34:31Z</time>
      </trkpt>
      <trkpt lat="45.9946" lon="4.58526">
        <ele>544.2</ele>
        <time>2022-06-26T05:34:32Z</time>
      </trkpt>
      <trkpt lat="45.99457" lon="4.58527">
        <ele>544.4</ele>
        <time>2022-06-26T05:34:33Z</time>
      </trkpt>
      <trkpt lat="45.99454" lon="4.58529">
        <ele>544.4</ele>
        <time>2022-06-26T05:34:34Z</time>
      </trkpt>
      <trkpt lat="45.99451" lon="4.58532">
        <ele>544.8</ele>
        <time>2022-06-26T05:34:35Z</time>
      </trkpt>
      <trkpt lat="45.99448" lon="4.58534">
        <ele>544.8</ele>
        <time>2022-06-26T05:34:36Z</time>
      </trkpt>
      <trkpt lat="45.99445" lon="4.58536">
        <ele>545</ele>
        <time>2022-06-26T05:34:37Z</time>
      </trkpt>
      <trkpt lat="45.99442" lon="4.58538">
        <ele>545</ele>
        <time>2022-06-26T05:34:38Z</time>
      </trkpt>
      <trkpt lat="45.99439" lon="4.5854">
        <ele>545.2</ele>
        <time>2022-06-26T05:34:39Z</time>
      </trkpt>
      <trkpt lat="45.99436" lon="4.58542">
        <ele>545.2</ele>
        <time>2022-06-26T05:34:40Z</time>
      </trkpt>
      <trkpt lat="45.99433" lon="4.58544">
        <ele>545.6</ele>
        <time>2022-06-26T05:34:41Z</time>
      </trkpt>
      <trkpt lat="45.9943" lon="4.58546">
        <ele>545.6</ele>
        <time>2022-06-26T05:34:42Z</time>
      </trkpt>
      <trkpt lat="45.99427" lon="4.58548">
        <ele>545.8</ele>
        <time>2022-06-26T05:34:43Z</time>
      </trkpt>
      <trkpt lat="45.99425" lon="4.5855">
        <ele>545.8</ele>
        <time>2022-06-26T05:34:44Z</time>
      </trkpt>
      <trkpt lat="45.99422" lon="4.58552">
        <ele>546.2</ele>
        <time>2022-06-26T05:34:45Z</time>
      </trkpt>
      <trkpt lat="45.99419" lon="4.58554">
        <ele>546.2</ele>
        <time>2022-06-26T05:34:46Z</time>
      </trkpt>
      <trkpt lat="45.99416" lon="4.58556">
        <ele>546.6</ele>
        <time>2022-06-26T05:34:47Z</time>
      </trkpt>
      <trkpt lat="45.99414" lon="4.58557">
        <ele>546.6</ele>
        <time>2022-06-26T05:34:48Z</time>
      </trkpt>
      <trkpt lat="45.99411" lon="4.58559">
        <ele>547</ele>
        <time>2022-06-26T05:34:49Z</time>
      </trkpt>
      <trkpt lat="45.99409" lon="4.58561">
        <ele>547</ele>
        <time>2022-06-26T05:34:50Z</time>
      </trkpt>
      <trkpt lat="45.99407" lon="4.58562">
        <ele>547.2</ele>
        <time>2022-06-26T05:34:51Z</time>
      </trkpt>
      <trkpt lat="45.99405" lon="4.58564">
        <ele>547.2</ele>
        <time>2022-06-26T05:34:52Z</time>
      </trkpt>
      <trkpt lat="45.99402" lon="4.58566">
        <ele>547.6</ele>
        <time>2022-06-26T05:34:53Z</time>
      </trkpt>
      <trkpt lat="45.994" lon="4.58568">
        <ele>547.6</ele>
        <time>2022-06-26T05:34:54Z</time>
      </trkpt>
      <trkpt lat="45.99398" lon="4.5857">
        <ele>547.8</ele>
        <time>2022-06-26T05:34:55Z</time>
      </trkpt>
      <trkpt lat="45.99396" lon="4.58572">
        <ele>547.8</ele>
        <time>2022-06-26T05:34:56Z</time>
      </trkpt>
      <trkpt lat="45.99393" lon="4.58573">
        <ele>548.2</ele>
        <time>2022-06-26T05:34:57Z</time>
      </trkpt>
      <trkpt lat="45.99391" lon="4.58575">
        <ele>548.2</ele>
        <time>2022-06-26T05:34:58Z</time>
      </trkpt>
      <trkpt lat="45.99389" lon="4.58577">
        <ele>548.4</ele>
        <time>2022-06-26T05:34:59Z</time>
      </trkpt>
      <trkpt lat="45.99387" lon="4.5858">
        <ele>548.4</ele>
        <time>2022-06-26T05:35:00Z</time>
      </trkpt>
      <trkpt lat="45.99385" lon="4.58582">
        <ele>548.8</ele>
        <time>2022-06-26T05:35:01Z</time>
      </trkpt>
      <trkpt lat="45.99383" lon="4.58584">
        <ele>548.8</ele>
        <time>2022-06-26T05:35:02Z</time>
      </trkpt>
      <trkpt lat="45.99381" lon="4.58587">
        <ele>549</ele>
        <time>2022-06-26T05:35:03Z</time>
      </trkpt>
      <trkpt lat="45.99379" lon="4.58589">
        <ele>549</ele>
        <time>2022-06-26T05:35:04Z</time>
      </trkpt>
      <trkpt lat="45.99377" lon="4.58591">
        <ele>549.4</ele>
        <time>2022-06-26T05:35:05Z</time>
      </trkpt>
      <trkpt lat="45.99375" lon="4.58594">
        <ele>549.6</ele>
        <time>2022-06-26T05:35:06Z</time>
      </trkpt>
      <trkpt lat="45.99373" lon="4.58596">
        <ele>549.6</ele>
        <time>2022-06-26T05:35:07Z</time>
      </trkpt>
      <trkpt lat="45.99371" lon="4.58599">
        <ele>549.8</ele>
        <time>2022-06-26T05:35:08Z</time>
      </trkpt>
      <trkpt lat="45.99369" lon="4.58602">
        <ele>549.8</ele>
        <time>2022-06-26T05:35:09Z</time>
      </trkpt>
      <trkpt lat="45.99367" lon="4.58604">
        <ele>550</ele>
        <time>2022-06-26T05:35:10Z</time>
      </trkpt>
      <trkpt lat="45.99365" lon="4.58606">
        <ele>550</ele>
        <time>2022-06-26T05:35:11Z</time>
      </trkpt>
      <trkpt lat="45.99363" lon="4.58609">
        <ele>550</ele>
        <time>2022-06-26T05:35:12Z</time>
      </trkpt>
      <trkpt lat="45.99361" lon="4.58612">
        <ele>550.2</ele>
        <time>2022-06-26T05:35:13Z</time>
      </trkpt>
      <trkpt lat="45.99359" lon="4.58614">
        <ele>550.2</ele>
        <time>2022-06-26T05:35:14Z</time>
      </trkpt>
      <trkpt lat="45.99357" lon="4.58617">
        <ele>550.2</ele>
        <time>2022-06-26T05:35:15Z</time>
      </trkpt>
      <trkpt lat="45.99355" lon="4.5862">
        <ele>550.6</ele>
        <time>2022-06-26T05:35:16Z</time>
      </trkpt>
      <trkpt lat="45.99353" lon="4.58623">
        <ele>550.6</ele>
        <time>2022-06-26T05:35:17Z</time>
      </trkpt>
      <trkpt lat="45.9935" lon="4.58626">
        <ele>550.6</ele>
        <time>2022-06-26T05:35:18Z</time>
      </trkpt>
      <trkpt lat="45.99348" lon="4.58629">
        <ele>550.6</ele>
        <time>2022-06-26T05:35:19Z</time>
      </trkpt>
      <trkpt lat="45.99345" lon="4.58633">
        <ele>550.6</ele>
        <time>2022-06-26T05:35:20Z</time>
      </trkpt>
      <trkpt lat="45.99343" lon="4.58637">
        <ele>550.6</ele>
        <time>2022-06-26T05:35:21Z</time>
      </trkpt>
      <trkpt lat="45.99341" lon="4.5864">
        <ele>550.8</ele>
        <time>2022-06-26T05:35:22Z</time>
      </trkpt>
      <trkpt lat="45.99338" lon="4.58644">
        <ele>550.8</ele>
        <time>2022-06-26T05:35:23Z</time>
      </trkpt>
      <trkpt lat="45.99336" lon="4.58647">
        <ele>550.8</ele>
        <time>2022-06-26T05:35:24Z</time>
      </trkpt>
      <trkpt lat="45.99333" lon="4.58651">
        <ele>551</ele>
        <time>2022-06-26T05:35:25Z</time>
      </trkpt>
      <trkpt lat="45.99331" lon="4.58654">
        <ele>551</ele>
        <time>2022-06-26T05:35:26Z</time>
      </trkpt>
      <trkpt lat="45.99329" lon="4.58658">
        <ele>551</ele>
        <time>2022-06-26T05:35:27Z</time>
      </trkpt>
      <trkpt lat="45.99326" lon="4.58661">
        <ele>551</ele>
        <time>2022-06-26T05:35:28Z</time>
      </trkpt>
      <trkpt lat="45.99324" lon="4.58665">
        <ele>551</ele>
        <time>2022-06-26T05:35:29Z</time>
      </trkpt>
      <trkpt lat="45.99321" lon="4.58668">
        <ele>551</ele>
        <time>2022-06-26T05:35:30Z</time>
      </trkpt>
      <trkpt lat="45.99319" lon="4.58672">
        <ele>551</ele>
        <time>2022-06-26T05:35:31Z</time>
      </trkpt>
      <trkpt lat="45.99316" lon="4.58676">
        <ele>551</ele>
        <time>2022-06-26T05:35:32Z</time>
      </trkpt>
      <trkpt lat="45.99314" lon="4.5868">
        <ele>551</ele>
        <time>2022-06-26T05:35:33Z</time>
      </trkpt>
      <trkpt lat="45.99312" lon="4.58685">
        <ele>551</ele>
        <time>2022-06-26T05:35:34Z</time>
      </trkpt>
      <trkpt lat="45.9931" lon="4.5869">
        <ele>550.8</ele>
        <time>2022-06-26T05:35:35Z</time>
      </trkpt>
      <trkpt lat="45.99308" lon="4.58696">
        <ele>550.6</ele>
        <time>2022-06-26T05:35:36Z</time>
      </trkpt>
      <trkpt lat="45.99306" lon="4.58701">
        <ele>550.2</ele>
        <time>2022-06-26T05:35:37Z</time>
      </trkpt>
      <trkpt lat="45.99305" lon="4.58706">
        <ele>550</ele>
        <time>2022-06-26T05:35:38Z</time>
      </trkpt>
      <trkpt lat="45.99304" lon="4.58711">
        <ele>549.6</ele>
        <time>2022-06-26T05:35:39Z</time>
      </trkpt>
      <trkpt lat="45.99303" lon="4.58715">
        <ele>549.2</ele>
        <time>2022-06-26T05:35:40Z</time>
      </trkpt>
      <trkpt lat="45.99302" lon="4.58719">
        <ele>548.8</ele>
        <time>2022-06-26T05:35:41Z</time>
      </trkpt>
      <trkpt lat="45.993" lon="4.58721">
        <ele>548.6</ele>
        <time>2022-06-26T05:35:42Z</time>
      </trkpt>
      <trkpt lat="45.99298" lon="4.58722">
        <ele>548.2</ele>
        <time>2022-06-26T05:35:43Z</time>
      </trkpt>
      <trkpt lat="45.99296" lon="4.58721">
        <ele>548</ele>
        <time>2022-06-26T05:35:44Z</time>
      </trkpt>
      <trkpt lat="45.99294" lon="4.58718">
        <ele>547.8</ele>
        <time>2022-06-26T05:35:45Z</time>
      </trkpt>
      <trkpt lat="45.99293" lon="4.58714">
        <ele>547.8</ele>
        <time>2022-06-26T05:35:46Z</time>
      </trkpt>
      <trkpt lat="45.99293" lon="4.58709">
        <ele>547.4</ele>
        <time>2022-06-26T05:35:47Z</time>
      </trkpt>
      <trkpt lat="45.99293" lon="4.58705">
        <ele>547.4</ele>
        <time>2022-06-26T05:35:48Z</time>
      </trkpt>
      <trkpt lat="45.99293" lon="4.587">
        <ele>547.4</ele>
        <time>2022-06-26T05:35:49Z</time>
      </trkpt>
      <trkpt lat="45.99293" lon="4.58696">
        <ele>547.4</ele>
        <time>2022-06-26T05:35:50Z</time>
      </trkpt>
      <trkpt lat="45.99293" lon="4.58691">
        <ele>547.4</ele>
        <time>2022-06-26T05:35:51Z</time>
      </trkpt>
      <trkpt lat="45.99293" lon="4.58686">
        <ele>547.4</ele>
        <time>2022-06-26T05:35:52Z</time>
      </trkpt>
      <trkpt lat="45.99294" lon="4.5868">
        <ele>547.2</ele>
        <time>2022-06-26T05:35:53Z</time>
      </trkpt>
      <trkpt lat="45.99294" lon="4.58675">
        <ele>547.2</ele>
        <time>2022-06-26T05:35:54Z</time>
      </trkpt>
      <trkpt lat="45.99295" lon="4.58669">
        <ele>547.2</ele>
        <time>2022-06-26T05:35:55Z</time>
      </trkpt>
      <trkpt lat="45.99295" lon="4.58663">
        <ele>547.2</ele>
        <time>2022-06-26T05:35:56Z</time>
      </trkpt>
      <trkpt lat="45.99295" lon="4.58657">
        <ele>547.2</ele>
        <time>2022-06-26T05:35:57Z</time>
      </trkpt>
      <trkpt lat="45.99296" lon="4.58651">
        <ele>547.2</ele>
        <time>2022-06-26T05:35:58Z</time>
      </trkpt>
      <trkpt lat="45.99296" lon="4.58645">
        <ele>547.2</ele>
        <time>2022-06-26T05:35:59Z</time>
      </trkpt>
      <trkpt lat="45.99295" lon="4.58639">
        <ele>547.2</ele>
        <time>2022-06-26T05:36:00Z</time>
      </trkpt>
      <trkpt lat="45.99295" lon="4.58632">
        <ele>547.2</ele>
        <time>2022-06-26T05:36:01Z</time>
      </trkpt>
      <trkpt lat="45.99294" lon="4.58626">
        <ele>547.2</ele>
        <time>2022-06-26T05:36:02Z</time>
      </trkpt>
      <trkpt lat="45.99293" lon="4.58619">
        <ele>547.2</ele>
        <time>2022-06-26T05:36:03Z</time>
      </trkpt>
      <trkpt lat="45.99291" lon="4.58613">
        <ele>547.2</ele>
        <time>2022-06-26T05:36:04Z</time>
      </trkpt>
      <trkpt lat="45.9929" lon="4.58607">
        <ele>547.2</ele>
        <time>2022-06-26T05:36:05Z</time>
      </trkpt>
      <trkpt lat="45.99288" lon="4.58601">
        <ele>547.2</ele>
        <time>2022-06-26T05:36:06Z</time>
      </trkpt>
      <trkpt lat="45.99286" lon="4.58595">
        <ele>547.2</ele>
        <time>2022-06-26T05:36:07Z</time>
      </trkpt>
      <trkpt lat="45.99285" lon="4.5859">
        <ele>547.2</ele>
        <time>2022-06-26T05:36:08Z</time>
      </trkpt>
      <trkpt lat="45.99283" lon="4.58584">
        <ele>547.2</ele>
        <time>2022-06-26T05:36:09Z</time>
      </trkpt>
      <trkpt lat="45.99281" lon="4.58579">
        <ele>547.6</ele>
        <time>2022-06-26T05:36:10Z</time>
      </trkpt>
      <trkpt lat="45.99279" lon="4.58574">
        <ele>547.6</ele>
        <time>2022-06-26T05:36:11Z</time>
      </trkpt>
      <trkpt lat="45.99277" lon="4.58569">
        <ele>547.6</ele>
        <time>2022-06-26T05:36:12Z</time>
      </trkpt>
      <trkpt lat="45.99274" lon="4.58564">
        <ele>547.6</ele>
        <time>2022-06-26T05:36:13Z</time>
      </trkpt>
      <trkpt lat="45.99271" lon="4.58561">
        <ele>547.6</ele>
        <time>2022-06-26T05:36:14Z</time>
      </trkpt>
      <trkpt lat="45.99267" lon="4.58559">
        <ele>547.2</ele>
        <time>2022-06-26T05:36:15Z</time>
      </trkpt>
      <trkpt lat="45.99262" lon="4.58558">
        <ele>546.8</ele>
        <time>2022-06-26T05:36:16Z</time>
      </trkpt>
      <trkpt lat="45.99256" lon="4.58558">
        <ele>546.2</ele>
        <time>2022-06-26T05:36:17Z</time>
      </trkpt>
      <trkpt lat="45.9925" lon="4.58559">
        <ele>545.6</ele>
        <time>2022-06-26T05:36:18Z</time>
      </trkpt>
      <trkpt lat="45.99244" lon="4.58559">
        <ele>545.2</ele>
        <time>2022-06-26T05:36:19Z</time>
      </trkpt>
      <trkpt lat="45.99238" lon="4.58558">
        <ele>544.6</ele>
        <time>2022-06-26T05:36:20Z</time>
      </trkpt>
      <trkpt lat="45.99232" lon="4.58555">
        <ele>544.2</ele>
        <time>2022-06-26T05:36:21Z</time>
      </trkpt>
      <trkpt lat="45.99227" lon="4.5855">
        <ele>543.8</ele>
        <time>2022-06-26T05:36:22Z</time>
      </trkpt>
      <trkpt lat="45.99222" lon="4.58543">
        <ele>543.4</ele>
        <time>2022-06-26T05:36:23Z</time>
      </trkpt>
      <trkpt lat="45.99217" lon="4.58535">
        <ele>542.8</ele>
        <time>2022-06-26T05:36:24Z</time>
      </trkpt>
      <trkpt lat="45.99212" lon="4.58527">
        <ele>542.2</ele>
        <time>2022-06-26T05:36:25Z</time>
      </trkpt>
      <trkpt lat="45.99208" lon="4.58519">
        <ele>542</ele>
        <time>2022-06-26T05:36:26Z</time>
      </trkpt>
      <trkpt lat="45.99203" lon="4.58512">
        <ele>541.4</ele>
        <time>2022-06-26T05:36:27Z</time>
      </trkpt>
      <trkpt lat="45.992" lon="4.58505">
        <ele>541</ele>
        <time>2022-06-26T05:36:28Z</time>
      </trkpt>
      <trkpt lat="45.99196" lon="4.58498">
        <ele>540.6</ele>
        <time>2022-06-26T05:36:29Z</time>
      </trkpt>
      <trkpt lat="45.99193" lon="4.58492">
        <ele>540</ele>
        <time>2022-06-26T05:36:30Z</time>
      </trkpt>
      <trkpt lat="45.9919" lon="4.58487">
        <ele>539.6</ele>
        <time>2022-06-26T05:36:31Z</time>
      </trkpt>
      <trkpt lat="45.99187" lon="4.58483">
        <ele>539</ele>
        <time>2022-06-26T05:36:32Z</time>
      </trkpt>
      <trkpt lat="45.99183" lon="4.58479">
        <ele>538.4</ele>
        <time>2022-06-26T05:36:33Z</time>
      </trkpt>
      <trkpt lat="45.99179" lon="4.58476">
        <ele>537.8</ele>
        <time>2022-06-26T05:36:34Z</time>
      </trkpt>
      <trkpt lat="45.99174" lon="4.58475">
        <ele>537</ele>
        <time>2022-06-26T05:36:35Z</time>
      </trkpt>
      <trkpt lat="45.9917" lon="4.58475">
        <ele>536.4</ele>
        <time>2022-06-26T05:36:36Z</time>
      </trkpt>
      <trkpt lat="45.99167" lon="4.58475">
        <ele>535.6</ele>
        <time>2022-06-26T05:36:37Z</time>
      </trkpt>
      <trkpt lat="45.99163" lon="4.58475">
        <ele>535</ele>
        <time>2022-06-26T05:36:38Z</time>
      </trkpt>
      <trkpt lat="45.9916" lon="4.58476">
        <ele>534.4</ele>
        <time>2022-06-26T05:36:39Z</time>
      </trkpt>
      <trkpt lat="45.99156" lon="4.58476">
        <ele>533.6</ele>
        <time>2022-06-26T05:36:40Z</time>
      </trkpt>
      <trkpt lat="45.99152" lon="4.58475">
        <ele>532.8</ele>
        <time>2022-06-26T05:36:41Z</time>
      </trkpt>
      <trkpt lat="45.99148" lon="4.58475">
        <ele>532.2</ele>
        <time>2022-06-26T05:36:42Z</time>
      </trkpt>
      <trkpt lat="45.99145" lon="4.58476">
        <ele>531.4</ele>
        <time>2022-06-26T05:36:43Z</time>
      </trkpt>
      <trkpt lat="45.99141" lon="4.58478">
        <ele>530.8</ele>
        <time>2022-06-26T05:36:44Z</time>
      </trkpt>
      <trkpt lat="45.99137" lon="4.58482">
        <ele>530</ele>
        <time>2022-06-26T05:36:45Z</time>
      </trkpt>
      <trkpt lat="45.99133" lon="4.58487">
        <ele>529</ele>
        <time>2022-06-26T05:36:46Z</time>
      </trkpt>
      <trkpt lat="45.99129" lon="4.58493">
        <ele>528</ele>
        <time>2022-06-26T05:36:47Z</time>
      </trkpt>
      <trkpt lat="45.99125" lon="4.585">
        <ele>527</ele>
        <time>2022-06-26T05:36:48Z</time>
      </trkpt>
      <trkpt lat="45.99122" lon="4.58506">
        <ele>526</ele>
        <time>2022-06-26T05:36:49Z</time>
      </trkpt>
      <trkpt lat="45.99119" lon="4.58513">
        <ele>524.8</ele>
        <time>2022-06-26T05:36:50Z</time>
      </trkpt>
      <trkpt lat="45.99116" lon="4.58519">
        <ele>523.6</ele>
        <time>2022-06-26T05:36:51Z</time>
      </trkpt>
      <trkpt lat="45.99113" lon="4.58525">
        <ele>522.6</ele>
        <time>2022-06-26T05:36:52Z</time>
      </trkpt>
      <trkpt lat="45.9911" lon="4.58531">
        <ele>521.6</ele>
        <time>2022-06-26T05:36:53Z</time>
      </trkpt>
      <trkpt lat="45.99107" lon="4.58537">
        <ele>520.4</ele>
        <time>2022-06-26T05:36:54Z</time>
      </trkpt>
      <trkpt lat="45.99105" lon="4.58543">
        <ele>519.2</ele>
        <time>2022-06-26T05:36:55Z</time>
      </trkpt>
      <trkpt lat="45.99103" lon="4.58549">
        <ele>518</ele>
        <time>2022-06-26T05:36:56Z</time>
      </trkpt>
      <trkpt lat="45.991" lon="4.58555">
        <ele>517</ele>
        <time>2022-06-26T05:36:57Z</time>
      </trkpt>
      <trkpt lat="45.99098" lon="4.58561">
        <ele>516</ele>
        <time>2022-06-26T05:36:58Z</time>
      </trkpt>
      <trkpt lat="45.99095" lon="4.58566">
        <ele>515</ele>
        <time>2022-06-26T05:36:59Z</time>
      </trkpt>
      <trkpt lat="45.99093" lon="4.58571">
        <ele>514.2</ele>
        <time>2022-06-26T05:37:00Z</time>
      </trkpt>
      <trkpt lat="45.99091" lon="4.58575">
        <ele>513.2</ele>
        <time>2022-06-26T05:37:01Z</time>
      </trkpt>
      <trkpt lat="45.99089" lon="4.5858">
        <ele>512.6</ele>
        <time>2022-06-26T05:37:02Z</time>
      </trkpt>
      <trkpt lat="45.99088" lon="4.58585">
        <ele>511.6</ele>
        <time>2022-06-26T05:37:03Z</time>
      </trkpt>
      <trkpt lat="45.99087" lon="4.58588">
        <ele>510.8</ele>
        <time>2022-06-26T05:37:04Z</time>
      </trkpt>
      <trkpt lat="45.99085" lon="4.58592">
        <ele>510.2</ele>
        <time>2022-06-26T05:37:05Z</time>
      </trkpt>
      <trkpt lat="45.99084" lon="4.58595">
        <ele>509.4</ele>
        <time>2022-06-26T05:37:06Z</time>
      </trkpt>
      <trkpt lat="45.99082" lon="4.58598">
        <ele>508.8</ele>
        <time>2022-06-26T05:37:07Z</time>
      </trkpt>
      <trkpt lat="45.9908" lon="4.58601">
        <ele>508</ele>
        <time>2022-06-26T05:37:08Z</time>
      </trkpt>
      <trkpt lat="45.99078" lon="4.58604">
        <ele>507.2</ele>
        <time>2022-06-26T05:37:09Z</time>
      </trkpt>
      <trkpt lat="45.99076" lon="4.58608">
        <ele>506.4</ele>
        <time>2022-06-26T05:37:10Z</time>
      </trkpt>
      <trkpt lat="45.99073" lon="4.58611">
        <ele>505.6</ele>
        <time>2022-06-26T05:37:11Z</time>
      </trkpt>
      <trkpt lat="45.99071" lon="4.58613">
        <ele>504.8</ele>
        <time>2022-06-26T05:37:12Z</time>
      </trkpt>
      <trkpt lat="45.99068" lon="4.58615">
        <ele>504</ele>
        <time>2022-06-26T05:37:13Z</time>
      </trkpt>
      <trkpt lat="45.99065" lon="4.58616">
        <ele>503.2</ele>
        <time>2022-06-26T05:37:14Z</time>
      </trkpt>
      <trkpt lat="45.99061" lon="4.58617">
        <ele>502.6</ele>
        <time>2022-06-26T05:37:15Z</time>
      </trkpt>
      <trkpt lat="45.99058" lon="4.58616">
        <ele>501.8</ele>
        <time>2022-06-26T05:37:16Z</time>
      </trkpt>
      <trkpt lat="45.99054" lon="4.58615">
        <ele>501</ele>
        <time>2022-06-26T05:37:17Z</time>
      </trkpt>
      <trkpt lat="45.9905" lon="4.58614">
        <ele>500.2</ele>
        <time>2022-06-26T05:37:18Z</time>
      </trkpt>
      <trkpt lat="45.99047" lon="4.58611">
        <ele>499.4</ele>
        <time>2022-06-26T05:37:19Z</time>
      </trkpt>
      <trkpt lat="45.99044" lon="4.58608">
        <ele>498.8</ele>
        <time>2022-06-26T05:37:20Z</time>
      </trkpt>
      <trkpt lat="45.99041" lon="4.58604">
        <ele>498</ele>
        <time>2022-06-26T05:37:21Z</time>
      </trkpt>
      <trkpt lat="45.99038" lon="4.586">
        <ele>497.6</ele>
        <time>2022-06-26T05:37:22Z</time>
      </trkpt>
      <trkpt lat="45.99035" lon="4.58594">
        <ele>497</ele>
        <time>2022-06-26T05:37:23Z</time>
      </trkpt>
      <trkpt lat="45.99033" lon="4.58588">
        <ele>496.6</ele>
        <time>2022-06-26T05:37:24Z</time>
      </trkpt>
      <trkpt lat="45.9903" lon="4.5858">
        <ele>496</ele>
        <time>2022-06-26T05:37:25Z</time>
      </trkpt>
      <trkpt lat="45.99028" lon="4.58573">
        <ele>495.6</ele>
        <time>2022-06-26T05:37:26Z</time>
      </trkpt>
      <trkpt lat="45.99026" lon="4.58565">
        <ele>495.6</ele>
        <time>2022-06-26T05:37:27Z</time>
      </trkpt>
      <trkpt lat="45.99023" lon="4.58557">
        <ele>495.2</ele>
        <time>2022-06-26T05:37:28Z</time>
      </trkpt>
      <trkpt lat="45.99021" lon="4.58549">
        <ele>494.8</ele>
        <time>2022-06-26T05:37:29Z</time>
      </trkpt>
      <trkpt lat="45.99018" lon="4.58541">
        <ele>494.6</ele>
        <time>2022-06-26T05:37:30Z</time>
      </trkpt>
      <trkpt lat="45.99016" lon="4.58534">
        <ele>494.2</ele>
        <time>2022-06-26T05:37:31Z</time>
      </trkpt>
      <trkpt lat="45.99013" lon="4.58527">
        <ele>494</ele>
        <time>2022-06-26T05:37:32Z</time>
      </trkpt>
      <trkpt lat="45.9901" lon="4.58519">
        <ele>493.8</ele>
        <time>2022-06-26T05:37:33Z</time>
      </trkpt>
      <trkpt lat="45.99008" lon="4.58511">
        <ele>493.4</ele>
        <time>2022-06-26T05:37:34Z</time>
      </trkpt>
      <trkpt lat="45.99005" lon="4.58503">
        <ele>493.4</ele>
        <time>2022-06-26T05:37:35Z</time>
      </trkpt>
      <trkpt lat="45.99002" lon="4.58495">
        <ele>493</ele>
        <time>2022-06-26T05:37:36Z</time>
      </trkpt>
      <trkpt lat="45.98998" lon="4.58487">
        <ele>492.6</ele>
        <time>2022-06-26T05:37:37Z</time>
      </trkpt>
      <trkpt lat="45.98995" lon="4.58479">
        <ele>492.2</ele>
        <time>2022-06-26T05:37:38Z</time>
      </trkpt>
      <trkpt lat="45.98992" lon="4.58471">
        <ele>491.6</ele>
        <time>2022-06-26T05:37:39Z</time>
      </trkpt>
      <trkpt lat="45.98989" lon="4.58463">
        <ele>491</ele>
        <time>2022-06-26T05:37:40Z</time>
      </trkpt>
      <trkpt lat="45.98986" lon="4.58454">
        <ele>490</ele>
        <time>2022-06-26T05:37:41Z</time>
      </trkpt>
      <trkpt lat="45.98984" lon="4.58446">
        <ele>489.2</ele>
        <time>2022-06-26T05:37:42Z</time>
      </trkpt>
      <trkpt lat="45.98981" lon="4.58437">
        <ele>488.2</ele>
        <time>2022-06-26T05:37:43Z</time>
      </trkpt>
      <trkpt lat="45.98978" lon="4.5843">
        <ele>487.2</ele>
        <time>2022-06-26T05:37:44Z</time>
      </trkpt>
      <trkpt lat="45.98975" lon="4.58423">
        <ele>486.4</ele>
        <time>2022-06-26T05:37:45Z</time>
      </trkpt>
      <trkpt lat="45.98971" lon="4.58417">
        <ele>485.6</ele>
        <time>2022-06-26T05:37:46Z</time>
      </trkpt>
      <trkpt lat="45.98968" lon="4.58411">
        <ele>485</ele>
        <time>2022-06-26T05:37:47Z</time>
      </trkpt>
      <trkpt lat="45.98964" lon="4.58407">
        <ele>484.2</ele>
        <time>2022-06-26T05:37:48Z</time>
      </trkpt>
      <trkpt lat="45.98961" lon="4.58402">
        <ele>483.6</ele>
        <time>2022-06-26T05:37:49Z</time>
      </trkpt>
      <trkpt lat="45.98958" lon="4.58397">
        <ele>482.8</ele>
        <time>2022-06-26T05:37:50Z</time>
      </trkpt>
      <trkpt lat="45.98955" lon="4.58393">
        <ele>482.2</ele>
        <time>2022-06-26T05:37:51Z</time>
      </trkpt>
      <trkpt lat="45.98952" lon="4.5839">
        <ele>481.6</ele>
        <time>2022-06-26T05:37:52Z</time>
      </trkpt>
      <trkpt lat="45.98949" lon="4.58388">
        <ele>481</ele>
        <time>2022-06-26T05:37:53Z</time>
      </trkpt>
      <trkpt lat="45.98945" lon="4.58384">
        <ele>480.4</ele>
        <time>2022-06-26T05:37:54Z</time>
      </trkpt>
      <trkpt lat="45.98941" lon="4.5838">
        <ele>479.8</ele>
        <time>2022-06-26T05:37:55Z</time>
      </trkpt>
      <trkpt lat="45.98937" lon="4.58374">
        <ele>479.2</ele>
        <time>2022-06-26T05:37:56Z</time>
      </trkpt>
      <trkpt lat="45.98933" lon="4.58367">
        <ele>478.6</ele>
        <time>2022-06-26T05:37:57Z</time>
      </trkpt>
      <trkpt lat="45.98931" lon="4.58359">
        <ele>478.2</ele>
        <time>2022-06-26T05:37:58Z</time>
      </trkpt>
      <trkpt lat="45.98929" lon="4.58352">
        <ele>477.8</ele>
        <time>2022-06-26T05:37:59Z</time>
      </trkpt>
      <trkpt lat="45.98927" lon="4.58345">
        <ele>477.8</ele>
        <time>2022-06-26T05:38:00Z</time>
      </trkpt>
      <trkpt lat="45.98925" lon="4.58338">
        <ele>477.6</ele>
        <time>2022-06-26T05:38:01Z</time>
      </trkpt>
      <trkpt lat="45.98923" lon="4.58331">
        <ele>477.6</ele>
        <time>2022-06-26T05:38:02Z</time>
      </trkpt>
      <trkpt lat="45.98922" lon="4.58324">
        <ele>477.6</ele>
        <time>2022-06-26T05:38:03Z</time>
      </trkpt>
      <trkpt lat="45.98921" lon="4.58317">
        <ele>472.6</ele>
        <time>2022-06-26T05:38:04Z</time>
      </trkpt>
      <trkpt lat="45.98919" lon="4.5831">
        <ele>473.8</ele>
        <time>2022-06-26T05:38:05Z</time>
      </trkpt>
      <trkpt lat="45.98917" lon="4.58303">
        <ele>474.8</ele>
        <time>2022-06-26T05:38:06Z</time>
      </trkpt>
      <trkpt lat="45.98915" lon="4.58295">
        <ele>475.4</ele>
        <time>2022-06-26T05:38:07Z</time>
      </trkpt>
      <trkpt lat="45.98913" lon="4.58288">
        <ele>476</ele>
        <time>2022-06-26T05:38:08Z</time>
      </trkpt>
      <trkpt lat="45.98912" lon="4.58281">
        <ele>476.4</ele>
        <time>2022-06-26T05:38:09Z</time>
      </trkpt>
      <trkpt lat="45.9891" lon="4.58274">
        <ele>476.6</ele>
        <time>2022-06-26T05:38:10Z</time>
      </trkpt>
      <trkpt lat="45.98908" lon="4.58267">
        <ele>476.8</ele>
        <time>2022-06-26T05:38:11Z</time>
      </trkpt>
      <trkpt lat="45.98907" lon="4.5826">
        <ele>477</ele>
        <time>2022-06-26T05:38:12Z</time>
      </trkpt>
      <trkpt lat="45.98905" lon="4.58253">
        <ele>477</ele>
        <time>2022-06-26T05:38:13Z</time>
      </trkpt>
      <trkpt lat="45.98904" lon="4.58246">
        <ele>477</ele>
        <time>2022-06-26T05:38:14Z</time>
      </trkpt>
      <trkpt lat="45.98902" lon="4.58239">
        <ele>477.4</ele>
        <time>2022-06-26T05:38:15Z</time>
      </trkpt>
      <trkpt lat="45.98901" lon="4.58233">
        <ele>477.4</ele>
        <time>2022-06-26T05:38:16Z</time>
      </trkpt>
      <trkpt lat="45.98899" lon="4.58226">
        <ele>477.4</ele>
        <time>2022-06-26T05:38:17Z</time>
      </trkpt>
      <trkpt lat="45.98898" lon="4.5822">
        <ele>477.4</ele>
        <time>2022-06-26T05:38:18Z</time>
      </trkpt>
      <trkpt lat="45.98896" lon="4.58213">
        <ele>477.4</ele>
        <time>2022-06-26T05:38:19Z</time>
      </trkpt>
      <trkpt lat="45.98894" lon="4.58206">
        <ele>477.4</ele>
        <time>2022-06-26T05:38:20Z</time>
      </trkpt>
      <trkpt lat="45.98893" lon="4.582">
        <ele>477.4</ele>
        <time>2022-06-26T05:38:21Z</time>
      </trkpt>
      <trkpt lat="45.98891" lon="4.58193">
        <ele>477.4</ele>
        <time>2022-06-26T05:38:22Z</time>
      </trkpt>
      <trkpt lat="45.98889" lon="4.58187">
        <ele>477.4</ele>
        <time>2022-06-26T05:38:23Z</time>
      </trkpt>
      <trkpt lat="45.98886" lon="4.58182">
        <ele>477.6</ele>
        <time>2022-06-26T05:38:24Z</time>
      </trkpt>
      <trkpt lat="45.98884" lon="4.58177">
        <ele>477.6</ele>
        <time>2022-06-26T05:38:25Z</time>
      </trkpt>
      <trkpt lat="45.98881" lon="4.58172">
        <ele>477.6</ele>
        <time>2022-06-26T05:38:26Z</time>
      </trkpt>
      <trkpt lat="45.98878" lon="4.58167">
        <ele>477.6</ele>
        <time>2022-06-26T05:38:27Z</time>
      </trkpt>
      <trkpt lat="45.98874" lon="4.58164">
        <ele>477.6</ele>
        <time>2022-06-26T05:38:28Z</time>
      </trkpt>
      <trkpt lat="45.9887" lon="4.58162">
        <ele>477.6</ele>
        <time>2022-06-26T05:38:29Z</time>
      </trkpt>
      <trkpt lat="45.98866" lon="4.5816">
        <ele>477.6</ele>
        <time>2022-06-26T05:38:30Z</time>
      </trkpt>
      <trkpt lat="45.98863" lon="4.58159">
        <ele>477.6</ele>
        <time>2022-06-26T05:38:31Z</time>
      </trkpt>
      <trkpt lat="45.98859" lon="4.58159">
        <ele>477.6</ele>
        <time>2022-06-26T05:38:32Z</time>
      </trkpt>
      <trkpt lat="45.98857" lon="4.58159">
        <ele>477.6</ele>
        <time>2022-06-26T05:38:33Z</time>
      </trkpt>
      <trkpt lat="45.98855" lon="4.5816">
        <ele>477.6</ele>
        <time>2022-06-26T05:38:34Z</time>
      </trkpt>
      <trkpt lat="45.98853" lon="4.5816">
        <ele>477.6</ele>
        <time>2022-06-26T05:38:35Z</time>
      </trkpt>
      <trkpt lat="45.98846" lon="4.58167">
        <ele>477.6</ele>
        <time>2022-06-26T05:38:57Z</time>
      </trkpt>
      <trkpt lat="45.98845" lon="4.5817">
        <ele>477.8</ele>
        <time>2022-06-26T05:38:58Z</time>
      </trkpt>
      <trkpt lat="45.98843" lon="4.58173">
        <ele>477.8</ele>
        <time>2022-06-26T05:38:59Z</time>
      </trkpt>
      <trkpt lat="45.98841" lon="4.58176">
        <ele>477.8</ele>
        <time>2022-06-26T05:39:00Z</time>
      </trkpt>
      <trkpt lat="45.98839" lon="4.58179">
        <ele>478.2</ele>
        <time>2022-06-26T05:39:01Z</time>
      </trkpt>
      <trkpt lat="45.98838" lon="4.58183">
        <ele>478.2</ele>
        <time>2022-06-26T05:39:02Z</time>
      </trkpt>
      <trkpt lat="45.98837" lon="4.58187">
        <ele>478.2</ele>
        <time>2022-06-26T05:39:03Z</time>
      </trkpt>
      <trkpt lat="45.98836" lon="4.58191">
        <ele>478.4</ele>
        <time>2022-06-26T05:39:04Z</time>
      </trkpt>
      <trkpt lat="45.98835" lon="4.58194">
        <ele>478.4</ele>
        <time>2022-06-26T05:39:05Z</time>
      </trkpt>
      <trkpt lat="45.98834" lon="4.58198">
        <ele>478.4</ele>
        <time>2022-06-26T05:39:06Z</time>
      </trkpt>
      <trkpt lat="45.98834" lon="4.58201">
        <ele>478.8</ele>
        <time>2022-06-26T05:39:07Z</time>
      </trkpt>
      <trkpt lat="45.98832" lon="4.58204">
        <ele>478.8</ele>
        <time>2022-06-26T05:39:08Z</time>
      </trkpt>
      <trkpt lat="45.98831" lon="4.58208">
        <ele>478.8</ele>
        <time>2022-06-26T05:39:09Z</time>
      </trkpt>
      <trkpt lat="45.9883" lon="4.58213">
        <ele>479</ele>
        <time>2022-06-26T05:39:10Z</time>
      </trkpt>
      <trkpt lat="45.98829" lon="4.58217">
        <ele>479</ele>
        <time>2022-06-26T05:39:11Z</time>
      </trkpt>
      <trkpt lat="45.98828" lon="4.58221">
        <ele>479.2</ele>
        <time>2022-06-26T05:39:12Z</time>
      </trkpt>
      <trkpt lat="45.98826" lon="4.58225">
        <ele>479.2</ele>
        <time>2022-06-26T05:39:13Z</time>
      </trkpt>
      <trkpt lat="45.98825" lon="4.58229">
        <ele>479.4</ele>
        <time>2022-06-26T05:39:14Z</time>
      </trkpt>
      <trkpt lat="45.98824" lon="4.58234">
        <ele>479.4</ele>
        <time>2022-06-26T05:39:15Z</time>
      </trkpt>
      <trkpt lat="45.98822" lon="4.58238">
        <ele>479.4</ele>
        <time>2022-06-26T05:39:16Z</time>
      </trkpt>
      <trkpt lat="45.98821" lon="4.58243">
        <ele>479.8</ele>
        <time>2022-06-26T05:39:17Z</time>
      </trkpt>
      <trkpt lat="45.98819" lon="4.58247">
        <ele>479.8</ele>
        <time>2022-06-26T05:39:18Z</time>
      </trkpt>
      <trkpt lat="45.98817" lon="4.58251">
        <ele>480</ele>
        <time>2022-06-26T05:39:19Z</time>
      </trkpt>
      <trkpt lat="45.98815" lon="4.58255">
        <ele>480</ele>
        <time>2022-06-26T05:39:20Z</time>
      </trkpt>
      <trkpt lat="45.98813" lon="4.58259">
        <ele>480</ele>
        <time>2022-06-26T05:39:21Z</time>
      </trkpt>
      <trkpt lat="45.98811" lon="4.58263">
        <ele>480</ele>
        <time>2022-06-26T05:39:22Z</time>
      </trkpt>
      <trkpt lat="45.9881" lon="4.58267">
        <ele>480.4</ele>
        <time>2022-06-26T05:39:23Z</time>
      </trkpt>
      <trkpt lat="45.98808" lon="4.58271">
        <ele>480.6</ele>
        <time>2022-06-26T05:39:24Z</time>
      </trkpt>
      <trkpt lat="45.98806" lon="4.58275">
        <ele>480.8</ele>
        <time>2022-06-26T05:39:25Z</time>
      </trkpt>
      <trkpt lat="45.98804" lon="4.58278">
        <ele>480.8</ele>
        <time>2022-06-26T05:39:26Z</time>
      </trkpt>
      <trkpt lat="45.98802" lon="4.58282">
        <ele>481</ele>
        <time>2022-06-26T05:39:27Z</time>
      </trkpt>
      <trkpt lat="45.988" lon="4.58286">
        <ele>481</ele>
        <time>2022-06-26T05:39:28Z</time>
      </trkpt>
      <trkpt lat="45.98798" lon="4.5829">
        <ele>481.4</ele>
        <time>2022-06-26T05:39:29Z</time>
      </trkpt>
      <trkpt lat="45.98796" lon="4.58294">
        <ele>481.4</ele>
        <time>2022-06-26T05:39:30Z</time>
      </trkpt>
      <trkpt lat="45.98793" lon="4.58297">
        <ele>481.4</ele>
        <time>2022-06-26T05:39:31Z</time>
      </trkpt>
      <trkpt lat="45.98791" lon="4.58301">
        <ele>481.8</ele>
        <time>2022-06-26T05:39:32Z</time>
      </trkpt>
      <trkpt lat="45.98789" lon="4.58304">
        <ele>481.8</ele>
        <time>2022-06-26T05:39:33Z</time>
      </trkpt>
      <trkpt lat="45.98787" lon="4.58307">
        <ele>481.8</ele>
        <time>2022-06-26T05:39:34Z</time>
      </trkpt>
      <trkpt lat="45.98785" lon="4.5831">
        <ele>482.2</ele>
        <time>2022-06-26T05:39:35Z</time>
      </trkpt>
      <trkpt lat="45.98783" lon="4.58313">
        <ele>482.4</ele>
        <time>2022-06-26T05:39:36Z</time>
      </trkpt>
      <trkpt lat="45.9878" lon="4.58317">
        <ele>482.4</ele>
        <time>2022-06-26T05:39:37Z</time>
      </trkpt>
      <trkpt lat="45.98778" lon="4.58321">
        <ele>482.6</ele>
        <time>2022-06-26T05:39:38Z</time>
      </trkpt>
      <trkpt lat="45.98776" lon="4.58324">
        <ele>482.6</ele>
        <time>2022-06-26T05:39:39Z</time>
      </trkpt>
      <trkpt lat="45.98774" lon="4.58328">
        <ele>482.8</ele>
        <time>2022-06-26T05:39:40Z</time>
      </trkpt>
      <trkpt lat="45.98772" lon="4.58332">
        <ele>482.8</ele>
        <time>2022-06-26T05:39:41Z</time>
      </trkpt>
      <trkpt lat="45.9877" lon="4.58335">
        <ele>483</ele>
        <time>2022-06-26T05:39:42Z</time>
      </trkpt>
      <trkpt lat="45.98768" lon="4.58339">
        <ele>483</ele>
        <time>2022-06-26T05:39:43Z</time>
      </trkpt>
      <trkpt lat="45.98766" lon="4.58343">
        <ele>483.4</ele>
        <time>2022-06-26T05:39:44Z</time>
      </trkpt>
      <trkpt lat="45.98764" lon="4.58346">
        <ele>483.4</ele>
        <time>2022-06-26T05:39:45Z</time>
      </trkpt>
      <trkpt lat="45.98762" lon="4.58349">
        <ele>483.6</ele>
        <time>2022-06-26T05:39:46Z</time>
      </trkpt>
      <trkpt lat="45.9876" lon="4.58353">
        <ele>483.6</ele>
        <time>2022-06-26T05:39:47Z</time>
      </trkpt>
      <trkpt lat="45.98758" lon="4.58356">
        <ele>484</ele>
        <time>2022-06-26T05:39:48Z</time>
      </trkpt>
      <trkpt lat="45.98756" lon="4.58359">
        <ele>484</ele>
        <time>2022-06-26T05:39:49Z</time>
      </trkpt>
      <trkpt lat="45.98754" lon="4.58362">
        <ele>484.2</ele>
        <time>2022-06-26T05:39:50Z</time>
      </trkpt>
      <trkpt lat="45.98753" lon="4.58365">
        <ele>484.2</ele>
        <time>2022-06-26T05:39:51Z</time>
      </trkpt>
      <trkpt lat="45.98751" lon="4.58368">
        <ele>484.6</ele>
        <time>2022-06-26T05:39:52Z</time>
      </trkpt>
      <trkpt lat="45.98749" lon="4.58371">
        <ele>484.6</ele>
        <time>2022-06-26T05:39:53Z</time>
      </trkpt>
      <trkpt lat="45.98747" lon="4.58373">
        <ele>485</ele>
        <time>2022-06-26T05:39:54Z</time>
      </trkpt>
      <trkpt lat="45.98745" lon="4.58376">
        <ele>485</ele>
        <time>2022-06-26T05:39:55Z</time>
      </trkpt>
      <trkpt lat="45.98743" lon="4.58378">
        <ele>485.4</ele>
        <time>2022-06-26T05:39:56Z</time>
      </trkpt>
      <trkpt lat="45.98741" lon="4.5838">
        <ele>485.4</ele>
        <time>2022-06-26T05:39:57Z</time>
      </trkpt>
      <trkpt lat="45.98739" lon="4.58382">
        <ele>485.8</ele>
        <time>2022-06-26T05:39:58Z</time>
      </trkpt>
      <trkpt lat="45.98737" lon="4.58384">
        <ele>486</ele>
        <time>2022-06-26T05:39:59Z</time>
      </trkpt>
      <trkpt lat="45.98735" lon="4.58386">
        <ele>486.2</ele>
        <time>2022-06-26T05:40:00Z</time>
      </trkpt>
      <trkpt lat="45.98733" lon="4.58387">
        <ele>486.2</ele>
        <time>2022-06-26T05:40:01Z</time>
      </trkpt>
      <trkpt lat="45.98732" lon="4.58389">
        <ele>486.4</ele>
        <time>2022-06-26T05:40:02Z</time>
      </trkpt>
      <trkpt lat="45.9873" lon="4.58391">
        <ele>486.4</ele>
        <time>2022-06-26T05:40:03Z</time>
      </trkpt>
      <trkpt lat="45.98727" lon="4.58392">
        <ele>486.8</ele>
        <time>2022-06-26T05:40:04Z</time>
      </trkpt>
      <trkpt lat="45.98725" lon="4.58394">
        <ele>486.8</ele>
        <time>2022-06-26T05:40:05Z</time>
      </trkpt>
      <trkpt lat="45.98723" lon="4.58396">
        <ele>487</ele>
        <time>2022-06-26T05:40:06Z</time>
      </trkpt>
      <trkpt lat="45.98721" lon="4.58398">
        <ele>487</ele>
        <time>2022-06-26T05:40:07Z</time>
      </trkpt>
      <trkpt lat="45.98719" lon="4.58399">
        <ele>487.4</ele>
        <time>2022-06-26T05:40:08Z</time>
      </trkpt>
      <trkpt lat="45.98717" lon="4.58401">
        <ele>487.4</ele>
        <time>2022-06-26T05:40:09Z</time>
      </trkpt>
      <trkpt lat="45.98715" lon="4.58403">
        <ele>487.8</ele>
        <time>2022-06-26T05:40:10Z</time>
      </trkpt>
      <trkpt lat="45.98713" lon="4.58404">
        <ele>487.8</ele>
        <time>2022-06-26T05:40:11Z</time>
      </trkpt>
      <trkpt lat="45.98711" lon="4.58405">
        <ele>488.2</ele>
        <time>2022-06-26T05:40:12Z</time>
      </trkpt>
      <trkpt lat="45.98709" lon="4.58407">
        <ele>488.2</ele>
        <time>2022-06-26T05:40:13Z</time>
      </trkpt>
      <trkpt lat="45.98707" lon="4.58408">
        <ele>488.4</ele>
        <time>2022-06-26T05:40:14Z</time>
      </trkpt>
      <trkpt lat="45.98705" lon="4.5841">
        <ele>488.4</ele>
        <time>2022-06-26T05:40:15Z</time>
      </trkpt>
      <trkpt lat="45.98703" lon="4.58412">
        <ele>488.6</ele>
        <time>2022-06-26T05:40:16Z</time>
      </trkpt>
      <trkpt lat="45.98701" lon="4.58414">
        <ele>488.6</ele>
        <time>2022-06-26T05:40:17Z</time>
      </trkpt>
      <trkpt lat="45.98699" lon="4.58415">
        <ele>489</ele>
        <time>2022-06-26T05:40:18Z</time>
      </trkpt>
      <trkpt lat="45.98696" lon="4.58417">
        <ele>489</ele>
        <time>2022-06-26T05:40:19Z</time>
      </trkpt>
      <trkpt lat="45.98694" lon="4.58418">
        <ele>489.2</ele>
        <time>2022-06-26T05:40:20Z</time>
      </trkpt>
      <trkpt lat="45.98692" lon="4.5842">
        <ele>489.2</ele>
        <time>2022-06-26T05:40:21Z</time>
      </trkpt>
      <trkpt lat="45.9869" lon="4.58422">
        <ele>489.6</ele>
        <time>2022-06-26T05:40:22Z</time>
      </trkpt>
      <trkpt lat="45.98688" lon="4.58423">
        <ele>489.6</ele>
        <time>2022-06-26T05:40:23Z</time>
      </trkpt>
      <trkpt lat="45.98686" lon="4.58425">
        <ele>489.8</ele>
        <time>2022-06-26T05:40:24Z</time>
      </trkpt>
      <trkpt lat="45.98683" lon="4.58427">
        <ele>490</ele>
        <time>2022-06-26T05:40:25Z</time>
      </trkpt>
      <trkpt lat="45.98681" lon="4.58428">
        <ele>490</ele>
        <time>2022-06-26T05:40:26Z</time>
      </trkpt>
      <trkpt lat="45.98679" lon="4.58429">
        <ele>490.4</ele>
        <time>2022-06-26T05:40:27Z</time>
      </trkpt>
      <trkpt lat="45.98678" lon="4.58431">
        <ele>490.4</ele>
        <time>2022-06-26T05:40:28Z</time>
      </trkpt>
      <trkpt lat="45.98676" lon="4.58432">
        <ele>491</ele>
        <time>2022-06-26T05:40:29Z</time>
      </trkpt>
      <trkpt lat="45.98674" lon="4.58434">
        <ele>491</ele>
        <time>2022-06-26T05:40:30Z</time>
      </trkpt>
      <trkpt lat="45.98672" lon="4.58435">
        <ele>491</ele>
        <time>2022-06-26T05:40:31Z</time>
      </trkpt>
      <trkpt lat="45.9867" lon="4.58437">
        <ele>491.2</ele>
        <time>2022-06-26T05:40:32Z</time>
      </trkpt>
      <trkpt lat="45.98668" lon="4.58438">
        <ele>491.2</ele>
        <time>2022-06-26T05:40:33Z</time>
      </trkpt>
      <trkpt lat="45.98666" lon="4.5844">
        <ele>491.4</ele>
        <time>2022-06-26T05:40:34Z</time>
      </trkpt>
      <trkpt lat="45.98664" lon="4.58442">
        <ele>491.6</ele>
        <time>2022-06-26T05:40:35Z</time>
      </trkpt>
      <trkpt lat="45.98662" lon="4.58443">
        <ele>492</ele>
        <time>2022-06-26T05:40:36Z</time>
      </trkpt>
      <trkpt lat="45.9866" lon="4.58445">
        <ele>492</ele>
        <time>2022-06-26T05:40:37Z</time>
      </trkpt>
      <trkpt lat="45.98658" lon="4.58446">
        <ele>492</ele>
        <time>2022-06-26T05:40:38Z</time>
      </trkpt>
      <trkpt lat="45.98656" lon="4.58447">
        <ele>492.4</ele>
        <time>2022-06-26T05:40:39Z</time>
      </trkpt>
      <trkpt lat="45.98654" lon="4.58449">
        <ele>492.6</ele>
        <time>2022-06-26T05:40:40Z</time>
      </trkpt>
      <trkpt lat="45.98652" lon="4.58451">
        <ele>492.6</ele>
        <time>2022-06-26T05:40:41Z</time>
      </trkpt>
      <trkpt lat="45.9865" lon="4.58453">
        <ele>492.8</ele>
        <time>2022-06-26T05:40:42Z</time>
      </trkpt>
      <trkpt lat="45.98648" lon="4.58454">
        <ele>493</ele>
        <time>2022-06-26T05:40:43Z</time>
      </trkpt>
      <trkpt lat="45.98646" lon="4.58456">
        <ele>493</ele>
        <time>2022-06-26T05:40:44Z</time>
      </trkpt>
      <trkpt lat="45.98644" lon="4.58457">
        <ele>493</ele>
        <time>2022-06-26T05:40:45Z</time>
      </trkpt>
      <trkpt lat="45.98641" lon="4.58459">
        <ele>493.4</ele>
        <time>2022-06-26T05:40:46Z</time>
      </trkpt>
      <trkpt lat="45.98639" lon="4.5846">
        <ele>493.6</ele>
        <time>2022-06-26T05:40:47Z</time>
      </trkpt>
      <trkpt lat="45.98637" lon="4.58462">
        <ele>493.8</ele>
        <time>2022-06-26T05:40:48Z</time>
      </trkpt>
      <trkpt lat="45.98635" lon="4.58464">
        <ele>493.8</ele>
        <time>2022-06-26T05:40:49Z</time>
      </trkpt>
      <trkpt lat="45.98633" lon="4.58465">
        <ele>493.8</ele>
        <time>2022-06-26T05:40:50Z</time>
      </trkpt>
      <trkpt lat="45.98631" lon="4.58466">
        <ele>494.2</ele>
        <time>2022-06-26T05:40:51Z</time>
      </trkpt>
      <trkpt lat="45.98629" lon="4.58467">
        <ele>494.2</ele>
        <time>2022-06-26T05:40:52Z</time>
      </trkpt>
      <trkpt lat="45.98627" lon="4.58468">
        <ele>494.6</ele>
        <time>2022-06-26T05:40:53Z</time>
      </trkpt>
      <trkpt lat="45.98625" lon="4.58468">
        <ele>494.6</ele>
        <time>2022-06-26T05:40:54Z</time>
      </trkpt>
      <trkpt lat="45.98622" lon="4.58469">
        <ele>494.6</ele>
        <time>2022-06-26T05:40:55Z</time>
      </trkpt>
      <trkpt lat="45.9862" lon="4.5847">
        <ele>494.6</ele>
        <time>2022-06-26T05:40:56Z</time>
      </trkpt>
      <trkpt lat="45.98618" lon="4.58471">
        <ele>494.6</ele>
        <time>2022-06-26T05:40:57Z</time>
      </trkpt>
      <trkpt lat="45.98615" lon="4.58472">
        <ele>494.8</ele>
        <time>2022-06-26T05:40:58Z</time>
      </trkpt>
      <trkpt lat="45.98613" lon="4.58473">
        <ele>494.8</ele>
        <time>2022-06-26T05:40:59Z</time>
      </trkpt>
      <trkpt lat="45.98611" lon="4.58473">
        <ele>495</ele>
        <time>2022-06-26T05:41:00Z</time>
      </trkpt>
      <trkpt lat="45.98608" lon="4.58474">
        <ele>495</ele>
        <time>2022-06-26T05:41:01Z</time>
      </trkpt>
      <trkpt lat="45.98606" lon="4.58475">
        <ele>495.2</ele>
        <time>2022-06-26T05:41:02Z</time>
      </trkpt>
      <trkpt lat="45.98604" lon="4.58475">
        <ele>495.2</ele>
        <time>2022-06-26T05:41:03Z</time>
      </trkpt>
      <trkpt lat="45.98601" lon="4.58476">
        <ele>495.2</ele>
        <time>2022-06-26T05:41:04Z</time>
      </trkpt>
      <trkpt lat="45.98599" lon="4.58477">
        <ele>495.6</ele>
        <time>2022-06-26T05:41:05Z</time>
      </trkpt>
      <trkpt lat="45.98596" lon="4.58477">
        <ele>495.6</ele>
        <time>2022-06-26T05:41:06Z</time>
      </trkpt>
      <trkpt lat="45.98594" lon="4.58478">
        <ele>495.8</ele>
        <time>2022-06-26T05:41:07Z</time>
      </trkpt>
      <trkpt lat="45.98591" lon="4.58479">
        <ele>495.8</ele>
        <time>2022-06-26T05:41:08Z</time>
      </trkpt>
      <trkpt lat="45.98589" lon="4.5848">
        <ele>496</ele>
        <time>2022-06-26T05:41:09Z</time>
      </trkpt>
      <trkpt lat="45.98587" lon="4.58482">
        <ele>496</ele>
        <time>2022-06-26T05:41:10Z</time>
      </trkpt>
      <trkpt lat="45.98584" lon="4.58483">
        <ele>496.4</ele>
        <time>2022-06-26T05:41:11Z</time>
      </trkpt>
      <trkpt lat="45.98582" lon="4.58485">
        <ele>496.4</ele>
        <time>2022-06-26T05:41:12Z</time>
      </trkpt>
      <trkpt lat="45.9858" lon="4.58486">
        <ele>496.6</ele>
        <time>2022-06-26T05:41:13Z</time>
      </trkpt>
      <trkpt lat="45.98578" lon="4.58488">
        <ele>496.6</ele>
        <time>2022-06-26T05:41:14Z</time>
      </trkpt>
      <trkpt lat="45.98576" lon="4.5849">
        <ele>496.8</ele>
        <time>2022-06-26T05:41:15Z</time>
      </trkpt>
      <trkpt lat="45.98574" lon="4.58493">
        <ele>497.2</ele>
        <time>2022-06-26T05:41:16Z</time>
      </trkpt>
      <trkpt lat="45.98572" lon="4.58495">
        <ele>497.2</ele>
        <time>2022-06-26T05:41:17Z</time>
      </trkpt>
      <trkpt lat="45.9857" lon="4.58498">
        <ele>497.4</ele>
        <time>2022-06-26T05:41:18Z</time>
      </trkpt>
      <trkpt lat="45.98568" lon="4.58501">
        <ele>497.4</ele>
        <time>2022-06-26T05:41:19Z</time>
      </trkpt>
      <trkpt lat="45.98566" lon="4.58503">
        <ele>497.4</ele>
        <time>2022-06-26T05:41:20Z</time>
      </trkpt>
      <trkpt lat="45.98564" lon="4.58506">
        <ele>497.4</ele>
        <time>2022-06-26T05:41:21Z</time>
      </trkpt>
      <trkpt lat="45.98563" lon="4.58509">
        <ele>497.8</ele>
        <time>2022-06-26T05:41:22Z</time>
      </trkpt>
      <trkpt lat="45.98561" lon="4.58512">
        <ele>497.8</ele>
        <time>2022-06-26T05:41:23Z</time>
      </trkpt>
      <trkpt lat="45.98559" lon="4.58515">
        <ele>498.2</ele>
        <time>2022-06-26T05:41:24Z</time>
      </trkpt>
      <trkpt lat="45.98558" lon="4.58518">
        <ele>498.4</ele>
        <time>2022-06-26T05:41:25Z</time>
      </trkpt>
      <trkpt lat="45.98557" lon="4.5852">
        <ele>498.4</ele>
        <time>2022-06-26T05:41:26Z</time>
      </trkpt>
      <trkpt lat="45.98556" lon="4.58523">
        <ele>498.6</ele>
        <time>2022-06-26T05:41:27Z</time>
      </trkpt>
      <trkpt lat="45.98554" lon="4.58526">
        <ele>498.6</ele>
        <time>2022-06-26T05:41:28Z</time>
      </trkpt>
      <trkpt lat="45.98553" lon="4.58528">
        <ele>499</ele>
        <time>2022-06-26T05:41:29Z</time>
      </trkpt>
      <trkpt lat="45.98552" lon="4.58531">
        <ele>499</ele>
        <time>2022-06-26T05:41:30Z</time>
      </trkpt>
      <trkpt lat="45.98551" lon="4.58534">
        <ele>499.2</ele>
        <time>2022-06-26T05:41:31Z</time>
      </trkpt>
      <trkpt lat="45.98549" lon="4.58536">
        <ele>499.4</ele>
        <time>2022-06-26T05:41:32Z</time>
      </trkpt>
      <trkpt lat="45.98548" lon="4.58539">
        <ele>499.6</ele>
        <time>2022-06-26T05:41:33Z</time>
      </trkpt>
      <trkpt lat="45.98547" lon="4.58541">
        <ele>499.6</ele>
        <time>2022-06-26T05:41:34Z</time>
      </trkpt>
      <trkpt lat="45.98545" lon="4.58543">
        <ele>500</ele>
        <time>2022-06-26T05:41:35Z</time>
      </trkpt>
      <trkpt lat="45.98544" lon="4.58546">
        <ele>500.2</ele>
        <time>2022-06-26T05:41:36Z</time>
      </trkpt>
      <trkpt lat="45.98543" lon="4.58548">
        <ele>500.2</ele>
        <time>2022-06-26T05:41:37Z</time>
      </trkpt>
      <trkpt lat="45.98542" lon="4.58551">
        <ele>500.6</ele>
        <time>2022-06-26T05:41:38Z</time>
      </trkpt>
      <trkpt lat="45.9854" lon="4.58553">
        <ele>500.8</ele>
        <time>2022-06-26T05:41:39Z</time>
      </trkpt>
      <trkpt lat="45.98539" lon="4.58556">
        <ele>500.8</ele>
        <time>2022-06-26T05:41:40Z</time>
      </trkpt>
      <trkpt lat="45.98537" lon="4.58558">
        <ele>501</ele>
        <time>2022-06-26T05:41:41Z</time>
      </trkpt>
      <trkpt lat="45.98536" lon="4.58561">
        <ele>501</ele>
        <time>2022-06-26T05:41:42Z</time>
      </trkpt>
      <trkpt lat="45.98535" lon="4.58563">
        <ele>501.4</ele>
        <time>2022-06-26T05:41:43Z</time>
      </trkpt>
      <trkpt lat="45.98533" lon="4.58566">
        <ele>501.4</ele>
        <time>2022-06-26T05:41:44Z</time>
      </trkpt>
      <trkpt lat="45.98532" lon="4.58568">
        <ele>501.6</ele>
        <time>2022-06-26T05:41:45Z</time>
      </trkpt>
      <trkpt lat="45.98531" lon="4.58572">
        <ele>501.6</ele>
        <time>2022-06-26T05:41:46Z</time>
      </trkpt>
      <trkpt lat="45.9853" lon="4.58574">
        <ele>501.6</ele>
        <time>2022-06-26T05:41:47Z</time>
      </trkpt>
      <trkpt lat="45.98528" lon="4.58577">
        <ele>502</ele>
        <time>2022-06-26T05:41:48Z</time>
      </trkpt>
      <trkpt lat="45.98527" lon="4.58579">
        <ele>502.2</ele>
        <time>2022-06-26T05:41:49Z</time>
      </trkpt>
      <trkpt lat="45.98525" lon="4.58582">
        <ele>502.2</ele>
        <time>2022-06-26T05:41:50Z</time>
      </trkpt>
      <trkpt lat="45.98524" lon="4.58584">
        <ele>502.2</ele>
        <time>2022-06-26T05:41:51Z</time>
      </trkpt>
      <trkpt lat="45.98522" lon="4.58587">
        <ele>502.4</ele>
        <time>2022-06-26T05:41:52Z</time>
      </trkpt>
      <trkpt lat="45.98521" lon="4.5859">
        <ele>502.4</ele>
        <time>2022-06-26T05:41:53Z</time>
      </trkpt>
      <trkpt lat="45.98519" lon="4.58592">
        <ele>502.8</ele>
        <time>2022-06-26T05:41:54Z</time>
      </trkpt>
      <trkpt lat="45.98518" lon="4.58595">
        <ele>502.8</ele>
        <time>2022-06-26T05:41:55Z</time>
      </trkpt>
      <trkpt lat="45.98516" lon="4.58598">
        <ele>503.2</ele>
        <time>2022-06-26T05:41:56Z</time>
      </trkpt>
      <trkpt lat="45.98515" lon="4.586">
        <ele>503.2</ele>
        <time>2022-06-26T05:41:57Z</time>
      </trkpt>
      <trkpt lat="45.98513" lon="4.58602">
        <ele>503.2</ele>
        <time>2022-06-26T05:41:58Z</time>
      </trkpt>
      <trkpt lat="45.98511" lon="4.58604">
        <ele>503.6</ele>
        <time>2022-06-26T05:41:59Z</time>
      </trkpt>
      <trkpt lat="45.9851" lon="4.58606">
        <ele>503.6</ele>
        <time>2022-06-26T05:42:00Z</time>
      </trkpt>
      <trkpt lat="45.98508" lon="4.58609">
        <ele>503.8</ele>
        <time>2022-06-26T05:42:01Z</time>
      </trkpt>
      <trkpt lat="45.98507" lon="4.58611">
        <ele>503.8</ele>
        <time>2022-06-26T05:42:02Z</time>
      </trkpt>
      <trkpt lat="45.98505" lon="4.58614">
        <ele>503.8</ele>
        <time>2022-06-26T05:42:03Z</time>
      </trkpt>
      <trkpt lat="45.98504" lon="4.58616">
        <ele>504.2</ele>
        <time>2022-06-26T05:42:04Z</time>
      </trkpt>
      <trkpt lat="45.98502" lon="4.58618">
        <ele>504.2</ele>
        <time>2022-06-26T05:42:05Z</time>
      </trkpt>
      <trkpt lat="45.985" lon="4.58619">
        <ele>504.4</ele>
        <time>2022-06-26T05:42:06Z</time>
      </trkpt>
      <trkpt lat="45.98498" lon="4.58621">
        <ele>504.4</ele>
        <time>2022-06-26T05:42:07Z</time>
      </trkpt>
      <trkpt lat="45.98497" lon="4.58622">
        <ele>504.6</ele>
        <time>2022-06-26T05:42:08Z</time>
      </trkpt>
      <trkpt lat="45.98495" lon="4.58624">
        <ele>504.6</ele>
        <time>2022-06-26T05:42:09Z</time>
      </trkpt>
      <trkpt lat="45.98493" lon="4.58625">
        <ele>505</ele>
        <time>2022-06-26T05:42:10Z</time>
      </trkpt>
      <trkpt lat="45.98492" lon="4.58628">
        <ele>505</ele>
        <time>2022-06-26T05:42:11Z</time>
      </trkpt>
      <trkpt lat="45.9849" lon="4.5863">
        <ele>505.2</ele>
        <time>2022-06-26T05:42:12Z</time>
      </trkpt>
      <trkpt lat="45.98488" lon="4.58632">
        <ele>505.2</ele>
        <time>2022-06-26T05:42:13Z</time>
      </trkpt>
      <trkpt lat="45.98487" lon="4.58633">
        <ele>505.4</ele>
        <time>2022-06-26T05:42:14Z</time>
      </trkpt>
      <trkpt lat="45.98485" lon="4.58635">
        <ele>505.4</ele>
        <time>2022-06-26T05:42:15Z</time>
      </trkpt>
      <trkpt lat="45.98483" lon="4.58636">
        <ele>505.6</ele>
        <time>2022-06-26T05:42:16Z</time>
      </trkpt>
      <trkpt lat="45.9848" lon="4.58637">
        <ele>505.6</ele>
        <time>2022-06-26T05:42:17Z</time>
      </trkpt>
      <trkpt lat="45.98478" lon="4.58638">
        <ele>506</ele>
        <time>2022-06-26T05:42:18Z</time>
      </trkpt>
      <trkpt lat="45.98476" lon="4.58639">
        <ele>506.2</ele>
        <time>2022-06-26T05:42:19Z</time>
      </trkpt>
      <trkpt lat="45.98474" lon="4.5864">
        <ele>506.2</ele>
        <time>2022-06-26T05:42:20Z</time>
      </trkpt>
      <trkpt lat="45.98472" lon="4.58641">
        <ele>506.6</ele>
        <time>2022-06-26T05:42:21Z</time>
      </trkpt>
      <trkpt lat="45.9847" lon="4.58643">
        <ele>506.6</ele>
        <time>2022-06-26T05:42:22Z</time>
      </trkpt>
      <trkpt lat="45.98468" lon="4.58644">
        <ele>507</ele>
        <time>2022-06-26T05:42:23Z</time>
      </trkpt>
      <trkpt lat="45.98466" lon="4.58644">
        <ele>507.2</ele>
        <time>2022-06-26T05:42:24Z</time>
      </trkpt>
      <trkpt lat="45.98463" lon="4.58645">
        <ele>507.2</ele>
        <time>2022-06-26T05:42:25Z</time>
      </trkpt>
      <trkpt lat="45.98461" lon="4.58645">
        <ele>507.6</ele>
        <time>2022-06-26T05:42:26Z</time>
      </trkpt>
      <trkpt lat="45.98459" lon="4.58646">
        <ele>507.6</ele>
        <time>2022-06-26T05:42:27Z</time>
      </trkpt>
      <trkpt lat="45.98457" lon="4.58646">
        <ele>507.8</ele>
        <time>2022-06-26T05:42:28Z</time>
      </trkpt>
      <trkpt lat="45.98455" lon="4.58647">
        <ele>508.2</ele>
        <time>2022-06-26T05:42:29Z</time>
      </trkpt>
      <trkpt lat="45.98452" lon="4.58647">
        <ele>508.2</ele>
        <time>2022-06-26T05:42:30Z</time>
      </trkpt>
      <trkpt lat="45.9845" lon="4.58648">
        <ele>508.4</ele>
        <time>2022-06-26T05:42:31Z</time>
      </trkpt>
      <trkpt lat="45.98448" lon="4.58648">
        <ele>508.4</ele>
        <time>2022-06-26T05:42:32Z</time>
      </trkpt>
      <trkpt lat="45.98446" lon="4.58649">
        <ele>508.8</ele>
        <time>2022-06-26T05:42:33Z</time>
      </trkpt>
      <trkpt lat="45.98443" lon="4.58649">
        <ele>508.8</ele>
        <time>2022-06-26T05:42:34Z</time>
      </trkpt>
      <trkpt lat="45.98441" lon="4.5865">
        <ele>509</ele>
        <time>2022-06-26T05:42:35Z</time>
      </trkpt>
      <trkpt lat="45.98439" lon="4.5865">
        <ele>509</ele>
        <time>2022-06-26T05:42:37Z</time>
      </trkpt>
      <trkpt lat="45.98437" lon="4.58651">
        <ele>509</ele>
        <time>2022-06-26T05:42:38Z</time>
      </trkpt>
      <trkpt lat="45.98434" lon="4.58651">
        <ele>509.4</ele>
        <time>2022-06-26T05:42:39Z</time>
      </trkpt>
      <trkpt lat="45.98432" lon="4.58652">
        <ele>509.6</ele>
        <time>2022-06-26T05:42:40Z</time>
      </trkpt>
      <trkpt lat="45.9843" lon="4.58652">
        <ele>509.6</ele>
        <time>2022-06-26T05:42:41Z</time>
      </trkpt>
      <trkpt lat="45.98427" lon="4.58652">
        <ele>509.8</ele>
        <time>2022-06-26T05:42:42Z</time>
      </trkpt>
      <trkpt lat="45.98425" lon="4.58652">
        <ele>509.8</ele>
        <time>2022-06-26T05:42:43Z</time>
      </trkpt>
      <trkpt lat="45.98423" lon="4.58652">
        <ele>510.2</ele>
        <time>2022-06-26T05:42:44Z</time>
      </trkpt>
      <trkpt lat="45.9842" lon="4.58652">
        <ele>510.2</ele>
        <time>2022-06-26T05:42:45Z</time>
      </trkpt>
      <trkpt lat="45.98418" lon="4.58653">
        <ele>510.4</ele>
        <time>2022-06-26T05:42:46Z</time>
      </trkpt>
      <trkpt lat="45.98416" lon="4.58653">
        <ele>510.4</ele>
        <time>2022-06-26T05:42:47Z</time>
      </trkpt>
      <trkpt lat="45.98413" lon="4.58653">
        <ele>510.6</ele>
        <time>2022-06-26T05:42:48Z</time>
      </trkpt>
      <trkpt lat="45.98411" lon="4.58654">
        <ele>510.6</ele>
        <time>2022-06-26T05:42:49Z</time>
      </trkpt>
      <trkpt lat="45.98409" lon="4.58655">
        <ele>511</ele>
        <time>2022-06-26T05:42:50Z</time>
      </trkpt>
      <trkpt lat="45.98406" lon="4.58655">
        <ele>511</ele>
        <time>2022-06-26T05:42:51Z</time>
      </trkpt>
      <trkpt lat="45.98404" lon="4.58656">
        <ele>511.2</ele>
        <time>2022-06-26T05:42:52Z</time>
      </trkpt>
      <trkpt lat="45.98402" lon="4.58656">
        <ele>511.4</ele>
        <time>2022-06-26T05:42:53Z</time>
      </trkpt>
      <trkpt lat="45.98399" lon="4.58656">
        <ele>511.4</ele>
        <time>2022-06-26T05:42:54Z</time>
      </trkpt>
      <trkpt lat="45.98397" lon="4.58656">
        <ele>511.4</ele>
        <time>2022-06-26T05:42:55Z</time>
      </trkpt>
      <trkpt lat="45.98395" lon="4.58656">
        <ele>511.8</ele>
        <time>2022-06-26T05:42:56Z</time>
      </trkpt>
      <trkpt lat="45.98392" lon="4.58656">
        <ele>511.8</ele>
        <time>2022-06-26T05:42:57Z</time>
      </trkpt>
      <trkpt lat="45.9839" lon="4.58656">
        <ele>512</ele>
        <time>2022-06-26T05:42:58Z</time>
      </trkpt>
      <trkpt lat="45.98388" lon="4.58657">
        <ele>512</ele>
        <time>2022-06-26T05:42:59Z</time>
      </trkpt>
      <trkpt lat="45.98385" lon="4.58657">
        <ele>512</ele>
        <time>2022-06-26T05:43:00Z</time>
      </trkpt>
      <trkpt lat="45.98383" lon="4.58657">
        <ele>512.4</ele>
        <time>2022-06-26T05:43:01Z</time>
      </trkpt>
      <trkpt lat="45.9838" lon="4.58657">
        <ele>512.4</ele>
        <time>2022-06-26T05:43:02Z</time>
      </trkpt>
      <trkpt lat="45.98378" lon="4.58658">
        <ele>512.6</ele>
        <time>2022-06-26T05:43:03Z</time>
      </trkpt>
      <trkpt lat="45.98375" lon="4.58658">
        <ele>512.6</ele>
        <time>2022-06-26T05:43:04Z</time>
      </trkpt>
      <trkpt lat="45.98373" lon="4.58659">
        <ele>512.8</ele>
        <time>2022-06-26T05:43:05Z</time>
      </trkpt>
      <trkpt lat="45.9837" lon="4.58659">
        <ele>512.8</ele>
        <time>2022-06-26T05:43:06Z</time>
      </trkpt>
      <trkpt lat="45.98368" lon="4.58659">
        <ele>513.2</ele>
        <time>2022-06-26T05:43:07Z</time>
      </trkpt>
      <trkpt lat="45.98365" lon="4.5866">
        <ele>513.2</ele>
        <time>2022-06-26T05:43:08Z</time>
      </trkpt>
      <trkpt lat="45.98363" lon="4.5866">
        <ele>513.4</ele>
        <time>2022-06-26T05:43:09Z</time>
      </trkpt>
      <trkpt lat="45.9836" lon="4.5866">
        <ele>513.6</ele>
        <time>2022-06-26T05:43:10Z</time>
      </trkpt>
      <trkpt lat="45.98357" lon="4.58661">
        <ele>513.6</ele>
        <time>2022-06-26T05:43:11Z</time>
      </trkpt>
      <trkpt lat="45.98355" lon="4.58661">
        <ele>513.6</ele>
        <time>2022-06-26T05:43:12Z</time>
      </trkpt>
      <trkpt lat="45.98352" lon="4.58661">
        <ele>514</ele>
        <time>2022-06-26T05:43:13Z</time>
      </trkpt>
      <trkpt lat="45.9835" lon="4.58661">
        <ele>514</ele>
        <time>2022-06-26T05:43:14Z</time>
      </trkpt>
      <trkpt lat="45.98346" lon="4.5866">
        <ele>514.2</ele>
        <time>2022-06-26T05:43:15Z</time>
      </trkpt>
      <trkpt lat="45.98344" lon="4.5866">
        <ele>516.4</ele>
        <time>2022-06-26T05:43:16Z</time>
      </trkpt>
      <trkpt lat="45.98342" lon="4.58659">
        <ele>516.2</ele>
        <time>2022-06-26T05:43:17Z</time>
      </trkpt>
      <trkpt lat="45.98341" lon="4.58659">
        <ele>516</ele>
        <time>2022-06-26T05:43:18Z</time>
      </trkpt>
      <trkpt lat="45.98339" lon="4.58658">
        <ele>516</ele>
        <time>2022-06-26T05:43:19Z</time>
      </trkpt>
      <trkpt lat="45.98338" lon="4.58658">
        <ele>515.6</ele>
        <time>2022-06-26T05:43:20Z</time>
      </trkpt>
      <trkpt lat="45.98336" lon="4.58658">
        <ele>515.4</ele>
        <time>2022-06-26T05:43:21Z</time>
      </trkpt>
      <trkpt lat="45.98335" lon="4.58658">
        <ele>515.4</ele>
        <time>2022-06-26T05:43:22Z</time>
      </trkpt>
      <trkpt lat="45.98334" lon="4.5866">
        <ele>515.4</ele>
        <time>2022-06-26T05:43:23Z</time>
      </trkpt>
      <trkpt lat="45.98334" lon="4.58661">
        <ele>515</ele>
        <time>2022-06-26T05:43:24Z</time>
      </trkpt>
      <trkpt lat="45.98336" lon="4.58662">
        <ele>515</ele>
        <time>2022-06-26T05:43:25Z</time>
      </trkpt>
      <trkpt lat="45.98337" lon="4.58663">
        <ele>515</ele>
        <time>2022-06-26T05:43:26Z</time>
      </trkpt>
      <trkpt lat="45.98339" lon="4.58662">
        <ele>515</ele>
        <time>2022-06-26T05:43:27Z</time>
      </trkpt>
      <trkpt lat="45.9834" lon="4.5866">
        <ele>515</ele>
        <time>2022-06-26T05:43:28Z</time>
      </trkpt>
      <trkpt lat="45.98341" lon="4.58658">
        <ele>515</ele>
        <time>2022-06-26T05:43:29Z</time>
      </trkpt>
      <trkpt lat="45.98342" lon="4.58656">
        <ele>515</ele>
        <time>2022-06-26T05:43:30Z</time>
      </trkpt>
      <trkpt lat="45.98343" lon="4.58653">
        <ele>515</ele>
        <time>2022-06-26T05:43:31Z</time>
      </trkpt>
      <trkpt lat="45.98344" lon="4.58651">
        <ele>515</ele>
        <time>2022-06-26T05:43:32Z</time>
      </trkpt>
      <trkpt lat="45.98346" lon="4.58649">
        <ele>515.4</ele>
        <time>2022-06-26T05:43:33Z</time>
      </trkpt>
      <trkpt lat="45.98348" lon="4.58647">
        <ele>515.4</ele>
        <time>2022-06-26T05:43:34Z</time>
      </trkpt>
      <trkpt lat="45.9835" lon="4.58645">
        <ele>515.6</ele>
        <time>2022-06-26T05:43:35Z</time>
      </trkpt>
      <trkpt lat="45.98352" lon="4.58643">
        <ele>515.6</ele>
        <time>2022-06-26T05:43:36Z</time>
      </trkpt>
      <trkpt lat="45.98354" lon="4.58642">
        <ele>516</ele>
        <time>2022-06-26T05:43:37Z</time>
      </trkpt>
      <trkpt lat="45.98356" lon="4.5864">
        <ele>516</ele>
        <time>2022-06-26T05:43:38Z</time>
      </trkpt>
      <trkpt lat="45.98358" lon="4.58639">
        <ele>516.2</ele>
        <time>2022-06-26T05:43:39Z</time>
      </trkpt>
      <trkpt lat="45.9836" lon="4.58637">
        <ele>520</ele>
        <time>2022-06-26T05:43:40Z</time>
      </trkpt>
      <trkpt lat="45.98362" lon="4.58635">
        <ele>521.6</ele>
        <time>2022-06-26T05:43:41Z</time>
      </trkpt>
      <trkpt lat="45.98364" lon="4.58633">
        <ele>522</ele>
        <time>2022-06-26T05:43:42Z</time>
      </trkpt>
      <trkpt lat="45.98367" lon="4.58632">
        <ele>522</ele>
        <time>2022-06-26T05:43:43Z</time>
      </trkpt>
      <trkpt lat="45.98369" lon="4.58631">
        <ele>522.4</ele>
        <time>2022-06-26T05:43:44Z</time>
      </trkpt>
      <trkpt lat="45.98371" lon="4.58629">
        <ele>522.4</ele>
        <time>2022-06-26T05:43:45Z</time>
      </trkpt>
      <trkpt lat="45.98373" lon="4.58627">
        <ele>521.8</ele>
        <time>2022-06-26T05:43:46Z</time>
      </trkpt>
      <trkpt lat="45.98375" lon="4.58624">
        <ele>521.6</ele>
        <time>2022-06-26T05:43:47Z</time>
      </trkpt>
      <trkpt lat="45.98376" lon="4.58621">
        <ele>521.6</ele>
        <time>2022-06-26T05:43:48Z</time>
      </trkpt>
      <trkpt lat="45.98378" lon="4.58618">
        <ele>521.6</ele>
        <time>2022-06-26T05:43:49Z</time>
      </trkpt>
      <trkpt lat="45.98379" lon="4.58616">
        <ele>521.6</ele>
        <time>2022-06-26T05:43:50Z</time>
      </trkpt>
      <trkpt lat="45.9838" lon="4.58613">
        <ele>520.8</ele>
        <time>2022-06-26T05:43:51Z</time>
      </trkpt>
      <trkpt lat="45.98381" lon="4.5861">
        <ele>520.2</ele>
        <time>2022-06-26T05:43:52Z</time>
      </trkpt>
      <trkpt lat="45.98382" lon="4.58606">
        <ele>519.8</ele>
        <time>2022-06-26T05:43:53Z</time>
      </trkpt>
      <trkpt lat="45.98382" lon="4.58603">
        <ele>519.6</ele>
        <time>2022-06-26T05:43:54Z</time>
      </trkpt>
      <trkpt lat="45.98383" lon="4.586">
        <ele>519.2</ele>
        <time>2022-06-26T05:43:55Z</time>
      </trkpt>
      <trkpt lat="45.98383" lon="4.58597">
        <ele>519.2</ele>
        <time>2022-06-26T05:43:56Z</time>
      </trkpt>
      <trkpt lat="45.98383" lon="4.58594">
        <ele>519.2</ele>
        <time>2022-06-26T05:43:57Z</time>
      </trkpt>
      <trkpt lat="45.98382" lon="4.58591">
        <ele>519.2</ele>
        <time>2022-06-26T05:43:58Z</time>
      </trkpt>
      <trkpt lat="45.98381" lon="4.58588">
        <ele>519.2</ele>
        <time>2022-06-26T05:43:59Z</time>
      </trkpt>
      <trkpt lat="45.9838" lon="4.58585">
        <ele>519.2</ele>
        <time>2022-06-26T05:44:00Z</time>
      </trkpt>
      <trkpt lat="45.98379" lon="4.58583">
        <ele>519.2</ele>
        <time>2022-06-26T05:44:01Z</time>
      </trkpt>
      <trkpt lat="45.98377" lon="4.58581">
        <ele>519.4</ele>
        <time>2022-06-26T05:44:02Z</time>
      </trkpt>
      <trkpt lat="45.98375" lon="4.58579">
        <ele>519.4</ele>
        <time>2022-06-26T05:44:03Z</time>
      </trkpt>
      <trkpt lat="45.98373" lon="4.58578">
        <ele>519.4</ele>
        <time>2022-06-26T05:44:04Z</time>
      </trkpt>
      <trkpt lat="45.98371" lon="4.58577">
        <ele>519.6</ele>
        <time>2022-06-26T05:44:05Z</time>
      </trkpt>
      <trkpt lat="45.98368" lon="4.58576">
        <ele>519.6</ele>
        <time>2022-06-26T05:44:06Z</time>
      </trkpt>
      <trkpt lat="45.98366" lon="4.58575">
        <ele>520</ele>
        <time>2022-06-26T05:44:07Z</time>
      </trkpt>
      <trkpt lat="45.98364" lon="4.58575">
        <ele>520</ele>
        <time>2022-06-26T05:44:08Z</time>
      </trkpt>
      <trkpt lat="45.98361" lon="4.58575">
        <ele>520.4</ele>
        <time>2022-06-26T05:44:09Z</time>
      </trkpt>
      <trkpt lat="45.98359" lon="4.58575">
        <ele>520.6</ele>
        <time>2022-06-26T05:44:10Z</time>
      </trkpt>
      <trkpt lat="45.98357" lon="4.58576">
        <ele>520.6</ele>
        <time>2022-06-26T05:44:11Z</time>
      </trkpt>
      <trkpt lat="45.98354" lon="4.58576">
        <ele>521</ele>
        <time>2022-06-26T05:44:12Z</time>
      </trkpt>
      <trkpt lat="45.98352" lon="4.58577">
        <ele>521.2</ele>
        <time>2022-06-26T05:44:13Z</time>
      </trkpt>
      <trkpt lat="45.9835" lon="4.58577">
        <ele>521.2</ele>
        <time>2022-06-26T05:44:14Z</time>
      </trkpt>
      <trkpt lat="45.98347" lon="4.58577">
        <ele>521.4</ele>
        <time>2022-06-26T05:44:15Z</time>
      </trkpt>
      <trkpt lat="45.98345" lon="4.58578">
        <ele>521.4</ele>
        <time>2022-06-26T05:44:16Z</time>
      </trkpt>
      <trkpt lat="45.98343" lon="4.58578">
        <ele>521.6</ele>
        <time>2022-06-26T05:44:17Z</time>
      </trkpt>
      <trkpt lat="45.9834" lon="4.58578">
        <ele>521.6</ele>
        <time>2022-06-26T05:44:18Z</time>
      </trkpt>
      <trkpt lat="45.98338" lon="4.58579">
        <ele>522</ele>
        <time>2022-06-26T05:44:19Z</time>
      </trkpt>
      <trkpt lat="45.98336" lon="4.58579">
        <ele>522</ele>
        <time>2022-06-26T05:44:20Z</time>
      </trkpt>
      <trkpt lat="45.98333" lon="4.5858">
        <ele>522.2</ele>
        <time>2022-06-26T05:44:21Z</time>
      </trkpt>
      <trkpt lat="45.98331" lon="4.5858">
        <ele>522.2</ele>
        <time>2022-06-26T05:44:22Z</time>
      </trkpt>
      <trkpt lat="45.98329" lon="4.58581">
        <ele>522.2</ele>
        <time>2022-06-26T05:44:23Z</time>
      </trkpt>
      <trkpt lat="45.98327" lon="4.58581">
        <ele>522.4</ele>
        <time>2022-06-26T05:44:24Z</time>
      </trkpt>
      <trkpt lat="45.98325" lon="4.58581">
        <ele>522.4</ele>
        <time>2022-06-26T05:44:25Z</time>
      </trkpt>
      <trkpt lat="45.98322" lon="4.58581">
        <ele>522.4</ele>
        <time>2022-06-26T05:44:26Z</time>
      </trkpt>
      <trkpt lat="45.9832" lon="4.5858">
        <ele>522.8</ele>
        <time>2022-06-26T05:44:27Z</time>
      </trkpt>
      <trkpt lat="45.98318" lon="4.58581">
        <ele>522.8</ele>
        <time>2022-06-26T05:44:28Z</time>
      </trkpt>
      <trkpt lat="45.98315" lon="4.58581">
        <ele>522.8</ele>
        <time>2022-06-26T05:44:29Z</time>
      </trkpt>
      <trkpt lat="45.98313" lon="4.58581">
        <ele>522.8</ele>
        <time>2022-06-26T05:44:30Z</time>
      </trkpt>
      <trkpt lat="45.98311" lon="4.58582">
        <ele>523.2</ele>
        <time>2022-06-26T05:44:31Z</time>
      </trkpt>
      <trkpt lat="45.98309" lon="4.58582">
        <ele>523.2</ele>
        <time>2022-06-26T05:44:32Z</time>
      </trkpt>
      <trkpt lat="45.98307" lon="4.58583">
        <ele>523.6</ele>
        <time>2022-06-26T05:44:33Z</time>
      </trkpt>
      <trkpt lat="45.98304" lon="4.58583">
        <ele>523.6</ele>
        <time>2022-06-26T05:44:34Z</time>
      </trkpt>
      <trkpt lat="45.98302" lon="4.58583">
        <ele>523.6</ele>
        <time>2022-06-26T05:44:35Z</time>
      </trkpt>
      <trkpt lat="45.983" lon="4.58583">
        <ele>523.8</ele>
        <time>2022-06-26T05:44:36Z</time>
      </trkpt>
      <trkpt lat="45.98297" lon="4.58583">
        <ele>523.8</ele>
        <time>2022-06-26T05:44:37Z</time>
      </trkpt>
      <trkpt lat="45.98295" lon="4.58583">
        <ele>524</ele>
        <time>2022-06-26T05:44:38Z</time>
      </trkpt>
      <trkpt lat="45.98293" lon="4.58584">
        <ele>524</ele>
        <time>2022-06-26T05:44:39Z</time>
      </trkpt>
      <trkpt lat="45.9829" lon="4.58584">
        <ele>524.4</ele>
        <time>2022-06-26T05:44:40Z</time>
      </trkpt>
      <trkpt lat="45.98288" lon="4.58585">
        <ele>524.4</ele>
        <time>2022-06-26T05:44:41Z</time>
      </trkpt>
      <trkpt lat="45.98286" lon="4.58585">
        <ele>524.8</ele>
        <time>2022-06-26T05:44:42Z</time>
      </trkpt>
      <trkpt lat="45.98283" lon="4.58585">
        <ele>524.8</ele>
        <time>2022-06-26T05:44:43Z</time>
      </trkpt>
      <trkpt lat="45.98281" lon="4.58586">
        <ele>525</ele>
        <time>2022-06-26T05:44:44Z</time>
      </trkpt>
      <trkpt lat="45.98279" lon="4.58586">
        <ele>525</ele>
        <time>2022-06-26T05:44:45Z</time>
      </trkpt>
      <trkpt lat="45.98277" lon="4.58586">
        <ele>525.4</ele>
        <time>2022-06-26T05:44:46Z</time>
      </trkpt>
      <trkpt lat="45.98274" lon="4.58586">
        <ele>525.4</ele>
        <time>2022-06-26T05:44:47Z</time>
      </trkpt>
      <trkpt lat="45.98272" lon="4.58585">
        <ele>525.6</ele>
        <time>2022-06-26T05:44:48Z</time>
      </trkpt>
      <trkpt lat="45.9827" lon="4.58585">
        <ele>525.6</ele>
        <time>2022-06-26T05:44:49Z</time>
      </trkpt>
      <trkpt lat="45.98268" lon="4.58585">
        <ele>525.6</ele>
        <time>2022-06-26T05:44:50Z</time>
      </trkpt>
      <trkpt lat="45.98265" lon="4.58584">
        <ele>525.8</ele>
        <time>2022-06-26T05:44:51Z</time>
      </trkpt>
      <trkpt lat="45.98263" lon="4.58584">
        <ele>526</ele>
        <time>2022-06-26T05:44:52Z</time>
      </trkpt>
      <trkpt lat="45.98261" lon="4.58584">
        <ele>526.4</ele>
        <time>2022-06-26T05:44:53Z</time>
      </trkpt>
      <trkpt lat="45.98259" lon="4.58584">
        <ele>526.4</ele>
        <time>2022-06-26T05:44:54Z</time>
      </trkpt>
      <trkpt lat="45.98257" lon="4.58584">
        <ele>526.6</ele>
        <time>2022-06-26T05:44:55Z</time>
      </trkpt>
      <trkpt lat="45.98255" lon="4.58584">
        <ele>526.6</ele>
        <time>2022-06-26T05:44:56Z</time>
      </trkpt>
      <trkpt lat="45.98253" lon="4.58583">
        <ele>526.6</ele>
        <time>2022-06-26T05:44:57Z</time>
      </trkpt>
      <trkpt lat="45.98251" lon="4.58583">
        <ele>526.8</ele>
        <time>2022-06-26T05:44:58Z</time>
      </trkpt>
      <trkpt lat="45.98249" lon="4.58582">
        <ele>526.8</ele>
        <time>2022-06-26T05:44:59Z</time>
      </trkpt>
      <trkpt lat="45.98246" lon="4.58582">
        <ele>526.8</ele>
        <time>2022-06-26T05:45:00Z</time>
      </trkpt>
      <trkpt lat="45.98244" lon="4.58582">
        <ele>527.2</ele>
        <time>2022-06-26T05:45:01Z</time>
      </trkpt>
      <trkpt lat="45.98242" lon="4.58582">
        <ele>527.2</ele>
        <time>2022-06-26T05:45:02Z</time>
      </trkpt>
      <trkpt lat="45.9824" lon="4.58581">
        <ele>527.6</ele>
        <time>2022-06-26T05:45:03Z</time>
      </trkpt>
      <trkpt lat="45.98238" lon="4.5858">
        <ele>527.6</ele>
        <time>2022-06-26T05:45:04Z</time>
      </trkpt>
      <trkpt lat="45.98236" lon="4.5858">
        <ele>528</ele>
        <time>2022-06-26T05:45:05Z</time>
      </trkpt>
      <trkpt lat="45.98233" lon="4.5858">
        <ele>528</ele>
        <time>2022-06-26T05:45:06Z</time>
      </trkpt>
      <trkpt lat="45.98231" lon="4.58579">
        <ele>528.2</ele>
        <time>2022-06-26T05:45:07Z</time>
      </trkpt>
      <trkpt lat="45.98229" lon="4.58579">
        <ele>528.2</ele>
        <time>2022-06-26T05:45:08Z</time>
      </trkpt>
      <trkpt lat="45.98227" lon="4.58578">
        <ele>528.6</ele>
        <time>2022-06-26T05:45:09Z</time>
      </trkpt>
      <trkpt lat="45.98225" lon="4.58577">
        <ele>528.8</ele>
        <time>2022-06-26T05:45:10Z</time>
      </trkpt>
      <trkpt lat="45.98223" lon="4.58577">
        <ele>528.8</ele>
        <time>2022-06-26T05:45:11Z</time>
      </trkpt>
      <trkpt lat="45.98221" lon="4.58577">
        <ele>529.2</ele>
        <time>2022-06-26T05:45:12Z</time>
      </trkpt>
      <trkpt lat="45.98219" lon="4.58577">
        <ele>529.2</ele>
        <time>2022-06-26T05:45:13Z</time>
      </trkpt>
      <trkpt lat="45.98217" lon="4.58576">
        <ele>529.2</ele>
        <time>2022-06-26T05:45:14Z</time>
      </trkpt>
      <trkpt lat="45.98215" lon="4.58576">
        <ele>529.4</ele>
        <time>2022-06-26T05:45:15Z</time>
      </trkpt>
      <trkpt lat="45.98213" lon="4.58575">
        <ele>529.4</ele>
        <time>2022-06-26T05:45:16Z</time>
      </trkpt>
      <trkpt lat="45.98211" lon="4.58575">
        <ele>529.6</ele>
        <time>2022-06-26T05:45:17Z</time>
      </trkpt>
      <trkpt lat="45.98209" lon="4.58575">
        <ele>529.6</ele>
        <time>2022-06-26T05:45:18Z</time>
      </trkpt>
      <trkpt lat="45.98206" lon="4.58574">
        <ele>530</ele>
        <time>2022-06-26T05:45:19Z</time>
      </trkpt>
      <trkpt lat="45.98204" lon="4.58574">
        <ele>530</ele>
        <time>2022-06-26T05:45:20Z</time>
      </trkpt>
      <trkpt lat="45.98202" lon="4.58573">
        <ele>530.4</ele>
        <time>2022-06-26T05:45:21Z</time>
      </trkpt>
      <trkpt lat="45.982" lon="4.58573">
        <ele>530.4</ele>
        <time>2022-06-26T05:45:22Z</time>
      </trkpt>
      <trkpt lat="45.98198" lon="4.58572">
        <ele>530.6</ele>
        <time>2022-06-26T05:45:23Z</time>
      </trkpt>
      <trkpt lat="45.98195" lon="4.58572">
        <ele>530.6</ele>
        <time>2022-06-26T05:45:24Z</time>
      </trkpt>
      <trkpt lat="45.98193" lon="4.58571">
        <ele>530.6</ele>
        <time>2022-06-26T05:45:25Z</time>
      </trkpt>
      <trkpt lat="45.98191" lon="4.5857">
        <ele>530.8</ele>
        <time>2022-06-26T05:45:26Z</time>
      </trkpt>
      <trkpt lat="45.98188" lon="4.5857">
        <ele>530.8</ele>
        <time>2022-06-26T05:45:27Z</time>
      </trkpt>
      <trkpt lat="45.98186" lon="4.5857">
        <ele>531.2</ele>
        <time>2022-06-26T05:45:28Z</time>
      </trkpt>
      <trkpt lat="45.98184" lon="4.58569">
        <ele>531.2</ele>
        <time>2022-06-26T05:45:29Z</time>
      </trkpt>
      <trkpt lat="45.98181" lon="4.58569">
        <ele>531.6</ele>
        <time>2022-06-26T05:45:30Z</time>
      </trkpt>
      <trkpt lat="45.98179" lon="4.58569">
        <ele>531.6</ele>
        <time>2022-06-26T05:45:31Z</time>
      </trkpt>
      <trkpt lat="45.98177" lon="4.58569">
        <ele>531.8</ele>
        <time>2022-06-26T05:45:32Z</time>
      </trkpt>
      <trkpt lat="45.98174" lon="4.58568">
        <ele>532</ele>
        <time>2022-06-26T05:45:33Z</time>
      </trkpt>
      <trkpt lat="45.98172" lon="4.58568">
        <ele>532</ele>
        <time>2022-06-26T05:45:34Z</time>
      </trkpt>
      <trkpt lat="45.9817" lon="4.58567">
        <ele>532.2</ele>
        <time>2022-06-26T05:45:35Z</time>
      </trkpt>
      <trkpt lat="45.98167" lon="4.58567">
        <ele>532.2</ele>
        <time>2022-06-26T05:45:36Z</time>
      </trkpt>
      <trkpt lat="45.98165" lon="4.58567">
        <ele>532.8</ele>
        <time>2022-06-26T05:45:37Z</time>
      </trkpt>
      <trkpt lat="45.98163" lon="4.58566">
        <ele>532.8</ele>
        <time>2022-06-26T05:45:38Z</time>
      </trkpt>
      <trkpt lat="45.98161" lon="4.58566">
        <ele>533</ele>
        <time>2022-06-26T05:45:39Z</time>
      </trkpt>
      <trkpt lat="45.98158" lon="4.58565">
        <ele>533</ele>
        <time>2022-06-26T05:45:40Z</time>
      </trkpt>
      <trkpt lat="45.98156" lon="4.58564">
        <ele>533.4</ele>
        <time>2022-06-26T05:45:41Z</time>
      </trkpt>
      <trkpt lat="45.98154" lon="4.58564">
        <ele>533.4</ele>
        <time>2022-06-26T05:45:42Z</time>
      </trkpt>
      <trkpt lat="45.98152" lon="4.58563">
        <ele>533.4</ele>
        <time>2022-06-26T05:45:43Z</time>
      </trkpt>
      <trkpt lat="45.9815" lon="4.58563">
        <ele>533.6</ele>
        <time>2022-06-26T05:45:44Z</time>
      </trkpt>
      <trkpt lat="45.98147" lon="4.58563">
        <ele>533.6</ele>
        <time>2022-06-26T05:45:45Z</time>
      </trkpt>
      <trkpt lat="45.98145" lon="4.58563">
        <ele>534</ele>
        <time>2022-06-26T05:45:46Z</time>
      </trkpt>
      <trkpt lat="45.98143" lon="4.58563">
        <ele>534.2</ele>
        <time>2022-06-26T05:45:47Z</time>
      </trkpt>
      <trkpt lat="45.98141" lon="4.58563">
        <ele>534.2</ele>
        <time>2022-06-26T05:45:48Z</time>
      </trkpt>
      <trkpt lat="45.98139" lon="4.58562">
        <ele>534.2</ele>
        <time>2022-06-26T05:45:49Z</time>
      </trkpt>
      <trkpt lat="45.98137" lon="4.58562">
        <ele>534.4</ele>
        <time>2022-06-26T05:45:50Z</time>
      </trkpt>
      <trkpt lat="45.98135" lon="4.58561">
        <ele>534.4</ele>
        <time>2022-06-26T05:45:51Z</time>
      </trkpt>
      <trkpt lat="45.98133" lon="4.5856">
        <ele>534.8</ele>
        <time>2022-06-26T05:45:52Z</time>
      </trkpt>
      <trkpt lat="45.9813" lon="4.5856">
        <ele>534.8</ele>
        <time>2022-06-26T05:45:53Z</time>
      </trkpt>
      <trkpt lat="45.98128" lon="4.58559">
        <ele>535.2</ele>
        <time>2022-06-26T05:45:54Z</time>
      </trkpt>
      <trkpt lat="45.98126" lon="4.58559">
        <ele>535.2</ele>
        <time>2022-06-26T05:45:55Z</time>
      </trkpt>
      <trkpt lat="45.98124" lon="4.58558">
        <ele>535.4</ele>
        <time>2022-06-26T05:45:56Z</time>
      </trkpt>
      <trkpt lat="45.98122" lon="4.58558">
        <ele>535.4</ele>
        <time>2022-06-26T05:45:57Z</time>
      </trkpt>
      <trkpt lat="45.9812" lon="4.58558">
        <ele>535.6</ele>
        <time>2022-06-26T05:45:58Z</time>
      </trkpt>
      <trkpt lat="45.98117" lon="4.58558">
        <ele>535.6</ele>
        <time>2022-06-26T05:45:59Z</time>
      </trkpt>
      <trkpt lat="45.98115" lon="4.58557">
        <ele>536</ele>
        <time>2022-06-26T05:46:00Z</time>
      </trkpt>
      <trkpt lat="45.98113" lon="4.58557">
        <ele>536.2</ele>
        <time>2022-06-26T05:46:01Z</time>
      </trkpt>
      <trkpt lat="45.98111" lon="4.58557">
        <ele>536.4</ele>
        <time>2022-06-26T05:46:02Z</time>
      </trkpt>
      <trkpt lat="45.98109" lon="4.58557">
        <ele>536.4</ele>
        <time>2022-06-26T05:46:03Z</time>
      </trkpt>
      <trkpt lat="45.98107" lon="4.58556">
        <ele>536.4</ele>
        <time>2022-06-26T05:46:04Z</time>
      </trkpt>
      <trkpt lat="45.98105" lon="4.58556">
        <ele>536.4</ele>
        <time>2022-06-26T05:46:05Z</time>
      </trkpt>
      <trkpt lat="45.98102" lon="4.58556">
        <ele>536.6</ele>
        <time>2022-06-26T05:46:06Z</time>
      </trkpt>
      <trkpt lat="45.981" lon="4.58556">
        <ele>536.6</ele>
        <time>2022-06-26T05:46:07Z</time>
      </trkpt>
      <trkpt lat="45.98098" lon="4.58555">
        <ele>536.8</ele>
        <time>2022-06-26T05:46:08Z</time>
      </trkpt>
      <trkpt lat="45.98096" lon="4.58555">
        <ele>536.8</ele>
        <time>2022-06-26T05:46:09Z</time>
      </trkpt>
      <trkpt lat="45.98094" lon="4.58554">
        <ele>537.4</ele>
        <time>2022-06-26T05:46:11Z</time>
      </trkpt>
      <trkpt lat="45.98092" lon="4.58553">
        <ele>537.4</ele>
        <time>2022-06-26T05:46:12Z</time>
      </trkpt>
      <trkpt lat="45.98089" lon="4.58552">
        <ele>537.8</ele>
        <time>2022-06-26T05:46:13Z</time>
      </trkpt>
      <trkpt lat="45.98087" lon="4.58551">
        <ele>537.8</ele>
        <time>2022-06-26T05:46:14Z</time>
      </trkpt>
      <trkpt lat="45.98085" lon="4.58551">
        <ele>538.2</ele>
        <time>2022-06-26T05:46:15Z</time>
      </trkpt>
      <trkpt lat="45.98082" lon="4.5855">
        <ele>538.2</ele>
        <time>2022-06-26T05:46:16Z</time>
      </trkpt>
      <trkpt lat="45.9808" lon="4.5855">
        <ele>538.2</ele>
        <time>2022-06-26T05:46:17Z</time>
      </trkpt>
      <trkpt lat="45.98077" lon="4.5855">
        <ele>538.4</ele>
        <time>2022-06-26T05:46:18Z</time>
      </trkpt>
      <trkpt lat="45.98075" lon="4.5855">
        <ele>538.4</ele>
        <time>2022-06-26T05:46:19Z</time>
      </trkpt>
      <trkpt lat="45.98073" lon="4.58549">
        <ele>538.8</ele>
        <time>2022-06-26T05:46:20Z</time>
      </trkpt>
      <trkpt lat="45.9807" lon="4.58549">
        <ele>539</ele>
        <time>2022-06-26T05:46:21Z</time>
      </trkpt>
      <trkpt lat="45.98068" lon="4.58548">
        <ele>539</ele>
        <time>2022-06-26T05:46:22Z</time>
      </trkpt>
      <trkpt lat="45.98066" lon="4.58548">
        <ele>539.2</ele>
        <time>2022-06-26T05:46:23Z</time>
      </trkpt>
      <trkpt lat="45.98064" lon="4.58548">
        <ele>539.6</ele>
        <time>2022-06-26T05:46:24Z</time>
      </trkpt>
      <trkpt lat="45.98062" lon="4.58547">
        <ele>539.6</ele>
        <time>2022-06-26T05:46:25Z</time>
      </trkpt>
      <trkpt lat="45.98059" lon="4.58547">
        <ele>539.6</ele>
        <time>2022-06-26T05:46:26Z</time>
      </trkpt>
      <trkpt lat="45.98057" lon="4.58547">
        <ele>540</ele>
        <time>2022-06-26T05:46:27Z</time>
      </trkpt>
      <trkpt lat="45.98055" lon="4.58546">
        <ele>540</ele>
        <time>2022-06-26T05:46:28Z</time>
      </trkpt>
      <trkpt lat="45.98053" lon="4.58546">
        <ele>540.4</ele>
        <time>2022-06-26T05:46:29Z</time>
      </trkpt>
      <trkpt lat="45.98051" lon="4.58546">
        <ele>540.4</ele>
        <time>2022-06-26T05:46:30Z</time>
      </trkpt>
      <trkpt lat="45.98049" lon="4.58545">
        <ele>540.6</ele>
        <time>2022-06-26T05:46:31Z</time>
      </trkpt>
      <trkpt lat="45.98046" lon="4.58545">
        <ele>540.6</ele>
        <time>2022-06-26T05:46:32Z</time>
      </trkpt>
      <trkpt lat="45.98044" lon="4.58544">
        <ele>541</ele>
        <time>2022-06-26T05:46:33Z</time>
      </trkpt>
      <trkpt lat="45.98041" lon="4.58544">
        <ele>541.2</ele>
        <time>2022-06-26T05:46:34Z</time>
      </trkpt>
      <trkpt lat="45.98039" lon="4.58545">
        <ele>541.2</ele>
        <time>2022-06-26T05:46:35Z</time>
      </trkpt>
      <trkpt lat="45.98037" lon="4.58545">
        <ele>541.4</ele>
        <time>2022-06-26T05:46:36Z</time>
      </trkpt>
      <trkpt lat="45.98034" lon="4.58545">
        <ele>541.4</ele>
        <time>2022-06-26T05:46:37Z</time>
      </trkpt>
      <trkpt lat="45.98032" lon="4.58545">
        <ele>541.8</ele>
        <time>2022-06-26T05:46:38Z</time>
      </trkpt>
      <trkpt lat="45.98029" lon="4.58545">
        <ele>541.8</ele>
        <time>2022-06-26T05:46:39Z</time>
      </trkpt>
      <trkpt lat="45.98027" lon="4.58545">
        <ele>542.2</ele>
        <time>2022-06-26T05:46:40Z</time>
      </trkpt>
      <trkpt lat="45.98025" lon="4.58545">
        <ele>542.2</ele>
        <time>2022-06-26T05:46:41Z</time>
      </trkpt>
      <trkpt lat="45.98022" lon="4.58545">
        <ele>542.4</ele>
        <time>2022-06-26T05:46:42Z</time>
      </trkpt>
      <trkpt lat="45.9802" lon="4.58545">
        <ele>542.4</ele>
        <time>2022-06-26T05:46:43Z</time>
      </trkpt>
      <trkpt lat="45.98018" lon="4.58545">
        <ele>542.6</ele>
        <time>2022-06-26T05:46:44Z</time>
      </trkpt>
      <trkpt lat="45.98015" lon="4.58545">
        <ele>542.6</ele>
        <time>2022-06-26T05:46:45Z</time>
      </trkpt>
      <trkpt lat="45.98013" lon="4.58545">
        <ele>543</ele>
        <time>2022-06-26T05:46:46Z</time>
      </trkpt>
      <trkpt lat="45.9801" lon="4.58545">
        <ele>543</ele>
        <time>2022-06-26T05:46:47Z</time>
      </trkpt>
      <trkpt lat="45.98008" lon="4.58545">
        <ele>543.2</ele>
        <time>2022-06-26T05:46:48Z</time>
      </trkpt>
      <trkpt lat="45.98006" lon="4.58545">
        <ele>543.6</ele>
        <time>2022-06-26T05:46:49Z</time>
      </trkpt>
      <trkpt lat="45.98003" lon="4.58544">
        <ele>543.6</ele>
        <time>2022-06-26T05:46:50Z</time>
      </trkpt>
      <trkpt lat="45.98001" lon="4.58544">
        <ele>543.8</ele>
        <time>2022-06-26T05:46:51Z</time>
      </trkpt>
      <trkpt lat="45.97999" lon="4.58545">
        <ele>543.8</ele>
        <time>2022-06-26T05:46:52Z</time>
      </trkpt>
      <trkpt lat="45.97997" lon="4.58545">
        <ele>544.2</ele>
        <time>2022-06-26T05:46:53Z</time>
      </trkpt>
      <trkpt lat="45.97994" lon="4.58545">
        <ele>544.2</ele>
        <time>2022-06-26T05:46:54Z</time>
      </trkpt>
      <trkpt lat="45.97992" lon="4.58545">
        <ele>544.4</ele>
        <time>2022-06-26T05:46:55Z</time>
      </trkpt>
      <trkpt lat="45.9799" lon="4.58544">
        <ele>544.8</ele>
        <time>2022-06-26T05:46:56Z</time>
      </trkpt>
      <trkpt lat="45.97988" lon="4.58545">
        <ele>544.8</ele>
        <time>2022-06-26T05:46:57Z</time>
      </trkpt>
      <trkpt lat="45.97986" lon="4.58545">
        <ele>544.8</ele>
        <time>2022-06-26T05:46:58Z</time>
      </trkpt>
      <trkpt lat="45.97983" lon="4.58545">
        <ele>545.2</ele>
        <time>2022-06-26T05:46:59Z</time>
      </trkpt>
      <trkpt lat="45.97981" lon="4.58546">
        <ele>545.2</ele>
        <time>2022-06-26T05:47:00Z</time>
      </trkpt>
      <trkpt lat="45.97979" lon="4.58546">
        <ele>545.2</ele>
        <time>2022-06-26T05:47:01Z</time>
      </trkpt>
      <trkpt lat="45.97977" lon="4.58547">
        <ele>545.2</ele>
        <time>2022-06-26T05:47:02Z</time>
      </trkpt>
      <trkpt lat="45.97974" lon="4.58547">
        <ele>545.4</ele>
        <time>2022-06-26T05:47:03Z</time>
      </trkpt>
      <trkpt lat="45.97972" lon="4.58547">
        <ele>545.4</ele>
        <time>2022-06-26T05:47:04Z</time>
      </trkpt>
      <trkpt lat="45.9797" lon="4.58548">
        <ele>545.4</ele>
        <time>2022-06-26T05:47:05Z</time>
      </trkpt>
      <trkpt lat="45.97968" lon="4.58548">
        <ele>545.8</ele>
        <time>2022-06-26T05:47:06Z</time>
      </trkpt>
      <trkpt lat="45.97965" lon="4.58547">
        <ele>546.2</ele>
        <time>2022-06-26T05:47:07Z</time>
      </trkpt>
      <trkpt lat="45.97963" lon="4.58547">
        <ele>546.4</ele>
        <time>2022-06-26T05:47:08Z</time>
      </trkpt>
      <trkpt lat="45.97961" lon="4.58547">
        <ele>546.4</ele>
        <time>2022-06-26T05:47:09Z</time>
      </trkpt>
      <trkpt lat="45.97959" lon="4.58547">
        <ele>546.6</ele>
        <time>2022-06-26T05:47:10Z</time>
      </trkpt>
      <trkpt lat="45.97956" lon="4.58546">
        <ele>546.6</ele>
        <time>2022-06-26T05:47:11Z</time>
      </trkpt>
      <trkpt lat="45.97954" lon="4.58547">
        <ele>546.6</ele>
        <time>2022-06-26T05:47:12Z</time>
      </trkpt>
      <trkpt lat="45.97952" lon="4.58547">
        <ele>546.6</ele>
        <time>2022-06-26T05:47:13Z</time>
      </trkpt>
      <trkpt lat="45.9795" lon="4.58547">
        <ele>547</ele>
        <time>2022-06-26T05:47:14Z</time>
      </trkpt>
      <trkpt lat="45.97947" lon="4.58547">
        <ele>547</ele>
        <time>2022-06-26T05:47:15Z</time>
      </trkpt>
      <trkpt lat="45.97945" lon="4.58547">
        <ele>547.4</ele>
        <time>2022-06-26T05:47:16Z</time>
      </trkpt>
      <trkpt lat="45.97943" lon="4.58547">
        <ele>547.4</ele>
        <time>2022-06-26T05:47:17Z</time>
      </trkpt>
      <trkpt lat="45.97941" lon="4.58547">
        <ele>547.6</ele>
        <time>2022-06-26T05:47:18Z</time>
      </trkpt>
      <trkpt lat="45.97938" lon="4.58547">
        <ele>547.6</ele>
        <time>2022-06-26T05:47:19Z</time>
      </trkpt>
      <trkpt lat="45.97936" lon="4.58547">
        <ele>547.8</ele>
        <time>2022-06-26T05:47:20Z</time>
      </trkpt>
      <trkpt lat="45.97934" lon="4.58547">
        <ele>547.8</ele>
        <time>2022-06-26T05:47:21Z</time>
      </trkpt>
      <trkpt lat="45.97931" lon="4.58547">
        <ele>548.2</ele>
        <time>2022-06-26T05:47:22Z</time>
      </trkpt>
      <trkpt lat="45.97929" lon="4.58548">
        <ele>548.2</ele>
        <time>2022-06-26T05:47:23Z</time>
      </trkpt>
      <trkpt lat="45.97927" lon="4.58548">
        <ele>548.4</ele>
        <time>2022-06-26T05:47:24Z</time>
      </trkpt>
      <trkpt lat="45.97924" lon="4.58548">
        <ele>548.4</ele>
        <time>2022-06-26T05:47:25Z</time>
      </trkpt>
      <trkpt lat="45.97922" lon="4.58548">
        <ele>548.6</ele>
        <time>2022-06-26T05:47:26Z</time>
      </trkpt>
      <trkpt lat="45.9792" lon="4.58548">
        <ele>548.6</ele>
        <time>2022-06-26T05:47:27Z</time>
      </trkpt>
      <trkpt lat="45.97917" lon="4.58548">
        <ele>549</ele>
        <time>2022-06-26T05:47:28Z</time>
      </trkpt>
      <trkpt lat="45.97915" lon="4.58548">
        <ele>549</ele>
        <time>2022-06-26T05:47:29Z</time>
      </trkpt>
      <trkpt lat="45.97913" lon="4.58549">
        <ele>549</ele>
        <time>2022-06-26T05:47:30Z</time>
      </trkpt>
      <trkpt lat="45.9791" lon="4.58549">
        <ele>549.4</ele>
        <time>2022-06-26T05:47:31Z</time>
      </trkpt>
      <trkpt lat="45.97908" lon="4.58549">
        <ele>549.4</ele>
        <time>2022-06-26T05:47:32Z</time>
      </trkpt>
      <trkpt lat="45.97905" lon="4.58549">
        <ele>549.8</ele>
        <time>2022-06-26T05:47:33Z</time>
      </trkpt>
      <trkpt lat="45.97903" lon="4.58549">
        <ele>549.8</ele>
        <time>2022-06-26T05:47:34Z</time>
      </trkpt>
      <trkpt lat="45.979" lon="4.58549">
        <ele>550</ele>
        <time>2022-06-26T05:47:35Z</time>
      </trkpt>
      <trkpt lat="45.97898" lon="4.58549">
        <ele>550</ele>
        <time>2022-06-26T05:47:36Z</time>
      </trkpt>
      <trkpt lat="45.97895" lon="4.58549">
        <ele>550.2</ele>
        <time>2022-06-26T05:47:37Z</time>
      </trkpt>
      <trkpt lat="45.97893" lon="4.58549">
        <ele>550.2</ele>
        <time>2022-06-26T05:47:38Z</time>
      </trkpt>
      <trkpt lat="45.9789" lon="4.58549">
        <ele>550.4</ele>
        <time>2022-06-26T05:47:39Z</time>
      </trkpt>
      <trkpt lat="45.97888" lon="4.5855">
        <ele>550.4</ele>
        <time>2022-06-26T05:47:40Z</time>
      </trkpt>
      <trkpt lat="45.97886" lon="4.5855">
        <ele>551</ele>
        <time>2022-06-26T05:47:41Z</time>
      </trkpt>
      <trkpt lat="45.97883" lon="4.5855">
        <ele>551</ele>
        <time>2022-06-26T05:47:42Z</time>
      </trkpt>
      <trkpt lat="45.97881" lon="4.5855">
        <ele>551</ele>
        <time>2022-06-26T05:47:43Z</time>
      </trkpt>
      <trkpt lat="45.97879" lon="4.5855">
        <ele>551.2</ele>
        <time>2022-06-26T05:47:44Z</time>
      </trkpt>
      <trkpt lat="45.97876" lon="4.5855">
        <ele>551.6</ele>
        <time>2022-06-26T05:47:45Z</time>
      </trkpt>
      <trkpt lat="45.97874" lon="4.58551">
        <ele>551.6</ele>
        <time>2022-06-26T05:47:46Z</time>
      </trkpt>
      <trkpt lat="45.9787" lon="4.58551">
        <ele>551.8</ele>
        <time>2022-06-26T05:47:47Z</time>
      </trkpt>
      <trkpt lat="45.97867" lon="4.58551">
        <ele>552.2</ele>
        <time>2022-06-26T05:47:48Z</time>
      </trkpt>
      <trkpt lat="45.97865" lon="4.58551">
        <ele>552.2</ele>
        <time>2022-06-26T05:47:49Z</time>
      </trkpt>
      <trkpt lat="45.97863" lon="4.58551">
        <ele>552.6</ele>
        <time>2022-06-26T05:47:50Z</time>
      </trkpt>
      <trkpt lat="45.9786" lon="4.58551">
        <ele>552.8</ele>
        <time>2022-06-26T05:47:52Z</time>
      </trkpt>
      <trkpt lat="45.97858" lon="4.58551">
        <ele>552.8</ele>
        <time>2022-06-26T05:47:53Z</time>
      </trkpt>
      <trkpt lat="45.97856" lon="4.58551">
        <ele>552.8</ele>
        <time>2022-06-26T05:47:54Z</time>
      </trkpt>
      <trkpt lat="45.97854" lon="4.58551">
        <ele>553</ele>
        <time>2022-06-26T05:47:55Z</time>
      </trkpt>
      <trkpt lat="45.97851" lon="4.5855">
        <ele>553.4</ele>
        <time>2022-06-26T05:47:56Z</time>
      </trkpt>
      <trkpt lat="45.97849" lon="4.5855">
        <ele>553.4</ele>
        <time>2022-06-26T05:47:57Z</time>
      </trkpt>
      <trkpt lat="45.97847" lon="4.58549">
        <ele>553.6</ele>
        <time>2022-06-26T05:47:58Z</time>
      </trkpt>
      <trkpt lat="45.97845" lon="4.58547">
        <ele>553.6</ele>
        <time>2022-06-26T05:47:59Z</time>
      </trkpt>
      <trkpt lat="45.97843" lon="4.58546">
        <ele>553.8</ele>
        <time>2022-06-26T05:48:00Z</time>
      </trkpt>
      <trkpt lat="45.97841" lon="4.58545">
        <ele>554</ele>
        <time>2022-06-26T05:48:01Z</time>
      </trkpt>
      <trkpt lat="45.97838" lon="4.58541">
        <ele>554.6</ele>
        <time>2022-06-26T05:48:02Z</time>
      </trkpt>
      <trkpt lat="45.97836" lon="4.58539">
        <ele>554.6</ele>
        <time>2022-06-26T05:48:03Z</time>
      </trkpt>
      <trkpt lat="45.97834" lon="4.58537">
        <ele>554.8</ele>
        <time>2022-06-26T05:48:04Z</time>
      </trkpt>
      <trkpt lat="45.97833" lon="4.58535">
        <ele>554.8</ele>
        <time>2022-06-26T05:48:05Z</time>
      </trkpt>
      <trkpt lat="45.97832" lon="4.58533">
        <ele>555.2</ele>
        <time>2022-06-26T05:48:06Z</time>
      </trkpt>
      <trkpt lat="45.97831" lon="4.58531">
        <ele>555.2</ele>
        <time>2022-06-26T05:48:07Z</time>
      </trkpt>
      <trkpt lat="45.9783" lon="4.58528">
        <ele>555.4</ele>
        <time>2022-06-26T05:48:08Z</time>
      </trkpt>
      <trkpt lat="45.97829" lon="4.58525">
        <ele>555.4</ele>
        <time>2022-06-26T05:48:09Z</time>
      </trkpt>
      <trkpt lat="45.97828" lon="4.58523">
        <ele>555.6</ele>
        <time>2022-06-26T05:48:10Z</time>
      </trkpt>
      <trkpt lat="45.97828" lon="4.5852">
        <ele>555.6</ele>
        <time>2022-06-26T05:48:11Z</time>
      </trkpt>
      <trkpt lat="45.97827" lon="4.58517">
        <ele>555.6</ele>
        <time>2022-06-26T05:48:12Z</time>
      </trkpt>
      <trkpt lat="45.97827" lon="4.58514">
        <ele>556</ele>
        <time>2022-06-26T05:48:13Z</time>
      </trkpt>
      <trkpt lat="45.97826" lon="4.58511">
        <ele>556</ele>
        <time>2022-06-26T05:48:14Z</time>
      </trkpt>
      <trkpt lat="45.97826" lon="4.58508">
        <ele>556.2</ele>
        <time>2022-06-26T05:48:15Z</time>
      </trkpt>
      <trkpt lat="45.97825" lon="4.58504">
        <ele>556.2</ele>
        <time>2022-06-26T05:48:16Z</time>
      </trkpt>
      <trkpt lat="45.97825" lon="4.58501">
        <ele>556.6</ele>
        <time>2022-06-26T05:48:17Z</time>
      </trkpt>
      <trkpt lat="45.97825" lon="4.58498">
        <ele>556.6</ele>
        <time>2022-06-26T05:48:18Z</time>
      </trkpt>
      <trkpt lat="45.97825" lon="4.58495">
        <ele>556.8</ele>
        <time>2022-06-26T05:48:19Z</time>
      </trkpt>
      <trkpt lat="45.97825" lon="4.58492">
        <ele>556.8</ele>
        <time>2022-06-26T05:48:20Z</time>
      </trkpt>
      <trkpt lat="45.97825" lon="4.58488">
        <ele>557.2</ele>
        <time>2022-06-26T05:48:21Z</time>
      </trkpt>
      <trkpt lat="45.97825" lon="4.58485">
        <ele>557.2</ele>
        <time>2022-06-26T05:48:22Z</time>
      </trkpt>
      <trkpt lat="45.97825" lon="4.58482">
        <ele>557.4</ele>
        <time>2022-06-26T05:48:23Z</time>
      </trkpt>
      <trkpt lat="45.97825" lon="4.58479">
        <ele>557.4</ele>
        <time>2022-06-26T05:48:24Z</time>
      </trkpt>
      <trkpt lat="45.97825" lon="4.58476">
        <ele>557.4</ele>
        <time>2022-06-26T05:48:25Z</time>
      </trkpt>
      <trkpt lat="45.97825" lon="4.58473">
        <ele>557.6</ele>
        <time>2022-06-26T05:48:26Z</time>
      </trkpt>
      <trkpt lat="45.97825" lon="4.5847">
        <ele>557.6</ele>
        <time>2022-06-26T05:48:27Z</time>
      </trkpt>
      <trkpt lat="45.97824" lon="4.58467">
        <ele>558</ele>
        <time>2022-06-26T05:48:28Z</time>
      </trkpt>
      <trkpt lat="45.97824" lon="4.58464">
        <ele>558</ele>
        <time>2022-06-26T05:48:29Z</time>
      </trkpt>
      <trkpt lat="45.97824" lon="4.58461">
        <ele>558.4</ele>
        <time>2022-06-26T05:48:30Z</time>
      </trkpt>
      <trkpt lat="45.97824" lon="4.58458">
        <ele>558.4</ele>
        <time>2022-06-26T05:48:31Z</time>
      </trkpt>
      <trkpt lat="45.97824" lon="4.58455">
        <ele>558.8</ele>
        <time>2022-06-26T05:48:32Z</time>
      </trkpt>
      <trkpt lat="45.97824" lon="4.58452">
        <ele>558.8</ele>
        <time>2022-06-26T05:48:33Z</time>
      </trkpt>
      <trkpt lat="45.97824" lon="4.58449">
        <ele>559</ele>
        <time>2022-06-26T05:48:34Z</time>
      </trkpt>
      <trkpt lat="45.97824" lon="4.58446">
        <ele>559</ele>
        <time>2022-06-26T05:48:35Z</time>
      </trkpt>
      <trkpt lat="45.97824" lon="4.58443">
        <ele>559.4</ele>
        <time>2022-06-26T05:48:36Z</time>
      </trkpt>
      <trkpt lat="45.97823" lon="4.58439">
        <ele>559.4</ele>
        <time>2022-06-26T05:48:37Z</time>
      </trkpt>
      <trkpt lat="45.97823" lon="4.58436">
        <ele>559.6</ele>
        <time>2022-06-26T05:48:38Z</time>
      </trkpt>
      <trkpt lat="45.97823" lon="4.58433">
        <ele>559.6</ele>
        <time>2022-06-26T05:48:39Z</time>
      </trkpt>
      <trkpt lat="45.97823" lon="4.5843">
        <ele>559.8</ele>
        <time>2022-06-26T05:48:40Z</time>
      </trkpt>
      <trkpt lat="45.97823" lon="4.58427">
        <ele>559.8</ele>
        <time>2022-06-26T05:48:41Z</time>
      </trkpt>
      <trkpt lat="45.97823" lon="4.58424">
        <ele>560.2</ele>
        <time>2022-06-26T05:48:42Z</time>
      </trkpt>
      <trkpt lat="45.97823" lon="4.5842">
        <ele>560.2</ele>
        <time>2022-06-26T05:48:43Z</time>
      </trkpt>
      <trkpt lat="45.97823" lon="4.58417">
        <ele>560.4</ele>
        <time>2022-06-26T05:48:44Z</time>
      </trkpt>
      <trkpt lat="45.97823" lon="4.58414">
        <ele>560.4</ele>
        <time>2022-06-26T05:48:45Z</time>
      </trkpt>
      <trkpt lat="45.97823" lon="4.58411">
        <ele>560.8</ele>
        <time>2022-06-26T05:48:46Z</time>
      </trkpt>
      <trkpt lat="45.97823" lon="4.58408">
        <ele>560.8</ele>
        <time>2022-06-26T05:48:47Z</time>
      </trkpt>
      <trkpt lat="45.97823" lon="4.58405">
        <ele>561</ele>
        <time>2022-06-26T05:48:48Z</time>
      </trkpt>
      <trkpt lat="45.97823" lon="4.58402">
        <ele>561</ele>
        <time>2022-06-26T05:48:49Z</time>
      </trkpt>
      <trkpt lat="45.97823" lon="4.58399">
        <ele>561.2</ele>
        <time>2022-06-26T05:48:50Z</time>
      </trkpt>
      <trkpt lat="45.97823" lon="4.58396">
        <ele>561.2</ele>
        <time>2022-06-26T05:48:51Z</time>
      </trkpt>
      <trkpt lat="45.97824" lon="4.58393">
        <ele>561.6</ele>
        <time>2022-06-26T05:48:52Z</time>
      </trkpt>
      <trkpt lat="45.97825" lon="4.58389">
        <ele>561.6</ele>
        <time>2022-06-26T05:48:53Z</time>
      </trkpt>
      <trkpt lat="45.97825" lon="4.58386">
        <ele>561.6</ele>
        <time>2022-06-26T05:48:54Z</time>
      </trkpt>
      <trkpt lat="45.97825" lon="4.58383">
        <ele>561.8</ele>
        <time>2022-06-26T05:48:55Z</time>
      </trkpt>
      <trkpt lat="45.97826" lon="4.5838">
        <ele>561.8</ele>
        <time>2022-06-26T05:48:56Z</time>
      </trkpt>
      <trkpt lat="45.97826" lon="4.58376">
        <ele>561.8</ele>
        <time>2022-06-26T05:48:57Z</time>
      </trkpt>
      <trkpt lat="45.97826" lon="4.58373">
        <ele>561.8</ele>
        <time>2022-06-26T05:48:58Z</time>
      </trkpt>
      <trkpt lat="45.97825" lon="4.5837">
        <ele>562.2</ele>
        <time>2022-06-26T05:48:59Z</time>
      </trkpt>
      <trkpt lat="45.97825" lon="4.58367">
        <ele>562.2</ele>
        <time>2022-06-26T05:49:00Z</time>
      </trkpt>
      <trkpt lat="45.97825" lon="4.58364">
        <ele>562.2</ele>
        <time>2022-06-26T05:49:01Z</time>
      </trkpt>
      <trkpt lat="45.97825" lon="4.58361">
        <ele>562.2</ele>
        <time>2022-06-26T05:49:02Z</time>
      </trkpt>
      <trkpt lat="45.97825" lon="4.58358">
        <ele>562.4</ele>
        <time>2022-06-26T05:49:03Z</time>
      </trkpt>
      <trkpt lat="45.97825" lon="4.58355">
        <ele>562.4</ele>
        <time>2022-06-26T05:49:04Z</time>
      </trkpt>
      <trkpt lat="45.97824" lon="4.58352">
        <ele>562.4</ele>
        <time>2022-06-26T05:49:05Z</time>
      </trkpt>
      <trkpt lat="45.97823" lon="4.5835">
        <ele>562.6</ele>
        <time>2022-06-26T05:49:06Z</time>
      </trkpt>
      <trkpt lat="45.97821" lon="4.58348">
        <ele>562.6</ele>
        <time>2022-06-26T05:49:07Z</time>
      </trkpt>
      <trkpt lat="45.9782" lon="4.58347">
        <ele>562.6</ele>
        <time>2022-06-26T05:49:08Z</time>
      </trkpt>
      <trkpt lat="45.97818" lon="4.58346">
        <ele>562.6</ele>
        <time>2022-06-26T05:49:09Z</time>
      </trkpt>
      <trkpt lat="45.97816" lon="4.58346">
        <ele>562.8</ele>
        <time>2022-06-26T05:49:10Z</time>
      </trkpt>
      <trkpt lat="45.97814" lon="4.58347">
        <ele>562.8</ele>
        <time>2022-06-26T05:49:11Z</time>
      </trkpt>
      <trkpt lat="45.97812" lon="4.58349">
        <ele>562.8</ele>
        <time>2022-06-26T05:49:12Z</time>
      </trkpt>
      <trkpt lat="45.97811" lon="4.58352">
        <ele>562.8</ele>
        <time>2022-06-26T05:49:13Z</time>
      </trkpt>
      <trkpt lat="45.9781" lon="4.58355">
        <ele>562.8</ele>
        <time>2022-06-26T05:49:14Z</time>
      </trkpt>
      <trkpt lat="45.97809" lon="4.58358">
        <ele>562.8</ele>
        <time>2022-06-26T05:49:15Z</time>
      </trkpt>
      <trkpt lat="45.97808" lon="4.58362">
        <ele>562.8</ele>
        <time>2022-06-26T05:49:16Z</time>
      </trkpt>
      <trkpt lat="45.97807" lon="4.58364">
        <ele>562.8</ele>
        <time>2022-06-26T05:49:17Z</time>
      </trkpt>
      <trkpt lat="45.97806" lon="4.58366">
        <ele>562.8</ele>
        <time>2022-06-26T05:49:18Z</time>
      </trkpt>
      <trkpt lat="45.97807" lon="4.58368">
        <ele>562.8</ele>
        <time>2022-06-26T05:49:19Z</time>
      </trkpt>
      <trkpt lat="45.97808" lon="4.58369">
        <ele>562.8</ele>
        <time>2022-06-26T05:49:20Z</time>
      </trkpt>
      <trkpt lat="45.97809" lon="4.58368">
        <ele>562.8</ele>
        <time>2022-06-26T05:49:21Z</time>
      </trkpt>
      <trkpt lat="45.9781" lon="4.58362">
        <ele>562.8</ele>
        <time>2022-06-26T05:49:24Z</time>
      </trkpt>
      <trkpt lat="45.97811" lon="4.58359">
        <ele>562.8</ele>
        <time>2022-06-26T05:49:25Z</time>
      </trkpt>
      <trkpt lat="45.97811" lon="4.58356">
        <ele>562.8</ele>
        <time>2022-06-26T05:49:26Z</time>
      </trkpt>
      <trkpt lat="45.97811" lon="4.58352">
        <ele>562.8</ele>
        <time>2022-06-26T05:49:27Z</time>
      </trkpt>
      <trkpt lat="45.97811" lon="4.58348">
        <ele>562.8</ele>
        <time>2022-06-26T05:49:28Z</time>
      </trkpt>
      <trkpt lat="45.97811" lon="4.58344">
        <ele>562.8</ele>
        <time>2022-06-26T05:49:29Z</time>
      </trkpt>
      <trkpt lat="45.97811" lon="4.5834">
        <ele>562.8</ele>
        <time>2022-06-26T05:49:30Z</time>
      </trkpt>
      <trkpt lat="45.97811" lon="4.58335">
        <ele>562.8</ele>
        <time>2022-06-26T05:49:31Z</time>
      </trkpt>
      <trkpt lat="45.97811" lon="4.58331">
        <ele>562.8</ele>
        <time>2022-06-26T05:49:32Z</time>
      </trkpt>
      <trkpt lat="45.97811" lon="4.58326">
        <ele>562.8</ele>
        <time>2022-06-26T05:49:33Z</time>
      </trkpt>
      <trkpt lat="45.97811" lon="4.58322">
        <ele>562.8</ele>
        <time>2022-06-26T05:49:34Z</time>
      </trkpt>
      <trkpt lat="45.9781" lon="4.58318">
        <ele>562.8</ele>
        <time>2022-06-26T05:49:35Z</time>
      </trkpt>
      <trkpt lat="45.9781" lon="4.58314">
        <ele>562.8</ele>
        <time>2022-06-26T05:49:36Z</time>
      </trkpt>
      <trkpt lat="45.97809" lon="4.5831">
        <ele>562.8</ele>
        <time>2022-06-26T05:49:37Z</time>
      </trkpt>
      <trkpt lat="45.97808" lon="4.58306">
        <ele>562.8</ele>
        <time>2022-06-26T05:49:38Z</time>
      </trkpt>
      <trkpt lat="45.97806" lon="4.58301">
        <ele>562.8</ele>
        <time>2022-06-26T05:49:39Z</time>
      </trkpt>
      <trkpt lat="45.97805" lon="4.58297">
        <ele>562.8</ele>
        <time>2022-06-26T05:49:40Z</time>
      </trkpt>
      <trkpt lat="45.97804" lon="4.58292">
        <ele>562.8</ele>
        <time>2022-06-26T05:49:41Z</time>
      </trkpt>
      <trkpt lat="45.97802" lon="4.58288">
        <ele>562.8</ele>
        <time>2022-06-26T05:49:42Z</time>
      </trkpt>
      <trkpt lat="45.978" lon="4.58285">
        <ele>562.8</ele>
        <time>2022-06-26T05:49:43Z</time>
      </trkpt>
      <trkpt lat="45.97798" lon="4.58281">
        <ele>563</ele>
        <time>2022-06-26T05:49:44Z</time>
      </trkpt>
      <trkpt lat="45.97796" lon="4.58277">
        <ele>563</ele>
        <time>2022-06-26T05:49:45Z</time>
      </trkpt>
      <trkpt lat="45.97794" lon="4.58274">
        <ele>563</ele>
        <time>2022-06-26T05:49:46Z</time>
      </trkpt>
      <trkpt lat="45.97792" lon="4.5827">
        <ele>563</ele>
        <time>2022-06-26T05:49:47Z</time>
      </trkpt>
      <trkpt lat="45.9779" lon="4.58267">
        <ele>563</ele>
        <time>2022-06-26T05:49:48Z</time>
      </trkpt>
      <trkpt lat="45.97787" lon="4.58263">
        <ele>563</ele>
        <time>2022-06-26T05:49:49Z</time>
      </trkpt>
      <trkpt lat="45.97785" lon="4.58259">
        <ele>563</ele>
        <time>2022-06-26T05:49:51Z</time>
      </trkpt>
      <trkpt lat="45.97782" lon="4.58255">
        <ele>563</ele>
        <time>2022-06-26T05:49:52Z</time>
      </trkpt>
      <trkpt lat="45.9778" lon="4.58252">
        <ele>563</ele>
        <time>2022-06-26T05:49:53Z</time>
      </trkpt>
      <trkpt lat="45.97777" lon="4.58249">
        <ele>563</ele>
        <time>2022-06-26T05:49:54Z</time>
      </trkpt>
      <trkpt lat="45.97774" lon="4.58246">
        <ele>563</ele>
        <time>2022-06-26T05:49:55Z</time>
      </trkpt>
      <trkpt lat="45.9777" lon="4.58242">
        <ele>563</ele>
        <time>2022-06-26T05:49:56Z</time>
      </trkpt>
      <trkpt lat="45.97767" lon="4.58238">
        <ele>563</ele>
        <time>2022-06-26T05:49:57Z</time>
      </trkpt>
      <trkpt lat="45.97764" lon="4.58235">
        <ele>563</ele>
        <time>2022-06-26T05:49:58Z</time>
      </trkpt>
      <trkpt lat="45.9776" lon="4.58231">
        <ele>563</ele>
        <time>2022-06-26T05:49:59Z</time>
      </trkpt>
      <trkpt lat="45.97757" lon="4.58227">
        <ele>563</ele>
        <time>2022-06-26T05:50:00Z</time>
      </trkpt>
      <trkpt lat="45.97753" lon="4.58224">
        <ele>563</ele>
        <time>2022-06-26T05:50:01Z</time>
      </trkpt>
      <trkpt lat="45.97748" lon="4.5822">
        <ele>563</ele>
        <time>2022-06-26T05:50:02Z</time>
      </trkpt>
      <trkpt lat="45.97744" lon="4.58217">
        <ele>563</ele>
        <time>2022-06-26T05:50:03Z</time>
      </trkpt>
      <trkpt lat="45.97739" lon="4.58214">
        <ele>562.8</ele>
        <time>2022-06-26T05:50:04Z</time>
      </trkpt>
      <trkpt lat="45.97734" lon="4.58211">
        <ele>562.8</ele>
        <time>2022-06-26T05:50:05Z</time>
      </trkpt>
      <trkpt lat="45.97728" lon="4.58208">
        <ele>562.6</ele>
        <time>2022-06-26T05:50:06Z</time>
      </trkpt>
      <trkpt lat="45.97723" lon="4.58205">
        <ele>562.6</ele>
        <time>2022-06-26T05:50:07Z</time>
      </trkpt>
      <trkpt lat="45.97717" lon="4.58202">
        <ele>562.6</ele>
        <time>2022-06-26T05:50:08Z</time>
      </trkpt>
      <trkpt lat="45.97711" lon="4.58199">
        <ele>562.2</ele>
        <time>2022-06-26T05:50:09Z</time>
      </trkpt>
      <trkpt lat="45.97705" lon="4.58196">
        <ele>562.2</ele>
        <time>2022-06-26T05:50:10Z</time>
      </trkpt>
      <trkpt lat="45.97698" lon="4.58193">
        <ele>561.8</ele>
        <time>2022-06-26T05:50:11Z</time>
      </trkpt>
      <trkpt lat="45.97692" lon="4.5819">
        <ele>561.8</ele>
        <time>2022-06-26T05:50:12Z</time>
      </trkpt>
      <trkpt lat="45.97685" lon="4.58187">
        <ele>561.8</ele>
        <time>2022-06-26T05:50:13Z</time>
      </trkpt>
      <trkpt lat="45.97679" lon="4.58185">
        <ele>561.6</ele>
        <time>2022-06-26T05:50:14Z</time>
      </trkpt>
      <trkpt lat="45.97672" lon="4.58183">
        <ele>561.6</ele>
        <time>2022-06-26T05:50:15Z</time>
      </trkpt>
      <trkpt lat="45.97665" lon="4.5818">
        <ele>561.4</ele>
        <time>2022-06-26T05:50:16Z</time>
      </trkpt>
      <trkpt lat="45.97658" lon="4.58178">
        <ele>561.4</ele>
        <time>2022-06-26T05:50:17Z</time>
      </trkpt>
      <trkpt lat="45.97651" lon="4.58176">
        <ele>561.4</ele>
        <time>2022-06-26T05:50:18Z</time>
      </trkpt>
      <trkpt lat="45.97644" lon="4.58175">
        <ele>561</ele>
        <time>2022-06-26T05:50:19Z</time>
      </trkpt>
      <trkpt lat="45.97638" lon="4.58173">
        <ele>561</ele>
        <time>2022-06-26T05:50:20Z</time>
      </trkpt>
      <trkpt lat="45.97631" lon="4.58171">
        <ele>560.8</ele>
        <time>2022-06-26T05:50:21Z</time>
      </trkpt>
      <trkpt lat="45.97624" lon="4.5817">
        <ele>560.8</ele>
        <time>2022-06-26T05:50:22Z</time>
      </trkpt>
      <trkpt lat="45.97616" lon="4.58168">
        <ele>560.8</ele>
        <time>2022-06-26T05:50:23Z</time>
      </trkpt>
      <trkpt lat="45.97609" lon="4.58168">
        <ele>560.8</ele>
        <time>2022-06-26T05:50:24Z</time>
      </trkpt>
      <trkpt lat="45.97602" lon="4.58167">
        <ele>560.8</ele>
        <time>2022-06-26T05:50:25Z</time>
      </trkpt>
      <trkpt lat="45.97594" lon="4.58166">
        <ele>560.8</ele>
        <time>2022-06-26T05:50:26Z</time>
      </trkpt>
      <trkpt lat="45.97587" lon="4.58165">
        <ele>560.4</ele>
        <time>2022-06-26T05:50:27Z</time>
      </trkpt>
      <trkpt lat="45.97579" lon="4.58165">
        <ele>560.2</ele>
        <time>2022-06-26T05:50:28Z</time>
      </trkpt>
      <trkpt lat="45.97572" lon="4.58164">
        <ele>560</ele>
        <time>2022-06-26T05:50:29Z</time>
      </trkpt>
      <trkpt lat="45.97564" lon="4.58163">
        <ele>559.6</ele>
        <time>2022-06-26T05:50:30Z</time>
      </trkpt>
      <trkpt lat="45.97556" lon="4.58162">
        <ele>559.4</ele>
        <time>2022-06-26T05:50:31Z</time>
      </trkpt>
      <trkpt lat="45.97548" lon="4.5816">
        <ele>559.2</ele>
        <time>2022-06-26T05:50:32Z</time>
      </trkpt>
      <trkpt lat="45.9754" lon="4.58158">
        <ele>559.2</ele>
        <time>2022-06-26T05:50:33Z</time>
      </trkpt>
      <trkpt lat="45.97532" lon="4.58156">
        <ele>559</ele>
        <time>2022-06-26T05:50:34Z</time>
      </trkpt>
      <trkpt lat="45.97524" lon="4.58152">
        <ele>559</ele>
        <time>2022-06-26T05:50:35Z</time>
      </trkpt>
      <trkpt lat="45.97516" lon="4.58149">
        <ele>558.6</ele>
        <time>2022-06-26T05:50:36Z</time>
      </trkpt>
      <trkpt lat="45.97508" lon="4.58145">
        <ele>558.4</ele>
        <time>2022-06-26T05:50:37Z</time>
      </trkpt>
      <trkpt lat="45.97501" lon="4.58141">
        <ele>558</ele>
        <time>2022-06-26T05:50:38Z</time>
      </trkpt>
      <trkpt lat="45.97493" lon="4.58137">
        <ele>558</ele>
        <time>2022-06-26T05:50:39Z</time>
      </trkpt>
      <trkpt lat="45.97485" lon="4.58133">
        <ele>557.8</ele>
        <time>2022-06-26T05:50:40Z</time>
      </trkpt>
      <trkpt lat="45.97478" lon="4.58129">
        <ele>557.8</ele>
        <time>2022-06-26T05:50:41Z</time>
      </trkpt>
      <trkpt lat="45.97471" lon="4.58124">
        <ele>557.8</ele>
        <time>2022-06-26T05:50:42Z</time>
      </trkpt>
      <trkpt lat="45.97463" lon="4.58119">
        <ele>557.6</ele>
        <time>2022-06-26T05:50:43Z</time>
      </trkpt>
      <trkpt lat="45.97456" lon="4.58114">
        <ele>557.6</ele>
        <time>2022-06-26T05:50:44Z</time>
      </trkpt>
      <trkpt lat="45.9745" lon="4.58108">
        <ele>557.2</ele>
        <time>2022-06-26T05:50:45Z</time>
      </trkpt>
      <trkpt lat="45.97443" lon="4.58102">
        <ele>557.2</ele>
        <time>2022-06-26T05:50:46Z</time>
      </trkpt>
      <trkpt lat="45.97437" lon="4.58096">
        <ele>557</ele>
        <time>2022-06-26T05:50:47Z</time>
      </trkpt>
      <trkpt lat="45.97431" lon="4.58089">
        <ele>557</ele>
        <time>2022-06-26T05:50:48Z</time>
      </trkpt>
      <trkpt lat="45.97425" lon="4.58082">
        <ele>556.8</ele>
        <time>2022-06-26T05:50:49Z</time>
      </trkpt>
      <trkpt lat="45.97419" lon="4.58076">
        <ele>556.8</ele>
        <time>2022-06-26T05:50:50Z</time>
      </trkpt>
      <trkpt lat="45.97413" lon="4.58069">
        <ele>556.8</ele>
        <time>2022-06-26T05:50:51Z</time>
      </trkpt>
      <trkpt lat="45.97407" lon="4.58063">
        <ele>556.8</ele>
        <time>2022-06-26T05:50:52Z</time>
      </trkpt>
      <trkpt lat="45.97401" lon="4.58058">
        <ele>556.8</ele>
        <time>2022-06-26T05:50:53Z</time>
      </trkpt>
      <trkpt lat="45.97394" lon="4.58054">
        <ele>556.8</ele>
        <time>2022-06-26T05:50:54Z</time>
      </trkpt>
      <trkpt lat="45.97387" lon="4.58051">
        <ele>556.4</ele>
        <time>2022-06-26T05:50:55Z</time>
      </trkpt>
      <trkpt lat="45.9738" lon="4.58049">
        <ele>556.4</ele>
        <time>2022-06-26T05:50:56Z</time>
      </trkpt>
      <trkpt lat="45.97372" lon="4.58048">
        <ele>556.4</ele>
        <time>2022-06-26T05:50:57Z</time>
      </trkpt>
      <trkpt lat="45.97365" lon="4.58049">
        <ele>556.4</ele>
        <time>2022-06-26T05:50:58Z</time>
      </trkpt>
      <trkpt lat="45.97358" lon="4.58051">
        <ele>556.2</ele>
        <time>2022-06-26T05:50:59Z</time>
      </trkpt>
      <trkpt lat="45.97351" lon="4.58054">
        <ele>556</ele>
        <time>2022-06-26T05:51:00Z</time>
      </trkpt>
      <trkpt lat="45.97344" lon="4.58058">
        <ele>556</ele>
        <time>2022-06-26T05:51:01Z</time>
      </trkpt>
      <trkpt lat="45.97337" lon="4.58062">
        <ele>555.4</ele>
        <time>2022-06-26T05:51:02Z</time>
      </trkpt>
      <trkpt lat="45.9733" lon="4.58068">
        <ele>555.4</ele>
        <time>2022-06-26T05:51:03Z</time>
      </trkpt>
      <trkpt lat="45.97324" lon="4.58073">
        <ele>555.2</ele>
        <time>2022-06-26T05:51:04Z</time>
      </trkpt>
      <trkpt lat="45.97318" lon="4.58079">
        <ele>555.2</ele>
        <time>2022-06-26T05:51:05Z</time>
      </trkpt>
      <trkpt lat="45.97312" lon="4.58085">
        <ele>555</ele>
        <time>2022-06-26T05:51:06Z</time>
      </trkpt>
      <trkpt lat="45.97306" lon="4.58091">
        <ele>555</ele>
        <time>2022-06-26T05:51:07Z</time>
      </trkpt>
      <trkpt lat="45.97299" lon="4.58096">
        <ele>555</ele>
        <time>2022-06-26T05:51:08Z</time>
      </trkpt>
      <trkpt lat="45.97292" lon="4.581">
        <ele>554.6</ele>
        <time>2022-06-26T05:51:09Z</time>
      </trkpt>
      <trkpt lat="45.97285" lon="4.58103">
        <ele>554.6</ele>
        <time>2022-06-26T05:51:10Z</time>
      </trkpt>
      <trkpt lat="45.97277" lon="4.58105">
        <ele>554.2</ele>
        <time>2022-06-26T05:51:11Z</time>
      </trkpt>
      <trkpt lat="45.97269" lon="4.58105">
        <ele>554.2</ele>
        <time>2022-06-26T05:51:12Z</time>
      </trkpt>
      <trkpt lat="45.97261" lon="4.58105">
        <ele>554</ele>
        <time>2022-06-26T05:51:13Z</time>
      </trkpt>
      <trkpt lat="45.97254" lon="4.58102">
        <ele>553.8</ele>
        <time>2022-06-26T05:51:14Z</time>
      </trkpt>
      <trkpt lat="45.97248" lon="4.58099">
        <ele>553.8</ele>
        <time>2022-06-26T05:51:15Z</time>
      </trkpt>
      <trkpt lat="45.97242" lon="4.58095">
        <ele>553.6</ele>
        <time>2022-06-26T05:51:16Z</time>
      </trkpt>
      <trkpt lat="45.97236" lon="4.58091">
        <ele>553.6</ele>
        <time>2022-06-26T05:51:17Z</time>
      </trkpt>
      <trkpt lat="45.9723" lon="4.58087">
        <ele>553.2</ele>
        <time>2022-06-26T05:51:18Z</time>
      </trkpt>
      <trkpt lat="45.97225" lon="4.58081">
        <ele>553.2</ele>
        <time>2022-06-26T05:51:19Z</time>
      </trkpt>
      <trkpt lat="45.9722" lon="4.58074">
        <ele>553.2</ele>
        <time>2022-06-26T05:51:20Z</time>
      </trkpt>
      <trkpt lat="45.97214" lon="4.58067">
        <ele>553.2</ele>
        <time>2022-06-26T05:51:21Z</time>
      </trkpt>
      <trkpt lat="45.97209" lon="4.5806">
        <ele>553</ele>
        <time>2022-06-26T05:51:22Z</time>
      </trkpt>
      <trkpt lat="45.97204" lon="4.58054">
        <ele>553</ele>
        <time>2022-06-26T05:51:23Z</time>
      </trkpt>
      <trkpt lat="45.97198" lon="4.58047">
        <ele>552.6</ele>
        <time>2022-06-26T05:51:24Z</time>
      </trkpt>
      <trkpt lat="45.97192" lon="4.5804">
        <ele>552.4</ele>
        <time>2022-06-26T05:51:25Z</time>
      </trkpt>
      <trkpt lat="45.97185" lon="4.58034">
        <ele>552.4</ele>
        <time>2022-06-26T05:51:26Z</time>
      </trkpt>
      <trkpt lat="45.97179" lon="4.58028">
        <ele>552</ele>
        <time>2022-06-26T05:51:27Z</time>
      </trkpt>
      <trkpt lat="45.97172" lon="4.58023">
        <ele>551.8</ele>
        <time>2022-06-26T05:51:28Z</time>
      </trkpt>
      <trkpt lat="45.97165" lon="4.58018">
        <ele>551.8</ele>
        <time>2022-06-26T05:51:29Z</time>
      </trkpt>
      <trkpt lat="45.97151" lon="4.5801">
        <ele>551.8</ele>
        <time>2022-06-26T05:51:30Z</time>
      </trkpt>
      <trkpt lat="45.97143" lon="4.58008">
        <ele>551.8</ele>
        <time>2022-06-26T05:51:31Z</time>
      </trkpt>
      <trkpt lat="45.97136" lon="4.58005">
        <ele>551.8</ele>
        <time>2022-06-26T05:51:32Z</time>
      </trkpt>
      <trkpt lat="45.97129" lon="4.58004">
        <ele>551.8</ele>
        <time>2022-06-26T05:51:33Z</time>
      </trkpt>
      <trkpt lat="45.97121" lon="4.58003">
        <ele>551.8</ele>
        <time>2022-06-26T05:51:34Z</time>
      </trkpt>
      <trkpt lat="45.97114" lon="4.58004">
        <ele>551.8</ele>
        <time>2022-06-26T05:51:35Z</time>
      </trkpt>
      <trkpt lat="45.97107" lon="4.58005">
        <ele>551.8</ele>
        <time>2022-06-26T05:51:36Z</time>
      </trkpt>
      <trkpt lat="45.97101" lon="4.58009">
        <ele>551.8</ele>
        <time>2022-06-26T05:51:37Z</time>
      </trkpt>
      <trkpt lat="45.97094" lon="4.58013">
        <ele>551.8</ele>
        <time>2022-06-26T05:51:38Z</time>
      </trkpt>
      <trkpt lat="45.97088" lon="4.58019">
        <ele>551.8</ele>
        <time>2022-06-26T05:51:39Z</time>
      </trkpt>
      <trkpt lat="45.97082" lon="4.58025">
        <ele>551.6</ele>
        <time>2022-06-26T05:51:40Z</time>
      </trkpt>
      <trkpt lat="45.97076" lon="4.58032">
        <ele>551.6</ele>
        <time>2022-06-26T05:51:41Z</time>
      </trkpt>
      <trkpt lat="45.97071" lon="4.5804">
        <ele>551.6</ele>
        <time>2022-06-26T05:51:42Z</time>
      </trkpt>
      <trkpt lat="45.97065" lon="4.58048">
        <ele>551.2</ele>
        <time>2022-06-26T05:51:43Z</time>
      </trkpt>
      <trkpt lat="45.9706" lon="4.58055">
        <ele>551.2</ele>
        <time>2022-06-26T05:51:44Z</time>
      </trkpt>
      <trkpt lat="45.97054" lon="4.58063">
        <ele>550.8</ele>
        <time>2022-06-26T05:51:45Z</time>
      </trkpt>
      <trkpt lat="45.97049" lon="4.58071">
        <ele>550.8</ele>
        <time>2022-06-26T05:51:46Z</time>
      </trkpt>
      <trkpt lat="45.97043" lon="4.58079">
        <ele>550.4</ele>
        <time>2022-06-26T05:51:47Z</time>
      </trkpt>
      <trkpt lat="45.97038" lon="4.58086">
        <ele>550.2</ele>
        <time>2022-06-26T05:51:48Z</time>
      </trkpt>
      <trkpt lat="45.97033" lon="4.58093">
        <ele>550.2</ele>
        <time>2022-06-26T05:51:49Z</time>
      </trkpt>
      <trkpt lat="45.97029" lon="4.58099">
        <ele>549.8</ele>
        <time>2022-06-26T05:51:50Z</time>
      </trkpt>
      <trkpt lat="45.97024" lon="4.58105">
        <ele>549.4</ele>
        <time>2022-06-26T05:51:51Z</time>
      </trkpt>
      <trkpt lat="45.97019" lon="4.58111">
        <ele>549.4</ele>
        <time>2022-06-26T05:51:52Z</time>
      </trkpt>
      <trkpt lat="45.97014" lon="4.58115">
        <ele>549.2</ele>
        <time>2022-06-26T05:51:53Z</time>
      </trkpt>
      <trkpt lat="45.97008" lon="4.58118">
        <ele>549.2</ele>
        <time>2022-06-26T05:51:54Z</time>
      </trkpt>
      <trkpt lat="45.97001" lon="4.5812">
        <ele>549</ele>
        <time>2022-06-26T05:51:55Z</time>
      </trkpt>
      <trkpt lat="45.96994" lon="4.58121">
        <ele>548.6</ele>
        <time>2022-06-26T05:51:56Z</time>
      </trkpt>
      <trkpt lat="45.96988" lon="4.58121">
        <ele>549</ele>
        <time>2022-06-26T05:51:57Z</time>
      </trkpt>
      <trkpt lat="45.96982" lon="4.58119">
        <ele>549</ele>
        <time>2022-06-26T05:51:58Z</time>
      </trkpt>
      <trkpt lat="45.96976" lon="4.58115">
        <ele>549.6</ele>
        <time>2022-06-26T05:51:59Z</time>
      </trkpt>
      <trkpt lat="45.9697" lon="4.58111">
        <ele>550.2</ele>
        <time>2022-06-26T05:52:00Z</time>
      </trkpt>
      <trkpt lat="45.96964" lon="4.58106">
        <ele>550.2</ele>
        <time>2022-06-26T05:52:01Z</time>
      </trkpt>
      <trkpt lat="45.96958" lon="4.581">
        <ele>550.2</ele>
        <time>2022-06-26T05:52:02Z</time>
      </trkpt>
      <trkpt lat="45.96952" lon="4.58094">
        <ele>550.2</ele>
        <time>2022-06-26T05:52:03Z</time>
      </trkpt>
      <trkpt lat="45.96946" lon="4.58087">
        <ele>550.6</ele>
        <time>2022-06-26T05:52:04Z</time>
      </trkpt>
      <trkpt lat="45.96941" lon="4.5808">
        <ele>550.6</ele>
        <time>2022-06-26T05:52:05Z</time>
      </trkpt>
      <trkpt lat="45.96935" lon="4.58074">
        <ele>550.8</ele>
        <time>2022-06-26T05:52:06Z</time>
      </trkpt>
      <trkpt lat="45.96929" lon="4.58068">
        <ele>550.8</ele>
        <time>2022-06-26T05:52:07Z</time>
      </trkpt>
      <trkpt lat="45.96923" lon="4.58062">
        <ele>550.8</ele>
        <time>2022-06-26T05:52:08Z</time>
      </trkpt>
      <trkpt lat="45.96916" lon="4.58055">
        <ele>550.8</ele>
        <time>2022-06-26T05:52:09Z</time>
      </trkpt>
      <trkpt lat="45.9691" lon="4.58048">
        <ele>550.8</ele>
        <time>2022-06-26T05:52:10Z</time>
      </trkpt>
      <trkpt lat="45.96903" lon="4.58043">
        <ele>550.6</ele>
        <time>2022-06-26T05:52:11Z</time>
      </trkpt>
      <trkpt lat="45.96896" lon="4.58037">
        <ele>550.6</ele>
        <time>2022-06-26T05:52:12Z</time>
      </trkpt>
      <trkpt lat="45.96889" lon="4.58032">
        <ele>550.6</ele>
        <time>2022-06-26T05:52:13Z</time>
      </trkpt>
      <trkpt lat="45.96882" lon="4.58027">
        <ele>550.4</ele>
        <time>2022-06-26T05:52:14Z</time>
      </trkpt>
      <trkpt lat="45.96874" lon="4.58023">
        <ele>550</ele>
        <time>2022-06-26T05:52:15Z</time>
      </trkpt>
      <trkpt lat="45.96867" lon="4.58019">
        <ele>550</ele>
        <time>2022-06-26T05:52:16Z</time>
      </trkpt>
      <trkpt lat="45.96859" lon="4.58017">
        <ele>549.6</ele>
        <time>2022-06-26T05:52:17Z</time>
      </trkpt>
      <trkpt lat="45.96852" lon="4.58016">
        <ele>549.2</ele>
        <time>2022-06-26T05:52:18Z</time>
      </trkpt>
      <trkpt lat="45.96844" lon="4.58017">
        <ele>548.6</ele>
        <time>2022-06-26T05:52:19Z</time>
      </trkpt>
      <trkpt lat="45.96837" lon="4.58018">
        <ele>548.6</ele>
        <time>2022-06-26T05:52:20Z</time>
      </trkpt>
      <trkpt lat="45.96829" lon="4.58021">
        <ele>548.6</ele>
        <time>2022-06-26T05:52:21Z</time>
      </trkpt>
      <trkpt lat="45.96822" lon="4.58026">
        <ele>548.6</ele>
        <time>2022-06-26T05:52:22Z</time>
      </trkpt>
      <trkpt lat="45.96815" lon="4.58031">
        <ele>548.2</ele>
        <time>2022-06-26T05:52:23Z</time>
      </trkpt>
      <trkpt lat="45.96808" lon="4.58038">
        <ele>548.2</ele>
        <time>2022-06-26T05:52:24Z</time>
      </trkpt>
      <trkpt lat="45.96802" lon="4.58045">
        <ele>547.8</ele>
        <time>2022-06-26T05:52:25Z</time>
      </trkpt>
      <trkpt lat="45.96796" lon="4.58053">
        <ele>547.8</ele>
        <time>2022-06-26T05:52:26Z</time>
      </trkpt>
      <trkpt lat="45.96791" lon="4.58061">
        <ele>547.6</ele>
        <time>2022-06-26T05:52:27Z</time>
      </trkpt>
      <trkpt lat="45.96786" lon="4.5807">
        <ele>547.6</ele>
        <time>2022-06-26T05:52:28Z</time>
      </trkpt>
      <trkpt lat="45.96781" lon="4.58079">
        <ele>547</ele>
        <time>2022-06-26T05:52:29Z</time>
      </trkpt>
      <trkpt lat="45.96776" lon="4.58089">
        <ele>546.8</ele>
        <time>2022-06-26T05:52:30Z</time>
      </trkpt>
      <trkpt lat="45.96772" lon="4.58098">
        <ele>546.4</ele>
        <time>2022-06-26T05:52:31Z</time>
      </trkpt>
      <trkpt lat="45.96767" lon="4.58107">
        <ele>546</ele>
        <time>2022-06-26T05:52:32Z</time>
      </trkpt>
      <trkpt lat="45.96763" lon="4.58116">
        <ele>545.8</ele>
        <time>2022-06-26T05:52:33Z</time>
      </trkpt>
      <trkpt lat="45.96758" lon="4.58125">
        <ele>545.8</ele>
        <time>2022-06-26T05:52:34Z</time>
      </trkpt>
      <trkpt lat="45.96753" lon="4.58134">
        <ele>545.6</ele>
        <time>2022-06-26T05:52:35Z</time>
      </trkpt>
      <trkpt lat="45.96749" lon="4.58143">
        <ele>545.4</ele>
        <time>2022-06-26T05:52:36Z</time>
      </trkpt>
      <trkpt lat="45.96744" lon="4.58152">
        <ele>545.4</ele>
        <time>2022-06-26T05:52:37Z</time>
      </trkpt>
      <trkpt lat="45.9674" lon="4.58161">
        <ele>545.4</ele>
        <time>2022-06-26T05:52:38Z</time>
      </trkpt>
      <trkpt lat="45.96735" lon="4.5817">
        <ele>545.4</ele>
        <time>2022-06-26T05:52:39Z</time>
      </trkpt>
      <trkpt lat="45.96731" lon="4.58179">
        <ele>545.4</ele>
        <time>2022-06-26T05:52:40Z</time>
      </trkpt>
      <trkpt lat="45.96727" lon="4.58189">
        <ele>545</ele>
        <time>2022-06-26T05:52:41Z</time>
      </trkpt>
      <trkpt lat="45.96724" lon="4.58199">
        <ele>544.6</ele>
        <time>2022-06-26T05:52:42Z</time>
      </trkpt>
      <trkpt lat="45.96722" lon="4.58209">
        <ele>544.6</ele>
        <time>2022-06-26T05:52:43Z</time>
      </trkpt>
      <trkpt lat="45.96721" lon="4.5822">
        <ele>544.6</ele>
        <time>2022-06-26T05:52:44Z</time>
      </trkpt>
      <trkpt lat="45.9672" lon="4.5823">
        <ele>544.2</ele>
        <time>2022-06-26T05:52:45Z</time>
      </trkpt>
      <trkpt lat="45.96719" lon="4.5824">
        <ele>543.6</ele>
        <time>2022-06-26T05:52:46Z</time>
      </trkpt>
      <trkpt lat="45.9672" lon="4.58249">
        <ele>543.6</ele>
        <time>2022-06-26T05:52:47Z</time>
      </trkpt>
      <trkpt lat="45.96721" lon="4.58258">
        <ele>543.8</ele>
        <time>2022-06-26T05:52:48Z</time>
      </trkpt>
      <trkpt lat="45.96723" lon="4.58267">
        <ele>543.6</ele>
        <time>2022-06-26T05:52:49Z</time>
      </trkpt>
      <trkpt lat="45.96725" lon="4.58277">
        <ele>543.4</ele>
        <time>2022-06-26T05:52:50Z</time>
      </trkpt>
      <trkpt lat="45.96728" lon="4.58286">
        <ele>543.4</ele>
        <time>2022-06-26T05:52:51Z</time>
      </trkpt>
      <trkpt lat="45.96731" lon="4.58295">
        <ele>543</ele>
        <time>2022-06-26T05:52:52Z</time>
      </trkpt>
      <trkpt lat="45.96734" lon="4.58303">
        <ele>542.6</ele>
        <time>2022-06-26T05:52:53Z</time>
      </trkpt>
      <trkpt lat="45.96737" lon="4.58312">
        <ele>542.6</ele>
        <time>2022-06-26T05:52:54Z</time>
      </trkpt>
      <trkpt lat="45.9674" lon="4.58321">
        <ele>543</ele>
        <time>2022-06-26T05:52:55Z</time>
      </trkpt>
      <trkpt lat="45.96742" lon="4.5833">
        <ele>543</ele>
        <time>2022-06-26T05:52:56Z</time>
      </trkpt>
      <trkpt lat="45.96744" lon="4.5834">
        <ele>542.8</ele>
        <time>2022-06-26T05:52:57Z</time>
      </trkpt>
      <trkpt lat="45.96746" lon="4.5835">
        <ele>542.8</ele>
        <time>2022-06-26T05:52:58Z</time>
      </trkpt>
      <trkpt lat="45.96748" lon="4.5836">
        <ele>542.4</ele>
        <time>2022-06-26T05:52:59Z</time>
      </trkpt>
      <trkpt lat="45.96749" lon="4.5837">
        <ele>542.4</ele>
        <time>2022-06-26T05:53:00Z</time>
      </trkpt>
      <trkpt lat="45.96751" lon="4.5838">
        <ele>542.2</ele>
        <time>2022-06-26T05:53:01Z</time>
      </trkpt>
      <trkpt lat="45.96752" lon="4.58389">
        <ele>542</ele>
        <time>2022-06-26T05:53:02Z</time>
      </trkpt>
      <trkpt lat="45.96754" lon="4.58399">
        <ele>542</ele>
        <time>2022-06-26T05:53:03Z</time>
      </trkpt>
      <trkpt lat="45.96755" lon="4.58409">
        <ele>542</ele>
        <time>2022-06-26T05:53:04Z</time>
      </trkpt>
      <trkpt lat="45.96755" lon="4.58419">
        <ele>542</ele>
        <time>2022-06-26T05:53:05Z</time>
      </trkpt>
      <trkpt lat="45.96755" lon="4.58428">
        <ele>542</ele>
        <time>2022-06-26T05:53:06Z</time>
      </trkpt>
      <trkpt lat="45.96755" lon="4.58438">
        <ele>542.4</ele>
        <time>2022-06-26T05:53:07Z</time>
      </trkpt>
      <trkpt lat="45.96754" lon="4.58448">
        <ele>542.4</ele>
        <time>2022-06-26T05:53:08Z</time>
      </trkpt>
      <trkpt lat="45.96753" lon="4.58456">
        <ele>542</ele>
        <time>2022-06-26T05:53:09Z</time>
      </trkpt>
      <trkpt lat="45.96752" lon="4.58465">
        <ele>542</ele>
        <time>2022-06-26T05:53:10Z</time>
      </trkpt>
      <trkpt lat="45.9675" lon="4.58473">
        <ele>541.6</ele>
        <time>2022-06-26T05:53:11Z</time>
      </trkpt>
      <trkpt lat="45.96749" lon="4.58482">
        <ele>541.2</ele>
        <time>2022-06-26T05:53:12Z</time>
      </trkpt>
      <trkpt lat="45.96746" lon="4.5849">
        <ele>541.2</ele>
        <time>2022-06-26T05:53:13Z</time>
      </trkpt>
      <trkpt lat="45.96744" lon="4.58498">
        <ele>540.8</ele>
        <time>2022-06-26T05:53:14Z</time>
      </trkpt>
      <trkpt lat="45.96742" lon="4.58506">
        <ele>540.8</ele>
        <time>2022-06-26T05:53:15Z</time>
      </trkpt>
      <trkpt lat="45.96739" lon="4.58513">
        <ele>540.8</ele>
        <time>2022-06-26T05:53:16Z</time>
      </trkpt>
      <trkpt lat="45.96736" lon="4.58521">
        <ele>540.4</ele>
        <time>2022-06-26T05:53:17Z</time>
      </trkpt>
      <trkpt lat="45.96732" lon="4.58527">
        <ele>540.4</ele>
        <time>2022-06-26T05:53:18Z</time>
      </trkpt>
      <trkpt lat="45.96727" lon="4.58533">
        <ele>540</ele>
        <time>2022-06-26T05:53:19Z</time>
      </trkpt>
      <trkpt lat="45.96722" lon="4.58537">
        <ele>540</ele>
        <time>2022-06-26T05:53:20Z</time>
      </trkpt>
      <trkpt lat="45.96716" lon="4.58539">
        <ele>540</ele>
        <time>2022-06-26T05:53:21Z</time>
      </trkpt>
      <trkpt lat="45.9671" lon="4.58541">
        <ele>539.6</ele>
        <time>2022-06-26T05:53:22Z</time>
      </trkpt>
      <trkpt lat="45.96704" lon="4.58542">
        <ele>539.6</ele>
        <time>2022-06-26T05:53:23Z</time>
      </trkpt>
      <trkpt lat="45.96697" lon="4.58542">
        <ele>539.6</ele>
        <time>2022-06-26T05:53:24Z</time>
      </trkpt>
      <trkpt lat="45.96691" lon="4.58542">
        <ele>539.6</ele>
        <time>2022-06-26T05:53:25Z</time>
      </trkpt>
      <trkpt lat="45.96685" lon="4.5854">
        <ele>539.6</ele>
        <time>2022-06-26T05:53:27Z</time>
      </trkpt>
      <trkpt lat="45.96679" lon="4.58538">
        <ele>539.6</ele>
        <time>2022-06-26T05:53:28Z</time>
      </trkpt>
      <trkpt lat="45.96674" lon="4.58535">
        <ele>539.6</ele>
        <time>2022-06-26T05:53:29Z</time>
      </trkpt>
      <trkpt lat="45.96668" lon="4.58532">
        <ele>539.6</ele>
        <time>2022-06-26T05:53:30Z</time>
      </trkpt>
      <trkpt lat="45.96663" lon="4.58528">
        <ele>539.6</ele>
        <time>2022-06-26T05:53:31Z</time>
      </trkpt>
      <trkpt lat="45.96658" lon="4.58523">
        <ele>539.6</ele>
        <time>2022-06-26T05:53:32Z</time>
      </trkpt>
      <trkpt lat="45.96653" lon="4.58517">
        <ele>539.6</ele>
        <time>2022-06-26T05:53:33Z</time>
      </trkpt>
      <trkpt lat="45.96649" lon="4.58511">
        <ele>539.6</ele>
        <time>2022-06-26T05:53:34Z</time>
      </trkpt>
      <trkpt lat="45.96644" lon="4.58506">
        <ele>539.6</ele>
        <time>2022-06-26T05:53:35Z</time>
      </trkpt>
      <trkpt lat="45.9664" lon="4.585">
        <ele>539.6</ele>
        <time>2022-06-26T05:53:36Z</time>
      </trkpt>
      <trkpt lat="45.96636" lon="4.58495">
        <ele>539.6</ele>
        <time>2022-06-26T05:53:37Z</time>
      </trkpt>
      <trkpt lat="45.96631" lon="4.5849">
        <ele>539.8</ele>
        <time>2022-06-26T05:53:38Z</time>
      </trkpt>
      <trkpt lat="45.96626" lon="4.58485">
        <ele>539.8</ele>
        <time>2022-06-26T05:53:39Z</time>
      </trkpt>
      <trkpt lat="45.96622" lon="4.5848">
        <ele>539.6</ele>
        <time>2022-06-26T05:53:40Z</time>
      </trkpt>
      <trkpt lat="45.96617" lon="4.58475">
        <ele>539.6</ele>
        <time>2022-06-26T05:53:41Z</time>
      </trkpt>
      <trkpt lat="45.96612" lon="4.58471">
        <ele>540.2</ele>
        <time>2022-06-26T05:53:42Z</time>
      </trkpt>
      <trkpt lat="45.96607" lon="4.58467">
        <ele>540.8</ele>
        <time>2022-06-26T05:53:43Z</time>
      </trkpt>
      <trkpt lat="45.96602" lon="4.58463">
        <ele>541.4</ele>
        <time>2022-06-26T05:53:44Z</time>
      </trkpt>
      <trkpt lat="45.96598" lon="4.5846">
        <ele>541.8</ele>
        <time>2022-06-26T05:53:45Z</time>
      </trkpt>
      <trkpt lat="45.96592" lon="4.58456">
        <ele>541.8</ele>
        <time>2022-06-26T05:53:46Z</time>
      </trkpt>
      <trkpt lat="45.96587" lon="4.58452">
        <ele>541.8</ele>
        <time>2022-06-26T05:53:47Z</time>
      </trkpt>
      <trkpt lat="45.96582" lon="4.58448">
        <ele>541.8</ele>
        <time>2022-06-26T05:53:48Z</time>
      </trkpt>
      <trkpt lat="45.96577" lon="4.58444">
        <ele>542.2</ele>
        <time>2022-06-26T05:53:49Z</time>
      </trkpt>
      <trkpt lat="45.96572" lon="4.58441">
        <ele>542.4</ele>
        <time>2022-06-26T05:53:50Z</time>
      </trkpt>
      <trkpt lat="45.96567" lon="4.58437">
        <ele>542.4</ele>
        <time>2022-06-26T05:53:51Z</time>
      </trkpt>
      <trkpt lat="45.96561" lon="4.58434">
        <ele>542.4</ele>
        <time>2022-06-26T05:53:52Z</time>
      </trkpt>
      <trkpt lat="45.96556" lon="4.5843">
        <ele>542.4</ele>
        <time>2022-06-26T05:53:53Z</time>
      </trkpt>
      <trkpt lat="45.96551" lon="4.58427">
        <ele>542.4</ele>
        <time>2022-06-26T05:53:54Z</time>
      </trkpt>
      <trkpt lat="45.96546" lon="4.58424">
        <ele>542.4</ele>
        <time>2022-06-26T05:53:55Z</time>
      </trkpt>
      <trkpt lat="45.96541" lon="4.58421">
        <ele>542.4</ele>
        <time>2022-06-26T05:53:56Z</time>
      </trkpt>
      <trkpt lat="45.96535" lon="4.58418">
        <ele>542.8</ele>
        <time>2022-06-26T05:53:57Z</time>
      </trkpt>
      <trkpt lat="45.9653" lon="4.58415">
        <ele>542.8</ele>
        <time>2022-06-26T05:53:58Z</time>
      </trkpt>
      <trkpt lat="45.96525" lon="4.58413">
        <ele>543</ele>
        <time>2022-06-26T05:53:59Z</time>
      </trkpt>
      <trkpt lat="45.96519" lon="4.5841">
        <ele>543</ele>
        <time>2022-06-26T05:54:00Z</time>
      </trkpt>
      <trkpt lat="45.96514" lon="4.58408">
        <ele>543</ele>
        <time>2022-06-26T05:54:01Z</time>
      </trkpt>
      <trkpt lat="45.96509" lon="4.58407">
        <ele>543</ele>
        <time>2022-06-26T05:54:02Z</time>
      </trkpt>
      <trkpt lat="45.96503" lon="4.58406">
        <ele>543.2</ele>
        <time>2022-06-26T05:54:03Z</time>
      </trkpt>
      <trkpt lat="45.96497" lon="4.58405">
        <ele>543.2</ele>
        <time>2022-06-26T05:54:04Z</time>
      </trkpt>
      <trkpt lat="45.96492" lon="4.58406">
        <ele>543.4</ele>
        <time>2022-06-26T05:54:05Z</time>
      </trkpt>
      <trkpt lat="45.96486" lon="4.58408">
        <ele>543.8</ele>
        <time>2022-06-26T05:54:06Z</time>
      </trkpt>
      <trkpt lat="45.9648" lon="4.5841">
        <ele>543.8</ele>
        <time>2022-06-26T05:54:07Z</time>
      </trkpt>
      <trkpt lat="45.96469" lon="4.58417">
        <ele>544.2</ele>
        <time>2022-06-26T05:54:08Z</time>
      </trkpt>
      <trkpt lat="45.96464" lon="4.58422">
        <ele>544.6</ele>
        <time>2022-06-26T05:54:09Z</time>
      </trkpt>
      <trkpt lat="45.96459" lon="4.58427">
        <ele>544.8</ele>
        <time>2022-06-26T05:54:10Z</time>
      </trkpt>
      <trkpt lat="45.96454" lon="4.58431">
        <ele>545.2</ele>
        <time>2022-06-26T05:54:11Z</time>
      </trkpt>
      <trkpt lat="45.96449" lon="4.58436">
        <ele>545.2</ele>
        <time>2022-06-26T05:54:12Z</time>
      </trkpt>
      <trkpt lat="45.96444" lon="4.58441">
        <ele>545.4</ele>
        <time>2022-06-26T05:54:13Z</time>
      </trkpt>
      <trkpt lat="45.96439" lon="4.58447">
        <ele>545.4</ele>
        <time>2022-06-26T05:54:14Z</time>
      </trkpt>
      <trkpt lat="45.96434" lon="4.58452">
        <ele>545.4</ele>
        <time>2022-06-26T05:54:15Z</time>
      </trkpt>
      <trkpt lat="45.96429" lon="4.58458">
        <ele>545.8</ele>
        <time>2022-06-26T05:54:16Z</time>
      </trkpt>
      <trkpt lat="45.96424" lon="4.58464">
        <ele>545.8</ele>
        <time>2022-06-26T05:54:17Z</time>
      </trkpt>
      <trkpt lat="45.9642" lon="4.5847">
        <ele>545.8</ele>
        <time>2022-06-26T05:54:18Z</time>
      </trkpt>
      <trkpt lat="45.96415" lon="4.58475">
        <ele>545.8</ele>
        <time>2022-06-26T05:54:19Z</time>
      </trkpt>
      <trkpt lat="45.9641" lon="4.58481">
        <ele>546.2</ele>
        <time>2022-06-26T05:54:20Z</time>
      </trkpt>
      <trkpt lat="45.96405" lon="4.58487">
        <ele>546.4</ele>
        <time>2022-06-26T05:54:21Z</time>
      </trkpt>
      <trkpt lat="45.964" lon="4.58493">
        <ele>546.4</ele>
        <time>2022-06-26T05:54:22Z</time>
      </trkpt>
      <trkpt lat="45.96395" lon="4.58499">
        <ele>546.8</ele>
        <time>2022-06-26T05:54:23Z</time>
      </trkpt>
      <trkpt lat="45.9639" lon="4.58505">
        <ele>547</ele>
        <time>2022-06-26T05:54:24Z</time>
      </trkpt>
      <trkpt lat="45.96385" lon="4.58511">
        <ele>547</ele>
        <time>2022-06-26T05:54:25Z</time>
      </trkpt>
      <trkpt lat="45.96379" lon="4.58516">
        <ele>547.2</ele>
        <time>2022-06-26T05:54:26Z</time>
      </trkpt>
      <trkpt lat="45.96374" lon="4.58522">
        <ele>547.4</ele>
        <time>2022-06-26T05:54:27Z</time>
      </trkpt>
      <trkpt lat="45.96368" lon="4.58527">
        <ele>546.4</ele>
        <time>2022-06-26T05:54:28Z</time>
      </trkpt>
      <trkpt lat="45.96362" lon="4.58531">
        <ele>545.2</ele>
        <time>2022-06-26T05:54:29Z</time>
      </trkpt>
      <trkpt lat="45.96356" lon="4.58535">
        <ele>544.2</ele>
        <time>2022-06-26T05:54:30Z</time>
      </trkpt>
      <trkpt lat="45.96349" lon="4.58538">
        <ele>543.2</ele>
        <time>2022-06-26T05:54:31Z</time>
      </trkpt>
      <trkpt lat="45.96343" lon="4.5854">
        <ele>542.4</ele>
        <time>2022-06-26T05:54:32Z</time>
      </trkpt>
      <trkpt lat="45.96336" lon="4.58542">
        <ele>542</ele>
        <time>2022-06-26T05:54:33Z</time>
      </trkpt>
      <trkpt lat="45.9633" lon="4.58542">
        <ele>541.4</ele>
        <time>2022-06-26T05:54:34Z</time>
      </trkpt>
      <trkpt lat="45.96323" lon="4.58542">
        <ele>541.2</ele>
        <time>2022-06-26T05:54:35Z</time>
      </trkpt>
      <trkpt lat="45.96317" lon="4.5854">
        <ele>541.2</ele>
        <time>2022-06-26T05:54:36Z</time>
      </trkpt>
      <trkpt lat="45.96311" lon="4.58538">
        <ele>540.6</ele>
        <time>2022-06-26T05:54:37Z</time>
      </trkpt>
      <trkpt lat="45.96305" lon="4.58536">
        <ele>540.4</ele>
        <time>2022-06-26T05:54:38Z</time>
      </trkpt>
      <trkpt lat="45.96299" lon="4.58533">
        <ele>540.4</ele>
        <time>2022-06-26T05:54:39Z</time>
      </trkpt>
      <trkpt lat="45.96293" lon="4.5853">
        <ele>540.2</ele>
        <time>2022-06-26T05:54:40Z</time>
      </trkpt>
      <trkpt lat="45.96287" lon="4.58527">
        <ele>540</ele>
        <time>2022-06-26T05:54:41Z</time>
      </trkpt>
      <trkpt lat="45.96282" lon="4.58524">
        <ele>539.6</ele>
        <time>2022-06-26T05:54:42Z</time>
      </trkpt>
      <trkpt lat="45.96276" lon="4.58521">
        <ele>539.4</ele>
        <time>2022-06-26T05:54:43Z</time>
      </trkpt>
      <trkpt lat="45.96271" lon="4.58518">
        <ele>539.4</ele>
        <time>2022-06-26T05:54:44Z</time>
      </trkpt>
      <trkpt lat="45.96266" lon="4.58515">
        <ele>539.4</ele>
        <time>2022-06-26T05:54:45Z</time>
      </trkpt>
      <trkpt lat="45.96261" lon="4.58513">
        <ele>539.2</ele>
        <time>2022-06-26T05:54:46Z</time>
      </trkpt>
      <trkpt lat="45.96255" lon="4.58511">
        <ele>539.2</ele>
        <time>2022-06-26T05:54:47Z</time>
      </trkpt>
      <trkpt lat="45.9625" lon="4.58509">
        <ele>539</ele>
        <time>2022-06-26T05:54:48Z</time>
      </trkpt>
      <trkpt lat="45.96244" lon="4.58507">
        <ele>539</ele>
        <time>2022-06-26T05:54:49Z</time>
      </trkpt>
      <trkpt lat="45.96239" lon="4.58507">
        <ele>539</ele>
        <time>2022-06-26T05:54:50Z</time>
      </trkpt>
      <trkpt lat="45.96233" lon="4.58507">
        <ele>539</ele>
        <time>2022-06-26T05:54:51Z</time>
      </trkpt>
      <trkpt lat="45.96227" lon="4.58508">
        <ele>539</ele>
        <time>2022-06-26T05:54:52Z</time>
      </trkpt>
      <trkpt lat="45.96222" lon="4.58509">
        <ele>539</ele>
        <time>2022-06-26T05:54:53Z</time>
      </trkpt>
      <trkpt lat="45.96216" lon="4.58511">
        <ele>539</ele>
        <time>2022-06-26T05:54:54Z</time>
      </trkpt>
      <trkpt lat="45.9621" lon="4.58514">
        <ele>539</ele>
        <time>2022-06-26T05:54:55Z</time>
      </trkpt>
      <trkpt lat="45.96204" lon="4.58517">
        <ele>539</ele>
        <time>2022-06-26T05:54:56Z</time>
      </trkpt>
      <trkpt lat="45.96199" lon="4.58521">
        <ele>538.6</ele>
        <time>2022-06-26T05:54:57Z</time>
      </trkpt>
      <trkpt lat="45.96193" lon="4.58526">
        <ele>538.6</ele>
        <time>2022-06-26T05:54:58Z</time>
      </trkpt>
      <trkpt lat="45.96188" lon="4.58531">
        <ele>538.6</ele>
        <time>2022-06-26T05:54:59Z</time>
      </trkpt>
      <trkpt lat="45.96182" lon="4.58537">
        <ele>538.6</ele>
        <time>2022-06-26T05:55:00Z</time>
      </trkpt>
      <trkpt lat="45.96177" lon="4.58543">
        <ele>538.6</ele>
        <time>2022-06-26T05:55:01Z</time>
      </trkpt>
      <trkpt lat="45.96171" lon="4.5855">
        <ele>538.6</ele>
        <time>2022-06-26T05:55:02Z</time>
      </trkpt>
      <trkpt lat="45.96166" lon="4.58556">
        <ele>538.6</ele>
        <time>2022-06-26T05:55:03Z</time>
      </trkpt>
      <trkpt lat="45.96161" lon="4.58563">
        <ele>538.6</ele>
        <time>2022-06-26T05:55:04Z</time>
      </trkpt>
      <trkpt lat="45.96157" lon="4.58571">
        <ele>538.6</ele>
        <time>2022-06-26T05:55:05Z</time>
      </trkpt>
      <trkpt lat="45.96152" lon="4.58578">
        <ele>538.4</ele>
        <time>2022-06-26T05:55:06Z</time>
      </trkpt>
      <trkpt lat="45.96147" lon="4.58585">
        <ele>537.8</ele>
        <time>2022-06-26T05:55:07Z</time>
      </trkpt>
      <trkpt lat="45.96142" lon="4.58592">
        <ele>537.4</ele>
        <time>2022-06-26T05:55:08Z</time>
      </trkpt>
      <trkpt lat="45.96137" lon="4.58598">
        <ele>537.4</ele>
        <time>2022-06-26T05:55:09Z</time>
      </trkpt>
      <trkpt lat="45.96132" lon="4.58604">
        <ele>537</ele>
        <time>2022-06-26T05:55:10Z</time>
      </trkpt>
      <trkpt lat="45.96127" lon="4.5861">
        <ele>537</ele>
        <time>2022-06-26T05:55:11Z</time>
      </trkpt>
      <trkpt lat="45.96121" lon="4.58615">
        <ele>537</ele>
        <time>2022-06-26T05:55:12Z</time>
      </trkpt>
      <trkpt lat="45.96116" lon="4.58619">
        <ele>537</ele>
        <time>2022-06-26T05:55:13Z</time>
      </trkpt>
      <trkpt lat="45.9611" lon="4.58623">
        <ele>536.6</ele>
        <time>2022-06-26T05:55:14Z</time>
      </trkpt>
      <trkpt lat="45.96104" lon="4.58626">
        <ele>536.4</ele>
        <time>2022-06-26T05:55:15Z</time>
      </trkpt>
      <trkpt lat="45.96098" lon="4.58628">
        <ele>536.6</ele>
        <time>2022-06-26T05:55:16Z</time>
      </trkpt>
      <trkpt lat="45.96092" lon="4.58629">
        <ele>536.6</ele>
        <time>2022-06-26T05:55:17Z</time>
      </trkpt>
      <trkpt lat="45.96086" lon="4.5863">
        <ele>536.6</ele>
        <time>2022-06-26T05:55:18Z</time>
      </trkpt>
      <trkpt lat="45.9608" lon="4.5863">
        <ele>536.6</ele>
        <time>2022-06-26T05:55:19Z</time>
      </trkpt>
      <trkpt lat="45.96074" lon="4.5863">
        <ele>536.6</ele>
        <time>2022-06-26T05:55:20Z</time>
      </trkpt>
      <trkpt lat="45.96069" lon="4.58629">
        <ele>536.4</ele>
        <time>2022-06-26T05:55:21Z</time>
      </trkpt>
      <trkpt lat="45.96063" lon="4.58628">
        <ele>536.4</ele>
        <time>2022-06-26T05:55:22Z</time>
      </trkpt>
      <trkpt lat="45.96057" lon="4.58626">
        <ele>536.4</ele>
        <time>2022-06-26T05:55:23Z</time>
      </trkpt>
      <trkpt lat="45.96051" lon="4.58624">
        <ele>536.4</ele>
        <time>2022-06-26T05:55:24Z</time>
      </trkpt>
      <trkpt lat="45.96046" lon="4.58621">
        <ele>536.6</ele>
        <time>2022-06-26T05:55:25Z</time>
      </trkpt>
      <trkpt lat="45.9604" lon="4.58618">
        <ele>536.6</ele>
        <time>2022-06-26T05:55:26Z</time>
      </trkpt>
      <trkpt lat="45.96035" lon="4.58615">
        <ele>536.6</ele>
        <time>2022-06-26T05:55:27Z</time>
      </trkpt>
      <trkpt lat="45.9603" lon="4.58611">
        <ele>536.6</ele>
        <time>2022-06-26T05:55:28Z</time>
      </trkpt>
      <trkpt lat="45.96024" lon="4.58607">
        <ele>536.8</ele>
        <time>2022-06-26T05:55:29Z</time>
      </trkpt>
      <trkpt lat="45.96019" lon="4.58604">
        <ele>536.8</ele>
        <time>2022-06-26T05:55:30Z</time>
      </trkpt>
      <trkpt lat="45.96014" lon="4.586">
        <ele>536.8</ele>
        <time>2022-06-26T05:55:31Z</time>
      </trkpt>
      <trkpt lat="45.96009" lon="4.58596">
        <ele>536.4</ele>
        <time>2022-06-26T05:55:32Z</time>
      </trkpt>
      <trkpt lat="45.96004" lon="4.58593">
        <ele>536.6</ele>
        <time>2022-06-26T05:55:33Z</time>
      </trkpt>
      <trkpt lat="45.95999" lon="4.58589">
        <ele>537</ele>
        <time>2022-06-26T05:55:34Z</time>
      </trkpt>
      <trkpt lat="45.95994" lon="4.58586">
        <ele>537.4</ele>
        <time>2022-06-26T05:55:35Z</time>
      </trkpt>
      <trkpt lat="45.95989" lon="4.58583">
        <ele>537.6</ele>
        <time>2022-06-26T05:55:36Z</time>
      </trkpt>
      <trkpt lat="45.95984" lon="4.5858">
        <ele>538</ele>
        <time>2022-06-26T05:55:37Z</time>
      </trkpt>
      <trkpt lat="45.95979" lon="4.58579">
        <ele>538.6</ele>
        <time>2022-06-26T05:55:38Z</time>
      </trkpt>
      <trkpt lat="45.95974" lon="4.58578">
        <ele>539.4</ele>
        <time>2022-06-26T05:55:39Z</time>
      </trkpt>
      <trkpt lat="45.95969" lon="4.58578">
        <ele>539.4</ele>
        <time>2022-06-26T05:55:40Z</time>
      </trkpt>
      <trkpt lat="45.95964" lon="4.58578">
        <ele>539.4</ele>
        <time>2022-06-26T05:55:41Z</time>
      </trkpt>
      <trkpt lat="45.95959" lon="4.58578">
        <ele>539.6</ele>
        <time>2022-06-26T05:55:42Z</time>
      </trkpt>
      <trkpt lat="45.95954" lon="4.5858">
        <ele>539.6</ele>
        <time>2022-06-26T05:55:43Z</time>
      </trkpt>
      <trkpt lat="45.95949" lon="4.58583">
        <ele>539.6</ele>
        <time>2022-06-26T05:55:44Z</time>
      </trkpt>
      <trkpt lat="45.95945" lon="4.58586">
        <ele>539.6</ele>
        <time>2022-06-26T05:55:45Z</time>
      </trkpt>
      <trkpt lat="45.9594" lon="4.58589">
        <ele>539.6</ele>
        <time>2022-06-26T05:55:46Z</time>
      </trkpt>
      <trkpt lat="45.95936" lon="4.58593">
        <ele>539.6</ele>
        <time>2022-06-26T05:55:47Z</time>
      </trkpt>
      <trkpt lat="45.95932" lon="4.58597">
        <ele>539.6</ele>
        <time>2022-06-26T05:55:48Z</time>
      </trkpt>
      <trkpt lat="45.95928" lon="4.58602">
        <ele>540</ele>
        <time>2022-06-26T05:55:49Z</time>
      </trkpt>
      <trkpt lat="45.95924" lon="4.58606">
        <ele>540</ele>
        <time>2022-06-26T05:55:50Z</time>
      </trkpt>
      <trkpt lat="45.95921" lon="4.58611">
        <ele>540.4</ele>
        <time>2022-06-26T05:55:51Z</time>
      </trkpt>
      <trkpt lat="45.95918" lon="4.58616">
        <ele>540.8</ele>
        <time>2022-06-26T05:55:52Z</time>
      </trkpt>
      <trkpt lat="45.95914" lon="4.58621">
        <ele>540.8</ele>
        <time>2022-06-26T05:55:53Z</time>
      </trkpt>
      <trkpt lat="45.95911" lon="4.58626">
        <ele>540.8</ele>
        <time>2022-06-26T05:55:54Z</time>
      </trkpt>
      <trkpt lat="45.95908" lon="4.58631">
        <ele>541</ele>
        <time>2022-06-26T05:55:55Z</time>
      </trkpt>
      <trkpt lat="45.95905" lon="4.58637">
        <ele>541.4</ele>
        <time>2022-06-26T05:55:56Z</time>
      </trkpt>
      <trkpt lat="45.95902" lon="4.58642">
        <ele>541.4</ele>
        <time>2022-06-26T05:55:57Z</time>
      </trkpt>
      <trkpt lat="45.95899" lon="4.58648">
        <ele>541.6</ele>
        <time>2022-06-26T05:55:58Z</time>
      </trkpt>
      <trkpt lat="45.95896" lon="4.58653">
        <ele>542</ele>
        <time>2022-06-26T05:55:59Z</time>
      </trkpt>
      <trkpt lat="45.95893" lon="4.58658">
        <ele>542.4</ele>
        <time>2022-06-26T05:56:00Z</time>
      </trkpt>
      <trkpt lat="45.9589" lon="4.58663">
        <ele>542.8</ele>
        <time>2022-06-26T05:56:01Z</time>
      </trkpt>
      <trkpt lat="45.95887" lon="4.58669">
        <ele>542.8</ele>
        <time>2022-06-26T05:56:02Z</time>
      </trkpt>
      <trkpt lat="45.95884" lon="4.58674">
        <ele>542.8</ele>
        <time>2022-06-26T05:56:03Z</time>
      </trkpt>
      <trkpt lat="45.95881" lon="4.5868">
        <ele>542.8</ele>
        <time>2022-06-26T05:56:04Z</time>
      </trkpt>
      <trkpt lat="45.95878" lon="4.58685">
        <ele>542.8</ele>
        <time>2022-06-26T05:56:05Z</time>
      </trkpt>
      <trkpt lat="45.95875" lon="4.5869">
        <ele>543</ele>
        <time>2022-06-26T05:56:06Z</time>
      </trkpt>
      <trkpt lat="45.95872" lon="4.58696">
        <ele>543.2</ele>
        <time>2022-06-26T05:56:07Z</time>
      </trkpt>
      <trkpt lat="45.95869" lon="4.58701">
        <ele>543.2</ele>
        <time>2022-06-26T05:56:08Z</time>
      </trkpt>
      <trkpt lat="45.95866" lon="4.58706">
        <ele>543.2</ele>
        <time>2022-06-26T05:56:09Z</time>
      </trkpt>
      <trkpt lat="45.95863" lon="4.58711">
        <ele>543.2</ele>
        <time>2022-06-26T05:56:10Z</time>
      </trkpt>
      <trkpt lat="45.95859" lon="4.58716">
        <ele>543.4</ele>
        <time>2022-06-26T05:56:11Z</time>
      </trkpt>
      <trkpt lat="45.95856" lon="4.58721">
        <ele>543.4</ele>
        <time>2022-06-26T05:56:12Z</time>
      </trkpt>
      <trkpt lat="45.95853" lon="4.58725">
        <ele>543.4</ele>
        <time>2022-06-26T05:56:13Z</time>
      </trkpt>
      <trkpt lat="45.95849" lon="4.58729">
        <ele>543.4</ele>
        <time>2022-06-26T05:56:14Z</time>
      </trkpt>
      <trkpt lat="45.95846" lon="4.58733">
        <ele>543.2</ele>
        <time>2022-06-26T05:56:15Z</time>
      </trkpt>
      <trkpt lat="45.95842" lon="4.58737">
        <ele>543.2</ele>
        <time>2022-06-26T05:56:16Z</time>
      </trkpt>
      <trkpt lat="45.95838" lon="4.58741">
        <ele>543.2</ele>
        <time>2022-06-26T05:56:17Z</time>
      </trkpt>
      <trkpt lat="45.95834" lon="4.58744">
        <ele>543</ele>
        <time>2022-06-26T05:56:18Z</time>
      </trkpt>
      <trkpt lat="45.9583" lon="4.58748">
        <ele>543</ele>
        <time>2022-06-26T05:56:19Z</time>
      </trkpt>
      <trkpt lat="45.95826" lon="4.58752">
        <ele>543</ele>
        <time>2022-06-26T05:56:20Z</time>
      </trkpt>
      <trkpt lat="45.95821" lon="4.58756">
        <ele>543</ele>
        <time>2022-06-26T05:56:21Z</time>
      </trkpt>
      <trkpt lat="45.95817" lon="4.5876">
        <ele>543</ele>
        <time>2022-06-26T05:56:22Z</time>
      </trkpt>
      <trkpt lat="45.95812" lon="4.58764">
        <ele>543</ele>
        <time>2022-06-26T05:56:23Z</time>
      </trkpt>
      <trkpt lat="45.95806" lon="4.58768">
        <ele>543.2</ele>
        <time>2022-06-26T05:56:24Z</time>
      </trkpt>
      <trkpt lat="45.95801" lon="4.58772">
        <ele>543.2</ele>
        <time>2022-06-26T05:56:25Z</time>
      </trkpt>
      <trkpt lat="45.95796" lon="4.58775">
        <ele>542.8</ele>
        <time>2022-06-26T05:56:26Z</time>
      </trkpt>
      <trkpt lat="45.9579" lon="4.58778">
        <ele>542.8</ele>
        <time>2022-06-26T05:56:27Z</time>
      </trkpt>
      <trkpt lat="45.95784" lon="4.58782">
        <ele>542.2</ele>
        <time>2022-06-26T05:56:28Z</time>
      </trkpt>
      <trkpt lat="45.95778" lon="4.58785">
        <ele>542.2</ele>
        <time>2022-06-26T05:56:29Z</time>
      </trkpt>
      <trkpt lat="45.95772" lon="4.58788">
        <ele>542.2</ele>
        <time>2022-06-26T05:56:30Z</time>
      </trkpt>
      <trkpt lat="45.95766" lon="4.58791">
        <ele>542</ele>
        <time>2022-06-26T05:56:31Z</time>
      </trkpt>
      <trkpt lat="45.9576" lon="4.58794">
        <ele>542</ele>
        <time>2022-06-26T05:56:32Z</time>
      </trkpt>
      <trkpt lat="45.95753" lon="4.58798">
        <ele>542</ele>
        <time>2022-06-26T05:56:33Z</time>
      </trkpt>
      <trkpt lat="45.95747" lon="4.58802">
        <ele>542</ele>
        <time>2022-06-26T05:56:34Z</time>
      </trkpt>
      <trkpt lat="45.95741" lon="4.58807">
        <ele>542</ele>
        <time>2022-06-26T05:56:35Z</time>
      </trkpt>
      <trkpt lat="45.95735" lon="4.58812">
        <ele>541.6</ele>
        <time>2022-06-26T05:56:36Z</time>
      </trkpt>
      <trkpt lat="45.95729" lon="4.58818">
        <ele>541.6</ele>
        <time>2022-06-26T05:56:37Z</time>
      </trkpt>
      <trkpt lat="45.95723" lon="4.58825">
        <ele>541.4</ele>
        <time>2022-06-26T05:56:38Z</time>
      </trkpt>
      <trkpt lat="45.95717" lon="4.58831">
        <ele>541.4</ele>
        <time>2022-06-26T05:56:39Z</time>
      </trkpt>
      <trkpt lat="45.9571" lon="4.58837">
        <ele>541.4</ele>
        <time>2022-06-26T05:56:40Z</time>
      </trkpt>
      <trkpt lat="45.95703" lon="4.58842">
        <ele>541.4</ele>
        <time>2022-06-26T05:56:41Z</time>
      </trkpt>
      <trkpt lat="45.95696" lon="4.58846">
        <ele>541.2</ele>
        <time>2022-06-26T05:56:42Z</time>
      </trkpt>
      <trkpt lat="45.95689" lon="4.58849">
        <ele>540.8</ele>
        <time>2022-06-26T05:56:43Z</time>
      </trkpt>
      <trkpt lat="45.95682" lon="4.58852">
        <ele>540.6</ele>
        <time>2022-06-26T05:56:44Z</time>
      </trkpt>
      <trkpt lat="45.95675" lon="4.58854">
        <ele>540.2</ele>
        <time>2022-06-26T05:56:45Z</time>
      </trkpt>
      <trkpt lat="45.95667" lon="4.58855">
        <ele>540</ele>
        <time>2022-06-26T05:56:46Z</time>
      </trkpt>
      <trkpt lat="45.9566" lon="4.58857">
        <ele>540</ele>
        <time>2022-06-26T05:56:47Z</time>
      </trkpt>
      <trkpt lat="45.95654" lon="4.58858">
        <ele>540</ele>
        <time>2022-06-26T05:56:48Z</time>
      </trkpt>
      <trkpt lat="45.95647" lon="4.58859">
        <ele>540</ele>
        <time>2022-06-26T05:56:49Z</time>
      </trkpt>
      <trkpt lat="45.9564" lon="4.58861">
        <ele>540</ele>
        <time>2022-06-26T05:56:50Z</time>
      </trkpt>
      <trkpt lat="45.95634" lon="4.58862">
        <ele>540.4</ele>
        <time>2022-06-26T05:56:51Z</time>
      </trkpt>
      <trkpt lat="45.95627" lon="4.58864">
        <ele>540.4</ele>
        <time>2022-06-26T05:56:52Z</time>
      </trkpt>
      <trkpt lat="45.95621" lon="4.58865">
        <ele>540.4</ele>
        <time>2022-06-26T05:56:53Z</time>
      </trkpt>
      <trkpt lat="45.95615" lon="4.58865">
        <ele>540.4</ele>
        <time>2022-06-26T05:56:54Z</time>
      </trkpt>
      <trkpt lat="45.95609" lon="4.58866">
        <ele>540.4</ele>
        <time>2022-06-26T05:56:55Z</time>
      </trkpt>
      <trkpt lat="45.95603" lon="4.58867">
        <ele>540.4</ele>
        <time>2022-06-26T05:56:56Z</time>
      </trkpt>
      <trkpt lat="45.95597" lon="4.58867">
        <ele>540.2</ele>
        <time>2022-06-26T05:56:57Z</time>
      </trkpt>
      <trkpt lat="45.95591" lon="4.58867">
        <ele>539.8</ele>
        <time>2022-06-26T05:56:58Z</time>
      </trkpt>
      <trkpt lat="45.95585" lon="4.58867">
        <ele>539.2</ele>
        <time>2022-06-26T05:57:00Z</time>
      </trkpt>
      <trkpt lat="45.95579" lon="4.58867">
        <ele>539</ele>
        <time>2022-06-26T05:57:01Z</time>
      </trkpt>
      <trkpt lat="45.95573" lon="4.58867">
        <ele>539</ele>
        <time>2022-06-26T05:57:02Z</time>
      </trkpt>
      <trkpt lat="45.95567" lon="4.58867">
        <ele>539</ele>
        <time>2022-06-26T05:57:03Z</time>
      </trkpt>
      <trkpt lat="45.95561" lon="4.58866">
        <ele>539</ele>
        <time>2022-06-26T05:57:04Z</time>
      </trkpt>
      <trkpt lat="45.95555" lon="4.58865">
        <ele>539</ele>
        <time>2022-06-26T05:57:05Z</time>
      </trkpt>
      <trkpt lat="45.9555" lon="4.58864">
        <ele>538.8</ele>
        <time>2022-06-26T05:57:06Z</time>
      </trkpt>
      <trkpt lat="45.95545" lon="4.58862">
        <ele>538.8</ele>
        <time>2022-06-26T05:57:07Z</time>
      </trkpt>
      <trkpt lat="45.9554" lon="4.5886">
        <ele>538.8</ele>
        <time>2022-06-26T05:57:08Z</time>
      </trkpt>
      <trkpt lat="45.95535" lon="4.58857">
        <ele>539.2</ele>
        <time>2022-06-26T05:57:09Z</time>
      </trkpt>
      <trkpt lat="45.95531" lon="4.58853">
        <ele>539.2</ele>
        <time>2022-06-26T05:57:10Z</time>
      </trkpt>
      <trkpt lat="45.95527" lon="4.58848">
        <ele>539.2</ele>
        <time>2022-06-26T05:57:11Z</time>
      </trkpt>
      <trkpt lat="45.95523" lon="4.58843">
        <ele>539.2</ele>
        <time>2022-06-26T05:57:12Z</time>
      </trkpt>
      <trkpt lat="45.95519" lon="4.58837">
        <ele>539.2</ele>
        <time>2022-06-26T05:57:13Z</time>
      </trkpt>
      <trkpt lat="45.95515" lon="4.58832">
        <ele>539.4</ele>
        <time>2022-06-26T05:57:14Z</time>
      </trkpt>
      <trkpt lat="45.95512" lon="4.58826">
        <ele>539.4</ele>
        <time>2022-06-26T05:57:15Z</time>
      </trkpt>
      <trkpt lat="45.95509" lon="4.5882">
        <ele>539.4</ele>
        <time>2022-06-26T05:57:16Z</time>
      </trkpt>
      <trkpt lat="45.95506" lon="4.58814">
        <ele>539.4</ele>
        <time>2022-06-26T05:57:17Z</time>
      </trkpt>
      <trkpt lat="45.95503" lon="4.58808">
        <ele>539.4</ele>
        <time>2022-06-26T05:57:18Z</time>
      </trkpt>
      <trkpt lat="45.955" lon="4.58802">
        <ele>539.4</ele>
        <time>2022-06-26T05:57:19Z</time>
      </trkpt>
      <trkpt lat="45.95498" lon="4.58795">
        <ele>539.8</ele>
        <time>2022-06-26T05:57:20Z</time>
      </trkpt>
      <trkpt lat="45.95495" lon="4.58789">
        <ele>539.8</ele>
        <time>2022-06-26T05:57:21Z</time>
      </trkpt>
      <trkpt lat="45.95493" lon="4.58782">
        <ele>540</ele>
        <time>2022-06-26T05:57:22Z</time>
      </trkpt>
      <trkpt lat="45.95492" lon="4.58775">
        <ele>540</ele>
        <time>2022-06-26T05:57:23Z</time>
      </trkpt>
      <trkpt lat="45.95491" lon="4.58768">
        <ele>540</ele>
        <time>2022-06-26T05:57:24Z</time>
      </trkpt>
      <trkpt lat="45.95491" lon="4.5876">
        <ele>540</ele>
        <time>2022-06-26T05:57:25Z</time>
      </trkpt>
      <trkpt lat="45.95492" lon="4.58752">
        <ele>539.6</ele>
        <time>2022-06-26T05:57:26Z</time>
      </trkpt>
      <trkpt lat="45.95493" lon="4.58745">
        <ele>539.6</ele>
        <time>2022-06-26T05:57:27Z</time>
      </trkpt>
      <trkpt lat="45.95494" lon="4.58738">
        <ele>539.6</ele>
        <time>2022-06-26T05:57:28Z</time>
      </trkpt>
      <trkpt lat="45.95494" lon="4.58731">
        <ele>539.6</ele>
        <time>2022-06-26T05:57:29Z</time>
      </trkpt>
      <trkpt lat="45.95494" lon="4.58725">
        <ele>539.6</ele>
        <time>2022-06-26T05:57:30Z</time>
      </trkpt>
      <trkpt lat="45.95494" lon="4.58718">
        <ele>539.6</ele>
        <time>2022-06-26T05:57:31Z</time>
      </trkpt>
      <trkpt lat="45.95494" lon="4.58711">
        <ele>539.6</ele>
        <time>2022-06-26T05:57:32Z</time>
      </trkpt>
      <trkpt lat="45.95494" lon="4.58704">
        <ele>540</ele>
        <time>2022-06-26T05:57:33Z</time>
      </trkpt>
      <trkpt lat="45.95493" lon="4.58696">
        <ele>540.2</ele>
        <time>2022-06-26T05:57:34Z</time>
      </trkpt>
      <trkpt lat="45.95493" lon="4.58689">
        <ele>540.2</ele>
        <time>2022-06-26T05:57:35Z</time>
      </trkpt>
      <trkpt lat="45.95492" lon="4.58682">
        <ele>540.2</ele>
        <time>2022-06-26T05:57:36Z</time>
      </trkpt>
      <trkpt lat="45.95491" lon="4.58675">
        <ele>540.2</ele>
        <time>2022-06-26T05:57:37Z</time>
      </trkpt>
      <trkpt lat="45.9549" lon="4.58667">
        <ele>540.2</ele>
        <time>2022-06-26T05:57:38Z</time>
      </trkpt>
      <trkpt lat="45.95489" lon="4.5866">
        <ele>540.2</ele>
        <time>2022-06-26T05:57:39Z</time>
      </trkpt>
      <trkpt lat="45.95488" lon="4.58653">
        <ele>540.2</ele>
        <time>2022-06-26T05:57:40Z</time>
      </trkpt>
      <trkpt lat="45.95487" lon="4.58646">
        <ele>540.2</ele>
        <time>2022-06-26T05:57:41Z</time>
      </trkpt>
      <trkpt lat="45.95486" lon="4.5864">
        <ele>540.2</ele>
        <time>2022-06-26T05:57:42Z</time>
      </trkpt>
      <trkpt lat="45.95485" lon="4.58633">
        <ele>540.4</ele>
        <time>2022-06-26T05:57:43Z</time>
      </trkpt>
      <trkpt lat="45.95483" lon="4.58625">
        <ele>540.4</ele>
        <time>2022-06-26T05:57:44Z</time>
      </trkpt>
      <trkpt lat="45.95482" lon="4.58618">
        <ele>540.8</ele>
        <time>2022-06-26T05:57:45Z</time>
      </trkpt>
      <trkpt lat="45.95481" lon="4.58611">
        <ele>540.8</ele>
        <time>2022-06-26T05:57:46Z</time>
      </trkpt>
      <trkpt lat="45.95479" lon="4.58604">
        <ele>540.8</ele>
        <time>2022-06-26T05:57:47Z</time>
      </trkpt>
      <trkpt lat="45.95477" lon="4.58597">
        <ele>541</ele>
        <time>2022-06-26T05:57:48Z</time>
      </trkpt>
      <trkpt lat="45.95476" lon="4.5859">
        <ele>541</ele>
        <time>2022-06-26T05:57:49Z</time>
      </trkpt>
      <trkpt lat="45.95474" lon="4.58583">
        <ele>541</ele>
        <time>2022-06-26T05:57:50Z</time>
      </trkpt>
      <trkpt lat="45.95471" lon="4.58576">
        <ele>540.6</ele>
        <time>2022-06-26T05:57:51Z</time>
      </trkpt>
      <trkpt lat="45.95469" lon="4.58569">
        <ele>540.6</ele>
        <time>2022-06-26T05:57:52Z</time>
      </trkpt>
      <trkpt lat="45.95466" lon="4.58562">
        <ele>540.6</ele>
        <time>2022-06-26T05:57:53Z</time>
      </trkpt>
      <trkpt lat="45.95463" lon="4.58555">
        <ele>541</ele>
        <time>2022-06-26T05:57:54Z</time>
      </trkpt>
      <trkpt lat="45.9546" lon="4.58549">
        <ele>541</ele>
        <time>2022-06-26T05:57:55Z</time>
      </trkpt>
      <trkpt lat="45.95457" lon="4.58542">
        <ele>541</ele>
        <time>2022-06-26T05:57:56Z</time>
      </trkpt>
      <trkpt lat="45.95454" lon="4.58536">
        <ele>540.8</ele>
        <time>2022-06-26T05:57:57Z</time>
      </trkpt>
      <trkpt lat="45.95451" lon="4.58529">
        <ele>540.8</ele>
        <time>2022-06-26T05:57:58Z</time>
      </trkpt>
      <trkpt lat="45.95447" lon="4.58523">
        <ele>540.8</ele>
        <time>2022-06-26T05:57:59Z</time>
      </trkpt>
      <trkpt lat="45.95443" lon="4.58518">
        <ele>540.8</ele>
        <time>2022-06-26T05:58:00Z</time>
      </trkpt>
      <trkpt lat="45.95439" lon="4.58512">
        <ele>540.6</ele>
        <time>2022-06-26T05:58:01Z</time>
      </trkpt>
      <trkpt lat="45.95434" lon="4.58507">
        <ele>540.6</ele>
        <time>2022-06-26T05:58:02Z</time>
      </trkpt>
      <trkpt lat="45.9543" lon="4.58501">
        <ele>540.6</ele>
        <time>2022-06-26T05:58:03Z</time>
      </trkpt>
      <trkpt lat="45.95426" lon="4.58496">
        <ele>540.6</ele>
        <time>2022-06-26T05:58:04Z</time>
      </trkpt>
      <trkpt lat="45.95421" lon="4.58491">
        <ele>540.6</ele>
        <time>2022-06-26T05:58:05Z</time>
      </trkpt>
      <trkpt lat="45.95417" lon="4.58486">
        <ele>540.6</ele>
        <time>2022-06-26T05:58:06Z</time>
      </trkpt>
      <trkpt lat="45.95412" lon="4.58481">
        <ele>540.6</ele>
        <time>2022-06-26T05:58:07Z</time>
      </trkpt>
      <trkpt lat="45.95408" lon="4.58476">
        <ele>540.6</ele>
        <time>2022-06-26T05:58:08Z</time>
      </trkpt>
      <trkpt lat="45.95404" lon="4.5847">
        <ele>540.8</ele>
        <time>2022-06-26T05:58:09Z</time>
      </trkpt>
      <trkpt lat="45.95399" lon="4.58465">
        <ele>540.8</ele>
        <time>2022-06-26T05:58:10Z</time>
      </trkpt>
      <trkpt lat="45.95395" lon="4.58461">
        <ele>540.8</ele>
        <time>2022-06-26T05:58:11Z</time>
      </trkpt>
      <trkpt lat="45.95391" lon="4.58456">
        <ele>540.8</ele>
        <time>2022-06-26T05:58:12Z</time>
      </trkpt>
      <trkpt lat="45.95387" lon="4.58451">
        <ele>540.4</ele>
        <time>2022-06-26T05:58:13Z</time>
      </trkpt>
      <trkpt lat="45.95383" lon="4.58446">
        <ele>540.4</ele>
        <time>2022-06-26T05:58:14Z</time>
      </trkpt>
      <trkpt lat="45.95378" lon="4.58441">
        <ele>540.4</ele>
        <time>2022-06-26T05:58:15Z</time>
      </trkpt>
      <trkpt lat="45.95374" lon="4.58436">
        <ele>540.4</ele>
        <time>2022-06-26T05:58:16Z</time>
      </trkpt>
      <trkpt lat="45.9537" lon="4.58432">
        <ele>540.4</ele>
        <time>2022-06-26T05:58:17Z</time>
      </trkpt>
      <trkpt lat="45.95365" lon="4.58427">
        <ele>540.4</ele>
        <time>2022-06-26T05:58:18Z</time>
      </trkpt>
      <trkpt lat="45.95361" lon="4.58422">
        <ele>540.4</ele>
        <time>2022-06-26T05:58:19Z</time>
      </trkpt>
      <trkpt lat="45.95356" lon="4.58418">
        <ele>540.4</ele>
        <time>2022-06-26T05:58:20Z</time>
      </trkpt>
      <trkpt lat="45.95352" lon="4.58413">
        <ele>540.4</ele>
        <time>2022-06-26T05:58:21Z</time>
      </trkpt>
      <trkpt lat="45.95347" lon="4.58409">
        <ele>540.4</ele>
        <time>2022-06-26T05:58:22Z</time>
      </trkpt>
      <trkpt lat="45.95343" lon="4.58404">
        <ele>540.4</ele>
        <time>2022-06-26T05:58:23Z</time>
      </trkpt>
      <trkpt lat="45.95338" lon="4.584">
        <ele>540.8</ele>
        <time>2022-06-26T05:58:24Z</time>
      </trkpt>
      <trkpt lat="45.95334" lon="4.58395">
        <ele>540.8</ele>
        <time>2022-06-26T05:58:25Z</time>
      </trkpt>
      <trkpt lat="45.95329" lon="4.5839">
        <ele>541</ele>
        <time>2022-06-26T05:58:26Z</time>
      </trkpt>
      <trkpt lat="45.95324" lon="4.58386">
        <ele>541</ele>
        <time>2022-06-26T05:58:27Z</time>
      </trkpt>
      <trkpt lat="45.9532" lon="4.58381">
        <ele>541</ele>
        <time>2022-06-26T05:58:28Z</time>
      </trkpt>
      <trkpt lat="45.95315" lon="4.58377">
        <ele>541</ele>
        <time>2022-06-26T05:58:29Z</time>
      </trkpt>
      <trkpt lat="45.9531" lon="4.58373">
        <ele>541</ele>
        <time>2022-06-26T05:58:30Z</time>
      </trkpt>
      <trkpt lat="45.95305" lon="4.58369">
        <ele>541</ele>
        <time>2022-06-26T05:58:31Z</time>
      </trkpt>
      <trkpt lat="45.953" lon="4.58365">
        <ele>541</ele>
        <time>2022-06-26T05:58:32Z</time>
      </trkpt>
      <trkpt lat="45.95295" lon="4.58362">
        <ele>541</ele>
        <time>2022-06-26T05:58:33Z</time>
      </trkpt>
      <trkpt lat="45.95289" lon="4.58359">
        <ele>541.4</ele>
        <time>2022-06-26T05:58:34Z</time>
      </trkpt>
      <trkpt lat="45.95284" lon="4.58356">
        <ele>541.4</ele>
        <time>2022-06-26T05:58:35Z</time>
      </trkpt>
      <trkpt lat="45.95279" lon="4.58353">
        <ele>541.4</ele>
        <time>2022-06-26T05:58:36Z</time>
      </trkpt>
      <trkpt lat="45.95273" lon="4.5835">
        <ele>541.4</ele>
        <time>2022-06-26T05:58:37Z</time>
      </trkpt>
      <trkpt lat="45.95268" lon="4.58347">
        <ele>541.4</ele>
        <time>2022-06-26T05:58:38Z</time>
      </trkpt>
      <trkpt lat="45.95262" lon="4.58345">
        <ele>541.4</ele>
        <time>2022-06-26T05:58:39Z</time>
      </trkpt>
      <trkpt lat="45.95257" lon="4.58342">
        <ele>541.4</ele>
        <time>2022-06-26T05:58:40Z</time>
      </trkpt>
      <trkpt lat="45.95251" lon="4.5834">
        <ele>540</ele>
        <time>2022-06-26T05:58:41Z</time>
      </trkpt>
      <trkpt lat="45.95246" lon="4.58338">
        <ele>539.6</ele>
        <time>2022-06-26T05:58:42Z</time>
      </trkpt>
      <trkpt lat="45.95241" lon="4.58337">
        <ele>539.6</ele>
        <time>2022-06-26T05:58:43Z</time>
      </trkpt>
      <trkpt lat="45.95235" lon="4.58334">
        <ele>539.6</ele>
        <time>2022-06-26T05:58:44Z</time>
      </trkpt>
      <trkpt lat="45.9523" lon="4.58332">
        <ele>540.2</ele>
        <time>2022-06-26T05:58:45Z</time>
      </trkpt>
      <trkpt lat="45.95224" lon="4.5833">
        <ele>540.6</ele>
        <time>2022-06-26T05:58:46Z</time>
      </trkpt>
      <trkpt lat="45.95213" lon="4.58327">
        <ele>541.4</ele>
        <time>2022-06-26T05:58:47Z</time>
      </trkpt>
      <trkpt lat="45.95207" lon="4.58325">
        <ele>541.6</ele>
        <time>2022-06-26T05:58:49Z</time>
      </trkpt>
      <trkpt lat="45.95202" lon="4.58324">
        <ele>542</ele>
        <time>2022-06-26T05:58:50Z</time>
      </trkpt>
      <trkpt lat="45.95196" lon="4.58323">
        <ele>542.4</ele>
        <time>2022-06-26T05:58:51Z</time>
      </trkpt>
      <trkpt lat="45.9519" lon="4.58321">
        <ele>542.4</ele>
        <time>2022-06-26T05:58:52Z</time>
      </trkpt>
      <trkpt lat="45.95185" lon="4.58321">
        <ele>542.8</ele>
        <time>2022-06-26T05:58:53Z</time>
      </trkpt>
      <trkpt lat="45.95179" lon="4.5832">
        <ele>543</ele>
        <time>2022-06-26T05:58:54Z</time>
      </trkpt>
      <trkpt lat="45.95173" lon="4.58319">
        <ele>543.4</ele>
        <time>2022-06-26T05:58:55Z</time>
      </trkpt>
      <trkpt lat="45.95167" lon="4.58318">
        <ele>543.4</ele>
        <time>2022-06-26T05:58:56Z</time>
      </trkpt>
      <trkpt lat="45.95162" lon="4.58317">
        <ele>543.8</ele>
        <time>2022-06-26T05:58:57Z</time>
      </trkpt>
      <trkpt lat="45.95156" lon="4.58316">
        <ele>543.8</ele>
        <time>2022-06-26T05:58:58Z</time>
      </trkpt>
      <trkpt lat="45.9515" lon="4.58315">
        <ele>543.8</ele>
        <time>2022-06-26T05:58:59Z</time>
      </trkpt>
      <trkpt lat="45.95145" lon="4.58315">
        <ele>544</ele>
        <time>2022-06-26T05:59:00Z</time>
      </trkpt>
      <trkpt lat="45.95139" lon="4.58314">
        <ele>544</ele>
        <time>2022-06-26T05:59:01Z</time>
      </trkpt>
      <trkpt lat="45.95133" lon="4.58314">
        <ele>544</ele>
        <time>2022-06-26T05:59:02Z</time>
      </trkpt>
      <trkpt lat="45.95128" lon="4.58313">
        <ele>544</ele>
        <time>2022-06-26T05:59:03Z</time>
      </trkpt>
      <trkpt lat="45.95122" lon="4.58313">
        <ele>544</ele>
        <time>2022-06-26T05:59:04Z</time>
      </trkpt>
      <trkpt lat="45.95117" lon="4.58313">
        <ele>544.4</ele>
        <time>2022-06-26T05:59:05Z</time>
      </trkpt>
      <trkpt lat="45.95111" lon="4.58312">
        <ele>544.4</ele>
        <time>2022-06-26T05:59:06Z</time>
      </trkpt>
      <trkpt lat="45.95106" lon="4.58311">
        <ele>544.6</ele>
        <time>2022-06-26T05:59:07Z</time>
      </trkpt>
      <trkpt lat="45.951" lon="4.58311">
        <ele>544.8</ele>
        <time>2022-06-26T05:59:08Z</time>
      </trkpt>
      <trkpt lat="45.95095" lon="4.5831">
        <ele>544.8</ele>
        <time>2022-06-26T05:59:09Z</time>
      </trkpt>
      <trkpt lat="45.9509" lon="4.58309">
        <ele>544.8</ele>
        <time>2022-06-26T05:59:10Z</time>
      </trkpt>
      <trkpt lat="45.95084" lon="4.58309">
        <ele>544.8</ele>
        <time>2022-06-26T05:59:11Z</time>
      </trkpt>
      <trkpt lat="45.95079" lon="4.58308">
        <ele>544.8</ele>
        <time>2022-06-26T05:59:12Z</time>
      </trkpt>
      <trkpt lat="45.95074" lon="4.58308">
        <ele>545.2</ele>
        <time>2022-06-26T05:59:13Z</time>
      </trkpt>
      <trkpt lat="45.95069" lon="4.58307">
        <ele>545.4</ele>
        <time>2022-06-26T05:59:14Z</time>
      </trkpt>
      <trkpt lat="45.95064" lon="4.58306">
        <ele>545.4</ele>
        <time>2022-06-26T05:59:15Z</time>
      </trkpt>
      <trkpt lat="45.95059" lon="4.58305">
        <ele>545</ele>
        <time>2022-06-26T05:59:16Z</time>
      </trkpt>
      <trkpt lat="45.95054" lon="4.58305">
        <ele>544.4</ele>
        <time>2022-06-26T05:59:17Z</time>
      </trkpt>
      <trkpt lat="45.95049" lon="4.58304">
        <ele>543.8</ele>
        <time>2022-06-26T05:59:18Z</time>
      </trkpt>
      <trkpt lat="45.95044" lon="4.58304">
        <ele>544</ele>
        <time>2022-06-26T05:59:19Z</time>
      </trkpt>
      <trkpt lat="45.95039" lon="4.58304">
        <ele>544</ele>
        <time>2022-06-26T05:59:20Z</time>
      </trkpt>
      <trkpt lat="45.95035" lon="4.58303">
        <ele>544</ele>
        <time>2022-06-26T05:59:21Z</time>
      </trkpt>
      <trkpt lat="45.95031" lon="4.58302">
        <ele>544</ele>
        <time>2022-06-26T05:59:22Z</time>
      </trkpt>
      <trkpt lat="45.95027" lon="4.58302">
        <ele>543.8</ele>
        <time>2022-06-26T05:59:23Z</time>
      </trkpt>
      <trkpt lat="45.95023" lon="4.58302">
        <ele>543.4</ele>
        <time>2022-06-26T05:59:24Z</time>
      </trkpt>
      <trkpt lat="45.95018" lon="4.58301">
        <ele>543</ele>
        <time>2022-06-26T05:59:25Z</time>
      </trkpt>
      <trkpt lat="45.95016" lon="4.58302">
        <ele>543.2</ele>
        <time>2022-06-26T05:59:26Z</time>
      </trkpt>
      <trkpt lat="45.95014" lon="4.58302">
        <ele>549.4</ele>
        <time>2022-06-26T06:00:30Z</time>
      </trkpt>
      <trkpt lat="45.95011" lon="4.58302">
        <ele>549.4</ele>
        <time>2022-06-26T06:00:31Z</time>
      </trkpt>
      <trkpt lat="45.95009" lon="4.58302">
        <ele>549.4</ele>
        <time>2022-06-26T06:00:32Z</time>
      </trkpt>
      <trkpt lat="45.95006" lon="4.58301">
        <ele>549.4</ele>
        <time>2022-06-26T06:00:33Z</time>
      </trkpt>
      <trkpt lat="45.95003" lon="4.583">
        <ele>549.4</ele>
        <time>2022-06-26T06:00:34Z</time>
      </trkpt>
      <trkpt lat="45.95" lon="4.58299">
        <ele>549.4</ele>
        <time>2022-06-26T06:00:35Z</time>
      </trkpt>
      <trkpt lat="45.94997" lon="4.58299">
        <ele>549</ele>
        <time>2022-06-26T06:00:36Z</time>
      </trkpt>
      <trkpt lat="45.94994" lon="4.58299">
        <ele>549</ele>
        <time>2022-06-26T06:00:37Z</time>
      </trkpt>
      <trkpt lat="45.9499" lon="4.58299">
        <ele>548.8</ele>
        <time>2022-06-26T06:00:38Z</time>
      </trkpt>
      <trkpt lat="45.94987" lon="4.58299">
        <ele>548.8</ele>
        <time>2022-06-26T06:00:39Z</time>
      </trkpt>
      <trkpt lat="45.94984" lon="4.58299">
        <ele>548.2</ele>
        <time>2022-06-26T06:00:40Z</time>
      </trkpt>
      <trkpt lat="45.9498" lon="4.58299">
        <ele>548.2</ele>
        <time>2022-06-26T06:00:41Z</time>
      </trkpt>
      <trkpt lat="45.94976" lon="4.583">
        <ele>548.2</ele>
        <time>2022-06-26T06:00:42Z</time>
      </trkpt>
      <trkpt lat="45.94973" lon="4.583">
        <ele>547.8</ele>
        <time>2022-06-26T06:00:43Z</time>
      </trkpt>
      <trkpt lat="45.94969" lon="4.58301">
        <ele>547.6</ele>
        <time>2022-06-26T06:00:44Z</time>
      </trkpt>
      <trkpt lat="45.94965" lon="4.58302">
        <ele>547.2</ele>
        <time>2022-06-26T06:00:45Z</time>
      </trkpt>
      <trkpt lat="45.94961" lon="4.58303">
        <ele>546.8</ele>
        <time>2022-06-26T06:00:46Z</time>
      </trkpt>
      <trkpt lat="45.94957" lon="4.58304">
        <ele>546.8</ele>
        <time>2022-06-26T06:00:47Z</time>
      </trkpt>
      <trkpt lat="45.94953" lon="4.58306">
        <ele>546.6</ele>
        <time>2022-06-26T06:00:48Z</time>
      </trkpt>
      <trkpt lat="45.94949" lon="4.58307">
        <ele>546.6</ele>
        <time>2022-06-26T06:00:49Z</time>
      </trkpt>
      <trkpt lat="45.94945" lon="4.58309">
        <ele>546.6</ele>
        <time>2022-06-26T06:00:50Z</time>
      </trkpt>
      <trkpt lat="45.94941" lon="4.5831">
        <ele>546.6</ele>
        <time>2022-06-26T06:00:51Z</time>
      </trkpt>
      <trkpt lat="45.94937" lon="4.58313">
        <ele>547</ele>
        <time>2022-06-26T06:00:52Z</time>
      </trkpt>
      <trkpt lat="45.94933" lon="4.58315">
        <ele>547</ele>
        <time>2022-06-26T06:00:53Z</time>
      </trkpt>
      <trkpt lat="45.9493" lon="4.58318">
        <ele>547</ele>
        <time>2022-06-26T06:00:54Z</time>
      </trkpt>
      <trkpt lat="45.94926" lon="4.5832">
        <ele>547.2</ele>
        <time>2022-06-26T06:00:55Z</time>
      </trkpt>
      <trkpt lat="45.94923" lon="4.58322">
        <ele>547.2</ele>
        <time>2022-06-26T06:00:56Z</time>
      </trkpt>
      <trkpt lat="45.94919" lon="4.58324">
        <ele>547.4</ele>
        <time>2022-06-26T06:00:57Z</time>
      </trkpt>
      <trkpt lat="45.94917" lon="4.58326">
        <ele>547.4</ele>
        <time>2022-06-26T06:00:58Z</time>
      </trkpt>
      <trkpt lat="45.94914" lon="4.58328">
        <ele>547.8</ele>
        <time>2022-06-26T06:00:59Z</time>
      </trkpt>
      <trkpt lat="45.94912" lon="4.58329">
        <ele>547.8</ele>
        <time>2022-06-26T06:01:00Z</time>
      </trkpt>
      <trkpt lat="45.94909" lon="4.5833">
        <ele>548</ele>
        <time>2022-06-26T06:01:01Z</time>
      </trkpt>
      <trkpt lat="45.94908" lon="4.58331">
        <ele>548</ele>
        <time>2022-06-26T06:01:02Z</time>
      </trkpt>
      <trkpt lat="45.94906" lon="4.58332">
        <ele>548</ele>
        <time>2022-06-26T06:01:03Z</time>
      </trkpt>
      <trkpt lat="45.94904" lon="4.58332">
        <ele>548</ele>
        <time>2022-06-26T06:01:04Z</time>
      </trkpt>
      <trkpt lat="45.94902" lon="4.58332">
        <ele>548</ele>
        <time>2022-06-26T06:01:05Z</time>
      </trkpt>
      <trkpt lat="45.94901" lon="4.58331">
        <ele>548</ele>
        <time>2022-06-26T06:01:06Z</time>
      </trkpt>
      <trkpt lat="45.94899" lon="4.58329">
        <ele>548</ele>
        <time>2022-06-26T06:01:07Z</time>
      </trkpt>
      <trkpt lat="45.94898" lon="4.58326">
        <ele>548</ele>
        <time>2022-06-26T06:01:08Z</time>
      </trkpt>
      <trkpt lat="45.94898" lon="4.58323">
        <ele>548</ele>
        <time>2022-06-26T06:01:09Z</time>
      </trkpt>
      <trkpt lat="45.94897" lon="4.58319">
        <ele>548</ele>
        <time>2022-06-26T06:01:10Z</time>
      </trkpt>
      <trkpt lat="45.94897" lon="4.58315">
        <ele>548.2</ele>
        <time>2022-06-26T06:01:11Z</time>
      </trkpt>
      <trkpt lat="45.94896" lon="4.58311">
        <ele>548.2</ele>
        <time>2022-06-26T06:01:12Z</time>
      </trkpt>
      <trkpt lat="45.94894" lon="4.58307">
        <ele>548</ele>
        <time>2022-06-26T06:01:13Z</time>
      </trkpt>
      <trkpt lat="45.94892" lon="4.58305">
        <ele>548</ele>
        <time>2022-06-26T06:01:14Z</time>
      </trkpt>
      <trkpt lat="45.9489" lon="4.58303">
        <ele>547.8</ele>
        <time>2022-06-26T06:01:15Z</time>
      </trkpt>
      <trkpt lat="45.94888" lon="4.58302">
        <ele>547.8</ele>
        <time>2022-06-26T06:01:16Z</time>
      </trkpt>
      <trkpt lat="45.94886" lon="4.58302">
        <ele>547.8</ele>
        <time>2022-06-26T06:01:17Z</time>
      </trkpt>
      <trkpt lat="45.94884" lon="4.58302">
        <ele>548.4</ele>
        <time>2022-06-26T06:01:18Z</time>
      </trkpt>
      <trkpt lat="45.94883" lon="4.58304">
        <ele>548.4</ele>
        <time>2022-06-26T06:01:19Z</time>
      </trkpt>
      <trkpt lat="45.94881" lon="4.58305">
        <ele>548.4</ele>
        <time>2022-06-26T06:01:20Z</time>
      </trkpt>
      <trkpt lat="45.9488" lon="4.58306">
        <ele>548.6</ele>
        <time>2022-06-26T06:01:21Z</time>
      </trkpt>
      <trkpt lat="45.94879" lon="4.58306">
        <ele>547.8</ele>
        <time>2022-06-26T06:01:22Z</time>
      </trkpt>
      <trkpt lat="45.94878" lon="4.58307">
        <ele>547.8</ele>
        <time>2022-06-26T06:01:23Z</time>
      </trkpt>
      <trkpt lat="45.94876" lon="4.58307">
        <ele>548.2</ele>
        <time>2022-06-26T06:01:24Z</time>
      </trkpt>
      <trkpt lat="45.94875" lon="4.58307">
        <ele>548.6</ele>
        <time>2022-06-26T06:01:25Z</time>
      </trkpt>
      <trkpt lat="45.94873" lon="4.58306">
        <ele>549.2</ele>
        <time>2022-06-26T06:01:26Z</time>
      </trkpt>
      <trkpt lat="45.94871" lon="4.58305">
        <ele>549.6</ele>
        <time>2022-06-26T06:01:27Z</time>
      </trkpt>
      <trkpt lat="45.94869" lon="4.58304">
        <ele>549.6</ele>
        <time>2022-06-26T06:01:28Z</time>
      </trkpt>
      <trkpt lat="45.94868" lon="4.58303">
        <ele>549.6</ele>
        <time>2022-06-26T06:01:29Z</time>
      </trkpt>
      <trkpt lat="45.94867" lon="4.583">
        <ele>549.6</ele>
        <time>2022-06-26T06:01:30Z</time>
      </trkpt>
      <trkpt lat="45.94866" lon="4.58298">
        <ele>550</ele>
        <time>2022-06-26T06:01:31Z</time>
      </trkpt>
      <trkpt lat="45.94864" lon="4.58295">
        <ele>549.6</ele>
        <time>2022-06-26T06:01:32Z</time>
      </trkpt>
      <trkpt lat="45.94863" lon="4.58292">
        <ele>549.6</ele>
        <time>2022-06-26T06:01:33Z</time>
      </trkpt>
      <trkpt lat="45.94862" lon="4.5829">
        <ele>549.4</ele>
        <time>2022-06-26T06:01:34Z</time>
      </trkpt>
      <trkpt lat="45.94861" lon="4.58288">
        <ele>549.6</ele>
        <time>2022-06-26T06:01:35Z</time>
      </trkpt>
      <trkpt lat="45.94861" lon="4.58285">
        <ele>550</ele>
        <time>2022-06-26T06:01:36Z</time>
      </trkpt>
      <trkpt lat="45.9486" lon="4.58283">
        <ele>550</ele>
        <time>2022-06-26T06:01:37Z</time>
      </trkpt>
      <trkpt lat="45.9486" lon="4.5828">
        <ele>550.6</ele>
        <time>2022-06-26T06:01:38Z</time>
      </trkpt>
      <trkpt lat="45.9486" lon="4.58277">
        <ele>550</ele>
        <time>2022-06-26T06:01:39Z</time>
      </trkpt>
      <trkpt lat="45.9486" lon="4.58274">
        <ele>550</ele>
        <time>2022-06-26T06:01:40Z</time>
      </trkpt>
      <trkpt lat="45.94861" lon="4.58272">
        <ele>550</ele>
        <time>2022-06-26T06:01:41Z</time>
      </trkpt>
      <trkpt lat="45.94862" lon="4.5827">
        <ele>550</ele>
        <time>2022-06-26T06:01:42Z</time>
      </trkpt>
      <trkpt lat="45.94862" lon="4.58268">
        <ele>549.4</ele>
        <time>2022-06-26T06:01:43Z</time>
      </trkpt>
      <trkpt lat="45.94863" lon="4.58267">
        <ele>549</ele>
        <time>2022-06-26T06:01:44Z</time>
      </trkpt>
      <trkpt lat="45.94862" lon="4.58268">
        <ele>548</ele>
        <time>2022-06-26T06:01:45Z</time>
      </trkpt>
      <trkpt lat="45.94859" lon="4.58277">
        <ele>549.4</ele>
        <time>2022-06-26T06:01:49Z</time>
      </trkpt>
      <trkpt lat="45.94858" lon="4.5828">
        <ele>549.6</ele>
        <time>2022-06-26T06:01:50Z</time>
      </trkpt>
      <trkpt lat="45.94858" lon="4.58283">
        <ele>549.6</ele>
        <time>2022-06-26T06:01:51Z</time>
      </trkpt>
      <trkpt lat="45.94858" lon="4.58286">
        <ele>549.6</ele>
        <time>2022-06-26T06:01:52Z</time>
      </trkpt>
      <trkpt lat="45.94859" lon="4.58289">
        <ele>549.6</ele>
        <time>2022-06-26T06:01:53Z</time>
      </trkpt>
      <trkpt lat="45.94859" lon="4.58291">
        <ele>549.6</ele>
        <time>2022-06-26T06:01:54Z</time>
      </trkpt>
      <trkpt lat="45.94858" lon="4.58293">
        <ele>549.6</ele>
        <time>2022-06-26T06:01:55Z</time>
      </trkpt>
      <trkpt lat="45.94856" lon="4.58294">
        <ele>549.6</ele>
        <time>2022-06-26T06:01:56Z</time>
      </trkpt>
      <trkpt lat="45.94854" lon="4.58295">
        <ele>550</ele>
        <time>2022-06-26T06:01:57Z</time>
      </trkpt>
      <trkpt lat="45.94852" lon="4.58296">
        <ele>550.2</ele>
        <time>2022-06-26T06:01:58Z</time>
      </trkpt>
      <trkpt lat="45.9485" lon="4.58296">
        <ele>550.6</ele>
        <time>2022-06-26T06:01:59Z</time>
      </trkpt>
      <trkpt lat="45.94848" lon="4.58297">
        <ele>550.8</ele>
        <time>2022-06-26T06:02:00Z</time>
      </trkpt>
      <trkpt lat="45.94847" lon="4.58297">
        <ele>550.8</ele>
        <time>2022-06-26T06:02:01Z</time>
      </trkpt>
      <trkpt lat="45.94845" lon="4.58297">
        <ele>551.2</ele>
        <time>2022-06-26T06:02:02Z</time>
      </trkpt>
      <trkpt lat="45.94844" lon="4.58297">
        <ele>551.4</ele>
        <time>2022-06-26T06:02:03Z</time>
      </trkpt>
      <trkpt lat="45.94842" lon="4.58297">
        <ele>551.4</ele>
        <time>2022-06-26T06:02:04Z</time>
      </trkpt>
      <trkpt lat="45.94841" lon="4.58297">
        <ele>551.8</ele>
        <time>2022-06-26T06:02:05Z</time>
      </trkpt>
      <trkpt lat="45.94839" lon="4.58296">
        <ele>551.8</ele>
        <time>2022-06-26T06:02:06Z</time>
      </trkpt>
      <trkpt lat="45.94837" lon="4.58296">
        <ele>551.8</ele>
        <time>2022-06-26T06:02:07Z</time>
      </trkpt>
      <trkpt lat="45.94836" lon="4.58296">
        <ele>552.2</ele>
        <time>2022-06-26T06:02:08Z</time>
      </trkpt>
      <trkpt lat="45.94834" lon="4.58297">
        <ele>552.2</ele>
        <time>2022-06-26T06:02:09Z</time>
      </trkpt>
      <trkpt lat="45.94832" lon="4.58297">
        <ele>552.4</ele>
        <time>2022-06-26T06:02:10Z</time>
      </trkpt>
      <trkpt lat="45.94831" lon="4.58297">
        <ele>552.4</ele>
        <time>2022-06-26T06:02:11Z</time>
      </trkpt>
      <trkpt lat="45.94828" lon="4.58295">
        <ele>552.8</ele>
        <time>2022-06-26T06:02:12Z</time>
      </trkpt>
      <trkpt lat="45.94826" lon="4.58295">
        <ele>552.8</ele>
        <time>2022-06-26T06:02:13Z</time>
      </trkpt>
      <trkpt lat="45.94824" lon="4.58294">
        <ele>552.8</ele>
        <time>2022-06-26T06:02:14Z</time>
      </trkpt>
      <trkpt lat="45.94821" lon="4.58294">
        <ele>552.8</ele>
        <time>2022-06-26T06:02:15Z</time>
      </trkpt>
      <trkpt lat="45.94819" lon="4.58293">
        <ele>552.8</ele>
        <time>2022-06-26T06:02:16Z</time>
      </trkpt>
      <trkpt lat="45.94816" lon="4.58292">
        <ele>552.8</ele>
        <time>2022-06-26T06:02:17Z</time>
      </trkpt>
      <trkpt lat="45.94813" lon="4.58291">
        <ele>552</ele>
        <time>2022-06-26T06:02:18Z</time>
      </trkpt>
      <trkpt lat="45.9481" lon="4.58289">
        <ele>552</ele>
        <time>2022-06-26T06:02:19Z</time>
      </trkpt>
      <trkpt lat="45.94807" lon="4.58288">
        <ele>551.4</ele>
        <time>2022-06-26T06:02:20Z</time>
      </trkpt>
      <trkpt lat="45.94804" lon="4.58287">
        <ele>551.8</ele>
        <time>2022-06-26T06:02:21Z</time>
      </trkpt>
      <trkpt lat="45.94801" lon="4.58286">
        <ele>552.4</ele>
        <time>2022-06-26T06:02:22Z</time>
      </trkpt>
      <trkpt lat="45.94798" lon="4.58285">
        <ele>553.6</ele>
        <time>2022-06-26T06:02:23Z</time>
      </trkpt>
      <trkpt lat="45.94796" lon="4.58284">
        <ele>554</ele>
        <time>2022-06-26T06:02:24Z</time>
      </trkpt>
      <trkpt lat="45.94793" lon="4.58282">
        <ele>554.4</ele>
        <time>2022-06-26T06:02:25Z</time>
      </trkpt>
      <trkpt lat="45.9479" lon="4.58281">
        <ele>554.4</ele>
        <time>2022-06-26T06:02:26Z</time>
      </trkpt>
      <trkpt lat="45.94788" lon="4.58278">
        <ele>554.4</ele>
        <time>2022-06-26T06:02:27Z</time>
      </trkpt>
      <trkpt lat="45.94786" lon="4.58276">
        <ele>555.4</ele>
        <time>2022-06-26T06:02:28Z</time>
      </trkpt>
      <trkpt lat="45.94784" lon="4.58274">
        <ele>555.8</ele>
        <time>2022-06-26T06:02:29Z</time>
      </trkpt>
      <trkpt lat="45.94781" lon="4.58272">
        <ele>556.8</ele>
        <time>2022-06-26T06:02:30Z</time>
      </trkpt>
      <trkpt lat="45.94779" lon="4.5827">
        <ele>556.4</ele>
        <time>2022-06-26T06:02:31Z</time>
      </trkpt>
      <trkpt lat="45.94777" lon="4.58268">
        <ele>556.4</ele>
        <time>2022-06-26T06:02:32Z</time>
      </trkpt>
      <trkpt lat="45.94775" lon="4.58267">
        <ele>556.4</ele>
        <time>2022-06-26T06:02:33Z</time>
      </trkpt>
      <trkpt lat="45.94774" lon="4.58266">
        <ele>556.4</ele>
        <time>2022-06-26T06:02:34Z</time>
      </trkpt>
      <trkpt lat="45.94771" lon="4.58265">
        <ele>556.8</ele>
        <time>2022-06-26T06:02:35Z</time>
      </trkpt>
      <trkpt lat="45.94769" lon="4.58264">
        <ele>556.8</ele>
        <time>2022-06-26T06:02:36Z</time>
      </trkpt>
      <trkpt lat="45.94767" lon="4.58264">
        <ele>557.2</ele>
        <time>2022-06-26T06:02:37Z</time>
      </trkpt>
      <trkpt lat="45.94766" lon="4.58263">
        <ele>557.2</ele>
        <time>2022-06-26T06:02:38Z</time>
      </trkpt>
      <trkpt lat="45.94764" lon="4.58262">
        <ele>557.2</ele>
        <time>2022-06-26T06:02:39Z</time>
      </trkpt>
      <trkpt lat="45.94763" lon="4.58262">
        <ele>557.4</ele>
        <time>2022-06-26T06:02:40Z</time>
      </trkpt>
      <trkpt lat="45.94762" lon="4.5826">
        <ele>557.4</ele>
        <time>2022-06-26T06:02:41Z</time>
      </trkpt>
      <trkpt lat="45.9476" lon="4.58259">
        <ele>557.4</ele>
        <time>2022-06-26T06:02:42Z</time>
      </trkpt>
      <trkpt lat="45.94758" lon="4.58258">
        <ele>557.4</ele>
        <time>2022-06-26T06:02:43Z</time>
      </trkpt>
      <trkpt lat="45.94755" lon="4.58258">
        <ele>557.4</ele>
        <time>2022-06-26T06:02:44Z</time>
      </trkpt>
      <trkpt lat="45.94752" lon="4.58257">
        <ele>557.4</ele>
        <time>2022-06-26T06:02:45Z</time>
      </trkpt>
      <trkpt lat="45.9475" lon="4.58257">
        <ele>557.8</ele>
        <time>2022-06-26T06:02:46Z</time>
      </trkpt>
      <trkpt lat="45.94747" lon="4.58257">
        <ele>557.8</ele>
        <time>2022-06-26T06:02:47Z</time>
      </trkpt>
      <trkpt lat="45.94745" lon="4.58257">
        <ele>557.8</ele>
        <time>2022-06-26T06:02:48Z</time>
      </trkpt>
      <trkpt lat="45.94743" lon="4.58256">
        <ele>557.6</ele>
        <time>2022-06-26T06:02:49Z</time>
      </trkpt>
      <trkpt lat="45.9474" lon="4.58257">
        <ele>557.6</ele>
        <time>2022-06-26T06:02:50Z</time>
      </trkpt>
      <trkpt lat="45.94738" lon="4.58258">
        <ele>558.6</ele>
        <time>2022-06-26T06:02:51Z</time>
      </trkpt>
      <trkpt lat="45.94736" lon="4.58259">
        <ele>558.8</ele>
        <time>2022-06-26T06:02:52Z</time>
      </trkpt>
      <trkpt lat="45.94734" lon="4.58258">
        <ele>558.8</ele>
        <time>2022-06-26T06:02:53Z</time>
      </trkpt>
      <trkpt lat="45.94733" lon="4.58256">
        <ele>558.6</ele>
        <time>2022-06-26T06:02:54Z</time>
      </trkpt>
      <trkpt lat="45.94732" lon="4.58254">
        <ele>558.4</ele>
        <time>2022-06-26T06:02:55Z</time>
      </trkpt>
      <trkpt lat="45.94732" lon="4.58252">
        <ele>558.2</ele>
        <time>2022-06-26T06:02:56Z</time>
      </trkpt>
      <trkpt lat="45.94732" lon="4.5825">
        <ele>558.4</ele>
        <time>2022-06-26T06:02:57Z</time>
      </trkpt>
      <trkpt lat="45.94732" lon="4.58247">
        <ele>558.4</ele>
        <time>2022-06-26T06:02:58Z</time>
      </trkpt>
      <trkpt lat="45.94732" lon="4.58245">
        <ele>558.2</ele>
        <time>2022-06-26T06:02:59Z</time>
      </trkpt>
      <trkpt lat="45.94733" lon="4.58242">
        <ele>558.4</ele>
        <time>2022-06-26T06:03:00Z</time>
      </trkpt>
      <trkpt lat="45.94733" lon="4.5824">
        <ele>558.2</ele>
        <time>2022-06-26T06:03:01Z</time>
      </trkpt>
      <trkpt lat="45.94733" lon="4.58239">
        <ele>558.2</ele>
        <time>2022-06-26T06:03:02Z</time>
      </trkpt>
      <trkpt lat="45.94734" lon="4.58237">
        <ele>558.2</ele>
        <time>2022-06-26T06:03:03Z</time>
      </trkpt>
      <trkpt lat="45.94734" lon="4.58235">
        <ele>558.2</ele>
        <time>2022-06-26T06:03:04Z</time>
      </trkpt>
      <trkpt lat="45.94734" lon="4.58234">
        <ele>558.2</ele>
        <time>2022-06-26T06:03:05Z</time>
      </trkpt>
      <trkpt lat="45.94735" lon="4.58233">
        <ele>558.2</ele>
        <time>2022-06-26T06:03:06Z</time>
      </trkpt>
      <trkpt lat="45.94725" lon="4.58245">
        <ele>549.8</ele>
        <time>2022-06-26T06:11:51Z</time>
      </trkpt>
      <trkpt lat="45.94725" lon="4.58248">
        <ele>549.8</ele>
        <time>2022-06-26T06:11:52Z</time>
      </trkpt>
      <trkpt lat="45.94725" lon="4.58251">
        <ele>549.8</ele>
        <time>2022-06-26T06:11:53Z</time>
      </trkpt>
      <trkpt lat="45.94726" lon="4.58254">
        <ele>549.6</ele>
        <time>2022-06-26T06:11:54Z</time>
      </trkpt>
      <trkpt lat="45.94726" lon="4.58256">
        <ele>549.6</ele>
        <time>2022-06-26T06:11:55Z</time>
      </trkpt>
      <trkpt lat="45.94726" lon="4.58258">
        <ele>549.6</ele>
        <time>2022-06-26T06:11:56Z</time>
      </trkpt>
      <trkpt lat="45.94725" lon="4.5826">
        <ele>549.4</ele>
        <time>2022-06-26T06:11:57Z</time>
      </trkpt>
      <trkpt lat="45.94725" lon="4.58262">
        <ele>549.4</ele>
        <time>2022-06-26T06:11:58Z</time>
      </trkpt>
      <trkpt lat="45.94723" lon="4.58264">
        <ele>549</ele>
        <time>2022-06-26T06:11:59Z</time>
      </trkpt>
      <trkpt lat="45.94721" lon="4.58265">
        <ele>549</ele>
        <time>2022-06-26T06:12:00Z</time>
      </trkpt>
      <trkpt lat="45.94719" lon="4.58266">
        <ele>548.8</ele>
        <time>2022-06-26T06:12:01Z</time>
      </trkpt>
      <trkpt lat="45.94716" lon="4.58266">
        <ele>548.8</ele>
        <time>2022-06-26T06:12:02Z</time>
      </trkpt>
      <trkpt lat="45.94712" lon="4.58266">
        <ele>548.4</ele>
        <time>2022-06-26T06:12:03Z</time>
      </trkpt>
      <trkpt lat="45.94709" lon="4.58266">
        <ele>548.2</ele>
        <time>2022-06-26T06:12:04Z</time>
      </trkpt>
      <trkpt lat="45.94705" lon="4.58266">
        <ele>547.8</ele>
        <time>2022-06-26T06:12:05Z</time>
      </trkpt>
      <trkpt lat="45.94701" lon="4.58266">
        <ele>547.6</ele>
        <time>2022-06-26T06:12:06Z</time>
      </trkpt>
      <trkpt lat="45.94697" lon="4.58267">
        <ele>547.4</ele>
        <time>2022-06-26T06:12:07Z</time>
      </trkpt>
      <trkpt lat="45.94693" lon="4.58267">
        <ele>547</ele>
        <time>2022-06-26T06:12:08Z</time>
      </trkpt>
      <trkpt lat="45.94689" lon="4.58268">
        <ele>546.8</ele>
        <time>2022-06-26T06:12:09Z</time>
      </trkpt>
      <trkpt lat="45.94685" lon="4.58269">
        <ele>546.6</ele>
        <time>2022-06-26T06:12:10Z</time>
      </trkpt>
      <trkpt lat="45.94682" lon="4.58269">
        <ele>546.2</ele>
        <time>2022-06-26T06:12:11Z</time>
      </trkpt>
      <trkpt lat="45.94678" lon="4.5827">
        <ele>545.8</ele>
        <time>2022-06-26T06:12:12Z</time>
      </trkpt>
      <trkpt lat="45.94676" lon="4.5827">
        <ele>545.4</ele>
        <time>2022-06-26T06:12:13Z</time>
      </trkpt>
      <trkpt lat="45.94674" lon="4.58272">
        <ele>545</ele>
        <time>2022-06-26T06:12:14Z</time>
      </trkpt>
      <trkpt lat="45.94672" lon="4.58273">
        <ele>544.6</ele>
        <time>2022-06-26T06:12:15Z</time>
      </trkpt>
      <trkpt lat="45.9467" lon="4.58275">
        <ele>544.6</ele>
        <time>2022-06-26T06:12:16Z</time>
      </trkpt>
      <trkpt lat="45.94667" lon="4.58276">
        <ele>544.2</ele>
        <time>2022-06-26T06:12:17Z</time>
      </trkpt>
      <trkpt lat="45.94665" lon="4.58276">
        <ele>544.2</ele>
        <time>2022-06-26T06:12:18Z</time>
      </trkpt>
      <trkpt lat="45.94662" lon="4.58276">
        <ele>544</ele>
        <time>2022-06-26T06:12:19Z</time>
      </trkpt>
      <trkpt lat="45.94658" lon="4.58276">
        <ele>543.6</ele>
        <time>2022-06-26T06:12:20Z</time>
      </trkpt>
      <trkpt lat="45.94655" lon="4.58276">
        <ele>543.6</ele>
        <time>2022-06-26T06:12:21Z</time>
      </trkpt>
      <trkpt lat="45.94651" lon="4.58277">
        <ele>543.4</ele>
        <time>2022-06-26T06:12:22Z</time>
      </trkpt>
      <trkpt lat="45.94648" lon="4.58278">
        <ele>543.4</ele>
        <time>2022-06-26T06:12:23Z</time>
      </trkpt>
      <trkpt lat="45.94644" lon="4.58279">
        <ele>543</ele>
        <time>2022-06-26T06:12:24Z</time>
      </trkpt>
      <trkpt lat="45.94639" lon="4.5828">
        <ele>543</ele>
        <time>2022-06-26T06:12:25Z</time>
      </trkpt>
      <trkpt lat="45.94635" lon="4.58281">
        <ele>542.8</ele>
        <time>2022-06-26T06:12:26Z</time>
      </trkpt>
      <trkpt lat="45.9463" lon="4.58283">
        <ele>542.6</ele>
        <time>2022-06-26T06:12:27Z</time>
      </trkpt>
      <trkpt lat="45.94625" lon="4.58285">
        <ele>542.2</ele>
        <time>2022-06-26T06:12:28Z</time>
      </trkpt>
      <trkpt lat="45.9462" lon="4.58288">
        <ele>542</ele>
        <time>2022-06-26T06:12:29Z</time>
      </trkpt>
      <trkpt lat="45.94615" lon="4.5829">
        <ele>541.6</ele>
        <time>2022-06-26T06:12:30Z</time>
      </trkpt>
      <trkpt lat="45.94611" lon="4.58292">
        <ele>541.2</ele>
        <time>2022-06-26T06:12:31Z</time>
      </trkpt>
      <trkpt lat="45.94606" lon="4.58293">
        <ele>541</ele>
        <time>2022-06-26T06:12:32Z</time>
      </trkpt>
      <trkpt lat="45.94602" lon="4.58294">
        <ele>540.8</ele>
        <time>2022-06-26T06:12:33Z</time>
      </trkpt>
      <trkpt lat="45.94599" lon="4.58295">
        <ele>540.4</ele>
        <time>2022-06-26T06:12:34Z</time>
      </trkpt>
      <trkpt lat="45.94596" lon="4.58296">
        <ele>540.2</ele>
        <time>2022-06-26T06:12:35Z</time>
      </trkpt>
      <trkpt lat="45.94594" lon="4.58297">
        <ele>540.2</ele>
        <time>2022-06-26T06:12:36Z</time>
      </trkpt>
      <trkpt lat="45.94592" lon="4.58297">
        <ele>540.2</ele>
        <time>2022-06-26T06:12:37Z</time>
      </trkpt>
      <trkpt lat="45.9459" lon="4.58297">
        <ele>539.8</ele>
        <time>2022-06-26T06:12:38Z</time>
      </trkpt>
      <trkpt lat="45.9459" lon="4.58298">
        <ele>539.8</ele>
        <time>2022-06-26T06:12:40Z</time>
      </trkpt>
      <trkpt lat="45.94589" lon="4.58291">
        <ele>539.4</ele>
        <time>2022-06-26T06:13:02Z</time>
      </trkpt>
      <trkpt lat="45.94588" lon="4.58288">
        <ele>539</ele>
        <time>2022-06-26T06:13:03Z</time>
      </trkpt>
      <trkpt lat="45.94588" lon="4.58285">
        <ele>538.8</ele>
        <time>2022-06-26T06:13:04Z</time>
      </trkpt>
      <trkpt lat="45.94586" lon="4.58282">
        <ele>538.6</ele>
        <time>2022-06-26T06:13:05Z</time>
      </trkpt>
      <trkpt lat="45.94584" lon="4.5828">
        <ele>538.4</ele>
        <time>2022-06-26T06:13:06Z</time>
      </trkpt>
      <trkpt lat="45.94581" lon="4.58279">
        <ele>538.2</ele>
        <time>2022-06-26T06:13:07Z</time>
      </trkpt>
      <trkpt lat="45.94578" lon="4.5828">
        <ele>537.8</ele>
        <time>2022-06-26T06:13:08Z</time>
      </trkpt>
      <trkpt lat="45.94575" lon="4.58279">
        <ele>537.6</ele>
        <time>2022-06-26T06:13:09Z</time>
      </trkpt>
      <trkpt lat="45.94573" lon="4.58279">
        <ele>537.4</ele>
        <time>2022-06-26T06:13:10Z</time>
      </trkpt>
      <trkpt lat="45.94571" lon="4.58278">
        <ele>537</ele>
        <time>2022-06-26T06:13:11Z</time>
      </trkpt>
      <trkpt lat="45.94569" lon="4.58276">
        <ele>536.6</ele>
        <time>2022-06-26T06:13:12Z</time>
      </trkpt>
      <trkpt lat="45.94567" lon="4.58274">
        <ele>536.4</ele>
        <time>2022-06-26T06:13:13Z</time>
      </trkpt>
      <trkpt lat="45.94565" lon="4.58271">
        <ele>536</ele>
        <time>2022-06-26T06:13:14Z</time>
      </trkpt>
      <trkpt lat="45.94564" lon="4.58268">
        <ele>535.6</ele>
        <time>2022-06-26T06:13:15Z</time>
      </trkpt>
      <trkpt lat="45.94562" lon="4.58265">
        <ele>535.2</ele>
        <time>2022-06-26T06:13:16Z</time>
      </trkpt>
      <trkpt lat="45.9456" lon="4.58262">
        <ele>534.6</ele>
        <time>2022-06-26T06:13:17Z</time>
      </trkpt>
      <trkpt lat="45.94557" lon="4.5826">
        <ele>534</ele>
        <time>2022-06-26T06:13:18Z</time>
      </trkpt>
      <trkpt lat="45.94554" lon="4.58257">
        <ele>533.4</ele>
        <time>2022-06-26T06:13:19Z</time>
      </trkpt>
      <trkpt lat="45.94551" lon="4.58255">
        <ele>532.6</ele>
        <time>2022-06-26T06:13:20Z</time>
      </trkpt>
      <trkpt lat="45.94548" lon="4.58253">
        <ele>532</ele>
        <time>2022-06-26T06:13:21Z</time>
      </trkpt>
      <trkpt lat="45.94544" lon="4.58251">
        <ele>531.2</ele>
        <time>2022-06-26T06:13:22Z</time>
      </trkpt>
      <trkpt lat="45.94539" lon="4.58249">
        <ele>530.2</ele>
        <time>2022-06-26T06:13:23Z</time>
      </trkpt>
      <trkpt lat="45.94535" lon="4.58247">
        <ele>529.4</ele>
        <time>2022-06-26T06:13:24Z</time>
      </trkpt>
      <trkpt lat="45.9453" lon="4.58244">
        <ele>528.4</ele>
        <time>2022-06-26T06:13:25Z</time>
      </trkpt>
      <trkpt lat="45.94525" lon="4.58241">
        <ele>527.2</ele>
        <time>2022-06-26T06:13:26Z</time>
      </trkpt>
      <trkpt lat="45.94519" lon="4.58238">
        <ele>526.2</ele>
        <time>2022-06-26T06:13:27Z</time>
      </trkpt>
      <trkpt lat="45.94514" lon="4.58234">
        <ele>525</ele>
        <time>2022-06-26T06:13:28Z</time>
      </trkpt>
      <trkpt lat="45.94509" lon="4.58229">
        <ele>523.8</ele>
        <time>2022-06-26T06:13:29Z</time>
      </trkpt>
      <trkpt lat="45.94503" lon="4.58222">
        <ele>522.6</ele>
        <time>2022-06-26T06:13:30Z</time>
      </trkpt>
      <trkpt lat="45.94497" lon="4.58215">
        <ele>521.2</ele>
        <time>2022-06-26T06:13:31Z</time>
      </trkpt>
      <trkpt lat="45.94492" lon="4.58208">
        <ele>519.8</ele>
        <time>2022-06-26T06:13:32Z</time>
      </trkpt>
      <trkpt lat="45.94487" lon="4.58201">
        <ele>518.6</ele>
        <time>2022-06-26T06:13:33Z</time>
      </trkpt>
      <trkpt lat="45.94482" lon="4.58193">
        <ele>517.4</ele>
        <time>2022-06-26T06:13:34Z</time>
      </trkpt>
      <trkpt lat="45.94477" lon="4.58186">
        <ele>516.2</ele>
        <time>2022-06-26T06:13:35Z</time>
      </trkpt>
      <trkpt lat="45.94473" lon="4.5818">
        <ele>514.8</ele>
        <time>2022-06-26T06:13:36Z</time>
      </trkpt>
      <trkpt lat="45.94468" lon="4.58174">
        <ele>513.6</ele>
        <time>2022-06-26T06:13:37Z</time>
      </trkpt>
      <trkpt lat="45.94465" lon="4.58169">
        <ele>512.6</ele>
        <time>2022-06-26T06:13:38Z</time>
      </trkpt>
      <trkpt lat="45.94462" lon="4.58165">
        <ele>511.4</ele>
        <time>2022-06-26T06:13:39Z</time>
      </trkpt>
      <trkpt lat="45.94459" lon="4.58162">
        <ele>510.4</ele>
        <time>2022-06-26T06:13:40Z</time>
      </trkpt>
      <trkpt lat="45.94458" lon="4.5816">
        <ele>509.6</ele>
        <time>2022-06-26T06:13:41Z</time>
      </trkpt>
      <trkpt lat="45.94457" lon="4.5816">
        <ele>509</ele>
        <time>2022-06-26T06:13:42Z</time>
      </trkpt>
      <trkpt lat="45.94455" lon="4.58157">
        <ele>507.6</ele>
        <time>2022-06-26T06:13:46Z</time>
      </trkpt>
      <trkpt lat="45.94453" lon="4.58155">
        <ele>507.6</ele>
        <time>2022-06-26T06:13:47Z</time>
      </trkpt>
      <trkpt lat="45.94449" lon="4.58152">
        <ele>507.2</ele>
        <time>2022-06-26T06:13:48Z</time>
      </trkpt>
      <trkpt lat="45.94446" lon="4.58149">
        <ele>507</ele>
        <time>2022-06-26T06:13:49Z</time>
      </trkpt>
      <trkpt lat="45.94441" lon="4.58147">
        <ele>506.6</ele>
        <time>2022-06-26T06:13:50Z</time>
      </trkpt>
      <trkpt lat="45.94436" lon="4.58145">
        <ele>506.2</ele>
        <time>2022-06-26T06:13:51Z</time>
      </trkpt>
      <trkpt lat="45.94431" lon="4.58143">
        <ele>506</ele>
        <time>2022-06-26T06:13:52Z</time>
      </trkpt>
      <trkpt lat="45.94425" lon="4.5814">
        <ele>505.8</ele>
        <time>2022-06-26T06:13:53Z</time>
      </trkpt>
      <trkpt lat="45.94418" lon="4.58137">
        <ele>505.6</ele>
        <time>2022-06-26T06:13:54Z</time>
      </trkpt>
      <trkpt lat="45.94411" lon="4.58134">
        <ele>505.2</ele>
        <time>2022-06-26T06:13:55Z</time>
      </trkpt>
      <trkpt lat="45.94404" lon="4.58131">
        <ele>504.8</ele>
        <time>2022-06-26T06:13:56Z</time>
      </trkpt>
      <trkpt lat="45.94397" lon="4.58127">
        <ele>504.4</ele>
        <time>2022-06-26T06:13:57Z</time>
      </trkpt>
      <trkpt lat="45.94389" lon="4.58123">
        <ele>504.4</ele>
        <time>2022-06-26T06:13:58Z</time>
      </trkpt>
      <trkpt lat="45.94381" lon="4.5812">
        <ele>503.6</ele>
        <time>2022-06-26T06:13:59Z</time>
      </trkpt>
      <trkpt lat="45.94372" lon="4.58116">
        <ele>503.2</ele>
        <time>2022-06-26T06:14:00Z</time>
      </trkpt>
      <trkpt lat="45.94363" lon="4.58112">
        <ele>502.8</ele>
        <time>2022-06-26T06:14:01Z</time>
      </trkpt>
      <trkpt lat="45.94353" lon="4.58107">
        <ele>502.2</ele>
        <time>2022-06-26T06:14:02Z</time>
      </trkpt>
      <trkpt lat="45.94344" lon="4.58103">
        <ele>501.6</ele>
        <time>2022-06-26T06:14:03Z</time>
      </trkpt>
      <trkpt lat="45.94334" lon="4.58098">
        <ele>500.8</ele>
        <time>2022-06-26T06:14:04Z</time>
      </trkpt>
      <trkpt lat="45.94324" lon="4.58094">
        <ele>500.2</ele>
        <time>2022-06-26T06:14:05Z</time>
      </trkpt>
      <trkpt lat="45.94313" lon="4.58092">
        <ele>499.6</ele>
        <time>2022-06-26T06:14:06Z</time>
      </trkpt>
      <trkpt lat="45.94304" lon="4.58089">
        <ele>499</ele>
        <time>2022-06-26T06:14:07Z</time>
      </trkpt>
      <trkpt lat="45.94293" lon="4.58086">
        <ele>498.2</ele>
        <time>2022-06-26T06:14:08Z</time>
      </trkpt>
      <trkpt lat="45.94282" lon="4.58083">
        <ele>497.6</ele>
        <time>2022-06-26T06:14:09Z</time>
      </trkpt>
      <trkpt lat="45.94271" lon="4.5808">
        <ele>497.2</ele>
        <time>2022-06-26T06:14:10Z</time>
      </trkpt>
      <trkpt lat="45.9426" lon="4.58077">
        <ele>496.8</ele>
        <time>2022-06-26T06:14:11Z</time>
      </trkpt>
      <trkpt lat="45.94249" lon="4.58073">
        <ele>496.4</ele>
        <time>2022-06-26T06:14:12Z</time>
      </trkpt>
      <trkpt lat="45.94238" lon="4.58069">
        <ele>496</ele>
        <time>2022-06-26T06:14:13Z</time>
      </trkpt>
      <trkpt lat="45.94228" lon="4.58064">
        <ele>495.4</ele>
        <time>2022-06-26T06:14:14Z</time>
      </trkpt>
      <trkpt lat="45.94218" lon="4.58059">
        <ele>494.8</ele>
        <time>2022-06-26T06:14:15Z</time>
      </trkpt>
      <trkpt lat="45.94207" lon="4.58054">
        <ele>494.2</ele>
        <time>2022-06-26T06:14:16Z</time>
      </trkpt>
      <trkpt lat="45.94195" lon="4.58047">
        <ele>493.4</ele>
        <time>2022-06-26T06:14:17Z</time>
      </trkpt>
      <trkpt lat="45.94184" lon="4.5804">
        <ele>492.6</ele>
        <time>2022-06-26T06:14:18Z</time>
      </trkpt>
      <trkpt lat="45.94174" lon="4.58032">
        <ele>491.6</ele>
        <time>2022-06-26T06:14:19Z</time>
      </trkpt>
      <trkpt lat="45.94163" lon="4.58025">
        <ele>490.4</ele>
        <time>2022-06-26T06:14:20Z</time>
      </trkpt>
      <trkpt lat="45.94153" lon="4.58016">
        <ele>489.6</ele>
        <time>2022-06-26T06:14:21Z</time>
      </trkpt>
      <trkpt lat="45.94142" lon="4.58007">
        <ele>488.6</ele>
        <time>2022-06-26T06:14:22Z</time>
      </trkpt>
      <trkpt lat="45.94131" lon="4.57999">
        <ele>487.6</ele>
        <time>2022-06-26T06:14:23Z</time>
      </trkpt>
      <trkpt lat="45.94119" lon="4.5799">
        <ele>486.6</ele>
        <time>2022-06-26T06:14:24Z</time>
      </trkpt>
      <trkpt lat="45.94108" lon="4.57981">
        <ele>485.8</ele>
        <time>2022-06-26T06:14:25Z</time>
      </trkpt>
      <trkpt lat="45.94097" lon="4.57972">
        <ele>485.4</ele>
        <time>2022-06-26T06:14:26Z</time>
      </trkpt>
      <trkpt lat="45.94085" lon="4.57963">
        <ele>484.6</ele>
        <time>2022-06-26T06:14:27Z</time>
      </trkpt>
      <trkpt lat="45.94074" lon="4.57953">
        <ele>483.8</ele>
        <time>2022-06-26T06:14:28Z</time>
      </trkpt>
      <trkpt lat="45.94062" lon="4.57944">
        <ele>483</ele>
        <time>2022-06-26T06:14:29Z</time>
      </trkpt>
      <trkpt lat="45.94051" lon="4.57936">
        <ele>482.4</ele>
        <time>2022-06-26T06:14:30Z</time>
      </trkpt>
      <trkpt lat="45.94039" lon="4.57927">
        <ele>481.8</ele>
        <time>2022-06-26T06:14:31Z</time>
      </trkpt>
      <trkpt lat="45.94027" lon="4.57919">
        <ele>480.8</ele>
        <time>2022-06-26T06:14:32Z</time>
      </trkpt>
      <trkpt lat="45.94016" lon="4.57912">
        <ele>480</ele>
        <time>2022-06-26T06:14:33Z</time>
      </trkpt>
      <trkpt lat="45.94005" lon="4.57907">
        <ele>479.2</ele>
        <time>2022-06-26T06:14:34Z</time>
      </trkpt>
      <trkpt lat="45.93993" lon="4.57902">
        <ele>478.4</ele>
        <time>2022-06-26T06:14:35Z</time>
      </trkpt>
      <trkpt lat="45.93982" lon="4.57897">
        <ele>477.4</ele>
        <time>2022-06-26T06:14:36Z</time>
      </trkpt>
      <trkpt lat="45.9397" lon="4.57892">
        <ele>476.6</ele>
        <time>2022-06-26T06:14:37Z</time>
      </trkpt>
      <trkpt lat="45.93959" lon="4.57888">
        <ele>475.8</ele>
        <time>2022-06-26T06:14:38Z</time>
      </trkpt>
      <trkpt lat="45.93947" lon="4.57885">
        <ele>475</ele>
        <time>2022-06-26T06:14:39Z</time>
      </trkpt>
      <trkpt lat="45.93936" lon="4.57882">
        <ele>474.2</ele>
        <time>2022-06-26T06:14:40Z</time>
      </trkpt>
      <trkpt lat="45.93924" lon="4.5788">
        <ele>473.4</ele>
        <time>2022-06-26T06:14:41Z</time>
      </trkpt>
      <trkpt lat="45.93912" lon="4.5788">
        <ele>472.6</ele>
        <time>2022-06-26T06:14:42Z</time>
      </trkpt>
      <trkpt lat="45.939" lon="4.5788">
        <ele>472</ele>
        <time>2022-06-26T06:14:43Z</time>
      </trkpt>
      <trkpt lat="45.93888" lon="4.57881">
        <ele>471.6</ele>
        <time>2022-06-26T06:14:44Z</time>
      </trkpt>
      <trkpt lat="45.93876" lon="4.57882">
        <ele>471</ele>
        <time>2022-06-26T06:14:45Z</time>
      </trkpt>
      <trkpt lat="45.93864" lon="4.57883">
        <ele>470.4</ele>
        <time>2022-06-26T06:14:46Z</time>
      </trkpt>
      <trkpt lat="45.93851" lon="4.57885">
        <ele>469.6</ele>
        <time>2022-06-26T06:14:47Z</time>
      </trkpt>
      <trkpt lat="45.9384" lon="4.57886">
        <ele>469</ele>
        <time>2022-06-26T06:14:48Z</time>
      </trkpt>
      <trkpt lat="45.93828" lon="4.57887">
        <ele>468</ele>
        <time>2022-06-26T06:14:49Z</time>
      </trkpt>
      <trkpt lat="45.93816" lon="4.57889">
        <ele>467.4</ele>
        <time>2022-06-26T06:14:50Z</time>
      </trkpt>
      <trkpt lat="45.93804" lon="4.5789">
        <ele>466.8</ele>
        <time>2022-06-26T06:14:51Z</time>
      </trkpt>
      <trkpt lat="45.93792" lon="4.57891">
        <ele>466.2</ele>
        <time>2022-06-26T06:14:52Z</time>
      </trkpt>
      <trkpt lat="45.9378" lon="4.57893">
        <ele>465.4</ele>
        <time>2022-06-26T06:14:53Z</time>
      </trkpt>
      <trkpt lat="45.93768" lon="4.57894">
        <ele>464.8</ele>
        <time>2022-06-26T06:14:54Z</time>
      </trkpt>
      <trkpt lat="45.93756" lon="4.57895">
        <ele>464.2</ele>
        <time>2022-06-26T06:14:55Z</time>
      </trkpt>
      <trkpt lat="45.93743" lon="4.57897">
        <ele>463.4</ele>
        <time>2022-06-26T06:14:56Z</time>
      </trkpt>
      <trkpt lat="45.93731" lon="4.57899">
        <ele>462.8</ele>
        <time>2022-06-26T06:14:57Z</time>
      </trkpt>
      <trkpt lat="45.9372" lon="4.57901">
        <ele>462.4</ele>
        <time>2022-06-26T06:14:58Z</time>
      </trkpt>
      <trkpt lat="45.93708" lon="4.57903">
        <ele>461.8</ele>
        <time>2022-06-26T06:14:59Z</time>
      </trkpt>
      <trkpt lat="45.93695" lon="4.57906">
        <ele>461</ele>
        <time>2022-06-26T06:15:00Z</time>
      </trkpt>
      <trkpt lat="45.93683" lon="4.57908">
        <ele>460.4</ele>
        <time>2022-06-26T06:15:01Z</time>
      </trkpt>
      <trkpt lat="45.9367" lon="4.5791">
        <ele>459.8</ele>
        <time>2022-06-26T06:15:02Z</time>
      </trkpt>
      <trkpt lat="45.93658" lon="4.57913">
        <ele>458.8</ele>
        <time>2022-06-26T06:15:03Z</time>
      </trkpt>
      <trkpt lat="45.93646" lon="4.57915">
        <ele>457.8</ele>
        <time>2022-06-26T06:15:04Z</time>
      </trkpt>
      <trkpt lat="45.93635" lon="4.57918">
        <ele>456.6</ele>
        <time>2022-06-26T06:15:05Z</time>
      </trkpt>
      <trkpt lat="45.93623" lon="4.57921">
        <ele>455.4</ele>
        <time>2022-06-26T06:15:06Z</time>
      </trkpt>
      <trkpt lat="45.93613" lon="4.57924">
        <ele>454.6</ele>
        <time>2022-06-26T06:15:07Z</time>
      </trkpt>
      <trkpt lat="45.93601" lon="4.57927">
        <ele>453.6</ele>
        <time>2022-06-26T06:15:08Z</time>
      </trkpt>
      <trkpt lat="45.93589" lon="4.57929">
        <ele>452.8</ele>
        <time>2022-06-26T06:15:09Z</time>
      </trkpt>
      <trkpt lat="45.93578" lon="4.57932">
        <ele>452</ele>
        <time>2022-06-26T06:15:10Z</time>
      </trkpt>
      <trkpt lat="45.93567" lon="4.57935">
        <ele>451.4</ele>
        <time>2022-06-26T06:15:11Z</time>
      </trkpt>
      <trkpt lat="45.93556" lon="4.57939">
        <ele>450.6</ele>
        <time>2022-06-26T06:15:12Z</time>
      </trkpt>
      <trkpt lat="45.93545" lon="4.57943">
        <ele>449.8</ele>
        <time>2022-06-26T06:15:13Z</time>
      </trkpt>
      <trkpt lat="45.93535" lon="4.57948">
        <ele>449.4</ele>
        <time>2022-06-26T06:15:14Z</time>
      </trkpt>
      <trkpt lat="45.93525" lon="4.57953">
        <ele>449</ele>
        <time>2022-06-26T06:15:15Z</time>
      </trkpt>
      <trkpt lat="45.93515" lon="4.57958">
        <ele>448.4</ele>
        <time>2022-06-26T06:15:16Z</time>
      </trkpt>
      <trkpt lat="45.93505" lon="4.57964">
        <ele>447.8</ele>
        <time>2022-06-26T06:15:17Z</time>
      </trkpt>
      <trkpt lat="45.93495" lon="4.57969">
        <ele>447</ele>
        <time>2022-06-26T06:15:18Z</time>
      </trkpt>
      <trkpt lat="45.93485" lon="4.57975">
        <ele>446.2</ele>
        <time>2022-06-26T06:15:19Z</time>
      </trkpt>
      <trkpt lat="45.93475" lon="4.5798">
        <ele>445.6</ele>
        <time>2022-06-26T06:15:20Z</time>
      </trkpt>
      <trkpt lat="45.93466" lon="4.57985">
        <ele>445.2</ele>
        <time>2022-06-26T06:15:21Z</time>
      </trkpt>
      <trkpt lat="45.93456" lon="4.57991">
        <ele>444.6</ele>
        <time>2022-06-26T06:15:22Z</time>
      </trkpt>
      <trkpt lat="45.93446" lon="4.57996">
        <ele>444</ele>
        <time>2022-06-26T06:15:23Z</time>
      </trkpt>
      <trkpt lat="45.93437" lon="4.58001">
        <ele>443.8</ele>
        <time>2022-06-26T06:15:24Z</time>
      </trkpt>
      <trkpt lat="45.93427" lon="4.58005">
        <ele>443.4</ele>
        <time>2022-06-26T06:15:25Z</time>
      </trkpt>
      <trkpt lat="45.93417" lon="4.58009">
        <ele>442.8</ele>
        <time>2022-06-26T06:15:26Z</time>
      </trkpt>
      <trkpt lat="45.93407" lon="4.58013">
        <ele>442.2</ele>
        <time>2022-06-26T06:15:27Z</time>
      </trkpt>
      <trkpt lat="45.93397" lon="4.58016">
        <ele>441.8</ele>
        <time>2022-06-26T06:15:28Z</time>
      </trkpt>
      <trkpt lat="45.93387" lon="4.58019">
        <ele>441.6</ele>
        <time>2022-06-26T06:15:29Z</time>
      </trkpt>
      <trkpt lat="45.93377" lon="4.58021">
        <ele>441</ele>
        <time>2022-06-26T06:15:30Z</time>
      </trkpt>
      <trkpt lat="45.93368" lon="4.58024">
        <ele>440.6</ele>
        <time>2022-06-26T06:15:31Z</time>
      </trkpt>
      <trkpt lat="45.93358" lon="4.58026">
        <ele>439.8</ele>
        <time>2022-06-26T06:15:32Z</time>
      </trkpt>
      <trkpt lat="45.93348" lon="4.58029">
        <ele>439.8</ele>
        <time>2022-06-26T06:15:33Z</time>
      </trkpt>
      <trkpt lat="45.93338" lon="4.58032">
        <ele>439.6</ele>
        <time>2022-06-26T06:15:34Z</time>
      </trkpt>
      <trkpt lat="45.93328" lon="4.58035">
        <ele>439.6</ele>
        <time>2022-06-26T06:15:35Z</time>
      </trkpt>
      <trkpt lat="45.93318" lon="4.58038">
        <ele>439</ele>
        <time>2022-06-26T06:15:36Z</time>
      </trkpt>
      <trkpt lat="45.93309" lon="4.58042">
        <ele>438.6</ele>
        <time>2022-06-26T06:15:37Z</time>
      </trkpt>
      <trkpt lat="45.93299" lon="4.58046">
        <ele>438.2</ele>
        <time>2022-06-26T06:15:38Z</time>
      </trkpt>
      <trkpt lat="45.93289" lon="4.58048">
        <ele>437.8</ele>
        <time>2022-06-26T06:15:39Z</time>
      </trkpt>
      <trkpt lat="45.93279" lon="4.58053">
        <ele>437.4</ele>
        <time>2022-06-26T06:15:40Z</time>
      </trkpt>
      <trkpt lat="45.9327" lon="4.58057">
        <ele>436.8</ele>
        <time>2022-06-26T06:15:41Z</time>
      </trkpt>
      <trkpt lat="45.9326" lon="4.58059">
        <ele>436.2</ele>
        <time>2022-06-26T06:15:42Z</time>
      </trkpt>
      <trkpt lat="45.9325" lon="4.58062">
        <ele>435.4</ele>
        <time>2022-06-26T06:15:43Z</time>
      </trkpt>
      <trkpt lat="45.93241" lon="4.58065">
        <ele>434.4</ele>
        <time>2022-06-26T06:15:44Z</time>
      </trkpt>
      <trkpt lat="45.93235" lon="4.58069">
        <ele>433.4</ele>
        <time>2022-06-26T06:15:45Z</time>
      </trkpt>
      <trkpt lat="45.93227" lon="4.58072">
        <ele>432.6</ele>
        <time>2022-06-26T06:15:46Z</time>
      </trkpt>
      <trkpt lat="45.93221" lon="4.58074">
        <ele>432</ele>
        <time>2022-06-26T06:15:47Z</time>
      </trkpt>
      <trkpt lat="45.93215" lon="4.58076">
        <ele>431.4</ele>
        <time>2022-06-26T06:15:48Z</time>
      </trkpt>
      <trkpt lat="45.93208" lon="4.58078">
        <ele>430.8</ele>
        <time>2022-06-26T06:15:49Z</time>
      </trkpt>
      <trkpt lat="45.93202" lon="4.58078">
        <ele>430.4</ele>
        <time>2022-06-26T06:15:50Z</time>
      </trkpt>
      <trkpt lat="45.93196" lon="4.58079">
        <ele>430</ele>
        <time>2022-06-26T06:15:51Z</time>
      </trkpt>
      <trkpt lat="45.9319" lon="4.58078">
        <ele>429.6</ele>
        <time>2022-06-26T06:15:52Z</time>
      </trkpt>
      <trkpt lat="45.93184" lon="4.58077">
        <ele>429.2</ele>
        <time>2022-06-26T06:15:53Z</time>
      </trkpt>
      <trkpt lat="45.93178" lon="4.58075">
        <ele>428.8</ele>
        <time>2022-06-26T06:15:54Z</time>
      </trkpt>
      <trkpt lat="45.93171" lon="4.58074">
        <ele>428.4</ele>
        <time>2022-06-26T06:15:55Z</time>
      </trkpt>
      <trkpt lat="45.93163" lon="4.58072">
        <ele>428</ele>
        <time>2022-06-26T06:15:56Z</time>
      </trkpt>
      <trkpt lat="45.93155" lon="4.5807">
        <ele>427.6</ele>
        <time>2022-06-26T06:15:57Z</time>
      </trkpt>
      <trkpt lat="45.93148" lon="4.58067">
        <ele>427.2</ele>
        <time>2022-06-26T06:15:58Z</time>
      </trkpt>
      <trkpt lat="45.93141" lon="4.58064">
        <ele>426.6</ele>
        <time>2022-06-26T06:15:59Z</time>
      </trkpt>
      <trkpt lat="45.93133" lon="4.5806">
        <ele>426.2</ele>
        <time>2022-06-26T06:16:00Z</time>
      </trkpt>
      <trkpt lat="45.93125" lon="4.58056">
        <ele>425.6</ele>
        <time>2022-06-26T06:16:01Z</time>
      </trkpt>
      <trkpt lat="45.93117" lon="4.58052">
        <ele>425</ele>
        <time>2022-06-26T06:16:02Z</time>
      </trkpt>
      <trkpt lat="45.93108" lon="4.58049">
        <ele>424.6</ele>
        <time>2022-06-26T06:16:03Z</time>
      </trkpt>
      <trkpt lat="45.93098" lon="4.58046">
        <ele>424.6</ele>
        <time>2022-06-26T06:16:04Z</time>
      </trkpt>
      <trkpt lat="45.93087" lon="4.58044">
        <ele>424</ele>
        <time>2022-06-26T06:16:05Z</time>
      </trkpt>
      <trkpt lat="45.93077" lon="4.58043">
        <ele>424</ele>
        <time>2022-06-26T06:16:06Z</time>
      </trkpt>
      <trkpt lat="45.93067" lon="4.58043">
        <ele>423.8</ele>
        <time>2022-06-26T06:16:07Z</time>
      </trkpt>
      <trkpt lat="45.93056" lon="4.58044">
        <ele>423.2</ele>
        <time>2022-06-26T06:16:08Z</time>
      </trkpt>
      <trkpt lat="45.93046" lon="4.58045">
        <ele>422.8</ele>
        <time>2022-06-26T06:16:09Z</time>
      </trkpt>
      <trkpt lat="45.93034" lon="4.58048">
        <ele>422.2</ele>
        <time>2022-06-26T06:16:10Z</time>
      </trkpt>
      <trkpt lat="45.93023" lon="4.58052">
        <ele>422.2</ele>
        <time>2022-06-26T06:16:11Z</time>
      </trkpt>
      <trkpt lat="45.93011" lon="4.58055">
        <ele>422</ele>
        <time>2022-06-26T06:16:12Z</time>
      </trkpt>
      <trkpt lat="45.92999" lon="4.58059">
        <ele>421.4</ele>
        <time>2022-06-26T06:16:13Z</time>
      </trkpt>
      <trkpt lat="45.92987" lon="4.58062">
        <ele>421</ele>
        <time>2022-06-26T06:16:14Z</time>
      </trkpt>
      <trkpt lat="45.92976" lon="4.58066">
        <ele>420.6</ele>
        <time>2022-06-26T06:16:15Z</time>
      </trkpt>
      <trkpt lat="45.92964" lon="4.58069">
        <ele>420</ele>
        <time>2022-06-26T06:16:16Z</time>
      </trkpt>
      <trkpt lat="45.92952" lon="4.58073">
        <ele>419.4</ele>
        <time>2022-06-26T06:16:17Z</time>
      </trkpt>
      <trkpt lat="45.9294" lon="4.58077">
        <ele>419.4</ele>
        <time>2022-06-26T06:16:18Z</time>
      </trkpt>
      <trkpt lat="45.92929" lon="4.58081">
        <ele>419.4</ele>
        <time>2022-06-26T06:16:19Z</time>
      </trkpt>
      <trkpt lat="45.92917" lon="4.58085">
        <ele>418.6</ele>
        <time>2022-06-26T06:16:20Z</time>
      </trkpt>
      <trkpt lat="45.92905" lon="4.58089">
        <ele>418.2</ele>
        <time>2022-06-26T06:16:21Z</time>
      </trkpt>
      <trkpt lat="45.92894" lon="4.58092">
        <ele>417.4</ele>
        <time>2022-06-26T06:16:22Z</time>
      </trkpt>
      <trkpt lat="45.92882" lon="4.58097">
        <ele>416.2</ele>
        <time>2022-06-26T06:16:23Z</time>
      </trkpt>
      <trkpt lat="45.92871" lon="4.58101">
        <ele>415.2</ele>
        <time>2022-06-26T06:16:24Z</time>
      </trkpt>
      <trkpt lat="45.92859" lon="4.58105">
        <ele>414.4</ele>
        <time>2022-06-26T06:16:25Z</time>
      </trkpt>
      <trkpt lat="45.92848" lon="4.5811">
        <ele>413.8</ele>
        <time>2022-06-26T06:16:26Z</time>
      </trkpt>
      <trkpt lat="45.92837" lon="4.58115">
        <ele>412.8</ele>
        <time>2022-06-26T06:16:27Z</time>
      </trkpt>
      <trkpt lat="45.92826" lon="4.5812">
        <ele>411.6</ele>
        <time>2022-06-26T06:16:28Z</time>
      </trkpt>
      <trkpt lat="45.92815" lon="4.58124">
        <ele>410.8</ele>
        <time>2022-06-26T06:16:29Z</time>
      </trkpt>
      <trkpt lat="45.92805" lon="4.58128">
        <ele>409.8</ele>
        <time>2022-06-26T06:16:30Z</time>
      </trkpt>
      <trkpt lat="45.92795" lon="4.58132">
        <ele>409.4</ele>
        <time>2022-06-26T06:16:31Z</time>
      </trkpt>
      <trkpt lat="45.92786" lon="4.58136">
        <ele>409</ele>
        <time>2022-06-26T06:16:32Z</time>
      </trkpt>
      <trkpt lat="45.92776" lon="4.5814">
        <ele>408.8</ele>
        <time>2022-06-26T06:16:33Z</time>
      </trkpt>
      <trkpt lat="45.92766" lon="4.58144">
        <ele>408.4</ele>
        <time>2022-06-26T06:16:34Z</time>
      </trkpt>
      <trkpt lat="45.92756" lon="4.58148">
        <ele>408</ele>
        <time>2022-06-26T06:16:35Z</time>
      </trkpt>
      <trkpt lat="45.92746" lon="4.58151">
        <ele>407.8</ele>
        <time>2022-06-26T06:16:36Z</time>
      </trkpt>
      <trkpt lat="45.92738" lon="4.58154">
        <ele>407.4</ele>
        <time>2022-06-26T06:16:37Z</time>
      </trkpt>
      <trkpt lat="45.92729" lon="4.58157">
        <ele>407.4</ele>
        <time>2022-06-26T06:16:38Z</time>
      </trkpt>
      <trkpt lat="45.92719" lon="4.5816">
        <ele>407.4</ele>
        <time>2022-06-26T06:16:39Z</time>
      </trkpt>
      <trkpt lat="45.92711" lon="4.58164">
        <ele>407.6</ele>
        <time>2022-06-26T06:16:40Z</time>
      </trkpt>
      <trkpt lat="45.92703" lon="4.58167">
        <ele>407.4</ele>
        <time>2022-06-26T06:16:41Z</time>
      </trkpt>
      <trkpt lat="45.92699" lon="4.58168">
        <ele>405</ele>
        <time>2022-06-26T06:16:42Z</time>
      </trkpt>
      <trkpt lat="45.92695" lon="4.58169">
        <ele>402.6</ele>
        <time>2022-06-26T06:16:43Z</time>
      </trkpt>
      <trkpt lat="45.92687" lon="4.58172">
        <ele>400.8</ele>
        <time>2022-06-26T06:16:44Z</time>
      </trkpt>
      <trkpt lat="45.92678" lon="4.58175">
        <ele>399.2</ele>
        <time>2022-06-26T06:16:45Z</time>
      </trkpt>
      <trkpt lat="45.9267" lon="4.58178">
        <ele>397.8</ele>
        <time>2022-06-26T06:16:46Z</time>
      </trkpt>
      <trkpt lat="45.92662" lon="4.5818">
        <ele>396.6</ele>
        <time>2022-06-26T06:16:47Z</time>
      </trkpt>
      <trkpt lat="45.92653" lon="4.58182">
        <ele>395.4</ele>
        <time>2022-06-26T06:16:48Z</time>
      </trkpt>
      <trkpt lat="45.92645" lon="4.58185">
        <ele>394.4</ele>
        <time>2022-06-26T06:16:49Z</time>
      </trkpt>
      <trkpt lat="45.92637" lon="4.58188">
        <ele>393.4</ele>
        <time>2022-06-26T06:16:50Z</time>
      </trkpt>
      <trkpt lat="45.9263" lon="4.58191">
        <ele>392.6</ele>
        <time>2022-06-26T06:16:51Z</time>
      </trkpt>
      <trkpt lat="45.92624" lon="4.58193">
        <ele>391.6</ele>
        <time>2022-06-26T06:16:52Z</time>
      </trkpt>
      <trkpt lat="45.92618" lon="4.58194">
        <ele>390.8</ele>
        <time>2022-06-26T06:16:53Z</time>
      </trkpt>
      <trkpt lat="45.92612" lon="4.58195">
        <ele>390.2</ele>
        <time>2022-06-26T06:16:54Z</time>
      </trkpt>
      <trkpt lat="45.92607" lon="4.58195">
        <ele>389.6</ele>
        <time>2022-06-26T06:16:55Z</time>
      </trkpt>
      <trkpt lat="45.92601" lon="4.58194">
        <ele>389.2</ele>
        <time>2022-06-26T06:16:56Z</time>
      </trkpt>
      <trkpt lat="45.92595" lon="4.58193">
        <ele>388.8</ele>
        <time>2022-06-26T06:16:57Z</time>
      </trkpt>
      <trkpt lat="45.92589" lon="4.58194">
        <ele>388.4</ele>
        <time>2022-06-26T06:16:58Z</time>
      </trkpt>
      <trkpt lat="45.92584" lon="4.58198">
        <ele>387.8</ele>
        <time>2022-06-26T06:16:59Z</time>
      </trkpt>
      <trkpt lat="45.92578" lon="4.58203">
        <ele>387.4</ele>
        <time>2022-06-26T06:17:00Z</time>
      </trkpt>
      <trkpt lat="45.92572" lon="4.58207">
        <ele>386.8</ele>
        <time>2022-06-26T06:17:01Z</time>
      </trkpt>
      <trkpt lat="45.92565" lon="4.58211">
        <ele>386.4</ele>
        <time>2022-06-26T06:17:02Z</time>
      </trkpt>
      <trkpt lat="45.92557" lon="4.58215">
        <ele>386</ele>
        <time>2022-06-26T06:17:03Z</time>
      </trkpt>
      <trkpt lat="45.9255" lon="4.58219">
        <ele>385.6</ele>
        <time>2022-06-26T06:17:04Z</time>
      </trkpt>
      <trkpt lat="45.92542" lon="4.58223">
        <ele>385.2</ele>
        <time>2022-06-26T06:17:05Z</time>
      </trkpt>
      <trkpt lat="45.92534" lon="4.58227">
        <ele>384.8</ele>
        <time>2022-06-26T06:17:06Z</time>
      </trkpt>
      <trkpt lat="45.92527" lon="4.58231">
        <ele>384.4</ele>
        <time>2022-06-26T06:17:07Z</time>
      </trkpt>
      <trkpt lat="45.92519" lon="4.58235">
        <ele>384</ele>
        <time>2022-06-26T06:17:08Z</time>
      </trkpt>
      <trkpt lat="45.92513" lon="4.58238">
        <ele>383.6</ele>
        <time>2022-06-26T06:17:09Z</time>
      </trkpt>
      <trkpt lat="45.92507" lon="4.58241">
        <ele>383.4</ele>
        <time>2022-06-26T06:17:10Z</time>
      </trkpt>
      <trkpt lat="45.92501" lon="4.58244">
        <ele>383.2</ele>
        <time>2022-06-26T06:17:11Z</time>
      </trkpt>
      <trkpt lat="45.92495" lon="4.58246">
        <ele>382.8</ele>
        <time>2022-06-26T06:17:12Z</time>
      </trkpt>
      <trkpt lat="45.9249" lon="4.58249">
        <ele>382.6</ele>
        <time>2022-06-26T06:17:13Z</time>
      </trkpt>
      <trkpt lat="45.92484" lon="4.58251">
        <ele>382.4</ele>
        <time>2022-06-26T06:17:14Z</time>
      </trkpt>
      <trkpt lat="45.92478" lon="4.58255">
        <ele>382</ele>
        <time>2022-06-26T06:17:15Z</time>
      </trkpt>
      <trkpt lat="45.92472" lon="4.58259">
        <ele>381.8</ele>
        <time>2022-06-26T06:17:16Z</time>
      </trkpt>
      <trkpt lat="45.92466" lon="4.58263">
        <ele>381.8</ele>
        <time>2022-06-26T06:17:17Z</time>
      </trkpt>
      <trkpt lat="45.92461" lon="4.58267">
        <ele>381.6</ele>
        <time>2022-06-26T06:17:18Z</time>
      </trkpt>
      <trkpt lat="45.92456" lon="4.58271">
        <ele>381.6</ele>
        <time>2022-06-26T06:17:19Z</time>
      </trkpt>
      <trkpt lat="45.9245" lon="4.58276">
        <ele>381.2</ele>
        <time>2022-06-26T06:17:20Z</time>
      </trkpt>
      <trkpt lat="45.92445" lon="4.58281">
        <ele>381</ele>
        <time>2022-06-26T06:17:21Z</time>
      </trkpt>
      <trkpt lat="45.9244" lon="4.58285">
        <ele>381</ele>
        <time>2022-06-26T06:17:22Z</time>
      </trkpt>
      <trkpt lat="45.92434" lon="4.5829">
        <ele>380.6</ele>
        <time>2022-06-26T06:17:23Z</time>
      </trkpt>
      <trkpt lat="45.92429" lon="4.58295">
        <ele>380.6</ele>
        <time>2022-06-26T06:17:24Z</time>
      </trkpt>
      <trkpt lat="45.92423" lon="4.58301">
        <ele>380.4</ele>
        <time>2022-06-26T06:17:25Z</time>
      </trkpt>
      <trkpt lat="45.92418" lon="4.58306">
        <ele>380.4</ele>
        <time>2022-06-26T06:17:26Z</time>
      </trkpt>
      <trkpt lat="45.92412" lon="4.58311">
        <ele>380</ele>
        <time>2022-06-26T06:17:27Z</time>
      </trkpt>
      <trkpt lat="45.92407" lon="4.58317">
        <ele>380</ele>
        <time>2022-06-26T06:17:28Z</time>
      </trkpt>
      <trkpt lat="45.92401" lon="4.58322">
        <ele>379.8</ele>
        <time>2022-06-26T06:17:29Z</time>
      </trkpt>
      <trkpt lat="45.92395" lon="4.58328">
        <ele>379.8</ele>
        <time>2022-06-26T06:17:30Z</time>
      </trkpt>
      <trkpt lat="45.9239" lon="4.58333">
        <ele>379.4</ele>
        <time>2022-06-26T06:17:31Z</time>
      </trkpt>
      <trkpt lat="45.92384" lon="4.58338">
        <ele>379.4</ele>
        <time>2022-06-26T06:17:32Z</time>
      </trkpt>
      <trkpt lat="45.92378" lon="4.58343">
        <ele>379.2</ele>
        <time>2022-06-26T06:17:33Z</time>
      </trkpt>
      <trkpt lat="45.92373" lon="4.58348">
        <ele>379.2</ele>
        <time>2022-06-26T06:17:34Z</time>
      </trkpt>
      <trkpt lat="45.92367" lon="4.58352">
        <ele>379</ele>
        <time>2022-06-26T06:17:35Z</time>
      </trkpt>
      <trkpt lat="45.92361" lon="4.58357">
        <ele>379</ele>
        <time>2022-06-26T06:17:36Z</time>
      </trkpt>
      <trkpt lat="45.92356" lon="4.58363">
        <ele>378.6</ele>
        <time>2022-06-26T06:17:37Z</time>
      </trkpt>
      <trkpt lat="45.9235" lon="4.58367">
        <ele>378.6</ele>
        <time>2022-06-26T06:17:38Z</time>
      </trkpt>
      <trkpt lat="45.92345" lon="4.58372">
        <ele>378.6</ele>
        <time>2022-06-26T06:17:39Z</time>
      </trkpt>
      <trkpt lat="45.9234" lon="4.58377">
        <ele>378.6</ele>
        <time>2022-06-26T06:17:40Z</time>
      </trkpt>
      <trkpt lat="45.92335" lon="4.58381">
        <ele>378.4</ele>
        <time>2022-06-26T06:17:41Z</time>
      </trkpt>
      <trkpt lat="45.9233" lon="4.58386">
        <ele>378.4</ele>
        <time>2022-06-26T06:17:42Z</time>
      </trkpt>
      <trkpt lat="45.92325" lon="4.58391">
        <ele>378.4</ele>
        <time>2022-06-26T06:17:43Z</time>
      </trkpt>
      <trkpt lat="45.9232" lon="4.58396">
        <ele>378</ele>
        <time>2022-06-26T06:17:44Z</time>
      </trkpt>
      <trkpt lat="45.92315" lon="4.58403">
        <ele>378</ele>
        <time>2022-06-26T06:17:45Z</time>
      </trkpt>
      <trkpt lat="45.92311" lon="4.58409">
        <ele>378</ele>
        <time>2022-06-26T06:17:46Z</time>
      </trkpt>
      <trkpt lat="45.92306" lon="4.58415">
        <ele>377.8</ele>
        <time>2022-06-26T06:17:47Z</time>
      </trkpt>
      <trkpt lat="45.92302" lon="4.58422">
        <ele>377.8</ele>
        <time>2022-06-26T06:17:48Z</time>
      </trkpt>
      <trkpt lat="45.92297" lon="4.58429">
        <ele>377.8</ele>
        <time>2022-06-26T06:17:49Z</time>
      </trkpt>
      <trkpt lat="45.92293" lon="4.58435">
        <ele>377.4</ele>
        <time>2022-06-26T06:17:50Z</time>
      </trkpt>
      <trkpt lat="45.92288" lon="4.58442">
        <ele>377.2</ele>
        <time>2022-06-26T06:17:51Z</time>
      </trkpt>
      <trkpt lat="45.92283" lon="4.58448">
        <ele>377</ele>
        <time>2022-06-26T06:17:52Z</time>
      </trkpt>
      <trkpt lat="45.92273" lon="4.58458">
        <ele>377</ele>
        <time>2022-06-26T06:17:53Z</time>
      </trkpt>
      <trkpt lat="45.92268" lon="4.58463">
        <ele>376.8</ele>
        <time>2022-06-26T06:17:54Z</time>
      </trkpt>
      <trkpt lat="45.92264" lon="4.58468">
        <ele>376.8</ele>
        <time>2022-06-26T06:17:55Z</time>
      </trkpt>
      <trkpt lat="45.9226" lon="4.58473">
        <ele>376.4</ele>
        <time>2022-06-26T06:17:56Z</time>
      </trkpt>
      <trkpt lat="45.92255" lon="4.58477">
        <ele>376</ele>
        <time>2022-06-26T06:17:57Z</time>
      </trkpt>
      <trkpt lat="45.9225" lon="4.58482">
        <ele>376</ele>
        <time>2022-06-26T06:17:58Z</time>
      </trkpt>
      <trkpt lat="45.92246" lon="4.58486">
        <ele>375.6</ele>
        <time>2022-06-26T06:17:59Z</time>
      </trkpt>
      <trkpt lat="45.92242" lon="4.58491">
        <ele>375.4</ele>
        <time>2022-06-26T06:18:00Z</time>
      </trkpt>
      <trkpt lat="45.92238" lon="4.58495">
        <ele>375.4</ele>
        <time>2022-06-26T06:18:01Z</time>
      </trkpt>
      <trkpt lat="45.92234" lon="4.585">
        <ele>375</ele>
        <time>2022-06-26T06:18:02Z</time>
      </trkpt>
      <trkpt lat="45.9223" lon="4.58504">
        <ele>374.8</ele>
        <time>2022-06-26T06:18:03Z</time>
      </trkpt>
      <trkpt lat="45.92227" lon="4.58508">
        <ele>374.6</ele>
        <time>2022-06-26T06:18:04Z</time>
      </trkpt>
      <trkpt lat="45.92223" lon="4.58511">
        <ele>374.2</ele>
        <time>2022-06-26T06:18:05Z</time>
      </trkpt>
      <trkpt lat="45.9222" lon="4.58515">
        <ele>374</ele>
        <time>2022-06-26T06:18:06Z</time>
      </trkpt>
      <trkpt lat="45.92216" lon="4.58518">
        <ele>374</ele>
        <time>2022-06-26T06:18:07Z</time>
      </trkpt>
      <trkpt lat="45.92213" lon="4.58521">
        <ele>373.6</ele>
        <time>2022-06-26T06:18:08Z</time>
      </trkpt>
      <trkpt lat="45.9221" lon="4.58525">
        <ele>373.4</ele>
        <time>2022-06-26T06:18:09Z</time>
      </trkpt>
      <trkpt lat="45.92207" lon="4.58527">
        <ele>373.2</ele>
        <time>2022-06-26T06:18:10Z</time>
      </trkpt>
      <trkpt lat="45.92204" lon="4.58529">
        <ele>373.2</ele>
        <time>2022-06-26T06:18:11Z</time>
      </trkpt>
      <trkpt lat="45.92202" lon="4.58531">
        <ele>373</ele>
        <time>2022-06-26T06:18:12Z</time>
      </trkpt>
      <trkpt lat="45.922" lon="4.58533">
        <ele>373</ele>
        <time>2022-06-26T06:18:13Z</time>
      </trkpt>
      <trkpt lat="45.92198" lon="4.58536">
        <ele>372.6</ele>
        <time>2022-06-26T06:18:14Z</time>
      </trkpt>
      <trkpt lat="45.92196" lon="4.58537">
        <ele>372.6</ele>
        <time>2022-06-26T06:18:15Z</time>
      </trkpt>
      <trkpt lat="45.92195" lon="4.58539">
        <ele>372.2</ele>
        <time>2022-06-26T06:18:16Z</time>
      </trkpt>
      <trkpt lat="45.92193" lon="4.5854">
        <ele>372.2</ele>
        <time>2022-06-26T06:18:17Z</time>
      </trkpt>
      <trkpt lat="45.92191" lon="4.5854">
        <ele>372</ele>
        <time>2022-06-26T06:18:18Z</time>
      </trkpt>
      <trkpt lat="45.92189" lon="4.5854">
        <ele>372</ele>
        <time>2022-06-26T06:18:19Z</time>
      </trkpt>
      <trkpt lat="45.92187" lon="4.58539">
        <ele>371.8</ele>
        <time>2022-06-26T06:18:20Z</time>
      </trkpt>
      <trkpt lat="45.92185" lon="4.58537">
        <ele>371.8</ele>
        <time>2022-06-26T06:18:21Z</time>
      </trkpt>
      <trkpt lat="45.92184" lon="4.58534">
        <ele>371.8</ele>
        <time>2022-06-26T06:18:22Z</time>
      </trkpt>
      <trkpt lat="45.92183" lon="4.58531">
        <ele>371.8</ele>
        <time>2022-06-26T06:18:23Z</time>
      </trkpt>
      <trkpt lat="45.92182" lon="4.58527">
        <ele>371.6</ele>
        <time>2022-06-26T06:18:24Z</time>
      </trkpt>
      <trkpt lat="45.92181" lon="4.58524">
        <ele>371.6</ele>
        <time>2022-06-26T06:18:25Z</time>
      </trkpt>
      <trkpt lat="45.92179" lon="4.58521">
        <ele>371.6</ele>
        <time>2022-06-26T06:18:26Z</time>
      </trkpt>
      <trkpt lat="45.92178" lon="4.58517">
        <ele>371.6</ele>
        <time>2022-06-26T06:18:27Z</time>
      </trkpt>
      <trkpt lat="45.92177" lon="4.58513">
        <ele>371.6</ele>
        <time>2022-06-26T06:18:28Z</time>
      </trkpt>
      <trkpt lat="45.92175" lon="4.5851">
        <ele>371.6</ele>
        <time>2022-06-26T06:18:29Z</time>
      </trkpt>
      <trkpt lat="45.92174" lon="4.58506">
        <ele>371.2</ele>
        <time>2022-06-26T06:18:30Z</time>
      </trkpt>
      <trkpt lat="45.92172" lon="4.58502">
        <ele>371.2</ele>
        <time>2022-06-26T06:18:31Z</time>
      </trkpt>
      <trkpt lat="45.9217" lon="4.58499">
        <ele>371.2</ele>
        <time>2022-06-26T06:18:32Z</time>
      </trkpt>
      <trkpt lat="45.92168" lon="4.58496">
        <ele>371</ele>
        <time>2022-06-26T06:18:33Z</time>
      </trkpt>
      <trkpt lat="45.92167" lon="4.58494">
        <ele>371</ele>
        <time>2022-06-26T06:18:34Z</time>
      </trkpt>
      <trkpt lat="45.92164" lon="4.58492">
        <ele>371</ele>
        <time>2022-06-26T06:18:35Z</time>
      </trkpt>
      <trkpt lat="45.92161" lon="4.58492">
        <ele>370.8</ele>
        <time>2022-06-26T06:18:36Z</time>
      </trkpt>
      <trkpt lat="45.92159" lon="4.58492">
        <ele>370.8</ele>
        <time>2022-06-26T06:18:37Z</time>
      </trkpt>
      <trkpt lat="45.92156" lon="4.58493">
        <ele>370.6</ele>
        <time>2022-06-26T06:18:38Z</time>
      </trkpt>
      <trkpt lat="45.92153" lon="4.58495">
        <ele>370.6</ele>
        <time>2022-06-26T06:18:39Z</time>
      </trkpt>
      <trkpt lat="45.92151" lon="4.58497">
        <ele>370.6</ele>
        <time>2022-06-26T06:18:40Z</time>
      </trkpt>
      <trkpt lat="45.92149" lon="4.58499">
        <ele>370.4</ele>
        <time>2022-06-26T06:18:41Z</time>
      </trkpt>
      <trkpt lat="45.92147" lon="4.58501">
        <ele>370.4</ele>
        <time>2022-06-26T06:18:42Z</time>
      </trkpt>
      <trkpt lat="45.92146" lon="4.58504">
        <ele>370.2</ele>
        <time>2022-06-26T06:18:43Z</time>
      </trkpt>
      <trkpt lat="45.92144" lon="4.58506">
        <ele>370.2</ele>
        <time>2022-06-26T06:18:44Z</time>
      </trkpt>
      <trkpt lat="45.92141" lon="4.58508">
        <ele>370.2</ele>
        <time>2022-06-26T06:18:45Z</time>
      </trkpt>
      <trkpt lat="45.92139" lon="4.58511">
        <ele>370.2</ele>
        <time>2022-06-26T06:18:46Z</time>
      </trkpt>
      <trkpt lat="45.92137" lon="4.58513">
        <ele>370.2</ele>
        <time>2022-06-26T06:18:47Z</time>
      </trkpt>
      <trkpt lat="45.92135" lon="4.58515">
        <ele>370.2</ele>
        <time>2022-06-26T06:18:48Z</time>
      </trkpt>
      <trkpt lat="45.92132" lon="4.58516">
        <ele>370</ele>
        <time>2022-06-26T06:18:49Z</time>
      </trkpt>
      <trkpt lat="45.9213" lon="4.58518">
        <ele>370</ele>
        <time>2022-06-26T06:18:50Z</time>
      </trkpt>
      <trkpt lat="45.92128" lon="4.5852">
        <ele>370</ele>
        <time>2022-06-26T06:18:51Z</time>
      </trkpt>
      <trkpt lat="45.92126" lon="4.58522">
        <ele>370</ele>
        <time>2022-06-26T06:18:52Z</time>
      </trkpt>
      <trkpt lat="45.92123" lon="4.58524">
        <ele>370</ele>
        <time>2022-06-26T06:18:53Z</time>
      </trkpt>
      <trkpt lat="45.92121" lon="4.58526">
        <ele>369.6</ele>
        <time>2022-06-26T06:18:54Z</time>
      </trkpt>
      <trkpt lat="45.92119" lon="4.58528">
        <ele>369.6</ele>
        <time>2022-06-26T06:18:55Z</time>
      </trkpt>
      <trkpt lat="45.92117" lon="4.5853">
        <ele>369.6</ele>
        <time>2022-06-26T06:18:56Z</time>
      </trkpt>
      <trkpt lat="45.92114" lon="4.58531">
        <ele>369.4</ele>
        <time>2022-06-26T06:18:57Z</time>
      </trkpt>
      <trkpt lat="45.92112" lon="4.58532">
        <ele>369.4</ele>
        <time>2022-06-26T06:18:58Z</time>
      </trkpt>
      <trkpt lat="45.92109" lon="4.58533">
        <ele>369.4</ele>
        <time>2022-06-26T06:18:59Z</time>
      </trkpt>
      <trkpt lat="45.92107" lon="4.58535">
        <ele>369.4</ele>
        <time>2022-06-26T06:19:00Z</time>
      </trkpt>
      <trkpt lat="45.92105" lon="4.58537">
        <ele>369.4</ele>
        <time>2022-06-26T06:19:01Z</time>
      </trkpt>
      <trkpt lat="45.92103" lon="4.58538">
        <ele>369.4</ele>
        <time>2022-06-26T06:19:02Z</time>
      </trkpt>
      <trkpt lat="45.921" lon="4.58539">
        <ele>369.4</ele>
        <time>2022-06-26T06:19:03Z</time>
      </trkpt>
      <trkpt lat="45.92098" lon="4.5854">
        <ele>369.2</ele>
        <time>2022-06-26T06:19:04Z</time>
      </trkpt>
      <trkpt lat="45.92096" lon="4.58543">
        <ele>369.2</ele>
        <time>2022-06-26T06:19:05Z</time>
      </trkpt>
      <trkpt lat="45.92093" lon="4.58545">
        <ele>369.2</ele>
        <time>2022-06-26T06:19:06Z</time>
      </trkpt>
      <trkpt lat="45.92091" lon="4.58548">
        <ele>369</ele>
        <time>2022-06-26T06:19:07Z</time>
      </trkpt>
      <trkpt lat="45.92088" lon="4.58551">
        <ele>369</ele>
        <time>2022-06-26T06:19:08Z</time>
      </trkpt>
      <trkpt lat="45.92086" lon="4.58552">
        <ele>369</ele>
        <time>2022-06-26T06:19:09Z</time>
      </trkpt>
      <trkpt lat="45.92084" lon="4.58554">
        <ele>368.8</ele>
        <time>2022-06-26T06:19:10Z</time>
      </trkpt>
      <trkpt lat="45.92082" lon="4.58556">
        <ele>368.8</ele>
        <time>2022-06-26T06:19:11Z</time>
      </trkpt>
      <trkpt lat="45.9208" lon="4.5856">
        <ele>368.8</ele>
        <time>2022-06-26T06:19:12Z</time>
      </trkpt>
      <trkpt lat="45.92078" lon="4.58561">
        <ele>368.8</ele>
        <time>2022-06-26T06:19:13Z</time>
      </trkpt>
      <trkpt lat="45.92076" lon="4.58562">
        <ele>368.8</ele>
        <time>2022-06-26T06:19:14Z</time>
      </trkpt>
      <trkpt lat="45.92074" lon="4.58562">
        <ele>368.8</ele>
        <time>2022-06-26T06:19:15Z</time>
      </trkpt>
      <trkpt lat="45.92073" lon="4.58562">
        <ele>368.4</ele>
        <time>2022-06-26T06:19:16Z</time>
      </trkpt>
      <trkpt lat="45.92071" lon="4.58563">
        <ele>368.4</ele>
        <time>2022-06-26T06:19:17Z</time>
      </trkpt>
      <trkpt lat="45.9207" lon="4.58563">
        <ele>368.4</ele>
        <time>2022-06-26T06:19:18Z</time>
      </trkpt>
      <trkpt lat="45.92068" lon="4.58562">
        <ele>368.4</ele>
        <time>2022-06-26T06:19:19Z</time>
      </trkpt>
      <trkpt lat="45.92067" lon="4.58561">
        <ele>368.4</ele>
        <time>2022-06-26T06:19:20Z</time>
      </trkpt>
      <trkpt lat="45.92066" lon="4.5856">
        <ele>368.4</ele>
        <time>2022-06-26T06:19:21Z</time>
      </trkpt>
      <trkpt lat="45.92065" lon="4.58559">
        <ele>368.4</ele>
        <time>2022-06-26T06:19:22Z</time>
      </trkpt>
      <trkpt lat="45.92064" lon="4.58559">
        <ele>368.4</ele>
        <time>2022-06-26T06:19:23Z</time>
      </trkpt>
      <trkpt lat="45.9206" lon="4.58554">
        <ele>368.2</ele>
        <time>2022-06-26T06:19:27Z</time>
      </trkpt>
      <trkpt lat="45.92058" lon="4.58553">
        <ele>368</ele>
        <time>2022-06-26T06:19:28Z</time>
      </trkpt>
      <trkpt lat="45.92056" lon="4.58553">
        <ele>368</ele>
        <time>2022-06-26T06:19:29Z</time>
      </trkpt>
      <trkpt lat="45.92055" lon="4.58552">
        <ele>367.6</ele>
        <time>2022-06-26T06:19:30Z</time>
      </trkpt>
      <trkpt lat="45.92054" lon="4.58552">
        <ele>367.6</ele>
        <time>2022-06-26T06:19:31Z</time>
      </trkpt>
      <trkpt lat="45.92052" lon="4.58552">
        <ele>367.4</ele>
        <time>2022-06-26T06:19:32Z</time>
      </trkpt>
      <trkpt lat="45.92051" lon="4.58552">
        <ele>367.4</ele>
        <time>2022-06-26T06:19:33Z</time>
      </trkpt>
      <trkpt lat="45.92049" lon="4.58552">
        <ele>367</ele>
        <time>2022-06-26T06:19:34Z</time>
      </trkpt>
      <trkpt lat="45.92048" lon="4.58552">
        <ele>367</ele>
        <time>2022-06-26T06:19:35Z</time>
      </trkpt>
      <trkpt lat="45.92044" lon="4.58549">
        <ele>366.4</ele>
        <time>2022-06-26T06:28:39Z</time>
      </trkpt>
      <trkpt lat="45.92045" lon="4.58547">
        <ele>366.4</ele>
        <time>2022-06-26T06:28:40Z</time>
      </trkpt>
      <trkpt lat="45.92046" lon="4.58547">
        <ele>366.6</ele>
        <time>2022-06-26T06:28:41Z</time>
      </trkpt>
      <trkpt lat="45.92051" lon="4.5855">
        <ele>367.2</ele>
        <time>2022-06-26T06:28:53Z</time>
      </trkpt>
      <trkpt lat="45.92052" lon="4.58551">
        <ele>367.2</ele>
        <time>2022-06-26T06:28:55Z</time>
      </trkpt>
      <trkpt lat="45.92056" lon="4.58554">
        <ele>367.6</ele>
        <time>2022-06-26T06:29:00Z</time>
      </trkpt>
      <trkpt lat="45.92057" lon="4.58555">
        <ele>367.8</ele>
        <time>2022-06-26T06:29:01Z</time>
      </trkpt>
      <trkpt lat="45.92058" lon="4.58555">
        <ele>367.8</ele>
        <time>2022-06-26T06:29:02Z</time>
      </trkpt>
      <trkpt lat="45.92058" lon="4.58556">
        <ele>367.8</ele>
        <time>2022-06-26T06:29:03Z</time>
      </trkpt>
      <trkpt lat="45.9207" lon="4.58554">
        <ele>368.4</ele>
        <time>2022-06-26T06:29:19Z</time>
      </trkpt>
      <trkpt lat="45.92071" lon="4.58553">
        <ele>368.4</ele>
        <time>2022-06-26T06:29:20Z</time>
      </trkpt>
      <trkpt lat="45.92072" lon="4.58552">
        <ele>368.4</ele>
        <time>2022-06-26T06:29:21Z</time>
      </trkpt>
      <trkpt lat="45.92073" lon="4.58551">
        <ele>368.4</ele>
        <time>2022-06-26T06:29:22Z</time>
      </trkpt>
      <trkpt lat="45.92074" lon="4.5855">
        <ele>368.6</ele>
        <time>2022-06-26T06:29:23Z</time>
      </trkpt>
      <trkpt lat="45.92075" lon="4.5855">
        <ele>368.6</ele>
        <time>2022-06-26T06:29:24Z</time>
      </trkpt>
      <trkpt lat="45.92076" lon="4.58549">
        <ele>368.6</ele>
        <time>2022-06-26T06:29:25Z</time>
      </trkpt>
      <trkpt lat="45.92077" lon="4.58548">
        <ele>368.6</ele>
        <time>2022-06-26T06:29:26Z</time>
      </trkpt>
      <trkpt lat="45.92078" lon="4.58547">
        <ele>368.6</ele>
        <time>2022-06-26T06:29:27Z</time>
      </trkpt>
      <trkpt lat="45.92079" lon="4.58546">
        <ele>368.6</ele>
        <time>2022-06-26T06:29:28Z</time>
      </trkpt>
      <trkpt lat="45.9208" lon="4.58546">
        <ele>368.8</ele>
        <time>2022-06-26T06:29:29Z</time>
      </trkpt>
      <trkpt lat="45.92081" lon="4.58545">
        <ele>368.8</ele>
        <time>2022-06-26T06:29:30Z</time>
      </trkpt>
      <trkpt lat="45.92082" lon="4.58544">
        <ele>368.8</ele>
        <time>2022-06-26T06:29:31Z</time>
      </trkpt>
      <trkpt lat="45.92083" lon="4.58544">
        <ele>368.8</ele>
        <time>2022-06-26T06:29:32Z</time>
      </trkpt>
      <trkpt lat="45.92084" lon="4.58543">
        <ele>368.8</ele>
        <time>2022-06-26T06:29:33Z</time>
      </trkpt>
      <trkpt lat="45.92085" lon="4.58542">
        <ele>368.8</ele>
        <time>2022-06-26T06:29:34Z</time>
      </trkpt>
      <trkpt lat="45.92087" lon="4.58542">
        <ele>368.8</ele>
        <time>2022-06-26T06:29:35Z</time>
      </trkpt>
      <trkpt lat="45.92088" lon="4.58541">
        <ele>368.8</ele>
        <time>2022-06-26T06:29:36Z</time>
      </trkpt>
      <trkpt lat="45.92089" lon="4.58541">
        <ele>368.8</ele>
        <time>2022-06-26T06:29:37Z</time>
      </trkpt>
      <trkpt lat="45.9209" lon="4.5854">
        <ele>368.8</ele>
        <time>2022-06-26T06:29:38Z</time>
      </trkpt>
      <trkpt lat="45.92091" lon="4.5854">
        <ele>368.8</ele>
        <time>2022-06-26T06:29:39Z</time>
      </trkpt>
      <trkpt lat="45.92093" lon="4.5854">
        <ele>368.8</ele>
        <time>2022-06-26T06:29:40Z</time>
      </trkpt>
      <trkpt lat="45.92094" lon="4.58539">
        <ele>369</ele>
        <time>2022-06-26T06:29:41Z</time>
      </trkpt>
      <trkpt lat="45.92095" lon="4.58539">
        <ele>369</ele>
        <time>2022-06-26T06:29:42Z</time>
      </trkpt>
      <trkpt lat="45.92097" lon="4.58538">
        <ele>369</ele>
        <time>2022-06-26T06:29:43Z</time>
      </trkpt>
      <trkpt lat="45.92098" lon="4.58538">
        <ele>369</ele>
        <time>2022-06-26T06:29:44Z</time>
      </trkpt>
      <trkpt lat="45.92099" lon="4.58538">
        <ele>369</ele>
        <time>2022-06-26T06:29:45Z</time>
      </trkpt>
      <trkpt lat="45.92104" lon="4.58544">
        <ele>369</ele>
        <time>2022-06-26T06:29:51Z</time>
      </trkpt>
      <trkpt lat="45.92105" lon="4.58545">
        <ele>369</ele>
        <time>2022-06-26T06:29:52Z</time>
      </trkpt>
      <trkpt lat="45.92107" lon="4.58547">
        <ele>369</ele>
        <time>2022-06-26T06:29:53Z</time>
      </trkpt>
      <trkpt lat="45.92111" lon="4.58553">
        <ele>369</ele>
        <time>2022-06-26T06:29:58Z</time>
      </trkpt>
      <trkpt lat="45.92112" lon="4.58554">
        <ele>369</ele>
        <time>2022-06-26T06:29:59Z</time>
      </trkpt>
      <trkpt lat="45.92114" lon="4.58555">
        <ele>369</ele>
        <time>2022-06-26T06:30:00Z</time>
      </trkpt>
      <trkpt lat="45.92115" lon="4.58556">
        <ele>369.2</ele>
        <time>2022-06-26T06:30:01Z</time>
      </trkpt>
      <trkpt lat="45.92116" lon="4.58557">
        <ele>369.2</ele>
        <time>2022-06-26T06:30:02Z</time>
      </trkpt>
      <trkpt lat="45.92117" lon="4.58557">
        <ele>369.2</ele>
        <time>2022-06-26T06:30:03Z</time>
      </trkpt>
      <trkpt lat="45.92118" lon="4.58558">
        <ele>369.2</ele>
        <time>2022-06-26T06:30:04Z</time>
      </trkpt>
      <trkpt lat="45.92119" lon="4.58558">
        <ele>369.2</ele>
        <time>2022-06-26T06:30:05Z</time>
      </trkpt>
      <trkpt lat="45.92121" lon="4.58558">
        <ele>369.4</ele>
        <time>2022-06-26T06:30:06Z</time>
      </trkpt>
      <trkpt lat="45.92122" lon="4.58558">
        <ele>369.4</ele>
        <time>2022-06-26T06:30:07Z</time>
      </trkpt>
      <trkpt lat="45.92123" lon="4.58557">
        <ele>369.4</ele>
        <time>2022-06-26T06:30:08Z</time>
      </trkpt>
      <trkpt lat="45.92126" lon="4.58557">
        <ele>369.4</ele>
        <time>2022-06-26T06:30:11Z</time>
      </trkpt>
      <trkpt lat="45.92127" lon="4.58557">
        <ele>369.4</ele>
        <time>2022-06-26T06:30:12Z</time>
      </trkpt>
      <trkpt lat="45.92128" lon="4.58557">
        <ele>369.4</ele>
        <time>2022-06-26T06:30:13Z</time>
      </trkpt>
      <trkpt lat="45.92129" lon="4.58557">
        <ele>369.6</ele>
        <time>2022-06-26T06:30:14Z</time>
      </trkpt>
      <trkpt lat="45.9213" lon="4.58556">
        <ele>369.6</ele>
        <time>2022-06-26T06:30:15Z</time>
      </trkpt>
      <trkpt lat="45.92131" lon="4.58556">
        <ele>369.6</ele>
        <time>2022-06-26T06:30:16Z</time>
      </trkpt>
      <trkpt lat="45.92132" lon="4.58555">
        <ele>369.6</ele>
        <time>2022-06-26T06:30:17Z</time>
      </trkpt>
      <trkpt lat="45.92133" lon="4.58555">
        <ele>369.6</ele>
        <time>2022-06-26T06:30:18Z</time>
      </trkpt>
      <trkpt lat="45.92135" lon="4.58555">
        <ele>369.6</ele>
        <time>2022-06-26T06:30:19Z</time>
      </trkpt>
      <trkpt lat="45.92136" lon="4.58554">
        <ele>369.6</ele>
        <time>2022-06-26T06:30:20Z</time>
      </trkpt>
      <trkpt lat="45.92137" lon="4.58554">
        <ele>370</ele>
        <time>2022-06-26T06:30:21Z</time>
      </trkpt>
      <trkpt lat="45.92138" lon="4.58553">
        <ele>370</ele>
        <time>2022-06-26T06:30:22Z</time>
      </trkpt>
      <trkpt lat="45.92148" lon="4.5855">
        <ele>369.8</ele>
        <time>2022-06-26T06:31:57Z</time>
      </trkpt>
      <trkpt lat="45.92149" lon="4.58549">
        <ele>369.8</ele>
        <time>2022-06-26T06:31:58Z</time>
      </trkpt>
      <trkpt lat="45.9215" lon="4.58549">
        <ele>370</ele>
        <time>2022-06-26T06:31:59Z</time>
      </trkpt>
      <trkpt lat="45.92151" lon="4.58548">
        <ele>370</ele>
        <time>2022-06-26T06:32:00Z</time>
      </trkpt>
      <trkpt lat="45.92152" lon="4.58548">
        <ele>370</ele>
        <time>2022-06-26T06:32:01Z</time>
      </trkpt>
      <trkpt lat="45.92153" lon="4.58547">
        <ele>370</ele>
        <time>2022-06-26T06:32:02Z</time>
      </trkpt>
      <trkpt lat="45.92154" lon="4.58546">
        <ele>370</ele>
        <time>2022-06-26T06:32:03Z</time>
      </trkpt>
      <trkpt lat="45.92155" lon="4.58545">
        <ele>370</ele>
        <time>2022-06-26T06:32:04Z</time>
      </trkpt>
      <trkpt lat="45.92167" lon="4.58545">
        <ele>370.6</ele>
        <time>2022-06-26T06:32:25Z</time>
      </trkpt>
      <trkpt lat="45.92167" lon="4.58544">
        <ele>370.2</ele>
        <time>2022-06-26T06:32:26Z</time>
      </trkpt>
      <trkpt lat="45.92168" lon="4.58542">
        <ele>370.2</ele>
        <time>2022-06-26T06:32:27Z</time>
      </trkpt>
      <trkpt lat="45.92174" lon="4.58532">
        <ele>367.6</ele>
        <time>2022-06-26T07:42:43Z</time>
      </trkpt>
      <trkpt lat="45.92174" lon="4.58531">
        <ele>367.6</ele>
        <time>2022-06-26T07:42:44Z</time>
      </trkpt>
      <trkpt lat="45.92175" lon="4.58529">
        <ele>367.6</ele>
        <time>2022-06-26T07:42:45Z</time>
      </trkpt>
      <trkpt lat="45.92175" lon="4.58528">
        <ele>367.6</ele>
        <time>2022-06-26T07:42:46Z</time>
      </trkpt>
      <trkpt lat="45.92175" lon="4.58526">
        <ele>367.6</ele>
        <time>2022-06-26T07:42:47Z</time>
      </trkpt>
      <trkpt lat="45.92175" lon="4.58524">
        <ele>367.6</ele>
        <time>2022-06-26T07:42:48Z</time>
      </trkpt>
      <trkpt lat="45.92175" lon="4.58522">
        <ele>367.6</ele>
        <time>2022-06-26T07:42:49Z</time>
      </trkpt>
      <trkpt lat="45.92175" lon="4.5852">
        <ele>367.6</ele>
        <time>2022-06-26T07:42:50Z</time>
      </trkpt>
      <trkpt lat="45.92175" lon="4.58519">
        <ele>367.6</ele>
        <time>2022-06-26T07:42:51Z</time>
      </trkpt>
      <trkpt lat="45.92174" lon="4.58517">
        <ele>367.6</ele>
        <time>2022-06-26T07:42:52Z</time>
      </trkpt>
      <trkpt lat="45.92174" lon="4.58515">
        <ele>367.6</ele>
        <time>2022-06-26T07:42:53Z</time>
      </trkpt>
      <trkpt lat="45.92174" lon="4.58512">
        <ele>367.6</ele>
        <time>2022-06-26T07:42:54Z</time>
      </trkpt>
      <trkpt lat="45.92173" lon="4.5851">
        <ele>367.6</ele>
        <time>2022-06-26T07:42:55Z</time>
      </trkpt>
      <trkpt lat="45.92172" lon="4.58507">
        <ele>367.2</ele>
        <time>2022-06-26T07:42:56Z</time>
      </trkpt>
      <trkpt lat="45.92172" lon="4.58505">
        <ele>367.2</ele>
        <time>2022-06-26T07:42:57Z</time>
      </trkpt>
      <trkpt lat="45.92171" lon="4.58503">
        <ele>367.2</ele>
        <time>2022-06-26T07:42:58Z</time>
      </trkpt>
      <trkpt lat="45.9217" lon="4.58501">
        <ele>367.2</ele>
        <time>2022-06-26T07:42:59Z</time>
      </trkpt>
      <trkpt lat="45.9217" lon="4.58499">
        <ele>367.2</ele>
        <time>2022-06-26T07:43:00Z</time>
      </trkpt>
      <trkpt lat="45.9217" lon="4.58497">
        <ele>367.2</ele>
        <time>2022-06-26T07:43:01Z</time>
      </trkpt>
      <trkpt lat="45.92169" lon="4.58494">
        <ele>367.2</ele>
        <time>2022-06-26T07:43:02Z</time>
      </trkpt>
      <trkpt lat="45.92169" lon="4.58492">
        <ele>367</ele>
        <time>2022-06-26T07:43:03Z</time>
      </trkpt>
      <trkpt lat="45.92169" lon="4.58489">
        <ele>367</ele>
        <time>2022-06-26T07:43:04Z</time>
      </trkpt>
      <trkpt lat="45.92169" lon="4.58486">
        <ele>367</ele>
        <time>2022-06-26T07:43:05Z</time>
      </trkpt>
      <trkpt lat="45.92169" lon="4.58483">
        <ele>367</ele>
        <time>2022-06-26T07:43:06Z</time>
      </trkpt>
      <trkpt lat="45.92168" lon="4.5848">
        <ele>366.8</ele>
        <time>2022-06-26T07:43:07Z</time>
      </trkpt>
      <trkpt lat="45.92166" lon="4.58477">
        <ele>366.8</ele>
        <time>2022-06-26T07:43:08Z</time>
      </trkpt>
      <trkpt lat="45.92165" lon="4.58474">
        <ele>366.8</ele>
        <time>2022-06-26T07:43:09Z</time>
      </trkpt>
      <trkpt lat="45.92164" lon="4.58471">
        <ele>366.8</ele>
        <time>2022-06-26T07:43:10Z</time>
      </trkpt>
      <trkpt lat="45.92162" lon="4.58467">
        <ele>366.6</ele>
        <time>2022-06-26T07:43:11Z</time>
      </trkpt>
      <trkpt lat="45.92159" lon="4.58463">
        <ele>366.6</ele>
        <time>2022-06-26T07:43:12Z</time>
      </trkpt>
      <trkpt lat="45.92157" lon="4.58459">
        <ele>366.2</ele>
        <time>2022-06-26T07:43:13Z</time>
      </trkpt>
      <trkpt lat="45.92155" lon="4.58455">
        <ele>366.2</ele>
        <time>2022-06-26T07:43:14Z</time>
      </trkpt>
      <trkpt lat="45.92151" lon="4.58452">
        <ele>366</ele>
        <time>2022-06-26T07:43:15Z</time>
      </trkpt>
      <trkpt lat="45.92147" lon="4.58448">
        <ele>366</ele>
        <time>2022-06-26T07:43:16Z</time>
      </trkpt>
      <trkpt lat="45.92144" lon="4.58443">
        <ele>365.8</ele>
        <time>2022-06-26T07:43:17Z</time>
      </trkpt>
      <trkpt lat="45.92141" lon="4.58439">
        <ele>365.2</ele>
        <time>2022-06-26T07:43:18Z</time>
      </trkpt>
      <trkpt lat="45.92138" lon="4.58435">
        <ele>364.8</ele>
        <time>2022-06-26T07:43:19Z</time>
      </trkpt>
      <trkpt lat="45.92136" lon="4.58432">
        <ele>364.6</ele>
        <time>2022-06-26T07:43:20Z</time>
      </trkpt>
      <trkpt lat="45.92133" lon="4.58429">
        <ele>364.2</ele>
        <time>2022-06-26T07:43:21Z</time>
      </trkpt>
      <trkpt lat="45.92131" lon="4.58426">
        <ele>364</ele>
        <time>2022-06-26T07:43:22Z</time>
      </trkpt>
      <trkpt lat="45.92128" lon="4.58423">
        <ele>363.6</ele>
        <time>2022-06-26T07:43:23Z</time>
      </trkpt>
      <trkpt lat="45.92126" lon="4.5842">
        <ele>363.2</ele>
        <time>2022-06-26T07:43:24Z</time>
      </trkpt>
      <trkpt lat="45.92124" lon="4.58416">
        <ele>363</ele>
        <time>2022-06-26T07:43:25Z</time>
      </trkpt>
      <trkpt lat="45.92121" lon="4.58413">
        <ele>362.6</ele>
        <time>2022-06-26T07:43:26Z</time>
      </trkpt>
      <trkpt lat="45.92116" lon="4.5841">
        <ele>362.4</ele>
        <time>2022-06-26T07:43:27Z</time>
      </trkpt>
      <trkpt lat="45.92111" lon="4.58409">
        <ele>362</ele>
        <time>2022-06-26T07:43:28Z</time>
      </trkpt>
      <trkpt lat="45.92105" lon="4.58406">
        <ele>361.8</ele>
        <time>2022-06-26T07:43:29Z</time>
      </trkpt>
      <trkpt lat="45.92099" lon="4.58404">
        <ele>361.4</ele>
        <time>2022-06-26T07:43:30Z</time>
      </trkpt>
      <trkpt lat="45.92092" lon="4.58403">
        <ele>361.2</ele>
        <time>2022-06-26T07:43:31Z</time>
      </trkpt>
      <trkpt lat="45.92086" lon="4.58401">
        <ele>360.8</ele>
        <time>2022-06-26T07:43:32Z</time>
      </trkpt>
      <trkpt lat="45.92078" lon="4.58401">
        <ele>360.8</ele>
        <time>2022-06-26T07:43:33Z</time>
      </trkpt>
      <trkpt lat="45.92071" lon="4.584">
        <ele>360.2</ele>
        <time>2022-06-26T07:43:34Z</time>
      </trkpt>
      <trkpt lat="45.92063" lon="4.58401">
        <ele>359.8</ele>
        <time>2022-06-26T07:43:35Z</time>
      </trkpt>
      <trkpt lat="45.92057" lon="4.58402">
        <ele>359.2</ele>
        <time>2022-06-26T07:43:36Z</time>
      </trkpt>
      <trkpt lat="45.9205" lon="4.58403">
        <ele>358.6</ele>
        <time>2022-06-26T07:43:37Z</time>
      </trkpt>
      <trkpt lat="45.92044" lon="4.58404">
        <ele>358.2</ele>
        <time>2022-06-26T07:43:38Z</time>
      </trkpt>
      <trkpt lat="45.92039" lon="4.58404">
        <ele>357.8</ele>
        <time>2022-06-26T07:43:39Z</time>
      </trkpt>
      <trkpt lat="45.92033" lon="4.58403">
        <ele>357.6</ele>
        <time>2022-06-26T07:43:40Z</time>
      </trkpt>
      <trkpt lat="45.92027" lon="4.58404">
        <ele>357.6</ele>
        <time>2022-06-26T07:43:41Z</time>
      </trkpt>
      <trkpt lat="45.92022" lon="4.58404">
        <ele>357.2</ele>
        <time>2022-06-26T07:43:42Z</time>
      </trkpt>
      <trkpt lat="45.92017" lon="4.58403">
        <ele>357</ele>
        <time>2022-06-26T07:43:43Z</time>
      </trkpt>
      <trkpt lat="45.92011" lon="4.584">
        <ele>356.6</ele>
        <time>2022-06-26T07:43:44Z</time>
      </trkpt>
      <trkpt lat="45.92006" lon="4.58396">
        <ele>356.4</ele>
        <time>2022-06-26T07:43:45Z</time>
      </trkpt>
      <trkpt lat="45.92" lon="4.58391">
        <ele>356</ele>
        <time>2022-06-26T07:43:46Z</time>
      </trkpt>
      <trkpt lat="45.91996" lon="4.58385">
        <ele>355.8</ele>
        <time>2022-06-26T07:43:47Z</time>
      </trkpt>
      <trkpt lat="45.91991" lon="4.58379">
        <ele>355.4</ele>
        <time>2022-06-26T07:43:48Z</time>
      </trkpt>
      <trkpt lat="45.91987" lon="4.58374">
        <ele>355.2</ele>
        <time>2022-06-26T07:43:49Z</time>
      </trkpt>
      <trkpt lat="45.91984" lon="4.58369">
        <ele>354.8</ele>
        <time>2022-06-26T07:43:50Z</time>
      </trkpt>
      <trkpt lat="45.91981" lon="4.58364">
        <ele>354.6</ele>
        <time>2022-06-26T07:43:51Z</time>
      </trkpt>
      <trkpt lat="45.91979" lon="4.5836">
        <ele>354.4</ele>
        <time>2022-06-26T07:43:52Z</time>
      </trkpt>
      <trkpt lat="45.91977" lon="4.58355">
        <ele>354.2</ele>
        <time>2022-06-26T07:43:53Z</time>
      </trkpt>
      <trkpt lat="45.91975" lon="4.58351">
        <ele>354.2</ele>
        <time>2022-06-26T07:43:54Z</time>
      </trkpt>
      <trkpt lat="45.91973" lon="4.58346">
        <ele>353.8</ele>
        <time>2022-06-26T07:43:55Z</time>
      </trkpt>
      <trkpt lat="45.91969" lon="4.58341">
        <ele>353.6</ele>
        <time>2022-06-26T07:43:56Z</time>
      </trkpt>
      <trkpt lat="45.91966" lon="4.58335">
        <ele>353.6</ele>
        <time>2022-06-26T07:43:57Z</time>
      </trkpt>
      <trkpt lat="45.91964" lon="4.5833">
        <ele>353.2</ele>
        <time>2022-06-26T07:43:58Z</time>
      </trkpt>
      <trkpt lat="45.9196" lon="4.58324">
        <ele>353.2</ele>
        <time>2022-06-26T07:43:59Z</time>
      </trkpt>
      <trkpt lat="45.91957" lon="4.58319">
        <ele>353.2</ele>
        <time>2022-06-26T07:44:00Z</time>
      </trkpt>
      <trkpt lat="45.91954" lon="4.58313">
        <ele>352.8</ele>
        <time>2022-06-26T07:44:01Z</time>
      </trkpt>
      <trkpt lat="45.9195" lon="4.58308">
        <ele>352.6</ele>
        <time>2022-06-26T07:44:02Z</time>
      </trkpt>
      <trkpt lat="45.91948" lon="4.58302">
        <ele>352.4</ele>
        <time>2022-06-26T07:44:03Z</time>
      </trkpt>
      <trkpt lat="45.91945" lon="4.58296">
        <ele>352.2</ele>
        <time>2022-06-26T07:44:04Z</time>
      </trkpt>
      <trkpt lat="45.91942" lon="4.5829">
        <ele>351.8</ele>
        <time>2022-06-26T07:44:05Z</time>
      </trkpt>
      <trkpt lat="45.9194" lon="4.58284">
        <ele>351.6</ele>
        <time>2022-06-26T07:44:06Z</time>
      </trkpt>
      <trkpt lat="45.91937" lon="4.58279">
        <ele>351.4</ele>
        <time>2022-06-26T07:44:07Z</time>
      </trkpt>
      <trkpt lat="45.91935" lon="4.58273">
        <ele>351.2</ele>
        <time>2022-06-26T07:44:08Z</time>
      </trkpt>
      <trkpt lat="45.91933" lon="4.58268">
        <ele>351.2</ele>
        <time>2022-06-26T07:44:09Z</time>
      </trkpt>
      <trkpt lat="45.9193" lon="4.58263">
        <ele>350.8</ele>
        <time>2022-06-26T07:44:10Z</time>
      </trkpt>
      <trkpt lat="45.91928" lon="4.58258">
        <ele>350.8</ele>
        <time>2022-06-26T07:44:11Z</time>
      </trkpt>
      <trkpt lat="45.91924" lon="4.58253">
        <ele>350.6</ele>
        <time>2022-06-26T07:44:12Z</time>
      </trkpt>
      <trkpt lat="45.91921" lon="4.58248">
        <ele>350.6</ele>
        <time>2022-06-26T07:44:13Z</time>
      </trkpt>
      <trkpt lat="45.91918" lon="4.58243">
        <ele>350.2</ele>
        <time>2022-06-26T07:44:14Z</time>
      </trkpt>
      <trkpt lat="45.91915" lon="4.58238">
        <ele>350</ele>
        <time>2022-06-26T07:44:15Z</time>
      </trkpt>
      <trkpt lat="45.91913" lon="4.58232">
        <ele>350</ele>
        <time>2022-06-26T07:44:16Z</time>
      </trkpt>
      <trkpt lat="45.9191" lon="4.58226">
        <ele>349.6</ele>
        <time>2022-06-26T07:44:17Z</time>
      </trkpt>
      <trkpt lat="45.91907" lon="4.5822">
        <ele>349.4</ele>
        <time>2022-06-26T07:44:18Z</time>
      </trkpt>
      <trkpt lat="45.91904" lon="4.58215">
        <ele>349.4</ele>
        <time>2022-06-26T07:44:19Z</time>
      </trkpt>
      <trkpt lat="45.91901" lon="4.58208">
        <ele>348.8</ele>
        <time>2022-06-26T07:44:20Z</time>
      </trkpt>
      <trkpt lat="45.91898" lon="4.58201">
        <ele>348.8</ele>
        <time>2022-06-26T07:44:21Z</time>
      </trkpt>
      <trkpt lat="45.91894" lon="4.58194">
        <ele>348.6</ele>
        <time>2022-06-26T07:44:22Z</time>
      </trkpt>
      <trkpt lat="45.9189" lon="4.58186">
        <ele>348.6</ele>
        <time>2022-06-26T07:44:23Z</time>
      </trkpt>
      <trkpt lat="45.91887" lon="4.58179">
        <ele>348.2</ele>
        <time>2022-06-26T07:44:24Z</time>
      </trkpt>
      <trkpt lat="45.91883" lon="4.58172">
        <ele>348.2</ele>
        <time>2022-06-26T07:44:25Z</time>
      </trkpt>
      <trkpt lat="45.91879" lon="4.58166">
        <ele>347.8</ele>
        <time>2022-06-26T07:44:26Z</time>
      </trkpt>
      <trkpt lat="45.91875" lon="4.58157">
        <ele>347.8</ele>
        <time>2022-06-26T07:44:27Z</time>
      </trkpt>
      <trkpt lat="45.91871" lon="4.58149">
        <ele>347.6</ele>
        <time>2022-06-26T07:44:28Z</time>
      </trkpt>
      <trkpt lat="45.91867" lon="4.58142">
        <ele>347.4</ele>
        <time>2022-06-26T07:44:29Z</time>
      </trkpt>
      <trkpt lat="45.91863" lon="4.58134">
        <ele>347.4</ele>
        <time>2022-06-26T07:44:30Z</time>
      </trkpt>
      <trkpt lat="45.91859" lon="4.58126">
        <ele>347</ele>
        <time>2022-06-26T07:44:31Z</time>
      </trkpt>
      <trkpt lat="45.91855" lon="4.58117">
        <ele>346.6</ele>
        <time>2022-06-26T07:44:32Z</time>
      </trkpt>
      <trkpt lat="45.9185" lon="4.58108">
        <ele>346.2</ele>
        <time>2022-06-26T07:44:33Z</time>
      </trkpt>
      <trkpt lat="45.91846" lon="4.58099">
        <ele>345.6</ele>
        <time>2022-06-26T07:44:34Z</time>
      </trkpt>
      <trkpt lat="45.91842" lon="4.5809">
        <ele>345.4</ele>
        <time>2022-06-26T07:44:35Z</time>
      </trkpt>
      <trkpt lat="45.91837" lon="4.58081">
        <ele>344.8</ele>
        <time>2022-06-26T07:44:36Z</time>
      </trkpt>
      <trkpt lat="45.91832" lon="4.58072">
        <ele>344.8</ele>
        <time>2022-06-26T07:44:37Z</time>
      </trkpt>
      <trkpt lat="45.91827" lon="4.58062">
        <ele>344.4</ele>
        <time>2022-06-26T07:44:38Z</time>
      </trkpt>
      <trkpt lat="45.91823" lon="4.58052">
        <ele>343.8</ele>
        <time>2022-06-26T07:44:39Z</time>
      </trkpt>
      <trkpt lat="45.91817" lon="4.58042">
        <ele>343.6</ele>
        <time>2022-06-26T07:44:40Z</time>
      </trkpt>
      <trkpt lat="45.91813" lon="4.58032">
        <ele>343.2</ele>
        <time>2022-06-26T07:44:41Z</time>
      </trkpt>
      <trkpt lat="45.91808" lon="4.58022">
        <ele>342.8</ele>
        <time>2022-06-26T07:44:42Z</time>
      </trkpt>
      <trkpt lat="45.91803" lon="4.58012">
        <ele>342.4</ele>
        <time>2022-06-26T07:44:43Z</time>
      </trkpt>
      <trkpt lat="45.91797" lon="4.58002">
        <ele>342</ele>
        <time>2022-06-26T07:44:44Z</time>
      </trkpt>
      <trkpt lat="45.91792" lon="4.57992">
        <ele>341.4</ele>
        <time>2022-06-26T07:44:45Z</time>
      </trkpt>
      <trkpt lat="45.91788" lon="4.57981">
        <ele>341</ele>
        <time>2022-06-26T07:44:46Z</time>
      </trkpt>
      <trkpt lat="45.91783" lon="4.57971">
        <ele>340.6</ele>
        <time>2022-06-26T07:44:47Z</time>
      </trkpt>
      <trkpt lat="45.91778" lon="4.57961">
        <ele>340.2</ele>
        <time>2022-06-26T07:44:48Z</time>
      </trkpt>
      <trkpt lat="45.91773" lon="4.57951">
        <ele>339.8</ele>
        <time>2022-06-26T07:44:49Z</time>
      </trkpt>
      <trkpt lat="45.91768" lon="4.57941">
        <ele>339.2</ele>
        <time>2022-06-26T07:44:50Z</time>
      </trkpt>
      <trkpt lat="45.91762" lon="4.57931">
        <ele>338.8</ele>
        <time>2022-06-26T07:44:51Z</time>
      </trkpt>
      <trkpt lat="45.91756" lon="4.5792">
        <ele>338.4</ele>
        <time>2022-06-26T07:44:52Z</time>
      </trkpt>
      <trkpt lat="45.9175" lon="4.57909">
        <ele>337.8</ele>
        <time>2022-06-26T07:44:53Z</time>
      </trkpt>
      <trkpt lat="45.91743" lon="4.579">
        <ele>337</ele>
        <time>2022-06-26T07:44:54Z</time>
      </trkpt>
      <trkpt lat="45.91734" lon="4.57891">
        <ele>336.4</ele>
        <time>2022-06-26T07:44:55Z</time>
      </trkpt>
      <trkpt lat="45.91726" lon="4.57883">
        <ele>335.8</ele>
        <time>2022-06-26T07:44:56Z</time>
      </trkpt>
      <trkpt lat="45.91718" lon="4.57874">
        <ele>335.2</ele>
        <time>2022-06-26T07:44:57Z</time>
      </trkpt>
      <trkpt lat="45.91708" lon="4.57867">
        <ele>334.6</ele>
        <time>2022-06-26T07:44:58Z</time>
      </trkpt>
      <trkpt lat="45.917" lon="4.57857">
        <ele>333.8</ele>
        <time>2022-06-26T07:44:59Z</time>
      </trkpt>
      <trkpt lat="45.91692" lon="4.57849">
        <ele>333.8</ele>
        <time>2022-06-26T07:45:00Z</time>
      </trkpt>
      <trkpt lat="45.91684" lon="4.57839">
        <ele>333.6</ele>
        <time>2022-06-26T07:45:01Z</time>
      </trkpt>
      <trkpt lat="45.91676" lon="4.57828">
        <ele>333.2</ele>
        <time>2022-06-26T07:45:02Z</time>
      </trkpt>
      <trkpt lat="45.91669" lon="4.57816">
        <ele>332.8</ele>
        <time>2022-06-26T07:45:03Z</time>
      </trkpt>
      <trkpt lat="45.91662" lon="4.57805">
        <ele>332.4</ele>
        <time>2022-06-26T07:45:04Z</time>
      </trkpt>
      <trkpt lat="45.91654" lon="4.57793">
        <ele>332</ele>
        <time>2022-06-26T07:45:05Z</time>
      </trkpt>
      <trkpt lat="45.91647" lon="4.57781">
        <ele>331.4</ele>
        <time>2022-06-26T07:45:06Z</time>
      </trkpt>
      <trkpt lat="45.91639" lon="4.57771">
        <ele>330.8</ele>
        <time>2022-06-26T07:45:07Z</time>
      </trkpt>
      <trkpt lat="45.91632" lon="4.57758">
        <ele>330.2</ele>
        <time>2022-06-26T07:45:08Z</time>
      </trkpt>
      <trkpt lat="45.91625" lon="4.57746">
        <ele>329.6</ele>
        <time>2022-06-26T07:45:09Z</time>
      </trkpt>
      <trkpt lat="45.91618" lon="4.57735">
        <ele>329</ele>
        <time>2022-06-26T07:45:10Z</time>
      </trkpt>
      <trkpt lat="45.9161" lon="4.57723">
        <ele>328.4</ele>
        <time>2022-06-26T07:45:11Z</time>
      </trkpt>
      <trkpt lat="45.91603" lon="4.57711">
        <ele>327.8</ele>
        <time>2022-06-26T07:45:12Z</time>
      </trkpt>
      <trkpt lat="45.91595" lon="4.57701">
        <ele>327</ele>
        <time>2022-06-26T07:45:13Z</time>
      </trkpt>
      <trkpt lat="45.91588" lon="4.57691">
        <ele>326.6</ele>
        <time>2022-06-26T07:45:14Z</time>
      </trkpt>
      <trkpt lat="45.9158" lon="4.57682">
        <ele>325.8</ele>
        <time>2022-06-26T07:45:15Z</time>
      </trkpt>
      <trkpt lat="45.91572" lon="4.57673">
        <ele>325.2</ele>
        <time>2022-06-26T07:45:16Z</time>
      </trkpt>
      <trkpt lat="45.91562" lon="4.57664">
        <ele>324.6</ele>
        <time>2022-06-26T07:45:17Z</time>
      </trkpt>
      <trkpt lat="45.91552" lon="4.57656">
        <ele>324</ele>
        <time>2022-06-26T07:45:18Z</time>
      </trkpt>
      <trkpt lat="45.91541" lon="4.57648">
        <ele>323.4</ele>
        <time>2022-06-26T07:45:19Z</time>
      </trkpt>
      <trkpt lat="45.91532" lon="4.5764">
        <ele>322.6</ele>
        <time>2022-06-26T07:45:20Z</time>
      </trkpt>
      <trkpt lat="45.91522" lon="4.57631">
        <ele>321.8</ele>
        <time>2022-06-26T07:45:21Z</time>
      </trkpt>
      <trkpt lat="45.91513" lon="4.57623">
        <ele>320.8</ele>
        <time>2022-06-26T07:45:22Z</time>
      </trkpt>
      <trkpt lat="45.91505" lon="4.57615">
        <ele>320.2</ele>
        <time>2022-06-26T07:45:23Z</time>
      </trkpt>
      <trkpt lat="45.91495" lon="4.57608">
        <ele>319.2</ele>
        <time>2022-06-26T07:45:24Z</time>
      </trkpt>
      <trkpt lat="45.91486" lon="4.57599">
        <ele>318.6</ele>
        <time>2022-06-26T07:45:25Z</time>
      </trkpt>
      <trkpt lat="45.91477" lon="4.57591">
        <ele>317.6</ele>
        <time>2022-06-26T07:45:26Z</time>
      </trkpt>
      <trkpt lat="45.91469" lon="4.57582">
        <ele>316.8</ele>
        <time>2022-06-26T07:45:27Z</time>
      </trkpt>
      <trkpt lat="45.91462" lon="4.57573">
        <ele>316.2</ele>
        <time>2022-06-26T07:45:28Z</time>
      </trkpt>
      <trkpt lat="45.91454" lon="4.57564">
        <ele>315.6</ele>
        <time>2022-06-26T07:45:29Z</time>
      </trkpt>
      <trkpt lat="45.91446" lon="4.57555">
        <ele>315</ele>
        <time>2022-06-26T07:45:30Z</time>
      </trkpt>
      <trkpt lat="45.91438" lon="4.57545">
        <ele>314.4</ele>
        <time>2022-06-26T07:45:31Z</time>
      </trkpt>
      <trkpt lat="45.9143" lon="4.57534">
        <ele>313.8</ele>
        <time>2022-06-26T07:45:32Z</time>
      </trkpt>
      <trkpt lat="45.91422" lon="4.57523">
        <ele>313.2</ele>
        <time>2022-06-26T07:45:33Z</time>
      </trkpt>
      <trkpt lat="45.91415" lon="4.57513">
        <ele>312.4</ele>
        <time>2022-06-26T07:45:34Z</time>
      </trkpt>
      <trkpt lat="45.91408" lon="4.57503">
        <ele>311.8</ele>
        <time>2022-06-26T07:45:35Z</time>
      </trkpt>
      <trkpt lat="45.91401" lon="4.57493">
        <ele>311</ele>
        <time>2022-06-26T07:45:36Z</time>
      </trkpt>
      <trkpt lat="45.91395" lon="4.57483">
        <ele>310.2</ele>
        <time>2022-06-26T07:45:37Z</time>
      </trkpt>
      <trkpt lat="45.91389" lon="4.57471">
        <ele>309.4</ele>
        <time>2022-06-26T07:45:38Z</time>
      </trkpt>
      <trkpt lat="45.91383" lon="4.5746">
        <ele>308.6</ele>
        <time>2022-06-26T07:45:39Z</time>
      </trkpt>
      <trkpt lat="45.91376" lon="4.5745">
        <ele>308</ele>
        <time>2022-06-26T07:45:40Z</time>
      </trkpt>
      <trkpt lat="45.9137" lon="4.57438">
        <ele>307.4</ele>
        <time>2022-06-26T07:45:41Z</time>
      </trkpt>
      <trkpt lat="45.91364" lon="4.57425">
        <ele>306.6</ele>
        <time>2022-06-26T07:45:42Z</time>
      </trkpt>
      <trkpt lat="45.91358" lon="4.57412">
        <ele>306</ele>
        <time>2022-06-26T07:45:43Z</time>
      </trkpt>
      <trkpt lat="45.91352" lon="4.57399">
        <ele>305.2</ele>
        <time>2022-06-26T07:45:44Z</time>
      </trkpt>
      <trkpt lat="45.91345" lon="4.57387">
        <ele>304.8</ele>
        <time>2022-06-26T07:45:45Z</time>
      </trkpt>
      <trkpt lat="45.91337" lon="4.57376">
        <ele>304</ele>
        <time>2022-06-26T07:45:46Z</time>
      </trkpt>
      <trkpt lat="45.91328" lon="4.57366">
        <ele>303.2</ele>
        <time>2022-06-26T07:45:47Z</time>
      </trkpt>
      <trkpt lat="45.91318" lon="4.57359">
        <ele>302.6</ele>
        <time>2022-06-26T07:45:48Z</time>
      </trkpt>
      <trkpt lat="45.91307" lon="4.57352">
        <ele>301.8</ele>
        <time>2022-06-26T07:45:49Z</time>
      </trkpt>
      <trkpt lat="45.91296" lon="4.57349">
        <ele>301.2</ele>
        <time>2022-06-26T07:45:50Z</time>
      </trkpt>
      <trkpt lat="45.91285" lon="4.5735">
        <ele>300.8</ele>
        <time>2022-06-26T07:45:51Z</time>
      </trkpt>
      <trkpt lat="45.91274" lon="4.57351">
        <ele>300.2</ele>
        <time>2022-06-26T07:45:52Z</time>
      </trkpt>
      <trkpt lat="45.91263" lon="4.57353">
        <ele>299.4</ele>
        <time>2022-06-26T07:45:53Z</time>
      </trkpt>
      <trkpt lat="45.91252" lon="4.57356">
        <ele>298.6</ele>
        <time>2022-06-26T07:45:54Z</time>
      </trkpt>
      <trkpt lat="45.91241" lon="4.57358">
        <ele>297.8</ele>
        <time>2022-06-26T07:45:55Z</time>
      </trkpt>
      <trkpt lat="45.9123" lon="4.5736">
        <ele>297</ele>
        <time>2022-06-26T07:45:56Z</time>
      </trkpt>
      <trkpt lat="45.91218" lon="4.57362">
        <ele>296.2</ele>
        <time>2022-06-26T07:45:57Z</time>
      </trkpt>
      <trkpt lat="45.91206" lon="4.57364">
        <ele>295.2</ele>
        <time>2022-06-26T07:45:58Z</time>
      </trkpt>
      <trkpt lat="45.91194" lon="4.57366">
        <ele>294.4</ele>
        <time>2022-06-26T07:45:59Z</time>
      </trkpt>
      <trkpt lat="45.91183" lon="4.57368">
        <ele>293.6</ele>
        <time>2022-06-26T07:46:00Z</time>
      </trkpt>
      <trkpt lat="45.91171" lon="4.5737">
        <ele>292.8</ele>
        <time>2022-06-26T07:46:01Z</time>
      </trkpt>
      <trkpt lat="45.9116" lon="4.57373">
        <ele>292</ele>
        <time>2022-06-26T07:46:02Z</time>
      </trkpt>
      <trkpt lat="45.91149" lon="4.57376">
        <ele>291.6</ele>
        <time>2022-06-26T07:46:03Z</time>
      </trkpt>
      <trkpt lat="45.91138" lon="4.57379">
        <ele>290.8</ele>
        <time>2022-06-26T07:46:04Z</time>
      </trkpt>
      <trkpt lat="45.91127" lon="4.57384">
        <ele>290.2</ele>
        <time>2022-06-26T07:46:05Z</time>
      </trkpt>
      <trkpt lat="45.91116" lon="4.57388">
        <ele>288.6</ele>
        <time>2022-06-26T07:46:07Z</time>
      </trkpt>
      <trkpt lat="45.91105" lon="4.57392">
        <ele>287.6</ele>
        <time>2022-06-26T07:46:08Z</time>
      </trkpt>
      <trkpt lat="45.91094" lon="4.57395">
        <ele>286.8</ele>
        <time>2022-06-26T07:46:09Z</time>
      </trkpt>
      <trkpt lat="45.91084" lon="4.574">
        <ele>286.2</ele>
        <time>2022-06-26T07:46:10Z</time>
      </trkpt>
      <trkpt lat="45.91075" lon="4.57404">
        <ele>285.2</ele>
        <time>2022-06-26T07:46:11Z</time>
      </trkpt>
      <trkpt lat="45.91065" lon="4.57407">
        <ele>284.6</ele>
        <time>2022-06-26T07:46:12Z</time>
      </trkpt>
      <trkpt lat="45.91055" lon="4.5741">
        <ele>283.8</ele>
        <time>2022-06-26T07:46:13Z</time>
      </trkpt>
      <trkpt lat="45.91045" lon="4.57411">
        <ele>283</ele>
        <time>2022-06-26T07:46:14Z</time>
      </trkpt>
      <trkpt lat="45.91035" lon="4.57412">
        <ele>282.2</ele>
        <time>2022-06-26T07:46:15Z</time>
      </trkpt>
      <trkpt lat="45.91025" lon="4.57413">
        <ele>281.4</ele>
        <time>2022-06-26T07:46:16Z</time>
      </trkpt>
      <trkpt lat="45.91016" lon="4.57413">
        <ele>280.8</ele>
        <time>2022-06-26T07:46:17Z</time>
      </trkpt>
      <trkpt lat="45.91008" lon="4.57414">
        <ele>280.2</ele>
        <time>2022-06-26T07:46:18Z</time>
      </trkpt>
      <trkpt lat="45.90999" lon="4.57415">
        <ele>279.6</ele>
        <time>2022-06-26T07:46:19Z</time>
      </trkpt>
      <trkpt lat="45.9099" lon="4.57415">
        <ele>279.2</ele>
        <time>2022-06-26T07:46:20Z</time>
      </trkpt>
      <trkpt lat="45.90982" lon="4.57415">
        <ele>278.4</ele>
        <time>2022-06-26T07:46:21Z</time>
      </trkpt>
      <trkpt lat="45.90973" lon="4.57414">
        <ele>277.8</ele>
        <time>2022-06-26T07:46:22Z</time>
      </trkpt>
      <trkpt lat="45.90965" lon="4.57413">
        <ele>277</ele>
        <time>2022-06-26T07:46:23Z</time>
      </trkpt>
      <trkpt lat="45.90957" lon="4.57411">
        <ele>276.6</ele>
        <time>2022-06-26T07:46:24Z</time>
      </trkpt>
      <trkpt lat="45.9095" lon="4.5741">
        <ele>276</ele>
        <time>2022-06-26T07:46:25Z</time>
      </trkpt>
      <trkpt lat="45.90943" lon="4.57408">
        <ele>275</ele>
        <time>2022-06-26T07:46:26Z</time>
      </trkpt>
      <trkpt lat="45.90936" lon="4.57405">
        <ele>274.4</ele>
        <time>2022-06-26T07:46:27Z</time>
      </trkpt>
      <trkpt lat="45.90928" lon="4.57401">
        <ele>274</ele>
        <time>2022-06-26T07:46:28Z</time>
      </trkpt>
      <trkpt lat="45.90921" lon="4.57397">
        <ele>273.6</ele>
        <time>2022-06-26T07:46:29Z</time>
      </trkpt>
      <trkpt lat="45.90914" lon="4.57393">
        <ele>273.2</ele>
        <time>2022-06-26T07:46:30Z</time>
      </trkpt>
      <trkpt lat="45.90907" lon="4.5739">
        <ele>272.8</ele>
        <time>2022-06-26T07:46:31Z</time>
      </trkpt>
      <trkpt lat="45.90899" lon="4.57386">
        <ele>272.4</ele>
        <time>2022-06-26T07:46:32Z</time>
      </trkpt>
      <trkpt lat="45.90892" lon="4.57382">
        <ele>272</ele>
        <time>2022-06-26T07:46:33Z</time>
      </trkpt>
      <trkpt lat="45.90886" lon="4.57377">
        <ele>271.4</ele>
        <time>2022-06-26T07:46:34Z</time>
      </trkpt>
      <trkpt lat="45.9088" lon="4.57373">
        <ele>271</ele>
        <time>2022-06-26T07:46:35Z</time>
      </trkpt>
      <trkpt lat="45.90874" lon="4.57369">
        <ele>270.4</ele>
        <time>2022-06-26T07:46:36Z</time>
      </trkpt>
      <trkpt lat="45.9087" lon="4.57366">
        <ele>270.2</ele>
        <time>2022-06-26T07:46:37Z</time>
      </trkpt>
      <trkpt lat="45.90866" lon="4.57362">
        <ele>269.6</ele>
        <time>2022-06-26T07:46:38Z</time>
      </trkpt>
      <trkpt lat="45.90862" lon="4.57359">
        <ele>269.2</ele>
        <time>2022-06-26T07:46:39Z</time>
      </trkpt>
      <trkpt lat="45.90858" lon="4.57356">
        <ele>268.8</ele>
        <time>2022-06-26T07:46:40Z</time>
      </trkpt>
      <trkpt lat="45.90855" lon="4.57353">
        <ele>268.4</ele>
        <time>2022-06-26T07:46:41Z</time>
      </trkpt>
      <trkpt lat="45.90852" lon="4.5735">
        <ele>268</ele>
        <time>2022-06-26T07:46:42Z</time>
      </trkpt>
      <trkpt lat="45.9085" lon="4.57346">
        <ele>267.4</ele>
        <time>2022-06-26T07:46:43Z</time>
      </trkpt>
      <trkpt lat="45.90849" lon="4.57342">
        <ele>267</ele>
        <time>2022-06-26T07:46:44Z</time>
      </trkpt>
      <trkpt lat="45.90848" lon="4.57338">
        <ele>266.8</ele>
        <time>2022-06-26T07:46:45Z</time>
      </trkpt>
      <trkpt lat="45.90848" lon="4.57334">
        <ele>266.4</ele>
        <time>2022-06-26T07:46:46Z</time>
      </trkpt>
      <trkpt lat="45.90848" lon="4.5733">
        <ele>266.2</ele>
        <time>2022-06-26T07:46:47Z</time>
      </trkpt>
      <trkpt lat="45.90849" lon="4.57328">
        <ele>265.8</ele>
        <time>2022-06-26T07:46:48Z</time>
      </trkpt>
      <trkpt lat="45.9085" lon="4.57325">
        <ele>265.6</ele>
        <time>2022-06-26T07:46:49Z</time>
      </trkpt>
      <trkpt lat="45.9085" lon="4.57324">
        <ele>265.4</ele>
        <time>2022-06-26T07:46:50Z</time>
      </trkpt>
      <trkpt lat="45.9085" lon="4.57323">
        <ele>265.4</ele>
        <time>2022-06-26T07:46:51Z</time>
      </trkpt>
      <trkpt lat="45.9085" lon="4.57322">
        <ele>265</ele>
        <time>2022-06-26T07:47:03Z</time>
      </trkpt>
      <trkpt lat="45.9085" lon="4.5732">
        <ele>265</ele>
        <time>2022-06-26T07:47:04Z</time>
      </trkpt>
      <trkpt lat="45.9085" lon="4.57317">
        <ele>265</ele>
        <time>2022-06-26T07:47:05Z</time>
      </trkpt>
      <trkpt lat="45.90849" lon="4.57314">
        <ele>265.2</ele>
        <time>2022-06-26T07:47:06Z</time>
      </trkpt>
      <trkpt lat="45.90847" lon="4.57311">
        <ele>265.4</ele>
        <time>2022-06-26T07:47:07Z</time>
      </trkpt>
      <trkpt lat="45.90845" lon="4.57309">
        <ele>265.4</ele>
        <time>2022-06-26T07:47:08Z</time>
      </trkpt>
      <trkpt lat="45.90842" lon="4.57307">
        <ele>265.4</ele>
        <time>2022-06-26T07:47:09Z</time>
      </trkpt>
      <trkpt lat="45.90839" lon="4.57306">
        <ele>265.4</ele>
        <time>2022-06-26T07:47:10Z</time>
      </trkpt>
      <trkpt lat="45.90836" lon="4.57305">
        <ele>265.4</ele>
        <time>2022-06-26T07:47:11Z</time>
      </trkpt>
      <trkpt lat="45.90833" lon="4.57304">
        <ele>265.4</ele>
        <time>2022-06-26T07:47:12Z</time>
      </trkpt>
      <trkpt lat="45.90829" lon="4.57304">
        <ele>265.4</ele>
        <time>2022-06-26T07:47:13Z</time>
      </trkpt>
      <trkpt lat="45.90825" lon="4.57303">
        <ele>265.4</ele>
        <time>2022-06-26T07:47:14Z</time>
      </trkpt>
      <trkpt lat="45.90821" lon="4.57304">
        <ele>265</ele>
        <time>2022-06-26T07:47:15Z</time>
      </trkpt>
      <trkpt lat="45.90816" lon="4.57304">
        <ele>265</ele>
        <time>2022-06-26T07:47:16Z</time>
      </trkpt>
      <trkpt lat="45.90812" lon="4.57305">
        <ele>265</ele>
        <time>2022-06-26T07:47:17Z</time>
      </trkpt>
      <trkpt lat="45.90808" lon="4.57306">
        <ele>264.8</ele>
        <time>2022-06-26T07:47:18Z</time>
      </trkpt>
      <trkpt lat="45.90803" lon="4.57307">
        <ele>264.8</ele>
        <time>2022-06-26T07:47:19Z</time>
      </trkpt>
      <trkpt lat="45.90798" lon="4.57308">
        <ele>264.8</ele>
        <time>2022-06-26T07:47:20Z</time>
      </trkpt>
      <trkpt lat="45.90793" lon="4.5731">
        <ele>264.6</ele>
        <time>2022-06-26T07:47:21Z</time>
      </trkpt>
      <trkpt lat="45.90788" lon="4.57313">
        <ele>264.6</ele>
        <time>2022-06-26T07:47:22Z</time>
      </trkpt>
      <trkpt lat="45.90783" lon="4.57316">
        <ele>264.2</ele>
        <time>2022-06-26T07:47:23Z</time>
      </trkpt>
      <trkpt lat="45.90778" lon="4.57319">
        <ele>264.2</ele>
        <time>2022-06-26T07:47:24Z</time>
      </trkpt>
      <trkpt lat="45.90773" lon="4.57323">
        <ele>263.8</ele>
        <time>2022-06-26T07:47:25Z</time>
      </trkpt>
      <trkpt lat="45.90767" lon="4.57328">
        <ele>263.6</ele>
        <time>2022-06-26T07:47:26Z</time>
      </trkpt>
      <trkpt lat="45.90762" lon="4.57333">
        <ele>263.4</ele>
        <time>2022-06-26T07:47:27Z</time>
      </trkpt>
      <trkpt lat="45.90757" lon="4.57339">
        <ele>263.2</ele>
        <time>2022-06-26T07:47:28Z</time>
      </trkpt>
      <trkpt lat="45.90752" lon="4.57345">
        <ele>263</ele>
        <time>2022-06-26T07:47:29Z</time>
      </trkpt>
      <trkpt lat="45.90747" lon="4.5735">
        <ele>262.6</ele>
        <time>2022-06-26T07:47:30Z</time>
      </trkpt>
      <trkpt lat="45.90743" lon="4.57356">
        <ele>262.2</ele>
        <time>2022-06-26T07:47:31Z</time>
      </trkpt>
      <trkpt lat="45.90739" lon="4.57362">
        <ele>262</ele>
        <time>2022-06-26T07:47:32Z</time>
      </trkpt>
      <trkpt lat="45.90735" lon="4.57368">
        <ele>261.8</ele>
        <time>2022-06-26T07:47:33Z</time>
      </trkpt>
      <trkpt lat="45.90732" lon="4.57373">
        <ele>261.8</ele>
        <time>2022-06-26T07:47:34Z</time>
      </trkpt>
      <trkpt lat="45.90729" lon="4.57378">
        <ele>261.4</ele>
        <time>2022-06-26T07:47:35Z</time>
      </trkpt>
      <trkpt lat="45.90727" lon="4.57382">
        <ele>261</ele>
        <time>2022-06-26T07:47:36Z</time>
      </trkpt>
      <trkpt lat="45.90724" lon="4.57387">
        <ele>261</ele>
        <time>2022-06-26T07:47:37Z</time>
      </trkpt>
      <trkpt lat="45.90721" lon="4.5739">
        <ele>260.8</ele>
        <time>2022-06-26T07:47:38Z</time>
      </trkpt>
      <trkpt lat="45.90718" lon="4.57393">
        <ele>260.8</ele>
        <time>2022-06-26T07:47:39Z</time>
      </trkpt>
      <trkpt lat="45.90714" lon="4.57394">
        <ele>260.6</ele>
        <time>2022-06-26T07:47:40Z</time>
      </trkpt>
      <trkpt lat="45.9071" lon="4.57395">
        <ele>260.6</ele>
        <time>2022-06-26T07:47:41Z</time>
      </trkpt>
      <trkpt lat="45.90706" lon="4.57395">
        <ele>260.6</ele>
        <time>2022-06-26T07:47:42Z</time>
      </trkpt>
      <trkpt lat="45.90701" lon="4.57394">
        <ele>260.4</ele>
        <time>2022-06-26T07:47:43Z</time>
      </trkpt>
      <trkpt lat="45.90698" lon="4.57392">
        <ele>260.4</ele>
        <time>2022-06-26T07:47:44Z</time>
      </trkpt>
      <trkpt lat="45.90694" lon="4.57389">
        <ele>260.4</ele>
        <time>2022-06-26T07:47:45Z</time>
      </trkpt>
      <trkpt lat="45.90691" lon="4.57387">
        <ele>260.4</ele>
        <time>2022-06-26T07:47:46Z</time>
      </trkpt>
      <trkpt lat="45.90687" lon="4.57384">
        <ele>260.4</ele>
        <time>2022-06-26T07:47:47Z</time>
      </trkpt>
      <trkpt lat="45.90684" lon="4.57381">
        <ele>260.6</ele>
        <time>2022-06-26T07:47:48Z</time>
      </trkpt>
      <trkpt lat="45.90681" lon="4.57379">
        <ele>260.6</ele>
        <time>2022-06-26T07:47:49Z</time>
      </trkpt>
      <trkpt lat="45.90677" lon="4.57376">
        <ele>260.8</ele>
        <time>2022-06-26T07:47:50Z</time>
      </trkpt>
      <trkpt lat="45.90674" lon="4.57374">
        <ele>260.8</ele>
        <time>2022-06-26T07:47:51Z</time>
      </trkpt>
      <trkpt lat="45.90671" lon="4.57372">
        <ele>261</ele>
        <time>2022-06-26T07:47:52Z</time>
      </trkpt>
      <trkpt lat="45.90668" lon="4.57369">
        <ele>261</ele>
        <time>2022-06-26T07:47:53Z</time>
      </trkpt>
      <trkpt lat="45.90665" lon="4.57367">
        <ele>261.2</ele>
        <time>2022-06-26T07:47:54Z</time>
      </trkpt>
      <trkpt lat="45.90662" lon="4.57365">
        <ele>261.2</ele>
        <time>2022-06-26T07:47:55Z</time>
      </trkpt>
      <trkpt lat="45.90659" lon="4.57362">
        <ele>261.2</ele>
        <time>2022-06-26T07:47:56Z</time>
      </trkpt>
      <trkpt lat="45.90656" lon="4.5736">
        <ele>261.6</ele>
        <time>2022-06-26T07:47:57Z</time>
      </trkpt>
      <trkpt lat="45.90653" lon="4.57358">
        <ele>261.6</ele>
        <time>2022-06-26T07:47:58Z</time>
      </trkpt>
      <trkpt lat="45.9065" lon="4.57356">
        <ele>261.6</ele>
        <time>2022-06-26T07:47:59Z</time>
      </trkpt>
      <trkpt lat="45.90647" lon="4.57354">
        <ele>261.6</ele>
        <time>2022-06-26T07:48:00Z</time>
      </trkpt>
      <trkpt lat="45.90644" lon="4.57352">
        <ele>261.6</ele>
        <time>2022-06-26T07:48:01Z</time>
      </trkpt>
      <trkpt lat="45.90641" lon="4.5735">
        <ele>261.6</ele>
        <time>2022-06-26T07:48:02Z</time>
      </trkpt>
      <trkpt lat="45.90637" lon="4.57348">
        <ele>261.6</ele>
        <time>2022-06-26T07:48:03Z</time>
      </trkpt>
      <trkpt lat="45.90634" lon="4.57346">
        <ele>261.6</ele>
        <time>2022-06-26T07:48:04Z</time>
      </trkpt>
      <trkpt lat="45.9063" lon="4.57343">
        <ele>261.6</ele>
        <time>2022-06-26T07:48:05Z</time>
      </trkpt>
      <trkpt lat="45.90626" lon="4.57341">
        <ele>261.6</ele>
        <time>2022-06-26T07:48:06Z</time>
      </trkpt>
      <trkpt lat="45.90622" lon="4.5734">
        <ele>261.6</ele>
        <time>2022-06-26T07:48:07Z</time>
      </trkpt>
      <trkpt lat="45.90618" lon="4.57339">
        <ele>261.6</ele>
        <time>2022-06-26T07:48:08Z</time>
      </trkpt>
      <trkpt lat="45.90613" lon="4.57338">
        <ele>261.4</ele>
        <time>2022-06-26T07:48:09Z</time>
      </trkpt>
      <trkpt lat="45.90609" lon="4.57338">
        <ele>261.4</ele>
        <time>2022-06-26T07:48:10Z</time>
      </trkpt>
      <trkpt lat="45.90605" lon="4.57338">
        <ele>261.2</ele>
        <time>2022-06-26T07:48:11Z</time>
      </trkpt>
      <trkpt lat="45.90601" lon="4.57338">
        <ele>261.2</ele>
        <time>2022-06-26T07:48:12Z</time>
      </trkpt>
      <trkpt lat="45.90596" lon="4.57338">
        <ele>261.2</ele>
        <time>2022-06-26T07:48:13Z</time>
      </trkpt>
      <trkpt lat="45.90592" lon="4.57337">
        <ele>260.8</ele>
        <time>2022-06-26T07:48:14Z</time>
      </trkpt>
      <trkpt lat="45.90588" lon="4.57337">
        <ele>260.8</ele>
        <time>2022-06-26T07:48:15Z</time>
      </trkpt>
      <trkpt lat="45.90584" lon="4.57335">
        <ele>260.8</ele>
        <time>2022-06-26T07:48:16Z</time>
      </trkpt>
      <trkpt lat="45.9058" lon="4.57332">
        <ele>260.6</ele>
        <time>2022-06-26T07:48:17Z</time>
      </trkpt>
      <trkpt lat="45.90577" lon="4.57328">
        <ele>260.6</ele>
        <time>2022-06-26T07:48:18Z</time>
      </trkpt>
      <trkpt lat="45.90575" lon="4.57323">
        <ele>260.6</ele>
        <time>2022-06-26T07:48:19Z</time>
      </trkpt>
      <trkpt lat="45.90573" lon="4.57318">
        <ele>260.6</ele>
        <time>2022-06-26T07:48:20Z</time>
      </trkpt>
      <trkpt lat="45.90572" lon="4.57312">
        <ele>260.6</ele>
        <time>2022-06-26T07:48:21Z</time>
      </trkpt>
      <trkpt lat="45.9057" lon="4.57307">
        <ele>260.8</ele>
        <time>2022-06-26T07:48:22Z</time>
      </trkpt>
      <trkpt lat="45.90568" lon="4.57302">
        <ele>260.8</ele>
        <time>2022-06-26T07:48:23Z</time>
      </trkpt>
      <trkpt lat="45.90566" lon="4.57296">
        <ele>260.8</ele>
        <time>2022-06-26T07:48:24Z</time>
      </trkpt>
      <trkpt lat="45.90565" lon="4.5729">
        <ele>261.2</ele>
        <time>2022-06-26T07:48:25Z</time>
      </trkpt>
      <trkpt lat="45.90565" lon="4.57284">
        <ele>261.2</ele>
        <time>2022-06-26T07:48:26Z</time>
      </trkpt>
      <trkpt lat="45.90566" lon="4.57279">
        <ele>261.4</ele>
        <time>2022-06-26T07:48:27Z</time>
      </trkpt>
      <trkpt lat="45.90567" lon="4.57274">
        <ele>261.4</ele>
        <time>2022-06-26T07:48:28Z</time>
      </trkpt>
      <trkpt lat="45.90567" lon="4.57269">
        <ele>261.4</ele>
        <time>2022-06-26T07:48:29Z</time>
      </trkpt>
      <trkpt lat="45.90567" lon="4.57264">
        <ele>261.6</ele>
        <time>2022-06-26T07:48:30Z</time>
      </trkpt>
      <trkpt lat="45.90568" lon="4.57259">
        <ele>261.6</ele>
        <time>2022-06-26T07:48:31Z</time>
      </trkpt>
      <trkpt lat="45.90568" lon="4.57253">
        <ele>261.6</ele>
        <time>2022-06-26T07:48:32Z</time>
      </trkpt>
      <trkpt lat="45.90569" lon="4.57248">
        <ele>261.8</ele>
        <time>2022-06-26T07:48:33Z</time>
      </trkpt>
      <trkpt lat="45.90569" lon="4.57243">
        <ele>261.8</ele>
        <time>2022-06-26T07:48:34Z</time>
      </trkpt>
      <trkpt lat="45.90569" lon="4.57238">
        <ele>261.8</ele>
        <time>2022-06-26T07:48:35Z</time>
      </trkpt>
      <trkpt lat="45.90568" lon="4.57233">
        <ele>262.2</ele>
        <time>2022-06-26T07:48:36Z</time>
      </trkpt>
      <trkpt lat="45.90567" lon="4.57228">
        <ele>262.2</ele>
        <time>2022-06-26T07:48:37Z</time>
      </trkpt>
      <trkpt lat="45.90566" lon="4.57223">
        <ele>262.4</ele>
        <time>2022-06-26T07:48:38Z</time>
      </trkpt>
      <trkpt lat="45.90565" lon="4.57219">
        <ele>262.4</ele>
        <time>2022-06-26T07:48:39Z</time>
      </trkpt>
      <trkpt lat="45.90564" lon="4.57215">
        <ele>262.8</ele>
        <time>2022-06-26T07:48:40Z</time>
      </trkpt>
      <trkpt lat="45.90562" lon="4.57211">
        <ele>262.8</ele>
        <time>2022-06-26T07:48:41Z</time>
      </trkpt>
      <trkpt lat="45.90561" lon="4.57207">
        <ele>263.2</ele>
        <time>2022-06-26T07:48:42Z</time>
      </trkpt>
      <trkpt lat="45.9056" lon="4.57202">
        <ele>263.2</ele>
        <time>2022-06-26T07:48:43Z</time>
      </trkpt>
      <trkpt lat="45.90559" lon="4.57198">
        <ele>263.6</ele>
        <time>2022-06-26T07:48:44Z</time>
      </trkpt>
      <trkpt lat="45.90557" lon="4.57194">
        <ele>263.6</ele>
        <time>2022-06-26T07:48:45Z</time>
      </trkpt>
      <trkpt lat="45.90556" lon="4.5719">
        <ele>263.6</ele>
        <time>2022-06-26T07:48:46Z</time>
      </trkpt>
      <trkpt lat="45.90554" lon="4.57186">
        <ele>263.8</ele>
        <time>2022-06-26T07:48:47Z</time>
      </trkpt>
      <trkpt lat="45.90552" lon="4.57182">
        <ele>263.8</ele>
        <time>2022-06-26T07:48:48Z</time>
      </trkpt>
      <trkpt lat="45.9055" lon="4.57177">
        <ele>264</ele>
        <time>2022-06-26T07:48:49Z</time>
      </trkpt>
      <trkpt lat="45.90549" lon="4.57173">
        <ele>264</ele>
        <time>2022-06-26T07:48:50Z</time>
      </trkpt>
      <trkpt lat="45.90547" lon="4.57168">
        <ele>264.2</ele>
        <time>2022-06-26T07:48:51Z</time>
      </trkpt>
      <trkpt lat="45.90546" lon="4.57164">
        <ele>264.2</ele>
        <time>2022-06-26T07:48:52Z</time>
      </trkpt>
      <trkpt lat="45.90544" lon="4.57159">
        <ele>264.6</ele>
        <time>2022-06-26T07:48:53Z</time>
      </trkpt>
      <trkpt lat="45.90542" lon="4.57155">
        <ele>264.8</ele>
        <time>2022-06-26T07:48:54Z</time>
      </trkpt>
      <trkpt lat="45.90541" lon="4.57151">
        <ele>264.8</ele>
        <time>2022-06-26T07:48:55Z</time>
      </trkpt>
      <trkpt lat="45.9054" lon="4.57147">
        <ele>265</ele>
        <time>2022-06-26T07:48:56Z</time>
      </trkpt>
      <trkpt lat="45.90538" lon="4.57143">
        <ele>265</ele>
        <time>2022-06-26T07:48:57Z</time>
      </trkpt>
      <trkpt lat="45.90537" lon="4.57138">
        <ele>265.4</ele>
        <time>2022-06-26T07:48:58Z</time>
      </trkpt>
      <trkpt lat="45.90535" lon="4.57133">
        <ele>265.4</ele>
        <time>2022-06-26T07:48:59Z</time>
      </trkpt>
      <trkpt lat="45.90532" lon="4.57129">
        <ele>265.6</ele>
        <time>2022-06-26T07:49:00Z</time>
      </trkpt>
      <trkpt lat="45.9053" lon="4.57124">
        <ele>265.6</ele>
        <time>2022-06-26T07:49:01Z</time>
      </trkpt>
      <trkpt lat="45.90528" lon="4.57119">
        <ele>266</ele>
        <time>2022-06-26T07:49:02Z</time>
      </trkpt>
      <trkpt lat="45.90526" lon="4.57115">
        <ele>266</ele>
        <time>2022-06-26T07:49:03Z</time>
      </trkpt>
      <trkpt lat="45.90524" lon="4.5711">
        <ele>266.2</ele>
        <time>2022-06-26T07:49:04Z</time>
      </trkpt>
      <trkpt lat="45.90522" lon="4.57105">
        <ele>266.2</ele>
        <time>2022-06-26T07:49:05Z</time>
      </trkpt>
      <trkpt lat="45.9052" lon="4.571">
        <ele>266.6</ele>
        <time>2022-06-26T07:49:06Z</time>
      </trkpt>
      <trkpt lat="45.90517" lon="4.57096">
        <ele>266.6</ele>
        <time>2022-06-26T07:49:07Z</time>
      </trkpt>
      <trkpt lat="45.90515" lon="4.57092">
        <ele>266.8</ele>
        <time>2022-06-26T07:49:08Z</time>
      </trkpt>
      <trkpt lat="45.90513" lon="4.57088">
        <ele>266.8</ele>
        <time>2022-06-26T07:49:09Z</time>
      </trkpt>
      <trkpt lat="45.90512" lon="4.57083">
        <ele>267</ele>
        <time>2022-06-26T07:49:10Z</time>
      </trkpt>
      <trkpt lat="45.90511" lon="4.57078">
        <ele>267</ele>
        <time>2022-06-26T07:49:11Z</time>
      </trkpt>
      <trkpt lat="45.90509" lon="4.57073">
        <ele>267.2</ele>
        <time>2022-06-26T07:49:12Z</time>
      </trkpt>
      <trkpt lat="45.90508" lon="4.57068">
        <ele>267.2</ele>
        <time>2022-06-26T07:49:13Z</time>
      </trkpt>
      <trkpt lat="45.90507" lon="4.57063">
        <ele>267.6</ele>
        <time>2022-06-26T07:49:14Z</time>
      </trkpt>
      <trkpt lat="45.90506" lon="4.57059">
        <ele>267.6</ele>
        <time>2022-06-26T07:49:15Z</time>
      </trkpt>
      <trkpt lat="45.90505" lon="4.57055">
        <ele>267.6</ele>
        <time>2022-06-26T07:49:16Z</time>
      </trkpt>
      <trkpt lat="45.90504" lon="4.5705">
        <ele>268</ele>
        <time>2022-06-26T07:49:17Z</time>
      </trkpt>
      <trkpt lat="45.90504" lon="4.57045">
        <ele>268.4</ele>
        <time>2022-06-26T07:49:18Z</time>
      </trkpt>
      <trkpt lat="45.90503" lon="4.5704">
        <ele>268.4</ele>
        <time>2022-06-26T07:49:19Z</time>
      </trkpt>
      <trkpt lat="45.90503" lon="4.57035">
        <ele>268.6</ele>
        <time>2022-06-26T07:49:20Z</time>
      </trkpt>
      <trkpt lat="45.90502" lon="4.57031">
        <ele>268.6</ele>
        <time>2022-06-26T07:49:21Z</time>
      </trkpt>
      <trkpt lat="45.90501" lon="4.57027">
        <ele>268.8</ele>
        <time>2022-06-26T07:49:22Z</time>
      </trkpt>
      <trkpt lat="45.90501" lon="4.57022">
        <ele>268.8</ele>
        <time>2022-06-26T07:49:23Z</time>
      </trkpt>
      <trkpt lat="45.905" lon="4.57019">
        <ele>269.2</ele>
        <time>2022-06-26T07:49:24Z</time>
      </trkpt>
      <trkpt lat="45.905" lon="4.57015">
        <ele>269.2</ele>
        <time>2022-06-26T07:49:25Z</time>
      </trkpt>
      <trkpt lat="45.90501" lon="4.57011">
        <ele>269.2</ele>
        <time>2022-06-26T07:49:26Z</time>
      </trkpt>
      <trkpt lat="45.90501" lon="4.57007">
        <ele>269.4</ele>
        <time>2022-06-26T07:49:27Z</time>
      </trkpt>
      <trkpt lat="45.90501" lon="4.57002">
        <ele>269.4</ele>
        <time>2022-06-26T07:49:28Z</time>
      </trkpt>
      <trkpt lat="45.90501" lon="4.56998">
        <ele>269.6</ele>
        <time>2022-06-26T07:49:29Z</time>
      </trkpt>
      <trkpt lat="45.905" lon="4.56994">
        <ele>269.6</ele>
        <time>2022-06-26T07:49:30Z</time>
      </trkpt>
      <trkpt lat="45.90499" lon="4.56989">
        <ele>269.8</ele>
        <time>2022-06-26T07:49:31Z</time>
      </trkpt>
      <trkpt lat="45.90498" lon="4.56985">
        <ele>269.8</ele>
        <time>2022-06-26T07:49:32Z</time>
      </trkpt>
      <trkpt lat="45.90498" lon="4.56981">
        <ele>270.2</ele>
        <time>2022-06-26T07:49:33Z</time>
      </trkpt>
      <trkpt lat="45.90497" lon="4.56977">
        <ele>270.2</ele>
        <time>2022-06-26T07:49:34Z</time>
      </trkpt>
      <trkpt lat="45.90496" lon="4.56973">
        <ele>270.4</ele>
        <time>2022-06-26T07:49:35Z</time>
      </trkpt>
      <trkpt lat="45.90495" lon="4.56969">
        <ele>270.6</ele>
        <time>2022-06-26T07:49:36Z</time>
      </trkpt>
      <trkpt lat="45.90494" lon="4.56965">
        <ele>270.6</ele>
        <time>2022-06-26T07:49:37Z</time>
      </trkpt>
      <trkpt lat="45.90492" lon="4.56961">
        <ele>271</ele>
        <time>2022-06-26T07:49:38Z</time>
      </trkpt>
      <trkpt lat="45.90491" lon="4.56958">
        <ele>271</ele>
        <time>2022-06-26T07:49:39Z</time>
      </trkpt>
      <trkpt lat="45.90489" lon="4.56954">
        <ele>271.4</ele>
        <time>2022-06-26T07:49:40Z</time>
      </trkpt>
      <trkpt lat="45.90488" lon="4.5695">
        <ele>271.4</ele>
        <time>2022-06-26T07:49:41Z</time>
      </trkpt>
      <trkpt lat="45.90487" lon="4.56945">
        <ele>271.6</ele>
        <time>2022-06-26T07:49:42Z</time>
      </trkpt>
      <trkpt lat="45.90486" lon="4.56941">
        <ele>272</ele>
        <time>2022-06-26T07:49:43Z</time>
      </trkpt>
      <trkpt lat="45.90485" lon="4.56937">
        <ele>272.2</ele>
        <time>2022-06-26T07:49:44Z</time>
      </trkpt>
      <trkpt lat="45.90483" lon="4.56932">
        <ele>272.4</ele>
        <time>2022-06-26T07:49:45Z</time>
      </trkpt>
      <trkpt lat="45.90482" lon="4.56927">
        <ele>272.4</ele>
        <time>2022-06-26T07:49:46Z</time>
      </trkpt>
      <trkpt lat="45.90481" lon="4.56922">
        <ele>272.8</ele>
        <time>2022-06-26T07:49:47Z</time>
      </trkpt>
      <trkpt lat="45.90479" lon="4.56917">
        <ele>272.8</ele>
        <time>2022-06-26T07:49:48Z</time>
      </trkpt>
      <trkpt lat="45.90478" lon="4.56912">
        <ele>273</ele>
        <time>2022-06-26T07:49:49Z</time>
      </trkpt>
      <trkpt lat="45.90477" lon="4.56908">
        <ele>273</ele>
        <time>2022-06-26T07:49:50Z</time>
      </trkpt>
      <trkpt lat="45.90476" lon="4.56904">
        <ele>273.4</ele>
        <time>2022-06-26T07:49:51Z</time>
      </trkpt>
      <trkpt lat="45.90475" lon="4.569">
        <ele>273.6</ele>
        <time>2022-06-26T07:49:52Z</time>
      </trkpt>
      <trkpt lat="45.90474" lon="4.56896">
        <ele>273.6</ele>
        <time>2022-06-26T07:49:53Z</time>
      </trkpt>
      <trkpt lat="45.90473" lon="4.56891">
        <ele>273.8</ele>
        <time>2022-06-26T07:49:54Z</time>
      </trkpt>
      <trkpt lat="45.90472" lon="4.56887">
        <ele>273.8</ele>
        <time>2022-06-26T07:49:55Z</time>
      </trkpt>
      <trkpt lat="45.90471" lon="4.56882">
        <ele>274</ele>
        <time>2022-06-26T07:49:56Z</time>
      </trkpt>
      <trkpt lat="45.90469" lon="4.56877">
        <ele>274</ele>
        <time>2022-06-26T07:49:57Z</time>
      </trkpt>
      <trkpt lat="45.90468" lon="4.56873">
        <ele>274.4</ele>
        <time>2022-06-26T07:49:58Z</time>
      </trkpt>
      <trkpt lat="45.90466" lon="4.56868">
        <ele>274.4</ele>
        <time>2022-06-26T07:49:59Z</time>
      </trkpt>
      <trkpt lat="45.90465" lon="4.56864">
        <ele>274.8</ele>
        <time>2022-06-26T07:50:00Z</time>
      </trkpt>
      <trkpt lat="45.90463" lon="4.56859">
        <ele>274.8</ele>
        <time>2022-06-26T07:50:01Z</time>
      </trkpt>
      <trkpt lat="45.90462" lon="4.56855">
        <ele>275</ele>
        <time>2022-06-26T07:50:02Z</time>
      </trkpt>
      <trkpt lat="45.9046" lon="4.56851">
        <ele>275</ele>
        <time>2022-06-26T07:50:03Z</time>
      </trkpt>
      <trkpt lat="45.90458" lon="4.56846">
        <ele>275.2</ele>
        <time>2022-06-26T07:50:04Z</time>
      </trkpt>
      <trkpt lat="45.90456" lon="4.56842">
        <ele>275.2</ele>
        <time>2022-06-26T07:50:05Z</time>
      </trkpt>
      <trkpt lat="45.90455" lon="4.56838">
        <ele>275.2</ele>
        <time>2022-06-26T07:50:06Z</time>
      </trkpt>
      <trkpt lat="45.90453" lon="4.56833">
        <ele>275.6</ele>
        <time>2022-06-26T07:50:07Z</time>
      </trkpt>
      <trkpt lat="45.90452" lon="4.56829">
        <ele>275.6</ele>
        <time>2022-06-26T07:50:08Z</time>
      </trkpt>
      <trkpt lat="45.9045" lon="4.56825">
        <ele>275.8</ele>
        <time>2022-06-26T07:50:09Z</time>
      </trkpt>
      <trkpt lat="45.90448" lon="4.56821">
        <ele>275.8</ele>
        <time>2022-06-26T07:50:10Z</time>
      </trkpt>
      <trkpt lat="45.90446" lon="4.56817">
        <ele>275.8</ele>
        <time>2022-06-26T07:50:11Z</time>
      </trkpt>
      <trkpt lat="45.90444" lon="4.56813">
        <ele>276.2</ele>
        <time>2022-06-26T07:50:12Z</time>
      </trkpt>
      <trkpt lat="45.90442" lon="4.5681">
        <ele>276.2</ele>
        <time>2022-06-26T07:50:13Z</time>
      </trkpt>
      <trkpt lat="45.9044" lon="4.56807">
        <ele>276.4</ele>
        <time>2022-06-26T07:50:14Z</time>
      </trkpt>
      <trkpt lat="45.90438" lon="4.56803">
        <ele>276.4</ele>
        <time>2022-06-26T07:50:15Z</time>
      </trkpt>
      <trkpt lat="45.90436" lon="4.568">
        <ele>276.8</ele>
        <time>2022-06-26T07:50:16Z</time>
      </trkpt>
      <trkpt lat="45.90434" lon="4.56796">
        <ele>277</ele>
        <time>2022-06-26T07:50:17Z</time>
      </trkpt>
      <trkpt lat="45.90431" lon="4.56793">
        <ele>277</ele>
        <time>2022-06-26T07:50:18Z</time>
      </trkpt>
      <trkpt lat="45.90429" lon="4.5679">
        <ele>277.2</ele>
        <time>2022-06-26T07:50:19Z</time>
      </trkpt>
      <trkpt lat="45.90427" lon="4.56787">
        <ele>277.2</ele>
        <time>2022-06-26T07:50:20Z</time>
      </trkpt>
      <trkpt lat="45.90425" lon="4.56784">
        <ele>277.6</ele>
        <time>2022-06-26T07:50:21Z</time>
      </trkpt>
      <trkpt lat="45.90423" lon="4.56781">
        <ele>277.6</ele>
        <time>2022-06-26T07:50:22Z</time>
      </trkpt>
      <trkpt lat="45.90421" lon="4.56778">
        <ele>277.8</ele>
        <time>2022-06-26T07:50:23Z</time>
      </trkpt>
      <trkpt lat="45.90418" lon="4.56775">
        <ele>277.8</ele>
        <time>2022-06-26T07:50:24Z</time>
      </trkpt>
      <trkpt lat="45.90415" lon="4.56773">
        <ele>278.2</ele>
        <time>2022-06-26T07:50:25Z</time>
      </trkpt>
      <trkpt lat="45.90412" lon="4.5677">
        <ele>278.2</ele>
        <time>2022-06-26T07:50:26Z</time>
      </trkpt>
      <trkpt lat="45.90409" lon="4.56767">
        <ele>278.2</ele>
        <time>2022-06-26T07:50:27Z</time>
      </trkpt>
      <trkpt lat="45.90406" lon="4.56763">
        <ele>278.4</ele>
        <time>2022-06-26T07:50:28Z</time>
      </trkpt>
      <trkpt lat="45.90404" lon="4.5676">
        <ele>278.4</ele>
        <time>2022-06-26T07:50:29Z</time>
      </trkpt>
      <trkpt lat="45.90401" lon="4.56757">
        <ele>278.4</ele>
        <time>2022-06-26T07:50:30Z</time>
      </trkpt>
      <trkpt lat="45.90399" lon="4.56753">
        <ele>278.6</ele>
        <time>2022-06-26T07:50:31Z</time>
      </trkpt>
      <trkpt lat="45.90397" lon="4.5675">
        <ele>278.6</ele>
        <time>2022-06-26T07:50:32Z</time>
      </trkpt>
      <trkpt lat="45.90394" lon="4.56747">
        <ele>279</ele>
        <time>2022-06-26T07:50:33Z</time>
      </trkpt>
      <trkpt lat="45.90392" lon="4.56743">
        <ele>279</ele>
        <time>2022-06-26T07:50:34Z</time>
      </trkpt>
      <trkpt lat="45.90389" lon="4.5674">
        <ele>279.2</ele>
        <time>2022-06-26T07:50:35Z</time>
      </trkpt>
      <trkpt lat="45.90387" lon="4.56738">
        <ele>279.2</ele>
        <time>2022-06-26T07:50:36Z</time>
      </trkpt>
      <trkpt lat="45.90384" lon="4.56735">
        <ele>279.6</ele>
        <time>2022-06-26T07:50:37Z</time>
      </trkpt>
      <trkpt lat="45.90382" lon="4.56732">
        <ele>279.6</ele>
        <time>2022-06-26T07:50:38Z</time>
      </trkpt>
      <trkpt lat="45.90379" lon="4.56729">
        <ele>279.6</ele>
        <time>2022-06-26T07:50:39Z</time>
      </trkpt>
      <trkpt lat="45.90376" lon="4.56726">
        <ele>279.8</ele>
        <time>2022-06-26T07:50:40Z</time>
      </trkpt>
      <trkpt lat="45.90373" lon="4.56723">
        <ele>279.8</ele>
        <time>2022-06-26T07:50:41Z</time>
      </trkpt>
      <trkpt lat="45.9037" lon="4.5672">
        <ele>279.8</ele>
        <time>2022-06-26T07:50:42Z</time>
      </trkpt>
      <trkpt lat="45.90368" lon="4.56717">
        <ele>280.2</ele>
        <time>2022-06-26T07:50:43Z</time>
      </trkpt>
      <trkpt lat="45.90365" lon="4.56714">
        <ele>280.2</ele>
        <time>2022-06-26T07:50:44Z</time>
      </trkpt>
      <trkpt lat="45.90362" lon="4.5671">
        <ele>280.4</ele>
        <time>2022-06-26T07:50:45Z</time>
      </trkpt>
      <trkpt lat="45.9036" lon="4.56707">
        <ele>280.4</ele>
        <time>2022-06-26T07:50:46Z</time>
      </trkpt>
      <trkpt lat="45.90358" lon="4.56704">
        <ele>280.8</ele>
        <time>2022-06-26T07:50:47Z</time>
      </trkpt>
      <trkpt lat="45.90355" lon="4.567">
        <ele>280.8</ele>
        <time>2022-06-26T07:50:48Z</time>
      </trkpt>
      <trkpt lat="45.90352" lon="4.56697">
        <ele>281</ele>
        <time>2022-06-26T07:50:49Z</time>
      </trkpt>
      <trkpt lat="45.90349" lon="4.56694">
        <ele>281</ele>
        <time>2022-06-26T07:50:50Z</time>
      </trkpt>
      <trkpt lat="45.90347" lon="4.56691">
        <ele>281.2</ele>
        <time>2022-06-26T07:50:51Z</time>
      </trkpt>
      <trkpt lat="45.90345" lon="4.56688">
        <ele>281.2</ele>
        <time>2022-06-26T07:50:52Z</time>
      </trkpt>
      <trkpt lat="45.90343" lon="4.56687">
        <ele>281.6</ele>
        <time>2022-06-26T07:50:53Z</time>
      </trkpt>
      <trkpt lat="45.90341" lon="4.56683">
        <ele>281.6</ele>
        <time>2022-06-26T07:50:54Z</time>
      </trkpt>
      <trkpt lat="45.9034" lon="4.56681">
        <ele>281.6</ele>
        <time>2022-06-26T07:50:55Z</time>
      </trkpt>
      <trkpt lat="45.90338" lon="4.56678">
        <ele>282</ele>
        <time>2022-06-26T07:51:29Z</time>
      </trkpt>
      <trkpt lat="45.90337" lon="4.56676">
        <ele>282.2</ele>
        <time>2022-06-26T07:51:30Z</time>
      </trkpt>
      <trkpt lat="45.90335" lon="4.56674">
        <ele>282.2</ele>
        <time>2022-06-26T07:51:31Z</time>
      </trkpt>
      <trkpt lat="45.90334" lon="4.56672">
        <ele>282.2</ele>
        <time>2022-06-26T07:51:32Z</time>
      </trkpt>
      <trkpt lat="45.90332" lon="4.5667">
        <ele>282.6</ele>
        <time>2022-06-26T07:51:33Z</time>
      </trkpt>
      <trkpt lat="45.9033" lon="4.56667">
        <ele>282.6</ele>
        <time>2022-06-26T07:51:34Z</time>
      </trkpt>
      <trkpt lat="45.90329" lon="4.56665">
        <ele>282.8</ele>
        <time>2022-06-26T07:51:35Z</time>
      </trkpt>
      <trkpt lat="45.90328" lon="4.56663">
        <ele>282.8</ele>
        <time>2022-06-26T07:51:36Z</time>
      </trkpt>
      <trkpt lat="45.90326" lon="4.56662">
        <ele>283</ele>
        <time>2022-06-26T07:51:37Z</time>
      </trkpt>
      <trkpt lat="45.90325" lon="4.5666">
        <ele>283</ele>
        <time>2022-06-26T07:51:38Z</time>
      </trkpt>
      <trkpt lat="45.90324" lon="4.56658">
        <ele>283.2</ele>
        <time>2022-06-26T07:51:39Z</time>
      </trkpt>
      <trkpt lat="45.90322" lon="4.56655">
        <ele>283.2</ele>
        <time>2022-06-26T07:51:40Z</time>
      </trkpt>
      <trkpt lat="45.9032" lon="4.56652">
        <ele>283.4</ele>
        <time>2022-06-26T07:51:41Z</time>
      </trkpt>
      <trkpt lat="45.90318" lon="4.56649">
        <ele>283.4</ele>
        <time>2022-06-26T07:51:42Z</time>
      </trkpt>
      <trkpt lat="45.90316" lon="4.56645">
        <ele>283.4</ele>
        <time>2022-06-26T07:51:43Z</time>
      </trkpt>
      <trkpt lat="45.90314" lon="4.56642">
        <ele>283.4</ele>
        <time>2022-06-26T07:51:44Z</time>
      </trkpt>
      <trkpt lat="45.90312" lon="4.56638">
        <ele>283.8</ele>
        <time>2022-06-26T07:51:45Z</time>
      </trkpt>
      <trkpt lat="45.9031" lon="4.56635">
        <ele>283.8</ele>
        <time>2022-06-26T07:51:46Z</time>
      </trkpt>
      <trkpt lat="45.90308" lon="4.56632">
        <ele>284</ele>
        <time>2022-06-26T07:51:47Z</time>
      </trkpt>
      <trkpt lat="45.90307" lon="4.56628">
        <ele>284</ele>
        <time>2022-06-26T07:51:48Z</time>
      </trkpt>
      <trkpt lat="45.90305" lon="4.56625">
        <ele>284.2</ele>
        <time>2022-06-26T07:51:49Z</time>
      </trkpt>
      <trkpt lat="45.90303" lon="4.56622">
        <ele>284.2</ele>
        <time>2022-06-26T07:51:50Z</time>
      </trkpt>
      <trkpt lat="45.90301" lon="4.56618">
        <ele>284.8</ele>
        <time>2022-06-26T07:51:51Z</time>
      </trkpt>
      <trkpt lat="45.903" lon="4.56614">
        <ele>284.8</ele>
        <time>2022-06-26T07:51:52Z</time>
      </trkpt>
      <trkpt lat="45.90298" lon="4.5661">
        <ele>285</ele>
        <time>2022-06-26T07:51:53Z</time>
      </trkpt>
      <trkpt lat="45.90296" lon="4.56606">
        <ele>285</ele>
        <time>2022-06-26T07:51:54Z</time>
      </trkpt>
      <trkpt lat="45.90294" lon="4.56603">
        <ele>285.2</ele>
        <time>2022-06-26T07:51:55Z</time>
      </trkpt>
      <trkpt lat="45.90292" lon="4.56598">
        <ele>285.2</ele>
        <time>2022-06-26T07:51:56Z</time>
      </trkpt>
      <trkpt lat="45.9029" lon="4.56594">
        <ele>285.6</ele>
        <time>2022-06-26T07:51:57Z</time>
      </trkpt>
      <trkpt lat="45.90288" lon="4.56591">
        <ele>285.6</ele>
        <time>2022-06-26T07:51:58Z</time>
      </trkpt>
      <trkpt lat="45.90286" lon="4.56586">
        <ele>285.6</ele>
        <time>2022-06-26T07:51:59Z</time>
      </trkpt>
      <trkpt lat="45.90284" lon="4.56582">
        <ele>285.8</ele>
        <time>2022-06-26T07:52:00Z</time>
      </trkpt>
      <trkpt lat="45.90282" lon="4.56578">
        <ele>285.8</ele>
        <time>2022-06-26T07:52:01Z</time>
      </trkpt>
      <trkpt lat="45.9028" lon="4.56574">
        <ele>285.8</ele>
        <time>2022-06-26T07:52:02Z</time>
      </trkpt>
      <trkpt lat="45.90278" lon="4.5657">
        <ele>286.2</ele>
        <time>2022-06-26T07:52:03Z</time>
      </trkpt>
      <trkpt lat="45.90277" lon="4.56566">
        <ele>286.2</ele>
        <time>2022-06-26T07:52:04Z</time>
      </trkpt>
      <trkpt lat="45.90275" lon="4.56562">
        <ele>286.4</ele>
        <time>2022-06-26T07:52:05Z</time>
      </trkpt>
      <trkpt lat="45.90273" lon="4.56557">
        <ele>286.4</ele>
        <time>2022-06-26T07:52:06Z</time>
      </trkpt>
      <trkpt lat="45.90271" lon="4.56553">
        <ele>286.6</ele>
        <time>2022-06-26T07:52:07Z</time>
      </trkpt>
      <trkpt lat="45.90269" lon="4.56549">
        <ele>286.6</ele>
        <time>2022-06-26T07:52:08Z</time>
      </trkpt>
      <trkpt lat="45.90267" lon="4.56544">
        <ele>286.8</ele>
        <time>2022-06-26T07:52:09Z</time>
      </trkpt>
      <trkpt lat="45.90265" lon="4.5654">
        <ele>286.8</ele>
        <time>2022-06-26T07:52:10Z</time>
      </trkpt>
      <trkpt lat="45.90263" lon="4.56536">
        <ele>286.8</ele>
        <time>2022-06-26T07:52:11Z</time>
      </trkpt>
      <trkpt lat="45.90262" lon="4.56531">
        <ele>287.2</ele>
        <time>2022-06-26T07:52:12Z</time>
      </trkpt>
      <trkpt lat="45.9026" lon="4.56527">
        <ele>287.2</ele>
        <time>2022-06-26T07:52:13Z</time>
      </trkpt>
      <trkpt lat="45.90258" lon="4.56523">
        <ele>287.4</ele>
        <time>2022-06-26T07:52:14Z</time>
      </trkpt>
      <trkpt lat="45.90256" lon="4.56519">
        <ele>287.4</ele>
        <time>2022-06-26T07:52:15Z</time>
      </trkpt>
      <trkpt lat="45.90254" lon="4.56515">
        <ele>287.6</ele>
        <time>2022-06-26T07:52:16Z</time>
      </trkpt>
      <trkpt lat="45.90253" lon="4.5651">
        <ele>287.6</ele>
        <time>2022-06-26T07:52:17Z</time>
      </trkpt>
      <trkpt lat="45.90251" lon="4.56506">
        <ele>287.6</ele>
        <time>2022-06-26T07:52:18Z</time>
      </trkpt>
      <trkpt lat="45.9025" lon="4.56502">
        <ele>287.6</ele>
        <time>2022-06-26T07:52:19Z</time>
      </trkpt>
      <trkpt lat="45.90248" lon="4.56498">
        <ele>288</ele>
        <time>2022-06-26T07:52:20Z</time>
      </trkpt>
      <trkpt lat="45.90246" lon="4.56494">
        <ele>288</ele>
        <time>2022-06-26T07:52:21Z</time>
      </trkpt>
      <trkpt lat="45.90245" lon="4.5649">
        <ele>288.2</ele>
        <time>2022-06-26T07:52:22Z</time>
      </trkpt>
      <trkpt lat="45.90243" lon="4.56486">
        <ele>288.2</ele>
        <time>2022-06-26T07:52:23Z</time>
      </trkpt>
      <trkpt lat="45.90242" lon="4.56482">
        <ele>288.2</ele>
        <time>2022-06-26T07:52:24Z</time>
      </trkpt>
      <trkpt lat="45.9024" lon="4.56477">
        <ele>288.4</ele>
        <time>2022-06-26T07:52:25Z</time>
      </trkpt>
      <trkpt lat="45.90238" lon="4.56473">
        <ele>288.4</ele>
        <time>2022-06-26T07:52:26Z</time>
      </trkpt>
      <trkpt lat="45.90236" lon="4.56469">
        <ele>288.4</ele>
        <time>2022-06-26T07:52:27Z</time>
      </trkpt>
      <trkpt lat="45.90235" lon="4.56465">
        <ele>288.6</ele>
        <time>2022-06-26T07:52:28Z</time>
      </trkpt>
      <trkpt lat="45.90233" lon="4.5646">
        <ele>288.6</ele>
        <time>2022-06-26T07:52:29Z</time>
      </trkpt>
      <trkpt lat="45.90232" lon="4.56456">
        <ele>288.6</ele>
        <time>2022-06-26T07:52:30Z</time>
      </trkpt>
      <trkpt lat="45.9023" lon="4.56452">
        <ele>288.6</ele>
        <time>2022-06-26T07:52:31Z</time>
      </trkpt>
      <trkpt lat="45.90228" lon="4.56447">
        <ele>288.8</ele>
        <time>2022-06-26T07:52:32Z</time>
      </trkpt>
      <trkpt lat="45.90227" lon="4.56443">
        <ele>288.8</ele>
        <time>2022-06-26T07:52:33Z</time>
      </trkpt>
      <trkpt lat="45.90225" lon="4.56438">
        <ele>289</ele>
        <time>2022-06-26T07:52:34Z</time>
      </trkpt>
      <trkpt lat="45.90223" lon="4.56434">
        <ele>289</ele>
        <time>2022-06-26T07:52:35Z</time>
      </trkpt>
      <trkpt lat="45.90222" lon="4.56429">
        <ele>289.2</ele>
        <time>2022-06-26T07:52:36Z</time>
      </trkpt>
      <trkpt lat="45.9022" lon="4.56424">
        <ele>289.2</ele>
        <time>2022-06-26T07:52:37Z</time>
      </trkpt>
      <trkpt lat="45.90219" lon="4.56419">
        <ele>289.4</ele>
        <time>2022-06-26T07:52:38Z</time>
      </trkpt>
      <trkpt lat="45.90217" lon="4.56414">
        <ele>289.4</ele>
        <time>2022-06-26T07:52:39Z</time>
      </trkpt>
      <trkpt lat="45.90215" lon="4.5641">
        <ele>289.6</ele>
        <time>2022-06-26T07:52:40Z</time>
      </trkpt>
      <trkpt lat="45.90214" lon="4.56405">
        <ele>289.6</ele>
        <time>2022-06-26T07:52:41Z</time>
      </trkpt>
      <trkpt lat="45.90212" lon="4.56401">
        <ele>289.6</ele>
        <time>2022-06-26T07:52:42Z</time>
      </trkpt>
      <trkpt lat="45.9021" lon="4.56396">
        <ele>289.8</ele>
        <time>2022-06-26T07:52:43Z</time>
      </trkpt>
      <trkpt lat="45.90208" lon="4.56391">
        <ele>289.8</ele>
        <time>2022-06-26T07:52:44Z</time>
      </trkpt>
      <trkpt lat="45.90206" lon="4.56387">
        <ele>289.8</ele>
        <time>2022-06-26T07:52:45Z</time>
      </trkpt>
      <trkpt lat="45.90204" lon="4.56382">
        <ele>290.2</ele>
        <time>2022-06-26T07:52:46Z</time>
      </trkpt>
      <trkpt lat="45.90202" lon="4.56378">
        <ele>290.2</ele>
        <time>2022-06-26T07:52:47Z</time>
      </trkpt>
      <trkpt lat="45.90199" lon="4.56373">
        <ele>290.2</ele>
        <time>2022-06-26T07:52:48Z</time>
      </trkpt>
      <trkpt lat="45.90197" lon="4.56368">
        <ele>290.4</ele>
        <time>2022-06-26T07:52:49Z</time>
      </trkpt>
      <trkpt lat="45.90195" lon="4.56362">
        <ele>290.4</ele>
        <time>2022-06-26T07:52:50Z</time>
      </trkpt>
      <trkpt lat="45.90193" lon="4.56357">
        <ele>290.4</ele>
        <time>2022-06-26T07:52:51Z</time>
      </trkpt>
      <trkpt lat="45.9019" lon="4.56352">
        <ele>290.4</ele>
        <time>2022-06-26T07:52:52Z</time>
      </trkpt>
      <trkpt lat="45.90188" lon="4.56347">
        <ele>290.6</ele>
        <time>2022-06-26T07:52:53Z</time>
      </trkpt>
      <trkpt lat="45.90186" lon="4.56341">
        <ele>290.6</ele>
        <time>2022-06-26T07:52:54Z</time>
      </trkpt>
      <trkpt lat="45.90183" lon="4.56336">
        <ele>290.8</ele>
        <time>2022-06-26T07:52:55Z</time>
      </trkpt>
      <trkpt lat="45.90181" lon="4.5633">
        <ele>290.8</ele>
        <time>2022-06-26T07:52:56Z</time>
      </trkpt>
      <trkpt lat="45.90179" lon="4.56325">
        <ele>290.8</ele>
        <time>2022-06-26T07:52:57Z</time>
      </trkpt>
      <trkpt lat="45.90176" lon="4.56319">
        <ele>291.2</ele>
        <time>2022-06-26T07:52:58Z</time>
      </trkpt>
      <trkpt lat="45.90174" lon="4.56313">
        <ele>291.2</ele>
        <time>2022-06-26T07:52:59Z</time>
      </trkpt>
      <trkpt lat="45.90172" lon="4.56308">
        <ele>291.2</ele>
        <time>2022-06-26T07:53:00Z</time>
      </trkpt>
      <trkpt lat="45.90169" lon="4.56302">
        <ele>291.4</ele>
        <time>2022-06-26T07:53:01Z</time>
      </trkpt>
      <trkpt lat="45.90167" lon="4.56296">
        <ele>291.4</ele>
        <time>2022-06-26T07:53:02Z</time>
      </trkpt>
      <trkpt lat="45.90165" lon="4.56289">
        <ele>291.4</ele>
        <time>2022-06-26T07:53:03Z</time>
      </trkpt>
      <trkpt lat="45.90163" lon="4.56283">
        <ele>291.6</ele>
        <time>2022-06-26T07:53:04Z</time>
      </trkpt>
      <trkpt lat="45.90161" lon="4.56277">
        <ele>291.6</ele>
        <time>2022-06-26T07:53:05Z</time>
      </trkpt>
      <trkpt lat="45.90158" lon="4.56271">
        <ele>291.6</ele>
        <time>2022-06-26T07:53:06Z</time>
      </trkpt>
      <trkpt lat="45.90156" lon="4.56264">
        <ele>291.6</ele>
        <time>2022-06-26T07:53:07Z</time>
      </trkpt>
      <trkpt lat="45.90154" lon="4.56258">
        <ele>291.8</ele>
        <time>2022-06-26T07:53:08Z</time>
      </trkpt>
      <trkpt lat="45.90152" lon="4.56251">
        <ele>291.8</ele>
        <time>2022-06-26T07:53:09Z</time>
      </trkpt>
      <trkpt lat="45.9015" lon="4.56245">
        <ele>291.8</ele>
        <time>2022-06-26T07:53:10Z</time>
      </trkpt>
      <trkpt lat="45.90148" lon="4.56238">
        <ele>291.8</ele>
        <time>2022-06-26T07:53:11Z</time>
      </trkpt>
      <trkpt lat="45.90146" lon="4.56231">
        <ele>291.8</ele>
        <time>2022-06-26T07:53:12Z</time>
      </trkpt>
      <trkpt lat="45.90144" lon="4.56223">
        <ele>291.8</ele>
        <time>2022-06-26T07:53:13Z</time>
      </trkpt>
      <trkpt lat="45.90142" lon="4.56215">
        <ele>291.8</ele>
        <time>2022-06-26T07:53:14Z</time>
      </trkpt>
      <trkpt lat="45.9014" lon="4.56208">
        <ele>291.8</ele>
        <time>2022-06-26T07:53:15Z</time>
      </trkpt>
      <trkpt lat="45.90139" lon="4.562">
        <ele>291.8</ele>
        <time>2022-06-26T07:53:16Z</time>
      </trkpt>
      <trkpt lat="45.90137" lon="4.56192">
        <ele>291.8</ele>
        <time>2022-06-26T07:53:17Z</time>
      </trkpt>
      <trkpt lat="45.90136" lon="4.56185">
        <ele>291.8</ele>
        <time>2022-06-26T07:53:18Z</time>
      </trkpt>
      <trkpt lat="45.90134" lon="4.56178">
        <ele>291.8</ele>
        <time>2022-06-26T07:53:19Z</time>
      </trkpt>
      <trkpt lat="45.90133" lon="4.5617">
        <ele>291.8</ele>
        <time>2022-06-26T07:53:20Z</time>
      </trkpt>
      <trkpt lat="45.90132" lon="4.56162">
        <ele>291.8</ele>
        <time>2022-06-26T07:53:21Z</time>
      </trkpt>
      <trkpt lat="45.9013" lon="4.56155">
        <ele>292</ele>
        <time>2022-06-26T07:53:22Z</time>
      </trkpt>
      <trkpt lat="45.90129" lon="4.56147">
        <ele>292</ele>
        <time>2022-06-26T07:53:23Z</time>
      </trkpt>
      <trkpt lat="45.90128" lon="4.56139">
        <ele>292</ele>
        <time>2022-06-26T07:53:24Z</time>
      </trkpt>
      <trkpt lat="45.90127" lon="4.56132">
        <ele>292.4</ele>
        <time>2022-06-26T07:53:25Z</time>
      </trkpt>
      <trkpt lat="45.90126" lon="4.56124">
        <ele>292.4</ele>
        <time>2022-06-26T07:53:26Z</time>
      </trkpt>
      <trkpt lat="45.90125" lon="4.56117">
        <ele>292.4</ele>
        <time>2022-06-26T07:53:27Z</time>
      </trkpt>
      <trkpt lat="45.90123" lon="4.56109">
        <ele>292.4</ele>
        <time>2022-06-26T07:53:28Z</time>
      </trkpt>
      <trkpt lat="45.90123" lon="4.56102">
        <ele>292.4</ele>
        <time>2022-06-26T07:53:29Z</time>
      </trkpt>
      <trkpt lat="45.90122" lon="4.56094">
        <ele>292.4</ele>
        <time>2022-06-26T07:53:30Z</time>
      </trkpt>
      <trkpt lat="45.90121" lon="4.56086">
        <ele>292.6</ele>
        <time>2022-06-26T07:53:31Z</time>
      </trkpt>
      <trkpt lat="45.9012" lon="4.56078">
        <ele>292.6</ele>
        <time>2022-06-26T07:53:32Z</time>
      </trkpt>
      <trkpt lat="45.9012" lon="4.5607">
        <ele>292.6</ele>
        <time>2022-06-26T07:53:33Z</time>
      </trkpt>
      <trkpt lat="45.90119" lon="4.56063">
        <ele>292.6</ele>
        <time>2022-06-26T07:53:34Z</time>
      </trkpt>
      <trkpt lat="45.90118" lon="4.56055">
        <ele>292.6</ele>
        <time>2022-06-26T07:53:35Z</time>
      </trkpt>
      <trkpt lat="45.90118" lon="4.56048">
        <ele>292.6</ele>
        <time>2022-06-26T07:53:36Z</time>
      </trkpt>
      <trkpt lat="45.90117" lon="4.5604">
        <ele>292.6</ele>
        <time>2022-06-26T07:53:37Z</time>
      </trkpt>
      <trkpt lat="45.90116" lon="4.56032">
        <ele>292.6</ele>
        <time>2022-06-26T07:53:38Z</time>
      </trkpt>
      <trkpt lat="45.90116" lon="4.56025">
        <ele>292.6</ele>
        <time>2022-06-26T07:53:39Z</time>
      </trkpt>
      <trkpt lat="45.90115" lon="4.56017">
        <ele>292.6</ele>
        <time>2022-06-26T07:53:40Z</time>
      </trkpt>
      <trkpt lat="45.90114" lon="4.5601">
        <ele>292.6</ele>
        <time>2022-06-26T07:53:41Z</time>
      </trkpt>
      <trkpt lat="45.90114" lon="4.56002">
        <ele>292.6</ele>
        <time>2022-06-26T07:53:42Z</time>
      </trkpt>
      <trkpt lat="45.90113" lon="4.55994">
        <ele>292.6</ele>
        <time>2022-06-26T07:53:43Z</time>
      </trkpt>
      <trkpt lat="45.90112" lon="4.55986">
        <ele>292.6</ele>
        <time>2022-06-26T07:53:44Z</time>
      </trkpt>
      <trkpt lat="45.90112" lon="4.55978">
        <ele>292.6</ele>
        <time>2022-06-26T07:53:45Z</time>
      </trkpt>
      <trkpt lat="45.90111" lon="4.55971">
        <ele>292.6</ele>
        <time>2022-06-26T07:53:46Z</time>
      </trkpt>
      <trkpt lat="45.9011" lon="4.55963">
        <ele>292.6</ele>
        <time>2022-06-26T07:53:47Z</time>
      </trkpt>
      <trkpt lat="45.9011" lon="4.55955">
        <ele>292.4</ele>
        <time>2022-06-26T07:53:48Z</time>
      </trkpt>
      <trkpt lat="45.90109" lon="4.55948">
        <ele>292.4</ele>
        <time>2022-06-26T07:53:49Z</time>
      </trkpt>
      <trkpt lat="45.90109" lon="4.5594">
        <ele>292.4</ele>
        <time>2022-06-26T07:53:50Z</time>
      </trkpt>
      <trkpt lat="45.90108" lon="4.55932">
        <ele>292</ele>
        <time>2022-06-26T07:53:51Z</time>
      </trkpt>
      <trkpt lat="45.90108" lon="4.55924">
        <ele>292</ele>
        <time>2022-06-26T07:53:52Z</time>
      </trkpt>
      <trkpt lat="45.90108" lon="4.55916">
        <ele>291.8</ele>
        <time>2022-06-26T07:53:53Z</time>
      </trkpt>
      <trkpt lat="45.90108" lon="4.55907">
        <ele>291.8</ele>
        <time>2022-06-26T07:53:54Z</time>
      </trkpt>
      <trkpt lat="45.90108" lon="4.55899">
        <ele>291.4</ele>
        <time>2022-06-26T07:53:55Z</time>
      </trkpt>
      <trkpt lat="45.90109" lon="4.5589">
        <ele>291.4</ele>
        <time>2022-06-26T07:53:56Z</time>
      </trkpt>
      <trkpt lat="45.90109" lon="4.55881">
        <ele>291.2</ele>
        <time>2022-06-26T07:53:57Z</time>
      </trkpt>
      <trkpt lat="45.9011" lon="4.55872">
        <ele>291.2</ele>
        <time>2022-06-26T07:53:58Z</time>
      </trkpt>
      <trkpt lat="45.90111" lon="4.55863">
        <ele>291</ele>
        <time>2022-06-26T07:53:59Z</time>
      </trkpt>
      <trkpt lat="45.90113" lon="4.55853">
        <ele>291</ele>
        <time>2022-06-26T07:54:00Z</time>
      </trkpt>
      <trkpt lat="45.90114" lon="4.55844">
        <ele>290.6</ele>
        <time>2022-06-26T07:54:01Z</time>
      </trkpt>
      <trkpt lat="45.90116" lon="4.55834">
        <ele>290.6</ele>
        <time>2022-06-26T07:54:02Z</time>
      </trkpt>
      <trkpt lat="45.90119" lon="4.55824">
        <ele>290.4</ele>
        <time>2022-06-26T07:54:03Z</time>
      </trkpt>
      <trkpt lat="45.90121" lon="4.55815">
        <ele>290.4</ele>
        <time>2022-06-26T07:54:04Z</time>
      </trkpt>
      <trkpt lat="45.90124" lon="4.55805">
        <ele>290</ele>
        <time>2022-06-26T07:54:05Z</time>
      </trkpt>
      <trkpt lat="45.90127" lon="4.55796">
        <ele>290</ele>
        <time>2022-06-26T07:54:06Z</time>
      </trkpt>
      <trkpt lat="45.9013" lon="4.55787">
        <ele>289.8</ele>
        <time>2022-06-26T07:54:07Z</time>
      </trkpt>
      <trkpt lat="45.90133" lon="4.55777">
        <ele>289.6</ele>
        <time>2022-06-26T07:54:08Z</time>
      </trkpt>
      <trkpt lat="45.90136" lon="4.55768">
        <ele>289.6</ele>
        <time>2022-06-26T07:54:09Z</time>
      </trkpt>
      <trkpt lat="45.90139" lon="4.55759">
        <ele>289.2</ele>
        <time>2022-06-26T07:54:10Z</time>
      </trkpt>
      <trkpt lat="45.90142" lon="4.55749">
        <ele>289.2</ele>
        <time>2022-06-26T07:54:11Z</time>
      </trkpt>
      <trkpt lat="45.90145" lon="4.5574">
        <ele>288.8</ele>
        <time>2022-06-26T07:54:12Z</time>
      </trkpt>
      <trkpt lat="45.90148" lon="4.55731">
        <ele>288.6</ele>
        <time>2022-06-26T07:54:13Z</time>
      </trkpt>
      <trkpt lat="45.90152" lon="4.55721">
        <ele>288.6</ele>
        <time>2022-06-26T07:54:14Z</time>
      </trkpt>
      <trkpt lat="45.90155" lon="4.55711">
        <ele>288.4</ele>
        <time>2022-06-26T07:54:15Z</time>
      </trkpt>
      <trkpt lat="45.90158" lon="4.55701">
        <ele>288.4</ele>
        <time>2022-06-26T07:54:16Z</time>
      </trkpt>
      <trkpt lat="45.90161" lon="4.55692">
        <ele>288</ele>
        <time>2022-06-26T07:54:17Z</time>
      </trkpt>
      <trkpt lat="45.90164" lon="4.55682">
        <ele>288</ele>
        <time>2022-06-26T07:54:18Z</time>
      </trkpt>
      <trkpt lat="45.90168" lon="4.55673">
        <ele>287.6</ele>
        <time>2022-06-26T07:54:19Z</time>
      </trkpt>
      <trkpt lat="45.90171" lon="4.55663">
        <ele>287.6</ele>
        <time>2022-06-26T07:54:20Z</time>
      </trkpt>
      <trkpt lat="45.90174" lon="4.55654">
        <ele>287.4</ele>
        <time>2022-06-26T07:54:21Z</time>
      </trkpt>
      <trkpt lat="45.90176" lon="4.55643">
        <ele>287.4</ele>
        <time>2022-06-26T07:54:22Z</time>
      </trkpt>
      <trkpt lat="45.90179" lon="4.55634">
        <ele>287.2</ele>
        <time>2022-06-26T07:54:23Z</time>
      </trkpt>
      <trkpt lat="45.90182" lon="4.55623">
        <ele>287.2</ele>
        <time>2022-06-26T07:54:24Z</time>
      </trkpt>
      <trkpt lat="45.90184" lon="4.55613">
        <ele>287.2</ele>
        <time>2022-06-26T07:54:25Z</time>
      </trkpt>
      <trkpt lat="45.90187" lon="4.55603">
        <ele>286.8</ele>
        <time>2022-06-26T07:54:26Z</time>
      </trkpt>
      <trkpt lat="45.90189" lon="4.55592">
        <ele>286.8</ele>
        <time>2022-06-26T07:54:27Z</time>
      </trkpt>
      <trkpt lat="45.90191" lon="4.55581">
        <ele>286.6</ele>
        <time>2022-06-26T07:54:28Z</time>
      </trkpt>
      <trkpt lat="45.90193" lon="4.5557">
        <ele>286.6</ele>
        <time>2022-06-26T07:54:29Z</time>
      </trkpt>
      <trkpt lat="45.90194" lon="4.55559">
        <ele>286.2</ele>
        <time>2022-06-26T07:54:30Z</time>
      </trkpt>
      <trkpt lat="45.90195" lon="4.55547">
        <ele>286.2</ele>
        <time>2022-06-26T07:54:31Z</time>
      </trkpt>
      <trkpt lat="45.90196" lon="4.55536">
        <ele>286</ele>
        <time>2022-06-26T07:54:32Z</time>
      </trkpt>
      <trkpt lat="45.90197" lon="4.55524">
        <ele>286</ele>
        <time>2022-06-26T07:54:33Z</time>
      </trkpt>
      <trkpt lat="45.90198" lon="4.55512">
        <ele>285.6</ele>
        <time>2022-06-26T07:54:34Z</time>
      </trkpt>
      <trkpt lat="45.90198" lon="4.555">
        <ele>285.2</ele>
        <time>2022-06-26T07:54:35Z</time>
      </trkpt>
      <trkpt lat="45.90199" lon="4.55488">
        <ele>285</ele>
        <time>2022-06-26T07:54:36Z</time>
      </trkpt>
      <trkpt lat="45.90199" lon="4.55476">
        <ele>284.8</ele>
        <time>2022-06-26T07:54:37Z</time>
      </trkpt>
      <trkpt lat="45.902" lon="4.55464">
        <ele>284.8</ele>
        <time>2022-06-26T07:54:38Z</time>
      </trkpt>
      <trkpt lat="45.902" lon="4.55452">
        <ele>284.6</ele>
        <time>2022-06-26T07:54:39Z</time>
      </trkpt>
      <trkpt lat="45.902" lon="4.5544">
        <ele>284.6</ele>
        <time>2022-06-26T07:54:40Z</time>
      </trkpt>
      <trkpt lat="45.90201" lon="4.55428">
        <ele>284.2</ele>
        <time>2022-06-26T07:54:41Z</time>
      </trkpt>
      <trkpt lat="45.90201" lon="4.55416">
        <ele>284</ele>
        <time>2022-06-26T07:54:42Z</time>
      </trkpt>
      <trkpt lat="45.90201" lon="4.55405">
        <ele>284</ele>
        <time>2022-06-26T07:54:43Z</time>
      </trkpt>
      <trkpt lat="45.90201" lon="4.55393">
        <ele>283.8</ele>
        <time>2022-06-26T07:54:44Z</time>
      </trkpt>
      <trkpt lat="45.902" lon="4.55382">
        <ele>283.8</ele>
        <time>2022-06-26T07:54:45Z</time>
      </trkpt>
      <trkpt lat="45.90199" lon="4.55371">
        <ele>283.6</ele>
        <time>2022-06-26T07:54:46Z</time>
      </trkpt>
      <trkpt lat="45.90198" lon="4.5536">
        <ele>283.6</ele>
        <time>2022-06-26T07:54:47Z</time>
      </trkpt>
      <trkpt lat="45.90196" lon="4.55348">
        <ele>283.6</ele>
        <time>2022-06-26T07:54:48Z</time>
      </trkpt>
      <trkpt lat="45.90194" lon="4.55337">
        <ele>283.2</ele>
        <time>2022-06-26T07:54:49Z</time>
      </trkpt>
      <trkpt lat="45.90192" lon="4.55326">
        <ele>283.2</ele>
        <time>2022-06-26T07:54:50Z</time>
      </trkpt>
      <trkpt lat="45.90189" lon="4.55315">
        <ele>282.8</ele>
        <time>2022-06-26T07:54:51Z</time>
      </trkpt>
      <trkpt lat="45.90187" lon="4.55304">
        <ele>282.8</ele>
        <time>2022-06-26T07:54:52Z</time>
      </trkpt>
      <trkpt lat="45.90185" lon="4.55293">
        <ele>282.8</ele>
        <time>2022-06-26T07:54:53Z</time>
      </trkpt>
      <trkpt lat="45.90183" lon="4.55283">
        <ele>282.8</ele>
        <time>2022-06-26T07:54:54Z</time>
      </trkpt>
      <trkpt lat="45.90182" lon="4.55272">
        <ele>282.8</ele>
        <time>2022-06-26T07:54:55Z</time>
      </trkpt>
      <trkpt lat="45.90181" lon="4.55262">
        <ele>282.8</ele>
        <time>2022-06-26T07:54:56Z</time>
      </trkpt>
      <trkpt lat="45.9018" lon="4.55252">
        <ele>282.8</ele>
        <time>2022-06-26T07:54:57Z</time>
      </trkpt>
      <trkpt lat="45.90178" lon="4.55242">
        <ele>282.8</ele>
        <time>2022-06-26T07:54:58Z</time>
      </trkpt>
      <trkpt lat="45.90177" lon="4.55232">
        <ele>282.8</ele>
        <time>2022-06-26T07:54:59Z</time>
      </trkpt>
      <trkpt lat="45.90177" lon="4.55223">
        <ele>283.2</ele>
        <time>2022-06-26T07:55:00Z</time>
      </trkpt>
      <trkpt lat="45.90176" lon="4.55213">
        <ele>283.2</ele>
        <time>2022-06-26T07:55:01Z</time>
      </trkpt>
      <trkpt lat="45.90176" lon="4.55204">
        <ele>283.2</ele>
        <time>2022-06-26T07:55:02Z</time>
      </trkpt>
      <trkpt lat="45.90175" lon="4.55195">
        <ele>283.4</ele>
        <time>2022-06-26T07:55:03Z</time>
      </trkpt>
      <trkpt lat="45.90175" lon="4.55186">
        <ele>283.4</ele>
        <time>2022-06-26T07:55:04Z</time>
      </trkpt>
      <trkpt lat="45.90175" lon="4.55177">
        <ele>283.6</ele>
        <time>2022-06-26T07:55:05Z</time>
      </trkpt>
      <trkpt lat="45.90175" lon="4.55168">
        <ele>283.6</ele>
        <time>2022-06-26T07:55:06Z</time>
      </trkpt>
      <trkpt lat="45.90175" lon="4.55159">
        <ele>284</ele>
        <time>2022-06-26T07:55:07Z</time>
      </trkpt>
      <trkpt lat="45.90175" lon="4.5515">
        <ele>284</ele>
        <time>2022-06-26T07:55:08Z</time>
      </trkpt>
      <trkpt lat="45.90175" lon="4.55142">
        <ele>284.2</ele>
        <time>2022-06-26T07:55:09Z</time>
      </trkpt>
      <trkpt lat="45.90176" lon="4.55133">
        <ele>284.2</ele>
        <time>2022-06-26T07:55:10Z</time>
      </trkpt>
      <trkpt lat="45.90176" lon="4.55124">
        <ele>284.4</ele>
        <time>2022-06-26T07:55:11Z</time>
      </trkpt>
      <trkpt lat="45.90177" lon="4.55116">
        <ele>284.4</ele>
        <time>2022-06-26T07:55:12Z</time>
      </trkpt>
      <trkpt lat="45.90178" lon="4.55107">
        <ele>284.4</ele>
        <time>2022-06-26T07:55:13Z</time>
      </trkpt>
      <trkpt lat="45.90179" lon="4.55099">
        <ele>284.6</ele>
        <time>2022-06-26T07:55:14Z</time>
      </trkpt>
      <trkpt lat="45.9018" lon="4.5509">
        <ele>284.6</ele>
        <time>2022-06-26T07:55:15Z</time>
      </trkpt>
      <trkpt lat="45.90182" lon="4.55082">
        <ele>284.6</ele>
        <time>2022-06-26T07:55:16Z</time>
      </trkpt>
      <trkpt lat="45.90183" lon="4.55074">
        <ele>285</ele>
        <time>2022-06-26T07:55:17Z</time>
      </trkpt>
      <trkpt lat="45.90185" lon="4.55066">
        <ele>285</ele>
        <time>2022-06-26T07:55:18Z</time>
      </trkpt>
      <trkpt lat="45.90186" lon="4.55059">
        <ele>285.2</ele>
        <time>2022-06-26T07:55:19Z</time>
      </trkpt>
      <trkpt lat="45.90188" lon="4.55051">
        <ele>285.4</ele>
        <time>2022-06-26T07:55:20Z</time>
      </trkpt>
      <trkpt lat="45.9019" lon="4.55044">
        <ele>285.4</ele>
        <time>2022-06-26T07:55:21Z</time>
      </trkpt>
      <trkpt lat="45.90191" lon="4.55036">
        <ele>285.6</ele>
        <time>2022-06-26T07:55:22Z</time>
      </trkpt>
      <trkpt lat="45.90193" lon="4.55028">
        <ele>285.6</ele>
        <time>2022-06-26T07:55:23Z</time>
      </trkpt>
      <trkpt lat="45.90195" lon="4.55021">
        <ele>286</ele>
        <time>2022-06-26T07:55:24Z</time>
      </trkpt>
      <trkpt lat="45.90196" lon="4.55014">
        <ele>286</ele>
        <time>2022-06-26T07:55:25Z</time>
      </trkpt>
      <trkpt lat="45.90198" lon="4.55006">
        <ele>286.2</ele>
        <time>2022-06-26T07:55:26Z</time>
      </trkpt>
      <trkpt lat="45.902" lon="4.54999">
        <ele>286.2</ele>
        <time>2022-06-26T07:55:27Z</time>
      </trkpt>
      <trkpt lat="45.90201" lon="4.54992">
        <ele>286.2</ele>
        <time>2022-06-26T07:55:28Z</time>
      </trkpt>
      <trkpt lat="45.90203" lon="4.54984">
        <ele>286.6</ele>
        <time>2022-06-26T07:55:29Z</time>
      </trkpt>
      <trkpt lat="45.90204" lon="4.54977">
        <ele>286.6</ele>
        <time>2022-06-26T07:55:30Z</time>
      </trkpt>
      <trkpt lat="45.90206" lon="4.5497">
        <ele>286.8</ele>
        <time>2022-06-26T07:55:31Z</time>
      </trkpt>
      <trkpt lat="45.90207" lon="4.54962">
        <ele>287</ele>
        <time>2022-06-26T07:55:32Z</time>
      </trkpt>
      <trkpt lat="45.90209" lon="4.54955">
        <ele>287</ele>
        <time>2022-06-26T07:55:33Z</time>
      </trkpt>
      <trkpt lat="45.9021" lon="4.54947">
        <ele>287</ele>
        <time>2022-06-26T07:55:34Z</time>
      </trkpt>
      <trkpt lat="45.90212" lon="4.5494">
        <ele>287.4</ele>
        <time>2022-06-26T07:55:35Z</time>
      </trkpt>
      <trkpt lat="45.90214" lon="4.54932">
        <ele>287.4</ele>
        <time>2022-06-26T07:55:36Z</time>
      </trkpt>
      <trkpt lat="45.90215" lon="4.54925">
        <ele>287.4</ele>
        <time>2022-06-26T07:55:37Z</time>
      </trkpt>
      <trkpt lat="45.90217" lon="4.54918">
        <ele>287.6</ele>
        <time>2022-06-26T07:55:38Z</time>
      </trkpt>
      <trkpt lat="45.90218" lon="4.5491">
        <ele>287.6</ele>
        <time>2022-06-26T07:55:39Z</time>
      </trkpt>
      <trkpt lat="45.9022" lon="4.54903">
        <ele>287.8</ele>
        <time>2022-06-26T07:55:40Z</time>
      </trkpt>
      <trkpt lat="45.90222" lon="4.54896">
        <ele>287.8</ele>
        <time>2022-06-26T07:55:41Z</time>
      </trkpt>
      <trkpt lat="45.90223" lon="4.54888">
        <ele>287.8</ele>
        <time>2022-06-26T07:55:42Z</time>
      </trkpt>
      <trkpt lat="45.90225" lon="4.5488">
        <ele>288</ele>
        <time>2022-06-26T07:55:43Z</time>
      </trkpt>
      <trkpt lat="45.90226" lon="4.54872">
        <ele>288</ele>
        <time>2022-06-26T07:55:44Z</time>
      </trkpt>
      <trkpt lat="45.90228" lon="4.54865">
        <ele>288</ele>
        <time>2022-06-26T07:55:45Z</time>
      </trkpt>
      <trkpt lat="45.9023" lon="4.54857">
        <ele>288</ele>
        <time>2022-06-26T07:55:46Z</time>
      </trkpt>
      <trkpt lat="45.90232" lon="4.54849">
        <ele>288</ele>
        <time>2022-06-26T07:55:47Z</time>
      </trkpt>
      <trkpt lat="45.90233" lon="4.54842">
        <ele>288</ele>
        <time>2022-06-26T07:55:48Z</time>
      </trkpt>
      <trkpt lat="45.90235" lon="4.54834">
        <ele>288</ele>
        <time>2022-06-26T07:55:49Z</time>
      </trkpt>
      <trkpt lat="45.90237" lon="4.54826">
        <ele>288.4</ele>
        <time>2022-06-26T07:55:50Z</time>
      </trkpt>
      <trkpt lat="45.90239" lon="4.54819">
        <ele>288.4</ele>
        <time>2022-06-26T07:55:51Z</time>
      </trkpt>
      <trkpt lat="45.90242" lon="4.54811">
        <ele>288.6</ele>
        <time>2022-06-26T07:55:52Z</time>
      </trkpt>
      <trkpt lat="45.90244" lon="4.54804">
        <ele>288.6</ele>
        <time>2022-06-26T07:55:53Z</time>
      </trkpt>
      <trkpt lat="45.90247" lon="4.54796">
        <ele>288.6</ele>
        <time>2022-06-26T07:55:54Z</time>
      </trkpt>
      <trkpt lat="45.9025" lon="4.54789">
        <ele>288.6</ele>
        <time>2022-06-26T07:55:55Z</time>
      </trkpt>
      <trkpt lat="45.90253" lon="4.54782">
        <ele>288.6</ele>
        <time>2022-06-26T07:55:56Z</time>
      </trkpt>
      <trkpt lat="45.90256" lon="4.54775">
        <ele>288.6</ele>
        <time>2022-06-26T07:55:57Z</time>
      </trkpt>
      <trkpt lat="45.90259" lon="4.54768">
        <ele>288.6</ele>
        <time>2022-06-26T07:55:58Z</time>
      </trkpt>
      <trkpt lat="45.90262" lon="4.54761">
        <ele>288.6</ele>
        <time>2022-06-26T07:55:59Z</time>
      </trkpt>
      <trkpt lat="45.90266" lon="4.54755">
        <ele>288.6</ele>
        <time>2022-06-26T07:56:00Z</time>
      </trkpt>
      <trkpt lat="45.90269" lon="4.54748">
        <ele>288.6</ele>
        <time>2022-06-26T07:56:01Z</time>
      </trkpt>
      <trkpt lat="45.90272" lon="4.54742">
        <ele>288.6</ele>
        <time>2022-06-26T07:56:02Z</time>
      </trkpt>
      <trkpt lat="45.90276" lon="4.54736">
        <ele>288.6</ele>
        <time>2022-06-26T07:56:03Z</time>
      </trkpt>
      <trkpt lat="45.90279" lon="4.5473">
        <ele>288.8</ele>
        <time>2022-06-26T07:56:04Z</time>
      </trkpt>
      <trkpt lat="45.90283" lon="4.54723">
        <ele>288.8</ele>
        <time>2022-06-26T07:56:05Z</time>
      </trkpt>
      <trkpt lat="45.90286" lon="4.54717">
        <ele>288.8</ele>
        <time>2022-06-26T07:56:06Z</time>
      </trkpt>
      <trkpt lat="45.9029" lon="4.54711">
        <ele>289</ele>
        <time>2022-06-26T07:56:07Z</time>
      </trkpt>
      <trkpt lat="45.90293" lon="4.54705">
        <ele>289</ele>
        <time>2022-06-26T07:56:08Z</time>
      </trkpt>
      <trkpt lat="45.90297" lon="4.54699">
        <ele>289</ele>
        <time>2022-06-26T07:56:09Z</time>
      </trkpt>
      <trkpt lat="45.903" lon="4.54693">
        <ele>289</ele>
        <time>2022-06-26T07:56:10Z</time>
      </trkpt>
      <trkpt lat="45.90304" lon="4.54687">
        <ele>289</ele>
        <time>2022-06-26T07:56:11Z</time>
      </trkpt>
      <trkpt lat="45.90307" lon="4.54681">
        <ele>289</ele>
        <time>2022-06-26T07:56:12Z</time>
      </trkpt>
      <trkpt lat="45.9031" lon="4.54674">
        <ele>289.2</ele>
        <time>2022-06-26T07:56:13Z</time>
      </trkpt>
      <trkpt lat="45.90314" lon="4.54668">
        <ele>289.2</ele>
        <time>2022-06-26T07:56:14Z</time>
      </trkpt>
      <trkpt lat="45.90317" lon="4.54662">
        <ele>289.2</ele>
        <time>2022-06-26T07:56:15Z</time>
      </trkpt>
      <trkpt lat="45.9032" lon="4.54655">
        <ele>289.6</ele>
        <time>2022-06-26T07:56:16Z</time>
      </trkpt>
      <trkpt lat="45.90323" lon="4.54649">
        <ele>289.6</ele>
        <time>2022-06-26T07:56:17Z</time>
      </trkpt>
      <trkpt lat="45.90325" lon="4.54642">
        <ele>289.6</ele>
        <time>2022-06-26T07:56:18Z</time>
      </trkpt>
      <trkpt lat="45.90328" lon="4.54635">
        <ele>289.6</ele>
        <time>2022-06-26T07:56:19Z</time>
      </trkpt>
      <trkpt lat="45.90331" lon="4.54627">
        <ele>289.8</ele>
        <time>2022-06-26T07:56:20Z</time>
      </trkpt>
      <trkpt lat="45.90333" lon="4.5462">
        <ele>289.8</ele>
        <time>2022-06-26T07:56:22Z</time>
      </trkpt>
      <trkpt lat="45.90335" lon="4.54613">
        <ele>289.8</ele>
        <time>2022-06-26T07:56:23Z</time>
      </trkpt>
      <trkpt lat="45.90338" lon="4.54605">
        <ele>290.2</ele>
        <time>2022-06-26T07:56:24Z</time>
      </trkpt>
      <trkpt lat="45.9034" lon="4.54597">
        <ele>290.2</ele>
        <time>2022-06-26T07:56:25Z</time>
      </trkpt>
      <trkpt lat="45.90341" lon="4.54589">
        <ele>290.2</ele>
        <time>2022-06-26T07:56:26Z</time>
      </trkpt>
      <trkpt lat="45.90343" lon="4.54581">
        <ele>290.4</ele>
        <time>2022-06-26T07:56:27Z</time>
      </trkpt>
      <trkpt lat="45.90344" lon="4.54573">
        <ele>290.4</ele>
        <time>2022-06-26T07:56:28Z</time>
      </trkpt>
      <trkpt lat="45.90345" lon="4.54565">
        <ele>290.4</ele>
        <time>2022-06-26T07:56:29Z</time>
      </trkpt>
      <trkpt lat="45.90346" lon="4.54557">
        <ele>290.4</ele>
        <time>2022-06-26T07:56:30Z</time>
      </trkpt>
      <trkpt lat="45.90347" lon="4.54549">
        <ele>290.4</ele>
        <time>2022-06-26T07:56:31Z</time>
      </trkpt>
      <trkpt lat="45.90347" lon="4.54541">
        <ele>290.4</ele>
        <time>2022-06-26T07:56:32Z</time>
      </trkpt>
      <trkpt lat="45.90347" lon="4.54532">
        <ele>290.4</ele>
        <time>2022-06-26T07:56:33Z</time>
      </trkpt>
      <trkpt lat="45.90347" lon="4.54524">
        <ele>290.4</ele>
        <time>2022-06-26T07:56:34Z</time>
      </trkpt>
      <trkpt lat="45.90346" lon="4.54516">
        <ele>290.4</ele>
        <time>2022-06-26T07:56:35Z</time>
      </trkpt>
      <trkpt lat="45.90346" lon="4.54508">
        <ele>290.4</ele>
        <time>2022-06-26T07:56:36Z</time>
      </trkpt>
      <trkpt lat="45.90345" lon="4.54499">
        <ele>290.4</ele>
        <time>2022-06-26T07:56:37Z</time>
      </trkpt>
      <trkpt lat="45.90344" lon="4.54491">
        <ele>290.4</ele>
        <time>2022-06-26T07:56:38Z</time>
      </trkpt>
      <trkpt lat="45.90343" lon="4.54483">
        <ele>290.4</ele>
        <time>2022-06-26T07:56:39Z</time>
      </trkpt>
      <trkpt lat="45.90342" lon="4.54474">
        <ele>290.4</ele>
        <time>2022-06-26T07:56:40Z</time>
      </trkpt>
      <trkpt lat="45.9034" lon="4.54466">
        <ele>290.4</ele>
        <time>2022-06-26T07:56:41Z</time>
      </trkpt>
      <trkpt lat="45.90339" lon="4.54458">
        <ele>290.4</ele>
        <time>2022-06-26T07:56:42Z</time>
      </trkpt>
      <trkpt lat="45.90337" lon="4.54449">
        <ele>290.2</ele>
        <time>2022-06-26T07:56:43Z</time>
      </trkpt>
      <trkpt lat="45.90336" lon="4.54441">
        <ele>290.2</ele>
        <time>2022-06-26T07:56:44Z</time>
      </trkpt>
      <trkpt lat="45.90334" lon="4.54433">
        <ele>290.2</ele>
        <time>2022-06-26T07:56:45Z</time>
      </trkpt>
      <trkpt lat="45.90332" lon="4.54425">
        <ele>290.2</ele>
        <time>2022-06-26T07:56:46Z</time>
      </trkpt>
      <trkpt lat="45.90331" lon="4.54416">
        <ele>290.2</ele>
        <time>2022-06-26T07:56:47Z</time>
      </trkpt>
      <trkpt lat="45.90329" lon="4.54408">
        <ele>290.2</ele>
        <time>2022-06-26T07:56:48Z</time>
      </trkpt>
      <trkpt lat="45.90328" lon="4.544">
        <ele>290.2</ele>
        <time>2022-06-26T07:56:49Z</time>
      </trkpt>
      <trkpt lat="45.90326" lon="4.54392">
        <ele>290.2</ele>
        <time>2022-06-26T07:56:50Z</time>
      </trkpt>
      <trkpt lat="45.90324" lon="4.54384">
        <ele>290.2</ele>
        <time>2022-06-26T07:56:51Z</time>
      </trkpt>
      <trkpt lat="45.90322" lon="4.54376">
        <ele>290.2</ele>
        <time>2022-06-26T07:56:52Z</time>
      </trkpt>
      <trkpt lat="45.9032" lon="4.54367">
        <ele>290.2</ele>
        <time>2022-06-26T07:56:53Z</time>
      </trkpt>
      <trkpt lat="45.90318" lon="4.54359">
        <ele>290.6</ele>
        <time>2022-06-26T07:56:54Z</time>
      </trkpt>
      <trkpt lat="45.90317" lon="4.54352">
        <ele>290.6</ele>
        <time>2022-06-26T07:56:55Z</time>
      </trkpt>
      <trkpt lat="45.90315" lon="4.54344">
        <ele>290.6</ele>
        <time>2022-06-26T07:56:56Z</time>
      </trkpt>
      <trkpt lat="45.90314" lon="4.54336">
        <ele>290.6</ele>
        <time>2022-06-26T07:56:57Z</time>
      </trkpt>
      <trkpt lat="45.90313" lon="4.54327">
        <ele>290.6</ele>
        <time>2022-06-26T07:56:58Z</time>
      </trkpt>
      <trkpt lat="45.90312" lon="4.54319">
        <ele>290.6</ele>
        <time>2022-06-26T07:56:59Z</time>
      </trkpt>
      <trkpt lat="45.90311" lon="4.54312">
        <ele>290.6</ele>
        <time>2022-06-26T07:57:00Z</time>
      </trkpt>
      <trkpt lat="45.9031" lon="4.54304">
        <ele>290.6</ele>
        <time>2022-06-26T07:57:01Z</time>
      </trkpt>
      <trkpt lat="45.90309" lon="4.54297">
        <ele>290.6</ele>
        <time>2022-06-26T07:57:02Z</time>
      </trkpt>
      <trkpt lat="45.90308" lon="4.54289">
        <ele>290.6</ele>
        <time>2022-06-26T07:57:03Z</time>
      </trkpt>
      <trkpt lat="45.90308" lon="4.54281">
        <ele>290.6</ele>
        <time>2022-06-26T07:57:04Z</time>
      </trkpt>
      <trkpt lat="45.90307" lon="4.54273">
        <ele>290.8</ele>
        <time>2022-06-26T07:57:05Z</time>
      </trkpt>
      <trkpt lat="45.90307" lon="4.54265">
        <ele>290.8</ele>
        <time>2022-06-26T07:57:06Z</time>
      </trkpt>
      <trkpt lat="45.90307" lon="4.54257">
        <ele>290.8</ele>
        <time>2022-06-26T07:57:07Z</time>
      </trkpt>
      <trkpt lat="45.90307" lon="4.54249">
        <ele>290.8</ele>
        <time>2022-06-26T07:57:08Z</time>
      </trkpt>
      <trkpt lat="45.90307" lon="4.54242">
        <ele>290.8</ele>
        <time>2022-06-26T07:57:09Z</time>
      </trkpt>
      <trkpt lat="45.90306" lon="4.54234">
        <ele>291</ele>
        <time>2022-06-26T07:57:10Z</time>
      </trkpt>
      <trkpt lat="45.90306" lon="4.54227">
        <ele>291</ele>
        <time>2022-06-26T07:57:11Z</time>
      </trkpt>
      <trkpt lat="45.90306" lon="4.54219">
        <ele>291</ele>
        <time>2022-06-26T07:57:12Z</time>
      </trkpt>
      <trkpt lat="45.90305" lon="4.54211">
        <ele>291</ele>
        <time>2022-06-26T07:57:13Z</time>
      </trkpt>
      <trkpt lat="45.90305" lon="4.54204">
        <ele>291.4</ele>
        <time>2022-06-26T07:57:14Z</time>
      </trkpt>
      <trkpt lat="45.90305" lon="4.54196">
        <ele>291.4</ele>
        <time>2022-06-26T07:57:15Z</time>
      </trkpt>
      <trkpt lat="45.90304" lon="4.54189">
        <ele>291.4</ele>
        <time>2022-06-26T07:57:16Z</time>
      </trkpt>
      <trkpt lat="45.90304" lon="4.54181">
        <ele>291.6</ele>
        <time>2022-06-26T07:57:17Z</time>
      </trkpt>
      <trkpt lat="45.90303" lon="4.54173">
        <ele>291.6</ele>
        <time>2022-06-26T07:57:18Z</time>
      </trkpt>
      <trkpt lat="45.90303" lon="4.54166">
        <ele>291.6</ele>
        <time>2022-06-26T07:57:19Z</time>
      </trkpt>
      <trkpt lat="45.90303" lon="4.54158">
        <ele>291.8</ele>
        <time>2022-06-26T07:57:20Z</time>
      </trkpt>
      <trkpt lat="45.90303" lon="4.54151">
        <ele>291.8</ele>
        <time>2022-06-26T07:57:21Z</time>
      </trkpt>
      <trkpt lat="45.90302" lon="4.54143">
        <ele>291.8</ele>
        <time>2022-06-26T07:57:22Z</time>
      </trkpt>
      <trkpt lat="45.90302" lon="4.54136">
        <ele>292</ele>
        <time>2022-06-26T07:57:23Z</time>
      </trkpt>
      <trkpt lat="45.90301" lon="4.54127">
        <ele>292</ele>
        <time>2022-06-26T07:57:24Z</time>
      </trkpt>
      <trkpt lat="45.90301" lon="4.5412">
        <ele>292.2</ele>
        <time>2022-06-26T07:57:25Z</time>
      </trkpt>
      <trkpt lat="45.903" lon="4.54112">
        <ele>292.2</ele>
        <time>2022-06-26T07:57:26Z</time>
      </trkpt>
      <trkpt lat="45.903" lon="4.54104">
        <ele>292.6</ele>
        <time>2022-06-26T07:57:27Z</time>
      </trkpt>
      <trkpt lat="45.903" lon="4.54097">
        <ele>292.6</ele>
        <time>2022-06-26T07:57:28Z</time>
      </trkpt>
      <trkpt lat="45.903" lon="4.54089">
        <ele>292.6</ele>
        <time>2022-06-26T07:57:29Z</time>
      </trkpt>
      <trkpt lat="45.90299" lon="4.54082">
        <ele>292.8</ele>
        <time>2022-06-26T07:57:30Z</time>
      </trkpt>
      <trkpt lat="45.90299" lon="4.54074">
        <ele>292.8</ele>
        <time>2022-06-26T07:57:31Z</time>
      </trkpt>
      <trkpt lat="45.90298" lon="4.54067">
        <ele>292.8</ele>
        <time>2022-06-26T07:57:32Z</time>
      </trkpt>
      <trkpt lat="45.90298" lon="4.54059">
        <ele>293</ele>
        <time>2022-06-26T07:57:33Z</time>
      </trkpt>
      <trkpt lat="45.90298" lon="4.54052">
        <ele>293</ele>
        <time>2022-06-26T07:57:34Z</time>
      </trkpt>
      <trkpt lat="45.90297" lon="4.54044">
        <ele>293.2</ele>
        <time>2022-06-26T07:57:35Z</time>
      </trkpt>
      <trkpt lat="45.90297" lon="4.54037">
        <ele>293.2</ele>
        <time>2022-06-26T07:57:36Z</time>
      </trkpt>
      <trkpt lat="45.90297" lon="4.5403">
        <ele>293.2</ele>
        <time>2022-06-26T07:57:37Z</time>
      </trkpt>
      <trkpt lat="45.90297" lon="4.54022">
        <ele>293.6</ele>
        <time>2022-06-26T07:57:38Z</time>
      </trkpt>
      <trkpt lat="45.90296" lon="4.54015">
        <ele>293.6</ele>
        <time>2022-06-26T07:57:39Z</time>
      </trkpt>
      <trkpt lat="45.90296" lon="4.54008">
        <ele>293.8</ele>
        <time>2022-06-26T07:57:40Z</time>
      </trkpt>
      <trkpt lat="45.90296" lon="4.54">
        <ele>293.8</ele>
        <time>2022-06-26T07:57:41Z</time>
      </trkpt>
      <trkpt lat="45.90296" lon="4.53993">
        <ele>294</ele>
        <time>2022-06-26T07:57:42Z</time>
      </trkpt>
      <trkpt lat="45.90296" lon="4.53986">
        <ele>294</ele>
        <time>2022-06-26T07:57:43Z</time>
      </trkpt>
      <trkpt lat="45.90295" lon="4.53979">
        <ele>294.2</ele>
        <time>2022-06-26T07:57:44Z</time>
      </trkpt>
      <trkpt lat="45.90295" lon="4.53971">
        <ele>294.2</ele>
        <time>2022-06-26T07:57:45Z</time>
      </trkpt>
      <trkpt lat="45.90295" lon="4.53964">
        <ele>294.6</ele>
        <time>2022-06-26T07:57:46Z</time>
      </trkpt>
      <trkpt lat="45.90295" lon="4.53957">
        <ele>294.6</ele>
        <time>2022-06-26T07:57:47Z</time>
      </trkpt>
      <trkpt lat="45.90295" lon="4.5395">
        <ele>294.8</ele>
        <time>2022-06-26T07:57:48Z</time>
      </trkpt>
      <trkpt lat="45.90294" lon="4.53942">
        <ele>294.8</ele>
        <time>2022-06-26T07:57:49Z</time>
      </trkpt>
      <trkpt lat="45.90294" lon="4.53935">
        <ele>295</ele>
        <time>2022-06-26T07:57:50Z</time>
      </trkpt>
      <trkpt lat="45.90294" lon="4.53928">
        <ele>295</ele>
        <time>2022-06-26T07:57:51Z</time>
      </trkpt>
      <trkpt lat="45.90294" lon="4.5392">
        <ele>295</ele>
        <time>2022-06-26T07:57:52Z</time>
      </trkpt>
      <trkpt lat="45.90293" lon="4.53913">
        <ele>295</ele>
        <time>2022-06-26T07:57:53Z</time>
      </trkpt>
      <trkpt lat="45.90293" lon="4.53906">
        <ele>295.2</ele>
        <time>2022-06-26T07:57:54Z</time>
      </trkpt>
      <trkpt lat="45.90293" lon="4.53899">
        <ele>295.2</ele>
        <time>2022-06-26T07:57:55Z</time>
      </trkpt>
      <trkpt lat="45.90293" lon="4.53891">
        <ele>295.4</ele>
        <time>2022-06-26T07:57:56Z</time>
      </trkpt>
      <trkpt lat="45.90292" lon="4.53884">
        <ele>295.4</ele>
        <time>2022-06-26T07:57:57Z</time>
      </trkpt>
      <trkpt lat="45.90292" lon="4.53877">
        <ele>295.4</ele>
        <time>2022-06-26T07:57:58Z</time>
      </trkpt>
      <trkpt lat="45.90292" lon="4.5387">
        <ele>295.4</ele>
        <time>2022-06-26T07:57:59Z</time>
      </trkpt>
      <trkpt lat="45.90291" lon="4.53862">
        <ele>295.4</ele>
        <time>2022-06-26T07:58:00Z</time>
      </trkpt>
      <trkpt lat="45.90291" lon="4.53855">
        <ele>295.4</ele>
        <time>2022-06-26T07:58:01Z</time>
      </trkpt>
      <trkpt lat="45.90291" lon="4.53848">
        <ele>295.8</ele>
        <time>2022-06-26T07:58:02Z</time>
      </trkpt>
      <trkpt lat="45.9029" lon="4.5384">
        <ele>295.8</ele>
        <time>2022-06-26T07:58:03Z</time>
      </trkpt>
      <trkpt lat="45.9029" lon="4.53833">
        <ele>295.8</ele>
        <time>2022-06-26T07:58:04Z</time>
      </trkpt>
      <trkpt lat="45.9029" lon="4.53825">
        <ele>295.8</ele>
        <time>2022-06-26T07:58:05Z</time>
      </trkpt>
      <trkpt lat="45.90289" lon="4.53817">
        <ele>296</ele>
        <time>2022-06-26T07:58:06Z</time>
      </trkpt>
      <trkpt lat="45.90289" lon="4.53809">
        <ele>296</ele>
        <time>2022-06-26T07:58:07Z</time>
      </trkpt>
      <trkpt lat="45.90289" lon="4.53801">
        <ele>296</ele>
        <time>2022-06-26T07:58:08Z</time>
      </trkpt>
      <trkpt lat="45.90288" lon="4.53794">
        <ele>296</ele>
        <time>2022-06-26T07:58:09Z</time>
      </trkpt>
      <trkpt lat="45.90288" lon="4.53786">
        <ele>296.2</ele>
        <time>2022-06-26T07:58:10Z</time>
      </trkpt>
      <trkpt lat="45.90287" lon="4.53778">
        <ele>296.2</ele>
        <time>2022-06-26T07:58:11Z</time>
      </trkpt>
      <trkpt lat="45.90287" lon="4.5377">
        <ele>296.2</ele>
        <time>2022-06-26T07:58:12Z</time>
      </trkpt>
      <trkpt lat="45.90287" lon="4.53763">
        <ele>296.4</ele>
        <time>2022-06-26T07:58:13Z</time>
      </trkpt>
      <trkpt lat="45.90287" lon="4.53755">
        <ele>296.4</ele>
        <time>2022-06-26T07:58:14Z</time>
      </trkpt>
      <trkpt lat="45.90287" lon="4.53748">
        <ele>296.4</ele>
        <time>2022-06-26T07:58:15Z</time>
      </trkpt>
      <trkpt lat="45.90286" lon="4.5374">
        <ele>296.4</ele>
        <time>2022-06-26T07:58:16Z</time>
      </trkpt>
      <trkpt lat="45.90286" lon="4.53732">
        <ele>296.6</ele>
        <time>2022-06-26T07:58:17Z</time>
      </trkpt>
      <trkpt lat="45.90286" lon="4.53725">
        <ele>296.6</ele>
        <time>2022-06-26T07:58:18Z</time>
      </trkpt>
      <trkpt lat="45.90286" lon="4.53717">
        <ele>296.6</ele>
        <time>2022-06-26T07:58:19Z</time>
      </trkpt>
      <trkpt lat="45.90286" lon="4.53709">
        <ele>296.6</ele>
        <time>2022-06-26T07:58:20Z</time>
      </trkpt>
      <trkpt lat="45.90286" lon="4.53701">
        <ele>296.6</ele>
        <time>2022-06-26T07:58:21Z</time>
      </trkpt>
      <trkpt lat="45.90285" lon="4.53693">
        <ele>297</ele>
        <time>2022-06-26T07:58:22Z</time>
      </trkpt>
      <trkpt lat="45.90285" lon="4.53685">
        <ele>297</ele>
        <time>2022-06-26T07:58:23Z</time>
      </trkpt>
      <trkpt lat="45.90285" lon="4.53678">
        <ele>297</ele>
        <time>2022-06-26T07:58:24Z</time>
      </trkpt>
      <trkpt lat="45.90285" lon="4.5367">
        <ele>297.2</ele>
        <time>2022-06-26T07:58:25Z</time>
      </trkpt>
      <trkpt lat="45.90285" lon="4.53662">
        <ele>297.2</ele>
        <time>2022-06-26T07:58:26Z</time>
      </trkpt>
      <trkpt lat="45.90285" lon="4.53654">
        <ele>297.2</ele>
        <time>2022-06-26T07:58:27Z</time>
      </trkpt>
      <trkpt lat="45.90285" lon="4.53646">
        <ele>297.2</ele>
        <time>2022-06-26T07:58:28Z</time>
      </trkpt>
      <trkpt lat="45.90285" lon="4.53638">
        <ele>297.2</ele>
        <time>2022-06-26T07:58:29Z</time>
      </trkpt>
      <trkpt lat="45.90285" lon="4.5363">
        <ele>297.2</ele>
        <time>2022-06-26T07:58:30Z</time>
      </trkpt>
      <trkpt lat="45.90285" lon="4.53621">
        <ele>297.2</ele>
        <time>2022-06-26T07:58:31Z</time>
      </trkpt>
      <trkpt lat="45.90286" lon="4.53613">
        <ele>297.2</ele>
        <time>2022-06-26T07:58:32Z</time>
      </trkpt>
      <trkpt lat="45.90286" lon="4.53605">
        <ele>297.2</ele>
        <time>2022-06-26T07:58:33Z</time>
      </trkpt>
      <trkpt lat="45.90287" lon="4.53597">
        <ele>297.2</ele>
        <time>2022-06-26T07:58:34Z</time>
      </trkpt>
      <trkpt lat="45.90288" lon="4.53589">
        <ele>297.2</ele>
        <time>2022-06-26T07:58:35Z</time>
      </trkpt>
      <trkpt lat="45.90289" lon="4.5358">
        <ele>297.2</ele>
        <time>2022-06-26T07:58:36Z</time>
      </trkpt>
      <trkpt lat="45.9029" lon="4.53572">
        <ele>297.4</ele>
        <time>2022-06-26T07:58:37Z</time>
      </trkpt>
      <trkpt lat="45.90291" lon="4.53564">
        <ele>297.4</ele>
        <time>2022-06-26T07:58:38Z</time>
      </trkpt>
      <trkpt lat="45.90293" lon="4.53555">
        <ele>297.4</ele>
        <time>2022-06-26T07:58:39Z</time>
      </trkpt>
      <trkpt lat="45.90294" lon="4.53547">
        <ele>297.4</ele>
        <time>2022-06-26T07:58:40Z</time>
      </trkpt>
      <trkpt lat="45.90295" lon="4.53538">
        <ele>297.4</ele>
        <time>2022-06-26T07:58:41Z</time>
      </trkpt>
      <trkpt lat="45.90297" lon="4.5353">
        <ele>297.4</ele>
        <time>2022-06-26T07:58:42Z</time>
      </trkpt>
      <trkpt lat="45.90298" lon="4.53521">
        <ele>297.4</ele>
        <time>2022-06-26T07:58:43Z</time>
      </trkpt>
      <trkpt lat="45.903" lon="4.53513">
        <ele>297.4</ele>
        <time>2022-06-26T07:58:44Z</time>
      </trkpt>
      <trkpt lat="45.90301" lon="4.53505">
        <ele>297.6</ele>
        <time>2022-06-26T07:58:45Z</time>
      </trkpt>
      <trkpt lat="45.90303" lon="4.53497">
        <ele>297.6</ele>
        <time>2022-06-26T07:58:46Z</time>
      </trkpt>
      <trkpt lat="45.90304" lon="4.53488">
        <ele>297.6</ele>
        <time>2022-06-26T07:58:47Z</time>
      </trkpt>
      <trkpt lat="45.90306" lon="4.5348">
        <ele>297.8</ele>
        <time>2022-06-26T07:58:48Z</time>
      </trkpt>
      <trkpt lat="45.90308" lon="4.53472">
        <ele>297.8</ele>
        <time>2022-06-26T07:58:49Z</time>
      </trkpt>
      <trkpt lat="45.9031" lon="4.53464">
        <ele>297.8</ele>
        <time>2022-06-26T07:58:50Z</time>
      </trkpt>
      <trkpt lat="45.90312" lon="4.53456">
        <ele>297.8</ele>
        <time>2022-06-26T07:58:51Z</time>
      </trkpt>
      <trkpt lat="45.90314" lon="4.53448">
        <ele>297.8</ele>
        <time>2022-06-26T07:58:52Z</time>
      </trkpt>
      <trkpt lat="45.90316" lon="4.53439">
        <ele>298</ele>
        <time>2022-06-26T07:58:53Z</time>
      </trkpt>
      <trkpt lat="45.90318" lon="4.53431">
        <ele>298</ele>
        <time>2022-06-26T07:58:54Z</time>
      </trkpt>
      <trkpt lat="45.9032" lon="4.53423">
        <ele>298</ele>
        <time>2022-06-26T07:58:55Z</time>
      </trkpt>
      <trkpt lat="45.90322" lon="4.53415">
        <ele>298</ele>
        <time>2022-06-26T07:58:56Z</time>
      </trkpt>
      <trkpt lat="45.90324" lon="4.53408">
        <ele>298</ele>
        <time>2022-06-26T07:58:57Z</time>
      </trkpt>
      <trkpt lat="45.90326" lon="4.534">
        <ele>298.4</ele>
        <time>2022-06-26T07:58:58Z</time>
      </trkpt>
      <trkpt lat="45.90328" lon="4.53392">
        <ele>298.4</ele>
        <time>2022-06-26T07:58:59Z</time>
      </trkpt>
      <trkpt lat="45.9033" lon="4.53385">
        <ele>298.4</ele>
        <time>2022-06-26T07:59:00Z</time>
      </trkpt>
      <trkpt lat="45.90332" lon="4.53377">
        <ele>298.4</ele>
        <time>2022-06-26T07:59:01Z</time>
      </trkpt>
      <trkpt lat="45.90333" lon="4.53369">
        <ele>298.4</ele>
        <time>2022-06-26T07:59:02Z</time>
      </trkpt>
      <trkpt lat="45.90335" lon="4.53361">
        <ele>298.4</ele>
        <time>2022-06-26T07:59:03Z</time>
      </trkpt>
      <trkpt lat="45.90337" lon="4.53353">
        <ele>298.4</ele>
        <time>2022-06-26T07:59:04Z</time>
      </trkpt>
      <trkpt lat="45.90339" lon="4.53345">
        <ele>298.6</ele>
        <time>2022-06-26T07:59:05Z</time>
      </trkpt>
      <trkpt lat="45.90341" lon="4.53337">
        <ele>298.6</ele>
        <time>2022-06-26T07:59:06Z</time>
      </trkpt>
      <trkpt lat="45.90344" lon="4.53329">
        <ele>298.6</ele>
        <time>2022-06-26T07:59:07Z</time>
      </trkpt>
      <trkpt lat="45.90345" lon="4.53321">
        <ele>298.6</ele>
        <time>2022-06-26T07:59:08Z</time>
      </trkpt>
      <trkpt lat="45.90347" lon="4.53313">
        <ele>298.8</ele>
        <time>2022-06-26T07:59:09Z</time>
      </trkpt>
      <trkpt lat="45.9035" lon="4.53306">
        <ele>298.8</ele>
        <time>2022-06-26T07:59:10Z</time>
      </trkpt>
      <trkpt lat="45.90352" lon="4.53298">
        <ele>298.8</ele>
        <time>2022-06-26T07:59:11Z</time>
      </trkpt>
      <trkpt lat="45.90354" lon="4.5329">
        <ele>298.8</ele>
        <time>2022-06-26T07:59:12Z</time>
      </trkpt>
      <trkpt lat="45.90357" lon="4.53282">
        <ele>299.2</ele>
        <time>2022-06-26T07:59:13Z</time>
      </trkpt>
      <trkpt lat="45.90359" lon="4.53274">
        <ele>299.2</ele>
        <time>2022-06-26T07:59:14Z</time>
      </trkpt>
      <trkpt lat="45.90361" lon="4.53266">
        <ele>299.4</ele>
        <time>2022-06-26T07:59:15Z</time>
      </trkpt>
      <trkpt lat="45.90363" lon="4.53258">
        <ele>299.4</ele>
        <time>2022-06-26T07:59:16Z</time>
      </trkpt>
      <trkpt lat="45.90365" lon="4.5325">
        <ele>299.6</ele>
        <time>2022-06-26T07:59:17Z</time>
      </trkpt>
      <trkpt lat="45.90367" lon="4.53242">
        <ele>299.6</ele>
        <time>2022-06-26T07:59:18Z</time>
      </trkpt>
      <trkpt lat="45.90369" lon="4.53234">
        <ele>299.6</ele>
        <time>2022-06-26T07:59:19Z</time>
      </trkpt>
      <trkpt lat="45.90371" lon="4.53227">
        <ele>299.8</ele>
        <time>2022-06-26T07:59:20Z</time>
      </trkpt>
      <trkpt lat="45.90373" lon="4.53219">
        <ele>299.8</ele>
        <time>2022-06-26T07:59:21Z</time>
      </trkpt>
      <trkpt lat="45.90375" lon="4.53212">
        <ele>299.8</ele>
        <time>2022-06-26T07:59:22Z</time>
      </trkpt>
      <trkpt lat="45.90377" lon="4.53204">
        <ele>300</ele>
        <time>2022-06-26T07:59:23Z</time>
      </trkpt>
      <trkpt lat="45.90378" lon="4.53197">
        <ele>300</ele>
        <time>2022-06-26T07:59:24Z</time>
      </trkpt>
      <trkpt lat="45.9038" lon="4.53189">
        <ele>300.4</ele>
        <time>2022-06-26T07:59:25Z</time>
      </trkpt>
      <trkpt lat="45.90382" lon="4.53182">
        <ele>300.4</ele>
        <time>2022-06-26T07:59:26Z</time>
      </trkpt>
      <trkpt lat="45.90383" lon="4.53175">
        <ele>300.6</ele>
        <time>2022-06-26T07:59:27Z</time>
      </trkpt>
      <trkpt lat="45.90385" lon="4.53168">
        <ele>300.6</ele>
        <time>2022-06-26T07:59:28Z</time>
      </trkpt>
      <trkpt lat="45.90387" lon="4.53161">
        <ele>300.6</ele>
        <time>2022-06-26T07:59:29Z</time>
      </trkpt>
      <trkpt lat="45.90389" lon="4.53153">
        <ele>300.8</ele>
        <time>2022-06-26T07:59:30Z</time>
      </trkpt>
      <trkpt lat="45.9039" lon="4.53146">
        <ele>300.8</ele>
        <time>2022-06-26T07:59:31Z</time>
      </trkpt>
      <trkpt lat="45.90392" lon="4.53139">
        <ele>301</ele>
        <time>2022-06-26T07:59:32Z</time>
      </trkpt>
      <trkpt lat="45.90393" lon="4.53132">
        <ele>301</ele>
        <time>2022-06-26T07:59:33Z</time>
      </trkpt>
      <trkpt lat="45.90394" lon="4.53125">
        <ele>301.2</ele>
        <time>2022-06-26T07:59:34Z</time>
      </trkpt>
      <trkpt lat="45.90396" lon="4.53119">
        <ele>301.2</ele>
        <time>2022-06-26T07:59:35Z</time>
      </trkpt>
      <trkpt lat="45.90397" lon="4.53112">
        <ele>301.4</ele>
        <time>2022-06-26T07:59:36Z</time>
      </trkpt>
      <trkpt lat="45.90399" lon="4.53105">
        <ele>301.4</ele>
        <time>2022-06-26T07:59:37Z</time>
      </trkpt>
      <trkpt lat="45.904" lon="4.53099">
        <ele>301.4</ele>
        <time>2022-06-26T07:59:38Z</time>
      </trkpt>
      <trkpt lat="45.90401" lon="4.53092">
        <ele>301.8</ele>
        <time>2022-06-26T07:59:39Z</time>
      </trkpt>
      <trkpt lat="45.90402" lon="4.53085">
        <ele>301.8</ele>
        <time>2022-06-26T07:59:40Z</time>
      </trkpt>
      <trkpt lat="45.90403" lon="4.53078">
        <ele>302</ele>
        <time>2022-06-26T07:59:41Z</time>
      </trkpt>
      <trkpt lat="45.90404" lon="4.53071">
        <ele>302</ele>
        <time>2022-06-26T07:59:42Z</time>
      </trkpt>
      <trkpt lat="45.90405" lon="4.53064">
        <ele>302</ele>
        <time>2022-06-26T07:59:43Z</time>
      </trkpt>
      <trkpt lat="45.90406" lon="4.53057">
        <ele>302.2</ele>
        <time>2022-06-26T07:59:44Z</time>
      </trkpt>
      <trkpt lat="45.90407" lon="4.5305">
        <ele>302.2</ele>
        <time>2022-06-26T07:59:45Z</time>
      </trkpt>
      <trkpt lat="45.90408" lon="4.53043">
        <ele>302.2</ele>
        <time>2022-06-26T07:59:46Z</time>
      </trkpt>
      <trkpt lat="45.90409" lon="4.53036">
        <ele>302.4</ele>
        <time>2022-06-26T07:59:47Z</time>
      </trkpt>
      <trkpt lat="45.9041" lon="4.53029">
        <ele>302.4</ele>
        <time>2022-06-26T07:59:48Z</time>
      </trkpt>
      <trkpt lat="45.90412" lon="4.53014">
        <ele>302.4</ele>
        <time>2022-06-26T07:59:49Z</time>
      </trkpt>
      <trkpt lat="45.90413" lon="4.53007">
        <ele>302.6</ele>
        <time>2022-06-26T07:59:50Z</time>
      </trkpt>
      <trkpt lat="45.90414" lon="4.52999">
        <ele>302.6</ele>
        <time>2022-06-26T07:59:51Z</time>
      </trkpt>
      <trkpt lat="45.90415" lon="4.52992">
        <ele>302.8</ele>
        <time>2022-06-26T07:59:52Z</time>
      </trkpt>
      <trkpt lat="45.90416" lon="4.52984">
        <ele>302.8</ele>
        <time>2022-06-26T07:59:53Z</time>
      </trkpt>
      <trkpt lat="45.90417" lon="4.52977">
        <ele>302.8</ele>
        <time>2022-06-26T07:59:54Z</time>
      </trkpt>
      <trkpt lat="45.90418" lon="4.5297">
        <ele>303.2</ele>
        <time>2022-06-26T07:59:55Z</time>
      </trkpt>
      <trkpt lat="45.90419" lon="4.52962">
        <ele>303.2</ele>
        <time>2022-06-26T07:59:56Z</time>
      </trkpt>
      <trkpt lat="45.9042" lon="4.52955">
        <ele>303.2</ele>
        <time>2022-06-26T07:59:57Z</time>
      </trkpt>
      <trkpt lat="45.90421" lon="4.52948">
        <ele>303.4</ele>
        <time>2022-06-26T07:59:58Z</time>
      </trkpt>
      <trkpt lat="45.90423" lon="4.5294">
        <ele>303.4</ele>
        <time>2022-06-26T07:59:59Z</time>
      </trkpt>
      <trkpt lat="45.90424" lon="4.52934">
        <ele>303.6</ele>
        <time>2022-06-26T08:00:00Z</time>
      </trkpt>
      <trkpt lat="45.90425" lon="4.5293">
        <ele>303.6</ele>
        <time>2022-06-26T08:00:01Z</time>
      </trkpt>
      <trkpt lat="45.90425" lon="4.52927">
        <ele>303.6</ele>
        <time>2022-06-26T08:00:02Z</time>
      </trkpt>
      <trkpt lat="45.90427" lon="4.5292">
        <ele>303.8</ele>
        <time>2022-06-26T08:00:03Z</time>
      </trkpt>
      <trkpt lat="45.90428" lon="4.52913">
        <ele>303.8</ele>
        <time>2022-06-26T08:00:04Z</time>
      </trkpt>
      <trkpt lat="45.90429" lon="4.52906">
        <ele>304.2</ele>
        <time>2022-06-26T08:00:05Z</time>
      </trkpt>
      <trkpt lat="45.90431" lon="4.529">
        <ele>304.2</ele>
        <time>2022-06-26T08:00:06Z</time>
      </trkpt>
      <trkpt lat="45.90432" lon="4.52893">
        <ele>304.4</ele>
        <time>2022-06-26T08:00:07Z</time>
      </trkpt>
      <trkpt lat="45.90433" lon="4.52886">
        <ele>304.4</ele>
        <time>2022-06-26T08:00:08Z</time>
      </trkpt>
      <trkpt lat="45.90434" lon="4.52879">
        <ele>304.6</ele>
        <time>2022-06-26T08:00:09Z</time>
      </trkpt>
      <trkpt lat="45.90435" lon="4.52872">
        <ele>304.6</ele>
        <time>2022-06-26T08:00:10Z</time>
      </trkpt>
      <trkpt lat="45.90437" lon="4.52865">
        <ele>304.6</ele>
        <time>2022-06-26T08:00:11Z</time>
      </trkpt>
      <trkpt lat="45.90438" lon="4.52858">
        <ele>305</ele>
        <time>2022-06-26T08:00:12Z</time>
      </trkpt>
      <trkpt lat="45.9044" lon="4.52852">
        <ele>305</ele>
        <time>2022-06-26T08:00:13Z</time>
      </trkpt>
      <trkpt lat="45.90442" lon="4.52845">
        <ele>305</ele>
        <time>2022-06-26T08:00:14Z</time>
      </trkpt>
      <trkpt lat="45.90444" lon="4.52839">
        <ele>305.2</ele>
        <time>2022-06-26T08:00:15Z</time>
      </trkpt>
      <trkpt lat="45.90446" lon="4.52832">
        <ele>305.2</ele>
        <time>2022-06-26T08:00:16Z</time>
      </trkpt>
      <trkpt lat="45.90448" lon="4.52825">
        <ele>305.4</ele>
        <time>2022-06-26T08:00:17Z</time>
      </trkpt>
      <trkpt lat="45.9045" lon="4.52817">
        <ele>305.4</ele>
        <time>2022-06-26T08:00:18Z</time>
      </trkpt>
      <trkpt lat="45.90452" lon="4.5281">
        <ele>305.4</ele>
        <time>2022-06-26T08:00:19Z</time>
      </trkpt>
      <trkpt lat="45.90453" lon="4.52803">
        <ele>305.4</ele>
        <time>2022-06-26T08:00:20Z</time>
      </trkpt>
      <trkpt lat="45.90455" lon="4.52796">
        <ele>305.8</ele>
        <time>2022-06-26T08:00:21Z</time>
      </trkpt>
      <trkpt lat="45.90457" lon="4.52789">
        <ele>305.8</ele>
        <time>2022-06-26T08:00:22Z</time>
      </trkpt>
      <trkpt lat="45.90459" lon="4.52781">
        <ele>306</ele>
        <time>2022-06-26T08:00:23Z</time>
      </trkpt>
      <trkpt lat="45.90461" lon="4.52774">
        <ele>306.2</ele>
        <time>2022-06-26T08:00:24Z</time>
      </trkpt>
      <trkpt lat="45.90462" lon="4.52767">
        <ele>306.2</ele>
        <time>2022-06-26T08:00:25Z</time>
      </trkpt>
      <trkpt lat="45.90464" lon="4.52759">
        <ele>306.6</ele>
        <time>2022-06-26T08:00:26Z</time>
      </trkpt>
      <trkpt lat="45.90465" lon="4.52752">
        <ele>306.6</ele>
        <time>2022-06-26T08:00:27Z</time>
      </trkpt>
      <trkpt lat="45.90467" lon="4.52745">
        <ele>306.8</ele>
        <time>2022-06-26T08:00:28Z</time>
      </trkpt>
      <trkpt lat="45.90469" lon="4.52738">
        <ele>306.8</ele>
        <time>2022-06-26T08:00:29Z</time>
      </trkpt>
      <trkpt lat="45.90471" lon="4.52731">
        <ele>306.8</ele>
        <time>2022-06-26T08:00:30Z</time>
      </trkpt>
      <trkpt lat="45.90473" lon="4.52724">
        <ele>307</ele>
        <time>2022-06-26T08:00:31Z</time>
      </trkpt>
      <trkpt lat="45.90474" lon="4.52717">
        <ele>307</ele>
        <time>2022-06-26T08:00:32Z</time>
      </trkpt>
      <trkpt lat="45.90476" lon="4.5271">
        <ele>307.4</ele>
        <time>2022-06-26T08:00:33Z</time>
      </trkpt>
      <trkpt lat="45.90478" lon="4.52704">
        <ele>307.4</ele>
        <time>2022-06-26T08:00:34Z</time>
      </trkpt>
      <trkpt lat="45.90481" lon="4.52697">
        <ele>307.6</ele>
        <time>2022-06-26T08:00:35Z</time>
      </trkpt>
      <trkpt lat="45.90483" lon="4.52691">
        <ele>307.6</ele>
        <time>2022-06-26T08:00:36Z</time>
      </trkpt>
      <trkpt lat="45.90486" lon="4.52684">
        <ele>308</ele>
        <time>2022-06-26T08:00:37Z</time>
      </trkpt>
      <trkpt lat="45.90488" lon="4.52678">
        <ele>308</ele>
        <time>2022-06-26T08:00:38Z</time>
      </trkpt>
      <trkpt lat="45.90491" lon="4.52672">
        <ele>308.2</ele>
        <time>2022-06-26T08:00:39Z</time>
      </trkpt>
      <trkpt lat="45.90494" lon="4.52666">
        <ele>308.2</ele>
        <time>2022-06-26T08:00:40Z</time>
      </trkpt>
      <trkpt lat="45.90497" lon="4.5266">
        <ele>308.4</ele>
        <time>2022-06-26T08:00:41Z</time>
      </trkpt>
      <trkpt lat="45.90499" lon="4.52654">
        <ele>308.4</ele>
        <time>2022-06-26T08:00:42Z</time>
      </trkpt>
      <trkpt lat="45.90502" lon="4.52648">
        <ele>308.8</ele>
        <time>2022-06-26T08:00:43Z</time>
      </trkpt>
      <trkpt lat="45.90504" lon="4.52642">
        <ele>308.8</ele>
        <time>2022-06-26T08:00:44Z</time>
      </trkpt>
      <trkpt lat="45.90506" lon="4.52637">
        <ele>309</ele>
        <time>2022-06-26T08:00:45Z</time>
      </trkpt>
      <trkpt lat="45.90509" lon="4.52631">
        <ele>309</ele>
        <time>2022-06-26T08:00:46Z</time>
      </trkpt>
      <trkpt lat="45.90511" lon="4.52625">
        <ele>309.2</ele>
        <time>2022-06-26T08:00:47Z</time>
      </trkpt>
      <trkpt lat="45.90513" lon="4.52619">
        <ele>309.2</ele>
        <time>2022-06-26T08:00:48Z</time>
      </trkpt>
      <trkpt lat="45.90515" lon="4.52613">
        <ele>309.6</ele>
        <time>2022-06-26T08:00:49Z</time>
      </trkpt>
      <trkpt lat="45.90517" lon="4.52607">
        <ele>309.6</ele>
        <time>2022-06-26T08:00:50Z</time>
      </trkpt>
      <trkpt lat="45.90518" lon="4.52601">
        <ele>309.8</ele>
        <time>2022-06-26T08:00:51Z</time>
      </trkpt>
      <trkpt lat="45.9052" lon="4.52595">
        <ele>309.8</ele>
        <time>2022-06-26T08:00:52Z</time>
      </trkpt>
      <trkpt lat="45.90522" lon="4.52589">
        <ele>310</ele>
        <time>2022-06-26T08:00:53Z</time>
      </trkpt>
      <trkpt lat="45.90523" lon="4.52583">
        <ele>310</ele>
        <time>2022-06-26T08:00:54Z</time>
      </trkpt>
      <trkpt lat="45.90524" lon="4.52576">
        <ele>310</ele>
        <time>2022-06-26T08:00:55Z</time>
      </trkpt>
      <trkpt lat="45.90526" lon="4.5257">
        <ele>310</ele>
        <time>2022-06-26T08:00:56Z</time>
      </trkpt>
      <trkpt lat="45.90527" lon="4.52564">
        <ele>310</ele>
        <time>2022-06-26T08:00:57Z</time>
      </trkpt>
      <trkpt lat="45.90528" lon="4.52557">
        <ele>310.4</ele>
        <time>2022-06-26T08:00:58Z</time>
      </trkpt>
      <trkpt lat="45.90529" lon="4.5255">
        <ele>310.4</ele>
        <time>2022-06-26T08:00:59Z</time>
      </trkpt>
      <trkpt lat="45.9053" lon="4.52544">
        <ele>310.6</ele>
        <time>2022-06-26T08:01:00Z</time>
      </trkpt>
      <trkpt lat="45.9053" lon="4.52537">
        <ele>310.6</ele>
        <time>2022-06-26T08:01:01Z</time>
      </trkpt>
      <trkpt lat="45.90531" lon="4.5253">
        <ele>310.8</ele>
        <time>2022-06-26T08:01:02Z</time>
      </trkpt>
      <trkpt lat="45.90534" lon="4.52516">
        <ele>310.8</ele>
        <time>2022-06-26T08:01:03Z</time>
      </trkpt>
      <trkpt lat="45.90535" lon="4.5251">
        <ele>310.8</ele>
        <time>2022-06-26T08:01:04Z</time>
      </trkpt>
      <trkpt lat="45.90536" lon="4.52503">
        <ele>311.2</ele>
        <time>2022-06-26T08:01:05Z</time>
      </trkpt>
      <trkpt lat="45.90538" lon="4.52496">
        <ele>311.2</ele>
        <time>2022-06-26T08:01:06Z</time>
      </trkpt>
      <trkpt lat="45.9054" lon="4.5249">
        <ele>311.4</ele>
        <time>2022-06-26T08:01:07Z</time>
      </trkpt>
      <trkpt lat="45.90542" lon="4.52483">
        <ele>311.4</ele>
        <time>2022-06-26T08:01:08Z</time>
      </trkpt>
      <trkpt lat="45.90544" lon="4.52477">
        <ele>311.6</ele>
        <time>2022-06-26T08:01:09Z</time>
      </trkpt>
      <trkpt lat="45.90546" lon="4.5247">
        <ele>311.6</ele>
        <time>2022-06-26T08:01:10Z</time>
      </trkpt>
      <trkpt lat="45.90548" lon="4.52464">
        <ele>311.6</ele>
        <time>2022-06-26T08:01:11Z</time>
      </trkpt>
      <trkpt lat="45.9055" lon="4.52457">
        <ele>311.6</ele>
        <time>2022-06-26T08:01:12Z</time>
      </trkpt>
      <trkpt lat="45.90553" lon="4.52451">
        <ele>311.8</ele>
        <time>2022-06-26T08:01:13Z</time>
      </trkpt>
      <trkpt lat="45.90555" lon="4.52444">
        <ele>311.8</ele>
        <time>2022-06-26T08:01:14Z</time>
      </trkpt>
      <trkpt lat="45.90558" lon="4.52438">
        <ele>311.8</ele>
        <time>2022-06-26T08:01:15Z</time>
      </trkpt>
      <trkpt lat="45.9056" lon="4.52432">
        <ele>312.2</ele>
        <time>2022-06-26T08:01:16Z</time>
      </trkpt>
      <trkpt lat="45.90563" lon="4.52426">
        <ele>312.2</ele>
        <time>2022-06-26T08:01:17Z</time>
      </trkpt>
      <trkpt lat="45.90565" lon="4.5242">
        <ele>312.2</ele>
        <time>2022-06-26T08:01:18Z</time>
      </trkpt>
      <trkpt lat="45.90568" lon="4.52414">
        <ele>312.2</ele>
        <time>2022-06-26T08:01:19Z</time>
      </trkpt>
      <trkpt lat="45.9057" lon="4.52408">
        <ele>312.4</ele>
        <time>2022-06-26T08:01:20Z</time>
      </trkpt>
      <trkpt lat="45.90572" lon="4.52402">
        <ele>312.4</ele>
        <time>2022-06-26T08:01:21Z</time>
      </trkpt>
      <trkpt lat="45.90575" lon="4.52396">
        <ele>312.4</ele>
        <time>2022-06-26T08:01:22Z</time>
      </trkpt>
      <trkpt lat="45.90577" lon="4.52389">
        <ele>312.6</ele>
        <time>2022-06-26T08:01:23Z</time>
      </trkpt>
      <trkpt lat="45.9058" lon="4.52383">
        <ele>312.6</ele>
        <time>2022-06-26T08:01:24Z</time>
      </trkpt>
      <trkpt lat="45.90583" lon="4.52377">
        <ele>312.6</ele>
        <time>2022-06-26T08:01:25Z</time>
      </trkpt>
      <trkpt lat="45.90586" lon="4.52371">
        <ele>312.6</ele>
        <time>2022-06-26T08:01:26Z</time>
      </trkpt>
      <trkpt lat="45.90589" lon="4.52365">
        <ele>312.6</ele>
        <time>2022-06-26T08:01:27Z</time>
      </trkpt>
      <trkpt lat="45.90591" lon="4.52359">
        <ele>312.8</ele>
        <time>2022-06-26T08:01:28Z</time>
      </trkpt>
      <trkpt lat="45.90594" lon="4.52353">
        <ele>312.8</ele>
        <time>2022-06-26T08:01:29Z</time>
      </trkpt>
      <trkpt lat="45.90597" lon="4.52347">
        <ele>312.8</ele>
        <time>2022-06-26T08:01:30Z</time>
      </trkpt>
      <trkpt lat="45.906" lon="4.52341">
        <ele>312.8</ele>
        <time>2022-06-26T08:01:31Z</time>
      </trkpt>
      <trkpt lat="45.90603" lon="4.52335">
        <ele>313.2</ele>
        <time>2022-06-26T08:01:32Z</time>
      </trkpt>
      <trkpt lat="45.90605" lon="4.5233">
        <ele>313.2</ele>
        <time>2022-06-26T08:01:33Z</time>
      </trkpt>
      <trkpt lat="45.90608" lon="4.52324">
        <ele>313.2</ele>
        <time>2022-06-26T08:01:34Z</time>
      </trkpt>
      <trkpt lat="45.90611" lon="4.52318">
        <ele>313.4</ele>
        <time>2022-06-26T08:01:35Z</time>
      </trkpt>
      <trkpt lat="45.90614" lon="4.52313">
        <ele>313.4</ele>
        <time>2022-06-26T08:01:36Z</time>
      </trkpt>
      <trkpt lat="45.90617" lon="4.52307">
        <ele>313.4</ele>
        <time>2022-06-26T08:01:37Z</time>
      </trkpt>
      <trkpt lat="45.90621" lon="4.52302">
        <ele>313.6</ele>
        <time>2022-06-26T08:01:38Z</time>
      </trkpt>
      <trkpt lat="45.90624" lon="4.52296">
        <ele>313.6</ele>
        <time>2022-06-26T08:01:39Z</time>
      </trkpt>
      <trkpt lat="45.90627" lon="4.5229">
        <ele>313.6</ele>
        <time>2022-06-26T08:01:40Z</time>
      </trkpt>
      <trkpt lat="45.9063" lon="4.52285">
        <ele>313.8</ele>
        <time>2022-06-26T08:01:41Z</time>
      </trkpt>
      <trkpt lat="45.90633" lon="4.52279">
        <ele>313.8</ele>
        <time>2022-06-26T08:01:42Z</time>
      </trkpt>
      <trkpt lat="45.90636" lon="4.52273">
        <ele>313.8</ele>
        <time>2022-06-26T08:01:43Z</time>
      </trkpt>
      <trkpt lat="45.9064" lon="4.52267">
        <ele>313.8</ele>
        <time>2022-06-26T08:01:44Z</time>
      </trkpt>
      <trkpt lat="45.90643" lon="4.52261">
        <ele>313.8</ele>
        <time>2022-06-26T08:01:45Z</time>
      </trkpt>
      <trkpt lat="45.90647" lon="4.52256">
        <ele>314.2</ele>
        <time>2022-06-26T08:01:46Z</time>
      </trkpt>
      <trkpt lat="45.9065" lon="4.5225">
        <ele>314.2</ele>
        <time>2022-06-26T08:01:47Z</time>
      </trkpt>
      <trkpt lat="45.90654" lon="4.52244">
        <ele>314.2</ele>
        <time>2022-06-26T08:01:48Z</time>
      </trkpt>
      <trkpt lat="45.90658" lon="4.52239">
        <ele>314.4</ele>
        <time>2022-06-26T08:01:49Z</time>
      </trkpt>
      <trkpt lat="45.90661" lon="4.52233">
        <ele>314.4</ele>
        <time>2022-06-26T08:01:50Z</time>
      </trkpt>
      <trkpt lat="45.90665" lon="4.52227">
        <ele>314.4</ele>
        <time>2022-06-26T08:01:51Z</time>
      </trkpt>
      <trkpt lat="45.90669" lon="4.52222">
        <ele>314.4</ele>
        <time>2022-06-26T08:01:52Z</time>
      </trkpt>
      <trkpt lat="45.90672" lon="4.52216">
        <ele>314.4</ele>
        <time>2022-06-26T08:01:53Z</time>
      </trkpt>
      <trkpt lat="45.90676" lon="4.52211">
        <ele>314.4</ele>
        <time>2022-06-26T08:01:54Z</time>
      </trkpt>
      <trkpt lat="45.9068" lon="4.52205">
        <ele>314.6</ele>
        <time>2022-06-26T08:01:55Z</time>
      </trkpt>
      <trkpt lat="45.90684" lon="4.52199">
        <ele>314.6</ele>
        <time>2022-06-26T08:01:56Z</time>
      </trkpt>
      <trkpt lat="45.90687" lon="4.52193">
        <ele>314.6</ele>
        <time>2022-06-26T08:01:57Z</time>
      </trkpt>
      <trkpt lat="45.90691" lon="4.52188">
        <ele>314.8</ele>
        <time>2022-06-26T08:01:58Z</time>
      </trkpt>
      <trkpt lat="45.90695" lon="4.52182">
        <ele>314.8</ele>
        <time>2022-06-26T08:01:59Z</time>
      </trkpt>
      <trkpt lat="45.90699" lon="4.52176">
        <ele>315.2</ele>
        <time>2022-06-26T08:02:00Z</time>
      </trkpt>
      <trkpt lat="45.90702" lon="4.5217">
        <ele>315.2</ele>
        <time>2022-06-26T08:02:01Z</time>
      </trkpt>
      <trkpt lat="45.90706" lon="4.52163">
        <ele>315.2</ele>
        <time>2022-06-26T08:02:02Z</time>
      </trkpt>
      <trkpt lat="45.9071" lon="4.52157">
        <ele>315.4</ele>
        <time>2022-06-26T08:02:03Z</time>
      </trkpt>
      <trkpt lat="45.90713" lon="4.52151">
        <ele>315.4</ele>
        <time>2022-06-26T08:02:04Z</time>
      </trkpt>
      <trkpt lat="45.90716" lon="4.52145">
        <ele>315.4</ele>
        <time>2022-06-26T08:02:05Z</time>
      </trkpt>
      <trkpt lat="45.9072" lon="4.52138">
        <ele>315.6</ele>
        <time>2022-06-26T08:02:06Z</time>
      </trkpt>
      <trkpt lat="45.90723" lon="4.52132">
        <ele>315.6</ele>
        <time>2022-06-26T08:02:07Z</time>
      </trkpt>
      <trkpt lat="45.90726" lon="4.52125">
        <ele>315.6</ele>
        <time>2022-06-26T08:02:08Z</time>
      </trkpt>
      <trkpt lat="45.9073" lon="4.52118">
        <ele>315.6</ele>
        <time>2022-06-26T08:02:09Z</time>
      </trkpt>
      <trkpt lat="45.90733" lon="4.52111">
        <ele>315.6</ele>
        <time>2022-06-26T08:02:10Z</time>
      </trkpt>
      <trkpt lat="45.90736" lon="4.52105">
        <ele>315.6</ele>
        <time>2022-06-26T08:02:11Z</time>
      </trkpt>
      <trkpt lat="45.9074" lon="4.52097">
        <ele>315.6</ele>
        <time>2022-06-26T08:02:12Z</time>
      </trkpt>
      <trkpt lat="45.90743" lon="4.5209">
        <ele>316.2</ele>
        <time>2022-06-26T08:02:13Z</time>
      </trkpt>
      <trkpt lat="45.90747" lon="4.52083">
        <ele>316.2</ele>
        <time>2022-06-26T08:02:14Z</time>
      </trkpt>
      <trkpt lat="45.9075" lon="4.52076">
        <ele>316.2</ele>
        <time>2022-06-26T08:02:15Z</time>
      </trkpt>
      <trkpt lat="45.90754" lon="4.52069">
        <ele>316.2</ele>
        <time>2022-06-26T08:02:16Z</time>
      </trkpt>
      <trkpt lat="45.90757" lon="4.52062">
        <ele>316.4</ele>
        <time>2022-06-26T08:02:17Z</time>
      </trkpt>
      <trkpt lat="45.90761" lon="4.52055">
        <ele>316.4</ele>
        <time>2022-06-26T08:02:18Z</time>
      </trkpt>
      <trkpt lat="45.90764" lon="4.52047">
        <ele>316.8</ele>
        <time>2022-06-26T08:02:19Z</time>
      </trkpt>
      <trkpt lat="45.90767" lon="4.5204">
        <ele>316.8</ele>
        <time>2022-06-26T08:02:20Z</time>
      </trkpt>
      <trkpt lat="45.9077" lon="4.52032">
        <ele>316.8</ele>
        <time>2022-06-26T08:02:21Z</time>
      </trkpt>
      <trkpt lat="45.90773" lon="4.52025">
        <ele>317</ele>
        <time>2022-06-26T08:02:22Z</time>
      </trkpt>
      <trkpt lat="45.90775" lon="4.52017">
        <ele>317.2</ele>
        <time>2022-06-26T08:02:23Z</time>
      </trkpt>
      <trkpt lat="45.90777" lon="4.52009">
        <ele>317.2</ele>
        <time>2022-06-26T08:02:24Z</time>
      </trkpt>
      <trkpt lat="45.90779" lon="4.52001">
        <ele>317.2</ele>
        <time>2022-06-26T08:02:25Z</time>
      </trkpt>
      <trkpt lat="45.9078" lon="4.51993">
        <ele>317.2</ele>
        <time>2022-06-26T08:02:26Z</time>
      </trkpt>
      <trkpt lat="45.90782" lon="4.51985">
        <ele>317.2</ele>
        <time>2022-06-26T08:02:27Z</time>
      </trkpt>
      <trkpt lat="45.90783" lon="4.51977">
        <ele>317.2</ele>
        <time>2022-06-26T08:02:28Z</time>
      </trkpt>
      <trkpt lat="45.90783" lon="4.51968">
        <ele>317.2</ele>
        <time>2022-06-26T08:02:29Z</time>
      </trkpt>
      <trkpt lat="45.90784" lon="4.5196">
        <ele>317.2</ele>
        <time>2022-06-26T08:02:30Z</time>
      </trkpt>
      <trkpt lat="45.90785" lon="4.51951">
        <ele>317.2</ele>
        <time>2022-06-26T08:02:31Z</time>
      </trkpt>
      <trkpt lat="45.90785" lon="4.51943">
        <ele>317.4</ele>
        <time>2022-06-26T08:02:32Z</time>
      </trkpt>
      <trkpt lat="45.90786" lon="4.51934">
        <ele>317.4</ele>
        <time>2022-06-26T08:02:33Z</time>
      </trkpt>
      <trkpt lat="45.90787" lon="4.51925">
        <ele>317.4</ele>
        <time>2022-06-26T08:02:34Z</time>
      </trkpt>
      <trkpt lat="45.90788" lon="4.51917">
        <ele>317.4</ele>
        <time>2022-06-26T08:02:35Z</time>
      </trkpt>
      <trkpt lat="45.90789" lon="4.51908">
        <ele>317.4</ele>
        <time>2022-06-26T08:02:36Z</time>
      </trkpt>
      <trkpt lat="45.9079" lon="4.519">
        <ele>317.4</ele>
        <time>2022-06-26T08:02:37Z</time>
      </trkpt>
      <trkpt lat="45.90792" lon="4.51892">
        <ele>317.4</ele>
        <time>2022-06-26T08:02:38Z</time>
      </trkpt>
      <trkpt lat="45.90794" lon="4.51884">
        <ele>317.4</ele>
        <time>2022-06-26T08:02:39Z</time>
      </trkpt>
      <trkpt lat="45.90796" lon="4.51875">
        <ele>317.4</ele>
        <time>2022-06-26T08:02:40Z</time>
      </trkpt>
      <trkpt lat="45.90798" lon="4.51868">
        <ele>317.8</ele>
        <time>2022-06-26T08:02:41Z</time>
      </trkpt>
      <trkpt lat="45.908" lon="4.5186">
        <ele>317.8</ele>
        <time>2022-06-26T08:02:42Z</time>
      </trkpt>
      <trkpt lat="45.90803" lon="4.51852">
        <ele>317.8</ele>
        <time>2022-06-26T08:02:43Z</time>
      </trkpt>
      <trkpt lat="45.90805" lon="4.51844">
        <ele>318</ele>
        <time>2022-06-26T08:02:44Z</time>
      </trkpt>
      <trkpt lat="45.90808" lon="4.51836">
        <ele>318</ele>
        <time>2022-06-26T08:02:45Z</time>
      </trkpt>
      <trkpt lat="45.9081" lon="4.51828">
        <ele>318.2</ele>
        <time>2022-06-26T08:02:46Z</time>
      </trkpt>
      <trkpt lat="45.90813" lon="4.5182">
        <ele>318.2</ele>
        <time>2022-06-26T08:02:47Z</time>
      </trkpt>
      <trkpt lat="45.90815" lon="4.51812">
        <ele>318.2</ele>
        <time>2022-06-26T08:02:48Z</time>
      </trkpt>
      <trkpt lat="45.90817" lon="4.51803">
        <ele>318.2</ele>
        <time>2022-06-26T08:02:49Z</time>
      </trkpt>
      <trkpt lat="45.9082" lon="4.51795">
        <ele>318.2</ele>
        <time>2022-06-26T08:02:50Z</time>
      </trkpt>
      <trkpt lat="45.90822" lon="4.51787">
        <ele>318.2</ele>
        <time>2022-06-26T08:02:51Z</time>
      </trkpt>
      <trkpt lat="45.90825" lon="4.51778">
        <ele>318.2</ele>
        <time>2022-06-26T08:02:52Z</time>
      </trkpt>
      <trkpt lat="45.90827" lon="4.51769">
        <ele>318.2</ele>
        <time>2022-06-26T08:02:53Z</time>
      </trkpt>
      <trkpt lat="45.90829" lon="4.51761">
        <ele>318.2</ele>
        <time>2022-06-26T08:02:54Z</time>
      </trkpt>
      <trkpt lat="45.90832" lon="4.51752">
        <ele>318.2</ele>
        <time>2022-06-26T08:02:55Z</time>
      </trkpt>
      <trkpt lat="45.90834" lon="4.51743">
        <ele>318.2</ele>
        <time>2022-06-26T08:02:56Z</time>
      </trkpt>
      <trkpt lat="45.90836" lon="4.51734">
        <ele>318.2</ele>
        <time>2022-06-26T08:02:57Z</time>
      </trkpt>
      <trkpt lat="45.90839" lon="4.51725">
        <ele>318.2</ele>
        <time>2022-06-26T08:02:58Z</time>
      </trkpt>
      <trkpt lat="45.90842" lon="4.51717">
        <ele>318.2</ele>
        <time>2022-06-26T08:02:59Z</time>
      </trkpt>
      <trkpt lat="45.90845" lon="4.51708">
        <ele>318.2</ele>
        <time>2022-06-26T08:03:00Z</time>
      </trkpt>
      <trkpt lat="45.90847" lon="4.51698">
        <ele>318.2</ele>
        <time>2022-06-26T08:03:01Z</time>
      </trkpt>
      <trkpt lat="45.9085" lon="4.51689">
        <ele>318.2</ele>
        <time>2022-06-26T08:03:02Z</time>
      </trkpt>
      <trkpt lat="45.90853" lon="4.51679">
        <ele>318</ele>
        <time>2022-06-26T08:03:03Z</time>
      </trkpt>
      <trkpt lat="45.90856" lon="4.5167">
        <ele>318</ele>
        <time>2022-06-26T08:03:04Z</time>
      </trkpt>
      <trkpt lat="45.90859" lon="4.5166">
        <ele>318</ele>
        <time>2022-06-26T08:03:05Z</time>
      </trkpt>
      <trkpt lat="45.90861" lon="4.51651">
        <ele>318</ele>
        <time>2022-06-26T08:03:06Z</time>
      </trkpt>
      <trkpt lat="45.90864" lon="4.51641">
        <ele>317.6</ele>
        <time>2022-06-26T08:03:07Z</time>
      </trkpt>
      <trkpt lat="45.90867" lon="4.51632">
        <ele>317.6</ele>
        <time>2022-06-26T08:03:08Z</time>
      </trkpt>
      <trkpt lat="45.9087" lon="4.51622">
        <ele>317.6</ele>
        <time>2022-06-26T08:03:09Z</time>
      </trkpt>
      <trkpt lat="45.90873" lon="4.51612">
        <ele>317.4</ele>
        <time>2022-06-26T08:03:10Z</time>
      </trkpt>
      <trkpt lat="45.90877" lon="4.51603">
        <ele>317.4</ele>
        <time>2022-06-26T08:03:11Z</time>
      </trkpt>
      <trkpt lat="45.9088" lon="4.51593">
        <ele>317.4</ele>
        <time>2022-06-26T08:03:12Z</time>
      </trkpt>
      <trkpt lat="45.90883" lon="4.51584">
        <ele>317.4</ele>
        <time>2022-06-26T08:03:13Z</time>
      </trkpt>
      <trkpt lat="45.90886" lon="4.51575">
        <ele>317.4</ele>
        <time>2022-06-26T08:03:14Z</time>
      </trkpt>
      <trkpt lat="45.90889" lon="4.51566">
        <ele>317.4</ele>
        <time>2022-06-26T08:03:15Z</time>
      </trkpt>
      <trkpt lat="45.90892" lon="4.51557">
        <ele>317.4</ele>
        <time>2022-06-26T08:03:16Z</time>
      </trkpt>
      <trkpt lat="45.90895" lon="4.51548">
        <ele>317.4</ele>
        <time>2022-06-26T08:03:17Z</time>
      </trkpt>
      <trkpt lat="45.90898" lon="4.51539">
        <ele>317.2</ele>
        <time>2022-06-26T08:03:18Z</time>
      </trkpt>
      <trkpt lat="45.90901" lon="4.5153">
        <ele>317.2</ele>
        <time>2022-06-26T08:03:19Z</time>
      </trkpt>
      <trkpt lat="45.90904" lon="4.51521">
        <ele>317.2</ele>
        <time>2022-06-26T08:03:20Z</time>
      </trkpt>
      <trkpt lat="45.90908" lon="4.51513">
        <ele>317.2</ele>
        <time>2022-06-26T08:03:21Z</time>
      </trkpt>
      <trkpt lat="45.90911" lon="4.51505">
        <ele>317.2</ele>
        <time>2022-06-26T08:03:22Z</time>
      </trkpt>
      <trkpt lat="45.90914" lon="4.51496">
        <ele>317.2</ele>
        <time>2022-06-26T08:03:23Z</time>
      </trkpt>
      <trkpt lat="45.90917" lon="4.51488">
        <ele>317.2</ele>
        <time>2022-06-26T08:03:24Z</time>
      </trkpt>
      <trkpt lat="45.90919" lon="4.5148">
        <ele>317.4</ele>
        <time>2022-06-26T08:03:25Z</time>
      </trkpt>
      <trkpt lat="45.90922" lon="4.51471">
        <ele>317.4</ele>
        <time>2022-06-26T08:03:26Z</time>
      </trkpt>
      <trkpt lat="45.90925" lon="4.51463">
        <ele>317.4</ele>
        <time>2022-06-26T08:03:27Z</time>
      </trkpt>
      <trkpt lat="45.90927" lon="4.51455">
        <ele>317.4</ele>
        <time>2022-06-26T08:03:28Z</time>
      </trkpt>
      <trkpt lat="45.9093" lon="4.51447">
        <ele>317.6</ele>
        <time>2022-06-26T08:03:29Z</time>
      </trkpt>
      <trkpt lat="45.90932" lon="4.51439">
        <ele>317.6</ele>
        <time>2022-06-26T08:03:30Z</time>
      </trkpt>
      <trkpt lat="45.90934" lon="4.51431">
        <ele>317.6</ele>
        <time>2022-06-26T08:03:31Z</time>
      </trkpt>
      <trkpt lat="45.90937" lon="4.51422">
        <ele>317.6</ele>
        <time>2022-06-26T08:03:32Z</time>
      </trkpt>
      <trkpt lat="45.90939" lon="4.51414">
        <ele>317.8</ele>
        <time>2022-06-26T08:03:33Z</time>
      </trkpt>
      <trkpt lat="45.90941" lon="4.51406">
        <ele>317.8</ele>
        <time>2022-06-26T08:03:34Z</time>
      </trkpt>
      <trkpt lat="45.90943" lon="4.51397">
        <ele>317.8</ele>
        <time>2022-06-26T08:03:35Z</time>
      </trkpt>
      <trkpt lat="45.90945" lon="4.51389">
        <ele>317.8</ele>
        <time>2022-06-26T08:03:36Z</time>
      </trkpt>
      <trkpt lat="45.90947" lon="4.51381">
        <ele>317.8</ele>
        <time>2022-06-26T08:03:37Z</time>
      </trkpt>
      <trkpt lat="45.90949" lon="4.51372">
        <ele>317.8</ele>
        <time>2022-06-26T08:03:38Z</time>
      </trkpt>
      <trkpt lat="45.90951" lon="4.51364">
        <ele>317.8</ele>
        <time>2022-06-26T08:03:39Z</time>
      </trkpt>
      <trkpt lat="45.90952" lon="4.51356">
        <ele>317.8</ele>
        <time>2022-06-26T08:03:40Z</time>
      </trkpt>
      <trkpt lat="45.90954" lon="4.51348">
        <ele>317.8</ele>
        <time>2022-06-26T08:03:41Z</time>
      </trkpt>
      <trkpt lat="45.90955" lon="4.5134">
        <ele>318.2</ele>
        <time>2022-06-26T08:03:42Z</time>
      </trkpt>
      <trkpt lat="45.90957" lon="4.51332">
        <ele>318.2</ele>
        <time>2022-06-26T08:03:43Z</time>
      </trkpt>
      <trkpt lat="45.90958" lon="4.51324">
        <ele>318.2</ele>
        <time>2022-06-26T08:03:44Z</time>
      </trkpt>
      <trkpt lat="45.90959" lon="4.51315">
        <ele>318.2</ele>
        <time>2022-06-26T08:03:45Z</time>
      </trkpt>
      <trkpt lat="45.9096" lon="4.51307">
        <ele>318.2</ele>
        <time>2022-06-26T08:03:46Z</time>
      </trkpt>
      <trkpt lat="45.90961" lon="4.51299">
        <ele>318.2</ele>
        <time>2022-06-26T08:03:47Z</time>
      </trkpt>
      <trkpt lat="45.90963" lon="4.51291">
        <ele>318.2</ele>
        <time>2022-06-26T08:03:48Z</time>
      </trkpt>
      <trkpt lat="45.90964" lon="4.51283">
        <ele>318.4</ele>
        <time>2022-06-26T08:03:49Z</time>
      </trkpt>
      <trkpt lat="45.90966" lon="4.51275">
        <ele>318.4</ele>
        <time>2022-06-26T08:03:50Z</time>
      </trkpt>
      <trkpt lat="45.90968" lon="4.51268">
        <ele>318.4</ele>
        <time>2022-06-26T08:03:51Z</time>
      </trkpt>
      <trkpt lat="45.9097" lon="4.51261">
        <ele>318.4</ele>
        <time>2022-06-26T08:03:52Z</time>
      </trkpt>
      <trkpt lat="45.90973" lon="4.51254">
        <ele>318.4</ele>
        <time>2022-06-26T08:03:53Z</time>
      </trkpt>
      <trkpt lat="45.90975" lon="4.51246">
        <ele>318.6</ele>
        <time>2022-06-26T08:03:54Z</time>
      </trkpt>
      <trkpt lat="45.90977" lon="4.51239">
        <ele>318.6</ele>
        <time>2022-06-26T08:03:55Z</time>
      </trkpt>
      <trkpt lat="45.9098" lon="4.51232">
        <ele>318.6</ele>
        <time>2022-06-26T08:03:56Z</time>
      </trkpt>
      <trkpt lat="45.90982" lon="4.51225">
        <ele>318.6</ele>
        <time>2022-06-26T08:03:57Z</time>
      </trkpt>
      <trkpt lat="45.90983" lon="4.51218">
        <ele>318.6</ele>
        <time>2022-06-26T08:03:58Z</time>
      </trkpt>
      <trkpt lat="45.90985" lon="4.51211">
        <ele>318.6</ele>
        <time>2022-06-26T08:03:59Z</time>
      </trkpt>
      <trkpt lat="45.90986" lon="4.51204">
        <ele>318.6</ele>
        <time>2022-06-26T08:04:00Z</time>
      </trkpt>
      <trkpt lat="45.90986" lon="4.51197">
        <ele>318.6</ele>
        <time>2022-06-26T08:04:01Z</time>
      </trkpt>
      <trkpt lat="45.90987" lon="4.5119">
        <ele>318.6</ele>
        <time>2022-06-26T08:04:02Z</time>
      </trkpt>
      <trkpt lat="45.90988" lon="4.51183">
        <ele>318.6</ele>
        <time>2022-06-26T08:04:03Z</time>
      </trkpt>
      <trkpt lat="45.90988" lon="4.51176">
        <ele>318.6</ele>
        <time>2022-06-26T08:04:04Z</time>
      </trkpt>
      <trkpt lat="45.90989" lon="4.51169">
        <ele>318.6</ele>
        <time>2022-06-26T08:04:05Z</time>
      </trkpt>
      <trkpt lat="45.9099" lon="4.51161">
        <ele>318.6</ele>
        <time>2022-06-26T08:04:06Z</time>
      </trkpt>
      <trkpt lat="45.90991" lon="4.51154">
        <ele>318.6</ele>
        <time>2022-06-26T08:04:07Z</time>
      </trkpt>
      <trkpt lat="45.90991" lon="4.51147">
        <ele>318.6</ele>
        <time>2022-06-26T08:04:08Z</time>
      </trkpt>
      <trkpt lat="45.90991" lon="4.51139">
        <ele>318.6</ele>
        <time>2022-06-26T08:04:09Z</time>
      </trkpt>
      <trkpt lat="45.90992" lon="4.51131">
        <ele>318.6</ele>
        <time>2022-06-26T08:04:10Z</time>
      </trkpt>
      <trkpt lat="45.90992" lon="4.51124">
        <ele>318.6</ele>
        <time>2022-06-26T08:04:11Z</time>
      </trkpt>
      <trkpt lat="45.90992" lon="4.51116">
        <ele>318.8</ele>
        <time>2022-06-26T08:04:12Z</time>
      </trkpt>
      <trkpt lat="45.90992" lon="4.51109">
        <ele>318.8</ele>
        <time>2022-06-26T08:04:13Z</time>
      </trkpt>
      <trkpt lat="45.90992" lon="4.51101">
        <ele>318.8</ele>
        <time>2022-06-26T08:04:14Z</time>
      </trkpt>
      <trkpt lat="45.90992" lon="4.51094">
        <ele>318.8</ele>
        <time>2022-06-26T08:04:15Z</time>
      </trkpt>
      <trkpt lat="45.90991" lon="4.51087">
        <ele>318.8</ele>
        <time>2022-06-26T08:04:16Z</time>
      </trkpt>
      <trkpt lat="45.90989" lon="4.51081">
        <ele>318.8</ele>
        <time>2022-06-26T08:04:17Z</time>
      </trkpt>
      <trkpt lat="45.90987" lon="4.51075">
        <ele>318.8</ele>
        <time>2022-06-26T08:04:18Z</time>
      </trkpt>
      <trkpt lat="45.90984" lon="4.51071">
        <ele>318.8</ele>
        <time>2022-06-26T08:04:19Z</time>
      </trkpt>
      <trkpt lat="45.90982" lon="4.51066">
        <ele>318.8</ele>
        <time>2022-06-26T08:04:20Z</time>
      </trkpt>
      <trkpt lat="45.9098" lon="4.51061">
        <ele>318.8</ele>
        <time>2022-06-26T08:04:21Z</time>
      </trkpt>
      <trkpt lat="45.90978" lon="4.51056">
        <ele>318.8</ele>
        <time>2022-06-26T08:04:22Z</time>
      </trkpt>
      <trkpt lat="45.90977" lon="4.5105">
        <ele>318.8</ele>
        <time>2022-06-26T08:04:23Z</time>
      </trkpt>
      <trkpt lat="45.90976" lon="4.51044">
        <ele>319</ele>
        <time>2022-06-26T08:04:24Z</time>
      </trkpt>
      <trkpt lat="45.90976" lon="4.51038">
        <ele>319</ele>
        <time>2022-06-26T08:04:25Z</time>
      </trkpt>
      <trkpt lat="45.90976" lon="4.51031">
        <ele>319</ele>
        <time>2022-06-26T08:04:26Z</time>
      </trkpt>
      <trkpt lat="45.90976" lon="4.51024">
        <ele>319</ele>
        <time>2022-06-26T08:04:27Z</time>
      </trkpt>
      <trkpt lat="45.90977" lon="4.51017">
        <ele>319.4</ele>
        <time>2022-06-26T08:04:28Z</time>
      </trkpt>
      <trkpt lat="45.90977" lon="4.5101">
        <ele>319.4</ele>
        <time>2022-06-26T08:04:29Z</time>
      </trkpt>
      <trkpt lat="45.90977" lon="4.51003">
        <ele>319.4</ele>
        <time>2022-06-26T08:04:30Z</time>
      </trkpt>
      <trkpt lat="45.90977" lon="4.50996">
        <ele>319.4</ele>
        <time>2022-06-26T08:04:31Z</time>
      </trkpt>
      <trkpt lat="45.90978" lon="4.50989">
        <ele>319.6</ele>
        <time>2022-06-26T08:04:32Z</time>
      </trkpt>
      <trkpt lat="45.90978" lon="4.50982">
        <ele>319.6</ele>
        <time>2022-06-26T08:04:33Z</time>
      </trkpt>
      <trkpt lat="45.90979" lon="4.50975">
        <ele>319.6</ele>
        <time>2022-06-26T08:04:34Z</time>
      </trkpt>
      <trkpt lat="45.9098" lon="4.50967">
        <ele>319.6</ele>
        <time>2022-06-26T08:04:35Z</time>
      </trkpt>
      <trkpt lat="45.90981" lon="4.5096">
        <ele>319.6</ele>
        <time>2022-06-26T08:04:36Z</time>
      </trkpt>
      <trkpt lat="45.90982" lon="4.50953">
        <ele>319.8</ele>
        <time>2022-06-26T08:04:37Z</time>
      </trkpt>
      <trkpt lat="45.90982" lon="4.50946">
        <ele>319.8</ele>
        <time>2022-06-26T08:04:38Z</time>
      </trkpt>
      <trkpt lat="45.90983" lon="4.50939">
        <ele>320</ele>
        <time>2022-06-26T08:04:39Z</time>
      </trkpt>
      <trkpt lat="45.90983" lon="4.50931">
        <ele>320</ele>
        <time>2022-06-26T08:04:40Z</time>
      </trkpt>
      <trkpt lat="45.90984" lon="4.50924">
        <ele>320</ele>
        <time>2022-06-26T08:04:41Z</time>
      </trkpt>
      <trkpt lat="45.90985" lon="4.50917">
        <ele>320.2</ele>
        <time>2022-06-26T08:04:42Z</time>
      </trkpt>
      <trkpt lat="45.90986" lon="4.5091">
        <ele>320.2</ele>
        <time>2022-06-26T08:04:43Z</time>
      </trkpt>
      <trkpt lat="45.90988" lon="4.50903">
        <ele>320.6</ele>
        <time>2022-06-26T08:04:44Z</time>
      </trkpt>
      <trkpt lat="45.90989" lon="4.50897">
        <ele>320.6</ele>
        <time>2022-06-26T08:04:45Z</time>
      </trkpt>
      <trkpt lat="45.9099" lon="4.5089">
        <ele>321</ele>
        <time>2022-06-26T08:04:46Z</time>
      </trkpt>
      <trkpt lat="45.90992" lon="4.50883">
        <ele>321</ele>
        <time>2022-06-26T08:04:47Z</time>
      </trkpt>
      <trkpt lat="45.90994" lon="4.50877">
        <ele>321.2</ele>
        <time>2022-06-26T08:04:48Z</time>
      </trkpt>
      <trkpt lat="45.90996" lon="4.5087">
        <ele>321.2</ele>
        <time>2022-06-26T08:04:49Z</time>
      </trkpt>
      <trkpt lat="45.90998" lon="4.50864">
        <ele>321.4</ele>
        <time>2022-06-26T08:04:50Z</time>
      </trkpt>
      <trkpt lat="45.91" lon="4.50858">
        <ele>321.4</ele>
        <time>2022-06-26T08:04:51Z</time>
      </trkpt>
      <trkpt lat="45.91002" lon="4.50852">
        <ele>321.8</ele>
        <time>2022-06-26T08:04:52Z</time>
      </trkpt>
      <trkpt lat="45.91004" lon="4.50846">
        <ele>322</ele>
        <time>2022-06-26T08:04:53Z</time>
      </trkpt>
      <trkpt lat="45.91006" lon="4.5084">
        <ele>322</ele>
        <time>2022-06-26T08:04:54Z</time>
      </trkpt>
      <trkpt lat="45.91008" lon="4.50835">
        <ele>322.2</ele>
        <time>2022-06-26T08:04:55Z</time>
      </trkpt>
      <trkpt lat="45.9101" lon="4.50829">
        <ele>322.4</ele>
        <time>2022-06-26T08:04:56Z</time>
      </trkpt>
      <trkpt lat="45.91011" lon="4.50823">
        <ele>322.4</ele>
        <time>2022-06-26T08:04:57Z</time>
      </trkpt>
      <trkpt lat="45.91013" lon="4.50817">
        <ele>322.8</ele>
        <time>2022-06-26T08:04:58Z</time>
      </trkpt>
      <trkpt lat="45.91014" lon="4.50811">
        <ele>322.8</ele>
        <time>2022-06-26T08:04:59Z</time>
      </trkpt>
      <trkpt lat="45.91015" lon="4.50805">
        <ele>323</ele>
        <time>2022-06-26T08:05:00Z</time>
      </trkpt>
      <trkpt lat="45.91016" lon="4.50799">
        <ele>323</ele>
        <time>2022-06-26T08:05:01Z</time>
      </trkpt>
      <trkpt lat="45.91017" lon="4.50793">
        <ele>323.4</ele>
        <time>2022-06-26T08:05:02Z</time>
      </trkpt>
      <trkpt lat="45.91017" lon="4.50788">
        <ele>323.4</ele>
        <time>2022-06-26T08:05:03Z</time>
      </trkpt>
      <trkpt lat="45.91018" lon="4.50782">
        <ele>323.6</ele>
        <time>2022-06-26T08:05:04Z</time>
      </trkpt>
      <trkpt lat="45.91018" lon="4.50776">
        <ele>323.6</ele>
        <time>2022-06-26T08:05:05Z</time>
      </trkpt>
      <trkpt lat="45.91019" lon="4.50771">
        <ele>324</ele>
        <time>2022-06-26T08:05:06Z</time>
      </trkpt>
      <trkpt lat="45.91019" lon="4.50765">
        <ele>324</ele>
        <time>2022-06-26T08:05:07Z</time>
      </trkpt>
      <trkpt lat="45.91019" lon="4.5076">
        <ele>324.2</ele>
        <time>2022-06-26T08:05:08Z</time>
      </trkpt>
      <trkpt lat="45.91018" lon="4.50754">
        <ele>324.2</ele>
        <time>2022-06-26T08:05:09Z</time>
      </trkpt>
      <trkpt lat="45.91018" lon="4.50749">
        <ele>324.2</ele>
        <time>2022-06-26T08:05:10Z</time>
      </trkpt>
      <trkpt lat="45.91018" lon="4.50743">
        <ele>324.4</ele>
        <time>2022-06-26T08:05:11Z</time>
      </trkpt>
      <trkpt lat="45.91018" lon="4.50737">
        <ele>324.4</ele>
        <time>2022-06-26T08:05:12Z</time>
      </trkpt>
      <trkpt lat="45.91018" lon="4.50732">
        <ele>324.6</ele>
        <time>2022-06-26T08:05:13Z</time>
      </trkpt>
      <trkpt lat="45.91017" lon="4.50726">
        <ele>324.6</ele>
        <time>2022-06-26T08:05:14Z</time>
      </trkpt>
      <trkpt lat="45.91017" lon="4.50721">
        <ele>324.6</ele>
        <time>2022-06-26T08:05:15Z</time>
      </trkpt>
      <trkpt lat="45.91016" lon="4.50715">
        <ele>325</ele>
        <time>2022-06-26T08:05:16Z</time>
      </trkpt>
      <trkpt lat="45.91015" lon="4.5071">
        <ele>325</ele>
        <time>2022-06-26T08:05:17Z</time>
      </trkpt>
      <trkpt lat="45.91014" lon="4.50704">
        <ele>325</ele>
        <time>2022-06-26T08:05:18Z</time>
      </trkpt>
      <trkpt lat="45.91013" lon="4.50699">
        <ele>325.2</ele>
        <time>2022-06-26T08:05:19Z</time>
      </trkpt>
      <trkpt lat="45.91012" lon="4.50693">
        <ele>325.2</ele>
        <time>2022-06-26T08:05:20Z</time>
      </trkpt>
      <trkpt lat="45.9101" lon="4.50687">
        <ele>325.2</ele>
        <time>2022-06-26T08:05:21Z</time>
      </trkpt>
      <trkpt lat="45.91009" lon="4.50682">
        <ele>325.2</ele>
        <time>2022-06-26T08:05:22Z</time>
      </trkpt>
      <trkpt lat="45.91007" lon="4.50676">
        <ele>325.2</ele>
        <time>2022-06-26T08:05:23Z</time>
      </trkpt>
      <trkpt lat="45.91006" lon="4.5067">
        <ele>325.6</ele>
        <time>2022-06-26T08:05:24Z</time>
      </trkpt>
      <trkpt lat="45.91005" lon="4.50665">
        <ele>325.6</ele>
        <time>2022-06-26T08:05:25Z</time>
      </trkpt>
      <trkpt lat="45.91003" lon="4.50659">
        <ele>325.8</ele>
        <time>2022-06-26T08:05:26Z</time>
      </trkpt>
      <trkpt lat="45.91002" lon="4.50653">
        <ele>325.8</ele>
        <time>2022-06-26T08:05:27Z</time>
      </trkpt>
      <trkpt lat="45.91001" lon="4.50648">
        <ele>325.8</ele>
        <time>2022-06-26T08:05:28Z</time>
      </trkpt>
      <trkpt lat="45.91" lon="4.50643">
        <ele>326</ele>
        <time>2022-06-26T08:05:29Z</time>
      </trkpt>
      <trkpt lat="45.90998" lon="4.50637">
        <ele>326</ele>
        <time>2022-06-26T08:05:30Z</time>
      </trkpt>
      <trkpt lat="45.90997" lon="4.50632">
        <ele>326</ele>
        <time>2022-06-26T08:05:31Z</time>
      </trkpt>
      <trkpt lat="45.90996" lon="4.50626">
        <ele>326.4</ele>
        <time>2022-06-26T08:05:32Z</time>
      </trkpt>
      <trkpt lat="45.90996" lon="4.50621">
        <ele>326.4</ele>
        <time>2022-06-26T08:05:33Z</time>
      </trkpt>
      <trkpt lat="45.90995" lon="4.50615">
        <ele>326.6</ele>
        <time>2022-06-26T08:05:34Z</time>
      </trkpt>
      <trkpt lat="45.90994" lon="4.5061">
        <ele>326.6</ele>
        <time>2022-06-26T08:05:35Z</time>
      </trkpt>
      <trkpt lat="45.90993" lon="4.50604">
        <ele>326.6</ele>
        <time>2022-06-26T08:05:36Z</time>
      </trkpt>
      <trkpt lat="45.90993" lon="4.50599">
        <ele>326.8</ele>
        <time>2022-06-26T08:05:37Z</time>
      </trkpt>
      <trkpt lat="45.90993" lon="4.50593">
        <ele>326.8</ele>
        <time>2022-06-26T08:05:38Z</time>
      </trkpt>
      <trkpt lat="45.90992" lon="4.50588">
        <ele>327</ele>
        <time>2022-06-26T08:05:39Z</time>
      </trkpt>
      <trkpt lat="45.90992" lon="4.50582">
        <ele>327</ele>
        <time>2022-06-26T08:05:40Z</time>
      </trkpt>
      <trkpt lat="45.90992" lon="4.50577">
        <ele>327</ele>
        <time>2022-06-26T08:05:41Z</time>
      </trkpt>
      <trkpt lat="45.90992" lon="4.50571">
        <ele>327.4</ele>
        <time>2022-06-26T08:05:42Z</time>
      </trkpt>
      <trkpt lat="45.90992" lon="4.50566">
        <ele>327.4</ele>
        <time>2022-06-26T08:05:43Z</time>
      </trkpt>
      <trkpt lat="45.90992" lon="4.5056">
        <ele>327.6</ele>
        <time>2022-06-26T08:05:44Z</time>
      </trkpt>
      <trkpt lat="45.90992" lon="4.50554">
        <ele>327.6</ele>
        <time>2022-06-26T08:05:45Z</time>
      </trkpt>
      <trkpt lat="45.90993" lon="4.50548">
        <ele>327.8</ele>
        <time>2022-06-26T08:05:46Z</time>
      </trkpt>
      <trkpt lat="45.90993" lon="4.50542">
        <ele>327.8</ele>
        <time>2022-06-26T08:05:47Z</time>
      </trkpt>
      <trkpt lat="45.90993" lon="4.50536">
        <ele>327.8</ele>
        <time>2022-06-26T08:05:48Z</time>
      </trkpt>
      <trkpt lat="45.90994" lon="4.5053">
        <ele>327.8</ele>
        <time>2022-06-26T08:05:49Z</time>
      </trkpt>
      <trkpt lat="45.90995" lon="4.50524">
        <ele>328</ele>
        <time>2022-06-26T08:05:50Z</time>
      </trkpt>
      <trkpt lat="45.90995" lon="4.50518">
        <ele>328</ele>
        <time>2022-06-26T08:05:51Z</time>
      </trkpt>
      <trkpt lat="45.90996" lon="4.50512">
        <ele>328.2</ele>
        <time>2022-06-26T08:05:52Z</time>
      </trkpt>
      <trkpt lat="45.90997" lon="4.50506">
        <ele>328.2</ele>
        <time>2022-06-26T08:05:53Z</time>
      </trkpt>
      <trkpt lat="45.90998" lon="4.50501">
        <ele>328.4</ele>
        <time>2022-06-26T08:05:54Z</time>
      </trkpt>
      <trkpt lat="45.90999" lon="4.50495">
        <ele>328.4</ele>
        <time>2022-06-26T08:05:55Z</time>
      </trkpt>
      <trkpt lat="45.91" lon="4.50489">
        <ele>328.6</ele>
        <time>2022-06-26T08:05:56Z</time>
      </trkpt>
      <trkpt lat="45.91001" lon="4.50484">
        <ele>328.6</ele>
        <time>2022-06-26T08:05:57Z</time>
      </trkpt>
      <trkpt lat="45.91002" lon="4.50478">
        <ele>329</ele>
        <time>2022-06-26T08:05:58Z</time>
      </trkpt>
      <trkpt lat="45.91003" lon="4.50473">
        <ele>329</ele>
        <time>2022-06-26T08:05:59Z</time>
      </trkpt>
      <trkpt lat="45.91004" lon="4.50467">
        <ele>329.2</ele>
        <time>2022-06-26T08:06:00Z</time>
      </trkpt>
      <trkpt lat="45.91005" lon="4.50462">
        <ele>329.2</ele>
        <time>2022-06-26T08:06:01Z</time>
      </trkpt>
      <trkpt lat="45.91006" lon="4.50457">
        <ele>329.4</ele>
        <time>2022-06-26T08:06:02Z</time>
      </trkpt>
      <trkpt lat="45.91008" lon="4.50451">
        <ele>329.4</ele>
        <time>2022-06-26T08:06:03Z</time>
      </trkpt>
      <trkpt lat="45.9101" lon="4.50446">
        <ele>329.4</ele>
        <time>2022-06-26T08:06:04Z</time>
      </trkpt>
      <trkpt lat="45.91011" lon="4.5044">
        <ele>329.6</ele>
        <time>2022-06-26T08:06:05Z</time>
      </trkpt>
      <trkpt lat="45.91013" lon="4.50435">
        <ele>329.6</ele>
        <time>2022-06-26T08:06:06Z</time>
      </trkpt>
      <trkpt lat="45.91015" lon="4.50429">
        <ele>330</ele>
        <time>2022-06-26T08:06:07Z</time>
      </trkpt>
      <trkpt lat="45.91017" lon="4.50424">
        <ele>330</ele>
        <time>2022-06-26T08:06:08Z</time>
      </trkpt>
      <trkpt lat="45.91019" lon="4.50418">
        <ele>330.2</ele>
        <time>2022-06-26T08:06:09Z</time>
      </trkpt>
      <trkpt lat="45.91021" lon="4.50413">
        <ele>330.6</ele>
        <time>2022-06-26T08:06:10Z</time>
      </trkpt>
      <trkpt lat="45.91024" lon="4.50408">
        <ele>330.6</ele>
        <time>2022-06-26T08:06:11Z</time>
      </trkpt>
      <trkpt lat="45.91026" lon="4.50403">
        <ele>330.8</ele>
        <time>2022-06-26T08:06:12Z</time>
      </trkpt>
      <trkpt lat="45.91028" lon="4.50398">
        <ele>330.8</ele>
        <time>2022-06-26T08:06:13Z</time>
      </trkpt>
      <trkpt lat="45.91031" lon="4.50393">
        <ele>330.8</ele>
        <time>2022-06-26T08:06:14Z</time>
      </trkpt>
      <trkpt lat="45.91033" lon="4.50388">
        <ele>331</ele>
        <time>2022-06-26T08:06:15Z</time>
      </trkpt>
      <trkpt lat="45.91036" lon="4.50384">
        <ele>331</ele>
        <time>2022-06-26T08:06:16Z</time>
      </trkpt>
      <trkpt lat="45.91039" lon="4.50379">
        <ele>331.4</ele>
        <time>2022-06-26T08:06:17Z</time>
      </trkpt>
      <trkpt lat="45.91042" lon="4.50375">
        <ele>331.4</ele>
        <time>2022-06-26T08:06:18Z</time>
      </trkpt>
      <trkpt lat="45.91044" lon="4.5037">
        <ele>331.6</ele>
        <time>2022-06-26T08:06:19Z</time>
      </trkpt>
      <trkpt lat="45.91047" lon="4.50366">
        <ele>331.8</ele>
        <time>2022-06-26T08:06:21Z</time>
      </trkpt>
      <trkpt lat="45.9105" lon="4.50362">
        <ele>331.8</ele>
        <time>2022-06-26T08:06:22Z</time>
      </trkpt>
      <trkpt lat="45.91052" lon="4.50357">
        <ele>332</ele>
        <time>2022-06-26T08:06:23Z</time>
      </trkpt>
      <trkpt lat="45.91055" lon="4.50353">
        <ele>332</ele>
        <time>2022-06-26T08:06:24Z</time>
      </trkpt>
      <trkpt lat="45.91058" lon="4.50349">
        <ele>332.4</ele>
        <time>2022-06-26T08:06:25Z</time>
      </trkpt>
      <trkpt lat="45.9106" lon="4.50344">
        <ele>332.4</ele>
        <time>2022-06-26T08:06:26Z</time>
      </trkpt>
      <trkpt lat="45.91063" lon="4.50339">
        <ele>332.6</ele>
        <time>2022-06-26T08:06:27Z</time>
      </trkpt>
      <trkpt lat="45.91065" lon="4.50335">
        <ele>332.6</ele>
        <time>2022-06-26T08:06:28Z</time>
      </trkpt>
      <trkpt lat="45.91067" lon="4.5033">
        <ele>332.8</ele>
        <time>2022-06-26T08:06:29Z</time>
      </trkpt>
      <trkpt lat="45.9107" lon="4.50325">
        <ele>332.8</ele>
        <time>2022-06-26T08:06:30Z</time>
      </trkpt>
      <trkpt lat="45.91072" lon="4.50321">
        <ele>333</ele>
        <time>2022-06-26T08:06:31Z</time>
      </trkpt>
      <trkpt lat="45.91074" lon="4.50315">
        <ele>333.2</ele>
        <time>2022-06-26T08:06:32Z</time>
      </trkpt>
      <trkpt lat="45.91076" lon="4.5031">
        <ele>333.2</ele>
        <time>2022-06-26T08:06:33Z</time>
      </trkpt>
      <trkpt lat="45.91078" lon="4.50305">
        <ele>333.2</ele>
        <time>2022-06-26T08:06:34Z</time>
      </trkpt>
      <trkpt lat="45.9108" lon="4.503">
        <ele>333.6</ele>
        <time>2022-06-26T08:06:35Z</time>
      </trkpt>
      <trkpt lat="45.91081" lon="4.50294">
        <ele>333.6</ele>
        <time>2022-06-26T08:06:36Z</time>
      </trkpt>
      <trkpt lat="45.91083" lon="4.50289">
        <ele>333.6</ele>
        <time>2022-06-26T08:06:37Z</time>
      </trkpt>
      <trkpt lat="45.91085" lon="4.50284">
        <ele>333.6</ele>
        <time>2022-06-26T08:06:38Z</time>
      </trkpt>
      <trkpt lat="45.91086" lon="4.50279">
        <ele>333.6</ele>
        <time>2022-06-26T08:06:39Z</time>
      </trkpt>
      <trkpt lat="45.91088" lon="4.50273">
        <ele>333.6</ele>
        <time>2022-06-26T08:06:40Z</time>
      </trkpt>
      <trkpt lat="45.91089" lon="4.50268">
        <ele>333.8</ele>
        <time>2022-06-26T08:06:41Z</time>
      </trkpt>
      <trkpt lat="45.91091" lon="4.50263">
        <ele>333.8</ele>
        <time>2022-06-26T08:06:42Z</time>
      </trkpt>
      <trkpt lat="45.91092" lon="4.50258">
        <ele>333.8</ele>
        <time>2022-06-26T08:06:43Z</time>
      </trkpt>
      <trkpt lat="45.91094" lon="4.50252">
        <ele>333.8</ele>
        <time>2022-06-26T08:06:44Z</time>
      </trkpt>
      <trkpt lat="45.91095" lon="4.50246">
        <ele>333.8</ele>
        <time>2022-06-26T08:06:45Z</time>
      </trkpt>
      <trkpt lat="45.91096" lon="4.5024">
        <ele>334</ele>
        <time>2022-06-26T08:06:46Z</time>
      </trkpt>
      <trkpt lat="45.91098" lon="4.50234">
        <ele>334</ele>
        <time>2022-06-26T08:06:47Z</time>
      </trkpt>
      <trkpt lat="45.91099" lon="4.50227">
        <ele>334.4</ele>
        <time>2022-06-26T08:06:48Z</time>
      </trkpt>
      <trkpt lat="45.91101" lon="4.50221">
        <ele>334.4</ele>
        <time>2022-06-26T08:06:49Z</time>
      </trkpt>
      <trkpt lat="45.91103" lon="4.50215">
        <ele>334.4</ele>
        <time>2022-06-26T08:06:50Z</time>
      </trkpt>
      <trkpt lat="45.91104" lon="4.50208">
        <ele>334.4</ele>
        <time>2022-06-26T08:06:51Z</time>
      </trkpt>
      <trkpt lat="45.91106" lon="4.50201">
        <ele>334.4</ele>
        <time>2022-06-26T08:06:52Z</time>
      </trkpt>
      <trkpt lat="45.91107" lon="4.50195">
        <ele>334.4</ele>
        <time>2022-06-26T08:06:53Z</time>
      </trkpt>
      <trkpt lat="45.91109" lon="4.50188">
        <ele>334.4</ele>
        <time>2022-06-26T08:06:54Z</time>
      </trkpt>
      <trkpt lat="45.9111" lon="4.50182">
        <ele>334.4</ele>
        <time>2022-06-26T08:06:55Z</time>
      </trkpt>
      <trkpt lat="45.91112" lon="4.50175">
        <ele>334.6</ele>
        <time>2022-06-26T08:06:56Z</time>
      </trkpt>
      <trkpt lat="45.91113" lon="4.50168">
        <ele>334.6</ele>
        <time>2022-06-26T08:06:57Z</time>
      </trkpt>
      <trkpt lat="45.91115" lon="4.50162">
        <ele>334.6</ele>
        <time>2022-06-26T08:06:58Z</time>
      </trkpt>
      <trkpt lat="45.91116" lon="4.50155">
        <ele>334.8</ele>
        <time>2022-06-26T08:06:59Z</time>
      </trkpt>
      <trkpt lat="45.91117" lon="4.50148">
        <ele>334.8</ele>
        <time>2022-06-26T08:07:00Z</time>
      </trkpt>
      <trkpt lat="45.91119" lon="4.50141">
        <ele>335</ele>
        <time>2022-06-26T08:07:01Z</time>
      </trkpt>
      <trkpt lat="45.9112" lon="4.50135">
        <ele>335</ele>
        <time>2022-06-26T08:07:02Z</time>
      </trkpt>
      <trkpt lat="45.91122" lon="4.50128">
        <ele>335.2</ele>
        <time>2022-06-26T08:07:03Z</time>
      </trkpt>
      <trkpt lat="45.91124" lon="4.50122">
        <ele>335.2</ele>
        <time>2022-06-26T08:07:04Z</time>
      </trkpt>
      <trkpt lat="45.91125" lon="4.50115">
        <ele>335.2</ele>
        <time>2022-06-26T08:07:05Z</time>
      </trkpt>
      <trkpt lat="45.91127" lon="4.50108">
        <ele>335.4</ele>
        <time>2022-06-26T08:07:06Z</time>
      </trkpt>
      <trkpt lat="45.91128" lon="4.50101">
        <ele>335.4</ele>
        <time>2022-06-26T08:07:07Z</time>
      </trkpt>
      <trkpt lat="45.9113" lon="4.50094">
        <ele>335.4</ele>
        <time>2022-06-26T08:07:08Z</time>
      </trkpt>
      <trkpt lat="45.91132" lon="4.50087">
        <ele>335.4</ele>
        <time>2022-06-26T08:07:09Z</time>
      </trkpt>
      <trkpt lat="45.91134" lon="4.5008">
        <ele>335.4</ele>
        <time>2022-06-26T08:07:10Z</time>
      </trkpt>
      <trkpt lat="45.91135" lon="4.50074">
        <ele>335.4</ele>
        <time>2022-06-26T08:07:11Z</time>
      </trkpt>
      <trkpt lat="45.91137" lon="4.50067">
        <ele>335.8</ele>
        <time>2022-06-26T08:07:12Z</time>
      </trkpt>
      <trkpt lat="45.91139" lon="4.5006">
        <ele>335.8</ele>
        <time>2022-06-26T08:07:13Z</time>
      </trkpt>
      <trkpt lat="45.91141" lon="4.50054">
        <ele>335.8</ele>
        <time>2022-06-26T08:07:14Z</time>
      </trkpt>
      <trkpt lat="45.91143" lon="4.50047">
        <ele>335.8</ele>
        <time>2022-06-26T08:07:15Z</time>
      </trkpt>
      <trkpt lat="45.91146" lon="4.50041">
        <ele>336</ele>
        <time>2022-06-26T08:07:16Z</time>
      </trkpt>
      <trkpt lat="45.91148" lon="4.50035">
        <ele>336</ele>
        <time>2022-06-26T08:07:17Z</time>
      </trkpt>
      <trkpt lat="45.91151" lon="4.50029">
        <ele>336.2</ele>
        <time>2022-06-26T08:07:18Z</time>
      </trkpt>
      <trkpt lat="45.91153" lon="4.50023">
        <ele>336.2</ele>
        <time>2022-06-26T08:07:19Z</time>
      </trkpt>
      <trkpt lat="45.91156" lon="4.50018">
        <ele>336.2</ele>
        <time>2022-06-26T08:07:20Z</time>
      </trkpt>
      <trkpt lat="45.91157" lon="4.50012">
        <ele>336.4</ele>
        <time>2022-06-26T08:07:21Z</time>
      </trkpt>
      <trkpt lat="45.91159" lon="4.50008">
        <ele>336.4</ele>
        <time>2022-06-26T08:07:22Z</time>
      </trkpt>
      <trkpt lat="45.9116" lon="4.50003">
        <ele>336.8</ele>
        <time>2022-06-26T08:07:23Z</time>
      </trkpt>
      <trkpt lat="45.91159" lon="4.5">
        <ele>336.8</ele>
        <time>2022-06-26T08:07:24Z</time>
      </trkpt>
      <trkpt lat="45.91158" lon="4.49998">
        <ele>336.8</ele>
        <time>2022-06-26T08:07:25Z</time>
      </trkpt>
      <trkpt lat="45.91157" lon="4.49996">
        <ele>337</ele>
        <time>2022-06-26T08:07:26Z</time>
      </trkpt>
      <trkpt lat="45.91157" lon="4.49994">
        <ele>337</ele>
        <time>2022-06-26T08:07:27Z</time>
      </trkpt>
      <trkpt lat="45.91157" lon="4.49991">
        <ele>337</ele>
        <time>2022-06-26T08:07:28Z</time>
      </trkpt>
      <trkpt lat="45.91158" lon="4.49988">
        <ele>337</ele>
        <time>2022-06-26T08:07:29Z</time>
      </trkpt>
      <trkpt lat="45.91159" lon="4.49986">
        <ele>337</ele>
        <time>2022-06-26T08:07:30Z</time>
      </trkpt>
      <trkpt lat="45.9116" lon="4.49983">
        <ele>337</ele>
        <time>2022-06-26T08:07:31Z</time>
      </trkpt>
      <trkpt lat="45.91162" lon="4.49981">
        <ele>337</ele>
        <time>2022-06-26T08:07:32Z</time>
      </trkpt>
      <trkpt lat="45.91163" lon="4.49978">
        <ele>337</ele>
        <time>2022-06-26T08:07:33Z</time>
      </trkpt>
      <trkpt lat="45.91165" lon="4.49976">
        <ele>337</ele>
        <time>2022-06-26T08:07:34Z</time>
      </trkpt>
      <trkpt lat="45.91167" lon="4.49974">
        <ele>337</ele>
        <time>2022-06-26T08:07:35Z</time>
      </trkpt>
      <trkpt lat="45.91169" lon="4.49972">
        <ele>337.2</ele>
        <time>2022-06-26T08:07:36Z</time>
      </trkpt>
      <trkpt lat="45.91172" lon="4.4997">
        <ele>337.2</ele>
        <time>2022-06-26T08:07:37Z</time>
      </trkpt>
      <trkpt lat="45.91174" lon="4.49969">
        <ele>337.2</ele>
        <time>2022-06-26T08:07:38Z</time>
      </trkpt>
      <trkpt lat="45.91176" lon="4.49967">
        <ele>337.2</ele>
        <time>2022-06-26T08:07:39Z</time>
      </trkpt>
      <trkpt lat="45.91178" lon="4.49967">
        <ele>337.2</ele>
        <time>2022-06-26T08:07:40Z</time>
      </trkpt>
      <trkpt lat="45.91181" lon="4.49968">
        <ele>337.2</ele>
        <time>2022-06-26T08:07:41Z</time>
      </trkpt>
      <trkpt lat="45.91184" lon="4.49969">
        <ele>337.4</ele>
        <time>2022-06-26T08:07:42Z</time>
      </trkpt>
      <trkpt lat="45.91187" lon="4.49968">
        <ele>337.4</ele>
        <time>2022-06-26T08:07:43Z</time>
      </trkpt>
      <trkpt lat="45.9119" lon="4.49966">
        <ele>337.4</ele>
        <time>2022-06-26T08:07:44Z</time>
      </trkpt>
      <trkpt lat="45.91194" lon="4.49964">
        <ele>337.4</ele>
        <time>2022-06-26T08:07:45Z</time>
      </trkpt>
      <trkpt lat="45.91196" lon="4.4996">
        <ele>337.4</ele>
        <time>2022-06-26T08:07:46Z</time>
      </trkpt>
      <trkpt lat="45.91199" lon="4.49956">
        <ele>337.4</ele>
        <time>2022-06-26T08:07:47Z</time>
      </trkpt>
      <trkpt lat="45.91202" lon="4.49953">
        <ele>337.4</ele>
        <time>2022-06-26T08:07:48Z</time>
      </trkpt>
      <trkpt lat="45.91205" lon="4.49949">
        <ele>337.6</ele>
        <time>2022-06-26T08:07:49Z</time>
      </trkpt>
      <trkpt lat="45.91208" lon="4.49946">
        <ele>337.6</ele>
        <time>2022-06-26T08:07:50Z</time>
      </trkpt>
      <trkpt lat="45.9121" lon="4.49942">
        <ele>337.6</ele>
        <time>2022-06-26T08:07:51Z</time>
      </trkpt>
      <trkpt lat="45.91213" lon="4.49938">
        <ele>337.8</ele>
        <time>2022-06-26T08:07:52Z</time>
      </trkpt>
      <trkpt lat="45.91216" lon="4.49934">
        <ele>337.8</ele>
        <time>2022-06-26T08:07:53Z</time>
      </trkpt>
      <trkpt lat="45.91219" lon="4.49931">
        <ele>337.8</ele>
        <time>2022-06-26T08:07:54Z</time>
      </trkpt>
      <trkpt lat="45.91222" lon="4.49927">
        <ele>337.8</ele>
        <time>2022-06-26T08:07:55Z</time>
      </trkpt>
      <trkpt lat="45.91225" lon="4.49923">
        <ele>338.2</ele>
        <time>2022-06-26T08:07:56Z</time>
      </trkpt>
      <trkpt lat="45.91228" lon="4.4992">
        <ele>338.2</ele>
        <time>2022-06-26T08:07:57Z</time>
      </trkpt>
      <trkpt lat="45.9123" lon="4.49917">
        <ele>338.2</ele>
        <time>2022-06-26T08:07:58Z</time>
      </trkpt>
      <trkpt lat="45.91233" lon="4.49916">
        <ele>338.2</ele>
        <time>2022-06-26T08:07:59Z</time>
      </trkpt>
      <trkpt lat="45.91236" lon="4.49915">
        <ele>338.2</ele>
        <time>2022-06-26T08:08:00Z</time>
      </trkpt>
      <trkpt lat="45.91239" lon="4.49915">
        <ele>338.4</ele>
        <time>2022-06-26T08:08:01Z</time>
      </trkpt>
      <trkpt lat="45.91242" lon="4.49915">
        <ele>338.4</ele>
        <time>2022-06-26T08:08:02Z</time>
      </trkpt>
      <trkpt lat="45.91243" lon="4.49915">
        <ele>338.4</ele>
        <time>2022-06-26T08:08:03Z</time>
      </trkpt>
      <trkpt lat="45.91244" lon="4.49914">
        <ele>338.4</ele>
        <time>2022-06-26T08:08:04Z</time>
      </trkpt>
      <trkpt lat="45.91252" lon="4.49909">
        <ele>339</ele>
        <time>2022-06-26T08:08:14Z</time>
      </trkpt>
      <trkpt lat="45.91253" lon="4.49908">
        <ele>339</ele>
        <time>2022-06-26T08:08:15Z</time>
      </trkpt>
      <trkpt lat="45.91253" lon="4.49907">
        <ele>339</ele>
        <time>2022-06-26T08:08:16Z</time>
      </trkpt>
      <trkpt lat="45.91254" lon="4.49906">
        <ele>339.2</ele>
        <time>2022-06-26T08:08:17Z</time>
      </trkpt>
      <trkpt lat="45.91255" lon="4.49905">
        <ele>339.2</ele>
        <time>2022-06-26T08:08:18Z</time>
      </trkpt>
      <trkpt lat="45.91255" lon="4.49904">
        <ele>339.4</ele>
        <time>2022-06-26T08:08:19Z</time>
      </trkpt>
      <trkpt lat="45.91255" lon="4.49903">
        <ele>339.4</ele>
        <time>2022-06-26T08:08:20Z</time>
      </trkpt>
      <trkpt lat="45.91257" lon="4.499">
        <ele>340</ele>
        <time>2022-06-26T08:08:23Z</time>
      </trkpt>
      <trkpt lat="45.91258" lon="4.49899">
        <ele>340.2</ele>
        <time>2022-06-26T08:08:24Z</time>
      </trkpt>
      <trkpt lat="45.9126" lon="4.49897">
        <ele>340.8</ele>
        <time>2022-06-26T08:08:28Z</time>
      </trkpt>
      <trkpt lat="45.91261" lon="4.49896">
        <ele>341.2</ele>
        <time>2022-06-26T08:08:29Z</time>
      </trkpt>
      <trkpt lat="45.91262" lon="4.49895">
        <ele>341.2</ele>
        <time>2022-06-26T08:08:30Z</time>
      </trkpt>
      <trkpt lat="45.91258" lon="4.49897">
        <ele>337.2</ele>
        <time>2022-06-26T08:18:17Z</time>
      </trkpt>
      <trkpt lat="45.91256" lon="4.49899">
        <ele>337</ele>
        <time>2022-06-26T08:18:18Z</time>
      </trkpt>
      <trkpt lat="45.91255" lon="4.499">
        <ele>337</ele>
        <time>2022-06-26T08:18:19Z</time>
      </trkpt>
      <trkpt lat="45.91255" lon="4.49901">
        <ele>336.8</ele>
        <time>2022-06-26T08:18:20Z</time>
      </trkpt>
      <trkpt lat="45.91254" lon="4.49902">
        <ele>336.8</ele>
        <time>2022-06-26T08:18:21Z</time>
      </trkpt>
      <trkpt lat="45.91254" lon="4.49903">
        <ele>336.4</ele>
        <time>2022-06-26T08:18:22Z</time>
      </trkpt>
      <trkpt lat="45.91253" lon="4.49904">
        <ele>336.4</ele>
        <time>2022-06-26T08:18:23Z</time>
      </trkpt>
      <trkpt lat="45.91251" lon="4.49907">
        <ele>335.8</ele>
        <time>2022-06-26T08:18:26Z</time>
      </trkpt>
      <trkpt lat="45.9125" lon="4.49908">
        <ele>335.8</ele>
        <time>2022-06-26T08:18:27Z</time>
      </trkpt>
      <trkpt lat="45.91249" lon="4.49909">
        <ele>335.4</ele>
        <time>2022-06-26T08:18:28Z</time>
      </trkpt>
      <trkpt lat="45.91248" lon="4.4991">
        <ele>335.4</ele>
        <time>2022-06-26T08:18:29Z</time>
      </trkpt>
      <trkpt lat="45.91247" lon="4.49911">
        <ele>335</ele>
        <time>2022-06-26T08:18:30Z</time>
      </trkpt>
      <trkpt lat="45.91246" lon="4.49911">
        <ele>335</ele>
        <time>2022-06-26T08:18:31Z</time>
      </trkpt>
      <trkpt lat="45.91245" lon="4.49911">
        <ele>334.8</ele>
        <time>2022-06-26T08:18:32Z</time>
      </trkpt>
      <trkpt lat="45.91244" lon="4.4991">
        <ele>334.8</ele>
        <time>2022-06-26T08:18:33Z</time>
      </trkpt>
      <trkpt lat="45.91245" lon="4.49903">
        <ele>334.6</ele>
        <time>2022-06-26T08:18:48Z</time>
      </trkpt>
      <trkpt lat="45.91245" lon="4.49901">
        <ele>334.6</ele>
        <time>2022-06-26T08:18:49Z</time>
      </trkpt>
      <trkpt lat="45.91245" lon="4.49898">
        <ele>334.6</ele>
        <time>2022-06-26T08:18:50Z</time>
      </trkpt>
      <trkpt lat="45.91245" lon="4.49895">
        <ele>334.6</ele>
        <time>2022-06-26T08:18:51Z</time>
      </trkpt>
      <trkpt lat="45.91246" lon="4.49892">
        <ele>334.6</ele>
        <time>2022-06-26T08:18:52Z</time>
      </trkpt>
      <trkpt lat="45.91247" lon="4.49889">
        <ele>334.6</ele>
        <time>2022-06-26T08:18:53Z</time>
      </trkpt>
      <trkpt lat="45.91249" lon="4.49885">
        <ele>334.6</ele>
        <time>2022-06-26T08:18:54Z</time>
      </trkpt>
      <trkpt lat="45.91251" lon="4.49882">
        <ele>334.6</ele>
        <time>2022-06-26T08:18:55Z</time>
      </trkpt>
      <trkpt lat="45.91253" lon="4.49878">
        <ele>334.6</ele>
        <time>2022-06-26T08:18:56Z</time>
      </trkpt>
      <trkpt lat="45.91254" lon="4.49874">
        <ele>334.6</ele>
        <time>2022-06-26T08:18:57Z</time>
      </trkpt>
      <trkpt lat="45.91256" lon="4.4987">
        <ele>334.6</ele>
        <time>2022-06-26T08:18:58Z</time>
      </trkpt>
      <trkpt lat="45.91258" lon="4.49866">
        <ele>334.6</ele>
        <time>2022-06-26T08:18:59Z</time>
      </trkpt>
      <trkpt lat="45.91259" lon="4.49861">
        <ele>334.6</ele>
        <time>2022-06-26T08:19:00Z</time>
      </trkpt>
      <trkpt lat="45.91261" lon="4.49857">
        <ele>334.8</ele>
        <time>2022-06-26T08:19:01Z</time>
      </trkpt>
      <trkpt lat="45.91263" lon="4.49852">
        <ele>334.8</ele>
        <time>2022-06-26T08:19:02Z</time>
      </trkpt>
      <trkpt lat="45.91265" lon="4.49846">
        <ele>334.8</ele>
        <time>2022-06-26T08:19:03Z</time>
      </trkpt>
      <trkpt lat="45.91267" lon="4.49841">
        <ele>335.2</ele>
        <time>2022-06-26T08:19:04Z</time>
      </trkpt>
      <trkpt lat="45.91268" lon="4.49835">
        <ele>335.2</ele>
        <time>2022-06-26T08:19:05Z</time>
      </trkpt>
      <trkpt lat="45.9127" lon="4.4983">
        <ele>335.2</ele>
        <time>2022-06-26T08:19:06Z</time>
      </trkpt>
      <trkpt lat="45.91271" lon="4.49824">
        <ele>335.2</ele>
        <time>2022-06-26T08:19:07Z</time>
      </trkpt>
      <trkpt lat="45.91273" lon="4.49819">
        <ele>335.2</ele>
        <time>2022-06-26T08:19:08Z</time>
      </trkpt>
      <trkpt lat="45.91274" lon="4.49813">
        <ele>335.6</ele>
        <time>2022-06-26T08:19:09Z</time>
      </trkpt>
      <trkpt lat="45.91275" lon="4.49807">
        <ele>335.6</ele>
        <time>2022-06-26T08:19:10Z</time>
      </trkpt>
      <trkpt lat="45.91277" lon="4.49801">
        <ele>335.8</ele>
        <time>2022-06-26T08:19:11Z</time>
      </trkpt>
      <trkpt lat="45.91278" lon="4.49794">
        <ele>335.8</ele>
        <time>2022-06-26T08:19:12Z</time>
      </trkpt>
      <trkpt lat="45.91279" lon="4.49788">
        <ele>336.2</ele>
        <time>2022-06-26T08:19:13Z</time>
      </trkpt>
      <trkpt lat="45.9128" lon="4.49782">
        <ele>336.2</ele>
        <time>2022-06-26T08:19:14Z</time>
      </trkpt>
      <trkpt lat="45.91282" lon="4.49776">
        <ele>336.2</ele>
        <time>2022-06-26T08:19:15Z</time>
      </trkpt>
      <trkpt lat="45.91283" lon="4.49769">
        <ele>336.4</ele>
        <time>2022-06-26T08:19:16Z</time>
      </trkpt>
      <trkpt lat="45.91285" lon="4.49763">
        <ele>336.4</ele>
        <time>2022-06-26T08:19:17Z</time>
      </trkpt>
      <trkpt lat="45.91286" lon="4.49757">
        <ele>336.4</ele>
        <time>2022-06-26T08:19:18Z</time>
      </trkpt>
      <trkpt lat="45.91288" lon="4.4975">
        <ele>336.6</ele>
        <time>2022-06-26T08:19:19Z</time>
      </trkpt>
      <trkpt lat="45.9129" lon="4.49744">
        <ele>336.6</ele>
        <time>2022-06-26T08:19:20Z</time>
      </trkpt>
      <trkpt lat="45.91291" lon="4.49737">
        <ele>336.8</ele>
        <time>2022-06-26T08:19:21Z</time>
      </trkpt>
      <trkpt lat="45.91293" lon="4.4973">
        <ele>336.8</ele>
        <time>2022-06-26T08:19:22Z</time>
      </trkpt>
      <trkpt lat="45.91295" lon="4.49723">
        <ele>337</ele>
        <time>2022-06-26T08:19:23Z</time>
      </trkpt>
      <trkpt lat="45.91297" lon="4.49717">
        <ele>337</ele>
        <time>2022-06-26T08:19:24Z</time>
      </trkpt>
      <trkpt lat="45.913" lon="4.4971">
        <ele>337.2</ele>
        <time>2022-06-26T08:19:25Z</time>
      </trkpt>
      <trkpt lat="45.91302" lon="4.49704">
        <ele>337.2</ele>
        <time>2022-06-26T08:19:26Z</time>
      </trkpt>
      <trkpt lat="45.91304" lon="4.49697">
        <ele>337.6</ele>
        <time>2022-06-26T08:19:27Z</time>
      </trkpt>
      <trkpt lat="45.91307" lon="4.49691">
        <ele>337.6</ele>
        <time>2022-06-26T08:19:28Z</time>
      </trkpt>
      <trkpt lat="45.91309" lon="4.49685">
        <ele>337.8</ele>
        <time>2022-06-26T08:19:29Z</time>
      </trkpt>
      <trkpt lat="45.91312" lon="4.49679">
        <ele>337.8</ele>
        <time>2022-06-26T08:19:30Z</time>
      </trkpt>
      <trkpt lat="45.91315" lon="4.49673">
        <ele>337.8</ele>
        <time>2022-06-26T08:19:31Z</time>
      </trkpt>
      <trkpt lat="45.91317" lon="4.49667">
        <ele>337.8</ele>
        <time>2022-06-26T08:19:32Z</time>
      </trkpt>
      <trkpt lat="45.9132" lon="4.49661">
        <ele>338.2</ele>
        <time>2022-06-26T08:19:33Z</time>
      </trkpt>
      <trkpt lat="45.91323" lon="4.49655">
        <ele>338.2</ele>
        <time>2022-06-26T08:19:34Z</time>
      </trkpt>
      <trkpt lat="45.91326" lon="4.4965">
        <ele>338.6</ele>
        <time>2022-06-26T08:19:35Z</time>
      </trkpt>
      <trkpt lat="45.91329" lon="4.49644">
        <ele>338.6</ele>
        <time>2022-06-26T08:19:36Z</time>
      </trkpt>
      <trkpt lat="45.91333" lon="4.49638">
        <ele>338.8</ele>
        <time>2022-06-26T08:19:37Z</time>
      </trkpt>
      <trkpt lat="45.91336" lon="4.49633">
        <ele>338.8</ele>
        <time>2022-06-26T08:19:38Z</time>
      </trkpt>
      <trkpt lat="45.91339" lon="4.49627">
        <ele>338.8</ele>
        <time>2022-06-26T08:19:39Z</time>
      </trkpt>
      <trkpt lat="45.91343" lon="4.49622">
        <ele>339</ele>
        <time>2022-06-26T08:19:40Z</time>
      </trkpt>
      <trkpt lat="45.91346" lon="4.49617">
        <ele>339</ele>
        <time>2022-06-26T08:19:41Z</time>
      </trkpt>
      <trkpt lat="45.9135" lon="4.49612">
        <ele>339.2</ele>
        <time>2022-06-26T08:19:42Z</time>
      </trkpt>
      <trkpt lat="45.91353" lon="4.49607">
        <ele>339.2</ele>
        <time>2022-06-26T08:19:43Z</time>
      </trkpt>
      <trkpt lat="45.91357" lon="4.49603">
        <ele>339.4</ele>
        <time>2022-06-26T08:19:44Z</time>
      </trkpt>
      <trkpt lat="45.91361" lon="4.49598">
        <ele>339.4</ele>
        <time>2022-06-26T08:19:45Z</time>
      </trkpt>
      <trkpt lat="45.91365" lon="4.49594">
        <ele>339.8</ele>
        <time>2022-06-26T08:19:46Z</time>
      </trkpt>
      <trkpt lat="45.91368" lon="4.4959">
        <ele>339.8</ele>
        <time>2022-06-26T08:19:47Z</time>
      </trkpt>
      <trkpt lat="45.91372" lon="4.49585">
        <ele>340</ele>
        <time>2022-06-26T08:19:48Z</time>
      </trkpt>
      <trkpt lat="45.91376" lon="4.49581">
        <ele>340</ele>
        <time>2022-06-26T08:19:49Z</time>
      </trkpt>
      <trkpt lat="45.9138" lon="4.49577">
        <ele>340</ele>
        <time>2022-06-26T08:19:50Z</time>
      </trkpt>
      <trkpt lat="45.91384" lon="4.49573">
        <ele>340.2</ele>
        <time>2022-06-26T08:19:51Z</time>
      </trkpt>
      <trkpt lat="45.91388" lon="4.49568">
        <ele>340.6</ele>
        <time>2022-06-26T08:19:52Z</time>
      </trkpt>
      <trkpt lat="45.91392" lon="4.49564">
        <ele>340.6</ele>
        <time>2022-06-26T08:19:53Z</time>
      </trkpt>
      <trkpt lat="45.91396" lon="4.4956">
        <ele>340.8</ele>
        <time>2022-06-26T08:19:54Z</time>
      </trkpt>
      <trkpt lat="45.914" lon="4.49556">
        <ele>340.8</ele>
        <time>2022-06-26T08:19:55Z</time>
      </trkpt>
      <trkpt lat="45.91404" lon="4.49552">
        <ele>341</ele>
        <time>2022-06-26T08:19:56Z</time>
      </trkpt>
      <trkpt lat="45.91408" lon="4.49547">
        <ele>341</ele>
        <time>2022-06-26T08:19:57Z</time>
      </trkpt>
      <trkpt lat="45.91412" lon="4.49543">
        <ele>341</ele>
        <time>2022-06-26T08:19:58Z</time>
      </trkpt>
      <trkpt lat="45.91416" lon="4.49538">
        <ele>341</ele>
        <time>2022-06-26T08:19:59Z</time>
      </trkpt>
      <trkpt lat="45.9142" lon="4.49534">
        <ele>341.4</ele>
        <time>2022-06-26T08:20:00Z</time>
      </trkpt>
      <trkpt lat="45.91425" lon="4.49529">
        <ele>341.4</ele>
        <time>2022-06-26T08:20:01Z</time>
      </trkpt>
      <trkpt lat="45.91429" lon="4.49525">
        <ele>341.4</ele>
        <time>2022-06-26T08:20:02Z</time>
      </trkpt>
      <trkpt lat="45.91433" lon="4.49521">
        <ele>341.6</ele>
        <time>2022-06-26T08:20:03Z</time>
      </trkpt>
      <trkpt lat="45.91437" lon="4.49516">
        <ele>341.6</ele>
        <time>2022-06-26T08:20:04Z</time>
      </trkpt>
      <trkpt lat="45.91441" lon="4.49512">
        <ele>341.8</ele>
        <time>2022-06-26T08:20:05Z</time>
      </trkpt>
      <trkpt lat="45.91445" lon="4.49508">
        <ele>341.8</ele>
        <time>2022-06-26T08:20:06Z</time>
      </trkpt>
      <trkpt lat="45.91448" lon="4.49503">
        <ele>342.2</ele>
        <time>2022-06-26T08:20:07Z</time>
      </trkpt>
      <trkpt lat="45.91452" lon="4.49499">
        <ele>342.2</ele>
        <time>2022-06-26T08:20:08Z</time>
      </trkpt>
      <trkpt lat="45.91456" lon="4.49494">
        <ele>342.6</ele>
        <time>2022-06-26T08:20:09Z</time>
      </trkpt>
      <trkpt lat="45.9146" lon="4.49489">
        <ele>342.6</ele>
        <time>2022-06-26T08:20:10Z</time>
      </trkpt>
      <trkpt lat="45.91463" lon="4.49484">
        <ele>342.6</ele>
        <time>2022-06-26T08:20:11Z</time>
      </trkpt>
      <trkpt lat="45.91467" lon="4.49479">
        <ele>342.8</ele>
        <time>2022-06-26T08:20:12Z</time>
      </trkpt>
      <trkpt lat="45.91471" lon="4.49474">
        <ele>342.8</ele>
        <time>2022-06-26T08:20:13Z</time>
      </trkpt>
      <trkpt lat="45.91474" lon="4.49468">
        <ele>342.8</ele>
        <time>2022-06-26T08:20:14Z</time>
      </trkpt>
      <trkpt lat="45.91477" lon="4.49462">
        <ele>343</ele>
        <time>2022-06-26T08:20:15Z</time>
      </trkpt>
      <trkpt lat="45.91481" lon="4.49456">
        <ele>343</ele>
        <time>2022-06-26T08:20:16Z</time>
      </trkpt>
      <trkpt lat="45.91484" lon="4.4945">
        <ele>343</ele>
        <time>2022-06-26T08:20:17Z</time>
      </trkpt>
      <trkpt lat="45.91487" lon="4.49443">
        <ele>343.4</ele>
        <time>2022-06-26T08:20:18Z</time>
      </trkpt>
      <trkpt lat="45.9149" lon="4.49437">
        <ele>343.4</ele>
        <time>2022-06-26T08:20:19Z</time>
      </trkpt>
      <trkpt lat="45.91493" lon="4.4943">
        <ele>343.6</ele>
        <time>2022-06-26T08:20:20Z</time>
      </trkpt>
      <trkpt lat="45.91496" lon="4.49423">
        <ele>343.6</ele>
        <time>2022-06-26T08:20:21Z</time>
      </trkpt>
      <trkpt lat="45.91499" lon="4.49416">
        <ele>343.6</ele>
        <time>2022-06-26T08:20:22Z</time>
      </trkpt>
      <trkpt lat="45.91502" lon="4.49409">
        <ele>344</ele>
        <time>2022-06-26T08:20:23Z</time>
      </trkpt>
      <trkpt lat="45.91504" lon="4.49402">
        <ele>344</ele>
        <time>2022-06-26T08:20:24Z</time>
      </trkpt>
      <trkpt lat="45.91507" lon="4.49394">
        <ele>344</ele>
        <time>2022-06-26T08:20:25Z</time>
      </trkpt>
      <trkpt lat="45.91509" lon="4.49387">
        <ele>344</ele>
        <time>2022-06-26T08:20:26Z</time>
      </trkpt>
      <trkpt lat="45.91512" lon="4.49379">
        <ele>344</ele>
        <time>2022-06-26T08:20:27Z</time>
      </trkpt>
      <trkpt lat="45.91514" lon="4.49371">
        <ele>344</ele>
        <time>2022-06-26T08:20:28Z</time>
      </trkpt>
      <trkpt lat="45.91516" lon="4.49363">
        <ele>344</ele>
        <time>2022-06-26T08:20:29Z</time>
      </trkpt>
      <trkpt lat="45.91519" lon="4.49355">
        <ele>344</ele>
        <time>2022-06-26T08:20:30Z</time>
      </trkpt>
      <trkpt lat="45.91521" lon="4.49347">
        <ele>344</ele>
        <time>2022-06-26T08:20:31Z</time>
      </trkpt>
      <trkpt lat="45.91524" lon="4.49339">
        <ele>344</ele>
        <time>2022-06-26T08:20:32Z</time>
      </trkpt>
      <trkpt lat="45.91527" lon="4.4933">
        <ele>344</ele>
        <time>2022-06-26T08:20:33Z</time>
      </trkpt>
      <trkpt lat="45.9153" lon="4.49322">
        <ele>344</ele>
        <time>2022-06-26T08:20:34Z</time>
      </trkpt>
      <trkpt lat="45.91533" lon="4.49313">
        <ele>344</ele>
        <time>2022-06-26T08:20:35Z</time>
      </trkpt>
      <trkpt lat="45.91536" lon="4.49305">
        <ele>344</ele>
        <time>2022-06-26T08:20:36Z</time>
      </trkpt>
      <trkpt lat="45.91539" lon="4.49297">
        <ele>344</ele>
        <time>2022-06-26T08:20:37Z</time>
      </trkpt>
      <trkpt lat="45.91543" lon="4.4929">
        <ele>344</ele>
        <time>2022-06-26T08:20:38Z</time>
      </trkpt>
      <trkpt lat="45.91546" lon="4.49282">
        <ele>344</ele>
        <time>2022-06-26T08:20:39Z</time>
      </trkpt>
      <trkpt lat="45.9155" lon="4.49274">
        <ele>344</ele>
        <time>2022-06-26T08:20:40Z</time>
      </trkpt>
      <trkpt lat="45.91554" lon="4.49267">
        <ele>344</ele>
        <time>2022-06-26T08:20:41Z</time>
      </trkpt>
      <trkpt lat="45.91557" lon="4.49259">
        <ele>344</ele>
        <time>2022-06-26T08:20:42Z</time>
      </trkpt>
      <trkpt lat="45.91561" lon="4.49252">
        <ele>344</ele>
        <time>2022-06-26T08:20:43Z</time>
      </trkpt>
      <trkpt lat="45.91565" lon="4.49244">
        <ele>344</ele>
        <time>2022-06-26T08:20:44Z</time>
      </trkpt>
      <trkpt lat="45.91569" lon="4.49236">
        <ele>344</ele>
        <time>2022-06-26T08:20:45Z</time>
      </trkpt>
      <trkpt lat="45.91573" lon="4.49228">
        <ele>344</ele>
        <time>2022-06-26T08:20:46Z</time>
      </trkpt>
      <trkpt lat="45.91577" lon="4.49221">
        <ele>343.8</ele>
        <time>2022-06-26T08:20:47Z</time>
      </trkpt>
      <trkpt lat="45.9158" lon="4.49213">
        <ele>343.8</ele>
        <time>2022-06-26T08:20:48Z</time>
      </trkpt>
      <trkpt lat="45.91584" lon="4.49205">
        <ele>343.8</ele>
        <time>2022-06-26T08:20:49Z</time>
      </trkpt>
      <trkpt lat="45.91588" lon="4.49197">
        <ele>343.8</ele>
        <time>2022-06-26T08:20:50Z</time>
      </trkpt>
      <trkpt lat="45.91593" lon="4.49188">
        <ele>343.4</ele>
        <time>2022-06-26T08:20:51Z</time>
      </trkpt>
      <trkpt lat="45.91597" lon="4.4918">
        <ele>343.4</ele>
        <time>2022-06-26T08:20:52Z</time>
      </trkpt>
      <trkpt lat="45.91601" lon="4.49172">
        <ele>343.4</ele>
        <time>2022-06-26T08:20:53Z</time>
      </trkpt>
      <trkpt lat="45.91605" lon="4.49164">
        <ele>343.2</ele>
        <time>2022-06-26T08:20:54Z</time>
      </trkpt>
      <trkpt lat="45.9161" lon="4.49155">
        <ele>343.2</ele>
        <time>2022-06-26T08:20:55Z</time>
      </trkpt>
      <trkpt lat="45.91615" lon="4.49147">
        <ele>343</ele>
        <time>2022-06-26T08:20:56Z</time>
      </trkpt>
      <trkpt lat="45.9162" lon="4.4914">
        <ele>343</ele>
        <time>2022-06-26T08:20:57Z</time>
      </trkpt>
      <trkpt lat="45.91625" lon="4.49132">
        <ele>343</ele>
        <time>2022-06-26T08:20:58Z</time>
      </trkpt>
      <trkpt lat="45.9163" lon="4.49125">
        <ele>343</ele>
        <time>2022-06-26T08:20:59Z</time>
      </trkpt>
      <trkpt lat="45.91635" lon="4.49118">
        <ele>343</ele>
        <time>2022-06-26T08:21:00Z</time>
      </trkpt>
      <trkpt lat="45.91641" lon="4.49111">
        <ele>342.8</ele>
        <time>2022-06-26T08:21:01Z</time>
      </trkpt>
      <trkpt lat="45.91646" lon="4.49104">
        <ele>342.8</ele>
        <time>2022-06-26T08:21:02Z</time>
      </trkpt>
      <trkpt lat="45.91652" lon="4.49098">
        <ele>342.8</ele>
        <time>2022-06-26T08:21:03Z</time>
      </trkpt>
      <trkpt lat="45.91657" lon="4.49092">
        <ele>342.6</ele>
        <time>2022-06-26T08:21:04Z</time>
      </trkpt>
      <trkpt lat="45.91662" lon="4.49086">
        <ele>342.6</ele>
        <time>2022-06-26T08:21:05Z</time>
      </trkpt>
      <trkpt lat="45.91668" lon="4.4908">
        <ele>342.6</ele>
        <time>2022-06-26T08:21:06Z</time>
      </trkpt>
      <trkpt lat="45.91674" lon="4.49075">
        <ele>342.6</ele>
        <time>2022-06-26T08:21:07Z</time>
      </trkpt>
      <trkpt lat="45.91679" lon="4.4907">
        <ele>342.6</ele>
        <time>2022-06-26T08:21:08Z</time>
      </trkpt>
      <trkpt lat="45.91685" lon="4.49066">
        <ele>342.6</ele>
        <time>2022-06-26T08:21:09Z</time>
      </trkpt>
      <trkpt lat="45.91691" lon="4.49061">
        <ele>342.6</ele>
        <time>2022-06-26T08:21:10Z</time>
      </trkpt>
      <trkpt lat="45.91697" lon="4.49056">
        <ele>342.6</ele>
        <time>2022-06-26T08:21:11Z</time>
      </trkpt>
      <trkpt lat="45.91703" lon="4.49052">
        <ele>342.6</ele>
        <time>2022-06-26T08:21:12Z</time>
      </trkpt>
      <trkpt lat="45.91709" lon="4.49047">
        <ele>342.6</ele>
        <time>2022-06-26T08:21:13Z</time>
      </trkpt>
      <trkpt lat="45.91715" lon="4.49043">
        <ele>342.4</ele>
        <time>2022-06-26T08:21:14Z</time>
      </trkpt>
      <trkpt lat="45.91721" lon="4.49038">
        <ele>342.4</ele>
        <time>2022-06-26T08:21:15Z</time>
      </trkpt>
      <trkpt lat="45.91727" lon="4.49034">
        <ele>342.4</ele>
        <time>2022-06-26T08:21:16Z</time>
      </trkpt>
      <trkpt lat="45.91733" lon="4.49028">
        <ele>342.2</ele>
        <time>2022-06-26T08:21:17Z</time>
      </trkpt>
      <trkpt lat="45.91739" lon="4.49022">
        <ele>342.2</ele>
        <time>2022-06-26T08:21:18Z</time>
      </trkpt>
      <trkpt lat="45.91744" lon="4.49016">
        <ele>342.2</ele>
        <time>2022-06-26T08:21:19Z</time>
      </trkpt>
      <trkpt lat="45.9175" lon="4.4901">
        <ele>342</ele>
        <time>2022-06-26T08:21:20Z</time>
      </trkpt>
      <trkpt lat="45.91755" lon="4.49003">
        <ele>342</ele>
        <time>2022-06-26T08:21:21Z</time>
      </trkpt>
      <trkpt lat="45.9176" lon="4.48995">
        <ele>342</ele>
        <time>2022-06-26T08:21:22Z</time>
      </trkpt>
      <trkpt lat="45.91765" lon="4.48987">
        <ele>341.8</ele>
        <time>2022-06-26T08:21:23Z</time>
      </trkpt>
      <trkpt lat="45.91769" lon="4.48979">
        <ele>341.8</ele>
        <time>2022-06-26T08:21:24Z</time>
      </trkpt>
      <trkpt lat="45.91774" lon="4.4897">
        <ele>341.8</ele>
        <time>2022-06-26T08:21:25Z</time>
      </trkpt>
      <trkpt lat="45.91778" lon="4.48962">
        <ele>341.8</ele>
        <time>2022-06-26T08:21:26Z</time>
      </trkpt>
      <trkpt lat="45.91782" lon="4.48955">
        <ele>341.8</ele>
        <time>2022-06-26T08:21:27Z</time>
      </trkpt>
      <trkpt lat="45.91786" lon="4.48947">
        <ele>341.8</ele>
        <time>2022-06-26T08:21:28Z</time>
      </trkpt>
      <trkpt lat="45.9179" lon="4.4894">
        <ele>341.8</ele>
        <time>2022-06-26T08:21:29Z</time>
      </trkpt>
      <trkpt lat="45.91793" lon="4.48932">
        <ele>341.8</ele>
        <time>2022-06-26T08:21:30Z</time>
      </trkpt>
      <trkpt lat="45.91796" lon="4.48924">
        <ele>341.8</ele>
        <time>2022-06-26T08:21:31Z</time>
      </trkpt>
      <trkpt lat="45.91798" lon="4.48916">
        <ele>342</ele>
        <time>2022-06-26T08:21:32Z</time>
      </trkpt>
      <trkpt lat="45.91801" lon="4.48909">
        <ele>342</ele>
        <time>2022-06-26T08:21:33Z</time>
      </trkpt>
      <trkpt lat="45.91803" lon="4.48901">
        <ele>342.2</ele>
        <time>2022-06-26T08:21:34Z</time>
      </trkpt>
      <trkpt lat="45.91806" lon="4.48894">
        <ele>342.2</ele>
        <time>2022-06-26T08:21:35Z</time>
      </trkpt>
      <trkpt lat="45.91808" lon="4.48887">
        <ele>342.6</ele>
        <time>2022-06-26T08:21:36Z</time>
      </trkpt>
      <trkpt lat="45.9181" lon="4.4888">
        <ele>342.8</ele>
        <time>2022-06-26T08:21:37Z</time>
      </trkpt>
      <trkpt lat="45.91812" lon="4.48873">
        <ele>342.8</ele>
        <time>2022-06-26T08:21:38Z</time>
      </trkpt>
      <trkpt lat="45.91814" lon="4.48866">
        <ele>343.2</ele>
        <time>2022-06-26T08:21:39Z</time>
      </trkpt>
      <trkpt lat="45.91816" lon="4.48859">
        <ele>343.4</ele>
        <time>2022-06-26T08:21:40Z</time>
      </trkpt>
      <trkpt lat="45.91818" lon="4.48852">
        <ele>343.6</ele>
        <time>2022-06-26T08:21:41Z</time>
      </trkpt>
      <trkpt lat="45.9182" lon="4.48845">
        <ele>344</ele>
        <time>2022-06-26T08:21:42Z</time>
      </trkpt>
      <trkpt lat="45.91821" lon="4.48838">
        <ele>344</ele>
        <time>2022-06-26T08:21:43Z</time>
      </trkpt>
      <trkpt lat="45.91823" lon="4.48831">
        <ele>344.2</ele>
        <time>2022-06-26T08:21:44Z</time>
      </trkpt>
      <trkpt lat="45.91825" lon="4.48824">
        <ele>344.2</ele>
        <time>2022-06-26T08:21:45Z</time>
      </trkpt>
      <trkpt lat="45.91827" lon="4.48817">
        <ele>344.4</ele>
        <time>2022-06-26T08:21:46Z</time>
      </trkpt>
      <trkpt lat="45.91828" lon="4.4881">
        <ele>344.6</ele>
        <time>2022-06-26T08:21:47Z</time>
      </trkpt>
      <trkpt lat="45.9183" lon="4.48803">
        <ele>344.6</ele>
        <time>2022-06-26T08:21:48Z</time>
      </trkpt>
      <trkpt lat="45.91832" lon="4.48796">
        <ele>345</ele>
        <time>2022-06-26T08:21:49Z</time>
      </trkpt>
      <trkpt lat="45.91834" lon="4.48789">
        <ele>345.4</ele>
        <time>2022-06-26T08:21:50Z</time>
      </trkpt>
      <trkpt lat="45.91835" lon="4.48782">
        <ele>345.4</ele>
        <time>2022-06-26T08:21:51Z</time>
      </trkpt>
      <trkpt lat="45.91837" lon="4.48775">
        <ele>345.6</ele>
        <time>2022-06-26T08:21:52Z</time>
      </trkpt>
      <trkpt lat="45.91839" lon="4.48768">
        <ele>345.6</ele>
        <time>2022-06-26T08:21:53Z</time>
      </trkpt>
      <trkpt lat="45.9184" lon="4.48761">
        <ele>345.6</ele>
        <time>2022-06-26T08:21:54Z</time>
      </trkpt>
      <trkpt lat="45.91842" lon="4.48754">
        <ele>346</ele>
        <time>2022-06-26T08:21:55Z</time>
      </trkpt>
      <trkpt lat="45.91844" lon="4.48747">
        <ele>346</ele>
        <time>2022-06-26T08:21:56Z</time>
      </trkpt>
      <trkpt lat="45.91846" lon="4.4874">
        <ele>346</ele>
        <time>2022-06-26T08:21:57Z</time>
      </trkpt>
      <trkpt lat="45.91847" lon="4.48733">
        <ele>346.2</ele>
        <time>2022-06-26T08:21:58Z</time>
      </trkpt>
      <trkpt lat="45.91849" lon="4.48726">
        <ele>346.2</ele>
        <time>2022-06-26T08:21:59Z</time>
      </trkpt>
      <trkpt lat="45.91851" lon="4.48719">
        <ele>346.2</ele>
        <time>2022-06-26T08:22:00Z</time>
      </trkpt>
      <trkpt lat="45.91853" lon="4.48712">
        <ele>346.4</ele>
        <time>2022-06-26T08:22:01Z</time>
      </trkpt>
      <trkpt lat="45.91854" lon="4.48705">
        <ele>346.4</ele>
        <time>2022-06-26T08:22:02Z</time>
      </trkpt>
      <trkpt lat="45.91856" lon="4.48697">
        <ele>346.6</ele>
        <time>2022-06-26T08:22:03Z</time>
      </trkpt>
      <trkpt lat="45.91859" lon="4.4869">
        <ele>346.6</ele>
        <time>2022-06-26T08:22:04Z</time>
      </trkpt>
      <trkpt lat="45.91861" lon="4.48684">
        <ele>346.6</ele>
        <time>2022-06-26T08:22:05Z</time>
      </trkpt>
      <trkpt lat="45.91863" lon="4.48677">
        <ele>346.6</ele>
        <time>2022-06-26T08:22:06Z</time>
      </trkpt>
      <trkpt lat="45.91866" lon="4.4867">
        <ele>346.6</ele>
        <time>2022-06-26T08:22:07Z</time>
      </trkpt>
      <trkpt lat="45.91869" lon="4.48663">
        <ele>346.6</ele>
        <time>2022-06-26T08:22:08Z</time>
      </trkpt>
      <trkpt lat="45.91872" lon="4.48656">
        <ele>346.8</ele>
        <time>2022-06-26T08:22:09Z</time>
      </trkpt>
      <trkpt lat="45.91875" lon="4.4865">
        <ele>346.8</ele>
        <time>2022-06-26T08:22:10Z</time>
      </trkpt>
      <trkpt lat="45.91878" lon="4.48643">
        <ele>346.8</ele>
        <time>2022-06-26T08:22:11Z</time>
      </trkpt>
      <trkpt lat="45.91881" lon="4.48637">
        <ele>346.8</ele>
        <time>2022-06-26T08:22:12Z</time>
      </trkpt>
      <trkpt lat="45.91885" lon="4.48631">
        <ele>346.8</ele>
        <time>2022-06-26T08:22:13Z</time>
      </trkpt>
      <trkpt lat="45.91888" lon="4.48626">
        <ele>346.8</ele>
        <time>2022-06-26T08:22:14Z</time>
      </trkpt>
      <trkpt lat="45.91892" lon="4.4862">
        <ele>347.2</ele>
        <time>2022-06-26T08:22:15Z</time>
      </trkpt>
      <trkpt lat="45.91896" lon="4.48615">
        <ele>347.2</ele>
        <time>2022-06-26T08:22:16Z</time>
      </trkpt>
      <trkpt lat="45.919" lon="4.48609">
        <ele>347.2</ele>
        <time>2022-06-26T08:22:17Z</time>
      </trkpt>
      <trkpt lat="45.91903" lon="4.48604">
        <ele>347.2</ele>
        <time>2022-06-26T08:22:18Z</time>
      </trkpt>
      <trkpt lat="45.91907" lon="4.48599">
        <ele>347.2</ele>
        <time>2022-06-26T08:22:19Z</time>
      </trkpt>
      <trkpt lat="45.91911" lon="4.48593">
        <ele>347.2</ele>
        <time>2022-06-26T08:22:20Z</time>
      </trkpt>
      <trkpt lat="45.91915" lon="4.48588">
        <ele>347.2</ele>
        <time>2022-06-26T08:22:21Z</time>
      </trkpt>
      <trkpt lat="45.91919" lon="4.48582">
        <ele>347.4</ele>
        <time>2022-06-26T08:22:22Z</time>
      </trkpt>
      <trkpt lat="45.91922" lon="4.48577">
        <ele>347.4</ele>
        <time>2022-06-26T08:22:23Z</time>
      </trkpt>
      <trkpt lat="45.91926" lon="4.48571">
        <ele>347.6</ele>
        <time>2022-06-26T08:22:24Z</time>
      </trkpt>
      <trkpt lat="45.9193" lon="4.48566">
        <ele>347.6</ele>
        <time>2022-06-26T08:22:25Z</time>
      </trkpt>
      <trkpt lat="45.91933" lon="4.4856">
        <ele>347.6</ele>
        <time>2022-06-26T08:22:26Z</time>
      </trkpt>
      <trkpt lat="45.91937" lon="4.48554">
        <ele>347.6</ele>
        <time>2022-06-26T08:22:27Z</time>
      </trkpt>
      <trkpt lat="45.91941" lon="4.48548">
        <ele>347.6</ele>
        <time>2022-06-26T08:22:28Z</time>
      </trkpt>
      <trkpt lat="45.91944" lon="4.48542">
        <ele>347.6</ele>
        <time>2022-06-26T08:22:29Z</time>
      </trkpt>
      <trkpt lat="45.91948" lon="4.48536">
        <ele>347.6</ele>
        <time>2022-06-26T08:22:30Z</time>
      </trkpt>
      <trkpt lat="45.91951" lon="4.4853">
        <ele>347.6</ele>
        <time>2022-06-26T08:22:31Z</time>
      </trkpt>
      <trkpt lat="45.91955" lon="4.48524">
        <ele>347.6</ele>
        <time>2022-06-26T08:22:32Z</time>
      </trkpt>
      <trkpt lat="45.91958" lon="4.48518">
        <ele>347.6</ele>
        <time>2022-06-26T08:22:33Z</time>
      </trkpt>
      <trkpt lat="45.91961" lon="4.48512">
        <ele>347.8</ele>
        <time>2022-06-26T08:22:34Z</time>
      </trkpt>
      <trkpt lat="45.91964" lon="4.48506">
        <ele>347.8</ele>
        <time>2022-06-26T08:22:35Z</time>
      </trkpt>
      <trkpt lat="45.91968" lon="4.485">
        <ele>347.8</ele>
        <time>2022-06-26T08:22:36Z</time>
      </trkpt>
      <trkpt lat="45.91971" lon="4.48493">
        <ele>347.8</ele>
        <time>2022-06-26T08:22:37Z</time>
      </trkpt>
      <trkpt lat="45.91974" lon="4.48487">
        <ele>347.8</ele>
        <time>2022-06-26T08:22:38Z</time>
      </trkpt>
      <trkpt lat="45.91978" lon="4.4848">
        <ele>348.2</ele>
        <time>2022-06-26T08:22:39Z</time>
      </trkpt>
      <trkpt lat="45.91981" lon="4.48474">
        <ele>348.2</ele>
        <time>2022-06-26T08:22:40Z</time>
      </trkpt>
      <trkpt lat="45.91985" lon="4.48468">
        <ele>348.2</ele>
        <time>2022-06-26T08:22:41Z</time>
      </trkpt>
      <trkpt lat="45.91988" lon="4.48461">
        <ele>348.2</ele>
        <time>2022-06-26T08:22:42Z</time>
      </trkpt>
      <trkpt lat="45.91992" lon="4.48455">
        <ele>348.2</ele>
        <time>2022-06-26T08:22:43Z</time>
      </trkpt>
      <trkpt lat="45.91995" lon="4.48449">
        <ele>348.2</ele>
        <time>2022-06-26T08:22:44Z</time>
      </trkpt>
      <trkpt lat="45.91998" lon="4.48442">
        <ele>348.2</ele>
        <time>2022-06-26T08:22:45Z</time>
      </trkpt>
      <trkpt lat="45.92002" lon="4.48436">
        <ele>348.4</ele>
        <time>2022-06-26T08:22:46Z</time>
      </trkpt>
      <trkpt lat="45.92005" lon="4.4843">
        <ele>348.4</ele>
        <time>2022-06-26T08:22:47Z</time>
      </trkpt>
      <trkpt lat="45.92008" lon="4.48423">
        <ele>348.4</ele>
        <time>2022-06-26T08:22:48Z</time>
      </trkpt>
      <trkpt lat="45.92011" lon="4.48417">
        <ele>348.4</ele>
        <time>2022-06-26T08:22:49Z</time>
      </trkpt>
      <trkpt lat="45.92015" lon="4.4841">
        <ele>348.4</ele>
        <time>2022-06-26T08:22:50Z</time>
      </trkpt>
      <trkpt lat="45.92018" lon="4.48404">
        <ele>348.4</ele>
        <time>2022-06-26T08:22:51Z</time>
      </trkpt>
      <trkpt lat="45.92021" lon="4.48398">
        <ele>348.4</ele>
        <time>2022-06-26T08:22:52Z</time>
      </trkpt>
      <trkpt lat="45.92025" lon="4.48391">
        <ele>348.6</ele>
        <time>2022-06-26T08:22:53Z</time>
      </trkpt>
      <trkpt lat="45.92028" lon="4.48385">
        <ele>348.6</ele>
        <time>2022-06-26T08:22:54Z</time>
      </trkpt>
      <trkpt lat="45.92031" lon="4.48379">
        <ele>348.6</ele>
        <time>2022-06-26T08:22:55Z</time>
      </trkpt>
      <trkpt lat="45.92035" lon="4.48373">
        <ele>348.6</ele>
        <time>2022-06-26T08:22:56Z</time>
      </trkpt>
      <trkpt lat="45.92038" lon="4.48367">
        <ele>348.6</ele>
        <time>2022-06-26T08:22:57Z</time>
      </trkpt>
      <trkpt lat="45.92041" lon="4.48361">
        <ele>348.6</ele>
        <time>2022-06-26T08:22:58Z</time>
      </trkpt>
      <trkpt lat="45.92044" lon="4.48355">
        <ele>348.6</ele>
        <time>2022-06-26T08:22:59Z</time>
      </trkpt>
      <trkpt lat="45.92048" lon="4.48349">
        <ele>348.6</ele>
        <time>2022-06-26T08:23:00Z</time>
      </trkpt>
      <trkpt lat="45.92051" lon="4.48342">
        <ele>348.6</ele>
        <time>2022-06-26T08:23:01Z</time>
      </trkpt>
      <trkpt lat="45.92054" lon="4.48336">
        <ele>348.6</ele>
        <time>2022-06-26T08:23:02Z</time>
      </trkpt>
      <trkpt lat="45.92057" lon="4.4833">
        <ele>348.8</ele>
        <time>2022-06-26T08:23:03Z</time>
      </trkpt>
      <trkpt lat="45.92061" lon="4.48324">
        <ele>348.8</ele>
        <time>2022-06-26T08:23:04Z</time>
      </trkpt>
      <trkpt lat="45.92064" lon="4.48318">
        <ele>348.8</ele>
        <time>2022-06-26T08:23:05Z</time>
      </trkpt>
      <trkpt lat="45.92067" lon="4.48312">
        <ele>348.8</ele>
        <time>2022-06-26T08:23:06Z</time>
      </trkpt>
      <trkpt lat="45.9207" lon="4.48306">
        <ele>349.2</ele>
        <time>2022-06-26T08:23:07Z</time>
      </trkpt>
      <trkpt lat="45.92074" lon="4.483">
        <ele>349.2</ele>
        <time>2022-06-26T08:23:08Z</time>
      </trkpt>
      <trkpt lat="45.92077" lon="4.48293">
        <ele>349.2</ele>
        <time>2022-06-26T08:23:09Z</time>
      </trkpt>
      <trkpt lat="45.9208" lon="4.48287">
        <ele>349.2</ele>
        <time>2022-06-26T08:23:10Z</time>
      </trkpt>
      <trkpt lat="45.92084" lon="4.48281">
        <ele>349.4</ele>
        <time>2022-06-26T08:23:11Z</time>
      </trkpt>
      <trkpt lat="45.92087" lon="4.48274">
        <ele>349.4</ele>
        <time>2022-06-26T08:23:12Z</time>
      </trkpt>
      <trkpt lat="45.9209" lon="4.48268">
        <ele>349.4</ele>
        <time>2022-06-26T08:23:13Z</time>
      </trkpt>
      <trkpt lat="45.92094" lon="4.48262">
        <ele>349.4</ele>
        <time>2022-06-26T08:23:14Z</time>
      </trkpt>
      <trkpt lat="45.92097" lon="4.48256">
        <ele>349.4</ele>
        <time>2022-06-26T08:23:15Z</time>
      </trkpt>
      <trkpt lat="45.92101" lon="4.48249">
        <ele>349.6</ele>
        <time>2022-06-26T08:23:16Z</time>
      </trkpt>
      <trkpt lat="45.92104" lon="4.48243">
        <ele>349.6</ele>
        <time>2022-06-26T08:23:17Z</time>
      </trkpt>
      <trkpt lat="45.92107" lon="4.48237">
        <ele>349.6</ele>
        <time>2022-06-26T08:23:18Z</time>
      </trkpt>
      <trkpt lat="45.92111" lon="4.4823">
        <ele>349.6</ele>
        <time>2022-06-26T08:23:19Z</time>
      </trkpt>
      <trkpt lat="45.92114" lon="4.48224">
        <ele>349.8</ele>
        <time>2022-06-26T08:23:20Z</time>
      </trkpt>
      <trkpt lat="45.92117" lon="4.48217">
        <ele>349.8</ele>
        <time>2022-06-26T08:23:21Z</time>
      </trkpt>
      <trkpt lat="45.92121" lon="4.48211">
        <ele>349.8</ele>
        <time>2022-06-26T08:23:22Z</time>
      </trkpt>
      <trkpt lat="45.92124" lon="4.48205">
        <ele>349.8</ele>
        <time>2022-06-26T08:23:23Z</time>
      </trkpt>
      <trkpt lat="45.92128" lon="4.48199">
        <ele>349.8</ele>
        <time>2022-06-26T08:23:24Z</time>
      </trkpt>
      <trkpt lat="45.92131" lon="4.48192">
        <ele>349.8</ele>
        <time>2022-06-26T08:23:25Z</time>
      </trkpt>
      <trkpt lat="45.92134" lon="4.48185">
        <ele>349.8</ele>
        <time>2022-06-26T08:23:26Z</time>
      </trkpt>
      <trkpt lat="45.92138" lon="4.48179">
        <ele>350</ele>
        <time>2022-06-26T08:23:27Z</time>
      </trkpt>
      <trkpt lat="45.92141" lon="4.48172">
        <ele>350</ele>
        <time>2022-06-26T08:23:28Z</time>
      </trkpt>
      <trkpt lat="45.92145" lon="4.48166">
        <ele>350</ele>
        <time>2022-06-26T08:23:29Z</time>
      </trkpt>
      <trkpt lat="45.92148" lon="4.48159">
        <ele>350</ele>
        <time>2022-06-26T08:23:30Z</time>
      </trkpt>
      <trkpt lat="45.92152" lon="4.48153">
        <ele>350.4</ele>
        <time>2022-06-26T08:23:31Z</time>
      </trkpt>
      <trkpt lat="45.92155" lon="4.48146">
        <ele>350.4</ele>
        <time>2022-06-26T08:23:32Z</time>
      </trkpt>
      <trkpt lat="45.92159" lon="4.4814">
        <ele>350.4</ele>
        <time>2022-06-26T08:23:33Z</time>
      </trkpt>
      <trkpt lat="45.92162" lon="4.48133">
        <ele>350.4</ele>
        <time>2022-06-26T08:23:34Z</time>
      </trkpt>
      <trkpt lat="45.92166" lon="4.48127">
        <ele>350.6</ele>
        <time>2022-06-26T08:23:35Z</time>
      </trkpt>
      <trkpt lat="45.92169" lon="4.4812">
        <ele>350.6</ele>
        <time>2022-06-26T08:23:36Z</time>
      </trkpt>
      <trkpt lat="45.92173" lon="4.48114">
        <ele>350.6</ele>
        <time>2022-06-26T08:23:37Z</time>
      </trkpt>
      <trkpt lat="45.92176" lon="4.48107">
        <ele>350.8</ele>
        <time>2022-06-26T08:23:38Z</time>
      </trkpt>
      <trkpt lat="45.9218" lon="4.48101">
        <ele>350.8</ele>
        <time>2022-06-26T08:23:39Z</time>
      </trkpt>
      <trkpt lat="45.92183" lon="4.48094">
        <ele>350.8</ele>
        <time>2022-06-26T08:23:40Z</time>
      </trkpt>
      <trkpt lat="45.92187" lon="4.48088">
        <ele>350.8</ele>
        <time>2022-06-26T08:23:41Z</time>
      </trkpt>
      <trkpt lat="45.92191" lon="4.48081">
        <ele>350.8</ele>
        <time>2022-06-26T08:23:42Z</time>
      </trkpt>
      <trkpt lat="45.92194" lon="4.48075">
        <ele>350.8</ele>
        <time>2022-06-26T08:23:44Z</time>
      </trkpt>
      <trkpt lat="45.92197" lon="4.48068">
        <ele>351</ele>
        <time>2022-06-26T08:23:45Z</time>
      </trkpt>
      <trkpt lat="45.92201" lon="4.48061">
        <ele>351</ele>
        <time>2022-06-26T08:23:46Z</time>
      </trkpt>
      <trkpt lat="45.92204" lon="4.48055">
        <ele>351</ele>
        <time>2022-06-26T08:23:47Z</time>
      </trkpt>
      <trkpt lat="45.92208" lon="4.48048">
        <ele>351</ele>
        <time>2022-06-26T08:23:48Z</time>
      </trkpt>
      <trkpt lat="45.92211" lon="4.48041">
        <ele>351.2</ele>
        <time>2022-06-26T08:23:49Z</time>
      </trkpt>
      <trkpt lat="45.92218" lon="4.48028">
        <ele>351.2</ele>
        <time>2022-06-26T08:23:50Z</time>
      </trkpt>
      <trkpt lat="45.92221" lon="4.48022">
        <ele>351.6</ele>
        <time>2022-06-26T08:23:51Z</time>
      </trkpt>
      <trkpt lat="45.92225" lon="4.48015">
        <ele>351.6</ele>
        <time>2022-06-26T08:23:52Z</time>
      </trkpt>
      <trkpt lat="45.92229" lon="4.48009">
        <ele>351.6</ele>
        <time>2022-06-26T08:23:53Z</time>
      </trkpt>
      <trkpt lat="45.92232" lon="4.48002">
        <ele>351.8</ele>
        <time>2022-06-26T08:23:54Z</time>
      </trkpt>
      <trkpt lat="45.92236" lon="4.47996">
        <ele>351.8</ele>
        <time>2022-06-26T08:23:55Z</time>
      </trkpt>
      <trkpt lat="45.92239" lon="4.47989">
        <ele>352</ele>
        <time>2022-06-26T08:23:56Z</time>
      </trkpt>
      <trkpt lat="45.92242" lon="4.47983">
        <ele>352</ele>
        <time>2022-06-26T08:23:57Z</time>
      </trkpt>
      <trkpt lat="45.92246" lon="4.47976">
        <ele>352</ele>
        <time>2022-06-26T08:23:58Z</time>
      </trkpt>
      <trkpt lat="45.92249" lon="4.47969">
        <ele>352</ele>
        <time>2022-06-26T08:23:59Z</time>
      </trkpt>
      <trkpt lat="45.92252" lon="4.47962">
        <ele>352</ele>
        <time>2022-06-26T08:24:00Z</time>
      </trkpt>
      <trkpt lat="45.92255" lon="4.47955">
        <ele>352.2</ele>
        <time>2022-06-26T08:24:01Z</time>
      </trkpt>
      <trkpt lat="45.92258" lon="4.47948">
        <ele>352.2</ele>
        <time>2022-06-26T08:24:02Z</time>
      </trkpt>
      <trkpt lat="45.9226" lon="4.47942">
        <ele>352.2</ele>
        <time>2022-06-26T08:24:03Z</time>
      </trkpt>
      <trkpt lat="45.92263" lon="4.47935">
        <ele>352.4</ele>
        <time>2022-06-26T08:24:04Z</time>
      </trkpt>
      <trkpt lat="45.92266" lon="4.47927">
        <ele>352.4</ele>
        <time>2022-06-26T08:24:05Z</time>
      </trkpt>
      <trkpt lat="45.92268" lon="4.4792">
        <ele>352.4</ele>
        <time>2022-06-26T08:24:06Z</time>
      </trkpt>
      <trkpt lat="45.92271" lon="4.47913">
        <ele>352.4</ele>
        <time>2022-06-26T08:24:07Z</time>
      </trkpt>
      <trkpt lat="45.92273" lon="4.47905">
        <ele>352.4</ele>
        <time>2022-06-26T08:24:08Z</time>
      </trkpt>
      <trkpt lat="45.92275" lon="4.47898">
        <ele>352.6</ele>
        <time>2022-06-26T08:24:09Z</time>
      </trkpt>
      <trkpt lat="45.92276" lon="4.4789">
        <ele>352.6</ele>
        <time>2022-06-26T08:24:10Z</time>
      </trkpt>
      <trkpt lat="45.92278" lon="4.47883">
        <ele>352.6</ele>
        <time>2022-06-26T08:24:11Z</time>
      </trkpt>
      <trkpt lat="45.9228" lon="4.47875">
        <ele>352.6</ele>
        <time>2022-06-26T08:24:12Z</time>
      </trkpt>
      <trkpt lat="45.92281" lon="4.47868">
        <ele>352.6</ele>
        <time>2022-06-26T08:24:13Z</time>
      </trkpt>
      <trkpt lat="45.92282" lon="4.4786">
        <ele>352.6</ele>
        <time>2022-06-26T08:24:14Z</time>
      </trkpt>
      <trkpt lat="45.92284" lon="4.47852">
        <ele>352.6</ele>
        <time>2022-06-26T08:24:15Z</time>
      </trkpt>
      <trkpt lat="45.92285" lon="4.47844">
        <ele>353</ele>
        <time>2022-06-26T08:24:16Z</time>
      </trkpt>
      <trkpt lat="45.92285" lon="4.47836">
        <ele>353</ele>
        <time>2022-06-26T08:24:17Z</time>
      </trkpt>
      <trkpt lat="45.92286" lon="4.47828">
        <ele>353</ele>
        <time>2022-06-26T08:24:18Z</time>
      </trkpt>
      <trkpt lat="45.92287" lon="4.47819">
        <ele>353.2</ele>
        <time>2022-06-26T08:24:19Z</time>
      </trkpt>
      <trkpt lat="45.92288" lon="4.47811">
        <ele>353.2</ele>
        <time>2022-06-26T08:24:20Z</time>
      </trkpt>
      <trkpt lat="45.92288" lon="4.47803">
        <ele>353.2</ele>
        <time>2022-06-26T08:24:21Z</time>
      </trkpt>
      <trkpt lat="45.92288" lon="4.47794">
        <ele>353.2</ele>
        <time>2022-06-26T08:24:22Z</time>
      </trkpt>
      <trkpt lat="45.92288" lon="4.47786">
        <ele>353.2</ele>
        <time>2022-06-26T08:24:23Z</time>
      </trkpt>
      <trkpt lat="45.92288" lon="4.47778">
        <ele>353.2</ele>
        <time>2022-06-26T08:24:24Z</time>
      </trkpt>
      <trkpt lat="45.92288" lon="4.4777">
        <ele>353.2</ele>
        <time>2022-06-26T08:24:25Z</time>
      </trkpt>
      <trkpt lat="45.92288" lon="4.47761">
        <ele>353.2</ele>
        <time>2022-06-26T08:24:26Z</time>
      </trkpt>
      <trkpt lat="45.92288" lon="4.47753">
        <ele>353.2</ele>
        <time>2022-06-26T08:24:27Z</time>
      </trkpt>
      <trkpt lat="45.92287" lon="4.47745">
        <ele>353.4</ele>
        <time>2022-06-26T08:24:28Z</time>
      </trkpt>
      <trkpt lat="45.92287" lon="4.47737">
        <ele>353.4</ele>
        <time>2022-06-26T08:24:29Z</time>
      </trkpt>
      <trkpt lat="45.92286" lon="4.47729">
        <ele>353.4</ele>
        <time>2022-06-26T08:24:30Z</time>
      </trkpt>
      <trkpt lat="45.92285" lon="4.4772">
        <ele>353.4</ele>
        <time>2022-06-26T08:24:31Z</time>
      </trkpt>
      <trkpt lat="45.92284" lon="4.47712">
        <ele>353.4</ele>
        <time>2022-06-26T08:24:32Z</time>
      </trkpt>
      <trkpt lat="45.92283" lon="4.47705">
        <ele>353.4</ele>
        <time>2022-06-26T08:24:33Z</time>
      </trkpt>
      <trkpt lat="45.92281" lon="4.47697">
        <ele>353.6</ele>
        <time>2022-06-26T08:24:34Z</time>
      </trkpt>
      <trkpt lat="45.92279" lon="4.47689">
        <ele>353.6</ele>
        <time>2022-06-26T08:24:35Z</time>
      </trkpt>
      <trkpt lat="45.92278" lon="4.47682">
        <ele>353.6</ele>
        <time>2022-06-26T08:24:36Z</time>
      </trkpt>
      <trkpt lat="45.92276" lon="4.47674">
        <ele>353.6</ele>
        <time>2022-06-26T08:24:37Z</time>
      </trkpt>
      <trkpt lat="45.92274" lon="4.47666">
        <ele>353.6</ele>
        <time>2022-06-26T08:24:38Z</time>
      </trkpt>
      <trkpt lat="45.92272" lon="4.47659">
        <ele>354</ele>
        <time>2022-06-26T08:24:39Z</time>
      </trkpt>
      <trkpt lat="45.92269" lon="4.47651">
        <ele>354</ele>
        <time>2022-06-26T08:24:40Z</time>
      </trkpt>
      <trkpt lat="45.92267" lon="4.47644">
        <ele>354</ele>
        <time>2022-06-26T08:24:41Z</time>
      </trkpt>
      <trkpt lat="45.92264" lon="4.47636">
        <ele>354</ele>
        <time>2022-06-26T08:24:42Z</time>
      </trkpt>
      <trkpt lat="45.92261" lon="4.47629">
        <ele>354</ele>
        <time>2022-06-26T08:24:43Z</time>
      </trkpt>
      <trkpt lat="45.92258" lon="4.47622">
        <ele>354</ele>
        <time>2022-06-26T08:24:44Z</time>
      </trkpt>
      <trkpt lat="45.92255" lon="4.47615">
        <ele>354</ele>
        <time>2022-06-26T08:24:45Z</time>
      </trkpt>
      <trkpt lat="45.92252" lon="4.47607">
        <ele>354</ele>
        <time>2022-06-26T08:24:46Z</time>
      </trkpt>
      <trkpt lat="45.92249" lon="4.476">
        <ele>354</ele>
        <time>2022-06-26T08:24:47Z</time>
      </trkpt>
      <trkpt lat="45.92246" lon="4.47593">
        <ele>354</ele>
        <time>2022-06-26T08:24:48Z</time>
      </trkpt>
      <trkpt lat="45.92243" lon="4.47586">
        <ele>354.2</ele>
        <time>2022-06-26T08:24:49Z</time>
      </trkpt>
      <trkpt lat="45.9224" lon="4.47578">
        <ele>354.2</ele>
        <time>2022-06-26T08:24:50Z</time>
      </trkpt>
      <trkpt lat="45.92237" lon="4.47571">
        <ele>354.2</ele>
        <time>2022-06-26T08:24:51Z</time>
      </trkpt>
      <trkpt lat="45.92234" lon="4.47563">
        <ele>354.2</ele>
        <time>2022-06-26T08:24:52Z</time>
      </trkpt>
      <trkpt lat="45.92231" lon="4.47556">
        <ele>354.2</ele>
        <time>2022-06-26T08:24:53Z</time>
      </trkpt>
      <trkpt lat="45.92229" lon="4.47549">
        <ele>354.2</ele>
        <time>2022-06-26T08:24:54Z</time>
      </trkpt>
      <trkpt lat="45.92226" lon="4.47542">
        <ele>354.4</ele>
        <time>2022-06-26T08:24:55Z</time>
      </trkpt>
      <trkpt lat="45.92223" lon="4.47534">
        <ele>354.4</ele>
        <time>2022-06-26T08:24:56Z</time>
      </trkpt>
      <trkpt lat="45.92221" lon="4.47527">
        <ele>354.4</ele>
        <time>2022-06-26T08:24:57Z</time>
      </trkpt>
      <trkpt lat="45.92218" lon="4.4752">
        <ele>354.6</ele>
        <time>2022-06-26T08:24:58Z</time>
      </trkpt>
      <trkpt lat="45.92215" lon="4.47513">
        <ele>354.6</ele>
        <time>2022-06-26T08:24:59Z</time>
      </trkpt>
      <trkpt lat="45.92213" lon="4.47505">
        <ele>354.6</ele>
        <time>2022-06-26T08:25:00Z</time>
      </trkpt>
      <trkpt lat="45.9221" lon="4.47498">
        <ele>354.8</ele>
        <time>2022-06-26T08:25:01Z</time>
      </trkpt>
      <trkpt lat="45.92208" lon="4.47491">
        <ele>354.8</ele>
        <time>2022-06-26T08:25:02Z</time>
      </trkpt>
      <trkpt lat="45.92205" lon="4.47484">
        <ele>355</ele>
        <time>2022-06-26T08:25:03Z</time>
      </trkpt>
      <trkpt lat="45.92203" lon="4.47477">
        <ele>355</ele>
        <time>2022-06-26T08:25:04Z</time>
      </trkpt>
      <trkpt lat="45.922" lon="4.4747">
        <ele>355</ele>
        <time>2022-06-26T08:25:05Z</time>
      </trkpt>
      <trkpt lat="45.92198" lon="4.47462">
        <ele>355.4</ele>
        <time>2022-06-26T08:25:06Z</time>
      </trkpt>
      <trkpt lat="45.92196" lon="4.47455">
        <ele>355.4</ele>
        <time>2022-06-26T08:25:07Z</time>
      </trkpt>
      <trkpt lat="45.92194" lon="4.47448">
        <ele>355.4</ele>
        <time>2022-06-26T08:25:08Z</time>
      </trkpt>
      <trkpt lat="45.92192" lon="4.4744">
        <ele>355.4</ele>
        <time>2022-06-26T08:25:09Z</time>
      </trkpt>
      <trkpt lat="45.92189" lon="4.47433">
        <ele>355.6</ele>
        <time>2022-06-26T08:25:10Z</time>
      </trkpt>
      <trkpt lat="45.92188" lon="4.47425">
        <ele>355.6</ele>
        <time>2022-06-26T08:25:11Z</time>
      </trkpt>
      <trkpt lat="45.92186" lon="4.47418">
        <ele>355.8</ele>
        <time>2022-06-26T08:25:12Z</time>
      </trkpt>
      <trkpt lat="45.92184" lon="4.4741">
        <ele>355.8</ele>
        <time>2022-06-26T08:25:13Z</time>
      </trkpt>
      <trkpt lat="45.92183" lon="4.47402">
        <ele>356</ele>
        <time>2022-06-26T08:25:14Z</time>
      </trkpt>
      <trkpt lat="45.92181" lon="4.47395">
        <ele>356</ele>
        <time>2022-06-26T08:25:15Z</time>
      </trkpt>
      <trkpt lat="45.9218" lon="4.47387">
        <ele>356</ele>
        <time>2022-06-26T08:25:16Z</time>
      </trkpt>
      <trkpt lat="45.92179" lon="4.47379">
        <ele>356.4</ele>
        <time>2022-06-26T08:25:18Z</time>
      </trkpt>
      <trkpt lat="45.92177" lon="4.47372">
        <ele>356.4</ele>
        <time>2022-06-26T08:25:19Z</time>
      </trkpt>
      <trkpt lat="45.92176" lon="4.47364">
        <ele>356.6</ele>
        <time>2022-06-26T08:25:20Z</time>
      </trkpt>
      <trkpt lat="45.92175" lon="4.47356">
        <ele>356.6</ele>
        <time>2022-06-26T08:25:21Z</time>
      </trkpt>
      <trkpt lat="45.92174" lon="4.47348">
        <ele>357</ele>
        <time>2022-06-26T08:25:22Z</time>
      </trkpt>
      <trkpt lat="45.92173" lon="4.4734">
        <ele>357</ele>
        <time>2022-06-26T08:25:23Z</time>
      </trkpt>
      <trkpt lat="45.92172" lon="4.47332">
        <ele>357.2</ele>
        <time>2022-06-26T08:25:24Z</time>
      </trkpt>
      <trkpt lat="45.92171" lon="4.47324">
        <ele>357.2</ele>
        <time>2022-06-26T08:25:25Z</time>
      </trkpt>
      <trkpt lat="45.9217" lon="4.47316">
        <ele>357.4</ele>
        <time>2022-06-26T08:25:26Z</time>
      </trkpt>
      <trkpt lat="45.9217" lon="4.47308">
        <ele>357.6</ele>
        <time>2022-06-26T08:25:27Z</time>
      </trkpt>
      <trkpt lat="45.92169" lon="4.47301">
        <ele>357.6</ele>
        <time>2022-06-26T08:25:28Z</time>
      </trkpt>
      <trkpt lat="45.92169" lon="4.47293">
        <ele>357.6</ele>
        <time>2022-06-26T08:25:29Z</time>
      </trkpt>
      <trkpt lat="45.92169" lon="4.47285">
        <ele>358</ele>
        <time>2022-06-26T08:25:30Z</time>
      </trkpt>
      <trkpt lat="45.92169" lon="4.47277">
        <ele>358</ele>
        <time>2022-06-26T08:25:31Z</time>
      </trkpt>
      <trkpt lat="45.92169" lon="4.47269">
        <ele>358</ele>
        <time>2022-06-26T08:25:32Z</time>
      </trkpt>
      <trkpt lat="45.92169" lon="4.47261">
        <ele>358.2</ele>
        <time>2022-06-26T08:25:33Z</time>
      </trkpt>
      <trkpt lat="45.92169" lon="4.47253">
        <ele>358.2</ele>
        <time>2022-06-26T08:25:34Z</time>
      </trkpt>
      <trkpt lat="45.92169" lon="4.47246">
        <ele>358.6</ele>
        <time>2022-06-26T08:25:35Z</time>
      </trkpt>
      <trkpt lat="45.92169" lon="4.47238">
        <ele>358.6</ele>
        <time>2022-06-26T08:25:36Z</time>
      </trkpt>
      <trkpt lat="45.92169" lon="4.47231">
        <ele>358.8</ele>
        <time>2022-06-26T08:25:37Z</time>
      </trkpt>
      <trkpt lat="45.9217" lon="4.47223">
        <ele>358.8</ele>
        <time>2022-06-26T08:25:38Z</time>
      </trkpt>
      <trkpt lat="45.92171" lon="4.47216">
        <ele>359</ele>
        <time>2022-06-26T08:25:39Z</time>
      </trkpt>
      <trkpt lat="45.92171" lon="4.47209">
        <ele>359</ele>
        <time>2022-06-26T08:25:40Z</time>
      </trkpt>
      <trkpt lat="45.92172" lon="4.47202">
        <ele>359.4</ele>
        <time>2022-06-26T08:25:41Z</time>
      </trkpt>
      <trkpt lat="45.92172" lon="4.47194">
        <ele>359.4</ele>
        <time>2022-06-26T08:25:42Z</time>
      </trkpt>
      <trkpt lat="45.92173" lon="4.47187">
        <ele>359.4</ele>
        <time>2022-06-26T08:25:43Z</time>
      </trkpt>
      <trkpt lat="45.92175" lon="4.47179">
        <ele>359.6</ele>
        <time>2022-06-26T08:25:44Z</time>
      </trkpt>
      <trkpt lat="45.92176" lon="4.47171">
        <ele>359.6</ele>
        <time>2022-06-26T08:25:45Z</time>
      </trkpt>
      <trkpt lat="45.92177" lon="4.47163">
        <ele>359.6</ele>
        <time>2022-06-26T08:25:46Z</time>
      </trkpt>
      <trkpt lat="45.92177" lon="4.47155">
        <ele>360</ele>
        <time>2022-06-26T08:25:47Z</time>
      </trkpt>
      <trkpt lat="45.92178" lon="4.47148">
        <ele>360</ele>
        <time>2022-06-26T08:25:48Z</time>
      </trkpt>
      <trkpt lat="45.92179" lon="4.4714">
        <ele>360.2</ele>
        <time>2022-06-26T08:25:49Z</time>
      </trkpt>
      <trkpt lat="45.92181" lon="4.47132">
        <ele>360.2</ele>
        <time>2022-06-26T08:25:50Z</time>
      </trkpt>
      <trkpt lat="45.92182" lon="4.47125">
        <ele>360.4</ele>
        <time>2022-06-26T08:25:51Z</time>
      </trkpt>
      <trkpt lat="45.92183" lon="4.47117">
        <ele>360.6</ele>
        <time>2022-06-26T08:25:52Z</time>
      </trkpt>
      <trkpt lat="45.92184" lon="4.4711">
        <ele>360.6</ele>
        <time>2022-06-26T08:25:53Z</time>
      </trkpt>
      <trkpt lat="45.92185" lon="4.47102">
        <ele>361</ele>
        <time>2022-06-26T08:25:54Z</time>
      </trkpt>
      <trkpt lat="45.92186" lon="4.47095">
        <ele>361</ele>
        <time>2022-06-26T08:25:55Z</time>
      </trkpt>
      <trkpt lat="45.92187" lon="4.47087">
        <ele>361</ele>
        <time>2022-06-26T08:25:56Z</time>
      </trkpt>
      <trkpt lat="45.92189" lon="4.4708">
        <ele>361.2</ele>
        <time>2022-06-26T08:25:57Z</time>
      </trkpt>
      <trkpt lat="45.9219" lon="4.47072">
        <ele>361.2</ele>
        <time>2022-06-26T08:25:58Z</time>
      </trkpt>
      <trkpt lat="45.92191" lon="4.47065">
        <ele>361.4</ele>
        <time>2022-06-26T08:25:59Z</time>
      </trkpt>
      <trkpt lat="45.92192" lon="4.47057">
        <ele>361.4</ele>
        <time>2022-06-26T08:26:00Z</time>
      </trkpt>
      <trkpt lat="45.92193" lon="4.4705">
        <ele>361.6</ele>
        <time>2022-06-26T08:26:01Z</time>
      </trkpt>
      <trkpt lat="45.92194" lon="4.47043">
        <ele>361.6</ele>
        <time>2022-06-26T08:26:02Z</time>
      </trkpt>
      <trkpt lat="45.92195" lon="4.47035">
        <ele>361.8</ele>
        <time>2022-06-26T08:26:03Z</time>
      </trkpt>
      <trkpt lat="45.92197" lon="4.47028">
        <ele>361.8</ele>
        <time>2022-06-26T08:26:04Z</time>
      </trkpt>
      <trkpt lat="45.92198" lon="4.4702">
        <ele>362.2</ele>
        <time>2022-06-26T08:26:05Z</time>
      </trkpt>
      <trkpt lat="45.92199" lon="4.47013">
        <ele>362.2</ele>
        <time>2022-06-26T08:26:06Z</time>
      </trkpt>
      <trkpt lat="45.922" lon="4.47006">
        <ele>362.4</ele>
        <time>2022-06-26T08:26:07Z</time>
      </trkpt>
      <trkpt lat="45.92201" lon="4.46999">
        <ele>362.4</ele>
        <time>2022-06-26T08:26:08Z</time>
      </trkpt>
      <trkpt lat="45.92202" lon="4.46991">
        <ele>362.4</ele>
        <time>2022-06-26T08:26:09Z</time>
      </trkpt>
      <trkpt lat="45.92203" lon="4.46984">
        <ele>362.8</ele>
        <time>2022-06-26T08:26:10Z</time>
      </trkpt>
      <trkpt lat="45.92204" lon="4.46977">
        <ele>362.8</ele>
        <time>2022-06-26T08:26:11Z</time>
      </trkpt>
      <trkpt lat="45.92206" lon="4.4697">
        <ele>362.8</ele>
        <time>2022-06-26T08:26:12Z</time>
      </trkpt>
      <trkpt lat="45.92207" lon="4.46962">
        <ele>362.8</ele>
        <time>2022-06-26T08:26:13Z</time>
      </trkpt>
      <trkpt lat="45.92208" lon="4.46955">
        <ele>363</ele>
        <time>2022-06-26T08:26:14Z</time>
      </trkpt>
      <trkpt lat="45.92209" lon="4.46947">
        <ele>363</ele>
        <time>2022-06-26T08:26:15Z</time>
      </trkpt>
      <trkpt lat="45.92211" lon="4.4694">
        <ele>363</ele>
        <time>2022-06-26T08:26:16Z</time>
      </trkpt>
      <trkpt lat="45.92212" lon="4.46933">
        <ele>363.2</ele>
        <time>2022-06-26T08:26:17Z</time>
      </trkpt>
      <trkpt lat="45.92213" lon="4.46926">
        <ele>363.2</ele>
        <time>2022-06-26T08:26:18Z</time>
      </trkpt>
      <trkpt lat="45.92214" lon="4.46918">
        <ele>363.2</ele>
        <time>2022-06-26T08:26:19Z</time>
      </trkpt>
      <trkpt lat="45.92215" lon="4.46911">
        <ele>363.6</ele>
        <time>2022-06-26T08:26:20Z</time>
      </trkpt>
      <trkpt lat="45.92217" lon="4.46904">
        <ele>363.6</ele>
        <time>2022-06-26T08:26:21Z</time>
      </trkpt>
      <trkpt lat="45.92218" lon="4.46896">
        <ele>363.8</ele>
        <time>2022-06-26T08:26:22Z</time>
      </trkpt>
      <trkpt lat="45.92219" lon="4.46889">
        <ele>363.8</ele>
        <time>2022-06-26T08:26:23Z</time>
      </trkpt>
      <trkpt lat="45.9222" lon="4.46881">
        <ele>364.2</ele>
        <time>2022-06-26T08:26:24Z</time>
      </trkpt>
      <trkpt lat="45.92221" lon="4.46873">
        <ele>364.2</ele>
        <time>2022-06-26T08:26:25Z</time>
      </trkpt>
      <trkpt lat="45.92222" lon="4.46866">
        <ele>364.4</ele>
        <time>2022-06-26T08:26:26Z</time>
      </trkpt>
      <trkpt lat="45.92223" lon="4.46858">
        <ele>364.4</ele>
        <time>2022-06-26T08:26:27Z</time>
      </trkpt>
      <trkpt lat="45.92224" lon="4.4685">
        <ele>364.6</ele>
        <time>2022-06-26T08:26:28Z</time>
      </trkpt>
      <trkpt lat="45.92225" lon="4.46843">
        <ele>364.6</ele>
        <time>2022-06-26T08:26:29Z</time>
      </trkpt>
      <trkpt lat="45.92226" lon="4.46835">
        <ele>364.6</ele>
        <time>2022-06-26T08:26:30Z</time>
      </trkpt>
      <trkpt lat="45.92228" lon="4.46828">
        <ele>365</ele>
        <time>2022-06-26T08:26:31Z</time>
      </trkpt>
      <trkpt lat="45.92229" lon="4.4682">
        <ele>365</ele>
        <time>2022-06-26T08:26:32Z</time>
      </trkpt>
      <trkpt lat="45.9223" lon="4.46813">
        <ele>365</ele>
        <time>2022-06-26T08:26:33Z</time>
      </trkpt>
      <trkpt lat="45.92231" lon="4.46805">
        <ele>365.2</ele>
        <time>2022-06-26T08:26:34Z</time>
      </trkpt>
      <trkpt lat="45.92232" lon="4.46797">
        <ele>365.2</ele>
        <time>2022-06-26T08:26:35Z</time>
      </trkpt>
      <trkpt lat="45.92233" lon="4.4679">
        <ele>365.2</ele>
        <time>2022-06-26T08:26:36Z</time>
      </trkpt>
      <trkpt lat="45.92234" lon="4.46782">
        <ele>365.4</ele>
        <time>2022-06-26T08:26:37Z</time>
      </trkpt>
      <trkpt lat="45.92236" lon="4.46775">
        <ele>365.4</ele>
        <time>2022-06-26T08:26:38Z</time>
      </trkpt>
      <trkpt lat="45.92237" lon="4.46767">
        <ele>365.8</ele>
        <time>2022-06-26T08:26:39Z</time>
      </trkpt>
      <trkpt lat="45.92238" lon="4.46759">
        <ele>365.8</ele>
        <time>2022-06-26T08:26:40Z</time>
      </trkpt>
      <trkpt lat="45.9224" lon="4.46751">
        <ele>365.8</ele>
        <time>2022-06-26T08:26:41Z</time>
      </trkpt>
      <trkpt lat="45.92241" lon="4.46743">
        <ele>365.8</ele>
        <time>2022-06-26T08:26:42Z</time>
      </trkpt>
      <trkpt lat="45.92242" lon="4.46735">
        <ele>366</ele>
        <time>2022-06-26T08:26:43Z</time>
      </trkpt>
      <trkpt lat="45.92243" lon="4.46727">
        <ele>366</ele>
        <time>2022-06-26T08:26:44Z</time>
      </trkpt>
      <trkpt lat="45.92243" lon="4.46719">
        <ele>366</ele>
        <time>2022-06-26T08:26:45Z</time>
      </trkpt>
      <trkpt lat="45.92243" lon="4.46711">
        <ele>366.2</ele>
        <time>2022-06-26T08:26:46Z</time>
      </trkpt>
      <trkpt lat="45.92244" lon="4.46703">
        <ele>366.2</ele>
        <time>2022-06-26T08:26:47Z</time>
      </trkpt>
      <trkpt lat="45.92244" lon="4.46695">
        <ele>366.4</ele>
        <time>2022-06-26T08:26:48Z</time>
      </trkpt>
      <trkpt lat="45.92244" lon="4.46688">
        <ele>366.4</ele>
        <time>2022-06-26T08:26:49Z</time>
      </trkpt>
      <trkpt lat="45.92245" lon="4.4668">
        <ele>366.4</ele>
        <time>2022-06-26T08:26:50Z</time>
      </trkpt>
      <trkpt lat="45.92246" lon="4.46673">
        <ele>366.8</ele>
        <time>2022-06-26T08:26:51Z</time>
      </trkpt>
      <trkpt lat="45.92246" lon="4.46665">
        <ele>366.8</ele>
        <time>2022-06-26T08:26:52Z</time>
      </trkpt>
      <trkpt lat="45.92247" lon="4.46658">
        <ele>367</ele>
        <time>2022-06-26T08:26:53Z</time>
      </trkpt>
      <trkpt lat="45.92248" lon="4.46651">
        <ele>367</ele>
        <time>2022-06-26T08:26:54Z</time>
      </trkpt>
      <trkpt lat="45.92248" lon="4.46643">
        <ele>367.2</ele>
        <time>2022-06-26T08:26:55Z</time>
      </trkpt>
      <trkpt lat="45.92249" lon="4.46636">
        <ele>367.2</ele>
        <time>2022-06-26T08:26:56Z</time>
      </trkpt>
      <trkpt lat="45.9225" lon="4.46628">
        <ele>367.4</ele>
        <time>2022-06-26T08:26:57Z</time>
      </trkpt>
      <trkpt lat="45.92251" lon="4.4662">
        <ele>367.4</ele>
        <time>2022-06-26T08:26:58Z</time>
      </trkpt>
      <trkpt lat="45.92252" lon="4.46613">
        <ele>367.4</ele>
        <time>2022-06-26T08:26:59Z</time>
      </trkpt>
      <trkpt lat="45.92253" lon="4.46605">
        <ele>367.6</ele>
        <time>2022-06-26T08:27:00Z</time>
      </trkpt>
      <trkpt lat="45.92255" lon="4.46598">
        <ele>367.6</ele>
        <time>2022-06-26T08:27:01Z</time>
      </trkpt>
      <trkpt lat="45.92257" lon="4.46591">
        <ele>367.6</ele>
        <time>2022-06-26T08:27:02Z</time>
      </trkpt>
      <trkpt lat="45.92259" lon="4.46584">
        <ele>367.6</ele>
        <time>2022-06-26T08:27:03Z</time>
      </trkpt>
      <trkpt lat="45.92261" lon="4.46576">
        <ele>368</ele>
        <time>2022-06-26T08:27:04Z</time>
      </trkpt>
      <trkpt lat="45.92263" lon="4.46569">
        <ele>368</ele>
        <time>2022-06-26T08:27:05Z</time>
      </trkpt>
      <trkpt lat="45.92266" lon="4.46562">
        <ele>368</ele>
        <time>2022-06-26T08:27:06Z</time>
      </trkpt>
      <trkpt lat="45.92268" lon="4.46555">
        <ele>368</ele>
        <time>2022-06-26T08:27:07Z</time>
      </trkpt>
      <trkpt lat="45.92271" lon="4.46548">
        <ele>368</ele>
        <time>2022-06-26T08:27:08Z</time>
      </trkpt>
      <trkpt lat="45.92274" lon="4.46541">
        <ele>368</ele>
        <time>2022-06-26T08:27:09Z</time>
      </trkpt>
      <trkpt lat="45.92277" lon="4.46534">
        <ele>368</ele>
        <time>2022-06-26T08:27:10Z</time>
      </trkpt>
      <trkpt lat="45.9228" lon="4.46527">
        <ele>368</ele>
        <time>2022-06-26T08:27:11Z</time>
      </trkpt>
      <trkpt lat="45.92284" lon="4.4652">
        <ele>368.2</ele>
        <time>2022-06-26T08:27:12Z</time>
      </trkpt>
      <trkpt lat="45.92287" lon="4.46514">
        <ele>368.2</ele>
        <time>2022-06-26T08:27:13Z</time>
      </trkpt>
      <trkpt lat="45.92291" lon="4.46507">
        <ele>368.2</ele>
        <time>2022-06-26T08:27:14Z</time>
      </trkpt>
      <trkpt lat="45.92294" lon="4.465">
        <ele>368.2</ele>
        <time>2022-06-26T08:27:15Z</time>
      </trkpt>
      <trkpt lat="45.92297" lon="4.46494">
        <ele>368.4</ele>
        <time>2022-06-26T08:27:16Z</time>
      </trkpt>
      <trkpt lat="45.923" lon="4.46487">
        <ele>368.4</ele>
        <time>2022-06-26T08:27:17Z</time>
      </trkpt>
      <trkpt lat="45.92302" lon="4.4648">
        <ele>368.4</ele>
        <time>2022-06-26T08:27:18Z</time>
      </trkpt>
      <trkpt lat="45.92305" lon="4.46473">
        <ele>368.4</ele>
        <time>2022-06-26T08:27:19Z</time>
      </trkpt>
      <trkpt lat="45.92307" lon="4.46465">
        <ele>368.4</ele>
        <time>2022-06-26T08:27:20Z</time>
      </trkpt>
      <trkpt lat="45.92309" lon="4.46458">
        <ele>368.6</ele>
        <time>2022-06-26T08:27:21Z</time>
      </trkpt>
      <trkpt lat="45.92311" lon="4.4645">
        <ele>368.6</ele>
        <time>2022-06-26T08:27:22Z</time>
      </trkpt>
      <trkpt lat="45.92312" lon="4.46442">
        <ele>368.6</ele>
        <time>2022-06-26T08:27:23Z</time>
      </trkpt>
      <trkpt lat="45.92314" lon="4.46434">
        <ele>368.6</ele>
        <time>2022-06-26T08:27:24Z</time>
      </trkpt>
      <trkpt lat="45.92315" lon="4.46426">
        <ele>368.6</ele>
        <time>2022-06-26T08:27:25Z</time>
      </trkpt>
      <trkpt lat="45.92317" lon="4.46418">
        <ele>368.6</ele>
        <time>2022-06-26T08:27:26Z</time>
      </trkpt>
      <trkpt lat="45.92318" lon="4.4641">
        <ele>368.6</ele>
        <time>2022-06-26T08:27:27Z</time>
      </trkpt>
      <trkpt lat="45.92319" lon="4.46402">
        <ele>368.6</ele>
        <time>2022-06-26T08:27:28Z</time>
      </trkpt>
      <trkpt lat="45.9232" lon="4.46394">
        <ele>368.6</ele>
        <time>2022-06-26T08:27:29Z</time>
      </trkpt>
      <trkpt lat="45.92321" lon="4.46386">
        <ele>369</ele>
        <time>2022-06-26T08:27:30Z</time>
      </trkpt>
      <trkpt lat="45.92322" lon="4.46378">
        <ele>369</ele>
        <time>2022-06-26T08:27:31Z</time>
      </trkpt>
      <trkpt lat="45.92323" lon="4.46369">
        <ele>369</ele>
        <time>2022-06-26T08:27:32Z</time>
      </trkpt>
      <trkpt lat="45.92324" lon="4.46361">
        <ele>369</ele>
        <time>2022-06-26T08:27:33Z</time>
      </trkpt>
      <trkpt lat="45.92325" lon="4.46353">
        <ele>369.2</ele>
        <time>2022-06-26T08:27:34Z</time>
      </trkpt>
      <trkpt lat="45.92325" lon="4.46345">
        <ele>369.2</ele>
        <time>2022-06-26T08:27:35Z</time>
      </trkpt>
      <trkpt lat="45.92326" lon="4.46337">
        <ele>369.2</ele>
        <time>2022-06-26T08:27:36Z</time>
      </trkpt>
      <trkpt lat="45.92326" lon="4.46329">
        <ele>369.2</ele>
        <time>2022-06-26T08:27:37Z</time>
      </trkpt>
      <trkpt lat="45.92326" lon="4.4632">
        <ele>369.2</ele>
        <time>2022-06-26T08:27:38Z</time>
      </trkpt>
      <trkpt lat="45.92326" lon="4.46312">
        <ele>369.2</ele>
        <time>2022-06-26T08:27:39Z</time>
      </trkpt>
      <trkpt lat="45.92326" lon="4.46304">
        <ele>369.2</ele>
        <time>2022-06-26T08:27:40Z</time>
      </trkpt>
      <trkpt lat="45.92325" lon="4.46296">
        <ele>369.2</ele>
        <time>2022-06-26T08:27:41Z</time>
      </trkpt>
      <trkpt lat="45.92325" lon="4.46288">
        <ele>369.2</ele>
        <time>2022-06-26T08:27:42Z</time>
      </trkpt>
      <trkpt lat="45.92324" lon="4.4628">
        <ele>369.2</ele>
        <time>2022-06-26T08:27:43Z</time>
      </trkpt>
      <trkpt lat="45.92323" lon="4.46272">
        <ele>369.4</ele>
        <time>2022-06-26T08:27:44Z</time>
      </trkpt>
      <trkpt lat="45.92322" lon="4.46265">
        <ele>369.4</ele>
        <time>2022-06-26T08:27:45Z</time>
      </trkpt>
      <trkpt lat="45.92321" lon="4.46257">
        <ele>369.4</ele>
        <time>2022-06-26T08:27:46Z</time>
      </trkpt>
      <trkpt lat="45.92321" lon="4.46249">
        <ele>369.6</ele>
        <time>2022-06-26T08:27:47Z</time>
      </trkpt>
      <trkpt lat="45.9232" lon="4.46242">
        <ele>369.6</ele>
        <time>2022-06-26T08:27:48Z</time>
      </trkpt>
      <trkpt lat="45.92319" lon="4.46234">
        <ele>369.6</ele>
        <time>2022-06-26T08:27:49Z</time>
      </trkpt>
      <trkpt lat="45.92318" lon="4.46227">
        <ele>369.8</ele>
        <time>2022-06-26T08:27:50Z</time>
      </trkpt>
      <trkpt lat="45.92317" lon="4.46219">
        <ele>369.8</ele>
        <time>2022-06-26T08:27:51Z</time>
      </trkpt>
      <trkpt lat="45.92316" lon="4.46212">
        <ele>370</ele>
        <time>2022-06-26T08:27:52Z</time>
      </trkpt>
      <trkpt lat="45.92315" lon="4.46205">
        <ele>370</ele>
        <time>2022-06-26T08:27:53Z</time>
      </trkpt>
      <trkpt lat="45.92314" lon="4.46198">
        <ele>370</ele>
        <time>2022-06-26T08:27:54Z</time>
      </trkpt>
      <trkpt lat="45.92313" lon="4.4619">
        <ele>370.4</ele>
        <time>2022-06-26T08:27:55Z</time>
      </trkpt>
      <trkpt lat="45.92312" lon="4.46183">
        <ele>370.4</ele>
        <time>2022-06-26T08:27:56Z</time>
      </trkpt>
      <trkpt lat="45.92311" lon="4.46176">
        <ele>370.6</ele>
        <time>2022-06-26T08:27:57Z</time>
      </trkpt>
      <trkpt lat="45.92311" lon="4.46169">
        <ele>370.6</ele>
        <time>2022-06-26T08:27:58Z</time>
      </trkpt>
      <trkpt lat="45.9231" lon="4.46162">
        <ele>370.6</ele>
        <time>2022-06-26T08:27:59Z</time>
      </trkpt>
      <trkpt lat="45.9231" lon="4.46155">
        <ele>370.6</ele>
        <time>2022-06-26T08:28:00Z</time>
      </trkpt>
      <trkpt lat="45.92309" lon="4.46149">
        <ele>370.6</ele>
        <time>2022-06-26T08:28:01Z</time>
      </trkpt>
      <trkpt lat="45.92308" lon="4.46142">
        <ele>370.6</ele>
        <time>2022-06-26T08:28:02Z</time>
      </trkpt>
      <trkpt lat="45.92308" lon="4.46135">
        <ele>370.6</ele>
        <time>2022-06-26T08:28:03Z</time>
      </trkpt>
      <trkpt lat="45.92307" lon="4.46128">
        <ele>370.6</ele>
        <time>2022-06-26T08:28:04Z</time>
      </trkpt>
      <trkpt lat="45.92307" lon="4.46121">
        <ele>370.6</ele>
        <time>2022-06-26T08:28:05Z</time>
      </trkpt>
      <trkpt lat="45.92307" lon="4.46114">
        <ele>370.6</ele>
        <time>2022-06-26T08:28:06Z</time>
      </trkpt>
      <trkpt lat="45.92306" lon="4.46107">
        <ele>371</ele>
        <time>2022-06-26T08:28:07Z</time>
      </trkpt>
      <trkpt lat="45.92306" lon="4.46101">
        <ele>371</ele>
        <time>2022-06-26T08:28:08Z</time>
      </trkpt>
      <trkpt lat="45.92306" lon="4.46094">
        <ele>371.2</ele>
        <time>2022-06-26T08:28:09Z</time>
      </trkpt>
      <trkpt lat="45.92307" lon="4.46087">
        <ele>371.2</ele>
        <time>2022-06-26T08:28:10Z</time>
      </trkpt>
      <trkpt lat="45.92307" lon="4.46079">
        <ele>371.6</ele>
        <time>2022-06-26T08:28:11Z</time>
      </trkpt>
      <trkpt lat="45.92307" lon="4.46072">
        <ele>371.6</ele>
        <time>2022-06-26T08:28:12Z</time>
      </trkpt>
      <trkpt lat="45.92307" lon="4.46065">
        <ele>371.8</ele>
        <time>2022-06-26T08:28:13Z</time>
      </trkpt>
      <trkpt lat="45.92307" lon="4.46058">
        <ele>371.8</ele>
        <time>2022-06-26T08:28:14Z</time>
      </trkpt>
      <trkpt lat="45.92307" lon="4.4605">
        <ele>372</ele>
        <time>2022-06-26T08:28:15Z</time>
      </trkpt>
      <trkpt lat="45.92307" lon="4.46043">
        <ele>372</ele>
        <time>2022-06-26T08:28:16Z</time>
      </trkpt>
      <trkpt lat="45.92307" lon="4.46036">
        <ele>372.2</ele>
        <time>2022-06-26T08:28:17Z</time>
      </trkpt>
      <trkpt lat="45.92307" lon="4.46029">
        <ele>372.2</ele>
        <time>2022-06-26T08:28:18Z</time>
      </trkpt>
      <trkpt lat="45.92307" lon="4.46022">
        <ele>372.6</ele>
        <time>2022-06-26T08:28:19Z</time>
      </trkpt>
      <trkpt lat="45.92306" lon="4.46015">
        <ele>372.6</ele>
        <time>2022-06-26T08:28:20Z</time>
      </trkpt>
      <trkpt lat="45.92306" lon="4.46008">
        <ele>372.6</ele>
        <time>2022-06-26T08:28:21Z</time>
      </trkpt>
      <trkpt lat="45.92306" lon="4.45995">
        <ele>372.6</ele>
        <time>2022-06-26T08:28:22Z</time>
      </trkpt>
      <trkpt lat="45.92306" lon="4.45987">
        <ele>372.8</ele>
        <time>2022-06-26T08:28:23Z</time>
      </trkpt>
      <trkpt lat="45.92307" lon="4.4598">
        <ele>372.8</ele>
        <time>2022-06-26T08:28:24Z</time>
      </trkpt>
      <trkpt lat="45.92307" lon="4.45974">
        <ele>372.8</ele>
        <time>2022-06-26T08:28:25Z</time>
      </trkpt>
      <trkpt lat="45.92307" lon="4.45967">
        <ele>373</ele>
        <time>2022-06-26T08:28:26Z</time>
      </trkpt>
      <trkpt lat="45.92307" lon="4.4596">
        <ele>373</ele>
        <time>2022-06-26T08:28:27Z</time>
      </trkpt>
      <trkpt lat="45.92307" lon="4.45954">
        <ele>373.4</ele>
        <time>2022-06-26T08:28:28Z</time>
      </trkpt>
      <trkpt lat="45.92308" lon="4.45947">
        <ele>373.4</ele>
        <time>2022-06-26T08:28:29Z</time>
      </trkpt>
      <trkpt lat="45.92308" lon="4.45941">
        <ele>373.4</ele>
        <time>2022-06-26T08:28:30Z</time>
      </trkpt>
      <trkpt lat="45.92308" lon="4.45935">
        <ele>373.6</ele>
        <time>2022-06-26T08:28:31Z</time>
      </trkpt>
      <trkpt lat="45.92308" lon="4.4593">
        <ele>373.6</ele>
        <time>2022-06-26T08:28:32Z</time>
      </trkpt>
      <trkpt lat="45.92308" lon="4.45924">
        <ele>373.6</ele>
        <time>2022-06-26T08:28:33Z</time>
      </trkpt>
      <trkpt lat="45.92309" lon="4.45918">
        <ele>374</ele>
        <time>2022-06-26T08:28:34Z</time>
      </trkpt>
      <trkpt lat="45.92309" lon="4.45913">
        <ele>374</ele>
        <time>2022-06-26T08:28:35Z</time>
      </trkpt>
      <trkpt lat="45.9231" lon="4.45908">
        <ele>374.4</ele>
        <time>2022-06-26T08:28:36Z</time>
      </trkpt>
      <trkpt lat="45.9231" lon="4.45903">
        <ele>374.4</ele>
        <time>2022-06-26T08:28:37Z</time>
      </trkpt>
      <trkpt lat="45.9231" lon="4.45899">
        <ele>374.6</ele>
        <time>2022-06-26T08:28:38Z</time>
      </trkpt>
      <trkpt lat="45.9231" lon="4.45894">
        <ele>375</ele>
        <time>2022-06-26T08:28:39Z</time>
      </trkpt>
      <trkpt lat="45.9231" lon="4.45889">
        <ele>375.2</ele>
        <time>2022-06-26T08:28:40Z</time>
      </trkpt>
      <trkpt lat="45.9231" lon="4.45885">
        <ele>375.4</ele>
        <time>2022-06-26T08:28:41Z</time>
      </trkpt>
      <trkpt lat="45.9231" lon="4.4588">
        <ele>375.6</ele>
        <time>2022-06-26T08:28:42Z</time>
      </trkpt>
      <trkpt lat="45.9231" lon="4.45875">
        <ele>375.8</ele>
        <time>2022-06-26T08:28:43Z</time>
      </trkpt>
      <trkpt lat="45.92311" lon="4.45871">
        <ele>376</ele>
        <time>2022-06-26T08:28:44Z</time>
      </trkpt>
      <trkpt lat="45.92311" lon="4.45866">
        <ele>376.4</ele>
        <time>2022-06-26T08:28:45Z</time>
      </trkpt>
      <trkpt lat="45.92311" lon="4.45862">
        <ele>376.6</ele>
        <time>2022-06-26T08:28:46Z</time>
      </trkpt>
      <trkpt lat="45.92311" lon="4.45857">
        <ele>377</ele>
        <time>2022-06-26T08:28:47Z</time>
      </trkpt>
      <trkpt lat="45.92311" lon="4.45852">
        <ele>377</ele>
        <time>2022-06-26T08:28:48Z</time>
      </trkpt>
      <trkpt lat="45.92311" lon="4.45848">
        <ele>377.2</ele>
        <time>2022-06-26T08:28:49Z</time>
      </trkpt>
      <trkpt lat="45.92311" lon="4.45843">
        <ele>377.6</ele>
        <time>2022-06-26T08:28:50Z</time>
      </trkpt>
      <trkpt lat="45.92311" lon="4.45839">
        <ele>377.8</ele>
        <time>2022-06-26T08:28:51Z</time>
      </trkpt>
      <trkpt lat="45.92312" lon="4.45834">
        <ele>377.8</ele>
        <time>2022-06-26T08:28:52Z</time>
      </trkpt>
      <trkpt lat="45.92312" lon="4.4583">
        <ele>378</ele>
        <time>2022-06-26T08:28:53Z</time>
      </trkpt>
      <trkpt lat="45.92312" lon="4.45825">
        <ele>378</ele>
        <time>2022-06-26T08:28:54Z</time>
      </trkpt>
      <trkpt lat="45.92312" lon="4.45821">
        <ele>378.4</ele>
        <time>2022-06-26T08:28:55Z</time>
      </trkpt>
      <trkpt lat="45.92312" lon="4.45816">
        <ele>378.8</ele>
        <time>2022-06-26T08:28:56Z</time>
      </trkpt>
      <trkpt lat="45.92312" lon="4.45812">
        <ele>378.8</ele>
        <time>2022-06-26T08:28:57Z</time>
      </trkpt>
      <trkpt lat="45.92312" lon="4.45808">
        <ele>379</ele>
        <time>2022-06-26T08:28:58Z</time>
      </trkpt>
      <trkpt lat="45.92312" lon="4.45803">
        <ele>379.2</ele>
        <time>2022-06-26T08:28:59Z</time>
      </trkpt>
      <trkpt lat="45.92312" lon="4.45799">
        <ele>379.6</ele>
        <time>2022-06-26T08:29:00Z</time>
      </trkpt>
      <trkpt lat="45.92312" lon="4.45795">
        <ele>379.8</ele>
        <time>2022-06-26T08:29:01Z</time>
      </trkpt>
      <trkpt lat="45.92312" lon="4.4579">
        <ele>379.8</ele>
        <time>2022-06-26T08:29:02Z</time>
      </trkpt>
      <trkpt lat="45.92312" lon="4.45786">
        <ele>380</ele>
        <time>2022-06-26T08:29:03Z</time>
      </trkpt>
      <trkpt lat="45.92312" lon="4.45782">
        <ele>380</ele>
        <time>2022-06-26T08:29:04Z</time>
      </trkpt>
      <trkpt lat="45.92312" lon="4.45778">
        <ele>380.4</ele>
        <time>2022-06-26T08:29:05Z</time>
      </trkpt>
      <trkpt lat="45.92312" lon="4.45774">
        <ele>380.6</ele>
        <time>2022-06-26T08:29:06Z</time>
      </trkpt>
      <trkpt lat="45.92312" lon="4.4577">
        <ele>380.8</ele>
        <time>2022-06-26T08:29:07Z</time>
      </trkpt>
      <trkpt lat="45.92312" lon="4.45765">
        <ele>380.8</ele>
        <time>2022-06-26T08:29:08Z</time>
      </trkpt>
      <trkpt lat="45.92312" lon="4.45761">
        <ele>381.2</ele>
        <time>2022-06-26T08:29:09Z</time>
      </trkpt>
      <trkpt lat="45.92312" lon="4.45757">
        <ele>381.2</ele>
        <time>2022-06-26T08:29:10Z</time>
      </trkpt>
      <trkpt lat="45.92312" lon="4.45753">
        <ele>381.6</ele>
        <time>2022-06-26T08:29:11Z</time>
      </trkpt>
      <trkpt lat="45.92312" lon="4.45748">
        <ele>381.8</ele>
        <time>2022-06-26T08:29:12Z</time>
      </trkpt>
      <trkpt lat="45.92312" lon="4.45744">
        <ele>382</ele>
        <time>2022-06-26T08:29:13Z</time>
      </trkpt>
      <trkpt lat="45.92312" lon="4.4574">
        <ele>382</ele>
        <time>2022-06-26T08:29:14Z</time>
      </trkpt>
      <trkpt lat="45.92313" lon="4.45736">
        <ele>382.6</ele>
        <time>2022-06-26T08:29:15Z</time>
      </trkpt>
      <trkpt lat="45.92313" lon="4.45732">
        <ele>382.6</ele>
        <time>2022-06-26T08:29:16Z</time>
      </trkpt>
      <trkpt lat="45.92313" lon="4.45728">
        <ele>383</ele>
        <time>2022-06-26T08:29:17Z</time>
      </trkpt>
      <trkpt lat="45.92314" lon="4.45724">
        <ele>383</ele>
        <time>2022-06-26T08:29:18Z</time>
      </trkpt>
      <trkpt lat="45.92314" lon="4.4572">
        <ele>383.2</ele>
        <time>2022-06-26T08:29:19Z</time>
      </trkpt>
      <trkpt lat="45.92314" lon="4.45716">
        <ele>383.2</ele>
        <time>2022-06-26T08:29:20Z</time>
      </trkpt>
      <trkpt lat="45.92315" lon="4.45712">
        <ele>383.6</ele>
        <time>2022-06-26T08:29:21Z</time>
      </trkpt>
      <trkpt lat="45.92315" lon="4.45708">
        <ele>383.6</ele>
        <time>2022-06-26T08:29:22Z</time>
      </trkpt>
      <trkpt lat="45.92315" lon="4.45704">
        <ele>384</ele>
        <time>2022-06-26T08:29:23Z</time>
      </trkpt>
      <trkpt lat="45.92314" lon="4.457">
        <ele>384</ele>
        <time>2022-06-26T08:29:24Z</time>
      </trkpt>
      <trkpt lat="45.92314" lon="4.45696">
        <ele>384.2</ele>
        <time>2022-06-26T08:29:25Z</time>
      </trkpt>
      <trkpt lat="45.92314" lon="4.45693">
        <ele>384.6</ele>
        <time>2022-06-26T08:29:26Z</time>
      </trkpt>
      <trkpt lat="45.92314" lon="4.45689">
        <ele>384.6</ele>
        <time>2022-06-26T08:29:27Z</time>
      </trkpt>
      <trkpt lat="45.92314" lon="4.45685">
        <ele>384.8</ele>
        <time>2022-06-26T08:29:28Z</time>
      </trkpt>
      <trkpt lat="45.92315" lon="4.45681">
        <ele>384.8</ele>
        <time>2022-06-26T08:29:29Z</time>
      </trkpt>
      <trkpt lat="45.92315" lon="4.45677">
        <ele>385.2</ele>
        <time>2022-06-26T08:29:30Z</time>
      </trkpt>
      <trkpt lat="45.92316" lon="4.45674">
        <ele>385.2</ele>
        <time>2022-06-26T08:29:31Z</time>
      </trkpt>
      <trkpt lat="45.92316" lon="4.4567">
        <ele>385.6</ele>
        <time>2022-06-26T08:29:32Z</time>
      </trkpt>
      <trkpt lat="45.92316" lon="4.45666">
        <ele>385.6</ele>
        <time>2022-06-26T08:29:33Z</time>
      </trkpt>
      <trkpt lat="45.92316" lon="4.45662">
        <ele>385.8</ele>
        <time>2022-06-26T08:29:34Z</time>
      </trkpt>
      <trkpt lat="45.92316" lon="4.45657">
        <ele>385.8</ele>
        <time>2022-06-26T08:29:35Z</time>
      </trkpt>
      <trkpt lat="45.92316" lon="4.45653">
        <ele>386.2</ele>
        <time>2022-06-26T08:29:36Z</time>
      </trkpt>
      <trkpt lat="45.92317" lon="4.45649">
        <ele>386.2</ele>
        <time>2022-06-26T08:29:37Z</time>
      </trkpt>
      <trkpt lat="45.92317" lon="4.45645">
        <ele>386.6</ele>
        <time>2022-06-26T08:29:38Z</time>
      </trkpt>
      <trkpt lat="45.92317" lon="4.45641">
        <ele>386.6</ele>
        <time>2022-06-26T08:29:39Z</time>
      </trkpt>
      <trkpt lat="45.92317" lon="4.45637">
        <ele>386.8</ele>
        <time>2022-06-26T08:29:40Z</time>
      </trkpt>
      <trkpt lat="45.92317" lon="4.45633">
        <ele>386.8</ele>
        <time>2022-06-26T08:29:41Z</time>
      </trkpt>
      <trkpt lat="45.92317" lon="4.45629">
        <ele>387.2</ele>
        <time>2022-06-26T08:29:42Z</time>
      </trkpt>
      <trkpt lat="45.92317" lon="4.45625">
        <ele>387.2</ele>
        <time>2022-06-26T08:29:43Z</time>
      </trkpt>
      <trkpt lat="45.92317" lon="4.45621">
        <ele>387.6</ele>
        <time>2022-06-26T08:29:44Z</time>
      </trkpt>
      <trkpt lat="45.92317" lon="4.45617">
        <ele>387.6</ele>
        <time>2022-06-26T08:29:45Z</time>
      </trkpt>
      <trkpt lat="45.92317" lon="4.45613">
        <ele>388.2</ele>
        <time>2022-06-26T08:29:46Z</time>
      </trkpt>
      <trkpt lat="45.92317" lon="4.45609">
        <ele>388.4</ele>
        <time>2022-06-26T08:29:47Z</time>
      </trkpt>
      <trkpt lat="45.92317" lon="4.45605">
        <ele>388.6</ele>
        <time>2022-06-26T08:29:48Z</time>
      </trkpt>
      <trkpt lat="45.92318" lon="4.45601">
        <ele>388.8</ele>
        <time>2022-06-26T08:29:49Z</time>
      </trkpt>
      <trkpt lat="45.92318" lon="4.45597">
        <ele>388.8</ele>
        <time>2022-06-26T08:29:50Z</time>
      </trkpt>
      <trkpt lat="45.92318" lon="4.45592">
        <ele>389</ele>
        <time>2022-06-26T08:29:51Z</time>
      </trkpt>
      <trkpt lat="45.92318" lon="4.45588">
        <ele>389</ele>
        <time>2022-06-26T08:29:52Z</time>
      </trkpt>
      <trkpt lat="45.92318" lon="4.45584">
        <ele>389.4</ele>
        <time>2022-06-26T08:29:53Z</time>
      </trkpt>
      <trkpt lat="45.92318" lon="4.4558">
        <ele>389.4</ele>
        <time>2022-06-26T08:29:54Z</time>
      </trkpt>
      <trkpt lat="45.92318" lon="4.45576">
        <ele>389.8</ele>
        <time>2022-06-26T08:29:55Z</time>
      </trkpt>
      <trkpt lat="45.92318" lon="4.45571">
        <ele>389.8</ele>
        <time>2022-06-26T08:29:56Z</time>
      </trkpt>
      <trkpt lat="45.92318" lon="4.45567">
        <ele>390</ele>
        <time>2022-06-26T08:29:57Z</time>
      </trkpt>
      <trkpt lat="45.92318" lon="4.45563">
        <ele>390</ele>
        <time>2022-06-26T08:29:58Z</time>
      </trkpt>
      <trkpt lat="45.92318" lon="4.45559">
        <ele>390.4</ele>
        <time>2022-06-26T08:29:59Z</time>
      </trkpt>
      <trkpt lat="45.92318" lon="4.45555">
        <ele>390.4</ele>
        <time>2022-06-26T08:30:00Z</time>
      </trkpt>
      <trkpt lat="45.92318" lon="4.4555">
        <ele>390.6</ele>
        <time>2022-06-26T08:30:01Z</time>
      </trkpt>
      <trkpt lat="45.92318" lon="4.45546">
        <ele>390.6</ele>
        <time>2022-06-26T08:30:02Z</time>
      </trkpt>
      <trkpt lat="45.92318" lon="4.45542">
        <ele>390.8</ele>
        <time>2022-06-26T08:30:03Z</time>
      </trkpt>
      <trkpt lat="45.92318" lon="4.45537">
        <ele>390.8</ele>
        <time>2022-06-26T08:30:04Z</time>
      </trkpt>
      <trkpt lat="45.92318" lon="4.45533">
        <ele>391.2</ele>
        <time>2022-06-26T08:30:05Z</time>
      </trkpt>
      <trkpt lat="45.92318" lon="4.45528">
        <ele>391.2</ele>
        <time>2022-06-26T08:30:06Z</time>
      </trkpt>
      <trkpt lat="45.92318" lon="4.45523">
        <ele>391.4</ele>
        <time>2022-06-26T08:30:07Z</time>
      </trkpt>
      <trkpt lat="45.92318" lon="4.45518">
        <ele>391.4</ele>
        <time>2022-06-26T08:30:08Z</time>
      </trkpt>
      <trkpt lat="45.92318" lon="4.45513">
        <ele>391.4</ele>
        <time>2022-06-26T08:30:09Z</time>
      </trkpt>
      <trkpt lat="45.92318" lon="4.45508">
        <ele>391.8</ele>
        <time>2022-06-26T08:30:10Z</time>
      </trkpt>
      <trkpt lat="45.92318" lon="4.45503">
        <ele>391.8</ele>
        <time>2022-06-26T08:30:11Z</time>
      </trkpt>
      <trkpt lat="45.92318" lon="4.45497">
        <ele>391.8</ele>
        <time>2022-06-26T08:30:12Z</time>
      </trkpt>
      <trkpt lat="45.92318" lon="4.45492">
        <ele>392</ele>
        <time>2022-06-26T08:30:13Z</time>
      </trkpt>
      <trkpt lat="45.92319" lon="4.45487">
        <ele>392</ele>
        <time>2022-06-26T08:30:14Z</time>
      </trkpt>
      <trkpt lat="45.92319" lon="4.45481">
        <ele>392</ele>
        <time>2022-06-26T08:30:15Z</time>
      </trkpt>
      <trkpt lat="45.92319" lon="4.45476">
        <ele>392.2</ele>
        <time>2022-06-26T08:30:16Z</time>
      </trkpt>
      <trkpt lat="45.92319" lon="4.45471">
        <ele>392.2</ele>
        <time>2022-06-26T08:30:17Z</time>
      </trkpt>
      <trkpt lat="45.92319" lon="4.45466">
        <ele>392.2</ele>
        <time>2022-06-26T08:30:18Z</time>
      </trkpt>
      <trkpt lat="45.9232" lon="4.4546">
        <ele>392.2</ele>
        <time>2022-06-26T08:30:19Z</time>
      </trkpt>
      <trkpt lat="45.9232" lon="4.45455">
        <ele>392.4</ele>
        <time>2022-06-26T08:30:20Z</time>
      </trkpt>
      <trkpt lat="45.9232" lon="4.45449">
        <ele>392.4</ele>
        <time>2022-06-26T08:30:21Z</time>
      </trkpt>
      <trkpt lat="45.9232" lon="4.45443">
        <ele>392.4</ele>
        <time>2022-06-26T08:30:22Z</time>
      </trkpt>
      <trkpt lat="45.9232" lon="4.45438">
        <ele>392.4</ele>
        <time>2022-06-26T08:30:23Z</time>
      </trkpt>
      <trkpt lat="45.92321" lon="4.45433">
        <ele>392.6</ele>
        <time>2022-06-26T08:30:24Z</time>
      </trkpt>
      <trkpt lat="45.92321" lon="4.45427">
        <ele>392.6</ele>
        <time>2022-06-26T08:30:25Z</time>
      </trkpt>
      <trkpt lat="45.92321" lon="4.45421">
        <ele>392.6</ele>
        <time>2022-06-26T08:30:26Z</time>
      </trkpt>
      <trkpt lat="45.92322" lon="4.45414">
        <ele>392.6</ele>
        <time>2022-06-26T08:30:27Z</time>
      </trkpt>
      <trkpt lat="45.92323" lon="4.45408">
        <ele>392.6</ele>
        <time>2022-06-26T08:30:28Z</time>
      </trkpt>
      <trkpt lat="45.92323" lon="4.45401">
        <ele>392.6</ele>
        <time>2022-06-26T08:30:29Z</time>
      </trkpt>
      <trkpt lat="45.92324" lon="4.45394">
        <ele>392.6</ele>
        <time>2022-06-26T08:30:30Z</time>
      </trkpt>
      <trkpt lat="45.92325" lon="4.45387">
        <ele>392.6</ele>
        <time>2022-06-26T08:30:31Z</time>
      </trkpt>
      <trkpt lat="45.92326" lon="4.4538">
        <ele>392.6</ele>
        <time>2022-06-26T08:30:32Z</time>
      </trkpt>
      <trkpt lat="45.92327" lon="4.45372">
        <ele>392.6</ele>
        <time>2022-06-26T08:30:33Z</time>
      </trkpt>
      <trkpt lat="45.92328" lon="4.45364">
        <ele>392.6</ele>
        <time>2022-06-26T08:30:34Z</time>
      </trkpt>
      <trkpt lat="45.92329" lon="4.45356">
        <ele>392.6</ele>
        <time>2022-06-26T08:30:35Z</time>
      </trkpt>
      <trkpt lat="45.92331" lon="4.45348">
        <ele>392.4</ele>
        <time>2022-06-26T08:30:36Z</time>
      </trkpt>
      <trkpt lat="45.92333" lon="4.45339">
        <ele>392.4</ele>
        <time>2022-06-26T08:30:37Z</time>
      </trkpt>
      <trkpt lat="45.92334" lon="4.45331">
        <ele>392</ele>
        <time>2022-06-26T08:30:38Z</time>
      </trkpt>
      <trkpt lat="45.92336" lon="4.45321">
        <ele>391.8</ele>
        <time>2022-06-26T08:30:39Z</time>
      </trkpt>
      <trkpt lat="45.92338" lon="4.45312">
        <ele>391.6</ele>
        <time>2022-06-26T08:30:40Z</time>
      </trkpt>
      <trkpt lat="45.9234" lon="4.45302">
        <ele>391.4</ele>
        <time>2022-06-26T08:30:41Z</time>
      </trkpt>
      <trkpt lat="45.92342" lon="4.45293">
        <ele>391.2</ele>
        <time>2022-06-26T08:30:42Z</time>
      </trkpt>
      <trkpt lat="45.92343" lon="4.45283">
        <ele>390.8</ele>
        <time>2022-06-26T08:30:43Z</time>
      </trkpt>
      <trkpt lat="45.92346" lon="4.45272">
        <ele>390.6</ele>
        <time>2022-06-26T08:30:44Z</time>
      </trkpt>
      <trkpt lat="45.92348" lon="4.45261">
        <ele>390.4</ele>
        <time>2022-06-26T08:30:45Z</time>
      </trkpt>
      <trkpt lat="45.92351" lon="4.4525">
        <ele>390</ele>
        <time>2022-06-26T08:30:46Z</time>
      </trkpt>
      <trkpt lat="45.92354" lon="4.45239">
        <ele>389.4</ele>
        <time>2022-06-26T08:30:48Z</time>
      </trkpt>
      <trkpt lat="45.92357" lon="4.45227">
        <ele>389</ele>
        <time>2022-06-26T08:30:49Z</time>
      </trkpt>
      <trkpt lat="45.9236" lon="4.45216">
        <ele>388.8</ele>
        <time>2022-06-26T08:30:50Z</time>
      </trkpt>
      <trkpt lat="45.92363" lon="4.45204">
        <ele>388.2</ele>
        <time>2022-06-26T08:30:51Z</time>
      </trkpt>
      <trkpt lat="45.92366" lon="4.45192">
        <ele>387.8</ele>
        <time>2022-06-26T08:30:52Z</time>
      </trkpt>
      <trkpt lat="45.92369" lon="4.4518">
        <ele>387.4</ele>
        <time>2022-06-26T08:30:53Z</time>
      </trkpt>
      <trkpt lat="45.92373" lon="4.45168">
        <ele>386.8</ele>
        <time>2022-06-26T08:30:54Z</time>
      </trkpt>
      <trkpt lat="45.92377" lon="4.45156">
        <ele>386.6</ele>
        <time>2022-06-26T08:30:55Z</time>
      </trkpt>
      <trkpt lat="45.92381" lon="4.45144">
        <ele>386.2</ele>
        <time>2022-06-26T08:30:56Z</time>
      </trkpt>
      <trkpt lat="45.92385" lon="4.4513">
        <ele>386</ele>
        <time>2022-06-26T08:30:57Z</time>
      </trkpt>
      <trkpt lat="45.92389" lon="4.45118">
        <ele>385.6</ele>
        <time>2022-06-26T08:30:58Z</time>
      </trkpt>
      <trkpt lat="45.92393" lon="4.45106">
        <ele>385.4</ele>
        <time>2022-06-26T08:30:59Z</time>
      </trkpt>
      <trkpt lat="45.92398" lon="4.45095">
        <ele>385.2</ele>
        <time>2022-06-26T08:31:00Z</time>
      </trkpt>
      <trkpt lat="45.92402" lon="4.45084">
        <ele>385.2</ele>
        <time>2022-06-26T08:31:01Z</time>
      </trkpt>
      <trkpt lat="45.92407" lon="4.45074">
        <ele>384.8</ele>
        <time>2022-06-26T08:31:02Z</time>
      </trkpt>
      <trkpt lat="45.92411" lon="4.45064">
        <ele>384.8</ele>
        <time>2022-06-26T08:31:03Z</time>
      </trkpt>
      <trkpt lat="45.92415" lon="4.45055">
        <ele>384.8</ele>
        <time>2022-06-26T08:31:04Z</time>
      </trkpt>
      <trkpt lat="45.92419" lon="4.45045">
        <ele>384.8</ele>
        <time>2022-06-26T08:31:05Z</time>
      </trkpt>
      <trkpt lat="45.92422" lon="4.45036">
        <ele>384.8</ele>
        <time>2022-06-26T08:31:06Z</time>
      </trkpt>
      <trkpt lat="45.92425" lon="4.45027">
        <ele>384.8</ele>
        <time>2022-06-26T08:31:07Z</time>
      </trkpt>
      <trkpt lat="45.92428" lon="4.45019">
        <ele>384.8</ele>
        <time>2022-06-26T08:31:08Z</time>
      </trkpt>
      <trkpt lat="45.92432" lon="4.45011">
        <ele>384.8</ele>
        <time>2022-06-26T08:31:09Z</time>
      </trkpt>
      <trkpt lat="45.92435" lon="4.45004">
        <ele>384.8</ele>
        <time>2022-06-26T08:31:10Z</time>
      </trkpt>
      <trkpt lat="45.92438" lon="4.44998">
        <ele>385.2</ele>
        <time>2022-06-26T08:31:11Z</time>
      </trkpt>
      <trkpt lat="45.9244" lon="4.44993">
        <ele>385.2</ele>
        <time>2022-06-26T08:31:12Z</time>
      </trkpt>
      <trkpt lat="45.92442" lon="4.44987">
        <ele>385.2</ele>
        <time>2022-06-26T08:31:13Z</time>
      </trkpt>
      <trkpt lat="45.92443" lon="4.44982">
        <ele>385.4</ele>
        <time>2022-06-26T08:31:14Z</time>
      </trkpt>
      <trkpt lat="45.92442" lon="4.44977">
        <ele>385.4</ele>
        <time>2022-06-26T08:31:15Z</time>
      </trkpt>
      <trkpt lat="45.92441" lon="4.44972">
        <ele>385.8</ele>
        <time>2022-06-26T08:31:16Z</time>
      </trkpt>
      <trkpt lat="45.92439" lon="4.44969">
        <ele>386</ele>
        <time>2022-06-26T08:31:17Z</time>
      </trkpt>
      <trkpt lat="45.92436" lon="4.44968">
        <ele>386.2</ele>
        <time>2022-06-26T08:31:18Z</time>
      </trkpt>
      <trkpt lat="45.92434" lon="4.44968">
        <ele>386.6</ele>
        <time>2022-06-26T08:31:19Z</time>
      </trkpt>
      <trkpt lat="45.92431" lon="4.44969">
        <ele>386.6</ele>
        <time>2022-06-26T08:31:20Z</time>
      </trkpt>
      <trkpt lat="45.9243" lon="4.44971">
        <ele>387</ele>
        <time>2022-06-26T08:31:21Z</time>
      </trkpt>
      <trkpt lat="45.92428" lon="4.44972">
        <ele>387</ele>
        <time>2022-06-26T08:31:22Z</time>
      </trkpt>
      <trkpt lat="45.92426" lon="4.44974">
        <ele>387.2</ele>
        <time>2022-06-26T08:31:23Z</time>
      </trkpt>
      <trkpt lat="45.92425" lon="4.44976">
        <ele>387.4</ele>
        <time>2022-06-26T08:31:24Z</time>
      </trkpt>
      <trkpt lat="45.92423" lon="4.44978">
        <ele>387.8</ele>
        <time>2022-06-26T08:31:25Z</time>
      </trkpt>
      <trkpt lat="45.92422" lon="4.4498">
        <ele>388</ele>
        <time>2022-06-26T08:31:26Z</time>
      </trkpt>
      <trkpt lat="45.9242" lon="4.44982">
        <ele>388.2</ele>
        <time>2022-06-26T08:31:27Z</time>
      </trkpt>
      <trkpt lat="45.92418" lon="4.44985">
        <ele>388.4</ele>
        <time>2022-06-26T08:31:28Z</time>
      </trkpt>
      <trkpt lat="45.92417" lon="4.44987">
        <ele>388.4</ele>
        <time>2022-06-26T08:31:29Z</time>
      </trkpt>
      <trkpt lat="45.92414" lon="4.4499">
        <ele>388.8</ele>
        <time>2022-06-26T08:31:30Z</time>
      </trkpt>
      <trkpt lat="45.92412" lon="4.44993">
        <ele>388.8</ele>
        <time>2022-06-26T08:31:31Z</time>
      </trkpt>
      <trkpt lat="45.9241" lon="4.44997">
        <ele>389.4</ele>
        <time>2022-06-26T08:31:32Z</time>
      </trkpt>
      <trkpt lat="45.92408" lon="4.45">
        <ele>389.6</ele>
        <time>2022-06-26T08:31:33Z</time>
      </trkpt>
      <trkpt lat="45.92405" lon="4.45004">
        <ele>389.6</ele>
        <time>2022-06-26T08:31:34Z</time>
      </trkpt>
      <trkpt lat="45.92404" lon="4.45007">
        <ele>390</ele>
        <time>2022-06-26T08:31:35Z</time>
      </trkpt>
      <trkpt lat="45.92402" lon="4.4501">
        <ele>390.2</ele>
        <time>2022-06-26T08:31:36Z</time>
      </trkpt>
      <trkpt lat="45.92399" lon="4.45013">
        <ele>390.4</ele>
        <time>2022-06-26T08:31:37Z</time>
      </trkpt>
      <trkpt lat="45.92397" lon="4.45016">
        <ele>390.6</ele>
        <time>2022-06-26T08:31:38Z</time>
      </trkpt>
      <trkpt lat="45.92395" lon="4.45019">
        <ele>390.6</ele>
        <time>2022-06-26T08:31:39Z</time>
      </trkpt>
      <trkpt lat="45.92393" lon="4.45022">
        <ele>391</ele>
        <time>2022-06-26T08:31:40Z</time>
      </trkpt>
      <trkpt lat="45.92391" lon="4.45025">
        <ele>391.2</ele>
        <time>2022-06-26T08:31:41Z</time>
      </trkpt>
      <trkpt lat="45.92389" lon="4.45028">
        <ele>391.2</ele>
        <time>2022-06-26T08:31:42Z</time>
      </trkpt>
      <trkpt lat="45.92388" lon="4.45032">
        <ele>391.6</ele>
        <time>2022-06-26T08:31:43Z</time>
      </trkpt>
      <trkpt lat="45.92386" lon="4.45036">
        <ele>391.6</ele>
        <time>2022-06-26T08:31:44Z</time>
      </trkpt>
      <trkpt lat="45.92384" lon="4.45039">
        <ele>392</ele>
        <time>2022-06-26T08:31:45Z</time>
      </trkpt>
      <trkpt lat="45.92382" lon="4.45044">
        <ele>392</ele>
        <time>2022-06-26T08:31:46Z</time>
      </trkpt>
      <trkpt lat="45.9238" lon="4.45048">
        <ele>392</ele>
        <time>2022-06-26T08:31:47Z</time>
      </trkpt>
      <trkpt lat="45.92379" lon="4.45052">
        <ele>392.2</ele>
        <time>2022-06-26T08:31:48Z</time>
      </trkpt>
      <trkpt lat="45.92377" lon="4.45056">
        <ele>392.4</ele>
        <time>2022-06-26T08:31:49Z</time>
      </trkpt>
      <trkpt lat="45.92375" lon="4.4506">
        <ele>392.8</ele>
        <time>2022-06-26T08:31:50Z</time>
      </trkpt>
      <trkpt lat="45.92374" lon="4.45064">
        <ele>392.8</ele>
        <time>2022-06-26T08:31:51Z</time>
      </trkpt>
      <trkpt lat="45.92373" lon="4.45068">
        <ele>393</ele>
        <time>2022-06-26T08:31:52Z</time>
      </trkpt>
      <trkpt lat="45.92371" lon="4.45073">
        <ele>393</ele>
        <time>2022-06-26T08:31:53Z</time>
      </trkpt>
      <trkpt lat="45.9237" lon="4.45078">
        <ele>393.4</ele>
        <time>2022-06-26T08:31:54Z</time>
      </trkpt>
      <trkpt lat="45.92369" lon="4.45082">
        <ele>393.6</ele>
        <time>2022-06-26T08:31:55Z</time>
      </trkpt>
      <trkpt lat="45.92367" lon="4.45086">
        <ele>393.6</ele>
        <time>2022-06-26T08:31:56Z</time>
      </trkpt>
      <trkpt lat="45.92366" lon="4.4509">
        <ele>394</ele>
        <time>2022-06-26T08:31:57Z</time>
      </trkpt>
      <trkpt lat="45.92365" lon="4.45095">
        <ele>394</ele>
        <time>2022-06-26T08:31:58Z</time>
      </trkpt>
      <trkpt lat="45.92364" lon="4.45099">
        <ele>394.4</ele>
        <time>2022-06-26T08:31:59Z</time>
      </trkpt>
      <trkpt lat="45.92363" lon="4.45103">
        <ele>394.4</ele>
        <time>2022-06-26T08:32:00Z</time>
      </trkpt>
      <trkpt lat="45.92362" lon="4.45108">
        <ele>394.8</ele>
        <time>2022-06-26T08:32:01Z</time>
      </trkpt>
      <trkpt lat="45.92361" lon="4.45112">
        <ele>395</ele>
        <time>2022-06-26T08:32:02Z</time>
      </trkpt>
      <trkpt lat="45.9236" lon="4.45115">
        <ele>395.2</ele>
        <time>2022-06-26T08:32:03Z</time>
      </trkpt>
      <trkpt lat="45.92358" lon="4.45118">
        <ele>395.2</ele>
        <time>2022-06-26T08:32:04Z</time>
      </trkpt>
      <trkpt lat="45.92356" lon="4.4512">
        <ele>395.6</ele>
        <time>2022-06-26T08:32:05Z</time>
      </trkpt>
      <trkpt lat="45.92354" lon="4.45119">
        <ele>396</ele>
        <time>2022-06-26T08:32:06Z</time>
      </trkpt>
      <trkpt lat="45.92352" lon="4.45117">
        <ele>396.2</ele>
        <time>2022-06-26T08:32:07Z</time>
      </trkpt>
      <trkpt lat="45.92351" lon="4.45115">
        <ele>396.4</ele>
        <time>2022-06-26T08:32:08Z</time>
      </trkpt>
      <trkpt lat="45.9235" lon="4.45112">
        <ele>396.8</ele>
        <time>2022-06-26T08:32:09Z</time>
      </trkpt>
      <trkpt lat="45.9235" lon="4.4511">
        <ele>397</ele>
        <time>2022-06-26T08:32:10Z</time>
      </trkpt>
      <trkpt lat="45.92351" lon="4.45108">
        <ele>397.2</ele>
        <time>2022-06-26T08:32:11Z</time>
      </trkpt>
      <trkpt lat="45.92351" lon="4.45105">
        <ele>397.6</ele>
        <time>2022-06-26T08:32:12Z</time>
      </trkpt>
      <trkpt lat="45.92352" lon="4.45102">
        <ele>398</ele>
        <time>2022-06-26T08:32:13Z</time>
      </trkpt>
      <trkpt lat="45.92352" lon="4.45099">
        <ele>398.2</ele>
        <time>2022-06-26T08:32:14Z</time>
      </trkpt>
      <trkpt lat="45.92353" lon="4.45097">
        <ele>398.6</ele>
        <time>2022-06-26T08:32:15Z</time>
      </trkpt>
      <trkpt lat="45.92353" lon="4.45094">
        <ele>398.8</ele>
        <time>2022-06-26T08:32:16Z</time>
      </trkpt>
      <trkpt lat="45.92354" lon="4.45092">
        <ele>399</ele>
        <time>2022-06-26T08:32:17Z</time>
      </trkpt>
      <trkpt lat="45.92354" lon="4.45089">
        <ele>399.2</ele>
        <time>2022-06-26T08:32:18Z</time>
      </trkpt>
      <trkpt lat="45.92355" lon="4.45087">
        <ele>399.4</ele>
        <time>2022-06-26T08:32:19Z</time>
      </trkpt>
      <trkpt lat="45.92355" lon="4.45085">
        <ele>399.8</ele>
        <time>2022-06-26T08:32:20Z</time>
      </trkpt>
      <trkpt lat="45.92356" lon="4.45083">
        <ele>400</ele>
        <time>2022-06-26T08:32:21Z</time>
      </trkpt>
      <trkpt lat="45.92356" lon="4.4508">
        <ele>400.2</ele>
        <time>2022-06-26T08:32:22Z</time>
      </trkpt>
      <trkpt lat="45.92356" lon="4.45078">
        <ele>400.6</ele>
        <time>2022-06-26T08:32:23Z</time>
      </trkpt>
      <trkpt lat="45.92357" lon="4.45076">
        <ele>400.8</ele>
        <time>2022-06-26T08:32:24Z</time>
      </trkpt>
      <trkpt lat="45.92357" lon="4.45074">
        <ele>401.2</ele>
        <time>2022-06-26T08:32:25Z</time>
      </trkpt>
      <trkpt lat="45.92358" lon="4.45072">
        <ele>401.4</ele>
        <time>2022-06-26T08:32:26Z</time>
      </trkpt>
      <trkpt lat="45.92358" lon="4.45069">
        <ele>401.4</ele>
        <time>2022-06-26T08:32:27Z</time>
      </trkpt>
      <trkpt lat="45.92358" lon="4.45066">
        <ele>401.8</ele>
        <time>2022-06-26T08:32:28Z</time>
      </trkpt>
      <trkpt lat="45.92359" lon="4.45064">
        <ele>402</ele>
        <time>2022-06-26T08:32:29Z</time>
      </trkpt>
      <trkpt lat="45.9236" lon="4.45062">
        <ele>402.4</ele>
        <time>2022-06-26T08:32:30Z</time>
      </trkpt>
      <trkpt lat="45.92361" lon="4.4506">
        <ele>402.6</ele>
        <time>2022-06-26T08:32:31Z</time>
      </trkpt>
      <trkpt lat="45.92361" lon="4.45057">
        <ele>402.6</ele>
        <time>2022-06-26T08:32:32Z</time>
      </trkpt>
      <trkpt lat="45.92362" lon="4.45055">
        <ele>403.2</ele>
        <time>2022-06-26T08:32:33Z</time>
      </trkpt>
      <trkpt lat="45.92362" lon="4.45053">
        <ele>403.4</ele>
        <time>2022-06-26T08:32:34Z</time>
      </trkpt>
      <trkpt lat="45.92363" lon="4.4505">
        <ele>403.6</ele>
        <time>2022-06-26T08:32:35Z</time>
      </trkpt>
      <trkpt lat="45.92364" lon="4.45048">
        <ele>404</ele>
        <time>2022-06-26T08:32:36Z</time>
      </trkpt>
      <trkpt lat="45.92364" lon="4.45045">
        <ele>404.2</ele>
        <time>2022-06-26T08:32:37Z</time>
      </trkpt>
      <trkpt lat="45.92365" lon="4.45042">
        <ele>404.6</ele>
        <time>2022-06-26T08:32:38Z</time>
      </trkpt>
      <trkpt lat="45.92366" lon="4.4504">
        <ele>404.8</ele>
        <time>2022-06-26T08:32:39Z</time>
      </trkpt>
      <trkpt lat="45.92366" lon="4.45037">
        <ele>405</ele>
        <time>2022-06-26T08:32:40Z</time>
      </trkpt>
      <trkpt lat="45.92367" lon="4.45035">
        <ele>405.4</ele>
        <time>2022-06-26T08:32:41Z</time>
      </trkpt>
      <trkpt lat="45.92367" lon="4.45032">
        <ele>405.6</ele>
        <time>2022-06-26T08:32:42Z</time>
      </trkpt>
      <trkpt lat="45.92367" lon="4.45029">
        <ele>405.8</ele>
        <time>2022-06-26T08:32:43Z</time>
      </trkpt>
      <trkpt lat="45.92368" lon="4.45027">
        <ele>406.2</ele>
        <time>2022-06-26T08:32:44Z</time>
      </trkpt>
      <trkpt lat="45.92368" lon="4.45024">
        <ele>406.4</ele>
        <time>2022-06-26T08:32:45Z</time>
      </trkpt>
      <trkpt lat="45.92369" lon="4.45021">
        <ele>406.8</ele>
        <time>2022-06-26T08:32:46Z</time>
      </trkpt>
      <trkpt lat="45.92369" lon="4.45019">
        <ele>407.2</ele>
        <time>2022-06-26T08:32:47Z</time>
      </trkpt>
      <trkpt lat="45.92369" lon="4.45017">
        <ele>407.4</ele>
        <time>2022-06-26T08:32:48Z</time>
      </trkpt>
      <trkpt lat="45.9237" lon="4.45014">
        <ele>407.6</ele>
        <time>2022-06-26T08:32:49Z</time>
      </trkpt>
      <trkpt lat="45.92371" lon="4.45012">
        <ele>408</ele>
        <time>2022-06-26T08:32:50Z</time>
      </trkpt>
      <trkpt lat="45.92371" lon="4.4501">
        <ele>408.2</ele>
        <time>2022-06-26T08:32:51Z</time>
      </trkpt>
      <trkpt lat="45.92372" lon="4.45007">
        <ele>408.6</ele>
        <time>2022-06-26T08:32:52Z</time>
      </trkpt>
      <trkpt lat="45.92372" lon="4.45005">
        <ele>408.8</ele>
        <time>2022-06-26T08:32:53Z</time>
      </trkpt>
      <trkpt lat="45.92373" lon="4.45002">
        <ele>409.2</ele>
        <time>2022-06-26T08:32:54Z</time>
      </trkpt>
      <trkpt lat="45.92373" lon="4.44999">
        <ele>409.4</ele>
        <time>2022-06-26T08:32:55Z</time>
      </trkpt>
      <trkpt lat="45.92373" lon="4.44997">
        <ele>409.8</ele>
        <time>2022-06-26T08:32:56Z</time>
      </trkpt>
      <trkpt lat="45.92373" lon="4.44994">
        <ele>410</ele>
        <time>2022-06-26T08:32:57Z</time>
      </trkpt>
      <trkpt lat="45.92373" lon="4.44991">
        <ele>410.4</ele>
        <time>2022-06-26T08:32:58Z</time>
      </trkpt>
      <trkpt lat="45.92374" lon="4.44989">
        <ele>410.6</ele>
        <time>2022-06-26T08:32:59Z</time>
      </trkpt>
      <trkpt lat="45.92374" lon="4.44986">
        <ele>410.8</ele>
        <time>2022-06-26T08:33:00Z</time>
      </trkpt>
      <trkpt lat="45.92375" lon="4.44983">
        <ele>411.2</ele>
        <time>2022-06-26T08:33:01Z</time>
      </trkpt>
      <trkpt lat="45.92375" lon="4.4498">
        <ele>411.4</ele>
        <time>2022-06-26T08:33:02Z</time>
      </trkpt>
      <trkpt lat="45.92376" lon="4.44977">
        <ele>411.8</ele>
        <time>2022-06-26T08:33:03Z</time>
      </trkpt>
      <trkpt lat="45.92377" lon="4.44975">
        <ele>412</ele>
        <time>2022-06-26T08:33:04Z</time>
      </trkpt>
      <trkpt lat="45.92377" lon="4.44972">
        <ele>412.4</ele>
        <time>2022-06-26T08:33:05Z</time>
      </trkpt>
      <trkpt lat="45.92378" lon="4.4497">
        <ele>412.6</ele>
        <time>2022-06-26T08:33:06Z</time>
      </trkpt>
      <trkpt lat="45.92378" lon="4.44967">
        <ele>413</ele>
        <time>2022-06-26T08:33:07Z</time>
      </trkpt>
      <trkpt lat="45.92379" lon="4.44965">
        <ele>413.2</ele>
        <time>2022-06-26T08:33:08Z</time>
      </trkpt>
      <trkpt lat="45.9238" lon="4.44963">
        <ele>413.6</ele>
        <time>2022-06-26T08:33:09Z</time>
      </trkpt>
      <trkpt lat="45.9238" lon="4.4496">
        <ele>413.8</ele>
        <time>2022-06-26T08:33:10Z</time>
      </trkpt>
      <trkpt lat="45.92381" lon="4.44957">
        <ele>414</ele>
        <time>2022-06-26T08:33:11Z</time>
      </trkpt>
      <trkpt lat="45.92382" lon="4.44955">
        <ele>414.4</ele>
        <time>2022-06-26T08:33:12Z</time>
      </trkpt>
      <trkpt lat="45.92382" lon="4.44952">
        <ele>414.6</ele>
        <time>2022-06-26T08:33:13Z</time>
      </trkpt>
      <trkpt lat="45.92383" lon="4.4495">
        <ele>415</ele>
        <time>2022-06-26T08:33:14Z</time>
      </trkpt>
      <trkpt lat="45.92383" lon="4.44947">
        <ele>415.2</ele>
        <time>2022-06-26T08:33:15Z</time>
      </trkpt>
      <trkpt lat="45.92383" lon="4.44945">
        <ele>415.4</ele>
        <time>2022-06-26T08:33:16Z</time>
      </trkpt>
      <trkpt lat="45.92384" lon="4.44942">
        <ele>415.8</ele>
        <time>2022-06-26T08:33:17Z</time>
      </trkpt>
      <trkpt lat="45.92384" lon="4.4494">
        <ele>416</ele>
        <time>2022-06-26T08:33:18Z</time>
      </trkpt>
      <trkpt lat="45.92385" lon="4.44938">
        <ele>416.2</ele>
        <time>2022-06-26T08:33:19Z</time>
      </trkpt>
      <trkpt lat="45.92385" lon="4.44936">
        <ele>416.4</ele>
        <time>2022-06-26T08:33:20Z</time>
      </trkpt>
      <trkpt lat="45.92385" lon="4.44934">
        <ele>416.4</ele>
        <time>2022-06-26T08:33:21Z</time>
      </trkpt>
      <trkpt lat="45.92385" lon="4.44932">
        <ele>416.8</ele>
        <time>2022-06-26T08:33:22Z</time>
      </trkpt>
      <trkpt lat="45.92386" lon="4.4493">
        <ele>417</ele>
        <time>2022-06-26T08:33:23Z</time>
      </trkpt>
      <trkpt lat="45.92386" lon="4.44928">
        <ele>417.2</ele>
        <time>2022-06-26T08:33:24Z</time>
      </trkpt>
      <trkpt lat="45.92386" lon="4.44927">
        <ele>417.4</ele>
        <time>2022-06-26T08:33:25Z</time>
      </trkpt>
      <trkpt lat="45.92386" lon="4.44924">
        <ele>417.6</ele>
        <time>2022-06-26T08:33:26Z</time>
      </trkpt>
      <trkpt lat="45.92387" lon="4.44922">
        <ele>417.6</ele>
        <time>2022-06-26T08:33:27Z</time>
      </trkpt>
      <trkpt lat="45.92387" lon="4.4492">
        <ele>418</ele>
        <time>2022-06-26T08:33:28Z</time>
      </trkpt>
      <trkpt lat="45.92387" lon="4.44918">
        <ele>418.4</ele>
        <time>2022-06-26T08:33:29Z</time>
      </trkpt>
      <trkpt lat="45.92387" lon="4.44916">
        <ele>418.6</ele>
        <time>2022-06-26T08:33:30Z</time>
      </trkpt>
      <trkpt lat="45.92387" lon="4.44914">
        <ele>418.6</ele>
        <time>2022-06-26T08:33:31Z</time>
      </trkpt>
      <trkpt lat="45.92387" lon="4.44912">
        <ele>419</ele>
        <time>2022-06-26T08:33:32Z</time>
      </trkpt>
      <trkpt lat="45.92387" lon="4.4491">
        <ele>419.2</ele>
        <time>2022-06-26T08:33:33Z</time>
      </trkpt>
      <trkpt lat="45.92387" lon="4.44908">
        <ele>419.4</ele>
        <time>2022-06-26T08:33:34Z</time>
      </trkpt>
      <trkpt lat="45.92387" lon="4.44905">
        <ele>419.8</ele>
        <time>2022-06-26T08:33:35Z</time>
      </trkpt>
      <trkpt lat="45.92388" lon="4.44903">
        <ele>420</ele>
        <time>2022-06-26T08:33:36Z</time>
      </trkpt>
      <trkpt lat="45.92388" lon="4.44901">
        <ele>420.4</ele>
        <time>2022-06-26T08:33:37Z</time>
      </trkpt>
      <trkpt lat="45.92387" lon="4.44899">
        <ele>420.6</ele>
        <time>2022-06-26T08:33:38Z</time>
      </trkpt>
      <trkpt lat="45.92387" lon="4.44897">
        <ele>420.6</ele>
        <time>2022-06-26T08:33:39Z</time>
      </trkpt>
      <trkpt lat="45.92387" lon="4.44894">
        <ele>421</ele>
        <time>2022-06-26T08:33:40Z</time>
      </trkpt>
      <trkpt lat="45.92386" lon="4.44892">
        <ele>421</ele>
        <time>2022-06-26T08:33:41Z</time>
      </trkpt>
      <trkpt lat="45.92386" lon="4.4489">
        <ele>421.4</ele>
        <time>2022-06-26T08:33:42Z</time>
      </trkpt>
      <trkpt lat="45.92385" lon="4.44888">
        <ele>421.6</ele>
        <time>2022-06-26T08:33:43Z</time>
      </trkpt>
      <trkpt lat="45.92385" lon="4.44886">
        <ele>421.8</ele>
        <time>2022-06-26T08:33:44Z</time>
      </trkpt>
      <trkpt lat="45.92384" lon="4.44884">
        <ele>422.2</ele>
        <time>2022-06-26T08:33:45Z</time>
      </trkpt>
      <trkpt lat="45.92383" lon="4.44882">
        <ele>422.4</ele>
        <time>2022-06-26T08:33:46Z</time>
      </trkpt>
      <trkpt lat="45.92382" lon="4.4488">
        <ele>422.8</ele>
        <time>2022-06-26T08:33:47Z</time>
      </trkpt>
      <trkpt lat="45.92381" lon="4.44878">
        <ele>423</ele>
        <time>2022-06-26T08:33:48Z</time>
      </trkpt>
      <trkpt lat="45.9238" lon="4.44876">
        <ele>423.4</ele>
        <time>2022-06-26T08:33:49Z</time>
      </trkpt>
      <trkpt lat="45.9238" lon="4.44874">
        <ele>423.4</ele>
        <time>2022-06-26T08:33:50Z</time>
      </trkpt>
      <trkpt lat="45.92379" lon="4.44872">
        <ele>423.8</ele>
        <time>2022-06-26T08:33:51Z</time>
      </trkpt>
      <trkpt lat="45.92378" lon="4.4487">
        <ele>424</ele>
        <time>2022-06-26T08:33:52Z</time>
      </trkpt>
      <trkpt lat="45.92377" lon="4.44868">
        <ele>424.2</ele>
        <time>2022-06-26T08:33:53Z</time>
      </trkpt>
      <trkpt lat="45.92376" lon="4.44867">
        <ele>424.4</ele>
        <time>2022-06-26T08:33:54Z</time>
      </trkpt>
      <trkpt lat="45.92374" lon="4.44865">
        <ele>424.8</ele>
        <time>2022-06-26T08:33:55Z</time>
      </trkpt>
      <trkpt lat="45.92373" lon="4.44863">
        <ele>425</ele>
        <time>2022-06-26T08:33:56Z</time>
      </trkpt>
      <trkpt lat="45.92371" lon="4.44859">
        <ele>425</ele>
        <time>2022-06-26T08:33:57Z</time>
      </trkpt>
      <trkpt lat="45.9237" lon="4.44857">
        <ele>425.4</ele>
        <time>2022-06-26T08:33:58Z</time>
      </trkpt>
      <trkpt lat="45.92369" lon="4.44855">
        <ele>425.4</ele>
        <time>2022-06-26T08:33:59Z</time>
      </trkpt>
      <trkpt lat="45.92368" lon="4.44853">
        <ele>425.8</ele>
        <time>2022-06-26T08:34:00Z</time>
      </trkpt>
      <trkpt lat="45.92367" lon="4.44851">
        <ele>425.8</ele>
        <time>2022-06-26T08:34:01Z</time>
      </trkpt>
      <trkpt lat="45.92366" lon="4.44849">
        <ele>426.2</ele>
        <time>2022-06-26T08:34:02Z</time>
      </trkpt>
      <trkpt lat="45.92365" lon="4.44847">
        <ele>426.4</ele>
        <time>2022-06-26T08:34:03Z</time>
      </trkpt>
      <trkpt lat="45.92364" lon="4.44845">
        <ele>426.6</ele>
        <time>2022-06-26T08:34:04Z</time>
      </trkpt>
      <trkpt lat="45.92363" lon="4.44843">
        <ele>427</ele>
        <time>2022-06-26T08:34:05Z</time>
      </trkpt>
      <trkpt lat="45.92362" lon="4.44841">
        <ele>427.2</ele>
        <time>2022-06-26T08:34:06Z</time>
      </trkpt>
      <trkpt lat="45.92361" lon="4.44839">
        <ele>427.4</ele>
        <time>2022-06-26T08:34:07Z</time>
      </trkpt>
      <trkpt lat="45.9236" lon="4.44837">
        <ele>427.6</ele>
        <time>2022-06-26T08:34:08Z</time>
      </trkpt>
      <trkpt lat="45.92358" lon="4.44835">
        <ele>428</ele>
        <time>2022-06-26T08:34:09Z</time>
      </trkpt>
      <trkpt lat="45.92357" lon="4.44833">
        <ele>428.2</ele>
        <time>2022-06-26T08:34:10Z</time>
      </trkpt>
      <trkpt lat="45.92356" lon="4.44831">
        <ele>428.4</ele>
        <time>2022-06-26T08:34:11Z</time>
      </trkpt>
      <trkpt lat="45.92355" lon="4.44829">
        <ele>428.6</ele>
        <time>2022-06-26T08:34:12Z</time>
      </trkpt>
      <trkpt lat="45.92354" lon="4.44826">
        <ele>428.6</ele>
        <time>2022-06-26T08:34:13Z</time>
      </trkpt>
      <trkpt lat="45.92353" lon="4.44824">
        <ele>429</ele>
        <time>2022-06-26T08:34:14Z</time>
      </trkpt>
      <trkpt lat="45.92352" lon="4.44822">
        <ele>429</ele>
        <time>2022-06-26T08:34:15Z</time>
      </trkpt>
      <trkpt lat="45.92351" lon="4.4482">
        <ele>429.4</ele>
        <time>2022-06-26T08:34:16Z</time>
      </trkpt>
      <trkpt lat="45.9235" lon="4.44818">
        <ele>429.6</ele>
        <time>2022-06-26T08:34:17Z</time>
      </trkpt>
      <trkpt lat="45.92349" lon="4.44816">
        <ele>429.8</ele>
        <time>2022-06-26T08:34:18Z</time>
      </trkpt>
      <trkpt lat="45.92348" lon="4.44814">
        <ele>430</ele>
        <time>2022-06-26T08:34:19Z</time>
      </trkpt>
      <trkpt lat="45.92347" lon="4.44812">
        <ele>430.2</ele>
        <time>2022-06-26T08:34:20Z</time>
      </trkpt>
      <trkpt lat="45.92347" lon="4.4481">
        <ele>430.6</ele>
        <time>2022-06-26T08:34:21Z</time>
      </trkpt>
      <trkpt lat="45.92346" lon="4.44808">
        <ele>430.8</ele>
        <time>2022-06-26T08:34:22Z</time>
      </trkpt>
      <trkpt lat="45.92345" lon="4.44806">
        <ele>430.8</ele>
        <time>2022-06-26T08:34:23Z</time>
      </trkpt>
      <trkpt lat="45.92344" lon="4.44804">
        <ele>431.2</ele>
        <time>2022-06-26T08:34:24Z</time>
      </trkpt>
      <trkpt lat="45.92343" lon="4.44802">
        <ele>431.6</ele>
        <time>2022-06-26T08:34:25Z</time>
      </trkpt>
      <trkpt lat="45.92342" lon="4.448">
        <ele>431.8</ele>
        <time>2022-06-26T08:34:26Z</time>
      </trkpt>
      <trkpt lat="45.92341" lon="4.44798">
        <ele>431.8</ele>
        <time>2022-06-26T08:34:27Z</time>
      </trkpt>
      <trkpt lat="45.9234" lon="4.44796">
        <ele>432</ele>
        <time>2022-06-26T08:34:28Z</time>
      </trkpt>
      <trkpt lat="45.92339" lon="4.44794">
        <ele>432.4</ele>
        <time>2022-06-26T08:34:29Z</time>
      </trkpt>
      <trkpt lat="45.92338" lon="4.44792">
        <ele>432.6</ele>
        <time>2022-06-26T08:34:30Z</time>
      </trkpt>
      <trkpt lat="45.92337" lon="4.44791">
        <ele>433</ele>
        <time>2022-06-26T08:34:31Z</time>
      </trkpt>
      <trkpt lat="45.92336" lon="4.44789">
        <ele>433.2</ele>
        <time>2022-06-26T08:34:32Z</time>
      </trkpt>
      <trkpt lat="45.92335" lon="4.44787">
        <ele>433.4</ele>
        <time>2022-06-26T08:34:33Z</time>
      </trkpt>
      <trkpt lat="45.92334" lon="4.44786">
        <ele>433.6</ele>
        <time>2022-06-26T08:34:34Z</time>
      </trkpt>
      <trkpt lat="45.92333" lon="4.44784">
        <ele>433.8</ele>
        <time>2022-06-26T08:34:35Z</time>
      </trkpt>
      <trkpt lat="45.92331" lon="4.44783">
        <ele>434</ele>
        <time>2022-06-26T08:34:36Z</time>
      </trkpt>
      <trkpt lat="45.9233" lon="4.44781">
        <ele>434</ele>
        <time>2022-06-26T08:34:37Z</time>
      </trkpt>
      <trkpt lat="45.92329" lon="4.4478">
        <ele>434.4</ele>
        <time>2022-06-26T08:34:38Z</time>
      </trkpt>
      <trkpt lat="45.92328" lon="4.44778">
        <ele>434.6</ele>
        <time>2022-06-26T08:34:39Z</time>
      </trkpt>
      <trkpt lat="45.92327" lon="4.44777">
        <ele>434.8</ele>
        <time>2022-06-26T08:34:40Z</time>
      </trkpt>
      <trkpt lat="45.92326" lon="4.44776">
        <ele>435</ele>
        <time>2022-06-26T08:34:41Z</time>
      </trkpt>
      <trkpt lat="45.92325" lon="4.44774">
        <ele>435</ele>
        <time>2022-06-26T08:34:42Z</time>
      </trkpt>
      <trkpt lat="45.92324" lon="4.44773">
        <ele>435.4</ele>
        <time>2022-06-26T08:34:43Z</time>
      </trkpt>
      <trkpt lat="45.92323" lon="4.44771">
        <ele>435.4</ele>
        <time>2022-06-26T08:34:44Z</time>
      </trkpt>
      <trkpt lat="45.92322" lon="4.4477">
        <ele>435.8</ele>
        <time>2022-06-26T08:34:45Z</time>
      </trkpt>
      <trkpt lat="45.9232" lon="4.44769">
        <ele>435.8</ele>
        <time>2022-06-26T08:34:46Z</time>
      </trkpt>
      <trkpt lat="45.92319" lon="4.44768">
        <ele>436.2</ele>
        <time>2022-06-26T08:34:47Z</time>
      </trkpt>
      <trkpt lat="45.92318" lon="4.44766">
        <ele>436.4</ele>
        <time>2022-06-26T08:34:48Z</time>
      </trkpt>
      <trkpt lat="45.92317" lon="4.44765">
        <ele>436.4</ele>
        <time>2022-06-26T08:34:49Z</time>
      </trkpt>
      <trkpt lat="45.92316" lon="4.44764">
        <ele>436.8</ele>
        <time>2022-06-26T08:34:50Z</time>
      </trkpt>
      <trkpt lat="45.92315" lon="4.44763">
        <ele>437</ele>
        <time>2022-06-26T08:34:51Z</time>
      </trkpt>
      <trkpt lat="45.92314" lon="4.44761">
        <ele>437</ele>
        <time>2022-06-26T08:34:52Z</time>
      </trkpt>
      <trkpt lat="45.92313" lon="4.4476">
        <ele>437.4</ele>
        <time>2022-06-26T08:34:53Z</time>
      </trkpt>
      <trkpt lat="45.92312" lon="4.44758">
        <ele>437.4</ele>
        <time>2022-06-26T08:34:54Z</time>
      </trkpt>
      <trkpt lat="45.9231" lon="4.44757">
        <ele>437.8</ele>
        <time>2022-06-26T08:34:55Z</time>
      </trkpt>
      <trkpt lat="45.92309" lon="4.44757">
        <ele>437.8</ele>
        <time>2022-06-26T08:34:56Z</time>
      </trkpt>
      <trkpt lat="45.92307" lon="4.44756">
        <ele>438</ele>
        <time>2022-06-26T08:34:57Z</time>
      </trkpt>
      <trkpt lat="45.92306" lon="4.44755">
        <ele>438</ele>
        <time>2022-06-26T08:34:58Z</time>
      </trkpt>
      <trkpt lat="45.92305" lon="4.44754">
        <ele>438.4</ele>
        <time>2022-06-26T08:34:59Z</time>
      </trkpt>
      <trkpt lat="45.92304" lon="4.44753">
        <ele>438.6</ele>
        <time>2022-06-26T08:35:00Z</time>
      </trkpt>
      <trkpt lat="45.92302" lon="4.44752">
        <ele>438.8</ele>
        <time>2022-06-26T08:35:01Z</time>
      </trkpt>
      <trkpt lat="45.923" lon="4.44751">
        <ele>439</ele>
        <time>2022-06-26T08:35:02Z</time>
      </trkpt>
      <trkpt lat="45.92299" lon="4.4475">
        <ele>439</ele>
        <time>2022-06-26T08:35:03Z</time>
      </trkpt>
      <trkpt lat="45.92297" lon="4.44749">
        <ele>439.4</ele>
        <time>2022-06-26T08:35:04Z</time>
      </trkpt>
      <trkpt lat="45.92296" lon="4.44748">
        <ele>439.4</ele>
        <time>2022-06-26T08:35:05Z</time>
      </trkpt>
      <trkpt lat="45.92295" lon="4.44747">
        <ele>439.8</ele>
        <time>2022-06-26T08:35:06Z</time>
      </trkpt>
      <trkpt lat="45.92293" lon="4.44746">
        <ele>440</ele>
        <time>2022-06-26T08:35:07Z</time>
      </trkpt>
      <trkpt lat="45.92292" lon="4.44745">
        <ele>440.2</ele>
        <time>2022-06-26T08:35:08Z</time>
      </trkpt>
      <trkpt lat="45.9229" lon="4.44744">
        <ele>440.2</ele>
        <time>2022-06-26T08:35:09Z</time>
      </trkpt>
      <trkpt lat="45.92288" lon="4.44743">
        <ele>440.6</ele>
        <time>2022-06-26T08:35:10Z</time>
      </trkpt>
      <trkpt lat="45.92287" lon="4.44743">
        <ele>440.8</ele>
        <time>2022-06-26T08:35:11Z</time>
      </trkpt>
      <trkpt lat="45.92285" lon="4.44742">
        <ele>440.8</ele>
        <time>2022-06-26T08:35:12Z</time>
      </trkpt>
      <trkpt lat="45.92284" lon="4.44741">
        <ele>441.2</ele>
        <time>2022-06-26T08:35:13Z</time>
      </trkpt>
      <trkpt lat="45.92283" lon="4.4474">
        <ele>441.2</ele>
        <time>2022-06-26T08:35:14Z</time>
      </trkpt>
      <trkpt lat="45.92281" lon="4.44739">
        <ele>441.6</ele>
        <time>2022-06-26T08:35:15Z</time>
      </trkpt>
      <trkpt lat="45.9228" lon="4.44738">
        <ele>441.6</ele>
        <time>2022-06-26T08:35:16Z</time>
      </trkpt>
      <trkpt lat="45.92278" lon="4.44737">
        <ele>441.8</ele>
        <time>2022-06-26T08:35:17Z</time>
      </trkpt>
      <trkpt lat="45.92277" lon="4.44736">
        <ele>441.8</ele>
        <time>2022-06-26T08:35:18Z</time>
      </trkpt>
      <trkpt lat="45.92276" lon="4.44735">
        <ele>442.2</ele>
        <time>2022-06-26T08:35:19Z</time>
      </trkpt>
      <trkpt lat="45.92274" lon="4.44735">
        <ele>442.6</ele>
        <time>2022-06-26T08:35:20Z</time>
      </trkpt>
      <trkpt lat="45.92272" lon="4.44734">
        <ele>442.8</ele>
        <time>2022-06-26T08:35:21Z</time>
      </trkpt>
      <trkpt lat="45.92271" lon="4.44733">
        <ele>443</ele>
        <time>2022-06-26T08:35:22Z</time>
      </trkpt>
      <trkpt lat="45.92269" lon="4.44732">
        <ele>443</ele>
        <time>2022-06-26T08:35:23Z</time>
      </trkpt>
      <trkpt lat="45.92268" lon="4.44731">
        <ele>443.4</ele>
        <time>2022-06-26T08:35:24Z</time>
      </trkpt>
      <trkpt lat="45.92266" lon="4.4473">
        <ele>443.6</ele>
        <time>2022-06-26T08:35:25Z</time>
      </trkpt>
      <trkpt lat="45.92265" lon="4.44729">
        <ele>443.6</ele>
        <time>2022-06-26T08:35:26Z</time>
      </trkpt>
      <trkpt lat="45.92264" lon="4.44728">
        <ele>444</ele>
        <time>2022-06-26T08:35:27Z</time>
      </trkpt>
      <trkpt lat="45.92262" lon="4.44727">
        <ele>444</ele>
        <time>2022-06-26T08:35:28Z</time>
      </trkpt>
      <trkpt lat="45.92261" lon="4.44725">
        <ele>444.4</ele>
        <time>2022-06-26T08:35:29Z</time>
      </trkpt>
      <trkpt lat="45.92259" lon="4.44725">
        <ele>444.4</ele>
        <time>2022-06-26T08:35:30Z</time>
      </trkpt>
      <trkpt lat="45.92258" lon="4.44724">
        <ele>444.8</ele>
        <time>2022-06-26T08:35:31Z</time>
      </trkpt>
      <trkpt lat="45.92257" lon="4.44723">
        <ele>445</ele>
        <time>2022-06-26T08:35:32Z</time>
      </trkpt>
      <trkpt lat="45.92255" lon="4.44722">
        <ele>445</ele>
        <time>2022-06-26T08:35:33Z</time>
      </trkpt>
      <trkpt lat="45.92254" lon="4.4472">
        <ele>445.4</ele>
        <time>2022-06-26T08:35:34Z</time>
      </trkpt>
      <trkpt lat="45.92253" lon="4.44719">
        <ele>445.4</ele>
        <time>2022-06-26T08:35:35Z</time>
      </trkpt>
      <trkpt lat="45.92251" lon="4.44718">
        <ele>445.8</ele>
        <time>2022-06-26T08:35:36Z</time>
      </trkpt>
      <trkpt lat="45.9225" lon="4.44717">
        <ele>446</ele>
        <time>2022-06-26T08:35:37Z</time>
      </trkpt>
      <trkpt lat="45.92248" lon="4.44716">
        <ele>446</ele>
        <time>2022-06-26T08:35:38Z</time>
      </trkpt>
      <trkpt lat="45.92246" lon="4.44715">
        <ele>446.4</ele>
        <time>2022-06-26T08:35:39Z</time>
      </trkpt>
      <trkpt lat="45.92245" lon="4.44714">
        <ele>446.8</ele>
        <time>2022-06-26T08:35:40Z</time>
      </trkpt>
      <trkpt lat="45.92243" lon="4.44712">
        <ele>447</ele>
        <time>2022-06-26T08:35:41Z</time>
      </trkpt>
      <trkpt lat="45.92242" lon="4.44711">
        <ele>447.2</ele>
        <time>2022-06-26T08:35:42Z</time>
      </trkpt>
      <trkpt lat="45.92241" lon="4.4471">
        <ele>447.4</ele>
        <time>2022-06-26T08:35:43Z</time>
      </trkpt>
      <trkpt lat="45.9224" lon="4.44708">
        <ele>447.4</ele>
        <time>2022-06-26T08:35:44Z</time>
      </trkpt>
      <trkpt lat="45.92238" lon="4.44707">
        <ele>447.8</ele>
        <time>2022-06-26T08:35:45Z</time>
      </trkpt>
      <trkpt lat="45.92237" lon="4.44705">
        <ele>448</ele>
        <time>2022-06-26T08:35:46Z</time>
      </trkpt>
      <trkpt lat="45.92236" lon="4.44704">
        <ele>448</ele>
        <time>2022-06-26T08:35:47Z</time>
      </trkpt>
      <trkpt lat="45.92235" lon="4.44702">
        <ele>448.4</ele>
        <time>2022-06-26T08:35:48Z</time>
      </trkpt>
      <trkpt lat="45.92234" lon="4.447">
        <ele>448.6</ele>
        <time>2022-06-26T08:35:49Z</time>
      </trkpt>
      <trkpt lat="45.92232" lon="4.44699">
        <ele>448.8</ele>
        <time>2022-06-26T08:35:50Z</time>
      </trkpt>
      <trkpt lat="45.92231" lon="4.44698">
        <ele>449</ele>
        <time>2022-06-26T08:35:51Z</time>
      </trkpt>
      <trkpt lat="45.9223" lon="4.44697">
        <ele>449</ele>
        <time>2022-06-26T08:35:52Z</time>
      </trkpt>
      <trkpt lat="45.92229" lon="4.44695">
        <ele>449.4</ele>
        <time>2022-06-26T08:35:53Z</time>
      </trkpt>
      <trkpt lat="45.92227" lon="4.44694">
        <ele>449.4</ele>
        <time>2022-06-26T08:35:54Z</time>
      </trkpt>
      <trkpt lat="45.92226" lon="4.44693">
        <ele>449.8</ele>
        <time>2022-06-26T08:35:55Z</time>
      </trkpt>
      <trkpt lat="45.92225" lon="4.44692">
        <ele>450</ele>
        <time>2022-06-26T08:35:56Z</time>
      </trkpt>
      <trkpt lat="45.92223" lon="4.44691">
        <ele>450.2</ele>
        <time>2022-06-26T08:35:57Z</time>
      </trkpt>
      <trkpt lat="45.92222" lon="4.4469">
        <ele>450.2</ele>
        <time>2022-06-26T08:35:58Z</time>
      </trkpt>
      <trkpt lat="45.92221" lon="4.4469">
        <ele>450.8</ele>
        <time>2022-06-26T08:35:59Z</time>
      </trkpt>
      <trkpt lat="45.92219" lon="4.44688">
        <ele>450.8</ele>
        <time>2022-06-26T08:36:00Z</time>
      </trkpt>
      <trkpt lat="45.92218" lon="4.44687">
        <ele>451</ele>
        <time>2022-06-26T08:36:01Z</time>
      </trkpt>
      <trkpt lat="45.92217" lon="4.44686">
        <ele>451</ele>
        <time>2022-06-26T08:36:02Z</time>
      </trkpt>
      <trkpt lat="45.92215" lon="4.44685">
        <ele>451.4</ele>
        <time>2022-06-26T08:36:03Z</time>
      </trkpt>
      <trkpt lat="45.92214" lon="4.44685">
        <ele>451.8</ele>
        <time>2022-06-26T08:36:04Z</time>
      </trkpt>
      <trkpt lat="45.92212" lon="4.44684">
        <ele>451.8</ele>
        <time>2022-06-26T08:36:05Z</time>
      </trkpt>
      <trkpt lat="45.92211" lon="4.44683">
        <ele>452</ele>
        <time>2022-06-26T08:36:06Z</time>
      </trkpt>
      <trkpt lat="45.9221" lon="4.44682">
        <ele>452.4</ele>
        <time>2022-06-26T08:36:07Z</time>
      </trkpt>
      <trkpt lat="45.92208" lon="4.4468">
        <ele>452.6</ele>
        <time>2022-06-26T08:36:08Z</time>
      </trkpt>
      <trkpt lat="45.92207" lon="4.4468">
        <ele>453</ele>
        <time>2022-06-26T08:36:09Z</time>
      </trkpt>
      <trkpt lat="45.92206" lon="4.44679">
        <ele>453.2</ele>
        <time>2022-06-26T08:36:10Z</time>
      </trkpt>
      <trkpt lat="45.92204" lon="4.44678">
        <ele>453.2</ele>
        <time>2022-06-26T08:36:11Z</time>
      </trkpt>
      <trkpt lat="45.92203" lon="4.44677">
        <ele>453.6</ele>
        <time>2022-06-26T08:36:12Z</time>
      </trkpt>
      <trkpt lat="45.92202" lon="4.44676">
        <ele>453.6</ele>
        <time>2022-06-26T08:36:13Z</time>
      </trkpt>
      <trkpt lat="45.92201" lon="4.44675">
        <ele>454</ele>
        <time>2022-06-26T08:36:14Z</time>
      </trkpt>
      <trkpt lat="45.92199" lon="4.44674">
        <ele>454.2</ele>
        <time>2022-06-26T08:36:15Z</time>
      </trkpt>
      <trkpt lat="45.92198" lon="4.44673">
        <ele>454.2</ele>
        <time>2022-06-26T08:36:16Z</time>
      </trkpt>
      <trkpt lat="45.92197" lon="4.44672">
        <ele>454.6</ele>
        <time>2022-06-26T08:36:17Z</time>
      </trkpt>
      <trkpt lat="45.92195" lon="4.44671">
        <ele>454.8</ele>
        <time>2022-06-26T08:36:18Z</time>
      </trkpt>
      <trkpt lat="45.92194" lon="4.4467">
        <ele>455</ele>
        <time>2022-06-26T08:36:19Z</time>
      </trkpt>
      <trkpt lat="45.92193" lon="4.44669">
        <ele>455.2</ele>
        <time>2022-06-26T08:36:20Z</time>
      </trkpt>
      <trkpt lat="45.92191" lon="4.44668">
        <ele>455.4</ele>
        <time>2022-06-26T08:36:21Z</time>
      </trkpt>
      <trkpt lat="45.9219" lon="4.44667">
        <ele>455.8</ele>
        <time>2022-06-26T08:36:22Z</time>
      </trkpt>
      <trkpt lat="45.92188" lon="4.44666">
        <ele>456</ele>
        <time>2022-06-26T08:36:23Z</time>
      </trkpt>
      <trkpt lat="45.92187" lon="4.44665">
        <ele>456.2</ele>
        <time>2022-06-26T08:36:24Z</time>
      </trkpt>
      <trkpt lat="45.92186" lon="4.44664">
        <ele>456.6</ele>
        <time>2022-06-26T08:36:25Z</time>
      </trkpt>
      <trkpt lat="45.92184" lon="4.44663">
        <ele>456.8</ele>
        <time>2022-06-26T08:36:26Z</time>
      </trkpt>
      <trkpt lat="45.92183" lon="4.44662">
        <ele>457</ele>
        <time>2022-06-26T08:36:27Z</time>
      </trkpt>
      <trkpt lat="45.92181" lon="4.44661">
        <ele>457.2</ele>
        <time>2022-06-26T08:36:28Z</time>
      </trkpt>
      <trkpt lat="45.9218" lon="4.44661">
        <ele>457.2</ele>
        <time>2022-06-26T08:36:29Z</time>
      </trkpt>
      <trkpt lat="45.92178" lon="4.4466">
        <ele>457.8</ele>
        <time>2022-06-26T08:36:30Z</time>
      </trkpt>
      <trkpt lat="45.92177" lon="4.44659">
        <ele>458</ele>
        <time>2022-06-26T08:36:31Z</time>
      </trkpt>
      <trkpt lat="45.92175" lon="4.44658">
        <ele>458.2</ele>
        <time>2022-06-26T08:36:32Z</time>
      </trkpt>
      <trkpt lat="45.92174" lon="4.44657">
        <ele>458.6</ele>
        <time>2022-06-26T08:36:33Z</time>
      </trkpt>
      <trkpt lat="45.92173" lon="4.44656">
        <ele>458.8</ele>
        <time>2022-06-26T08:36:34Z</time>
      </trkpt>
      <trkpt lat="45.92171" lon="4.44655">
        <ele>459</ele>
        <time>2022-06-26T08:36:35Z</time>
      </trkpt>
      <trkpt lat="45.9217" lon="4.44655">
        <ele>459.2</ele>
        <time>2022-06-26T08:36:36Z</time>
      </trkpt>
      <trkpt lat="45.92168" lon="4.44654">
        <ele>459.4</ele>
        <time>2022-06-26T08:36:37Z</time>
      </trkpt>
      <trkpt lat="45.92167" lon="4.44653">
        <ele>459.4</ele>
        <time>2022-06-26T08:36:38Z</time>
      </trkpt>
      <trkpt lat="45.92165" lon="4.44653">
        <ele>459.8</ele>
        <time>2022-06-26T08:36:39Z</time>
      </trkpt>
      <trkpt lat="45.92163" lon="4.44652">
        <ele>460</ele>
        <time>2022-06-26T08:36:40Z</time>
      </trkpt>
      <trkpt lat="45.92162" lon="4.44652">
        <ele>460.4</ele>
        <time>2022-06-26T08:36:41Z</time>
      </trkpt>
      <trkpt lat="45.92161" lon="4.44651">
        <ele>460.6</ele>
        <time>2022-06-26T08:36:42Z</time>
      </trkpt>
      <trkpt lat="45.92159" lon="4.4465">
        <ele>460.6</ele>
        <time>2022-06-26T08:36:43Z</time>
      </trkpt>
      <trkpt lat="45.92158" lon="4.4465">
        <ele>461</ele>
        <time>2022-06-26T08:36:44Z</time>
      </trkpt>
      <trkpt lat="45.92157" lon="4.44649">
        <ele>461.2</ele>
        <time>2022-06-26T08:36:45Z</time>
      </trkpt>
      <trkpt lat="45.92155" lon="4.44648">
        <ele>461.4</ele>
        <time>2022-06-26T08:36:46Z</time>
      </trkpt>
      <trkpt lat="45.92154" lon="4.44648">
        <ele>461.8</ele>
        <time>2022-06-26T08:36:47Z</time>
      </trkpt>
      <trkpt lat="45.92152" lon="4.44648">
        <ele>461.8</ele>
        <time>2022-06-26T08:36:48Z</time>
      </trkpt>
      <trkpt lat="45.92151" lon="4.44648">
        <ele>462</ele>
        <time>2022-06-26T08:36:49Z</time>
      </trkpt>
      <trkpt lat="45.92149" lon="4.44647">
        <ele>462.4</ele>
        <time>2022-06-26T08:36:50Z</time>
      </trkpt>
      <trkpt lat="45.92148" lon="4.44647">
        <ele>462.6</ele>
        <time>2022-06-26T08:36:51Z</time>
      </trkpt>
      <trkpt lat="45.92146" lon="4.44646">
        <ele>463</ele>
        <time>2022-06-26T08:36:52Z</time>
      </trkpt>
      <trkpt lat="45.92144" lon="4.44646">
        <ele>463.2</ele>
        <time>2022-06-26T08:36:53Z</time>
      </trkpt>
      <trkpt lat="45.92142" lon="4.44645">
        <ele>463.4</ele>
        <time>2022-06-26T08:36:54Z</time>
      </trkpt>
      <trkpt lat="45.9214" lon="4.44644">
        <ele>463.4</ele>
        <time>2022-06-26T08:36:55Z</time>
      </trkpt>
      <trkpt lat="45.92138" lon="4.44643">
        <ele>463.8</ele>
        <time>2022-06-26T08:36:56Z</time>
      </trkpt>
      <trkpt lat="45.92136" lon="4.44643">
        <ele>464.2</ele>
        <time>2022-06-26T08:36:57Z</time>
      </trkpt>
      <trkpt lat="45.92135" lon="4.44642">
        <ele>464.2</ele>
        <time>2022-06-26T08:36:58Z</time>
      </trkpt>
      <trkpt lat="45.92133" lon="4.44642">
        <ele>464.4</ele>
        <time>2022-06-26T08:36:59Z</time>
      </trkpt>
      <trkpt lat="45.92132" lon="4.44641">
        <ele>464.8</ele>
        <time>2022-06-26T08:37:00Z</time>
      </trkpt>
      <trkpt lat="45.9213" lon="4.4464">
        <ele>465</ele>
        <time>2022-06-26T08:37:01Z</time>
      </trkpt>
      <trkpt lat="45.92129" lon="4.4464">
        <ele>465.4</ele>
        <time>2022-06-26T08:37:02Z</time>
      </trkpt>
      <trkpt lat="45.92127" lon="4.44639">
        <ele>465.6</ele>
        <time>2022-06-26T08:37:03Z</time>
      </trkpt>
      <trkpt lat="45.92126" lon="4.44638">
        <ele>465.8</ele>
        <time>2022-06-26T08:37:04Z</time>
      </trkpt>
      <trkpt lat="45.92124" lon="4.44637">
        <ele>466</ele>
        <time>2022-06-26T08:37:05Z</time>
      </trkpt>
      <trkpt lat="45.92123" lon="4.44636">
        <ele>466.4</ele>
        <time>2022-06-26T08:37:06Z</time>
      </trkpt>
      <trkpt lat="45.92122" lon="4.44635">
        <ele>466.6</ele>
        <time>2022-06-26T08:37:07Z</time>
      </trkpt>
      <trkpt lat="45.9212" lon="4.44634">
        <ele>466.8</ele>
        <time>2022-06-26T08:37:08Z</time>
      </trkpt>
      <trkpt lat="45.92119" lon="4.44633">
        <ele>467</ele>
        <time>2022-06-26T08:37:09Z</time>
      </trkpt>
      <trkpt lat="45.92118" lon="4.44632">
        <ele>467</ele>
        <time>2022-06-26T08:37:10Z</time>
      </trkpt>
      <trkpt lat="45.92116" lon="4.44631">
        <ele>467.4</ele>
        <time>2022-06-26T08:37:11Z</time>
      </trkpt>
      <trkpt lat="45.92115" lon="4.4463">
        <ele>467.6</ele>
        <time>2022-06-26T08:37:12Z</time>
      </trkpt>
      <trkpt lat="45.92114" lon="4.44629">
        <ele>468</ele>
        <time>2022-06-26T08:37:13Z</time>
      </trkpt>
      <trkpt lat="45.92113" lon="4.44629">
        <ele>468.2</ele>
        <time>2022-06-26T08:37:14Z</time>
      </trkpt>
      <trkpt lat="45.92112" lon="4.44628">
        <ele>468.4</ele>
        <time>2022-06-26T08:37:15Z</time>
      </trkpt>
      <trkpt lat="45.9211" lon="4.44627">
        <ele>468.6</ele>
        <time>2022-06-26T08:37:16Z</time>
      </trkpt>
      <trkpt lat="45.92108" lon="4.44626">
        <ele>468.8</ele>
        <time>2022-06-26T08:37:17Z</time>
      </trkpt>
      <trkpt lat="45.92107" lon="4.44625">
        <ele>469</ele>
        <time>2022-06-26T08:37:18Z</time>
      </trkpt>
      <trkpt lat="45.92105" lon="4.44624">
        <ele>469.4</ele>
        <time>2022-06-26T08:37:19Z</time>
      </trkpt>
      <trkpt lat="45.92104" lon="4.44623">
        <ele>469.6</ele>
        <time>2022-06-26T08:37:20Z</time>
      </trkpt>
      <trkpt lat="45.92103" lon="4.44622">
        <ele>469.8</ele>
        <time>2022-06-26T08:37:21Z</time>
      </trkpt>
      <trkpt lat="45.92101" lon="4.44621">
        <ele>470</ele>
        <time>2022-06-26T08:37:22Z</time>
      </trkpt>
      <trkpt lat="45.921" lon="4.44621">
        <ele>470</ele>
        <time>2022-06-26T08:37:23Z</time>
      </trkpt>
      <trkpt lat="45.92098" lon="4.4462">
        <ele>470.4</ele>
        <time>2022-06-26T08:37:24Z</time>
      </trkpt>
      <trkpt lat="45.92096" lon="4.44619">
        <ele>470.4</ele>
        <time>2022-06-26T08:37:25Z</time>
      </trkpt>
      <trkpt lat="45.92094" lon="4.44618">
        <ele>470.8</ele>
        <time>2022-06-26T08:37:26Z</time>
      </trkpt>
      <trkpt lat="45.92093" lon="4.44617">
        <ele>471</ele>
        <time>2022-06-26T08:37:27Z</time>
      </trkpt>
      <trkpt lat="45.92091" lon="4.44616">
        <ele>471</ele>
        <time>2022-06-26T08:37:28Z</time>
      </trkpt>
      <trkpt lat="45.9209" lon="4.44616">
        <ele>471.4</ele>
        <time>2022-06-26T08:37:29Z</time>
      </trkpt>
      <trkpt lat="45.92088" lon="4.44615">
        <ele>471.6</ele>
        <time>2022-06-26T08:37:30Z</time>
      </trkpt>
      <trkpt lat="45.92087" lon="4.44615">
        <ele>471.8</ele>
        <time>2022-06-26T08:37:31Z</time>
      </trkpt>
      <trkpt lat="45.92086" lon="4.44614">
        <ele>472</ele>
        <time>2022-06-26T08:37:32Z</time>
      </trkpt>
      <trkpt lat="45.92084" lon="4.44614">
        <ele>472.2</ele>
        <time>2022-06-26T08:37:33Z</time>
      </trkpt>
      <trkpt lat="45.92082" lon="4.44614">
        <ele>472.4</ele>
        <time>2022-06-26T08:37:34Z</time>
      </trkpt>
      <trkpt lat="45.92081" lon="4.44613">
        <ele>472.4</ele>
        <time>2022-06-26T08:37:35Z</time>
      </trkpt>
      <trkpt lat="45.92079" lon="4.44613">
        <ele>472.8</ele>
        <time>2022-06-26T08:37:36Z</time>
      </trkpt>
      <trkpt lat="45.92077" lon="4.44612">
        <ele>472.8</ele>
        <time>2022-06-26T08:37:37Z</time>
      </trkpt>
      <trkpt lat="45.92076" lon="4.44612">
        <ele>473.2</ele>
        <time>2022-06-26T08:37:38Z</time>
      </trkpt>
      <trkpt lat="45.92074" lon="4.44612">
        <ele>473.2</ele>
        <time>2022-06-26T08:37:39Z</time>
      </trkpt>
      <trkpt lat="45.92073" lon="4.44611">
        <ele>473.6</ele>
        <time>2022-06-26T08:37:40Z</time>
      </trkpt>
      <trkpt lat="45.92072" lon="4.44611">
        <ele>473.8</ele>
        <time>2022-06-26T08:37:41Z</time>
      </trkpt>
      <trkpt lat="45.9207" lon="4.44611">
        <ele>473.8</ele>
        <time>2022-06-26T08:37:42Z</time>
      </trkpt>
      <trkpt lat="45.92068" lon="4.44611">
        <ele>474.2</ele>
        <time>2022-06-26T08:37:43Z</time>
      </trkpt>
      <trkpt lat="45.92067" lon="4.44612">
        <ele>474.4</ele>
        <time>2022-06-26T08:37:44Z</time>
      </trkpt>
      <trkpt lat="45.92066" lon="4.44612">
        <ele>474.4</ele>
        <time>2022-06-26T08:37:45Z</time>
      </trkpt>
      <trkpt lat="45.92064" lon="4.44613">
        <ele>474.8</ele>
        <time>2022-06-26T08:37:46Z</time>
      </trkpt>
      <trkpt lat="45.92063" lon="4.44613">
        <ele>474.8</ele>
        <time>2022-06-26T08:37:47Z</time>
      </trkpt>
      <trkpt lat="45.92061" lon="4.44614">
        <ele>475.2</ele>
        <time>2022-06-26T08:37:48Z</time>
      </trkpt>
      <trkpt lat="45.92059" lon="4.44615">
        <ele>475.4</ele>
        <time>2022-06-26T08:37:49Z</time>
      </trkpt>
      <trkpt lat="45.92058" lon="4.44615">
        <ele>475.6</ele>
        <time>2022-06-26T08:37:50Z</time>
      </trkpt>
      <trkpt lat="45.92056" lon="4.44615">
        <ele>475.6</ele>
        <time>2022-06-26T08:37:51Z</time>
      </trkpt>
      <trkpt lat="45.92054" lon="4.44616">
        <ele>475.8</ele>
        <time>2022-06-26T08:37:52Z</time>
      </trkpt>
      <trkpt lat="45.92053" lon="4.44616">
        <ele>475.8</ele>
        <time>2022-06-26T08:37:53Z</time>
      </trkpt>
      <trkpt lat="45.92051" lon="4.44616">
        <ele>476.2</ele>
        <time>2022-06-26T08:37:54Z</time>
      </trkpt>
      <trkpt lat="45.9205" lon="4.44617">
        <ele>476.2</ele>
        <time>2022-06-26T08:37:55Z</time>
      </trkpt>
      <trkpt lat="45.92048" lon="4.44617">
        <ele>476.6</ele>
        <time>2022-06-26T08:37:56Z</time>
      </trkpt>
      <trkpt lat="45.92047" lon="4.44618">
        <ele>476.6</ele>
        <time>2022-06-26T08:37:57Z</time>
      </trkpt>
      <trkpt lat="45.92046" lon="4.44619">
        <ele>476.8</ele>
        <time>2022-06-26T08:37:58Z</time>
      </trkpt>
      <trkpt lat="45.92044" lon="4.4462">
        <ele>477.2</ele>
        <time>2022-06-26T08:37:59Z</time>
      </trkpt>
      <trkpt lat="45.92043" lon="4.4462">
        <ele>477.2</ele>
        <time>2022-06-26T08:38:00Z</time>
      </trkpt>
      <trkpt lat="45.92041" lon="4.44621">
        <ele>477.4</ele>
        <time>2022-06-26T08:38:01Z</time>
      </trkpt>
      <trkpt lat="45.9204" lon="4.44622">
        <ele>477.4</ele>
        <time>2022-06-26T08:38:02Z</time>
      </trkpt>
      <trkpt lat="45.92038" lon="4.44622">
        <ele>477.8</ele>
        <time>2022-06-26T08:38:03Z</time>
      </trkpt>
      <trkpt lat="45.92037" lon="4.44623">
        <ele>477.8</ele>
        <time>2022-06-26T08:38:04Z</time>
      </trkpt>
      <trkpt lat="45.92035" lon="4.44624">
        <ele>478</ele>
        <time>2022-06-26T08:38:05Z</time>
      </trkpt>
      <trkpt lat="45.92033" lon="4.44624">
        <ele>478</ele>
        <time>2022-06-26T08:38:06Z</time>
      </trkpt>
      <trkpt lat="45.92032" lon="4.44624">
        <ele>478.6</ele>
        <time>2022-06-26T08:38:07Z</time>
      </trkpt>
      <trkpt lat="45.9203" lon="4.44625">
        <ele>478.8</ele>
        <time>2022-06-26T08:38:08Z</time>
      </trkpt>
      <trkpt lat="45.92029" lon="4.44626">
        <ele>479</ele>
        <time>2022-06-26T08:38:09Z</time>
      </trkpt>
      <trkpt lat="45.92027" lon="4.44626">
        <ele>479</ele>
        <time>2022-06-26T08:38:10Z</time>
      </trkpt>
      <trkpt lat="45.92026" lon="4.44627">
        <ele>479.4</ele>
        <time>2022-06-26T08:38:11Z</time>
      </trkpt>
      <trkpt lat="45.92024" lon="4.44628">
        <ele>479.6</ele>
        <time>2022-06-26T08:38:12Z</time>
      </trkpt>
      <trkpt lat="45.92023" lon="4.44628">
        <ele>479.6</ele>
        <time>2022-06-26T08:38:13Z</time>
      </trkpt>
      <trkpt lat="45.92021" lon="4.44629">
        <ele>480</ele>
        <time>2022-06-26T08:38:14Z</time>
      </trkpt>
      <trkpt lat="45.9202" lon="4.4463">
        <ele>480</ele>
        <time>2022-06-26T08:38:15Z</time>
      </trkpt>
      <trkpt lat="45.92018" lon="4.4463">
        <ele>480</ele>
        <time>2022-06-26T08:38:16Z</time>
      </trkpt>
      <trkpt lat="45.92017" lon="4.44631">
        <ele>480.2</ele>
        <time>2022-06-26T08:38:17Z</time>
      </trkpt>
      <trkpt lat="45.92015" lon="4.44632">
        <ele>480.2</ele>
        <time>2022-06-26T08:38:18Z</time>
      </trkpt>
      <trkpt lat="45.92014" lon="4.44633">
        <ele>480.6</ele>
        <time>2022-06-26T08:38:19Z</time>
      </trkpt>
      <trkpt lat="45.92012" lon="4.44633">
        <ele>480.6</ele>
        <time>2022-06-26T08:38:20Z</time>
      </trkpt>
      <trkpt lat="45.92011" lon="4.44634">
        <ele>481</ele>
        <time>2022-06-26T08:38:21Z</time>
      </trkpt>
      <trkpt lat="45.92009" lon="4.44634">
        <ele>481</ele>
        <time>2022-06-26T08:38:22Z</time>
      </trkpt>
      <trkpt lat="45.92008" lon="4.44635">
        <ele>481.2</ele>
        <time>2022-06-26T08:38:23Z</time>
      </trkpt>
      <trkpt lat="45.92006" lon="4.44636">
        <ele>481.4</ele>
        <time>2022-06-26T08:38:24Z</time>
      </trkpt>
      <trkpt lat="45.92004" lon="4.44636">
        <ele>481.4</ele>
        <time>2022-06-26T08:38:25Z</time>
      </trkpt>
      <trkpt lat="45.92003" lon="4.44637">
        <ele>481.6</ele>
        <time>2022-06-26T08:38:26Z</time>
      </trkpt>
      <trkpt lat="45.92002" lon="4.44638">
        <ele>481.6</ele>
        <time>2022-06-26T08:38:27Z</time>
      </trkpt>
      <trkpt lat="45.92" lon="4.44639">
        <ele>482</ele>
        <time>2022-06-26T08:38:28Z</time>
      </trkpt>
      <trkpt lat="45.91999" lon="4.4464">
        <ele>482.2</ele>
        <time>2022-06-26T08:38:29Z</time>
      </trkpt>
      <trkpt lat="45.91997" lon="4.4464">
        <ele>482.6</ele>
        <time>2022-06-26T08:38:30Z</time>
      </trkpt>
      <trkpt lat="45.91996" lon="4.44641">
        <ele>482.6</ele>
        <time>2022-06-26T08:38:31Z</time>
      </trkpt>
      <trkpt lat="45.91994" lon="4.44642">
        <ele>482.8</ele>
        <time>2022-06-26T08:38:32Z</time>
      </trkpt>
      <trkpt lat="45.91992" lon="4.44643">
        <ele>482.8</ele>
        <time>2022-06-26T08:38:33Z</time>
      </trkpt>
      <trkpt lat="45.91991" lon="4.44644">
        <ele>483.2</ele>
        <time>2022-06-26T08:38:34Z</time>
      </trkpt>
      <trkpt lat="45.9199" lon="4.44645">
        <ele>483.4</ele>
        <time>2022-06-26T08:38:35Z</time>
      </trkpt>
      <trkpt lat="45.91988" lon="4.44646">
        <ele>483.4</ele>
        <time>2022-06-26T08:38:36Z</time>
      </trkpt>
      <trkpt lat="45.91987" lon="4.44647">
        <ele>483.8</ele>
        <time>2022-06-26T08:38:37Z</time>
      </trkpt>
      <trkpt lat="45.91985" lon="4.44648">
        <ele>483.8</ele>
        <time>2022-06-26T08:38:38Z</time>
      </trkpt>
      <trkpt lat="45.91983" lon="4.44648">
        <ele>484.2</ele>
        <time>2022-06-26T08:38:39Z</time>
      </trkpt>
      <trkpt lat="45.91982" lon="4.44649">
        <ele>484.2</ele>
        <time>2022-06-26T08:38:40Z</time>
      </trkpt>
      <trkpt lat="45.9198" lon="4.4465">
        <ele>484.4</ele>
        <time>2022-06-26T08:38:41Z</time>
      </trkpt>
      <trkpt lat="45.91978" lon="4.44651">
        <ele>484.4</ele>
        <time>2022-06-26T08:38:42Z</time>
      </trkpt>
      <trkpt lat="45.91977" lon="4.44651">
        <ele>484.6</ele>
        <time>2022-06-26T08:38:43Z</time>
      </trkpt>
      <trkpt lat="45.91975" lon="4.44652">
        <ele>484.6</ele>
        <time>2022-06-26T08:38:44Z</time>
      </trkpt>
      <trkpt lat="45.91974" lon="4.44654">
        <ele>485</ele>
        <time>2022-06-26T08:38:45Z</time>
      </trkpt>
      <trkpt lat="45.91972" lon="4.44655">
        <ele>485</ele>
        <time>2022-06-26T08:38:46Z</time>
      </trkpt>
      <trkpt lat="45.91971" lon="4.44656">
        <ele>485.4</ele>
        <time>2022-06-26T08:38:47Z</time>
      </trkpt>
      <trkpt lat="45.91969" lon="4.44658">
        <ele>485.4</ele>
        <time>2022-06-26T08:38:48Z</time>
      </trkpt>
      <trkpt lat="45.91968" lon="4.44659">
        <ele>485.8</ele>
        <time>2022-06-26T08:38:49Z</time>
      </trkpt>
      <trkpt lat="45.91967" lon="4.4466">
        <ele>486</ele>
        <time>2022-06-26T08:38:50Z</time>
      </trkpt>
      <trkpt lat="45.91965" lon="4.44662">
        <ele>486</ele>
        <time>2022-06-26T08:38:51Z</time>
      </trkpt>
      <trkpt lat="45.91964" lon="4.44664">
        <ele>486.4</ele>
        <time>2022-06-26T08:38:52Z</time>
      </trkpt>
      <trkpt lat="45.91962" lon="4.44665">
        <ele>486.4</ele>
        <time>2022-06-26T08:38:53Z</time>
      </trkpt>
      <trkpt lat="45.9196" lon="4.44666">
        <ele>486.8</ele>
        <time>2022-06-26T08:38:54Z</time>
      </trkpt>
      <trkpt lat="45.91959" lon="4.44667">
        <ele>486.8</ele>
        <time>2022-06-26T08:38:55Z</time>
      </trkpt>
      <trkpt lat="45.91958" lon="4.44669">
        <ele>487</ele>
        <time>2022-06-26T08:38:56Z</time>
      </trkpt>
      <trkpt lat="45.91956" lon="4.4467">
        <ele>487</ele>
        <time>2022-06-26T08:38:57Z</time>
      </trkpt>
      <trkpt lat="45.91955" lon="4.44672">
        <ele>487.2</ele>
        <time>2022-06-26T08:38:58Z</time>
      </trkpt>
      <trkpt lat="45.91954" lon="4.44674">
        <ele>487.2</ele>
        <time>2022-06-26T08:38:59Z</time>
      </trkpt>
      <trkpt lat="45.91953" lon="4.44675">
        <ele>487.6</ele>
        <time>2022-06-26T08:39:00Z</time>
      </trkpt>
      <trkpt lat="45.91952" lon="4.44677">
        <ele>487.6</ele>
        <time>2022-06-26T08:39:01Z</time>
      </trkpt>
      <trkpt lat="45.91951" lon="4.44678">
        <ele>488</ele>
        <time>2022-06-26T08:39:02Z</time>
      </trkpt>
      <trkpt lat="45.91949" lon="4.4468">
        <ele>488</ele>
        <time>2022-06-26T08:39:03Z</time>
      </trkpt>
      <trkpt lat="45.91948" lon="4.44681">
        <ele>488.2</ele>
        <time>2022-06-26T08:39:04Z</time>
      </trkpt>
      <trkpt lat="45.91947" lon="4.44683">
        <ele>488.6</ele>
        <time>2022-06-26T08:39:05Z</time>
      </trkpt>
      <trkpt lat="45.91946" lon="4.44684">
        <ele>488.6</ele>
        <time>2022-06-26T08:39:06Z</time>
      </trkpt>
      <trkpt lat="45.91944" lon="4.44685">
        <ele>488.8</ele>
        <time>2022-06-26T08:39:07Z</time>
      </trkpt>
      <trkpt lat="45.91943" lon="4.44686">
        <ele>488.8</ele>
        <time>2022-06-26T08:39:08Z</time>
      </trkpt>
      <trkpt lat="45.91942" lon="4.44687">
        <ele>489.2</ele>
        <time>2022-06-26T08:39:09Z</time>
      </trkpt>
      <trkpt lat="45.9194" lon="4.44688">
        <ele>489.4</ele>
        <time>2022-06-26T08:39:10Z</time>
      </trkpt>
      <trkpt lat="45.91939" lon="4.44689">
        <ele>489.4</ele>
        <time>2022-06-26T08:39:11Z</time>
      </trkpt>
      <trkpt lat="45.91938" lon="4.44691">
        <ele>489.8</ele>
        <time>2022-06-26T08:39:12Z</time>
      </trkpt>
      <trkpt lat="45.91937" lon="4.44692">
        <ele>489.8</ele>
        <time>2022-06-26T08:39:13Z</time>
      </trkpt>
      <trkpt lat="45.91936" lon="4.44693">
        <ele>490.2</ele>
        <time>2022-06-26T08:39:14Z</time>
      </trkpt>
      <trkpt lat="45.91935" lon="4.44695">
        <ele>490.4</ele>
        <time>2022-06-26T08:39:15Z</time>
      </trkpt>
      <trkpt lat="45.91933" lon="4.44696">
        <ele>490.4</ele>
        <time>2022-06-26T08:39:16Z</time>
      </trkpt>
      <trkpt lat="45.91932" lon="4.44698">
        <ele>490.8</ele>
        <time>2022-06-26T08:39:17Z</time>
      </trkpt>
      <trkpt lat="45.9193" lon="4.44699">
        <ele>490.8</ele>
        <time>2022-06-26T08:39:18Z</time>
      </trkpt>
      <trkpt lat="45.91929" lon="4.44701">
        <ele>491</ele>
        <time>2022-06-26T08:39:19Z</time>
      </trkpt>
      <trkpt lat="45.91927" lon="4.44703">
        <ele>491</ele>
        <time>2022-06-26T08:39:20Z</time>
      </trkpt>
      <trkpt lat="45.91926" lon="4.44705">
        <ele>491.4</ele>
        <time>2022-06-26T08:39:21Z</time>
      </trkpt>
      <trkpt lat="45.91924" lon="4.44707">
        <ele>491.6</ele>
        <time>2022-06-26T08:39:22Z</time>
      </trkpt>
      <trkpt lat="45.91923" lon="4.44709">
        <ele>491.6</ele>
        <time>2022-06-26T08:39:23Z</time>
      </trkpt>
      <trkpt lat="45.91922" lon="4.4471">
        <ele>492</ele>
        <time>2022-06-26T08:39:24Z</time>
      </trkpt>
      <trkpt lat="45.91921" lon="4.44712">
        <ele>492.2</ele>
        <time>2022-06-26T08:39:25Z</time>
      </trkpt>
      <trkpt lat="45.9192" lon="4.44714">
        <ele>492.4</ele>
        <time>2022-06-26T08:39:26Z</time>
      </trkpt>
      <trkpt lat="45.91919" lon="4.44715">
        <ele>492.4</ele>
        <time>2022-06-26T08:39:27Z</time>
      </trkpt>
      <trkpt lat="45.91918" lon="4.44717">
        <ele>492.6</ele>
        <time>2022-06-26T08:39:28Z</time>
      </trkpt>
      <trkpt lat="45.91917" lon="4.44718">
        <ele>492.6</ele>
        <time>2022-06-26T08:39:29Z</time>
      </trkpt>
      <trkpt lat="45.91916" lon="4.4472">
        <ele>493</ele>
        <time>2022-06-26T08:39:30Z</time>
      </trkpt>
      <trkpt lat="45.91914" lon="4.44721">
        <ele>493</ele>
        <time>2022-06-26T08:39:31Z</time>
      </trkpt>
      <trkpt lat="45.91913" lon="4.44722">
        <ele>493.4</ele>
        <time>2022-06-26T08:39:32Z</time>
      </trkpt>
      <trkpt lat="45.91912" lon="4.44724">
        <ele>493.6</ele>
        <time>2022-06-26T08:39:33Z</time>
      </trkpt>
      <trkpt lat="45.9191" lon="4.44725">
        <ele>493.8</ele>
        <time>2022-06-26T08:39:34Z</time>
      </trkpt>
      <trkpt lat="45.91909" lon="4.44727">
        <ele>493.8</ele>
        <time>2022-06-26T08:39:35Z</time>
      </trkpt>
      <trkpt lat="45.91908" lon="4.44728">
        <ele>494.2</ele>
        <time>2022-06-26T08:39:36Z</time>
      </trkpt>
      <trkpt lat="45.91907" lon="4.4473">
        <ele>494.2</ele>
        <time>2022-06-26T08:39:37Z</time>
      </trkpt>
      <trkpt lat="45.91905" lon="4.44731">
        <ele>494.6</ele>
        <time>2022-06-26T08:39:38Z</time>
      </trkpt>
      <trkpt lat="45.91904" lon="4.44733">
        <ele>494.6</ele>
        <time>2022-06-26T08:39:39Z</time>
      </trkpt>
      <trkpt lat="45.91902" lon="4.44734">
        <ele>494.8</ele>
        <time>2022-06-26T08:39:40Z</time>
      </trkpt>
      <trkpt lat="45.91901" lon="4.44736">
        <ele>494.8</ele>
        <time>2022-06-26T08:39:41Z</time>
      </trkpt>
      <trkpt lat="45.91899" lon="4.44737">
        <ele>495.2</ele>
        <time>2022-06-26T08:39:42Z</time>
      </trkpt>
      <trkpt lat="45.91897" lon="4.44739">
        <ele>495.4</ele>
        <time>2022-06-26T08:39:43Z</time>
      </trkpt>
      <trkpt lat="45.91896" lon="4.44741">
        <ele>495.6</ele>
        <time>2022-06-26T08:39:44Z</time>
      </trkpt>
      <trkpt lat="45.91895" lon="4.44742">
        <ele>495.6</ele>
        <time>2022-06-26T08:39:45Z</time>
      </trkpt>
      <trkpt lat="45.91893" lon="4.44744">
        <ele>496</ele>
        <time>2022-06-26T08:39:46Z</time>
      </trkpt>
      <trkpt lat="45.91892" lon="4.44746">
        <ele>496</ele>
        <time>2022-06-26T08:39:47Z</time>
      </trkpt>
      <trkpt lat="45.91891" lon="4.44748">
        <ele>496.4</ele>
        <time>2022-06-26T08:39:48Z</time>
      </trkpt>
      <trkpt lat="45.9189" lon="4.4475">
        <ele>496.4</ele>
        <time>2022-06-26T08:39:49Z</time>
      </trkpt>
      <trkpt lat="45.91889" lon="4.44751">
        <ele>496.8</ele>
        <time>2022-06-26T08:39:50Z</time>
      </trkpt>
      <trkpt lat="45.91888" lon="4.44752">
        <ele>497</ele>
        <time>2022-06-26T08:39:51Z</time>
      </trkpt>
      <trkpt lat="45.91886" lon="4.44754">
        <ele>497.4</ele>
        <time>2022-06-26T08:39:52Z</time>
      </trkpt>
      <trkpt lat="45.91885" lon="4.44755">
        <ele>497.6</ele>
        <time>2022-06-26T08:39:53Z</time>
      </trkpt>
      <trkpt lat="45.91883" lon="4.44756">
        <ele>497.6</ele>
        <time>2022-06-26T08:39:54Z</time>
      </trkpt>
      <trkpt lat="45.91882" lon="4.44758">
        <ele>498</ele>
        <time>2022-06-26T08:39:55Z</time>
      </trkpt>
      <trkpt lat="45.9188" lon="4.44759">
        <ele>498</ele>
        <time>2022-06-26T08:39:56Z</time>
      </trkpt>
      <trkpt lat="45.91879" lon="4.44761">
        <ele>498.4</ele>
        <time>2022-06-26T08:39:57Z</time>
      </trkpt>
      <trkpt lat="45.91878" lon="4.44762">
        <ele>498.6</ele>
        <time>2022-06-26T08:39:58Z</time>
      </trkpt>
      <trkpt lat="45.91876" lon="4.44763">
        <ele>498.6</ele>
        <time>2022-06-26T08:39:59Z</time>
      </trkpt>
      <trkpt lat="45.91875" lon="4.44765">
        <ele>499</ele>
        <time>2022-06-26T08:40:00Z</time>
      </trkpt>
      <trkpt lat="45.91873" lon="4.44766">
        <ele>499</ele>
        <time>2022-06-26T08:40:01Z</time>
      </trkpt>
      <trkpt lat="45.91872" lon="4.44768">
        <ele>499.4</ele>
        <time>2022-06-26T08:40:02Z</time>
      </trkpt>
      <trkpt lat="45.91871" lon="4.44769">
        <ele>499.6</ele>
        <time>2022-06-26T08:40:03Z</time>
      </trkpt>
      <trkpt lat="45.91869" lon="4.44771">
        <ele>500</ele>
        <time>2022-06-26T08:40:04Z</time>
      </trkpt>
      <trkpt lat="45.91868" lon="4.44772">
        <ele>500</ele>
        <time>2022-06-26T08:40:05Z</time>
      </trkpt>
      <trkpt lat="45.91867" lon="4.44774">
        <ele>500.4</ele>
        <time>2022-06-26T08:40:06Z</time>
      </trkpt>
      <trkpt lat="45.91865" lon="4.44775">
        <ele>500.6</ele>
        <time>2022-06-26T08:40:07Z</time>
      </trkpt>
      <trkpt lat="45.91864" lon="4.44777">
        <ele>500.8</ele>
        <time>2022-06-26T08:40:08Z</time>
      </trkpt>
      <trkpt lat="45.91862" lon="4.44778">
        <ele>501</ele>
        <time>2022-06-26T08:40:09Z</time>
      </trkpt>
      <trkpt lat="45.91861" lon="4.44779">
        <ele>501.4</ele>
        <time>2022-06-26T08:40:10Z</time>
      </trkpt>
      <trkpt lat="45.91859" lon="4.4478">
        <ele>501.4</ele>
        <time>2022-06-26T08:40:11Z</time>
      </trkpt>
      <trkpt lat="45.91857" lon="4.44781">
        <ele>501.6</ele>
        <time>2022-06-26T08:40:12Z</time>
      </trkpt>
      <trkpt lat="45.91856" lon="4.44782">
        <ele>501.6</ele>
        <time>2022-06-26T08:40:13Z</time>
      </trkpt>
      <trkpt lat="45.91854" lon="4.44783">
        <ele>502</ele>
        <time>2022-06-26T08:40:14Z</time>
      </trkpt>
      <trkpt lat="45.91853" lon="4.44784">
        <ele>502</ele>
        <time>2022-06-26T08:40:15Z</time>
      </trkpt>
      <trkpt lat="45.91852" lon="4.44786">
        <ele>502.4</ele>
        <time>2022-06-26T08:40:16Z</time>
      </trkpt>
      <trkpt lat="45.91851" lon="4.44787">
        <ele>502.8</ele>
        <time>2022-06-26T08:40:17Z</time>
      </trkpt>
      <trkpt lat="45.91849" lon="4.44788">
        <ele>503</ele>
        <time>2022-06-26T08:40:18Z</time>
      </trkpt>
      <trkpt lat="45.91848" lon="4.44789">
        <ele>503.2</ele>
        <time>2022-06-26T08:40:19Z</time>
      </trkpt>
      <trkpt lat="45.91846" lon="4.4479">
        <ele>503.2</ele>
        <time>2022-06-26T08:40:20Z</time>
      </trkpt>
      <trkpt lat="45.91844" lon="4.44791">
        <ele>503.6</ele>
        <time>2022-06-26T08:40:21Z</time>
      </trkpt>
      <trkpt lat="45.91843" lon="4.44792">
        <ele>503.8</ele>
        <time>2022-06-26T08:40:22Z</time>
      </trkpt>
      <trkpt lat="45.91841" lon="4.44792">
        <ele>504</ele>
        <time>2022-06-26T08:40:23Z</time>
      </trkpt>
      <trkpt lat="45.9184" lon="4.44793">
        <ele>504.2</ele>
        <time>2022-06-26T08:40:24Z</time>
      </trkpt>
      <trkpt lat="45.91838" lon="4.44794">
        <ele>504.2</ele>
        <time>2022-06-26T08:40:25Z</time>
      </trkpt>
      <trkpt lat="45.91837" lon="4.44796">
        <ele>504.6</ele>
        <time>2022-06-26T08:40:26Z</time>
      </trkpt>
      <trkpt lat="45.91836" lon="4.44797">
        <ele>504.6</ele>
        <time>2022-06-26T08:40:27Z</time>
      </trkpt>
      <trkpt lat="45.91835" lon="4.44798">
        <ele>505</ele>
        <time>2022-06-26T08:40:28Z</time>
      </trkpt>
      <trkpt lat="45.91833" lon="4.44799">
        <ele>505</ele>
        <time>2022-06-26T08:40:29Z</time>
      </trkpt>
      <trkpt lat="45.91832" lon="4.448">
        <ele>505.4</ele>
        <time>2022-06-26T08:40:30Z</time>
      </trkpt>
      <trkpt lat="45.9183" lon="4.44801">
        <ele>505.4</ele>
        <time>2022-06-26T08:40:31Z</time>
      </trkpt>
      <trkpt lat="45.91829" lon="4.44802">
        <ele>505.8</ele>
        <time>2022-06-26T08:40:32Z</time>
      </trkpt>
      <trkpt lat="45.91828" lon="4.44803">
        <ele>506</ele>
        <time>2022-06-26T08:40:33Z</time>
      </trkpt>
      <trkpt lat="45.91826" lon="4.44804">
        <ele>506.2</ele>
        <time>2022-06-26T08:40:34Z</time>
      </trkpt>
      <trkpt lat="45.91824" lon="4.44805">
        <ele>506.4</ele>
        <time>2022-06-26T08:40:35Z</time>
      </trkpt>
      <trkpt lat="45.91823" lon="4.44806">
        <ele>506.8</ele>
        <time>2022-06-26T08:40:36Z</time>
      </trkpt>
      <trkpt lat="45.91821" lon="4.44807">
        <ele>507</ele>
        <time>2022-06-26T08:40:37Z</time>
      </trkpt>
      <trkpt lat="45.9182" lon="4.44808">
        <ele>507.2</ele>
        <time>2022-06-26T08:40:38Z</time>
      </trkpt>
      <trkpt lat="45.91818" lon="4.44809">
        <ele>507.2</ele>
        <time>2022-06-26T08:40:39Z</time>
      </trkpt>
      <trkpt lat="45.91817" lon="4.4481">
        <ele>507.6</ele>
        <time>2022-06-26T08:40:40Z</time>
      </trkpt>
      <trkpt lat="45.91815" lon="4.44811">
        <ele>507.8</ele>
        <time>2022-06-26T08:40:41Z</time>
      </trkpt>
      <trkpt lat="45.91814" lon="4.44812">
        <ele>507.8</ele>
        <time>2022-06-26T08:40:42Z</time>
      </trkpt>
      <trkpt lat="45.91812" lon="4.44813">
        <ele>508.6</ele>
        <time>2022-06-26T08:40:44Z</time>
      </trkpt>
      <trkpt lat="45.91811" lon="4.44814">
        <ele>508.8</ele>
        <time>2022-06-26T08:40:45Z</time>
      </trkpt>
      <trkpt lat="45.91809" lon="4.44815">
        <ele>509</ele>
        <time>2022-06-26T08:40:46Z</time>
      </trkpt>
      <trkpt lat="45.91807" lon="4.44816">
        <ele>509.4</ele>
        <time>2022-06-26T08:40:47Z</time>
      </trkpt>
      <trkpt lat="45.91806" lon="4.44817">
        <ele>509.6</ele>
        <time>2022-06-26T08:40:48Z</time>
      </trkpt>
      <trkpt lat="45.91804" lon="4.44818">
        <ele>509.8</ele>
        <time>2022-06-26T08:40:49Z</time>
      </trkpt>
      <trkpt lat="45.91803" lon="4.44819">
        <ele>509.8</ele>
        <time>2022-06-26T08:40:50Z</time>
      </trkpt>
      <trkpt lat="45.91801" lon="4.4482">
        <ele>510.2</ele>
        <time>2022-06-26T08:40:51Z</time>
      </trkpt>
      <trkpt lat="45.918" lon="4.44821">
        <ele>510.2</ele>
        <time>2022-06-26T08:40:52Z</time>
      </trkpt>
      <trkpt lat="45.91798" lon="4.44822">
        <ele>510.6</ele>
        <time>2022-06-26T08:40:53Z</time>
      </trkpt>
      <trkpt lat="45.91797" lon="4.44823">
        <ele>510.8</ele>
        <time>2022-06-26T08:40:54Z</time>
      </trkpt>
      <trkpt lat="45.91795" lon="4.44824">
        <ele>510.8</ele>
        <time>2022-06-26T08:40:55Z</time>
      </trkpt>
      <trkpt lat="45.91794" lon="4.44825">
        <ele>511.2</ele>
        <time>2022-06-26T08:40:56Z</time>
      </trkpt>
      <trkpt lat="45.91793" lon="4.44826">
        <ele>511.4</ele>
        <time>2022-06-26T08:40:57Z</time>
      </trkpt>
      <trkpt lat="45.91791" lon="4.44826">
        <ele>511.4</ele>
        <time>2022-06-26T08:40:58Z</time>
      </trkpt>
      <trkpt lat="45.9179" lon="4.44827">
        <ele>511.8</ele>
        <time>2022-06-26T08:40:59Z</time>
      </trkpt>
      <trkpt lat="45.91788" lon="4.44828">
        <ele>511.8</ele>
        <time>2022-06-26T08:41:00Z</time>
      </trkpt>
      <trkpt lat="45.91787" lon="4.44829">
        <ele>512</ele>
        <time>2022-06-26T08:41:01Z</time>
      </trkpt>
      <trkpt lat="45.91785" lon="4.4483">
        <ele>512.4</ele>
        <time>2022-06-26T08:41:02Z</time>
      </trkpt>
      <trkpt lat="45.91783" lon="4.4483">
        <ele>512.6</ele>
        <time>2022-06-26T08:41:03Z</time>
      </trkpt>
      <trkpt lat="45.91782" lon="4.44831">
        <ele>512.6</ele>
        <time>2022-06-26T08:41:04Z</time>
      </trkpt>
      <trkpt lat="45.9178" lon="4.44833">
        <ele>512.8</ele>
        <time>2022-06-26T08:41:05Z</time>
      </trkpt>
      <trkpt lat="45.91778" lon="4.44834">
        <ele>512.8</ele>
        <time>2022-06-26T08:41:06Z</time>
      </trkpt>
      <trkpt lat="45.91777" lon="4.44835">
        <ele>513.2</ele>
        <time>2022-06-26T08:41:07Z</time>
      </trkpt>
      <trkpt lat="45.91775" lon="4.44836">
        <ele>513.4</ele>
        <time>2022-06-26T08:41:08Z</time>
      </trkpt>
      <trkpt lat="45.91773" lon="4.44837">
        <ele>513.6</ele>
        <time>2022-06-26T08:41:09Z</time>
      </trkpt>
      <trkpt lat="45.91772" lon="4.44838">
        <ele>514</ele>
        <time>2022-06-26T08:41:10Z</time>
      </trkpt>
      <trkpt lat="45.9177" lon="4.44839">
        <ele>514</ele>
        <time>2022-06-26T08:41:11Z</time>
      </trkpt>
      <trkpt lat="45.91769" lon="4.4484">
        <ele>514.2</ele>
        <time>2022-06-26T08:41:12Z</time>
      </trkpt>
      <trkpt lat="45.91767" lon="4.44841">
        <ele>514.4</ele>
        <time>2022-06-26T08:41:13Z</time>
      </trkpt>
      <trkpt lat="45.91766" lon="4.44842">
        <ele>514.6</ele>
        <time>2022-06-26T08:41:14Z</time>
      </trkpt>
      <trkpt lat="45.91764" lon="4.44843">
        <ele>515</ele>
        <time>2022-06-26T08:41:15Z</time>
      </trkpt>
      <trkpt lat="45.91762" lon="4.44844">
        <ele>515</ele>
        <time>2022-06-26T08:41:16Z</time>
      </trkpt>
      <trkpt lat="45.9176" lon="4.44845">
        <ele>515.2</ele>
        <time>2022-06-26T08:41:17Z</time>
      </trkpt>
      <trkpt lat="45.91757" lon="4.44847">
        <ele>515.2</ele>
        <time>2022-06-26T08:41:18Z</time>
      </trkpt>
      <trkpt lat="45.91755" lon="4.44848">
        <ele>515.6</ele>
        <time>2022-06-26T08:41:19Z</time>
      </trkpt>
      <trkpt lat="45.91753" lon="4.44848">
        <ele>515.8</ele>
        <time>2022-06-26T08:41:20Z</time>
      </trkpt>
      <trkpt lat="45.91752" lon="4.44848">
        <ele>515.8</ele>
        <time>2022-06-26T08:41:21Z</time>
      </trkpt>
      <trkpt lat="45.9175" lon="4.44849">
        <ele>516.2</ele>
        <time>2022-06-26T08:41:22Z</time>
      </trkpt>
      <trkpt lat="45.91748" lon="4.44849">
        <ele>516.2</ele>
        <time>2022-06-26T08:41:23Z</time>
      </trkpt>
      <trkpt lat="45.91746" lon="4.44849">
        <ele>516.6</ele>
        <time>2022-06-26T08:41:24Z</time>
      </trkpt>
      <trkpt lat="45.91744" lon="4.44849">
        <ele>516.6</ele>
        <time>2022-06-26T08:41:25Z</time>
      </trkpt>
      <trkpt lat="45.91743" lon="4.44849">
        <ele>517</ele>
        <time>2022-06-26T08:41:26Z</time>
      </trkpt>
      <trkpt lat="45.91741" lon="4.4485">
        <ele>517.2</ele>
        <time>2022-06-26T08:41:27Z</time>
      </trkpt>
      <trkpt lat="45.91739" lon="4.44849">
        <ele>517.4</ele>
        <time>2022-06-26T08:41:28Z</time>
      </trkpt>
      <trkpt lat="45.91738" lon="4.44849">
        <ele>517.6</ele>
        <time>2022-06-26T08:41:29Z</time>
      </trkpt>
      <trkpt lat="45.91736" lon="4.44849">
        <ele>517.8</ele>
        <time>2022-06-26T08:41:30Z</time>
      </trkpt>
      <trkpt lat="45.91735" lon="4.44848">
        <ele>517.8</ele>
        <time>2022-06-26T08:41:31Z</time>
      </trkpt>
      <trkpt lat="45.91733" lon="4.44848">
        <ele>518.2</ele>
        <time>2022-06-26T08:41:32Z</time>
      </trkpt>
      <trkpt lat="45.91732" lon="4.44847">
        <ele>518.2</ele>
        <time>2022-06-26T08:41:33Z</time>
      </trkpt>
      <trkpt lat="45.9173" lon="4.44845">
        <ele>518.6</ele>
        <time>2022-06-26T08:41:34Z</time>
      </trkpt>
      <trkpt lat="45.91729" lon="4.44844">
        <ele>518.8</ele>
        <time>2022-06-26T08:41:35Z</time>
      </trkpt>
      <trkpt lat="45.91727" lon="4.44843">
        <ele>519.2</ele>
        <time>2022-06-26T08:41:36Z</time>
      </trkpt>
      <trkpt lat="45.91725" lon="4.44842">
        <ele>519.2</ele>
        <time>2022-06-26T08:41:37Z</time>
      </trkpt>
      <trkpt lat="45.91724" lon="4.44841">
        <ele>519.6</ele>
        <time>2022-06-26T08:41:38Z</time>
      </trkpt>
      <trkpt lat="45.91722" lon="4.4484">
        <ele>519.8</ele>
        <time>2022-06-26T08:41:39Z</time>
      </trkpt>
      <trkpt lat="45.91721" lon="4.44839">
        <ele>520.2</ele>
        <time>2022-06-26T08:41:40Z</time>
      </trkpt>
      <trkpt lat="45.91719" lon="4.44837">
        <ele>520.4</ele>
        <time>2022-06-26T08:41:41Z</time>
      </trkpt>
      <trkpt lat="45.91717" lon="4.44836">
        <ele>520.6</ele>
        <time>2022-06-26T08:41:42Z</time>
      </trkpt>
      <trkpt lat="45.91715" lon="4.44835">
        <ele>521</ele>
        <time>2022-06-26T08:41:43Z</time>
      </trkpt>
      <trkpt lat="45.91713" lon="4.44834">
        <ele>521.2</ele>
        <time>2022-06-26T08:41:44Z</time>
      </trkpt>
      <trkpt lat="45.91712" lon="4.44833">
        <ele>521.6</ele>
        <time>2022-06-26T08:41:45Z</time>
      </trkpt>
      <trkpt lat="45.9171" lon="4.44832">
        <ele>521.8</ele>
        <time>2022-06-26T08:41:46Z</time>
      </trkpt>
      <trkpt lat="45.91709" lon="4.44831">
        <ele>522</ele>
        <time>2022-06-26T08:41:47Z</time>
      </trkpt>
      <trkpt lat="45.91707" lon="4.4483">
        <ele>522.4</ele>
        <time>2022-06-26T08:41:48Z</time>
      </trkpt>
      <trkpt lat="45.91706" lon="4.44829">
        <ele>522.6</ele>
        <time>2022-06-26T08:41:49Z</time>
      </trkpt>
      <trkpt lat="45.91704" lon="4.44828">
        <ele>522.8</ele>
        <time>2022-06-26T08:41:50Z</time>
      </trkpt>
      <trkpt lat="45.91702" lon="4.44827">
        <ele>523</ele>
        <time>2022-06-26T08:41:51Z</time>
      </trkpt>
      <trkpt lat="45.91701" lon="4.44826">
        <ele>523.4</ele>
        <time>2022-06-26T08:41:52Z</time>
      </trkpt>
      <trkpt lat="45.917" lon="4.44824">
        <ele>523.6</ele>
        <time>2022-06-26T08:41:53Z</time>
      </trkpt>
      <trkpt lat="45.91699" lon="4.44822">
        <ele>523.6</ele>
        <time>2022-06-26T08:41:54Z</time>
      </trkpt>
      <trkpt lat="45.91697" lon="4.44821">
        <ele>524</ele>
        <time>2022-06-26T08:41:55Z</time>
      </trkpt>
      <trkpt lat="45.91696" lon="4.44819">
        <ele>524.2</ele>
        <time>2022-06-26T08:41:56Z</time>
      </trkpt>
      <trkpt lat="45.91694" lon="4.44818">
        <ele>524.4</ele>
        <time>2022-06-26T08:41:57Z</time>
      </trkpt>
      <trkpt lat="45.91693" lon="4.44817">
        <ele>524.6</ele>
        <time>2022-06-26T08:41:58Z</time>
      </trkpt>
      <trkpt lat="45.91692" lon="4.44815">
        <ele>525</ele>
        <time>2022-06-26T08:41:59Z</time>
      </trkpt>
      <trkpt lat="45.9169" lon="4.44814">
        <ele>525.2</ele>
        <time>2022-06-26T08:42:00Z</time>
      </trkpt>
      <trkpt lat="45.91689" lon="4.44812">
        <ele>525.6</ele>
        <time>2022-06-26T08:42:01Z</time>
      </trkpt>
      <trkpt lat="45.91687" lon="4.44811">
        <ele>525.8</ele>
        <time>2022-06-26T08:42:02Z</time>
      </trkpt>
      <trkpt lat="45.91686" lon="4.4481">
        <ele>526</ele>
        <time>2022-06-26T08:42:03Z</time>
      </trkpt>
      <trkpt lat="45.91685" lon="4.44808">
        <ele>526.2</ele>
        <time>2022-06-26T08:42:04Z</time>
      </trkpt>
      <trkpt lat="45.91684" lon="4.44807">
        <ele>526.2</ele>
        <time>2022-06-26T08:42:05Z</time>
      </trkpt>
      <trkpt lat="45.91682" lon="4.44805">
        <ele>526.6</ele>
        <time>2022-06-26T08:42:06Z</time>
      </trkpt>
      <trkpt lat="45.91681" lon="4.44804">
        <ele>527</ele>
        <time>2022-06-26T08:42:07Z</time>
      </trkpt>
      <trkpt lat="45.9168" lon="4.44803">
        <ele>527.2</ele>
        <time>2022-06-26T08:42:08Z</time>
      </trkpt>
      <trkpt lat="45.91679" lon="4.44801">
        <ele>527.4</ele>
        <time>2022-06-26T08:42:09Z</time>
      </trkpt>
      <trkpt lat="45.91678" lon="4.448">
        <ele>527.6</ele>
        <time>2022-06-26T08:42:10Z</time>
      </trkpt>
      <trkpt lat="45.91676" lon="4.44798">
        <ele>527.8</ele>
        <time>2022-06-26T08:42:11Z</time>
      </trkpt>
      <trkpt lat="45.91675" lon="4.44796">
        <ele>528.2</ele>
        <time>2022-06-26T08:42:12Z</time>
      </trkpt>
      <trkpt lat="45.91674" lon="4.44795">
        <ele>528.4</ele>
        <time>2022-06-26T08:42:13Z</time>
      </trkpt>
      <trkpt lat="45.91673" lon="4.44794">
        <ele>528.6</ele>
        <time>2022-06-26T08:42:14Z</time>
      </trkpt>
      <trkpt lat="45.91672" lon="4.44792">
        <ele>528.8</ele>
        <time>2022-06-26T08:42:15Z</time>
      </trkpt>
      <trkpt lat="45.9167" lon="4.44791">
        <ele>528.8</ele>
        <time>2022-06-26T08:42:16Z</time>
      </trkpt>
      <trkpt lat="45.91669" lon="4.44789">
        <ele>529</ele>
        <time>2022-06-26T08:42:17Z</time>
      </trkpt>
      <trkpt lat="45.91668" lon="4.44788">
        <ele>529.4</ele>
        <time>2022-06-26T08:42:18Z</time>
      </trkpt>
      <trkpt lat="45.91666" lon="4.44787">
        <ele>529.6</ele>
        <time>2022-06-26T08:42:19Z</time>
      </trkpt>
      <trkpt lat="45.91665" lon="4.44786">
        <ele>529.8</ele>
        <time>2022-06-26T08:42:20Z</time>
      </trkpt>
      <trkpt lat="45.91664" lon="4.44784">
        <ele>530</ele>
        <time>2022-06-26T08:42:21Z</time>
      </trkpt>
      <trkpt lat="45.91662" lon="4.44783">
        <ele>530.2</ele>
        <time>2022-06-26T08:42:22Z</time>
      </trkpt>
      <trkpt lat="45.91661" lon="4.44781">
        <ele>530.2</ele>
        <time>2022-06-26T08:42:23Z</time>
      </trkpt>
      <trkpt lat="45.9166" lon="4.4478">
        <ele>530.8</ele>
        <time>2022-06-26T08:42:24Z</time>
      </trkpt>
      <trkpt lat="45.91659" lon="4.44778">
        <ele>531</ele>
        <time>2022-06-26T08:42:25Z</time>
      </trkpt>
      <trkpt lat="45.91657" lon="4.44777">
        <ele>531</ele>
        <time>2022-06-26T08:42:26Z</time>
      </trkpt>
      <trkpt lat="45.91656" lon="4.44775">
        <ele>531.4</ele>
        <time>2022-06-26T08:42:27Z</time>
      </trkpt>
      <trkpt lat="45.91655" lon="4.44774">
        <ele>531.6</ele>
        <time>2022-06-26T08:42:28Z</time>
      </trkpt>
      <trkpt lat="45.91653" lon="4.44772">
        <ele>531.8</ele>
        <time>2022-06-26T08:42:29Z</time>
      </trkpt>
      <trkpt lat="45.91652" lon="4.44771">
        <ele>532.2</ele>
        <time>2022-06-26T08:42:30Z</time>
      </trkpt>
      <trkpt lat="45.91651" lon="4.44769">
        <ele>532.4</ele>
        <time>2022-06-26T08:42:31Z</time>
      </trkpt>
      <trkpt lat="45.91649" lon="4.44768">
        <ele>532.6</ele>
        <time>2022-06-26T08:42:32Z</time>
      </trkpt>
      <trkpt lat="45.91648" lon="4.44766">
        <ele>533</ele>
        <time>2022-06-26T08:42:33Z</time>
      </trkpt>
      <trkpt lat="45.91647" lon="4.44765">
        <ele>533.2</ele>
        <time>2022-06-26T08:42:34Z</time>
      </trkpt>
      <trkpt lat="45.91645" lon="4.44764">
        <ele>533.4</ele>
        <time>2022-06-26T08:42:35Z</time>
      </trkpt>
      <trkpt lat="45.91644" lon="4.44762">
        <ele>533.6</ele>
        <time>2022-06-26T08:42:36Z</time>
      </trkpt>
      <trkpt lat="45.91643" lon="4.44761">
        <ele>534</ele>
        <time>2022-06-26T08:42:37Z</time>
      </trkpt>
      <trkpt lat="45.91641" lon="4.44759">
        <ele>534.2</ele>
        <time>2022-06-26T08:42:38Z</time>
      </trkpt>
      <trkpt lat="45.9164" lon="4.44758">
        <ele>534.2</ele>
        <time>2022-06-26T08:42:39Z</time>
      </trkpt>
      <trkpt lat="45.91639" lon="4.44757">
        <ele>534.6</ele>
        <time>2022-06-26T08:42:40Z</time>
      </trkpt>
      <trkpt lat="45.91637" lon="4.44755">
        <ele>534.8</ele>
        <time>2022-06-26T08:42:41Z</time>
      </trkpt>
      <trkpt lat="45.91636" lon="4.44754">
        <ele>534.8</ele>
        <time>2022-06-26T08:42:42Z</time>
      </trkpt>
      <trkpt lat="45.91635" lon="4.44752">
        <ele>535.4</ele>
        <time>2022-06-26T08:42:43Z</time>
      </trkpt>
      <trkpt lat="45.91633" lon="4.44751">
        <ele>535.6</ele>
        <time>2022-06-26T08:42:44Z</time>
      </trkpt>
      <trkpt lat="45.91632" lon="4.44749">
        <ele>535.8</ele>
        <time>2022-06-26T08:42:45Z</time>
      </trkpt>
      <trkpt lat="45.9163" lon="4.44748">
        <ele>536</ele>
        <time>2022-06-26T08:42:46Z</time>
      </trkpt>
      <trkpt lat="45.91629" lon="4.44746">
        <ele>536</ele>
        <time>2022-06-26T08:42:47Z</time>
      </trkpt>
      <trkpt lat="45.91628" lon="4.44745">
        <ele>536.4</ele>
        <time>2022-06-26T08:42:48Z</time>
      </trkpt>
      <trkpt lat="45.91626" lon="4.44743">
        <ele>536.4</ele>
        <time>2022-06-26T08:42:49Z</time>
      </trkpt>
      <trkpt lat="45.91625" lon="4.44742">
        <ele>536.8</ele>
        <time>2022-06-26T08:42:50Z</time>
      </trkpt>
      <trkpt lat="45.91623" lon="4.44741">
        <ele>536.8</ele>
        <time>2022-06-26T08:42:51Z</time>
      </trkpt>
      <trkpt lat="45.91622" lon="4.44739">
        <ele>537.2</ele>
        <time>2022-06-26T08:42:52Z</time>
      </trkpt>
      <trkpt lat="45.9162" lon="4.44738">
        <ele>537.6</ele>
        <time>2022-06-26T08:42:53Z</time>
      </trkpt>
      <trkpt lat="45.91619" lon="4.44737">
        <ele>537.8</ele>
        <time>2022-06-26T08:42:54Z</time>
      </trkpt>
      <trkpt lat="45.91618" lon="4.44735">
        <ele>538</ele>
        <time>2022-06-26T08:42:55Z</time>
      </trkpt>
      <trkpt lat="45.91616" lon="4.44734">
        <ele>538.4</ele>
        <time>2022-06-26T08:42:56Z</time>
      </trkpt>
      <trkpt lat="45.91615" lon="4.44733">
        <ele>538.6</ele>
        <time>2022-06-26T08:42:57Z</time>
      </trkpt>
      <trkpt lat="45.91613" lon="4.44732">
        <ele>538.8</ele>
        <time>2022-06-26T08:42:58Z</time>
      </trkpt>
      <trkpt lat="45.91612" lon="4.4473">
        <ele>539.2</ele>
        <time>2022-06-26T08:42:59Z</time>
      </trkpt>
      <trkpt lat="45.91611" lon="4.44729">
        <ele>539.4</ele>
        <time>2022-06-26T08:43:00Z</time>
      </trkpt>
      <trkpt lat="45.91609" lon="4.44728">
        <ele>539.8</ele>
        <time>2022-06-26T08:43:01Z</time>
      </trkpt>
      <trkpt lat="45.91608" lon="4.44728">
        <ele>539.8</ele>
        <time>2022-06-26T08:43:02Z</time>
      </trkpt>
      <trkpt lat="45.91606" lon="4.44727">
        <ele>540</ele>
        <time>2022-06-26T08:43:03Z</time>
      </trkpt>
      <trkpt lat="45.91605" lon="4.44726">
        <ele>540.4</ele>
        <time>2022-06-26T08:43:04Z</time>
      </trkpt>
      <trkpt lat="45.91603" lon="4.44725">
        <ele>540.6</ele>
        <time>2022-06-26T08:43:05Z</time>
      </trkpt>
      <trkpt lat="45.91602" lon="4.44724">
        <ele>540.8</ele>
        <time>2022-06-26T08:43:06Z</time>
      </trkpt>
      <trkpt lat="45.91601" lon="4.44724">
        <ele>541</ele>
        <time>2022-06-26T08:43:07Z</time>
      </trkpt>
      <trkpt lat="45.91599" lon="4.44723">
        <ele>541</ele>
        <time>2022-06-26T08:43:08Z</time>
      </trkpt>
      <trkpt lat="45.91598" lon="4.44722">
        <ele>541.4</ele>
        <time>2022-06-26T08:43:09Z</time>
      </trkpt>
      <trkpt lat="45.91596" lon="4.44721">
        <ele>541.4</ele>
        <time>2022-06-26T08:43:10Z</time>
      </trkpt>
      <trkpt lat="45.91595" lon="4.4472">
        <ele>541.8</ele>
        <time>2022-06-26T08:43:11Z</time>
      </trkpt>
      <trkpt lat="45.91593" lon="4.4472">
        <ele>542</ele>
        <time>2022-06-26T08:43:12Z</time>
      </trkpt>
      <trkpt lat="45.91592" lon="4.4472">
        <ele>542</ele>
        <time>2022-06-26T08:43:13Z</time>
      </trkpt>
      <trkpt lat="45.9159" lon="4.44719">
        <ele>542.4</ele>
        <time>2022-06-26T08:43:14Z</time>
      </trkpt>
      <trkpt lat="45.91589" lon="4.44719">
        <ele>542.6</ele>
        <time>2022-06-26T08:43:15Z</time>
      </trkpt>
      <trkpt lat="45.91587" lon="4.44719">
        <ele>542.8</ele>
        <time>2022-06-26T08:43:16Z</time>
      </trkpt>
      <trkpt lat="45.91585" lon="4.44718">
        <ele>543.2</ele>
        <time>2022-06-26T08:43:17Z</time>
      </trkpt>
      <trkpt lat="45.91583" lon="4.44718">
        <ele>543.4</ele>
        <time>2022-06-26T08:43:18Z</time>
      </trkpt>
      <trkpt lat="45.91582" lon="4.44717">
        <ele>543.8</ele>
        <time>2022-06-26T08:43:19Z</time>
      </trkpt>
      <trkpt lat="45.9158" lon="4.44716">
        <ele>544</ele>
        <time>2022-06-26T08:43:20Z</time>
      </trkpt>
      <trkpt lat="45.91579" lon="4.44715">
        <ele>544.2</ele>
        <time>2022-06-26T08:43:21Z</time>
      </trkpt>
      <trkpt lat="45.91577" lon="4.44715">
        <ele>544.4</ele>
        <time>2022-06-26T08:43:22Z</time>
      </trkpt>
      <trkpt lat="45.91576" lon="4.44714">
        <ele>544.4</ele>
        <time>2022-06-26T08:43:23Z</time>
      </trkpt>
      <trkpt lat="45.91574" lon="4.44714">
        <ele>544.6</ele>
        <time>2022-06-26T08:43:24Z</time>
      </trkpt>
      <trkpt lat="45.91573" lon="4.44713">
        <ele>544.6</ele>
        <time>2022-06-26T08:43:25Z</time>
      </trkpt>
      <trkpt lat="45.91571" lon="4.44713">
        <ele>545</ele>
        <time>2022-06-26T08:43:26Z</time>
      </trkpt>
      <trkpt lat="45.9157" lon="4.44712">
        <ele>545.2</ele>
        <time>2022-06-26T08:43:27Z</time>
      </trkpt>
      <trkpt lat="45.91568" lon="4.44711">
        <ele>545.4</ele>
        <time>2022-06-26T08:43:28Z</time>
      </trkpt>
      <trkpt lat="45.91567" lon="4.4471">
        <ele>545.8</ele>
        <time>2022-06-26T08:43:29Z</time>
      </trkpt>
      <trkpt lat="45.91565" lon="4.44709">
        <ele>546</ele>
        <time>2022-06-26T08:43:30Z</time>
      </trkpt>
      <trkpt lat="45.91564" lon="4.44708">
        <ele>546.2</ele>
        <time>2022-06-26T08:43:31Z</time>
      </trkpt>
      <trkpt lat="45.91562" lon="4.44707">
        <ele>546.4</ele>
        <time>2022-06-26T08:43:32Z</time>
      </trkpt>
      <trkpt lat="45.91561" lon="4.44705">
        <ele>546.6</ele>
        <time>2022-06-26T08:43:33Z</time>
      </trkpt>
      <trkpt lat="45.9156" lon="4.44703">
        <ele>547</ele>
        <time>2022-06-26T08:43:34Z</time>
      </trkpt>
      <trkpt lat="45.91559" lon="4.44702">
        <ele>547.2</ele>
        <time>2022-06-26T08:43:35Z</time>
      </trkpt>
      <trkpt lat="45.91558" lon="4.44701">
        <ele>547.4</ele>
        <time>2022-06-26T08:43:36Z</time>
      </trkpt>
      <trkpt lat="45.91556" lon="4.447">
        <ele>547.8</ele>
        <time>2022-06-26T08:43:37Z</time>
      </trkpt>
      <trkpt lat="45.91555" lon="4.44699">
        <ele>547.8</ele>
        <time>2022-06-26T08:43:38Z</time>
      </trkpt>
      <trkpt lat="45.91554" lon="4.44697">
        <ele>548</ele>
        <time>2022-06-26T08:43:39Z</time>
      </trkpt>
      <trkpt lat="45.91553" lon="4.44696">
        <ele>548</ele>
        <time>2022-06-26T08:43:40Z</time>
      </trkpt>
      <trkpt lat="45.91552" lon="4.44694">
        <ele>548.6</ele>
        <time>2022-06-26T08:43:41Z</time>
      </trkpt>
      <trkpt lat="45.91551" lon="4.44692">
        <ele>548.8</ele>
        <time>2022-06-26T08:43:42Z</time>
      </trkpt>
      <trkpt lat="45.9155" lon="4.44691">
        <ele>549</ele>
        <time>2022-06-26T08:43:43Z</time>
      </trkpt>
      <trkpt lat="45.9155" lon="4.44689">
        <ele>549</ele>
        <time>2022-06-26T08:43:44Z</time>
      </trkpt>
      <trkpt lat="45.91549" lon="4.44686">
        <ele>549.4</ele>
        <time>2022-06-26T08:43:45Z</time>
      </trkpt>
      <trkpt lat="45.91549" lon="4.44684">
        <ele>549.6</ele>
        <time>2022-06-26T08:43:46Z</time>
      </trkpt>
      <trkpt lat="45.91549" lon="4.44682">
        <ele>549.8</ele>
        <time>2022-06-26T08:43:47Z</time>
      </trkpt>
      <trkpt lat="45.91548" lon="4.4468">
        <ele>549.8</ele>
        <time>2022-06-26T08:43:48Z</time>
      </trkpt>
      <trkpt lat="45.91548" lon="4.44678">
        <ele>550.2</ele>
        <time>2022-06-26T08:43:49Z</time>
      </trkpt>
      <trkpt lat="45.91547" lon="4.44676">
        <ele>550.4</ele>
        <time>2022-06-26T08:43:50Z</time>
      </trkpt>
      <trkpt lat="45.91547" lon="4.44674">
        <ele>550.6</ele>
        <time>2022-06-26T08:43:51Z</time>
      </trkpt>
      <trkpt lat="45.91547" lon="4.44672">
        <ele>551</ele>
        <time>2022-06-26T08:43:52Z</time>
      </trkpt>
      <trkpt lat="45.91547" lon="4.4467">
        <ele>551.2</ele>
        <time>2022-06-26T08:43:53Z</time>
      </trkpt>
      <trkpt lat="45.91547" lon="4.44668">
        <ele>551.4</ele>
        <time>2022-06-26T08:43:54Z</time>
      </trkpt>
      <trkpt lat="45.91547" lon="4.44666">
        <ele>551.8</ele>
        <time>2022-06-26T08:43:55Z</time>
      </trkpt>
      <trkpt lat="45.91547" lon="4.44664">
        <ele>552.2</ele>
        <time>2022-06-26T08:43:56Z</time>
      </trkpt>
      <trkpt lat="45.91547" lon="4.44662">
        <ele>552.2</ele>
        <time>2022-06-26T08:43:57Z</time>
      </trkpt>
      <trkpt lat="45.91547" lon="4.4466">
        <ele>552.6</ele>
        <time>2022-06-26T08:43:58Z</time>
      </trkpt>
      <trkpt lat="45.91547" lon="4.44658">
        <ele>552.8</ele>
        <time>2022-06-26T08:43:59Z</time>
      </trkpt>
      <trkpt lat="45.91547" lon="4.44656">
        <ele>553</ele>
        <time>2022-06-26T08:44:00Z</time>
      </trkpt>
      <trkpt lat="45.91547" lon="4.44654">
        <ele>553.2</ele>
        <time>2022-06-26T08:44:01Z</time>
      </trkpt>
      <trkpt lat="45.91547" lon="4.44651">
        <ele>553.4</ele>
        <time>2022-06-26T08:44:02Z</time>
      </trkpt>
      <trkpt lat="45.91548" lon="4.44649">
        <ele>553.6</ele>
        <time>2022-06-26T08:44:03Z</time>
      </trkpt>
      <trkpt lat="45.91548" lon="4.44647">
        <ele>553.8</ele>
        <time>2022-06-26T08:44:04Z</time>
      </trkpt>
      <trkpt lat="45.91548" lon="4.44645">
        <ele>553.8</ele>
        <time>2022-06-26T08:44:05Z</time>
      </trkpt>
      <trkpt lat="45.91548" lon="4.44643">
        <ele>554.2</ele>
        <time>2022-06-26T08:44:06Z</time>
      </trkpt>
      <trkpt lat="45.91548" lon="4.44641">
        <ele>554.2</ele>
        <time>2022-06-26T08:44:07Z</time>
      </trkpt>
      <trkpt lat="45.91548" lon="4.44639">
        <ele>554.6</ele>
        <time>2022-06-26T08:44:08Z</time>
      </trkpt>
      <trkpt lat="45.91548" lon="4.44637">
        <ele>554.8</ele>
        <time>2022-06-26T08:44:09Z</time>
      </trkpt>
      <trkpt lat="45.91548" lon="4.44635">
        <ele>554.8</ele>
        <time>2022-06-26T08:44:10Z</time>
      </trkpt>
      <trkpt lat="45.91549" lon="4.44634">
        <ele>555</ele>
        <time>2022-06-26T08:44:11Z</time>
      </trkpt>
      <trkpt lat="45.91549" lon="4.44632">
        <ele>555</ele>
        <time>2022-06-26T08:44:12Z</time>
      </trkpt>
      <trkpt lat="45.91549" lon="4.44631">
        <ele>555.4</ele>
        <time>2022-06-26T08:44:13Z</time>
      </trkpt>
      <trkpt lat="45.91549" lon="4.44622">
        <ele>556.4</ele>
        <time>2022-06-26T08:44:17Z</time>
      </trkpt>
      <trkpt lat="45.91549" lon="4.4462">
        <ele>556.6</ele>
        <time>2022-06-26T08:44:18Z</time>
      </trkpt>
      <trkpt lat="45.91549" lon="4.44618">
        <ele>556.6</ele>
        <time>2022-06-26T08:44:19Z</time>
      </trkpt>
      <trkpt lat="45.91549" lon="4.44616">
        <ele>557</ele>
        <time>2022-06-26T08:44:20Z</time>
      </trkpt>
      <trkpt lat="45.91549" lon="4.44614">
        <ele>557</ele>
        <time>2022-06-26T08:44:21Z</time>
      </trkpt>
      <trkpt lat="45.91549" lon="4.44613">
        <ele>557.4</ele>
        <time>2022-06-26T08:44:22Z</time>
      </trkpt>
      <trkpt lat="45.91549" lon="4.44611">
        <ele>557.6</ele>
        <time>2022-06-26T08:44:23Z</time>
      </trkpt>
      <trkpt lat="45.91548" lon="4.44609">
        <ele>557.6</ele>
        <time>2022-06-26T08:44:24Z</time>
      </trkpt>
      <trkpt lat="45.91548" lon="4.44607">
        <ele>557.8</ele>
        <time>2022-06-26T08:44:25Z</time>
      </trkpt>
      <trkpt lat="45.91547" lon="4.44605">
        <ele>557.8</ele>
        <time>2022-06-26T08:44:26Z</time>
      </trkpt>
      <trkpt lat="45.91546" lon="4.44603">
        <ele>558.2</ele>
        <time>2022-06-26T08:44:27Z</time>
      </trkpt>
      <trkpt lat="45.91546" lon="4.44602">
        <ele>558.2</ele>
        <time>2022-06-26T08:44:28Z</time>
      </trkpt>
      <trkpt lat="45.91545" lon="4.446">
        <ele>558.6</ele>
        <time>2022-06-26T08:44:29Z</time>
      </trkpt>
      <trkpt lat="45.91545" lon="4.44598">
        <ele>558.6</ele>
        <time>2022-06-26T08:44:30Z</time>
      </trkpt>
      <trkpt lat="45.91544" lon="4.44596">
        <ele>559</ele>
        <time>2022-06-26T08:44:31Z</time>
      </trkpt>
      <trkpt lat="45.91544" lon="4.44594">
        <ele>559</ele>
        <time>2022-06-26T08:44:32Z</time>
      </trkpt>
      <trkpt lat="45.91544" lon="4.44593">
        <ele>559.4</ele>
        <time>2022-06-26T08:44:33Z</time>
      </trkpt>
      <trkpt lat="45.91543" lon="4.44591">
        <ele>559.6</ele>
        <time>2022-06-26T08:44:34Z</time>
      </trkpt>
      <trkpt lat="45.91543" lon="4.44589">
        <ele>559.8</ele>
        <time>2022-06-26T08:44:35Z</time>
      </trkpt>
      <trkpt lat="45.91542" lon="4.44587">
        <ele>560</ele>
        <time>2022-06-26T08:44:36Z</time>
      </trkpt>
      <trkpt lat="45.91542" lon="4.44585">
        <ele>560</ele>
        <time>2022-06-26T08:44:37Z</time>
      </trkpt>
      <trkpt lat="45.91542" lon="4.44583">
        <ele>560.2</ele>
        <time>2022-06-26T08:44:38Z</time>
      </trkpt>
      <trkpt lat="45.91541" lon="4.44581">
        <ele>560.2</ele>
        <time>2022-06-26T08:44:39Z</time>
      </trkpt>
      <trkpt lat="45.9154" lon="4.44579">
        <ele>560.6</ele>
        <time>2022-06-26T08:44:40Z</time>
      </trkpt>
      <trkpt lat="45.9154" lon="4.44578">
        <ele>560.8</ele>
        <time>2022-06-26T08:44:41Z</time>
      </trkpt>
      <trkpt lat="45.9154" lon="4.44576">
        <ele>561</ele>
        <time>2022-06-26T08:44:42Z</time>
      </trkpt>
      <trkpt lat="45.9154" lon="4.44574">
        <ele>561</ele>
        <time>2022-06-26T08:44:43Z</time>
      </trkpt>
      <trkpt lat="45.9154" lon="4.44572">
        <ele>561.4</ele>
        <time>2022-06-26T08:44:44Z</time>
      </trkpt>
      <trkpt lat="45.9154" lon="4.4457">
        <ele>561.4</ele>
        <time>2022-06-26T08:44:45Z</time>
      </trkpt>
      <trkpt lat="45.9154" lon="4.44568">
        <ele>561.4</ele>
        <time>2022-06-26T08:44:46Z</time>
      </trkpt>
      <trkpt lat="45.91541" lon="4.44565">
        <ele>561.8</ele>
        <time>2022-06-26T08:44:48Z</time>
      </trkpt>
      <trkpt lat="45.91541" lon="4.44563">
        <ele>562.2</ele>
        <time>2022-06-26T08:44:49Z</time>
      </trkpt>
      <trkpt lat="45.91541" lon="4.44561">
        <ele>562.2</ele>
        <time>2022-06-26T08:44:50Z</time>
      </trkpt>
      <trkpt lat="45.91542" lon="4.44558">
        <ele>562.4</ele>
        <time>2022-06-26T08:44:51Z</time>
      </trkpt>
      <trkpt lat="45.91543" lon="4.44556">
        <ele>562.4</ele>
        <time>2022-06-26T08:44:52Z</time>
      </trkpt>
      <trkpt lat="45.91544" lon="4.44554">
        <ele>562.8</ele>
        <time>2022-06-26T08:44:53Z</time>
      </trkpt>
      <trkpt lat="45.91545" lon="4.44552">
        <ele>562.8</ele>
        <time>2022-06-26T08:44:54Z</time>
      </trkpt>
      <trkpt lat="45.91546" lon="4.44549">
        <ele>563</ele>
        <time>2022-06-26T08:44:55Z</time>
      </trkpt>
      <trkpt lat="45.91547" lon="4.44547">
        <ele>563</ele>
        <time>2022-06-26T08:44:56Z</time>
      </trkpt>
      <trkpt lat="45.91548" lon="4.44545">
        <ele>563.4</ele>
        <time>2022-06-26T08:44:57Z</time>
      </trkpt>
      <trkpt lat="45.91548" lon="4.44543">
        <ele>563.4</ele>
        <time>2022-06-26T08:44:58Z</time>
      </trkpt>
      <trkpt lat="45.91549" lon="4.44541">
        <ele>563.6</ele>
        <time>2022-06-26T08:44:59Z</time>
      </trkpt>
      <trkpt lat="45.9155" lon="4.44539">
        <ele>563.6</ele>
        <time>2022-06-26T08:45:00Z</time>
      </trkpt>
      <trkpt lat="45.91552" lon="4.44537">
        <ele>563.8</ele>
        <time>2022-06-26T08:45:01Z</time>
      </trkpt>
      <trkpt lat="45.91552" lon="4.44535">
        <ele>563.8</ele>
        <time>2022-06-26T08:45:02Z</time>
      </trkpt>
      <trkpt lat="45.91553" lon="4.44534">
        <ele>564</ele>
        <time>2022-06-26T08:45:03Z</time>
      </trkpt>
      <trkpt lat="45.91554" lon="4.44532">
        <ele>564</ele>
        <time>2022-06-26T08:45:04Z</time>
      </trkpt>
      <trkpt lat="45.91555" lon="4.44531">
        <ele>564.4</ele>
        <time>2022-06-26T08:45:05Z</time>
      </trkpt>
      <trkpt lat="45.91557" lon="4.4453">
        <ele>564.4</ele>
        <time>2022-06-26T08:45:06Z</time>
      </trkpt>
      <trkpt lat="45.91558" lon="4.44529">
        <ele>564.6</ele>
        <time>2022-06-26T08:45:07Z</time>
      </trkpt>
      <trkpt lat="45.91559" lon="4.44528">
        <ele>564.6</ele>
        <time>2022-06-26T08:45:08Z</time>
      </trkpt>
      <trkpt lat="45.9156" lon="4.44526">
        <ele>565</ele>
        <time>2022-06-26T08:45:09Z</time>
      </trkpt>
      <trkpt lat="45.91561" lon="4.44525">
        <ele>565</ele>
        <time>2022-06-26T08:45:10Z</time>
      </trkpt>
      <trkpt lat="45.91562" lon="4.44524">
        <ele>565.4</ele>
        <time>2022-06-26T08:45:11Z</time>
      </trkpt>
      <trkpt lat="45.91563" lon="4.44523">
        <ele>565.4</ele>
        <time>2022-06-26T08:45:12Z</time>
      </trkpt>
      <trkpt lat="45.91564" lon="4.44523">
        <ele>565.6</ele>
        <time>2022-06-26T08:45:13Z</time>
      </trkpt>
      <trkpt lat="45.91565" lon="4.44522">
        <ele>565.6</ele>
        <time>2022-06-26T08:45:14Z</time>
      </trkpt>
      <trkpt lat="45.91566" lon="4.44521">
        <ele>565.8</ele>
        <time>2022-06-26T08:45:15Z</time>
      </trkpt>
      <trkpt lat="45.91568" lon="4.4452">
        <ele>565.8</ele>
        <time>2022-06-26T08:45:16Z</time>
      </trkpt>
      <trkpt lat="45.91569" lon="4.4452">
        <ele>566.2</ele>
        <time>2022-06-26T08:45:17Z</time>
      </trkpt>
      <trkpt lat="45.9157" lon="4.44519">
        <ele>566.4</ele>
        <time>2022-06-26T08:45:18Z</time>
      </trkpt>
      <trkpt lat="45.91571" lon="4.44518">
        <ele>566.6</ele>
        <time>2022-06-26T08:45:19Z</time>
      </trkpt>
      <trkpt lat="45.91572" lon="4.44517">
        <ele>566.6</ele>
        <time>2022-06-26T08:45:20Z</time>
      </trkpt>
      <trkpt lat="45.91574" lon="4.44516">
        <ele>567</ele>
        <time>2022-06-26T08:45:21Z</time>
      </trkpt>
      <trkpt lat="45.91575" lon="4.44515">
        <ele>567</ele>
        <time>2022-06-26T08:45:22Z</time>
      </trkpt>
      <trkpt lat="45.91577" lon="4.44513">
        <ele>567.4</ele>
        <time>2022-06-26T08:45:23Z</time>
      </trkpt>
      <trkpt lat="45.91578" lon="4.44512">
        <ele>567.6</ele>
        <time>2022-06-26T08:45:24Z</time>
      </trkpt>
      <trkpt lat="45.9158" lon="4.44511">
        <ele>567.6</ele>
        <time>2022-06-26T08:45:25Z</time>
      </trkpt>
      <trkpt lat="45.91581" lon="4.4451">
        <ele>567.8</ele>
        <time>2022-06-26T08:45:26Z</time>
      </trkpt>
      <trkpt lat="45.91582" lon="4.44509">
        <ele>567.8</ele>
        <time>2022-06-26T08:45:27Z</time>
      </trkpt>
      <trkpt lat="45.91583" lon="4.44507">
        <ele>568.2</ele>
        <time>2022-06-26T08:45:28Z</time>
      </trkpt>
      <trkpt lat="45.91585" lon="4.44507">
        <ele>568.2</ele>
        <time>2022-06-26T08:45:29Z</time>
      </trkpt>
      <trkpt lat="45.91586" lon="4.44506">
        <ele>568.4</ele>
        <time>2022-06-26T08:45:30Z</time>
      </trkpt>
      <trkpt lat="45.91587" lon="4.44505">
        <ele>568.4</ele>
        <time>2022-06-26T08:45:31Z</time>
      </trkpt>
      <trkpt lat="45.91588" lon="4.44503">
        <ele>568.6</ele>
        <time>2022-06-26T08:45:32Z</time>
      </trkpt>
      <trkpt lat="45.9159" lon="4.44502">
        <ele>568.6</ele>
        <time>2022-06-26T08:45:33Z</time>
      </trkpt>
      <trkpt lat="45.91592" lon="4.445">
        <ele>569</ele>
        <time>2022-06-26T08:45:34Z</time>
      </trkpt>
      <trkpt lat="45.91593" lon="4.44499">
        <ele>569</ele>
        <time>2022-06-26T08:45:35Z</time>
      </trkpt>
      <trkpt lat="45.91595" lon="4.44498">
        <ele>569.2</ele>
        <time>2022-06-26T08:45:36Z</time>
      </trkpt>
      <trkpt lat="45.91596" lon="4.44497">
        <ele>569.4</ele>
        <time>2022-06-26T08:45:37Z</time>
      </trkpt>
      <trkpt lat="45.91597" lon="4.44496">
        <ele>569.8</ele>
        <time>2022-06-26T08:45:38Z</time>
      </trkpt>
      <trkpt lat="45.91598" lon="4.44495">
        <ele>569.8</ele>
        <time>2022-06-26T08:45:39Z</time>
      </trkpt>
      <trkpt lat="45.91598" lon="4.44494">
        <ele>570</ele>
        <time>2022-06-26T08:45:40Z</time>
      </trkpt>
      <trkpt lat="45.91599" lon="4.44492">
        <ele>570</ele>
        <time>2022-06-26T08:45:41Z</time>
      </trkpt>
      <trkpt lat="45.91599" lon="4.4449">
        <ele>570.4</ele>
        <time>2022-06-26T08:45:42Z</time>
      </trkpt>
      <trkpt lat="45.916" lon="4.44488">
        <ele>570.4</ele>
        <time>2022-06-26T08:45:43Z</time>
      </trkpt>
      <trkpt lat="45.91601" lon="4.44486">
        <ele>570.8</ele>
        <time>2022-06-26T08:45:44Z</time>
      </trkpt>
      <trkpt lat="45.91601" lon="4.44484">
        <ele>570.8</ele>
        <time>2022-06-26T08:45:45Z</time>
      </trkpt>
      <trkpt lat="45.91602" lon="4.44482">
        <ele>571</ele>
        <time>2022-06-26T08:45:46Z</time>
      </trkpt>
      <trkpt lat="45.91603" lon="4.4448">
        <ele>571</ele>
        <time>2022-06-26T08:45:47Z</time>
      </trkpt>
      <trkpt lat="45.91604" lon="4.44478">
        <ele>571.4</ele>
        <time>2022-06-26T08:45:48Z</time>
      </trkpt>
      <trkpt lat="45.91604" lon="4.44476">
        <ele>571.6</ele>
        <time>2022-06-26T08:45:49Z</time>
      </trkpt>
      <trkpt lat="45.91605" lon="4.44474">
        <ele>571.6</ele>
        <time>2022-06-26T08:45:50Z</time>
      </trkpt>
      <trkpt lat="45.91606" lon="4.44472">
        <ele>572</ele>
        <time>2022-06-26T08:45:51Z</time>
      </trkpt>
      <trkpt lat="45.91607" lon="4.4447">
        <ele>572</ele>
        <time>2022-06-26T08:45:52Z</time>
      </trkpt>
      <trkpt lat="45.91607" lon="4.44468">
        <ele>572.2</ele>
        <time>2022-06-26T08:45:53Z</time>
      </trkpt>
      <trkpt lat="45.91608" lon="4.44466">
        <ele>572.2</ele>
        <time>2022-06-26T08:45:54Z</time>
      </trkpt>
      <trkpt lat="45.91608" lon="4.44465">
        <ele>572.6</ele>
        <time>2022-06-26T08:45:55Z</time>
      </trkpt>
      <trkpt lat="45.91609" lon="4.44463">
        <ele>572.6</ele>
        <time>2022-06-26T08:45:56Z</time>
      </trkpt>
      <trkpt lat="45.91609" lon="4.44461">
        <ele>573</ele>
        <time>2022-06-26T08:45:57Z</time>
      </trkpt>
      <trkpt lat="45.91609" lon="4.44458">
        <ele>573</ele>
        <time>2022-06-26T08:45:58Z</time>
      </trkpt>
      <trkpt lat="45.91608" lon="4.44456">
        <ele>573.4</ele>
        <time>2022-06-26T08:45:59Z</time>
      </trkpt>
      <trkpt lat="45.91609" lon="4.44454">
        <ele>573.4</ele>
        <time>2022-06-26T08:46:00Z</time>
      </trkpt>
      <trkpt lat="45.91609" lon="4.44452">
        <ele>573.6</ele>
        <time>2022-06-26T08:46:01Z</time>
      </trkpt>
      <trkpt lat="45.91609" lon="4.44449">
        <ele>573.8</ele>
        <time>2022-06-26T08:46:02Z</time>
      </trkpt>
      <trkpt lat="45.91609" lon="4.44447">
        <ele>574</ele>
        <time>2022-06-26T08:46:03Z</time>
      </trkpt>
      <trkpt lat="45.91609" lon="4.44445">
        <ele>574.2</ele>
        <time>2022-06-26T08:46:04Z</time>
      </trkpt>
      <trkpt lat="45.91608" lon="4.44442">
        <ele>574.2</ele>
        <time>2022-06-26T08:46:05Z</time>
      </trkpt>
      <trkpt lat="45.91608" lon="4.4444">
        <ele>574.6</ele>
        <time>2022-06-26T08:46:06Z</time>
      </trkpt>
      <trkpt lat="45.91607" lon="4.44438">
        <ele>574.6</ele>
        <time>2022-06-26T08:46:07Z</time>
      </trkpt>
      <trkpt lat="45.91607" lon="4.44435">
        <ele>575</ele>
        <time>2022-06-26T08:46:08Z</time>
      </trkpt>
      <trkpt lat="45.91607" lon="4.44433">
        <ele>575.2</ele>
        <time>2022-06-26T08:46:09Z</time>
      </trkpt>
      <trkpt lat="45.91607" lon="4.44431">
        <ele>575.2</ele>
        <time>2022-06-26T08:46:10Z</time>
      </trkpt>
      <trkpt lat="45.91607" lon="4.44429">
        <ele>575.6</ele>
        <time>2022-06-26T08:46:11Z</time>
      </trkpt>
      <trkpt lat="45.91607" lon="4.44427">
        <ele>575.8</ele>
        <time>2022-06-26T08:46:12Z</time>
      </trkpt>
      <trkpt lat="45.91606" lon="4.44424">
        <ele>576</ele>
        <time>2022-06-26T08:46:13Z</time>
      </trkpt>
      <trkpt lat="45.91606" lon="4.44422">
        <ele>576</ele>
        <time>2022-06-26T08:46:14Z</time>
      </trkpt>
      <trkpt lat="45.91606" lon="4.4442">
        <ele>576.4</ele>
        <time>2022-06-26T08:46:15Z</time>
      </trkpt>
      <trkpt lat="45.91607" lon="4.44418">
        <ele>576.6</ele>
        <time>2022-06-26T08:46:16Z</time>
      </trkpt>
      <trkpt lat="45.91606" lon="4.44416">
        <ele>576.8</ele>
        <time>2022-06-26T08:46:17Z</time>
      </trkpt>
      <trkpt lat="45.91606" lon="4.44414">
        <ele>576.8</ele>
        <time>2022-06-26T08:46:18Z</time>
      </trkpt>
      <trkpt lat="45.91606" lon="4.44411">
        <ele>577.2</ele>
        <time>2022-06-26T08:46:19Z</time>
      </trkpt>
      <trkpt lat="45.91606" lon="4.44409">
        <ele>577.2</ele>
        <time>2022-06-26T08:46:20Z</time>
      </trkpt>
      <trkpt lat="45.91607" lon="4.44407">
        <ele>577.6</ele>
        <time>2022-06-26T08:46:21Z</time>
      </trkpt>
      <trkpt lat="45.91606" lon="4.44405">
        <ele>577.6</ele>
        <time>2022-06-26T08:46:22Z</time>
      </trkpt>
      <trkpt lat="45.91606" lon="4.44403">
        <ele>577.8</ele>
        <time>2022-06-26T08:46:23Z</time>
      </trkpt>
      <trkpt lat="45.91606" lon="4.44401">
        <ele>577.8</ele>
        <time>2022-06-26T08:46:24Z</time>
      </trkpt>
      <trkpt lat="45.91606" lon="4.44398">
        <ele>578</ele>
        <time>2022-06-26T08:46:25Z</time>
      </trkpt>
      <trkpt lat="45.91606" lon="4.44396">
        <ele>578</ele>
        <time>2022-06-26T08:46:26Z</time>
      </trkpt>
      <trkpt lat="45.91606" lon="4.44394">
        <ele>578.4</ele>
        <time>2022-06-26T08:46:27Z</time>
      </trkpt>
      <trkpt lat="45.91605" lon="4.44392">
        <ele>578.4</ele>
        <time>2022-06-26T08:46:28Z</time>
      </trkpt>
      <trkpt lat="45.91605" lon="4.4439">
        <ele>578.8</ele>
        <time>2022-06-26T08:46:29Z</time>
      </trkpt>
      <trkpt lat="45.91605" lon="4.44388">
        <ele>578.8</ele>
        <time>2022-06-26T08:46:30Z</time>
      </trkpt>
      <trkpt lat="45.91606" lon="4.44385">
        <ele>579</ele>
        <time>2022-06-26T08:46:31Z</time>
      </trkpt>
      <trkpt lat="45.91606" lon="4.44383">
        <ele>579</ele>
        <time>2022-06-26T08:46:32Z</time>
      </trkpt>
      <trkpt lat="45.91606" lon="4.4438">
        <ele>579.4</ele>
        <time>2022-06-26T08:46:33Z</time>
      </trkpt>
      <trkpt lat="45.91606" lon="4.44378">
        <ele>579.4</ele>
        <time>2022-06-26T08:46:34Z</time>
      </trkpt>
      <trkpt lat="45.91606" lon="4.44376">
        <ele>579.8</ele>
        <time>2022-06-26T08:46:35Z</time>
      </trkpt>
      <trkpt lat="45.91606" lon="4.44374">
        <ele>580</ele>
        <time>2022-06-26T08:46:36Z</time>
      </trkpt>
      <trkpt lat="45.91606" lon="4.44371">
        <ele>580.2</ele>
        <time>2022-06-26T08:46:37Z</time>
      </trkpt>
      <trkpt lat="45.91606" lon="4.44369">
        <ele>580.2</ele>
        <time>2022-06-26T08:46:38Z</time>
      </trkpt>
      <trkpt lat="45.91605" lon="4.44367">
        <ele>580.6</ele>
        <time>2022-06-26T08:46:39Z</time>
      </trkpt>
      <trkpt lat="45.91605" lon="4.44365">
        <ele>580.8</ele>
        <time>2022-06-26T08:46:40Z</time>
      </trkpt>
      <trkpt lat="45.91605" lon="4.44363">
        <ele>581</ele>
        <time>2022-06-26T08:46:41Z</time>
      </trkpt>
      <trkpt lat="45.91605" lon="4.44361">
        <ele>581.2</ele>
        <time>2022-06-26T08:46:42Z</time>
      </trkpt>
      <trkpt lat="45.91606" lon="4.44359">
        <ele>581.2</ele>
        <time>2022-06-26T08:46:43Z</time>
      </trkpt>
      <trkpt lat="45.91606" lon="4.44357">
        <ele>581.4</ele>
        <time>2022-06-26T08:46:44Z</time>
      </trkpt>
      <trkpt lat="45.91606" lon="4.44355">
        <ele>581.4</ele>
        <time>2022-06-26T08:46:45Z</time>
      </trkpt>
      <trkpt lat="45.91606" lon="4.44353">
        <ele>581.8</ele>
        <time>2022-06-26T08:46:46Z</time>
      </trkpt>
      <trkpt lat="45.91607" lon="4.44351">
        <ele>581.8</ele>
        <time>2022-06-26T08:46:47Z</time>
      </trkpt>
      <trkpt lat="45.91608" lon="4.44349">
        <ele>582.2</ele>
        <time>2022-06-26T08:46:48Z</time>
      </trkpt>
      <trkpt lat="45.91608" lon="4.44347">
        <ele>582.2</ele>
        <time>2022-06-26T08:46:49Z</time>
      </trkpt>
      <trkpt lat="45.91609" lon="4.44345">
        <ele>582.4</ele>
        <time>2022-06-26T08:46:50Z</time>
      </trkpt>
      <trkpt lat="45.91609" lon="4.44343">
        <ele>582.4</ele>
        <time>2022-06-26T08:46:51Z</time>
      </trkpt>
      <trkpt lat="45.91609" lon="4.44341">
        <ele>582.8</ele>
        <time>2022-06-26T08:46:52Z</time>
      </trkpt>
      <trkpt lat="45.9161" lon="4.44339">
        <ele>583</ele>
        <time>2022-06-26T08:46:53Z</time>
      </trkpt>
      <trkpt lat="45.9161" lon="4.44337">
        <ele>583</ele>
        <time>2022-06-26T08:46:54Z</time>
      </trkpt>
      <trkpt lat="45.91611" lon="4.44335">
        <ele>583.2</ele>
        <time>2022-06-26T08:46:55Z</time>
      </trkpt>
      <trkpt lat="45.91612" lon="4.44333">
        <ele>583.2</ele>
        <time>2022-06-26T08:46:56Z</time>
      </trkpt>
      <trkpt lat="45.91612" lon="4.44331">
        <ele>583.6</ele>
        <time>2022-06-26T08:46:57Z</time>
      </trkpt>
      <trkpt lat="45.91613" lon="4.44329">
        <ele>583.8</ele>
        <time>2022-06-26T08:46:58Z</time>
      </trkpt>
      <trkpt lat="45.91613" lon="4.44327">
        <ele>583.8</ele>
        <time>2022-06-26T08:46:59Z</time>
      </trkpt>
      <trkpt lat="45.91614" lon="4.44325">
        <ele>584</ele>
        <time>2022-06-26T08:47:00Z</time>
      </trkpt>
      <trkpt lat="45.91615" lon="4.44324">
        <ele>584</ele>
        <time>2022-06-26T08:47:01Z</time>
      </trkpt>
      <trkpt lat="45.91616" lon="4.44322">
        <ele>584.4</ele>
        <time>2022-06-26T08:47:02Z</time>
      </trkpt>
      <trkpt lat="45.91616" lon="4.4432">
        <ele>584.4</ele>
        <time>2022-06-26T08:47:03Z</time>
      </trkpt>
      <trkpt lat="45.91617" lon="4.44318">
        <ele>584.6</ele>
        <time>2022-06-26T08:47:04Z</time>
      </trkpt>
      <trkpt lat="45.91618" lon="4.44316">
        <ele>584.6</ele>
        <time>2022-06-26T08:47:05Z</time>
      </trkpt>
      <trkpt lat="45.91618" lon="4.44315">
        <ele>585</ele>
        <time>2022-06-26T08:47:06Z</time>
      </trkpt>
      <trkpt lat="45.91619" lon="4.44313">
        <ele>585</ele>
        <time>2022-06-26T08:47:07Z</time>
      </trkpt>
      <trkpt lat="45.9162" lon="4.44311">
        <ele>585.4</ele>
        <time>2022-06-26T08:47:08Z</time>
      </trkpt>
      <trkpt lat="45.9162" lon="4.44309">
        <ele>585.4</ele>
        <time>2022-06-26T08:47:09Z</time>
      </trkpt>
      <trkpt lat="45.91621" lon="4.44308">
        <ele>585.6</ele>
        <time>2022-06-26T08:47:10Z</time>
      </trkpt>
      <trkpt lat="45.91622" lon="4.44306">
        <ele>585.6</ele>
        <time>2022-06-26T08:47:11Z</time>
      </trkpt>
      <trkpt lat="45.91623" lon="4.44304">
        <ele>586</ele>
        <time>2022-06-26T08:47:12Z</time>
      </trkpt>
      <trkpt lat="45.91624" lon="4.44303">
        <ele>586</ele>
        <time>2022-06-26T08:47:13Z</time>
      </trkpt>
      <trkpt lat="45.91625" lon="4.44301">
        <ele>586.4</ele>
        <time>2022-06-26T08:47:14Z</time>
      </trkpt>
      <trkpt lat="45.91626" lon="4.443">
        <ele>586.4</ele>
        <time>2022-06-26T08:47:15Z</time>
      </trkpt>
      <trkpt lat="45.91626" lon="4.44298">
        <ele>586.8</ele>
        <time>2022-06-26T08:47:16Z</time>
      </trkpt>
      <trkpt lat="45.91627" lon="4.44296">
        <ele>586.8</ele>
        <time>2022-06-26T08:47:17Z</time>
      </trkpt>
      <trkpt lat="45.91628" lon="4.44295">
        <ele>587</ele>
        <time>2022-06-26T08:47:18Z</time>
      </trkpt>
      <trkpt lat="45.91629" lon="4.44293">
        <ele>587</ele>
        <time>2022-06-26T08:47:19Z</time>
      </trkpt>
      <trkpt lat="45.9163" lon="4.44291">
        <ele>587.4</ele>
        <time>2022-06-26T08:47:20Z</time>
      </trkpt>
      <trkpt lat="45.91631" lon="4.4429">
        <ele>587.4</ele>
        <time>2022-06-26T08:47:21Z</time>
      </trkpt>
      <trkpt lat="45.91632" lon="4.44288">
        <ele>587.6</ele>
        <time>2022-06-26T08:47:22Z</time>
      </trkpt>
      <trkpt lat="45.91632" lon="4.44287">
        <ele>587.6</ele>
        <time>2022-06-26T08:47:23Z</time>
      </trkpt>
      <trkpt lat="45.91633" lon="4.44285">
        <ele>588</ele>
        <time>2022-06-26T08:47:24Z</time>
      </trkpt>
      <trkpt lat="45.91634" lon="4.44284">
        <ele>588</ele>
        <time>2022-06-26T08:47:25Z</time>
      </trkpt>
      <trkpt lat="45.91635" lon="4.44282">
        <ele>588.4</ele>
        <time>2022-06-26T08:47:26Z</time>
      </trkpt>
      <trkpt lat="45.91636" lon="4.4428">
        <ele>588.4</ele>
        <time>2022-06-26T08:47:27Z</time>
      </trkpt>
      <trkpt lat="45.91636" lon="4.44279">
        <ele>588.6</ele>
        <time>2022-06-26T08:47:28Z</time>
      </trkpt>
      <trkpt lat="45.91637" lon="4.44277">
        <ele>588.6</ele>
        <time>2022-06-26T08:47:29Z</time>
      </trkpt>
      <trkpt lat="45.91638" lon="4.44275">
        <ele>589</ele>
        <time>2022-06-26T08:47:30Z</time>
      </trkpt>
      <trkpt lat="45.91638" lon="4.44273">
        <ele>589</ele>
        <time>2022-06-26T08:47:31Z</time>
      </trkpt>
      <trkpt lat="45.91639" lon="4.44271">
        <ele>589.2</ele>
        <time>2022-06-26T08:47:32Z</time>
      </trkpt>
      <trkpt lat="45.91639" lon="4.4427">
        <ele>589.2</ele>
        <time>2022-06-26T08:47:33Z</time>
      </trkpt>
      <trkpt lat="45.9164" lon="4.44268">
        <ele>589.6</ele>
        <time>2022-06-26T08:47:34Z</time>
      </trkpt>
      <trkpt lat="45.91641" lon="4.44267">
        <ele>589.6</ele>
        <time>2022-06-26T08:47:35Z</time>
      </trkpt>
      <trkpt lat="45.91642" lon="4.44265">
        <ele>589.8</ele>
        <time>2022-06-26T08:47:36Z</time>
      </trkpt>
      <trkpt lat="45.91643" lon="4.44263">
        <ele>590</ele>
        <time>2022-06-26T08:47:37Z</time>
      </trkpt>
      <trkpt lat="45.91644" lon="4.44262">
        <ele>590</ele>
        <time>2022-06-26T08:47:38Z</time>
      </trkpt>
      <trkpt lat="45.91645" lon="4.4426">
        <ele>590.4</ele>
        <time>2022-06-26T08:47:39Z</time>
      </trkpt>
      <trkpt lat="45.91646" lon="4.44258">
        <ele>590.4</ele>
        <time>2022-06-26T08:47:40Z</time>
      </trkpt>
      <trkpt lat="45.91646" lon="4.44256">
        <ele>590.6</ele>
        <time>2022-06-26T08:47:41Z</time>
      </trkpt>
      <trkpt lat="45.91647" lon="4.44254">
        <ele>590.6</ele>
        <time>2022-06-26T08:47:42Z</time>
      </trkpt>
      <trkpt lat="45.91648" lon="4.44252">
        <ele>591</ele>
        <time>2022-06-26T08:47:43Z</time>
      </trkpt>
      <trkpt lat="45.91649" lon="4.4425">
        <ele>591</ele>
        <time>2022-06-26T08:47:44Z</time>
      </trkpt>
      <trkpt lat="45.91649" lon="4.44248">
        <ele>591.2</ele>
        <time>2022-06-26T08:47:45Z</time>
      </trkpt>
      <trkpt lat="45.9165" lon="4.44246">
        <ele>591.2</ele>
        <time>2022-06-26T08:47:46Z</time>
      </trkpt>
      <trkpt lat="45.91651" lon="4.44244">
        <ele>591.4</ele>
        <time>2022-06-26T08:47:47Z</time>
      </trkpt>
      <trkpt lat="45.91652" lon="4.44242">
        <ele>591.4</ele>
        <time>2022-06-26T08:47:48Z</time>
      </trkpt>
      <trkpt lat="45.91653" lon="4.4424">
        <ele>591.8</ele>
        <time>2022-06-26T08:47:49Z</time>
      </trkpt>
      <trkpt lat="45.91654" lon="4.44238">
        <ele>591.8</ele>
        <time>2022-06-26T08:47:50Z</time>
      </trkpt>
      <trkpt lat="45.91655" lon="4.44236">
        <ele>592</ele>
        <time>2022-06-26T08:47:51Z</time>
      </trkpt>
      <trkpt lat="45.91656" lon="4.44234">
        <ele>592</ele>
        <time>2022-06-26T08:47:52Z</time>
      </trkpt>
      <trkpt lat="45.91657" lon="4.44231">
        <ele>592.4</ele>
        <time>2022-06-26T08:47:53Z</time>
      </trkpt>
      <trkpt lat="45.91658" lon="4.44228">
        <ele>592.6</ele>
        <time>2022-06-26T08:47:54Z</time>
      </trkpt>
      <trkpt lat="45.91659" lon="4.44226">
        <ele>592.6</ele>
        <time>2022-06-26T08:47:55Z</time>
      </trkpt>
      <trkpt lat="45.9166" lon="4.44223">
        <ele>593</ele>
        <time>2022-06-26T08:47:56Z</time>
      </trkpt>
      <trkpt lat="45.9166" lon="4.44221">
        <ele>593</ele>
        <time>2022-06-26T08:47:57Z</time>
      </trkpt>
      <trkpt lat="45.91662" lon="4.44216">
        <ele>593.2</ele>
        <time>2022-06-26T08:47:58Z</time>
      </trkpt>
      <trkpt lat="45.91663" lon="4.44213">
        <ele>593.2</ele>
        <time>2022-06-26T08:47:59Z</time>
      </trkpt>
      <trkpt lat="45.91663" lon="4.4421">
        <ele>593.6</ele>
        <time>2022-06-26T08:48:00Z</time>
      </trkpt>
      <trkpt lat="45.91663" lon="4.44208">
        <ele>593.6</ele>
        <time>2022-06-26T08:48:01Z</time>
      </trkpt>
      <trkpt lat="45.91664" lon="4.44205">
        <ele>594</ele>
        <time>2022-06-26T08:48:02Z</time>
      </trkpt>
      <trkpt lat="45.91664" lon="4.44203">
        <ele>594</ele>
        <time>2022-06-26T08:48:03Z</time>
      </trkpt>
      <trkpt lat="45.91665" lon="4.442">
        <ele>594.2</ele>
        <time>2022-06-26T08:48:04Z</time>
      </trkpt>
      <trkpt lat="45.91665" lon="4.44197">
        <ele>594.2</ele>
        <time>2022-06-26T08:48:05Z</time>
      </trkpt>
      <trkpt lat="45.91666" lon="4.44195">
        <ele>594.2</ele>
        <time>2022-06-26T08:48:06Z</time>
      </trkpt>
      <trkpt lat="45.91667" lon="4.44193">
        <ele>594.6</ele>
        <time>2022-06-26T08:48:07Z</time>
      </trkpt>
      <trkpt lat="45.91667" lon="4.4419">
        <ele>594.6</ele>
        <time>2022-06-26T08:48:08Z</time>
      </trkpt>
      <trkpt lat="45.91668" lon="4.44187">
        <ele>594.8</ele>
        <time>2022-06-26T08:48:09Z</time>
      </trkpt>
      <trkpt lat="45.91668" lon="4.44185">
        <ele>594.8</ele>
        <time>2022-06-26T08:48:10Z</time>
      </trkpt>
      <trkpt lat="45.91668" lon="4.44182">
        <ele>594.8</ele>
        <time>2022-06-26T08:48:11Z</time>
      </trkpt>
      <trkpt lat="45.91669" lon="4.4418">
        <ele>595.2</ele>
        <time>2022-06-26T08:48:12Z</time>
      </trkpt>
      <trkpt lat="45.91669" lon="4.44177">
        <ele>595.2</ele>
        <time>2022-06-26T08:48:13Z</time>
      </trkpt>
      <trkpt lat="45.91669" lon="4.44175">
        <ele>595.6</ele>
        <time>2022-06-26T08:48:14Z</time>
      </trkpt>
      <trkpt lat="45.9167" lon="4.44172">
        <ele>595.6</ele>
        <time>2022-06-26T08:48:15Z</time>
      </trkpt>
      <trkpt lat="45.9167" lon="4.4417">
        <ele>595.6</ele>
        <time>2022-06-26T08:48:16Z</time>
      </trkpt>
      <trkpt lat="45.91671" lon="4.44167">
        <ele>595.8</ele>
        <time>2022-06-26T08:48:17Z</time>
      </trkpt>
      <trkpt lat="45.91671" lon="4.44164">
        <ele>595.8</ele>
        <time>2022-06-26T08:48:18Z</time>
      </trkpt>
      <trkpt lat="45.91671" lon="4.44162">
        <ele>596</ele>
        <time>2022-06-26T08:48:19Z</time>
      </trkpt>
      <trkpt lat="45.91672" lon="4.44159">
        <ele>596</ele>
        <time>2022-06-26T08:48:20Z</time>
      </trkpt>
      <trkpt lat="45.91672" lon="4.44156">
        <ele>596</ele>
        <time>2022-06-26T08:48:21Z</time>
      </trkpt>
      <trkpt lat="45.91673" lon="4.44154">
        <ele>596.4</ele>
        <time>2022-06-26T08:48:22Z</time>
      </trkpt>
      <trkpt lat="45.91673" lon="4.44151">
        <ele>596.4</ele>
        <time>2022-06-26T08:48:23Z</time>
      </trkpt>
      <trkpt lat="45.91673" lon="4.44148">
        <ele>596.8</ele>
        <time>2022-06-26T08:48:24Z</time>
      </trkpt>
      <trkpt lat="45.91673" lon="4.44146">
        <ele>596.8</ele>
        <time>2022-06-26T08:48:25Z</time>
      </trkpt>
      <trkpt lat="45.91672" lon="4.44143">
        <ele>597</ele>
        <time>2022-06-26T08:48:26Z</time>
      </trkpt>
      <trkpt lat="45.91672" lon="4.4414">
        <ele>597</ele>
        <time>2022-06-26T08:48:27Z</time>
      </trkpt>
      <trkpt lat="45.91673" lon="4.44137">
        <ele>597.4</ele>
        <time>2022-06-26T08:48:28Z</time>
      </trkpt>
      <trkpt lat="45.91673" lon="4.44134">
        <ele>597.4</ele>
        <time>2022-06-26T08:48:29Z</time>
      </trkpt>
      <trkpt lat="45.91672" lon="4.44131">
        <ele>597.8</ele>
        <time>2022-06-26T08:48:30Z</time>
      </trkpt>
      <trkpt lat="45.91672" lon="4.44128">
        <ele>597.8</ele>
        <time>2022-06-26T08:48:31Z</time>
      </trkpt>
      <trkpt lat="45.91671" lon="4.44125">
        <ele>597.8</ele>
        <time>2022-06-26T08:48:32Z</time>
      </trkpt>
      <trkpt lat="45.91671" lon="4.44123">
        <ele>597.8</ele>
        <time>2022-06-26T08:48:33Z</time>
      </trkpt>
      <trkpt lat="45.91671" lon="4.4412">
        <ele>598</ele>
        <time>2022-06-26T08:48:34Z</time>
      </trkpt>
      <trkpt lat="45.9167" lon="4.44117">
        <ele>598</ele>
        <time>2022-06-26T08:48:35Z</time>
      </trkpt>
      <trkpt lat="45.9167" lon="4.44113">
        <ele>598</ele>
        <time>2022-06-26T08:48:36Z</time>
      </trkpt>
      <trkpt lat="45.91669" lon="4.4411">
        <ele>598.2</ele>
        <time>2022-06-26T08:48:37Z</time>
      </trkpt>
      <trkpt lat="45.91669" lon="4.44107">
        <ele>598.2</ele>
        <time>2022-06-26T08:48:38Z</time>
      </trkpt>
      <trkpt lat="45.91668" lon="4.44104">
        <ele>598.6</ele>
        <time>2022-06-26T08:48:39Z</time>
      </trkpt>
      <trkpt lat="45.91668" lon="4.441">
        <ele>598.6</ele>
        <time>2022-06-26T08:48:40Z</time>
      </trkpt>
      <trkpt lat="45.91667" lon="4.44097">
        <ele>598.8</ele>
        <time>2022-06-26T08:48:41Z</time>
      </trkpt>
      <trkpt lat="45.91667" lon="4.44094">
        <ele>598.8</ele>
        <time>2022-06-26T08:48:42Z</time>
      </trkpt>
      <trkpt lat="45.91666" lon="4.44091">
        <ele>599</ele>
        <time>2022-06-26T08:48:43Z</time>
      </trkpt>
      <trkpt lat="45.91665" lon="4.44087">
        <ele>599</ele>
        <time>2022-06-26T08:48:44Z</time>
      </trkpt>
      <trkpt lat="45.91664" lon="4.44084">
        <ele>599.4</ele>
        <time>2022-06-26T08:48:45Z</time>
      </trkpt>
      <trkpt lat="45.91664" lon="4.4408">
        <ele>599.4</ele>
        <time>2022-06-26T08:48:46Z</time>
      </trkpt>
      <trkpt lat="45.91663" lon="4.44077">
        <ele>599.6</ele>
        <time>2022-06-26T08:48:47Z</time>
      </trkpt>
      <trkpt lat="45.91662" lon="4.44073">
        <ele>599.6</ele>
        <time>2022-06-26T08:48:48Z</time>
      </trkpt>
      <trkpt lat="45.91662" lon="4.4407">
        <ele>599.8</ele>
        <time>2022-06-26T08:48:49Z</time>
      </trkpt>
      <trkpt lat="45.91661" lon="4.44066">
        <ele>599.8</ele>
        <time>2022-06-26T08:48:50Z</time>
      </trkpt>
      <trkpt lat="45.9166" lon="4.44063">
        <ele>599.8</ele>
        <time>2022-06-26T08:48:51Z</time>
      </trkpt>
      <trkpt lat="45.91659" lon="4.44059">
        <ele>600.2</ele>
        <time>2022-06-26T08:48:52Z</time>
      </trkpt>
      <trkpt lat="45.91659" lon="4.44056">
        <ele>600.2</ele>
        <time>2022-06-26T08:48:53Z</time>
      </trkpt>
      <trkpt lat="45.91658" lon="4.44053">
        <ele>600.4</ele>
        <time>2022-06-26T08:48:54Z</time>
      </trkpt>
      <trkpt lat="45.91657" lon="4.44049">
        <ele>600.4</ele>
        <time>2022-06-26T08:48:55Z</time>
      </trkpt>
      <trkpt lat="45.91657" lon="4.44046">
        <ele>600.6</ele>
        <time>2022-06-26T08:48:56Z</time>
      </trkpt>
      <trkpt lat="45.91656" lon="4.44043">
        <ele>600.6</ele>
        <time>2022-06-26T08:48:57Z</time>
      </trkpt>
      <trkpt lat="45.91655" lon="4.44039">
        <ele>601</ele>
        <time>2022-06-26T08:48:58Z</time>
      </trkpt>
      <trkpt lat="45.91654" lon="4.44036">
        <ele>601</ele>
        <time>2022-06-26T08:48:59Z</time>
      </trkpt>
      <trkpt lat="45.91654" lon="4.44033">
        <ele>601.2</ele>
        <time>2022-06-26T08:49:00Z</time>
      </trkpt>
      <trkpt lat="45.91653" lon="4.44029">
        <ele>601.2</ele>
        <time>2022-06-26T08:49:01Z</time>
      </trkpt>
      <trkpt lat="45.91652" lon="4.44026">
        <ele>601.4</ele>
        <time>2022-06-26T08:49:02Z</time>
      </trkpt>
      <trkpt lat="45.91652" lon="4.44022">
        <ele>601.4</ele>
        <time>2022-06-26T08:49:03Z</time>
      </trkpt>
      <trkpt lat="45.91651" lon="4.44019">
        <ele>601.6</ele>
        <time>2022-06-26T08:49:04Z</time>
      </trkpt>
      <trkpt lat="45.9165" lon="4.44015">
        <ele>601.6</ele>
        <time>2022-06-26T08:49:05Z</time>
      </trkpt>
      <trkpt lat="45.91649" lon="4.44012">
        <ele>601.8</ele>
        <time>2022-06-26T08:49:06Z</time>
      </trkpt>
      <trkpt lat="45.91648" lon="4.44008">
        <ele>601.8</ele>
        <time>2022-06-26T08:49:07Z</time>
      </trkpt>
      <trkpt lat="45.91648" lon="4.44005">
        <ele>601.8</ele>
        <time>2022-06-26T08:49:08Z</time>
      </trkpt>
      <trkpt lat="45.91647" lon="4.44001">
        <ele>602.2</ele>
        <time>2022-06-26T08:49:09Z</time>
      </trkpt>
      <trkpt lat="45.91646" lon="4.43998">
        <ele>602.2</ele>
        <time>2022-06-26T08:49:10Z</time>
      </trkpt>
      <trkpt lat="45.91646" lon="4.43994">
        <ele>602.2</ele>
        <time>2022-06-26T08:49:11Z</time>
      </trkpt>
      <trkpt lat="45.91645" lon="4.43991">
        <ele>602.4</ele>
        <time>2022-06-26T08:49:12Z</time>
      </trkpt>
      <trkpt lat="45.91644" lon="4.43987">
        <ele>602.4</ele>
        <time>2022-06-26T08:49:13Z</time>
      </trkpt>
      <trkpt lat="45.91644" lon="4.43984">
        <ele>602.4</ele>
        <time>2022-06-26T08:49:14Z</time>
      </trkpt>
      <trkpt lat="45.91643" lon="4.43981">
        <ele>602.6</ele>
        <time>2022-06-26T08:49:15Z</time>
      </trkpt>
      <trkpt lat="45.91642" lon="4.43977">
        <ele>602.6</ele>
        <time>2022-06-26T08:49:16Z</time>
      </trkpt>
      <trkpt lat="45.91641" lon="4.43974">
        <ele>602.6</ele>
        <time>2022-06-26T08:49:17Z</time>
      </trkpt>
      <trkpt lat="45.91641" lon="4.43971">
        <ele>603</ele>
        <time>2022-06-26T08:49:18Z</time>
      </trkpt>
      <trkpt lat="45.9164" lon="4.43968">
        <ele>603</ele>
        <time>2022-06-26T08:49:19Z</time>
      </trkpt>
      <trkpt lat="45.91639" lon="4.43965">
        <ele>603.2</ele>
        <time>2022-06-26T08:49:20Z</time>
      </trkpt>
      <trkpt lat="45.91638" lon="4.43961">
        <ele>603.4</ele>
        <time>2022-06-26T08:49:21Z</time>
      </trkpt>
      <trkpt lat="45.91638" lon="4.43958">
        <ele>603.4</ele>
        <time>2022-06-26T08:49:22Z</time>
      </trkpt>
      <trkpt lat="45.91637" lon="4.43955">
        <ele>603.6</ele>
        <time>2022-06-26T08:49:23Z</time>
      </trkpt>
      <trkpt lat="45.91636" lon="4.43952">
        <ele>603.6</ele>
        <time>2022-06-26T08:49:24Z</time>
      </trkpt>
      <trkpt lat="45.91635" lon="4.4395">
        <ele>603.8</ele>
        <time>2022-06-26T08:49:25Z</time>
      </trkpt>
      <trkpt lat="45.91634" lon="4.43947">
        <ele>603.8</ele>
        <time>2022-06-26T08:49:26Z</time>
      </trkpt>
      <trkpt lat="45.91633" lon="4.43944">
        <ele>603.8</ele>
        <time>2022-06-26T08:49:27Z</time>
      </trkpt>
      <trkpt lat="45.91633" lon="4.43941">
        <ele>604</ele>
        <time>2022-06-26T08:49:28Z</time>
      </trkpt>
      <trkpt lat="45.91632" lon="4.43937">
        <ele>604</ele>
        <time>2022-06-26T08:49:29Z</time>
      </trkpt>
      <trkpt lat="45.91631" lon="4.43934">
        <ele>604</ele>
        <time>2022-06-26T08:49:30Z</time>
      </trkpt>
      <trkpt lat="45.91631" lon="4.43931">
        <ele>604</ele>
        <time>2022-06-26T08:49:31Z</time>
      </trkpt>
      <trkpt lat="45.9163" lon="4.43928">
        <ele>604</ele>
        <time>2022-06-26T08:49:32Z</time>
      </trkpt>
      <trkpt lat="45.9163" lon="4.43925">
        <ele>604</ele>
        <time>2022-06-26T08:49:33Z</time>
      </trkpt>
      <trkpt lat="45.91629" lon="4.43922">
        <ele>604</ele>
        <time>2022-06-26T08:49:34Z</time>
      </trkpt>
      <trkpt lat="45.91628" lon="4.43918">
        <ele>604</ele>
        <time>2022-06-26T08:49:35Z</time>
      </trkpt>
      <trkpt lat="45.91628" lon="4.43914">
        <ele>604</ele>
        <time>2022-06-26T08:49:36Z</time>
      </trkpt>
      <trkpt lat="45.91629" lon="4.4391">
        <ele>604</ele>
        <time>2022-06-26T08:49:37Z</time>
      </trkpt>
      <trkpt lat="45.91631" lon="4.43906">
        <ele>603.8</ele>
        <time>2022-06-26T08:49:38Z</time>
      </trkpt>
      <trkpt lat="45.91634" lon="4.43902">
        <ele>603.8</ele>
        <time>2022-06-26T08:49:39Z</time>
      </trkpt>
      <trkpt lat="45.91638" lon="4.43899">
        <ele>603.4</ele>
        <time>2022-06-26T08:49:40Z</time>
      </trkpt>
      <trkpt lat="45.91642" lon="4.43895">
        <ele>603.2</ele>
        <time>2022-06-26T08:49:41Z</time>
      </trkpt>
      <trkpt lat="45.91646" lon="4.4389">
        <ele>603.2</ele>
        <time>2022-06-26T08:49:42Z</time>
      </trkpt>
      <trkpt lat="45.9165" lon="4.43885">
        <ele>602.8</ele>
        <time>2022-06-26T08:49:43Z</time>
      </trkpt>
      <trkpt lat="45.91654" lon="4.4388">
        <ele>602.4</ele>
        <time>2022-06-26T08:49:44Z</time>
      </trkpt>
      <trkpt lat="45.9166" lon="4.43874">
        <ele>602.2</ele>
        <time>2022-06-26T08:49:45Z</time>
      </trkpt>
      <trkpt lat="45.91665" lon="4.43868">
        <ele>601.8</ele>
        <time>2022-06-26T08:49:46Z</time>
      </trkpt>
      <trkpt lat="45.9167" lon="4.43862">
        <ele>601.4</ele>
        <time>2022-06-26T08:49:47Z</time>
      </trkpt>
      <trkpt lat="45.91675" lon="4.43855">
        <ele>600.8</ele>
        <time>2022-06-26T08:49:48Z</time>
      </trkpt>
      <trkpt lat="45.91681" lon="4.43848">
        <ele>600.4</ele>
        <time>2022-06-26T08:49:49Z</time>
      </trkpt>
      <trkpt lat="45.91687" lon="4.43841">
        <ele>600</ele>
        <time>2022-06-26T08:49:50Z</time>
      </trkpt>
      <trkpt lat="45.91693" lon="4.43834">
        <ele>599.8</ele>
        <time>2022-06-26T08:49:51Z</time>
      </trkpt>
      <trkpt lat="45.91699" lon="4.43827">
        <ele>599.4</ele>
        <time>2022-06-26T08:49:52Z</time>
      </trkpt>
      <trkpt lat="45.91705" lon="4.4382">
        <ele>599</ele>
        <time>2022-06-26T08:49:53Z</time>
      </trkpt>
      <trkpt lat="45.91711" lon="4.43814">
        <ele>598.8</ele>
        <time>2022-06-26T08:49:54Z</time>
      </trkpt>
      <trkpt lat="45.91718" lon="4.43807">
        <ele>598.6</ele>
        <time>2022-06-26T08:49:55Z</time>
      </trkpt>
      <trkpt lat="45.91724" lon="4.43801">
        <ele>598.6</ele>
        <time>2022-06-26T08:49:56Z</time>
      </trkpt>
      <trkpt lat="45.9173" lon="4.43796">
        <ele>598</ele>
        <time>2022-06-26T08:49:57Z</time>
      </trkpt>
      <trkpt lat="45.91737" lon="4.43791">
        <ele>597.6</ele>
        <time>2022-06-26T08:49:58Z</time>
      </trkpt>
      <trkpt lat="45.91743" lon="4.43787">
        <ele>597.4</ele>
        <time>2022-06-26T08:49:59Z</time>
      </trkpt>
      <trkpt lat="45.91751" lon="4.43785">
        <ele>597.4</ele>
        <time>2022-06-26T08:50:00Z</time>
      </trkpt>
      <trkpt lat="45.91758" lon="4.43784">
        <ele>597</ele>
        <time>2022-06-26T08:50:01Z</time>
      </trkpt>
      <trkpt lat="45.91766" lon="4.43784">
        <ele>597</ele>
        <time>2022-06-26T08:50:02Z</time>
      </trkpt>
      <trkpt lat="45.91773" lon="4.43785">
        <ele>596.8</ele>
        <time>2022-06-26T08:50:03Z</time>
      </trkpt>
      <trkpt lat="45.9178" lon="4.43786">
        <ele>596.8</ele>
        <time>2022-06-26T08:50:04Z</time>
      </trkpt>
      <trkpt lat="45.91787" lon="4.43789">
        <ele>596.6</ele>
        <time>2022-06-26T08:50:05Z</time>
      </trkpt>
      <trkpt lat="45.91794" lon="4.43791">
        <ele>596.2</ele>
        <time>2022-06-26T08:50:06Z</time>
      </trkpt>
      <trkpt lat="45.91801" lon="4.43793">
        <ele>596</ele>
        <time>2022-06-26T08:50:07Z</time>
      </trkpt>
      <trkpt lat="45.91807" lon="4.43795">
        <ele>596</ele>
        <time>2022-06-26T08:50:08Z</time>
      </trkpt>
      <trkpt lat="45.91813" lon="4.43796">
        <ele>595.6</ele>
        <time>2022-06-26T08:50:09Z</time>
      </trkpt>
      <trkpt lat="45.9182" lon="4.43796">
        <ele>595.4</ele>
        <time>2022-06-26T08:50:10Z</time>
      </trkpt>
      <trkpt lat="45.91826" lon="4.43795">
        <ele>595.2</ele>
        <time>2022-06-26T08:50:11Z</time>
      </trkpt>
      <trkpt lat="45.91832" lon="4.43792">
        <ele>595</ele>
        <time>2022-06-26T08:50:12Z</time>
      </trkpt>
      <trkpt lat="45.91838" lon="4.43788">
        <ele>594.8</ele>
        <time>2022-06-26T08:50:13Z</time>
      </trkpt>
      <trkpt lat="45.91843" lon="4.43783">
        <ele>594.8</ele>
        <time>2022-06-26T08:50:14Z</time>
      </trkpt>
      <trkpt lat="45.91848" lon="4.43778">
        <ele>594.4</ele>
        <time>2022-06-26T08:50:15Z</time>
      </trkpt>
      <trkpt lat="45.91853" lon="4.43773">
        <ele>594.4</ele>
        <time>2022-06-26T08:50:16Z</time>
      </trkpt>
      <trkpt lat="45.91858" lon="4.43768">
        <ele>594</ele>
        <time>2022-06-26T08:50:17Z</time>
      </trkpt>
      <trkpt lat="45.91862" lon="4.43763">
        <ele>594</ele>
        <time>2022-06-26T08:50:18Z</time>
      </trkpt>
      <trkpt lat="45.91866" lon="4.43758">
        <ele>594</ele>
        <time>2022-06-26T08:50:19Z</time>
      </trkpt>
      <trkpt lat="45.91871" lon="4.43753">
        <ele>594</ele>
        <time>2022-06-26T08:50:20Z</time>
      </trkpt>
      <trkpt lat="45.91874" lon="4.43748">
        <ele>594</ele>
        <time>2022-06-26T08:50:21Z</time>
      </trkpt>
      <trkpt lat="45.91878" lon="4.43743">
        <ele>594</ele>
        <time>2022-06-26T08:50:22Z</time>
      </trkpt>
      <trkpt lat="45.91882" lon="4.43738">
        <ele>594</ele>
        <time>2022-06-26T08:50:23Z</time>
      </trkpt>
      <trkpt lat="45.91885" lon="4.43733">
        <ele>594</ele>
        <time>2022-06-26T08:50:24Z</time>
      </trkpt>
      <trkpt lat="45.91888" lon="4.43727">
        <ele>594</ele>
        <time>2022-06-26T08:50:25Z</time>
      </trkpt>
      <trkpt lat="45.91891" lon="4.43722">
        <ele>594</ele>
        <time>2022-06-26T08:50:26Z</time>
      </trkpt>
      <trkpt lat="45.91893" lon="4.43717">
        <ele>594</ele>
        <time>2022-06-26T08:50:27Z</time>
      </trkpt>
      <trkpt lat="45.91895" lon="4.43712">
        <ele>594.4</ele>
        <time>2022-06-26T08:50:28Z</time>
      </trkpt>
      <trkpt lat="45.91897" lon="4.43707">
        <ele>594.4</ele>
        <time>2022-06-26T08:50:29Z</time>
      </trkpt>
      <trkpt lat="45.91899" lon="4.43702">
        <ele>594.4</ele>
        <time>2022-06-26T08:50:30Z</time>
      </trkpt>
      <trkpt lat="45.91902" lon="4.43697">
        <ele>594.4</ele>
        <time>2022-06-26T08:50:31Z</time>
      </trkpt>
      <trkpt lat="45.91904" lon="4.43692">
        <ele>594.4</ele>
        <time>2022-06-26T08:50:32Z</time>
      </trkpt>
      <trkpt lat="45.91907" lon="4.43687">
        <ele>594.4</ele>
        <time>2022-06-26T08:50:33Z</time>
      </trkpt>
      <trkpt lat="45.91909" lon="4.43682">
        <ele>594.4</ele>
        <time>2022-06-26T08:50:34Z</time>
      </trkpt>
      <trkpt lat="45.91912" lon="4.43678">
        <ele>594.4</ele>
        <time>2022-06-26T08:50:35Z</time>
      </trkpt>
      <trkpt lat="45.91914" lon="4.43674">
        <ele>594.4</ele>
        <time>2022-06-26T08:50:36Z</time>
      </trkpt>
      <trkpt lat="45.91916" lon="4.43669">
        <ele>594.4</ele>
        <time>2022-06-26T08:50:37Z</time>
      </trkpt>
      <trkpt lat="45.91918" lon="4.43666">
        <ele>594.4</ele>
        <time>2022-06-26T08:50:38Z</time>
      </trkpt>
      <trkpt lat="45.9192" lon="4.43662">
        <ele>594.4</ele>
        <time>2022-06-26T08:50:39Z</time>
      </trkpt>
      <trkpt lat="45.91922" lon="4.43658">
        <ele>594.4</ele>
        <time>2022-06-26T08:50:40Z</time>
      </trkpt>
      <trkpt lat="45.91925" lon="4.43654">
        <ele>594.4</ele>
        <time>2022-06-26T08:50:41Z</time>
      </trkpt>
      <trkpt lat="45.91928" lon="4.43649">
        <ele>594.4</ele>
        <time>2022-06-26T08:50:42Z</time>
      </trkpt>
      <trkpt lat="45.91931" lon="4.43644">
        <ele>594.4</ele>
        <time>2022-06-26T08:50:43Z</time>
      </trkpt>
      <trkpt lat="45.91934" lon="4.4364">
        <ele>594.4</ele>
        <time>2022-06-26T08:50:44Z</time>
      </trkpt>
      <trkpt lat="45.91937" lon="4.43636">
        <ele>594.4</ele>
        <time>2022-06-26T08:50:45Z</time>
      </trkpt>
      <trkpt lat="45.9194" lon="4.43632">
        <ele>594.4</ele>
        <time>2022-06-26T08:50:46Z</time>
      </trkpt>
      <trkpt lat="45.91943" lon="4.43628">
        <ele>594.4</ele>
        <time>2022-06-26T08:50:47Z</time>
      </trkpt>
      <trkpt lat="45.91946" lon="4.43624">
        <ele>594.4</ele>
        <time>2022-06-26T08:50:48Z</time>
      </trkpt>
      <trkpt lat="45.9195" lon="4.43619">
        <ele>594.4</ele>
        <time>2022-06-26T08:50:49Z</time>
      </trkpt>
      <trkpt lat="45.91954" lon="4.43614">
        <ele>594.2</ele>
        <time>2022-06-26T08:50:50Z</time>
      </trkpt>
      <trkpt lat="45.91958" lon="4.43609">
        <ele>594.2</ele>
        <time>2022-06-26T08:50:51Z</time>
      </trkpt>
      <trkpt lat="45.91961" lon="4.43604">
        <ele>594.2</ele>
        <time>2022-06-26T08:50:52Z</time>
      </trkpt>
      <trkpt lat="45.91965" lon="4.436">
        <ele>594.2</ele>
        <time>2022-06-26T08:50:53Z</time>
      </trkpt>
      <trkpt lat="45.91969" lon="4.43594">
        <ele>594.2</ele>
        <time>2022-06-26T08:50:54Z</time>
      </trkpt>
      <trkpt lat="45.91974" lon="4.43589">
        <ele>594.2</ele>
        <time>2022-06-26T08:50:55Z</time>
      </trkpt>
      <trkpt lat="45.91978" lon="4.43583">
        <ele>594.2</ele>
        <time>2022-06-26T08:50:56Z</time>
      </trkpt>
      <trkpt lat="45.91982" lon="4.43578">
        <ele>594.2</ele>
        <time>2022-06-26T08:50:57Z</time>
      </trkpt>
      <trkpt lat="45.91986" lon="4.43572">
        <ele>594.2</ele>
        <time>2022-06-26T08:50:58Z</time>
      </trkpt>
      <trkpt lat="45.91991" lon="4.43566">
        <ele>594.2</ele>
        <time>2022-06-26T08:50:59Z</time>
      </trkpt>
      <trkpt lat="45.91997" lon="4.4356">
        <ele>594.2</ele>
        <time>2022-06-26T08:51:00Z</time>
      </trkpt>
      <trkpt lat="45.92002" lon="4.43555">
        <ele>594.2</ele>
        <time>2022-06-26T08:51:01Z</time>
      </trkpt>
      <trkpt lat="45.92007" lon="4.4355">
        <ele>594.2</ele>
        <time>2022-06-26T08:51:02Z</time>
      </trkpt>
      <trkpt lat="45.92012" lon="4.43545">
        <ele>594.2</ele>
        <time>2022-06-26T08:51:03Z</time>
      </trkpt>
      <trkpt lat="45.92016" lon="4.43541">
        <ele>594.2</ele>
        <time>2022-06-26T08:51:04Z</time>
      </trkpt>
      <trkpt lat="45.92021" lon="4.43536">
        <ele>594.2</ele>
        <time>2022-06-26T08:51:05Z</time>
      </trkpt>
      <trkpt lat="45.92025" lon="4.43533">
        <ele>594.2</ele>
        <time>2022-06-26T08:51:06Z</time>
      </trkpt>
      <trkpt lat="45.9203" lon="4.43529">
        <ele>594.2</ele>
        <time>2022-06-26T08:51:07Z</time>
      </trkpt>
      <trkpt lat="45.92035" lon="4.43527">
        <ele>594.2</ele>
        <time>2022-06-26T08:51:08Z</time>
      </trkpt>
      <trkpt lat="45.9204" lon="4.43524">
        <ele>594.2</ele>
        <time>2022-06-26T08:51:09Z</time>
      </trkpt>
      <trkpt lat="45.92044" lon="4.43522">
        <ele>594.2</ele>
        <time>2022-06-26T08:51:10Z</time>
      </trkpt>
      <trkpt lat="45.92048" lon="4.43519">
        <ele>594.2</ele>
        <time>2022-06-26T08:51:11Z</time>
      </trkpt>
      <trkpt lat="45.92053" lon="4.43518">
        <ele>594.2</ele>
        <time>2022-06-26T08:51:12Z</time>
      </trkpt>
      <trkpt lat="45.92058" lon="4.43516">
        <ele>594.2</ele>
        <time>2022-06-26T08:51:13Z</time>
      </trkpt>
      <trkpt lat="45.92064" lon="4.43514">
        <ele>594.2</ele>
        <time>2022-06-26T08:51:14Z</time>
      </trkpt>
      <trkpt lat="45.92068" lon="4.43512">
        <ele>594.2</ele>
        <time>2022-06-26T08:51:15Z</time>
      </trkpt>
      <trkpt lat="45.92074" lon="4.43511">
        <ele>594.4</ele>
        <time>2022-06-26T08:51:16Z</time>
      </trkpt>
      <trkpt lat="45.92078" lon="4.4351">
        <ele>594.4</ele>
        <time>2022-06-26T08:51:17Z</time>
      </trkpt>
      <trkpt lat="45.92083" lon="4.43509">
        <ele>594.4</ele>
        <time>2022-06-26T08:51:18Z</time>
      </trkpt>
      <trkpt lat="45.92087" lon="4.43508">
        <ele>594.4</ele>
        <time>2022-06-26T08:51:19Z</time>
      </trkpt>
      <trkpt lat="45.92092" lon="4.43507">
        <ele>594.4</ele>
        <time>2022-06-26T08:51:20Z</time>
      </trkpt>
      <trkpt lat="45.92096" lon="4.43506">
        <ele>594.4</ele>
        <time>2022-06-26T08:51:21Z</time>
      </trkpt>
      <trkpt lat="45.92102" lon="4.43504">
        <ele>594.6</ele>
        <time>2022-06-26T08:51:22Z</time>
      </trkpt>
      <trkpt lat="45.92107" lon="4.43504">
        <ele>594.6</ele>
        <time>2022-06-26T08:51:23Z</time>
      </trkpt>
      <trkpt lat="45.92112" lon="4.43503">
        <ele>594.6</ele>
        <time>2022-06-26T08:51:24Z</time>
      </trkpt>
      <trkpt lat="45.92116" lon="4.43502">
        <ele>594.6</ele>
        <time>2022-06-26T08:51:25Z</time>
      </trkpt>
      <trkpt lat="45.92121" lon="4.435">
        <ele>594.6</ele>
        <time>2022-06-26T08:51:26Z</time>
      </trkpt>
      <trkpt lat="45.92126" lon="4.43499">
        <ele>594.6</ele>
        <time>2022-06-26T08:51:27Z</time>
      </trkpt>
      <trkpt lat="45.92131" lon="4.43498">
        <ele>594.4</ele>
        <time>2022-06-26T08:51:28Z</time>
      </trkpt>
      <trkpt lat="45.92136" lon="4.43497">
        <ele>594.4</ele>
        <time>2022-06-26T08:51:29Z</time>
      </trkpt>
      <trkpt lat="45.92142" lon="4.43498">
        <ele>594.4</ele>
        <time>2022-06-26T08:51:30Z</time>
      </trkpt>
      <trkpt lat="45.92148" lon="4.43497">
        <ele>594.4</ele>
        <time>2022-06-26T08:51:31Z</time>
      </trkpt>
      <trkpt lat="45.92153" lon="4.43497">
        <ele>594.2</ele>
        <time>2022-06-26T08:51:32Z</time>
      </trkpt>
      <trkpt lat="45.92159" lon="4.43498">
        <ele>594.2</ele>
        <time>2022-06-26T08:51:33Z</time>
      </trkpt>
      <trkpt lat="45.92164" lon="4.43499">
        <ele>594.2</ele>
        <time>2022-06-26T08:51:34Z</time>
      </trkpt>
      <trkpt lat="45.92166" lon="4.43499">
        <ele>593.8</ele>
        <time>2022-06-26T08:51:35Z</time>
      </trkpt>
      <trkpt lat="45.92169" lon="4.43499">
        <ele>593.8</ele>
        <time>2022-06-26T08:51:36Z</time>
      </trkpt>
      <trkpt lat="45.92173" lon="4.43501">
        <ele>593.8</ele>
        <time>2022-06-26T08:51:37Z</time>
      </trkpt>
      <trkpt lat="45.92178" lon="4.43502">
        <ele>593.8</ele>
        <time>2022-06-26T08:51:38Z</time>
      </trkpt>
      <trkpt lat="45.92182" lon="4.43504">
        <ele>593.8</ele>
        <time>2022-06-26T08:51:39Z</time>
      </trkpt>
      <trkpt lat="45.92186" lon="4.43506">
        <ele>594</ele>
        <time>2022-06-26T08:51:40Z</time>
      </trkpt>
      <trkpt lat="45.9219" lon="4.43508">
        <ele>594</ele>
        <time>2022-06-26T08:51:41Z</time>
      </trkpt>
      <trkpt lat="45.92194" lon="4.43511">
        <ele>594</ele>
        <time>2022-06-26T08:51:42Z</time>
      </trkpt>
      <trkpt lat="45.92198" lon="4.43514">
        <ele>594</ele>
        <time>2022-06-26T08:51:43Z</time>
      </trkpt>
      <trkpt lat="45.92202" lon="4.43517">
        <ele>594</ele>
        <time>2022-06-26T08:51:44Z</time>
      </trkpt>
      <trkpt lat="45.92206" lon="4.43521">
        <ele>594</ele>
        <time>2022-06-26T08:51:45Z</time>
      </trkpt>
      <trkpt lat="45.92209" lon="4.43525">
        <ele>594</ele>
        <time>2022-06-26T08:51:46Z</time>
      </trkpt>
      <trkpt lat="45.92213" lon="4.4353">
        <ele>594</ele>
        <time>2022-06-26T08:51:47Z</time>
      </trkpt>
      <trkpt lat="45.92216" lon="4.43535">
        <ele>593.8</ele>
        <time>2022-06-26T08:51:48Z</time>
      </trkpt>
      <trkpt lat="45.92219" lon="4.4354">
        <ele>593.8</ele>
        <time>2022-06-26T08:51:49Z</time>
      </trkpt>
      <trkpt lat="45.92222" lon="4.43546">
        <ele>593.8</ele>
        <time>2022-06-26T08:51:50Z</time>
      </trkpt>
      <trkpt lat="45.92226" lon="4.4355">
        <ele>593.8</ele>
        <time>2022-06-26T08:51:51Z</time>
      </trkpt>
      <trkpt lat="45.9223" lon="4.43554">
        <ele>593.8</ele>
        <time>2022-06-26T08:51:52Z</time>
      </trkpt>
      <trkpt lat="45.92233" lon="4.43558">
        <ele>593.8</ele>
        <time>2022-06-26T08:51:53Z</time>
      </trkpt>
      <trkpt lat="45.92237" lon="4.43561">
        <ele>593.8</ele>
        <time>2022-06-26T08:51:54Z</time>
      </trkpt>
      <trkpt lat="45.9224" lon="4.43563">
        <ele>594.2</ele>
        <time>2022-06-26T08:51:55Z</time>
      </trkpt>
      <trkpt lat="45.92243" lon="4.43564">
        <ele>594.6</ele>
        <time>2022-06-26T08:51:56Z</time>
      </trkpt>
      <trkpt lat="45.92245" lon="4.43566">
        <ele>594.8</ele>
        <time>2022-06-26T08:51:57Z</time>
      </trkpt>
      <trkpt lat="45.92248" lon="4.43567">
        <ele>595.2</ele>
        <time>2022-06-26T08:51:58Z</time>
      </trkpt>
      <trkpt lat="45.9225" lon="4.43569">
        <ele>595.8</ele>
        <time>2022-06-26T08:51:59Z</time>
      </trkpt>
      <trkpt lat="45.92253" lon="4.4357">
        <ele>596</ele>
        <time>2022-06-26T08:52:00Z</time>
      </trkpt>
      <trkpt lat="45.92255" lon="4.43571">
        <ele>596.4</ele>
        <time>2022-06-26T08:52:01Z</time>
      </trkpt>
      <trkpt lat="45.92257" lon="4.43572">
        <ele>596.6</ele>
        <time>2022-06-26T08:52:02Z</time>
      </trkpt>
      <trkpt lat="45.9226" lon="4.43573">
        <ele>596.6</ele>
        <time>2022-06-26T08:52:03Z</time>
      </trkpt>
      <trkpt lat="45.92262" lon="4.43575">
        <ele>597</ele>
        <time>2022-06-26T08:52:04Z</time>
      </trkpt>
      <trkpt lat="45.92264" lon="4.43577">
        <ele>597.2</ele>
        <time>2022-06-26T08:52:05Z</time>
      </trkpt>
      <trkpt lat="45.92266" lon="4.43579">
        <ele>597.2</ele>
        <time>2022-06-26T08:52:06Z</time>
      </trkpt>
      <trkpt lat="45.92269" lon="4.43581">
        <ele>597.6</ele>
        <time>2022-06-26T08:52:07Z</time>
      </trkpt>
      <trkpt lat="45.92271" lon="4.43582">
        <ele>597.6</ele>
        <time>2022-06-26T08:52:08Z</time>
      </trkpt>
      <trkpt lat="45.92274" lon="4.43583">
        <ele>597.6</ele>
        <time>2022-06-26T08:52:09Z</time>
      </trkpt>
      <trkpt lat="45.92276" lon="4.43585">
        <ele>598</ele>
        <time>2022-06-26T08:52:10Z</time>
      </trkpt>
      <trkpt lat="45.92278" lon="4.43585">
        <ele>598</ele>
        <time>2022-06-26T08:52:11Z</time>
      </trkpt>
      <trkpt lat="45.92281" lon="4.43586">
        <ele>598</ele>
        <time>2022-06-26T08:52:12Z</time>
      </trkpt>
      <trkpt lat="45.92283" lon="4.43585">
        <ele>598.2</ele>
        <time>2022-06-26T08:52:13Z</time>
      </trkpt>
      <trkpt lat="45.92285" lon="4.43582">
        <ele>598.2</ele>
        <time>2022-06-26T08:52:14Z</time>
      </trkpt>
      <trkpt lat="45.92287" lon="4.43579">
        <ele>598.4</ele>
        <time>2022-06-26T08:52:15Z</time>
      </trkpt>
      <trkpt lat="45.92287" lon="4.43575">
        <ele>598.6</ele>
        <time>2022-06-26T08:52:16Z</time>
      </trkpt>
      <trkpt lat="45.92287" lon="4.43572">
        <ele>599</ele>
        <time>2022-06-26T08:52:17Z</time>
      </trkpt>
      <trkpt lat="45.92287" lon="4.43568">
        <ele>599.2</ele>
        <time>2022-06-26T08:52:18Z</time>
      </trkpt>
      <trkpt lat="45.92287" lon="4.43564">
        <ele>599.6</ele>
        <time>2022-06-26T08:52:19Z</time>
      </trkpt>
      <trkpt lat="45.92287" lon="4.43561">
        <ele>600</ele>
        <time>2022-06-26T08:52:20Z</time>
      </trkpt>
      <trkpt lat="45.92287" lon="4.43558">
        <ele>600.2</ele>
        <time>2022-06-26T08:52:21Z</time>
      </trkpt>
      <trkpt lat="45.92286" lon="4.43554">
        <ele>600.6</ele>
        <time>2022-06-26T08:52:22Z</time>
      </trkpt>
      <trkpt lat="45.92286" lon="4.43551">
        <ele>601</ele>
        <time>2022-06-26T08:52:23Z</time>
      </trkpt>
      <trkpt lat="45.92286" lon="4.43548">
        <ele>601.4</ele>
        <time>2022-06-26T08:52:24Z</time>
      </trkpt>
      <trkpt lat="45.92286" lon="4.43545">
        <ele>601.8</ele>
        <time>2022-06-26T08:52:25Z</time>
      </trkpt>
      <trkpt lat="45.92286" lon="4.43543">
        <ele>602.2</ele>
        <time>2022-06-26T08:52:26Z</time>
      </trkpt>
      <trkpt lat="45.92287" lon="4.4354">
        <ele>602.4</ele>
        <time>2022-06-26T08:52:27Z</time>
      </trkpt>
      <trkpt lat="45.92288" lon="4.43538">
        <ele>602.8</ele>
        <time>2022-06-26T08:52:28Z</time>
      </trkpt>
      <trkpt lat="45.92289" lon="4.43536">
        <ele>603</ele>
        <time>2022-06-26T08:52:29Z</time>
      </trkpt>
      <trkpt lat="45.92291" lon="4.43534">
        <ele>603.2</ele>
        <time>2022-06-26T08:52:30Z</time>
      </trkpt>
      <trkpt lat="45.92293" lon="4.43533">
        <ele>603.4</ele>
        <time>2022-06-26T08:52:31Z</time>
      </trkpt>
      <trkpt lat="45.92295" lon="4.43531">
        <ele>603.8</ele>
        <time>2022-06-26T08:52:32Z</time>
      </trkpt>
      <trkpt lat="45.92297" lon="4.4353">
        <ele>604</ele>
        <time>2022-06-26T08:52:33Z</time>
      </trkpt>
      <trkpt lat="45.92299" lon="4.43528">
        <ele>604.2</ele>
        <time>2022-06-26T08:52:34Z</time>
      </trkpt>
      <trkpt lat="45.92301" lon="4.43526">
        <ele>604.2</ele>
        <time>2022-06-26T08:52:35Z</time>
      </trkpt>
      <trkpt lat="45.92303" lon="4.43525">
        <ele>604.6</ele>
        <time>2022-06-26T08:52:36Z</time>
      </trkpt>
      <trkpt lat="45.92305" lon="4.43523">
        <ele>604.6</ele>
        <time>2022-06-26T08:52:37Z</time>
      </trkpt>
      <trkpt lat="45.92306" lon="4.43521">
        <ele>604.8</ele>
        <time>2022-06-26T08:52:38Z</time>
      </trkpt>
      <trkpt lat="45.92308" lon="4.43518">
        <ele>604.8</ele>
        <time>2022-06-26T08:52:39Z</time>
      </trkpt>
      <trkpt lat="45.9231" lon="4.43516">
        <ele>605</ele>
        <time>2022-06-26T08:52:40Z</time>
      </trkpt>
      <trkpt lat="45.92311" lon="4.43514">
        <ele>605</ele>
        <time>2022-06-26T08:52:41Z</time>
      </trkpt>
      <trkpt lat="45.92313" lon="4.43511">
        <ele>605.4</ele>
        <time>2022-06-26T08:52:42Z</time>
      </trkpt>
      <trkpt lat="45.92314" lon="4.43509">
        <ele>605.4</ele>
        <time>2022-06-26T08:52:43Z</time>
      </trkpt>
      <trkpt lat="45.92316" lon="4.43507">
        <ele>605.8</ele>
        <time>2022-06-26T08:52:44Z</time>
      </trkpt>
      <trkpt lat="45.92318" lon="4.43505">
        <ele>605.8</ele>
        <time>2022-06-26T08:52:45Z</time>
      </trkpt>
      <trkpt lat="45.9232" lon="4.43501">
        <ele>606.2</ele>
        <time>2022-06-26T08:52:46Z</time>
      </trkpt>
      <trkpt lat="45.92321" lon="4.43499">
        <ele>606.2</ele>
        <time>2022-06-26T08:52:47Z</time>
      </trkpt>
      <trkpt lat="45.92322" lon="4.43497">
        <ele>606.4</ele>
        <time>2022-06-26T08:52:48Z</time>
      </trkpt>
      <trkpt lat="45.92323" lon="4.43495">
        <ele>606.8</ele>
        <time>2022-06-26T08:52:49Z</time>
      </trkpt>
      <trkpt lat="45.92325" lon="4.43493">
        <ele>606.8</ele>
        <time>2022-06-26T08:52:50Z</time>
      </trkpt>
      <trkpt lat="45.92326" lon="4.43491">
        <ele>607</ele>
        <time>2022-06-26T08:52:51Z</time>
      </trkpt>
      <trkpt lat="45.92327" lon="4.43489">
        <ele>607.2</ele>
        <time>2022-06-26T08:52:52Z</time>
      </trkpt>
      <trkpt lat="45.92328" lon="4.43487">
        <ele>607.6</ele>
        <time>2022-06-26T08:52:53Z</time>
      </trkpt>
      <trkpt lat="45.92329" lon="4.43485">
        <ele>607.6</ele>
        <time>2022-06-26T08:52:54Z</time>
      </trkpt>
      <trkpt lat="45.92331" lon="4.43483">
        <ele>607.8</ele>
        <time>2022-06-26T08:52:55Z</time>
      </trkpt>
      <trkpt lat="45.92332" lon="4.43481">
        <ele>608.2</ele>
        <time>2022-06-26T08:52:56Z</time>
      </trkpt>
      <trkpt lat="45.92334" lon="4.4348">
        <ele>608.2</ele>
        <time>2022-06-26T08:52:57Z</time>
      </trkpt>
      <trkpt lat="45.92336" lon="4.43478">
        <ele>608.6</ele>
        <time>2022-06-26T08:52:58Z</time>
      </trkpt>
      <trkpt lat="45.92337" lon="4.43476">
        <ele>608.8</ele>
        <time>2022-06-26T08:52:59Z</time>
      </trkpt>
      <trkpt lat="45.92339" lon="4.43475">
        <ele>609</ele>
        <time>2022-06-26T08:53:00Z</time>
      </trkpt>
      <trkpt lat="45.9234" lon="4.43473">
        <ele>609.2</ele>
        <time>2022-06-26T08:53:01Z</time>
      </trkpt>
      <trkpt lat="45.92342" lon="4.43472">
        <ele>609.2</ele>
        <time>2022-06-26T08:53:02Z</time>
      </trkpt>
      <trkpt lat="45.92344" lon="4.4347">
        <ele>609.6</ele>
        <time>2022-06-26T08:53:03Z</time>
      </trkpt>
      <trkpt lat="45.92345" lon="4.43468">
        <ele>609.8</ele>
        <time>2022-06-26T08:53:04Z</time>
      </trkpt>
      <trkpt lat="45.92348" lon="4.43467">
        <ele>609.8</ele>
        <time>2022-06-26T08:53:05Z</time>
      </trkpt>
      <trkpt lat="45.9235" lon="4.43465">
        <ele>610.2</ele>
        <time>2022-06-26T08:53:06Z</time>
      </trkpt>
      <trkpt lat="45.92351" lon="4.43464">
        <ele>610.2</ele>
        <time>2022-06-26T08:53:07Z</time>
      </trkpt>
      <trkpt lat="45.92353" lon="4.43463">
        <ele>610.6</ele>
        <time>2022-06-26T08:53:08Z</time>
      </trkpt>
      <trkpt lat="45.92356" lon="4.43461">
        <ele>610.8</ele>
        <time>2022-06-26T08:53:09Z</time>
      </trkpt>
      <trkpt lat="45.92357" lon="4.4346">
        <ele>611.2</ele>
        <time>2022-06-26T08:53:10Z</time>
      </trkpt>
      <trkpt lat="45.92359" lon="4.43459">
        <ele>611.4</ele>
        <time>2022-06-26T08:53:11Z</time>
      </trkpt>
      <trkpt lat="45.92361" lon="4.43458">
        <ele>611.6</ele>
        <time>2022-06-26T08:53:12Z</time>
      </trkpt>
      <trkpt lat="45.92362" lon="4.43457">
        <ele>611.8</ele>
        <time>2022-06-26T08:53:13Z</time>
      </trkpt>
      <trkpt lat="45.92364" lon="4.43456">
        <ele>612</ele>
        <time>2022-06-26T08:53:14Z</time>
      </trkpt>
      <trkpt lat="45.92366" lon="4.43455">
        <ele>612.4</ele>
        <time>2022-06-26T08:53:15Z</time>
      </trkpt>
      <trkpt lat="45.92368" lon="4.43454">
        <ele>612.6</ele>
        <time>2022-06-26T08:53:16Z</time>
      </trkpt>
      <trkpt lat="45.9237" lon="4.43454">
        <ele>612.6</ele>
        <time>2022-06-26T08:53:17Z</time>
      </trkpt>
      <trkpt lat="45.92372" lon="4.43453">
        <ele>613</ele>
        <time>2022-06-26T08:53:18Z</time>
      </trkpt>
      <trkpt lat="45.92375" lon="4.43453">
        <ele>613.2</ele>
        <time>2022-06-26T08:53:19Z</time>
      </trkpt>
      <trkpt lat="45.92377" lon="4.43453">
        <ele>613.4</ele>
        <time>2022-06-26T08:53:20Z</time>
      </trkpt>
      <trkpt lat="45.92379" lon="4.43452">
        <ele>613.4</ele>
        <time>2022-06-26T08:53:21Z</time>
      </trkpt>
      <trkpt lat="45.92381" lon="4.43452">
        <ele>613.8</ele>
        <time>2022-06-26T08:53:22Z</time>
      </trkpt>
      <trkpt lat="45.92383" lon="4.43451">
        <ele>613.8</ele>
        <time>2022-06-26T08:53:23Z</time>
      </trkpt>
      <trkpt lat="45.92385" lon="4.43451">
        <ele>614.2</ele>
        <time>2022-06-26T08:53:24Z</time>
      </trkpt>
      <trkpt lat="45.92387" lon="4.43451">
        <ele>614.4</ele>
        <time>2022-06-26T08:53:25Z</time>
      </trkpt>
      <trkpt lat="45.92388" lon="4.4345">
        <ele>614.6</ele>
        <time>2022-06-26T08:53:26Z</time>
      </trkpt>
      <trkpt lat="45.92389" lon="4.4345">
        <ele>614.6</ele>
        <time>2022-06-26T08:53:27Z</time>
      </trkpt>
      <trkpt lat="45.92391" lon="4.43449">
        <ele>615</ele>
        <time>2022-06-26T08:53:28Z</time>
      </trkpt>
      <trkpt lat="45.92395" lon="4.43448">
        <ele>615.6</ele>
        <time>2022-06-26T08:53:31Z</time>
      </trkpt>
      <trkpt lat="45.92397" lon="4.43448">
        <ele>615.6</ele>
        <time>2022-06-26T08:53:32Z</time>
      </trkpt>
      <trkpt lat="45.92399" lon="4.43448">
        <ele>615.8</ele>
        <time>2022-06-26T08:53:33Z</time>
      </trkpt>
      <trkpt lat="45.924" lon="4.43448">
        <ele>616</ele>
        <time>2022-06-26T08:53:34Z</time>
      </trkpt>
      <trkpt lat="45.92402" lon="4.43448">
        <ele>616</ele>
        <time>2022-06-26T08:53:35Z</time>
      </trkpt>
      <trkpt lat="45.92404" lon="4.43448">
        <ele>616.4</ele>
        <time>2022-06-26T08:53:36Z</time>
      </trkpt>
      <trkpt lat="45.92406" lon="4.43448">
        <ele>616.4</ele>
        <time>2022-06-26T08:53:37Z</time>
      </trkpt>
      <trkpt lat="45.92408" lon="4.43448">
        <ele>617</ele>
        <time>2022-06-26T08:53:38Z</time>
      </trkpt>
      <trkpt lat="45.9241" lon="4.43448">
        <ele>617</ele>
        <time>2022-06-26T08:53:39Z</time>
      </trkpt>
      <trkpt lat="45.92412" lon="4.43448">
        <ele>617.2</ele>
        <time>2022-06-26T08:53:40Z</time>
      </trkpt>
      <trkpt lat="45.92414" lon="4.43449">
        <ele>617.2</ele>
        <time>2022-06-26T08:53:41Z</time>
      </trkpt>
      <trkpt lat="45.92416" lon="4.43449">
        <ele>617.6</ele>
        <time>2022-06-26T08:53:42Z</time>
      </trkpt>
      <trkpt lat="45.92418" lon="4.43449">
        <ele>617.6</ele>
        <time>2022-06-26T08:53:43Z</time>
      </trkpt>
      <trkpt lat="45.9242" lon="4.43449">
        <ele>617.8</ele>
        <time>2022-06-26T08:53:44Z</time>
      </trkpt>
      <trkpt lat="45.92423" lon="4.43449">
        <ele>618</ele>
        <time>2022-06-26T08:53:45Z</time>
      </trkpt>
      <trkpt lat="45.92425" lon="4.43449">
        <ele>618.2</ele>
        <time>2022-06-26T08:53:46Z</time>
      </trkpt>
      <trkpt lat="45.92427" lon="4.43449">
        <ele>618.2</ele>
        <time>2022-06-26T08:53:47Z</time>
      </trkpt>
      <trkpt lat="45.92429" lon="4.43449">
        <ele>618.6</ele>
        <time>2022-06-26T08:53:48Z</time>
      </trkpt>
      <trkpt lat="45.92431" lon="4.4345">
        <ele>618.8</ele>
        <time>2022-06-26T08:53:49Z</time>
      </trkpt>
      <trkpt lat="45.92433" lon="4.4345">
        <ele>619</ele>
        <time>2022-06-26T08:53:50Z</time>
      </trkpt>
      <trkpt lat="45.92435" lon="4.43451">
        <ele>619.2</ele>
        <time>2022-06-26T08:53:51Z</time>
      </trkpt>
      <trkpt lat="45.92437" lon="4.43452">
        <ele>619.2</ele>
        <time>2022-06-26T08:53:52Z</time>
      </trkpt>
      <trkpt lat="45.92439" lon="4.43452">
        <ele>619.8</ele>
        <time>2022-06-26T08:53:53Z</time>
      </trkpt>
      <trkpt lat="45.92441" lon="4.43453">
        <ele>620</ele>
        <time>2022-06-26T08:53:54Z</time>
      </trkpt>
      <trkpt lat="45.92443" lon="4.43454">
        <ele>620.2</ele>
        <time>2022-06-26T08:53:55Z</time>
      </trkpt>
      <trkpt lat="45.92445" lon="4.43454">
        <ele>620.2</ele>
        <time>2022-06-26T08:53:56Z</time>
      </trkpt>
      <trkpt lat="45.92447" lon="4.43455">
        <ele>620.6</ele>
        <time>2022-06-26T08:53:57Z</time>
      </trkpt>
      <trkpt lat="45.92449" lon="4.43456">
        <ele>620.8</ele>
        <time>2022-06-26T08:53:58Z</time>
      </trkpt>
      <trkpt lat="45.92451" lon="4.43456">
        <ele>621</ele>
        <time>2022-06-26T08:53:59Z</time>
      </trkpt>
      <trkpt lat="45.92454" lon="4.43456">
        <ele>621.2</ele>
        <time>2022-06-26T08:54:00Z</time>
      </trkpt>
      <trkpt lat="45.92456" lon="4.43456">
        <ele>621.2</ele>
        <time>2022-06-26T08:54:01Z</time>
      </trkpt>
      <trkpt lat="45.92458" lon="4.43456">
        <ele>621.6</ele>
        <time>2022-06-26T08:54:02Z</time>
      </trkpt>
      <trkpt lat="45.9246" lon="4.43456">
        <ele>621.6</ele>
        <time>2022-06-26T08:54:03Z</time>
      </trkpt>
      <trkpt lat="45.92463" lon="4.43457">
        <ele>622</ele>
        <time>2022-06-26T08:54:04Z</time>
      </trkpt>
      <trkpt lat="45.92465" lon="4.43457">
        <ele>622</ele>
        <time>2022-06-26T08:54:05Z</time>
      </trkpt>
      <trkpt lat="45.92468" lon="4.43458">
        <ele>622.2</ele>
        <time>2022-06-26T08:54:06Z</time>
      </trkpt>
      <trkpt lat="45.9247" lon="4.43458">
        <ele>622.2</ele>
        <time>2022-06-26T08:54:07Z</time>
      </trkpt>
      <trkpt lat="45.92472" lon="4.43458">
        <ele>622.6</ele>
        <time>2022-06-26T08:54:08Z</time>
      </trkpt>
      <trkpt lat="45.92474" lon="4.43458">
        <ele>622.6</ele>
        <time>2022-06-26T08:54:09Z</time>
      </trkpt>
      <trkpt lat="45.92477" lon="4.43458">
        <ele>622.8</ele>
        <time>2022-06-26T08:54:10Z</time>
      </trkpt>
      <trkpt lat="45.92479" lon="4.43459">
        <ele>622.8</ele>
        <time>2022-06-26T08:54:11Z</time>
      </trkpt>
      <trkpt lat="45.92482" lon="4.43459">
        <ele>623.2</ele>
        <time>2022-06-26T08:54:12Z</time>
      </trkpt>
      <trkpt lat="45.92484" lon="4.43459">
        <ele>623.2</ele>
        <time>2022-06-26T08:54:13Z</time>
      </trkpt>
      <trkpt lat="45.92486" lon="4.43459">
        <ele>623.4</ele>
        <time>2022-06-26T08:54:14Z</time>
      </trkpt>
      <trkpt lat="45.92489" lon="4.43459">
        <ele>623.4</ele>
        <time>2022-06-26T08:54:15Z</time>
      </trkpt>
      <trkpt lat="45.92491" lon="4.43458">
        <ele>623.6</ele>
        <time>2022-06-26T08:54:16Z</time>
      </trkpt>
      <trkpt lat="45.92493" lon="4.43458">
        <ele>623.6</ele>
        <time>2022-06-26T08:54:17Z</time>
      </trkpt>
      <trkpt lat="45.92495" lon="4.43458">
        <ele>624</ele>
        <time>2022-06-26T08:54:18Z</time>
      </trkpt>
      <trkpt lat="45.92497" lon="4.43457">
        <ele>624</ele>
        <time>2022-06-26T08:54:19Z</time>
      </trkpt>
      <trkpt lat="45.92499" lon="4.43457">
        <ele>624.4</ele>
        <time>2022-06-26T08:54:20Z</time>
      </trkpt>
      <trkpt lat="45.92501" lon="4.43456">
        <ele>624.4</ele>
        <time>2022-06-26T08:54:21Z</time>
      </trkpt>
      <trkpt lat="45.92504" lon="4.43456">
        <ele>624.6</ele>
        <time>2022-06-26T08:54:22Z</time>
      </trkpt>
      <trkpt lat="45.92506" lon="4.43455">
        <ele>624.6</ele>
        <time>2022-06-26T08:54:23Z</time>
      </trkpt>
      <trkpt lat="45.92507" lon="4.43455">
        <ele>625</ele>
        <time>2022-06-26T08:54:24Z</time>
      </trkpt>
      <trkpt lat="45.92509" lon="4.43454">
        <ele>625.4</ele>
        <time>2022-06-26T08:54:25Z</time>
      </trkpt>
      <trkpt lat="45.92511" lon="4.43454">
        <ele>625.4</ele>
        <time>2022-06-26T08:54:26Z</time>
      </trkpt>
      <trkpt lat="45.92513" lon="4.43453">
        <ele>625.8</ele>
        <time>2022-06-26T08:54:27Z</time>
      </trkpt>
      <trkpt lat="45.92515" lon="4.43453">
        <ele>626</ele>
        <time>2022-06-26T08:54:28Z</time>
      </trkpt>
      <trkpt lat="45.92517" lon="4.43452">
        <ele>626.2</ele>
        <time>2022-06-26T08:54:29Z</time>
      </trkpt>
      <trkpt lat="45.92518" lon="4.43451">
        <ele>626.6</ele>
        <time>2022-06-26T08:54:30Z</time>
      </trkpt>
      <trkpt lat="45.9252" lon="4.4345">
        <ele>626.8</ele>
        <time>2022-06-26T08:54:31Z</time>
      </trkpt>
      <trkpt lat="45.92521" lon="4.43449">
        <ele>627</ele>
        <time>2022-06-26T08:54:32Z</time>
      </trkpt>
      <trkpt lat="45.92523" lon="4.43447">
        <ele>627.2</ele>
        <time>2022-06-26T08:54:33Z</time>
      </trkpt>
      <trkpt lat="45.92524" lon="4.43446">
        <ele>627.2</ele>
        <time>2022-06-26T08:54:34Z</time>
      </trkpt>
      <trkpt lat="45.92525" lon="4.43444">
        <ele>627.6</ele>
        <time>2022-06-26T08:54:35Z</time>
      </trkpt>
      <trkpt lat="45.92527" lon="4.43443">
        <ele>628</ele>
        <time>2022-06-26T08:54:36Z</time>
      </trkpt>
      <trkpt lat="45.92528" lon="4.43442">
        <ele>628</ele>
        <time>2022-06-26T08:54:37Z</time>
      </trkpt>
      <trkpt lat="45.92529" lon="4.43441">
        <ele>628</ele>
        <time>2022-06-26T08:54:38Z</time>
      </trkpt>
      <trkpt lat="45.92531" lon="4.4344">
        <ele>628.2</ele>
        <time>2022-06-26T08:54:39Z</time>
      </trkpt>
      <trkpt lat="45.92532" lon="4.43439">
        <ele>628.2</ele>
        <time>2022-06-26T08:54:40Z</time>
      </trkpt>
      <trkpt lat="45.92533" lon="4.43438">
        <ele>628.6</ele>
        <time>2022-06-26T08:54:41Z</time>
      </trkpt>
      <trkpt lat="45.92535" lon="4.43436">
        <ele>628.8</ele>
        <time>2022-06-26T08:54:42Z</time>
      </trkpt>
      <trkpt lat="45.92536" lon="4.43435">
        <ele>629</ele>
        <time>2022-06-26T08:54:43Z</time>
      </trkpt>
      <trkpt lat="45.92538" lon="4.43433">
        <ele>629</ele>
        <time>2022-06-26T08:54:44Z</time>
      </trkpt>
      <trkpt lat="45.92539" lon="4.43432">
        <ele>629.2</ele>
        <time>2022-06-26T08:54:45Z</time>
      </trkpt>
      <trkpt lat="45.9254" lon="4.43431">
        <ele>629.2</ele>
        <time>2022-06-26T08:54:46Z</time>
      </trkpt>
      <trkpt lat="45.92542" lon="4.43429">
        <ele>629.6</ele>
        <time>2022-06-26T08:54:47Z</time>
      </trkpt>
      <trkpt lat="45.92543" lon="4.43428">
        <ele>629.6</ele>
        <time>2022-06-26T08:54:48Z</time>
      </trkpt>
      <trkpt lat="45.92545" lon="4.43427">
        <ele>629.8</ele>
        <time>2022-06-26T08:54:49Z</time>
      </trkpt>
      <trkpt lat="45.92546" lon="4.43425">
        <ele>629.8</ele>
        <time>2022-06-26T08:54:50Z</time>
      </trkpt>
      <trkpt lat="45.92547" lon="4.43424">
        <ele>630.2</ele>
        <time>2022-06-26T08:54:51Z</time>
      </trkpt>
      <trkpt lat="45.92549" lon="4.43422">
        <ele>630.2</ele>
        <time>2022-06-26T08:54:52Z</time>
      </trkpt>
      <trkpt lat="45.9255" lon="4.4342">
        <ele>630.4</ele>
        <time>2022-06-26T08:54:53Z</time>
      </trkpt>
      <trkpt lat="45.92551" lon="4.43419">
        <ele>630.6</ele>
        <time>2022-06-26T08:54:54Z</time>
      </trkpt>
      <trkpt lat="45.92553" lon="4.43418">
        <ele>630.6</ele>
        <time>2022-06-26T08:54:55Z</time>
      </trkpt>
      <trkpt lat="45.92554" lon="4.43416">
        <ele>631</ele>
        <time>2022-06-26T08:54:56Z</time>
      </trkpt>
      <trkpt lat="45.92555" lon="4.43414">
        <ele>631</ele>
        <time>2022-06-26T08:54:57Z</time>
      </trkpt>
      <trkpt lat="45.92557" lon="4.43413">
        <ele>631.4</ele>
        <time>2022-06-26T08:54:58Z</time>
      </trkpt>
      <trkpt lat="45.92558" lon="4.43411">
        <ele>631.6</ele>
        <time>2022-06-26T08:54:59Z</time>
      </trkpt>
      <trkpt lat="45.9256" lon="4.43409">
        <ele>631.6</ele>
        <time>2022-06-26T08:55:00Z</time>
      </trkpt>
      <trkpt lat="45.92561" lon="4.43407">
        <ele>632</ele>
        <time>2022-06-26T08:55:01Z</time>
      </trkpt>
      <trkpt lat="45.92563" lon="4.43405">
        <ele>632</ele>
        <time>2022-06-26T08:55:02Z</time>
      </trkpt>
      <trkpt lat="45.92564" lon="4.43403">
        <ele>632.2</ele>
        <time>2022-06-26T08:55:03Z</time>
      </trkpt>
      <trkpt lat="45.92566" lon="4.43401">
        <ele>632.2</ele>
        <time>2022-06-26T08:55:04Z</time>
      </trkpt>
      <trkpt lat="45.92567" lon="4.43399">
        <ele>632.6</ele>
        <time>2022-06-26T08:55:05Z</time>
      </trkpt>
      <trkpt lat="45.92569" lon="4.43397">
        <ele>632.8</ele>
        <time>2022-06-26T08:55:06Z</time>
      </trkpt>
      <trkpt lat="45.9257" lon="4.43395">
        <ele>633</ele>
        <time>2022-06-26T08:55:07Z</time>
      </trkpt>
      <trkpt lat="45.92572" lon="4.43392">
        <ele>633</ele>
        <time>2022-06-26T08:55:08Z</time>
      </trkpt>
      <trkpt lat="45.92573" lon="4.4339">
        <ele>633</ele>
        <time>2022-06-26T08:55:09Z</time>
      </trkpt>
      <trkpt lat="45.92574" lon="4.43389">
        <ele>633.4</ele>
        <time>2022-06-26T08:55:10Z</time>
      </trkpt>
      <trkpt lat="45.92576" lon="4.43386">
        <ele>633.4</ele>
        <time>2022-06-26T08:55:11Z</time>
      </trkpt>
      <trkpt lat="45.92577" lon="4.43384">
        <ele>633.6</ele>
        <time>2022-06-26T08:55:12Z</time>
      </trkpt>
      <trkpt lat="45.92579" lon="4.43382">
        <ele>633.6</ele>
        <time>2022-06-26T08:55:13Z</time>
      </trkpt>
      <trkpt lat="45.9258" lon="4.43379">
        <ele>634</ele>
        <time>2022-06-26T08:55:14Z</time>
      </trkpt>
      <trkpt lat="45.92582" lon="4.43376">
        <ele>634</ele>
        <time>2022-06-26T08:55:15Z</time>
      </trkpt>
      <trkpt lat="45.92583" lon="4.43374">
        <ele>634.2</ele>
        <time>2022-06-26T08:55:16Z</time>
      </trkpt>
      <trkpt lat="45.92585" lon="4.43371">
        <ele>634.2</ele>
        <time>2022-06-26T08:55:17Z</time>
      </trkpt>
      <trkpt lat="45.92586" lon="4.43368">
        <ele>634.6</ele>
        <time>2022-06-26T08:55:18Z</time>
      </trkpt>
      <trkpt lat="45.92588" lon="4.43365">
        <ele>634.6</ele>
        <time>2022-06-26T08:55:19Z</time>
      </trkpt>
      <trkpt lat="45.9259" lon="4.43362">
        <ele>634.8</ele>
        <time>2022-06-26T08:55:20Z</time>
      </trkpt>
      <trkpt lat="45.92591" lon="4.4336">
        <ele>634.8</ele>
        <time>2022-06-26T08:55:21Z</time>
      </trkpt>
      <trkpt lat="45.92593" lon="4.43357">
        <ele>635</ele>
        <time>2022-06-26T08:55:22Z</time>
      </trkpt>
      <trkpt lat="45.92594" lon="4.43354">
        <ele>635</ele>
        <time>2022-06-26T08:55:23Z</time>
      </trkpt>
      <trkpt lat="45.92595" lon="4.43352">
        <ele>635.2</ele>
        <time>2022-06-26T08:55:24Z</time>
      </trkpt>
      <trkpt lat="45.92597" lon="4.4335">
        <ele>635.2</ele>
        <time>2022-06-26T08:55:25Z</time>
      </trkpt>
      <trkpt lat="45.92598" lon="4.43347">
        <ele>635.6</ele>
        <time>2022-06-26T08:55:26Z</time>
      </trkpt>
      <trkpt lat="45.926" lon="4.43345">
        <ele>635.6</ele>
        <time>2022-06-26T08:55:27Z</time>
      </trkpt>
      <trkpt lat="45.92601" lon="4.43342">
        <ele>635.6</ele>
        <time>2022-06-26T08:55:28Z</time>
      </trkpt>
      <trkpt lat="45.92603" lon="4.43339">
        <ele>635.8</ele>
        <time>2022-06-26T08:55:29Z</time>
      </trkpt>
      <trkpt lat="45.92604" lon="4.43337">
        <ele>635.8</ele>
        <time>2022-06-26T08:55:30Z</time>
      </trkpt>
      <trkpt lat="45.92606" lon="4.43334">
        <ele>635.8</ele>
        <time>2022-06-26T08:55:31Z</time>
      </trkpt>
      <trkpt lat="45.92608" lon="4.43331">
        <ele>636</ele>
        <time>2022-06-26T08:55:32Z</time>
      </trkpt>
      <trkpt lat="45.9261" lon="4.43328">
        <ele>636</ele>
        <time>2022-06-26T08:55:33Z</time>
      </trkpt>
      <trkpt lat="45.92612" lon="4.43325">
        <ele>636</ele>
        <time>2022-06-26T08:55:34Z</time>
      </trkpt>
      <trkpt lat="45.92614" lon="4.43322">
        <ele>636</ele>
        <time>2022-06-26T08:55:35Z</time>
      </trkpt>
      <trkpt lat="45.92616" lon="4.43318">
        <ele>636</ele>
        <time>2022-06-26T08:55:36Z</time>
      </trkpt>
      <trkpt lat="45.92619" lon="4.43315">
        <ele>636</ele>
        <time>2022-06-26T08:55:37Z</time>
      </trkpt>
      <trkpt lat="45.92621" lon="4.43311">
        <ele>636</ele>
        <time>2022-06-26T08:55:38Z</time>
      </trkpt>
      <trkpt lat="45.92623" lon="4.43308">
        <ele>636.2</ele>
        <time>2022-06-26T08:55:39Z</time>
      </trkpt>
      <trkpt lat="45.92626" lon="4.43304">
        <ele>636.2</ele>
        <time>2022-06-26T08:55:40Z</time>
      </trkpt>
      <trkpt lat="45.92628" lon="4.43301">
        <ele>636.2</ele>
        <time>2022-06-26T08:55:41Z</time>
      </trkpt>
      <trkpt lat="45.9263" lon="4.43297">
        <ele>636.2</ele>
        <time>2022-06-26T08:55:42Z</time>
      </trkpt>
      <trkpt lat="45.92632" lon="4.43294">
        <ele>636.2</ele>
        <time>2022-06-26T08:55:43Z</time>
      </trkpt>
      <trkpt lat="45.92634" lon="4.4329">
        <ele>636.4</ele>
        <time>2022-06-26T08:55:44Z</time>
      </trkpt>
      <trkpt lat="45.92636" lon="4.43287">
        <ele>636.4</ele>
        <time>2022-06-26T08:55:45Z</time>
      </trkpt>
      <trkpt lat="45.92638" lon="4.43284">
        <ele>636.4</ele>
        <time>2022-06-26T08:55:46Z</time>
      </trkpt>
      <trkpt lat="45.9264" lon="4.43281">
        <ele>636.6</ele>
        <time>2022-06-26T08:55:47Z</time>
      </trkpt>
      <trkpt lat="45.92641" lon="4.43278">
        <ele>636.6</ele>
        <time>2022-06-26T08:55:48Z</time>
      </trkpt>
      <trkpt lat="45.92642" lon="4.43275">
        <ele>636.6</ele>
        <time>2022-06-26T08:55:49Z</time>
      </trkpt>
      <trkpt lat="45.92645" lon="4.43271">
        <ele>636.6</ele>
        <time>2022-06-26T08:55:50Z</time>
      </trkpt>
      <trkpt lat="45.92646" lon="4.43268">
        <ele>636.6</ele>
        <time>2022-06-26T08:55:51Z</time>
      </trkpt>
      <trkpt lat="45.92648" lon="4.43264">
        <ele>636.6</ele>
        <time>2022-06-26T08:55:52Z</time>
      </trkpt>
      <trkpt lat="45.9265" lon="4.4326">
        <ele>636.8</ele>
        <time>2022-06-26T08:55:53Z</time>
      </trkpt>
      <trkpt lat="45.92652" lon="4.43256">
        <ele>636.8</ele>
        <time>2022-06-26T08:55:54Z</time>
      </trkpt>
      <trkpt lat="45.92653" lon="4.43252">
        <ele>636.8</ele>
        <time>2022-06-26T08:55:55Z</time>
      </trkpt>
      <trkpt lat="45.92655" lon="4.43249">
        <ele>636.8</ele>
        <time>2022-06-26T08:55:56Z</time>
      </trkpt>
      <trkpt lat="45.92656" lon="4.43246">
        <ele>637.2</ele>
        <time>2022-06-26T08:55:57Z</time>
      </trkpt>
      <trkpt lat="45.92658" lon="4.43242">
        <ele>637.2</ele>
        <time>2022-06-26T08:55:58Z</time>
      </trkpt>
      <trkpt lat="45.9266" lon="4.43238">
        <ele>637.4</ele>
        <time>2022-06-26T08:55:59Z</time>
      </trkpt>
      <trkpt lat="45.92662" lon="4.43234">
        <ele>637.4</ele>
        <time>2022-06-26T08:56:00Z</time>
      </trkpt>
      <trkpt lat="45.92663" lon="4.4323">
        <ele>637.4</ele>
        <time>2022-06-26T08:56:01Z</time>
      </trkpt>
      <trkpt lat="45.92665" lon="4.43226">
        <ele>637.6</ele>
        <time>2022-06-26T08:56:02Z</time>
      </trkpt>
      <trkpt lat="45.92667" lon="4.43223">
        <ele>637.6</ele>
        <time>2022-06-26T08:56:03Z</time>
      </trkpt>
      <trkpt lat="45.92669" lon="4.43219">
        <ele>637.6</ele>
        <time>2022-06-26T08:56:04Z</time>
      </trkpt>
      <trkpt lat="45.92672" lon="4.43215">
        <ele>637.6</ele>
        <time>2022-06-26T08:56:05Z</time>
      </trkpt>
      <trkpt lat="45.92674" lon="4.43211">
        <ele>638</ele>
        <time>2022-06-26T08:56:06Z</time>
      </trkpt>
      <trkpt lat="45.92674" lon="4.43207">
        <ele>638</ele>
        <time>2022-06-26T08:56:07Z</time>
      </trkpt>
      <trkpt lat="45.92676" lon="4.43203">
        <ele>638.2</ele>
        <time>2022-06-26T08:56:08Z</time>
      </trkpt>
      <trkpt lat="45.92679" lon="4.43199">
        <ele>638.2</ele>
        <time>2022-06-26T08:56:09Z</time>
      </trkpt>
      <trkpt lat="45.92681" lon="4.43195">
        <ele>638.2</ele>
        <time>2022-06-26T08:56:10Z</time>
      </trkpt>
      <trkpt lat="45.92683" lon="4.43191">
        <ele>638.4</ele>
        <time>2022-06-26T08:56:11Z</time>
      </trkpt>
      <trkpt lat="45.92685" lon="4.43186">
        <ele>638.4</ele>
        <time>2022-06-26T08:56:12Z</time>
      </trkpt>
      <trkpt lat="45.92687" lon="4.43183">
        <ele>638.6</ele>
        <time>2022-06-26T08:56:13Z</time>
      </trkpt>
      <trkpt lat="45.92689" lon="4.4318">
        <ele>638.6</ele>
        <time>2022-06-26T08:56:14Z</time>
      </trkpt>
      <trkpt lat="45.9269" lon="4.43176">
        <ele>639</ele>
        <time>2022-06-26T08:56:15Z</time>
      </trkpt>
      <trkpt lat="45.92692" lon="4.43172">
        <ele>639</ele>
        <time>2022-06-26T08:56:16Z</time>
      </trkpt>
      <trkpt lat="45.92694" lon="4.43168">
        <ele>639.4</ele>
        <time>2022-06-26T08:56:17Z</time>
      </trkpt>
      <trkpt lat="45.92696" lon="4.43164">
        <ele>639.4</ele>
        <time>2022-06-26T08:56:18Z</time>
      </trkpt>
      <trkpt lat="45.92697" lon="4.4316">
        <ele>639.8</ele>
        <time>2022-06-26T08:56:19Z</time>
      </trkpt>
      <trkpt lat="45.92698" lon="4.43155">
        <ele>639.8</ele>
        <time>2022-06-26T08:56:20Z</time>
      </trkpt>
      <trkpt lat="45.92699" lon="4.43151">
        <ele>640.2</ele>
        <time>2022-06-26T08:56:21Z</time>
      </trkpt>
      <trkpt lat="45.927" lon="4.43147">
        <ele>640.2</ele>
        <time>2022-06-26T08:56:22Z</time>
      </trkpt>
      <trkpt lat="45.92701" lon="4.43143">
        <ele>640.6</ele>
        <time>2022-06-26T08:56:23Z</time>
      </trkpt>
      <trkpt lat="45.92701" lon="4.43139">
        <ele>641</ele>
        <time>2022-06-26T08:56:24Z</time>
      </trkpt>
      <trkpt lat="45.92702" lon="4.43136">
        <ele>641.2</ele>
        <time>2022-06-26T08:56:25Z</time>
      </trkpt>
      <trkpt lat="45.92703" lon="4.43133">
        <ele>641.2</ele>
        <time>2022-06-26T08:56:26Z</time>
      </trkpt>
      <trkpt lat="45.92704" lon="4.43129">
        <ele>641.4</ele>
        <time>2022-06-26T08:56:27Z</time>
      </trkpt>
      <trkpt lat="45.92704" lon="4.43126">
        <ele>641.4</ele>
        <time>2022-06-26T08:56:28Z</time>
      </trkpt>
      <trkpt lat="45.92705" lon="4.43123">
        <ele>641.8</ele>
        <time>2022-06-26T08:56:29Z</time>
      </trkpt>
      <trkpt lat="45.92706" lon="4.4312">
        <ele>641.8</ele>
        <time>2022-06-26T08:56:30Z</time>
      </trkpt>
      <trkpt lat="45.92706" lon="4.43117">
        <ele>642.2</ele>
        <time>2022-06-26T08:56:31Z</time>
      </trkpt>
      <trkpt lat="45.92707" lon="4.43113">
        <ele>642.6</ele>
        <time>2022-06-26T08:56:32Z</time>
      </trkpt>
      <trkpt lat="45.92707" lon="4.4311">
        <ele>642.6</ele>
        <time>2022-06-26T08:56:33Z</time>
      </trkpt>
      <trkpt lat="45.92707" lon="4.43107">
        <ele>642.8</ele>
        <time>2022-06-26T08:56:34Z</time>
      </trkpt>
      <trkpt lat="45.92708" lon="4.43104">
        <ele>642.8</ele>
        <time>2022-06-26T08:56:35Z</time>
      </trkpt>
      <trkpt lat="45.92708" lon="4.431">
        <ele>643</ele>
        <time>2022-06-26T08:56:36Z</time>
      </trkpt>
      <trkpt lat="45.92708" lon="4.43097">
        <ele>643</ele>
        <time>2022-06-26T08:56:37Z</time>
      </trkpt>
      <trkpt lat="45.92708" lon="4.43093">
        <ele>643.4</ele>
        <time>2022-06-26T08:56:38Z</time>
      </trkpt>
      <trkpt lat="45.92708" lon="4.4309">
        <ele>643.4</ele>
        <time>2022-06-26T08:56:39Z</time>
      </trkpt>
      <trkpt lat="45.92708" lon="4.43086">
        <ele>643.6</ele>
        <time>2022-06-26T08:56:40Z</time>
      </trkpt>
      <trkpt lat="45.92708" lon="4.43081">
        <ele>643.6</ele>
        <time>2022-06-26T08:56:41Z</time>
      </trkpt>
      <trkpt lat="45.92708" lon="4.43077">
        <ele>643.6</ele>
        <time>2022-06-26T08:56:42Z</time>
      </trkpt>
      <trkpt lat="45.92708" lon="4.43072">
        <ele>643.6</ele>
        <time>2022-06-26T08:56:43Z</time>
      </trkpt>
      <trkpt lat="45.92708" lon="4.43067">
        <ele>643.8</ele>
        <time>2022-06-26T08:56:44Z</time>
      </trkpt>
      <trkpt lat="45.92709" lon="4.43062">
        <ele>643.8</ele>
        <time>2022-06-26T08:56:45Z</time>
      </trkpt>
      <trkpt lat="45.9271" lon="4.43056">
        <ele>643.8</ele>
        <time>2022-06-26T08:56:46Z</time>
      </trkpt>
      <trkpt lat="45.92712" lon="4.4305">
        <ele>643.8</ele>
        <time>2022-06-26T08:56:47Z</time>
      </trkpt>
      <trkpt lat="45.92715" lon="4.43045">
        <ele>643.8</ele>
        <time>2022-06-26T08:56:48Z</time>
      </trkpt>
      <trkpt lat="45.92718" lon="4.43041">
        <ele>643.6</ele>
        <time>2022-06-26T08:56:49Z</time>
      </trkpt>
      <trkpt lat="45.92722" lon="4.43037">
        <ele>643.6</ele>
        <time>2022-06-26T08:56:50Z</time>
      </trkpt>
      <trkpt lat="45.92726" lon="4.43033">
        <ele>643.6</ele>
        <time>2022-06-26T08:56:51Z</time>
      </trkpt>
      <trkpt lat="45.9273" lon="4.4303">
        <ele>643.6</ele>
        <time>2022-06-26T08:56:52Z</time>
      </trkpt>
      <trkpt lat="45.92733" lon="4.43028">
        <ele>643.8</ele>
        <time>2022-06-26T08:56:53Z</time>
      </trkpt>
      <trkpt lat="45.92735" lon="4.43025">
        <ele>644.2</ele>
        <time>2022-06-26T08:56:54Z</time>
      </trkpt>
      <trkpt lat="45.92738" lon="4.43023">
        <ele>644.6</ele>
        <time>2022-06-26T08:56:55Z</time>
      </trkpt>
      <trkpt lat="45.9274" lon="4.43021">
        <ele>644.8</ele>
        <time>2022-06-26T08:56:56Z</time>
      </trkpt>
      <trkpt lat="45.92742" lon="4.43019">
        <ele>645.2</ele>
        <time>2022-06-26T08:56:57Z</time>
      </trkpt>
      <trkpt lat="45.92744" lon="4.43016">
        <ele>645.6</ele>
        <time>2022-06-26T08:56:58Z</time>
      </trkpt>
      <trkpt lat="45.92746" lon="4.43014">
        <ele>645.6</ele>
        <time>2022-06-26T08:56:59Z</time>
      </trkpt>
      <trkpt lat="45.92747" lon="4.43012">
        <ele>646</ele>
        <time>2022-06-26T08:57:00Z</time>
      </trkpt>
      <trkpt lat="45.92749" lon="4.4301">
        <ele>646.2</ele>
        <time>2022-06-26T08:57:01Z</time>
      </trkpt>
      <trkpt lat="45.9275" lon="4.43007">
        <ele>646.2</ele>
        <time>2022-06-26T08:57:02Z</time>
      </trkpt>
      <trkpt lat="45.92753" lon="4.43004">
        <ele>646.4</ele>
        <time>2022-06-26T08:57:03Z</time>
      </trkpt>
      <trkpt lat="45.92755" lon="4.43001">
        <ele>646.4</ele>
        <time>2022-06-26T08:57:04Z</time>
      </trkpt>
      <trkpt lat="45.92758" lon="4.42997">
        <ele>646.4</ele>
        <time>2022-06-26T08:57:05Z</time>
      </trkpt>
      <trkpt lat="45.92761" lon="4.42993">
        <ele>646.4</ele>
        <time>2022-06-26T08:57:06Z</time>
      </trkpt>
      <trkpt lat="45.92763" lon="4.42989">
        <ele>646.4</ele>
        <time>2022-06-26T08:57:07Z</time>
      </trkpt>
      <trkpt lat="45.92767" lon="4.42985">
        <ele>646.4</ele>
        <time>2022-06-26T08:57:08Z</time>
      </trkpt>
      <trkpt lat="45.9277" lon="4.42981">
        <ele>646.4</ele>
        <time>2022-06-26T08:57:09Z</time>
      </trkpt>
      <trkpt lat="45.92773" lon="4.42976">
        <ele>646.4</ele>
        <time>2022-06-26T08:57:10Z</time>
      </trkpt>
      <trkpt lat="45.92777" lon="4.42972">
        <ele>646</ele>
        <time>2022-06-26T08:57:11Z</time>
      </trkpt>
      <trkpt lat="45.92781" lon="4.42968">
        <ele>646</ele>
        <time>2022-06-26T08:57:12Z</time>
      </trkpt>
      <trkpt lat="45.92785" lon="4.42964">
        <ele>645.8</ele>
        <time>2022-06-26T08:57:13Z</time>
      </trkpt>
      <trkpt lat="45.9279" lon="4.4296">
        <ele>645.8</ele>
        <time>2022-06-26T08:57:14Z</time>
      </trkpt>
      <trkpt lat="45.92794" lon="4.42956">
        <ele>645.6</ele>
        <time>2022-06-26T08:57:15Z</time>
      </trkpt>
      <trkpt lat="45.92799" lon="4.42951">
        <ele>645.6</ele>
        <time>2022-06-26T08:57:16Z</time>
      </trkpt>
      <trkpt lat="45.92804" lon="4.42946">
        <ele>645.2</ele>
        <time>2022-06-26T08:57:17Z</time>
      </trkpt>
      <trkpt lat="45.92809" lon="4.42941">
        <ele>645</ele>
        <time>2022-06-26T08:57:18Z</time>
      </trkpt>
      <trkpt lat="45.92814" lon="4.42936">
        <ele>644.6</ele>
        <time>2022-06-26T08:57:19Z</time>
      </trkpt>
      <trkpt lat="45.92819" lon="4.4293">
        <ele>644.2</ele>
        <time>2022-06-26T08:57:20Z</time>
      </trkpt>
      <trkpt lat="45.92824" lon="4.42924">
        <ele>644.2</ele>
        <time>2022-06-26T08:57:21Z</time>
      </trkpt>
      <trkpt lat="45.9283" lon="4.42918">
        <ele>644</ele>
        <time>2022-06-26T08:57:22Z</time>
      </trkpt>
      <trkpt lat="45.92835" lon="4.42913">
        <ele>644</ele>
        <time>2022-06-26T08:57:23Z</time>
      </trkpt>
      <trkpt lat="45.92841" lon="4.42907">
        <ele>643.4</ele>
        <time>2022-06-26T08:57:24Z</time>
      </trkpt>
      <trkpt lat="45.92846" lon="4.42902">
        <ele>643</ele>
        <time>2022-06-26T08:57:25Z</time>
      </trkpt>
      <trkpt lat="45.9285" lon="4.42897">
        <ele>642.4</ele>
        <time>2022-06-26T08:57:26Z</time>
      </trkpt>
      <trkpt lat="45.92855" lon="4.42893">
        <ele>642.2</ele>
        <time>2022-06-26T08:57:27Z</time>
      </trkpt>
      <trkpt lat="45.9286" lon="4.42888">
        <ele>641.8</ele>
        <time>2022-06-26T08:57:28Z</time>
      </trkpt>
      <trkpt lat="45.92864" lon="4.42884">
        <ele>641.6</ele>
        <time>2022-06-26T08:57:29Z</time>
      </trkpt>
      <trkpt lat="45.92869" lon="4.42879">
        <ele>641.6</ele>
        <time>2022-06-26T08:57:30Z</time>
      </trkpt>
      <trkpt lat="45.92874" lon="4.42875">
        <ele>641.2</ele>
        <time>2022-06-26T08:57:31Z</time>
      </trkpt>
      <trkpt lat="45.92879" lon="4.42871">
        <ele>640.8</ele>
        <time>2022-06-26T08:57:32Z</time>
      </trkpt>
      <trkpt lat="45.92884" lon="4.42867">
        <ele>640.4</ele>
        <time>2022-06-26T08:57:33Z</time>
      </trkpt>
      <trkpt lat="45.92889" lon="4.42864">
        <ele>640</ele>
        <time>2022-06-26T08:57:34Z</time>
      </trkpt>
      <trkpt lat="45.92893" lon="4.4286">
        <ele>639.8</ele>
        <time>2022-06-26T08:57:35Z</time>
      </trkpt>
      <trkpt lat="45.92897" lon="4.42855">
        <ele>639.6</ele>
        <time>2022-06-26T08:57:36Z</time>
      </trkpt>
      <trkpt lat="45.92901" lon="4.42848">
        <ele>639.4</ele>
        <time>2022-06-26T08:57:37Z</time>
      </trkpt>
      <trkpt lat="45.92905" lon="4.42841">
        <ele>639</ele>
        <time>2022-06-26T08:57:38Z</time>
      </trkpt>
      <trkpt lat="45.92909" lon="4.42835">
        <ele>639</ele>
        <time>2022-06-26T08:57:39Z</time>
      </trkpt>
      <trkpt lat="45.92912" lon="4.42829">
        <ele>638.6</ele>
        <time>2022-06-26T08:57:40Z</time>
      </trkpt>
      <trkpt lat="45.92916" lon="4.42823">
        <ele>638.4</ele>
        <time>2022-06-26T08:57:41Z</time>
      </trkpt>
      <trkpt lat="45.92919" lon="4.42818">
        <ele>638.2</ele>
        <time>2022-06-26T08:57:42Z</time>
      </trkpt>
      <trkpt lat="45.92923" lon="4.42812">
        <ele>637.8</ele>
        <time>2022-06-26T08:57:43Z</time>
      </trkpt>
      <trkpt lat="45.92926" lon="4.42806">
        <ele>637.8</ele>
        <time>2022-06-26T08:57:44Z</time>
      </trkpt>
      <trkpt lat="45.9293" lon="4.42801">
        <ele>637.4</ele>
        <time>2022-06-26T08:57:45Z</time>
      </trkpt>
      <trkpt lat="45.92935" lon="4.42796">
        <ele>637.4</ele>
        <time>2022-06-26T08:57:46Z</time>
      </trkpt>
      <trkpt lat="45.9294" lon="4.42791">
        <ele>637.2</ele>
        <time>2022-06-26T08:57:47Z</time>
      </trkpt>
      <trkpt lat="45.92945" lon="4.42786">
        <ele>637</ele>
        <time>2022-06-26T08:57:48Z</time>
      </trkpt>
      <trkpt lat="45.92949" lon="4.42781">
        <ele>637</ele>
        <time>2022-06-26T08:57:49Z</time>
      </trkpt>
      <trkpt lat="45.92954" lon="4.42777">
        <ele>637</ele>
        <time>2022-06-26T08:57:50Z</time>
      </trkpt>
      <trkpt lat="45.92959" lon="4.42773">
        <ele>636.8</ele>
        <time>2022-06-26T08:57:51Z</time>
      </trkpt>
      <trkpt lat="45.92963" lon="4.42769">
        <ele>636.6</ele>
        <time>2022-06-26T08:57:52Z</time>
      </trkpt>
      <trkpt lat="45.9297" lon="4.42762">
        <ele>636.6</ele>
        <time>2022-06-26T08:57:53Z</time>
      </trkpt>
      <trkpt lat="45.92972" lon="4.4276">
        <ele>636.2</ele>
        <time>2022-06-26T08:57:54Z</time>
      </trkpt>
      <trkpt lat="45.92977" lon="4.42756">
        <ele>636</ele>
        <time>2022-06-26T08:57:55Z</time>
      </trkpt>
      <trkpt lat="45.92982" lon="4.42753">
        <ele>635.8</ele>
        <time>2022-06-26T08:57:56Z</time>
      </trkpt>
      <trkpt lat="45.92988" lon="4.42748">
        <ele>635.6</ele>
        <time>2022-06-26T08:57:57Z</time>
      </trkpt>
      <trkpt lat="45.9299" lon="4.42746">
        <ele>635.6</ele>
        <time>2022-06-26T08:57:58Z</time>
      </trkpt>
      <trkpt lat="45.92994" lon="4.42743">
        <ele>635.2</ele>
        <time>2022-06-26T08:57:59Z</time>
      </trkpt>
      <trkpt lat="45.92998" lon="4.42741">
        <ele>635.2</ele>
        <time>2022-06-26T08:58:00Z</time>
      </trkpt>
      <trkpt lat="45.93002" lon="4.42738">
        <ele>634.8</ele>
        <time>2022-06-26T08:58:01Z</time>
      </trkpt>
      <trkpt lat="45.93005" lon="4.42736">
        <ele>634.8</ele>
        <time>2022-06-26T08:58:02Z</time>
      </trkpt>
      <trkpt lat="45.93009" lon="4.42734">
        <ele>634.6</ele>
        <time>2022-06-26T08:58:03Z</time>
      </trkpt>
      <trkpt lat="45.93013" lon="4.42731">
        <ele>634.6</ele>
        <time>2022-06-26T08:58:04Z</time>
      </trkpt>
      <trkpt lat="45.93016" lon="4.42728">
        <ele>634.2</ele>
        <time>2022-06-26T08:58:05Z</time>
      </trkpt>
      <trkpt lat="45.93018" lon="4.42725">
        <ele>634</ele>
        <time>2022-06-26T08:58:06Z</time>
      </trkpt>
      <trkpt lat="45.93022" lon="4.42722">
        <ele>634</ele>
        <time>2022-06-26T08:58:07Z</time>
      </trkpt>
      <trkpt lat="45.93025" lon="4.42717">
        <ele>633.4</ele>
        <time>2022-06-26T08:58:08Z</time>
      </trkpt>
      <trkpt lat="45.93029" lon="4.42713">
        <ele>633.2</ele>
        <time>2022-06-26T08:58:09Z</time>
      </trkpt>
      <trkpt lat="45.93032" lon="4.42708">
        <ele>632.8</ele>
        <time>2022-06-26T08:58:10Z</time>
      </trkpt>
      <trkpt lat="45.93035" lon="4.42703">
        <ele>632.6</ele>
        <time>2022-06-26T08:58:11Z</time>
      </trkpt>
      <trkpt lat="45.93037" lon="4.42697">
        <ele>632.2</ele>
        <time>2022-06-26T08:58:12Z</time>
      </trkpt>
      <trkpt lat="45.93038" lon="4.42691">
        <ele>632</ele>
        <time>2022-06-26T08:58:13Z</time>
      </trkpt>
      <trkpt lat="45.9304" lon="4.42686">
        <ele>631.6</ele>
        <time>2022-06-26T08:58:14Z</time>
      </trkpt>
      <trkpt lat="45.93041" lon="4.42681">
        <ele>631.2</ele>
        <time>2022-06-26T08:58:15Z</time>
      </trkpt>
      <trkpt lat="45.93042" lon="4.42677">
        <ele>631</ele>
        <time>2022-06-26T08:58:16Z</time>
      </trkpt>
      <trkpt lat="45.93043" lon="4.42673">
        <ele>630.6</ele>
        <time>2022-06-26T08:58:17Z</time>
      </trkpt>
      <trkpt lat="45.93044" lon="4.42669">
        <ele>630.4</ele>
        <time>2022-06-26T08:58:18Z</time>
      </trkpt>
      <trkpt lat="45.93045" lon="4.42665">
        <ele>630.2</ele>
        <time>2022-06-26T08:58:19Z</time>
      </trkpt>
      <trkpt lat="45.93044" lon="4.42656">
        <ele>630.2</ele>
        <time>2022-06-26T08:58:20Z</time>
      </trkpt>
      <trkpt lat="45.93047" lon="4.4265">
        <ele>630</ele>
        <time>2022-06-26T08:58:21Z</time>
      </trkpt>
      <trkpt lat="45.93049" lon="4.42644">
        <ele>630</ele>
        <time>2022-06-26T08:58:22Z</time>
      </trkpt>
      <trkpt lat="45.9305" lon="4.42639">
        <ele>630</ele>
        <time>2022-06-26T08:58:23Z</time>
      </trkpt>
      <trkpt lat="45.93051" lon="4.42632">
        <ele>629.8</ele>
        <time>2022-06-26T08:58:24Z</time>
      </trkpt>
      <trkpt lat="45.93053" lon="4.42627">
        <ele>629.8</ele>
        <time>2022-06-26T08:58:25Z</time>
      </trkpt>
      <trkpt lat="45.93054" lon="4.42621">
        <ele>629.8</ele>
        <time>2022-06-26T08:58:26Z</time>
      </trkpt>
      <trkpt lat="45.93055" lon="4.42616">
        <ele>629.8</ele>
        <time>2022-06-26T08:58:27Z</time>
      </trkpt>
      <trkpt lat="45.93057" lon="4.42612">
        <ele>630</ele>
        <time>2022-06-26T08:58:28Z</time>
      </trkpt>
      <trkpt lat="45.93059" lon="4.42608">
        <ele>630</ele>
        <time>2022-06-26T08:58:29Z</time>
      </trkpt>
      <trkpt lat="45.9306" lon="4.42604">
        <ele>630.2</ele>
        <time>2022-06-26T08:58:30Z</time>
      </trkpt>
      <trkpt lat="45.93062" lon="4.42601">
        <ele>630.2</ele>
        <time>2022-06-26T08:58:31Z</time>
      </trkpt>
      <trkpt lat="45.93064" lon="4.42597">
        <ele>630.2</ele>
        <time>2022-06-26T08:58:32Z</time>
      </trkpt>
      <trkpt lat="45.93066" lon="4.42594">
        <ele>630.4</ele>
        <time>2022-06-26T08:58:33Z</time>
      </trkpt>
      <trkpt lat="45.93067" lon="4.4259">
        <ele>630.4</ele>
        <time>2022-06-26T08:58:34Z</time>
      </trkpt>
      <trkpt lat="45.93069" lon="4.42586">
        <ele>630.6</ele>
        <time>2022-06-26T08:58:35Z</time>
      </trkpt>
      <trkpt lat="45.93071" lon="4.42582">
        <ele>631</ele>
        <time>2022-06-26T08:58:36Z</time>
      </trkpt>
      <trkpt lat="45.93073" lon="4.42576">
        <ele>631</ele>
        <time>2022-06-26T08:58:37Z</time>
      </trkpt>
      <trkpt lat="45.93073" lon="4.42574">
        <ele>631.2</ele>
        <time>2022-06-26T08:58:38Z</time>
      </trkpt>
      <trkpt lat="45.93075" lon="4.4257">
        <ele>631.2</ele>
        <time>2022-06-26T08:58:39Z</time>
      </trkpt>
      <trkpt lat="45.93076" lon="4.42566">
        <ele>631.6</ele>
        <time>2022-06-26T08:58:40Z</time>
      </trkpt>
      <trkpt lat="45.93077" lon="4.42562">
        <ele>631.6</ele>
        <time>2022-06-26T08:58:41Z</time>
      </trkpt>
      <trkpt lat="45.93078" lon="4.42558">
        <ele>632</ele>
        <time>2022-06-26T08:58:42Z</time>
      </trkpt>
      <trkpt lat="45.93079" lon="4.42555">
        <ele>632</ele>
        <time>2022-06-26T08:58:43Z</time>
      </trkpt>
      <trkpt lat="45.9308" lon="4.42551">
        <ele>632.2</ele>
        <time>2022-06-26T08:58:44Z</time>
      </trkpt>
      <trkpt lat="45.93082" lon="4.42548">
        <ele>632.2</ele>
        <time>2022-06-26T08:58:45Z</time>
      </trkpt>
      <trkpt lat="45.93083" lon="4.42544">
        <ele>632.2</ele>
        <time>2022-06-26T08:58:46Z</time>
      </trkpt>
      <trkpt lat="45.93085" lon="4.4254">
        <ele>632.6</ele>
        <time>2022-06-26T08:58:47Z</time>
      </trkpt>
      <trkpt lat="45.93086" lon="4.42536">
        <ele>632.2</ele>
        <time>2022-06-26T08:58:48Z</time>
      </trkpt>
      <trkpt lat="45.93087" lon="4.42532">
        <ele>632.6</ele>
        <time>2022-06-26T08:58:49Z</time>
      </trkpt>
      <trkpt lat="45.93089" lon="4.42528">
        <ele>632.8</ele>
        <time>2022-06-26T08:58:50Z</time>
      </trkpt>
      <trkpt lat="45.9309" lon="4.42524">
        <ele>632.8</ele>
        <time>2022-06-26T08:58:51Z</time>
      </trkpt>
      <trkpt lat="45.93091" lon="4.4252">
        <ele>633</ele>
        <time>2022-06-26T08:58:52Z</time>
      </trkpt>
      <trkpt lat="45.93093" lon="4.42516">
        <ele>633</ele>
        <time>2022-06-26T08:58:53Z</time>
      </trkpt>
      <trkpt lat="45.93094" lon="4.42512">
        <ele>633.4</ele>
        <time>2022-06-26T08:58:54Z</time>
      </trkpt>
      <trkpt lat="45.93096" lon="4.42508">
        <ele>633.6</ele>
        <time>2022-06-26T08:58:55Z</time>
      </trkpt>
      <trkpt lat="45.93098" lon="4.42504">
        <ele>633.6</ele>
        <time>2022-06-26T08:58:56Z</time>
      </trkpt>
      <trkpt lat="45.93099" lon="4.425">
        <ele>634</ele>
        <time>2022-06-26T08:58:57Z</time>
      </trkpt>
      <trkpt lat="45.931" lon="4.42496">
        <ele>634</ele>
        <time>2022-06-26T08:58:58Z</time>
      </trkpt>
      <trkpt lat="45.93103" lon="4.4249">
        <ele>634.2</ele>
        <time>2022-06-26T08:58:59Z</time>
      </trkpt>
      <trkpt lat="45.93104" lon="4.42488">
        <ele>634.2</ele>
        <time>2022-06-26T08:59:00Z</time>
      </trkpt>
      <trkpt lat="45.93106" lon="4.42485">
        <ele>634.2</ele>
        <time>2022-06-26T08:59:01Z</time>
      </trkpt>
      <trkpt lat="45.93108" lon="4.42481">
        <ele>634.4</ele>
        <time>2022-06-26T08:59:02Z</time>
      </trkpt>
      <trkpt lat="45.9311" lon="4.42478">
        <ele>634.4</ele>
        <time>2022-06-26T08:59:03Z</time>
      </trkpt>
      <trkpt lat="45.93113" lon="4.42474">
        <ele>634.4</ele>
        <time>2022-06-26T08:59:04Z</time>
      </trkpt>
      <trkpt lat="45.93115" lon="4.42471">
        <ele>634.8</ele>
        <time>2022-06-26T08:59:05Z</time>
      </trkpt>
      <trkpt lat="45.93118" lon="4.42469">
        <ele>634.8</ele>
        <time>2022-06-26T08:59:06Z</time>
      </trkpt>
      <trkpt lat="45.93121" lon="4.42466">
        <ele>635</ele>
        <time>2022-06-26T08:59:07Z</time>
      </trkpt>
      <trkpt lat="45.93124" lon="4.42464">
        <ele>635</ele>
        <time>2022-06-26T08:59:08Z</time>
      </trkpt>
      <trkpt lat="45.93127" lon="4.42463">
        <ele>635.2</ele>
        <time>2022-06-26T08:59:09Z</time>
      </trkpt>
      <trkpt lat="45.9313" lon="4.42461">
        <ele>635.2</ele>
        <time>2022-06-26T08:59:10Z</time>
      </trkpt>
      <trkpt lat="45.93133" lon="4.4246">
        <ele>635.6</ele>
        <time>2022-06-26T08:59:11Z</time>
      </trkpt>
      <trkpt lat="45.93136" lon="4.42459">
        <ele>635.8</ele>
        <time>2022-06-26T08:59:12Z</time>
      </trkpt>
      <trkpt lat="45.93138" lon="4.42458">
        <ele>635.8</ele>
        <time>2022-06-26T08:59:13Z</time>
      </trkpt>
      <trkpt lat="45.93141" lon="4.42458">
        <ele>636</ele>
        <time>2022-06-26T08:59:14Z</time>
      </trkpt>
      <trkpt lat="45.93144" lon="4.42457">
        <ele>636</ele>
        <time>2022-06-26T08:59:15Z</time>
      </trkpt>
      <trkpt lat="45.93147" lon="4.42456">
        <ele>636.4</ele>
        <time>2022-06-26T08:59:16Z</time>
      </trkpt>
      <trkpt lat="45.9315" lon="4.42455">
        <ele>636.4</ele>
        <time>2022-06-26T08:59:17Z</time>
      </trkpt>
      <trkpt lat="45.93153" lon="4.42454">
        <ele>636.6</ele>
        <time>2022-06-26T08:59:18Z</time>
      </trkpt>
      <trkpt lat="45.93155" lon="4.42452">
        <ele>636.6</ele>
        <time>2022-06-26T08:59:19Z</time>
      </trkpt>
      <trkpt lat="45.93158" lon="4.4245">
        <ele>637</ele>
        <time>2022-06-26T08:59:20Z</time>
      </trkpt>
      <trkpt lat="45.93161" lon="4.42448">
        <ele>637</ele>
        <time>2022-06-26T08:59:21Z</time>
      </trkpt>
      <trkpt lat="45.93163" lon="4.42446">
        <ele>637.4</ele>
        <time>2022-06-26T08:59:22Z</time>
      </trkpt>
      <trkpt lat="45.93165" lon="4.42444">
        <ele>637.6</ele>
        <time>2022-06-26T08:59:23Z</time>
      </trkpt>
      <trkpt lat="45.93168" lon="4.42442">
        <ele>637.6</ele>
        <time>2022-06-26T08:59:24Z</time>
      </trkpt>
      <trkpt lat="45.9317" lon="4.42439">
        <ele>637.8</ele>
        <time>2022-06-26T08:59:25Z</time>
      </trkpt>
      <trkpt lat="45.93173" lon="4.42435">
        <ele>637.8</ele>
        <time>2022-06-26T08:59:26Z</time>
      </trkpt>
      <trkpt lat="45.93174" lon="4.42433">
        <ele>638</ele>
        <time>2022-06-26T08:59:27Z</time>
      </trkpt>
      <trkpt lat="45.93175" lon="4.42431">
        <ele>638</ele>
        <time>2022-06-26T08:59:28Z</time>
      </trkpt>
      <trkpt lat="45.93177" lon="4.42428">
        <ele>638.4</ele>
        <time>2022-06-26T08:59:29Z</time>
      </trkpt>
      <trkpt lat="45.93178" lon="4.42425">
        <ele>638.4</ele>
        <time>2022-06-26T08:59:30Z</time>
      </trkpt>
      <trkpt lat="45.9318" lon="4.42422">
        <ele>638.8</ele>
        <time>2022-06-26T08:59:31Z</time>
      </trkpt>
      <trkpt lat="45.93182" lon="4.42419">
        <ele>638.8</ele>
        <time>2022-06-26T08:59:32Z</time>
      </trkpt>
      <trkpt lat="45.93184" lon="4.42417">
        <ele>639.2</ele>
        <time>2022-06-26T08:59:33Z</time>
      </trkpt>
      <trkpt lat="45.93186" lon="4.42413">
        <ele>639.2</ele>
        <time>2022-06-26T08:59:34Z</time>
      </trkpt>
      <trkpt lat="45.93188" lon="4.4241">
        <ele>639.4</ele>
        <time>2022-06-26T08:59:35Z</time>
      </trkpt>
      <trkpt lat="45.9319" lon="4.42407">
        <ele>639.4</ele>
        <time>2022-06-26T08:59:36Z</time>
      </trkpt>
      <trkpt lat="45.93192" lon="4.42403">
        <ele>639.4</ele>
        <time>2022-06-26T08:59:37Z</time>
      </trkpt>
      <trkpt lat="45.93194" lon="4.424">
        <ele>639.4</ele>
        <time>2022-06-26T08:59:38Z</time>
      </trkpt>
      <trkpt lat="45.93197" lon="4.42396">
        <ele>639.6</ele>
        <time>2022-06-26T08:59:39Z</time>
      </trkpt>
      <trkpt lat="45.93199" lon="4.42393">
        <ele>639.8</ele>
        <time>2022-06-26T08:59:40Z</time>
      </trkpt>
      <trkpt lat="45.93201" lon="4.42389">
        <ele>640.2</ele>
        <time>2022-06-26T08:59:41Z</time>
      </trkpt>
      <trkpt lat="45.93204" lon="4.42385">
        <ele>640.4</ele>
        <time>2022-06-26T08:59:42Z</time>
      </trkpt>
      <trkpt lat="45.93206" lon="4.4238">
        <ele>640.4</ele>
        <time>2022-06-26T08:59:43Z</time>
      </trkpt>
      <trkpt lat="45.93208" lon="4.42376">
        <ele>640.6</ele>
        <time>2022-06-26T08:59:44Z</time>
      </trkpt>
      <trkpt lat="45.9321" lon="4.42372">
        <ele>640.6</ele>
        <time>2022-06-26T08:59:45Z</time>
      </trkpt>
      <trkpt lat="45.93212" lon="4.42368">
        <ele>641</ele>
        <time>2022-06-26T08:59:46Z</time>
      </trkpt>
      <trkpt lat="45.93214" lon="4.42364">
        <ele>641</ele>
        <time>2022-06-26T08:59:47Z</time>
      </trkpt>
      <trkpt lat="45.93215" lon="4.4236">
        <ele>641</ele>
        <time>2022-06-26T08:59:48Z</time>
      </trkpt>
      <trkpt lat="45.93217" lon="4.42356">
        <ele>641.4</ele>
        <time>2022-06-26T08:59:49Z</time>
      </trkpt>
      <trkpt lat="45.93219" lon="4.42352">
        <ele>641.4</ele>
        <time>2022-06-26T08:59:50Z</time>
      </trkpt>
      <trkpt lat="45.9322" lon="4.42347">
        <ele>641.6</ele>
        <time>2022-06-26T08:59:51Z</time>
      </trkpt>
      <trkpt lat="45.93222" lon="4.42343">
        <ele>641.6</ele>
        <time>2022-06-26T08:59:52Z</time>
      </trkpt>
      <trkpt lat="45.93223" lon="4.42339">
        <ele>642</ele>
        <time>2022-06-26T08:59:53Z</time>
      </trkpt>
      <trkpt lat="45.93224" lon="4.42335">
        <ele>642</ele>
        <time>2022-06-26T08:59:54Z</time>
      </trkpt>
      <trkpt lat="45.93226" lon="4.42331">
        <ele>642.2</ele>
        <time>2022-06-26T08:59:55Z</time>
      </trkpt>
      <trkpt lat="45.93227" lon="4.42327">
        <ele>642.2</ele>
        <time>2022-06-26T08:59:56Z</time>
      </trkpt>
      <trkpt lat="45.93229" lon="4.42324">
        <ele>642.6</ele>
        <time>2022-06-26T08:59:57Z</time>
      </trkpt>
      <trkpt lat="45.93231" lon="4.42319">
        <ele>642.6</ele>
        <time>2022-06-26T08:59:58Z</time>
      </trkpt>
      <trkpt lat="45.93232" lon="4.42316">
        <ele>642.8</ele>
        <time>2022-06-26T08:59:59Z</time>
      </trkpt>
      <trkpt lat="45.93234" lon="4.42312">
        <ele>642.8</ele>
        <time>2022-06-26T09:00:00Z</time>
      </trkpt>
      <trkpt lat="45.93235" lon="4.42309">
        <ele>643</ele>
        <time>2022-06-26T09:00:01Z</time>
      </trkpt>
      <trkpt lat="45.93237" lon="4.42305">
        <ele>643</ele>
        <time>2022-06-26T09:00:02Z</time>
      </trkpt>
      <trkpt lat="45.93238" lon="4.42301">
        <ele>643.4</ele>
        <time>2022-06-26T09:00:03Z</time>
      </trkpt>
      <trkpt lat="45.9324" lon="4.42297">
        <ele>643.4</ele>
        <time>2022-06-26T09:00:04Z</time>
      </trkpt>
      <trkpt lat="45.93241" lon="4.42293">
        <ele>643.6</ele>
        <time>2022-06-26T09:00:05Z</time>
      </trkpt>
      <trkpt lat="45.93242" lon="4.42289">
        <ele>643.6</ele>
        <time>2022-06-26T09:00:06Z</time>
      </trkpt>
      <trkpt lat="45.93244" lon="4.42286">
        <ele>644</ele>
        <time>2022-06-26T09:00:07Z</time>
      </trkpt>
      <trkpt lat="45.93246" lon="4.42282">
        <ele>644</ele>
        <time>2022-06-26T09:00:08Z</time>
      </trkpt>
      <trkpt lat="45.93247" lon="4.42277">
        <ele>644.2</ele>
        <time>2022-06-26T09:00:09Z</time>
      </trkpt>
      <trkpt lat="45.93249" lon="4.42273">
        <ele>644.4</ele>
        <time>2022-06-26T09:00:10Z</time>
      </trkpt>
      <trkpt lat="45.93251" lon="4.4227">
        <ele>644.4</ele>
        <time>2022-06-26T09:00:11Z</time>
      </trkpt>
      <trkpt lat="45.93252" lon="4.42265">
        <ele>644.6</ele>
        <time>2022-06-26T09:00:12Z</time>
      </trkpt>
      <trkpt lat="45.93254" lon="4.42261">
        <ele>644.6</ele>
        <time>2022-06-26T09:00:13Z</time>
      </trkpt>
      <trkpt lat="45.93256" lon="4.42257">
        <ele>645</ele>
        <time>2022-06-26T09:00:14Z</time>
      </trkpt>
      <trkpt lat="45.93258" lon="4.42252">
        <ele>645</ele>
        <time>2022-06-26T09:00:15Z</time>
      </trkpt>
      <trkpt lat="45.93259" lon="4.42248">
        <ele>645.2</ele>
        <time>2022-06-26T09:00:16Z</time>
      </trkpt>
      <trkpt lat="45.93261" lon="4.42244">
        <ele>645.2</ele>
        <time>2022-06-26T09:00:17Z</time>
      </trkpt>
      <trkpt lat="45.93263" lon="4.4224">
        <ele>645.4</ele>
        <time>2022-06-26T09:00:18Z</time>
      </trkpt>
      <trkpt lat="45.93266" lon="4.42236">
        <ele>645.4</ele>
        <time>2022-06-26T09:00:19Z</time>
      </trkpt>
      <trkpt lat="45.93267" lon="4.42231">
        <ele>645.8</ele>
        <time>2022-06-26T09:00:20Z</time>
      </trkpt>
      <trkpt lat="45.93268" lon="4.42225">
        <ele>645.8</ele>
        <time>2022-06-26T09:00:21Z</time>
      </trkpt>
      <trkpt lat="45.9327" lon="4.42221">
        <ele>646</ele>
        <time>2022-06-26T09:00:22Z</time>
      </trkpt>
      <trkpt lat="45.93271" lon="4.42216">
        <ele>646</ele>
        <time>2022-06-26T09:00:23Z</time>
      </trkpt>
      <trkpt lat="45.93272" lon="4.42212">
        <ele>646.2</ele>
        <time>2022-06-26T09:00:24Z</time>
      </trkpt>
      <trkpt lat="45.93272" lon="4.42208">
        <ele>646.2</ele>
        <time>2022-06-26T09:00:25Z</time>
      </trkpt>
      <trkpt lat="45.93273" lon="4.42203">
        <ele>646.6</ele>
        <time>2022-06-26T09:00:26Z</time>
      </trkpt>
      <trkpt lat="45.93273" lon="4.42199">
        <ele>646.6</ele>
        <time>2022-06-26T09:00:27Z</time>
      </trkpt>
      <trkpt lat="45.93274" lon="4.42195">
        <ele>647</ele>
        <time>2022-06-26T09:00:28Z</time>
      </trkpt>
      <trkpt lat="45.93274" lon="4.4219">
        <ele>647</ele>
        <time>2022-06-26T09:00:29Z</time>
      </trkpt>
      <trkpt lat="45.93274" lon="4.42186">
        <ele>647.2</ele>
        <time>2022-06-26T09:00:30Z</time>
      </trkpt>
      <trkpt lat="45.93274" lon="4.42182">
        <ele>647.2</ele>
        <time>2022-06-26T09:00:31Z</time>
      </trkpt>
      <trkpt lat="45.93275" lon="4.42178">
        <ele>647.4</ele>
        <time>2022-06-26T09:00:32Z</time>
      </trkpt>
      <trkpt lat="45.93275" lon="4.42173">
        <ele>647.4</ele>
        <time>2022-06-26T09:00:33Z</time>
      </trkpt>
      <trkpt lat="45.93275" lon="4.4217">
        <ele>647.8</ele>
        <time>2022-06-26T09:00:34Z</time>
      </trkpt>
      <trkpt lat="45.93275" lon="4.42166">
        <ele>647.8</ele>
        <time>2022-06-26T09:00:35Z</time>
      </trkpt>
      <trkpt lat="45.93275" lon="4.42162">
        <ele>648</ele>
        <time>2022-06-26T09:00:36Z</time>
      </trkpt>
      <trkpt lat="45.93275" lon="4.42158">
        <ele>648</ele>
        <time>2022-06-26T09:00:37Z</time>
      </trkpt>
      <trkpt lat="45.93275" lon="4.42155">
        <ele>648</ele>
        <time>2022-06-26T09:00:38Z</time>
      </trkpt>
      <trkpt lat="45.93275" lon="4.42151">
        <ele>648.4</ele>
        <time>2022-06-26T09:00:39Z</time>
      </trkpt>
      <trkpt lat="45.93275" lon="4.42147">
        <ele>648.4</ele>
        <time>2022-06-26T09:00:40Z</time>
      </trkpt>
      <trkpt lat="45.93275" lon="4.42143">
        <ele>648.6</ele>
        <time>2022-06-26T09:00:41Z</time>
      </trkpt>
      <trkpt lat="45.93275" lon="4.42138">
        <ele>648.6</ele>
        <time>2022-06-26T09:00:42Z</time>
      </trkpt>
      <trkpt lat="45.93276" lon="4.42133">
        <ele>649</ele>
        <time>2022-06-26T09:00:43Z</time>
      </trkpt>
      <trkpt lat="45.93277" lon="4.42128">
        <ele>649</ele>
        <time>2022-06-26T09:00:44Z</time>
      </trkpt>
      <trkpt lat="45.93278" lon="4.42124">
        <ele>649</ele>
        <time>2022-06-26T09:00:45Z</time>
      </trkpt>
      <trkpt lat="45.93279" lon="4.4212">
        <ele>649.2</ele>
        <time>2022-06-26T09:00:46Z</time>
      </trkpt>
      <trkpt lat="45.93281" lon="4.42116">
        <ele>649.2</ele>
        <time>2022-06-26T09:00:47Z</time>
      </trkpt>
      <trkpt lat="45.93283" lon="4.42113">
        <ele>649.6</ele>
        <time>2022-06-26T09:00:48Z</time>
      </trkpt>
      <trkpt lat="45.93286" lon="4.42111">
        <ele>649.8</ele>
        <time>2022-06-26T09:00:49Z</time>
      </trkpt>
      <trkpt lat="45.93289" lon="4.42108">
        <ele>649.8</ele>
        <time>2022-06-26T09:00:50Z</time>
      </trkpt>
      <trkpt lat="45.93291" lon="4.42105">
        <ele>650.2</ele>
        <time>2022-06-26T09:00:51Z</time>
      </trkpt>
      <trkpt lat="45.93294" lon="4.42103">
        <ele>650.4</ele>
        <time>2022-06-26T09:00:52Z</time>
      </trkpt>
      <trkpt lat="45.93297" lon="4.42102">
        <ele>650.4</ele>
        <time>2022-06-26T09:00:53Z</time>
      </trkpt>
      <trkpt lat="45.933" lon="4.42102">
        <ele>650.6</ele>
        <time>2022-06-26T09:00:54Z</time>
      </trkpt>
      <trkpt lat="45.93302" lon="4.42101">
        <ele>650.6</ele>
        <time>2022-06-26T09:00:55Z</time>
      </trkpt>
      <trkpt lat="45.93305" lon="4.42101">
        <ele>651</ele>
        <time>2022-06-26T09:00:56Z</time>
      </trkpt>
      <trkpt lat="45.93308" lon="4.421">
        <ele>651</ele>
        <time>2022-06-26T09:00:57Z</time>
      </trkpt>
      <trkpt lat="45.9331" lon="4.42099">
        <ele>651.4</ele>
        <time>2022-06-26T09:00:58Z</time>
      </trkpt>
      <trkpt lat="45.93312" lon="4.42098">
        <ele>651.4</ele>
        <time>2022-06-26T09:00:59Z</time>
      </trkpt>
      <trkpt lat="45.93314" lon="4.42097">
        <ele>651.6</ele>
        <time>2022-06-26T09:01:00Z</time>
      </trkpt>
      <trkpt lat="45.93316" lon="4.42096">
        <ele>651.6</ele>
        <time>2022-06-26T09:01:01Z</time>
      </trkpt>
      <trkpt lat="45.93319" lon="4.42095">
        <ele>651.8</ele>
        <time>2022-06-26T09:01:02Z</time>
      </trkpt>
      <trkpt lat="45.93322" lon="4.42093">
        <ele>651.8</ele>
        <time>2022-06-26T09:01:03Z</time>
      </trkpt>
      <trkpt lat="45.93325" lon="4.42092">
        <ele>652</ele>
        <time>2022-06-26T09:01:04Z</time>
      </trkpt>
      <trkpt lat="45.93328" lon="4.4209">
        <ele>652</ele>
        <time>2022-06-26T09:01:05Z</time>
      </trkpt>
      <trkpt lat="45.93331" lon="4.42089">
        <ele>652.4</ele>
        <time>2022-06-26T09:01:06Z</time>
      </trkpt>
      <trkpt lat="45.93334" lon="4.42088">
        <ele>652.4</ele>
        <time>2022-06-26T09:01:07Z</time>
      </trkpt>
      <trkpt lat="45.93337" lon="4.42086">
        <ele>652.6</ele>
        <time>2022-06-26T09:01:08Z</time>
      </trkpt>
      <trkpt lat="45.9334" lon="4.42085">
        <ele>652.6</ele>
        <time>2022-06-26T09:01:09Z</time>
      </trkpt>
      <trkpt lat="45.93343" lon="4.42084">
        <ele>653</ele>
        <time>2022-06-26T09:01:10Z</time>
      </trkpt>
      <trkpt lat="45.93345" lon="4.42082">
        <ele>653</ele>
        <time>2022-06-26T09:01:11Z</time>
      </trkpt>
      <trkpt lat="45.93347" lon="4.42081">
        <ele>653.4</ele>
        <time>2022-06-26T09:01:12Z</time>
      </trkpt>
      <trkpt lat="45.9335" lon="4.42079">
        <ele>653.4</ele>
        <time>2022-06-26T09:01:13Z</time>
      </trkpt>
      <trkpt lat="45.93353" lon="4.42077">
        <ele>653.6</ele>
        <time>2022-06-26T09:01:14Z</time>
      </trkpt>
      <trkpt lat="45.93356" lon="4.42075">
        <ele>653.6</ele>
        <time>2022-06-26T09:01:15Z</time>
      </trkpt>
      <trkpt lat="45.93359" lon="4.42073">
        <ele>653.6</ele>
        <time>2022-06-26T09:01:16Z</time>
      </trkpt>
      <trkpt lat="45.93362" lon="4.42071">
        <ele>654</ele>
        <time>2022-06-26T09:01:17Z</time>
      </trkpt>
      <trkpt lat="45.93365" lon="4.42068">
        <ele>654</ele>
        <time>2022-06-26T09:01:18Z</time>
      </trkpt>
      <trkpt lat="45.93368" lon="4.42066">
        <ele>654</ele>
        <time>2022-06-26T09:01:19Z</time>
      </trkpt>
      <trkpt lat="45.9337" lon="4.42063">
        <ele>654.4</ele>
        <time>2022-06-26T09:01:20Z</time>
      </trkpt>
      <trkpt lat="45.93372" lon="4.4206">
        <ele>654.4</ele>
        <time>2022-06-26T09:01:21Z</time>
      </trkpt>
      <trkpt lat="45.93375" lon="4.42057">
        <ele>654.6</ele>
        <time>2022-06-26T09:01:22Z</time>
      </trkpt>
      <trkpt lat="45.93377" lon="4.42055">
        <ele>654.6</ele>
        <time>2022-06-26T09:01:23Z</time>
      </trkpt>
      <trkpt lat="45.9338" lon="4.42052">
        <ele>654.8</ele>
        <time>2022-06-26T09:01:24Z</time>
      </trkpt>
      <trkpt lat="45.93385" lon="4.42047">
        <ele>654.8</ele>
        <time>2022-06-26T09:01:25Z</time>
      </trkpt>
      <trkpt lat="45.93388" lon="4.42044">
        <ele>655</ele>
        <time>2022-06-26T09:01:26Z</time>
      </trkpt>
      <trkpt lat="45.9339" lon="4.42041">
        <ele>655</ele>
        <time>2022-06-26T09:01:27Z</time>
      </trkpt>
      <trkpt lat="45.93393" lon="4.42038">
        <ele>655.4</ele>
        <time>2022-06-26T09:01:28Z</time>
      </trkpt>
      <trkpt lat="45.93396" lon="4.42036">
        <ele>655.4</ele>
        <time>2022-06-26T09:01:29Z</time>
      </trkpt>
      <trkpt lat="45.93399" lon="4.42033">
        <ele>655.4</ele>
        <time>2022-06-26T09:01:30Z</time>
      </trkpt>
      <trkpt lat="45.93402" lon="4.4203">
        <ele>655.6</ele>
        <time>2022-06-26T09:01:31Z</time>
      </trkpt>
      <trkpt lat="45.93404" lon="4.42028">
        <ele>655.6</ele>
        <time>2022-06-26T09:01:32Z</time>
      </trkpt>
      <trkpt lat="45.93407" lon="4.42025">
        <ele>656</ele>
        <time>2022-06-26T09:01:33Z</time>
      </trkpt>
      <trkpt lat="45.9341" lon="4.42023">
        <ele>656</ele>
        <time>2022-06-26T09:01:34Z</time>
      </trkpt>
      <trkpt lat="45.93413" lon="4.42021">
        <ele>656</ele>
        <time>2022-06-26T09:01:35Z</time>
      </trkpt>
      <trkpt lat="45.93416" lon="4.42019">
        <ele>656.2</ele>
        <time>2022-06-26T09:01:36Z</time>
      </trkpt>
      <trkpt lat="45.9342" lon="4.42016">
        <ele>656.2</ele>
        <time>2022-06-26T09:01:37Z</time>
      </trkpt>
      <trkpt lat="45.93423" lon="4.42014">
        <ele>656.2</ele>
        <time>2022-06-26T09:01:38Z</time>
      </trkpt>
      <trkpt lat="45.93426" lon="4.42013">
        <ele>656.4</ele>
        <time>2022-06-26T09:01:39Z</time>
      </trkpt>
      <trkpt lat="45.9343" lon="4.42012">
        <ele>656.6</ele>
        <time>2022-06-26T09:01:40Z</time>
      </trkpt>
      <trkpt lat="45.93433" lon="4.42011">
        <ele>656.6</ele>
        <time>2022-06-26T09:01:41Z</time>
      </trkpt>
      <trkpt lat="45.93437" lon="4.42012">
        <ele>656.8</ele>
        <time>2022-06-26T09:01:42Z</time>
      </trkpt>
      <trkpt lat="45.9344" lon="4.42012">
        <ele>656.8</ele>
        <time>2022-06-26T09:01:43Z</time>
      </trkpt>
      <trkpt lat="45.93443" lon="4.42013">
        <ele>656.8</ele>
        <time>2022-06-26T09:01:44Z</time>
      </trkpt>
      <trkpt lat="45.93447" lon="4.42014">
        <ele>657</ele>
        <time>2022-06-26T09:01:45Z</time>
      </trkpt>
      <trkpt lat="45.9345" lon="4.42015">
        <ele>657</ele>
        <time>2022-06-26T09:01:46Z</time>
      </trkpt>
      <trkpt lat="45.93453" lon="4.42016">
        <ele>657.2</ele>
        <time>2022-06-26T09:01:47Z</time>
      </trkpt>
      <trkpt lat="45.93457" lon="4.42017">
        <ele>657.2</ele>
        <time>2022-06-26T09:01:49Z</time>
      </trkpt>
      <trkpt lat="45.9346" lon="4.42017">
        <ele>657.2</ele>
        <time>2022-06-26T09:01:50Z</time>
      </trkpt>
      <trkpt lat="45.93464" lon="4.42018">
        <ele>657.4</ele>
        <time>2022-06-26T09:01:51Z</time>
      </trkpt>
      <trkpt lat="45.93467" lon="4.42017">
        <ele>657.4</ele>
        <time>2022-06-26T09:01:52Z</time>
      </trkpt>
      <trkpt lat="45.9347" lon="4.42016">
        <ele>657.4</ele>
        <time>2022-06-26T09:01:53Z</time>
      </trkpt>
      <trkpt lat="45.93473" lon="4.42013">
        <ele>657.4</ele>
        <time>2022-06-26T09:01:54Z</time>
      </trkpt>
      <trkpt lat="45.93476" lon="4.4201">
        <ele>657.4</ele>
        <time>2022-06-26T09:01:55Z</time>
      </trkpt>
      <trkpt lat="45.93478" lon="4.42005">
        <ele>657.4</ele>
        <time>2022-06-26T09:01:56Z</time>
      </trkpt>
      <trkpt lat="45.93479" lon="4.42001">
        <ele>657.8</ele>
        <time>2022-06-26T09:01:57Z</time>
      </trkpt>
      <trkpt lat="45.9348" lon="4.41996">
        <ele>657.8</ele>
        <time>2022-06-26T09:01:58Z</time>
      </trkpt>
      <trkpt lat="45.93481" lon="4.41991">
        <ele>657.8</ele>
        <time>2022-06-26T09:01:59Z</time>
      </trkpt>
      <trkpt lat="45.93482" lon="4.41986">
        <ele>658</ele>
        <time>2022-06-26T09:02:00Z</time>
      </trkpt>
      <trkpt lat="45.93483" lon="4.41981">
        <ele>658</ele>
        <time>2022-06-26T09:02:01Z</time>
      </trkpt>
      <trkpt lat="45.93484" lon="4.41976">
        <ele>658</ele>
        <time>2022-06-26T09:02:02Z</time>
      </trkpt>
      <trkpt lat="45.93485" lon="4.41972">
        <ele>658.2</ele>
        <time>2022-06-26T09:02:03Z</time>
      </trkpt>
      <trkpt lat="45.93486" lon="4.41967">
        <ele>658.2</ele>
        <time>2022-06-26T09:02:04Z</time>
      </trkpt>
      <trkpt lat="45.93487" lon="4.41962">
        <ele>658.6</ele>
        <time>2022-06-26T09:02:05Z</time>
      </trkpt>
      <trkpt lat="45.93488" lon="4.41957">
        <ele>658.6</ele>
        <time>2022-06-26T09:02:06Z</time>
      </trkpt>
      <trkpt lat="45.93489" lon="4.41953">
        <ele>658.6</ele>
        <time>2022-06-26T09:02:07Z</time>
      </trkpt>
      <trkpt lat="45.9349" lon="4.41948">
        <ele>658.6</ele>
        <time>2022-06-26T09:02:08Z</time>
      </trkpt>
      <trkpt lat="45.93491" lon="4.41944">
        <ele>658.8</ele>
        <time>2022-06-26T09:02:09Z</time>
      </trkpt>
      <trkpt lat="45.93492" lon="4.41939">
        <ele>658.8</ele>
        <time>2022-06-26T09:02:10Z</time>
      </trkpt>
      <trkpt lat="45.93493" lon="4.41935">
        <ele>659</ele>
        <time>2022-06-26T09:02:11Z</time>
      </trkpt>
      <trkpt lat="45.93494" lon="4.4193">
        <ele>659</ele>
        <time>2022-06-26T09:02:12Z</time>
      </trkpt>
      <trkpt lat="45.93495" lon="4.41926">
        <ele>659</ele>
        <time>2022-06-26T09:02:13Z</time>
      </trkpt>
      <trkpt lat="45.93496" lon="4.41921">
        <ele>659</ele>
        <time>2022-06-26T09:02:14Z</time>
      </trkpt>
      <trkpt lat="45.93497" lon="4.41916">
        <ele>659.2</ele>
        <time>2022-06-26T09:02:15Z</time>
      </trkpt>
      <trkpt lat="45.93498" lon="4.41912">
        <ele>659.2</ele>
        <time>2022-06-26T09:02:16Z</time>
      </trkpt>
      <trkpt lat="45.93499" lon="4.41907">
        <ele>659.2</ele>
        <time>2022-06-26T09:02:17Z</time>
      </trkpt>
      <trkpt lat="45.935" lon="4.41903">
        <ele>659.2</ele>
        <time>2022-06-26T09:02:18Z</time>
      </trkpt>
      <trkpt lat="45.93501" lon="4.41898">
        <ele>659.6</ele>
        <time>2022-06-26T09:02:19Z</time>
      </trkpt>
      <trkpt lat="45.93502" lon="4.41894">
        <ele>659.6</ele>
        <time>2022-06-26T09:02:20Z</time>
      </trkpt>
      <trkpt lat="45.93503" lon="4.41889">
        <ele>659.8</ele>
        <time>2022-06-26T09:02:21Z</time>
      </trkpt>
      <trkpt lat="45.93504" lon="4.41884">
        <ele>659.8</ele>
        <time>2022-06-26T09:02:22Z</time>
      </trkpt>
      <trkpt lat="45.93505" lon="4.4188">
        <ele>659.8</ele>
        <time>2022-06-26T09:02:23Z</time>
      </trkpt>
      <trkpt lat="45.93506" lon="4.41875">
        <ele>659.8</ele>
        <time>2022-06-26T09:02:24Z</time>
      </trkpt>
      <trkpt lat="45.93507" lon="4.41871">
        <ele>659.8</ele>
        <time>2022-06-26T09:02:25Z</time>
      </trkpt>
      <trkpt lat="45.93508" lon="4.41866">
        <ele>660</ele>
        <time>2022-06-26T09:02:26Z</time>
      </trkpt>
      <trkpt lat="45.93509" lon="4.41861">
        <ele>660</ele>
        <time>2022-06-26T09:02:27Z</time>
      </trkpt>
      <trkpt lat="45.9351" lon="4.41856">
        <ele>660.2</ele>
        <time>2022-06-26T09:02:28Z</time>
      </trkpt>
      <trkpt lat="45.93511" lon="4.41851">
        <ele>660.2</ele>
        <time>2022-06-26T09:02:29Z</time>
      </trkpt>
      <trkpt lat="45.93512" lon="4.41846">
        <ele>660.2</ele>
        <time>2022-06-26T09:02:30Z</time>
      </trkpt>
      <trkpt lat="45.93513" lon="4.41841">
        <ele>660.2</ele>
        <time>2022-06-26T09:02:31Z</time>
      </trkpt>
      <trkpt lat="45.93515" lon="4.41836">
        <ele>660.4</ele>
        <time>2022-06-26T09:02:32Z</time>
      </trkpt>
      <trkpt lat="45.93516" lon="4.41831">
        <ele>660.4</ele>
        <time>2022-06-26T09:02:33Z</time>
      </trkpt>
      <trkpt lat="45.93516" lon="4.41826">
        <ele>660.4</ele>
        <time>2022-06-26T09:02:34Z</time>
      </trkpt>
      <trkpt lat="45.93517" lon="4.41821">
        <ele>660.4</ele>
        <time>2022-06-26T09:02:35Z</time>
      </trkpt>
      <trkpt lat="45.93518" lon="4.41816">
        <ele>660.4</ele>
        <time>2022-06-26T09:02:36Z</time>
      </trkpt>
      <trkpt lat="45.93519" lon="4.41811">
        <ele>660.8</ele>
        <time>2022-06-26T09:02:37Z</time>
      </trkpt>
      <trkpt lat="45.93519" lon="4.41806">
        <ele>660.8</ele>
        <time>2022-06-26T09:02:38Z</time>
      </trkpt>
      <trkpt lat="45.9352" lon="4.41801">
        <ele>660.8</ele>
        <time>2022-06-26T09:02:39Z</time>
      </trkpt>
      <trkpt lat="45.9352" lon="4.41796">
        <ele>661</ele>
        <time>2022-06-26T09:02:40Z</time>
      </trkpt>
      <trkpt lat="45.93521" lon="4.41791">
        <ele>661</ele>
        <time>2022-06-26T09:02:41Z</time>
      </trkpt>
      <trkpt lat="45.93521" lon="4.41787">
        <ele>661</ele>
        <time>2022-06-26T09:02:42Z</time>
      </trkpt>
      <trkpt lat="45.93521" lon="4.41782">
        <ele>661</ele>
        <time>2022-06-26T09:02:43Z</time>
      </trkpt>
      <trkpt lat="45.93521" lon="4.41777">
        <ele>661</ele>
        <time>2022-06-26T09:02:44Z</time>
      </trkpt>
      <trkpt lat="45.93521" lon="4.41772">
        <ele>661.4</ele>
        <time>2022-06-26T09:02:45Z</time>
      </trkpt>
      <trkpt lat="45.93522" lon="4.41767">
        <ele>661.4</ele>
        <time>2022-06-26T09:02:46Z</time>
      </trkpt>
      <trkpt lat="45.93522" lon="4.41762">
        <ele>661.4</ele>
        <time>2022-06-26T09:02:47Z</time>
      </trkpt>
      <trkpt lat="45.93522" lon="4.41757">
        <ele>661.6</ele>
        <time>2022-06-26T09:02:48Z</time>
      </trkpt>
      <trkpt lat="45.93522" lon="4.41752">
        <ele>661.6</ele>
        <time>2022-06-26T09:02:49Z</time>
      </trkpt>
      <trkpt lat="45.93522" lon="4.41747">
        <ele>662</ele>
        <time>2022-06-26T09:02:50Z</time>
      </trkpt>
      <trkpt lat="45.93522" lon="4.41743">
        <ele>662</ele>
        <time>2022-06-26T09:02:51Z</time>
      </trkpt>
      <trkpt lat="45.93522" lon="4.41739">
        <ele>662.2</ele>
        <time>2022-06-26T09:02:52Z</time>
      </trkpt>
      <trkpt lat="45.93522" lon="4.41736">
        <ele>662.2</ele>
        <time>2022-06-26T09:02:53Z</time>
      </trkpt>
      <trkpt lat="45.93522" lon="4.41732">
        <ele>662.2</ele>
        <time>2022-06-26T09:02:54Z</time>
      </trkpt>
      <trkpt lat="45.93522" lon="4.41728">
        <ele>662.2</ele>
        <time>2022-06-26T09:02:55Z</time>
      </trkpt>
      <trkpt lat="45.93522" lon="4.41724">
        <ele>662.4</ele>
        <time>2022-06-26T09:02:56Z</time>
      </trkpt>
      <trkpt lat="45.93523" lon="4.4172">
        <ele>662.4</ele>
        <time>2022-06-26T09:02:57Z</time>
      </trkpt>
      <trkpt lat="45.93523" lon="4.41715">
        <ele>662.4</ele>
        <time>2022-06-26T09:02:58Z</time>
      </trkpt>
      <trkpt lat="45.93523" lon="4.41711">
        <ele>662.4</ele>
        <time>2022-06-26T09:02:59Z</time>
      </trkpt>
      <trkpt lat="45.93524" lon="4.41707">
        <ele>662.6</ele>
        <time>2022-06-26T09:03:00Z</time>
      </trkpt>
      <trkpt lat="45.93524" lon="4.41702">
        <ele>662.6</ele>
        <time>2022-06-26T09:03:01Z</time>
      </trkpt>
      <trkpt lat="45.93524" lon="4.41697">
        <ele>662.6</ele>
        <time>2022-06-26T09:03:02Z</time>
      </trkpt>
      <trkpt lat="45.93524" lon="4.41692">
        <ele>663</ele>
        <time>2022-06-26T09:03:03Z</time>
      </trkpt>
      <trkpt lat="45.93525" lon="4.41687">
        <ele>663</ele>
        <time>2022-06-26T09:03:04Z</time>
      </trkpt>
      <trkpt lat="45.93525" lon="4.41683">
        <ele>663</ele>
        <time>2022-06-26T09:03:05Z</time>
      </trkpt>
      <trkpt lat="45.93525" lon="4.41678">
        <ele>663.2</ele>
        <time>2022-06-26T09:03:06Z</time>
      </trkpt>
      <trkpt lat="45.93525" lon="4.41673">
        <ele>663.2</ele>
        <time>2022-06-26T09:03:07Z</time>
      </trkpt>
      <trkpt lat="45.93525" lon="4.41668">
        <ele>663.2</ele>
        <time>2022-06-26T09:03:08Z</time>
      </trkpt>
      <trkpt lat="45.93526" lon="4.41663">
        <ele>663.2</ele>
        <time>2022-06-26T09:03:09Z</time>
      </trkpt>
      <trkpt lat="45.93526" lon="4.41658">
        <ele>663.6</ele>
        <time>2022-06-26T09:03:10Z</time>
      </trkpt>
      <trkpt lat="45.93526" lon="4.41653">
        <ele>663.6</ele>
        <time>2022-06-26T09:03:11Z</time>
      </trkpt>
      <trkpt lat="45.93527" lon="4.41648">
        <ele>663.6</ele>
        <time>2022-06-26T09:03:12Z</time>
      </trkpt>
      <trkpt lat="45.93527" lon="4.41643">
        <ele>663.6</ele>
        <time>2022-06-26T09:03:13Z</time>
      </trkpt>
      <trkpt lat="45.93527" lon="4.41638">
        <ele>663.8</ele>
        <time>2022-06-26T09:03:14Z</time>
      </trkpt>
      <trkpt lat="45.93528" lon="4.41633">
        <ele>663.8</ele>
        <time>2022-06-26T09:03:15Z</time>
      </trkpt>
      <trkpt lat="45.93528" lon="4.41628">
        <ele>663.8</ele>
        <time>2022-06-26T09:03:16Z</time>
      </trkpt>
      <trkpt lat="45.93528" lon="4.41623">
        <ele>664</ele>
        <time>2022-06-26T09:03:17Z</time>
      </trkpt>
      <trkpt lat="45.93528" lon="4.41618">
        <ele>664</ele>
        <time>2022-06-26T09:03:18Z</time>
      </trkpt>
      <trkpt lat="45.93529" lon="4.41613">
        <ele>664</ele>
        <time>2022-06-26T09:03:19Z</time>
      </trkpt>
      <trkpt lat="45.9353" lon="4.41608">
        <ele>664.4</ele>
        <time>2022-06-26T09:03:20Z</time>
      </trkpt>
      <trkpt lat="45.9353" lon="4.41603">
        <ele>664.4</ele>
        <time>2022-06-26T09:03:21Z</time>
      </trkpt>
      <trkpt lat="45.9353" lon="4.41598">
        <ele>664.6</ele>
        <time>2022-06-26T09:03:22Z</time>
      </trkpt>
      <trkpt lat="45.93531" lon="4.41593">
        <ele>664.6</ele>
        <time>2022-06-26T09:03:23Z</time>
      </trkpt>
      <trkpt lat="45.93531" lon="4.41588">
        <ele>664.8</ele>
        <time>2022-06-26T09:03:24Z</time>
      </trkpt>
      <trkpt lat="45.93532" lon="4.41583">
        <ele>664.8</ele>
        <time>2022-06-26T09:03:25Z</time>
      </trkpt>
      <trkpt lat="45.93532" lon="4.41579">
        <ele>664.8</ele>
        <time>2022-06-26T09:03:26Z</time>
      </trkpt>
      <trkpt lat="45.93532" lon="4.41574">
        <ele>664.8</ele>
        <time>2022-06-26T09:03:27Z</time>
      </trkpt>
      <trkpt lat="45.93532" lon="4.41569">
        <ele>664.8</ele>
        <time>2022-06-26T09:03:28Z</time>
      </trkpt>
      <trkpt lat="45.93532" lon="4.41564">
        <ele>665</ele>
        <time>2022-06-26T09:03:29Z</time>
      </trkpt>
      <trkpt lat="45.93532" lon="4.41559">
        <ele>665</ele>
        <time>2022-06-26T09:03:30Z</time>
      </trkpt>
      <trkpt lat="45.93532" lon="4.41555">
        <ele>665.2</ele>
        <time>2022-06-26T09:03:31Z</time>
      </trkpt>
      <trkpt lat="45.93532" lon="4.4155">
        <ele>665.2</ele>
        <time>2022-06-26T09:03:32Z</time>
      </trkpt>
      <trkpt lat="45.93532" lon="4.41546">
        <ele>665.2</ele>
        <time>2022-06-26T09:03:33Z</time>
      </trkpt>
      <trkpt lat="45.93531" lon="4.41541">
        <ele>665.4</ele>
        <time>2022-06-26T09:03:34Z</time>
      </trkpt>
      <trkpt lat="45.93531" lon="4.41536">
        <ele>665.4</ele>
        <time>2022-06-26T09:03:35Z</time>
      </trkpt>
      <trkpt lat="45.9353" lon="4.41531">
        <ele>665.6</ele>
        <time>2022-06-26T09:03:36Z</time>
      </trkpt>
      <trkpt lat="45.9353" lon="4.41526">
        <ele>665.6</ele>
        <time>2022-06-26T09:03:37Z</time>
      </trkpt>
      <trkpt lat="45.9353" lon="4.41521">
        <ele>665.6</ele>
        <time>2022-06-26T09:03:38Z</time>
      </trkpt>
      <trkpt lat="45.9353" lon="4.41517">
        <ele>665.8</ele>
        <time>2022-06-26T09:03:39Z</time>
      </trkpt>
      <trkpt lat="45.93529" lon="4.41512">
        <ele>665.8</ele>
        <time>2022-06-26T09:03:40Z</time>
      </trkpt>
      <trkpt lat="45.93528" lon="4.41507">
        <ele>665.8</ele>
        <time>2022-06-26T09:03:41Z</time>
      </trkpt>
      <trkpt lat="45.93527" lon="4.41502">
        <ele>666.2</ele>
        <time>2022-06-26T09:03:42Z</time>
      </trkpt>
      <trkpt lat="45.93527" lon="4.41497">
        <ele>666.2</ele>
        <time>2022-06-26T09:03:43Z</time>
      </trkpt>
      <trkpt lat="45.93527" lon="4.41492">
        <ele>666.2</ele>
        <time>2022-06-26T09:03:44Z</time>
      </trkpt>
      <trkpt lat="45.93526" lon="4.41487">
        <ele>666.2</ele>
        <time>2022-06-26T09:03:45Z</time>
      </trkpt>
      <trkpt lat="45.93526" lon="4.41482">
        <ele>666.2</ele>
        <time>2022-06-26T09:03:46Z</time>
      </trkpt>
      <trkpt lat="45.93526" lon="4.41477">
        <ele>666.4</ele>
        <time>2022-06-26T09:03:47Z</time>
      </trkpt>
      <trkpt lat="45.93525" lon="4.41472">
        <ele>666.4</ele>
        <time>2022-06-26T09:03:48Z</time>
      </trkpt>
      <trkpt lat="45.93524" lon="4.41467">
        <ele>666.4</ele>
        <time>2022-06-26T09:03:49Z</time>
      </trkpt>
      <trkpt lat="45.93524" lon="4.41462">
        <ele>666.6</ele>
        <time>2022-06-26T09:03:50Z</time>
      </trkpt>
      <trkpt lat="45.93524" lon="4.41457">
        <ele>666.6</ele>
        <time>2022-06-26T09:03:51Z</time>
      </trkpt>
      <trkpt lat="45.93523" lon="4.41451">
        <ele>666.6</ele>
        <time>2022-06-26T09:03:52Z</time>
      </trkpt>
      <trkpt lat="45.93523" lon="4.41446">
        <ele>666.6</ele>
        <time>2022-06-26T09:03:53Z</time>
      </trkpt>
      <trkpt lat="45.93523" lon="4.41442">
        <ele>666.8</ele>
        <time>2022-06-26T09:03:54Z</time>
      </trkpt>
      <trkpt lat="45.93524" lon="4.41437">
        <ele>666.8</ele>
        <time>2022-06-26T09:03:55Z</time>
      </trkpt>
      <trkpt lat="45.93524" lon="4.41432">
        <ele>666.8</ele>
        <time>2022-06-26T09:03:56Z</time>
      </trkpt>
      <trkpt lat="45.93525" lon="4.41428">
        <ele>667.2</ele>
        <time>2022-06-26T09:03:57Z</time>
      </trkpt>
      <trkpt lat="45.93526" lon="4.41424">
        <ele>667.2</ele>
        <time>2022-06-26T09:03:58Z</time>
      </trkpt>
      <trkpt lat="45.93528" lon="4.41421">
        <ele>667.4</ele>
        <time>2022-06-26T09:03:59Z</time>
      </trkpt>
      <trkpt lat="45.93531" lon="4.41418">
        <ele>667.4</ele>
        <time>2022-06-26T09:04:00Z</time>
      </trkpt>
      <trkpt lat="45.93533" lon="4.41416">
        <ele>667.4</ele>
        <time>2022-06-26T09:04:01Z</time>
      </trkpt>
      <trkpt lat="45.93537" lon="4.41414">
        <ele>667.6</ele>
        <time>2022-06-26T09:04:02Z</time>
      </trkpt>
      <trkpt lat="45.9354" lon="4.41413">
        <ele>667.6</ele>
        <time>2022-06-26T09:04:03Z</time>
      </trkpt>
      <trkpt lat="45.93544" lon="4.41412">
        <ele>667.6</ele>
        <time>2022-06-26T09:04:04Z</time>
      </trkpt>
      <trkpt lat="45.93548" lon="4.41411">
        <ele>667.8</ele>
        <time>2022-06-26T09:04:05Z</time>
      </trkpt>
      <trkpt lat="45.93551" lon="4.41411">
        <ele>667.8</ele>
        <time>2022-06-26T09:04:06Z</time>
      </trkpt>
      <trkpt lat="45.93555" lon="4.41411">
        <ele>668.2</ele>
        <time>2022-06-26T09:04:07Z</time>
      </trkpt>
      <trkpt lat="45.93559" lon="4.41411">
        <ele>668.2</ele>
        <time>2022-06-26T09:04:08Z</time>
      </trkpt>
      <trkpt lat="45.93562" lon="4.41411">
        <ele>668.4</ele>
        <time>2022-06-26T09:04:09Z</time>
      </trkpt>
      <trkpt lat="45.93566" lon="4.41412">
        <ele>668.4</ele>
        <time>2022-06-26T09:04:10Z</time>
      </trkpt>
      <trkpt lat="45.9357" lon="4.41412">
        <ele>668.4</ele>
        <time>2022-06-26T09:04:11Z</time>
      </trkpt>
      <trkpt lat="45.93573" lon="4.41412">
        <ele>668.4</ele>
        <time>2022-06-26T09:04:12Z</time>
      </trkpt>
      <trkpt lat="45.93577" lon="4.41413">
        <ele>668.6</ele>
        <time>2022-06-26T09:04:13Z</time>
      </trkpt>
      <trkpt lat="45.93581" lon="4.41413">
        <ele>668.6</ele>
        <time>2022-06-26T09:04:14Z</time>
      </trkpt>
      <trkpt lat="45.93584" lon="4.41413">
        <ele>668.6</ele>
        <time>2022-06-26T09:04:15Z</time>
      </trkpt>
      <trkpt lat="45.93588" lon="4.41413">
        <ele>668.6</ele>
        <time>2022-06-26T09:04:16Z</time>
      </trkpt>
      <trkpt lat="45.93591" lon="4.41413">
        <ele>668.8</ele>
        <time>2022-06-26T09:04:17Z</time>
      </trkpt>
      <trkpt lat="45.93595" lon="4.41413">
        <ele>668.8</ele>
        <time>2022-06-26T09:04:18Z</time>
      </trkpt>
      <trkpt lat="45.93599" lon="4.41413">
        <ele>669</ele>
        <time>2022-06-26T09:04:19Z</time>
      </trkpt>
      <trkpt lat="45.93602" lon="4.41414">
        <ele>669</ele>
        <time>2022-06-26T09:04:20Z</time>
      </trkpt>
      <trkpt lat="45.93606" lon="4.41414">
        <ele>669.4</ele>
        <time>2022-06-26T09:04:21Z</time>
      </trkpt>
      <trkpt lat="45.9361" lon="4.41415">
        <ele>669.4</ele>
        <time>2022-06-26T09:04:22Z</time>
      </trkpt>
      <trkpt lat="45.93613" lon="4.41415">
        <ele>669.4</ele>
        <time>2022-06-26T09:04:23Z</time>
      </trkpt>
      <trkpt lat="45.93617" lon="4.41415">
        <ele>669.4</ele>
        <time>2022-06-26T09:04:24Z</time>
      </trkpt>
      <trkpt lat="45.9362" lon="4.41415">
        <ele>669.6</ele>
        <time>2022-06-26T09:04:25Z</time>
      </trkpt>
      <trkpt lat="45.93624" lon="4.41415">
        <ele>669.6</ele>
        <time>2022-06-26T09:04:26Z</time>
      </trkpt>
      <trkpt lat="45.93627" lon="4.41416">
        <ele>669.6</ele>
        <time>2022-06-26T09:04:27Z</time>
      </trkpt>
      <trkpt lat="45.9363" lon="4.41416">
        <ele>670</ele>
        <time>2022-06-26T09:04:28Z</time>
      </trkpt>
      <trkpt lat="45.93634" lon="4.41417">
        <ele>670</ele>
        <time>2022-06-26T09:04:29Z</time>
      </trkpt>
      <trkpt lat="45.93637" lon="4.41417">
        <ele>670</ele>
        <time>2022-06-26T09:04:30Z</time>
      </trkpt>
      <trkpt lat="45.93641" lon="4.41418">
        <ele>670</ele>
        <time>2022-06-26T09:04:31Z</time>
      </trkpt>
      <trkpt lat="45.93644" lon="4.41419">
        <ele>670.2</ele>
        <time>2022-06-26T09:04:32Z</time>
      </trkpt>
      <trkpt lat="45.93648" lon="4.41421">
        <ele>670.2</ele>
        <time>2022-06-26T09:04:33Z</time>
      </trkpt>
      <trkpt lat="45.93651" lon="4.41422">
        <ele>670.2</ele>
        <time>2022-06-26T09:04:34Z</time>
      </trkpt>
      <trkpt lat="45.93654" lon="4.41424">
        <ele>670.4</ele>
        <time>2022-06-26T09:04:35Z</time>
      </trkpt>
      <trkpt lat="45.93657" lon="4.41426">
        <ele>670.4</ele>
        <time>2022-06-26T09:04:36Z</time>
      </trkpt>
      <trkpt lat="45.9366" lon="4.41429">
        <ele>670.8</ele>
        <time>2022-06-26T09:04:37Z</time>
      </trkpt>
      <trkpt lat="45.93663" lon="4.41431">
        <ele>670.8</ele>
        <time>2022-06-26T09:04:38Z</time>
      </trkpt>
      <trkpt lat="45.93666" lon="4.41434">
        <ele>671</ele>
        <time>2022-06-26T09:04:39Z</time>
      </trkpt>
      <trkpt lat="45.93669" lon="4.41436">
        <ele>671</ele>
        <time>2022-06-26T09:04:40Z</time>
      </trkpt>
      <trkpt lat="45.93672" lon="4.41438">
        <ele>671</ele>
        <time>2022-06-26T09:04:41Z</time>
      </trkpt>
      <trkpt lat="45.93675" lon="4.4144">
        <ele>671</ele>
        <time>2022-06-26T09:04:42Z</time>
      </trkpt>
      <trkpt lat="45.93678" lon="4.41442">
        <ele>671.2</ele>
        <time>2022-06-26T09:04:43Z</time>
      </trkpt>
      <trkpt lat="45.93682" lon="4.41444">
        <ele>671.2</ele>
        <time>2022-06-26T09:04:44Z</time>
      </trkpt>
      <trkpt lat="45.93685" lon="4.41445">
        <ele>671.2</ele>
        <time>2022-06-26T09:04:45Z</time>
      </trkpt>
      <trkpt lat="45.93688" lon="4.41446">
        <ele>671.2</ele>
        <time>2022-06-26T09:04:46Z</time>
      </trkpt>
      <trkpt lat="45.93692" lon="4.41447">
        <ele>671.6</ele>
        <time>2022-06-26T09:04:47Z</time>
      </trkpt>
      <trkpt lat="45.93695" lon="4.41447">
        <ele>671.6</ele>
        <time>2022-06-26T09:04:48Z</time>
      </trkpt>
      <trkpt lat="45.93698" lon="4.41447">
        <ele>671.8</ele>
        <time>2022-06-26T09:04:49Z</time>
      </trkpt>
      <trkpt lat="45.93701" lon="4.41446">
        <ele>671.8</ele>
        <time>2022-06-26T09:04:50Z</time>
      </trkpt>
      <trkpt lat="45.93705" lon="4.41444">
        <ele>671.8</ele>
        <time>2022-06-26T09:04:51Z</time>
      </trkpt>
      <trkpt lat="45.93708" lon="4.41442">
        <ele>671.8</ele>
        <time>2022-06-26T09:04:52Z</time>
      </trkpt>
      <trkpt lat="45.93711" lon="4.41439">
        <ele>672</ele>
        <time>2022-06-26T09:04:53Z</time>
      </trkpt>
      <trkpt lat="45.93714" lon="4.41437">
        <ele>672</ele>
        <time>2022-06-26T09:04:54Z</time>
      </trkpt>
      <trkpt lat="45.93717" lon="4.41434">
        <ele>672</ele>
        <time>2022-06-26T09:04:55Z</time>
      </trkpt>
      <trkpt lat="45.93719" lon="4.41431">
        <ele>672.2</ele>
        <time>2022-06-26T09:04:56Z</time>
      </trkpt>
      <trkpt lat="45.93722" lon="4.41428">
        <ele>672.2</ele>
        <time>2022-06-26T09:04:57Z</time>
      </trkpt>
      <trkpt lat="45.93725" lon="4.41425">
        <ele>672.2</ele>
        <time>2022-06-26T09:04:58Z</time>
      </trkpt>
      <trkpt lat="45.93727" lon="4.41422">
        <ele>672.6</ele>
        <time>2022-06-26T09:04:59Z</time>
      </trkpt>
      <trkpt lat="45.9373" lon="4.41419">
        <ele>672.6</ele>
        <time>2022-06-26T09:05:00Z</time>
      </trkpt>
      <trkpt lat="45.93733" lon="4.41416">
        <ele>672.6</ele>
        <time>2022-06-26T09:05:01Z</time>
      </trkpt>
      <trkpt lat="45.93735" lon="4.41413">
        <ele>672.6</ele>
        <time>2022-06-26T09:05:02Z</time>
      </trkpt>
      <trkpt lat="45.93738" lon="4.41409">
        <ele>672.8</ele>
        <time>2022-06-26T09:05:03Z</time>
      </trkpt>
      <trkpt lat="45.93741" lon="4.41406">
        <ele>672.8</ele>
        <time>2022-06-26T09:05:04Z</time>
      </trkpt>
      <trkpt lat="45.93744" lon="4.41403">
        <ele>673</ele>
        <time>2022-06-26T09:05:05Z</time>
      </trkpt>
      <trkpt lat="45.93746" lon="4.414">
        <ele>673</ele>
        <time>2022-06-26T09:05:06Z</time>
      </trkpt>
      <trkpt lat="45.93749" lon="4.41396">
        <ele>673.4</ele>
        <time>2022-06-26T09:05:07Z</time>
      </trkpt>
      <trkpt lat="45.93752" lon="4.41393">
        <ele>673.4</ele>
        <time>2022-06-26T09:05:08Z</time>
      </trkpt>
      <trkpt lat="45.93755" lon="4.4139">
        <ele>673.6</ele>
        <time>2022-06-26T09:05:09Z</time>
      </trkpt>
      <trkpt lat="45.93757" lon="4.41387">
        <ele>673.6</ele>
        <time>2022-06-26T09:05:10Z</time>
      </trkpt>
      <trkpt lat="45.9376" lon="4.41384">
        <ele>673.6</ele>
        <time>2022-06-26T09:05:11Z</time>
      </trkpt>
      <trkpt lat="45.93763" lon="4.4138">
        <ele>673.8</ele>
        <time>2022-06-26T09:05:12Z</time>
      </trkpt>
      <trkpt lat="45.93765" lon="4.41377">
        <ele>673.8</ele>
        <time>2022-06-26T09:05:13Z</time>
      </trkpt>
      <trkpt lat="45.93767" lon="4.41374">
        <ele>674</ele>
        <time>2022-06-26T09:05:14Z</time>
      </trkpt>
      <trkpt lat="45.9377" lon="4.4137">
        <ele>674</ele>
        <time>2022-06-26T09:05:15Z</time>
      </trkpt>
      <trkpt lat="45.93772" lon="4.41366">
        <ele>674</ele>
        <time>2022-06-26T09:05:16Z</time>
      </trkpt>
      <trkpt lat="45.93774" lon="4.41363">
        <ele>674.2</ele>
        <time>2022-06-26T09:05:17Z</time>
      </trkpt>
      <trkpt lat="45.93777" lon="4.41359">
        <ele>674.2</ele>
        <time>2022-06-26T09:05:18Z</time>
      </trkpt>
      <trkpt lat="45.93779" lon="4.41355">
        <ele>674.2</ele>
        <time>2022-06-26T09:05:19Z</time>
      </trkpt>
      <trkpt lat="45.93781" lon="4.41351">
        <ele>674.2</ele>
        <time>2022-06-26T09:05:20Z</time>
      </trkpt>
      <trkpt lat="45.93782" lon="4.41346">
        <ele>674.6</ele>
        <time>2022-06-26T09:05:21Z</time>
      </trkpt>
      <trkpt lat="45.93784" lon="4.41341">
        <ele>674.6</ele>
        <time>2022-06-26T09:05:22Z</time>
      </trkpt>
      <trkpt lat="45.93785" lon="4.41336">
        <ele>674.6</ele>
        <time>2022-06-26T09:05:23Z</time>
      </trkpt>
      <trkpt lat="45.93785" lon="4.41331">
        <ele>674.8</ele>
        <time>2022-06-26T09:05:24Z</time>
      </trkpt>
      <trkpt lat="45.93786" lon="4.41325">
        <ele>674.8</ele>
        <time>2022-06-26T09:05:25Z</time>
      </trkpt>
      <trkpt lat="45.93787" lon="4.4132">
        <ele>674.8</ele>
        <time>2022-06-26T09:05:26Z</time>
      </trkpt>
      <trkpt lat="45.93787" lon="4.41315">
        <ele>675</ele>
        <time>2022-06-26T09:05:27Z</time>
      </trkpt>
      <trkpt lat="45.93787" lon="4.4131">
        <ele>675</ele>
        <time>2022-06-26T09:05:28Z</time>
      </trkpt>
      <trkpt lat="45.93788" lon="4.41306">
        <ele>675.2</ele>
        <time>2022-06-26T09:05:29Z</time>
      </trkpt>
      <trkpt lat="45.93789" lon="4.41301">
        <ele>675.2</ele>
        <time>2022-06-26T09:05:30Z</time>
      </trkpt>
      <trkpt lat="45.9379" lon="4.41296">
        <ele>675.6</ele>
        <time>2022-06-26T09:05:31Z</time>
      </trkpt>
      <trkpt lat="45.9379" lon="4.41291">
        <ele>675.6</ele>
        <time>2022-06-26T09:05:32Z</time>
      </trkpt>
      <trkpt lat="45.93791" lon="4.41286">
        <ele>675.6</ele>
        <time>2022-06-26T09:05:33Z</time>
      </trkpt>
      <trkpt lat="45.93791" lon="4.4128">
        <ele>675.8</ele>
        <time>2022-06-26T09:05:34Z</time>
      </trkpt>
      <trkpt lat="45.93791" lon="4.41275">
        <ele>675.8</ele>
        <time>2022-06-26T09:05:35Z</time>
      </trkpt>
      <trkpt lat="45.93792" lon="4.4127">
        <ele>676</ele>
        <time>2022-06-26T09:05:36Z</time>
      </trkpt>
      <trkpt lat="45.93793" lon="4.41264">
        <ele>676</ele>
        <time>2022-06-26T09:05:37Z</time>
      </trkpt>
      <trkpt lat="45.93794" lon="4.41259">
        <ele>676.4</ele>
        <time>2022-06-26T09:05:38Z</time>
      </trkpt>
      <trkpt lat="45.93794" lon="4.41254">
        <ele>676.4</ele>
        <time>2022-06-26T09:05:39Z</time>
      </trkpt>
      <trkpt lat="45.93795" lon="4.41248">
        <ele>676.6</ele>
        <time>2022-06-26T09:05:40Z</time>
      </trkpt>
      <trkpt lat="45.93796" lon="4.41243">
        <ele>676.6</ele>
        <time>2022-06-26T09:05:41Z</time>
      </trkpt>
      <trkpt lat="45.93796" lon="4.41238">
        <ele>676.8</ele>
        <time>2022-06-26T09:05:42Z</time>
      </trkpt>
      <trkpt lat="45.93797" lon="4.41233">
        <ele>676.8</ele>
        <time>2022-06-26T09:05:43Z</time>
      </trkpt>
      <trkpt lat="45.93798" lon="4.41228">
        <ele>677</ele>
        <time>2022-06-26T09:05:44Z</time>
      </trkpt>
      <trkpt lat="45.93799" lon="4.41223">
        <ele>677</ele>
        <time>2022-06-26T09:05:45Z</time>
      </trkpt>
      <trkpt lat="45.938" lon="4.41218">
        <ele>677.2</ele>
        <time>2022-06-26T09:05:46Z</time>
      </trkpt>
      <trkpt lat="45.938" lon="4.41213">
        <ele>677.2</ele>
        <time>2022-06-26T09:05:47Z</time>
      </trkpt>
      <trkpt lat="45.938" lon="4.41208">
        <ele>677.2</ele>
        <time>2022-06-26T09:05:48Z</time>
      </trkpt>
      <trkpt lat="45.93801" lon="4.41203">
        <ele>677.2</ele>
        <time>2022-06-26T09:05:49Z</time>
      </trkpt>
      <trkpt lat="45.93801" lon="4.41198">
        <ele>677.2</ele>
        <time>2022-06-26T09:05:50Z</time>
      </trkpt>
      <trkpt lat="45.93801" lon="4.41193">
        <ele>677.4</ele>
        <time>2022-06-26T09:05:51Z</time>
      </trkpt>
      <trkpt lat="45.93801" lon="4.41188">
        <ele>677.4</ele>
        <time>2022-06-26T09:05:52Z</time>
      </trkpt>
      <trkpt lat="45.93802" lon="4.41183">
        <ele>677.4</ele>
        <time>2022-06-26T09:05:53Z</time>
      </trkpt>
      <trkpt lat="45.93802" lon="4.41178">
        <ele>677.8</ele>
        <time>2022-06-26T09:05:54Z</time>
      </trkpt>
      <trkpt lat="45.93802" lon="4.41173">
        <ele>677.8</ele>
        <time>2022-06-26T09:05:55Z</time>
      </trkpt>
      <trkpt lat="45.93803" lon="4.41168">
        <ele>678</ele>
        <time>2022-06-26T09:05:56Z</time>
      </trkpt>
      <trkpt lat="45.93803" lon="4.41163">
        <ele>678</ele>
        <time>2022-06-26T09:05:57Z</time>
      </trkpt>
      <trkpt lat="45.93804" lon="4.41158">
        <ele>678.2</ele>
        <time>2022-06-26T09:05:58Z</time>
      </trkpt>
      <trkpt lat="45.93804" lon="4.41152">
        <ele>678.2</ele>
        <time>2022-06-26T09:05:59Z</time>
      </trkpt>
      <trkpt lat="45.93804" lon="4.41148">
        <ele>678.2</ele>
        <time>2022-06-26T09:06:00Z</time>
      </trkpt>
      <trkpt lat="45.93804" lon="4.41143">
        <ele>678.2</ele>
        <time>2022-06-26T09:06:01Z</time>
      </trkpt>
      <trkpt lat="45.93804" lon="4.41138">
        <ele>678.4</ele>
        <time>2022-06-26T09:06:02Z</time>
      </trkpt>
      <trkpt lat="45.93804" lon="4.41134">
        <ele>678.4</ele>
        <time>2022-06-26T09:06:03Z</time>
      </trkpt>
      <trkpt lat="45.93803" lon="4.41129">
        <ele>678.4</ele>
        <time>2022-06-26T09:06:04Z</time>
      </trkpt>
      <trkpt lat="45.93803" lon="4.41125">
        <ele>678.6</ele>
        <time>2022-06-26T09:06:05Z</time>
      </trkpt>
      <trkpt lat="45.93801" lon="4.4112">
        <ele>678.6</ele>
        <time>2022-06-26T09:06:06Z</time>
      </trkpt>
      <trkpt lat="45.93799" lon="4.41115">
        <ele>678.6</ele>
        <time>2022-06-26T09:06:07Z</time>
      </trkpt>
      <trkpt lat="45.93797" lon="4.4111">
        <ele>679</ele>
        <time>2022-06-26T09:06:08Z</time>
      </trkpt>
      <trkpt lat="45.93795" lon="4.41105">
        <ele>679</ele>
        <time>2022-06-26T09:06:09Z</time>
      </trkpt>
      <trkpt lat="45.93792" lon="4.411">
        <ele>679</ele>
        <time>2022-06-26T09:06:10Z</time>
      </trkpt>
      <trkpt lat="45.93789" lon="4.41096">
        <ele>679.2</ele>
        <time>2022-06-26T09:06:11Z</time>
      </trkpt>
      <trkpt lat="45.93786" lon="4.41092">
        <ele>679.2</ele>
        <time>2022-06-26T09:06:12Z</time>
      </trkpt>
      <trkpt lat="45.93782" lon="4.41089">
        <ele>679.2</ele>
        <time>2022-06-26T09:06:13Z</time>
      </trkpt>
      <trkpt lat="45.93779" lon="4.41088">
        <ele>679.4</ele>
        <time>2022-06-26T09:06:14Z</time>
      </trkpt>
      <trkpt lat="45.93776" lon="4.41085">
        <ele>679.4</ele>
        <time>2022-06-26T09:06:15Z</time>
      </trkpt>
      <trkpt lat="45.93773" lon="4.41084">
        <ele>679.4</ele>
        <time>2022-06-26T09:06:16Z</time>
      </trkpt>
      <trkpt lat="45.9377" lon="4.41082">
        <ele>679.8</ele>
        <time>2022-06-26T09:06:17Z</time>
      </trkpt>
      <trkpt lat="45.93767" lon="4.41081">
        <ele>679.8</ele>
        <time>2022-06-26T09:06:18Z</time>
      </trkpt>
      <trkpt lat="45.93763" lon="4.41079">
        <ele>679.8</ele>
        <time>2022-06-26T09:06:19Z</time>
      </trkpt>
      <trkpt lat="45.9376" lon="4.41078">
        <ele>680</ele>
        <time>2022-06-26T09:06:20Z</time>
      </trkpt>
      <trkpt lat="45.93755" lon="4.41076">
        <ele>680</ele>
        <time>2022-06-26T09:06:21Z</time>
      </trkpt>
      <trkpt lat="45.93751" lon="4.41074">
        <ele>680</ele>
        <time>2022-06-26T09:06:22Z</time>
      </trkpt>
      <trkpt lat="45.93747" lon="4.41072">
        <ele>680.4</ele>
        <time>2022-06-26T09:06:23Z</time>
      </trkpt>
      <trkpt lat="45.93743" lon="4.4107">
        <ele>680.4</ele>
        <time>2022-06-26T09:06:24Z</time>
      </trkpt>
      <trkpt lat="45.93739" lon="4.41067">
        <ele>680.4</ele>
        <time>2022-06-26T09:06:25Z</time>
      </trkpt>
      <trkpt lat="45.93735" lon="4.41065">
        <ele>680.8</ele>
        <time>2022-06-26T09:06:26Z</time>
      </trkpt>
      <trkpt lat="45.93732" lon="4.41063">
        <ele>680.8</ele>
        <time>2022-06-26T09:06:27Z</time>
      </trkpt>
      <trkpt lat="45.93728" lon="4.4106">
        <ele>681</ele>
        <time>2022-06-26T09:06:28Z</time>
      </trkpt>
      <trkpt lat="45.93725" lon="4.41057">
        <ele>681</ele>
        <time>2022-06-26T09:06:29Z</time>
      </trkpt>
      <trkpt lat="45.93722" lon="4.41055">
        <ele>681</ele>
        <time>2022-06-26T09:06:30Z</time>
      </trkpt>
      <trkpt lat="45.93718" lon="4.41051">
        <ele>681.2</ele>
        <time>2022-06-26T09:06:31Z</time>
      </trkpt>
      <trkpt lat="45.93715" lon="4.41048">
        <ele>681.2</ele>
        <time>2022-06-26T09:06:32Z</time>
      </trkpt>
      <trkpt lat="45.93712" lon="4.41044">
        <ele>681.2</ele>
        <time>2022-06-26T09:06:33Z</time>
      </trkpt>
      <trkpt lat="45.93709" lon="4.4104">
        <ele>681.6</ele>
        <time>2022-06-26T09:06:34Z</time>
      </trkpt>
      <trkpt lat="45.93707" lon="4.41037">
        <ele>681.6</ele>
        <time>2022-06-26T09:06:35Z</time>
      </trkpt>
      <trkpt lat="45.93704" lon="4.41033">
        <ele>681.8</ele>
        <time>2022-06-26T09:06:36Z</time>
      </trkpt>
      <trkpt lat="45.93701" lon="4.4103">
        <ele>681.8</ele>
        <time>2022-06-26T09:06:37Z</time>
      </trkpt>
      <trkpt lat="45.93697" lon="4.41027">
        <ele>681.8</ele>
        <time>2022-06-26T09:06:38Z</time>
      </trkpt>
      <trkpt lat="45.93694" lon="4.41024">
        <ele>682</ele>
        <time>2022-06-26T09:06:39Z</time>
      </trkpt>
      <trkpt lat="45.93691" lon="4.41021">
        <ele>682</ele>
        <time>2022-06-26T09:06:40Z</time>
      </trkpt>
      <trkpt lat="45.93688" lon="4.41017">
        <ele>682.2</ele>
        <time>2022-06-26T09:06:41Z</time>
      </trkpt>
      <trkpt lat="45.93685" lon="4.41014">
        <ele>682.2</ele>
        <time>2022-06-26T09:06:42Z</time>
      </trkpt>
      <trkpt lat="45.93683" lon="4.4101">
        <ele>682.4</ele>
        <time>2022-06-26T09:06:43Z</time>
      </trkpt>
      <trkpt lat="45.9368" lon="4.41007">
        <ele>682.4</ele>
        <time>2022-06-26T09:06:44Z</time>
      </trkpt>
      <trkpt lat="45.93677" lon="4.41003">
        <ele>682.4</ele>
        <time>2022-06-26T09:06:45Z</time>
      </trkpt>
      <trkpt lat="45.93674" lon="4.41">
        <ele>682.6</ele>
        <time>2022-06-26T09:06:46Z</time>
      </trkpt>
      <trkpt lat="45.93671" lon="4.40996">
        <ele>682.6</ele>
        <time>2022-06-26T09:06:47Z</time>
      </trkpt>
      <trkpt lat="45.93669" lon="4.40993">
        <ele>683</ele>
        <time>2022-06-26T09:06:48Z</time>
      </trkpt>
      <trkpt lat="45.93666" lon="4.40989">
        <ele>683</ele>
        <time>2022-06-26T09:06:49Z</time>
      </trkpt>
      <trkpt lat="45.93664" lon="4.40986">
        <ele>683</ele>
        <time>2022-06-26T09:06:50Z</time>
      </trkpt>
      <trkpt lat="45.93662" lon="4.40982">
        <ele>683</ele>
        <time>2022-06-26T09:06:51Z</time>
      </trkpt>
      <trkpt lat="45.9366" lon="4.40979">
        <ele>683.2</ele>
        <time>2022-06-26T09:06:52Z</time>
      </trkpt>
      <trkpt lat="45.93657" lon="4.40975">
        <ele>683.2</ele>
        <time>2022-06-26T09:06:53Z</time>
      </trkpt>
      <trkpt lat="45.93654" lon="4.40972">
        <ele>683.2</ele>
        <time>2022-06-26T09:06:54Z</time>
      </trkpt>
      <trkpt lat="45.93652" lon="4.40969">
        <ele>683.2</ele>
        <time>2022-06-26T09:06:56Z</time>
      </trkpt>
      <trkpt lat="45.93649" lon="4.40966">
        <ele>683.4</ele>
        <time>2022-06-26T09:06:57Z</time>
      </trkpt>
      <trkpt lat="45.93647" lon="4.40963">
        <ele>683.4</ele>
        <time>2022-06-26T09:06:58Z</time>
      </trkpt>
      <trkpt lat="45.93644" lon="4.40959">
        <ele>683.6</ele>
        <time>2022-06-26T09:06:59Z</time>
      </trkpt>
      <trkpt lat="45.93642" lon="4.40955">
        <ele>683.6</ele>
        <time>2022-06-26T09:07:00Z</time>
      </trkpt>
      <trkpt lat="45.9364" lon="4.40951">
        <ele>684</ele>
        <time>2022-06-26T09:07:01Z</time>
      </trkpt>
      <trkpt lat="45.93638" lon="4.40947">
        <ele>684</ele>
        <time>2022-06-26T09:07:02Z</time>
      </trkpt>
      <trkpt lat="45.93636" lon="4.40943">
        <ele>684.2</ele>
        <time>2022-06-26T09:07:03Z</time>
      </trkpt>
      <trkpt lat="45.93634" lon="4.40939">
        <ele>684.2</ele>
        <time>2022-06-26T09:07:04Z</time>
      </trkpt>
      <trkpt lat="45.93632" lon="4.40935">
        <ele>684.4</ele>
        <time>2022-06-26T09:07:05Z</time>
      </trkpt>
      <trkpt lat="45.93629" lon="4.40931">
        <ele>684.4</ele>
        <time>2022-06-26T09:07:06Z</time>
      </trkpt>
      <trkpt lat="45.93627" lon="4.40927">
        <ele>684.4</ele>
        <time>2022-06-26T09:07:07Z</time>
      </trkpt>
      <trkpt lat="45.93625" lon="4.40922">
        <ele>684.6</ele>
        <time>2022-06-26T09:07:08Z</time>
      </trkpt>
      <trkpt lat="45.93625" lon="4.40917">
        <ele>684.6</ele>
        <time>2022-06-26T09:07:09Z</time>
      </trkpt>
      <trkpt lat="45.93625" lon="4.40912">
        <ele>684.6</ele>
        <time>2022-06-26T09:07:10Z</time>
      </trkpt>
      <trkpt lat="45.93626" lon="4.40907">
        <ele>684.8</ele>
        <time>2022-06-26T09:07:11Z</time>
      </trkpt>
      <trkpt lat="45.93626" lon="4.40901">
        <ele>684.8</ele>
        <time>2022-06-26T09:07:12Z</time>
      </trkpt>
      <trkpt lat="45.93628" lon="4.40895">
        <ele>684.8</ele>
        <time>2022-06-26T09:07:13Z</time>
      </trkpt>
      <trkpt lat="45.9363" lon="4.4089">
        <ele>684.8</ele>
        <time>2022-06-26T09:07:14Z</time>
      </trkpt>
      <trkpt lat="45.93632" lon="4.40886">
        <ele>684.8</ele>
        <time>2022-06-26T09:07:15Z</time>
      </trkpt>
      <trkpt lat="45.93634" lon="4.40881">
        <ele>685</ele>
        <time>2022-06-26T09:07:16Z</time>
      </trkpt>
      <trkpt lat="45.93636" lon="4.40877">
        <ele>685</ele>
        <time>2022-06-26T09:07:17Z</time>
      </trkpt>
      <trkpt lat="45.93639" lon="4.40873">
        <ele>685</ele>
        <time>2022-06-26T09:07:18Z</time>
      </trkpt>
      <trkpt lat="45.93642" lon="4.40869">
        <ele>685</ele>
        <time>2022-06-26T09:07:19Z</time>
      </trkpt>
      <trkpt lat="45.93644" lon="4.40865">
        <ele>685.4</ele>
        <time>2022-06-26T09:07:20Z</time>
      </trkpt>
      <trkpt lat="45.93646" lon="4.40861">
        <ele>685.6</ele>
        <time>2022-06-26T09:07:21Z</time>
      </trkpt>
      <trkpt lat="45.93649" lon="4.40856">
        <ele>685.6</ele>
        <time>2022-06-26T09:07:22Z</time>
      </trkpt>
      <trkpt lat="45.93651" lon="4.40852">
        <ele>686</ele>
        <time>2022-06-26T09:07:23Z</time>
      </trkpt>
      <trkpt lat="45.93653" lon="4.40848">
        <ele>686</ele>
        <time>2022-06-26T09:07:24Z</time>
      </trkpt>
      <trkpt lat="45.93655" lon="4.40844">
        <ele>686</ele>
        <time>2022-06-26T09:07:25Z</time>
      </trkpt>
      <trkpt lat="45.93657" lon="4.4084">
        <ele>686</ele>
        <time>2022-06-26T09:07:26Z</time>
      </trkpt>
      <trkpt lat="45.9366" lon="4.40837">
        <ele>686.2</ele>
        <time>2022-06-26T09:07:27Z</time>
      </trkpt>
      <trkpt lat="45.93662" lon="4.40833">
        <ele>686.2</ele>
        <time>2022-06-26T09:07:28Z</time>
      </trkpt>
      <trkpt lat="45.93665" lon="4.40829">
        <ele>686.2</ele>
        <time>2022-06-26T09:07:29Z</time>
      </trkpt>
      <trkpt lat="45.93668" lon="4.40825">
        <ele>686.4</ele>
        <time>2022-06-26T09:07:30Z</time>
      </trkpt>
      <trkpt lat="45.9367" lon="4.40822">
        <ele>686.4</ele>
        <time>2022-06-26T09:07:31Z</time>
      </trkpt>
      <trkpt lat="45.93673" lon="4.40818">
        <ele>686.4</ele>
        <time>2022-06-26T09:07:32Z</time>
      </trkpt>
      <trkpt lat="45.93675" lon="4.40815">
        <ele>686.8</ele>
        <time>2022-06-26T09:07:33Z</time>
      </trkpt>
      <trkpt lat="45.93678" lon="4.40811">
        <ele>686.8</ele>
        <time>2022-06-26T09:07:34Z</time>
      </trkpt>
      <trkpt lat="45.9368" lon="4.40808">
        <ele>687</ele>
        <time>2022-06-26T09:07:35Z</time>
      </trkpt>
      <trkpt lat="45.93683" lon="4.40804">
        <ele>687</ele>
        <time>2022-06-26T09:07:36Z</time>
      </trkpt>
      <trkpt lat="45.93686" lon="4.408">
        <ele>687</ele>
        <time>2022-06-26T09:07:37Z</time>
      </trkpt>
      <trkpt lat="45.93688" lon="4.40796">
        <ele>687.2</ele>
        <time>2022-06-26T09:07:38Z</time>
      </trkpt>
      <trkpt lat="45.93691" lon="4.40792">
        <ele>687.2</ele>
        <time>2022-06-26T09:07:39Z</time>
      </trkpt>
      <trkpt lat="45.93694" lon="4.40789">
        <ele>687.6</ele>
        <time>2022-06-26T09:07:40Z</time>
      </trkpt>
      <trkpt lat="45.93696" lon="4.40785">
        <ele>687.6</ele>
        <time>2022-06-26T09:07:41Z</time>
      </trkpt>
      <trkpt lat="45.93699" lon="4.40781">
        <ele>687.6</ele>
        <time>2022-06-26T09:07:42Z</time>
      </trkpt>
      <trkpt lat="45.93701" lon="4.40777">
        <ele>687.8</ele>
        <time>2022-06-26T09:07:43Z</time>
      </trkpt>
      <trkpt lat="45.93704" lon="4.40773">
        <ele>687.8</ele>
        <time>2022-06-26T09:07:44Z</time>
      </trkpt>
      <trkpt lat="45.93707" lon="4.40769">
        <ele>687.8</ele>
        <time>2022-06-26T09:07:45Z</time>
      </trkpt>
      <trkpt lat="45.93709" lon="4.40765">
        <ele>688</ele>
        <time>2022-06-26T09:07:46Z</time>
      </trkpt>
      <trkpt lat="45.93712" lon="4.4076">
        <ele>688</ele>
        <time>2022-06-26T09:07:47Z</time>
      </trkpt>
      <trkpt lat="45.93714" lon="4.40757">
        <ele>688</ele>
        <time>2022-06-26T09:07:48Z</time>
      </trkpt>
      <trkpt lat="45.93716" lon="4.40753">
        <ele>688.2</ele>
        <time>2022-06-26T09:07:49Z</time>
      </trkpt>
      <trkpt lat="45.93719" lon="4.40749">
        <ele>688.2</ele>
        <time>2022-06-26T09:07:50Z</time>
      </trkpt>
      <trkpt lat="45.93722" lon="4.40745">
        <ele>688.4</ele>
        <time>2022-06-26T09:07:51Z</time>
      </trkpt>
      <trkpt lat="45.93724" lon="4.40741">
        <ele>688.4</ele>
        <time>2022-06-26T09:07:52Z</time>
      </trkpt>
      <trkpt lat="45.93726" lon="4.40737">
        <ele>688.8</ele>
        <time>2022-06-26T09:07:53Z</time>
      </trkpt>
      <trkpt lat="45.93729" lon="4.40733">
        <ele>688.8</ele>
        <time>2022-06-26T09:07:54Z</time>
      </trkpt>
      <trkpt lat="45.93731" lon="4.40729">
        <ele>688.8</ele>
        <time>2022-06-26T09:07:55Z</time>
      </trkpt>
      <trkpt lat="45.93733" lon="4.40724">
        <ele>688.8</ele>
        <time>2022-06-26T09:07:56Z</time>
      </trkpt>
      <trkpt lat="45.93735" lon="4.4072">
        <ele>689</ele>
        <time>2022-06-26T09:07:57Z</time>
      </trkpt>
      <trkpt lat="45.93737" lon="4.40715">
        <ele>689</ele>
        <time>2022-06-26T09:07:58Z</time>
      </trkpt>
      <trkpt lat="45.93739" lon="4.40711">
        <ele>689.2</ele>
        <time>2022-06-26T09:07:59Z</time>
      </trkpt>
      <trkpt lat="45.9374" lon="4.40706">
        <ele>689.2</ele>
        <time>2022-06-26T09:08:00Z</time>
      </trkpt>
      <trkpt lat="45.93742" lon="4.40701">
        <ele>689.2</ele>
        <time>2022-06-26T09:08:01Z</time>
      </trkpt>
      <trkpt lat="45.93743" lon="4.40695">
        <ele>689.2</ele>
        <time>2022-06-26T09:08:02Z</time>
      </trkpt>
      <trkpt lat="45.93744" lon="4.4069">
        <ele>689.6</ele>
        <time>2022-06-26T09:08:03Z</time>
      </trkpt>
      <trkpt lat="45.93745" lon="4.40685">
        <ele>689.6</ele>
        <time>2022-06-26T09:08:04Z</time>
      </trkpt>
      <trkpt lat="45.93746" lon="4.4068">
        <ele>689.6</ele>
        <time>2022-06-26T09:08:05Z</time>
      </trkpt>
      <trkpt lat="45.93747" lon="4.40675">
        <ele>689.6</ele>
        <time>2022-06-26T09:08:06Z</time>
      </trkpt>
      <trkpt lat="45.93748" lon="4.4067">
        <ele>689.6</ele>
        <time>2022-06-26T09:08:07Z</time>
      </trkpt>
      <trkpt lat="45.93749" lon="4.40665">
        <ele>689.8</ele>
        <time>2022-06-26T09:08:08Z</time>
      </trkpt>
      <trkpt lat="45.93749" lon="4.40659">
        <ele>689.8</ele>
        <time>2022-06-26T09:08:09Z</time>
      </trkpt>
      <trkpt lat="45.93749" lon="4.40654">
        <ele>689.8</ele>
        <time>2022-06-26T09:08:10Z</time>
      </trkpt>
      <trkpt lat="45.93748" lon="4.40648">
        <ele>689.8</ele>
        <time>2022-06-26T09:08:11Z</time>
      </trkpt>
      <trkpt lat="45.93747" lon="4.40643">
        <ele>690</ele>
        <time>2022-06-26T09:08:12Z</time>
      </trkpt>
      <trkpt lat="45.93746" lon="4.40637">
        <ele>690</ele>
        <time>2022-06-26T09:08:13Z</time>
      </trkpt>
      <trkpt lat="45.93744" lon="4.40631">
        <ele>690.2</ele>
        <time>2022-06-26T09:08:14Z</time>
      </trkpt>
      <trkpt lat="45.93743" lon="4.40626">
        <ele>690.2</ele>
        <time>2022-06-26T09:08:15Z</time>
      </trkpt>
      <trkpt lat="45.9374" lon="4.40621">
        <ele>690.2</ele>
        <time>2022-06-26T09:08:16Z</time>
      </trkpt>
      <trkpt lat="45.93738" lon="4.40617">
        <ele>690.6</ele>
        <time>2022-06-26T09:08:17Z</time>
      </trkpt>
      <trkpt lat="45.93734" lon="4.40613">
        <ele>690.6</ele>
        <time>2022-06-26T09:08:18Z</time>
      </trkpt>
      <trkpt lat="45.93731" lon="4.40609">
        <ele>690.6</ele>
        <time>2022-06-26T09:08:19Z</time>
      </trkpt>
      <trkpt lat="45.93728" lon="4.40605">
        <ele>690.8</ele>
        <time>2022-06-26T09:08:20Z</time>
      </trkpt>
      <trkpt lat="45.93725" lon="4.40601">
        <ele>690.8</ele>
        <time>2022-06-26T09:08:21Z</time>
      </trkpt>
      <trkpt lat="45.93722" lon="4.40597">
        <ele>691</ele>
        <time>2022-06-26T09:08:22Z</time>
      </trkpt>
      <trkpt lat="45.93719" lon="4.40594">
        <ele>691</ele>
        <time>2022-06-26T09:08:23Z</time>
      </trkpt>
      <trkpt lat="45.93716" lon="4.40591">
        <ele>691</ele>
        <time>2022-06-26T09:08:24Z</time>
      </trkpt>
      <trkpt lat="45.93713" lon="4.40588">
        <ele>691.4</ele>
        <time>2022-06-26T09:08:25Z</time>
      </trkpt>
      <trkpt lat="45.9371" lon="4.40586">
        <ele>691.4</ele>
        <time>2022-06-26T09:08:26Z</time>
      </trkpt>
      <trkpt lat="45.93706" lon="4.40584">
        <ele>691.4</ele>
        <time>2022-06-26T09:08:27Z</time>
      </trkpt>
      <trkpt lat="45.93703" lon="4.40582">
        <ele>691.6</ele>
        <time>2022-06-26T09:08:28Z</time>
      </trkpt>
      <trkpt lat="45.937" lon="4.40579">
        <ele>691.6</ele>
        <time>2022-06-26T09:08:29Z</time>
      </trkpt>
      <trkpt lat="45.93697" lon="4.40576">
        <ele>691.8</ele>
        <time>2022-06-26T09:08:30Z</time>
      </trkpt>
      <trkpt lat="45.93694" lon="4.40572">
        <ele>691.8</ele>
        <time>2022-06-26T09:08:31Z</time>
      </trkpt>
      <trkpt lat="45.93692" lon="4.40568">
        <ele>691.8</ele>
        <time>2022-06-26T09:08:32Z</time>
      </trkpt>
      <trkpt lat="45.9369" lon="4.40563">
        <ele>692.2</ele>
        <time>2022-06-26T09:08:33Z</time>
      </trkpt>
      <trkpt lat="45.93688" lon="4.40559">
        <ele>692.2</ele>
        <time>2022-06-26T09:08:34Z</time>
      </trkpt>
      <trkpt lat="45.93687" lon="4.40555">
        <ele>692.2</ele>
        <time>2022-06-26T09:08:35Z</time>
      </trkpt>
      <trkpt lat="45.93686" lon="4.40551">
        <ele>692.4</ele>
        <time>2022-06-26T09:08:36Z</time>
      </trkpt>
      <trkpt lat="45.93686" lon="4.40546">
        <ele>692.4</ele>
        <time>2022-06-26T09:08:37Z</time>
      </trkpt>
      <trkpt lat="45.93686" lon="4.40541">
        <ele>692.8</ele>
        <time>2022-06-26T09:08:38Z</time>
      </trkpt>
      <trkpt lat="45.93687" lon="4.40535">
        <ele>692.8</ele>
        <time>2022-06-26T09:08:39Z</time>
      </trkpt>
      <trkpt lat="45.93687" lon="4.4053">
        <ele>692.8</ele>
        <time>2022-06-26T09:08:40Z</time>
      </trkpt>
      <trkpt lat="45.93688" lon="4.40526">
        <ele>693</ele>
        <time>2022-06-26T09:08:41Z</time>
      </trkpt>
      <trkpt lat="45.9369" lon="4.40521">
        <ele>693</ele>
        <time>2022-06-26T09:08:42Z</time>
      </trkpt>
      <trkpt lat="45.93691" lon="4.40516">
        <ele>693</ele>
        <time>2022-06-26T09:08:43Z</time>
      </trkpt>
      <trkpt lat="45.93693" lon="4.40511">
        <ele>693.4</ele>
        <time>2022-06-26T09:08:44Z</time>
      </trkpt>
      <trkpt lat="45.93694" lon="4.40507">
        <ele>693.4</ele>
        <time>2022-06-26T09:08:45Z</time>
      </trkpt>
      <trkpt lat="45.93696" lon="4.40502">
        <ele>693.4</ele>
        <time>2022-06-26T09:08:46Z</time>
      </trkpt>
      <trkpt lat="45.93697" lon="4.40497">
        <ele>693.6</ele>
        <time>2022-06-26T09:08:47Z</time>
      </trkpt>
      <trkpt lat="45.93699" lon="4.40492">
        <ele>693.6</ele>
        <time>2022-06-26T09:08:48Z</time>
      </trkpt>
      <trkpt lat="45.93701" lon="4.40488">
        <ele>693.6</ele>
        <time>2022-06-26T09:08:49Z</time>
      </trkpt>
      <trkpt lat="45.93702" lon="4.40483">
        <ele>693.8</ele>
        <time>2022-06-26T09:08:50Z</time>
      </trkpt>
      <trkpt lat="45.93704" lon="4.40478">
        <ele>693.8</ele>
        <time>2022-06-26T09:08:51Z</time>
      </trkpt>
      <trkpt lat="45.93705" lon="4.40473">
        <ele>693.8</ele>
        <time>2022-06-26T09:08:52Z</time>
      </trkpt>
      <trkpt lat="45.93707" lon="4.40468">
        <ele>693.8</ele>
        <time>2022-06-26T09:08:53Z</time>
      </trkpt>
      <trkpt lat="45.93709" lon="4.40464">
        <ele>694</ele>
        <time>2022-06-26T09:08:54Z</time>
      </trkpt>
      <trkpt lat="45.93711" lon="4.4046">
        <ele>694</ele>
        <time>2022-06-26T09:08:55Z</time>
      </trkpt>
      <trkpt lat="45.93713" lon="4.40456">
        <ele>694</ele>
        <time>2022-06-26T09:08:56Z</time>
      </trkpt>
      <trkpt lat="45.93715" lon="4.40452">
        <ele>694</ele>
        <time>2022-06-26T09:08:57Z</time>
      </trkpt>
      <trkpt lat="45.93717" lon="4.40447">
        <ele>694.4</ele>
        <time>2022-06-26T09:08:58Z</time>
      </trkpt>
      <trkpt lat="45.93719" lon="4.40443">
        <ele>694.4</ele>
        <time>2022-06-26T09:08:59Z</time>
      </trkpt>
      <trkpt lat="45.93722" lon="4.40438">
        <ele>694.4</ele>
        <time>2022-06-26T09:09:00Z</time>
      </trkpt>
      <trkpt lat="45.93724" lon="4.40434">
        <ele>694.6</ele>
        <time>2022-06-26T09:09:01Z</time>
      </trkpt>
      <trkpt lat="45.93726" lon="4.40431">
        <ele>694.6</ele>
        <time>2022-06-26T09:09:02Z</time>
      </trkpt>
      <trkpt lat="45.93729" lon="4.40427">
        <ele>694.6</ele>
        <time>2022-06-26T09:09:03Z</time>
      </trkpt>
      <trkpt lat="45.93731" lon="4.40423">
        <ele>695</ele>
        <time>2022-06-26T09:09:04Z</time>
      </trkpt>
      <trkpt lat="45.93733" lon="4.4042">
        <ele>695</ele>
        <time>2022-06-26T09:09:05Z</time>
      </trkpt>
      <trkpt lat="45.93736" lon="4.40417">
        <ele>695</ele>
        <time>2022-06-26T09:09:06Z</time>
      </trkpt>
      <trkpt lat="45.93739" lon="4.40414">
        <ele>695.2</ele>
        <time>2022-06-26T09:09:07Z</time>
      </trkpt>
      <trkpt lat="45.93741" lon="4.4041">
        <ele>695.2</ele>
        <time>2022-06-26T09:09:08Z</time>
      </trkpt>
      <trkpt lat="45.93744" lon="4.40407">
        <ele>695.4</ele>
        <time>2022-06-26T09:09:09Z</time>
      </trkpt>
      <trkpt lat="45.93747" lon="4.40404">
        <ele>695.4</ele>
        <time>2022-06-26T09:09:10Z</time>
      </trkpt>
      <trkpt lat="45.9375" lon="4.40401">
        <ele>695.4</ele>
        <time>2022-06-26T09:09:11Z</time>
      </trkpt>
      <trkpt lat="45.93753" lon="4.40398">
        <ele>695.6</ele>
        <time>2022-06-26T09:09:12Z</time>
      </trkpt>
      <trkpt lat="45.93756" lon="4.40395">
        <ele>695.6</ele>
        <time>2022-06-26T09:09:13Z</time>
      </trkpt>
      <trkpt lat="45.93759" lon="4.40391">
        <ele>695.8</ele>
        <time>2022-06-26T09:09:14Z</time>
      </trkpt>
      <trkpt lat="45.93762" lon="4.40388">
        <ele>695.8</ele>
        <time>2022-06-26T09:09:15Z</time>
      </trkpt>
      <trkpt lat="45.93766" lon="4.40385">
        <ele>696</ele>
        <time>2022-06-26T09:09:16Z</time>
      </trkpt>
      <trkpt lat="45.93769" lon="4.40381">
        <ele>696</ele>
        <time>2022-06-26T09:09:17Z</time>
      </trkpt>
      <trkpt lat="45.93772" lon="4.40378">
        <ele>696</ele>
        <time>2022-06-26T09:09:18Z</time>
      </trkpt>
      <trkpt lat="45.93775" lon="4.40375">
        <ele>696</ele>
        <time>2022-06-26T09:09:19Z</time>
      </trkpt>
      <trkpt lat="45.93779" lon="4.40372">
        <ele>696.2</ele>
        <time>2022-06-26T09:09:20Z</time>
      </trkpt>
      <trkpt lat="45.93782" lon="4.40369">
        <ele>696.2</ele>
        <time>2022-06-26T09:09:21Z</time>
      </trkpt>
      <trkpt lat="45.93785" lon="4.40366">
        <ele>696.6</ele>
        <time>2022-06-26T09:09:22Z</time>
      </trkpt>
      <trkpt lat="45.93789" lon="4.40364">
        <ele>696.6</ele>
        <time>2022-06-26T09:09:23Z</time>
      </trkpt>
      <trkpt lat="45.93792" lon="4.40361">
        <ele>696.6</ele>
        <time>2022-06-26T09:09:24Z</time>
      </trkpt>
      <trkpt lat="45.93796" lon="4.40359">
        <ele>696.8</ele>
        <time>2022-06-26T09:09:25Z</time>
      </trkpt>
      <trkpt lat="45.938" lon="4.40357">
        <ele>696.8</ele>
        <time>2022-06-26T09:09:26Z</time>
      </trkpt>
      <trkpt lat="45.93804" lon="4.40356">
        <ele>696.8</ele>
        <time>2022-06-26T09:09:27Z</time>
      </trkpt>
      <trkpt lat="45.93807" lon="4.40354">
        <ele>697.2</ele>
        <time>2022-06-26T09:09:28Z</time>
      </trkpt>
      <trkpt lat="45.93811" lon="4.40352">
        <ele>697.2</ele>
        <time>2022-06-26T09:09:29Z</time>
      </trkpt>
      <trkpt lat="45.93814" lon="4.40351">
        <ele>697.2</ele>
        <time>2022-06-26T09:09:30Z</time>
      </trkpt>
      <trkpt lat="45.93817" lon="4.40349">
        <ele>697.4</ele>
        <time>2022-06-26T09:09:31Z</time>
      </trkpt>
      <trkpt lat="45.9382" lon="4.40348">
        <ele>697.4</ele>
        <time>2022-06-26T09:09:32Z</time>
      </trkpt>
      <trkpt lat="45.93823" lon="4.40347">
        <ele>697.4</ele>
        <time>2022-06-26T09:09:33Z</time>
      </trkpt>
      <trkpt lat="45.93827" lon="4.40345">
        <ele>697.8</ele>
        <time>2022-06-26T09:09:34Z</time>
      </trkpt>
      <trkpt lat="45.9383" lon="4.40345">
        <ele>697.8</ele>
        <time>2022-06-26T09:09:35Z</time>
      </trkpt>
      <trkpt lat="45.93833" lon="4.40345">
        <ele>698</ele>
        <time>2022-06-26T09:09:36Z</time>
      </trkpt>
      <trkpt lat="45.93837" lon="4.40344">
        <ele>698</ele>
        <time>2022-06-26T09:09:37Z</time>
      </trkpt>
      <trkpt lat="45.9384" lon="4.40343">
        <ele>698</ele>
        <time>2022-06-26T09:09:38Z</time>
      </trkpt>
      <trkpt lat="45.93844" lon="4.40342">
        <ele>698.4</ele>
        <time>2022-06-26T09:09:39Z</time>
      </trkpt>
      <trkpt lat="45.93847" lon="4.40341">
        <ele>698.4</ele>
        <time>2022-06-26T09:09:40Z</time>
      </trkpt>
      <trkpt lat="45.93851" lon="4.40341">
        <ele>698.4</ele>
        <time>2022-06-26T09:09:41Z</time>
      </trkpt>
      <trkpt lat="45.93854" lon="4.4034">
        <ele>698.6</ele>
        <time>2022-06-26T09:09:42Z</time>
      </trkpt>
      <trkpt lat="45.93858" lon="4.4034">
        <ele>698.6</ele>
        <time>2022-06-26T09:09:43Z</time>
      </trkpt>
      <trkpt lat="45.93861" lon="4.40339">
        <ele>698.8</ele>
        <time>2022-06-26T09:09:44Z</time>
      </trkpt>
      <trkpt lat="45.93865" lon="4.40338">
        <ele>698.8</ele>
        <time>2022-06-26T09:09:45Z</time>
      </trkpt>
      <trkpt lat="45.93868" lon="4.40338">
        <ele>698.8</ele>
        <time>2022-06-26T09:09:46Z</time>
      </trkpt>
      <trkpt lat="45.93872" lon="4.40338">
        <ele>699.2</ele>
        <time>2022-06-26T09:09:47Z</time>
      </trkpt>
      <trkpt lat="45.93875" lon="4.40338">
        <ele>699.2</ele>
        <time>2022-06-26T09:09:48Z</time>
      </trkpt>
      <trkpt lat="45.93879" lon="4.40338">
        <ele>699.4</ele>
        <time>2022-06-26T09:09:49Z</time>
      </trkpt>
      <trkpt lat="45.93882" lon="4.40339">
        <ele>699.4</ele>
        <time>2022-06-26T09:09:50Z</time>
      </trkpt>
      <trkpt lat="45.93886" lon="4.40339">
        <ele>699.4</ele>
        <time>2022-06-26T09:09:51Z</time>
      </trkpt>
      <trkpt lat="45.93889" lon="4.40339">
        <ele>699.4</ele>
        <time>2022-06-26T09:09:52Z</time>
      </trkpt>
      <trkpt lat="45.93893" lon="4.40338">
        <ele>699.4</ele>
        <time>2022-06-26T09:09:53Z</time>
      </trkpt>
      <trkpt lat="45.93896" lon="4.40338">
        <ele>699.4</ele>
        <time>2022-06-26T09:09:54Z</time>
      </trkpt>
      <trkpt lat="45.939" lon="4.40338">
        <ele>699.4</ele>
        <time>2022-06-26T09:09:55Z</time>
      </trkpt>
      <trkpt lat="45.93904" lon="4.40338">
        <ele>699.4</ele>
        <time>2022-06-26T09:09:56Z</time>
      </trkpt>
      <trkpt lat="45.93907" lon="4.40339">
        <ele>699.4</ele>
        <time>2022-06-26T09:09:57Z</time>
      </trkpt>
      <trkpt lat="45.93911" lon="4.40339">
        <ele>699.4</ele>
        <time>2022-06-26T09:09:58Z</time>
      </trkpt>
      <trkpt lat="45.93915" lon="4.40337">
        <ele>699.4</ele>
        <time>2022-06-26T09:09:59Z</time>
      </trkpt>
      <trkpt lat="45.93919" lon="4.40337">
        <ele>699.4</ele>
        <time>2022-06-26T09:10:00Z</time>
      </trkpt>
      <trkpt lat="45.93922" lon="4.40338">
        <ele>699.6</ele>
        <time>2022-06-26T09:10:01Z</time>
      </trkpt>
      <trkpt lat="45.93925" lon="4.40339">
        <ele>699.6</ele>
        <time>2022-06-26T09:10:02Z</time>
      </trkpt>
      <trkpt lat="45.9393" lon="4.40337">
        <ele>700.2</ele>
        <time>2022-06-26T09:10:03Z</time>
      </trkpt>
      <trkpt lat="45.93933" lon="4.40336">
        <ele>700.4</ele>
        <time>2022-06-26T09:10:04Z</time>
      </trkpt>
      <trkpt lat="45.93937" lon="4.40334">
        <ele>700.4</ele>
        <time>2022-06-26T09:10:05Z</time>
      </trkpt>
      <trkpt lat="45.93942" lon="4.40333">
        <ele>700.6</ele>
        <time>2022-06-26T09:10:06Z</time>
      </trkpt>
      <trkpt lat="45.93946" lon="4.40332">
        <ele>700.6</ele>
        <time>2022-06-26T09:10:07Z</time>
      </trkpt>
      <trkpt lat="45.9395" lon="4.40332">
        <ele>700.6</ele>
        <time>2022-06-26T09:10:08Z</time>
      </trkpt>
      <trkpt lat="45.93954" lon="4.40332">
        <ele>700.6</ele>
        <time>2022-06-26T09:10:09Z</time>
      </trkpt>
      <trkpt lat="45.93957" lon="4.40332">
        <ele>700.6</ele>
        <time>2022-06-26T09:10:10Z</time>
      </trkpt>
      <trkpt lat="45.93962" lon="4.40331">
        <ele>700.6</ele>
        <time>2022-06-26T09:10:11Z</time>
      </trkpt>
      <trkpt lat="45.93965" lon="4.4033">
        <ele>700.8</ele>
        <time>2022-06-26T09:10:12Z</time>
      </trkpt>
      <trkpt lat="45.93969" lon="4.40329">
        <ele>700.8</ele>
        <time>2022-06-26T09:10:13Z</time>
      </trkpt>
      <trkpt lat="45.93973" lon="4.40327">
        <ele>700.8</ele>
        <time>2022-06-26T09:10:14Z</time>
      </trkpt>
      <trkpt lat="45.93977" lon="4.40326">
        <ele>700.8</ele>
        <time>2022-06-26T09:10:15Z</time>
      </trkpt>
      <trkpt lat="45.93981" lon="4.40325">
        <ele>700.8</ele>
        <time>2022-06-26T09:10:16Z</time>
      </trkpt>
      <trkpt lat="45.93984" lon="4.40324">
        <ele>700.8</ele>
        <time>2022-06-26T09:10:17Z</time>
      </trkpt>
      <trkpt lat="45.93988" lon="4.40324">
        <ele>700.8</ele>
        <time>2022-06-26T09:10:18Z</time>
      </trkpt>
      <trkpt lat="45.93991" lon="4.40324">
        <ele>700.8</ele>
        <time>2022-06-26T09:10:19Z</time>
      </trkpt>
      <trkpt lat="45.93995" lon="4.40323">
        <ele>700.8</ele>
        <time>2022-06-26T09:10:20Z</time>
      </trkpt>
      <trkpt lat="45.93998" lon="4.40321">
        <ele>700.8</ele>
        <time>2022-06-26T09:10:21Z</time>
      </trkpt>
      <trkpt lat="45.94002" lon="4.4032">
        <ele>701.2</ele>
        <time>2022-06-26T09:10:22Z</time>
      </trkpt>
      <trkpt lat="45.94006" lon="4.40318">
        <ele>701.6</ele>
        <time>2022-06-26T09:10:23Z</time>
      </trkpt>
      <trkpt lat="45.9401" lon="4.40316">
        <ele>701.6</ele>
        <time>2022-06-26T09:10:24Z</time>
      </trkpt>
      <trkpt lat="45.94013" lon="4.40316">
        <ele>701</ele>
        <time>2022-06-26T09:10:25Z</time>
      </trkpt>
      <trkpt lat="45.94017" lon="4.40314">
        <ele>701</ele>
        <time>2022-06-26T09:10:26Z</time>
      </trkpt>
      <trkpt lat="45.94021" lon="4.40312">
        <ele>701</ele>
        <time>2022-06-26T09:10:27Z</time>
      </trkpt>
      <trkpt lat="45.94026" lon="4.4031">
        <ele>701</ele>
        <time>2022-06-26T09:10:28Z</time>
      </trkpt>
      <trkpt lat="45.94029" lon="4.40309">
        <ele>701</ele>
        <time>2022-06-26T09:10:29Z</time>
      </trkpt>
      <trkpt lat="45.94033" lon="4.40308">
        <ele>701</ele>
        <time>2022-06-26T09:10:30Z</time>
      </trkpt>
      <trkpt lat="45.94037" lon="4.40306">
        <ele>701</ele>
        <time>2022-06-26T09:10:31Z</time>
      </trkpt>
      <trkpt lat="45.94041" lon="4.40304">
        <ele>701.2</ele>
        <time>2022-06-26T09:10:32Z</time>
      </trkpt>
      <trkpt lat="45.94045" lon="4.40301">
        <ele>701.2</ele>
        <time>2022-06-26T09:10:33Z</time>
      </trkpt>
      <trkpt lat="45.94049" lon="4.40298">
        <ele>701.2</ele>
        <time>2022-06-26T09:10:34Z</time>
      </trkpt>
      <trkpt lat="45.94052" lon="4.40295">
        <ele>701.2</ele>
        <time>2022-06-26T09:10:35Z</time>
      </trkpt>
      <trkpt lat="45.94055" lon="4.40291">
        <ele>701</ele>
        <time>2022-06-26T09:10:36Z</time>
      </trkpt>
      <trkpt lat="45.94057" lon="4.40286">
        <ele>701.2</ele>
        <time>2022-06-26T09:10:37Z</time>
      </trkpt>
      <trkpt lat="45.94059" lon="4.40281">
        <ele>701.2</ele>
        <time>2022-06-26T09:10:38Z</time>
      </trkpt>
      <trkpt lat="45.94061" lon="4.40276">
        <ele>701.8</ele>
        <time>2022-06-26T09:10:39Z</time>
      </trkpt>
      <trkpt lat="45.94062" lon="4.4027">
        <ele>701.8</ele>
        <time>2022-06-26T09:10:40Z</time>
      </trkpt>
      <trkpt lat="45.94062" lon="4.40264">
        <ele>701.8</ele>
        <time>2022-06-26T09:10:41Z</time>
      </trkpt>
      <trkpt lat="45.94061" lon="4.40258">
        <ele>701.8</ele>
        <time>2022-06-26T09:10:42Z</time>
      </trkpt>
      <trkpt lat="45.94061" lon="4.40252">
        <ele>702</ele>
        <time>2022-06-26T09:10:43Z</time>
      </trkpt>
      <trkpt lat="45.9406" lon="4.40247">
        <ele>702</ele>
        <time>2022-06-26T09:10:44Z</time>
      </trkpt>
      <trkpt lat="45.94059" lon="4.40242">
        <ele>702</ele>
        <time>2022-06-26T09:10:45Z</time>
      </trkpt>
      <trkpt lat="45.94059" lon="4.40237">
        <ele>702.2</ele>
        <time>2022-06-26T09:10:46Z</time>
      </trkpt>
      <trkpt lat="45.94058" lon="4.40232">
        <ele>702.2</ele>
        <time>2022-06-26T09:10:47Z</time>
      </trkpt>
      <trkpt lat="45.94057" lon="4.40227">
        <ele>702.2</ele>
        <time>2022-06-26T09:10:48Z</time>
      </trkpt>
      <trkpt lat="45.94056" lon="4.40223">
        <ele>702.2</ele>
        <time>2022-06-26T09:10:49Z</time>
      </trkpt>
      <trkpt lat="45.94055" lon="4.40218">
        <ele>702.2</ele>
        <time>2022-06-26T09:10:50Z</time>
      </trkpt>
      <trkpt lat="45.94054" lon="4.40213">
        <ele>702.2</ele>
        <time>2022-06-26T09:10:51Z</time>
      </trkpt>
      <trkpt lat="45.94052" lon="4.40209">
        <ele>702.2</ele>
        <time>2022-06-26T09:10:52Z</time>
      </trkpt>
      <trkpt lat="45.9405" lon="4.40204">
        <ele>702.6</ele>
        <time>2022-06-26T09:10:53Z</time>
      </trkpt>
      <trkpt lat="45.94048" lon="4.40199">
        <ele>702.6</ele>
        <time>2022-06-26T09:10:54Z</time>
      </trkpt>
      <trkpt lat="45.94046" lon="4.40195">
        <ele>702.4</ele>
        <time>2022-06-26T09:10:55Z</time>
      </trkpt>
      <trkpt lat="45.94044" lon="4.4019">
        <ele>702.4</ele>
        <time>2022-06-26T09:10:56Z</time>
      </trkpt>
      <trkpt lat="45.94042" lon="4.40186">
        <ele>702.4</ele>
        <time>2022-06-26T09:10:57Z</time>
      </trkpt>
      <trkpt lat="45.94039" lon="4.40182">
        <ele>702.4</ele>
        <time>2022-06-26T09:10:58Z</time>
      </trkpt>
      <trkpt lat="45.94037" lon="4.40178">
        <ele>702.4</ele>
        <time>2022-06-26T09:10:59Z</time>
      </trkpt>
      <trkpt lat="45.94034" lon="4.40174">
        <ele>702.4</ele>
        <time>2022-06-26T09:11:00Z</time>
      </trkpt>
      <trkpt lat="45.94031" lon="4.4017">
        <ele>702.4</ele>
        <time>2022-06-26T09:11:01Z</time>
      </trkpt>
      <trkpt lat="45.94029" lon="4.40165">
        <ele>702.4</ele>
        <time>2022-06-26T09:11:02Z</time>
      </trkpt>
      <trkpt lat="45.94026" lon="4.40161">
        <ele>702.4</ele>
        <time>2022-06-26T09:11:03Z</time>
      </trkpt>
      <trkpt lat="45.94023" lon="4.40157">
        <ele>702.4</ele>
        <time>2022-06-26T09:11:04Z</time>
      </trkpt>
      <trkpt lat="45.94021" lon="4.40153">
        <ele>702.4</ele>
        <time>2022-06-26T09:11:05Z</time>
      </trkpt>
      <trkpt lat="45.94018" lon="4.40149">
        <ele>702.4</ele>
        <time>2022-06-26T09:11:06Z</time>
      </trkpt>
      <trkpt lat="45.94016" lon="4.40145">
        <ele>702.4</ele>
        <time>2022-06-26T09:11:07Z</time>
      </trkpt>
      <trkpt lat="45.94013" lon="4.40141">
        <ele>702.4</ele>
        <time>2022-06-26T09:11:08Z</time>
      </trkpt>
      <trkpt lat="45.94011" lon="4.40137">
        <ele>702.6</ele>
        <time>2022-06-26T09:11:09Z</time>
      </trkpt>
      <trkpt lat="45.94009" lon="4.40133">
        <ele>702.6</ele>
        <time>2022-06-26T09:11:10Z</time>
      </trkpt>
      <trkpt lat="45.94006" lon="4.40129">
        <ele>702.6</ele>
        <time>2022-06-26T09:11:11Z</time>
      </trkpt>
      <trkpt lat="45.94004" lon="4.40125">
        <ele>702.6</ele>
        <time>2022-06-26T09:11:12Z</time>
      </trkpt>
      <trkpt lat="45.94001" lon="4.40121">
        <ele>702.6</ele>
        <time>2022-06-26T09:11:13Z</time>
      </trkpt>
      <trkpt lat="45.93998" lon="4.40118">
        <ele>703</ele>
        <time>2022-06-26T09:11:14Z</time>
      </trkpt>
      <trkpt lat="45.93993" lon="4.4011">
        <ele>703</ele>
        <time>2022-06-26T09:11:15Z</time>
      </trkpt>
      <trkpt lat="45.9399" lon="4.40106">
        <ele>703</ele>
        <time>2022-06-26T09:11:16Z</time>
      </trkpt>
      <trkpt lat="45.93988" lon="4.40102">
        <ele>703</ele>
        <time>2022-06-26T09:11:17Z</time>
      </trkpt>
      <trkpt lat="45.93985" lon="4.40098">
        <ele>703.2</ele>
        <time>2022-06-26T09:11:18Z</time>
      </trkpt>
      <trkpt lat="45.93983" lon="4.40095">
        <ele>703.2</ele>
        <time>2022-06-26T09:11:19Z</time>
      </trkpt>
      <trkpt lat="45.9398" lon="4.40091">
        <ele>703.2</ele>
        <time>2022-06-26T09:11:20Z</time>
      </trkpt>
      <trkpt lat="45.93977" lon="4.40088">
        <ele>703.2</ele>
        <time>2022-06-26T09:11:21Z</time>
      </trkpt>
      <trkpt lat="45.93974" lon="4.40085">
        <ele>703.2</ele>
        <time>2022-06-26T09:11:22Z</time>
      </trkpt>
      <trkpt lat="45.93972" lon="4.40081">
        <ele>703.2</ele>
        <time>2022-06-26T09:11:23Z</time>
      </trkpt>
      <trkpt lat="45.9397" lon="4.40077">
        <ele>703.6</ele>
        <time>2022-06-26T09:11:24Z</time>
      </trkpt>
      <trkpt lat="45.93967" lon="4.40073">
        <ele>703.6</ele>
        <time>2022-06-26T09:11:25Z</time>
      </trkpt>
      <trkpt lat="45.93964" lon="4.40069">
        <ele>703.6</ele>
        <time>2022-06-26T09:11:26Z</time>
      </trkpt>
      <trkpt lat="45.93961" lon="4.40065">
        <ele>703.6</ele>
        <time>2022-06-26T09:11:27Z</time>
      </trkpt>
      <trkpt lat="45.93959" lon="4.40061">
        <ele>703.6</ele>
        <time>2022-06-26T09:11:28Z</time>
      </trkpt>
      <trkpt lat="45.93957" lon="4.40057">
        <ele>703.6</ele>
        <time>2022-06-26T09:11:29Z</time>
      </trkpt>
      <trkpt lat="45.93956" lon="4.40053">
        <ele>703.6</ele>
        <time>2022-06-26T09:11:30Z</time>
      </trkpt>
      <trkpt lat="45.93954" lon="4.40048">
        <ele>703.6</ele>
        <time>2022-06-26T09:11:31Z</time>
      </trkpt>
      <trkpt lat="45.93953" lon="4.40043">
        <ele>703.6</ele>
        <time>2022-06-26T09:11:32Z</time>
      </trkpt>
      <trkpt lat="45.93953" lon="4.40039">
        <ele>703.6</ele>
        <time>2022-06-26T09:11:33Z</time>
      </trkpt>
      <trkpt lat="45.93952" lon="4.40034">
        <ele>704</ele>
        <time>2022-06-26T09:11:34Z</time>
      </trkpt>
      <trkpt lat="45.93953" lon="4.40028">
        <ele>704</ele>
        <time>2022-06-26T09:11:35Z</time>
      </trkpt>
      <trkpt lat="45.93954" lon="4.40022">
        <ele>704</ele>
        <time>2022-06-26T09:11:36Z</time>
      </trkpt>
      <trkpt lat="45.93955" lon="4.40016">
        <ele>704.2</ele>
        <time>2022-06-26T09:11:37Z</time>
      </trkpt>
      <trkpt lat="45.93957" lon="4.40011">
        <ele>704.2</ele>
        <time>2022-06-26T09:11:38Z</time>
      </trkpt>
      <trkpt lat="45.93959" lon="4.40006">
        <ele>704.2</ele>
        <time>2022-06-26T09:11:39Z</time>
      </trkpt>
      <trkpt lat="45.93962" lon="4.40002">
        <ele>704.4</ele>
        <time>2022-06-26T09:11:40Z</time>
      </trkpt>
      <trkpt lat="45.93964" lon="4.39997">
        <ele>704.8</ele>
        <time>2022-06-26T09:11:41Z</time>
      </trkpt>
      <trkpt lat="45.93967" lon="4.39993">
        <ele>704.8</ele>
        <time>2022-06-26T09:11:42Z</time>
      </trkpt>
      <trkpt lat="45.9397" lon="4.3999">
        <ele>704.8</ele>
        <time>2022-06-26T09:11:43Z</time>
      </trkpt>
      <trkpt lat="45.93973" lon="4.39986">
        <ele>704.8</ele>
        <time>2022-06-26T09:11:44Z</time>
      </trkpt>
      <trkpt lat="45.93975" lon="4.39982">
        <ele>704.8</ele>
        <time>2022-06-26T09:11:45Z</time>
      </trkpt>
      <trkpt lat="45.93977" lon="4.39978">
        <ele>704.8</ele>
        <time>2022-06-26T09:11:46Z</time>
      </trkpt>
      <trkpt lat="45.9398" lon="4.39974">
        <ele>704.8</ele>
        <time>2022-06-26T09:11:47Z</time>
      </trkpt>
      <trkpt lat="45.93983" lon="4.3997">
        <ele>705</ele>
        <time>2022-06-26T09:11:48Z</time>
      </trkpt>
      <trkpt lat="45.93986" lon="4.39967">
        <ele>705</ele>
        <time>2022-06-26T09:11:49Z</time>
      </trkpt>
      <trkpt lat="45.93988" lon="4.39963">
        <ele>705</ele>
        <time>2022-06-26T09:11:50Z</time>
      </trkpt>
      <trkpt lat="45.93991" lon="4.39959">
        <ele>705</ele>
        <time>2022-06-26T09:11:51Z</time>
      </trkpt>
      <trkpt lat="45.93994" lon="4.39955">
        <ele>705</ele>
        <time>2022-06-26T09:11:52Z</time>
      </trkpt>
      <trkpt lat="45.93997" lon="4.39951">
        <ele>705</ele>
        <time>2022-06-26T09:11:53Z</time>
      </trkpt>
      <trkpt lat="45.94" lon="4.39948">
        <ele>705</ele>
        <time>2022-06-26T09:11:54Z</time>
      </trkpt>
      <trkpt lat="45.94003" lon="4.39944">
        <ele>705.2</ele>
        <time>2022-06-26T09:11:55Z</time>
      </trkpt>
      <trkpt lat="45.94006" lon="4.3994">
        <ele>705.2</ele>
        <time>2022-06-26T09:11:56Z</time>
      </trkpt>
      <trkpt lat="45.94008" lon="4.39936">
        <ele>705.2</ele>
        <time>2022-06-26T09:11:57Z</time>
      </trkpt>
      <trkpt lat="45.94011" lon="4.39932">
        <ele>705.2</ele>
        <time>2022-06-26T09:11:58Z</time>
      </trkpt>
      <trkpt lat="45.94013" lon="4.39928">
        <ele>705.2</ele>
        <time>2022-06-26T09:11:59Z</time>
      </trkpt>
      <trkpt lat="45.94015" lon="4.39923">
        <ele>705.2</ele>
        <time>2022-06-26T09:12:00Z</time>
      </trkpt>
      <trkpt lat="45.94017" lon="4.39917">
        <ele>705.8</ele>
        <time>2022-06-26T09:12:01Z</time>
      </trkpt>
      <trkpt lat="45.94018" lon="4.39912">
        <ele>706</ele>
        <time>2022-06-26T09:12:02Z</time>
      </trkpt>
      <trkpt lat="45.94019" lon="4.39907">
        <ele>706.2</ele>
        <time>2022-06-26T09:12:03Z</time>
      </trkpt>
      <trkpt lat="45.9402" lon="4.39902">
        <ele>706.2</ele>
        <time>2022-06-26T09:12:04Z</time>
      </trkpt>
      <trkpt lat="45.9402" lon="4.39896">
        <ele>706.2</ele>
        <time>2022-06-26T09:12:05Z</time>
      </trkpt>
      <trkpt lat="45.94019" lon="4.39891">
        <ele>706.2</ele>
        <time>2022-06-26T09:12:06Z</time>
      </trkpt>
      <trkpt lat="45.94018" lon="4.39885">
        <ele>706.6</ele>
        <time>2022-06-26T09:12:07Z</time>
      </trkpt>
      <trkpt lat="45.94017" lon="4.3988">
        <ele>706.6</ele>
        <time>2022-06-26T09:12:08Z</time>
      </trkpt>
      <trkpt lat="45.94017" lon="4.39877">
        <ele>706.6</ele>
        <time>2022-06-26T09:12:09Z</time>
      </trkpt>
      <trkpt lat="45.94016" lon="4.39874">
        <ele>707.4</ele>
        <time>2022-06-26T09:12:10Z</time>
      </trkpt>
      <trkpt lat="45.94015" lon="4.39868">
        <ele>708</ele>
        <time>2022-06-26T09:12:11Z</time>
      </trkpt>
      <trkpt lat="45.94014" lon="4.39863">
        <ele>708.6</ele>
        <time>2022-06-26T09:12:12Z</time>
      </trkpt>
      <trkpt lat="45.94013" lon="4.39857">
        <ele>708.8</ele>
        <time>2022-06-26T09:12:13Z</time>
      </trkpt>
      <trkpt lat="45.94012" lon="4.39852">
        <ele>709.2</ele>
        <time>2022-06-26T09:12:14Z</time>
      </trkpt>
      <trkpt lat="45.9401" lon="4.39846">
        <ele>709.4</ele>
        <time>2022-06-26T09:12:15Z</time>
      </trkpt>
      <trkpt lat="45.94009" lon="4.39841">
        <ele>709.4</ele>
        <time>2022-06-26T09:12:16Z</time>
      </trkpt>
      <trkpt lat="45.94008" lon="4.39835">
        <ele>709.6</ele>
        <time>2022-06-26T09:12:17Z</time>
      </trkpt>
      <trkpt lat="45.94007" lon="4.39829">
        <ele>709.6</ele>
        <time>2022-06-26T09:12:18Z</time>
      </trkpt>
      <trkpt lat="45.94006" lon="4.39823">
        <ele>709.8</ele>
        <time>2022-06-26T09:12:19Z</time>
      </trkpt>
      <trkpt lat="45.94005" lon="4.39818">
        <ele>709.8</ele>
        <time>2022-06-26T09:12:20Z</time>
      </trkpt>
      <trkpt lat="45.94004" lon="4.39812">
        <ele>709.8</ele>
        <time>2022-06-26T09:12:21Z</time>
      </trkpt>
      <trkpt lat="45.94002" lon="4.39806">
        <ele>709.8</ele>
        <time>2022-06-26T09:12:22Z</time>
      </trkpt>
      <trkpt lat="45.94001" lon="4.39801">
        <ele>709.8</ele>
        <time>2022-06-26T09:12:23Z</time>
      </trkpt>
      <trkpt lat="45.93999" lon="4.39796">
        <ele>709.8</ele>
        <time>2022-06-26T09:12:24Z</time>
      </trkpt>
      <trkpt lat="45.93997" lon="4.39791">
        <ele>709.8</ele>
        <time>2022-06-26T09:12:25Z</time>
      </trkpt>
      <trkpt lat="45.93995" lon="4.39786">
        <ele>709.8</ele>
        <time>2022-06-26T09:12:26Z</time>
      </trkpt>
      <trkpt lat="45.93993" lon="4.3978">
        <ele>709.8</ele>
        <time>2022-06-26T09:12:27Z</time>
      </trkpt>
      <trkpt lat="45.9399" lon="4.39775">
        <ele>710</ele>
        <time>2022-06-26T09:12:28Z</time>
      </trkpt>
      <trkpt lat="45.93988" lon="4.3977">
        <ele>710</ele>
        <time>2022-06-26T09:12:29Z</time>
      </trkpt>
      <trkpt lat="45.93985" lon="4.39764">
        <ele>710</ele>
        <time>2022-06-26T09:12:30Z</time>
      </trkpt>
      <trkpt lat="45.93983" lon="4.39759">
        <ele>710</ele>
        <time>2022-06-26T09:12:31Z</time>
      </trkpt>
      <trkpt lat="45.9398" lon="4.39754">
        <ele>710</ele>
        <time>2022-06-26T09:12:32Z</time>
      </trkpt>
      <trkpt lat="45.93976" lon="4.39748">
        <ele>710</ele>
        <time>2022-06-26T09:12:33Z</time>
      </trkpt>
      <trkpt lat="45.93973" lon="4.39743">
        <ele>710</ele>
        <time>2022-06-26T09:12:34Z</time>
      </trkpt>
      <trkpt lat="45.93969" lon="4.39737">
        <ele>710</ele>
        <time>2022-06-26T09:12:35Z</time>
      </trkpt>
      <trkpt lat="45.93966" lon="4.39732">
        <ele>710</ele>
        <time>2022-06-26T09:12:36Z</time>
      </trkpt>
      <trkpt lat="45.93963" lon="4.39726">
        <ele>710</ele>
        <time>2022-06-26T09:12:37Z</time>
      </trkpt>
      <trkpt lat="45.93959" lon="4.3972">
        <ele>710</ele>
        <time>2022-06-26T09:12:38Z</time>
      </trkpt>
      <trkpt lat="45.93957" lon="4.39713">
        <ele>709.6</ele>
        <time>2022-06-26T09:12:39Z</time>
      </trkpt>
      <trkpt lat="45.93954" lon="4.39707">
        <ele>709.6</ele>
        <time>2022-06-26T09:12:40Z</time>
      </trkpt>
      <trkpt lat="45.93952" lon="4.39699">
        <ele>709.6</ele>
        <time>2022-06-26T09:12:41Z</time>
      </trkpt>
      <trkpt lat="45.93949" lon="4.39692">
        <ele>709.2</ele>
        <time>2022-06-26T09:12:42Z</time>
      </trkpt>
      <trkpt lat="45.93946" lon="4.39684">
        <ele>709.2</ele>
        <time>2022-06-26T09:12:43Z</time>
      </trkpt>
      <trkpt lat="45.93944" lon="4.39677">
        <ele>709.2</ele>
        <time>2022-06-26T09:12:44Z</time>
      </trkpt>
      <trkpt lat="45.93941" lon="4.39669">
        <ele>709.2</ele>
        <time>2022-06-26T09:12:45Z</time>
      </trkpt>
      <trkpt lat="45.93938" lon="4.39661">
        <ele>709.2</ele>
        <time>2022-06-26T09:12:46Z</time>
      </trkpt>
      <trkpt lat="45.93936" lon="4.39653">
        <ele>709.2</ele>
        <time>2022-06-26T09:12:47Z</time>
      </trkpt>
      <trkpt lat="45.93933" lon="4.39644">
        <ele>709.2</ele>
        <time>2022-06-26T09:12:48Z</time>
      </trkpt>
      <trkpt lat="45.93931" lon="4.39637">
        <ele>709.2</ele>
        <time>2022-06-26T09:12:49Z</time>
      </trkpt>
      <trkpt lat="45.93927" lon="4.39629">
        <ele>709.2</ele>
        <time>2022-06-26T09:12:50Z</time>
      </trkpt>
      <trkpt lat="45.93923" lon="4.39622">
        <ele>709.2</ele>
        <time>2022-06-26T09:12:51Z</time>
      </trkpt>
      <trkpt lat="45.93919" lon="4.39615">
        <ele>709.2</ele>
        <time>2022-06-26T09:12:52Z</time>
      </trkpt>
      <trkpt lat="45.93915" lon="4.39609">
        <ele>709.2</ele>
        <time>2022-06-26T09:12:53Z</time>
      </trkpt>
      <trkpt lat="45.9391" lon="4.39603">
        <ele>709.2</ele>
        <time>2022-06-26T09:12:54Z</time>
      </trkpt>
      <trkpt lat="45.93904" lon="4.39598">
        <ele>709.2</ele>
        <time>2022-06-26T09:12:55Z</time>
      </trkpt>
      <trkpt lat="45.93898" lon="4.39594">
        <ele>709.2</ele>
        <time>2022-06-26T09:12:56Z</time>
      </trkpt>
      <trkpt lat="45.93892" lon="4.39591">
        <ele>709.2</ele>
        <time>2022-06-26T09:12:57Z</time>
      </trkpt>
      <trkpt lat="45.93885" lon="4.39589">
        <ele>709.2</ele>
        <time>2022-06-26T09:12:58Z</time>
      </trkpt>
      <trkpt lat="45.93878" lon="4.39588">
        <ele>709</ele>
        <time>2022-06-26T09:12:59Z</time>
      </trkpt>
      <trkpt lat="45.93871" lon="4.39589">
        <ele>709</ele>
        <time>2022-06-26T09:13:00Z</time>
      </trkpt>
      <trkpt lat="45.93865" lon="4.39591">
        <ele>708.8</ele>
        <time>2022-06-26T09:13:01Z</time>
      </trkpt>
      <trkpt lat="45.93858" lon="4.39593">
        <ele>708.8</ele>
        <time>2022-06-26T09:13:02Z</time>
      </trkpt>
      <trkpt lat="45.93851" lon="4.39595">
        <ele>708.8</ele>
        <time>2022-06-26T09:13:03Z</time>
      </trkpt>
      <trkpt lat="45.93845" lon="4.39595">
        <ele>708.6</ele>
        <time>2022-06-26T09:13:04Z</time>
      </trkpt>
      <trkpt lat="45.93838" lon="4.39593">
        <ele>708.6</ele>
        <time>2022-06-26T09:13:05Z</time>
      </trkpt>
      <trkpt lat="45.93832" lon="4.3959">
        <ele>708.2</ele>
        <time>2022-06-26T09:13:06Z</time>
      </trkpt>
      <trkpt lat="45.93826" lon="4.39585">
        <ele>708</ele>
        <time>2022-06-26T09:13:07Z</time>
      </trkpt>
      <trkpt lat="45.93821" lon="4.39579">
        <ele>707.6</ele>
        <time>2022-06-26T09:13:08Z</time>
      </trkpt>
      <trkpt lat="45.93816" lon="4.39571">
        <ele>707.6</ele>
        <time>2022-06-26T09:13:09Z</time>
      </trkpt>
      <trkpt lat="45.93812" lon="4.39564">
        <ele>707.6</ele>
        <time>2022-06-26T09:13:10Z</time>
      </trkpt>
      <trkpt lat="45.93808" lon="4.39556">
        <ele>707.4</ele>
        <time>2022-06-26T09:13:11Z</time>
      </trkpt>
      <trkpt lat="45.93804" lon="4.39548">
        <ele>707.4</ele>
        <time>2022-06-26T09:13:12Z</time>
      </trkpt>
      <trkpt lat="45.93801" lon="4.39539">
        <ele>707.4</ele>
        <time>2022-06-26T09:13:13Z</time>
      </trkpt>
      <trkpt lat="45.93799" lon="4.39531">
        <ele>707.4</ele>
        <time>2022-06-26T09:13:14Z</time>
      </trkpt>
      <trkpt lat="45.93796" lon="4.39522">
        <ele>707.4</ele>
        <time>2022-06-26T09:13:15Z</time>
      </trkpt>
      <trkpt lat="45.93794" lon="4.39513">
        <ele>707.4</ele>
        <time>2022-06-26T09:13:16Z</time>
      </trkpt>
      <trkpt lat="45.93792" lon="4.39504">
        <ele>707.4</ele>
        <time>2022-06-26T09:13:17Z</time>
      </trkpt>
      <trkpt lat="45.93791" lon="4.39495">
        <ele>707.4</ele>
        <time>2022-06-26T09:13:18Z</time>
      </trkpt>
      <trkpt lat="45.93789" lon="4.39486">
        <ele>707.4</ele>
        <time>2022-06-26T09:13:19Z</time>
      </trkpt>
      <trkpt lat="45.93787" lon="4.39477">
        <ele>706.8</ele>
        <time>2022-06-26T09:13:20Z</time>
      </trkpt>
      <trkpt lat="45.93786" lon="4.39467">
        <ele>706.8</ele>
        <time>2022-06-26T09:13:21Z</time>
      </trkpt>
      <trkpt lat="45.93784" lon="4.39458">
        <ele>706.8</ele>
        <time>2022-06-26T09:13:22Z</time>
      </trkpt>
      <trkpt lat="45.93783" lon="4.39448">
        <ele>706.8</ele>
        <time>2022-06-26T09:13:23Z</time>
      </trkpt>
      <trkpt lat="45.93781" lon="4.39439">
        <ele>707</ele>
        <time>2022-06-26T09:13:24Z</time>
      </trkpt>
      <trkpt lat="45.9378" lon="4.3943">
        <ele>707</ele>
        <time>2022-06-26T09:13:25Z</time>
      </trkpt>
      <trkpt lat="45.93779" lon="4.39421">
        <ele>707</ele>
        <time>2022-06-26T09:13:26Z</time>
      </trkpt>
      <trkpt lat="45.93778" lon="4.39413">
        <ele>707</ele>
        <time>2022-06-26T09:13:27Z</time>
      </trkpt>
      <trkpt lat="45.93776" lon="4.39404">
        <ele>707</ele>
        <time>2022-06-26T09:13:28Z</time>
      </trkpt>
      <trkpt lat="45.93774" lon="4.39396">
        <ele>707</ele>
        <time>2022-06-26T09:13:29Z</time>
      </trkpt>
      <trkpt lat="45.93772" lon="4.39387">
        <ele>707</ele>
        <time>2022-06-26T09:13:30Z</time>
      </trkpt>
      <trkpt lat="45.93769" lon="4.39379">
        <ele>707</ele>
        <time>2022-06-26T09:13:31Z</time>
      </trkpt>
      <trkpt lat="45.93765" lon="4.39372">
        <ele>707</ele>
        <time>2022-06-26T09:13:32Z</time>
      </trkpt>
      <trkpt lat="45.93761" lon="4.39365">
        <ele>707</ele>
        <time>2022-06-26T09:13:33Z</time>
      </trkpt>
      <trkpt lat="45.93757" lon="4.39358">
        <ele>707</ele>
        <time>2022-06-26T09:13:34Z</time>
      </trkpt>
      <trkpt lat="45.93752" lon="4.39352">
        <ele>707</ele>
        <time>2022-06-26T09:13:35Z</time>
      </trkpt>
      <trkpt lat="45.93747" lon="4.39347">
        <ele>707</ele>
        <time>2022-06-26T09:13:36Z</time>
      </trkpt>
      <trkpt lat="45.93743" lon="4.39342">
        <ele>707.2</ele>
        <time>2022-06-26T09:13:37Z</time>
      </trkpt>
      <trkpt lat="45.93738" lon="4.39338">
        <ele>707.2</ele>
        <time>2022-06-26T09:13:38Z</time>
      </trkpt>
      <trkpt lat="45.93733" lon="4.39334">
        <ele>707.2</ele>
        <time>2022-06-26T09:13:39Z</time>
      </trkpt>
      <trkpt lat="45.93728" lon="4.39331">
        <ele>707.2</ele>
        <time>2022-06-26T09:13:40Z</time>
      </trkpt>
      <trkpt lat="45.93723" lon="4.39328">
        <ele>707.2</ele>
        <time>2022-06-26T09:13:41Z</time>
      </trkpt>
      <trkpt lat="45.93717" lon="4.39327">
        <ele>707.2</ele>
        <time>2022-06-26T09:13:42Z</time>
      </trkpt>
      <trkpt lat="45.93711" lon="4.39328">
        <ele>707.2</ele>
        <time>2022-06-26T09:13:43Z</time>
      </trkpt>
      <trkpt lat="45.93706" lon="4.39329">
        <ele>707.4</ele>
        <time>2022-06-26T09:13:44Z</time>
      </trkpt>
      <trkpt lat="45.93701" lon="4.39331">
        <ele>707.4</ele>
        <time>2022-06-26T09:13:45Z</time>
      </trkpt>
      <trkpt lat="45.93696" lon="4.39333">
        <ele>707.4</ele>
        <time>2022-06-26T09:13:46Z</time>
      </trkpt>
      <trkpt lat="45.93691" lon="4.39336">
        <ele>707.8</ele>
        <time>2022-06-26T09:13:47Z</time>
      </trkpt>
      <trkpt lat="45.93687" lon="4.39338">
        <ele>707.8</ele>
        <time>2022-06-26T09:13:48Z</time>
      </trkpt>
      <trkpt lat="45.93683" lon="4.39341">
        <ele>707.8</ele>
        <time>2022-06-26T09:13:49Z</time>
      </trkpt>
      <trkpt lat="45.93678" lon="4.39343">
        <ele>707.8</ele>
        <time>2022-06-26T09:13:50Z</time>
      </trkpt>
      <trkpt lat="45.93674" lon="4.39345">
        <ele>707.8</ele>
        <time>2022-06-26T09:13:51Z</time>
      </trkpt>
      <trkpt lat="45.9367" lon="4.39347">
        <ele>708</ele>
        <time>2022-06-26T09:13:52Z</time>
      </trkpt>
      <trkpt lat="45.93666" lon="4.3935">
        <ele>708.2</ele>
        <time>2022-06-26T09:13:53Z</time>
      </trkpt>
      <trkpt lat="45.93662" lon="4.39352">
        <ele>708.2</ele>
        <time>2022-06-26T09:13:54Z</time>
      </trkpt>
      <trkpt lat="45.93658" lon="4.39355">
        <ele>708.6</ele>
        <time>2022-06-26T09:13:55Z</time>
      </trkpt>
      <trkpt lat="45.93654" lon="4.39359">
        <ele>708.6</ele>
        <time>2022-06-26T09:13:56Z</time>
      </trkpt>
      <trkpt lat="45.9365" lon="4.39364">
        <ele>708.6</ele>
        <time>2022-06-26T09:13:57Z</time>
      </trkpt>
      <trkpt lat="45.93647" lon="4.39368">
        <ele>708.6</ele>
        <time>2022-06-26T09:13:58Z</time>
      </trkpt>
      <trkpt lat="45.93644" lon="4.39372">
        <ele>708.6</ele>
        <time>2022-06-26T09:13:59Z</time>
      </trkpt>
      <trkpt lat="45.93642" lon="4.39376">
        <ele>708.6</ele>
        <time>2022-06-26T09:14:00Z</time>
      </trkpt>
      <trkpt lat="45.9364" lon="4.3938">
        <ele>708.6</ele>
        <time>2022-06-26T09:14:01Z</time>
      </trkpt>
      <trkpt lat="45.93638" lon="4.39384">
        <ele>708.6</ele>
        <time>2022-06-26T09:14:02Z</time>
      </trkpt>
      <trkpt lat="45.93636" lon="4.39389">
        <ele>708.6</ele>
        <time>2022-06-26T09:14:03Z</time>
      </trkpt>
      <trkpt lat="45.93634" lon="4.39394">
        <ele>709</ele>
        <time>2022-06-26T09:14:04Z</time>
      </trkpt>
      <trkpt lat="45.93632" lon="4.39399">
        <ele>709</ele>
        <time>2022-06-26T09:14:05Z</time>
      </trkpt>
      <trkpt lat="45.9363" lon="4.39405">
        <ele>709.2</ele>
        <time>2022-06-26T09:14:06Z</time>
      </trkpt>
      <trkpt lat="45.93627" lon="4.39412">
        <ele>709.2</ele>
        <time>2022-06-26T09:14:07Z</time>
      </trkpt>
      <trkpt lat="45.93625" lon="4.39418">
        <ele>709.2</ele>
        <time>2022-06-26T09:14:08Z</time>
      </trkpt>
      <trkpt lat="45.93623" lon="4.39424">
        <ele>709.4</ele>
        <time>2022-06-26T09:14:09Z</time>
      </trkpt>
      <trkpt lat="45.93621" lon="4.3943">
        <ele>709.4</ele>
        <time>2022-06-26T09:14:10Z</time>
      </trkpt>
      <trkpt lat="45.93619" lon="4.39437">
        <ele>709.4</ele>
        <time>2022-06-26T09:14:11Z</time>
      </trkpt>
      <trkpt lat="45.93618" lon="4.39443">
        <ele>709.6</ele>
        <time>2022-06-26T09:14:12Z</time>
      </trkpt>
      <trkpt lat="45.93616" lon="4.39449">
        <ele>709.6</ele>
        <time>2022-06-26T09:14:13Z</time>
      </trkpt>
      <trkpt lat="45.93614" lon="4.39456">
        <ele>709.6</ele>
        <time>2022-06-26T09:14:14Z</time>
      </trkpt>
      <trkpt lat="45.93612" lon="4.39463">
        <ele>709.6</ele>
        <time>2022-06-26T09:14:15Z</time>
      </trkpt>
      <trkpt lat="45.9361" lon="4.39469">
        <ele>709.6</ele>
        <time>2022-06-26T09:14:16Z</time>
      </trkpt>
      <trkpt lat="45.93609" lon="4.39476">
        <ele>709.6</ele>
        <time>2022-06-26T09:14:17Z</time>
      </trkpt>
      <trkpt lat="45.93607" lon="4.39482">
        <ele>709.6</ele>
        <time>2022-06-26T09:14:18Z</time>
      </trkpt>
      <trkpt lat="45.93605" lon="4.39488">
        <ele>709.6</ele>
        <time>2022-06-26T09:14:19Z</time>
      </trkpt>
      <trkpt lat="45.93603" lon="4.39493">
        <ele>709.6</ele>
        <time>2022-06-26T09:14:20Z</time>
      </trkpt>
      <trkpt lat="45.93601" lon="4.39498">
        <ele>709.6</ele>
        <time>2022-06-26T09:14:21Z</time>
      </trkpt>
      <trkpt lat="45.93598" lon="4.39503">
        <ele>709.6</ele>
        <time>2022-06-26T09:14:22Z</time>
      </trkpt>
      <trkpt lat="45.93595" lon="4.39507">
        <ele>710</ele>
        <time>2022-06-26T09:14:23Z</time>
      </trkpt>
      <trkpt lat="45.93593" lon="4.39512">
        <ele>710</ele>
        <time>2022-06-26T09:14:24Z</time>
      </trkpt>
      <trkpt lat="45.9359" lon="4.39517">
        <ele>710.2</ele>
        <time>2022-06-26T09:14:25Z</time>
      </trkpt>
      <trkpt lat="45.93587" lon="4.39522">
        <ele>710.2</ele>
        <time>2022-06-26T09:14:26Z</time>
      </trkpt>
      <trkpt lat="45.93583" lon="4.39528">
        <ele>710.6</ele>
        <time>2022-06-26T09:14:27Z</time>
      </trkpt>
      <trkpt lat="45.93581" lon="4.39533">
        <ele>710.6</ele>
        <time>2022-06-26T09:14:28Z</time>
      </trkpt>
      <trkpt lat="45.93578" lon="4.39538">
        <ele>710.8</ele>
        <time>2022-06-26T09:14:29Z</time>
      </trkpt>
      <trkpt lat="45.93576" lon="4.39543">
        <ele>710.8</ele>
        <time>2022-06-26T09:14:30Z</time>
      </trkpt>
      <trkpt lat="45.93575" lon="4.3955">
        <ele>710.8</ele>
        <time>2022-06-26T09:14:31Z</time>
      </trkpt>
      <trkpt lat="45.93573" lon="4.39556">
        <ele>711.2</ele>
        <time>2022-06-26T09:14:32Z</time>
      </trkpt>
      <trkpt lat="45.93571" lon="4.39563">
        <ele>711.2</ele>
        <time>2022-06-26T09:14:33Z</time>
      </trkpt>
      <trkpt lat="45.93569" lon="4.39569">
        <ele>711.2</ele>
        <time>2022-06-26T09:14:34Z</time>
      </trkpt>
      <trkpt lat="45.93567" lon="4.39575">
        <ele>711.4</ele>
        <time>2022-06-26T09:14:35Z</time>
      </trkpt>
      <trkpt lat="45.93566" lon="4.39581">
        <ele>711.6</ele>
        <time>2022-06-26T09:14:36Z</time>
      </trkpt>
      <trkpt lat="45.93564" lon="4.39587">
        <ele>711.6</ele>
        <time>2022-06-26T09:14:37Z</time>
      </trkpt>
      <trkpt lat="45.93562" lon="4.39593">
        <ele>711.6</ele>
        <time>2022-06-26T09:14:38Z</time>
      </trkpt>
      <trkpt lat="45.9356" lon="4.39599">
        <ele>712</ele>
        <time>2022-06-26T09:14:39Z</time>
      </trkpt>
      <trkpt lat="45.93558" lon="4.39606">
        <ele>712</ele>
        <time>2022-06-26T09:14:40Z</time>
      </trkpt>
      <trkpt lat="45.93556" lon="4.39612">
        <ele>712</ele>
        <time>2022-06-26T09:14:41Z</time>
      </trkpt>
      <trkpt lat="45.93554" lon="4.39619">
        <ele>712</ele>
        <time>2022-06-26T09:14:42Z</time>
      </trkpt>
      <trkpt lat="45.93552" lon="4.39625">
        <ele>712.4</ele>
        <time>2022-06-26T09:14:43Z</time>
      </trkpt>
      <trkpt lat="45.9355" lon="4.39632">
        <ele>712.4</ele>
        <time>2022-06-26T09:14:44Z</time>
      </trkpt>
      <trkpt lat="45.93548" lon="4.39638">
        <ele>712.4</ele>
        <time>2022-06-26T09:14:45Z</time>
      </trkpt>
      <trkpt lat="45.93546" lon="4.39644">
        <ele>712.4</ele>
        <time>2022-06-26T09:14:46Z</time>
      </trkpt>
      <trkpt lat="45.93545" lon="4.3965">
        <ele>712.2</ele>
        <time>2022-06-26T09:14:47Z</time>
      </trkpt>
      <trkpt lat="45.93544" lon="4.39656">
        <ele>712.2</ele>
        <time>2022-06-26T09:14:48Z</time>
      </trkpt>
      <trkpt lat="45.93542" lon="4.39662">
        <ele>712.2</ele>
        <time>2022-06-26T09:14:49Z</time>
      </trkpt>
      <trkpt lat="45.9354" lon="4.39668">
        <ele>712.2</ele>
        <time>2022-06-26T09:14:50Z</time>
      </trkpt>
      <trkpt lat="45.93538" lon="4.39673">
        <ele>712.2</ele>
        <time>2022-06-26T09:14:51Z</time>
      </trkpt>
      <trkpt lat="45.93536" lon="4.39679">
        <ele>712.2</ele>
        <time>2022-06-26T09:14:52Z</time>
      </trkpt>
      <trkpt lat="45.93534" lon="4.39685">
        <ele>712.2</ele>
        <time>2022-06-26T09:14:53Z</time>
      </trkpt>
      <trkpt lat="45.93532" lon="4.39692">
        <ele>712.2</ele>
        <time>2022-06-26T09:14:54Z</time>
      </trkpt>
      <trkpt lat="45.9353" lon="4.39698">
        <ele>712.2</ele>
        <time>2022-06-26T09:14:55Z</time>
      </trkpt>
      <trkpt lat="45.93527" lon="4.39703">
        <ele>712.2</ele>
        <time>2022-06-26T09:14:56Z</time>
      </trkpt>
      <trkpt lat="45.93524" lon="4.39709">
        <ele>712.2</ele>
        <time>2022-06-26T09:14:57Z</time>
      </trkpt>
      <trkpt lat="45.9352" lon="4.39715">
        <ele>712.2</ele>
        <time>2022-06-26T09:14:58Z</time>
      </trkpt>
      <trkpt lat="45.93514" lon="4.39721">
        <ele>712.2</ele>
        <time>2022-06-26T09:14:59Z</time>
      </trkpt>
      <trkpt lat="45.9351" lon="4.39725">
        <ele>712.2</ele>
        <time>2022-06-26T09:15:00Z</time>
      </trkpt>
      <trkpt lat="45.93505" lon="4.3973">
        <ele>712.4</ele>
        <time>2022-06-26T09:15:01Z</time>
      </trkpt>
      <trkpt lat="45.93502" lon="4.39733">
        <ele>712.4</ele>
        <time>2022-06-26T09:15:02Z</time>
      </trkpt>
      <trkpt lat="45.93499" lon="4.39736">
        <ele>712.4</ele>
        <time>2022-06-26T09:15:03Z</time>
      </trkpt>
      <trkpt lat="45.93495" lon="4.39739">
        <ele>712.4</ele>
        <time>2022-06-26T09:15:04Z</time>
      </trkpt>
      <trkpt lat="45.9349" lon="4.39742">
        <ele>712.4</ele>
        <time>2022-06-26T09:15:05Z</time>
      </trkpt>
      <trkpt lat="45.93487" lon="4.39744">
        <ele>712.8</ele>
        <time>2022-06-26T09:15:06Z</time>
      </trkpt>
      <trkpt lat="45.93484" lon="4.39747">
        <ele>712.8</ele>
        <time>2022-06-26T09:15:07Z</time>
      </trkpt>
      <trkpt lat="45.93482" lon="4.39749">
        <ele>712.8</ele>
        <time>2022-06-26T09:15:08Z</time>
      </trkpt>
      <trkpt lat="45.93478" lon="4.39752">
        <ele>712.8</ele>
        <time>2022-06-26T09:15:09Z</time>
      </trkpt>
      <trkpt lat="45.93475" lon="4.39754">
        <ele>712.8</ele>
        <time>2022-06-26T09:15:10Z</time>
      </trkpt>
      <trkpt lat="45.93471" lon="4.39757">
        <ele>712.8</ele>
        <time>2022-06-26T09:15:11Z</time>
      </trkpt>
      <trkpt lat="45.93466" lon="4.39761">
        <ele>712.8</ele>
        <time>2022-06-26T09:15:12Z</time>
      </trkpt>
      <trkpt lat="45.93462" lon="4.39765">
        <ele>712.8</ele>
        <time>2022-06-26T09:15:13Z</time>
      </trkpt>
      <trkpt lat="45.93457" lon="4.39769">
        <ele>713</ele>
        <time>2022-06-26T09:15:14Z</time>
      </trkpt>
      <trkpt lat="45.93453" lon="4.39772">
        <ele>713</ele>
        <time>2022-06-26T09:15:15Z</time>
      </trkpt>
      <trkpt lat="45.93448" lon="4.39774">
        <ele>713</ele>
        <time>2022-06-26T09:15:16Z</time>
      </trkpt>
      <trkpt lat="45.93444" lon="4.39777">
        <ele>713</ele>
        <time>2022-06-26T09:15:17Z</time>
      </trkpt>
      <trkpt lat="45.9344" lon="4.39779">
        <ele>713</ele>
        <time>2022-06-26T09:15:18Z</time>
      </trkpt>
      <trkpt lat="45.93436" lon="4.39782">
        <ele>713.2</ele>
        <time>2022-06-26T09:15:19Z</time>
      </trkpt>
      <trkpt lat="45.93432" lon="4.39784">
        <ele>713.4</ele>
        <time>2022-06-26T09:15:20Z</time>
      </trkpt>
      <trkpt lat="45.93427" lon="4.39788">
        <ele>713.4</ele>
        <time>2022-06-26T09:15:21Z</time>
      </trkpt>
      <trkpt lat="45.93422" lon="4.3979">
        <ele>713.4</ele>
        <time>2022-06-26T09:15:22Z</time>
      </trkpt>
      <trkpt lat="45.93418" lon="4.39792">
        <ele>713.6</ele>
        <time>2022-06-26T09:15:23Z</time>
      </trkpt>
      <trkpt lat="45.93413" lon="4.39794">
        <ele>714</ele>
        <time>2022-06-26T09:15:24Z</time>
      </trkpt>
      <trkpt lat="45.93409" lon="4.39795">
        <ele>714</ele>
        <time>2022-06-26T09:15:25Z</time>
      </trkpt>
      <trkpt lat="45.93404" lon="4.39797">
        <ele>714</ele>
        <time>2022-06-26T09:15:26Z</time>
      </trkpt>
      <trkpt lat="45.934" lon="4.398">
        <ele>714</ele>
        <time>2022-06-26T09:15:27Z</time>
      </trkpt>
      <trkpt lat="45.9339" lon="4.39804">
        <ele>714</ele>
        <time>2022-06-26T09:15:28Z</time>
      </trkpt>
      <trkpt lat="45.93386" lon="4.39806">
        <ele>714</ele>
        <time>2022-06-26T09:15:29Z</time>
      </trkpt>
      <trkpt lat="45.93381" lon="4.39809">
        <ele>714</ele>
        <time>2022-06-26T09:15:30Z</time>
      </trkpt>
      <trkpt lat="45.93377" lon="4.39813">
        <ele>714</ele>
        <time>2022-06-26T09:15:31Z</time>
      </trkpt>
      <trkpt lat="45.93372" lon="4.39817">
        <ele>714</ele>
        <time>2022-06-26T09:15:32Z</time>
      </trkpt>
      <trkpt lat="45.93368" lon="4.39822">
        <ele>714</ele>
        <time>2022-06-26T09:15:33Z</time>
      </trkpt>
      <trkpt lat="45.93364" lon="4.39827">
        <ele>714</ele>
        <time>2022-06-26T09:15:34Z</time>
      </trkpt>
      <trkpt lat="45.9336" lon="4.39832">
        <ele>714</ele>
        <time>2022-06-26T09:15:35Z</time>
      </trkpt>
      <trkpt lat="45.93356" lon="4.39836">
        <ele>714.2</ele>
        <time>2022-06-26T09:15:36Z</time>
      </trkpt>
      <trkpt lat="45.93353" lon="4.39842">
        <ele>714.2</ele>
        <time>2022-06-26T09:15:37Z</time>
      </trkpt>
      <trkpt lat="45.9335" lon="4.39848">
        <ele>714.2</ele>
        <time>2022-06-26T09:15:38Z</time>
      </trkpt>
      <trkpt lat="45.93348" lon="4.39855">
        <ele>714.2</ele>
        <time>2022-06-26T09:15:39Z</time>
      </trkpt>
      <trkpt lat="45.93346" lon="4.39861">
        <ele>714.6</ele>
        <time>2022-06-26T09:15:40Z</time>
      </trkpt>
      <trkpt lat="45.93344" lon="4.39868">
        <ele>714.6</ele>
        <time>2022-06-26T09:15:41Z</time>
      </trkpt>
      <trkpt lat="45.93343" lon="4.39875">
        <ele>714.6</ele>
        <time>2022-06-26T09:15:42Z</time>
      </trkpt>
      <trkpt lat="45.93342" lon="4.39882">
        <ele>714.6</ele>
        <time>2022-06-26T09:15:43Z</time>
      </trkpt>
      <trkpt lat="45.9334" lon="4.39888">
        <ele>714.6</ele>
        <time>2022-06-26T09:15:44Z</time>
      </trkpt>
      <trkpt lat="45.93339" lon="4.39895">
        <ele>714.6</ele>
        <time>2022-06-26T09:15:45Z</time>
      </trkpt>
      <trkpt lat="45.93337" lon="4.39902">
        <ele>714.6</ele>
        <time>2022-06-26T09:15:46Z</time>
      </trkpt>
      <trkpt lat="45.93335" lon="4.39908">
        <ele>714.2</ele>
        <time>2022-06-26T09:15:47Z</time>
      </trkpt>
      <trkpt lat="45.93332" lon="4.39914">
        <ele>714.2</ele>
        <time>2022-06-26T09:15:48Z</time>
      </trkpt>
      <trkpt lat="45.93329" lon="4.39919">
        <ele>714.6</ele>
        <time>2022-06-26T09:15:49Z</time>
      </trkpt>
      <trkpt lat="45.93325" lon="4.39925">
        <ele>714.6</ele>
        <time>2022-06-26T09:15:50Z</time>
      </trkpt>
      <trkpt lat="45.93322" lon="4.39931">
        <ele>714.6</ele>
        <time>2022-06-26T09:15:51Z</time>
      </trkpt>
      <trkpt lat="45.93319" lon="4.39937">
        <ele>714.6</ele>
        <time>2022-06-26T09:15:52Z</time>
      </trkpt>
      <trkpt lat="45.93317" lon="4.39943">
        <ele>714.8</ele>
        <time>2022-06-26T09:15:53Z</time>
      </trkpt>
      <trkpt lat="45.93314" lon="4.39949">
        <ele>714.8</ele>
        <time>2022-06-26T09:15:54Z</time>
      </trkpt>
      <trkpt lat="45.93311" lon="4.39955">
        <ele>714.8</ele>
        <time>2022-06-26T09:15:55Z</time>
      </trkpt>
      <trkpt lat="45.93308" lon="4.39962">
        <ele>714.8</ele>
        <time>2022-06-26T09:15:56Z</time>
      </trkpt>
      <trkpt lat="45.93305" lon="4.39968">
        <ele>715</ele>
        <time>2022-06-26T09:15:57Z</time>
      </trkpt>
      <trkpt lat="45.93302" lon="4.39974">
        <ele>715</ele>
        <time>2022-06-26T09:15:58Z</time>
      </trkpt>
      <trkpt lat="45.93299" lon="4.3998">
        <ele>715</ele>
        <time>2022-06-26T09:15:59Z</time>
      </trkpt>
      <trkpt lat="45.93296" lon="4.39986">
        <ele>715</ele>
        <time>2022-06-26T09:16:00Z</time>
      </trkpt>
      <trkpt lat="45.93293" lon="4.39993">
        <ele>715</ele>
        <time>2022-06-26T09:16:01Z</time>
      </trkpt>
      <trkpt lat="45.93289" lon="4.39999">
        <ele>715.2</ele>
        <time>2022-06-26T09:16:02Z</time>
      </trkpt>
      <trkpt lat="45.93286" lon="4.40005">
        <ele>715.2</ele>
        <time>2022-06-26T09:16:03Z</time>
      </trkpt>
      <trkpt lat="45.93282" lon="4.40011">
        <ele>715.2</ele>
        <time>2022-06-26T09:16:04Z</time>
      </trkpt>
      <trkpt lat="45.93279" lon="4.40017">
        <ele>715.4</ele>
        <time>2022-06-26T09:16:05Z</time>
      </trkpt>
      <trkpt lat="45.93275" lon="4.40022">
        <ele>715.4</ele>
        <time>2022-06-26T09:16:06Z</time>
      </trkpt>
      <trkpt lat="45.93272" lon="4.40027">
        <ele>715.4</ele>
        <time>2022-06-26T09:16:07Z</time>
      </trkpt>
      <trkpt lat="45.93268" lon="4.40032">
        <ele>715.4</ele>
        <time>2022-06-26T09:16:08Z</time>
      </trkpt>
      <trkpt lat="45.93264" lon="4.40036">
        <ele>715.8</ele>
        <time>2022-06-26T09:16:09Z</time>
      </trkpt>
      <trkpt lat="45.9326" lon="4.4004">
        <ele>715.8</ele>
        <time>2022-06-26T09:16:10Z</time>
      </trkpt>
      <trkpt lat="45.93256" lon="4.40044">
        <ele>715.8</ele>
        <time>2022-06-26T09:16:11Z</time>
      </trkpt>
      <trkpt lat="45.93252" lon="4.40046">
        <ele>715.8</ele>
        <time>2022-06-26T09:16:12Z</time>
      </trkpt>
      <trkpt lat="45.93247" lon="4.40048">
        <ele>716</ele>
        <time>2022-06-26T09:16:13Z</time>
      </trkpt>
      <trkpt lat="45.93242" lon="4.4005">
        <ele>716</ele>
        <time>2022-06-26T09:16:14Z</time>
      </trkpt>
      <trkpt lat="45.93237" lon="4.40052">
        <ele>716</ele>
        <time>2022-06-26T09:16:15Z</time>
      </trkpt>
      <trkpt lat="45.93232" lon="4.40053">
        <ele>716</ele>
        <time>2022-06-26T09:16:16Z</time>
      </trkpt>
      <trkpt lat="45.93227" lon="4.40054">
        <ele>716</ele>
        <time>2022-06-26T09:16:17Z</time>
      </trkpt>
      <trkpt lat="45.93222" lon="4.40055">
        <ele>716</ele>
        <time>2022-06-26T09:16:18Z</time>
      </trkpt>
      <trkpt lat="45.93217" lon="4.40056">
        <ele>716</ele>
        <time>2022-06-26T09:16:19Z</time>
      </trkpt>
      <trkpt lat="45.93211" lon="4.40057">
        <ele>716.2</ele>
        <time>2022-06-26T09:16:20Z</time>
      </trkpt>
      <trkpt lat="45.93206" lon="4.40058">
        <ele>716.2</ele>
        <time>2022-06-26T09:16:21Z</time>
      </trkpt>
      <trkpt lat="45.93201" lon="4.40058">
        <ele>716.6</ele>
        <time>2022-06-26T09:16:22Z</time>
      </trkpt>
      <trkpt lat="45.93196" lon="4.40058">
        <ele>716.6</ele>
        <time>2022-06-26T09:16:23Z</time>
      </trkpt>
      <trkpt lat="45.93191" lon="4.40058">
        <ele>716.8</ele>
        <time>2022-06-26T09:16:24Z</time>
      </trkpt>
      <trkpt lat="45.93186" lon="4.40057">
        <ele>716.8</ele>
        <time>2022-06-26T09:16:25Z</time>
      </trkpt>
      <trkpt lat="45.9318" lon="4.40056">
        <ele>716.8</ele>
        <time>2022-06-26T09:16:26Z</time>
      </trkpt>
      <trkpt lat="45.93175" lon="4.40055">
        <ele>716.8</ele>
        <time>2022-06-26T09:16:27Z</time>
      </trkpt>
      <trkpt lat="45.9317" lon="4.40054">
        <ele>716.8</ele>
        <time>2022-06-26T09:16:28Z</time>
      </trkpt>
      <trkpt lat="45.93165" lon="4.40053">
        <ele>716.8</ele>
        <time>2022-06-26T09:16:29Z</time>
      </trkpt>
      <trkpt lat="45.9316" lon="4.40052">
        <ele>716.8</ele>
        <time>2022-06-26T09:16:30Z</time>
      </trkpt>
      <trkpt lat="45.93155" lon="4.40051">
        <ele>716.8</ele>
        <time>2022-06-26T09:16:31Z</time>
      </trkpt>
      <trkpt lat="45.9315" lon="4.40051">
        <ele>716.8</ele>
        <time>2022-06-26T09:16:32Z</time>
      </trkpt>
      <trkpt lat="45.93144" lon="4.4005">
        <ele>716.8</ele>
        <time>2022-06-26T09:16:33Z</time>
      </trkpt>
      <trkpt lat="45.93139" lon="4.40049">
        <ele>716.8</ele>
        <time>2022-06-26T09:16:34Z</time>
      </trkpt>
      <trkpt lat="45.93134" lon="4.40048">
        <ele>716.8</ele>
        <time>2022-06-26T09:16:35Z</time>
      </trkpt>
      <trkpt lat="45.93129" lon="4.40047">
        <ele>716.8</ele>
        <time>2022-06-26T09:16:36Z</time>
      </trkpt>
      <trkpt lat="45.93125" lon="4.40046">
        <ele>716.8</ele>
        <time>2022-06-26T09:16:37Z</time>
      </trkpt>
      <trkpt lat="45.9312" lon="4.40045">
        <ele>717</ele>
        <time>2022-06-26T09:16:38Z</time>
      </trkpt>
      <trkpt lat="45.93116" lon="4.40044">
        <ele>717</ele>
        <time>2022-06-26T09:16:39Z</time>
      </trkpt>
      <trkpt lat="45.93112" lon="4.40042">
        <ele>717</ele>
        <time>2022-06-26T09:16:40Z</time>
      </trkpt>
      <trkpt lat="45.93109" lon="4.40039">
        <ele>717</ele>
        <time>2022-06-26T09:16:41Z</time>
      </trkpt>
      <trkpt lat="45.93106" lon="4.40035">
        <ele>717</ele>
        <time>2022-06-26T09:16:42Z</time>
      </trkpt>
      <trkpt lat="45.93104" lon="4.40031">
        <ele>717</ele>
        <time>2022-06-26T09:16:43Z</time>
      </trkpt>
      <trkpt lat="45.93102" lon="4.40027">
        <ele>717</ele>
        <time>2022-06-26T09:16:44Z</time>
      </trkpt>
      <trkpt lat="45.931" lon="4.40022">
        <ele>717</ele>
        <time>2022-06-26T09:16:45Z</time>
      </trkpt>
      <trkpt lat="45.931" lon="4.40017">
        <ele>717</ele>
        <time>2022-06-26T09:16:46Z</time>
      </trkpt>
      <trkpt lat="45.931" lon="4.40012">
        <ele>716.8</ele>
        <time>2022-06-26T09:16:47Z</time>
      </trkpt>
      <trkpt lat="45.931" lon="4.40007">
        <ele>716.8</ele>
        <time>2022-06-26T09:16:48Z</time>
      </trkpt>
      <trkpt lat="45.931" lon="4.40001">
        <ele>716.8</ele>
        <time>2022-06-26T09:16:49Z</time>
      </trkpt>
      <trkpt lat="45.93101" lon="4.39995">
        <ele>716.8</ele>
        <time>2022-06-26T09:16:50Z</time>
      </trkpt>
      <trkpt lat="45.93102" lon="4.39989">
        <ele>716.8</ele>
        <time>2022-06-26T09:16:51Z</time>
      </trkpt>
      <trkpt lat="45.93103" lon="4.39983">
        <ele>716.4</ele>
        <time>2022-06-26T09:16:52Z</time>
      </trkpt>
      <trkpt lat="45.93105" lon="4.39977">
        <ele>716.4</ele>
        <time>2022-06-26T09:16:53Z</time>
      </trkpt>
      <trkpt lat="45.93107" lon="4.3997">
        <ele>716.4</ele>
        <time>2022-06-26T09:16:54Z</time>
      </trkpt>
      <trkpt lat="45.93109" lon="4.39964">
        <ele>716.2</ele>
        <time>2022-06-26T09:16:55Z</time>
      </trkpt>
      <trkpt lat="45.93111" lon="4.39957">
        <ele>716.2</ele>
        <time>2022-06-26T09:16:56Z</time>
      </trkpt>
      <trkpt lat="45.93113" lon="4.3995">
        <ele>716.2</ele>
        <time>2022-06-26T09:16:57Z</time>
      </trkpt>
      <trkpt lat="45.93116" lon="4.39943">
        <ele>716.2</ele>
        <time>2022-06-26T09:16:58Z</time>
      </trkpt>
      <trkpt lat="45.93118" lon="4.39936">
        <ele>716.2</ele>
        <time>2022-06-26T09:16:59Z</time>
      </trkpt>
      <trkpt lat="45.9312" lon="4.39928">
        <ele>716.2</ele>
        <time>2022-06-26T09:17:00Z</time>
      </trkpt>
      <trkpt lat="45.93121" lon="4.39921">
        <ele>716.2</ele>
        <time>2022-06-26T09:17:01Z</time>
      </trkpt>
      <trkpt lat="45.93124" lon="4.39913">
        <ele>716</ele>
        <time>2022-06-26T09:17:02Z</time>
      </trkpt>
      <trkpt lat="45.93125" lon="4.39905">
        <ele>716</ele>
        <time>2022-06-26T09:17:03Z</time>
      </trkpt>
      <trkpt lat="45.93127" lon="4.39898">
        <ele>716</ele>
        <time>2022-06-26T09:17:04Z</time>
      </trkpt>
      <trkpt lat="45.93129" lon="4.39889">
        <ele>715.8</ele>
        <time>2022-06-26T09:17:05Z</time>
      </trkpt>
      <trkpt lat="45.9313" lon="4.39881">
        <ele>715.8</ele>
        <time>2022-06-26T09:17:06Z</time>
      </trkpt>
      <trkpt lat="45.9313" lon="4.39873">
        <ele>715.8</ele>
        <time>2022-06-26T09:17:07Z</time>
      </trkpt>
      <trkpt lat="45.93131" lon="4.39865">
        <ele>715.4</ele>
        <time>2022-06-26T09:17:08Z</time>
      </trkpt>
      <trkpt lat="45.93131" lon="4.39856">
        <ele>715.4</ele>
        <time>2022-06-26T09:17:09Z</time>
      </trkpt>
      <trkpt lat="45.93131" lon="4.39847">
        <ele>715.4</ele>
        <time>2022-06-26T09:17:10Z</time>
      </trkpt>
      <trkpt lat="45.9313" lon="4.39838">
        <ele>715.4</ele>
        <time>2022-06-26T09:17:11Z</time>
      </trkpt>
      <trkpt lat="45.93129" lon="4.39829">
        <ele>715.4</ele>
        <time>2022-06-26T09:17:12Z</time>
      </trkpt>
      <trkpt lat="45.93128" lon="4.3982">
        <ele>715.4</ele>
        <time>2022-06-26T09:17:13Z</time>
      </trkpt>
      <trkpt lat="45.93126" lon="4.39811">
        <ele>715.4</ele>
        <time>2022-06-26T09:17:14Z</time>
      </trkpt>
      <trkpt lat="45.93124" lon="4.39803">
        <ele>715.2</ele>
        <time>2022-06-26T09:17:15Z</time>
      </trkpt>
      <trkpt lat="45.93121" lon="4.39795">
        <ele>715.2</ele>
        <time>2022-06-26T09:17:16Z</time>
      </trkpt>
      <trkpt lat="45.93117" lon="4.39788">
        <ele>715.2</ele>
        <time>2022-06-26T09:17:17Z</time>
      </trkpt>
      <trkpt lat="45.93114" lon="4.39781">
        <ele>715.2</ele>
        <time>2022-06-26T09:17:18Z</time>
      </trkpt>
      <trkpt lat="45.9311" lon="4.39774">
        <ele>715</ele>
        <time>2022-06-26T09:17:19Z</time>
      </trkpt>
      <trkpt lat="45.93107" lon="4.39767">
        <ele>715</ele>
        <time>2022-06-26T09:17:20Z</time>
      </trkpt>
      <trkpt lat="45.93104" lon="4.39759">
        <ele>714.8</ele>
        <time>2022-06-26T09:17:21Z</time>
      </trkpt>
      <trkpt lat="45.93102" lon="4.3975">
        <ele>714.8</ele>
        <time>2022-06-26T09:17:22Z</time>
      </trkpt>
      <trkpt lat="45.931" lon="4.39741">
        <ele>714.8</ele>
        <time>2022-06-26T09:17:23Z</time>
      </trkpt>
      <trkpt lat="45.93099" lon="4.39732">
        <ele>714.8</ele>
        <time>2022-06-26T09:17:24Z</time>
      </trkpt>
      <trkpt lat="45.93098" lon="4.39723">
        <ele>714.6</ele>
        <time>2022-06-26T09:17:25Z</time>
      </trkpt>
      <trkpt lat="45.93098" lon="4.39713">
        <ele>714.6</ele>
        <time>2022-06-26T09:17:26Z</time>
      </trkpt>
      <trkpt lat="45.93098" lon="4.39704">
        <ele>714.6</ele>
        <time>2022-06-26T09:17:27Z</time>
      </trkpt>
      <trkpt lat="45.93099" lon="4.39695">
        <ele>714.2</ele>
        <time>2022-06-26T09:17:28Z</time>
      </trkpt>
      <trkpt lat="45.931" lon="4.39685">
        <ele>714</ele>
        <time>2022-06-26T09:17:29Z</time>
      </trkpt>
      <trkpt lat="45.93102" lon="4.39676">
        <ele>714</ele>
        <time>2022-06-26T09:17:30Z</time>
      </trkpt>
      <trkpt lat="45.93104" lon="4.39667">
        <ele>714</ele>
        <time>2022-06-26T09:17:31Z</time>
      </trkpt>
      <trkpt lat="45.93105" lon="4.39658">
        <ele>713.8</ele>
        <time>2022-06-26T09:17:32Z</time>
      </trkpt>
      <trkpt lat="45.93107" lon="4.39649">
        <ele>713.8</ele>
        <time>2022-06-26T09:17:33Z</time>
      </trkpt>
      <trkpt lat="45.9311" lon="4.39641">
        <ele>713.8</ele>
        <time>2022-06-26T09:17:34Z</time>
      </trkpt>
      <trkpt lat="45.93112" lon="4.39632">
        <ele>713.4</ele>
        <time>2022-06-26T09:17:35Z</time>
      </trkpt>
      <trkpt lat="45.93115" lon="4.39625">
        <ele>713.4</ele>
        <time>2022-06-26T09:17:36Z</time>
      </trkpt>
      <trkpt lat="45.93119" lon="4.39617">
        <ele>713</ele>
        <time>2022-06-26T09:17:37Z</time>
      </trkpt>
      <trkpt lat="45.93123" lon="4.3961">
        <ele>713</ele>
        <time>2022-06-26T09:17:38Z</time>
      </trkpt>
      <trkpt lat="45.93127" lon="4.39603">
        <ele>713</ele>
        <time>2022-06-26T09:17:39Z</time>
      </trkpt>
      <trkpt lat="45.93131" lon="4.39595">
        <ele>713</ele>
        <time>2022-06-26T09:17:40Z</time>
      </trkpt>
      <trkpt lat="45.93135" lon="4.39588">
        <ele>713</ele>
        <time>2022-06-26T09:17:41Z</time>
      </trkpt>
      <trkpt lat="45.93139" lon="4.3958">
        <ele>713</ele>
        <time>2022-06-26T09:17:42Z</time>
      </trkpt>
      <trkpt lat="45.93143" lon="4.39572">
        <ele>712.8</ele>
        <time>2022-06-26T09:17:43Z</time>
      </trkpt>
      <trkpt lat="45.93146" lon="4.39564">
        <ele>712.8</ele>
        <time>2022-06-26T09:17:44Z</time>
      </trkpt>
      <trkpt lat="45.9315" lon="4.39556">
        <ele>712.8</ele>
        <time>2022-06-26T09:17:45Z</time>
      </trkpt>
      <trkpt lat="45.93153" lon="4.39547">
        <ele>712.8</ele>
        <time>2022-06-26T09:17:46Z</time>
      </trkpt>
      <trkpt lat="45.93157" lon="4.39539">
        <ele>712.8</ele>
        <time>2022-06-26T09:17:47Z</time>
      </trkpt>
      <trkpt lat="45.9316" lon="4.3953">
        <ele>712.8</ele>
        <time>2022-06-26T09:17:48Z</time>
      </trkpt>
      <trkpt lat="45.93163" lon="4.39521">
        <ele>712.8</ele>
        <time>2022-06-26T09:17:49Z</time>
      </trkpt>
      <trkpt lat="45.93166" lon="4.39512">
        <ele>712.6</ele>
        <time>2022-06-26T09:17:50Z</time>
      </trkpt>
      <trkpt lat="45.93169" lon="4.39503">
        <ele>712.6</ele>
        <time>2022-06-26T09:17:51Z</time>
      </trkpt>
      <trkpt lat="45.93172" lon="4.39494">
        <ele>712.6</ele>
        <time>2022-06-26T09:17:52Z</time>
      </trkpt>
      <trkpt lat="45.93175" lon="4.39485">
        <ele>712.4</ele>
        <time>2022-06-26T09:17:53Z</time>
      </trkpt>
      <trkpt lat="45.93178" lon="4.39476">
        <ele>712.4</ele>
        <time>2022-06-26T09:17:54Z</time>
      </trkpt>
      <trkpt lat="45.9318" lon="4.39468">
        <ele>712.2</ele>
        <time>2022-06-26T09:17:55Z</time>
      </trkpt>
      <trkpt lat="45.93183" lon="4.39459">
        <ele>712.2</ele>
        <time>2022-06-26T09:17:56Z</time>
      </trkpt>
      <trkpt lat="45.93185" lon="4.3945">
        <ele>711.8</ele>
        <time>2022-06-26T09:17:57Z</time>
      </trkpt>
      <trkpt lat="45.93187" lon="4.39442">
        <ele>711.8</ele>
        <time>2022-06-26T09:17:58Z</time>
      </trkpt>
      <trkpt lat="45.93188" lon="4.39433">
        <ele>711.8</ele>
        <time>2022-06-26T09:17:59Z</time>
      </trkpt>
      <trkpt lat="45.93189" lon="4.39424">
        <ele>711.8</ele>
        <time>2022-06-26T09:18:00Z</time>
      </trkpt>
      <trkpt lat="45.9319" lon="4.39414">
        <ele>711.8</ele>
        <time>2022-06-26T09:18:01Z</time>
      </trkpt>
      <trkpt lat="45.9319" lon="4.39405">
        <ele>711.8</ele>
        <time>2022-06-26T09:18:02Z</time>
      </trkpt>
      <trkpt lat="45.9319" lon="4.39396">
        <ele>711.8</ele>
        <time>2022-06-26T09:18:03Z</time>
      </trkpt>
      <trkpt lat="45.9319" lon="4.39387">
        <ele>711.8</ele>
        <time>2022-06-26T09:18:04Z</time>
      </trkpt>
      <trkpt lat="45.9319" lon="4.39377">
        <ele>711.8</ele>
        <time>2022-06-26T09:18:05Z</time>
      </trkpt>
      <trkpt lat="45.9319" lon="4.39368">
        <ele>711.8</ele>
        <time>2022-06-26T09:18:06Z</time>
      </trkpt>
      <trkpt lat="45.9319" lon="4.39358">
        <ele>711.8</ele>
        <time>2022-06-26T09:18:07Z</time>
      </trkpt>
      <trkpt lat="45.9319" lon="4.39349">
        <ele>711.8</ele>
        <time>2022-06-26T09:18:08Z</time>
      </trkpt>
      <trkpt lat="45.9319" lon="4.3934">
        <ele>711.8</ele>
        <time>2022-06-26T09:18:09Z</time>
      </trkpt>
      <trkpt lat="45.9319" lon="4.3933">
        <ele>711.8</ele>
        <time>2022-06-26T09:18:10Z</time>
      </trkpt>
      <trkpt lat="45.93191" lon="4.39321">
        <ele>711.8</ele>
        <time>2022-06-26T09:18:11Z</time>
      </trkpt>
      <trkpt lat="45.93192" lon="4.39313">
        <ele>711.8</ele>
        <time>2022-06-26T09:18:12Z</time>
      </trkpt>
      <trkpt lat="45.93192" lon="4.39305">
        <ele>712</ele>
        <time>2022-06-26T09:18:13Z</time>
      </trkpt>
      <trkpt lat="45.93193" lon="4.39298">
        <ele>712</ele>
        <time>2022-06-26T09:18:14Z</time>
      </trkpt>
      <trkpt lat="45.93195" lon="4.39292">
        <ele>712</ele>
        <time>2022-06-26T09:18:15Z</time>
      </trkpt>
      <trkpt lat="45.93196" lon="4.39286">
        <ele>712.4</ele>
        <time>2022-06-26T09:18:16Z</time>
      </trkpt>
      <trkpt lat="45.93197" lon="4.39281">
        <ele>712.4</ele>
        <time>2022-06-26T09:18:17Z</time>
      </trkpt>
      <trkpt lat="45.93198" lon="4.39276">
        <ele>712.8</ele>
        <time>2022-06-26T09:18:18Z</time>
      </trkpt>
      <trkpt lat="45.93199" lon="4.39272">
        <ele>713.2</ele>
        <time>2022-06-26T09:18:19Z</time>
      </trkpt>
      <trkpt lat="45.932" lon="4.39267">
        <ele>713.6</ele>
        <time>2022-06-26T09:18:20Z</time>
      </trkpt>
      <trkpt lat="45.93201" lon="4.39263">
        <ele>713.6</ele>
        <time>2022-06-26T09:18:21Z</time>
      </trkpt>
      <trkpt lat="45.93201" lon="4.39259">
        <ele>714.2</ele>
        <time>2022-06-26T09:18:22Z</time>
      </trkpt>
      <trkpt lat="45.93202" lon="4.39255">
        <ele>714.6</ele>
        <time>2022-06-26T09:18:23Z</time>
      </trkpt>
      <trkpt lat="45.93202" lon="4.39251">
        <ele>715</ele>
        <time>2022-06-26T09:18:24Z</time>
      </trkpt>
      <trkpt lat="45.93203" lon="4.39247">
        <ele>715.2</ele>
        <time>2022-06-26T09:18:25Z</time>
      </trkpt>
      <trkpt lat="45.93204" lon="4.39244">
        <ele>715.2</ele>
        <time>2022-06-26T09:18:26Z</time>
      </trkpt>
      <trkpt lat="45.93204" lon="4.39241">
        <ele>715.6</ele>
        <time>2022-06-26T09:18:27Z</time>
      </trkpt>
      <trkpt lat="45.93205" lon="4.39238">
        <ele>716</ele>
        <time>2022-06-26T09:18:28Z</time>
      </trkpt>
      <trkpt lat="45.93205" lon="4.39235">
        <ele>716</ele>
        <time>2022-06-26T09:18:29Z</time>
      </trkpt>
      <trkpt lat="45.93206" lon="4.39231">
        <ele>716.4</ele>
        <time>2022-06-26T09:18:30Z</time>
      </trkpt>
      <trkpt lat="45.93206" lon="4.39228">
        <ele>716.4</ele>
        <time>2022-06-26T09:18:31Z</time>
      </trkpt>
      <trkpt lat="45.93206" lon="4.39225">
        <ele>716.6</ele>
        <time>2022-06-26T09:18:32Z</time>
      </trkpt>
      <trkpt lat="45.93206" lon="4.39222">
        <ele>717</ele>
        <time>2022-06-26T09:18:33Z</time>
      </trkpt>
      <trkpt lat="45.93206" lon="4.39218">
        <ele>717.4</ele>
        <time>2022-06-26T09:18:34Z</time>
      </trkpt>
      <trkpt lat="45.93206" lon="4.39215">
        <ele>717.4</ele>
        <time>2022-06-26T09:18:35Z</time>
      </trkpt>
      <trkpt lat="45.93206" lon="4.39212">
        <ele>717.6</ele>
        <time>2022-06-26T09:18:36Z</time>
      </trkpt>
      <trkpt lat="45.93206" lon="4.3921">
        <ele>718.2</ele>
        <time>2022-06-26T09:18:37Z</time>
      </trkpt>
      <trkpt lat="45.93206" lon="4.39207">
        <ele>718.4</ele>
        <time>2022-06-26T09:18:38Z</time>
      </trkpt>
      <trkpt lat="45.93206" lon="4.39205">
        <ele>718.4</ele>
        <time>2022-06-26T09:18:39Z</time>
      </trkpt>
      <trkpt lat="45.93207" lon="4.39204">
        <ele>718.4</ele>
        <time>2022-06-26T09:18:40Z</time>
      </trkpt>
      <trkpt lat="45.93207" lon="4.39202">
        <ele>719.2</ele>
        <time>2022-06-26T09:18:41Z</time>
      </trkpt>
      <trkpt lat="45.93207" lon="4.392">
        <ele>719.8</ele>
        <time>2022-06-26T09:18:42Z</time>
      </trkpt>
      <trkpt lat="45.93206" lon="4.39198">
        <ele>720.4</ele>
        <time>2022-06-26T09:18:43Z</time>
      </trkpt>
      <trkpt lat="45.93206" lon="4.39197">
        <ele>721</ele>
        <time>2022-06-26T09:18:44Z</time>
      </trkpt>
      <trkpt lat="45.93206" lon="4.39195">
        <ele>721.8</ele>
        <time>2022-06-26T09:18:45Z</time>
      </trkpt>
      <trkpt lat="45.93205" lon="4.39194">
        <ele>722.8</ele>
        <time>2022-06-26T09:18:46Z</time>
      </trkpt>
      <trkpt lat="45.93205" lon="4.39192">
        <ele>723.4</ele>
        <time>2022-06-26T09:18:47Z</time>
      </trkpt>
      <trkpt lat="45.93204" lon="4.3919">
        <ele>724.6</ele>
        <time>2022-06-26T09:18:48Z</time>
      </trkpt>
      <trkpt lat="45.93203" lon="4.39188">
        <ele>724.6</ele>
        <time>2022-06-26T09:18:49Z</time>
      </trkpt>
      <trkpt lat="45.93201" lon="4.39186">
        <ele>724.8</ele>
        <time>2022-06-26T09:18:50Z</time>
      </trkpt>
      <trkpt lat="45.93199" lon="4.39185">
        <ele>725.2</ele>
        <time>2022-06-26T09:18:51Z</time>
      </trkpt>
      <trkpt lat="45.93197" lon="4.39183">
        <ele>725.2</ele>
        <time>2022-06-26T09:18:52Z</time>
      </trkpt>
      <trkpt lat="45.93196" lon="4.39181">
        <ele>725</ele>
        <time>2022-06-26T09:18:53Z</time>
      </trkpt>
      <trkpt lat="45.93194" lon="4.39179">
        <ele>725</ele>
        <time>2022-06-26T09:18:54Z</time>
      </trkpt>
      <trkpt lat="45.93191" lon="4.39177">
        <ele>725</ele>
        <time>2022-06-26T09:18:55Z</time>
      </trkpt>
      <trkpt lat="45.93189" lon="4.39175">
        <ele>725</ele>
        <time>2022-06-26T09:18:56Z</time>
      </trkpt>
      <trkpt lat="45.93187" lon="4.39173">
        <ele>725.6</ele>
        <time>2022-06-26T09:18:57Z</time>
      </trkpt>
      <trkpt lat="45.93185" lon="4.39172">
        <ele>725.6</ele>
        <time>2022-06-26T09:18:58Z</time>
      </trkpt>
      <trkpt lat="45.93183" lon="4.3917">
        <ele>725.8</ele>
        <time>2022-06-26T09:18:59Z</time>
      </trkpt>
      <trkpt lat="45.93181" lon="4.39169">
        <ele>725.8</ele>
        <time>2022-06-26T09:19:00Z</time>
      </trkpt>
      <trkpt lat="45.93178" lon="4.39168">
        <ele>726.2</ele>
        <time>2022-06-26T09:19:01Z</time>
      </trkpt>
      <trkpt lat="45.93176" lon="4.39167">
        <ele>726.2</ele>
        <time>2022-06-26T09:19:02Z</time>
      </trkpt>
      <trkpt lat="45.93173" lon="4.39165">
        <ele>726.2</ele>
        <time>2022-06-26T09:19:03Z</time>
      </trkpt>
      <trkpt lat="45.93171" lon="4.39164">
        <ele>726.2</ele>
        <time>2022-06-26T09:19:04Z</time>
      </trkpt>
      <trkpt lat="45.93168" lon="4.39163">
        <ele>725.8</ele>
        <time>2022-06-26T09:19:05Z</time>
      </trkpt>
      <trkpt lat="45.93166" lon="4.39162">
        <ele>725.8</ele>
        <time>2022-06-26T09:19:06Z</time>
      </trkpt>
      <trkpt lat="45.93164" lon="4.39161">
        <ele>725.8</ele>
        <time>2022-06-26T09:19:07Z</time>
      </trkpt>
      <trkpt lat="45.93162" lon="4.3916">
        <ele>726.6</ele>
        <time>2022-06-26T09:19:08Z</time>
      </trkpt>
      <trkpt lat="45.9316" lon="4.39159">
        <ele>726.8</ele>
        <time>2022-06-26T09:19:09Z</time>
      </trkpt>
      <trkpt lat="45.93158" lon="4.39157">
        <ele>727.2</ele>
        <time>2022-06-26T09:19:10Z</time>
      </trkpt>
      <trkpt lat="45.93156" lon="4.39156">
        <ele>727.2</ele>
        <time>2022-06-26T09:19:11Z</time>
      </trkpt>
      <trkpt lat="45.93154" lon="4.39155">
        <ele>727.4</ele>
        <time>2022-06-26T09:19:12Z</time>
      </trkpt>
      <trkpt lat="45.93151" lon="4.39154">
        <ele>727.4</ele>
        <time>2022-06-26T09:19:13Z</time>
      </trkpt>
      <trkpt lat="45.93149" lon="4.39154">
        <ele>728</ele>
        <time>2022-06-26T09:19:14Z</time>
      </trkpt>
      <trkpt lat="45.93148" lon="4.39153">
        <ele>728</ele>
        <time>2022-06-26T09:19:15Z</time>
      </trkpt>
      <trkpt lat="45.93146" lon="4.39153">
        <ele>728</ele>
        <time>2022-06-26T09:19:16Z</time>
      </trkpt>
      <trkpt lat="45.93144" lon="4.39153">
        <ele>728</ele>
        <time>2022-06-26T09:19:17Z</time>
      </trkpt>
      <trkpt lat="45.93142" lon="4.39152">
        <ele>728.2</ele>
        <time>2022-06-26T09:19:18Z</time>
      </trkpt>
      <trkpt lat="45.9314" lon="4.39151">
        <ele>728.2</ele>
        <time>2022-06-26T09:19:19Z</time>
      </trkpt>
      <trkpt lat="45.93139" lon="4.3915">
        <ele>728.6</ele>
        <time>2022-06-26T09:19:20Z</time>
      </trkpt>
      <trkpt lat="45.93137" lon="4.3915">
        <ele>728.6</ele>
        <time>2022-06-26T09:19:21Z</time>
      </trkpt>
      <trkpt lat="45.93135" lon="4.39149">
        <ele>728.6</ele>
        <time>2022-06-26T09:19:22Z</time>
      </trkpt>
      <trkpt lat="45.93134" lon="4.39148">
        <ele>728.6</ele>
        <time>2022-06-26T09:19:23Z</time>
      </trkpt>
      <trkpt lat="45.93132" lon="4.39147">
        <ele>728.6</ele>
        <time>2022-06-26T09:19:25Z</time>
      </trkpt>
      <trkpt lat="45.93129" lon="4.39144">
        <ele>729</ele>
        <time>2022-06-26T09:19:26Z</time>
      </trkpt>
      <trkpt lat="45.93127" lon="4.39142">
        <ele>729.4</ele>
        <time>2022-06-26T09:19:27Z</time>
      </trkpt>
      <trkpt lat="45.93126" lon="4.3914">
        <ele>729.4</ele>
        <time>2022-06-26T09:19:28Z</time>
      </trkpt>
      <trkpt lat="45.93125" lon="4.3914">
        <ele>729.8</ele>
        <time>2022-06-26T09:19:29Z</time>
      </trkpt>
      <trkpt lat="45.93125" lon="4.39139">
        <ele>730.4</ele>
        <time>2022-06-26T09:19:30Z</time>
      </trkpt>
      <trkpt lat="45.93112" lon="4.39122">
        <ele>736.8</ele>
        <time>2022-06-26T09:21:01Z</time>
      </trkpt>
      <trkpt lat="45.93111" lon="4.3912">
        <ele>737</ele>
        <time>2022-06-26T09:21:02Z</time>
      </trkpt>
      <trkpt lat="45.93109" lon="4.39118">
        <ele>737</ele>
        <time>2022-06-26T09:21:03Z</time>
      </trkpt>
      <trkpt lat="45.93107" lon="4.39116">
        <ele>737.4</ele>
        <time>2022-06-26T09:21:04Z</time>
      </trkpt>
      <trkpt lat="45.93105" lon="4.39114">
        <ele>737.4</ele>
        <time>2022-06-26T09:21:05Z</time>
      </trkpt>
      <trkpt lat="45.93101" lon="4.39109">
        <ele>737.6</ele>
        <time>2022-06-26T09:21:13Z</time>
      </trkpt>
      <trkpt lat="45.931" lon="4.39108">
        <ele>737.8</ele>
        <time>2022-06-26T09:21:14Z</time>
      </trkpt>
      <trkpt lat="45.93099" lon="4.39106">
        <ele>737.8</ele>
        <time>2022-06-26T09:21:15Z</time>
      </trkpt>
      <trkpt lat="45.93097" lon="4.39104">
        <ele>737.8</ele>
        <time>2022-06-26T09:21:16Z</time>
      </trkpt>
      <trkpt lat="45.93096" lon="4.39102">
        <ele>738.2</ele>
        <time>2022-06-26T09:21:17Z</time>
      </trkpt>
      <trkpt lat="45.93095" lon="4.39099">
        <ele>738.2</ele>
        <time>2022-06-26T09:21:18Z</time>
      </trkpt>
      <trkpt lat="45.93094" lon="4.39096">
        <ele>738.2</ele>
        <time>2022-06-26T09:21:19Z</time>
      </trkpt>
      <trkpt lat="45.93093" lon="4.39094">
        <ele>738.4</ele>
        <time>2022-06-26T09:21:20Z</time>
      </trkpt>
      <trkpt lat="45.93092" lon="4.39091">
        <ele>738.4</ele>
        <time>2022-06-26T09:21:21Z</time>
      </trkpt>
      <trkpt lat="45.93091" lon="4.39088">
        <ele>738.4</ele>
        <time>2022-06-26T09:21:22Z</time>
      </trkpt>
      <trkpt lat="45.93089" lon="4.39085">
        <ele>738.4</ele>
        <time>2022-06-26T09:21:23Z</time>
      </trkpt>
      <trkpt lat="45.93087" lon="4.39083">
        <ele>738.6</ele>
        <time>2022-06-26T09:21:24Z</time>
      </trkpt>
      <trkpt lat="45.93085" lon="4.3908">
        <ele>738.6</ele>
        <time>2022-06-26T09:21:25Z</time>
      </trkpt>
      <trkpt lat="45.93084" lon="4.39077">
        <ele>738.6</ele>
        <time>2022-06-26T09:21:26Z</time>
      </trkpt>
      <trkpt lat="45.93082" lon="4.39074">
        <ele>738.6</ele>
        <time>2022-06-26T09:21:27Z</time>
      </trkpt>
      <trkpt lat="45.93081" lon="4.39071">
        <ele>738.6</ele>
        <time>2022-06-26T09:21:28Z</time>
      </trkpt>
      <trkpt lat="45.93079" lon="4.39067">
        <ele>738.8</ele>
        <time>2022-06-26T09:21:29Z</time>
      </trkpt>
      <trkpt lat="45.93077" lon="4.39064">
        <ele>738.8</ele>
        <time>2022-06-26T09:21:30Z</time>
      </trkpt>
      <trkpt lat="45.93075" lon="4.3906">
        <ele>738.8</ele>
        <time>2022-06-26T09:21:31Z</time>
      </trkpt>
      <trkpt lat="45.93073" lon="4.39056">
        <ele>739</ele>
        <time>2022-06-26T09:21:32Z</time>
      </trkpt>
      <trkpt lat="45.93071" lon="4.39053">
        <ele>739</ele>
        <time>2022-06-26T09:21:33Z</time>
      </trkpt>
      <trkpt lat="45.93068" lon="4.39049">
        <ele>739</ele>
        <time>2022-06-26T09:21:34Z</time>
      </trkpt>
      <trkpt lat="45.93066" lon="4.39046">
        <ele>739</ele>
        <time>2022-06-26T09:21:35Z</time>
      </trkpt>
      <trkpt lat="45.93063" lon="4.39042">
        <ele>739.2</ele>
        <time>2022-06-26T09:21:36Z</time>
      </trkpt>
      <trkpt lat="45.9306" lon="4.39039">
        <ele>739.2</ele>
        <time>2022-06-26T09:21:37Z</time>
      </trkpt>
      <trkpt lat="45.93058" lon="4.39036">
        <ele>739.2</ele>
        <time>2022-06-26T09:21:38Z</time>
      </trkpt>
      <trkpt lat="45.93055" lon="4.39033">
        <ele>739.2</ele>
        <time>2022-06-26T09:21:39Z</time>
      </trkpt>
      <trkpt lat="45.93053" lon="4.3903">
        <ele>739.4</ele>
        <time>2022-06-26T09:21:40Z</time>
      </trkpt>
      <trkpt lat="45.9305" lon="4.39028">
        <ele>739.4</ele>
        <time>2022-06-26T09:21:41Z</time>
      </trkpt>
      <trkpt lat="45.93047" lon="4.39024">
        <ele>739.4</ele>
        <time>2022-06-26T09:21:42Z</time>
      </trkpt>
      <trkpt lat="45.93044" lon="4.39022">
        <ele>739.4</ele>
        <time>2022-06-26T09:21:43Z</time>
      </trkpt>
      <trkpt lat="45.9304" lon="4.3902">
        <ele>739.4</ele>
        <time>2022-06-26T09:21:44Z</time>
      </trkpt>
      <trkpt lat="45.93036" lon="4.39019">
        <ele>739.4</ele>
        <time>2022-06-26T09:21:45Z</time>
      </trkpt>
      <trkpt lat="45.93032" lon="4.39019">
        <ele>739.4</ele>
        <time>2022-06-26T09:21:46Z</time>
      </trkpt>
      <trkpt lat="45.93028" lon="4.39019">
        <ele>739.2</ele>
        <time>2022-06-26T09:21:47Z</time>
      </trkpt>
      <trkpt lat="45.93024" lon="4.39019">
        <ele>739.2</ele>
        <time>2022-06-26T09:21:48Z</time>
      </trkpt>
      <trkpt lat="45.9302" lon="4.39019">
        <ele>739.2</ele>
        <time>2022-06-26T09:21:49Z</time>
      </trkpt>
      <trkpt lat="45.93015" lon="4.39019">
        <ele>739.2</ele>
        <time>2022-06-26T09:21:50Z</time>
      </trkpt>
      <trkpt lat="45.9301" lon="4.3902">
        <ele>739</ele>
        <time>2022-06-26T09:21:51Z</time>
      </trkpt>
      <trkpt lat="45.93006" lon="4.39019">
        <ele>739</ele>
        <time>2022-06-26T09:21:52Z</time>
      </trkpt>
      <trkpt lat="45.93" lon="4.39019">
        <ele>738.8</ele>
        <time>2022-06-26T09:21:53Z</time>
      </trkpt>
      <trkpt lat="45.92995" lon="4.39018">
        <ele>738.8</ele>
        <time>2022-06-26T09:21:54Z</time>
      </trkpt>
      <trkpt lat="45.9299" lon="4.39016">
        <ele>738.6</ele>
        <time>2022-06-26T09:21:55Z</time>
      </trkpt>
      <trkpt lat="45.92985" lon="4.39014">
        <ele>738.6</ele>
        <time>2022-06-26T09:21:56Z</time>
      </trkpt>
      <trkpt lat="45.9298" lon="4.39012">
        <ele>738.2</ele>
        <time>2022-06-26T09:21:57Z</time>
      </trkpt>
      <trkpt lat="45.92975" lon="4.39009">
        <ele>738.2</ele>
        <time>2022-06-26T09:21:58Z</time>
      </trkpt>
      <trkpt lat="45.9297" lon="4.39006">
        <ele>737.8</ele>
        <time>2022-06-26T09:21:59Z</time>
      </trkpt>
      <trkpt lat="45.92966" lon="4.39002">
        <ele>737.8</ele>
        <time>2022-06-26T09:22:00Z</time>
      </trkpt>
      <trkpt lat="45.92962" lon="4.38999">
        <ele>737.6</ele>
        <time>2022-06-26T09:22:01Z</time>
      </trkpt>
      <trkpt lat="45.92959" lon="4.38996">
        <ele>737.6</ele>
        <time>2022-06-26T09:22:02Z</time>
      </trkpt>
      <trkpt lat="45.92956" lon="4.38993">
        <ele>737.2</ele>
        <time>2022-06-26T09:22:03Z</time>
      </trkpt>
      <trkpt lat="45.92953" lon="4.3899">
        <ele>737.2</ele>
        <time>2022-06-26T09:22:04Z</time>
      </trkpt>
      <trkpt lat="45.92951" lon="4.38987">
        <ele>737.2</ele>
        <time>2022-06-26T09:22:05Z</time>
      </trkpt>
      <trkpt lat="45.92948" lon="4.38984">
        <ele>736.8</ele>
        <time>2022-06-26T09:22:06Z</time>
      </trkpt>
      <trkpt lat="45.92946" lon="4.3898">
        <ele>736.8</ele>
        <time>2022-06-26T09:22:07Z</time>
      </trkpt>
      <trkpt lat="45.92942" lon="4.38976">
        <ele>736.6</ele>
        <time>2022-06-26T09:22:08Z</time>
      </trkpt>
      <trkpt lat="45.92939" lon="4.38972">
        <ele>736.4</ele>
        <time>2022-06-26T09:22:09Z</time>
      </trkpt>
      <trkpt lat="45.92936" lon="4.38968">
        <ele>736.2</ele>
        <time>2022-06-26T09:22:10Z</time>
      </trkpt>
      <trkpt lat="45.92932" lon="4.38964">
        <ele>735.8</ele>
        <time>2022-06-26T09:22:11Z</time>
      </trkpt>
      <trkpt lat="45.92929" lon="4.38959">
        <ele>735.4</ele>
        <time>2022-06-26T09:22:12Z</time>
      </trkpt>
      <trkpt lat="45.92925" lon="4.38954">
        <ele>734.8</ele>
        <time>2022-06-26T09:22:13Z</time>
      </trkpt>
      <trkpt lat="45.92922" lon="4.38947">
        <ele>734.2</ele>
        <time>2022-06-26T09:22:14Z</time>
      </trkpt>
      <trkpt lat="45.92918" lon="4.38941">
        <ele>733.8</ele>
        <time>2022-06-26T09:22:15Z</time>
      </trkpt>
      <trkpt lat="45.92914" lon="4.38934">
        <ele>733</ele>
        <time>2022-06-26T09:22:16Z</time>
      </trkpt>
      <trkpt lat="45.92911" lon="4.38926">
        <ele>732.4</ele>
        <time>2022-06-26T09:22:17Z</time>
      </trkpt>
      <trkpt lat="45.92907" lon="4.38919">
        <ele>731.4</ele>
        <time>2022-06-26T09:22:18Z</time>
      </trkpt>
      <trkpt lat="45.92903" lon="4.38912">
        <ele>730.6</ele>
        <time>2022-06-26T09:22:19Z</time>
      </trkpt>
      <trkpt lat="45.92898" lon="4.38904">
        <ele>729.6</ele>
        <time>2022-06-26T09:22:20Z</time>
      </trkpt>
      <trkpt lat="45.92894" lon="4.38896">
        <ele>728.6</ele>
        <time>2022-06-26T09:22:21Z</time>
      </trkpt>
      <trkpt lat="45.9289" lon="4.38888">
        <ele>727.4</ele>
        <time>2022-06-26T09:22:22Z</time>
      </trkpt>
      <trkpt lat="45.92886" lon="4.3888">
        <ele>726.4</ele>
        <time>2022-06-26T09:22:23Z</time>
      </trkpt>
      <trkpt lat="45.92883" lon="4.38872">
        <ele>725.4</ele>
        <time>2022-06-26T09:22:24Z</time>
      </trkpt>
      <trkpt lat="45.9288" lon="4.38864">
        <ele>724.6</ele>
        <time>2022-06-26T09:22:25Z</time>
      </trkpt>
      <trkpt lat="45.92877" lon="4.38856">
        <ele>723.8</ele>
        <time>2022-06-26T09:22:26Z</time>
      </trkpt>
      <trkpt lat="45.92874" lon="4.38849">
        <ele>723</ele>
        <time>2022-06-26T09:22:27Z</time>
      </trkpt>
      <trkpt lat="45.92871" lon="4.38843">
        <ele>722.2</ele>
        <time>2022-06-26T09:22:28Z</time>
      </trkpt>
      <trkpt lat="45.92869" lon="4.38838">
        <ele>721.6</ele>
        <time>2022-06-26T09:22:29Z</time>
      </trkpt>
      <trkpt lat="45.92867" lon="4.38835">
        <ele>721.2</ele>
        <time>2022-06-26T09:22:30Z</time>
      </trkpt>
      <trkpt lat="45.92864" lon="4.38833">
        <ele>720.8</ele>
        <time>2022-06-26T09:22:31Z</time>
      </trkpt>
      <trkpt lat="45.92862" lon="4.38831">
        <ele>720.6</ele>
        <time>2022-06-26T09:22:32Z</time>
      </trkpt>
      <trkpt lat="45.9286" lon="4.3883">
        <ele>720.4</ele>
        <time>2022-06-26T09:22:33Z</time>
      </trkpt>
      <trkpt lat="45.92857" lon="4.38829">
        <ele>720.4</ele>
        <time>2022-06-26T09:22:34Z</time>
      </trkpt>
      <trkpt lat="45.92855" lon="4.3883">
        <ele>720</ele>
        <time>2022-06-26T09:22:35Z</time>
      </trkpt>
      <trkpt lat="45.92852" lon="4.38832">
        <ele>720</ele>
        <time>2022-06-26T09:22:36Z</time>
      </trkpt>
      <trkpt lat="45.92849" lon="4.38835">
        <ele>719.8</ele>
        <time>2022-06-26T09:22:37Z</time>
      </trkpt>
      <trkpt lat="45.92847" lon="4.38838">
        <ele>719.8</ele>
        <time>2022-06-26T09:22:38Z</time>
      </trkpt>
      <trkpt lat="45.92844" lon="4.38841">
        <ele>719.6</ele>
        <time>2022-06-26T09:22:39Z</time>
      </trkpt>
      <trkpt lat="45.92842" lon="4.38844">
        <ele>719.6</ele>
        <time>2022-06-26T09:22:40Z</time>
      </trkpt>
      <trkpt lat="45.92839" lon="4.38847">
        <ele>719.6</ele>
        <time>2022-06-26T09:22:41Z</time>
      </trkpt>
      <trkpt lat="45.92837" lon="4.3885">
        <ele>719.6</ele>
        <time>2022-06-26T09:22:42Z</time>
      </trkpt>
      <trkpt lat="45.92835" lon="4.38853">
        <ele>719.6</ele>
        <time>2022-06-26T09:22:43Z</time>
      </trkpt>
      <trkpt lat="45.92832" lon="4.38856">
        <ele>719.6</ele>
        <time>2022-06-26T09:22:44Z</time>
      </trkpt>
      <trkpt lat="45.9283" lon="4.38859">
        <ele>719.6</ele>
        <time>2022-06-26T09:22:45Z</time>
      </trkpt>
      <trkpt lat="45.92828" lon="4.38862">
        <ele>719.6</ele>
        <time>2022-06-26T09:22:46Z</time>
      </trkpt>
      <trkpt lat="45.92825" lon="4.38865">
        <ele>719.8</ele>
        <time>2022-06-26T09:22:47Z</time>
      </trkpt>
      <trkpt lat="45.92823" lon="4.38868">
        <ele>719.8</ele>
        <time>2022-06-26T09:22:48Z</time>
      </trkpt>
      <trkpt lat="45.92821" lon="4.38871">
        <ele>720.2</ele>
        <time>2022-06-26T09:22:49Z</time>
      </trkpt>
      <trkpt lat="45.92818" lon="4.38874">
        <ele>720.4</ele>
        <time>2022-06-26T09:22:50Z</time>
      </trkpt>
      <trkpt lat="45.92816" lon="4.38877">
        <ele>720.4</ele>
        <time>2022-06-26T09:22:51Z</time>
      </trkpt>
      <trkpt lat="45.92814" lon="4.3888">
        <ele>720.6</ele>
        <time>2022-06-26T09:22:52Z</time>
      </trkpt>
      <trkpt lat="45.92813" lon="4.38884">
        <ele>720.6</ele>
        <time>2022-06-26T09:22:53Z</time>
      </trkpt>
      <trkpt lat="45.92811" lon="4.38888">
        <ele>720.8</ele>
        <time>2022-06-26T09:22:54Z</time>
      </trkpt>
      <trkpt lat="45.9281" lon="4.38891">
        <ele>720.8</ele>
        <time>2022-06-26T09:22:55Z</time>
      </trkpt>
      <trkpt lat="45.92808" lon="4.38895">
        <ele>721.2</ele>
        <time>2022-06-26T09:22:56Z</time>
      </trkpt>
      <trkpt lat="45.92807" lon="4.38897">
        <ele>721.2</ele>
        <time>2022-06-26T09:22:57Z</time>
      </trkpt>
      <trkpt lat="45.92807" lon="4.38899">
        <ele>721.2</ele>
        <time>2022-06-26T09:22:58Z</time>
      </trkpt>
      <trkpt lat="45.92806" lon="4.38903">
        <ele>721.2</ele>
        <time>2022-06-26T09:22:59Z</time>
      </trkpt>
      <trkpt lat="45.92805" lon="4.38907">
        <ele>721.2</ele>
        <time>2022-06-26T09:23:00Z</time>
      </trkpt>
      <trkpt lat="45.92804" lon="4.38911">
        <ele>721.4</ele>
        <time>2022-06-26T09:23:01Z</time>
      </trkpt>
      <trkpt lat="45.92804" lon="4.38915">
        <ele>721.4</ele>
        <time>2022-06-26T09:23:02Z</time>
      </trkpt>
      <trkpt lat="45.92803" lon="4.38919">
        <ele>721.4</ele>
        <time>2022-06-26T09:23:03Z</time>
      </trkpt>
      <trkpt lat="45.92802" lon="4.38922">
        <ele>721.4</ele>
        <time>2022-06-26T09:23:04Z</time>
      </trkpt>
      <trkpt lat="45.92802" lon="4.38926">
        <ele>721.4</ele>
        <time>2022-06-26T09:23:05Z</time>
      </trkpt>
      <trkpt lat="45.92801" lon="4.38929">
        <ele>721.4</ele>
        <time>2022-06-26T09:23:06Z</time>
      </trkpt>
      <trkpt lat="45.92801" lon="4.38932">
        <ele>721</ele>
        <time>2022-06-26T09:23:07Z</time>
      </trkpt>
      <trkpt lat="45.92801" lon="4.38934">
        <ele>721</ele>
        <time>2022-06-26T09:23:08Z</time>
      </trkpt>
      <trkpt lat="45.92801" lon="4.38935">
        <ele>720.8</ele>
        <time>2022-06-26T09:23:09Z</time>
      </trkpt>
      <trkpt lat="45.92805" lon="4.38933">
        <ele>720.4</ele>
        <time>2022-06-26T09:23:24Z</time>
      </trkpt>
      <trkpt lat="45.92807" lon="4.3893">
        <ele>720.4</ele>
        <time>2022-06-26T09:23:25Z</time>
      </trkpt>
      <trkpt lat="45.92808" lon="4.38926">
        <ele>720.4</ele>
        <time>2022-06-26T09:23:26Z</time>
      </trkpt>
      <trkpt lat="45.92808" lon="4.38922">
        <ele>720</ele>
        <time>2022-06-26T09:23:27Z</time>
      </trkpt>
      <trkpt lat="45.92809" lon="4.38917">
        <ele>720</ele>
        <time>2022-06-26T09:23:28Z</time>
      </trkpt>
      <trkpt lat="45.92809" lon="4.38913">
        <ele>720</ele>
        <time>2022-06-26T09:23:29Z</time>
      </trkpt>
      <trkpt lat="45.9281" lon="4.38908">
        <ele>720</ele>
        <time>2022-06-26T09:23:30Z</time>
      </trkpt>
      <trkpt lat="45.92811" lon="4.38904">
        <ele>720.4</ele>
        <time>2022-06-26T09:23:31Z</time>
      </trkpt>
      <trkpt lat="45.92812" lon="4.38899">
        <ele>720.4</ele>
        <time>2022-06-26T09:23:32Z</time>
      </trkpt>
      <trkpt lat="45.92814" lon="4.38895">
        <ele>720.4</ele>
        <time>2022-06-26T09:23:33Z</time>
      </trkpt>
      <trkpt lat="45.92815" lon="4.3889">
        <ele>720.4</ele>
        <time>2022-06-26T09:23:34Z</time>
      </trkpt>
      <trkpt lat="45.92817" lon="4.38885">
        <ele>720.4</ele>
        <time>2022-06-26T09:23:35Z</time>
      </trkpt>
      <trkpt lat="45.92819" lon="4.38881">
        <ele>720.6</ele>
        <time>2022-06-26T09:23:36Z</time>
      </trkpt>
      <trkpt lat="45.92822" lon="4.38877">
        <ele>720.6</ele>
        <time>2022-06-26T09:23:37Z</time>
      </trkpt>
      <trkpt lat="45.92825" lon="4.38873">
        <ele>720.6</ele>
        <time>2022-06-26T09:23:38Z</time>
      </trkpt>
      <trkpt lat="45.92828" lon="4.3887">
        <ele>720.4</ele>
        <time>2022-06-26T09:23:39Z</time>
      </trkpt>
      <trkpt lat="45.92832" lon="4.38866">
        <ele>720.4</ele>
        <time>2022-06-26T09:23:40Z</time>
      </trkpt>
      <trkpt lat="45.92835" lon="4.38862">
        <ele>720.4</ele>
        <time>2022-06-26T09:23:41Z</time>
      </trkpt>
      <trkpt lat="45.92838" lon="4.38857">
        <ele>720.4</ele>
        <time>2022-06-26T09:23:42Z</time>
      </trkpt>
      <trkpt lat="45.92842" lon="4.38853">
        <ele>720.2</ele>
        <time>2022-06-26T09:23:43Z</time>
      </trkpt>
      <trkpt lat="45.92845" lon="4.38849">
        <ele>720.2</ele>
        <time>2022-06-26T09:23:44Z</time>
      </trkpt>
      <trkpt lat="45.92849" lon="4.38844">
        <ele>720.2</ele>
        <time>2022-06-26T09:23:45Z</time>
      </trkpt>
      <trkpt lat="45.92852" lon="4.38839">
        <ele>720.2</ele>
        <time>2022-06-26T09:23:46Z</time>
      </trkpt>
      <trkpt lat="45.92856" lon="4.38833">
        <ele>719.8</ele>
        <time>2022-06-26T09:23:47Z</time>
      </trkpt>
      <trkpt lat="45.92859" lon="4.38826">
        <ele>719.8</ele>
        <time>2022-06-26T09:23:48Z</time>
      </trkpt>
      <trkpt lat="45.92861" lon="4.38819">
        <ele>719.8</ele>
        <time>2022-06-26T09:23:49Z</time>
      </trkpt>
      <trkpt lat="45.92864" lon="4.38812">
        <ele>719.8</ele>
        <time>2022-06-26T09:23:50Z</time>
      </trkpt>
      <trkpt lat="45.92865" lon="4.38804">
        <ele>719.8</ele>
        <time>2022-06-26T09:23:51Z</time>
      </trkpt>
      <trkpt lat="45.92867" lon="4.38797">
        <ele>719.8</ele>
        <time>2022-06-26T09:23:52Z</time>
      </trkpt>
      <trkpt lat="45.92868" lon="4.38789">
        <ele>719.8</ele>
        <time>2022-06-26T09:23:53Z</time>
      </trkpt>
      <trkpt lat="45.92869" lon="4.3878">
        <ele>719.4</ele>
        <time>2022-06-26T09:23:54Z</time>
      </trkpt>
      <trkpt lat="45.92868" lon="4.38772">
        <ele>719.4</ele>
        <time>2022-06-26T09:23:55Z</time>
      </trkpt>
      <trkpt lat="45.92868" lon="4.38764">
        <ele>719.4</ele>
        <time>2022-06-26T09:23:56Z</time>
      </trkpt>
      <trkpt lat="45.92867" lon="4.38757">
        <ele>719.4</ele>
        <time>2022-06-26T09:23:57Z</time>
      </trkpt>
      <trkpt lat="45.92866" lon="4.38749">
        <ele>719.4</ele>
        <time>2022-06-26T09:23:58Z</time>
      </trkpt>
      <trkpt lat="45.92864" lon="4.38741">
        <ele>719.4</ele>
        <time>2022-06-26T09:23:59Z</time>
      </trkpt>
      <trkpt lat="45.92862" lon="4.38734">
        <ele>719.4</ele>
        <time>2022-06-26T09:24:00Z</time>
      </trkpt>
      <trkpt lat="45.9286" lon="4.38727">
        <ele>719.4</ele>
        <time>2022-06-26T09:24:01Z</time>
      </trkpt>
      <trkpt lat="45.92857" lon="4.3872">
        <ele>719.4</ele>
        <time>2022-06-26T09:24:02Z</time>
      </trkpt>
      <trkpt lat="45.92854" lon="4.38713">
        <ele>719.4</ele>
        <time>2022-06-26T09:24:03Z</time>
      </trkpt>
      <trkpt lat="45.9285" lon="4.38706">
        <ele>719.4</ele>
        <time>2022-06-26T09:24:04Z</time>
      </trkpt>
      <trkpt lat="45.92846" lon="4.387">
        <ele>719.4</ele>
        <time>2022-06-26T09:24:05Z</time>
      </trkpt>
      <trkpt lat="45.92842" lon="4.38693">
        <ele>719.4</ele>
        <time>2022-06-26T09:24:06Z</time>
      </trkpt>
      <trkpt lat="45.92838" lon="4.38685">
        <ele>719.4</ele>
        <time>2022-06-26T09:24:07Z</time>
      </trkpt>
      <trkpt lat="45.92834" lon="4.38677">
        <ele>719.4</ele>
        <time>2022-06-26T09:24:08Z</time>
      </trkpt>
      <trkpt lat="45.92831" lon="4.3867">
        <ele>719.4</ele>
        <time>2022-06-26T09:24:09Z</time>
      </trkpt>
      <trkpt lat="45.92828" lon="4.38661">
        <ele>719.4</ele>
        <time>2022-06-26T09:24:10Z</time>
      </trkpt>
      <trkpt lat="45.92826" lon="4.38653">
        <ele>719.4</ele>
        <time>2022-06-26T09:24:11Z</time>
      </trkpt>
      <trkpt lat="45.92824" lon="4.38644">
        <ele>719.4</ele>
        <time>2022-06-26T09:24:12Z</time>
      </trkpt>
      <trkpt lat="45.92823" lon="4.38636">
        <ele>719.4</ele>
        <time>2022-06-26T09:24:13Z</time>
      </trkpt>
      <trkpt lat="45.92822" lon="4.38627">
        <ele>719.4</ele>
        <time>2022-06-26T09:24:14Z</time>
      </trkpt>
      <trkpt lat="45.92822" lon="4.38618">
        <ele>719.8</ele>
        <time>2022-06-26T09:24:15Z</time>
      </trkpt>
      <trkpt lat="45.92822" lon="4.3861">
        <ele>719.8</ele>
        <time>2022-06-26T09:24:16Z</time>
      </trkpt>
      <trkpt lat="45.92822" lon="4.38601">
        <ele>719.8</ele>
        <time>2022-06-26T09:24:17Z</time>
      </trkpt>
      <trkpt lat="45.92823" lon="4.38592">
        <ele>720</ele>
        <time>2022-06-26T09:24:18Z</time>
      </trkpt>
      <trkpt lat="45.92824" lon="4.38584">
        <ele>720</ele>
        <time>2022-06-26T09:24:19Z</time>
      </trkpt>
      <trkpt lat="45.92825" lon="4.38575">
        <ele>720.2</ele>
        <time>2022-06-26T09:24:20Z</time>
      </trkpt>
      <trkpt lat="45.92827" lon="4.38567">
        <ele>720.2</ele>
        <time>2022-06-26T09:24:21Z</time>
      </trkpt>
      <trkpt lat="45.92829" lon="4.38559">
        <ele>720.2</ele>
        <time>2022-06-26T09:24:22Z</time>
      </trkpt>
      <trkpt lat="45.92832" lon="4.38551">
        <ele>720.2</ele>
        <time>2022-06-26T09:24:23Z</time>
      </trkpt>
      <trkpt lat="45.92834" lon="4.38543">
        <ele>720.2</ele>
        <time>2022-06-26T09:24:24Z</time>
      </trkpt>
      <trkpt lat="45.92836" lon="4.38536">
        <ele>720.2</ele>
        <time>2022-06-26T09:24:25Z</time>
      </trkpt>
      <trkpt lat="45.92838" lon="4.38528">
        <ele>720.4</ele>
        <time>2022-06-26T09:24:26Z</time>
      </trkpt>
      <trkpt lat="45.92841" lon="4.3852">
        <ele>720.4</ele>
        <time>2022-06-26T09:24:27Z</time>
      </trkpt>
      <trkpt lat="45.92843" lon="4.38513">
        <ele>720.4</ele>
        <time>2022-06-26T09:24:28Z</time>
      </trkpt>
      <trkpt lat="45.92845" lon="4.38505">
        <ele>720.6</ele>
        <time>2022-06-26T09:24:29Z</time>
      </trkpt>
      <trkpt lat="45.92848" lon="4.38498">
        <ele>720.6</ele>
        <time>2022-06-26T09:24:30Z</time>
      </trkpt>
      <trkpt lat="45.9285" lon="4.38491">
        <ele>720.6</ele>
        <time>2022-06-26T09:24:31Z</time>
      </trkpt>
      <trkpt lat="45.92853" lon="4.38483">
        <ele>721</ele>
        <time>2022-06-26T09:24:32Z</time>
      </trkpt>
      <trkpt lat="45.92855" lon="4.38476">
        <ele>721</ele>
        <time>2022-06-26T09:24:33Z</time>
      </trkpt>
      <trkpt lat="45.92857" lon="4.38469">
        <ele>721</ele>
        <time>2022-06-26T09:24:34Z</time>
      </trkpt>
      <trkpt lat="45.92858" lon="4.38461">
        <ele>721.2</ele>
        <time>2022-06-26T09:24:35Z</time>
      </trkpt>
      <trkpt lat="45.92859" lon="4.38454">
        <ele>721.2</ele>
        <time>2022-06-26T09:24:36Z</time>
      </trkpt>
      <trkpt lat="45.9286" lon="4.38446">
        <ele>721.4</ele>
        <time>2022-06-26T09:24:37Z</time>
      </trkpt>
      <trkpt lat="45.92859" lon="4.38438">
        <ele>721.4</ele>
        <time>2022-06-26T09:24:38Z</time>
      </trkpt>
      <trkpt lat="45.92858" lon="4.38431">
        <ele>721.4</ele>
        <time>2022-06-26T09:24:39Z</time>
      </trkpt>
      <trkpt lat="45.92857" lon="4.38424">
        <ele>721.4</ele>
        <time>2022-06-26T09:24:40Z</time>
      </trkpt>
      <trkpt lat="45.92855" lon="4.38417">
        <ele>721.4</ele>
        <time>2022-06-26T09:24:41Z</time>
      </trkpt>
      <trkpt lat="45.92852" lon="4.3841">
        <ele>721.4</ele>
        <time>2022-06-26T09:24:42Z</time>
      </trkpt>
      <trkpt lat="45.92848" lon="4.38404">
        <ele>721.4</ele>
        <time>2022-06-26T09:24:43Z</time>
      </trkpt>
      <trkpt lat="45.92845" lon="4.38398">
        <ele>721.6</ele>
        <time>2022-06-26T09:24:44Z</time>
      </trkpt>
      <trkpt lat="45.9284" lon="4.38393">
        <ele>721.6</ele>
        <time>2022-06-26T09:24:45Z</time>
      </trkpt>
      <trkpt lat="45.92836" lon="4.38389">
        <ele>721.6</ele>
        <time>2022-06-26T09:24:46Z</time>
      </trkpt>
      <trkpt lat="45.92831" lon="4.38385">
        <ele>721.6</ele>
        <time>2022-06-26T09:24:47Z</time>
      </trkpt>
      <trkpt lat="45.92825" lon="4.38381">
        <ele>721.8</ele>
        <time>2022-06-26T09:24:48Z</time>
      </trkpt>
      <trkpt lat="45.9282" lon="4.38378">
        <ele>721.8</ele>
        <time>2022-06-26T09:24:49Z</time>
      </trkpt>
      <trkpt lat="45.92815" lon="4.38374">
        <ele>721.8</ele>
        <time>2022-06-26T09:24:50Z</time>
      </trkpt>
      <trkpt lat="45.9281" lon="4.38371">
        <ele>721.8</ele>
        <time>2022-06-26T09:24:51Z</time>
      </trkpt>
      <trkpt lat="45.92805" lon="4.38367">
        <ele>721.8</ele>
        <time>2022-06-26T09:24:52Z</time>
      </trkpt>
      <trkpt lat="45.928" lon="4.38364">
        <ele>722</ele>
        <time>2022-06-26T09:24:53Z</time>
      </trkpt>
      <trkpt lat="45.92795" lon="4.3836">
        <ele>722</ele>
        <time>2022-06-26T09:24:54Z</time>
      </trkpt>
      <trkpt lat="45.9279" lon="4.38357">
        <ele>722</ele>
        <time>2022-06-26T09:24:55Z</time>
      </trkpt>
      <trkpt lat="45.92785" lon="4.38354">
        <ele>722</ele>
        <time>2022-06-26T09:24:56Z</time>
      </trkpt>
      <trkpt lat="45.92781" lon="4.3835">
        <ele>722</ele>
        <time>2022-06-26T09:24:57Z</time>
      </trkpt>
      <trkpt lat="45.92776" lon="4.38345">
        <ele>722.4</ele>
        <time>2022-06-26T09:24:58Z</time>
      </trkpt>
      <trkpt lat="45.92772" lon="4.3834">
        <ele>722.4</ele>
        <time>2022-06-26T09:24:59Z</time>
      </trkpt>
      <trkpt lat="45.92768" lon="4.38334">
        <ele>722.6</ele>
        <time>2022-06-26T09:25:00Z</time>
      </trkpt>
      <trkpt lat="45.92765" lon="4.38328">
        <ele>722.6</ele>
        <time>2022-06-26T09:25:01Z</time>
      </trkpt>
      <trkpt lat="45.92763" lon="4.38322">
        <ele>723</ele>
        <time>2022-06-26T09:25:02Z</time>
      </trkpt>
      <trkpt lat="45.9276" lon="4.38316">
        <ele>723</ele>
        <time>2022-06-26T09:25:03Z</time>
      </trkpt>
      <trkpt lat="45.92758" lon="4.38309">
        <ele>723</ele>
        <time>2022-06-26T09:25:04Z</time>
      </trkpt>
      <trkpt lat="45.92756" lon="4.38303">
        <ele>723.2</ele>
        <time>2022-06-26T09:25:05Z</time>
      </trkpt>
      <trkpt lat="45.92754" lon="4.38296">
        <ele>723.2</ele>
        <time>2022-06-26T09:25:06Z</time>
      </trkpt>
      <trkpt lat="45.92752" lon="4.3829">
        <ele>723.6</ele>
        <time>2022-06-26T09:25:07Z</time>
      </trkpt>
      <trkpt lat="45.9275" lon="4.38283">
        <ele>723.6</ele>
        <time>2022-06-26T09:25:08Z</time>
      </trkpt>
      <trkpt lat="45.92748" lon="4.38276">
        <ele>723.8</ele>
        <time>2022-06-26T09:25:09Z</time>
      </trkpt>
      <trkpt lat="45.92746" lon="4.3827">
        <ele>723.8</ele>
        <time>2022-06-26T09:25:10Z</time>
      </trkpt>
      <trkpt lat="45.92743" lon="4.38263">
        <ele>723.8</ele>
        <time>2022-06-26T09:25:11Z</time>
      </trkpt>
      <trkpt lat="45.92741" lon="4.38257">
        <ele>724.2</ele>
        <time>2022-06-26T09:25:12Z</time>
      </trkpt>
      <trkpt lat="45.92739" lon="4.3825">
        <ele>724.2</ele>
        <time>2022-06-26T09:25:13Z</time>
      </trkpt>
      <trkpt lat="45.92737" lon="4.38244">
        <ele>724.2</ele>
        <time>2022-06-26T09:25:14Z</time>
      </trkpt>
      <trkpt lat="45.92735" lon="4.38237">
        <ele>724.4</ele>
        <time>2022-06-26T09:25:15Z</time>
      </trkpt>
      <trkpt lat="45.92733" lon="4.3823">
        <ele>724.4</ele>
        <time>2022-06-26T09:25:16Z</time>
      </trkpt>
      <trkpt lat="45.92731" lon="4.38224">
        <ele>724.6</ele>
        <time>2022-06-26T09:25:17Z</time>
      </trkpt>
      <trkpt lat="45.92729" lon="4.38217">
        <ele>724.6</ele>
        <time>2022-06-26T09:25:18Z</time>
      </trkpt>
      <trkpt lat="45.92727" lon="4.38211">
        <ele>724.6</ele>
        <time>2022-06-26T09:25:19Z</time>
      </trkpt>
      <trkpt lat="45.92725" lon="4.38205">
        <ele>725</ele>
        <time>2022-06-26T09:25:20Z</time>
      </trkpt>
      <trkpt lat="45.92723" lon="4.38199">
        <ele>725</ele>
        <time>2022-06-26T09:25:21Z</time>
      </trkpt>
      <trkpt lat="45.9272" lon="4.38192">
        <ele>725.2</ele>
        <time>2022-06-26T09:25:22Z</time>
      </trkpt>
      <trkpt lat="45.92718" lon="4.38186">
        <ele>725.2</ele>
        <time>2022-06-26T09:25:23Z</time>
      </trkpt>
      <trkpt lat="45.92716" lon="4.3818">
        <ele>725.4</ele>
        <time>2022-06-26T09:25:24Z</time>
      </trkpt>
      <trkpt lat="45.92714" lon="4.38174">
        <ele>725.4</ele>
        <time>2022-06-26T09:25:25Z</time>
      </trkpt>
      <trkpt lat="45.92713" lon="4.38168">
        <ele>725.6</ele>
        <time>2022-06-26T09:25:26Z</time>
      </trkpt>
      <trkpt lat="45.92711" lon="4.38161">
        <ele>725.6</ele>
        <time>2022-06-26T09:25:27Z</time>
      </trkpt>
      <trkpt lat="45.92709" lon="4.38155">
        <ele>725.8</ele>
        <time>2022-06-26T09:25:28Z</time>
      </trkpt>
      <trkpt lat="45.92708" lon="4.38149">
        <ele>725.8</ele>
        <time>2022-06-26T09:25:29Z</time>
      </trkpt>
      <trkpt lat="45.92706" lon="4.38142">
        <ele>725.8</ele>
        <time>2022-06-26T09:25:30Z</time>
      </trkpt>
      <trkpt lat="45.92704" lon="4.38136">
        <ele>726.2</ele>
        <time>2022-06-26T09:25:31Z</time>
      </trkpt>
      <trkpt lat="45.92703" lon="4.38129">
        <ele>726.2</ele>
        <time>2022-06-26T09:25:32Z</time>
      </trkpt>
      <trkpt lat="45.92702" lon="4.38123">
        <ele>726.4</ele>
        <time>2022-06-26T09:25:33Z</time>
      </trkpt>
      <trkpt lat="45.92701" lon="4.38116">
        <ele>726.4</ele>
        <time>2022-06-26T09:25:34Z</time>
      </trkpt>
      <trkpt lat="45.927" lon="4.3811">
        <ele>727</ele>
        <time>2022-06-26T09:25:35Z</time>
      </trkpt>
      <trkpt lat="45.92699" lon="4.38103">
        <ele>727</ele>
        <time>2022-06-26T09:25:36Z</time>
      </trkpt>
      <trkpt lat="45.92699" lon="4.38096">
        <ele>727</ele>
        <time>2022-06-26T09:25:37Z</time>
      </trkpt>
      <trkpt lat="45.92699" lon="4.38089">
        <ele>727.2</ele>
        <time>2022-06-26T09:25:38Z</time>
      </trkpt>
      <trkpt lat="45.92699" lon="4.38082">
        <ele>727.2</ele>
        <time>2022-06-26T09:25:39Z</time>
      </trkpt>
      <trkpt lat="45.92699" lon="4.38076">
        <ele>727.4</ele>
        <time>2022-06-26T09:25:40Z</time>
      </trkpt>
      <trkpt lat="45.92699" lon="4.38069">
        <ele>727.4</ele>
        <time>2022-06-26T09:25:41Z</time>
      </trkpt>
      <trkpt lat="45.92699" lon="4.38063">
        <ele>727.4</ele>
        <time>2022-06-26T09:25:42Z</time>
      </trkpt>
      <trkpt lat="45.92699" lon="4.38058">
        <ele>727.8</ele>
        <time>2022-06-26T09:25:43Z</time>
      </trkpt>
      <trkpt lat="45.92699" lon="4.38053">
        <ele>727.8</ele>
        <time>2022-06-26T09:25:44Z</time>
      </trkpt>
      <trkpt lat="45.927" lon="4.38049">
        <ele>727.8</ele>
        <time>2022-06-26T09:25:45Z</time>
      </trkpt>
      <trkpt lat="45.927" lon="4.38045">
        <ele>727.8</ele>
        <time>2022-06-26T09:25:46Z</time>
      </trkpt>
      <trkpt lat="45.927" lon="4.38042">
        <ele>727.8</ele>
        <time>2022-06-26T09:25:47Z</time>
      </trkpt>
      <trkpt lat="45.927" lon="4.38038">
        <ele>728</ele>
        <time>2022-06-26T09:25:48Z</time>
      </trkpt>
      <trkpt lat="45.927" lon="4.38034">
        <ele>728</ele>
        <time>2022-06-26T09:25:49Z</time>
      </trkpt>
      <trkpt lat="45.927" lon="4.38029">
        <ele>728</ele>
        <time>2022-06-26T09:25:50Z</time>
      </trkpt>
      <trkpt lat="45.927" lon="4.38024">
        <ele>728</ele>
        <time>2022-06-26T09:25:51Z</time>
      </trkpt>
      <trkpt lat="45.927" lon="4.38019">
        <ele>728.2</ele>
        <time>2022-06-26T09:25:52Z</time>
      </trkpt>
      <trkpt lat="45.927" lon="4.38014">
        <ele>728.2</ele>
        <time>2022-06-26T09:25:53Z</time>
      </trkpt>
      <trkpt lat="45.927" lon="4.38008">
        <ele>728.2</ele>
        <time>2022-06-26T09:25:54Z</time>
      </trkpt>
      <trkpt lat="45.927" lon="4.38003">
        <ele>728.2</ele>
        <time>2022-06-26T09:25:55Z</time>
      </trkpt>
      <trkpt lat="45.927" lon="4.37997">
        <ele>728.2</ele>
        <time>2022-06-26T09:25:56Z</time>
      </trkpt>
      <trkpt lat="45.927" lon="4.37991">
        <ele>728.2</ele>
        <time>2022-06-26T09:25:57Z</time>
      </trkpt>
      <trkpt lat="45.92701" lon="4.37985">
        <ele>728.2</ele>
        <time>2022-06-26T09:25:58Z</time>
      </trkpt>
      <trkpt lat="45.92701" lon="4.3798">
        <ele>728.2</ele>
        <time>2022-06-26T09:25:59Z</time>
      </trkpt>
      <trkpt lat="45.92701" lon="4.37974">
        <ele>728.2</ele>
        <time>2022-06-26T09:26:00Z</time>
      </trkpt>
      <trkpt lat="45.92701" lon="4.37968">
        <ele>728.2</ele>
        <time>2022-06-26T09:26:01Z</time>
      </trkpt>
      <trkpt lat="45.92701" lon="4.37963">
        <ele>728.2</ele>
        <time>2022-06-26T09:26:02Z</time>
      </trkpt>
      <trkpt lat="45.92702" lon="4.37957">
        <ele>728.2</ele>
        <time>2022-06-26T09:26:03Z</time>
      </trkpt>
      <trkpt lat="45.92702" lon="4.37952">
        <ele>728.2</ele>
        <time>2022-06-26T09:26:04Z</time>
      </trkpt>
      <trkpt lat="45.92702" lon="4.37946">
        <ele>728</ele>
        <time>2022-06-26T09:26:05Z</time>
      </trkpt>
      <trkpt lat="45.92702" lon="4.37941">
        <ele>728</ele>
        <time>2022-06-26T09:26:06Z</time>
      </trkpt>
      <trkpt lat="45.92702" lon="4.37937">
        <ele>728</ele>
        <time>2022-06-26T09:26:07Z</time>
      </trkpt>
      <trkpt lat="45.92702" lon="4.37933">
        <ele>728</ele>
        <time>2022-06-26T09:26:08Z</time>
      </trkpt>
      <trkpt lat="45.92702" lon="4.37929">
        <ele>728</ele>
        <time>2022-06-26T09:26:09Z</time>
      </trkpt>
      <trkpt lat="45.92702" lon="4.37926">
        <ele>728</ele>
        <time>2022-06-26T09:26:10Z</time>
      </trkpt>
      <trkpt lat="45.92702" lon="4.37923">
        <ele>728</ele>
        <time>2022-06-26T09:26:11Z</time>
      </trkpt>
      <trkpt lat="45.92702" lon="4.3792">
        <ele>728</ele>
        <time>2022-06-26T09:26:12Z</time>
      </trkpt>
      <trkpt lat="45.92703" lon="4.37917">
        <ele>728</ele>
        <time>2022-06-26T09:26:13Z</time>
      </trkpt>
      <trkpt lat="45.92703" lon="4.37914">
        <ele>728</ele>
        <time>2022-06-26T09:26:14Z</time>
      </trkpt>
      <trkpt lat="45.92703" lon="4.37912">
        <ele>728</ele>
        <time>2022-06-26T09:26:15Z</time>
      </trkpt>
      <trkpt lat="45.92702" lon="4.3791">
        <ele>728</ele>
        <time>2022-06-26T09:26:16Z</time>
      </trkpt>
      <trkpt lat="45.927" lon="4.37909">
        <ele>728</ele>
        <time>2022-06-26T09:26:17Z</time>
      </trkpt>
      <trkpt lat="45.92699" lon="4.37908">
        <ele>728</ele>
        <time>2022-06-26T09:26:18Z</time>
      </trkpt>
      <trkpt lat="45.92697" lon="4.37909">
        <ele>728</ele>
        <time>2022-06-26T09:26:19Z</time>
      </trkpt>
      <trkpt lat="45.92695" lon="4.37911">
        <ele>728</ele>
        <time>2022-06-26T09:26:20Z</time>
      </trkpt>
      <trkpt lat="45.92695" lon="4.37914">
        <ele>728</ele>
        <time>2022-06-26T09:26:21Z</time>
      </trkpt>
      <trkpt lat="45.92694" lon="4.37918">
        <ele>728</ele>
        <time>2022-06-26T09:26:22Z</time>
      </trkpt>
      <trkpt lat="45.92695" lon="4.37923">
        <ele>728</ele>
        <time>2022-06-26T09:26:23Z</time>
      </trkpt>
      <trkpt lat="45.92695" lon="4.37927">
        <ele>728</ele>
        <time>2022-06-26T09:26:24Z</time>
      </trkpt>
      <trkpt lat="45.92696" lon="4.37932">
        <ele>728</ele>
        <time>2022-06-26T09:26:25Z</time>
      </trkpt>
      <trkpt lat="45.92696" lon="4.37937">
        <ele>728</ele>
        <time>2022-06-26T09:26:26Z</time>
      </trkpt>
      <trkpt lat="45.92696" lon="4.37942">
        <ele>728</ele>
        <time>2022-06-26T09:26:27Z</time>
      </trkpt>
      <trkpt lat="45.92695" lon="4.37947">
        <ele>728</ele>
        <time>2022-06-26T09:26:28Z</time>
      </trkpt>
      <trkpt lat="45.92695" lon="4.37953">
        <ele>728</ele>
        <time>2022-06-26T09:26:29Z</time>
      </trkpt>
      <trkpt lat="45.92694" lon="4.37958">
        <ele>728</ele>
        <time>2022-06-26T09:26:30Z</time>
      </trkpt>
      <trkpt lat="45.92693" lon="4.37964">
        <ele>728</ele>
        <time>2022-06-26T09:26:31Z</time>
      </trkpt>
      <trkpt lat="45.92693" lon="4.37969">
        <ele>728</ele>
        <time>2022-06-26T09:26:32Z</time>
      </trkpt>
      <trkpt lat="45.92693" lon="4.37974">
        <ele>728</ele>
        <time>2022-06-26T09:26:33Z</time>
      </trkpt>
      <trkpt lat="45.92693" lon="4.37979">
        <ele>728</ele>
        <time>2022-06-26T09:26:34Z</time>
      </trkpt>
      <trkpt lat="45.92693" lon="4.37984">
        <ele>728</ele>
        <time>2022-06-26T09:26:35Z</time>
      </trkpt>
      <trkpt lat="45.92693" lon="4.37989">
        <ele>728</ele>
        <time>2022-06-26T09:26:36Z</time>
      </trkpt>
      <trkpt lat="45.92693" lon="4.37993">
        <ele>728</ele>
        <time>2022-06-26T09:26:37Z</time>
      </trkpt>
      <trkpt lat="45.92693" lon="4.37996">
        <ele>728</ele>
        <time>2022-06-26T09:26:38Z</time>
      </trkpt>
      <trkpt lat="45.92693" lon="4.37999">
        <ele>728</ele>
        <time>2022-06-26T09:26:39Z</time>
      </trkpt>
      <trkpt lat="45.92693" lon="4.38">
        <ele>727.8</ele>
        <time>2022-06-26T09:26:40Z</time>
      </trkpt>
      <trkpt lat="45.92693" lon="4.38001">
        <ele>727.8</ele>
        <time>2022-06-26T09:26:41Z</time>
      </trkpt>
      <trkpt lat="45.92691" lon="4.37989">
        <ele>728</ele>
        <time>2022-06-26T09:27:36Z</time>
      </trkpt>
      <trkpt lat="45.92696" lon="4.37987">
        <ele>729.8</ele>
        <time>2022-06-26T09:39:00Z</time>
      </trkpt>
      <trkpt lat="45.92697" lon="4.37986">
        <ele>729.8</ele>
        <time>2022-06-26T09:39:02Z</time>
      </trkpt>
      <trkpt lat="45.92698" lon="4.37983">
        <ele>729.8</ele>
        <time>2022-06-26T09:39:03Z</time>
      </trkpt>
      <trkpt lat="45.92699" lon="4.3798">
        <ele>729.8</ele>
        <time>2022-06-26T09:39:04Z</time>
      </trkpt>
      <trkpt lat="45.92699" lon="4.37977">
        <ele>729.8</ele>
        <time>2022-06-26T09:39:05Z</time>
      </trkpt>
      <trkpt lat="45.92699" lon="4.37973">
        <ele>729.8</ele>
        <time>2022-06-26T09:39:06Z</time>
      </trkpt>
      <trkpt lat="45.92699" lon="4.37967">
        <ele>729.8</ele>
        <time>2022-06-26T09:39:07Z</time>
      </trkpt>
      <trkpt lat="45.92699" lon="4.37963">
        <ele>729.8</ele>
        <time>2022-06-26T09:39:08Z</time>
      </trkpt>
      <trkpt lat="45.92699" lon="4.3796">
        <ele>729.8</ele>
        <time>2022-06-26T09:39:09Z</time>
      </trkpt>
      <trkpt lat="45.92699" lon="4.37957">
        <ele>729.8</ele>
        <time>2022-06-26T09:39:10Z</time>
      </trkpt>
      <trkpt lat="45.92699" lon="4.37953">
        <ele>729.8</ele>
        <time>2022-06-26T09:39:11Z</time>
      </trkpt>
      <trkpt lat="45.927" lon="4.37949">
        <ele>729.8</ele>
        <time>2022-06-26T09:39:12Z</time>
      </trkpt>
      <trkpt lat="45.927" lon="4.37945">
        <ele>729.8</ele>
        <time>2022-06-26T09:39:13Z</time>
      </trkpt>
      <trkpt lat="45.927" lon="4.3794">
        <ele>729.8</ele>
        <time>2022-06-26T09:39:14Z</time>
      </trkpt>
      <trkpt lat="45.927" lon="4.37936">
        <ele>729.8</ele>
        <time>2022-06-26T09:39:15Z</time>
      </trkpt>
      <trkpt lat="45.927" lon="4.37931">
        <ele>729.8</ele>
        <time>2022-06-26T09:39:16Z</time>
      </trkpt>
      <trkpt lat="45.92699" lon="4.37926">
        <ele>729.8</ele>
        <time>2022-06-26T09:39:17Z</time>
      </trkpt>
      <trkpt lat="45.92698" lon="4.37921">
        <ele>729.8</ele>
        <time>2022-06-26T09:39:18Z</time>
      </trkpt>
      <trkpt lat="45.92697" lon="4.37916">
        <ele>729.8</ele>
        <time>2022-06-26T09:39:19Z</time>
      </trkpt>
      <trkpt lat="45.92696" lon="4.37911">
        <ele>729.8</ele>
        <time>2022-06-26T09:39:20Z</time>
      </trkpt>
      <trkpt lat="45.92696" lon="4.37906">
        <ele>729.8</ele>
        <time>2022-06-26T09:39:21Z</time>
      </trkpt>
      <trkpt lat="45.92696" lon="4.379">
        <ele>729.6</ele>
        <time>2022-06-26T09:39:22Z</time>
      </trkpt>
      <trkpt lat="45.92696" lon="4.37895">
        <ele>729.6</ele>
        <time>2022-06-26T09:39:23Z</time>
      </trkpt>
      <trkpt lat="45.92696" lon="4.3789">
        <ele>729.6</ele>
        <time>2022-06-26T09:39:24Z</time>
      </trkpt>
      <trkpt lat="45.92696" lon="4.37885">
        <ele>729.6</ele>
        <time>2022-06-26T09:39:25Z</time>
      </trkpt>
      <trkpt lat="45.92696" lon="4.3788">
        <ele>729.6</ele>
        <time>2022-06-26T09:39:26Z</time>
      </trkpt>
      <trkpt lat="45.92696" lon="4.37875">
        <ele>729.6</ele>
        <time>2022-06-26T09:39:27Z</time>
      </trkpt>
      <trkpt lat="45.92696" lon="4.3787">
        <ele>729.6</ele>
        <time>2022-06-26T09:39:28Z</time>
      </trkpt>
      <trkpt lat="45.92697" lon="4.37865">
        <ele>729.6</ele>
        <time>2022-06-26T09:39:29Z</time>
      </trkpt>
      <trkpt lat="45.92697" lon="4.37861">
        <ele>729.6</ele>
        <time>2022-06-26T09:39:30Z</time>
      </trkpt>
      <trkpt lat="45.92697" lon="4.37856">
        <ele>729.6</ele>
        <time>2022-06-26T09:39:31Z</time>
      </trkpt>
      <trkpt lat="45.92697" lon="4.37851">
        <ele>729.6</ele>
        <time>2022-06-26T09:39:32Z</time>
      </trkpt>
      <trkpt lat="45.92696" lon="4.37847">
        <ele>729.6</ele>
        <time>2022-06-26T09:39:33Z</time>
      </trkpt>
      <trkpt lat="45.92695" lon="4.37843">
        <ele>729.6</ele>
        <time>2022-06-26T09:39:34Z</time>
      </trkpt>
      <trkpt lat="45.92693" lon="4.37839">
        <ele>729.6</ele>
        <time>2022-06-26T09:39:35Z</time>
      </trkpt>
      <trkpt lat="45.92691" lon="4.37835">
        <ele>729.6</ele>
        <time>2022-06-26T09:39:36Z</time>
      </trkpt>
      <trkpt lat="45.92688" lon="4.3783">
        <ele>729.8</ele>
        <time>2022-06-26T09:39:37Z</time>
      </trkpt>
      <trkpt lat="45.92686" lon="4.37826">
        <ele>729.8</ele>
        <time>2022-06-26T09:39:38Z</time>
      </trkpt>
      <trkpt lat="45.92685" lon="4.3782">
        <ele>729.8</ele>
        <time>2022-06-26T09:39:39Z</time>
      </trkpt>
      <trkpt lat="45.92683" lon="4.37815">
        <ele>729.8</ele>
        <time>2022-06-26T09:39:40Z</time>
      </trkpt>
      <trkpt lat="45.92681" lon="4.3781">
        <ele>729.8</ele>
        <time>2022-06-26T09:39:41Z</time>
      </trkpt>
      <trkpt lat="45.92679" lon="4.37805">
        <ele>729.8</ele>
        <time>2022-06-26T09:39:42Z</time>
      </trkpt>
      <trkpt lat="45.92678" lon="4.378">
        <ele>730</ele>
        <time>2022-06-26T09:39:43Z</time>
      </trkpt>
      <trkpt lat="45.92676" lon="4.37795">
        <ele>730</ele>
        <time>2022-06-26T09:39:44Z</time>
      </trkpt>
      <trkpt lat="45.92674" lon="4.3779">
        <ele>730</ele>
        <time>2022-06-26T09:39:45Z</time>
      </trkpt>
      <trkpt lat="45.92673" lon="4.37785">
        <ele>730.4</ele>
        <time>2022-06-26T09:39:46Z</time>
      </trkpt>
      <trkpt lat="45.92671" lon="4.37781">
        <ele>730.4</ele>
        <time>2022-06-26T09:39:47Z</time>
      </trkpt>
      <trkpt lat="45.9267" lon="4.37777">
        <ele>730.6</ele>
        <time>2022-06-26T09:39:48Z</time>
      </trkpt>
      <trkpt lat="45.92668" lon="4.37773">
        <ele>730.6</ele>
        <time>2022-06-26T09:39:49Z</time>
      </trkpt>
      <trkpt lat="45.92666" lon="4.37769">
        <ele>730.8</ele>
        <time>2022-06-26T09:39:50Z</time>
      </trkpt>
      <trkpt lat="45.92663" lon="4.37765">
        <ele>730.8</ele>
        <time>2022-06-26T09:39:51Z</time>
      </trkpt>
      <trkpt lat="45.92661" lon="4.37761">
        <ele>731.2</ele>
        <time>2022-06-26T09:39:52Z</time>
      </trkpt>
      <trkpt lat="45.92659" lon="4.37757">
        <ele>731.2</ele>
        <time>2022-06-26T09:39:53Z</time>
      </trkpt>
      <trkpt lat="45.92656" lon="4.37753">
        <ele>731.2</ele>
        <time>2022-06-26T09:39:54Z</time>
      </trkpt>
      <trkpt lat="45.92653" lon="4.37749">
        <ele>731.2</ele>
        <time>2022-06-26T09:39:55Z</time>
      </trkpt>
      <trkpt lat="45.9265" lon="4.37746">
        <ele>731.2</ele>
        <time>2022-06-26T09:39:56Z</time>
      </trkpt>
      <trkpt lat="45.92646" lon="4.37742">
        <ele>731.2</ele>
        <time>2022-06-26T09:39:57Z</time>
      </trkpt>
      <trkpt lat="45.92643" lon="4.3774">
        <ele>731.2</ele>
        <time>2022-06-26T09:39:58Z</time>
      </trkpt>
      <trkpt lat="45.92639" lon="4.37737">
        <ele>731.2</ele>
        <time>2022-06-26T09:39:59Z</time>
      </trkpt>
      <trkpt lat="45.92636" lon="4.37735">
        <ele>731.2</ele>
        <time>2022-06-26T09:40:00Z</time>
      </trkpt>
      <trkpt lat="45.92632" lon="4.37732">
        <ele>731.4</ele>
        <time>2022-06-26T09:40:01Z</time>
      </trkpt>
      <trkpt lat="45.92628" lon="4.3773">
        <ele>731.4</ele>
        <time>2022-06-26T09:40:02Z</time>
      </trkpt>
      <trkpt lat="45.92625" lon="4.37728">
        <ele>731.4</ele>
        <time>2022-06-26T09:40:03Z</time>
      </trkpt>
      <trkpt lat="45.92621" lon="4.37727">
        <ele>731.4</ele>
        <time>2022-06-26T09:40:04Z</time>
      </trkpt>
      <trkpt lat="45.92617" lon="4.37727">
        <ele>731.4</ele>
        <time>2022-06-26T09:40:05Z</time>
      </trkpt>
      <trkpt lat="45.92612" lon="4.37726">
        <ele>731.4</ele>
        <time>2022-06-26T09:40:06Z</time>
      </trkpt>
      <trkpt lat="45.92608" lon="4.37726">
        <ele>731.4</ele>
        <time>2022-06-26T09:40:07Z</time>
      </trkpt>
      <trkpt lat="45.92604" lon="4.37726">
        <ele>731.4</ele>
        <time>2022-06-26T09:40:08Z</time>
      </trkpt>
      <trkpt lat="45.926" lon="4.37726">
        <ele>731.4</ele>
        <time>2022-06-26T09:40:09Z</time>
      </trkpt>
      <trkpt lat="45.92596" lon="4.37726">
        <ele>731.4</ele>
        <time>2022-06-26T09:40:10Z</time>
      </trkpt>
      <trkpt lat="45.92592" lon="4.37725">
        <ele>731.6</ele>
        <time>2022-06-26T09:40:11Z</time>
      </trkpt>
      <trkpt lat="45.92588" lon="4.37725">
        <ele>731.6</ele>
        <time>2022-06-26T09:40:12Z</time>
      </trkpt>
      <trkpt lat="45.92584" lon="4.37725">
        <ele>732</ele>
        <time>2022-06-26T09:40:13Z</time>
      </trkpt>
      <trkpt lat="45.9258" lon="4.37725">
        <ele>732</ele>
        <time>2022-06-26T09:40:14Z</time>
      </trkpt>
      <trkpt lat="45.92577" lon="4.37725">
        <ele>732.2</ele>
        <time>2022-06-26T09:40:15Z</time>
      </trkpt>
      <trkpt lat="45.92573" lon="4.37725">
        <ele>732.2</ele>
        <time>2022-06-26T09:40:16Z</time>
      </trkpt>
      <trkpt lat="45.92569" lon="4.37725">
        <ele>732.2</ele>
        <time>2022-06-26T09:40:17Z</time>
      </trkpt>
      <trkpt lat="45.92566" lon="4.37725">
        <ele>732.6</ele>
        <time>2022-06-26T09:40:18Z</time>
      </trkpt>
      <trkpt lat="45.92562" lon="4.37724">
        <ele>732.6</ele>
        <time>2022-06-26T09:40:19Z</time>
      </trkpt>
      <trkpt lat="45.92559" lon="4.37724">
        <ele>732.8</ele>
        <time>2022-06-26T09:40:20Z</time>
      </trkpt>
      <trkpt lat="45.92555" lon="4.37725">
        <ele>732.8</ele>
        <time>2022-06-26T09:40:21Z</time>
      </trkpt>
      <trkpt lat="45.92552" lon="4.37725">
        <ele>733</ele>
        <time>2022-06-26T09:40:22Z</time>
      </trkpt>
      <trkpt lat="45.92548" lon="4.37725">
        <ele>733</ele>
        <time>2022-06-26T09:40:23Z</time>
      </trkpt>
      <trkpt lat="45.92544" lon="4.37726">
        <ele>733</ele>
        <time>2022-06-26T09:40:24Z</time>
      </trkpt>
      <trkpt lat="45.92541" lon="4.37726">
        <ele>733.2</ele>
        <time>2022-06-26T09:40:25Z</time>
      </trkpt>
      <trkpt lat="45.92537" lon="4.37727">
        <ele>733.2</ele>
        <time>2022-06-26T09:40:26Z</time>
      </trkpt>
      <trkpt lat="45.92534" lon="4.37727">
        <ele>733.2</ele>
        <time>2022-06-26T09:40:27Z</time>
      </trkpt>
      <trkpt lat="45.9253" lon="4.37728">
        <ele>733.4</ele>
        <time>2022-06-26T09:40:28Z</time>
      </trkpt>
      <trkpt lat="45.92527" lon="4.37728">
        <ele>733.4</ele>
        <time>2022-06-26T09:40:29Z</time>
      </trkpt>
      <trkpt lat="45.92523" lon="4.37728">
        <ele>733.4</ele>
        <time>2022-06-26T09:40:30Z</time>
      </trkpt>
      <trkpt lat="45.92519" lon="4.37728">
        <ele>733.4</ele>
        <time>2022-06-26T09:40:31Z</time>
      </trkpt>
      <trkpt lat="45.92516" lon="4.37728">
        <ele>733.8</ele>
        <time>2022-06-26T09:40:32Z</time>
      </trkpt>
      <trkpt lat="45.92512" lon="4.37728">
        <ele>733.8</ele>
        <time>2022-06-26T09:40:33Z</time>
      </trkpt>
      <trkpt lat="45.92508" lon="4.37728">
        <ele>734</ele>
        <time>2022-06-26T09:40:34Z</time>
      </trkpt>
      <trkpt lat="45.92504" lon="4.37728">
        <ele>734</ele>
        <time>2022-06-26T09:40:35Z</time>
      </trkpt>
      <trkpt lat="45.925" lon="4.37728">
        <ele>734</ele>
        <time>2022-06-26T09:40:36Z</time>
      </trkpt>
      <trkpt lat="45.92496" lon="4.37728">
        <ele>734.2</ele>
        <time>2022-06-26T09:40:37Z</time>
      </trkpt>
      <trkpt lat="45.92492" lon="4.37728">
        <ele>734.2</ele>
        <time>2022-06-26T09:40:38Z</time>
      </trkpt>
      <trkpt lat="45.92488" lon="4.37728">
        <ele>734.2</ele>
        <time>2022-06-26T09:40:39Z</time>
      </trkpt>
      <trkpt lat="45.92484" lon="4.37728">
        <ele>734.2</ele>
        <time>2022-06-26T09:40:40Z</time>
      </trkpt>
      <trkpt lat="45.92479" lon="4.37728">
        <ele>734.2</ele>
        <time>2022-06-26T09:40:41Z</time>
      </trkpt>
      <trkpt lat="45.92475" lon="4.37728">
        <ele>734.2</ele>
        <time>2022-06-26T09:40:42Z</time>
      </trkpt>
      <trkpt lat="45.92471" lon="4.37728">
        <ele>734.2</ele>
        <time>2022-06-26T09:40:43Z</time>
      </trkpt>
      <trkpt lat="45.92467" lon="4.37728">
        <ele>734.2</ele>
        <time>2022-06-26T09:40:44Z</time>
      </trkpt>
      <trkpt lat="45.92462" lon="4.37728">
        <ele>734.2</ele>
        <time>2022-06-26T09:40:45Z</time>
      </trkpt>
      <trkpt lat="45.92458" lon="4.37728">
        <ele>734.2</ele>
        <time>2022-06-26T09:40:46Z</time>
      </trkpt>
      <trkpt lat="45.92453" lon="4.37728">
        <ele>734</ele>
        <time>2022-06-26T09:40:47Z</time>
      </trkpt>
      <trkpt lat="45.92448" lon="4.37728">
        <ele>734</ele>
        <time>2022-06-26T09:40:48Z</time>
      </trkpt>
      <trkpt lat="45.92443" lon="4.37728">
        <ele>734</ele>
        <time>2022-06-26T09:40:49Z</time>
      </trkpt>
      <trkpt lat="45.92438" lon="4.37728">
        <ele>734</ele>
        <time>2022-06-26T09:40:50Z</time>
      </trkpt>
      <trkpt lat="45.92433" lon="4.37728">
        <ele>733.6</ele>
        <time>2022-06-26T09:40:51Z</time>
      </trkpt>
      <trkpt lat="45.92429" lon="4.37728">
        <ele>733.6</ele>
        <time>2022-06-26T09:40:52Z</time>
      </trkpt>
      <trkpt lat="45.92424" lon="4.37729">
        <ele>733.4</ele>
        <time>2022-06-26T09:40:53Z</time>
      </trkpt>
      <trkpt lat="45.92419" lon="4.37729">
        <ele>733.4</ele>
        <time>2022-06-26T09:40:54Z</time>
      </trkpt>
      <trkpt lat="45.92414" lon="4.37729">
        <ele>733.2</ele>
        <time>2022-06-26T09:40:55Z</time>
      </trkpt>
      <trkpt lat="45.92409" lon="4.37729">
        <ele>733.2</ele>
        <time>2022-06-26T09:40:56Z</time>
      </trkpt>
      <trkpt lat="45.92404" lon="4.37729">
        <ele>733</ele>
        <time>2022-06-26T09:40:57Z</time>
      </trkpt>
      <trkpt lat="45.92401" lon="4.37729">
        <ele>733</ele>
        <time>2022-06-26T09:40:58Z</time>
      </trkpt>
      <trkpt lat="45.92397" lon="4.37729">
        <ele>732.6</ele>
        <time>2022-06-26T09:40:59Z</time>
      </trkpt>
      <trkpt lat="45.92395" lon="4.3773">
        <ele>732.6</ele>
        <time>2022-06-26T09:41:00Z</time>
      </trkpt>
      <trkpt lat="45.92393" lon="4.37732">
        <ele>732.6</ele>
        <time>2022-06-26T09:41:01Z</time>
      </trkpt>
      <trkpt lat="45.92393" lon="4.37735">
        <ele>732.6</ele>
        <time>2022-06-26T09:41:02Z</time>
      </trkpt>
      <trkpt lat="45.92395" lon="4.37738">
        <ele>732.6</ele>
        <time>2022-06-26T09:41:03Z</time>
      </trkpt>
      <trkpt lat="45.92396" lon="4.3774">
        <ele>732.4</ele>
        <time>2022-06-26T09:41:04Z</time>
      </trkpt>
      <trkpt lat="45.92398" lon="4.37742">
        <ele>732.4</ele>
        <time>2022-06-26T09:41:05Z</time>
      </trkpt>
      <trkpt lat="45.92399" lon="4.37744">
        <ele>732.4</ele>
        <time>2022-06-26T09:41:06Z</time>
      </trkpt>
      <trkpt lat="45.924" lon="4.37746">
        <ele>732.2</ele>
        <time>2022-06-26T09:41:07Z</time>
      </trkpt>
      <trkpt lat="45.92401" lon="4.37748">
        <ele>732.2</ele>
        <time>2022-06-26T09:41:08Z</time>
      </trkpt>
      <trkpt lat="45.92401" lon="4.37749">
        <ele>732.2</ele>
        <time>2022-06-26T09:41:09Z</time>
      </trkpt>
      <trkpt lat="45.92399" lon="4.37755">
        <ele>732.6</ele>
        <time>2022-06-26T10:15:25Z</time>
      </trkpt>
      <trkpt lat="45.92399" lon="4.37752">
        <ele>732.6</ele>
        <time>2022-06-26T10:15:26Z</time>
      </trkpt>
      <trkpt lat="45.92399" lon="4.3775">
        <ele>732.8</ele>
        <time>2022-06-26T10:15:27Z</time>
      </trkpt>
      <trkpt lat="45.92399" lon="4.37747">
        <ele>732.8</ele>
        <time>2022-06-26T10:15:28Z</time>
      </trkpt>
      <trkpt lat="45.92399" lon="4.37744">
        <ele>732.8</ele>
        <time>2022-06-26T10:15:29Z</time>
      </trkpt>
      <trkpt lat="45.92398" lon="4.37742">
        <ele>732.8</ele>
        <time>2022-06-26T10:15:30Z</time>
      </trkpt>
      <trkpt lat="45.92397" lon="4.37739">
        <ele>733.2</ele>
        <time>2022-06-26T10:15:31Z</time>
      </trkpt>
      <trkpt lat="45.92395" lon="4.37738">
        <ele>733.2</ele>
        <time>2022-06-26T10:15:32Z</time>
      </trkpt>
      <trkpt lat="45.92392" lon="4.37737">
        <ele>733.2</ele>
        <time>2022-06-26T10:15:33Z</time>
      </trkpt>
      <trkpt lat="45.92389" lon="4.37737">
        <ele>733.2</ele>
        <time>2022-06-26T10:15:34Z</time>
      </trkpt>
      <trkpt lat="45.92385" lon="4.37737">
        <ele>733.2</ele>
        <time>2022-06-26T10:15:35Z</time>
      </trkpt>
      <trkpt lat="45.92381" lon="4.37736">
        <ele>733.2</ele>
        <time>2022-06-26T10:15:36Z</time>
      </trkpt>
      <trkpt lat="45.92378" lon="4.37736">
        <ele>733.2</ele>
        <time>2022-06-26T10:15:37Z</time>
      </trkpt>
      <trkpt lat="45.92374" lon="4.37735">
        <ele>733.2</ele>
        <time>2022-06-26T10:15:38Z</time>
      </trkpt>
      <trkpt lat="45.9237" lon="4.37735">
        <ele>733.2</ele>
        <time>2022-06-26T10:15:39Z</time>
      </trkpt>
      <trkpt lat="45.92366" lon="4.37735">
        <ele>733</ele>
        <time>2022-06-26T10:15:40Z</time>
      </trkpt>
      <trkpt lat="45.92363" lon="4.37735">
        <ele>733</ele>
        <time>2022-06-26T10:15:41Z</time>
      </trkpt>
      <trkpt lat="45.92358" lon="4.37734">
        <ele>733</ele>
        <time>2022-06-26T10:15:42Z</time>
      </trkpt>
      <trkpt lat="45.92354" lon="4.37734">
        <ele>732.6</ele>
        <time>2022-06-26T10:15:43Z</time>
      </trkpt>
      <trkpt lat="45.9235" lon="4.37734">
        <ele>732.6</ele>
        <time>2022-06-26T10:15:44Z</time>
      </trkpt>
      <trkpt lat="45.92345" lon="4.37734">
        <ele>732.6</ele>
        <time>2022-06-26T10:15:45Z</time>
      </trkpt>
      <trkpt lat="45.9234" lon="4.37734">
        <ele>732.4</ele>
        <time>2022-06-26T10:15:46Z</time>
      </trkpt>
      <trkpt lat="45.92335" lon="4.37733">
        <ele>732.4</ele>
        <time>2022-06-26T10:15:47Z</time>
      </trkpt>
      <trkpt lat="45.9233" lon="4.37733">
        <ele>732.4</ele>
        <time>2022-06-26T10:15:48Z</time>
      </trkpt>
      <trkpt lat="45.92325" lon="4.37732">
        <ele>732.2</ele>
        <time>2022-06-26T10:15:49Z</time>
      </trkpt>
      <trkpt lat="45.9232" lon="4.37732">
        <ele>732.2</ele>
        <time>2022-06-26T10:15:50Z</time>
      </trkpt>
      <trkpt lat="45.92315" lon="4.37732">
        <ele>732.2</ele>
        <time>2022-06-26T10:15:51Z</time>
      </trkpt>
      <trkpt lat="45.9231" lon="4.37732">
        <ele>732</ele>
        <time>2022-06-26T10:15:52Z</time>
      </trkpt>
      <trkpt lat="45.92305" lon="4.37732">
        <ele>732</ele>
        <time>2022-06-26T10:15:53Z</time>
      </trkpt>
      <trkpt lat="45.923" lon="4.37732">
        <ele>732</ele>
        <time>2022-06-26T10:15:54Z</time>
      </trkpt>
      <trkpt lat="45.92296" lon="4.37732">
        <ele>732</ele>
        <time>2022-06-26T10:15:55Z</time>
      </trkpt>
      <trkpt lat="45.92291" lon="4.37733">
        <ele>732</ele>
        <time>2022-06-26T10:15:56Z</time>
      </trkpt>
      <trkpt lat="45.92287" lon="4.37733">
        <ele>732</ele>
        <time>2022-06-26T10:15:57Z</time>
      </trkpt>
      <trkpt lat="45.92283" lon="4.37733">
        <ele>732</ele>
        <time>2022-06-26T10:15:58Z</time>
      </trkpt>
      <trkpt lat="45.92279" lon="4.37733">
        <ele>732</ele>
        <time>2022-06-26T10:15:59Z</time>
      </trkpt>
      <trkpt lat="45.92275" lon="4.37733">
        <ele>732.2</ele>
        <time>2022-06-26T10:16:00Z</time>
      </trkpt>
      <trkpt lat="45.92272" lon="4.37734">
        <ele>732.2</ele>
        <time>2022-06-26T10:16:01Z</time>
      </trkpt>
      <trkpt lat="45.92268" lon="4.37735">
        <ele>732.2</ele>
        <time>2022-06-26T10:16:02Z</time>
      </trkpt>
      <trkpt lat="45.92264" lon="4.37736">
        <ele>732.2</ele>
        <time>2022-06-26T10:16:03Z</time>
      </trkpt>
      <trkpt lat="45.92261" lon="4.37738">
        <ele>732.4</ele>
        <time>2022-06-26T10:16:04Z</time>
      </trkpt>
      <trkpt lat="45.92257" lon="4.3774">
        <ele>732.4</ele>
        <time>2022-06-26T10:16:05Z</time>
      </trkpt>
      <trkpt lat="45.92255" lon="4.37742">
        <ele>732.4</ele>
        <time>2022-06-26T10:16:06Z</time>
      </trkpt>
      <trkpt lat="45.92252" lon="4.37743">
        <ele>732.4</ele>
        <time>2022-06-26T10:16:07Z</time>
      </trkpt>
      <trkpt lat="45.9225" lon="4.37744">
        <ele>732.8</ele>
        <time>2022-06-26T10:16:08Z</time>
      </trkpt>
      <trkpt lat="45.92247" lon="4.37744">
        <ele>732.8</ele>
        <time>2022-06-26T10:16:09Z</time>
      </trkpt>
      <trkpt lat="45.92245" lon="4.37744">
        <ele>732.8</ele>
        <time>2022-06-26T10:16:10Z</time>
      </trkpt>
      <trkpt lat="45.92243" lon="4.37745">
        <ele>733</ele>
        <time>2022-06-26T10:16:11Z</time>
      </trkpt>
      <trkpt lat="45.92241" lon="4.37745">
        <ele>733</ele>
        <time>2022-06-26T10:16:12Z</time>
      </trkpt>
      <trkpt lat="45.9224" lon="4.37746">
        <ele>733</ele>
        <time>2022-06-26T10:16:13Z</time>
      </trkpt>
      <trkpt lat="45.92239" lon="4.37746">
        <ele>733</ele>
        <time>2022-06-26T10:16:14Z</time>
      </trkpt>
      <trkpt lat="45.92238" lon="4.37747">
        <ele>733</ele>
        <time>2022-06-26T10:16:15Z</time>
      </trkpt>
      <trkpt lat="45.92234" lon="4.37742">
        <ele>733</ele>
        <time>2022-06-26T10:18:13Z</time>
      </trkpt>
      <trkpt lat="45.92232" lon="4.37743">
        <ele>733</ele>
        <time>2022-06-26T10:18:14Z</time>
      </trkpt>
      <trkpt lat="45.92231" lon="4.37743">
        <ele>733</ele>
        <time>2022-06-26T10:18:15Z</time>
      </trkpt>
      <trkpt lat="45.92229" lon="4.37744">
        <ele>733</ele>
        <time>2022-06-26T10:18:16Z</time>
      </trkpt>
      <trkpt lat="45.92227" lon="4.37745">
        <ele>733.2</ele>
        <time>2022-06-26T10:18:17Z</time>
      </trkpt>
      <trkpt lat="45.92225" lon="4.37745">
        <ele>733.2</ele>
        <time>2022-06-26T10:18:18Z</time>
      </trkpt>
      <trkpt lat="45.92224" lon="4.37746">
        <ele>733.2</ele>
        <time>2022-06-26T10:18:19Z</time>
      </trkpt>
      <trkpt lat="45.92221" lon="4.37746">
        <ele>733.2</ele>
        <time>2022-06-26T10:18:20Z</time>
      </trkpt>
      <trkpt lat="45.92219" lon="4.37746">
        <ele>733.4</ele>
        <time>2022-06-26T10:18:21Z</time>
      </trkpt>
      <trkpt lat="45.92216" lon="4.37746">
        <ele>733.4</ele>
        <time>2022-06-26T10:18:22Z</time>
      </trkpt>
      <trkpt lat="45.92213" lon="4.37745">
        <ele>733.4</ele>
        <time>2022-06-26T10:18:23Z</time>
      </trkpt>
      <trkpt lat="45.9221" lon="4.37745">
        <ele>733.4</ele>
        <time>2022-06-26T10:18:24Z</time>
      </trkpt>
      <trkpt lat="45.92206" lon="4.37745">
        <ele>733.4</ele>
        <time>2022-06-26T10:18:25Z</time>
      </trkpt>
      <trkpt lat="45.92203" lon="4.37745">
        <ele>733.4</ele>
        <time>2022-06-26T10:18:26Z</time>
      </trkpt>
      <trkpt lat="45.92199" lon="4.37745">
        <ele>733.8</ele>
        <time>2022-06-26T10:18:27Z</time>
      </trkpt>
      <trkpt lat="45.92196" lon="4.37745">
        <ele>733.8</ele>
        <time>2022-06-26T10:18:28Z</time>
      </trkpt>
      <trkpt lat="45.92192" lon="4.37745">
        <ele>734</ele>
        <time>2022-06-26T10:18:29Z</time>
      </trkpt>
      <trkpt lat="45.92188" lon="4.37745">
        <ele>734</ele>
        <time>2022-06-26T10:18:30Z</time>
      </trkpt>
      <trkpt lat="45.92185" lon="4.37745">
        <ele>734</ele>
        <time>2022-06-26T10:18:31Z</time>
      </trkpt>
      <trkpt lat="45.92181" lon="4.37745">
        <ele>734.2</ele>
        <time>2022-06-26T10:18:32Z</time>
      </trkpt>
      <trkpt lat="45.92177" lon="4.37745">
        <ele>734.2</ele>
        <time>2022-06-26T10:18:33Z</time>
      </trkpt>
      <trkpt lat="45.92174" lon="4.37745">
        <ele>734.2</ele>
        <time>2022-06-26T10:18:34Z</time>
      </trkpt>
      <trkpt lat="45.9217" lon="4.37745">
        <ele>734.4</ele>
        <time>2022-06-26T10:18:35Z</time>
      </trkpt>
      <trkpt lat="45.92166" lon="4.37746">
        <ele>734.4</ele>
        <time>2022-06-26T10:18:36Z</time>
      </trkpt>
      <trkpt lat="45.92162" lon="4.37746">
        <ele>734.4</ele>
        <time>2022-06-26T10:18:37Z</time>
      </trkpt>
      <trkpt lat="45.92158" lon="4.37746">
        <ele>734.8</ele>
        <time>2022-06-26T10:18:38Z</time>
      </trkpt>
      <trkpt lat="45.92154" lon="4.37747">
        <ele>734.8</ele>
        <time>2022-06-26T10:18:39Z</time>
      </trkpt>
      <trkpt lat="45.92149" lon="4.37748">
        <ele>735</ele>
        <time>2022-06-26T10:18:40Z</time>
      </trkpt>
      <trkpt lat="45.92145" lon="4.3775">
        <ele>735</ele>
        <time>2022-06-26T10:18:41Z</time>
      </trkpt>
      <trkpt lat="45.92141" lon="4.37752">
        <ele>735</ele>
        <time>2022-06-26T10:18:42Z</time>
      </trkpt>
      <trkpt lat="45.92137" lon="4.37755">
        <ele>735</ele>
        <time>2022-06-26T10:18:43Z</time>
      </trkpt>
      <trkpt lat="45.92133" lon="4.37758">
        <ele>735</ele>
        <time>2022-06-26T10:18:44Z</time>
      </trkpt>
      <trkpt lat="45.92129" lon="4.37761">
        <ele>735</ele>
        <time>2022-06-26T10:18:45Z</time>
      </trkpt>
      <trkpt lat="45.92125" lon="4.37764">
        <ele>735</ele>
        <time>2022-06-26T10:18:46Z</time>
      </trkpt>
      <trkpt lat="45.92121" lon="4.37768">
        <ele>735</ele>
        <time>2022-06-26T10:18:47Z</time>
      </trkpt>
      <trkpt lat="45.92116" lon="4.37771">
        <ele>735</ele>
        <time>2022-06-26T10:18:48Z</time>
      </trkpt>
      <trkpt lat="45.92112" lon="4.37775">
        <ele>735</ele>
        <time>2022-06-26T10:18:49Z</time>
      </trkpt>
      <trkpt lat="45.92108" lon="4.37779">
        <ele>735</ele>
        <time>2022-06-26T10:18:50Z</time>
      </trkpt>
      <trkpt lat="45.92104" lon="4.37783">
        <ele>735</ele>
        <time>2022-06-26T10:18:51Z</time>
      </trkpt>
      <trkpt lat="45.92099" lon="4.37786">
        <ele>735</ele>
        <time>2022-06-26T10:18:52Z</time>
      </trkpt>
      <trkpt lat="45.92095" lon="4.3779">
        <ele>735</ele>
        <time>2022-06-26T10:18:53Z</time>
      </trkpt>
      <trkpt lat="45.92091" lon="4.37794">
        <ele>735</ele>
        <time>2022-06-26T10:18:54Z</time>
      </trkpt>
      <trkpt lat="45.92086" lon="4.37797">
        <ele>735</ele>
        <time>2022-06-26T10:18:55Z</time>
      </trkpt>
      <trkpt lat="45.92081" lon="4.37801">
        <ele>735</ele>
        <time>2022-06-26T10:18:56Z</time>
      </trkpt>
      <trkpt lat="45.92076" lon="4.37803">
        <ele>735</ele>
        <time>2022-06-26T10:18:57Z</time>
      </trkpt>
      <trkpt lat="45.92071" lon="4.37806">
        <ele>735</ele>
        <time>2022-06-26T10:18:58Z</time>
      </trkpt>
      <trkpt lat="45.92066" lon="4.37807">
        <ele>735</ele>
        <time>2022-06-26T10:18:59Z</time>
      </trkpt>
      <trkpt lat="45.92061" lon="4.37809">
        <ele>735</ele>
        <time>2022-06-26T10:19:00Z</time>
      </trkpt>
      <trkpt lat="45.92056" lon="4.37809">
        <ele>735</ele>
        <time>2022-06-26T10:19:01Z</time>
      </trkpt>
      <trkpt lat="45.92051" lon="4.37809">
        <ele>735</ele>
        <time>2022-06-26T10:19:02Z</time>
      </trkpt>
      <trkpt lat="45.92046" lon="4.37808">
        <ele>735.4</ele>
        <time>2022-06-26T10:19:03Z</time>
      </trkpt>
      <trkpt lat="45.92041" lon="4.37807">
        <ele>735.4</ele>
        <time>2022-06-26T10:19:04Z</time>
      </trkpt>
      <trkpt lat="45.92037" lon="4.37805">
        <ele>735.4</ele>
        <time>2022-06-26T10:19:05Z</time>
      </trkpt>
      <trkpt lat="45.92032" lon="4.37803">
        <ele>735.6</ele>
        <time>2022-06-26T10:19:06Z</time>
      </trkpt>
      <trkpt lat="45.92028" lon="4.378">
        <ele>735.6</ele>
        <time>2022-06-26T10:19:07Z</time>
      </trkpt>
      <trkpt lat="45.92023" lon="4.37796">
        <ele>735.6</ele>
        <time>2022-06-26T10:19:08Z</time>
      </trkpt>
      <trkpt lat="45.9202" lon="4.37792">
        <ele>735.6</ele>
        <time>2022-06-26T10:19:09Z</time>
      </trkpt>
      <trkpt lat="45.92017" lon="4.37787">
        <ele>736</ele>
        <time>2022-06-26T10:19:10Z</time>
      </trkpt>
      <trkpt lat="45.92014" lon="4.37782">
        <ele>736</ele>
        <time>2022-06-26T10:19:11Z</time>
      </trkpt>
      <trkpt lat="45.92011" lon="4.37777">
        <ele>736.2</ele>
        <time>2022-06-26T10:19:12Z</time>
      </trkpt>
      <trkpt lat="45.92008" lon="4.37773">
        <ele>736.2</ele>
        <time>2022-06-26T10:19:13Z</time>
      </trkpt>
      <trkpt lat="45.92005" lon="4.37768">
        <ele>736.4</ele>
        <time>2022-06-26T10:19:14Z</time>
      </trkpt>
      <trkpt lat="45.92003" lon="4.37763">
        <ele>736.4</ele>
        <time>2022-06-26T10:19:15Z</time>
      </trkpt>
      <trkpt lat="45.92001" lon="4.37757">
        <ele>736.4</ele>
        <time>2022-06-26T10:19:16Z</time>
      </trkpt>
      <trkpt lat="45.91999" lon="4.37751">
        <ele>736.6</ele>
        <time>2022-06-26T10:19:17Z</time>
      </trkpt>
      <trkpt lat="45.91997" lon="4.37745">
        <ele>736.6</ele>
        <time>2022-06-26T10:19:18Z</time>
      </trkpt>
      <trkpt lat="45.91995" lon="4.37739">
        <ele>736.6</ele>
        <time>2022-06-26T10:19:19Z</time>
      </trkpt>
      <trkpt lat="45.91992" lon="4.37733">
        <ele>736.6</ele>
        <time>2022-06-26T10:19:20Z</time>
      </trkpt>
      <trkpt lat="45.9199" lon="4.37727">
        <ele>737</ele>
        <time>2022-06-26T10:19:21Z</time>
      </trkpt>
      <trkpt lat="45.91988" lon="4.37721">
        <ele>737</ele>
        <time>2022-06-26T10:19:22Z</time>
      </trkpt>
      <trkpt lat="45.91985" lon="4.37715">
        <ele>737.2</ele>
        <time>2022-06-26T10:19:23Z</time>
      </trkpt>
      <trkpt lat="45.91983" lon="4.37709">
        <ele>737.2</ele>
        <time>2022-06-26T10:19:24Z</time>
      </trkpt>
      <trkpt lat="45.91981" lon="4.37703">
        <ele>737.2</ele>
        <time>2022-06-26T10:19:25Z</time>
      </trkpt>
      <trkpt lat="45.91979" lon="4.37697">
        <ele>737.4</ele>
        <time>2022-06-26T10:19:26Z</time>
      </trkpt>
      <trkpt lat="45.91977" lon="4.37691">
        <ele>737.4</ele>
        <time>2022-06-26T10:19:27Z</time>
      </trkpt>
      <trkpt lat="45.91975" lon="4.37684">
        <ele>737.4</ele>
        <time>2022-06-26T10:19:28Z</time>
      </trkpt>
      <trkpt lat="45.91973" lon="4.37678">
        <ele>737.4</ele>
        <time>2022-06-26T10:19:29Z</time>
      </trkpt>
      <trkpt lat="45.91971" lon="4.37672">
        <ele>737.4</ele>
        <time>2022-06-26T10:19:30Z</time>
      </trkpt>
      <trkpt lat="45.91969" lon="4.37665">
        <ele>737.6</ele>
        <time>2022-06-26T10:19:31Z</time>
      </trkpt>
      <trkpt lat="45.91967" lon="4.37659">
        <ele>737.6</ele>
        <time>2022-06-26T10:19:32Z</time>
      </trkpt>
      <trkpt lat="45.91965" lon="4.37652">
        <ele>737.8</ele>
        <time>2022-06-26T10:19:33Z</time>
      </trkpt>
      <trkpt lat="45.91963" lon="4.37646">
        <ele>737.8</ele>
        <time>2022-06-26T10:19:34Z</time>
      </trkpt>
      <trkpt lat="45.91962" lon="4.37639">
        <ele>738.2</ele>
        <time>2022-06-26T10:19:35Z</time>
      </trkpt>
      <trkpt lat="45.91961" lon="4.37633">
        <ele>738.2</ele>
        <time>2022-06-26T10:19:36Z</time>
      </trkpt>
      <trkpt lat="45.9196" lon="4.37626">
        <ele>738.2</ele>
        <time>2022-06-26T10:19:37Z</time>
      </trkpt>
      <trkpt lat="45.9196" lon="4.3762">
        <ele>738.4</ele>
        <time>2022-06-26T10:19:38Z</time>
      </trkpt>
      <trkpt lat="45.9196" lon="4.37613">
        <ele>738.4</ele>
        <time>2022-06-26T10:19:39Z</time>
      </trkpt>
      <trkpt lat="45.9196" lon="4.37607">
        <ele>738.4</ele>
        <time>2022-06-26T10:19:40Z</time>
      </trkpt>
      <trkpt lat="45.91961" lon="4.376">
        <ele>738.6</ele>
        <time>2022-06-26T10:19:41Z</time>
      </trkpt>
      <trkpt lat="45.91961" lon="4.37594">
        <ele>738.6</ele>
        <time>2022-06-26T10:19:42Z</time>
      </trkpt>
      <trkpt lat="45.91962" lon="4.37588">
        <ele>738.8</ele>
        <time>2022-06-26T10:19:43Z</time>
      </trkpt>
      <trkpt lat="45.91963" lon="4.37582">
        <ele>738.8</ele>
        <time>2022-06-26T10:19:44Z</time>
      </trkpt>
      <trkpt lat="45.91964" lon="4.37576">
        <ele>739.2</ele>
        <time>2022-06-26T10:19:45Z</time>
      </trkpt>
      <trkpt lat="45.91965" lon="4.3757">
        <ele>739.2</ele>
        <time>2022-06-26T10:19:46Z</time>
      </trkpt>
      <trkpt lat="45.91966" lon="4.37564">
        <ele>739.4</ele>
        <time>2022-06-26T10:19:47Z</time>
      </trkpt>
      <trkpt lat="45.91967" lon="4.37558">
        <ele>739.6</ele>
        <time>2022-06-26T10:19:48Z</time>
      </trkpt>
      <trkpt lat="45.91968" lon="4.37552">
        <ele>740</ele>
        <time>2022-06-26T10:19:49Z</time>
      </trkpt>
      <trkpt lat="45.91969" lon="4.37546">
        <ele>740</ele>
        <time>2022-06-26T10:19:50Z</time>
      </trkpt>
      <trkpt lat="45.9197" lon="4.3754">
        <ele>740.2</ele>
        <time>2022-06-26T10:19:51Z</time>
      </trkpt>
      <trkpt lat="45.91971" lon="4.37534">
        <ele>740.2</ele>
        <time>2022-06-26T10:19:52Z</time>
      </trkpt>
      <trkpt lat="45.91971" lon="4.37529">
        <ele>740.6</ele>
        <time>2022-06-26T10:19:53Z</time>
      </trkpt>
      <trkpt lat="45.91972" lon="4.37524">
        <ele>740.6</ele>
        <time>2022-06-26T10:19:54Z</time>
      </trkpt>
      <trkpt lat="45.91972" lon="4.37519">
        <ele>740.6</ele>
        <time>2022-06-26T10:19:55Z</time>
      </trkpt>
      <trkpt lat="45.91972" lon="4.37514">
        <ele>740.8</ele>
        <time>2022-06-26T10:19:56Z</time>
      </trkpt>
      <trkpt lat="45.91972" lon="4.37511">
        <ele>740.8</ele>
        <time>2022-06-26T10:19:57Z</time>
      </trkpt>
      <trkpt lat="45.91972" lon="4.37509">
        <ele>741</ele>
        <time>2022-06-26T10:19:58Z</time>
      </trkpt>
      <trkpt lat="45.91972" lon="4.37508">
        <ele>741</ele>
        <time>2022-06-26T10:19:59Z</time>
      </trkpt>
      <trkpt lat="45.91971" lon="4.375">
        <ele>741.2</ele>
        <time>2022-06-26T10:21:42Z</time>
      </trkpt>
      <trkpt lat="45.91971" lon="4.37497">
        <ele>741.2</ele>
        <time>2022-06-26T10:21:43Z</time>
      </trkpt>
      <trkpt lat="45.9197" lon="4.37495">
        <ele>741.2</ele>
        <time>2022-06-26T10:21:44Z</time>
      </trkpt>
      <trkpt lat="45.9197" lon="4.37491">
        <ele>741.2</ele>
        <time>2022-06-26T10:21:45Z</time>
      </trkpt>
      <trkpt lat="45.91969" lon="4.37488">
        <ele>741.2</ele>
        <time>2022-06-26T10:21:46Z</time>
      </trkpt>
      <trkpt lat="45.91969" lon="4.37484">
        <ele>741.2</ele>
        <time>2022-06-26T10:21:47Z</time>
      </trkpt>
      <trkpt lat="45.91968" lon="4.3748">
        <ele>741.2</ele>
        <time>2022-06-26T10:21:48Z</time>
      </trkpt>
      <trkpt lat="45.91967" lon="4.37476">
        <ele>741.2</ele>
        <time>2022-06-26T10:21:49Z</time>
      </trkpt>
      <trkpt lat="45.91966" lon="4.37471">
        <ele>741.4</ele>
        <time>2022-06-26T10:21:50Z</time>
      </trkpt>
      <trkpt lat="45.91966" lon="4.37467">
        <ele>741.4</ele>
        <time>2022-06-26T10:21:51Z</time>
      </trkpt>
      <trkpt lat="45.91965" lon="4.37462">
        <ele>741.4</ele>
        <time>2022-06-26T10:21:52Z</time>
      </trkpt>
      <trkpt lat="45.91964" lon="4.37457">
        <ele>741.6</ele>
        <time>2022-06-26T10:21:53Z</time>
      </trkpt>
      <trkpt lat="45.91963" lon="4.37451">
        <ele>741.6</ele>
        <time>2022-06-26T10:21:54Z</time>
      </trkpt>
      <trkpt lat="45.91961" lon="4.37446">
        <ele>741.6</ele>
        <time>2022-06-26T10:21:55Z</time>
      </trkpt>
      <trkpt lat="45.9196" lon="4.37441">
        <ele>742</ele>
        <time>2022-06-26T10:21:56Z</time>
      </trkpt>
      <trkpt lat="45.91959" lon="4.37436">
        <ele>742</ele>
        <time>2022-06-26T10:21:57Z</time>
      </trkpt>
      <trkpt lat="45.91957" lon="4.3743">
        <ele>742</ele>
        <time>2022-06-26T10:21:58Z</time>
      </trkpt>
      <trkpt lat="45.91956" lon="4.37425">
        <ele>742.2</ele>
        <time>2022-06-26T10:21:59Z</time>
      </trkpt>
      <trkpt lat="45.91955" lon="4.37419">
        <ele>742.2</ele>
        <time>2022-06-26T10:22:00Z</time>
      </trkpt>
      <trkpt lat="45.91953" lon="4.37413">
        <ele>742.4</ele>
        <time>2022-06-26T10:22:01Z</time>
      </trkpt>
      <trkpt lat="45.91951" lon="4.37408">
        <ele>742.4</ele>
        <time>2022-06-26T10:22:02Z</time>
      </trkpt>
      <trkpt lat="45.91949" lon="4.37402">
        <ele>742.4</ele>
        <time>2022-06-26T10:22:03Z</time>
      </trkpt>
      <trkpt lat="45.91947" lon="4.37397">
        <ele>742.8</ele>
        <time>2022-06-26T10:22:04Z</time>
      </trkpt>
      <trkpt lat="45.91945" lon="4.37391">
        <ele>742.8</ele>
        <time>2022-06-26T10:22:05Z</time>
      </trkpt>
      <trkpt lat="45.91942" lon="4.37387">
        <ele>742.8</ele>
        <time>2022-06-26T10:22:06Z</time>
      </trkpt>
      <trkpt lat="45.91939" lon="4.37382">
        <ele>743.2</ele>
        <time>2022-06-26T10:22:07Z</time>
      </trkpt>
      <trkpt lat="45.91935" lon="4.37378">
        <ele>743.2</ele>
        <time>2022-06-26T10:22:08Z</time>
      </trkpt>
      <trkpt lat="45.91931" lon="4.37374">
        <ele>743.4</ele>
        <time>2022-06-26T10:22:09Z</time>
      </trkpt>
      <trkpt lat="45.91928" lon="4.37371">
        <ele>743.4</ele>
        <time>2022-06-26T10:22:10Z</time>
      </trkpt>
      <trkpt lat="45.91924" lon="4.37368">
        <ele>743.4</ele>
        <time>2022-06-26T10:22:11Z</time>
      </trkpt>
      <trkpt lat="45.9192" lon="4.37366">
        <ele>743.8</ele>
        <time>2022-06-26T10:22:12Z</time>
      </trkpt>
      <trkpt lat="45.91916" lon="4.37363">
        <ele>743.8</ele>
        <time>2022-06-26T10:22:13Z</time>
      </trkpt>
      <trkpt lat="45.91911" lon="4.37361">
        <ele>744</ele>
        <time>2022-06-26T10:22:14Z</time>
      </trkpt>
      <trkpt lat="45.91907" lon="4.3736">
        <ele>744</ele>
        <time>2022-06-26T10:22:15Z</time>
      </trkpt>
      <trkpt lat="45.91903" lon="4.37359">
        <ele>744.4</ele>
        <time>2022-06-26T10:22:16Z</time>
      </trkpt>
      <trkpt lat="45.91898" lon="4.37358">
        <ele>744.4</ele>
        <time>2022-06-26T10:22:17Z</time>
      </trkpt>
      <trkpt lat="45.91894" lon="4.37358">
        <ele>744.6</ele>
        <time>2022-06-26T10:22:18Z</time>
      </trkpt>
      <trkpt lat="45.91889" lon="4.37358">
        <ele>744.6</ele>
        <time>2022-06-26T10:22:19Z</time>
      </trkpt>
      <trkpt lat="45.91885" lon="4.37358">
        <ele>744.8</ele>
        <time>2022-06-26T10:22:20Z</time>
      </trkpt>
      <trkpt lat="45.9188" lon="4.37359">
        <ele>745</ele>
        <time>2022-06-26T10:22:21Z</time>
      </trkpt>
      <trkpt lat="45.91875" lon="4.37359">
        <ele>745</ele>
        <time>2022-06-26T10:22:22Z</time>
      </trkpt>
      <trkpt lat="45.9187" lon="4.3736">
        <ele>745.2</ele>
        <time>2022-06-26T10:22:23Z</time>
      </trkpt>
      <trkpt lat="45.91866" lon="4.37361">
        <ele>745.2</ele>
        <time>2022-06-26T10:22:24Z</time>
      </trkpt>
      <trkpt lat="45.91861" lon="4.37361">
        <ele>745.2</ele>
        <time>2022-06-26T10:22:25Z</time>
      </trkpt>
      <trkpt lat="45.91856" lon="4.37361">
        <ele>745.2</ele>
        <time>2022-06-26T10:22:26Z</time>
      </trkpt>
      <trkpt lat="45.91851" lon="4.37361">
        <ele>745.2</ele>
        <time>2022-06-26T10:22:27Z</time>
      </trkpt>
      <trkpt lat="45.91846" lon="4.37361">
        <ele>745.2</ele>
        <time>2022-06-26T10:22:28Z</time>
      </trkpt>
      <trkpt lat="45.91841" lon="4.3736">
        <ele>745.2</ele>
        <time>2022-06-26T10:22:29Z</time>
      </trkpt>
      <trkpt lat="45.91836" lon="4.37358">
        <ele>745.2</ele>
        <time>2022-06-26T10:22:30Z</time>
      </trkpt>
      <trkpt lat="45.91831" lon="4.37356">
        <ele>745.4</ele>
        <time>2022-06-26T10:22:31Z</time>
      </trkpt>
      <trkpt lat="45.91826" lon="4.37354">
        <ele>745.4</ele>
        <time>2022-06-26T10:22:32Z</time>
      </trkpt>
      <trkpt lat="45.91822" lon="4.37351">
        <ele>745.8</ele>
        <time>2022-06-26T10:22:33Z</time>
      </trkpt>
      <trkpt lat="45.91818" lon="4.37348">
        <ele>745.8</ele>
        <time>2022-06-26T10:22:34Z</time>
      </trkpt>
      <trkpt lat="45.91814" lon="4.37345">
        <ele>746</ele>
        <time>2022-06-26T10:22:35Z</time>
      </trkpt>
      <trkpt lat="45.9181" lon="4.37342">
        <ele>746</ele>
        <time>2022-06-26T10:22:36Z</time>
      </trkpt>
      <trkpt lat="45.91806" lon="4.37338">
        <ele>746.4</ele>
        <time>2022-06-26T10:22:37Z</time>
      </trkpt>
      <trkpt lat="45.91802" lon="4.37335">
        <ele>746.4</ele>
        <time>2022-06-26T10:22:38Z</time>
      </trkpt>
      <trkpt lat="45.91798" lon="4.37331">
        <ele>746.6</ele>
        <time>2022-06-26T10:22:39Z</time>
      </trkpt>
      <trkpt lat="45.91794" lon="4.37328">
        <ele>746.6</ele>
        <time>2022-06-26T10:22:40Z</time>
      </trkpt>
      <trkpt lat="45.91789" lon="4.37325">
        <ele>746.8</ele>
        <time>2022-06-26T10:22:41Z</time>
      </trkpt>
      <trkpt lat="45.91785" lon="4.37322">
        <ele>746.8</ele>
        <time>2022-06-26T10:22:42Z</time>
      </trkpt>
      <trkpt lat="45.91781" lon="4.37319">
        <ele>746.8</ele>
        <time>2022-06-26T10:22:43Z</time>
      </trkpt>
      <trkpt lat="45.91776" lon="4.37316">
        <ele>747.2</ele>
        <time>2022-06-26T10:22:44Z</time>
      </trkpt>
      <trkpt lat="45.91772" lon="4.37313">
        <ele>747.2</ele>
        <time>2022-06-26T10:22:45Z</time>
      </trkpt>
      <trkpt lat="45.91767" lon="4.37311">
        <ele>747.4</ele>
        <time>2022-06-26T10:22:46Z</time>
      </trkpt>
      <trkpt lat="45.91763" lon="4.37309">
        <ele>747.4</ele>
        <time>2022-06-26T10:22:47Z</time>
      </trkpt>
      <trkpt lat="45.91758" lon="4.37307">
        <ele>747.6</ele>
        <time>2022-06-26T10:22:48Z</time>
      </trkpt>
      <trkpt lat="45.91754" lon="4.37305">
        <ele>747.6</ele>
        <time>2022-06-26T10:22:49Z</time>
      </trkpt>
      <trkpt lat="45.91749" lon="4.37303">
        <ele>747.6</ele>
        <time>2022-06-26T10:22:50Z</time>
      </trkpt>
      <trkpt lat="45.91745" lon="4.373">
        <ele>748</ele>
        <time>2022-06-26T10:22:51Z</time>
      </trkpt>
      <trkpt lat="45.9174" lon="4.37298">
        <ele>748</ele>
        <time>2022-06-26T10:22:52Z</time>
      </trkpt>
      <trkpt lat="45.91735" lon="4.37296">
        <ele>748</ele>
        <time>2022-06-26T10:22:53Z</time>
      </trkpt>
      <trkpt lat="45.91731" lon="4.37295">
        <ele>748.2</ele>
        <time>2022-06-26T10:22:54Z</time>
      </trkpt>
      <trkpt lat="45.91726" lon="4.37292">
        <ele>748.2</ele>
        <time>2022-06-26T10:22:55Z</time>
      </trkpt>
      <trkpt lat="45.91722" lon="4.3729">
        <ele>748.6</ele>
        <time>2022-06-26T10:22:56Z</time>
      </trkpt>
      <trkpt lat="45.91717" lon="4.37288">
        <ele>748.6</ele>
        <time>2022-06-26T10:22:57Z</time>
      </trkpt>
      <trkpt lat="45.91713" lon="4.37286">
        <ele>748.8</ele>
        <time>2022-06-26T10:22:58Z</time>
      </trkpt>
      <trkpt lat="45.91708" lon="4.37284">
        <ele>748.8</ele>
        <time>2022-06-26T10:22:59Z</time>
      </trkpt>
      <trkpt lat="45.91704" lon="4.37282">
        <ele>748.8</ele>
        <time>2022-06-26T10:23:00Z</time>
      </trkpt>
      <trkpt lat="45.91699" lon="4.3728">
        <ele>749</ele>
        <time>2022-06-26T10:23:01Z</time>
      </trkpt>
      <trkpt lat="45.91695" lon="4.37277">
        <ele>749</ele>
        <time>2022-06-26T10:23:02Z</time>
      </trkpt>
      <trkpt lat="45.9169" lon="4.37274">
        <ele>749.2</ele>
        <time>2022-06-26T10:23:03Z</time>
      </trkpt>
      <trkpt lat="45.91686" lon="4.37271">
        <ele>749.2</ele>
        <time>2022-06-26T10:23:04Z</time>
      </trkpt>
      <trkpt lat="45.91682" lon="4.37268">
        <ele>749.2</ele>
        <time>2022-06-26T10:23:05Z</time>
      </trkpt>
      <trkpt lat="45.91678" lon="4.37265">
        <ele>749.6</ele>
        <time>2022-06-26T10:23:06Z</time>
      </trkpt>
      <trkpt lat="45.91674" lon="4.37262">
        <ele>749.6</ele>
        <time>2022-06-26T10:23:07Z</time>
      </trkpt>
      <trkpt lat="45.9167" lon="4.37259">
        <ele>749.8</ele>
        <time>2022-06-26T10:23:08Z</time>
      </trkpt>
      <trkpt lat="45.91666" lon="4.37255">
        <ele>749.8</ele>
        <time>2022-06-26T10:23:09Z</time>
      </trkpt>
      <trkpt lat="45.91662" lon="4.37251">
        <ele>750</ele>
        <time>2022-06-26T10:23:10Z</time>
      </trkpt>
      <trkpt lat="45.91658" lon="4.37248">
        <ele>750</ele>
        <time>2022-06-26T10:23:11Z</time>
      </trkpt>
      <trkpt lat="45.91655" lon="4.37244">
        <ele>750.4</ele>
        <time>2022-06-26T10:23:12Z</time>
      </trkpt>
      <trkpt lat="45.91651" lon="4.37241">
        <ele>750.4</ele>
        <time>2022-06-26T10:23:13Z</time>
      </trkpt>
      <trkpt lat="45.91647" lon="4.37237">
        <ele>750.4</ele>
        <time>2022-06-26T10:23:14Z</time>
      </trkpt>
      <trkpt lat="45.91643" lon="4.37233">
        <ele>750.6</ele>
        <time>2022-06-26T10:23:15Z</time>
      </trkpt>
      <trkpt lat="45.91639" lon="4.37229">
        <ele>750.6</ele>
        <time>2022-06-26T10:23:16Z</time>
      </trkpt>
      <trkpt lat="45.91635" lon="4.37226">
        <ele>750.6</ele>
        <time>2022-06-26T10:23:17Z</time>
      </trkpt>
      <trkpt lat="45.91631" lon="4.37222">
        <ele>751</ele>
        <time>2022-06-26T10:23:18Z</time>
      </trkpt>
      <trkpt lat="45.91627" lon="4.37219">
        <ele>751</ele>
        <time>2022-06-26T10:23:19Z</time>
      </trkpt>
      <trkpt lat="45.91623" lon="4.37215">
        <ele>751.2</ele>
        <time>2022-06-26T10:23:20Z</time>
      </trkpt>
      <trkpt lat="45.9162" lon="4.37212">
        <ele>751.2</ele>
        <time>2022-06-26T10:23:21Z</time>
      </trkpt>
      <trkpt lat="45.91616" lon="4.37208">
        <ele>751.6</ele>
        <time>2022-06-26T10:23:22Z</time>
      </trkpt>
      <trkpt lat="45.91612" lon="4.37205">
        <ele>751.6</ele>
        <time>2022-06-26T10:23:23Z</time>
      </trkpt>
      <trkpt lat="45.91608" lon="4.37202">
        <ele>751.8</ele>
        <time>2022-06-26T10:23:24Z</time>
      </trkpt>
      <trkpt lat="45.91604" lon="4.37198">
        <ele>752</ele>
        <time>2022-06-26T10:23:25Z</time>
      </trkpt>
      <trkpt lat="45.91601" lon="4.37195">
        <ele>752</ele>
        <time>2022-06-26T10:23:26Z</time>
      </trkpt>
      <trkpt lat="45.91597" lon="4.37191">
        <ele>752</ele>
        <time>2022-06-26T10:23:27Z</time>
      </trkpt>
      <trkpt lat="45.91593" lon="4.37188">
        <ele>752</ele>
        <time>2022-06-26T10:23:28Z</time>
      </trkpt>
      <trkpt lat="45.91589" lon="4.37184">
        <ele>752.2</ele>
        <time>2022-06-26T10:23:29Z</time>
      </trkpt>
      <trkpt lat="45.91585" lon="4.37181">
        <ele>752.2</ele>
        <time>2022-06-26T10:23:30Z</time>
      </trkpt>
      <trkpt lat="45.91581" lon="4.37178">
        <ele>752.2</ele>
        <time>2022-06-26T10:23:31Z</time>
      </trkpt>
      <trkpt lat="45.91577" lon="4.37175">
        <ele>752.4</ele>
        <time>2022-06-26T10:23:32Z</time>
      </trkpt>
      <trkpt lat="45.91573" lon="4.37172">
        <ele>752.4</ele>
        <time>2022-06-26T10:23:33Z</time>
      </trkpt>
      <trkpt lat="45.91568" lon="4.37169">
        <ele>752.4</ele>
        <time>2022-06-26T10:23:34Z</time>
      </trkpt>
      <trkpt lat="45.91564" lon="4.37166">
        <ele>752.8</ele>
        <time>2022-06-26T10:23:35Z</time>
      </trkpt>
      <trkpt lat="45.9156" lon="4.37164">
        <ele>752.8</ele>
        <time>2022-06-26T10:23:36Z</time>
      </trkpt>
      <trkpt lat="45.91556" lon="4.37161">
        <ele>753</ele>
        <time>2022-06-26T10:23:37Z</time>
      </trkpt>
      <trkpt lat="45.91552" lon="4.37159">
        <ele>753</ele>
        <time>2022-06-26T10:23:38Z</time>
      </trkpt>
      <trkpt lat="45.91548" lon="4.37157">
        <ele>753</ele>
        <time>2022-06-26T10:23:39Z</time>
      </trkpt>
      <trkpt lat="45.91544" lon="4.37155">
        <ele>753.4</ele>
        <time>2022-06-26T10:23:40Z</time>
      </trkpt>
      <trkpt lat="45.9154" lon="4.37153">
        <ele>753.4</ele>
        <time>2022-06-26T10:23:41Z</time>
      </trkpt>
      <trkpt lat="45.91535" lon="4.37151">
        <ele>753.6</ele>
        <time>2022-06-26T10:23:42Z</time>
      </trkpt>
      <trkpt lat="45.91531" lon="4.3715">
        <ele>753.6</ele>
        <time>2022-06-26T10:23:43Z</time>
      </trkpt>
      <trkpt lat="45.91527" lon="4.37148">
        <ele>753.8</ele>
        <time>2022-06-26T10:23:44Z</time>
      </trkpt>
      <trkpt lat="45.91523" lon="4.37147">
        <ele>753.8</ele>
        <time>2022-06-26T10:23:45Z</time>
      </trkpt>
      <trkpt lat="45.91518" lon="4.37145">
        <ele>753.8</ele>
        <time>2022-06-26T10:23:46Z</time>
      </trkpt>
      <trkpt lat="45.91514" lon="4.37143">
        <ele>754.2</ele>
        <time>2022-06-26T10:23:47Z</time>
      </trkpt>
      <trkpt lat="45.91509" lon="4.37142">
        <ele>754.2</ele>
        <time>2022-06-26T10:23:48Z</time>
      </trkpt>
      <trkpt lat="45.91505" lon="4.37139">
        <ele>754.2</ele>
        <time>2022-06-26T10:23:49Z</time>
      </trkpt>
      <trkpt lat="45.91501" lon="4.37137">
        <ele>754.4</ele>
        <time>2022-06-26T10:23:50Z</time>
      </trkpt>
      <trkpt lat="45.91496" lon="4.37134">
        <ele>754.4</ele>
        <time>2022-06-26T10:23:51Z</time>
      </trkpt>
      <trkpt lat="45.91492" lon="4.3713">
        <ele>754.4</ele>
        <time>2022-06-26T10:23:52Z</time>
      </trkpt>
      <trkpt lat="45.91488" lon="4.37127">
        <ele>754.4</ele>
        <time>2022-06-26T10:23:53Z</time>
      </trkpt>
      <trkpt lat="45.91484" lon="4.37122">
        <ele>754.6</ele>
        <time>2022-06-26T10:23:54Z</time>
      </trkpt>
      <trkpt lat="45.91481" lon="4.37117">
        <ele>754.6</ele>
        <time>2022-06-26T10:23:55Z</time>
      </trkpt>
      <trkpt lat="45.91478" lon="4.37111">
        <ele>754.6</ele>
        <time>2022-06-26T10:23:56Z</time>
      </trkpt>
      <trkpt lat="45.91475" lon="4.37105">
        <ele>754.8</ele>
        <time>2022-06-26T10:23:57Z</time>
      </trkpt>
      <trkpt lat="45.91473" lon="4.37099">
        <ele>754.8</ele>
        <time>2022-06-26T10:23:58Z</time>
      </trkpt>
      <trkpt lat="45.91471" lon="4.37093">
        <ele>755</ele>
        <time>2022-06-26T10:23:59Z</time>
      </trkpt>
      <trkpt lat="45.91469" lon="4.37086">
        <ele>755</ele>
        <time>2022-06-26T10:24:00Z</time>
      </trkpt>
      <trkpt lat="45.91468" lon="4.37079">
        <ele>755</ele>
        <time>2022-06-26T10:24:01Z</time>
      </trkpt>
      <trkpt lat="45.91467" lon="4.37072">
        <ele>755.4</ele>
        <time>2022-06-26T10:24:02Z</time>
      </trkpt>
      <trkpt lat="45.91467" lon="4.37065">
        <ele>755.4</ele>
        <time>2022-06-26T10:24:03Z</time>
      </trkpt>
      <trkpt lat="45.91467" lon="4.37058">
        <ele>755.6</ele>
        <time>2022-06-26T10:24:04Z</time>
      </trkpt>
      <trkpt lat="45.91467" lon="4.3705">
        <ele>755.6</ele>
        <time>2022-06-26T10:24:05Z</time>
      </trkpt>
      <trkpt lat="45.91468" lon="4.37043">
        <ele>755.6</ele>
        <time>2022-06-26T10:24:06Z</time>
      </trkpt>
      <trkpt lat="45.91469" lon="4.37036">
        <ele>755.6</ele>
        <time>2022-06-26T10:24:07Z</time>
      </trkpt>
      <trkpt lat="45.9147" lon="4.37029">
        <ele>756</ele>
        <time>2022-06-26T10:24:08Z</time>
      </trkpt>
      <trkpt lat="45.91471" lon="4.37022">
        <ele>756</ele>
        <time>2022-06-26T10:24:09Z</time>
      </trkpt>
      <trkpt lat="45.91472" lon="4.37015">
        <ele>756.2</ele>
        <time>2022-06-26T10:24:10Z</time>
      </trkpt>
      <trkpt lat="45.91473" lon="4.37008">
        <ele>756.2</ele>
        <time>2022-06-26T10:24:11Z</time>
      </trkpt>
      <trkpt lat="45.91474" lon="4.37001">
        <ele>756.2</ele>
        <time>2022-06-26T10:24:12Z</time>
      </trkpt>
      <trkpt lat="45.91476" lon="4.36994">
        <ele>756.6</ele>
        <time>2022-06-26T10:24:13Z</time>
      </trkpt>
      <trkpt lat="45.91477" lon="4.36987">
        <ele>756.6</ele>
        <time>2022-06-26T10:24:14Z</time>
      </trkpt>
      <trkpt lat="45.91478" lon="4.3698">
        <ele>756.8</ele>
        <time>2022-06-26T10:24:15Z</time>
      </trkpt>
      <trkpt lat="45.91479" lon="4.36973">
        <ele>756.8</ele>
        <time>2022-06-26T10:24:16Z</time>
      </trkpt>
      <trkpt lat="45.9148" lon="4.36966">
        <ele>756.8</ele>
        <time>2022-06-26T10:24:17Z</time>
      </trkpt>
      <trkpt lat="45.91481" lon="4.36959">
        <ele>757.2</ele>
        <time>2022-06-26T10:24:18Z</time>
      </trkpt>
      <trkpt lat="45.91482" lon="4.36953">
        <ele>757.2</ele>
        <time>2022-06-26T10:24:19Z</time>
      </trkpt>
      <trkpt lat="45.91483" lon="4.36946">
        <ele>757.4</ele>
        <time>2022-06-26T10:24:20Z</time>
      </trkpt>
      <trkpt lat="45.91484" lon="4.36939">
        <ele>757.4</ele>
        <time>2022-06-26T10:24:21Z</time>
      </trkpt>
      <trkpt lat="45.91484" lon="4.36932">
        <ele>757.8</ele>
        <time>2022-06-26T10:24:22Z</time>
      </trkpt>
      <trkpt lat="45.91484" lon="4.36926">
        <ele>757.8</ele>
        <time>2022-06-26T10:24:23Z</time>
      </trkpt>
      <trkpt lat="45.91483" lon="4.36919">
        <ele>758</ele>
        <time>2022-06-26T10:24:24Z</time>
      </trkpt>
      <trkpt lat="45.91481" lon="4.36913">
        <ele>758.2</ele>
        <time>2022-06-26T10:24:25Z</time>
      </trkpt>
      <trkpt lat="45.91479" lon="4.36907">
        <ele>758.2</ele>
        <time>2022-06-26T10:24:26Z</time>
      </trkpt>
      <trkpt lat="45.91476" lon="4.36901">
        <ele>758.6</ele>
        <time>2022-06-26T10:24:27Z</time>
      </trkpt>
      <trkpt lat="45.91473" lon="4.36897">
        <ele>758.8</ele>
        <time>2022-06-26T10:24:28Z</time>
      </trkpt>
      <trkpt lat="45.91469" lon="4.36893">
        <ele>758.8</ele>
        <time>2022-06-26T10:24:29Z</time>
      </trkpt>
      <trkpt lat="45.91465" lon="4.36891">
        <ele>759.2</ele>
        <time>2022-06-26T10:24:30Z</time>
      </trkpt>
      <trkpt lat="45.91461" lon="4.36889">
        <ele>759.2</ele>
        <time>2022-06-26T10:24:31Z</time>
      </trkpt>
      <trkpt lat="45.91456" lon="4.36887">
        <ele>759.4</ele>
        <time>2022-06-26T10:24:32Z</time>
      </trkpt>
      <trkpt lat="45.91451" lon="4.36886">
        <ele>759.4</ele>
        <time>2022-06-26T10:24:33Z</time>
      </trkpt>
      <trkpt lat="45.91447" lon="4.36885">
        <ele>759.6</ele>
        <time>2022-06-26T10:24:34Z</time>
      </trkpt>
      <trkpt lat="45.91442" lon="4.36884">
        <ele>759.6</ele>
        <time>2022-06-26T10:24:35Z</time>
      </trkpt>
      <trkpt lat="45.91437" lon="4.36884">
        <ele>760</ele>
        <time>2022-06-26T10:24:36Z</time>
      </trkpt>
      <trkpt lat="45.91432" lon="4.36885">
        <ele>760</ele>
        <time>2022-06-26T10:24:37Z</time>
      </trkpt>
      <trkpt lat="45.91427" lon="4.36885">
        <ele>760.2</ele>
        <time>2022-06-26T10:24:38Z</time>
      </trkpt>
      <trkpt lat="45.91422" lon="4.36884">
        <ele>760.2</ele>
        <time>2022-06-26T10:24:39Z</time>
      </trkpt>
      <trkpt lat="45.91417" lon="4.36884">
        <ele>760.4</ele>
        <time>2022-06-26T10:24:40Z</time>
      </trkpt>
      <trkpt lat="45.91411" lon="4.36884">
        <ele>760.4</ele>
        <time>2022-06-26T10:24:41Z</time>
      </trkpt>
      <trkpt lat="45.91406" lon="4.36884">
        <ele>760.6</ele>
        <time>2022-06-26T10:24:42Z</time>
      </trkpt>
      <trkpt lat="45.91401" lon="4.36884">
        <ele>760.6</ele>
        <time>2022-06-26T10:24:43Z</time>
      </trkpt>
      <trkpt lat="45.91396" lon="4.36884">
        <ele>760.6</ele>
        <time>2022-06-26T10:24:44Z</time>
      </trkpt>
      <trkpt lat="45.91391" lon="4.36884">
        <ele>761</ele>
        <time>2022-06-26T10:24:45Z</time>
      </trkpt>
      <trkpt lat="45.91386" lon="4.36884">
        <ele>761</ele>
        <time>2022-06-26T10:24:46Z</time>
      </trkpt>
      <trkpt lat="45.91381" lon="4.36884">
        <ele>761</ele>
        <time>2022-06-26T10:24:47Z</time>
      </trkpt>
      <trkpt lat="45.91376" lon="4.36884">
        <ele>761</ele>
        <time>2022-06-26T10:24:48Z</time>
      </trkpt>
      <trkpt lat="45.91371" lon="4.36883">
        <ele>761.2</ele>
        <time>2022-06-26T10:24:49Z</time>
      </trkpt>
      <trkpt lat="45.91365" lon="4.36883">
        <ele>761.2</ele>
        <time>2022-06-26T10:24:50Z</time>
      </trkpt>
      <trkpt lat="45.9136" lon="4.36882">
        <ele>761.2</ele>
        <time>2022-06-26T10:24:51Z</time>
      </trkpt>
      <trkpt lat="45.91354" lon="4.3688">
        <ele>761.2</ele>
        <time>2022-06-26T10:24:52Z</time>
      </trkpt>
      <trkpt lat="45.91349" lon="4.36877">
        <ele>761.2</ele>
        <time>2022-06-26T10:24:53Z</time>
      </trkpt>
      <trkpt lat="45.91344" lon="4.36874">
        <ele>761</ele>
        <time>2022-06-26T10:24:54Z</time>
      </trkpt>
      <trkpt lat="45.91338" lon="4.3687">
        <ele>761</ele>
        <time>2022-06-26T10:24:55Z</time>
      </trkpt>
      <trkpt lat="45.91333" lon="4.36866">
        <ele>761</ele>
        <time>2022-06-26T10:24:56Z</time>
      </trkpt>
      <trkpt lat="45.91328" lon="4.36862">
        <ele>761</ele>
        <time>2022-06-26T10:24:57Z</time>
      </trkpt>
      <trkpt lat="45.91323" lon="4.36857">
        <ele>760.6</ele>
        <time>2022-06-26T10:24:58Z</time>
      </trkpt>
      <trkpt lat="45.91318" lon="4.36852">
        <ele>760.6</ele>
        <time>2022-06-26T10:24:59Z</time>
      </trkpt>
      <trkpt lat="45.91313" lon="4.36847">
        <ele>760.6</ele>
        <time>2022-06-26T10:25:00Z</time>
      </trkpt>
      <trkpt lat="45.91308" lon="4.36842">
        <ele>760.6</ele>
        <time>2022-06-26T10:25:01Z</time>
      </trkpt>
      <trkpt lat="45.91303" lon="4.36837">
        <ele>760.6</ele>
        <time>2022-06-26T10:25:02Z</time>
      </trkpt>
      <trkpt lat="45.91298" lon="4.36832">
        <ele>760.6</ele>
        <time>2022-06-26T10:25:03Z</time>
      </trkpt>
      <trkpt lat="45.91293" lon="4.36827">
        <ele>760.4</ele>
        <time>2022-06-26T10:25:04Z</time>
      </trkpt>
      <trkpt lat="45.91288" lon="4.36822">
        <ele>760.4</ele>
        <time>2022-06-26T10:25:05Z</time>
      </trkpt>
      <trkpt lat="45.91283" lon="4.36817">
        <ele>760.4</ele>
        <time>2022-06-26T10:25:06Z</time>
      </trkpt>
      <trkpt lat="45.91278" lon="4.36812">
        <ele>760.4</ele>
        <time>2022-06-26T10:25:07Z</time>
      </trkpt>
      <trkpt lat="45.91274" lon="4.36808">
        <ele>760.4</ele>
        <time>2022-06-26T10:25:08Z</time>
      </trkpt>
      <trkpt lat="45.91269" lon="4.36803">
        <ele>760.2</ele>
        <time>2022-06-26T10:25:09Z</time>
      </trkpt>
      <trkpt lat="45.91264" lon="4.36798">
        <ele>760.2</ele>
        <time>2022-06-26T10:25:10Z</time>
      </trkpt>
      <trkpt lat="45.9126" lon="4.36793">
        <ele>760.2</ele>
        <time>2022-06-26T10:25:11Z</time>
      </trkpt>
      <trkpt lat="45.91255" lon="4.36788">
        <ele>760.2</ele>
        <time>2022-06-26T10:25:12Z</time>
      </trkpt>
      <trkpt lat="45.91251" lon="4.36783">
        <ele>760.2</ele>
        <time>2022-06-26T10:25:13Z</time>
      </trkpt>
      <trkpt lat="45.91247" lon="4.36777">
        <ele>760.2</ele>
        <time>2022-06-26T10:25:14Z</time>
      </trkpt>
      <trkpt lat="45.91243" lon="4.3677">
        <ele>760.2</ele>
        <time>2022-06-26T10:25:15Z</time>
      </trkpt>
      <trkpt lat="45.91241" lon="4.36762">
        <ele>760.2</ele>
        <time>2022-06-26T10:25:16Z</time>
      </trkpt>
      <trkpt lat="45.91239" lon="4.36754">
        <ele>760.2</ele>
        <time>2022-06-26T10:25:17Z</time>
      </trkpt>
      <trkpt lat="45.91238" lon="4.36744">
        <ele>760.2</ele>
        <time>2022-06-26T10:25:18Z</time>
      </trkpt>
      <trkpt lat="45.91238" lon="4.36735">
        <ele>760</ele>
        <time>2022-06-26T10:25:19Z</time>
      </trkpt>
      <trkpt lat="45.91239" lon="4.36726">
        <ele>760</ele>
        <time>2022-06-26T10:25:20Z</time>
      </trkpt>
      <trkpt lat="45.9124" lon="4.36716">
        <ele>760</ele>
        <time>2022-06-26T10:25:21Z</time>
      </trkpt>
      <trkpt lat="45.91241" lon="4.36707">
        <ele>759.6</ele>
        <time>2022-06-26T10:25:22Z</time>
      </trkpt>
      <trkpt lat="45.91243" lon="4.36697">
        <ele>759.6</ele>
        <time>2022-06-26T10:25:23Z</time>
      </trkpt>
      <trkpt lat="45.91245" lon="4.36688">
        <ele>759.4</ele>
        <time>2022-06-26T10:25:24Z</time>
      </trkpt>
      <trkpt lat="45.91246" lon="4.36678">
        <ele>759.4</ele>
        <time>2022-06-26T10:25:25Z</time>
      </trkpt>
      <trkpt lat="45.91248" lon="4.36668">
        <ele>759.2</ele>
        <time>2022-06-26T10:25:26Z</time>
      </trkpt>
      <trkpt lat="45.9125" lon="4.36659">
        <ele>759.2</ele>
        <time>2022-06-26T10:25:27Z</time>
      </trkpt>
      <trkpt lat="45.91253" lon="4.36649">
        <ele>759.2</ele>
        <time>2022-06-26T10:25:28Z</time>
      </trkpt>
      <trkpt lat="45.91255" lon="4.3664">
        <ele>759</ele>
        <time>2022-06-26T10:25:29Z</time>
      </trkpt>
      <trkpt lat="45.91258" lon="4.36631">
        <ele>759</ele>
        <time>2022-06-26T10:25:30Z</time>
      </trkpt>
      <trkpt lat="45.9126" lon="4.36622">
        <ele>759</ele>
        <time>2022-06-26T10:25:31Z</time>
      </trkpt>
      <trkpt lat="45.91264" lon="4.36614">
        <ele>759</ele>
        <time>2022-06-26T10:25:32Z</time>
      </trkpt>
      <trkpt lat="45.91267" lon="4.36606">
        <ele>759</ele>
        <time>2022-06-26T10:25:33Z</time>
      </trkpt>
      <trkpt lat="45.9127" lon="4.36598">
        <ele>759</ele>
        <time>2022-06-26T10:25:34Z</time>
      </trkpt>
      <trkpt lat="45.91274" lon="4.3659">
        <ele>759</ele>
        <time>2022-06-26T10:25:35Z</time>
      </trkpt>
      <trkpt lat="45.91278" lon="4.36583">
        <ele>759</ele>
        <time>2022-06-26T10:25:36Z</time>
      </trkpt>
      <trkpt lat="45.91282" lon="4.36576">
        <ele>759</ele>
        <time>2022-06-26T10:25:37Z</time>
      </trkpt>
      <trkpt lat="45.91286" lon="4.36569">
        <ele>759.2</ele>
        <time>2022-06-26T10:25:38Z</time>
      </trkpt>
      <trkpt lat="45.9129" lon="4.36562">
        <ele>759.2</ele>
        <time>2022-06-26T10:25:39Z</time>
      </trkpt>
      <trkpt lat="45.91294" lon="4.36556">
        <ele>759.2</ele>
        <time>2022-06-26T10:25:40Z</time>
      </trkpt>
      <trkpt lat="45.91298" lon="4.3655">
        <ele>759.4</ele>
        <time>2022-06-26T10:25:41Z</time>
      </trkpt>
      <trkpt lat="45.91302" lon="4.36544">
        <ele>759.4</ele>
        <time>2022-06-26T10:25:42Z</time>
      </trkpt>
      <trkpt lat="45.91306" lon="4.36538">
        <ele>759.4</ele>
        <time>2022-06-26T10:25:43Z</time>
      </trkpt>
      <trkpt lat="45.9131" lon="4.36533">
        <ele>759.6</ele>
        <time>2022-06-26T10:25:44Z</time>
      </trkpt>
      <trkpt lat="45.91314" lon="4.36527">
        <ele>759.6</ele>
        <time>2022-06-26T10:25:45Z</time>
      </trkpt>
      <trkpt lat="45.91317" lon="4.36521">
        <ele>759.6</ele>
        <time>2022-06-26T10:25:46Z</time>
      </trkpt>
      <trkpt lat="45.91321" lon="4.36515">
        <ele>759.6</ele>
        <time>2022-06-26T10:25:47Z</time>
      </trkpt>
      <trkpt lat="45.91325" lon="4.3651">
        <ele>760</ele>
        <time>2022-06-26T10:25:48Z</time>
      </trkpt>
      <trkpt lat="45.91328" lon="4.36504">
        <ele>760</ele>
        <time>2022-06-26T10:25:49Z</time>
      </trkpt>
      <trkpt lat="45.91332" lon="4.36499">
        <ele>760.2</ele>
        <time>2022-06-26T10:25:50Z</time>
      </trkpt>
      <trkpt lat="45.91336" lon="4.36494">
        <ele>760.2</ele>
        <time>2022-06-26T10:25:51Z</time>
      </trkpt>
      <trkpt lat="45.9134" lon="4.36489">
        <ele>760.4</ele>
        <time>2022-06-26T10:25:52Z</time>
      </trkpt>
      <trkpt lat="45.91343" lon="4.36484">
        <ele>760.4</ele>
        <time>2022-06-26T10:25:53Z</time>
      </trkpt>
      <trkpt lat="45.91347" lon="4.36479">
        <ele>760.4</ele>
        <time>2022-06-26T10:25:54Z</time>
      </trkpt>
      <trkpt lat="45.91351" lon="4.36474">
        <ele>760.6</ele>
        <time>2022-06-26T10:25:55Z</time>
      </trkpt>
      <trkpt lat="45.91354" lon="4.36469">
        <ele>760.6</ele>
        <time>2022-06-26T10:25:56Z</time>
      </trkpt>
      <trkpt lat="45.91358" lon="4.36464">
        <ele>761</ele>
        <time>2022-06-26T10:25:57Z</time>
      </trkpt>
      <trkpt lat="45.91362" lon="4.36459">
        <ele>761</ele>
        <time>2022-06-26T10:25:58Z</time>
      </trkpt>
      <trkpt lat="45.91365" lon="4.36454">
        <ele>761.2</ele>
        <time>2022-06-26T10:25:59Z</time>
      </trkpt>
      <trkpt lat="45.91369" lon="4.36448">
        <ele>761.2</ele>
        <time>2022-06-26T10:26:00Z</time>
      </trkpt>
      <trkpt lat="45.91372" lon="4.36443">
        <ele>761.6</ele>
        <time>2022-06-26T10:26:01Z</time>
      </trkpt>
      <trkpt lat="45.91376" lon="4.36438">
        <ele>761.6</ele>
        <time>2022-06-26T10:26:02Z</time>
      </trkpt>
      <trkpt lat="45.91379" lon="4.36433">
        <ele>761.8</ele>
        <time>2022-06-26T10:26:03Z</time>
      </trkpt>
      <trkpt lat="45.91383" lon="4.36428">
        <ele>761.8</ele>
        <time>2022-06-26T10:26:04Z</time>
      </trkpt>
      <trkpt lat="45.91386" lon="4.36423">
        <ele>761.8</ele>
        <time>2022-06-26T10:26:05Z</time>
      </trkpt>
      <trkpt lat="45.9139" lon="4.36418">
        <ele>762.2</ele>
        <time>2022-06-26T10:26:06Z</time>
      </trkpt>
      <trkpt lat="45.91394" lon="4.36413">
        <ele>762.2</ele>
        <time>2022-06-26T10:26:07Z</time>
      </trkpt>
      <trkpt lat="45.91398" lon="4.36408">
        <ele>762.4</ele>
        <time>2022-06-26T10:26:08Z</time>
      </trkpt>
      <trkpt lat="45.91401" lon="4.36403">
        <ele>762.4</ele>
        <time>2022-06-26T10:26:09Z</time>
      </trkpt>
      <trkpt lat="45.91405" lon="4.36398">
        <ele>762.6</ele>
        <time>2022-06-26T10:26:10Z</time>
      </trkpt>
      <trkpt lat="45.91408" lon="4.36393">
        <ele>762.6</ele>
        <time>2022-06-26T10:26:11Z</time>
      </trkpt>
      <trkpt lat="45.91412" lon="4.36388">
        <ele>763</ele>
        <time>2022-06-26T10:26:12Z</time>
      </trkpt>
      <trkpt lat="45.91415" lon="4.36383">
        <ele>763</ele>
        <time>2022-06-26T10:26:13Z</time>
      </trkpt>
      <trkpt lat="45.91419" lon="4.36377">
        <ele>763.2</ele>
        <time>2022-06-26T10:26:14Z</time>
      </trkpt>
      <trkpt lat="45.91422" lon="4.36372">
        <ele>763.2</ele>
        <time>2022-06-26T10:26:15Z</time>
      </trkpt>
      <trkpt lat="45.91425" lon="4.36367">
        <ele>763.6</ele>
        <time>2022-06-26T10:26:16Z</time>
      </trkpt>
      <trkpt lat="45.91428" lon="4.36362">
        <ele>763.6</ele>
        <time>2022-06-26T10:26:17Z</time>
      </trkpt>
      <trkpt lat="45.91431" lon="4.36357">
        <ele>764</ele>
        <time>2022-06-26T10:26:18Z</time>
      </trkpt>
      <trkpt lat="45.91434" lon="4.36351">
        <ele>764</ele>
        <time>2022-06-26T10:26:19Z</time>
      </trkpt>
      <trkpt lat="45.91436" lon="4.36346">
        <ele>764.2</ele>
        <time>2022-06-26T10:26:20Z</time>
      </trkpt>
      <trkpt lat="45.91439" lon="4.3634">
        <ele>764.2</ele>
        <time>2022-06-26T10:26:21Z</time>
      </trkpt>
      <trkpt lat="45.91441" lon="4.36333">
        <ele>764.4</ele>
        <time>2022-06-26T10:26:22Z</time>
      </trkpt>
      <trkpt lat="45.91443" lon="4.36327">
        <ele>764.4</ele>
        <time>2022-06-26T10:26:23Z</time>
      </trkpt>
      <trkpt lat="45.91444" lon="4.36321">
        <ele>764.4</ele>
        <time>2022-06-26T10:26:24Z</time>
      </trkpt>
      <trkpt lat="45.91446" lon="4.36314">
        <ele>764.6</ele>
        <time>2022-06-26T10:26:25Z</time>
      </trkpt>
      <trkpt lat="45.91447" lon="4.36307">
        <ele>764.6</ele>
        <time>2022-06-26T10:26:26Z</time>
      </trkpt>
      <trkpt lat="45.91448" lon="4.363">
        <ele>765</ele>
        <time>2022-06-26T10:26:27Z</time>
      </trkpt>
      <trkpt lat="45.91449" lon="4.36293">
        <ele>765</ele>
        <time>2022-06-26T10:26:28Z</time>
      </trkpt>
      <trkpt lat="45.91449" lon="4.36286">
        <ele>765</ele>
        <time>2022-06-26T10:26:29Z</time>
      </trkpt>
      <trkpt lat="45.9145" lon="4.36279">
        <ele>765.2</ele>
        <time>2022-06-26T10:26:30Z</time>
      </trkpt>
      <trkpt lat="45.9145" lon="4.36271">
        <ele>765.2</ele>
        <time>2022-06-26T10:26:31Z</time>
      </trkpt>
      <trkpt lat="45.91449" lon="4.36264">
        <ele>765.4</ele>
        <time>2022-06-26T10:26:32Z</time>
      </trkpt>
      <trkpt lat="45.91449" lon="4.36256">
        <ele>765.4</ele>
        <time>2022-06-26T10:26:33Z</time>
      </trkpt>
      <trkpt lat="45.91448" lon="4.36248">
        <ele>765.4</ele>
        <time>2022-06-26T10:26:34Z</time>
      </trkpt>
      <trkpt lat="45.91448" lon="4.3624">
        <ele>765.4</ele>
        <time>2022-06-26T10:26:35Z</time>
      </trkpt>
      <trkpt lat="45.91447" lon="4.36231">
        <ele>765.4</ele>
        <time>2022-06-26T10:26:36Z</time>
      </trkpt>
      <trkpt lat="45.91446" lon="4.36223">
        <ele>765.4</ele>
        <time>2022-06-26T10:26:37Z</time>
      </trkpt>
      <trkpt lat="45.91446" lon="4.36214">
        <ele>765.4</ele>
        <time>2022-06-26T10:26:38Z</time>
      </trkpt>
      <trkpt lat="45.91446" lon="4.36205">
        <ele>765.2</ele>
        <time>2022-06-26T10:26:39Z</time>
      </trkpt>
      <trkpt lat="45.91447" lon="4.36195">
        <ele>765.2</ele>
        <time>2022-06-26T10:26:40Z</time>
      </trkpt>
      <trkpt lat="45.91447" lon="4.36186">
        <ele>765</ele>
        <time>2022-06-26T10:26:41Z</time>
      </trkpt>
      <trkpt lat="45.91448" lon="4.36177">
        <ele>765</ele>
        <time>2022-06-26T10:26:42Z</time>
      </trkpt>
      <trkpt lat="45.91449" lon="4.36168">
        <ele>764.8</ele>
        <time>2022-06-26T10:26:43Z</time>
      </trkpt>
      <trkpt lat="45.91451" lon="4.36158">
        <ele>764.8</ele>
        <time>2022-06-26T10:26:44Z</time>
      </trkpt>
      <trkpt lat="45.91452" lon="4.36149">
        <ele>764.4</ele>
        <time>2022-06-26T10:26:45Z</time>
      </trkpt>
      <trkpt lat="45.91454" lon="4.3614">
        <ele>764.4</ele>
        <time>2022-06-26T10:26:46Z</time>
      </trkpt>
      <trkpt lat="45.91456" lon="4.36131">
        <ele>764.2</ele>
        <time>2022-06-26T10:26:47Z</time>
      </trkpt>
      <trkpt lat="45.91458" lon="4.36123">
        <ele>764.2</ele>
        <time>2022-06-26T10:26:48Z</time>
      </trkpt>
      <trkpt lat="45.9146" lon="4.36115">
        <ele>764.2</ele>
        <time>2022-06-26T10:26:49Z</time>
      </trkpt>
      <trkpt lat="45.91462" lon="4.36106">
        <ele>764.2</ele>
        <time>2022-06-26T10:26:50Z</time>
      </trkpt>
      <trkpt lat="45.91464" lon="4.36099">
        <ele>764</ele>
        <time>2022-06-26T10:26:51Z</time>
      </trkpt>
      <trkpt lat="45.91466" lon="4.36091">
        <ele>764</ele>
        <time>2022-06-26T10:26:52Z</time>
      </trkpt>
      <trkpt lat="45.91469" lon="4.36083">
        <ele>764</ele>
        <time>2022-06-26T10:26:53Z</time>
      </trkpt>
      <trkpt lat="45.91471" lon="4.36076">
        <ele>764</ele>
        <time>2022-06-26T10:26:54Z</time>
      </trkpt>
      <trkpt lat="45.91474" lon="4.36068">
        <ele>764</ele>
        <time>2022-06-26T10:26:55Z</time>
      </trkpt>
      <trkpt lat="45.91477" lon="4.36061">
        <ele>764</ele>
        <time>2022-06-26T10:26:56Z</time>
      </trkpt>
      <trkpt lat="45.9148" lon="4.36054">
        <ele>764</ele>
        <time>2022-06-26T10:26:57Z</time>
      </trkpt>
      <trkpt lat="45.91482" lon="4.36046">
        <ele>764</ele>
        <time>2022-06-26T10:26:58Z</time>
      </trkpt>
      <trkpt lat="45.91485" lon="4.36039">
        <ele>764</ele>
        <time>2022-06-26T10:26:59Z</time>
      </trkpt>
      <trkpt lat="45.91488" lon="4.36032">
        <ele>764</ele>
        <time>2022-06-26T10:27:00Z</time>
      </trkpt>
      <trkpt lat="45.9149" lon="4.36024">
        <ele>764</ele>
        <time>2022-06-26T10:27:01Z</time>
      </trkpt>
      <trkpt lat="45.91493" lon="4.36016">
        <ele>764</ele>
        <time>2022-06-26T10:27:02Z</time>
      </trkpt>
      <trkpt lat="45.91495" lon="4.36008">
        <ele>764</ele>
        <time>2022-06-26T10:27:03Z</time>
      </trkpt>
      <trkpt lat="45.91497" lon="4.36">
        <ele>764</ele>
        <time>2022-06-26T10:27:04Z</time>
      </trkpt>
      <trkpt lat="45.91498" lon="4.35991">
        <ele>764</ele>
        <time>2022-06-26T10:27:05Z</time>
      </trkpt>
      <trkpt lat="45.91499" lon="4.35983">
        <ele>764</ele>
        <time>2022-06-26T10:27:06Z</time>
      </trkpt>
      <trkpt lat="45.91501" lon="4.35974">
        <ele>764</ele>
        <time>2022-06-26T10:27:07Z</time>
      </trkpt>
      <trkpt lat="45.91502" lon="4.35965">
        <ele>764</ele>
        <time>2022-06-26T10:27:08Z</time>
      </trkpt>
      <trkpt lat="45.91503" lon="4.35956">
        <ele>764</ele>
        <time>2022-06-26T10:27:09Z</time>
      </trkpt>
      <trkpt lat="45.91504" lon="4.35946">
        <ele>764</ele>
        <time>2022-06-26T10:27:10Z</time>
      </trkpt>
      <trkpt lat="45.91506" lon="4.35937">
        <ele>763.8</ele>
        <time>2022-06-26T10:27:11Z</time>
      </trkpt>
      <trkpt lat="45.91508" lon="4.35928">
        <ele>763.8</ele>
        <time>2022-06-26T10:27:12Z</time>
      </trkpt>
      <trkpt lat="45.9151" lon="4.35919">
        <ele>763.8</ele>
        <time>2022-06-26T10:27:13Z</time>
      </trkpt>
      <trkpt lat="45.91513" lon="4.3591">
        <ele>763.4</ele>
        <time>2022-06-26T10:27:14Z</time>
      </trkpt>
      <trkpt lat="45.91516" lon="4.359">
        <ele>763.4</ele>
        <time>2022-06-26T10:27:15Z</time>
      </trkpt>
      <trkpt lat="45.91519" lon="4.35891">
        <ele>763.2</ele>
        <time>2022-06-26T10:27:16Z</time>
      </trkpt>
      <trkpt lat="45.91523" lon="4.35882">
        <ele>763.2</ele>
        <time>2022-06-26T10:27:17Z</time>
      </trkpt>
      <trkpt lat="45.91526" lon="4.35873">
        <ele>763</ele>
        <time>2022-06-26T10:27:18Z</time>
      </trkpt>
      <trkpt lat="45.91529" lon="4.35865">
        <ele>763</ele>
        <time>2022-06-26T10:27:19Z</time>
      </trkpt>
      <trkpt lat="45.91533" lon="4.35856">
        <ele>763</ele>
        <time>2022-06-26T10:27:20Z</time>
      </trkpt>
      <trkpt lat="45.91536" lon="4.35848">
        <ele>763</ele>
        <time>2022-06-26T10:27:21Z</time>
      </trkpt>
      <trkpt lat="45.91538" lon="4.35839">
        <ele>762.8</ele>
        <time>2022-06-26T10:27:23Z</time>
      </trkpt>
      <trkpt lat="45.9154" lon="4.3583">
        <ele>762.8</ele>
        <time>2022-06-26T10:27:24Z</time>
      </trkpt>
      <trkpt lat="45.9154" lon="4.35821">
        <ele>762.6</ele>
        <time>2022-06-26T10:27:25Z</time>
      </trkpt>
      <trkpt lat="45.91541" lon="4.35801">
        <ele>762.6</ele>
        <time>2022-06-26T10:27:26Z</time>
      </trkpt>
      <trkpt lat="45.91541" lon="4.35791">
        <ele>762.6</ele>
        <time>2022-06-26T10:27:27Z</time>
      </trkpt>
      <trkpt lat="45.91541" lon="4.35781">
        <ele>762.2</ele>
        <time>2022-06-26T10:27:28Z</time>
      </trkpt>
      <trkpt lat="45.91541" lon="4.35771">
        <ele>762.2</ele>
        <time>2022-06-26T10:27:29Z</time>
      </trkpt>
      <trkpt lat="45.91541" lon="4.35761">
        <ele>761.8</ele>
        <time>2022-06-26T10:27:30Z</time>
      </trkpt>
      <trkpt lat="45.91541" lon="4.3575">
        <ele>761.8</ele>
        <time>2022-06-26T10:27:31Z</time>
      </trkpt>
      <trkpt lat="45.91541" lon="4.3574">
        <ele>761.6</ele>
        <time>2022-06-26T10:27:32Z</time>
      </trkpt>
      <trkpt lat="45.91541" lon="4.3573">
        <ele>761.6</ele>
        <time>2022-06-26T10:27:33Z</time>
      </trkpt>
      <trkpt lat="45.91541" lon="4.35719">
        <ele>761.2</ele>
        <time>2022-06-26T10:27:34Z</time>
      </trkpt>
      <trkpt lat="45.91542" lon="4.35709">
        <ele>761.2</ele>
        <time>2022-06-26T10:27:35Z</time>
      </trkpt>
      <trkpt lat="45.91542" lon="4.35698">
        <ele>761</ele>
        <time>2022-06-26T10:27:36Z</time>
      </trkpt>
      <trkpt lat="45.91542" lon="4.35687">
        <ele>760.8</ele>
        <time>2022-06-26T10:27:37Z</time>
      </trkpt>
      <trkpt lat="45.91542" lon="4.35676">
        <ele>760.8</ele>
        <time>2022-06-26T10:27:38Z</time>
      </trkpt>
      <trkpt lat="45.91542" lon="4.35666">
        <ele>760.4</ele>
        <time>2022-06-26T10:27:39Z</time>
      </trkpt>
      <trkpt lat="45.91542" lon="4.35655">
        <ele>760.4</ele>
        <time>2022-06-26T10:27:40Z</time>
      </trkpt>
      <trkpt lat="45.91542" lon="4.35644">
        <ele>760.2</ele>
        <time>2022-06-26T10:27:41Z</time>
      </trkpt>
      <trkpt lat="45.91542" lon="4.35633">
        <ele>760.2</ele>
        <time>2022-06-26T10:27:42Z</time>
      </trkpt>
      <trkpt lat="45.91542" lon="4.35622">
        <ele>759.8</ele>
        <time>2022-06-26T10:27:43Z</time>
      </trkpt>
      <trkpt lat="45.91541" lon="4.35612">
        <ele>759.8</ele>
        <time>2022-06-26T10:27:44Z</time>
      </trkpt>
      <trkpt lat="45.91541" lon="4.35601">
        <ele>759.6</ele>
        <time>2022-06-26T10:27:45Z</time>
      </trkpt>
      <trkpt lat="45.9154" lon="4.3559">
        <ele>759.6</ele>
        <time>2022-06-26T10:27:46Z</time>
      </trkpt>
      <trkpt lat="45.9154" lon="4.35579">
        <ele>759</ele>
        <time>2022-06-26T10:27:47Z</time>
      </trkpt>
      <trkpt lat="45.91539" lon="4.35568">
        <ele>758.8</ele>
        <time>2022-06-26T10:27:48Z</time>
      </trkpt>
      <trkpt lat="45.91537" lon="4.35557">
        <ele>758.8</ele>
        <time>2022-06-26T10:27:49Z</time>
      </trkpt>
      <trkpt lat="45.91536" lon="4.35547">
        <ele>758.6</ele>
        <time>2022-06-26T10:27:50Z</time>
      </trkpt>
      <trkpt lat="45.91534" lon="4.35536">
        <ele>758.2</ele>
        <time>2022-06-26T10:27:51Z</time>
      </trkpt>
      <trkpt lat="45.91532" lon="4.35526">
        <ele>758.2</ele>
        <time>2022-06-26T10:27:52Z</time>
      </trkpt>
      <trkpt lat="45.9153" lon="4.35515">
        <ele>758</ele>
        <time>2022-06-26T10:27:54Z</time>
      </trkpt>
      <trkpt lat="45.91528" lon="4.35505">
        <ele>758</ele>
        <time>2022-06-26T10:27:55Z</time>
      </trkpt>
      <trkpt lat="45.91526" lon="4.35495">
        <ele>757.6</ele>
        <time>2022-06-26T10:27:56Z</time>
      </trkpt>
      <trkpt lat="45.91523" lon="4.35485">
        <ele>757.6</ele>
        <time>2022-06-26T10:27:57Z</time>
      </trkpt>
      <trkpt lat="45.9152" lon="4.35475">
        <ele>757.4</ele>
        <time>2022-06-26T10:27:58Z</time>
      </trkpt>
      <trkpt lat="45.91516" lon="4.35465">
        <ele>757.4</ele>
        <time>2022-06-26T10:27:59Z</time>
      </trkpt>
      <trkpt lat="45.91512" lon="4.35456">
        <ele>757.2</ele>
        <time>2022-06-26T10:28:00Z</time>
      </trkpt>
      <trkpt lat="45.91507" lon="4.35448">
        <ele>757.2</ele>
        <time>2022-06-26T10:28:01Z</time>
      </trkpt>
      <trkpt lat="45.91502" lon="4.35439">
        <ele>757.2</ele>
        <time>2022-06-26T10:28:02Z</time>
      </trkpt>
      <trkpt lat="45.91497" lon="4.35431">
        <ele>756.6</ele>
        <time>2022-06-26T10:28:03Z</time>
      </trkpt>
      <trkpt lat="45.91492" lon="4.35423">
        <ele>756.4</ele>
        <time>2022-06-26T10:28:04Z</time>
      </trkpt>
      <trkpt lat="45.91486" lon="4.35416">
        <ele>756.4</ele>
        <time>2022-06-26T10:28:05Z</time>
      </trkpt>
      <trkpt lat="45.91481" lon="4.35408">
        <ele>756.2</ele>
        <time>2022-06-26T10:28:06Z</time>
      </trkpt>
      <trkpt lat="45.91476" lon="4.354">
        <ele>755.8</ele>
        <time>2022-06-26T10:28:07Z</time>
      </trkpt>
      <trkpt lat="45.91471" lon="4.35392">
        <ele>755.6</ele>
        <time>2022-06-26T10:28:08Z</time>
      </trkpt>
      <trkpt lat="45.91466" lon="4.35383">
        <ele>755.6</ele>
        <time>2022-06-26T10:28:09Z</time>
      </trkpt>
      <trkpt lat="45.91462" lon="4.35373">
        <ele>755.4</ele>
        <time>2022-06-26T10:28:10Z</time>
      </trkpt>
      <trkpt lat="45.9146" lon="4.35363">
        <ele>755.4</ele>
        <time>2022-06-26T10:28:11Z</time>
      </trkpt>
      <trkpt lat="45.91457" lon="4.35353">
        <ele>755</ele>
        <time>2022-06-26T10:28:12Z</time>
      </trkpt>
      <trkpt lat="45.91456" lon="4.35342">
        <ele>754.8</ele>
        <time>2022-06-26T10:28:13Z</time>
      </trkpt>
      <trkpt lat="45.91455" lon="4.35331">
        <ele>754.6</ele>
        <time>2022-06-26T10:28:14Z</time>
      </trkpt>
      <trkpt lat="45.91454" lon="4.3532">
        <ele>754.4</ele>
        <time>2022-06-26T10:28:15Z</time>
      </trkpt>
      <trkpt lat="45.91454" lon="4.35309">
        <ele>754</ele>
        <time>2022-06-26T10:28:16Z</time>
      </trkpt>
      <trkpt lat="45.91454" lon="4.35298">
        <ele>754</ele>
        <time>2022-06-26T10:28:17Z</time>
      </trkpt>
      <trkpt lat="45.91453" lon="4.35287">
        <ele>753.8</ele>
        <time>2022-06-26T10:28:18Z</time>
      </trkpt>
      <trkpt lat="45.91453" lon="4.35276">
        <ele>753.8</ele>
        <time>2022-06-26T10:28:19Z</time>
      </trkpt>
      <trkpt lat="45.91453" lon="4.35265">
        <ele>753.6</ele>
        <time>2022-06-26T10:28:20Z</time>
      </trkpt>
      <trkpt lat="45.91454" lon="4.35254">
        <ele>753.2</ele>
        <time>2022-06-26T10:28:21Z</time>
      </trkpt>
      <trkpt lat="45.91455" lon="4.35242">
        <ele>753</ele>
        <time>2022-06-26T10:28:22Z</time>
      </trkpt>
      <trkpt lat="45.91457" lon="4.35231">
        <ele>753</ele>
        <time>2022-06-26T10:28:23Z</time>
      </trkpt>
      <trkpt lat="45.91459" lon="4.3522">
        <ele>752.6</ele>
        <time>2022-06-26T10:28:24Z</time>
      </trkpt>
      <trkpt lat="45.91461" lon="4.35209">
        <ele>752.6</ele>
        <time>2022-06-26T10:28:25Z</time>
      </trkpt>
      <trkpt lat="45.91464" lon="4.35198">
        <ele>752.4</ele>
        <time>2022-06-26T10:28:26Z</time>
      </trkpt>
      <trkpt lat="45.91466" lon="4.35187">
        <ele>752.4</ele>
        <time>2022-06-26T10:28:27Z</time>
      </trkpt>
      <trkpt lat="45.9147" lon="4.35177">
        <ele>752</ele>
        <time>2022-06-26T10:28:28Z</time>
      </trkpt>
      <trkpt lat="45.91473" lon="4.35166">
        <ele>751.8</ele>
        <time>2022-06-26T10:28:29Z</time>
      </trkpt>
      <trkpt lat="45.91476" lon="4.35156">
        <ele>751.8</ele>
        <time>2022-06-26T10:28:30Z</time>
      </trkpt>
      <trkpt lat="45.9148" lon="4.35146">
        <ele>751.6</ele>
        <time>2022-06-26T10:28:31Z</time>
      </trkpt>
      <trkpt lat="45.91483" lon="4.35136">
        <ele>751.6</ele>
        <time>2022-06-26T10:28:32Z</time>
      </trkpt>
      <trkpt lat="45.91487" lon="4.35127">
        <ele>751.2</ele>
        <time>2022-06-26T10:28:33Z</time>
      </trkpt>
      <trkpt lat="45.9149" lon="4.35117">
        <ele>751</ele>
        <time>2022-06-26T10:28:34Z</time>
      </trkpt>
      <trkpt lat="45.91493" lon="4.35108">
        <ele>750.8</ele>
        <time>2022-06-26T10:28:35Z</time>
      </trkpt>
      <trkpt lat="45.91496" lon="4.35099">
        <ele>750.6</ele>
        <time>2022-06-26T10:28:36Z</time>
      </trkpt>
      <trkpt lat="45.91498" lon="4.3509">
        <ele>750.4</ele>
        <time>2022-06-26T10:28:37Z</time>
      </trkpt>
      <trkpt lat="45.915" lon="4.3508">
        <ele>750</ele>
        <time>2022-06-26T10:28:38Z</time>
      </trkpt>
      <trkpt lat="45.915" lon="4.3507">
        <ele>750</ele>
        <time>2022-06-26T10:28:39Z</time>
      </trkpt>
      <trkpt lat="45.915" lon="4.35061">
        <ele>749.8</ele>
        <time>2022-06-26T10:28:40Z</time>
      </trkpt>
      <trkpt lat="45.915" lon="4.35051">
        <ele>749.8</ele>
        <time>2022-06-26T10:28:41Z</time>
      </trkpt>
      <trkpt lat="45.91501" lon="4.35042">
        <ele>749.8</ele>
        <time>2022-06-26T10:28:42Z</time>
      </trkpt>
      <trkpt lat="45.91501" lon="4.35033">
        <ele>749.8</ele>
        <time>2022-06-26T10:28:43Z</time>
      </trkpt>
      <trkpt lat="45.91501" lon="4.35024">
        <ele>750</ele>
        <time>2022-06-26T10:28:44Z</time>
      </trkpt>
      <trkpt lat="45.91502" lon="4.35016">
        <ele>750</ele>
        <time>2022-06-26T10:28:45Z</time>
      </trkpt>
      <trkpt lat="45.91502" lon="4.35008">
        <ele>750.4</ele>
        <time>2022-06-26T10:28:46Z</time>
      </trkpt>
      <trkpt lat="45.91502" lon="4.35">
        <ele>750.4</ele>
        <time>2022-06-26T10:28:47Z</time>
      </trkpt>
      <trkpt lat="45.91501" lon="4.34993">
        <ele>750.6</ele>
        <time>2022-06-26T10:28:48Z</time>
      </trkpt>
      <trkpt lat="45.91501" lon="4.34985">
        <ele>750.6</ele>
        <time>2022-06-26T10:28:49Z</time>
      </trkpt>
      <trkpt lat="45.91501" lon="4.34977">
        <ele>751</ele>
        <time>2022-06-26T10:28:50Z</time>
      </trkpt>
      <trkpt lat="45.915" lon="4.3497">
        <ele>751</ele>
        <time>2022-06-26T10:28:51Z</time>
      </trkpt>
      <trkpt lat="45.91499" lon="4.34962">
        <ele>751.4</ele>
        <time>2022-06-26T10:28:52Z</time>
      </trkpt>
      <trkpt lat="45.91499" lon="4.34955">
        <ele>751.6</ele>
        <time>2022-06-26T10:28:53Z</time>
      </trkpt>
      <trkpt lat="45.91498" lon="4.34947">
        <ele>751.8</ele>
        <time>2022-06-26T10:28:54Z</time>
      </trkpt>
      <trkpt lat="45.91497" lon="4.3494">
        <ele>751.8</ele>
        <time>2022-06-26T10:28:55Z</time>
      </trkpt>
      <trkpt lat="45.91497" lon="4.34933">
        <ele>752.2</ele>
        <time>2022-06-26T10:28:56Z</time>
      </trkpt>
      <trkpt lat="45.91496" lon="4.34926">
        <ele>752.4</ele>
        <time>2022-06-26T10:28:57Z</time>
      </trkpt>
      <trkpt lat="45.91495" lon="4.34919">
        <ele>752.6</ele>
        <time>2022-06-26T10:28:58Z</time>
      </trkpt>
      <trkpt lat="45.91495" lon="4.34912">
        <ele>752.6</ele>
        <time>2022-06-26T10:28:59Z</time>
      </trkpt>
      <trkpt lat="45.91494" lon="4.34906">
        <ele>753</ele>
        <time>2022-06-26T10:29:00Z</time>
      </trkpt>
      <trkpt lat="45.91494" lon="4.34899">
        <ele>753</ele>
        <time>2022-06-26T10:29:01Z</time>
      </trkpt>
      <trkpt lat="45.91494" lon="4.34892">
        <ele>753.4</ele>
        <time>2022-06-26T10:29:02Z</time>
      </trkpt>
      <trkpt lat="45.91494" lon="4.34886">
        <ele>753.6</ele>
        <time>2022-06-26T10:29:03Z</time>
      </trkpt>
      <trkpt lat="45.91495" lon="4.34879">
        <ele>753.6</ele>
        <time>2022-06-26T10:29:04Z</time>
      </trkpt>
      <trkpt lat="45.91495" lon="4.34873">
        <ele>754</ele>
        <time>2022-06-26T10:29:05Z</time>
      </trkpt>
      <trkpt lat="45.91496" lon="4.34866">
        <ele>754.4</ele>
        <time>2022-06-26T10:29:06Z</time>
      </trkpt>
      <trkpt lat="45.91497" lon="4.3486">
        <ele>754.4</ele>
        <time>2022-06-26T10:29:07Z</time>
      </trkpt>
      <trkpt lat="45.91498" lon="4.34854">
        <ele>754.6</ele>
        <time>2022-06-26T10:29:08Z</time>
      </trkpt>
      <trkpt lat="45.91499" lon="4.34848">
        <ele>754.6</ele>
        <time>2022-06-26T10:29:09Z</time>
      </trkpt>
      <trkpt lat="45.915" lon="4.34842">
        <ele>755</ele>
        <time>2022-06-26T10:29:10Z</time>
      </trkpt>
      <trkpt lat="45.91501" lon="4.34836">
        <ele>755</ele>
        <time>2022-06-26T10:29:11Z</time>
      </trkpt>
      <trkpt lat="45.91502" lon="4.34831">
        <ele>755.4</ele>
        <time>2022-06-26T10:29:12Z</time>
      </trkpt>
      <trkpt lat="45.91504" lon="4.34825">
        <ele>755.6</ele>
        <time>2022-06-26T10:29:13Z</time>
      </trkpt>
      <trkpt lat="45.91505" lon="4.34819">
        <ele>755.8</ele>
        <time>2022-06-26T10:29:14Z</time>
      </trkpt>
      <trkpt lat="45.91506" lon="4.34813">
        <ele>756</ele>
        <time>2022-06-26T10:29:15Z</time>
      </trkpt>
      <trkpt lat="45.91507" lon="4.34808">
        <ele>756</ele>
        <time>2022-06-26T10:29:16Z</time>
      </trkpt>
      <trkpt lat="45.91508" lon="4.34802">
        <ele>756.4</ele>
        <time>2022-06-26T10:29:17Z</time>
      </trkpt>
      <trkpt lat="45.9151" lon="4.34797">
        <ele>756.6</ele>
        <time>2022-06-26T10:29:18Z</time>
      </trkpt>
      <trkpt lat="45.91511" lon="4.34791">
        <ele>756.6</ele>
        <time>2022-06-26T10:29:19Z</time>
      </trkpt>
      <trkpt lat="45.91512" lon="4.34785">
        <ele>757</ele>
        <time>2022-06-26T10:29:20Z</time>
      </trkpt>
      <trkpt lat="45.91513" lon="4.3478">
        <ele>757</ele>
        <time>2022-06-26T10:29:21Z</time>
      </trkpt>
      <trkpt lat="45.91515" lon="4.34774">
        <ele>757.2</ele>
        <time>2022-06-26T10:29:22Z</time>
      </trkpt>
      <trkpt lat="45.91516" lon="4.34769">
        <ele>757.2</ele>
        <time>2022-06-26T10:29:23Z</time>
      </trkpt>
      <trkpt lat="45.91517" lon="4.34763">
        <ele>757.6</ele>
        <time>2022-06-26T10:29:24Z</time>
      </trkpt>
      <trkpt lat="45.91518" lon="4.34758">
        <ele>757.8</ele>
        <time>2022-06-26T10:29:25Z</time>
      </trkpt>
      <trkpt lat="45.91519" lon="4.34752">
        <ele>758</ele>
        <time>2022-06-26T10:29:26Z</time>
      </trkpt>
      <trkpt lat="45.9152" lon="4.34747">
        <ele>758.4</ele>
        <time>2022-06-26T10:29:27Z</time>
      </trkpt>
      <trkpt lat="45.91521" lon="4.34741">
        <ele>758.6</ele>
        <time>2022-06-26T10:29:28Z</time>
      </trkpt>
      <trkpt lat="45.91522" lon="4.34736">
        <ele>758.8</ele>
        <time>2022-06-26T10:29:29Z</time>
      </trkpt>
      <trkpt lat="45.91523" lon="4.34731">
        <ele>758.8</ele>
        <time>2022-06-26T10:29:30Z</time>
      </trkpt>
      <trkpt lat="45.91524" lon="4.34726">
        <ele>759.2</ele>
        <time>2022-06-26T10:29:31Z</time>
      </trkpt>
      <trkpt lat="45.91525" lon="4.3472">
        <ele>759.4</ele>
        <time>2022-06-26T10:29:32Z</time>
      </trkpt>
      <trkpt lat="45.91525" lon="4.34715">
        <ele>759.6</ele>
        <time>2022-06-26T10:29:33Z</time>
      </trkpt>
      <trkpt lat="45.91525" lon="4.34709">
        <ele>759.6</ele>
        <time>2022-06-26T10:29:34Z</time>
      </trkpt>
      <trkpt lat="45.91525" lon="4.34703">
        <ele>760</ele>
        <time>2022-06-26T10:29:35Z</time>
      </trkpt>
      <trkpt lat="45.91525" lon="4.34697">
        <ele>760</ele>
        <time>2022-06-26T10:29:36Z</time>
      </trkpt>
      <trkpt lat="45.91525" lon="4.34691">
        <ele>760.2</ele>
        <time>2022-06-26T10:29:37Z</time>
      </trkpt>
      <trkpt lat="45.91526" lon="4.34685">
        <ele>760.2</ele>
        <time>2022-06-26T10:29:38Z</time>
      </trkpt>
      <trkpt lat="45.91526" lon="4.34679">
        <ele>760.6</ele>
        <time>2022-06-26T10:29:39Z</time>
      </trkpt>
      <trkpt lat="45.91527" lon="4.34672">
        <ele>761</ele>
        <time>2022-06-26T10:29:40Z</time>
      </trkpt>
      <trkpt lat="45.91527" lon="4.34666">
        <ele>761</ele>
        <time>2022-06-26T10:29:41Z</time>
      </trkpt>
      <trkpt lat="45.91527" lon="4.3466">
        <ele>761.2</ele>
        <time>2022-06-26T10:29:42Z</time>
      </trkpt>
      <trkpt lat="45.91528" lon="4.34653">
        <ele>761.2</ele>
        <time>2022-06-26T10:29:43Z</time>
      </trkpt>
      <trkpt lat="45.91528" lon="4.34647">
        <ele>761.6</ele>
        <time>2022-06-26T10:29:44Z</time>
      </trkpt>
      <trkpt lat="45.91528" lon="4.3464">
        <ele>761.8</ele>
        <time>2022-06-26T10:29:45Z</time>
      </trkpt>
      <trkpt lat="45.91529" lon="4.34634">
        <ele>762</ele>
        <time>2022-06-26T10:29:46Z</time>
      </trkpt>
      <trkpt lat="45.91529" lon="4.34628">
        <ele>762.2</ele>
        <time>2022-06-26T10:29:47Z</time>
      </trkpt>
      <trkpt lat="45.91529" lon="4.34622">
        <ele>762.4</ele>
        <time>2022-06-26T10:29:48Z</time>
      </trkpt>
      <trkpt lat="45.91529" lon="4.34616">
        <ele>762.4</ele>
        <time>2022-06-26T10:29:49Z</time>
      </trkpt>
      <trkpt lat="45.9153" lon="4.34611">
        <ele>762.8</ele>
        <time>2022-06-26T10:29:50Z</time>
      </trkpt>
      <trkpt lat="45.9153" lon="4.34605">
        <ele>763</ele>
        <time>2022-06-26T10:29:51Z</time>
      </trkpt>
      <trkpt lat="45.91531" lon="4.346">
        <ele>763</ele>
        <time>2022-06-26T10:29:52Z</time>
      </trkpt>
      <trkpt lat="45.91531" lon="4.34595">
        <ele>763.4</ele>
        <time>2022-06-26T10:29:53Z</time>
      </trkpt>
      <trkpt lat="45.91531" lon="4.3459">
        <ele>763.6</ele>
        <time>2022-06-26T10:29:54Z</time>
      </trkpt>
      <trkpt lat="45.91532" lon="4.34584">
        <ele>763.6</ele>
        <time>2022-06-26T10:29:55Z</time>
      </trkpt>
      <trkpt lat="45.91533" lon="4.34579">
        <ele>764</ele>
        <time>2022-06-26T10:29:56Z</time>
      </trkpt>
      <trkpt lat="45.91534" lon="4.34575">
        <ele>764.2</ele>
        <time>2022-06-26T10:29:57Z</time>
      </trkpt>
      <trkpt lat="45.91535" lon="4.3457">
        <ele>764.2</ele>
        <time>2022-06-26T10:29:58Z</time>
      </trkpt>
      <trkpt lat="45.91535" lon="4.34565">
        <ele>764.6</ele>
        <time>2022-06-26T10:29:59Z</time>
      </trkpt>
      <trkpt lat="45.91536" lon="4.34561">
        <ele>764.6</ele>
        <time>2022-06-26T10:30:00Z</time>
      </trkpt>
      <trkpt lat="45.91536" lon="4.34556">
        <ele>765</ele>
        <time>2022-06-26T10:30:01Z</time>
      </trkpt>
      <trkpt lat="45.91536" lon="4.34552">
        <ele>765.2</ele>
        <time>2022-06-26T10:30:02Z</time>
      </trkpt>
      <trkpt lat="45.91535" lon="4.34548">
        <ele>765.4</ele>
        <time>2022-06-26T10:30:03Z</time>
      </trkpt>
      <trkpt lat="45.91533" lon="4.34545">
        <ele>765.4</ele>
        <time>2022-06-26T10:30:04Z</time>
      </trkpt>
      <trkpt lat="45.91531" lon="4.34543">
        <ele>765.8</ele>
        <time>2022-06-26T10:30:05Z</time>
      </trkpt>
      <trkpt lat="45.91529" lon="4.34541">
        <ele>765.8</ele>
        <time>2022-06-26T10:30:06Z</time>
      </trkpt>
      <trkpt lat="45.91526" lon="4.3454">
        <ele>765.8</ele>
        <time>2022-06-26T10:30:07Z</time>
      </trkpt>
      <trkpt lat="45.91523" lon="4.34539">
        <ele>765.8</ele>
        <time>2022-06-26T10:30:08Z</time>
      </trkpt>
      <trkpt lat="45.9152" lon="4.34538">
        <ele>765.8</ele>
        <time>2022-06-26T10:30:09Z</time>
      </trkpt>
      <trkpt lat="45.91517" lon="4.34536">
        <ele>765.4</ele>
        <time>2022-06-26T10:30:10Z</time>
      </trkpt>
      <trkpt lat="45.91514" lon="4.34534">
        <ele>765.4</ele>
        <time>2022-06-26T10:30:11Z</time>
      </trkpt>
      <trkpt lat="45.9151" lon="4.34532">
        <ele>765.4</ele>
        <time>2022-06-26T10:30:12Z</time>
      </trkpt>
      <trkpt lat="45.91506" lon="4.3453">
        <ele>765.2</ele>
        <time>2022-06-26T10:30:13Z</time>
      </trkpt>
      <trkpt lat="45.91502" lon="4.34528">
        <ele>765.2</ele>
        <time>2022-06-26T10:30:14Z</time>
      </trkpt>
      <trkpt lat="45.91497" lon="4.34527">
        <ele>765.2</ele>
        <time>2022-06-26T10:30:15Z</time>
      </trkpt>
      <trkpt lat="45.91493" lon="4.34525">
        <ele>765</ele>
        <time>2022-06-26T10:30:16Z</time>
      </trkpt>
      <trkpt lat="45.91488" lon="4.34523">
        <ele>765</ele>
        <time>2022-06-26T10:30:17Z</time>
      </trkpt>
      <trkpt lat="45.91483" lon="4.34521">
        <ele>764.6</ele>
        <time>2022-06-26T10:30:18Z</time>
      </trkpt>
      <trkpt lat="45.91479" lon="4.34519">
        <ele>764.6</ele>
        <time>2022-06-26T10:30:19Z</time>
      </trkpt>
      <trkpt lat="45.91474" lon="4.34517">
        <ele>764.2</ele>
        <time>2022-06-26T10:30:20Z</time>
      </trkpt>
      <trkpt lat="45.91468" lon="4.34516">
        <ele>764.2</ele>
        <time>2022-06-26T10:30:21Z</time>
      </trkpt>
      <trkpt lat="45.91463" lon="4.34514">
        <ele>764.2</ele>
        <time>2022-06-26T10:30:22Z</time>
      </trkpt>
      <trkpt lat="45.91458" lon="4.34511">
        <ele>763.8</ele>
        <time>2022-06-26T10:30:23Z</time>
      </trkpt>
      <trkpt lat="45.91453" lon="4.34509">
        <ele>763.6</ele>
        <time>2022-06-26T10:30:24Z</time>
      </trkpt>
      <trkpt lat="45.91447" lon="4.34507">
        <ele>763.2</ele>
        <time>2022-06-26T10:30:25Z</time>
      </trkpt>
      <trkpt lat="45.91441" lon="4.34504">
        <ele>763</ele>
        <time>2022-06-26T10:30:26Z</time>
      </trkpt>
      <trkpt lat="45.91435" lon="4.345">
        <ele>762.8</ele>
        <time>2022-06-26T10:30:27Z</time>
      </trkpt>
      <trkpt lat="45.9143" lon="4.34496">
        <ele>762.6</ele>
        <time>2022-06-26T10:30:28Z</time>
      </trkpt>
      <trkpt lat="45.91424" lon="4.34492">
        <ele>762.6</ele>
        <time>2022-06-26T10:30:29Z</time>
      </trkpt>
      <trkpt lat="45.91418" lon="4.34487">
        <ele>762</ele>
        <time>2022-06-26T10:30:30Z</time>
      </trkpt>
      <trkpt lat="45.91412" lon="4.34482">
        <ele>761.8</ele>
        <time>2022-06-26T10:30:31Z</time>
      </trkpt>
      <trkpt lat="45.91407" lon="4.34476">
        <ele>761.6</ele>
        <time>2022-06-26T10:30:32Z</time>
      </trkpt>
      <trkpt lat="45.91402" lon="4.3447">
        <ele>761.2</ele>
        <time>2022-06-26T10:30:33Z</time>
      </trkpt>
      <trkpt lat="45.91398" lon="4.34463">
        <ele>761.2</ele>
        <time>2022-06-26T10:30:34Z</time>
      </trkpt>
      <trkpt lat="45.91394" lon="4.34456">
        <ele>760.8</ele>
        <time>2022-06-26T10:30:35Z</time>
      </trkpt>
      <trkpt lat="45.9139" lon="4.34449">
        <ele>760.4</ele>
        <time>2022-06-26T10:30:36Z</time>
      </trkpt>
      <trkpt lat="45.91387" lon="4.34442">
        <ele>760</ele>
        <time>2022-06-26T10:30:37Z</time>
      </trkpt>
      <trkpt lat="45.91383" lon="4.34436">
        <ele>759.8</ele>
        <time>2022-06-26T10:30:38Z</time>
      </trkpt>
      <trkpt lat="45.9138" lon="4.3443">
        <ele>759.2</ele>
        <time>2022-06-26T10:30:39Z</time>
      </trkpt>
      <trkpt lat="45.91376" lon="4.34424">
        <ele>758.8</ele>
        <time>2022-06-26T10:30:40Z</time>
      </trkpt>
      <trkpt lat="45.91371" lon="4.34418">
        <ele>758.4</ele>
        <time>2022-06-26T10:30:41Z</time>
      </trkpt>
      <trkpt lat="45.91366" lon="4.34412">
        <ele>758</ele>
        <time>2022-06-26T10:30:42Z</time>
      </trkpt>
      <trkpt lat="45.91361" lon="4.34405">
        <ele>757.4</ele>
        <time>2022-06-26T10:30:43Z</time>
      </trkpt>
      <trkpt lat="45.91356" lon="4.34399">
        <ele>757.2</ele>
        <time>2022-06-26T10:30:44Z</time>
      </trkpt>
      <trkpt lat="45.91352" lon="4.34394">
        <ele>756.8</ele>
        <time>2022-06-26T10:30:45Z</time>
      </trkpt>
      <trkpt lat="45.91347" lon="4.3439">
        <ele>756.6</ele>
        <time>2022-06-26T10:30:46Z</time>
      </trkpt>
      <trkpt lat="45.91343" lon="4.34385">
        <ele>756.6</ele>
        <time>2022-06-26T10:30:47Z</time>
      </trkpt>
      <trkpt lat="45.91339" lon="4.34382">
        <ele>756.2</ele>
        <time>2022-06-26T10:30:48Z</time>
      </trkpt>
      <trkpt lat="45.91334" lon="4.3438">
        <ele>756.2</ele>
        <time>2022-06-26T10:30:49Z</time>
      </trkpt>
      <trkpt lat="45.9133" lon="4.34379">
        <ele>756</ele>
        <time>2022-06-26T10:30:50Z</time>
      </trkpt>
      <trkpt lat="45.91326" lon="4.3438">
        <ele>755.6</ele>
        <time>2022-06-26T10:30:51Z</time>
      </trkpt>
      <trkpt lat="45.91322" lon="4.34382">
        <ele>755.2</ele>
        <time>2022-06-26T10:30:52Z</time>
      </trkpt>
      <trkpt lat="45.91317" lon="4.34385">
        <ele>754.6</ele>
        <time>2022-06-26T10:30:53Z</time>
      </trkpt>
      <trkpt lat="45.9131" lon="4.34389">
        <ele>753.8</ele>
        <time>2022-06-26T10:30:54Z</time>
      </trkpt>
      <trkpt lat="45.91303" lon="4.34396">
        <ele>753</ele>
        <time>2022-06-26T10:30:55Z</time>
      </trkpt>
      <trkpt lat="45.91296" lon="4.34403">
        <ele>752</ele>
        <time>2022-06-26T10:30:56Z</time>
      </trkpt>
      <trkpt lat="45.91288" lon="4.34411">
        <ele>750.8</ele>
        <time>2022-06-26T10:30:57Z</time>
      </trkpt>
      <trkpt lat="45.91281" lon="4.34419">
        <ele>749.8</ele>
        <time>2022-06-26T10:30:58Z</time>
      </trkpt>
      <trkpt lat="45.91274" lon="4.34427">
        <ele>748.6</ele>
        <time>2022-06-26T10:30:59Z</time>
      </trkpt>
      <trkpt lat="45.91268" lon="4.34435">
        <ele>747.4</ele>
        <time>2022-06-26T10:31:00Z</time>
      </trkpt>
      <trkpt lat="45.91262" lon="4.34444">
        <ele>746</ele>
        <time>2022-06-26T10:31:01Z</time>
      </trkpt>
      <trkpt lat="45.91257" lon="4.34454">
        <ele>744.6</ele>
        <time>2022-06-26T10:31:02Z</time>
      </trkpt>
      <trkpt lat="45.91252" lon="4.34464">
        <ele>743.2</ele>
        <time>2022-06-26T10:31:03Z</time>
      </trkpt>
      <trkpt lat="45.91247" lon="4.34474">
        <ele>741.8</ele>
        <time>2022-06-26T10:31:04Z</time>
      </trkpt>
      <trkpt lat="45.91242" lon="4.34485">
        <ele>740.4</ele>
        <time>2022-06-26T10:31:05Z</time>
      </trkpt>
      <trkpt lat="45.91235" lon="4.34496">
        <ele>739.2</ele>
        <time>2022-06-26T10:31:06Z</time>
      </trkpt>
      <trkpt lat="45.91229" lon="4.34507">
        <ele>737.8</ele>
        <time>2022-06-26T10:31:07Z</time>
      </trkpt>
      <trkpt lat="45.91224" lon="4.34518">
        <ele>736.4</ele>
        <time>2022-06-26T10:31:08Z</time>
      </trkpt>
      <trkpt lat="45.91219" lon="4.34528">
        <ele>735.2</ele>
        <time>2022-06-26T10:31:09Z</time>
      </trkpt>
      <trkpt lat="45.91215" lon="4.34538">
        <ele>734</ele>
        <time>2022-06-26T10:31:10Z</time>
      </trkpt>
      <trkpt lat="45.91211" lon="4.34548">
        <ele>732.6</ele>
        <time>2022-06-26T10:31:11Z</time>
      </trkpt>
      <trkpt lat="45.91208" lon="4.34557">
        <ele>731.2</ele>
        <time>2022-06-26T10:31:12Z</time>
      </trkpt>
      <trkpt lat="45.91204" lon="4.34566">
        <ele>730.2</ele>
        <time>2022-06-26T10:31:13Z</time>
      </trkpt>
      <trkpt lat="45.912" lon="4.34575">
        <ele>729</ele>
        <time>2022-06-26T10:31:14Z</time>
      </trkpt>
      <trkpt lat="45.91195" lon="4.34583">
        <ele>727.8</ele>
        <time>2022-06-26T10:31:15Z</time>
      </trkpt>
      <trkpt lat="45.9119" lon="4.34592">
        <ele>726.4</ele>
        <time>2022-06-26T10:31:16Z</time>
      </trkpt>
      <trkpt lat="45.91184" lon="4.34601">
        <ele>725.2</ele>
        <time>2022-06-26T10:31:17Z</time>
      </trkpt>
      <trkpt lat="45.91177" lon="4.34609">
        <ele>724.2</ele>
        <time>2022-06-26T10:31:18Z</time>
      </trkpt>
      <trkpt lat="45.91171" lon="4.34616">
        <ele>723.2</ele>
        <time>2022-06-26T10:31:19Z</time>
      </trkpt>
      <trkpt lat="45.91164" lon="4.34623">
        <ele>722</ele>
        <time>2022-06-26T10:31:20Z</time>
      </trkpt>
      <trkpt lat="45.91159" lon="4.34629">
        <ele>721</ele>
        <time>2022-06-26T10:31:21Z</time>
      </trkpt>
      <trkpt lat="45.91154" lon="4.34635">
        <ele>720.2</ele>
        <time>2022-06-26T10:31:22Z</time>
      </trkpt>
      <trkpt lat="45.91149" lon="4.3464">
        <ele>719.4</ele>
        <time>2022-06-26T10:31:23Z</time>
      </trkpt>
      <trkpt lat="45.91145" lon="4.34647">
        <ele>718.6</ele>
        <time>2022-06-26T10:31:24Z</time>
      </trkpt>
      <trkpt lat="45.91141" lon="4.34655">
        <ele>717.8</ele>
        <time>2022-06-26T10:31:25Z</time>
      </trkpt>
      <trkpt lat="45.91137" lon="4.34665">
        <ele>716.8</ele>
        <time>2022-06-26T10:31:26Z</time>
      </trkpt>
      <trkpt lat="45.91134" lon="4.34676">
        <ele>715.8</ele>
        <time>2022-06-26T10:31:27Z</time>
      </trkpt>
      <trkpt lat="45.91131" lon="4.34687">
        <ele>714.6</ele>
        <time>2022-06-26T10:31:28Z</time>
      </trkpt>
      <trkpt lat="45.91128" lon="4.34697">
        <ele>713.6</ele>
        <time>2022-06-26T10:31:29Z</time>
      </trkpt>
      <trkpt lat="45.91125" lon="4.34707">
        <ele>712.6</ele>
        <time>2022-06-26T10:31:30Z</time>
      </trkpt>
      <trkpt lat="45.91121" lon="4.34716">
        <ele>712</ele>
        <time>2022-06-26T10:31:31Z</time>
      </trkpt>
      <trkpt lat="45.91116" lon="4.34726">
        <ele>711.4</ele>
        <time>2022-06-26T10:31:32Z</time>
      </trkpt>
      <trkpt lat="45.91111" lon="4.34735">
        <ele>710.4</ele>
        <time>2022-06-26T10:31:33Z</time>
      </trkpt>
      <trkpt lat="45.91106" lon="4.34745">
        <ele>709.6</ele>
        <time>2022-06-26T10:31:34Z</time>
      </trkpt>
      <trkpt lat="45.911" lon="4.34755">
        <ele>708.8</ele>
        <time>2022-06-26T10:31:35Z</time>
      </trkpt>
      <trkpt lat="45.91095" lon="4.34764">
        <ele>707.8</ele>
        <time>2022-06-26T10:31:36Z</time>
      </trkpt>
      <trkpt lat="45.9109" lon="4.34773">
        <ele>706.8</ele>
        <time>2022-06-26T10:31:37Z</time>
      </trkpt>
      <trkpt lat="45.91086" lon="4.34782">
        <ele>706</ele>
        <time>2022-06-26T10:31:38Z</time>
      </trkpt>
      <trkpt lat="45.91081" lon="4.3479">
        <ele>705.2</ele>
        <time>2022-06-26T10:31:39Z</time>
      </trkpt>
      <trkpt lat="45.91077" lon="4.34797">
        <ele>704.4</ele>
        <time>2022-06-26T10:31:40Z</time>
      </trkpt>
      <trkpt lat="45.91072" lon="4.34804">
        <ele>703.6</ele>
        <time>2022-06-26T10:31:41Z</time>
      </trkpt>
      <trkpt lat="45.91067" lon="4.34811">
        <ele>703</ele>
        <time>2022-06-26T10:31:42Z</time>
      </trkpt>
      <trkpt lat="45.91063" lon="4.34817">
        <ele>702.4</ele>
        <time>2022-06-26T10:31:43Z</time>
      </trkpt>
      <trkpt lat="45.91058" lon="4.34823">
        <ele>701.6</ele>
        <time>2022-06-26T10:31:44Z</time>
      </trkpt>
      <trkpt lat="45.91053" lon="4.34829">
        <ele>701</ele>
        <time>2022-06-26T10:31:45Z</time>
      </trkpt>
      <trkpt lat="45.91048" lon="4.34834">
        <ele>700.4</ele>
        <time>2022-06-26T10:31:46Z</time>
      </trkpt>
      <trkpt lat="45.91042" lon="4.34839">
        <ele>699.6</ele>
        <time>2022-06-26T10:31:47Z</time>
      </trkpt>
      <trkpt lat="45.91037" lon="4.34844">
        <ele>698.8</ele>
        <time>2022-06-26T10:31:48Z</time>
      </trkpt>
      <trkpt lat="45.91031" lon="4.34848">
        <ele>698.2</ele>
        <time>2022-06-26T10:31:49Z</time>
      </trkpt>
      <trkpt lat="45.91024" lon="4.34852">
        <ele>697.2</ele>
        <time>2022-06-26T10:31:50Z</time>
      </trkpt>
      <trkpt lat="45.91018" lon="4.34855">
        <ele>696.4</ele>
        <time>2022-06-26T10:31:51Z</time>
      </trkpt>
      <trkpt lat="45.91011" lon="4.34857">
        <ele>695.4</ele>
        <time>2022-06-26T10:31:52Z</time>
      </trkpt>
      <trkpt lat="45.91004" lon="4.3486">
        <ele>694.2</ele>
        <time>2022-06-26T10:31:53Z</time>
      </trkpt>
      <trkpt lat="45.90992" lon="4.34862">
        <ele>693.2</ele>
        <time>2022-06-26T10:31:54Z</time>
      </trkpt>
      <trkpt lat="45.90986" lon="4.34863">
        <ele>691.4</ele>
        <time>2022-06-26T10:31:55Z</time>
      </trkpt>
      <trkpt lat="45.9098" lon="4.34863">
        <ele>690.4</ele>
        <time>2022-06-26T10:31:56Z</time>
      </trkpt>
      <trkpt lat="45.90975" lon="4.34862">
        <ele>689.6</ele>
        <time>2022-06-26T10:31:57Z</time>
      </trkpt>
      <trkpt lat="45.90969" lon="4.3486">
        <ele>688.8</ele>
        <time>2022-06-26T10:31:58Z</time>
      </trkpt>
      <trkpt lat="45.90963" lon="4.34855">
        <ele>688</ele>
        <time>2022-06-26T10:31:59Z</time>
      </trkpt>
      <trkpt lat="45.90957" lon="4.34849">
        <ele>687.4</ele>
        <time>2022-06-26T10:32:00Z</time>
      </trkpt>
      <trkpt lat="45.90952" lon="4.34842">
        <ele>686.8</ele>
        <time>2022-06-26T10:32:01Z</time>
      </trkpt>
      <trkpt lat="45.90946" lon="4.34834">
        <ele>686.2</ele>
        <time>2022-06-26T10:32:02Z</time>
      </trkpt>
      <trkpt lat="45.9094" lon="4.34826">
        <ele>686.2</ele>
        <time>2022-06-26T10:32:03Z</time>
      </trkpt>
      <trkpt lat="45.90935" lon="4.34818">
        <ele>685.8</ele>
        <time>2022-06-26T10:32:04Z</time>
      </trkpt>
      <trkpt lat="45.90929" lon="4.34811">
        <ele>685.4</ele>
        <time>2022-06-26T10:32:05Z</time>
      </trkpt>
      <trkpt lat="45.90923" lon="4.34804">
        <ele>685.2</ele>
        <time>2022-06-26T10:32:06Z</time>
      </trkpt>
      <trkpt lat="45.90916" lon="4.34797">
        <ele>684.8</ele>
        <time>2022-06-26T10:32:07Z</time>
      </trkpt>
      <trkpt lat="45.90909" lon="4.34793">
        <ele>684.4</ele>
        <time>2022-06-26T10:32:08Z</time>
      </trkpt>
      <trkpt lat="45.90901" lon="4.3479">
        <ele>684.4</ele>
        <time>2022-06-26T10:32:09Z</time>
      </trkpt>
      <trkpt lat="45.90893" lon="4.34788">
        <ele>684</ele>
        <time>2022-06-26T10:32:10Z</time>
      </trkpt>
      <trkpt lat="45.90884" lon="4.34787">
        <ele>683.8</ele>
        <time>2022-06-26T10:32:11Z</time>
      </trkpt>
      <trkpt lat="45.90875" lon="4.34788">
        <ele>683.2</ele>
        <time>2022-06-26T10:32:12Z</time>
      </trkpt>
      <trkpt lat="45.90865" lon="4.3479">
        <ele>682.8</ele>
        <time>2022-06-26T10:32:13Z</time>
      </trkpt>
      <trkpt lat="45.90856" lon="4.34791">
        <ele>682.2</ele>
        <time>2022-06-26T10:32:14Z</time>
      </trkpt>
      <trkpt lat="45.90848" lon="4.34793">
        <ele>681.4</ele>
        <time>2022-06-26T10:32:15Z</time>
      </trkpt>
      <trkpt lat="45.9084" lon="4.34796">
        <ele>680.4</ele>
        <time>2022-06-26T10:32:16Z</time>
      </trkpt>
      <trkpt lat="45.90832" lon="4.34798">
        <ele>679.8</ele>
        <time>2022-06-26T10:32:17Z</time>
      </trkpt>
      <trkpt lat="45.90824" lon="4.348">
        <ele>679</ele>
        <time>2022-06-26T10:32:18Z</time>
      </trkpt>
      <trkpt lat="45.90815" lon="4.348">
        <ele>678.6</ele>
        <time>2022-06-26T10:32:19Z</time>
      </trkpt>
      <trkpt lat="45.90808" lon="4.34799">
        <ele>678</ele>
        <time>2022-06-26T10:32:20Z</time>
      </trkpt>
      <trkpt lat="45.90801" lon="4.34798">
        <ele>677.6</ele>
        <time>2022-06-26T10:32:21Z</time>
      </trkpt>
      <trkpt lat="45.90795" lon="4.34801">
        <ele>677.2</ele>
        <time>2022-06-26T10:32:22Z</time>
      </trkpt>
      <trkpt lat="45.9079" lon="4.34805">
        <ele>677.2</ele>
        <time>2022-06-26T10:32:23Z</time>
      </trkpt>
      <trkpt lat="45.90786" lon="4.3481">
        <ele>677</ele>
        <time>2022-06-26T10:32:24Z</time>
      </trkpt>
      <trkpt lat="45.90783" lon="4.34817">
        <ele>677</ele>
        <time>2022-06-26T10:32:25Z</time>
      </trkpt>
      <trkpt lat="45.90782" lon="4.34824">
        <ele>677</ele>
        <time>2022-06-26T10:32:26Z</time>
      </trkpt>
      <trkpt lat="45.90781" lon="4.34831">
        <ele>677</ele>
        <time>2022-06-26T10:32:27Z</time>
      </trkpt>
      <trkpt lat="45.9078" lon="4.34837">
        <ele>677</ele>
        <time>2022-06-26T10:32:28Z</time>
      </trkpt>
      <trkpt lat="45.90778" lon="4.34843">
        <ele>677.4</ele>
        <time>2022-06-26T10:32:29Z</time>
      </trkpt>
      <trkpt lat="45.90778" lon="4.34848">
        <ele>677.6</ele>
        <time>2022-06-26T10:32:30Z</time>
      </trkpt>
      <trkpt lat="45.90778" lon="4.34853">
        <ele>677.8</ele>
        <time>2022-06-26T10:32:31Z</time>
      </trkpt>
      <trkpt lat="45.90778" lon="4.34858">
        <ele>678.2</ele>
        <time>2022-06-26T10:32:32Z</time>
      </trkpt>
      <trkpt lat="45.90777" lon="4.34862">
        <ele>678.4</ele>
        <time>2022-06-26T10:32:33Z</time>
      </trkpt>
      <trkpt lat="45.90777" lon="4.34867">
        <ele>678.8</ele>
        <time>2022-06-26T10:32:34Z</time>
      </trkpt>
      <trkpt lat="45.90776" lon="4.34871">
        <ele>679</ele>
        <time>2022-06-26T10:32:35Z</time>
      </trkpt>
      <trkpt lat="45.90775" lon="4.34876">
        <ele>679.2</ele>
        <time>2022-06-26T10:32:36Z</time>
      </trkpt>
      <trkpt lat="45.90775" lon="4.34881">
        <ele>679.2</ele>
        <time>2022-06-26T10:32:37Z</time>
      </trkpt>
      <trkpt lat="45.90774" lon="4.34887">
        <ele>679.6</ele>
        <time>2022-06-26T10:32:38Z</time>
      </trkpt>
      <trkpt lat="45.90772" lon="4.34892">
        <ele>679.6</ele>
        <time>2022-06-26T10:32:39Z</time>
      </trkpt>
      <trkpt lat="45.90771" lon="4.34898">
        <ele>679.6</ele>
        <time>2022-06-26T10:32:40Z</time>
      </trkpt>
      <trkpt lat="45.90769" lon="4.34904">
        <ele>679.8</ele>
        <time>2022-06-26T10:32:41Z</time>
      </trkpt>
      <trkpt lat="45.90767" lon="4.3491">
        <ele>679.8</ele>
        <time>2022-06-26T10:32:42Z</time>
      </trkpt>
      <trkpt lat="45.90765" lon="4.34915">
        <ele>680.2</ele>
        <time>2022-06-26T10:32:43Z</time>
      </trkpt>
      <trkpt lat="45.90763" lon="4.34919">
        <ele>680.4</ele>
        <time>2022-06-26T10:32:44Z</time>
      </trkpt>
      <trkpt lat="45.90761" lon="4.34924">
        <ele>680.4</ele>
        <time>2022-06-26T10:32:45Z</time>
      </trkpt>
      <trkpt lat="45.90759" lon="4.34929">
        <ele>680.8</ele>
        <time>2022-06-26T10:32:46Z</time>
      </trkpt>
      <trkpt lat="45.90758" lon="4.34934">
        <ele>680.8</ele>
        <time>2022-06-26T10:32:47Z</time>
      </trkpt>
      <trkpt lat="45.90756" lon="4.34939">
        <ele>681</ele>
        <time>2022-06-26T10:32:48Z</time>
      </trkpt>
      <trkpt lat="45.90753" lon="4.34943">
        <ele>681.2</ele>
        <time>2022-06-26T10:32:49Z</time>
      </trkpt>
      <trkpt lat="45.90751" lon="4.34947">
        <ele>681.6</ele>
        <time>2022-06-26T10:32:50Z</time>
      </trkpt>
      <trkpt lat="45.90748" lon="4.34951">
        <ele>681.6</ele>
        <time>2022-06-26T10:32:51Z</time>
      </trkpt>
      <trkpt lat="45.90746" lon="4.34954">
        <ele>681.8</ele>
        <time>2022-06-26T10:32:52Z</time>
      </trkpt>
      <trkpt lat="45.90744" lon="4.34958">
        <ele>681.8</ele>
        <time>2022-06-26T10:32:53Z</time>
      </trkpt>
      <trkpt lat="45.90741" lon="4.34961">
        <ele>682</ele>
        <time>2022-06-26T10:32:54Z</time>
      </trkpt>
      <trkpt lat="45.90738" lon="4.34965">
        <ele>682</ele>
        <time>2022-06-26T10:32:55Z</time>
      </trkpt>
      <trkpt lat="45.90736" lon="4.34968">
        <ele>682</ele>
        <time>2022-06-26T10:32:56Z</time>
      </trkpt>
      <trkpt lat="45.90732" lon="4.34972">
        <ele>682</ele>
        <time>2022-06-26T10:32:57Z</time>
      </trkpt>
      <trkpt lat="45.90729" lon="4.34976">
        <ele>682</ele>
        <time>2022-06-26T10:32:58Z</time>
      </trkpt>
      <trkpt lat="45.90726" lon="4.3498">
        <ele>682</ele>
        <time>2022-06-26T10:32:59Z</time>
      </trkpt>
      <trkpt lat="45.90722" lon="4.34984">
        <ele>682</ele>
        <time>2022-06-26T10:33:00Z</time>
      </trkpt>
      <trkpt lat="45.90718" lon="4.34987">
        <ele>682</ele>
        <time>2022-06-26T10:33:01Z</time>
      </trkpt>
      <trkpt lat="45.90713" lon="4.34991">
        <ele>681.6</ele>
        <time>2022-06-26T10:33:02Z</time>
      </trkpt>
      <trkpt lat="45.90708" lon="4.34994">
        <ele>681.6</ele>
        <time>2022-06-26T10:33:03Z</time>
      </trkpt>
      <trkpt lat="45.90703" lon="4.34998">
        <ele>681.2</ele>
        <time>2022-06-26T10:33:04Z</time>
      </trkpt>
      <trkpt lat="45.90698" lon="4.35002">
        <ele>681</ele>
        <time>2022-06-26T10:33:05Z</time>
      </trkpt>
      <trkpt lat="45.90692" lon="4.35005">
        <ele>680.8</ele>
        <time>2022-06-26T10:33:06Z</time>
      </trkpt>
      <trkpt lat="45.90686" lon="4.35008">
        <ele>680.8</ele>
        <time>2022-06-26T10:33:07Z</time>
      </trkpt>
      <trkpt lat="45.90681" lon="4.35011">
        <ele>680.6</ele>
        <time>2022-06-26T10:33:08Z</time>
      </trkpt>
      <trkpt lat="45.90674" lon="4.35014">
        <ele>680.2</ele>
        <time>2022-06-26T10:33:09Z</time>
      </trkpt>
      <trkpt lat="45.90669" lon="4.35017">
        <ele>680</ele>
        <time>2022-06-26T10:33:10Z</time>
      </trkpt>
      <trkpt lat="45.90663" lon="4.35019">
        <ele>679.8</ele>
        <time>2022-06-26T10:33:11Z</time>
      </trkpt>
      <trkpt lat="45.90657" lon="4.35021">
        <ele>679.4</ele>
        <time>2022-06-26T10:33:12Z</time>
      </trkpt>
      <trkpt lat="45.90652" lon="4.35021">
        <ele>679</ele>
        <time>2022-06-26T10:33:13Z</time>
      </trkpt>
      <trkpt lat="45.90646" lon="4.35021">
        <ele>678.6</ele>
        <time>2022-06-26T10:33:14Z</time>
      </trkpt>
      <trkpt lat="45.9064" lon="4.3502">
        <ele>678.2</ele>
        <time>2022-06-26T10:33:15Z</time>
      </trkpt>
      <trkpt lat="45.90634" lon="4.35017">
        <ele>677.8</ele>
        <time>2022-06-26T10:33:16Z</time>
      </trkpt>
      <trkpt lat="45.90629" lon="4.35013">
        <ele>677.2</ele>
        <time>2022-06-26T10:33:17Z</time>
      </trkpt>
      <trkpt lat="45.90623" lon="4.35009">
        <ele>676.8</ele>
        <time>2022-06-26T10:33:18Z</time>
      </trkpt>
      <trkpt lat="45.90618" lon="4.35004">
        <ele>676.4</ele>
        <time>2022-06-26T10:33:19Z</time>
      </trkpt>
      <trkpt lat="45.90613" lon="4.35">
        <ele>676</ele>
        <time>2022-06-26T10:33:20Z</time>
      </trkpt>
      <trkpt lat="45.90607" lon="4.34997">
        <ele>675.6</ele>
        <time>2022-06-26T10:33:21Z</time>
      </trkpt>
      <trkpt lat="45.90602" lon="4.34996">
        <ele>675.2</ele>
        <time>2022-06-26T10:33:22Z</time>
      </trkpt>
      <trkpt lat="45.90597" lon="4.34997">
        <ele>674.8</ele>
        <time>2022-06-26T10:33:23Z</time>
      </trkpt>
      <trkpt lat="45.90592" lon="4.35">
        <ele>674.4</ele>
        <time>2022-06-26T10:33:24Z</time>
      </trkpt>
      <trkpt lat="45.90587" lon="4.35006">
        <ele>674</ele>
        <time>2022-06-26T10:33:25Z</time>
      </trkpt>
      <trkpt lat="45.90584" lon="4.35014">
        <ele>673.6</ele>
        <time>2022-06-26T10:33:26Z</time>
      </trkpt>
      <trkpt lat="45.90581" lon="4.35023">
        <ele>673</ele>
        <time>2022-06-26T10:33:27Z</time>
      </trkpt>
      <trkpt lat="45.90579" lon="4.35032">
        <ele>672.4</ele>
        <time>2022-06-26T10:33:28Z</time>
      </trkpt>
      <trkpt lat="45.90576" lon="4.35041">
        <ele>671.8</ele>
        <time>2022-06-26T10:33:29Z</time>
      </trkpt>
      <trkpt lat="45.90574" lon="4.35049">
        <ele>671.2</ele>
        <time>2022-06-26T10:33:30Z</time>
      </trkpt>
      <trkpt lat="45.90572" lon="4.35057">
        <ele>670.6</ele>
        <time>2022-06-26T10:33:31Z</time>
      </trkpt>
      <trkpt lat="45.90571" lon="4.35065">
        <ele>670</ele>
        <time>2022-06-26T10:33:32Z</time>
      </trkpt>
      <trkpt lat="45.90569" lon="4.35073">
        <ele>669.4</ele>
        <time>2022-06-26T10:33:33Z</time>
      </trkpt>
      <trkpt lat="45.90568" lon="4.35082">
        <ele>669</ele>
        <time>2022-06-26T10:33:34Z</time>
      </trkpt>
      <trkpt lat="45.90566" lon="4.35091">
        <ele>668.4</ele>
        <time>2022-06-26T10:33:35Z</time>
      </trkpt>
      <trkpt lat="45.90564" lon="4.35099">
        <ele>668</ele>
        <time>2022-06-26T10:33:36Z</time>
      </trkpt>
      <trkpt lat="45.90562" lon="4.35108">
        <ele>667.4</ele>
        <time>2022-06-26T10:33:37Z</time>
      </trkpt>
      <trkpt lat="45.90558" lon="4.35117">
        <ele>667</ele>
        <time>2022-06-26T10:33:38Z</time>
      </trkpt>
      <trkpt lat="45.90554" lon="4.35126">
        <ele>666.4</ele>
        <time>2022-06-26T10:33:39Z</time>
      </trkpt>
      <trkpt lat="45.90548" lon="4.35135">
        <ele>665.8</ele>
        <time>2022-06-26T10:33:40Z</time>
      </trkpt>
      <trkpt lat="45.90543" lon="4.35144">
        <ele>665</ele>
        <time>2022-06-26T10:33:41Z</time>
      </trkpt>
      <trkpt lat="45.90538" lon="4.35152">
        <ele>664.6</ele>
        <time>2022-06-26T10:33:42Z</time>
      </trkpt>
      <trkpt lat="45.90532" lon="4.35161">
        <ele>664.2</ele>
        <time>2022-06-26T10:33:43Z</time>
      </trkpt>
      <trkpt lat="45.90527" lon="4.3517">
        <ele>663.6</ele>
        <time>2022-06-26T10:33:44Z</time>
      </trkpt>
      <trkpt lat="45.90522" lon="4.3518">
        <ele>663.2</ele>
        <time>2022-06-26T10:33:45Z</time>
      </trkpt>
      <trkpt lat="45.90518" lon="4.35189">
        <ele>662.6</ele>
        <time>2022-06-26T10:33:46Z</time>
      </trkpt>
      <trkpt lat="45.90513" lon="4.35198">
        <ele>661.8</ele>
        <time>2022-06-26T10:33:47Z</time>
      </trkpt>
      <trkpt lat="45.90509" lon="4.35206">
        <ele>661.2</ele>
        <time>2022-06-26T10:33:48Z</time>
      </trkpt>
      <trkpt lat="45.90504" lon="4.35214">
        <ele>660.4</ele>
        <time>2022-06-26T10:33:49Z</time>
      </trkpt>
      <trkpt lat="45.90499" lon="4.35221">
        <ele>659.6</ele>
        <time>2022-06-26T10:33:50Z</time>
      </trkpt>
      <trkpt lat="45.90493" lon="4.35228">
        <ele>658.8</ele>
        <time>2022-06-26T10:33:51Z</time>
      </trkpt>
      <trkpt lat="45.90487" lon="4.35235">
        <ele>658.2</ele>
        <time>2022-06-26T10:33:52Z</time>
      </trkpt>
      <trkpt lat="45.90481" lon="4.35243">
        <ele>657.4</ele>
        <time>2022-06-26T10:33:53Z</time>
      </trkpt>
      <trkpt lat="45.90475" lon="4.3525">
        <ele>656.4</ele>
        <time>2022-06-26T10:33:54Z</time>
      </trkpt>
      <trkpt lat="45.90469" lon="4.35257">
        <ele>655.6</ele>
        <time>2022-06-26T10:33:55Z</time>
      </trkpt>
      <trkpt lat="45.90463" lon="4.35264">
        <ele>654.6</ele>
        <time>2022-06-26T10:33:56Z</time>
      </trkpt>
      <trkpt lat="45.90457" lon="4.35271">
        <ele>653.4</ele>
        <time>2022-06-26T10:33:57Z</time>
      </trkpt>
      <trkpt lat="45.9045" lon="4.35278">
        <ele>652.4</ele>
        <time>2022-06-26T10:33:58Z</time>
      </trkpt>
      <trkpt lat="45.90444" lon="4.35285">
        <ele>651.4</ele>
        <time>2022-06-26T10:33:59Z</time>
      </trkpt>
      <trkpt lat="45.90438" lon="4.35291">
        <ele>650.4</ele>
        <time>2022-06-26T10:34:00Z</time>
      </trkpt>
      <trkpt lat="45.90432" lon="4.35298">
        <ele>649.4</ele>
        <time>2022-06-26T10:34:01Z</time>
      </trkpt>
      <trkpt lat="45.90426" lon="4.35304">
        <ele>648.2</ele>
        <time>2022-06-26T10:34:02Z</time>
      </trkpt>
      <trkpt lat="45.90421" lon="4.35311">
        <ele>647.2</ele>
        <time>2022-06-26T10:34:03Z</time>
      </trkpt>
      <trkpt lat="45.90417" lon="4.35318">
        <ele>646.2</ele>
        <time>2022-06-26T10:34:04Z</time>
      </trkpt>
      <trkpt lat="45.90412" lon="4.35328">
        <ele>645.2</ele>
        <time>2022-06-26T10:34:05Z</time>
      </trkpt>
      <trkpt lat="45.90408" lon="4.35338">
        <ele>644.2</ele>
        <time>2022-06-26T10:34:06Z</time>
      </trkpt>
      <trkpt lat="45.90404" lon="4.35349">
        <ele>643</ele>
        <time>2022-06-26T10:34:07Z</time>
      </trkpt>
      <trkpt lat="45.904" lon="4.3536">
        <ele>642</ele>
        <time>2022-06-26T10:34:08Z</time>
      </trkpt>
      <trkpt lat="45.90396" lon="4.3537">
        <ele>641</ele>
        <time>2022-06-26T10:34:09Z</time>
      </trkpt>
      <trkpt lat="45.90391" lon="4.35381">
        <ele>639.8</ele>
        <time>2022-06-26T10:34:10Z</time>
      </trkpt>
      <trkpt lat="45.90385" lon="4.35391">
        <ele>638.6</ele>
        <time>2022-06-26T10:34:11Z</time>
      </trkpt>
      <trkpt lat="45.9038" lon="4.35401">
        <ele>637.6</ele>
        <time>2022-06-26T10:34:12Z</time>
      </trkpt>
      <trkpt lat="45.90375" lon="4.3541">
        <ele>636.4</ele>
        <time>2022-06-26T10:34:13Z</time>
      </trkpt>
      <trkpt lat="45.9037" lon="4.35419">
        <ele>635.2</ele>
        <time>2022-06-26T10:34:14Z</time>
      </trkpt>
      <trkpt lat="45.90366" lon="4.35428">
        <ele>634</ele>
        <time>2022-06-26T10:34:15Z</time>
      </trkpt>
      <trkpt lat="45.90361" lon="4.35436">
        <ele>632.8</ele>
        <time>2022-06-26T10:34:16Z</time>
      </trkpt>
      <trkpt lat="45.90357" lon="4.35442">
        <ele>631.8</ele>
        <time>2022-06-26T10:34:17Z</time>
      </trkpt>
      <trkpt lat="45.90352" lon="4.35448">
        <ele>630.8</ele>
        <time>2022-06-26T10:34:18Z</time>
      </trkpt>
      <trkpt lat="45.90347" lon="4.35452">
        <ele>629.8</ele>
        <time>2022-06-26T10:34:19Z</time>
      </trkpt>
      <trkpt lat="45.90343" lon="4.35454">
        <ele>629</ele>
        <time>2022-06-26T10:34:20Z</time>
      </trkpt>
      <trkpt lat="45.90339" lon="4.35456">
        <ele>628.2</ele>
        <time>2022-06-26T10:34:21Z</time>
      </trkpt>
      <trkpt lat="45.90336" lon="4.35458">
        <ele>627.4</ele>
        <time>2022-06-26T10:34:22Z</time>
      </trkpt>
      <trkpt lat="45.90334" lon="4.35461">
        <ele>626.8</ele>
        <time>2022-06-26T10:34:23Z</time>
      </trkpt>
      <trkpt lat="45.90333" lon="4.35466">
        <ele>626.2</ele>
        <time>2022-06-26T10:34:24Z</time>
      </trkpt>
      <trkpt lat="45.90334" lon="4.35471">
        <ele>625.6</ele>
        <time>2022-06-26T10:34:25Z</time>
      </trkpt>
      <trkpt lat="45.90336" lon="4.35477">
        <ele>624.8</ele>
        <time>2022-06-26T10:34:26Z</time>
      </trkpt>
      <trkpt lat="45.90339" lon="4.35483">
        <ele>624.2</ele>
        <time>2022-06-26T10:34:27Z</time>
      </trkpt>
      <trkpt lat="45.90343" lon="4.35489">
        <ele>623.4</ele>
        <time>2022-06-26T10:34:28Z</time>
      </trkpt>
      <trkpt lat="45.90348" lon="4.35495">
        <ele>622.8</ele>
        <time>2022-06-26T10:34:29Z</time>
      </trkpt>
      <trkpt lat="45.90354" lon="4.355">
        <ele>622</ele>
        <time>2022-06-26T10:34:30Z</time>
      </trkpt>
      <trkpt lat="45.9036" lon="4.35505">
        <ele>621.2</ele>
        <time>2022-06-26T10:34:31Z</time>
      </trkpt>
      <trkpt lat="45.90368" lon="4.35508">
        <ele>620.2</ele>
        <time>2022-06-26T10:34:32Z</time>
      </trkpt>
      <trkpt lat="45.90376" lon="4.3551">
        <ele>619.4</ele>
        <time>2022-06-26T10:34:33Z</time>
      </trkpt>
      <trkpt lat="45.90384" lon="4.35512">
        <ele>618.4</ele>
        <time>2022-06-26T10:34:34Z</time>
      </trkpt>
      <trkpt lat="45.90391" lon="4.35514">
        <ele>617.6</ele>
        <time>2022-06-26T10:34:35Z</time>
      </trkpt>
      <trkpt lat="45.90399" lon="4.35515">
        <ele>616.8</ele>
        <time>2022-06-26T10:34:36Z</time>
      </trkpt>
      <trkpt lat="45.90407" lon="4.35515">
        <ele>616.2</ele>
        <time>2022-06-26T10:34:37Z</time>
      </trkpt>
      <trkpt lat="45.90415" lon="4.35514">
        <ele>615.6</ele>
        <time>2022-06-26T10:34:38Z</time>
      </trkpt>
      <trkpt lat="45.90423" lon="4.35512">
        <ele>615</ele>
        <time>2022-06-26T10:34:39Z</time>
      </trkpt>
      <trkpt lat="45.90431" lon="4.35509">
        <ele>614.6</ele>
        <time>2022-06-26T10:34:40Z</time>
      </trkpt>
      <trkpt lat="45.90438" lon="4.35506">
        <ele>614.2</ele>
        <time>2022-06-26T10:34:41Z</time>
      </trkpt>
      <trkpt lat="45.90445" lon="4.35504">
        <ele>613.6</ele>
        <time>2022-06-26T10:34:42Z</time>
      </trkpt>
      <trkpt lat="45.90453" lon="4.35503">
        <ele>613.2</ele>
        <time>2022-06-26T10:34:43Z</time>
      </trkpt>
      <trkpt lat="45.9046" lon="4.35503">
        <ele>612.8</ele>
        <time>2022-06-26T10:34:44Z</time>
      </trkpt>
      <trkpt lat="45.90468" lon="4.35503">
        <ele>612.2</ele>
        <time>2022-06-26T10:34:45Z</time>
      </trkpt>
      <trkpt lat="45.90476" lon="4.35504">
        <ele>611.8</ele>
        <time>2022-06-26T10:34:46Z</time>
      </trkpt>
      <trkpt lat="45.90484" lon="4.35503">
        <ele>611</ele>
        <time>2022-06-26T10:34:47Z</time>
      </trkpt>
      <trkpt lat="45.90491" lon="4.35502">
        <ele>610.4</ele>
        <time>2022-06-26T10:34:48Z</time>
      </trkpt>
      <trkpt lat="45.90499" lon="4.355">
        <ele>609.6</ele>
        <time>2022-06-26T10:34:49Z</time>
      </trkpt>
      <trkpt lat="45.90506" lon="4.35496">
        <ele>608.8</ele>
        <time>2022-06-26T10:34:50Z</time>
      </trkpt>
      <trkpt lat="45.90513" lon="4.35491">
        <ele>608.8</ele>
        <time>2022-06-26T10:34:51Z</time>
      </trkpt>
      <trkpt lat="45.90521" lon="4.35485">
        <ele>608.2</ele>
        <time>2022-06-26T10:34:52Z</time>
      </trkpt>
      <trkpt lat="45.90529" lon="4.35479">
        <ele>607.6</ele>
        <time>2022-06-26T10:34:53Z</time>
      </trkpt>
      <trkpt lat="45.90536" lon="4.35474">
        <ele>607</ele>
        <time>2022-06-26T10:34:54Z</time>
      </trkpt>
      <trkpt lat="45.90543" lon="4.35469">
        <ele>606.4</ele>
        <time>2022-06-26T10:34:55Z</time>
      </trkpt>
      <trkpt lat="45.9055" lon="4.35466">
        <ele>605.6</ele>
        <time>2022-06-26T10:34:56Z</time>
      </trkpt>
      <trkpt lat="45.90556" lon="4.35464">
        <ele>605</ele>
        <time>2022-06-26T10:34:57Z</time>
      </trkpt>
      <trkpt lat="45.90561" lon="4.35463">
        <ele>604.4</ele>
        <time>2022-06-26T10:34:58Z</time>
      </trkpt>
      <trkpt lat="45.90566" lon="4.35464">
        <ele>603.8</ele>
        <time>2022-06-26T10:34:59Z</time>
      </trkpt>
      <trkpt lat="45.90569" lon="4.35469">
        <ele>603.2</ele>
        <time>2022-06-26T10:35:00Z</time>
      </trkpt>
      <trkpt lat="45.90572" lon="4.35476">
        <ele>602.8</ele>
        <time>2022-06-26T10:35:01Z</time>
      </trkpt>
      <trkpt lat="45.90572" lon="4.35485">
        <ele>602.2</ele>
        <time>2022-06-26T10:35:02Z</time>
      </trkpt>
      <trkpt lat="45.90571" lon="4.35495">
        <ele>601.4</ele>
        <time>2022-06-26T10:35:03Z</time>
      </trkpt>
      <trkpt lat="45.9057" lon="4.35506">
        <ele>600.8</ele>
        <time>2022-06-26T10:35:04Z</time>
      </trkpt>
      <trkpt lat="45.9057" lon="4.35518">
        <ele>600</ele>
        <time>2022-06-26T10:35:05Z</time>
      </trkpt>
      <trkpt lat="45.90571" lon="4.35529">
        <ele>599.2</ele>
        <time>2022-06-26T10:35:06Z</time>
      </trkpt>
      <trkpt lat="45.90571" lon="4.3554">
        <ele>598.6</ele>
        <time>2022-06-26T10:35:07Z</time>
      </trkpt>
      <trkpt lat="45.90571" lon="4.35549">
        <ele>598</ele>
        <time>2022-06-26T10:35:08Z</time>
      </trkpt>
      <trkpt lat="45.9057" lon="4.35558">
        <ele>597.6</ele>
        <time>2022-06-26T10:35:09Z</time>
      </trkpt>
      <trkpt lat="45.90569" lon="4.35567">
        <ele>597</ele>
        <time>2022-06-26T10:35:10Z</time>
      </trkpt>
      <trkpt lat="45.90566" lon="4.35576">
        <ele>596.6</ele>
        <time>2022-06-26T10:35:11Z</time>
      </trkpt>
      <trkpt lat="45.90562" lon="4.35583">
        <ele>596.4</ele>
        <time>2022-06-26T10:35:12Z</time>
      </trkpt>
      <trkpt lat="45.90557" lon="4.35591">
        <ele>596</ele>
        <time>2022-06-26T10:35:13Z</time>
      </trkpt>
      <trkpt lat="45.90552" lon="4.35598">
        <ele>595.6</ele>
        <time>2022-06-26T10:35:14Z</time>
      </trkpt>
      <trkpt lat="45.90547" lon="4.35604">
        <ele>595.2</ele>
        <time>2022-06-26T10:35:15Z</time>
      </trkpt>
      <trkpt lat="45.90542" lon="4.3561">
        <ele>594.8</ele>
        <time>2022-06-26T10:35:16Z</time>
      </trkpt>
      <trkpt lat="45.90535" lon="4.35615">
        <ele>594.4</ele>
        <time>2022-06-26T10:35:17Z</time>
      </trkpt>
      <trkpt lat="45.90528" lon="4.35621">
        <ele>594</ele>
        <time>2022-06-26T10:35:18Z</time>
      </trkpt>
      <trkpt lat="45.90522" lon="4.35627">
        <ele>593.4</ele>
        <time>2022-06-26T10:35:19Z</time>
      </trkpt>
      <trkpt lat="45.90514" lon="4.35631">
        <ele>593</ele>
        <time>2022-06-26T10:35:20Z</time>
      </trkpt>
      <trkpt lat="45.90507" lon="4.35635">
        <ele>592.8</ele>
        <time>2022-06-26T10:35:21Z</time>
      </trkpt>
      <trkpt lat="45.905" lon="4.3564">
        <ele>592.2</ele>
        <time>2022-06-26T10:35:22Z</time>
      </trkpt>
      <trkpt lat="45.90492" lon="4.35644">
        <ele>591.6</ele>
        <time>2022-06-26T10:35:23Z</time>
      </trkpt>
      <trkpt lat="45.90483" lon="4.35649">
        <ele>591.4</ele>
        <time>2022-06-26T10:35:24Z</time>
      </trkpt>
      <trkpt lat="45.90474" lon="4.35655">
        <ele>590.8</ele>
        <time>2022-06-26T10:35:25Z</time>
      </trkpt>
      <trkpt lat="45.90465" lon="4.35663">
        <ele>590.2</ele>
        <time>2022-06-26T10:35:26Z</time>
      </trkpt>
      <trkpt lat="45.90456" lon="4.35671">
        <ele>589.8</ele>
        <time>2022-06-26T10:35:27Z</time>
      </trkpt>
      <trkpt lat="45.90447" lon="4.35679">
        <ele>589.2</ele>
        <time>2022-06-26T10:35:28Z</time>
      </trkpt>
      <trkpt lat="45.90438" lon="4.35687">
        <ele>588.6</ele>
        <time>2022-06-26T10:35:29Z</time>
      </trkpt>
      <trkpt lat="45.90429" lon="4.35694">
        <ele>588.2</ele>
        <time>2022-06-26T10:35:30Z</time>
      </trkpt>
      <trkpt lat="45.9042" lon="4.35703">
        <ele>587.8</ele>
        <time>2022-06-26T10:35:31Z</time>
      </trkpt>
      <trkpt lat="45.90411" lon="4.35711">
        <ele>587.2</ele>
        <time>2022-06-26T10:35:32Z</time>
      </trkpt>
      <trkpt lat="45.90402" lon="4.35719">
        <ele>586.8</ele>
        <time>2022-06-26T10:35:33Z</time>
      </trkpt>
      <trkpt lat="45.90391" lon="4.35727">
        <ele>586.2</ele>
        <time>2022-06-26T10:35:34Z</time>
      </trkpt>
      <trkpt lat="45.9038" lon="4.35736">
        <ele>585.4</ele>
        <time>2022-06-26T10:35:35Z</time>
      </trkpt>
      <trkpt lat="45.90369" lon="4.35745">
        <ele>585</ele>
        <time>2022-06-26T10:35:36Z</time>
      </trkpt>
      <trkpt lat="45.9036" lon="4.35752">
        <ele>584.4</ele>
        <time>2022-06-26T10:35:37Z</time>
      </trkpt>
      <trkpt lat="45.9035" lon="4.35759">
        <ele>583.6</ele>
        <time>2022-06-26T10:35:38Z</time>
      </trkpt>
      <trkpt lat="45.90341" lon="4.35766">
        <ele>582.8</ele>
        <time>2022-06-26T10:35:39Z</time>
      </trkpt>
      <trkpt lat="45.90331" lon="4.35772">
        <ele>582.4</ele>
        <time>2022-06-26T10:35:40Z</time>
      </trkpt>
      <trkpt lat="45.90322" lon="4.35779">
        <ele>582</ele>
        <time>2022-06-26T10:35:41Z</time>
      </trkpt>
      <trkpt lat="45.90312" lon="4.35787">
        <ele>581.6</ele>
        <time>2022-06-26T10:35:42Z</time>
      </trkpt>
      <trkpt lat="45.90303" lon="4.35795">
        <ele>581</ele>
        <time>2022-06-26T10:35:43Z</time>
      </trkpt>
      <trkpt lat="45.90294" lon="4.35803">
        <ele>580.6</ele>
        <time>2022-06-26T10:35:44Z</time>
      </trkpt>
      <trkpt lat="45.90286" lon="4.35812">
        <ele>580</ele>
        <time>2022-06-26T10:35:45Z</time>
      </trkpt>
      <trkpt lat="45.90278" lon="4.35821">
        <ele>579.6</ele>
        <time>2022-06-26T10:35:46Z</time>
      </trkpt>
      <trkpt lat="45.9027" lon="4.35829">
        <ele>579.2</ele>
        <time>2022-06-26T10:35:47Z</time>
      </trkpt>
      <trkpt lat="45.90262" lon="4.35837">
        <ele>578.6</ele>
        <time>2022-06-26T10:35:48Z</time>
      </trkpt>
      <trkpt lat="45.90254" lon="4.35844">
        <ele>578</ele>
        <time>2022-06-26T10:35:49Z</time>
      </trkpt>
      <trkpt lat="45.90246" lon="4.35851">
        <ele>577.6</ele>
        <time>2022-06-26T10:35:50Z</time>
      </trkpt>
      <trkpt lat="45.90237" lon="4.35855">
        <ele>577</ele>
        <time>2022-06-26T10:35:51Z</time>
      </trkpt>
      <trkpt lat="45.90228" lon="4.35862">
        <ele>576.6</ele>
        <time>2022-06-26T10:35:52Z</time>
      </trkpt>
      <trkpt lat="45.90221" lon="4.3587">
        <ele>576</ele>
        <time>2022-06-26T10:35:53Z</time>
      </trkpt>
      <trkpt lat="45.90213" lon="4.35878">
        <ele>575.6</ele>
        <time>2022-06-26T10:35:54Z</time>
      </trkpt>
      <trkpt lat="45.90205" lon="4.35886">
        <ele>575</ele>
        <time>2022-06-26T10:35:55Z</time>
      </trkpt>
      <trkpt lat="45.90197" lon="4.35893">
        <ele>574.6</ele>
        <time>2022-06-26T10:35:56Z</time>
      </trkpt>
      <trkpt lat="45.90189" lon="4.35901">
        <ele>574.4</ele>
        <time>2022-06-26T10:35:57Z</time>
      </trkpt>
      <trkpt lat="45.90181" lon="4.35909">
        <ele>574</ele>
        <time>2022-06-26T10:35:58Z</time>
      </trkpt>
      <trkpt lat="45.90173" lon="4.35916">
        <ele>573.4</ele>
        <time>2022-06-26T10:35:59Z</time>
      </trkpt>
      <trkpt lat="45.90165" lon="4.35922">
        <ele>572.8</ele>
        <time>2022-06-26T10:36:00Z</time>
      </trkpt>
      <trkpt lat="45.90159" lon="4.35928">
        <ele>572.4</ele>
        <time>2022-06-26T10:36:01Z</time>
      </trkpt>
      <trkpt lat="45.90152" lon="4.35934">
        <ele>571.6</ele>
        <time>2022-06-26T10:36:02Z</time>
      </trkpt>
      <trkpt lat="45.90147" lon="4.35941">
        <ele>571</ele>
        <time>2022-06-26T10:36:03Z</time>
      </trkpt>
      <trkpt lat="45.90141" lon="4.35947">
        <ele>570.4</ele>
        <time>2022-06-26T10:36:04Z</time>
      </trkpt>
      <trkpt lat="45.90135" lon="4.35953">
        <ele>570</ele>
        <time>2022-06-26T10:36:05Z</time>
      </trkpt>
      <trkpt lat="45.90128" lon="4.35957">
        <ele>569.4</ele>
        <time>2022-06-26T10:36:06Z</time>
      </trkpt>
      <trkpt lat="45.90123" lon="4.35963">
        <ele>568.8</ele>
        <time>2022-06-26T10:36:07Z</time>
      </trkpt>
      <trkpt lat="45.90117" lon="4.35969">
        <ele>568.4</ele>
        <time>2022-06-26T10:36:08Z</time>
      </trkpt>
      <trkpt lat="45.90111" lon="4.35976">
        <ele>568</ele>
        <time>2022-06-26T10:36:09Z</time>
      </trkpt>
      <trkpt lat="45.90106" lon="4.35983">
        <ele>567.4</ele>
        <time>2022-06-26T10:36:10Z</time>
      </trkpt>
      <trkpt lat="45.901" lon="4.35991">
        <ele>567</ele>
        <time>2022-06-26T10:36:11Z</time>
      </trkpt>
      <trkpt lat="45.90094" lon="4.35999">
        <ele>566.6</ele>
        <time>2022-06-26T10:36:12Z</time>
      </trkpt>
      <trkpt lat="45.90088" lon="4.36006">
        <ele>566.2</ele>
        <time>2022-06-26T10:36:13Z</time>
      </trkpt>
      <trkpt lat="45.90082" lon="4.36014">
        <ele>566</ele>
        <time>2022-06-26T10:36:14Z</time>
      </trkpt>
      <trkpt lat="45.90077" lon="4.36021">
        <ele>565.8</ele>
        <time>2022-06-26T10:36:15Z</time>
      </trkpt>
      <trkpt lat="45.90071" lon="4.36028">
        <ele>565.4</ele>
        <time>2022-06-26T10:36:16Z</time>
      </trkpt>
      <trkpt lat="45.90065" lon="4.36034">
        <ele>565.2</ele>
        <time>2022-06-26T10:36:17Z</time>
      </trkpt>
      <trkpt lat="45.9006" lon="4.3604">
        <ele>565.2</ele>
        <time>2022-06-26T10:36:18Z</time>
      </trkpt>
      <trkpt lat="45.90056" lon="4.36046">
        <ele>565</ele>
        <time>2022-06-26T10:36:19Z</time>
      </trkpt>
      <trkpt lat="45.90051" lon="4.36051">
        <ele>565</ele>
        <time>2022-06-26T10:36:20Z</time>
      </trkpt>
      <trkpt lat="45.90046" lon="4.36056">
        <ele>564.6</ele>
        <time>2022-06-26T10:36:21Z</time>
      </trkpt>
      <trkpt lat="45.90041" lon="4.36063">
        <ele>564.6</ele>
        <time>2022-06-26T10:36:22Z</time>
      </trkpt>
      <trkpt lat="45.90035" lon="4.36069">
        <ele>564.2</ele>
        <time>2022-06-26T10:36:23Z</time>
      </trkpt>
      <trkpt lat="45.90028" lon="4.36075">
        <ele>564</ele>
        <time>2022-06-26T10:36:24Z</time>
      </trkpt>
      <trkpt lat="45.90023" lon="4.36082">
        <ele>563.8</ele>
        <time>2022-06-26T10:36:25Z</time>
      </trkpt>
      <trkpt lat="45.90017" lon="4.36089">
        <ele>563.4</ele>
        <time>2022-06-26T10:36:26Z</time>
      </trkpt>
      <trkpt lat="45.90011" lon="4.36095">
        <ele>563</ele>
        <time>2022-06-26T10:36:27Z</time>
      </trkpt>
      <trkpt lat="45.90005" lon="4.36101">
        <ele>562.6</ele>
        <time>2022-06-26T10:36:28Z</time>
      </trkpt>
      <trkpt lat="45.89998" lon="4.36108">
        <ele>562.2</ele>
        <time>2022-06-26T10:36:29Z</time>
      </trkpt>
      <trkpt lat="45.89991" lon="4.36114">
        <ele>561.8</ele>
        <time>2022-06-26T10:36:30Z</time>
      </trkpt>
      <trkpt lat="45.89984" lon="4.3612">
        <ele>561.6</ele>
        <time>2022-06-26T10:36:31Z</time>
      </trkpt>
      <trkpt lat="45.89977" lon="4.36126">
        <ele>561.2</ele>
        <time>2022-06-26T10:36:32Z</time>
      </trkpt>
      <trkpt lat="45.8997" lon="4.36132">
        <ele>561</ele>
        <time>2022-06-26T10:36:33Z</time>
      </trkpt>
      <trkpt lat="45.89962" lon="4.36137">
        <ele>560.4</ele>
        <time>2022-06-26T10:36:34Z</time>
      </trkpt>
      <trkpt lat="45.89955" lon="4.36142">
        <ele>559.8</ele>
        <time>2022-06-26T10:36:35Z</time>
      </trkpt>
      <trkpt lat="45.89947" lon="4.36147">
        <ele>559.4</ele>
        <time>2022-06-26T10:36:36Z</time>
      </trkpt>
      <trkpt lat="45.89939" lon="4.36152">
        <ele>559.2</ele>
        <time>2022-06-26T10:36:37Z</time>
      </trkpt>
      <trkpt lat="45.8993" lon="4.36156">
        <ele>558.6</ele>
        <time>2022-06-26T10:36:38Z</time>
      </trkpt>
      <trkpt lat="45.89921" lon="4.3616">
        <ele>558.2</ele>
        <time>2022-06-26T10:36:39Z</time>
      </trkpt>
      <trkpt lat="45.89911" lon="4.36164">
        <ele>557.6</ele>
        <time>2022-06-26T10:36:40Z</time>
      </trkpt>
      <trkpt lat="45.89899" lon="4.36169">
        <ele>557</ele>
        <time>2022-06-26T10:36:41Z</time>
      </trkpt>
      <trkpt lat="45.89887" lon="4.36173">
        <ele>556.6</ele>
        <time>2022-06-26T10:36:42Z</time>
      </trkpt>
      <trkpt lat="45.89877" lon="4.36177">
        <ele>556.2</ele>
        <time>2022-06-26T10:36:43Z</time>
      </trkpt>
      <trkpt lat="45.89866" lon="4.36183">
        <ele>555.8</ele>
        <time>2022-06-26T10:36:44Z</time>
      </trkpt>
      <trkpt lat="45.89857" lon="4.36189">
        <ele>555.2</ele>
        <time>2022-06-26T10:36:45Z</time>
      </trkpt>
      <trkpt lat="45.89848" lon="4.36195">
        <ele>554.8</ele>
        <time>2022-06-26T10:36:46Z</time>
      </trkpt>
      <trkpt lat="45.89839" lon="4.36202">
        <ele>554.4</ele>
        <time>2022-06-26T10:36:47Z</time>
      </trkpt>
      <trkpt lat="45.8983" lon="4.36208">
        <ele>554</ele>
        <time>2022-06-26T10:36:48Z</time>
      </trkpt>
      <trkpt lat="45.89821" lon="4.36215">
        <ele>553.4</ele>
        <time>2022-06-26T10:36:49Z</time>
      </trkpt>
      <trkpt lat="45.89812" lon="4.36221">
        <ele>553</ele>
        <time>2022-06-26T10:36:50Z</time>
      </trkpt>
      <trkpt lat="45.89803" lon="4.36226">
        <ele>552.4</ele>
        <time>2022-06-26T10:36:51Z</time>
      </trkpt>
      <trkpt lat="45.89795" lon="4.36233">
        <ele>552</ele>
        <time>2022-06-26T10:36:52Z</time>
      </trkpt>
      <trkpt lat="45.89785" lon="4.3624">
        <ele>551.6</ele>
        <time>2022-06-26T10:36:53Z</time>
      </trkpt>
      <trkpt lat="45.89776" lon="4.36245">
        <ele>551.2</ele>
        <time>2022-06-26T10:36:54Z</time>
      </trkpt>
      <trkpt lat="45.89767" lon="4.36252">
        <ele>550.8</ele>
        <time>2022-06-26T10:36:55Z</time>
      </trkpt>
      <trkpt lat="45.8976" lon="4.36257">
        <ele>550.4</ele>
        <time>2022-06-26T10:36:56Z</time>
      </trkpt>
      <trkpt lat="45.89753" lon="4.36263">
        <ele>549.8</ele>
        <time>2022-06-26T10:36:57Z</time>
      </trkpt>
      <trkpt lat="45.89747" lon="4.36267">
        <ele>549.4</ele>
        <time>2022-06-26T10:36:58Z</time>
      </trkpt>
      <trkpt lat="45.89742" lon="4.36272">
        <ele>549</ele>
        <time>2022-06-26T10:36:59Z</time>
      </trkpt>
      <trkpt lat="45.89736" lon="4.36276">
        <ele>548.6</ele>
        <time>2022-06-26T10:37:00Z</time>
      </trkpt>
      <trkpt lat="45.89731" lon="4.3628">
        <ele>548.4</ele>
        <time>2022-06-26T10:37:01Z</time>
      </trkpt>
      <trkpt lat="45.89725" lon="4.36284">
        <ele>548</ele>
        <time>2022-06-26T10:37:02Z</time>
      </trkpt>
      <trkpt lat="45.8972" lon="4.36287">
        <ele>547.8</ele>
        <time>2022-06-26T10:37:03Z</time>
      </trkpt>
      <trkpt lat="45.89714" lon="4.36291">
        <ele>547.8</ele>
        <time>2022-06-26T10:37:04Z</time>
      </trkpt>
      <trkpt lat="45.89708" lon="4.36294">
        <ele>547.6</ele>
        <time>2022-06-26T10:37:05Z</time>
      </trkpt>
      <trkpt lat="45.89702" lon="4.36296">
        <ele>547.2</ele>
        <time>2022-06-26T10:37:06Z</time>
      </trkpt>
      <trkpt lat="45.89696" lon="4.36299">
        <ele>547</ele>
        <time>2022-06-26T10:37:07Z</time>
      </trkpt>
      <trkpt lat="45.8969" lon="4.36301">
        <ele>546.8</ele>
        <time>2022-06-26T10:37:08Z</time>
      </trkpt>
      <trkpt lat="45.89684" lon="4.36303">
        <ele>546.6</ele>
        <time>2022-06-26T10:37:09Z</time>
      </trkpt>
      <trkpt lat="45.89679" lon="4.36304">
        <ele>546.2</ele>
        <time>2022-06-26T10:37:10Z</time>
      </trkpt>
      <trkpt lat="45.89673" lon="4.36306">
        <ele>545.8</ele>
        <time>2022-06-26T10:37:11Z</time>
      </trkpt>
      <trkpt lat="45.89667" lon="4.36308">
        <ele>545.8</ele>
        <time>2022-06-26T10:37:12Z</time>
      </trkpt>
      <trkpt lat="45.8966" lon="4.3631">
        <ele>545.4</ele>
        <time>2022-06-26T10:37:13Z</time>
      </trkpt>
      <trkpt lat="45.89653" lon="4.36312">
        <ele>545.4</ele>
        <time>2022-06-26T10:37:14Z</time>
      </trkpt>
      <trkpt lat="45.89646" lon="4.36315">
        <ele>544.8</ele>
        <time>2022-06-26T10:37:15Z</time>
      </trkpt>
      <trkpt lat="45.89639" lon="4.36317">
        <ele>544.2</ele>
        <time>2022-06-26T10:37:16Z</time>
      </trkpt>
      <trkpt lat="45.89632" lon="4.36319">
        <ele>543.8</ele>
        <time>2022-06-26T10:37:17Z</time>
      </trkpt>
      <trkpt lat="45.89625" lon="4.36321">
        <ele>543.2</ele>
        <time>2022-06-26T10:37:18Z</time>
      </trkpt>
      <trkpt lat="45.89618" lon="4.36323">
        <ele>542.8</ele>
        <time>2022-06-26T10:37:19Z</time>
      </trkpt>
      <trkpt lat="45.89611" lon="4.36326">
        <ele>542.4</ele>
        <time>2022-06-26T10:37:20Z</time>
      </trkpt>
      <trkpt lat="45.89603" lon="4.36329">
        <ele>541.8</ele>
        <time>2022-06-26T10:37:21Z</time>
      </trkpt>
      <trkpt lat="45.89596" lon="4.36332">
        <ele>541.2</ele>
        <time>2022-06-26T10:37:22Z</time>
      </trkpt>
      <trkpt lat="45.89589" lon="4.36335">
        <ele>540.6</ele>
        <time>2022-06-26T10:37:23Z</time>
      </trkpt>
      <trkpt lat="45.89582" lon="4.36338">
        <ele>540</ele>
        <time>2022-06-26T10:37:24Z</time>
      </trkpt>
      <trkpt lat="45.89574" lon="4.36341">
        <ele>539.4</ele>
        <time>2022-06-26T10:37:25Z</time>
      </trkpt>
      <trkpt lat="45.89565" lon="4.36344">
        <ele>538.8</ele>
        <time>2022-06-26T10:37:26Z</time>
      </trkpt>
      <trkpt lat="45.89557" lon="4.36348">
        <ele>538.2</ele>
        <time>2022-06-26T10:37:27Z</time>
      </trkpt>
      <trkpt lat="45.89549" lon="4.36353">
        <ele>537.6</ele>
        <time>2022-06-26T10:37:28Z</time>
      </trkpt>
      <trkpt lat="45.89541" lon="4.36359">
        <ele>537</ele>
        <time>2022-06-26T10:37:29Z</time>
      </trkpt>
      <trkpt lat="45.89534" lon="4.36364">
        <ele>536.6</ele>
        <time>2022-06-26T10:37:30Z</time>
      </trkpt>
      <trkpt lat="45.89527" lon="4.36369">
        <ele>536</ele>
        <time>2022-06-26T10:37:31Z</time>
      </trkpt>
      <trkpt lat="45.89521" lon="4.36373">
        <ele>535.4</ele>
        <time>2022-06-26T10:37:32Z</time>
      </trkpt>
      <trkpt lat="45.89514" lon="4.36378">
        <ele>535</ele>
        <time>2022-06-26T10:37:33Z</time>
      </trkpt>
      <trkpt lat="45.89507" lon="4.36383">
        <ele>534.8</ele>
        <time>2022-06-26T10:37:34Z</time>
      </trkpt>
      <trkpt lat="45.895" lon="4.36388">
        <ele>534.8</ele>
        <time>2022-06-26T10:37:35Z</time>
      </trkpt>
      <trkpt lat="45.89494" lon="4.36393">
        <ele>534.2</ele>
        <time>2022-06-26T10:37:36Z</time>
      </trkpt>
      <trkpt lat="45.89487" lon="4.36397">
        <ele>534</ele>
        <time>2022-06-26T10:37:37Z</time>
      </trkpt>
      <trkpt lat="45.8948" lon="4.36401">
        <ele>534</ele>
        <time>2022-06-26T10:37:38Z</time>
      </trkpt>
      <trkpt lat="45.89473" lon="4.36404">
        <ele>533.8</ele>
        <time>2022-06-26T10:37:39Z</time>
      </trkpt>
      <trkpt lat="45.89467" lon="4.36406">
        <ele>533.8</ele>
        <time>2022-06-26T10:37:40Z</time>
      </trkpt>
      <trkpt lat="45.8946" lon="4.36409">
        <ele>533.8</ele>
        <time>2022-06-26T10:37:41Z</time>
      </trkpt>
      <trkpt lat="45.89453" lon="4.36411">
        <ele>533.4</ele>
        <time>2022-06-26T10:37:42Z</time>
      </trkpt>
      <trkpt lat="45.89446" lon="4.36414">
        <ele>533.2</ele>
        <time>2022-06-26T10:37:43Z</time>
      </trkpt>
      <trkpt lat="45.8944" lon="4.36417">
        <ele>533.2</ele>
        <time>2022-06-26T10:37:44Z</time>
      </trkpt>
      <trkpt lat="45.89433" lon="4.3642">
        <ele>532.8</ele>
        <time>2022-06-26T10:37:45Z</time>
      </trkpt>
      <trkpt lat="45.89427" lon="4.36423">
        <ele>532.8</ele>
        <time>2022-06-26T10:37:46Z</time>
      </trkpt>
      <trkpt lat="45.89421" lon="4.36427">
        <ele>532.6</ele>
        <time>2022-06-26T10:37:47Z</time>
      </trkpt>
      <trkpt lat="45.89414" lon="4.36431">
        <ele>532.4</ele>
        <time>2022-06-26T10:37:48Z</time>
      </trkpt>
      <trkpt lat="45.89407" lon="4.36434">
        <ele>532.2</ele>
        <time>2022-06-26T10:37:49Z</time>
      </trkpt>
      <trkpt lat="45.89399" lon="4.36437">
        <ele>531.8</ele>
        <time>2022-06-26T10:37:50Z</time>
      </trkpt>
      <trkpt lat="45.89391" lon="4.3644">
        <ele>531.2</ele>
        <time>2022-06-26T10:37:51Z</time>
      </trkpt>
      <trkpt lat="45.89383" lon="4.36442">
        <ele>530.8</ele>
        <time>2022-06-26T10:37:52Z</time>
      </trkpt>
      <trkpt lat="45.89375" lon="4.36445">
        <ele>530.4</ele>
        <time>2022-06-26T10:37:53Z</time>
      </trkpt>
      <trkpt lat="45.89366" lon="4.36447">
        <ele>530</ele>
        <time>2022-06-26T10:37:54Z</time>
      </trkpt>
      <trkpt lat="45.89357" lon="4.36448">
        <ele>529.8</ele>
        <time>2022-06-26T10:37:55Z</time>
      </trkpt>
      <trkpt lat="45.89349" lon="4.3645">
        <ele>529.8</ele>
        <time>2022-06-26T10:37:56Z</time>
      </trkpt>
      <trkpt lat="45.8934" lon="4.36451">
        <ele>529.4</ele>
        <time>2022-06-26T10:37:57Z</time>
      </trkpt>
      <trkpt lat="45.89332" lon="4.36452">
        <ele>529</ele>
        <time>2022-06-26T10:37:58Z</time>
      </trkpt>
      <trkpt lat="45.89323" lon="4.36453">
        <ele>529</ele>
        <time>2022-06-26T10:37:59Z</time>
      </trkpt>
      <trkpt lat="45.89314" lon="4.36453">
        <ele>528.6</ele>
        <time>2022-06-26T10:38:00Z</time>
      </trkpt>
      <trkpt lat="45.89306" lon="4.36454">
        <ele>528.6</ele>
        <time>2022-06-26T10:38:01Z</time>
      </trkpt>
      <trkpt lat="45.89298" lon="4.36455">
        <ele>528.2</ele>
        <time>2022-06-26T10:38:02Z</time>
      </trkpt>
      <trkpt lat="45.8929" lon="4.36456">
        <ele>528.2</ele>
        <time>2022-06-26T10:38:03Z</time>
      </trkpt>
      <trkpt lat="45.89282" lon="4.36456">
        <ele>527.8</ele>
        <time>2022-06-26T10:38:04Z</time>
      </trkpt>
      <trkpt lat="45.89274" lon="4.36457">
        <ele>527.6</ele>
        <time>2022-06-26T10:38:05Z</time>
      </trkpt>
      <trkpt lat="45.89266" lon="4.36458">
        <ele>527.2</ele>
        <time>2022-06-26T10:38:06Z</time>
      </trkpt>
      <trkpt lat="45.89259" lon="4.36459">
        <ele>526.8</ele>
        <time>2022-06-26T10:38:07Z</time>
      </trkpt>
      <trkpt lat="45.89252" lon="4.36461">
        <ele>526.4</ele>
        <time>2022-06-26T10:38:08Z</time>
      </trkpt>
      <trkpt lat="45.89245" lon="4.36462">
        <ele>526</ele>
        <time>2022-06-26T10:38:09Z</time>
      </trkpt>
      <trkpt lat="45.89237" lon="4.36463">
        <ele>525.6</ele>
        <time>2022-06-26T10:38:10Z</time>
      </trkpt>
      <trkpt lat="45.8923" lon="4.36462">
        <ele>525.2</ele>
        <time>2022-06-26T10:38:11Z</time>
      </trkpt>
      <trkpt lat="45.89222" lon="4.3646">
        <ele>524.8</ele>
        <time>2022-06-26T10:38:12Z</time>
      </trkpt>
      <trkpt lat="45.89213" lon="4.36459">
        <ele>524.2</ele>
        <time>2022-06-26T10:38:13Z</time>
      </trkpt>
      <trkpt lat="45.89204" lon="4.36457">
        <ele>523.6</ele>
        <time>2022-06-26T10:38:14Z</time>
      </trkpt>
      <trkpt lat="45.89196" lon="4.36457">
        <ele>523</ele>
        <time>2022-06-26T10:38:15Z</time>
      </trkpt>
      <trkpt lat="45.89187" lon="4.36457">
        <ele>522.4</ele>
        <time>2022-06-26T10:38:16Z</time>
      </trkpt>
      <trkpt lat="45.89179" lon="4.36458">
        <ele>522</ele>
        <time>2022-06-26T10:38:17Z</time>
      </trkpt>
      <trkpt lat="45.89171" lon="4.36459">
        <ele>521.4</ele>
        <time>2022-06-26T10:38:18Z</time>
      </trkpt>
      <trkpt lat="45.89163" lon="4.36461">
        <ele>520.8</ele>
        <time>2022-06-26T10:38:19Z</time>
      </trkpt>
      <trkpt lat="45.89155" lon="4.36463">
        <ele>520.4</ele>
        <time>2022-06-26T10:38:20Z</time>
      </trkpt>
      <trkpt lat="45.89147" lon="4.36466">
        <ele>520</ele>
        <time>2022-06-26T10:38:21Z</time>
      </trkpt>
      <trkpt lat="45.8914" lon="4.36469">
        <ele>519.6</ele>
        <time>2022-06-26T10:38:22Z</time>
      </trkpt>
      <trkpt lat="45.89132" lon="4.36474">
        <ele>519.2</ele>
        <time>2022-06-26T10:38:23Z</time>
      </trkpt>
      <trkpt lat="45.89126" lon="4.36479">
        <ele>518.8</ele>
        <time>2022-06-26T10:38:24Z</time>
      </trkpt>
      <trkpt lat="45.8912" lon="4.36484">
        <ele>518.4</ele>
        <time>2022-06-26T10:38:25Z</time>
      </trkpt>
      <trkpt lat="45.89114" lon="4.3649">
        <ele>518</ele>
        <time>2022-06-26T10:38:26Z</time>
      </trkpt>
      <trkpt lat="45.89109" lon="4.36496">
        <ele>517.6</ele>
        <time>2022-06-26T10:38:27Z</time>
      </trkpt>
      <trkpt lat="45.89104" lon="4.36502">
        <ele>517</ele>
        <time>2022-06-26T10:38:29Z</time>
      </trkpt>
      <trkpt lat="45.891" lon="4.36508">
        <ele>516.6</ele>
        <time>2022-06-26T10:38:30Z</time>
      </trkpt>
      <trkpt lat="45.89097" lon="4.36514">
        <ele>516.2</ele>
        <time>2022-06-26T10:38:31Z</time>
      </trkpt>
      <trkpt lat="45.89093" lon="4.36521">
        <ele>516</ele>
        <time>2022-06-26T10:38:32Z</time>
      </trkpt>
      <trkpt lat="45.8909" lon="4.36529">
        <ele>515.6</ele>
        <time>2022-06-26T10:38:33Z</time>
      </trkpt>
      <trkpt lat="45.89087" lon="4.36537">
        <ele>515.4</ele>
        <time>2022-06-26T10:38:34Z</time>
      </trkpt>
      <trkpt lat="45.89084" lon="4.36545">
        <ele>515.2</ele>
        <time>2022-06-26T10:38:35Z</time>
      </trkpt>
      <trkpt lat="45.89081" lon="4.36553">
        <ele>515</ele>
        <time>2022-06-26T10:38:36Z</time>
      </trkpt>
      <trkpt lat="45.89079" lon="4.36561">
        <ele>514.6</ele>
        <time>2022-06-26T10:38:37Z</time>
      </trkpt>
      <trkpt lat="45.89076" lon="4.36569">
        <ele>514.4</ele>
        <time>2022-06-26T10:38:38Z</time>
      </trkpt>
      <trkpt lat="45.89074" lon="4.36577">
        <ele>514.2</ele>
        <time>2022-06-26T10:38:39Z</time>
      </trkpt>
      <trkpt lat="45.89072" lon="4.36585">
        <ele>513.8</ele>
        <time>2022-06-26T10:38:40Z</time>
      </trkpt>
      <trkpt lat="45.89069" lon="4.36594">
        <ele>513.6</ele>
        <time>2022-06-26T10:38:41Z</time>
      </trkpt>
      <trkpt lat="45.89067" lon="4.36603">
        <ele>513.2</ele>
        <time>2022-06-26T10:38:42Z</time>
      </trkpt>
      <trkpt lat="45.89064" lon="4.36612">
        <ele>512.8</ele>
        <time>2022-06-26T10:38:43Z</time>
      </trkpt>
      <trkpt lat="45.8906" lon="4.36621">
        <ele>512.6</ele>
        <time>2022-06-26T10:38:44Z</time>
      </trkpt>
      <trkpt lat="45.89057" lon="4.3663">
        <ele>512</ele>
        <time>2022-06-26T10:38:45Z</time>
      </trkpt>
      <trkpt lat="45.89054" lon="4.3664">
        <ele>511.6</ele>
        <time>2022-06-26T10:38:46Z</time>
      </trkpt>
      <trkpt lat="45.8905" lon="4.36651">
        <ele>511.6</ele>
        <time>2022-06-26T10:38:47Z</time>
      </trkpt>
      <trkpt lat="45.89046" lon="4.36661">
        <ele>511</ele>
        <time>2022-06-26T10:38:48Z</time>
      </trkpt>
      <trkpt lat="45.89042" lon="4.36672">
        <ele>510.4</ele>
        <time>2022-06-26T10:38:49Z</time>
      </trkpt>
      <trkpt lat="45.89038" lon="4.36682">
        <ele>510</ele>
        <time>2022-06-26T10:38:50Z</time>
      </trkpt>
      <trkpt lat="45.89034" lon="4.36693">
        <ele>509.4</ele>
        <time>2022-06-26T10:38:51Z</time>
      </trkpt>
      <trkpt lat="45.8903" lon="4.36703">
        <ele>508.8</ele>
        <time>2022-06-26T10:38:52Z</time>
      </trkpt>
      <trkpt lat="45.89025" lon="4.36714">
        <ele>508.2</ele>
        <time>2022-06-26T10:38:53Z</time>
      </trkpt>
      <trkpt lat="45.8902" lon="4.36725">
        <ele>507.6</ele>
        <time>2022-06-26T10:38:54Z</time>
      </trkpt>
      <trkpt lat="45.89015" lon="4.36737">
        <ele>507</ele>
        <time>2022-06-26T10:38:55Z</time>
      </trkpt>
      <trkpt lat="45.89011" lon="4.36747">
        <ele>506.6</ele>
        <time>2022-06-26T10:38:56Z</time>
      </trkpt>
      <trkpt lat="45.89006" lon="4.36758">
        <ele>506.2</ele>
        <time>2022-06-26T10:38:57Z</time>
      </trkpt>
      <trkpt lat="45.89001" lon="4.36768">
        <ele>505.8</ele>
        <time>2022-06-26T10:38:58Z</time>
      </trkpt>
      <trkpt lat="45.88996" lon="4.36779">
        <ele>505.4</ele>
        <time>2022-06-26T10:38:59Z</time>
      </trkpt>
      <trkpt lat="45.88991" lon="4.36789">
        <ele>505.2</ele>
        <time>2022-06-26T10:39:00Z</time>
      </trkpt>
      <trkpt lat="45.88986" lon="4.36799">
        <ele>504.8</ele>
        <time>2022-06-26T10:39:01Z</time>
      </trkpt>
      <trkpt lat="45.88981" lon="4.36809">
        <ele>504.4</ele>
        <time>2022-06-26T10:39:02Z</time>
      </trkpt>
      <trkpt lat="45.88976" lon="4.36819">
        <ele>504.2</ele>
        <time>2022-06-26T10:39:03Z</time>
      </trkpt>
      <trkpt lat="45.88971" lon="4.3683">
        <ele>504</ele>
        <time>2022-06-26T10:39:04Z</time>
      </trkpt>
      <trkpt lat="45.88967" lon="4.36841">
        <ele>504</ele>
        <time>2022-06-26T10:39:05Z</time>
      </trkpt>
      <trkpt lat="45.88962" lon="4.36851">
        <ele>503.6</ele>
        <time>2022-06-26T10:39:06Z</time>
      </trkpt>
      <trkpt lat="45.88958" lon="4.36861">
        <ele>503.6</ele>
        <time>2022-06-26T10:39:07Z</time>
      </trkpt>
      <trkpt lat="45.88955" lon="4.36871">
        <ele>503.2</ele>
        <time>2022-06-26T10:39:08Z</time>
      </trkpt>
      <trkpt lat="45.88952" lon="4.36881">
        <ele>503.2</ele>
        <time>2022-06-26T10:39:09Z</time>
      </trkpt>
      <trkpt lat="45.8895" lon="4.36891">
        <ele>503</ele>
        <time>2022-06-26T10:39:10Z</time>
      </trkpt>
      <trkpt lat="45.88948" lon="4.369">
        <ele>502.8</ele>
        <time>2022-06-26T10:39:11Z</time>
      </trkpt>
      <trkpt lat="45.88947" lon="4.36911">
        <ele>502.4</ele>
        <time>2022-06-26T10:39:12Z</time>
      </trkpt>
      <trkpt lat="45.88947" lon="4.36921">
        <ele>502.4</ele>
        <time>2022-06-26T10:39:13Z</time>
      </trkpt>
      <trkpt lat="45.88946" lon="4.36932">
        <ele>502</ele>
        <time>2022-06-26T10:39:14Z</time>
      </trkpt>
      <trkpt lat="45.88947" lon="4.36943">
        <ele>501.6</ele>
        <time>2022-06-26T10:39:15Z</time>
      </trkpt>
      <trkpt lat="45.88947" lon="4.36953">
        <ele>501.4</ele>
        <time>2022-06-26T10:39:16Z</time>
      </trkpt>
      <trkpt lat="45.88947" lon="4.36963">
        <ele>501</ele>
        <time>2022-06-26T10:39:17Z</time>
      </trkpt>
      <trkpt lat="45.88946" lon="4.36974">
        <ele>500.8</ele>
        <time>2022-06-26T10:39:18Z</time>
      </trkpt>
      <trkpt lat="45.88944" lon="4.36984">
        <ele>500.4</ele>
        <time>2022-06-26T10:39:19Z</time>
      </trkpt>
      <trkpt lat="45.88941" lon="4.36994">
        <ele>500.2</ele>
        <time>2022-06-26T10:39:20Z</time>
      </trkpt>
      <trkpt lat="45.88937" lon="4.37003">
        <ele>500</ele>
        <time>2022-06-26T10:39:21Z</time>
      </trkpt>
      <trkpt lat="45.88933" lon="4.37012">
        <ele>500</ele>
        <time>2022-06-26T10:39:22Z</time>
      </trkpt>
      <trkpt lat="45.88928" lon="4.37019">
        <ele>499.6</ele>
        <time>2022-06-26T10:39:23Z</time>
      </trkpt>
      <trkpt lat="45.88922" lon="4.37025">
        <ele>499.6</ele>
        <time>2022-06-26T10:39:24Z</time>
      </trkpt>
      <trkpt lat="45.88917" lon="4.37031">
        <ele>499.6</ele>
        <time>2022-06-26T10:39:25Z</time>
      </trkpt>
      <trkpt lat="45.88911" lon="4.37036">
        <ele>499.6</ele>
        <time>2022-06-26T10:39:26Z</time>
      </trkpt>
      <trkpt lat="45.88907" lon="4.37041">
        <ele>499.6</ele>
        <time>2022-06-26T10:39:27Z</time>
      </trkpt>
      <trkpt lat="45.88898" lon="4.37053">
        <ele>499.2</ele>
        <time>2022-06-26T10:39:28Z</time>
      </trkpt>
      <trkpt lat="45.88895" lon="4.37059">
        <ele>499.2</ele>
        <time>2022-06-26T10:39:29Z</time>
      </trkpt>
      <trkpt lat="45.88891" lon="4.37066">
        <ele>499.2</ele>
        <time>2022-06-26T10:39:30Z</time>
      </trkpt>
      <trkpt lat="45.88888" lon="4.37073">
        <ele>499.2</ele>
        <time>2022-06-26T10:39:31Z</time>
      </trkpt>
      <trkpt lat="45.88885" lon="4.3708">
        <ele>499</ele>
        <time>2022-06-26T10:39:32Z</time>
      </trkpt>
      <trkpt lat="45.88882" lon="4.37087">
        <ele>499</ele>
        <time>2022-06-26T10:39:33Z</time>
      </trkpt>
      <trkpt lat="45.88879" lon="4.37094">
        <ele>499</ele>
        <time>2022-06-26T10:39:34Z</time>
      </trkpt>
      <trkpt lat="45.88877" lon="4.371">
        <ele>499</ele>
        <time>2022-06-26T10:39:35Z</time>
      </trkpt>
      <trkpt lat="45.88875" lon="4.37107">
        <ele>499</ele>
        <time>2022-06-26T10:39:36Z</time>
      </trkpt>
      <trkpt lat="45.88874" lon="4.37113">
        <ele>499.4</ele>
        <time>2022-06-26T10:39:37Z</time>
      </trkpt>
      <trkpt lat="45.88874" lon="4.37118">
        <ele>499.6</ele>
        <time>2022-06-26T10:39:38Z</time>
      </trkpt>
      <trkpt lat="45.88874" lon="4.37123">
        <ele>499.6</ele>
        <time>2022-06-26T10:39:39Z</time>
      </trkpt>
      <trkpt lat="45.88875" lon="4.37128">
        <ele>500</ele>
        <time>2022-06-26T10:39:40Z</time>
      </trkpt>
      <trkpt lat="45.88875" lon="4.37132">
        <ele>500.4</ele>
        <time>2022-06-26T10:39:41Z</time>
      </trkpt>
      <trkpt lat="45.88876" lon="4.37137">
        <ele>500.8</ele>
        <time>2022-06-26T10:39:42Z</time>
      </trkpt>
      <trkpt lat="45.88877" lon="4.37141">
        <ele>501</ele>
        <time>2022-06-26T10:39:43Z</time>
      </trkpt>
      <trkpt lat="45.88878" lon="4.37145">
        <ele>501</ele>
        <time>2022-06-26T10:39:44Z</time>
      </trkpt>
      <trkpt lat="45.88879" lon="4.37148">
        <ele>501.4</ele>
        <time>2022-06-26T10:39:45Z</time>
      </trkpt>
      <trkpt lat="45.88881" lon="4.37152">
        <ele>501.6</ele>
        <time>2022-06-26T10:39:46Z</time>
      </trkpt>
      <trkpt lat="45.88882" lon="4.37156">
        <ele>501.6</ele>
        <time>2022-06-26T10:39:47Z</time>
      </trkpt>
      <trkpt lat="45.88884" lon="4.37159">
        <ele>501.8</ele>
        <time>2022-06-26T10:39:48Z</time>
      </trkpt>
      <trkpt lat="45.88886" lon="4.37163">
        <ele>501.8</ele>
        <time>2022-06-26T10:39:49Z</time>
      </trkpt>
      <trkpt lat="45.88887" lon="4.37167">
        <ele>502.2</ele>
        <time>2022-06-26T10:39:50Z</time>
      </trkpt>
      <trkpt lat="45.88888" lon="4.37172">
        <ele>502.2</ele>
        <time>2022-06-26T10:39:51Z</time>
      </trkpt>
      <trkpt lat="45.88889" lon="4.37177">
        <ele>502.2</ele>
        <time>2022-06-26T10:39:52Z</time>
      </trkpt>
      <trkpt lat="45.88891" lon="4.37182">
        <ele>502.2</ele>
        <time>2022-06-26T10:39:53Z</time>
      </trkpt>
      <trkpt lat="45.88892" lon="4.37188">
        <ele>502.2</ele>
        <time>2022-06-26T10:39:54Z</time>
      </trkpt>
      <trkpt lat="45.88893" lon="4.37194">
        <ele>502.2</ele>
        <time>2022-06-26T10:39:55Z</time>
      </trkpt>
      <trkpt lat="45.88894" lon="4.372">
        <ele>502.2</ele>
        <time>2022-06-26T10:39:56Z</time>
      </trkpt>
      <trkpt lat="45.88895" lon="4.37207">
        <ele>502.2</ele>
        <time>2022-06-26T10:39:57Z</time>
      </trkpt>
      <trkpt lat="45.88895" lon="4.37214">
        <ele>502.2</ele>
        <time>2022-06-26T10:39:58Z</time>
      </trkpt>
      <trkpt lat="45.88896" lon="4.37221">
        <ele>502.2</ele>
        <time>2022-06-26T10:39:59Z</time>
      </trkpt>
      <trkpt lat="45.88896" lon="4.37228">
        <ele>502.2</ele>
        <time>2022-06-26T10:40:00Z</time>
      </trkpt>
      <trkpt lat="45.88896" lon="4.37236">
        <ele>501.8</ele>
        <time>2022-06-26T10:40:01Z</time>
      </trkpt>
      <trkpt lat="45.88897" lon="4.37243">
        <ele>501.8</ele>
        <time>2022-06-26T10:40:02Z</time>
      </trkpt>
      <trkpt lat="45.88897" lon="4.37251">
        <ele>501.6</ele>
        <time>2022-06-26T10:40:03Z</time>
      </trkpt>
      <trkpt lat="45.88898" lon="4.37259">
        <ele>501.6</ele>
        <time>2022-06-26T10:40:04Z</time>
      </trkpt>
      <trkpt lat="45.88898" lon="4.37267">
        <ele>501.4</ele>
        <time>2022-06-26T10:40:05Z</time>
      </trkpt>
      <trkpt lat="45.88898" lon="4.37276">
        <ele>501.4</ele>
        <time>2022-06-26T10:40:06Z</time>
      </trkpt>
      <trkpt lat="45.88899" lon="4.37284">
        <ele>501.2</ele>
        <time>2022-06-26T10:40:07Z</time>
      </trkpt>
      <trkpt lat="45.88899" lon="4.37293">
        <ele>501.2</ele>
        <time>2022-06-26T10:40:08Z</time>
      </trkpt>
      <trkpt lat="45.88899" lon="4.37301">
        <ele>500.8</ele>
        <time>2022-06-26T10:40:09Z</time>
      </trkpt>
      <trkpt lat="45.889" lon="4.3731">
        <ele>500.6</ele>
        <time>2022-06-26T10:40:10Z</time>
      </trkpt>
      <trkpt lat="45.889" lon="4.37319">
        <ele>500.4</ele>
        <time>2022-06-26T10:40:11Z</time>
      </trkpt>
      <trkpt lat="45.889" lon="4.37328">
        <ele>500.4</ele>
        <time>2022-06-26T10:40:12Z</time>
      </trkpt>
      <trkpt lat="45.88901" lon="4.37337">
        <ele>500</ele>
        <time>2022-06-26T10:40:13Z</time>
      </trkpt>
      <trkpt lat="45.88902" lon="4.37346">
        <ele>499.8</ele>
        <time>2022-06-26T10:40:14Z</time>
      </trkpt>
      <trkpt lat="45.88902" lon="4.37355">
        <ele>499.8</ele>
        <time>2022-06-26T10:40:15Z</time>
      </trkpt>
      <trkpt lat="45.88902" lon="4.37364">
        <ele>499.4</ele>
        <time>2022-06-26T10:40:16Z</time>
      </trkpt>
      <trkpt lat="45.88901" lon="4.37374">
        <ele>499.2</ele>
        <time>2022-06-26T10:40:17Z</time>
      </trkpt>
      <trkpt lat="45.88901" lon="4.37384">
        <ele>498.8</ele>
        <time>2022-06-26T10:40:18Z</time>
      </trkpt>
      <trkpt lat="45.88901" lon="4.37394">
        <ele>498.6</ele>
        <time>2022-06-26T10:40:19Z</time>
      </trkpt>
      <trkpt lat="45.88901" lon="4.37405">
        <ele>498.4</ele>
        <time>2022-06-26T10:40:20Z</time>
      </trkpt>
      <trkpt lat="45.88901" lon="4.37415">
        <ele>498</ele>
        <time>2022-06-26T10:40:21Z</time>
      </trkpt>
      <trkpt lat="45.88901" lon="4.37426">
        <ele>497.8</ele>
        <time>2022-06-26T10:40:22Z</time>
      </trkpt>
      <trkpt lat="45.889" lon="4.37437">
        <ele>497.6</ele>
        <time>2022-06-26T10:40:23Z</time>
      </trkpt>
      <trkpt lat="45.88899" lon="4.37447">
        <ele>497.2</ele>
        <time>2022-06-26T10:40:24Z</time>
      </trkpt>
      <trkpt lat="45.88898" lon="4.37456">
        <ele>497</ele>
        <time>2022-06-26T10:40:25Z</time>
      </trkpt>
      <trkpt lat="45.88897" lon="4.37465">
        <ele>496.8</ele>
        <time>2022-06-26T10:40:26Z</time>
      </trkpt>
      <trkpt lat="45.88895" lon="4.37474">
        <ele>496.8</ele>
        <time>2022-06-26T10:40:27Z</time>
      </trkpt>
      <trkpt lat="45.88894" lon="4.37482">
        <ele>496.4</ele>
        <time>2022-06-26T10:40:28Z</time>
      </trkpt>
      <trkpt lat="45.88892" lon="4.37491">
        <ele>496.4</ele>
        <time>2022-06-26T10:40:29Z</time>
      </trkpt>
      <trkpt lat="45.8889" lon="4.37499">
        <ele>496.2</ele>
        <time>2022-06-26T10:40:30Z</time>
      </trkpt>
      <trkpt lat="45.88889" lon="4.37508">
        <ele>496.2</ele>
        <time>2022-06-26T10:40:31Z</time>
      </trkpt>
      <trkpt lat="45.88887" lon="4.37516">
        <ele>496.2</ele>
        <time>2022-06-26T10:40:32Z</time>
      </trkpt>
      <trkpt lat="45.88885" lon="4.37523">
        <ele>495.8</ele>
        <time>2022-06-26T10:40:33Z</time>
      </trkpt>
      <trkpt lat="45.88883" lon="4.37529">
        <ele>495.8</ele>
        <time>2022-06-26T10:40:34Z</time>
      </trkpt>
      <trkpt lat="45.8888" lon="4.37534">
        <ele>495.6</ele>
        <time>2022-06-26T10:40:35Z</time>
      </trkpt>
      <trkpt lat="45.88876" lon="4.37537">
        <ele>495.6</ele>
        <time>2022-06-26T10:40:36Z</time>
      </trkpt>
      <trkpt lat="45.88873" lon="4.37539">
        <ele>495.6</ele>
        <time>2022-06-26T10:40:37Z</time>
      </trkpt>
      <trkpt lat="45.88869" lon="4.37539">
        <ele>495.6</ele>
        <time>2022-06-26T10:40:38Z</time>
      </trkpt>
      <trkpt lat="45.88865" lon="4.37538">
        <ele>495.6</ele>
        <time>2022-06-26T10:40:39Z</time>
      </trkpt>
      <trkpt lat="45.88862" lon="4.37536">
        <ele>495.8</ele>
        <time>2022-06-26T10:40:40Z</time>
      </trkpt>
      <trkpt lat="45.8886" lon="4.37534">
        <ele>495.8</ele>
        <time>2022-06-26T10:40:41Z</time>
      </trkpt>
      <trkpt lat="45.88858" lon="4.3753">
        <ele>496.2</ele>
        <time>2022-06-26T10:40:42Z</time>
      </trkpt>
      <trkpt lat="45.88856" lon="4.37526">
        <ele>496.4</ele>
        <time>2022-06-26T10:40:43Z</time>
      </trkpt>
      <trkpt lat="45.88855" lon="4.37522">
        <ele>496.8</ele>
        <time>2022-06-26T10:40:44Z</time>
      </trkpt>
      <trkpt lat="45.88853" lon="4.37518">
        <ele>497</ele>
        <time>2022-06-26T10:40:45Z</time>
      </trkpt>
      <trkpt lat="45.88852" lon="4.37515">
        <ele>497.2</ele>
        <time>2022-06-26T10:40:46Z</time>
      </trkpt>
      <trkpt lat="45.88851" lon="4.37511">
        <ele>497.4</ele>
        <time>2022-06-26T10:40:47Z</time>
      </trkpt>
      <trkpt lat="45.8885" lon="4.37507">
        <ele>497.6</ele>
        <time>2022-06-26T10:40:48Z</time>
      </trkpt>
      <trkpt lat="45.88849" lon="4.37502">
        <ele>498</ele>
        <time>2022-06-26T10:40:49Z</time>
      </trkpt>
      <trkpt lat="45.88849" lon="4.37498">
        <ele>498.2</ele>
        <time>2022-06-26T10:40:50Z</time>
      </trkpt>
      <trkpt lat="45.88849" lon="4.37494">
        <ele>498.4</ele>
        <time>2022-06-26T10:40:51Z</time>
      </trkpt>
      <trkpt lat="45.88848" lon="4.3749">
        <ele>498.6</ele>
        <time>2022-06-26T10:40:52Z</time>
      </trkpt>
      <trkpt lat="45.88848" lon="4.37486">
        <ele>499</ele>
        <time>2022-06-26T10:40:53Z</time>
      </trkpt>
      <trkpt lat="45.88848" lon="4.37482">
        <ele>499.4</ele>
        <time>2022-06-26T10:40:54Z</time>
      </trkpt>
      <trkpt lat="45.88848" lon="4.37477">
        <ele>499.6</ele>
        <time>2022-06-26T10:40:55Z</time>
      </trkpt>
      <trkpt lat="45.88849" lon="4.37473">
        <ele>500</ele>
        <time>2022-06-26T10:40:56Z</time>
      </trkpt>
      <trkpt lat="45.8885" lon="4.37468">
        <ele>500</ele>
        <time>2022-06-26T10:40:57Z</time>
      </trkpt>
      <trkpt lat="45.8885" lon="4.37464">
        <ele>500.4</ele>
        <time>2022-06-26T10:40:58Z</time>
      </trkpt>
      <trkpt lat="45.88851" lon="4.3746">
        <ele>500.6</ele>
        <time>2022-06-26T10:40:59Z</time>
      </trkpt>
      <trkpt lat="45.88851" lon="4.37456">
        <ele>500.6</ele>
        <time>2022-06-26T10:41:00Z</time>
      </trkpt>
      <trkpt lat="45.88852" lon="4.37453">
        <ele>501.2</ele>
        <time>2022-06-26T10:41:01Z</time>
      </trkpt>
      <trkpt lat="45.88852" lon="4.37449">
        <ele>501.2</ele>
        <time>2022-06-26T10:41:02Z</time>
      </trkpt>
      <trkpt lat="45.88853" lon="4.37446">
        <ele>501.6</ele>
        <time>2022-06-26T10:41:03Z</time>
      </trkpt>
      <trkpt lat="45.88853" lon="4.37443">
        <ele>501.6</ele>
        <time>2022-06-26T10:41:04Z</time>
      </trkpt>
      <trkpt lat="45.88853" lon="4.3744">
        <ele>502</ele>
        <time>2022-06-26T10:41:05Z</time>
      </trkpt>
      <trkpt lat="45.88854" lon="4.37436">
        <ele>502.2</ele>
        <time>2022-06-26T10:41:06Z</time>
      </trkpt>
      <trkpt lat="45.88854" lon="4.37433">
        <ele>502.2</ele>
        <time>2022-06-26T10:41:07Z</time>
      </trkpt>
      <trkpt lat="45.88854" lon="4.37429">
        <ele>502.6</ele>
        <time>2022-06-26T10:41:08Z</time>
      </trkpt>
      <trkpt lat="45.88854" lon="4.37425">
        <ele>502.8</ele>
        <time>2022-06-26T10:41:09Z</time>
      </trkpt>
      <trkpt lat="45.88855" lon="4.37422">
        <ele>502.8</ele>
        <time>2022-06-26T10:41:10Z</time>
      </trkpt>
      <trkpt lat="45.88855" lon="4.37418">
        <ele>503.2</ele>
        <time>2022-06-26T10:41:11Z</time>
      </trkpt>
      <trkpt lat="45.88856" lon="4.37415">
        <ele>503.2</ele>
        <time>2022-06-26T10:41:12Z</time>
      </trkpt>
      <trkpt lat="45.88857" lon="4.37411">
        <ele>503.6</ele>
        <time>2022-06-26T10:41:13Z</time>
      </trkpt>
      <trkpt lat="45.88857" lon="4.37408">
        <ele>503.6</ele>
        <time>2022-06-26T10:41:14Z</time>
      </trkpt>
      <trkpt lat="45.88857" lon="4.37405">
        <ele>504</ele>
        <time>2022-06-26T10:41:15Z</time>
      </trkpt>
      <trkpt lat="45.88858" lon="4.37401">
        <ele>504.2</ele>
        <time>2022-06-26T10:41:16Z</time>
      </trkpt>
      <trkpt lat="45.88858" lon="4.37398">
        <ele>504.4</ele>
        <time>2022-06-26T10:41:17Z</time>
      </trkpt>
      <trkpt lat="45.88858" lon="4.37395">
        <ele>504.6</ele>
        <time>2022-06-26T10:41:18Z</time>
      </trkpt>
      <trkpt lat="45.88859" lon="4.37391">
        <ele>504.8</ele>
        <time>2022-06-26T10:41:19Z</time>
      </trkpt>
      <trkpt lat="45.88859" lon="4.37388">
        <ele>505</ele>
        <time>2022-06-26T10:41:20Z</time>
      </trkpt>
      <trkpt lat="45.88859" lon="4.37384">
        <ele>505.4</ele>
        <time>2022-06-26T10:41:21Z</time>
      </trkpt>
      <trkpt lat="45.8886" lon="4.37381">
        <ele>505.6</ele>
        <time>2022-06-26T10:41:22Z</time>
      </trkpt>
      <trkpt lat="45.8886" lon="4.37377">
        <ele>505.6</ele>
        <time>2022-06-26T10:41:23Z</time>
      </trkpt>
      <trkpt lat="45.8886" lon="4.37374">
        <ele>506</ele>
        <time>2022-06-26T10:41:24Z</time>
      </trkpt>
      <trkpt lat="45.8886" lon="4.3737">
        <ele>506</ele>
        <time>2022-06-26T10:41:25Z</time>
      </trkpt>
      <trkpt lat="45.88861" lon="4.37367">
        <ele>506.4</ele>
        <time>2022-06-26T10:41:26Z</time>
      </trkpt>
      <trkpt lat="45.88861" lon="4.37364">
        <ele>506.4</ele>
        <time>2022-06-26T10:41:27Z</time>
      </trkpt>
      <trkpt lat="45.88861" lon="4.37361">
        <ele>506.6</ele>
        <time>2022-06-26T10:41:28Z</time>
      </trkpt>
      <trkpt lat="45.88861" lon="4.37357">
        <ele>506.6</ele>
        <time>2022-06-26T10:41:29Z</time>
      </trkpt>
      <trkpt lat="45.88862" lon="4.37354">
        <ele>506.8</ele>
        <time>2022-06-26T10:41:30Z</time>
      </trkpt>
      <trkpt lat="45.88862" lon="4.3735">
        <ele>507</ele>
        <time>2022-06-26T10:41:31Z</time>
      </trkpt>
      <trkpt lat="45.88862" lon="4.37347">
        <ele>507</ele>
        <time>2022-06-26T10:41:32Z</time>
      </trkpt>
      <trkpt lat="45.88862" lon="4.37344">
        <ele>507.4</ele>
        <time>2022-06-26T10:41:33Z</time>
      </trkpt>
      <trkpt lat="45.88862" lon="4.3734">
        <ele>507.4</ele>
        <time>2022-06-26T10:41:34Z</time>
      </trkpt>
      <trkpt lat="45.88862" lon="4.37337">
        <ele>507.6</ele>
        <time>2022-06-26T10:41:35Z</time>
      </trkpt>
      <trkpt lat="45.88862" lon="4.37333">
        <ele>507.6</ele>
        <time>2022-06-26T10:41:36Z</time>
      </trkpt>
      <trkpt lat="45.88863" lon="4.3733">
        <ele>508</ele>
        <time>2022-06-26T10:41:37Z</time>
      </trkpt>
      <trkpt lat="45.88863" lon="4.37326">
        <ele>508.2</ele>
        <time>2022-06-26T10:41:38Z</time>
      </trkpt>
      <trkpt lat="45.88862" lon="4.37323">
        <ele>508.2</ele>
        <time>2022-06-26T10:41:39Z</time>
      </trkpt>
      <trkpt lat="45.88862" lon="4.3732">
        <ele>508.6</ele>
        <time>2022-06-26T10:41:40Z</time>
      </trkpt>
      <trkpt lat="45.88862" lon="4.37316">
        <ele>508.6</ele>
        <time>2022-06-26T10:41:41Z</time>
      </trkpt>
      <trkpt lat="45.88862" lon="4.37313">
        <ele>508.8</ele>
        <time>2022-06-26T10:41:42Z</time>
      </trkpt>
      <trkpt lat="45.88862" lon="4.37309">
        <ele>508.8</ele>
        <time>2022-06-26T10:41:43Z</time>
      </trkpt>
      <trkpt lat="45.88862" lon="4.37306">
        <ele>509.2</ele>
        <time>2022-06-26T10:41:44Z</time>
      </trkpt>
      <trkpt lat="45.88862" lon="4.37302">
        <ele>509.4</ele>
        <time>2022-06-26T10:41:45Z</time>
      </trkpt>
      <trkpt lat="45.88863" lon="4.37299">
        <ele>509.4</ele>
        <time>2022-06-26T10:41:46Z</time>
      </trkpt>
      <trkpt lat="45.88863" lon="4.37296">
        <ele>509.8</ele>
        <time>2022-06-26T10:41:47Z</time>
      </trkpt>
      <trkpt lat="45.88863" lon="4.37292">
        <ele>509.8</ele>
        <time>2022-06-26T10:41:48Z</time>
      </trkpt>
      <trkpt lat="45.88864" lon="4.37289">
        <ele>510</ele>
        <time>2022-06-26T10:41:49Z</time>
      </trkpt>
      <trkpt lat="45.88864" lon="4.37286">
        <ele>510</ele>
        <time>2022-06-26T10:41:50Z</time>
      </trkpt>
      <trkpt lat="45.88864" lon="4.37282">
        <ele>510.4</ele>
        <time>2022-06-26T10:41:51Z</time>
      </trkpt>
      <trkpt lat="45.88864" lon="4.37279">
        <ele>510.4</ele>
        <time>2022-06-26T10:41:52Z</time>
      </trkpt>
      <trkpt lat="45.88864" lon="4.37276">
        <ele>510.8</ele>
        <time>2022-06-26T10:41:53Z</time>
      </trkpt>
      <trkpt lat="45.88864" lon="4.37272">
        <ele>511</ele>
        <time>2022-06-26T10:41:54Z</time>
      </trkpt>
      <trkpt lat="45.88864" lon="4.37269">
        <ele>511</ele>
        <time>2022-06-26T10:41:55Z</time>
      </trkpt>
      <trkpt lat="45.88864" lon="4.37266">
        <ele>511.4</ele>
        <time>2022-06-26T10:41:56Z</time>
      </trkpt>
      <trkpt lat="45.88864" lon="4.37262">
        <ele>511.4</ele>
        <time>2022-06-26T10:41:57Z</time>
      </trkpt>
      <trkpt lat="45.88864" lon="4.37259">
        <ele>511.8</ele>
        <time>2022-06-26T10:41:58Z</time>
      </trkpt>
      <trkpt lat="45.88864" lon="4.37256">
        <ele>512</ele>
        <time>2022-06-26T10:41:59Z</time>
      </trkpt>
      <trkpt lat="45.88863" lon="4.37253">
        <ele>512</ele>
        <time>2022-06-26T10:42:00Z</time>
      </trkpt>
      <trkpt lat="45.88862" lon="4.3725">
        <ele>512.4</ele>
        <time>2022-06-26T10:42:01Z</time>
      </trkpt>
      <trkpt lat="45.88862" lon="4.37247">
        <ele>512.4</ele>
        <time>2022-06-26T10:42:02Z</time>
      </trkpt>
      <trkpt lat="45.88861" lon="4.37244">
        <ele>512.8</ele>
        <time>2022-06-26T10:42:03Z</time>
      </trkpt>
      <trkpt lat="45.8886" lon="4.37241">
        <ele>512.8</ele>
        <time>2022-06-26T10:42:04Z</time>
      </trkpt>
      <trkpt lat="45.88858" lon="4.37239">
        <ele>513</ele>
        <time>2022-06-26T10:42:05Z</time>
      </trkpt>
      <trkpt lat="45.88857" lon="4.37236">
        <ele>513</ele>
        <time>2022-06-26T10:42:06Z</time>
      </trkpt>
      <trkpt lat="45.88855" lon="4.37234">
        <ele>513.4</ele>
        <time>2022-06-26T10:42:07Z</time>
      </trkpt>
      <trkpt lat="45.88853" lon="4.37232">
        <ele>513.4</ele>
        <time>2022-06-26T10:42:08Z</time>
      </trkpt>
      <trkpt lat="45.88851" lon="4.37231">
        <ele>513.8</ele>
        <time>2022-06-26T10:42:09Z</time>
      </trkpt>
      <trkpt lat="45.88848" lon="4.3723">
        <ele>513.8</ele>
        <time>2022-06-26T10:42:10Z</time>
      </trkpt>
      <trkpt lat="45.88846" lon="4.37229">
        <ele>514</ele>
        <time>2022-06-26T10:42:11Z</time>
      </trkpt>
      <trkpt lat="45.88844" lon="4.37228">
        <ele>514.2</ele>
        <time>2022-06-26T10:42:12Z</time>
      </trkpt>
      <trkpt lat="45.88841" lon="4.37228">
        <ele>514.4</ele>
        <time>2022-06-26T10:42:13Z</time>
      </trkpt>
      <trkpt lat="45.88839" lon="4.37228">
        <ele>514.4</ele>
        <time>2022-06-26T10:42:14Z</time>
      </trkpt>
      <trkpt lat="45.88837" lon="4.37229">
        <ele>514.8</ele>
        <time>2022-06-26T10:42:15Z</time>
      </trkpt>
      <trkpt lat="45.88834" lon="4.3723">
        <ele>514.8</ele>
        <time>2022-06-26T10:42:16Z</time>
      </trkpt>
      <trkpt lat="45.88832" lon="4.37231">
        <ele>515</ele>
        <time>2022-06-26T10:42:17Z</time>
      </trkpt>
      <trkpt lat="45.8883" lon="4.37233">
        <ele>515</ele>
        <time>2022-06-26T10:42:18Z</time>
      </trkpt>
      <trkpt lat="45.88829" lon="4.37235">
        <ele>515.4</ele>
        <time>2022-06-26T10:42:19Z</time>
      </trkpt>
      <trkpt lat="45.88827" lon="4.37238">
        <ele>515.6</ele>
        <time>2022-06-26T10:42:20Z</time>
      </trkpt>
      <trkpt lat="45.88826" lon="4.3724">
        <ele>515.6</ele>
        <time>2022-06-26T10:42:21Z</time>
      </trkpt>
      <trkpt lat="45.88825" lon="4.37242">
        <ele>516</ele>
        <time>2022-06-26T10:42:22Z</time>
      </trkpt>
      <trkpt lat="45.88823" lon="4.37245">
        <ele>516</ele>
        <time>2022-06-26T10:42:23Z</time>
      </trkpt>
      <trkpt lat="45.88821" lon="4.37247">
        <ele>516.4</ele>
        <time>2022-06-26T10:42:24Z</time>
      </trkpt>
      <trkpt lat="45.8882" lon="4.3725">
        <ele>516.4</ele>
        <time>2022-06-26T10:42:25Z</time>
      </trkpt>
      <trkpt lat="45.88819" lon="4.37253">
        <ele>516.8</ele>
        <time>2022-06-26T10:42:26Z</time>
      </trkpt>
      <trkpt lat="45.88818" lon="4.37256">
        <ele>516.8</ele>
        <time>2022-06-26T10:42:27Z</time>
      </trkpt>
      <trkpt lat="45.88817" lon="4.3726">
        <ele>517</ele>
        <time>2022-06-26T10:42:28Z</time>
      </trkpt>
      <trkpt lat="45.88815" lon="4.37263">
        <ele>517.2</ele>
        <time>2022-06-26T10:42:29Z</time>
      </trkpt>
      <trkpt lat="45.88814" lon="4.37266">
        <ele>517.4</ele>
        <time>2022-06-26T10:42:30Z</time>
      </trkpt>
      <trkpt lat="45.88813" lon="4.37269">
        <ele>517.8</ele>
        <time>2022-06-26T10:42:31Z</time>
      </trkpt>
      <trkpt lat="45.88813" lon="4.37272">
        <ele>517.8</ele>
        <time>2022-06-26T10:42:32Z</time>
      </trkpt>
      <trkpt lat="45.88812" lon="4.37276">
        <ele>518</ele>
        <time>2022-06-26T10:42:33Z</time>
      </trkpt>
      <trkpt lat="45.88811" lon="4.37279">
        <ele>518</ele>
        <time>2022-06-26T10:42:34Z</time>
      </trkpt>
      <trkpt lat="45.8881" lon="4.37282">
        <ele>518.4</ele>
        <time>2022-06-26T10:42:35Z</time>
      </trkpt>
      <trkpt lat="45.88809" lon="4.37286">
        <ele>518.6</ele>
        <time>2022-06-26T10:42:36Z</time>
      </trkpt>
      <trkpt lat="45.88808" lon="4.37289">
        <ele>518.6</ele>
        <time>2022-06-26T10:42:37Z</time>
      </trkpt>
      <trkpt lat="45.88807" lon="4.37292">
        <ele>519</ele>
        <time>2022-06-26T10:42:38Z</time>
      </trkpt>
      <trkpt lat="45.88806" lon="4.37295">
        <ele>519</ele>
        <time>2022-06-26T10:42:39Z</time>
      </trkpt>
      <trkpt lat="45.88805" lon="4.37299">
        <ele>519.2</ele>
        <time>2022-06-26T10:42:40Z</time>
      </trkpt>
      <trkpt lat="45.88804" lon="4.37302">
        <ele>519.2</ele>
        <time>2022-06-26T10:42:41Z</time>
      </trkpt>
      <trkpt lat="45.88802" lon="4.37305">
        <ele>519.6</ele>
        <time>2022-06-26T10:42:42Z</time>
      </trkpt>
      <trkpt lat="45.88801" lon="4.37308">
        <ele>519.6</ele>
        <time>2022-06-26T10:42:43Z</time>
      </trkpt>
      <trkpt lat="45.888" lon="4.3731">
        <ele>520</ele>
        <time>2022-06-26T10:42:44Z</time>
      </trkpt>
      <trkpt lat="45.88799" lon="4.37313">
        <ele>520</ele>
        <time>2022-06-26T10:42:45Z</time>
      </trkpt>
      <trkpt lat="45.88797" lon="4.37314">
        <ele>520.4</ele>
        <time>2022-06-26T10:42:46Z</time>
      </trkpt>
      <trkpt lat="45.88795" lon="4.37316">
        <ele>520.4</ele>
        <time>2022-06-26T10:42:47Z</time>
      </trkpt>
      <trkpt lat="45.88792" lon="4.37317">
        <ele>520.6</ele>
        <time>2022-06-26T10:42:48Z</time>
      </trkpt>
      <trkpt lat="45.88789" lon="4.37317">
        <ele>520.6</ele>
        <time>2022-06-26T10:42:49Z</time>
      </trkpt>
      <trkpt lat="45.88787" lon="4.37315">
        <ele>520.8</ele>
        <time>2022-06-26T10:42:50Z</time>
      </trkpt>
      <trkpt lat="45.88784" lon="4.37314">
        <ele>520.8</ele>
        <time>2022-06-26T10:42:51Z</time>
      </trkpt>
      <trkpt lat="45.88782" lon="4.37311">
        <ele>521.2</ele>
        <time>2022-06-26T10:42:52Z</time>
      </trkpt>
      <trkpt lat="45.8878" lon="4.37309">
        <ele>521.4</ele>
        <time>2022-06-26T10:42:53Z</time>
      </trkpt>
      <trkpt lat="45.88779" lon="4.37307">
        <ele>521.4</ele>
        <time>2022-06-26T10:42:54Z</time>
      </trkpt>
      <trkpt lat="45.88777" lon="4.37305">
        <ele>521.6</ele>
        <time>2022-06-26T10:42:55Z</time>
      </trkpt>
      <trkpt lat="45.88776" lon="4.37302">
        <ele>521.6</ele>
        <time>2022-06-26T10:42:56Z</time>
      </trkpt>
      <trkpt lat="45.88774" lon="4.373">
        <ele>522</ele>
        <time>2022-06-26T10:42:57Z</time>
      </trkpt>
      <trkpt lat="45.88772" lon="4.37297">
        <ele>522.2</ele>
        <time>2022-06-26T10:42:58Z</time>
      </trkpt>
      <trkpt lat="45.88771" lon="4.37294">
        <ele>522.4</ele>
        <time>2022-06-26T10:42:59Z</time>
      </trkpt>
      <trkpt lat="45.88769" lon="4.37292">
        <ele>522.6</ele>
        <time>2022-06-26T10:43:00Z</time>
      </trkpt>
      <trkpt lat="45.88767" lon="4.37289">
        <ele>522.8</ele>
        <time>2022-06-26T10:43:01Z</time>
      </trkpt>
      <trkpt lat="45.88766" lon="4.37287">
        <ele>523</ele>
        <time>2022-06-26T10:43:02Z</time>
      </trkpt>
      <trkpt lat="45.88764" lon="4.37284">
        <ele>523.4</ele>
        <time>2022-06-26T10:43:03Z</time>
      </trkpt>
      <trkpt lat="45.88762" lon="4.37282">
        <ele>523.6</ele>
        <time>2022-06-26T10:43:04Z</time>
      </trkpt>
      <trkpt lat="45.8876" lon="4.37279">
        <ele>523.8</ele>
        <time>2022-06-26T10:43:05Z</time>
      </trkpt>
      <trkpt lat="45.88759" lon="4.37277">
        <ele>524</ele>
        <time>2022-06-26T10:43:06Z</time>
      </trkpt>
      <trkpt lat="45.88757" lon="4.37274">
        <ele>524.2</ele>
        <time>2022-06-26T10:43:07Z</time>
      </trkpt>
      <trkpt lat="45.88755" lon="4.37271">
        <ele>524.6</ele>
        <time>2022-06-26T10:43:08Z</time>
      </trkpt>
      <trkpt lat="45.88753" lon="4.37269">
        <ele>524.8</ele>
        <time>2022-06-26T10:43:09Z</time>
      </trkpt>
      <trkpt lat="45.88752" lon="4.37266">
        <ele>525.2</ele>
        <time>2022-06-26T10:43:10Z</time>
      </trkpt>
      <trkpt lat="45.8875" lon="4.37263">
        <ele>525.4</ele>
        <time>2022-06-26T10:43:11Z</time>
      </trkpt>
      <trkpt lat="45.88748" lon="4.3726">
        <ele>525.6</ele>
        <time>2022-06-26T10:43:12Z</time>
      </trkpt>
      <trkpt lat="45.88746" lon="4.37258">
        <ele>525.8</ele>
        <time>2022-06-26T10:43:13Z</time>
      </trkpt>
      <trkpt lat="45.88744" lon="4.37255">
        <ele>526.2</ele>
        <time>2022-06-26T10:43:14Z</time>
      </trkpt>
      <trkpt lat="45.88743" lon="4.37252">
        <ele>526.4</ele>
        <time>2022-06-26T10:43:15Z</time>
      </trkpt>
      <trkpt lat="45.88741" lon="4.37249">
        <ele>526.6</ele>
        <time>2022-06-26T10:43:16Z</time>
      </trkpt>
      <trkpt lat="45.8874" lon="4.37247">
        <ele>527</ele>
        <time>2022-06-26T10:43:17Z</time>
      </trkpt>
      <trkpt lat="45.88738" lon="4.37244">
        <ele>527.2</ele>
        <time>2022-06-26T10:43:18Z</time>
      </trkpt>
      <trkpt lat="45.88737" lon="4.37242">
        <ele>527.4</ele>
        <time>2022-06-26T10:43:19Z</time>
      </trkpt>
      <trkpt lat="45.88735" lon="4.37238">
        <ele>527.8</ele>
        <time>2022-06-26T10:43:20Z</time>
      </trkpt>
      <trkpt lat="45.88733" lon="4.37235">
        <ele>528</ele>
        <time>2022-06-26T10:43:21Z</time>
      </trkpt>
      <trkpt lat="45.88731" lon="4.37231">
        <ele>528.2</ele>
        <time>2022-06-26T10:43:22Z</time>
      </trkpt>
      <trkpt lat="45.88729" lon="4.37229">
        <ele>528.6</ele>
        <time>2022-06-26T10:43:23Z</time>
      </trkpt>
      <trkpt lat="45.88727" lon="4.37226">
        <ele>528.8</ele>
        <time>2022-06-26T10:43:24Z</time>
      </trkpt>
      <trkpt lat="45.88726" lon="4.37223">
        <ele>529</ele>
        <time>2022-06-26T10:43:25Z</time>
      </trkpt>
      <trkpt lat="45.88726" lon="4.3722">
        <ele>529.2</ele>
        <time>2022-06-26T10:43:26Z</time>
      </trkpt>
      <trkpt lat="45.88725" lon="4.37216">
        <ele>529.2</ele>
        <time>2022-06-26T10:43:27Z</time>
      </trkpt>
      <trkpt lat="45.88725" lon="4.37211">
        <ele>529.4</ele>
        <time>2022-06-26T10:43:28Z</time>
      </trkpt>
      <trkpt lat="45.88725" lon="4.37207">
        <ele>529.4</ele>
        <time>2022-06-26T10:43:29Z</time>
      </trkpt>
      <trkpt lat="45.88724" lon="4.37202">
        <ele>529.8</ele>
        <time>2022-06-26T10:43:30Z</time>
      </trkpt>
      <trkpt lat="45.88723" lon="4.37198">
        <ele>529.8</ele>
        <time>2022-06-26T10:43:31Z</time>
      </trkpt>
      <trkpt lat="45.88722" lon="4.37194">
        <ele>530.2</ele>
        <time>2022-06-26T10:43:32Z</time>
      </trkpt>
      <trkpt lat="45.88721" lon="4.3719">
        <ele>530.2</ele>
        <time>2022-06-26T10:43:33Z</time>
      </trkpt>
      <trkpt lat="45.8872" lon="4.37187">
        <ele>530.4</ele>
        <time>2022-06-26T10:43:34Z</time>
      </trkpt>
      <trkpt lat="45.88719" lon="4.37184">
        <ele>530.4</ele>
        <time>2022-06-26T10:43:35Z</time>
      </trkpt>
      <trkpt lat="45.88717" lon="4.37181">
        <ele>530.4</ele>
        <time>2022-06-26T10:43:36Z</time>
      </trkpt>
      <trkpt lat="45.88715" lon="4.37177">
        <ele>530.6</ele>
        <time>2022-06-26T10:43:37Z</time>
      </trkpt>
      <trkpt lat="45.88714" lon="4.37173">
        <ele>530.6</ele>
        <time>2022-06-26T10:43:38Z</time>
      </trkpt>
      <trkpt lat="45.88712" lon="4.37169">
        <ele>531</ele>
        <time>2022-06-26T10:43:39Z</time>
      </trkpt>
      <trkpt lat="45.8871" lon="4.37165">
        <ele>531</ele>
        <time>2022-06-26T10:43:40Z</time>
      </trkpt>
      <trkpt lat="45.88708" lon="4.37162">
        <ele>531</ele>
        <time>2022-06-26T10:43:41Z</time>
      </trkpt>
      <trkpt lat="45.88706" lon="4.37158">
        <ele>531.2</ele>
        <time>2022-06-26T10:43:42Z</time>
      </trkpt>
      <trkpt lat="45.88704" lon="4.37155">
        <ele>531.2</ele>
        <time>2022-06-26T10:43:43Z</time>
      </trkpt>
      <trkpt lat="45.88702" lon="4.37152">
        <ele>531.2</ele>
        <time>2022-06-26T10:43:44Z</time>
      </trkpt>
      <trkpt lat="45.88701" lon="4.37148">
        <ele>531.4</ele>
        <time>2022-06-26T10:43:45Z</time>
      </trkpt>
      <trkpt lat="45.887" lon="4.37145">
        <ele>531.4</ele>
        <time>2022-06-26T10:43:46Z</time>
      </trkpt>
      <trkpt lat="45.88698" lon="4.37141">
        <ele>531.4</ele>
        <time>2022-06-26T10:43:47Z</time>
      </trkpt>
      <trkpt lat="45.88697" lon="4.37138">
        <ele>531.8</ele>
        <time>2022-06-26T10:43:48Z</time>
      </trkpt>
      <trkpt lat="45.88695" lon="4.37136">
        <ele>531.8</ele>
        <time>2022-06-26T10:43:49Z</time>
      </trkpt>
      <trkpt lat="45.88693" lon="4.37134">
        <ele>532</ele>
        <time>2022-06-26T10:43:50Z</time>
      </trkpt>
      <trkpt lat="45.88692" lon="4.37132">
        <ele>532</ele>
        <time>2022-06-26T10:43:51Z</time>
      </trkpt>
      <trkpt lat="45.8869" lon="4.3713">
        <ele>532.2</ele>
        <time>2022-06-26T10:43:52Z</time>
      </trkpt>
      <trkpt lat="45.88689" lon="4.37127">
        <ele>532.2</ele>
        <time>2022-06-26T10:43:53Z</time>
      </trkpt>
      <trkpt lat="45.88687" lon="4.37125">
        <ele>532.2</ele>
        <time>2022-06-26T10:43:54Z</time>
      </trkpt>
      <trkpt lat="45.88685" lon="4.37123">
        <ele>532.6</ele>
        <time>2022-06-26T10:43:55Z</time>
      </trkpt>
      <trkpt lat="45.88682" lon="4.37121">
        <ele>532.6</ele>
        <time>2022-06-26T10:43:56Z</time>
      </trkpt>
      <trkpt lat="45.8868" lon="4.37118">
        <ele>532.8</ele>
        <time>2022-06-26T10:43:57Z</time>
      </trkpt>
      <trkpt lat="45.88679" lon="4.37116">
        <ele>532.8</ele>
        <time>2022-06-26T10:43:58Z</time>
      </trkpt>
      <trkpt lat="45.88677" lon="4.37114">
        <ele>533</ele>
        <time>2022-06-26T10:43:59Z</time>
      </trkpt>
      <trkpt lat="45.88675" lon="4.37111">
        <ele>533</ele>
        <time>2022-06-26T10:44:00Z</time>
      </trkpt>
      <trkpt lat="45.88673" lon="4.37108">
        <ele>533</ele>
        <time>2022-06-26T10:44:01Z</time>
      </trkpt>
      <trkpt lat="45.88671" lon="4.37105">
        <ele>533.4</ele>
        <time>2022-06-26T10:44:02Z</time>
      </trkpt>
      <trkpt lat="45.88669" lon="4.37102">
        <ele>533.4</ele>
        <time>2022-06-26T10:44:03Z</time>
      </trkpt>
      <trkpt lat="45.88667" lon="4.371">
        <ele>533.8</ele>
        <time>2022-06-26T10:44:04Z</time>
      </trkpt>
      <trkpt lat="45.88665" lon="4.37098">
        <ele>533.8</ele>
        <time>2022-06-26T10:44:05Z</time>
      </trkpt>
      <trkpt lat="45.88663" lon="4.37096">
        <ele>534</ele>
        <time>2022-06-26T10:44:06Z</time>
      </trkpt>
      <trkpt lat="45.88661" lon="4.37093">
        <ele>534.2</ele>
        <time>2022-06-26T10:44:07Z</time>
      </trkpt>
      <trkpt lat="45.88659" lon="4.37091">
        <ele>534.2</ele>
        <time>2022-06-26T10:44:08Z</time>
      </trkpt>
      <trkpt lat="45.88657" lon="4.37088">
        <ele>534.6</ele>
        <time>2022-06-26T10:44:09Z</time>
      </trkpt>
      <trkpt lat="45.88655" lon="4.37086">
        <ele>534.6</ele>
        <time>2022-06-26T10:44:10Z</time>
      </trkpt>
      <trkpt lat="45.88653" lon="4.37083">
        <ele>535</ele>
        <time>2022-06-26T10:44:11Z</time>
      </trkpt>
      <trkpt lat="45.88651" lon="4.37081">
        <ele>535.2</ele>
        <time>2022-06-26T10:44:12Z</time>
      </trkpt>
      <trkpt lat="45.88649" lon="4.37078">
        <ele>535.4</ele>
        <time>2022-06-26T10:44:13Z</time>
      </trkpt>
      <trkpt lat="45.88647" lon="4.37076">
        <ele>535.8</ele>
        <time>2022-06-26T10:44:14Z</time>
      </trkpt>
      <trkpt lat="45.88645" lon="4.37073">
        <ele>536</ele>
        <time>2022-06-26T10:44:15Z</time>
      </trkpt>
      <trkpt lat="45.88643" lon="4.37071">
        <ele>536.2</ele>
        <time>2022-06-26T10:44:16Z</time>
      </trkpt>
      <trkpt lat="45.8864" lon="4.3707">
        <ele>536.6</ele>
        <time>2022-06-26T10:44:17Z</time>
      </trkpt>
      <trkpt lat="45.88638" lon="4.37069">
        <ele>537</ele>
        <time>2022-06-26T10:44:18Z</time>
      </trkpt>
      <trkpt lat="45.88635" lon="4.37068">
        <ele>537.2</ele>
        <time>2022-06-26T10:44:19Z</time>
      </trkpt>
      <trkpt lat="45.88632" lon="4.37068">
        <ele>537.6</ele>
        <time>2022-06-26T10:44:20Z</time>
      </trkpt>
      <trkpt lat="45.8863" lon="4.37069">
        <ele>537.8</ele>
        <time>2022-06-26T10:44:21Z</time>
      </trkpt>
      <trkpt lat="45.88628" lon="4.37069">
        <ele>538</ele>
        <time>2022-06-26T10:44:22Z</time>
      </trkpt>
      <trkpt lat="45.88626" lon="4.3707">
        <ele>538.2</ele>
        <time>2022-06-26T10:44:23Z</time>
      </trkpt>
      <trkpt lat="45.88624" lon="4.3707">
        <ele>538.6</ele>
        <time>2022-06-26T10:44:24Z</time>
      </trkpt>
      <trkpt lat="45.88622" lon="4.3707">
        <ele>538.8</ele>
        <time>2022-06-26T10:44:25Z</time>
      </trkpt>
      <trkpt lat="45.8862" lon="4.37071">
        <ele>539</ele>
        <time>2022-06-26T10:44:26Z</time>
      </trkpt>
      <trkpt lat="45.88619" lon="4.37071">
        <ele>539.4</ele>
        <time>2022-06-26T10:44:27Z</time>
      </trkpt>
      <trkpt lat="45.88618" lon="4.37072">
        <ele>539.6</ele>
        <time>2022-06-26T10:44:28Z</time>
      </trkpt>
      <trkpt lat="45.88616" lon="4.37073">
        <ele>539.8</ele>
        <time>2022-06-26T10:44:29Z</time>
      </trkpt>
      <trkpt lat="45.88615" lon="4.37075">
        <ele>539.8</ele>
        <time>2022-06-26T10:44:30Z</time>
      </trkpt>
      <trkpt lat="45.88614" lon="4.37076">
        <ele>540.2</ele>
        <time>2022-06-26T10:44:31Z</time>
      </trkpt>
      <trkpt lat="45.88613" lon="4.37078">
        <ele>540.2</ele>
        <time>2022-06-26T10:44:32Z</time>
      </trkpt>
      <trkpt lat="45.88612" lon="4.37079">
        <ele>540.6</ele>
        <time>2022-06-26T10:44:33Z</time>
      </trkpt>
      <trkpt lat="45.88611" lon="4.37081">
        <ele>540.6</ele>
        <time>2022-06-26T10:44:34Z</time>
      </trkpt>
      <trkpt lat="45.88609" lon="4.37082">
        <ele>541</ele>
        <time>2022-06-26T10:44:35Z</time>
      </trkpt>
      <trkpt lat="45.88608" lon="4.37083">
        <ele>541</ele>
        <time>2022-06-26T10:44:36Z</time>
      </trkpt>
      <trkpt lat="45.88608" lon="4.37085">
        <ele>541.4</ele>
        <time>2022-06-26T10:44:37Z</time>
      </trkpt>
      <trkpt lat="45.88607" lon="4.37086">
        <ele>541.6</ele>
        <time>2022-06-26T10:44:38Z</time>
      </trkpt>
      <trkpt lat="45.88605" lon="4.37088">
        <ele>541.6</ele>
        <time>2022-06-26T10:44:39Z</time>
      </trkpt>
      <trkpt lat="45.88604" lon="4.37089">
        <ele>542</ele>
        <time>2022-06-26T10:44:40Z</time>
      </trkpt>
      <trkpt lat="45.88604" lon="4.3709">
        <ele>542</ele>
        <time>2022-06-26T10:44:41Z</time>
      </trkpt>
      <trkpt lat="45.88603" lon="4.37092">
        <ele>542.4</ele>
        <time>2022-06-26T10:44:42Z</time>
      </trkpt>
      <trkpt lat="45.88602" lon="4.37094">
        <ele>542.6</ele>
        <time>2022-06-26T10:44:43Z</time>
      </trkpt>
      <trkpt lat="45.88601" lon="4.37096">
        <ele>542.6</ele>
        <time>2022-06-26T10:44:44Z</time>
      </trkpt>
      <trkpt lat="45.886" lon="4.37098">
        <ele>543</ele>
        <time>2022-06-26T10:44:45Z</time>
      </trkpt>
      <trkpt lat="45.88599" lon="4.37101">
        <ele>543.2</ele>
        <time>2022-06-26T10:44:46Z</time>
      </trkpt>
      <trkpt lat="45.88598" lon="4.37103">
        <ele>543.4</ele>
        <time>2022-06-26T10:44:47Z</time>
      </trkpt>
      <trkpt lat="45.88597" lon="4.37105">
        <ele>543.4</ele>
        <time>2022-06-26T10:44:48Z</time>
      </trkpt>
      <trkpt lat="45.88596" lon="4.37107">
        <ele>543.6</ele>
        <time>2022-06-26T10:44:49Z</time>
      </trkpt>
      <trkpt lat="45.88595" lon="4.37108">
        <ele>543.6</ele>
        <time>2022-06-26T10:44:50Z</time>
      </trkpt>
      <trkpt lat="45.88594" lon="4.3711">
        <ele>544</ele>
        <time>2022-06-26T10:44:51Z</time>
      </trkpt>
      <trkpt lat="45.88593" lon="4.37112">
        <ele>544</ele>
        <time>2022-06-26T10:44:52Z</time>
      </trkpt>
      <trkpt lat="45.88592" lon="4.37114">
        <ele>544.4</ele>
        <time>2022-06-26T10:44:53Z</time>
      </trkpt>
      <trkpt lat="45.88591" lon="4.37115">
        <ele>544.6</ele>
        <time>2022-06-26T10:44:54Z</time>
      </trkpt>
      <trkpt lat="45.8859" lon="4.37117">
        <ele>544.6</ele>
        <time>2022-06-26T10:44:55Z</time>
      </trkpt>
      <trkpt lat="45.88588" lon="4.37118">
        <ele>545</ele>
        <time>2022-06-26T10:44:56Z</time>
      </trkpt>
      <trkpt lat="45.88586" lon="4.37119">
        <ele>545.4</ele>
        <time>2022-06-26T10:44:57Z</time>
      </trkpt>
      <trkpt lat="45.88584" lon="4.3712">
        <ele>545.6</ele>
        <time>2022-06-26T10:44:58Z</time>
      </trkpt>
      <trkpt lat="45.88583" lon="4.37121">
        <ele>545.6</ele>
        <time>2022-06-26T10:44:59Z</time>
      </trkpt>
      <trkpt lat="45.88581" lon="4.37122">
        <ele>545.8</ele>
        <time>2022-06-26T10:45:00Z</time>
      </trkpt>
      <trkpt lat="45.88579" lon="4.37124">
        <ele>545.8</ele>
        <time>2022-06-26T10:45:01Z</time>
      </trkpt>
      <trkpt lat="45.88577" lon="4.37125">
        <ele>546</ele>
        <time>2022-06-26T10:45:02Z</time>
      </trkpt>
      <trkpt lat="45.88574" lon="4.37126">
        <ele>546</ele>
        <time>2022-06-26T10:45:03Z</time>
      </trkpt>
      <trkpt lat="45.88572" lon="4.37127">
        <ele>546.4</ele>
        <time>2022-06-26T10:45:04Z</time>
      </trkpt>
      <trkpt lat="45.88569" lon="4.37129">
        <ele>546.4</ele>
        <time>2022-06-26T10:45:05Z</time>
      </trkpt>
      <trkpt lat="45.88567" lon="4.3713">
        <ele>546.6</ele>
        <time>2022-06-26T10:45:06Z</time>
      </trkpt>
      <trkpt lat="45.88564" lon="4.37131">
        <ele>546.6</ele>
        <time>2022-06-26T10:45:07Z</time>
      </trkpt>
      <trkpt lat="45.88562" lon="4.37133">
        <ele>547</ele>
        <time>2022-06-26T10:45:08Z</time>
      </trkpt>
      <trkpt lat="45.88559" lon="4.37135">
        <ele>547</ele>
        <time>2022-06-26T10:45:09Z</time>
      </trkpt>
      <trkpt lat="45.88557" lon="4.37136">
        <ele>547.2</ele>
        <time>2022-06-26T10:45:10Z</time>
      </trkpt>
      <trkpt lat="45.88555" lon="4.37137">
        <ele>547.2</ele>
        <time>2022-06-26T10:45:11Z</time>
      </trkpt>
      <trkpt lat="45.88553" lon="4.37139">
        <ele>547.4</ele>
        <time>2022-06-26T10:45:12Z</time>
      </trkpt>
      <trkpt lat="45.88551" lon="4.3714">
        <ele>547.6</ele>
        <time>2022-06-26T10:45:13Z</time>
      </trkpt>
      <trkpt lat="45.88549" lon="4.37142">
        <ele>547.6</ele>
        <time>2022-06-26T10:45:14Z</time>
      </trkpt>
      <trkpt lat="45.88547" lon="4.37144">
        <ele>548</ele>
        <time>2022-06-26T10:45:15Z</time>
      </trkpt>
      <trkpt lat="45.88545" lon="4.37146">
        <ele>548.2</ele>
        <time>2022-06-26T10:45:16Z</time>
      </trkpt>
      <trkpt lat="45.88543" lon="4.37148">
        <ele>548.6</ele>
        <time>2022-06-26T10:45:17Z</time>
      </trkpt>
      <trkpt lat="45.88541" lon="4.3715">
        <ele>548.8</ele>
        <time>2022-06-26T10:45:18Z</time>
      </trkpt>
      <trkpt lat="45.88539" lon="4.37152">
        <ele>548.8</ele>
        <time>2022-06-26T10:45:19Z</time>
      </trkpt>
      <trkpt lat="45.88537" lon="4.37154">
        <ele>549.2</ele>
        <time>2022-06-26T10:45:20Z</time>
      </trkpt>
      <trkpt lat="45.88535" lon="4.37156">
        <ele>549.2</ele>
        <time>2022-06-26T10:45:21Z</time>
      </trkpt>
      <trkpt lat="45.88533" lon="4.37158">
        <ele>549.4</ele>
        <time>2022-06-26T10:45:22Z</time>
      </trkpt>
      <trkpt lat="45.88531" lon="4.3716">
        <ele>549.4</ele>
        <time>2022-06-26T10:45:23Z</time>
      </trkpt>
      <trkpt lat="45.8853" lon="4.37162">
        <ele>549.8</ele>
        <time>2022-06-26T10:45:24Z</time>
      </trkpt>
      <trkpt lat="45.88528" lon="4.37164">
        <ele>549.8</ele>
        <time>2022-06-26T10:45:25Z</time>
      </trkpt>
      <trkpt lat="45.88527" lon="4.37166">
        <ele>550.2</ele>
        <time>2022-06-26T10:45:26Z</time>
      </trkpt>
      <trkpt lat="45.88525" lon="4.37168">
        <ele>550.2</ele>
        <time>2022-06-26T10:45:27Z</time>
      </trkpt>
      <trkpt lat="45.88524" lon="4.3717">
        <ele>550.4</ele>
        <time>2022-06-26T10:45:28Z</time>
      </trkpt>
      <trkpt lat="45.88522" lon="4.37172">
        <ele>550.4</ele>
        <time>2022-06-26T10:45:29Z</time>
      </trkpt>
      <trkpt lat="45.88521" lon="4.37174">
        <ele>550.8</ele>
        <time>2022-06-26T10:45:30Z</time>
      </trkpt>
      <trkpt lat="45.88519" lon="4.37176">
        <ele>551.2</ele>
        <time>2022-06-26T10:45:31Z</time>
      </trkpt>
      <trkpt lat="45.88518" lon="4.37179">
        <ele>551.2</ele>
        <time>2022-06-26T10:45:32Z</time>
      </trkpt>
      <trkpt lat="45.88517" lon="4.37181">
        <ele>551.4</ele>
        <time>2022-06-26T10:45:33Z</time>
      </trkpt>
      <trkpt lat="45.88516" lon="4.37183">
        <ele>551.4</ele>
        <time>2022-06-26T10:45:34Z</time>
      </trkpt>
      <trkpt lat="45.88514" lon="4.37185">
        <ele>551.8</ele>
        <time>2022-06-26T10:45:35Z</time>
      </trkpt>
      <trkpt lat="45.88512" lon="4.37187">
        <ele>552</ele>
        <time>2022-06-26T10:45:36Z</time>
      </trkpt>
      <trkpt lat="45.88511" lon="4.37188">
        <ele>552</ele>
        <time>2022-06-26T10:45:37Z</time>
      </trkpt>
      <trkpt lat="45.88509" lon="4.3719">
        <ele>552.2</ele>
        <time>2022-06-26T10:45:38Z</time>
      </trkpt>
      <trkpt lat="45.88508" lon="4.37192">
        <ele>552.2</ele>
        <time>2022-06-26T10:45:39Z</time>
      </trkpt>
      <trkpt lat="45.88506" lon="4.37194">
        <ele>552.6</ele>
        <time>2022-06-26T10:45:40Z</time>
      </trkpt>
      <trkpt lat="45.88505" lon="4.37196">
        <ele>552.6</ele>
        <time>2022-06-26T10:45:41Z</time>
      </trkpt>
      <trkpt lat="45.88503" lon="4.37198">
        <ele>553</ele>
        <time>2022-06-26T10:45:42Z</time>
      </trkpt>
      <trkpt lat="45.88502" lon="4.372">
        <ele>553.2</ele>
        <time>2022-06-26T10:45:43Z</time>
      </trkpt>
      <trkpt lat="45.885" lon="4.37202">
        <ele>553.2</ele>
        <time>2022-06-26T10:45:44Z</time>
      </trkpt>
      <trkpt lat="45.88499" lon="4.37204">
        <ele>553.6</ele>
        <time>2022-06-26T10:45:45Z</time>
      </trkpt>
      <trkpt lat="45.88497" lon="4.37206">
        <ele>553.6</ele>
        <time>2022-06-26T10:45:46Z</time>
      </trkpt>
      <trkpt lat="45.88496" lon="4.37208">
        <ele>553.8</ele>
        <time>2022-06-26T10:45:47Z</time>
      </trkpt>
      <trkpt lat="45.88494" lon="4.37209">
        <ele>553.8</ele>
        <time>2022-06-26T10:45:48Z</time>
      </trkpt>
      <trkpt lat="45.88492" lon="4.37211">
        <ele>554.2</ele>
        <time>2022-06-26T10:45:49Z</time>
      </trkpt>
      <trkpt lat="45.8849" lon="4.37213">
        <ele>554.2</ele>
        <time>2022-06-26T10:45:50Z</time>
      </trkpt>
      <trkpt lat="45.88488" lon="4.37214">
        <ele>554.4</ele>
        <time>2022-06-26T10:45:51Z</time>
      </trkpt>
      <trkpt lat="45.88486" lon="4.37215">
        <ele>554.4</ele>
        <time>2022-06-26T10:45:52Z</time>
      </trkpt>
      <trkpt lat="45.88483" lon="4.37216">
        <ele>554.8</ele>
        <time>2022-06-26T10:45:53Z</time>
      </trkpt>
      <trkpt lat="45.88481" lon="4.37218">
        <ele>554.8</ele>
        <time>2022-06-26T10:45:54Z</time>
      </trkpt>
      <trkpt lat="45.88479" lon="4.37219">
        <ele>555.2</ele>
        <time>2022-06-26T10:45:55Z</time>
      </trkpt>
      <trkpt lat="45.88477" lon="4.3722">
        <ele>555.2</ele>
        <time>2022-06-26T10:45:56Z</time>
      </trkpt>
      <trkpt lat="45.88475" lon="4.37221">
        <ele>555.4</ele>
        <time>2022-06-26T10:45:57Z</time>
      </trkpt>
      <trkpt lat="45.88473" lon="4.37222">
        <ele>555.4</ele>
        <time>2022-06-26T10:45:58Z</time>
      </trkpt>
      <trkpt lat="45.88471" lon="4.37222">
        <ele>555.8</ele>
        <time>2022-06-26T10:45:59Z</time>
      </trkpt>
      <trkpt lat="45.88469" lon="4.37223">
        <ele>555.8</ele>
        <time>2022-06-26T10:46:00Z</time>
      </trkpt>
      <trkpt lat="45.88467" lon="4.37223">
        <ele>556.2</ele>
        <time>2022-06-26T10:46:01Z</time>
      </trkpt>
      <trkpt lat="45.88465" lon="4.37224">
        <ele>556.2</ele>
        <time>2022-06-26T10:46:02Z</time>
      </trkpt>
      <trkpt lat="45.88463" lon="4.37225">
        <ele>556.4</ele>
        <time>2022-06-26T10:46:03Z</time>
      </trkpt>
      <trkpt lat="45.88461" lon="4.37226">
        <ele>556.4</ele>
        <time>2022-06-26T10:46:04Z</time>
      </trkpt>
      <trkpt lat="45.88459" lon="4.37228">
        <ele>556.8</ele>
        <time>2022-06-26T10:46:05Z</time>
      </trkpt>
      <trkpt lat="45.88457" lon="4.37229">
        <ele>556.8</ele>
        <time>2022-06-26T10:46:06Z</time>
      </trkpt>
      <trkpt lat="45.88455" lon="4.3723">
        <ele>557.2</ele>
        <time>2022-06-26T10:46:07Z</time>
      </trkpt>
      <trkpt lat="45.88453" lon="4.37232">
        <ele>557.2</ele>
        <time>2022-06-26T10:46:08Z</time>
      </trkpt>
      <trkpt lat="45.88452" lon="4.37234">
        <ele>557.4</ele>
        <time>2022-06-26T10:46:09Z</time>
      </trkpt>
      <trkpt lat="45.8845" lon="4.37236">
        <ele>557.4</ele>
        <time>2022-06-26T10:46:10Z</time>
      </trkpt>
      <trkpt lat="45.88449" lon="4.37239">
        <ele>557.8</ele>
        <time>2022-06-26T10:46:11Z</time>
      </trkpt>
      <trkpt lat="45.88447" lon="4.37241">
        <ele>558</ele>
        <time>2022-06-26T10:46:12Z</time>
      </trkpt>
      <trkpt lat="45.88446" lon="4.37243">
        <ele>558.2</ele>
        <time>2022-06-26T10:46:13Z</time>
      </trkpt>
      <trkpt lat="45.88445" lon="4.37246">
        <ele>558.2</ele>
        <time>2022-06-26T10:46:14Z</time>
      </trkpt>
      <trkpt lat="45.88444" lon="4.37249">
        <ele>558.6</ele>
        <time>2022-06-26T10:46:15Z</time>
      </trkpt>
      <trkpt lat="45.88442" lon="4.37252">
        <ele>558.6</ele>
        <time>2022-06-26T10:46:16Z</time>
      </trkpt>
      <trkpt lat="45.88441" lon="4.37254">
        <ele>559</ele>
        <time>2022-06-26T10:46:17Z</time>
      </trkpt>
      <trkpt lat="45.8844" lon="4.37258">
        <ele>559</ele>
        <time>2022-06-26T10:46:18Z</time>
      </trkpt>
      <trkpt lat="45.8844" lon="4.37261">
        <ele>559.2</ele>
        <time>2022-06-26T10:46:19Z</time>
      </trkpt>
      <trkpt lat="45.8844" lon="4.37264">
        <ele>559.4</ele>
        <time>2022-06-26T10:46:20Z</time>
      </trkpt>
      <trkpt lat="45.8844" lon="4.37268">
        <ele>559.4</ele>
        <time>2022-06-26T10:46:21Z</time>
      </trkpt>
      <trkpt lat="45.88439" lon="4.37272">
        <ele>559.8</ele>
        <time>2022-06-26T10:46:22Z</time>
      </trkpt>
      <trkpt lat="45.88439" lon="4.37275">
        <ele>559.8</ele>
        <time>2022-06-26T10:46:23Z</time>
      </trkpt>
      <trkpt lat="45.88439" lon="4.37279">
        <ele>560.2</ele>
        <time>2022-06-26T10:46:24Z</time>
      </trkpt>
      <trkpt lat="45.88439" lon="4.37282">
        <ele>560.4</ele>
        <time>2022-06-26T10:46:25Z</time>
      </trkpt>
      <trkpt lat="45.88439" lon="4.37286">
        <ele>560.4</ele>
        <time>2022-06-26T10:46:26Z</time>
      </trkpt>
      <trkpt lat="45.8844" lon="4.3729">
        <ele>560.8</ele>
        <time>2022-06-26T10:46:27Z</time>
      </trkpt>
      <trkpt lat="45.8844" lon="4.37293">
        <ele>561</ele>
        <time>2022-06-26T10:46:28Z</time>
      </trkpt>
      <trkpt lat="45.8844" lon="4.37297">
        <ele>561.2</ele>
        <time>2022-06-26T10:46:29Z</time>
      </trkpt>
      <trkpt lat="45.8844" lon="4.373">
        <ele>561.4</ele>
        <time>2022-06-26T10:46:30Z</time>
      </trkpt>
      <trkpt lat="45.8844" lon="4.37303">
        <ele>561.4</ele>
        <time>2022-06-26T10:46:31Z</time>
      </trkpt>
      <trkpt lat="45.8844" lon="4.37306">
        <ele>561.8</ele>
        <time>2022-06-26T10:46:32Z</time>
      </trkpt>
      <trkpt lat="45.8844" lon="4.3731">
        <ele>561.8</ele>
        <time>2022-06-26T10:46:33Z</time>
      </trkpt>
      <trkpt lat="45.88441" lon="4.37313">
        <ele>562.2</ele>
        <time>2022-06-26T10:46:34Z</time>
      </trkpt>
      <trkpt lat="45.88441" lon="4.37316">
        <ele>562.2</ele>
        <time>2022-06-26T10:46:35Z</time>
      </trkpt>
      <trkpt lat="45.88441" lon="4.37319">
        <ele>562.4</ele>
        <time>2022-06-26T10:46:36Z</time>
      </trkpt>
      <trkpt lat="45.88442" lon="4.37322">
        <ele>562.4</ele>
        <time>2022-06-26T10:46:37Z</time>
      </trkpt>
      <trkpt lat="45.88442" lon="4.37325">
        <ele>562.8</ele>
        <time>2022-06-26T10:46:38Z</time>
      </trkpt>
      <trkpt lat="45.88442" lon="4.37328">
        <ele>563</ele>
        <time>2022-06-26T10:46:39Z</time>
      </trkpt>
      <trkpt lat="45.88442" lon="4.37331">
        <ele>563</ele>
        <time>2022-06-26T10:46:40Z</time>
      </trkpt>
      <trkpt lat="45.88443" lon="4.37334">
        <ele>563.4</ele>
        <time>2022-06-26T10:46:41Z</time>
      </trkpt>
      <trkpt lat="45.88443" lon="4.37337">
        <ele>563.4</ele>
        <time>2022-06-26T10:46:42Z</time>
      </trkpt>
      <trkpt lat="45.88443" lon="4.3734">
        <ele>563.6</ele>
        <time>2022-06-26T10:46:43Z</time>
      </trkpt>
      <trkpt lat="45.88444" lon="4.37342">
        <ele>563.6</ele>
        <time>2022-06-26T10:46:44Z</time>
      </trkpt>
      <trkpt lat="45.88444" lon="4.37345">
        <ele>564</ele>
        <time>2022-06-26T10:46:45Z</time>
      </trkpt>
      <trkpt lat="45.88445" lon="4.37348">
        <ele>564</ele>
        <time>2022-06-26T10:46:46Z</time>
      </trkpt>
      <trkpt lat="45.88446" lon="4.37351">
        <ele>564.4</ele>
        <time>2022-06-26T10:46:47Z</time>
      </trkpt>
      <trkpt lat="45.88446" lon="4.37354">
        <ele>564.4</ele>
        <time>2022-06-26T10:46:48Z</time>
      </trkpt>
      <trkpt lat="45.88447" lon="4.37356">
        <ele>564.6</ele>
        <time>2022-06-26T10:46:49Z</time>
      </trkpt>
      <trkpt lat="45.88447" lon="4.37359">
        <ele>564.6</ele>
        <time>2022-06-26T10:46:50Z</time>
      </trkpt>
      <trkpt lat="45.88448" lon="4.37362">
        <ele>564.8</ele>
        <time>2022-06-26T10:46:51Z</time>
      </trkpt>
      <trkpt lat="45.88448" lon="4.37365">
        <ele>564.8</ele>
        <time>2022-06-26T10:46:52Z</time>
      </trkpt>
      <trkpt lat="45.88448" lon="4.37368">
        <ele>565.2</ele>
        <time>2022-06-26T10:46:53Z</time>
      </trkpt>
      <trkpt lat="45.88448" lon="4.3737">
        <ele>565.2</ele>
        <time>2022-06-26T10:46:54Z</time>
      </trkpt>
      <trkpt lat="45.88448" lon="4.37373">
        <ele>565.6</ele>
        <time>2022-06-26T10:46:55Z</time>
      </trkpt>
      <trkpt lat="45.88448" lon="4.37376">
        <ele>565.6</ele>
        <time>2022-06-26T10:46:56Z</time>
      </trkpt>
      <trkpt lat="45.88448" lon="4.37379">
        <ele>565.8</ele>
        <time>2022-06-26T10:46:57Z</time>
      </trkpt>
      <trkpt lat="45.88448" lon="4.37381">
        <ele>565.8</ele>
        <time>2022-06-26T10:46:58Z</time>
      </trkpt>
      <trkpt lat="45.88448" lon="4.37384">
        <ele>566.2</ele>
        <time>2022-06-26T10:46:59Z</time>
      </trkpt>
      <trkpt lat="45.88448" lon="4.37386">
        <ele>566.4</ele>
        <time>2022-06-26T10:47:00Z</time>
      </trkpt>
      <trkpt lat="45.88448" lon="4.37389">
        <ele>566.4</ele>
        <time>2022-06-26T10:47:01Z</time>
      </trkpt>
      <trkpt lat="45.88449" lon="4.37392">
        <ele>566.8</ele>
        <time>2022-06-26T10:47:02Z</time>
      </trkpt>
      <trkpt lat="45.88449" lon="4.37394">
        <ele>567</ele>
        <time>2022-06-26T10:47:03Z</time>
      </trkpt>
      <trkpt lat="45.88449" lon="4.37397">
        <ele>567</ele>
        <time>2022-06-26T10:47:04Z</time>
      </trkpt>
      <trkpt lat="45.88449" lon="4.37399">
        <ele>567.4</ele>
        <time>2022-06-26T10:47:05Z</time>
      </trkpt>
      <trkpt lat="45.88448" lon="4.37402">
        <ele>567.6</ele>
        <time>2022-06-26T10:47:06Z</time>
      </trkpt>
      <trkpt lat="45.88448" lon="4.37404">
        <ele>567.6</ele>
        <time>2022-06-26T10:47:07Z</time>
      </trkpt>
      <trkpt lat="45.88448" lon="4.37407">
        <ele>568</ele>
        <time>2022-06-26T10:47:08Z</time>
      </trkpt>
      <trkpt lat="45.88447" lon="4.37409">
        <ele>568</ele>
        <time>2022-06-26T10:47:09Z</time>
      </trkpt>
      <trkpt lat="45.88447" lon="4.37412">
        <ele>568.2</ele>
        <time>2022-06-26T10:47:10Z</time>
      </trkpt>
      <trkpt lat="45.88446" lon="4.37414">
        <ele>568.2</ele>
        <time>2022-06-26T10:47:11Z</time>
      </trkpt>
      <trkpt lat="45.88446" lon="4.37416">
        <ele>568.6</ele>
        <time>2022-06-26T10:47:12Z</time>
      </trkpt>
      <trkpt lat="45.88445" lon="4.37418">
        <ele>568.6</ele>
        <time>2022-06-26T10:47:13Z</time>
      </trkpt>
      <trkpt lat="45.88445" lon="4.37421">
        <ele>568.8</ele>
        <time>2022-06-26T10:47:14Z</time>
      </trkpt>
      <trkpt lat="45.88445" lon="4.37423">
        <ele>568.8</ele>
        <time>2022-06-26T10:47:15Z</time>
      </trkpt>
      <trkpt lat="45.88444" lon="4.37425">
        <ele>569.2</ele>
        <time>2022-06-26T10:47:16Z</time>
      </trkpt>
      <trkpt lat="45.88443" lon="4.37427">
        <ele>569.2</ele>
        <time>2022-06-26T10:47:17Z</time>
      </trkpt>
      <trkpt lat="45.88442" lon="4.37429">
        <ele>569.4</ele>
        <time>2022-06-26T10:47:18Z</time>
      </trkpt>
      <trkpt lat="45.88441" lon="4.37431">
        <ele>569.4</ele>
        <time>2022-06-26T10:47:19Z</time>
      </trkpt>
      <trkpt lat="45.88441" lon="4.37434">
        <ele>569.6</ele>
        <time>2022-06-26T10:47:20Z</time>
      </trkpt>
      <trkpt lat="45.8844" lon="4.37436">
        <ele>569.6</ele>
        <time>2022-06-26T10:47:21Z</time>
      </trkpt>
      <trkpt lat="45.8844" lon="4.37439">
        <ele>570</ele>
        <time>2022-06-26T10:47:22Z</time>
      </trkpt>
      <trkpt lat="45.88439" lon="4.37441">
        <ele>570</ele>
        <time>2022-06-26T10:47:23Z</time>
      </trkpt>
      <trkpt lat="45.88438" lon="4.37444">
        <ele>570.2</ele>
        <time>2022-06-26T10:47:24Z</time>
      </trkpt>
      <trkpt lat="45.88437" lon="4.37446">
        <ele>570.4</ele>
        <time>2022-06-26T10:47:25Z</time>
      </trkpt>
      <trkpt lat="45.88437" lon="4.37448">
        <ele>570.4</ele>
        <time>2022-06-26T10:47:26Z</time>
      </trkpt>
      <trkpt lat="45.88436" lon="4.3745">
        <ele>570.8</ele>
        <time>2022-06-26T10:47:27Z</time>
      </trkpt>
      <trkpt lat="45.88435" lon="4.37453">
        <ele>570.8</ele>
        <time>2022-06-26T10:47:28Z</time>
      </trkpt>
      <trkpt lat="45.88434" lon="4.37455">
        <ele>571</ele>
        <time>2022-06-26T10:47:29Z</time>
      </trkpt>
      <trkpt lat="45.88433" lon="4.37457">
        <ele>571</ele>
        <time>2022-06-26T10:47:30Z</time>
      </trkpt>
      <trkpt lat="45.88432" lon="4.37459">
        <ele>571.2</ele>
        <time>2022-06-26T10:47:31Z</time>
      </trkpt>
      <trkpt lat="45.88431" lon="4.37461">
        <ele>571.2</ele>
        <time>2022-06-26T10:47:32Z</time>
      </trkpt>
      <trkpt lat="45.8843" lon="4.37463">
        <ele>571.6</ele>
        <time>2022-06-26T10:47:33Z</time>
      </trkpt>
      <trkpt lat="45.88428" lon="4.37465">
        <ele>571.6</ele>
        <time>2022-06-26T10:47:34Z</time>
      </trkpt>
      <trkpt lat="45.88427" lon="4.37466">
        <ele>571.8</ele>
        <time>2022-06-26T10:47:35Z</time>
      </trkpt>
      <trkpt lat="45.88425" lon="4.37468">
        <ele>571.8</ele>
        <time>2022-06-26T10:47:36Z</time>
      </trkpt>
      <trkpt lat="45.88423" lon="4.37469">
        <ele>572.2</ele>
        <time>2022-06-26T10:47:37Z</time>
      </trkpt>
      <trkpt lat="45.88421" lon="4.3747">
        <ele>572.2</ele>
        <time>2022-06-26T10:47:38Z</time>
      </trkpt>
      <trkpt lat="45.8842" lon="4.37471">
        <ele>572.4</ele>
        <time>2022-06-26T10:47:39Z</time>
      </trkpt>
      <trkpt lat="45.88418" lon="4.37471">
        <ele>572.4</ele>
        <time>2022-06-26T10:47:40Z</time>
      </trkpt>
      <trkpt lat="45.88416" lon="4.37472">
        <ele>572.8</ele>
        <time>2022-06-26T10:47:41Z</time>
      </trkpt>
      <trkpt lat="45.88414" lon="4.37472">
        <ele>572.8</ele>
        <time>2022-06-26T10:47:42Z</time>
      </trkpt>
      <trkpt lat="45.88412" lon="4.37471">
        <ele>573.2</ele>
        <time>2022-06-26T10:47:43Z</time>
      </trkpt>
      <trkpt lat="45.8841" lon="4.37471">
        <ele>573.2</ele>
        <time>2022-06-26T10:47:44Z</time>
      </trkpt>
      <trkpt lat="45.88408" lon="4.37471">
        <ele>573.4</ele>
        <time>2022-06-26T10:47:45Z</time>
      </trkpt>
      <trkpt lat="45.88406" lon="4.37471">
        <ele>573.4</ele>
        <time>2022-06-26T10:47:46Z</time>
      </trkpt>
      <trkpt lat="45.88405" lon="4.37471">
        <ele>573.6</ele>
        <time>2022-06-26T10:47:47Z</time>
      </trkpt>
      <trkpt lat="45.88403" lon="4.3747">
        <ele>573.6</ele>
        <time>2022-06-26T10:47:48Z</time>
      </trkpt>
      <trkpt lat="45.88401" lon="4.37469">
        <ele>574</ele>
        <time>2022-06-26T10:47:49Z</time>
      </trkpt>
      <trkpt lat="45.884" lon="4.37468">
        <ele>574</ele>
        <time>2022-06-26T10:47:50Z</time>
      </trkpt>
      <trkpt lat="45.88398" lon="4.37468">
        <ele>574.2</ele>
        <time>2022-06-26T10:47:51Z</time>
      </trkpt>
      <trkpt lat="45.88396" lon="4.37467">
        <ele>574.4</ele>
        <time>2022-06-26T10:47:52Z</time>
      </trkpt>
      <trkpt lat="45.88394" lon="4.37467">
        <ele>574.4</ele>
        <time>2022-06-26T10:47:53Z</time>
      </trkpt>
      <trkpt lat="45.88392" lon="4.37467">
        <ele>574.8</ele>
        <time>2022-06-26T10:47:54Z</time>
      </trkpt>
      <trkpt lat="45.8839" lon="4.37466">
        <ele>574.8</ele>
        <time>2022-06-26T10:47:55Z</time>
      </trkpt>
      <trkpt lat="45.88388" lon="4.37465">
        <ele>575</ele>
        <time>2022-06-26T10:47:56Z</time>
      </trkpt>
      <trkpt lat="45.88387" lon="4.37464">
        <ele>575</ele>
        <time>2022-06-26T10:47:57Z</time>
      </trkpt>
      <trkpt lat="45.88385" lon="4.37463">
        <ele>575.2</ele>
        <time>2022-06-26T10:47:58Z</time>
      </trkpt>
      <trkpt lat="45.88383" lon="4.37462">
        <ele>575.2</ele>
        <time>2022-06-26T10:47:59Z</time>
      </trkpt>
      <trkpt lat="45.88381" lon="4.37461">
        <ele>575.6</ele>
        <time>2022-06-26T10:48:00Z</time>
      </trkpt>
      <trkpt lat="45.88379" lon="4.3746">
        <ele>575.6</ele>
        <time>2022-06-26T10:48:01Z</time>
      </trkpt>
      <trkpt lat="45.88377" lon="4.3746">
        <ele>576</ele>
        <time>2022-06-26T10:48:02Z</time>
      </trkpt>
      <trkpt lat="45.88375" lon="4.37459">
        <ele>576.2</ele>
        <time>2022-06-26T10:48:03Z</time>
      </trkpt>
      <trkpt lat="45.88373" lon="4.37458">
        <ele>576.2</ele>
        <time>2022-06-26T10:48:04Z</time>
      </trkpt>
      <trkpt lat="45.88371" lon="4.37458">
        <ele>576.6</ele>
        <time>2022-06-26T10:48:05Z</time>
      </trkpt>
      <trkpt lat="45.88369" lon="4.37457">
        <ele>576.8</ele>
        <time>2022-06-26T10:48:06Z</time>
      </trkpt>
      <trkpt lat="45.88367" lon="4.37457">
        <ele>577</ele>
        <time>2022-06-26T10:48:07Z</time>
      </trkpt>
      <trkpt lat="45.88365" lon="4.37457">
        <ele>577.2</ele>
        <time>2022-06-26T10:48:08Z</time>
      </trkpt>
      <trkpt lat="45.88363" lon="4.37456">
        <ele>577.2</ele>
        <time>2022-06-26T10:48:09Z</time>
      </trkpt>
      <trkpt lat="45.88361" lon="4.37456">
        <ele>577.6</ele>
        <time>2022-06-26T10:48:10Z</time>
      </trkpt>
      <trkpt lat="45.88358" lon="4.37455">
        <ele>577.8</ele>
        <time>2022-06-26T10:48:12Z</time>
      </trkpt>
      <trkpt lat="45.88356" lon="4.37455">
        <ele>578</ele>
        <time>2022-06-26T10:48:13Z</time>
      </trkpt>
      <trkpt lat="45.88354" lon="4.37454">
        <ele>578</ele>
        <time>2022-06-26T10:48:14Z</time>
      </trkpt>
      <trkpt lat="45.88352" lon="4.37452">
        <ele>578.4</ele>
        <time>2022-06-26T10:48:15Z</time>
      </trkpt>
      <trkpt lat="45.8835" lon="4.37451">
        <ele>578.6</ele>
        <time>2022-06-26T10:48:16Z</time>
      </trkpt>
      <trkpt lat="45.88348" lon="4.37451">
        <ele>578.8</ele>
        <time>2022-06-26T10:48:17Z</time>
      </trkpt>
      <trkpt lat="45.88346" lon="4.3745">
        <ele>579.2</ele>
        <time>2022-06-26T10:48:18Z</time>
      </trkpt>
      <trkpt lat="45.88344" lon="4.3745">
        <ele>579.2</ele>
        <time>2022-06-26T10:48:19Z</time>
      </trkpt>
      <trkpt lat="45.88342" lon="4.37449">
        <ele>579.6</ele>
        <time>2022-06-26T10:48:20Z</time>
      </trkpt>
      <trkpt lat="45.8834" lon="4.37448">
        <ele>579.6</ele>
        <time>2022-06-26T10:48:21Z</time>
      </trkpt>
      <trkpt lat="45.88338" lon="4.37448">
        <ele>579.8</ele>
        <time>2022-06-26T10:48:22Z</time>
      </trkpt>
      <trkpt lat="45.88337" lon="4.37448">
        <ele>579.8</ele>
        <time>2022-06-26T10:48:23Z</time>
      </trkpt>
      <trkpt lat="45.88335" lon="4.37447">
        <ele>580.2</ele>
        <time>2022-06-26T10:48:24Z</time>
      </trkpt>
      <trkpt lat="45.88333" lon="4.37446">
        <ele>580.2</ele>
        <time>2022-06-26T10:48:25Z</time>
      </trkpt>
      <trkpt lat="45.88331" lon="4.37445">
        <ele>580.6</ele>
        <time>2022-06-26T10:48:26Z</time>
      </trkpt>
      <trkpt lat="45.88329" lon="4.37444">
        <ele>580.6</ele>
        <time>2022-06-26T10:48:27Z</time>
      </trkpt>
      <trkpt lat="45.88327" lon="4.37443">
        <ele>581</ele>
        <time>2022-06-26T10:48:28Z</time>
      </trkpt>
      <trkpt lat="45.88326" lon="4.37442">
        <ele>581</ele>
        <time>2022-06-26T10:48:29Z</time>
      </trkpt>
      <trkpt lat="45.88324" lon="4.3744">
        <ele>581.2</ele>
        <time>2022-06-26T10:48:30Z</time>
      </trkpt>
      <trkpt lat="45.88323" lon="4.37438">
        <ele>581.2</ele>
        <time>2022-06-26T10:48:31Z</time>
      </trkpt>
      <trkpt lat="45.88322" lon="4.37436">
        <ele>581.4</ele>
        <time>2022-06-26T10:48:32Z</time>
      </trkpt>
      <trkpt lat="45.88321" lon="4.37433">
        <ele>581.6</ele>
        <time>2022-06-26T10:48:33Z</time>
      </trkpt>
      <trkpt lat="45.8832" lon="4.37431">
        <ele>581.6</ele>
        <time>2022-06-26T10:48:34Z</time>
      </trkpt>
      <trkpt lat="45.88319" lon="4.37429">
        <ele>582</ele>
        <time>2022-06-26T10:48:35Z</time>
      </trkpt>
      <trkpt lat="45.88317" lon="4.37427">
        <ele>582</ele>
        <time>2022-06-26T10:48:36Z</time>
      </trkpt>
      <trkpt lat="45.88316" lon="4.37425">
        <ele>582.2</ele>
        <time>2022-06-26T10:48:37Z</time>
      </trkpt>
      <trkpt lat="45.88315" lon="4.37424">
        <ele>582.2</ele>
        <time>2022-06-26T10:48:38Z</time>
      </trkpt>
      <trkpt lat="45.88313" lon="4.37422">
        <ele>582.6</ele>
        <time>2022-06-26T10:48:39Z</time>
      </trkpt>
      <trkpt lat="45.88312" lon="4.37419">
        <ele>582.6</ele>
        <time>2022-06-26T10:48:40Z</time>
      </trkpt>
      <trkpt lat="45.88311" lon="4.37417">
        <ele>582.6</ele>
        <time>2022-06-26T10:48:41Z</time>
      </trkpt>
      <trkpt lat="45.8831" lon="4.37414">
        <ele>582.8</ele>
        <time>2022-06-26T10:48:42Z</time>
      </trkpt>
      <trkpt lat="45.88309" lon="4.37412">
        <ele>582.8</ele>
        <time>2022-06-26T10:48:43Z</time>
      </trkpt>
      <trkpt lat="45.88308" lon="4.3741">
        <ele>583.2</ele>
        <time>2022-06-26T10:48:44Z</time>
      </trkpt>
      <trkpt lat="45.88307" lon="4.37408">
        <ele>583.2</ele>
        <time>2022-06-26T10:48:45Z</time>
      </trkpt>
      <trkpt lat="45.88305" lon="4.37406">
        <ele>583.4</ele>
        <time>2022-06-26T10:48:46Z</time>
      </trkpt>
      <trkpt lat="45.88304" lon="4.37404">
        <ele>583.4</ele>
        <time>2022-06-26T10:48:47Z</time>
      </trkpt>
      <trkpt lat="45.88303" lon="4.37402">
        <ele>583.8</ele>
        <time>2022-06-26T10:48:48Z</time>
      </trkpt>
      <trkpt lat="45.88301" lon="4.37401">
        <ele>583.8</ele>
        <time>2022-06-26T10:48:49Z</time>
      </trkpt>
      <trkpt lat="45.883" lon="4.37399">
        <ele>584</ele>
        <time>2022-06-26T10:48:50Z</time>
      </trkpt>
      <trkpt lat="45.88299" lon="4.37397">
        <ele>584</ele>
        <time>2022-06-26T10:48:51Z</time>
      </trkpt>
      <trkpt lat="45.88298" lon="4.37395">
        <ele>584.4</ele>
        <time>2022-06-26T10:48:52Z</time>
      </trkpt>
      <trkpt lat="45.88297" lon="4.37393">
        <ele>584.4</ele>
        <time>2022-06-26T10:48:53Z</time>
      </trkpt>
      <trkpt lat="45.88295" lon="4.37391">
        <ele>584.8</ele>
        <time>2022-06-26T10:48:54Z</time>
      </trkpt>
      <trkpt lat="45.88294" lon="4.3739">
        <ele>584.8</ele>
        <time>2022-06-26T10:48:55Z</time>
      </trkpt>
      <trkpt lat="45.88292" lon="4.37388">
        <ele>585.2</ele>
        <time>2022-06-26T10:48:56Z</time>
      </trkpt>
      <trkpt lat="45.88291" lon="4.37387">
        <ele>585.2</ele>
        <time>2022-06-26T10:48:57Z</time>
      </trkpt>
      <trkpt lat="45.88289" lon="4.37386">
        <ele>585.6</ele>
        <time>2022-06-26T10:48:58Z</time>
      </trkpt>
      <trkpt lat="45.88287" lon="4.37386">
        <ele>585.6</ele>
        <time>2022-06-26T10:48:59Z</time>
      </trkpt>
      <trkpt lat="45.88285" lon="4.37385">
        <ele>585.8</ele>
        <time>2022-06-26T10:49:00Z</time>
      </trkpt>
      <trkpt lat="45.88283" lon="4.37384">
        <ele>585.8</ele>
        <time>2022-06-26T10:49:01Z</time>
      </trkpt>
      <trkpt lat="45.88279" lon="4.37383">
        <ele>586.2</ele>
        <time>2022-06-26T10:49:02Z</time>
      </trkpt>
      <trkpt lat="45.88277" lon="4.37382">
        <ele>586.4</ele>
        <time>2022-06-26T10:49:03Z</time>
      </trkpt>
      <trkpt lat="45.88274" lon="4.37382">
        <ele>586.6</ele>
        <time>2022-06-26T10:49:04Z</time>
      </trkpt>
      <trkpt lat="45.88272" lon="4.37382">
        <ele>586.6</ele>
        <time>2022-06-26T10:49:05Z</time>
      </trkpt>
      <trkpt lat="45.8827" lon="4.37381">
        <ele>587</ele>
        <time>2022-06-26T10:49:06Z</time>
      </trkpt>
      <trkpt lat="45.88268" lon="4.37381">
        <ele>587.2</ele>
        <time>2022-06-26T10:49:07Z</time>
      </trkpt>
      <trkpt lat="45.88266" lon="4.37382">
        <ele>587.2</ele>
        <time>2022-06-26T10:49:08Z</time>
      </trkpt>
      <trkpt lat="45.88264" lon="4.37382">
        <ele>587.4</ele>
        <time>2022-06-26T10:49:09Z</time>
      </trkpt>
      <trkpt lat="45.88262" lon="4.37383">
        <ele>587.4</ele>
        <time>2022-06-26T10:49:10Z</time>
      </trkpt>
      <trkpt lat="45.8826" lon="4.37383">
        <ele>587.8</ele>
        <time>2022-06-26T10:49:11Z</time>
      </trkpt>
      <trkpt lat="45.88258" lon="4.37384">
        <ele>587.8</ele>
        <time>2022-06-26T10:49:12Z</time>
      </trkpt>
      <trkpt lat="45.88256" lon="4.37384">
        <ele>588</ele>
        <time>2022-06-26T10:49:13Z</time>
      </trkpt>
      <trkpt lat="45.88254" lon="4.37385">
        <ele>588</ele>
        <time>2022-06-26T10:49:14Z</time>
      </trkpt>
      <trkpt lat="45.88252" lon="4.37385">
        <ele>588.4</ele>
        <time>2022-06-26T10:49:15Z</time>
      </trkpt>
      <trkpt lat="45.8825" lon="4.37386">
        <ele>588.4</ele>
        <time>2022-06-26T10:49:16Z</time>
      </trkpt>
      <trkpt lat="45.88249" lon="4.37387">
        <ele>588.8</ele>
        <time>2022-06-26T10:49:17Z</time>
      </trkpt>
      <trkpt lat="45.88247" lon="4.37388">
        <ele>588.8</ele>
        <time>2022-06-26T10:49:18Z</time>
      </trkpt>
      <trkpt lat="45.88245" lon="4.37389">
        <ele>589</ele>
        <time>2022-06-26T10:49:19Z</time>
      </trkpt>
      <trkpt lat="45.88243" lon="4.3739">
        <ele>589</ele>
        <time>2022-06-26T10:49:20Z</time>
      </trkpt>
      <trkpt lat="45.88241" lon="4.3739">
        <ele>589.4</ele>
        <time>2022-06-26T10:49:21Z</time>
      </trkpt>
      <trkpt lat="45.88239" lon="4.37392">
        <ele>589.4</ele>
        <time>2022-06-26T10:49:22Z</time>
      </trkpt>
      <trkpt lat="45.88238" lon="4.37393">
        <ele>589.6</ele>
        <time>2022-06-26T10:49:23Z</time>
      </trkpt>
      <trkpt lat="45.88236" lon="4.37394">
        <ele>589.6</ele>
        <time>2022-06-26T10:49:24Z</time>
      </trkpt>
      <trkpt lat="45.88235" lon="4.37394">
        <ele>590</ele>
        <time>2022-06-26T10:49:25Z</time>
      </trkpt>
      <trkpt lat="45.88233" lon="4.37394">
        <ele>590</ele>
        <time>2022-06-26T10:49:26Z</time>
      </trkpt>
      <trkpt lat="45.88231" lon="4.37394">
        <ele>590.2</ele>
        <time>2022-06-26T10:49:27Z</time>
      </trkpt>
      <trkpt lat="45.88229" lon="4.37394">
        <ele>590.4</ele>
        <time>2022-06-26T10:49:28Z</time>
      </trkpt>
      <trkpt lat="45.88227" lon="4.37394">
        <ele>590.4</ele>
        <time>2022-06-26T10:49:29Z</time>
      </trkpt>
      <trkpt lat="45.88225" lon="4.37394">
        <ele>590.8</ele>
        <time>2022-06-26T10:49:30Z</time>
      </trkpt>
      <trkpt lat="45.88223" lon="4.37394">
        <ele>590.8</ele>
        <time>2022-06-26T10:49:31Z</time>
      </trkpt>
      <trkpt lat="45.88221" lon="4.37393">
        <ele>591</ele>
        <time>2022-06-26T10:49:32Z</time>
      </trkpt>
      <trkpt lat="45.8822" lon="4.37393">
        <ele>591</ele>
        <time>2022-06-26T10:49:33Z</time>
      </trkpt>
      <trkpt lat="45.88218" lon="4.37392">
        <ele>591.2</ele>
        <time>2022-06-26T10:49:34Z</time>
      </trkpt>
      <trkpt lat="45.88216" lon="4.37392">
        <ele>591.2</ele>
        <time>2022-06-26T10:49:35Z</time>
      </trkpt>
      <trkpt lat="45.88214" lon="4.37391">
        <ele>591.6</ele>
        <time>2022-06-26T10:49:36Z</time>
      </trkpt>
      <trkpt lat="45.88212" lon="4.3739">
        <ele>591.6</ele>
        <time>2022-06-26T10:49:37Z</time>
      </trkpt>
      <trkpt lat="45.8821" lon="4.37389">
        <ele>591.8</ele>
        <time>2022-06-26T10:49:38Z</time>
      </trkpt>
      <trkpt lat="45.88208" lon="4.37388">
        <ele>591.8</ele>
        <time>2022-06-26T10:49:39Z</time>
      </trkpt>
      <trkpt lat="45.88207" lon="4.37388">
        <ele>592.2</ele>
        <time>2022-06-26T10:49:40Z</time>
      </trkpt>
      <trkpt lat="45.88205" lon="4.37387">
        <ele>592.2</ele>
        <time>2022-06-26T10:49:41Z</time>
      </trkpt>
      <trkpt lat="45.88204" lon="4.37386">
        <ele>592.4</ele>
        <time>2022-06-26T10:49:42Z</time>
      </trkpt>
      <trkpt lat="45.88202" lon="4.37384">
        <ele>592.4</ele>
        <time>2022-06-26T10:49:43Z</time>
      </trkpt>
      <trkpt lat="45.88201" lon="4.37383">
        <ele>592.6</ele>
        <time>2022-06-26T10:49:44Z</time>
      </trkpt>
      <trkpt lat="45.88199" lon="4.37382">
        <ele>592.6</ele>
        <time>2022-06-26T10:49:45Z</time>
      </trkpt>
      <trkpt lat="45.88197" lon="4.3738">
        <ele>593</ele>
        <time>2022-06-26T10:49:46Z</time>
      </trkpt>
      <trkpt lat="45.88196" lon="4.37379">
        <ele>593</ele>
        <time>2022-06-26T10:49:47Z</time>
      </trkpt>
      <trkpt lat="45.88194" lon="4.37377">
        <ele>593.4</ele>
        <time>2022-06-26T10:49:48Z</time>
      </trkpt>
      <trkpt lat="45.88193" lon="4.37375">
        <ele>593.4</ele>
        <time>2022-06-26T10:49:49Z</time>
      </trkpt>
      <trkpt lat="45.88192" lon="4.37373">
        <ele>593.8</ele>
        <time>2022-06-26T10:49:50Z</time>
      </trkpt>
      <trkpt lat="45.88191" lon="4.37371">
        <ele>594</ele>
        <time>2022-06-26T10:49:51Z</time>
      </trkpt>
      <trkpt lat="45.8819" lon="4.37369">
        <ele>594</ele>
        <time>2022-06-26T10:49:52Z</time>
      </trkpt>
      <trkpt lat="45.88189" lon="4.37366">
        <ele>594.2</ele>
        <time>2022-06-26T10:49:53Z</time>
      </trkpt>
      <trkpt lat="45.88187" lon="4.37364">
        <ele>594.2</ele>
        <time>2022-06-26T10:49:54Z</time>
      </trkpt>
      <trkpt lat="45.88186" lon="4.37362">
        <ele>594.6</ele>
        <time>2022-06-26T10:49:55Z</time>
      </trkpt>
      <trkpt lat="45.88185" lon="4.3736">
        <ele>594.6</ele>
        <time>2022-06-26T10:49:56Z</time>
      </trkpt>
      <trkpt lat="45.88184" lon="4.37357">
        <ele>594.8</ele>
        <time>2022-06-26T10:49:57Z</time>
      </trkpt>
      <trkpt lat="45.88183" lon="4.37355">
        <ele>594.8</ele>
        <time>2022-06-26T10:49:58Z</time>
      </trkpt>
      <trkpt lat="45.88182" lon="4.37353">
        <ele>595.2</ele>
        <time>2022-06-26T10:49:59Z</time>
      </trkpt>
      <trkpt lat="45.88182" lon="4.37351">
        <ele>595.2</ele>
        <time>2022-06-26T10:50:00Z</time>
      </trkpt>
      <trkpt lat="45.88181" lon="4.37349">
        <ele>595.6</ele>
        <time>2022-06-26T10:50:01Z</time>
      </trkpt>
      <trkpt lat="45.8818" lon="4.37347">
        <ele>595.6</ele>
        <time>2022-06-26T10:50:02Z</time>
      </trkpt>
      <trkpt lat="45.88179" lon="4.37345">
        <ele>596</ele>
        <time>2022-06-26T10:50:03Z</time>
      </trkpt>
      <trkpt lat="45.88178" lon="4.37343">
        <ele>596</ele>
        <time>2022-06-26T10:50:04Z</time>
      </trkpt>
      <trkpt lat="45.88176" lon="4.37341">
        <ele>596.4</ele>
        <time>2022-06-26T10:50:05Z</time>
      </trkpt>
      <trkpt lat="45.88175" lon="4.3734">
        <ele>596.4</ele>
        <time>2022-06-26T10:50:06Z</time>
      </trkpt>
      <trkpt lat="45.88173" lon="4.37338">
        <ele>596.6</ele>
        <time>2022-06-26T10:50:07Z</time>
      </trkpt>
      <trkpt lat="45.88172" lon="4.37336">
        <ele>596.6</ele>
        <time>2022-06-26T10:50:08Z</time>
      </trkpt>
      <trkpt lat="45.8817" lon="4.37335">
        <ele>597</ele>
        <time>2022-06-26T10:50:09Z</time>
      </trkpt>
      <trkpt lat="45.88169" lon="4.37333">
        <ele>597</ele>
        <time>2022-06-26T10:50:10Z</time>
      </trkpt>
      <trkpt lat="45.88167" lon="4.37332">
        <ele>597.4</ele>
        <time>2022-06-26T10:50:11Z</time>
      </trkpt>
      <trkpt lat="45.88166" lon="4.3733">
        <ele>597.4</ele>
        <time>2022-06-26T10:50:12Z</time>
      </trkpt>
      <trkpt lat="45.88164" lon="4.37329">
        <ele>597.6</ele>
        <time>2022-06-26T10:50:13Z</time>
      </trkpt>
      <trkpt lat="45.88163" lon="4.37328">
        <ele>597.8</ele>
        <time>2022-06-26T10:50:14Z</time>
      </trkpt>
      <trkpt lat="45.88161" lon="4.37326">
        <ele>598</ele>
        <time>2022-06-26T10:50:15Z</time>
      </trkpt>
      <trkpt lat="45.8816" lon="4.37325">
        <ele>598</ele>
        <time>2022-06-26T10:50:16Z</time>
      </trkpt>
      <trkpt lat="45.88158" lon="4.37324">
        <ele>598.2</ele>
        <time>2022-06-26T10:50:17Z</time>
      </trkpt>
      <trkpt lat="45.88157" lon="4.37323">
        <ele>598.2</ele>
        <time>2022-06-26T10:50:18Z</time>
      </trkpt>
      <trkpt lat="45.88155" lon="4.37321">
        <ele>598.6</ele>
        <time>2022-06-26T10:50:19Z</time>
      </trkpt>
      <trkpt lat="45.88154" lon="4.37319">
        <ele>598.8</ele>
        <time>2022-06-26T10:50:20Z</time>
      </trkpt>
      <trkpt lat="45.88152" lon="4.37318">
        <ele>598.8</ele>
        <time>2022-06-26T10:50:21Z</time>
      </trkpt>
      <trkpt lat="45.8815" lon="4.37316">
        <ele>599</ele>
        <time>2022-06-26T10:50:22Z</time>
      </trkpt>
      <trkpt lat="45.88148" lon="4.37315">
        <ele>599</ele>
        <time>2022-06-26T10:50:23Z</time>
      </trkpt>
      <trkpt lat="45.88146" lon="4.37313">
        <ele>599.2</ele>
        <time>2022-06-26T10:50:24Z</time>
      </trkpt>
      <trkpt lat="45.88144" lon="4.37312">
        <ele>599.2</ele>
        <time>2022-06-26T10:50:25Z</time>
      </trkpt>
      <trkpt lat="45.88141" lon="4.37311">
        <ele>599.4</ele>
        <time>2022-06-26T10:50:26Z</time>
      </trkpt>
      <trkpt lat="45.88139" lon="4.3731">
        <ele>599.4</ele>
        <time>2022-06-26T10:50:27Z</time>
      </trkpt>
      <trkpt lat="45.88137" lon="4.37309">
        <ele>599.8</ele>
        <time>2022-06-26T10:50:28Z</time>
      </trkpt>
      <trkpt lat="45.88135" lon="4.37307">
        <ele>600</ele>
        <time>2022-06-26T10:50:29Z</time>
      </trkpt>
      <trkpt lat="45.88133" lon="4.37306">
        <ele>600</ele>
        <time>2022-06-26T10:50:30Z</time>
      </trkpt>
      <trkpt lat="45.88131" lon="4.37304">
        <ele>600.4</ele>
        <time>2022-06-26T10:50:31Z</time>
      </trkpt>
      <trkpt lat="45.8813" lon="4.37303">
        <ele>600.4</ele>
        <time>2022-06-26T10:50:32Z</time>
      </trkpt>
      <trkpt lat="45.88128" lon="4.37302">
        <ele>600.6</ele>
        <time>2022-06-26T10:50:33Z</time>
      </trkpt>
      <trkpt lat="45.88126" lon="4.37301">
        <ele>600.6</ele>
        <time>2022-06-26T10:50:34Z</time>
      </trkpt>
      <trkpt lat="45.88125" lon="4.37299">
        <ele>601</ele>
        <time>2022-06-26T10:50:35Z</time>
      </trkpt>
      <trkpt lat="45.88123" lon="4.37298">
        <ele>601.2</ele>
        <time>2022-06-26T10:50:36Z</time>
      </trkpt>
      <trkpt lat="45.88122" lon="4.37296">
        <ele>601.2</ele>
        <time>2022-06-26T10:50:37Z</time>
      </trkpt>
      <trkpt lat="45.8812" lon="4.37294">
        <ele>601.4</ele>
        <time>2022-06-26T10:50:38Z</time>
      </trkpt>
      <trkpt lat="45.88119" lon="4.37292">
        <ele>601.8</ele>
        <time>2022-06-26T10:50:39Z</time>
      </trkpt>
      <trkpt lat="45.88117" lon="4.37291">
        <ele>601.8</ele>
        <time>2022-06-26T10:50:40Z</time>
      </trkpt>
      <trkpt lat="45.88116" lon="4.3729">
        <ele>602.2</ele>
        <time>2022-06-26T10:50:41Z</time>
      </trkpt>
      <trkpt lat="45.88114" lon="4.37289">
        <ele>602.2</ele>
        <time>2022-06-26T10:50:42Z</time>
      </trkpt>
      <trkpt lat="45.88112" lon="4.37288">
        <ele>602.4</ele>
        <time>2022-06-26T10:50:43Z</time>
      </trkpt>
      <trkpt lat="45.88111" lon="4.37288">
        <ele>602.4</ele>
        <time>2022-06-26T10:50:44Z</time>
      </trkpt>
      <trkpt lat="45.88109" lon="4.37287">
        <ele>602.8</ele>
        <time>2022-06-26T10:50:45Z</time>
      </trkpt>
      <trkpt lat="45.88107" lon="4.37286">
        <ele>602.8</ele>
        <time>2022-06-26T10:50:46Z</time>
      </trkpt>
      <trkpt lat="45.88106" lon="4.37285">
        <ele>603</ele>
        <time>2022-06-26T10:50:47Z</time>
      </trkpt>
      <trkpt lat="45.88104" lon="4.37284">
        <ele>603</ele>
        <time>2022-06-26T10:50:48Z</time>
      </trkpt>
      <trkpt lat="45.88103" lon="4.37283">
        <ele>603.4</ele>
        <time>2022-06-26T10:50:49Z</time>
      </trkpt>
      <trkpt lat="45.88101" lon="4.37282">
        <ele>603.4</ele>
        <time>2022-06-26T10:50:50Z</time>
      </trkpt>
      <trkpt lat="45.881" lon="4.3728">
        <ele>603.6</ele>
        <time>2022-06-26T10:50:51Z</time>
      </trkpt>
      <trkpt lat="45.88098" lon="4.37278">
        <ele>603.6</ele>
        <time>2022-06-26T10:50:52Z</time>
      </trkpt>
      <trkpt lat="45.88097" lon="4.37276">
        <ele>604</ele>
        <time>2022-06-26T10:50:53Z</time>
      </trkpt>
      <trkpt lat="45.88095" lon="4.37275">
        <ele>604</ele>
        <time>2022-06-26T10:50:54Z</time>
      </trkpt>
      <trkpt lat="45.88094" lon="4.37274">
        <ele>604.4</ele>
        <time>2022-06-26T10:50:55Z</time>
      </trkpt>
      <trkpt lat="45.88092" lon="4.37272">
        <ele>604.4</ele>
        <time>2022-06-26T10:50:56Z</time>
      </trkpt>
      <trkpt lat="45.8809" lon="4.37272">
        <ele>604.6</ele>
        <time>2022-06-26T10:50:57Z</time>
      </trkpt>
      <trkpt lat="45.88089" lon="4.37271">
        <ele>604.6</ele>
        <time>2022-06-26T10:50:58Z</time>
      </trkpt>
      <trkpt lat="45.88087" lon="4.3727">
        <ele>605</ele>
        <time>2022-06-26T10:50:59Z</time>
      </trkpt>
      <trkpt lat="45.88085" lon="4.37269">
        <ele>605</ele>
        <time>2022-06-26T10:51:00Z</time>
      </trkpt>
      <trkpt lat="45.88083" lon="4.37268">
        <ele>605.4</ele>
        <time>2022-06-26T10:51:01Z</time>
      </trkpt>
      <trkpt lat="45.88081" lon="4.37267">
        <ele>605.4</ele>
        <time>2022-06-26T10:51:02Z</time>
      </trkpt>
      <trkpt lat="45.88079" lon="4.37266">
        <ele>605.6</ele>
        <time>2022-06-26T10:51:03Z</time>
      </trkpt>
      <trkpt lat="45.88077" lon="4.37266">
        <ele>605.6</ele>
        <time>2022-06-26T10:51:04Z</time>
      </trkpt>
      <trkpt lat="45.88075" lon="4.37265">
        <ele>605.8</ele>
        <time>2022-06-26T10:51:05Z</time>
      </trkpt>
      <trkpt lat="45.88073" lon="4.37264">
        <ele>605.8</ele>
        <time>2022-06-26T10:51:06Z</time>
      </trkpt>
      <trkpt lat="45.88072" lon="4.37262">
        <ele>606.2</ele>
        <time>2022-06-26T10:51:07Z</time>
      </trkpt>
      <trkpt lat="45.8807" lon="4.37261">
        <ele>606.2</ele>
        <time>2022-06-26T10:51:08Z</time>
      </trkpt>
      <trkpt lat="45.88069" lon="4.3726">
        <ele>606.4</ele>
        <time>2022-06-26T10:51:09Z</time>
      </trkpt>
      <trkpt lat="45.88067" lon="4.37259">
        <ele>606.4</ele>
        <time>2022-06-26T10:51:10Z</time>
      </trkpt>
      <trkpt lat="45.88065" lon="4.37259">
        <ele>606.6</ele>
        <time>2022-06-26T10:51:11Z</time>
      </trkpt>
      <trkpt lat="45.88063" lon="4.37258">
        <ele>606.6</ele>
        <time>2022-06-26T10:51:12Z</time>
      </trkpt>
      <trkpt lat="45.88061" lon="4.37257">
        <ele>607</ele>
        <time>2022-06-26T10:51:13Z</time>
      </trkpt>
      <trkpt lat="45.8806" lon="4.37256">
        <ele>607</ele>
        <time>2022-06-26T10:51:14Z</time>
      </trkpt>
      <trkpt lat="45.88058" lon="4.37255">
        <ele>607.2</ele>
        <time>2022-06-26T10:51:15Z</time>
      </trkpt>
      <trkpt lat="45.88056" lon="4.37255">
        <ele>607.2</ele>
        <time>2022-06-26T10:51:16Z</time>
      </trkpt>
      <trkpt lat="45.88054" lon="4.37254">
        <ele>607.6</ele>
        <time>2022-06-26T10:51:17Z</time>
      </trkpt>
      <trkpt lat="45.88052" lon="4.37254">
        <ele>607.6</ele>
        <time>2022-06-26T10:51:18Z</time>
      </trkpt>
      <trkpt lat="45.8805" lon="4.37254">
        <ele>607.8</ele>
        <time>2022-06-26T10:51:19Z</time>
      </trkpt>
      <trkpt lat="45.88048" lon="4.37254">
        <ele>607.8</ele>
        <time>2022-06-26T10:51:20Z</time>
      </trkpt>
      <trkpt lat="45.88046" lon="4.37254">
        <ele>608.2</ele>
        <time>2022-06-26T10:51:21Z</time>
      </trkpt>
      <trkpt lat="45.88044" lon="4.37253">
        <ele>608.2</ele>
        <time>2022-06-26T10:51:22Z</time>
      </trkpt>
      <trkpt lat="45.88042" lon="4.37252">
        <ele>608.4</ele>
        <time>2022-06-26T10:51:23Z</time>
      </trkpt>
      <trkpt lat="45.88041" lon="4.37252">
        <ele>608.4</ele>
        <time>2022-06-26T10:51:24Z</time>
      </trkpt>
      <trkpt lat="45.88038" lon="4.37251">
        <ele>608.6</ele>
        <time>2022-06-26T10:51:25Z</time>
      </trkpt>
      <trkpt lat="45.88036" lon="4.37251">
        <ele>608.6</ele>
        <time>2022-06-26T10:51:26Z</time>
      </trkpt>
      <trkpt lat="45.88034" lon="4.3725">
        <ele>609</ele>
        <time>2022-06-26T10:51:27Z</time>
      </trkpt>
      <trkpt lat="45.88031" lon="4.37251">
        <ele>609</ele>
        <time>2022-06-26T10:51:28Z</time>
      </trkpt>
      <trkpt lat="45.88029" lon="4.37251">
        <ele>609.2</ele>
        <time>2022-06-26T10:51:29Z</time>
      </trkpt>
      <trkpt lat="45.88027" lon="4.37251">
        <ele>609.2</ele>
        <time>2022-06-26T10:51:30Z</time>
      </trkpt>
      <trkpt lat="45.88025" lon="4.37251">
        <ele>609.4</ele>
        <time>2022-06-26T10:51:31Z</time>
      </trkpt>
      <trkpt lat="45.88023" lon="4.37251">
        <ele>609.4</ele>
        <time>2022-06-26T10:51:32Z</time>
      </trkpt>
      <trkpt lat="45.88021" lon="4.37251">
        <ele>609.6</ele>
        <time>2022-06-26T10:51:33Z</time>
      </trkpt>
      <trkpt lat="45.8802" lon="4.37251">
        <ele>609.6</ele>
        <time>2022-06-26T10:51:34Z</time>
      </trkpt>
      <trkpt lat="45.88018" lon="4.37251">
        <ele>609.6</ele>
        <time>2022-06-26T10:51:35Z</time>
      </trkpt>
      <trkpt lat="45.88016" lon="4.37252">
        <ele>610</ele>
        <time>2022-06-26T10:51:36Z</time>
      </trkpt>
      <trkpt lat="45.88014" lon="4.37252">
        <ele>610</ele>
        <time>2022-06-26T10:51:37Z</time>
      </trkpt>
      <trkpt lat="45.88012" lon="4.37253">
        <ele>610.2</ele>
        <time>2022-06-26T10:51:38Z</time>
      </trkpt>
      <trkpt lat="45.8801" lon="4.37253">
        <ele>610.2</ele>
        <time>2022-06-26T10:51:39Z</time>
      </trkpt>
      <trkpt lat="45.88008" lon="4.37254">
        <ele>610.6</ele>
        <time>2022-06-26T10:51:40Z</time>
      </trkpt>
      <trkpt lat="45.88007" lon="4.37254">
        <ele>610.6</ele>
        <time>2022-06-26T10:51:41Z</time>
      </trkpt>
      <trkpt lat="45.88005" lon="4.37255">
        <ele>610.8</ele>
        <time>2022-06-26T10:51:42Z</time>
      </trkpt>
      <trkpt lat="45.88003" lon="4.37255">
        <ele>610.8</ele>
        <time>2022-06-26T10:51:43Z</time>
      </trkpt>
      <trkpt lat="45.88002" lon="4.37257">
        <ele>610.8</ele>
        <time>2022-06-26T10:51:44Z</time>
      </trkpt>
      <trkpt lat="45.88" lon="4.37258">
        <ele>611</ele>
        <time>2022-06-26T10:51:45Z</time>
      </trkpt>
      <trkpt lat="45.87998" lon="4.3726">
        <ele>611</ele>
        <time>2022-06-26T10:51:46Z</time>
      </trkpt>
      <trkpt lat="45.87996" lon="4.37261">
        <ele>611.4</ele>
        <time>2022-06-26T10:51:47Z</time>
      </trkpt>
      <trkpt lat="45.87995" lon="4.37263">
        <ele>611.4</ele>
        <time>2022-06-26T10:51:48Z</time>
      </trkpt>
      <trkpt lat="45.87993" lon="4.37265">
        <ele>611.8</ele>
        <time>2022-06-26T10:51:49Z</time>
      </trkpt>
      <trkpt lat="45.87992" lon="4.37267">
        <ele>611.8</ele>
        <time>2022-06-26T10:51:50Z</time>
      </trkpt>
      <trkpt lat="45.8799" lon="4.37271">
        <ele>612</ele>
        <time>2022-06-26T10:51:51Z</time>
      </trkpt>
      <trkpt lat="45.87989" lon="4.37273">
        <ele>612</ele>
        <time>2022-06-26T10:51:52Z</time>
      </trkpt>
      <trkpt lat="45.87988" lon="4.37276">
        <ele>612.4</ele>
        <time>2022-06-26T10:51:53Z</time>
      </trkpt>
      <trkpt lat="45.87986" lon="4.37278">
        <ele>612.6</ele>
        <time>2022-06-26T10:51:54Z</time>
      </trkpt>
      <trkpt lat="45.87985" lon="4.3728">
        <ele>612.6</ele>
        <time>2022-06-26T10:51:55Z</time>
      </trkpt>
      <trkpt lat="45.87984" lon="4.37283">
        <ele>613</ele>
        <time>2022-06-26T10:51:56Z</time>
      </trkpt>
      <trkpt lat="45.87983" lon="4.37285">
        <ele>613</ele>
        <time>2022-06-26T10:51:57Z</time>
      </trkpt>
      <trkpt lat="45.87981" lon="4.37288">
        <ele>613.2</ele>
        <time>2022-06-26T10:51:58Z</time>
      </trkpt>
      <trkpt lat="45.8798" lon="4.37292">
        <ele>613.4</ele>
        <time>2022-06-26T10:51:59Z</time>
      </trkpt>
      <trkpt lat="45.87979" lon="4.37295">
        <ele>613.4</ele>
        <time>2022-06-26T10:52:00Z</time>
      </trkpt>
      <trkpt lat="45.87978" lon="4.373">
        <ele>613.8</ele>
        <time>2022-06-26T10:52:01Z</time>
      </trkpt>
      <trkpt lat="45.87976" lon="4.37303">
        <ele>613.8</ele>
        <time>2022-06-26T10:52:02Z</time>
      </trkpt>
      <trkpt lat="45.87976" lon="4.37306">
        <ele>614</ele>
        <time>2022-06-26T10:52:03Z</time>
      </trkpt>
      <trkpt lat="45.87975" lon="4.37309">
        <ele>614</ele>
        <time>2022-06-26T10:52:04Z</time>
      </trkpt>
      <trkpt lat="45.87974" lon="4.37312">
        <ele>614.4</ele>
        <time>2022-06-26T10:52:05Z</time>
      </trkpt>
      <trkpt lat="45.87974" lon="4.37314">
        <ele>614.4</ele>
        <time>2022-06-26T10:52:06Z</time>
      </trkpt>
      <trkpt lat="45.87973" lon="4.37317">
        <ele>614.6</ele>
        <time>2022-06-26T10:52:07Z</time>
      </trkpt>
      <trkpt lat="45.87973" lon="4.3732">
        <ele>614.6</ele>
        <time>2022-06-26T10:52:08Z</time>
      </trkpt>
      <trkpt lat="45.87972" lon="4.37322">
        <ele>614.8</ele>
        <time>2022-06-26T10:52:09Z</time>
      </trkpt>
      <trkpt lat="45.87972" lon="4.37324">
        <ele>614.8</ele>
        <time>2022-06-26T10:52:10Z</time>
      </trkpt>
      <trkpt lat="45.87972" lon="4.37327">
        <ele>615.2</ele>
        <time>2022-06-26T10:52:11Z</time>
      </trkpt>
      <trkpt lat="45.87972" lon="4.37331">
        <ele>615.2</ele>
        <time>2022-06-26T10:52:12Z</time>
      </trkpt>
      <trkpt lat="45.87972" lon="4.37334">
        <ele>615.4</ele>
        <time>2022-06-26T10:52:13Z</time>
      </trkpt>
      <trkpt lat="45.87972" lon="4.37337">
        <ele>615.4</ele>
        <time>2022-06-26T10:52:14Z</time>
      </trkpt>
      <trkpt lat="45.87972" lon="4.3734">
        <ele>615.4</ele>
        <time>2022-06-26T10:52:15Z</time>
      </trkpt>
      <trkpt lat="45.87972" lon="4.37344">
        <ele>615.6</ele>
        <time>2022-06-26T10:52:16Z</time>
      </trkpt>
      <trkpt lat="45.87972" lon="4.37347">
        <ele>615.6</ele>
        <time>2022-06-26T10:52:17Z</time>
      </trkpt>
      <trkpt lat="45.87972" lon="4.37351">
        <ele>615.8</ele>
        <time>2022-06-26T10:52:18Z</time>
      </trkpt>
      <trkpt lat="45.87971" lon="4.37355">
        <ele>615.8</ele>
        <time>2022-06-26T10:52:19Z</time>
      </trkpt>
      <trkpt lat="45.87971" lon="4.37359">
        <ele>616.2</ele>
        <time>2022-06-26T10:52:20Z</time>
      </trkpt>
      <trkpt lat="45.87971" lon="4.37362">
        <ele>616.2</ele>
        <time>2022-06-26T10:52:21Z</time>
      </trkpt>
      <trkpt lat="45.87971" lon="4.37366">
        <ele>616.4</ele>
        <time>2022-06-26T10:52:22Z</time>
      </trkpt>
      <trkpt lat="45.87971" lon="4.37369">
        <ele>616.4</ele>
        <time>2022-06-26T10:52:23Z</time>
      </trkpt>
      <trkpt lat="45.87972" lon="4.37373">
        <ele>616.6</ele>
        <time>2022-06-26T10:52:24Z</time>
      </trkpt>
      <trkpt lat="45.87972" lon="4.37376">
        <ele>616.6</ele>
        <time>2022-06-26T10:52:25Z</time>
      </trkpt>
      <trkpt lat="45.87972" lon="4.37379">
        <ele>617</ele>
        <time>2022-06-26T10:52:26Z</time>
      </trkpt>
      <trkpt lat="45.87972" lon="4.37383">
        <ele>617.2</ele>
        <time>2022-06-26T10:52:27Z</time>
      </trkpt>
      <trkpt lat="45.87971" lon="4.37387">
        <ele>617.2</ele>
        <time>2022-06-26T10:52:28Z</time>
      </trkpt>
      <trkpt lat="45.87971" lon="4.3739">
        <ele>617.6</ele>
        <time>2022-06-26T10:52:29Z</time>
      </trkpt>
      <trkpt lat="45.87971" lon="4.37394">
        <ele>617.6</ele>
        <time>2022-06-26T10:52:30Z</time>
      </trkpt>
      <trkpt lat="45.87971" lon="4.37397">
        <ele>618</ele>
        <time>2022-06-26T10:52:31Z</time>
      </trkpt>
      <trkpt lat="45.87971" lon="4.374">
        <ele>618</ele>
        <time>2022-06-26T10:52:32Z</time>
      </trkpt>
      <trkpt lat="45.87971" lon="4.37404">
        <ele>618.2</ele>
        <time>2022-06-26T10:52:33Z</time>
      </trkpt>
      <trkpt lat="45.87971" lon="4.37407">
        <ele>618.2</ele>
        <time>2022-06-26T10:52:34Z</time>
      </trkpt>
      <trkpt lat="45.87972" lon="4.3741">
        <ele>618.6</ele>
        <time>2022-06-26T10:52:35Z</time>
      </trkpt>
      <trkpt lat="45.87971" lon="4.37413">
        <ele>618.6</ele>
        <time>2022-06-26T10:52:36Z</time>
      </trkpt>
      <trkpt lat="45.87971" lon="4.37416">
        <ele>618.8</ele>
        <time>2022-06-26T10:52:37Z</time>
      </trkpt>
      <trkpt lat="45.87971" lon="4.3742">
        <ele>618.8</ele>
        <time>2022-06-26T10:52:38Z</time>
      </trkpt>
      <trkpt lat="45.87971" lon="4.37423">
        <ele>619.2</ele>
        <time>2022-06-26T10:52:39Z</time>
      </trkpt>
      <trkpt lat="45.87971" lon="4.37426">
        <ele>619.2</ele>
        <time>2022-06-26T10:52:40Z</time>
      </trkpt>
      <trkpt lat="45.87971" lon="4.37429">
        <ele>619.6</ele>
        <time>2022-06-26T10:52:41Z</time>
      </trkpt>
      <trkpt lat="45.87971" lon="4.37432">
        <ele>619.6</ele>
        <time>2022-06-26T10:52:42Z</time>
      </trkpt>
      <trkpt lat="45.87971" lon="4.37435">
        <ele>619.8</ele>
        <time>2022-06-26T10:52:43Z</time>
      </trkpt>
      <trkpt lat="45.87971" lon="4.37438">
        <ele>619.8</ele>
        <time>2022-06-26T10:52:44Z</time>
      </trkpt>
      <trkpt lat="45.87971" lon="4.37441">
        <ele>619.8</ele>
        <time>2022-06-26T10:52:45Z</time>
      </trkpt>
      <trkpt lat="45.87971" lon="4.37445">
        <ele>620.2</ele>
        <time>2022-06-26T10:52:46Z</time>
      </trkpt>
      <trkpt lat="45.87971" lon="4.37448">
        <ele>620.2</ele>
        <time>2022-06-26T10:52:47Z</time>
      </trkpt>
      <trkpt lat="45.87971" lon="4.37451">
        <ele>620.4</ele>
        <time>2022-06-26T10:52:48Z</time>
      </trkpt>
      <trkpt lat="45.8797" lon="4.37454">
        <ele>620.4</ele>
        <time>2022-06-26T10:52:49Z</time>
      </trkpt>
      <trkpt lat="45.8797" lon="4.37458">
        <ele>620.6</ele>
        <time>2022-06-26T10:52:50Z</time>
      </trkpt>
      <trkpt lat="45.87969" lon="4.37461">
        <ele>620.6</ele>
        <time>2022-06-26T10:52:51Z</time>
      </trkpt>
      <trkpt lat="45.87968" lon="4.37464">
        <ele>620.8</ele>
        <time>2022-06-26T10:52:52Z</time>
      </trkpt>
      <trkpt lat="45.87967" lon="4.37467">
        <ele>620.8</ele>
        <time>2022-06-26T10:52:53Z</time>
      </trkpt>
      <trkpt lat="45.87967" lon="4.3747">
        <ele>621</ele>
        <time>2022-06-26T10:52:54Z</time>
      </trkpt>
      <trkpt lat="45.87967" lon="4.37474">
        <ele>621</ele>
        <time>2022-06-26T10:52:55Z</time>
      </trkpt>
      <trkpt lat="45.87967" lon="4.37477">
        <ele>621.4</ele>
        <time>2022-06-26T10:52:56Z</time>
      </trkpt>
      <trkpt lat="45.87966" lon="4.3748">
        <ele>621.4</ele>
        <time>2022-06-26T10:52:57Z</time>
      </trkpt>
      <trkpt lat="45.87966" lon="4.37482">
        <ele>621.6</ele>
        <time>2022-06-26T10:52:58Z</time>
      </trkpt>
      <trkpt lat="45.87965" lon="4.37485">
        <ele>621.6</ele>
        <time>2022-06-26T10:52:59Z</time>
      </trkpt>
      <trkpt lat="45.87965" lon="4.37487">
        <ele>622</ele>
        <time>2022-06-26T10:53:00Z</time>
      </trkpt>
      <trkpt lat="45.87965" lon="4.3749">
        <ele>622</ele>
        <time>2022-06-26T10:53:01Z</time>
      </trkpt>
      <trkpt lat="45.87965" lon="4.37493">
        <ele>622.4</ele>
        <time>2022-06-26T10:53:02Z</time>
      </trkpt>
      <trkpt lat="45.87965" lon="4.37495">
        <ele>622.4</ele>
        <time>2022-06-26T10:53:03Z</time>
      </trkpt>
      <trkpt lat="45.87964" lon="4.37498">
        <ele>622.6</ele>
        <time>2022-06-26T10:53:04Z</time>
      </trkpt>
      <trkpt lat="45.87964" lon="4.375">
        <ele>622.6</ele>
        <time>2022-06-26T10:53:05Z</time>
      </trkpt>
      <trkpt lat="45.87963" lon="4.37503">
        <ele>622.8</ele>
        <time>2022-06-26T10:53:06Z</time>
      </trkpt>
      <trkpt lat="45.87961" lon="4.37505">
        <ele>622.8</ele>
        <time>2022-06-26T10:53:07Z</time>
      </trkpt>
      <trkpt lat="45.8796" lon="4.37507">
        <ele>623.2</ele>
        <time>2022-06-26T10:53:08Z</time>
      </trkpt>
      <trkpt lat="45.87959" lon="4.37509">
        <ele>623.2</ele>
        <time>2022-06-26T10:53:09Z</time>
      </trkpt>
      <trkpt lat="45.87958" lon="4.37511">
        <ele>623.4</ele>
        <time>2022-06-26T10:53:10Z</time>
      </trkpt>
      <trkpt lat="45.87956" lon="4.37513">
        <ele>623.4</ele>
        <time>2022-06-26T10:53:11Z</time>
      </trkpt>
      <trkpt lat="45.87955" lon="4.37515">
        <ele>623.6</ele>
        <time>2022-06-26T10:53:12Z</time>
      </trkpt>
      <trkpt lat="45.87954" lon="4.37517">
        <ele>623.6</ele>
        <time>2022-06-26T10:53:13Z</time>
      </trkpt>
      <trkpt lat="45.87953" lon="4.37519">
        <ele>623.8</ele>
        <time>2022-06-26T10:53:14Z</time>
      </trkpt>
      <trkpt lat="45.87952" lon="4.37521">
        <ele>623.8</ele>
        <time>2022-06-26T10:53:15Z</time>
      </trkpt>
      <trkpt lat="45.87951" lon="4.37523">
        <ele>624</ele>
        <time>2022-06-26T10:53:16Z</time>
      </trkpt>
      <trkpt lat="45.87951" lon="4.37526">
        <ele>624</ele>
        <time>2022-06-26T10:53:17Z</time>
      </trkpt>
      <trkpt lat="45.8795" lon="4.37528">
        <ele>624.2</ele>
        <time>2022-06-26T10:53:18Z</time>
      </trkpt>
      <trkpt lat="45.87949" lon="4.3753">
        <ele>624.2</ele>
        <time>2022-06-26T10:53:19Z</time>
      </trkpt>
      <trkpt lat="45.87948" lon="4.37532">
        <ele>624.6</ele>
        <time>2022-06-26T10:53:20Z</time>
      </trkpt>
      <trkpt lat="45.87947" lon="4.37534">
        <ele>624.6</ele>
        <time>2022-06-26T10:53:21Z</time>
      </trkpt>
      <trkpt lat="45.87947" lon="4.37537">
        <ele>624.8</ele>
        <time>2022-06-26T10:53:22Z</time>
      </trkpt>
      <trkpt lat="45.87946" lon="4.37539">
        <ele>624.8</ele>
        <time>2022-06-26T10:53:23Z</time>
      </trkpt>
      <trkpt lat="45.87946" lon="4.37542">
        <ele>625</ele>
        <time>2022-06-26T10:53:24Z</time>
      </trkpt>
      <trkpt lat="45.87945" lon="4.37544">
        <ele>625</ele>
        <time>2022-06-26T10:53:25Z</time>
      </trkpt>
      <trkpt lat="45.87944" lon="4.37547">
        <ele>625</ele>
        <time>2022-06-26T10:53:26Z</time>
      </trkpt>
      <trkpt lat="45.87943" lon="4.37549">
        <ele>625</ele>
        <time>2022-06-26T10:53:27Z</time>
      </trkpt>
      <trkpt lat="45.87942" lon="4.37551">
        <ele>625.4</ele>
        <time>2022-06-26T10:53:28Z</time>
      </trkpt>
      <trkpt lat="45.8794" lon="4.37554">
        <ele>625.4</ele>
        <time>2022-06-26T10:53:29Z</time>
      </trkpt>
      <trkpt lat="45.87939" lon="4.37556">
        <ele>625.6</ele>
        <time>2022-06-26T10:53:30Z</time>
      </trkpt>
      <trkpt lat="45.87938" lon="4.37559">
        <ele>625.6</ele>
        <time>2022-06-26T10:53:31Z</time>
      </trkpt>
      <trkpt lat="45.87937" lon="4.37562">
        <ele>625.8</ele>
        <time>2022-06-26T10:53:32Z</time>
      </trkpt>
      <trkpt lat="45.87937" lon="4.37564">
        <ele>625.8</ele>
        <time>2022-06-26T10:53:33Z</time>
      </trkpt>
      <trkpt lat="45.87936" lon="4.37567">
        <ele>626.2</ele>
        <time>2022-06-26T10:53:34Z</time>
      </trkpt>
      <trkpt lat="45.87935" lon="4.3757">
        <ele>626.4</ele>
        <time>2022-06-26T10:53:35Z</time>
      </trkpt>
      <trkpt lat="45.87934" lon="4.37572">
        <ele>626.4</ele>
        <time>2022-06-26T10:53:36Z</time>
      </trkpt>
      <trkpt lat="45.87933" lon="4.37574">
        <ele>626.6</ele>
        <time>2022-06-26T10:53:37Z</time>
      </trkpt>
      <trkpt lat="45.87933" lon="4.37577">
        <ele>626.6</ele>
        <time>2022-06-26T10:53:38Z</time>
      </trkpt>
      <trkpt lat="45.87932" lon="4.3758">
        <ele>626.8</ele>
        <time>2022-06-26T10:53:39Z</time>
      </trkpt>
      <trkpt lat="45.87931" lon="4.37583">
        <ele>626.8</ele>
        <time>2022-06-26T10:53:40Z</time>
      </trkpt>
      <trkpt lat="45.8793" lon="4.37586">
        <ele>627.2</ele>
        <time>2022-06-26T10:53:41Z</time>
      </trkpt>
      <trkpt lat="45.87929" lon="4.37589">
        <ele>627.2</ele>
        <time>2022-06-26T10:53:42Z</time>
      </trkpt>
      <trkpt lat="45.87929" lon="4.37592">
        <ele>627.4</ele>
        <time>2022-06-26T10:53:43Z</time>
      </trkpt>
      <trkpt lat="45.87928" lon="4.37594">
        <ele>627.4</ele>
        <time>2022-06-26T10:53:44Z</time>
      </trkpt>
      <trkpt lat="45.87927" lon="4.37597">
        <ele>627.6</ele>
        <time>2022-06-26T10:53:45Z</time>
      </trkpt>
      <trkpt lat="45.87926" lon="4.376">
        <ele>627.6</ele>
        <time>2022-06-26T10:53:46Z</time>
      </trkpt>
      <trkpt lat="45.87926" lon="4.37603">
        <ele>628</ele>
        <time>2022-06-26T10:53:47Z</time>
      </trkpt>
      <trkpt lat="45.87925" lon="4.37606">
        <ele>628</ele>
        <time>2022-06-26T10:53:48Z</time>
      </trkpt>
      <trkpt lat="45.87925" lon="4.37609">
        <ele>628.2</ele>
        <time>2022-06-26T10:53:49Z</time>
      </trkpt>
      <trkpt lat="45.87924" lon="4.37613">
        <ele>628.2</ele>
        <time>2022-06-26T10:53:50Z</time>
      </trkpt>
      <trkpt lat="45.87923" lon="4.37616">
        <ele>628.4</ele>
        <time>2022-06-26T10:53:51Z</time>
      </trkpt>
      <trkpt lat="45.87922" lon="4.37618">
        <ele>628.4</ele>
        <time>2022-06-26T10:53:52Z</time>
      </trkpt>
      <trkpt lat="45.87921" lon="4.37621">
        <ele>628.8</ele>
        <time>2022-06-26T10:53:53Z</time>
      </trkpt>
      <trkpt lat="45.87921" lon="4.37623">
        <ele>628.8</ele>
        <time>2022-06-26T10:53:54Z</time>
      </trkpt>
      <trkpt lat="45.8792" lon="4.37626">
        <ele>629</ele>
        <time>2022-06-26T10:53:55Z</time>
      </trkpt>
      <trkpt lat="45.87919" lon="4.37629">
        <ele>629</ele>
        <time>2022-06-26T10:53:56Z</time>
      </trkpt>
      <trkpt lat="45.87919" lon="4.37631">
        <ele>629.2</ele>
        <time>2022-06-26T10:53:57Z</time>
      </trkpt>
      <trkpt lat="45.87918" lon="4.37634">
        <ele>629.2</ele>
        <time>2022-06-26T10:53:58Z</time>
      </trkpt>
      <trkpt lat="45.87918" lon="4.37636">
        <ele>629.6</ele>
        <time>2022-06-26T10:53:59Z</time>
      </trkpt>
      <trkpt lat="45.87918" lon="4.37639">
        <ele>629.6</ele>
        <time>2022-06-26T10:54:00Z</time>
      </trkpt>
      <trkpt lat="45.87918" lon="4.37642">
        <ele>629.8</ele>
        <time>2022-06-26T10:54:01Z</time>
      </trkpt>
      <trkpt lat="45.87918" lon="4.37645">
        <ele>629.8</ele>
        <time>2022-06-26T10:54:02Z</time>
      </trkpt>
      <trkpt lat="45.87917" lon="4.37648">
        <ele>630.2</ele>
        <time>2022-06-26T10:54:03Z</time>
      </trkpt>
      <trkpt lat="45.87917" lon="4.37651">
        <ele>630.2</ele>
        <time>2022-06-26T10:54:04Z</time>
      </trkpt>
      <trkpt lat="45.87917" lon="4.37654">
        <ele>630.2</ele>
        <time>2022-06-26T10:54:05Z</time>
      </trkpt>
      <trkpt lat="45.87916" lon="4.37658">
        <ele>630.4</ele>
        <time>2022-06-26T10:54:06Z</time>
      </trkpt>
      <trkpt lat="45.87916" lon="4.37661">
        <ele>630.4</ele>
        <time>2022-06-26T10:54:07Z</time>
      </trkpt>
      <trkpt lat="45.87916" lon="4.37664">
        <ele>630.6</ele>
        <time>2022-06-26T10:54:08Z</time>
      </trkpt>
      <trkpt lat="45.87916" lon="4.37667">
        <ele>630.6</ele>
        <time>2022-06-26T10:54:09Z</time>
      </trkpt>
      <trkpt lat="45.87917" lon="4.3767">
        <ele>630.8</ele>
        <time>2022-06-26T10:54:10Z</time>
      </trkpt>
      <trkpt lat="45.87917" lon="4.37673">
        <ele>630.8</ele>
        <time>2022-06-26T10:54:11Z</time>
      </trkpt>
      <trkpt lat="45.87917" lon="4.37676">
        <ele>631.2</ele>
        <time>2022-06-26T10:54:12Z</time>
      </trkpt>
      <trkpt lat="45.87917" lon="4.3768">
        <ele>631.2</ele>
        <time>2022-06-26T10:54:13Z</time>
      </trkpt>
      <trkpt lat="45.87916" lon="4.37683">
        <ele>631.2</ele>
        <time>2022-06-26T10:54:14Z</time>
      </trkpt>
      <trkpt lat="45.87916" lon="4.37687">
        <ele>631.4</ele>
        <time>2022-06-26T10:54:15Z</time>
      </trkpt>
      <trkpt lat="45.87916" lon="4.37691">
        <ele>631.4</ele>
        <time>2022-06-26T10:54:16Z</time>
      </trkpt>
      <trkpt lat="45.87916" lon="4.37695">
        <ele>631.6</ele>
        <time>2022-06-26T10:54:17Z</time>
      </trkpt>
      <trkpt lat="45.87915" lon="4.37698">
        <ele>631.6</ele>
        <time>2022-06-26T10:54:18Z</time>
      </trkpt>
      <trkpt lat="45.87915" lon="4.37702">
        <ele>632</ele>
        <time>2022-06-26T10:54:19Z</time>
      </trkpt>
      <trkpt lat="45.87915" lon="4.37705">
        <ele>632</ele>
        <time>2022-06-26T10:54:20Z</time>
      </trkpt>
      <trkpt lat="45.87914" lon="4.37708">
        <ele>632.2</ele>
        <time>2022-06-26T10:54:21Z</time>
      </trkpt>
      <trkpt lat="45.87914" lon="4.37712">
        <ele>632.2</ele>
        <time>2022-06-26T10:54:22Z</time>
      </trkpt>
      <trkpt lat="45.87913" lon="4.37715">
        <ele>632.6</ele>
        <time>2022-06-26T10:54:23Z</time>
      </trkpt>
      <trkpt lat="45.87913" lon="4.37718">
        <ele>632.6</ele>
        <time>2022-06-26T10:54:24Z</time>
      </trkpt>
      <trkpt lat="45.87913" lon="4.37721">
        <ele>632.8</ele>
        <time>2022-06-26T10:54:25Z</time>
      </trkpt>
      <trkpt lat="45.87912" lon="4.37724">
        <ele>632.8</ele>
        <time>2022-06-26T10:54:26Z</time>
      </trkpt>
      <trkpt lat="45.87912" lon="4.37727">
        <ele>632.8</ele>
        <time>2022-06-26T10:54:27Z</time>
      </trkpt>
      <trkpt lat="45.87912" lon="4.3773">
        <ele>633.2</ele>
        <time>2022-06-26T10:54:28Z</time>
      </trkpt>
      <trkpt lat="45.87911" lon="4.37733">
        <ele>633.2</ele>
        <time>2022-06-26T10:54:29Z</time>
      </trkpt>
      <trkpt lat="45.87911" lon="4.37735">
        <ele>633.4</ele>
        <time>2022-06-26T10:54:30Z</time>
      </trkpt>
      <trkpt lat="45.8791" lon="4.37738">
        <ele>633.4</ele>
        <time>2022-06-26T10:54:31Z</time>
      </trkpt>
      <trkpt lat="45.8791" lon="4.37742">
        <ele>633.8</ele>
        <time>2022-06-26T10:54:32Z</time>
      </trkpt>
      <trkpt lat="45.8791" lon="4.37744">
        <ele>633.8</ele>
        <time>2022-06-26T10:54:33Z</time>
      </trkpt>
      <trkpt lat="45.87909" lon="4.37747">
        <ele>634</ele>
        <time>2022-06-26T10:54:34Z</time>
      </trkpt>
      <trkpt lat="45.87909" lon="4.3775">
        <ele>634</ele>
        <time>2022-06-26T10:54:35Z</time>
      </trkpt>
      <trkpt lat="45.87908" lon="4.37753">
        <ele>634.2</ele>
        <time>2022-06-26T10:54:36Z</time>
      </trkpt>
      <trkpt lat="45.87907" lon="4.37756">
        <ele>634.2</ele>
        <time>2022-06-26T10:54:37Z</time>
      </trkpt>
      <trkpt lat="45.87906" lon="4.37758">
        <ele>634.4</ele>
        <time>2022-06-26T10:54:38Z</time>
      </trkpt>
      <trkpt lat="45.87905" lon="4.37761">
        <ele>634.4</ele>
        <time>2022-06-26T10:54:39Z</time>
      </trkpt>
      <trkpt lat="45.87904" lon="4.37764">
        <ele>634.8</ele>
        <time>2022-06-26T10:54:40Z</time>
      </trkpt>
      <trkpt lat="45.87903" lon="4.37766">
        <ele>634.8</ele>
        <time>2022-06-26T10:54:41Z</time>
      </trkpt>
      <trkpt lat="45.87902" lon="4.37769">
        <ele>635.2</ele>
        <time>2022-06-26T10:54:42Z</time>
      </trkpt>
      <trkpt lat="45.87901" lon="4.37771">
        <ele>635.2</ele>
        <time>2022-06-26T10:54:43Z</time>
      </trkpt>
      <trkpt lat="45.879" lon="4.37774">
        <ele>635.4</ele>
        <time>2022-06-26T10:54:44Z</time>
      </trkpt>
      <trkpt lat="45.87898" lon="4.37776">
        <ele>635.4</ele>
        <time>2022-06-26T10:54:45Z</time>
      </trkpt>
      <trkpt lat="45.87897" lon="4.37779">
        <ele>635.6</ele>
        <time>2022-06-26T10:54:46Z</time>
      </trkpt>
      <trkpt lat="45.87896" lon="4.37781">
        <ele>635.6</ele>
        <time>2022-06-26T10:54:47Z</time>
      </trkpt>
      <trkpt lat="45.87895" lon="4.37783">
        <ele>636</ele>
        <time>2022-06-26T10:54:48Z</time>
      </trkpt>
      <trkpt lat="45.87893" lon="4.37786">
        <ele>636</ele>
        <time>2022-06-26T10:54:49Z</time>
      </trkpt>
      <trkpt lat="45.87892" lon="4.37788">
        <ele>636.2</ele>
        <time>2022-06-26T10:54:50Z</time>
      </trkpt>
      <trkpt lat="45.8789" lon="4.3779">
        <ele>636.2</ele>
        <time>2022-06-26T10:54:51Z</time>
      </trkpt>
      <trkpt lat="45.87888" lon="4.37792">
        <ele>636.4</ele>
        <time>2022-06-26T10:54:52Z</time>
      </trkpt>
      <trkpt lat="45.87887" lon="4.37794">
        <ele>636.4</ele>
        <time>2022-06-26T10:54:53Z</time>
      </trkpt>
      <trkpt lat="45.87885" lon="4.37795">
        <ele>636.6</ele>
        <time>2022-06-26T10:54:54Z</time>
      </trkpt>
      <trkpt lat="45.87883" lon="4.37797">
        <ele>636.6</ele>
        <time>2022-06-26T10:54:55Z</time>
      </trkpt>
      <trkpt lat="45.87882" lon="4.37798">
        <ele>637</ele>
        <time>2022-06-26T10:54:56Z</time>
      </trkpt>
      <trkpt lat="45.8788" lon="4.378">
        <ele>637</ele>
        <time>2022-06-26T10:54:57Z</time>
      </trkpt>
      <trkpt lat="45.87879" lon="4.37801">
        <ele>637.4</ele>
        <time>2022-06-26T10:54:58Z</time>
      </trkpt>
      <trkpt lat="45.87878" lon="4.37803">
        <ele>637.4</ele>
        <time>2022-06-26T10:54:59Z</time>
      </trkpt>
      <trkpt lat="45.87876" lon="4.37805">
        <ele>637.6</ele>
        <time>2022-06-26T10:55:00Z</time>
      </trkpt>
      <trkpt lat="45.87875" lon="4.37806">
        <ele>637.6</ele>
        <time>2022-06-26T10:55:01Z</time>
      </trkpt>
      <trkpt lat="45.87874" lon="4.37807">
        <ele>637.8</ele>
        <time>2022-06-26T10:55:02Z</time>
      </trkpt>
      <trkpt lat="45.87872" lon="4.37809">
        <ele>637.8</ele>
        <time>2022-06-26T10:55:03Z</time>
      </trkpt>
      <trkpt lat="45.87871" lon="4.37811">
        <ele>638</ele>
        <time>2022-06-26T10:55:04Z</time>
      </trkpt>
      <trkpt lat="45.87869" lon="4.37813">
        <ele>638.2</ele>
        <time>2022-06-26T10:55:05Z</time>
      </trkpt>
      <trkpt lat="45.87868" lon="4.37815">
        <ele>638.2</ele>
        <time>2022-06-26T10:55:06Z</time>
      </trkpt>
      <trkpt lat="45.87866" lon="4.37818">
        <ele>638.6</ele>
        <time>2022-06-26T10:55:07Z</time>
      </trkpt>
      <trkpt lat="45.87865" lon="4.3782">
        <ele>638.6</ele>
        <time>2022-06-26T10:55:08Z</time>
      </trkpt>
      <trkpt lat="45.87864" lon="4.37822">
        <ele>638.8</ele>
        <time>2022-06-26T10:55:09Z</time>
      </trkpt>
      <trkpt lat="45.87862" lon="4.37825">
        <ele>638.8</ele>
        <time>2022-06-26T10:55:10Z</time>
      </trkpt>
      <trkpt lat="45.8786" lon="4.37827">
        <ele>639.2</ele>
        <time>2022-06-26T10:55:11Z</time>
      </trkpt>
      <trkpt lat="45.87859" lon="4.37829">
        <ele>639.2</ele>
        <time>2022-06-26T10:55:12Z</time>
      </trkpt>
      <trkpt lat="45.87857" lon="4.37831">
        <ele>639.4</ele>
        <time>2022-06-26T10:55:13Z</time>
      </trkpt>
      <trkpt lat="45.87855" lon="4.37833">
        <ele>639.4</ele>
        <time>2022-06-26T10:55:14Z</time>
      </trkpt>
      <trkpt lat="45.87854" lon="4.37835">
        <ele>639.8</ele>
        <time>2022-06-26T10:55:15Z</time>
      </trkpt>
      <trkpt lat="45.87852" lon="4.37837">
        <ele>639.8</ele>
        <time>2022-06-26T10:55:16Z</time>
      </trkpt>
      <trkpt lat="45.8785" lon="4.37839">
        <ele>640.2</ele>
        <time>2022-06-26T10:55:17Z</time>
      </trkpt>
      <trkpt lat="45.87848" lon="4.37842">
        <ele>640.2</ele>
        <time>2022-06-26T10:55:18Z</time>
      </trkpt>
      <trkpt lat="45.87846" lon="4.37844">
        <ele>640.4</ele>
        <time>2022-06-26T10:55:19Z</time>
      </trkpt>
      <trkpt lat="45.87844" lon="4.37846">
        <ele>640.6</ele>
        <time>2022-06-26T10:55:20Z</time>
      </trkpt>
      <trkpt lat="45.87842" lon="4.37848">
        <ele>640.6</ele>
        <time>2022-06-26T10:55:21Z</time>
      </trkpt>
      <trkpt lat="45.8784" lon="4.3785">
        <ele>641</ele>
        <time>2022-06-26T10:55:22Z</time>
      </trkpt>
      <trkpt lat="45.87839" lon="4.37852">
        <ele>641</ele>
        <time>2022-06-26T10:55:23Z</time>
      </trkpt>
      <trkpt lat="45.87837" lon="4.37854">
        <ele>641.2</ele>
        <time>2022-06-26T10:55:24Z</time>
      </trkpt>
      <trkpt lat="45.87836" lon="4.37855">
        <ele>641.2</ele>
        <time>2022-06-26T10:55:25Z</time>
      </trkpt>
      <trkpt lat="45.87834" lon="4.37857">
        <ele>641.6</ele>
        <time>2022-06-26T10:55:26Z</time>
      </trkpt>
      <trkpt lat="45.87833" lon="4.37859">
        <ele>641.6</ele>
        <time>2022-06-26T10:55:27Z</time>
      </trkpt>
      <trkpt lat="45.87832" lon="4.37861">
        <ele>641.8</ele>
        <time>2022-06-26T10:55:28Z</time>
      </trkpt>
      <trkpt lat="45.8783" lon="4.37863">
        <ele>641.8</ele>
        <time>2022-06-26T10:55:29Z</time>
      </trkpt>
      <trkpt lat="45.87829" lon="4.37865">
        <ele>642.2</ele>
        <time>2022-06-26T10:55:30Z</time>
      </trkpt>
      <trkpt lat="45.87827" lon="4.37867">
        <ele>642.2</ele>
        <time>2022-06-26T10:55:31Z</time>
      </trkpt>
      <trkpt lat="45.87826" lon="4.37869">
        <ele>642.6</ele>
        <time>2022-06-26T10:55:32Z</time>
      </trkpt>
      <trkpt lat="45.87825" lon="4.37871">
        <ele>642.6</ele>
        <time>2022-06-26T10:55:33Z</time>
      </trkpt>
      <trkpt lat="45.87824" lon="4.37873">
        <ele>642.8</ele>
        <time>2022-06-26T10:55:34Z</time>
      </trkpt>
      <trkpt lat="45.87822" lon="4.37875">
        <ele>642.8</ele>
        <time>2022-06-26T10:55:35Z</time>
      </trkpt>
      <trkpt lat="45.8782" lon="4.37877">
        <ele>643.2</ele>
        <time>2022-06-26T10:55:36Z</time>
      </trkpt>
      <trkpt lat="45.87819" lon="4.37879">
        <ele>643.2</ele>
        <time>2022-06-26T10:55:37Z</time>
      </trkpt>
      <trkpt lat="45.87817" lon="4.37881">
        <ele>643.6</ele>
        <time>2022-06-26T10:55:38Z</time>
      </trkpt>
      <trkpt lat="45.87816" lon="4.37883">
        <ele>643.6</ele>
        <time>2022-06-26T10:55:39Z</time>
      </trkpt>
      <trkpt lat="45.87814" lon="4.37886">
        <ele>643.8</ele>
        <time>2022-06-26T10:55:40Z</time>
      </trkpt>
      <trkpt lat="45.87813" lon="4.37888">
        <ele>643.8</ele>
        <time>2022-06-26T10:55:41Z</time>
      </trkpt>
      <trkpt lat="45.87811" lon="4.37891">
        <ele>644</ele>
        <time>2022-06-26T10:55:42Z</time>
      </trkpt>
      <trkpt lat="45.8781" lon="4.37894">
        <ele>644</ele>
        <time>2022-06-26T10:55:43Z</time>
      </trkpt>
      <trkpt lat="45.87808" lon="4.37897">
        <ele>644.4</ele>
        <time>2022-06-26T10:55:44Z</time>
      </trkpt>
      <trkpt lat="45.87807" lon="4.379">
        <ele>644.6</ele>
        <time>2022-06-26T10:55:45Z</time>
      </trkpt>
      <trkpt lat="45.87805" lon="4.37903">
        <ele>644.8</ele>
        <time>2022-06-26T10:55:46Z</time>
      </trkpt>
      <trkpt lat="45.87804" lon="4.37906">
        <ele>645</ele>
        <time>2022-06-26T10:55:47Z</time>
      </trkpt>
      <trkpt lat="45.87802" lon="4.37909">
        <ele>645</ele>
        <time>2022-06-26T10:55:48Z</time>
      </trkpt>
      <trkpt lat="45.87801" lon="4.37913">
        <ele>645.4</ele>
        <time>2022-06-26T10:55:49Z</time>
      </trkpt>
      <trkpt lat="45.878" lon="4.37916">
        <ele>645.4</ele>
        <time>2022-06-26T10:55:50Z</time>
      </trkpt>
      <trkpt lat="45.87799" lon="4.3792">
        <ele>645.6</ele>
        <time>2022-06-26T10:55:51Z</time>
      </trkpt>
      <trkpt lat="45.87798" lon="4.37924">
        <ele>645.6</ele>
        <time>2022-06-26T10:55:52Z</time>
      </trkpt>
      <trkpt lat="45.87797" lon="4.37927">
        <ele>646</ele>
        <time>2022-06-26T10:55:53Z</time>
      </trkpt>
      <trkpt lat="45.87796" lon="4.37931">
        <ele>646</ele>
        <time>2022-06-26T10:55:54Z</time>
      </trkpt>
      <trkpt lat="45.87795" lon="4.37934">
        <ele>646.2</ele>
        <time>2022-06-26T10:55:55Z</time>
      </trkpt>
      <trkpt lat="45.87794" lon="4.37938">
        <ele>646.2</ele>
        <time>2022-06-26T10:55:56Z</time>
      </trkpt>
      <trkpt lat="45.87793" lon="4.37941">
        <ele>646.4</ele>
        <time>2022-06-26T10:55:57Z</time>
      </trkpt>
      <trkpt lat="45.87792" lon="4.37944">
        <ele>646.4</ele>
        <time>2022-06-26T10:55:58Z</time>
      </trkpt>
      <trkpt lat="45.8779" lon="4.37948">
        <ele>646.8</ele>
        <time>2022-06-26T10:55:59Z</time>
      </trkpt>
      <trkpt lat="45.87789" lon="4.37952">
        <ele>646.8</ele>
        <time>2022-06-26T10:56:00Z</time>
      </trkpt>
      <trkpt lat="45.87788" lon="4.37955">
        <ele>647.2</ele>
        <time>2022-06-26T10:56:01Z</time>
      </trkpt>
      <trkpt lat="45.87787" lon="4.37958">
        <ele>647.2</ele>
        <time>2022-06-26T10:56:02Z</time>
      </trkpt>
      <trkpt lat="45.87786" lon="4.37961">
        <ele>647.6</ele>
        <time>2022-06-26T10:56:03Z</time>
      </trkpt>
      <trkpt lat="45.87785" lon="4.37965">
        <ele>647.6</ele>
        <time>2022-06-26T10:56:04Z</time>
      </trkpt>
      <trkpt lat="45.87783" lon="4.37968">
        <ele>647.8</ele>
        <time>2022-06-26T10:56:05Z</time>
      </trkpt>
      <trkpt lat="45.87782" lon="4.37972">
        <ele>647.8</ele>
        <time>2022-06-26T10:56:06Z</time>
      </trkpt>
      <trkpt lat="45.87781" lon="4.37975">
        <ele>648.2</ele>
        <time>2022-06-26T10:56:07Z</time>
      </trkpt>
      <trkpt lat="45.8778" lon="4.37978">
        <ele>648.2</ele>
        <time>2022-06-26T10:56:08Z</time>
      </trkpt>
      <trkpt lat="45.87779" lon="4.3798">
        <ele>648.4</ele>
        <time>2022-06-26T10:56:09Z</time>
      </trkpt>
      <trkpt lat="45.87777" lon="4.37984">
        <ele>648.4</ele>
        <time>2022-06-26T10:56:10Z</time>
      </trkpt>
      <trkpt lat="45.87776" lon="4.37987">
        <ele>649</ele>
        <time>2022-06-26T10:56:11Z</time>
      </trkpt>
      <trkpt lat="45.87775" lon="4.3799">
        <ele>649</ele>
        <time>2022-06-26T10:56:12Z</time>
      </trkpt>
      <trkpt lat="45.87774" lon="4.37993">
        <ele>649.2</ele>
        <time>2022-06-26T10:56:13Z</time>
      </trkpt>
      <trkpt lat="45.87773" lon="4.37996">
        <ele>649.2</ele>
        <time>2022-06-26T10:56:14Z</time>
      </trkpt>
      <trkpt lat="45.87772" lon="4.37999">
        <ele>649.2</ele>
        <time>2022-06-26T10:56:15Z</time>
      </trkpt>
      <trkpt lat="45.87771" lon="4.38002">
        <ele>649.6</ele>
        <time>2022-06-26T10:56:16Z</time>
      </trkpt>
      <trkpt lat="45.87771" lon="4.38006">
        <ele>649.6</ele>
        <time>2022-06-26T10:56:17Z</time>
      </trkpt>
      <trkpt lat="45.8777" lon="4.38009">
        <ele>649.8</ele>
        <time>2022-06-26T10:56:18Z</time>
      </trkpt>
      <trkpt lat="45.87769" lon="4.38011">
        <ele>649.8</ele>
        <time>2022-06-26T10:56:19Z</time>
      </trkpt>
      <trkpt lat="45.87767" lon="4.38014">
        <ele>650.2</ele>
        <time>2022-06-26T10:56:20Z</time>
      </trkpt>
      <trkpt lat="45.87767" lon="4.38017">
        <ele>650.2</ele>
        <time>2022-06-26T10:56:21Z</time>
      </trkpt>
      <trkpt lat="45.87766" lon="4.3802">
        <ele>650.6</ele>
        <time>2022-06-26T10:56:22Z</time>
      </trkpt>
      <trkpt lat="45.87765" lon="4.38023">
        <ele>650.6</ele>
        <time>2022-06-26T10:56:23Z</time>
      </trkpt>
      <trkpt lat="45.87763" lon="4.38026">
        <ele>650.8</ele>
        <time>2022-06-26T10:56:24Z</time>
      </trkpt>
      <trkpt lat="45.87762" lon="4.38028">
        <ele>650.8</ele>
        <time>2022-06-26T10:56:25Z</time>
      </trkpt>
      <trkpt lat="45.87761" lon="4.38031">
        <ele>651</ele>
        <time>2022-06-26T10:56:26Z</time>
      </trkpt>
      <trkpt lat="45.8776" lon="4.38034">
        <ele>651</ele>
        <time>2022-06-26T10:56:27Z</time>
      </trkpt>
      <trkpt lat="45.87759" lon="4.38037">
        <ele>651.2</ele>
        <time>2022-06-26T10:56:28Z</time>
      </trkpt>
      <trkpt lat="45.87758" lon="4.3804">
        <ele>651.2</ele>
        <time>2022-06-26T10:56:29Z</time>
      </trkpt>
      <trkpt lat="45.87757" lon="4.38043">
        <ele>651.6</ele>
        <time>2022-06-26T10:56:30Z</time>
      </trkpt>
      <trkpt lat="45.87756" lon="4.38046">
        <ele>651.6</ele>
        <time>2022-06-26T10:56:31Z</time>
      </trkpt>
      <trkpt lat="45.87755" lon="4.38049">
        <ele>652</ele>
        <time>2022-06-26T10:56:32Z</time>
      </trkpt>
      <trkpt lat="45.87754" lon="4.38053">
        <ele>652</ele>
        <time>2022-06-26T10:56:33Z</time>
      </trkpt>
      <trkpt lat="45.87753" lon="4.38056">
        <ele>652.4</ele>
        <time>2022-06-26T10:56:34Z</time>
      </trkpt>
      <trkpt lat="45.87752" lon="4.38058">
        <ele>652.8</ele>
        <time>2022-06-26T10:56:36Z</time>
      </trkpt>
      <trkpt lat="45.87751" lon="4.38061">
        <ele>652.8</ele>
        <time>2022-06-26T10:56:37Z</time>
      </trkpt>
      <trkpt lat="45.8775" lon="4.38064">
        <ele>653.2</ele>
        <time>2022-06-26T10:56:38Z</time>
      </trkpt>
      <trkpt lat="45.87749" lon="4.38067">
        <ele>653.2</ele>
        <time>2022-06-26T10:56:39Z</time>
      </trkpt>
      <trkpt lat="45.87748" lon="4.3807">
        <ele>653.4</ele>
        <time>2022-06-26T10:56:40Z</time>
      </trkpt>
      <trkpt lat="45.87747" lon="4.38073">
        <ele>653.4</ele>
        <time>2022-06-26T10:56:41Z</time>
      </trkpt>
      <trkpt lat="45.87746" lon="4.38075">
        <ele>653.8</ele>
        <time>2022-06-26T10:56:42Z</time>
      </trkpt>
      <trkpt lat="45.87744" lon="4.38078">
        <ele>653.8</ele>
        <time>2022-06-26T10:56:43Z</time>
      </trkpt>
      <trkpt lat="45.87743" lon="4.3808">
        <ele>654.2</ele>
        <time>2022-06-26T10:56:44Z</time>
      </trkpt>
      <trkpt lat="45.87742" lon="4.38082">
        <ele>654.2</ele>
        <time>2022-06-26T10:56:45Z</time>
      </trkpt>
      <trkpt lat="45.8774" lon="4.38085">
        <ele>654.6</ele>
        <time>2022-06-26T10:56:46Z</time>
      </trkpt>
      <trkpt lat="45.87738" lon="4.38087">
        <ele>654.6</ele>
        <time>2022-06-26T10:56:47Z</time>
      </trkpt>
      <trkpt lat="45.87737" lon="4.38088">
        <ele>654.8</ele>
        <time>2022-06-26T10:56:48Z</time>
      </trkpt>
      <trkpt lat="45.87735" lon="4.3809">
        <ele>654.8</ele>
        <time>2022-06-26T10:56:49Z</time>
      </trkpt>
      <trkpt lat="45.87733" lon="4.38091">
        <ele>655.2</ele>
        <time>2022-06-26T10:56:50Z</time>
      </trkpt>
      <trkpt lat="45.87731" lon="4.38093">
        <ele>655.2</ele>
        <time>2022-06-26T10:56:51Z</time>
      </trkpt>
      <trkpt lat="45.87729" lon="4.38094">
        <ele>655.4</ele>
        <time>2022-06-26T10:56:52Z</time>
      </trkpt>
      <trkpt lat="45.87727" lon="4.38095">
        <ele>655.4</ele>
        <time>2022-06-26T10:56:53Z</time>
      </trkpt>
      <trkpt lat="45.87725" lon="4.38096">
        <ele>655.8</ele>
        <time>2022-06-26T10:56:54Z</time>
      </trkpt>
      <trkpt lat="45.87723" lon="4.38098">
        <ele>655.8</ele>
        <time>2022-06-26T10:56:55Z</time>
      </trkpt>
      <trkpt lat="45.87721" lon="4.38099">
        <ele>655.8</ele>
        <time>2022-06-26T10:56:56Z</time>
      </trkpt>
      <trkpt lat="45.87719" lon="4.38099">
        <ele>656</ele>
        <time>2022-06-26T10:56:57Z</time>
      </trkpt>
      <trkpt lat="45.87716" lon="4.38099">
        <ele>656</ele>
        <time>2022-06-26T10:56:58Z</time>
      </trkpt>
      <trkpt lat="45.87714" lon="4.38099">
        <ele>656</ele>
        <time>2022-06-26T10:56:59Z</time>
      </trkpt>
      <trkpt lat="45.87711" lon="4.38099">
        <ele>656</ele>
        <time>2022-06-26T10:57:00Z</time>
      </trkpt>
      <trkpt lat="45.87708" lon="4.38098">
        <ele>656.2</ele>
        <time>2022-06-26T10:57:01Z</time>
      </trkpt>
      <trkpt lat="45.87706" lon="4.38096">
        <ele>656.2</ele>
        <time>2022-06-26T10:57:02Z</time>
      </trkpt>
      <trkpt lat="45.87705" lon="4.38093">
        <ele>656.2</ele>
        <time>2022-06-26T10:57:03Z</time>
      </trkpt>
      <trkpt lat="45.87703" lon="4.38089">
        <ele>656.2</ele>
        <time>2022-06-26T10:57:04Z</time>
      </trkpt>
      <trkpt lat="45.87702" lon="4.38085">
        <ele>656.4</ele>
        <time>2022-06-26T10:57:05Z</time>
      </trkpt>
      <trkpt lat="45.87701" lon="4.38081">
        <ele>656.4</ele>
        <time>2022-06-26T10:57:06Z</time>
      </trkpt>
      <trkpt lat="45.877" lon="4.38077">
        <ele>656.4</ele>
        <time>2022-06-26T10:57:07Z</time>
      </trkpt>
      <trkpt lat="45.87699" lon="4.38073">
        <ele>656.4</ele>
        <time>2022-06-26T10:57:08Z</time>
      </trkpt>
      <trkpt lat="45.87699" lon="4.3807">
        <ele>656.4</ele>
        <time>2022-06-26T10:57:09Z</time>
      </trkpt>
      <trkpt lat="45.87698" lon="4.38066">
        <ele>656.4</ele>
        <time>2022-06-26T10:57:10Z</time>
      </trkpt>
      <trkpt lat="45.87698" lon="4.38062">
        <ele>656.6</ele>
        <time>2022-06-26T10:57:11Z</time>
      </trkpt>
      <trkpt lat="45.87697" lon="4.38058">
        <ele>656.6</ele>
        <time>2022-06-26T10:57:12Z</time>
      </trkpt>
      <trkpt lat="45.87696" lon="4.38054">
        <ele>656.6</ele>
        <time>2022-06-26T10:57:13Z</time>
      </trkpt>
      <trkpt lat="45.87695" lon="4.38051">
        <ele>656.6</ele>
        <time>2022-06-26T10:57:14Z</time>
      </trkpt>
      <trkpt lat="45.87694" lon="4.38048">
        <ele>657</ele>
        <time>2022-06-26T10:57:15Z</time>
      </trkpt>
      <trkpt lat="45.87693" lon="4.38044">
        <ele>657</ele>
        <time>2022-06-26T10:57:16Z</time>
      </trkpt>
      <trkpt lat="45.87691" lon="4.3804">
        <ele>657</ele>
        <time>2022-06-26T10:57:17Z</time>
      </trkpt>
      <trkpt lat="45.8769" lon="4.38037">
        <ele>657.2</ele>
        <time>2022-06-26T10:57:18Z</time>
      </trkpt>
      <trkpt lat="45.87688" lon="4.38034">
        <ele>657.2</ele>
        <time>2022-06-26T10:57:19Z</time>
      </trkpt>
      <trkpt lat="45.87686" lon="4.3803">
        <ele>657.2</ele>
        <time>2022-06-26T10:57:20Z</time>
      </trkpt>
      <trkpt lat="45.87685" lon="4.38027">
        <ele>657.4</ele>
        <time>2022-06-26T10:57:21Z</time>
      </trkpt>
      <trkpt lat="45.87683" lon="4.38024">
        <ele>657.4</ele>
        <time>2022-06-26T10:57:22Z</time>
      </trkpt>
      <trkpt lat="45.87681" lon="4.38021">
        <ele>657.6</ele>
        <time>2022-06-26T10:57:23Z</time>
      </trkpt>
      <trkpt lat="45.87679" lon="4.38019">
        <ele>657.6</ele>
        <time>2022-06-26T10:57:24Z</time>
      </trkpt>
      <trkpt lat="45.87677" lon="4.38016">
        <ele>657.6</ele>
        <time>2022-06-26T10:57:25Z</time>
      </trkpt>
      <trkpt lat="45.87675" lon="4.38014">
        <ele>658</ele>
        <time>2022-06-26T10:57:26Z</time>
      </trkpt>
      <trkpt lat="45.87672" lon="4.38012">
        <ele>658</ele>
        <time>2022-06-26T10:57:27Z</time>
      </trkpt>
      <trkpt lat="45.8767" lon="4.38009">
        <ele>658.4</ele>
        <time>2022-06-26T10:57:28Z</time>
      </trkpt>
      <trkpt lat="45.87668" lon="4.38006">
        <ele>658.4</ele>
        <time>2022-06-26T10:57:29Z</time>
      </trkpt>
      <trkpt lat="45.87666" lon="4.38003">
        <ele>658.6</ele>
        <time>2022-06-26T10:57:30Z</time>
      </trkpt>
      <trkpt lat="45.87664" lon="4.38001">
        <ele>658.8</ele>
        <time>2022-06-26T10:57:31Z</time>
      </trkpt>
      <trkpt lat="45.87662" lon="4.37998">
        <ele>659</ele>
        <time>2022-06-26T10:57:32Z</time>
      </trkpt>
      <trkpt lat="45.8766" lon="4.37995">
        <ele>659</ele>
        <time>2022-06-26T10:57:33Z</time>
      </trkpt>
      <trkpt lat="45.87658" lon="4.37993">
        <ele>659.4</ele>
        <time>2022-06-26T10:57:34Z</time>
      </trkpt>
      <trkpt lat="45.87656" lon="4.37991">
        <ele>659.4</ele>
        <time>2022-06-26T10:57:35Z</time>
      </trkpt>
      <trkpt lat="45.87653" lon="4.37988">
        <ele>659.8</ele>
        <time>2022-06-26T10:57:36Z</time>
      </trkpt>
      <trkpt lat="45.87651" lon="4.37986">
        <ele>659.8</ele>
        <time>2022-06-26T10:57:37Z</time>
      </trkpt>
      <trkpt lat="45.87649" lon="4.37984">
        <ele>660</ele>
        <time>2022-06-26T10:57:38Z</time>
      </trkpt>
      <trkpt lat="45.87646" lon="4.37983">
        <ele>660</ele>
        <time>2022-06-26T10:57:39Z</time>
      </trkpt>
      <trkpt lat="45.87644" lon="4.37981">
        <ele>660.2</ele>
        <time>2022-06-26T10:57:40Z</time>
      </trkpt>
      <trkpt lat="45.87641" lon="4.37978">
        <ele>660.2</ele>
        <time>2022-06-26T10:57:41Z</time>
      </trkpt>
      <trkpt lat="45.87638" lon="4.37976">
        <ele>660.6</ele>
        <time>2022-06-26T10:57:42Z</time>
      </trkpt>
      <trkpt lat="45.87636" lon="4.37974">
        <ele>660.6</ele>
        <time>2022-06-26T10:57:43Z</time>
      </trkpt>
      <trkpt lat="45.87633" lon="4.37971">
        <ele>660.8</ele>
        <time>2022-06-26T10:57:44Z</time>
      </trkpt>
      <trkpt lat="45.8763" lon="4.37969">
        <ele>660.8</ele>
        <time>2022-06-26T10:57:45Z</time>
      </trkpt>
      <trkpt lat="45.87627" lon="4.37967">
        <ele>661.2</ele>
        <time>2022-06-26T10:57:46Z</time>
      </trkpt>
      <trkpt lat="45.87624" lon="4.37965">
        <ele>661.2</ele>
        <time>2022-06-26T10:57:47Z</time>
      </trkpt>
      <trkpt lat="45.87621" lon="4.37964">
        <ele>661.6</ele>
        <time>2022-06-26T10:57:48Z</time>
      </trkpt>
      <trkpt lat="45.87619" lon="4.37962">
        <ele>661.6</ele>
        <time>2022-06-26T10:57:49Z</time>
      </trkpt>
      <trkpt lat="45.87616" lon="4.37961">
        <ele>661.8</ele>
        <time>2022-06-26T10:57:50Z</time>
      </trkpt>
      <trkpt lat="45.87613" lon="4.3796">
        <ele>661.8</ele>
        <time>2022-06-26T10:57:51Z</time>
      </trkpt>
      <trkpt lat="45.8761" lon="4.37958">
        <ele>662</ele>
        <time>2022-06-26T10:57:52Z</time>
      </trkpt>
      <trkpt lat="45.87607" lon="4.37957">
        <ele>662</ele>
        <time>2022-06-26T10:57:53Z</time>
      </trkpt>
      <trkpt lat="45.87604" lon="4.37956">
        <ele>662.4</ele>
        <time>2022-06-26T10:57:54Z</time>
      </trkpt>
      <trkpt lat="45.87601" lon="4.37955">
        <ele>662.4</ele>
        <time>2022-06-26T10:57:55Z</time>
      </trkpt>
      <trkpt lat="45.87598" lon="4.37954">
        <ele>662.8</ele>
        <time>2022-06-26T10:57:56Z</time>
      </trkpt>
      <trkpt lat="45.87595" lon="4.37953">
        <ele>662.8</ele>
        <time>2022-06-26T10:57:57Z</time>
      </trkpt>
      <trkpt lat="45.87592" lon="4.37952">
        <ele>663</ele>
        <time>2022-06-26T10:57:58Z</time>
      </trkpt>
      <trkpt lat="45.87589" lon="4.37952">
        <ele>663</ele>
        <time>2022-06-26T10:57:59Z</time>
      </trkpt>
      <trkpt lat="45.87587" lon="4.37951">
        <ele>663.4</ele>
        <time>2022-06-26T10:58:00Z</time>
      </trkpt>
      <trkpt lat="45.87584" lon="4.37951">
        <ele>663.4</ele>
        <time>2022-06-26T10:58:01Z</time>
      </trkpt>
      <trkpt lat="45.87581" lon="4.37951">
        <ele>663.6</ele>
        <time>2022-06-26T10:58:02Z</time>
      </trkpt>
      <trkpt lat="45.87578" lon="4.3795">
        <ele>663.6</ele>
        <time>2022-06-26T10:58:03Z</time>
      </trkpt>
      <trkpt lat="45.87575" lon="4.3795">
        <ele>664</ele>
        <time>2022-06-26T10:58:04Z</time>
      </trkpt>
      <trkpt lat="45.87572" lon="4.37951">
        <ele>664</ele>
        <time>2022-06-26T10:58:05Z</time>
      </trkpt>
      <trkpt lat="45.8757" lon="4.37951">
        <ele>664.4</ele>
        <time>2022-06-26T10:58:06Z</time>
      </trkpt>
      <trkpt lat="45.87567" lon="4.37951">
        <ele>664.4</ele>
        <time>2022-06-26T10:58:07Z</time>
      </trkpt>
      <trkpt lat="45.87564" lon="4.37952">
        <ele>664.6</ele>
        <time>2022-06-26T10:58:08Z</time>
      </trkpt>
      <trkpt lat="45.87561" lon="4.37952">
        <ele>664.8</ele>
        <time>2022-06-26T10:58:09Z</time>
      </trkpt>
      <trkpt lat="45.87559" lon="4.37953">
        <ele>664.8</ele>
        <time>2022-06-26T10:58:10Z</time>
      </trkpt>
      <trkpt lat="45.87556" lon="4.37953">
        <ele>664.8</ele>
        <time>2022-06-26T10:58:11Z</time>
      </trkpt>
      <trkpt lat="45.87553" lon="4.37955">
        <ele>665.2</ele>
        <time>2022-06-26T10:58:12Z</time>
      </trkpt>
      <trkpt lat="45.87551" lon="4.37956">
        <ele>665.2</ele>
        <time>2022-06-26T10:58:13Z</time>
      </trkpt>
      <trkpt lat="45.87548" lon="4.37957">
        <ele>665.6</ele>
        <time>2022-06-26T10:58:14Z</time>
      </trkpt>
      <trkpt lat="45.87546" lon="4.37958">
        <ele>665.6</ele>
        <time>2022-06-26T10:58:15Z</time>
      </trkpt>
      <trkpt lat="45.87543" lon="4.3796">
        <ele>666</ele>
        <time>2022-06-26T10:58:16Z</time>
      </trkpt>
      <trkpt lat="45.8754" lon="4.37961">
        <ele>666</ele>
        <time>2022-06-26T10:58:17Z</time>
      </trkpt>
      <trkpt lat="45.87538" lon="4.37962">
        <ele>666</ele>
        <time>2022-06-26T10:58:18Z</time>
      </trkpt>
      <trkpt lat="45.87535" lon="4.37964">
        <ele>666.2</ele>
        <time>2022-06-26T10:58:19Z</time>
      </trkpt>
      <trkpt lat="45.87532" lon="4.37965">
        <ele>666.2</ele>
        <time>2022-06-26T10:58:20Z</time>
      </trkpt>
      <trkpt lat="45.8753" lon="4.37966">
        <ele>666.4</ele>
        <time>2022-06-26T10:58:21Z</time>
      </trkpt>
      <trkpt lat="45.87527" lon="4.37967">
        <ele>666.4</ele>
        <time>2022-06-26T10:58:22Z</time>
      </trkpt>
      <trkpt lat="45.87524" lon="4.37967">
        <ele>666.6</ele>
        <time>2022-06-26T10:58:23Z</time>
      </trkpt>
      <trkpt lat="45.87521" lon="4.37968">
        <ele>666.6</ele>
        <time>2022-06-26T10:58:24Z</time>
      </trkpt>
      <trkpt lat="45.87518" lon="4.37968">
        <ele>666.6</ele>
        <time>2022-06-26T10:58:25Z</time>
      </trkpt>
      <trkpt lat="45.87515" lon="4.37968">
        <ele>666.8</ele>
        <time>2022-06-26T10:58:26Z</time>
      </trkpt>
      <trkpt lat="45.87513" lon="4.37968">
        <ele>666.8</ele>
        <time>2022-06-26T10:58:27Z</time>
      </trkpt>
      <trkpt lat="45.8751" lon="4.37967">
        <ele>667.2</ele>
        <time>2022-06-26T10:58:28Z</time>
      </trkpt>
      <trkpt lat="45.87507" lon="4.37966">
        <ele>667.4</ele>
        <time>2022-06-26T10:58:29Z</time>
      </trkpt>
      <trkpt lat="45.87504" lon="4.37965">
        <ele>667.4</ele>
        <time>2022-06-26T10:58:30Z</time>
      </trkpt>
      <trkpt lat="45.87502" lon="4.37963">
        <ele>667.8</ele>
        <time>2022-06-26T10:58:31Z</time>
      </trkpt>
      <trkpt lat="45.87499" lon="4.37962">
        <ele>667.8</ele>
        <time>2022-06-26T10:58:32Z</time>
      </trkpt>
      <trkpt lat="45.87496" lon="4.3796">
        <ele>668.2</ele>
        <time>2022-06-26T10:58:33Z</time>
      </trkpt>
      <trkpt lat="45.87494" lon="4.37959">
        <ele>668.4</ele>
        <time>2022-06-26T10:58:34Z</time>
      </trkpt>
      <trkpt lat="45.87492" lon="4.37957">
        <ele>668.4</ele>
        <time>2022-06-26T10:58:35Z</time>
      </trkpt>
      <trkpt lat="45.87489" lon="4.37955">
        <ele>668.6</ele>
        <time>2022-06-26T10:58:36Z</time>
      </trkpt>
      <trkpt lat="45.87487" lon="4.37952">
        <ele>668.6</ele>
        <time>2022-06-26T10:58:37Z</time>
      </trkpt>
      <trkpt lat="45.87485" lon="4.3795">
        <ele>669</ele>
        <time>2022-06-26T10:58:38Z</time>
      </trkpt>
      <trkpt lat="45.87483" lon="4.37948">
        <ele>669</ele>
        <time>2022-06-26T10:58:39Z</time>
      </trkpt>
      <trkpt lat="45.87481" lon="4.37945">
        <ele>669.2</ele>
        <time>2022-06-26T10:58:40Z</time>
      </trkpt>
      <trkpt lat="45.87479" lon="4.37943">
        <ele>669.2</ele>
        <time>2022-06-26T10:58:41Z</time>
      </trkpt>
      <trkpt lat="45.87477" lon="4.3794">
        <ele>669.6</ele>
        <time>2022-06-26T10:58:42Z</time>
      </trkpt>
      <trkpt lat="45.87475" lon="4.37937">
        <ele>669.8</ele>
        <time>2022-06-26T10:58:43Z</time>
      </trkpt>
      <trkpt lat="45.87473" lon="4.37934">
        <ele>669.8</ele>
        <time>2022-06-26T10:58:44Z</time>
      </trkpt>
      <trkpt lat="45.87471" lon="4.37931">
        <ele>670.2</ele>
        <time>2022-06-26T10:58:45Z</time>
      </trkpt>
      <trkpt lat="45.8747" lon="4.37928">
        <ele>670.2</ele>
        <time>2022-06-26T10:58:46Z</time>
      </trkpt>
      <trkpt lat="45.87468" lon="4.37925">
        <ele>670.4</ele>
        <time>2022-06-26T10:58:47Z</time>
      </trkpt>
      <trkpt lat="45.87464" lon="4.3792">
        <ele>670.6</ele>
        <time>2022-06-26T10:58:48Z</time>
      </trkpt>
      <trkpt lat="45.87462" lon="4.37918">
        <ele>670.6</ele>
        <time>2022-06-26T10:58:49Z</time>
      </trkpt>
      <trkpt lat="45.8746" lon="4.37915">
        <ele>671</ele>
        <time>2022-06-26T10:58:50Z</time>
      </trkpt>
      <trkpt lat="45.87459" lon="4.37912">
        <ele>671</ele>
        <time>2022-06-26T10:58:51Z</time>
      </trkpt>
      <trkpt lat="45.87457" lon="4.3791">
        <ele>671.2</ele>
        <time>2022-06-26T10:58:52Z</time>
      </trkpt>
      <trkpt lat="45.87455" lon="4.37907">
        <ele>671.2</ele>
        <time>2022-06-26T10:58:53Z</time>
      </trkpt>
      <trkpt lat="45.87454" lon="4.37904">
        <ele>671.4</ele>
        <time>2022-06-26T10:58:54Z</time>
      </trkpt>
      <trkpt lat="45.87452" lon="4.37901">
        <ele>671.4</ele>
        <time>2022-06-26T10:58:55Z</time>
      </trkpt>
      <trkpt lat="45.8745" lon="4.37898">
        <ele>671.8</ele>
        <time>2022-06-26T10:58:56Z</time>
      </trkpt>
      <trkpt lat="45.87449" lon="4.37895">
        <ele>671.8</ele>
        <time>2022-06-26T10:58:57Z</time>
      </trkpt>
      <trkpt lat="45.87447" lon="4.37892">
        <ele>672</ele>
        <time>2022-06-26T10:58:58Z</time>
      </trkpt>
      <trkpt lat="45.87445" lon="4.3789">
        <ele>672</ele>
        <time>2022-06-26T10:58:59Z</time>
      </trkpt>
      <trkpt lat="45.87443" lon="4.37887">
        <ele>672.4</ele>
        <time>2022-06-26T10:59:00Z</time>
      </trkpt>
      <trkpt lat="45.87442" lon="4.37883">
        <ele>672.4</ele>
        <time>2022-06-26T10:59:01Z</time>
      </trkpt>
      <trkpt lat="45.8744" lon="4.3788">
        <ele>672.6</ele>
        <time>2022-06-26T10:59:02Z</time>
      </trkpt>
      <trkpt lat="45.87438" lon="4.37876">
        <ele>672.6</ele>
        <time>2022-06-26T10:59:03Z</time>
      </trkpt>
      <trkpt lat="45.87437" lon="4.37873">
        <ele>672.6</ele>
        <time>2022-06-26T10:59:04Z</time>
      </trkpt>
      <trkpt lat="45.87435" lon="4.3787">
        <ele>673</ele>
        <time>2022-06-26T10:59:05Z</time>
      </trkpt>
      <trkpt lat="45.87434" lon="4.37866">
        <ele>673</ele>
        <time>2022-06-26T10:59:06Z</time>
      </trkpt>
      <trkpt lat="45.87432" lon="4.37863">
        <ele>673.4</ele>
        <time>2022-06-26T10:59:07Z</time>
      </trkpt>
      <trkpt lat="45.8743" lon="4.3786">
        <ele>673.4</ele>
        <time>2022-06-26T10:59:08Z</time>
      </trkpt>
      <trkpt lat="45.87429" lon="4.37856">
        <ele>673.6</ele>
        <time>2022-06-26T10:59:09Z</time>
      </trkpt>
      <trkpt lat="45.87427" lon="4.37853">
        <ele>673.6</ele>
        <time>2022-06-26T10:59:10Z</time>
      </trkpt>
      <trkpt lat="45.87425" lon="4.3785">
        <ele>673.8</ele>
        <time>2022-06-26T10:59:11Z</time>
      </trkpt>
      <trkpt lat="45.87424" lon="4.37846">
        <ele>673.8</ele>
        <time>2022-06-26T10:59:12Z</time>
      </trkpt>
      <trkpt lat="45.87422" lon="4.37843">
        <ele>674</ele>
        <time>2022-06-26T10:59:13Z</time>
      </trkpt>
      <trkpt lat="45.87421" lon="4.3784">
        <ele>674</ele>
        <time>2022-06-26T10:59:14Z</time>
      </trkpt>
      <trkpt lat="45.8742" lon="4.37837">
        <ele>674.4</ele>
        <time>2022-06-26T10:59:15Z</time>
      </trkpt>
      <trkpt lat="45.87418" lon="4.37833">
        <ele>674.4</ele>
        <time>2022-06-26T10:59:16Z</time>
      </trkpt>
      <trkpt lat="45.87417" lon="4.3783">
        <ele>674.8</ele>
        <time>2022-06-26T10:59:17Z</time>
      </trkpt>
      <trkpt lat="45.87416" lon="4.37827">
        <ele>674.8</ele>
        <time>2022-06-26T10:59:18Z</time>
      </trkpt>
      <trkpt lat="45.87414" lon="4.37823">
        <ele>675</ele>
        <time>2022-06-26T10:59:19Z</time>
      </trkpt>
      <trkpt lat="45.87413" lon="4.3782">
        <ele>675</ele>
        <time>2022-06-26T10:59:20Z</time>
      </trkpt>
      <trkpt lat="45.87412" lon="4.37816">
        <ele>675.2</ele>
        <time>2022-06-26T10:59:21Z</time>
      </trkpt>
      <trkpt lat="45.87411" lon="4.37813">
        <ele>675.2</ele>
        <time>2022-06-26T10:59:22Z</time>
      </trkpt>
      <trkpt lat="45.8741" lon="4.37809">
        <ele>675.6</ele>
        <time>2022-06-26T10:59:23Z</time>
      </trkpt>
      <trkpt lat="45.87409" lon="4.37806">
        <ele>675.6</ele>
        <time>2022-06-26T10:59:24Z</time>
      </trkpt>
      <trkpt lat="45.87408" lon="4.37802">
        <ele>675.8</ele>
        <time>2022-06-26T10:59:25Z</time>
      </trkpt>
      <trkpt lat="45.87407" lon="4.37799">
        <ele>675.8</ele>
        <time>2022-06-26T10:59:26Z</time>
      </trkpt>
      <trkpt lat="45.87406" lon="4.37795">
        <ele>676</ele>
        <time>2022-06-26T10:59:27Z</time>
      </trkpt>
      <trkpt lat="45.87405" lon="4.37791">
        <ele>676</ele>
        <time>2022-06-26T10:59:28Z</time>
      </trkpt>
      <trkpt lat="45.87404" lon="4.37787">
        <ele>676.4</ele>
        <time>2022-06-26T10:59:29Z</time>
      </trkpt>
      <trkpt lat="45.87404" lon="4.37784">
        <ele>676.4</ele>
        <time>2022-06-26T10:59:30Z</time>
      </trkpt>
      <trkpt lat="45.87403" lon="4.3778">
        <ele>676.8</ele>
        <time>2022-06-26T10:59:31Z</time>
      </trkpt>
      <trkpt lat="45.87402" lon="4.37777">
        <ele>676.8</ele>
        <time>2022-06-26T10:59:32Z</time>
      </trkpt>
      <trkpt lat="45.87402" lon="4.37773">
        <ele>677</ele>
        <time>2022-06-26T10:59:33Z</time>
      </trkpt>
      <trkpt lat="45.87401" lon="4.3777">
        <ele>677</ele>
        <time>2022-06-26T10:59:34Z</time>
      </trkpt>
      <trkpt lat="45.874" lon="4.37766">
        <ele>677.2</ele>
        <time>2022-06-26T10:59:35Z</time>
      </trkpt>
      <trkpt lat="45.874" lon="4.37762">
        <ele>677.2</ele>
        <time>2022-06-26T10:59:36Z</time>
      </trkpt>
      <trkpt lat="45.874" lon="4.37759">
        <ele>677.6</ele>
        <time>2022-06-26T10:59:37Z</time>
      </trkpt>
      <trkpt lat="45.87399" lon="4.37755">
        <ele>677.6</ele>
        <time>2022-06-26T10:59:38Z</time>
      </trkpt>
      <trkpt lat="45.87398" lon="4.37751">
        <ele>678</ele>
        <time>2022-06-26T10:59:39Z</time>
      </trkpt>
      <trkpt lat="45.87398" lon="4.37748">
        <ele>678</ele>
        <time>2022-06-26T10:59:40Z</time>
      </trkpt>
      <trkpt lat="45.87397" lon="4.37744">
        <ele>678.2</ele>
        <time>2022-06-26T10:59:41Z</time>
      </trkpt>
      <trkpt lat="45.87396" lon="4.3774">
        <ele>678.2</ele>
        <time>2022-06-26T10:59:42Z</time>
      </trkpt>
      <trkpt lat="45.87396" lon="4.37737">
        <ele>678.6</ele>
        <time>2022-06-26T10:59:43Z</time>
      </trkpt>
      <trkpt lat="45.87395" lon="4.37734">
        <ele>678.6</ele>
        <time>2022-06-26T10:59:44Z</time>
      </trkpt>
      <trkpt lat="45.87395" lon="4.3773">
        <ele>678.8</ele>
        <time>2022-06-26T10:59:45Z</time>
      </trkpt>
      <trkpt lat="45.87394" lon="4.37727">
        <ele>678.8</ele>
        <time>2022-06-26T10:59:46Z</time>
      </trkpt>
      <trkpt lat="45.87393" lon="4.37724">
        <ele>679.2</ele>
        <time>2022-06-26T10:59:47Z</time>
      </trkpt>
      <trkpt lat="45.87393" lon="4.3772">
        <ele>679.2</ele>
        <time>2022-06-26T10:59:48Z</time>
      </trkpt>
      <trkpt lat="45.87392" lon="4.37717">
        <ele>679.4</ele>
        <time>2022-06-26T10:59:49Z</time>
      </trkpt>
      <trkpt lat="45.87391" lon="4.37714">
        <ele>679.4</ele>
        <time>2022-06-26T10:59:50Z</time>
      </trkpt>
      <trkpt lat="45.8739" lon="4.37711">
        <ele>679.6</ele>
        <time>2022-06-26T10:59:51Z</time>
      </trkpt>
      <trkpt lat="45.87389" lon="4.37707">
        <ele>679.6</ele>
        <time>2022-06-26T10:59:52Z</time>
      </trkpt>
      <trkpt lat="45.87389" lon="4.37704">
        <ele>680</ele>
        <time>2022-06-26T10:59:53Z</time>
      </trkpt>
      <trkpt lat="45.87388" lon="4.37701">
        <ele>680</ele>
        <time>2022-06-26T10:59:54Z</time>
      </trkpt>
      <trkpt lat="45.87387" lon="4.37697">
        <ele>680.2</ele>
        <time>2022-06-26T10:59:55Z</time>
      </trkpt>
      <trkpt lat="45.87387" lon="4.37694">
        <ele>680.2</ele>
        <time>2022-06-26T10:59:56Z</time>
      </trkpt>
      <trkpt lat="45.87386" lon="4.37691">
        <ele>680.4</ele>
        <time>2022-06-26T10:59:57Z</time>
      </trkpt>
      <trkpt lat="45.87385" lon="4.37688">
        <ele>680.4</ele>
        <time>2022-06-26T10:59:58Z</time>
      </trkpt>
      <trkpt lat="45.87384" lon="4.37685">
        <ele>680.6</ele>
        <time>2022-06-26T10:59:59Z</time>
      </trkpt>
      <trkpt lat="45.87383" lon="4.37682">
        <ele>680.6</ele>
        <time>2022-06-26T11:00:00Z</time>
      </trkpt>
      <trkpt lat="45.87382" lon="4.37679">
        <ele>681</ele>
        <time>2022-06-26T11:00:01Z</time>
      </trkpt>
      <trkpt lat="45.87382" lon="4.37676">
        <ele>681</ele>
        <time>2022-06-26T11:00:02Z</time>
      </trkpt>
      <trkpt lat="45.87381" lon="4.37673">
        <ele>681.2</ele>
        <time>2022-06-26T11:00:03Z</time>
      </trkpt>
      <trkpt lat="45.8738" lon="4.3767">
        <ele>681.2</ele>
        <time>2022-06-26T11:00:04Z</time>
      </trkpt>
      <trkpt lat="45.87379" lon="4.37667">
        <ele>681.2</ele>
        <time>2022-06-26T11:00:05Z</time>
      </trkpt>
      <trkpt lat="45.87378" lon="4.37664">
        <ele>681.4</ele>
        <time>2022-06-26T11:00:06Z</time>
      </trkpt>
      <trkpt lat="45.87377" lon="4.37661">
        <ele>681.4</ele>
        <time>2022-06-26T11:00:07Z</time>
      </trkpt>
      <trkpt lat="45.87377" lon="4.37658">
        <ele>681.6</ele>
        <time>2022-06-26T11:00:08Z</time>
      </trkpt>
      <trkpt lat="45.87376" lon="4.37655">
        <ele>681.6</ele>
        <time>2022-06-26T11:00:09Z</time>
      </trkpt>
      <trkpt lat="45.87375" lon="4.37653">
        <ele>682</ele>
        <time>2022-06-26T11:00:10Z</time>
      </trkpt>
      <trkpt lat="45.87374" lon="4.3765">
        <ele>682</ele>
        <time>2022-06-26T11:00:11Z</time>
      </trkpt>
      <trkpt lat="45.87373" lon="4.37648">
        <ele>682.2</ele>
        <time>2022-06-26T11:00:12Z</time>
      </trkpt>
      <trkpt lat="45.87371" lon="4.37646">
        <ele>682.2</ele>
        <time>2022-06-26T11:00:13Z</time>
      </trkpt>
      <trkpt lat="45.8737" lon="4.37643">
        <ele>682.2</ele>
        <time>2022-06-26T11:00:14Z</time>
      </trkpt>
      <trkpt lat="45.87369" lon="4.3764">
        <ele>682.4</ele>
        <time>2022-06-26T11:00:15Z</time>
      </trkpt>
      <trkpt lat="45.87368" lon="4.37638">
        <ele>682.4</ele>
        <time>2022-06-26T11:00:16Z</time>
      </trkpt>
      <trkpt lat="45.87368" lon="4.37635">
        <ele>682.8</ele>
        <time>2022-06-26T11:00:17Z</time>
      </trkpt>
      <trkpt lat="45.87367" lon="4.37631">
        <ele>683</ele>
        <time>2022-06-26T11:00:18Z</time>
      </trkpt>
      <trkpt lat="45.87366" lon="4.37628">
        <ele>683</ele>
        <time>2022-06-26T11:00:19Z</time>
      </trkpt>
      <trkpt lat="45.87366" lon="4.37625">
        <ele>683.2</ele>
        <time>2022-06-26T11:00:20Z</time>
      </trkpt>
      <trkpt lat="45.87365" lon="4.37622">
        <ele>683.2</ele>
        <time>2022-06-26T11:00:21Z</time>
      </trkpt>
      <trkpt lat="45.87364" lon="4.37618">
        <ele>683.6</ele>
        <time>2022-06-26T11:00:22Z</time>
      </trkpt>
      <trkpt lat="45.87364" lon="4.37617">
        <ele>683.6</ele>
        <time>2022-06-26T11:00:23Z</time>
      </trkpt>
      <trkpt lat="45.87363" lon="4.37615">
        <ele>683.6</ele>
        <time>2022-06-26T11:00:24Z</time>
      </trkpt>
      <trkpt lat="45.87362" lon="4.37613">
        <ele>683.6</ele>
        <time>2022-06-26T11:00:25Z</time>
      </trkpt>
      <trkpt lat="45.87362" lon="4.37612">
        <ele>684</ele>
        <time>2022-06-26T11:03:57Z</time>
      </trkpt>
      <trkpt lat="45.87361" lon="4.3761">
        <ele>684</ele>
        <time>2022-06-26T11:03:58Z</time>
      </trkpt>
      <trkpt lat="45.87361" lon="4.37608">
        <ele>684</ele>
        <time>2022-06-26T11:03:59Z</time>
      </trkpt>
      <trkpt lat="45.8736" lon="4.37606">
        <ele>684</ele>
        <time>2022-06-26T11:04:00Z</time>
      </trkpt>
      <trkpt lat="45.87359" lon="4.37604">
        <ele>684.2</ele>
        <time>2022-06-26T11:04:01Z</time>
      </trkpt>
      <trkpt lat="45.87358" lon="4.37602">
        <ele>684.2</ele>
        <time>2022-06-26T11:04:02Z</time>
      </trkpt>
      <trkpt lat="45.87358" lon="4.37599">
        <ele>684.2</ele>
        <time>2022-06-26T11:04:03Z</time>
      </trkpt>
      <trkpt lat="45.87357" lon="4.37597">
        <ele>684.2</ele>
        <time>2022-06-26T11:04:04Z</time>
      </trkpt>
      <trkpt lat="45.87355" lon="4.37594">
        <ele>684.4</ele>
        <time>2022-06-26T11:04:05Z</time>
      </trkpt>
      <trkpt lat="45.87354" lon="4.37591">
        <ele>684.4</ele>
        <time>2022-06-26T11:04:06Z</time>
      </trkpt>
      <trkpt lat="45.87353" lon="4.37589">
        <ele>684.4</ele>
        <time>2022-06-26T11:04:07Z</time>
      </trkpt>
      <trkpt lat="45.87352" lon="4.37586">
        <ele>684.8</ele>
        <time>2022-06-26T11:04:08Z</time>
      </trkpt>
      <trkpt lat="45.87351" lon="4.37583">
        <ele>684.8</ele>
        <time>2022-06-26T11:04:09Z</time>
      </trkpt>
      <trkpt lat="45.8735" lon="4.3758">
        <ele>684.8</ele>
        <time>2022-06-26T11:04:10Z</time>
      </trkpt>
      <trkpt lat="45.87349" lon="4.37577">
        <ele>685</ele>
        <time>2022-06-26T11:04:11Z</time>
      </trkpt>
      <trkpt lat="45.87348" lon="4.37574">
        <ele>685</ele>
        <time>2022-06-26T11:04:12Z</time>
      </trkpt>
      <trkpt lat="45.87347" lon="4.37571">
        <ele>685.4</ele>
        <time>2022-06-26T11:04:13Z</time>
      </trkpt>
      <trkpt lat="45.87347" lon="4.37569">
        <ele>685.4</ele>
        <time>2022-06-26T11:04:14Z</time>
      </trkpt>
      <trkpt lat="45.87346" lon="4.37566">
        <ele>685.6</ele>
        <time>2022-06-26T11:04:15Z</time>
      </trkpt>
      <trkpt lat="45.87344" lon="4.37563">
        <ele>685.6</ele>
        <time>2022-06-26T11:04:16Z</time>
      </trkpt>
      <trkpt lat="45.87343" lon="4.3756">
        <ele>685.8</ele>
        <time>2022-06-26T11:04:17Z</time>
      </trkpt>
      <trkpt lat="45.87342" lon="4.37557">
        <ele>685.8</ele>
        <time>2022-06-26T11:04:18Z</time>
      </trkpt>
      <trkpt lat="45.87341" lon="4.37555">
        <ele>686.2</ele>
        <time>2022-06-26T11:04:19Z</time>
      </trkpt>
      <trkpt lat="45.8734" lon="4.37552">
        <ele>686.2</ele>
        <time>2022-06-26T11:04:20Z</time>
      </trkpt>
      <trkpt lat="45.87338" lon="4.3755">
        <ele>686.4</ele>
        <time>2022-06-26T11:04:21Z</time>
      </trkpt>
      <trkpt lat="45.87337" lon="4.37548">
        <ele>686.4</ele>
        <time>2022-06-26T11:04:22Z</time>
      </trkpt>
      <trkpt lat="45.87335" lon="4.37545">
        <ele>686.6</ele>
        <time>2022-06-26T11:04:23Z</time>
      </trkpt>
      <trkpt lat="45.87334" lon="4.37543">
        <ele>686.6</ele>
        <time>2022-06-26T11:04:24Z</time>
      </trkpt>
      <trkpt lat="45.87332" lon="4.37541">
        <ele>687</ele>
        <time>2022-06-26T11:04:25Z</time>
      </trkpt>
      <trkpt lat="45.87331" lon="4.37539">
        <ele>687</ele>
        <time>2022-06-26T11:04:26Z</time>
      </trkpt>
      <trkpt lat="45.87329" lon="4.37537">
        <ele>687.2</ele>
        <time>2022-06-26T11:04:27Z</time>
      </trkpt>
      <trkpt lat="45.87327" lon="4.37535">
        <ele>687.2</ele>
        <time>2022-06-26T11:04:28Z</time>
      </trkpt>
      <trkpt lat="45.87325" lon="4.37533">
        <ele>687.6</ele>
        <time>2022-06-26T11:04:29Z</time>
      </trkpt>
      <trkpt lat="45.87323" lon="4.37531">
        <ele>687.6</ele>
        <time>2022-06-26T11:04:30Z</time>
      </trkpt>
      <trkpt lat="45.87321" lon="4.3753">
        <ele>687.8</ele>
        <time>2022-06-26T11:04:31Z</time>
      </trkpt>
      <trkpt lat="45.87319" lon="4.37528">
        <ele>687.8</ele>
        <time>2022-06-26T11:04:32Z</time>
      </trkpt>
      <trkpt lat="45.87317" lon="4.37526">
        <ele>688.2</ele>
        <time>2022-06-26T11:04:33Z</time>
      </trkpt>
      <trkpt lat="45.87315" lon="4.37525">
        <ele>688.2</ele>
        <time>2022-06-26T11:04:34Z</time>
      </trkpt>
      <trkpt lat="45.87313" lon="4.37523">
        <ele>688.4</ele>
        <time>2022-06-26T11:04:35Z</time>
      </trkpt>
      <trkpt lat="45.87311" lon="4.37521">
        <ele>688.4</ele>
        <time>2022-06-26T11:04:36Z</time>
      </trkpt>
      <trkpt lat="45.87309" lon="4.3752">
        <ele>688.6</ele>
        <time>2022-06-26T11:04:37Z</time>
      </trkpt>
      <trkpt lat="45.87306" lon="4.37518">
        <ele>688.6</ele>
        <time>2022-06-26T11:04:38Z</time>
      </trkpt>
      <trkpt lat="45.87304" lon="4.37517">
        <ele>689</ele>
        <time>2022-06-26T11:04:39Z</time>
      </trkpt>
      <trkpt lat="45.87302" lon="4.37517">
        <ele>689</ele>
        <time>2022-06-26T11:04:40Z</time>
      </trkpt>
      <trkpt lat="45.87299" lon="4.37516">
        <ele>689.2</ele>
        <time>2022-06-26T11:04:41Z</time>
      </trkpt>
      <trkpt lat="45.87297" lon="4.37515">
        <ele>689.2</ele>
        <time>2022-06-26T11:04:42Z</time>
      </trkpt>
      <trkpt lat="45.87294" lon="4.37514">
        <ele>689.4</ele>
        <time>2022-06-26T11:04:43Z</time>
      </trkpt>
      <trkpt lat="45.87291" lon="4.37513">
        <ele>689.4</ele>
        <time>2022-06-26T11:04:44Z</time>
      </trkpt>
      <trkpt lat="45.87289" lon="4.37512">
        <ele>689.8</ele>
        <time>2022-06-26T11:04:45Z</time>
      </trkpt>
      <trkpt lat="45.87286" lon="4.37511">
        <ele>689.8</ele>
        <time>2022-06-26T11:04:46Z</time>
      </trkpt>
      <trkpt lat="45.87283" lon="4.3751">
        <ele>690</ele>
        <time>2022-06-26T11:04:47Z</time>
      </trkpt>
      <trkpt lat="45.87281" lon="4.37509">
        <ele>690</ele>
        <time>2022-06-26T11:04:48Z</time>
      </trkpt>
      <trkpt lat="45.87278" lon="4.37508">
        <ele>690.2</ele>
        <time>2022-06-26T11:04:49Z</time>
      </trkpt>
      <trkpt lat="45.87275" lon="4.37507">
        <ele>690.2</ele>
        <time>2022-06-26T11:04:50Z</time>
      </trkpt>
      <trkpt lat="45.87272" lon="4.37506">
        <ele>690.6</ele>
        <time>2022-06-26T11:04:51Z</time>
      </trkpt>
      <trkpt lat="45.87269" lon="4.37506">
        <ele>690.6</ele>
        <time>2022-06-26T11:04:52Z</time>
      </trkpt>
      <trkpt lat="45.87266" lon="4.37505">
        <ele>690.8</ele>
        <time>2022-06-26T11:04:53Z</time>
      </trkpt>
      <trkpt lat="45.87264" lon="4.37505">
        <ele>690.8</ele>
        <time>2022-06-26T11:04:54Z</time>
      </trkpt>
      <trkpt lat="45.8726" lon="4.37504">
        <ele>691</ele>
        <time>2022-06-26T11:04:55Z</time>
      </trkpt>
      <trkpt lat="45.87257" lon="4.37504">
        <ele>691</ele>
        <time>2022-06-26T11:04:56Z</time>
      </trkpt>
      <trkpt lat="45.87254" lon="4.37503">
        <ele>691.4</ele>
        <time>2022-06-26T11:04:57Z</time>
      </trkpt>
      <trkpt lat="45.87251" lon="4.37503">
        <ele>691.4</ele>
        <time>2022-06-26T11:04:58Z</time>
      </trkpt>
      <trkpt lat="45.87248" lon="4.37503">
        <ele>691.6</ele>
        <time>2022-06-26T11:04:59Z</time>
      </trkpt>
      <trkpt lat="45.87245" lon="4.37503">
        <ele>691.6</ele>
        <time>2022-06-26T11:05:00Z</time>
      </trkpt>
      <trkpt lat="45.87242" lon="4.37504">
        <ele>692</ele>
        <time>2022-06-26T11:05:01Z</time>
      </trkpt>
      <trkpt lat="45.87239" lon="4.37505">
        <ele>692.2</ele>
        <time>2022-06-26T11:05:02Z</time>
      </trkpt>
      <trkpt lat="45.87237" lon="4.37506">
        <ele>692.2</ele>
        <time>2022-06-26T11:05:03Z</time>
      </trkpt>
      <trkpt lat="45.87234" lon="4.37507">
        <ele>692.6</ele>
        <time>2022-06-26T11:05:04Z</time>
      </trkpt>
      <trkpt lat="45.87231" lon="4.37507">
        <ele>692.6</ele>
        <time>2022-06-26T11:05:05Z</time>
      </trkpt>
      <trkpt lat="45.87228" lon="4.37508">
        <ele>692.8</ele>
        <time>2022-06-26T11:05:06Z</time>
      </trkpt>
      <trkpt lat="45.87225" lon="4.37509">
        <ele>693</ele>
        <time>2022-06-26T11:05:07Z</time>
      </trkpt>
      <trkpt lat="45.87222" lon="4.3751">
        <ele>693.4</ele>
        <time>2022-06-26T11:05:08Z</time>
      </trkpt>
      <trkpt lat="45.87219" lon="4.37511">
        <ele>693.4</ele>
        <time>2022-06-26T11:05:09Z</time>
      </trkpt>
      <trkpt lat="45.87216" lon="4.37513">
        <ele>693.6</ele>
        <time>2022-06-26T11:05:10Z</time>
      </trkpt>
      <trkpt lat="45.87213" lon="4.37515">
        <ele>693.6</ele>
        <time>2022-06-26T11:05:11Z</time>
      </trkpt>
      <trkpt lat="45.8721" lon="4.37516">
        <ele>693.8</ele>
        <time>2022-06-26T11:05:12Z</time>
      </trkpt>
      <trkpt lat="45.87208" lon="4.37518">
        <ele>693.8</ele>
        <time>2022-06-26T11:05:13Z</time>
      </trkpt>
      <trkpt lat="45.87205" lon="4.37519">
        <ele>693.8</ele>
        <time>2022-06-26T11:05:14Z</time>
      </trkpt>
      <trkpt lat="45.87202" lon="4.37519">
        <ele>694.2</ele>
        <time>2022-06-26T11:05:15Z</time>
      </trkpt>
      <trkpt lat="45.87199" lon="4.3752">
        <ele>694.2</ele>
        <time>2022-06-26T11:05:16Z</time>
      </trkpt>
      <trkpt lat="45.87196" lon="4.37521">
        <ele>694.6</ele>
        <time>2022-06-26T11:05:17Z</time>
      </trkpt>
      <trkpt lat="45.87193" lon="4.37522">
        <ele>694.6</ele>
        <time>2022-06-26T11:05:18Z</time>
      </trkpt>
      <trkpt lat="45.8719" lon="4.37522">
        <ele>694.8</ele>
        <time>2022-06-26T11:05:19Z</time>
      </trkpt>
      <trkpt lat="45.87187" lon="4.37522">
        <ele>694.8</ele>
        <time>2022-06-26T11:05:20Z</time>
      </trkpt>
      <trkpt lat="45.87184" lon="4.37523">
        <ele>695.2</ele>
        <time>2022-06-26T11:05:21Z</time>
      </trkpt>
      <trkpt lat="45.87181" lon="4.37523">
        <ele>695.4</ele>
        <time>2022-06-26T11:05:22Z</time>
      </trkpt>
      <trkpt lat="45.87179" lon="4.37523">
        <ele>695.6</ele>
        <time>2022-06-26T11:05:23Z</time>
      </trkpt>
      <trkpt lat="45.87176" lon="4.37523">
        <ele>695.6</ele>
        <time>2022-06-26T11:05:24Z</time>
      </trkpt>
      <trkpt lat="45.87173" lon="4.37524">
        <ele>696</ele>
        <time>2022-06-26T11:05:25Z</time>
      </trkpt>
      <trkpt lat="45.8717" lon="4.37524">
        <ele>696</ele>
        <time>2022-06-26T11:05:26Z</time>
      </trkpt>
      <trkpt lat="45.87167" lon="4.37524">
        <ele>696.4</ele>
        <time>2022-06-26T11:05:27Z</time>
      </trkpt>
      <trkpt lat="45.87164" lon="4.37524">
        <ele>696.6</ele>
        <time>2022-06-26T11:05:28Z</time>
      </trkpt>
      <trkpt lat="45.87161" lon="4.37525">
        <ele>696.8</ele>
        <time>2022-06-26T11:05:29Z</time>
      </trkpt>
      <trkpt lat="45.87158" lon="4.37526">
        <ele>696.8</ele>
        <time>2022-06-26T11:05:30Z</time>
      </trkpt>
      <trkpt lat="45.87156" lon="4.37527">
        <ele>697.2</ele>
        <time>2022-06-26T11:05:31Z</time>
      </trkpt>
      <trkpt lat="45.87154" lon="4.37528">
        <ele>697.6</ele>
        <time>2022-06-26T11:05:32Z</time>
      </trkpt>
      <trkpt lat="45.87151" lon="4.37529">
        <ele>697.6</ele>
        <time>2022-06-26T11:05:33Z</time>
      </trkpt>
      <trkpt lat="45.87149" lon="4.3753">
        <ele>697.8</ele>
        <time>2022-06-26T11:05:34Z</time>
      </trkpt>
      <trkpt lat="45.87147" lon="4.37532">
        <ele>698.2</ele>
        <time>2022-06-26T11:05:35Z</time>
      </trkpt>
      <trkpt lat="45.87144" lon="4.37534">
        <ele>698.2</ele>
        <time>2022-06-26T11:05:36Z</time>
      </trkpt>
      <trkpt lat="45.87142" lon="4.37536">
        <ele>698.4</ele>
        <time>2022-06-26T11:05:37Z</time>
      </trkpt>
      <trkpt lat="45.87139" lon="4.37538">
        <ele>698.4</ele>
        <time>2022-06-26T11:05:38Z</time>
      </trkpt>
      <trkpt lat="45.87137" lon="4.37541">
        <ele>698.8</ele>
        <time>2022-06-26T11:05:39Z</time>
      </trkpt>
      <trkpt lat="45.87134" lon="4.37543">
        <ele>698.8</ele>
        <time>2022-06-26T11:05:40Z</time>
      </trkpt>
      <trkpt lat="45.87132" lon="4.37545">
        <ele>699</ele>
        <time>2022-06-26T11:05:41Z</time>
      </trkpt>
      <trkpt lat="45.8713" lon="4.37547">
        <ele>699.2</ele>
        <time>2022-06-26T11:05:42Z</time>
      </trkpt>
      <trkpt lat="45.87127" lon="4.3755">
        <ele>699.2</ele>
        <time>2022-06-26T11:05:43Z</time>
      </trkpt>
      <trkpt lat="45.87125" lon="4.37552">
        <ele>699.6</ele>
        <time>2022-06-26T11:05:44Z</time>
      </trkpt>
      <trkpt lat="45.87123" lon="4.37554">
        <ele>699.6</ele>
        <time>2022-06-26T11:05:45Z</time>
      </trkpt>
      <trkpt lat="45.87121" lon="4.37557">
        <ele>700</ele>
        <time>2022-06-26T11:05:46Z</time>
      </trkpt>
      <trkpt lat="45.8712" lon="4.3756">
        <ele>700</ele>
        <time>2022-06-26T11:05:47Z</time>
      </trkpt>
      <trkpt lat="45.87118" lon="4.37563">
        <ele>700.2</ele>
        <time>2022-06-26T11:05:48Z</time>
      </trkpt>
      <trkpt lat="45.87117" lon="4.37566">
        <ele>700.2</ele>
        <time>2022-06-26T11:05:49Z</time>
      </trkpt>
      <trkpt lat="45.87115" lon="4.37569">
        <ele>700.4</ele>
        <time>2022-06-26T11:05:50Z</time>
      </trkpt>
      <trkpt lat="45.87114" lon="4.37572">
        <ele>700.4</ele>
        <time>2022-06-26T11:05:51Z</time>
      </trkpt>
      <trkpt lat="45.87113" lon="4.37576">
        <ele>700.4</ele>
        <time>2022-06-26T11:05:52Z</time>
      </trkpt>
      <trkpt lat="45.87112" lon="4.37579">
        <ele>700.8</ele>
        <time>2022-06-26T11:05:53Z</time>
      </trkpt>
      <trkpt lat="45.87111" lon="4.37582">
        <ele>701</ele>
        <time>2022-06-26T11:05:54Z</time>
      </trkpt>
      <trkpt lat="45.8711" lon="4.37585">
        <ele>701</ele>
        <time>2022-06-26T11:05:55Z</time>
      </trkpt>
      <trkpt lat="45.8711" lon="4.37589">
        <ele>701.4</ele>
        <time>2022-06-26T11:05:56Z</time>
      </trkpt>
      <trkpt lat="45.87109" lon="4.37593">
        <ele>701.4</ele>
        <time>2022-06-26T11:05:57Z</time>
      </trkpt>
      <trkpt lat="45.87108" lon="4.37597">
        <ele>701.6</ele>
        <time>2022-06-26T11:05:58Z</time>
      </trkpt>
      <trkpt lat="45.87108" lon="4.37601">
        <ele>701.6</ele>
        <time>2022-06-26T11:05:59Z</time>
      </trkpt>
      <trkpt lat="45.87108" lon="4.37605">
        <ele>702</ele>
        <time>2022-06-26T11:06:00Z</time>
      </trkpt>
      <trkpt lat="45.87107" lon="4.37609">
        <ele>702</ele>
        <time>2022-06-26T11:06:01Z</time>
      </trkpt>
      <trkpt lat="45.87106" lon="4.37613">
        <ele>702.2</ele>
        <time>2022-06-26T11:06:02Z</time>
      </trkpt>
      <trkpt lat="45.87106" lon="4.37617">
        <ele>702.2</ele>
        <time>2022-06-26T11:06:03Z</time>
      </trkpt>
      <trkpt lat="45.87105" lon="4.37621">
        <ele>702.6</ele>
        <time>2022-06-26T11:06:04Z</time>
      </trkpt>
      <trkpt lat="45.87105" lon="4.37625">
        <ele>702.6</ele>
        <time>2022-06-26T11:06:05Z</time>
      </trkpt>
      <trkpt lat="45.87105" lon="4.37629">
        <ele>702.8</ele>
        <time>2022-06-26T11:06:06Z</time>
      </trkpt>
      <trkpt lat="45.87104" lon="4.37633">
        <ele>702.8</ele>
        <time>2022-06-26T11:06:07Z</time>
      </trkpt>
      <trkpt lat="45.87104" lon="4.37637">
        <ele>703</ele>
        <time>2022-06-26T11:06:08Z</time>
      </trkpt>
      <trkpt lat="45.87103" lon="4.37641">
        <ele>703</ele>
        <time>2022-06-26T11:06:09Z</time>
      </trkpt>
      <trkpt lat="45.87102" lon="4.37644">
        <ele>703.4</ele>
        <time>2022-06-26T11:06:10Z</time>
      </trkpt>
      <trkpt lat="45.87102" lon="4.37648">
        <ele>703.4</ele>
        <time>2022-06-26T11:06:11Z</time>
      </trkpt>
      <trkpt lat="45.87102" lon="4.37651">
        <ele>703.8</ele>
        <time>2022-06-26T11:06:12Z</time>
      </trkpt>
      <trkpt lat="45.87102" lon="4.37655">
        <ele>703.8</ele>
        <time>2022-06-26T11:06:13Z</time>
      </trkpt>
      <trkpt lat="45.87101" lon="4.37659">
        <ele>704</ele>
        <time>2022-06-26T11:06:14Z</time>
      </trkpt>
      <trkpt lat="45.87101" lon="4.37663">
        <ele>704</ele>
        <time>2022-06-26T11:06:15Z</time>
      </trkpt>
      <trkpt lat="45.871" lon="4.37667">
        <ele>704</ele>
        <time>2022-06-26T11:06:16Z</time>
      </trkpt>
      <trkpt lat="45.87099" lon="4.37671">
        <ele>704.4</ele>
        <time>2022-06-26T11:06:17Z</time>
      </trkpt>
      <trkpt lat="45.87099" lon="4.37675">
        <ele>704.4</ele>
        <time>2022-06-26T11:06:18Z</time>
      </trkpt>
      <trkpt lat="45.87099" lon="4.37679">
        <ele>704.6</ele>
        <time>2022-06-26T11:06:19Z</time>
      </trkpt>
      <trkpt lat="45.87098" lon="4.37682">
        <ele>704.6</ele>
        <time>2022-06-26T11:06:20Z</time>
      </trkpt>
      <trkpt lat="45.87098" lon="4.37686">
        <ele>704.8</ele>
        <time>2022-06-26T11:06:21Z</time>
      </trkpt>
      <trkpt lat="45.87098" lon="4.3769">
        <ele>704.8</ele>
        <time>2022-06-26T11:06:22Z</time>
      </trkpt>
      <trkpt lat="45.87097" lon="4.37694">
        <ele>705.2</ele>
        <time>2022-06-26T11:06:23Z</time>
      </trkpt>
      <trkpt lat="45.87097" lon="4.37697">
        <ele>705.2</ele>
        <time>2022-06-26T11:06:24Z</time>
      </trkpt>
      <trkpt lat="45.87097" lon="4.37701">
        <ele>705.4</ele>
        <time>2022-06-26T11:06:25Z</time>
      </trkpt>
      <trkpt lat="45.87097" lon="4.37704">
        <ele>705.4</ele>
        <time>2022-06-26T11:06:26Z</time>
      </trkpt>
      <trkpt lat="45.87096" lon="4.37708">
        <ele>705.8</ele>
        <time>2022-06-26T11:06:27Z</time>
      </trkpt>
      <trkpt lat="45.87096" lon="4.37711">
        <ele>706</ele>
        <time>2022-06-26T11:06:28Z</time>
      </trkpt>
      <trkpt lat="45.87095" lon="4.37715">
        <ele>706</ele>
        <time>2022-06-26T11:06:29Z</time>
      </trkpt>
      <trkpt lat="45.87094" lon="4.37718">
        <ele>706.4</ele>
        <time>2022-06-26T11:06:30Z</time>
      </trkpt>
      <trkpt lat="45.87094" lon="4.37722">
        <ele>706.4</ele>
        <time>2022-06-26T11:06:31Z</time>
      </trkpt>
      <trkpt lat="45.87094" lon="4.37725">
        <ele>706.6</ele>
        <time>2022-06-26T11:06:32Z</time>
      </trkpt>
      <trkpt lat="45.87094" lon="4.37729">
        <ele>706.6</ele>
        <time>2022-06-26T11:06:33Z</time>
      </trkpt>
      <trkpt lat="45.87093" lon="4.37732">
        <ele>707</ele>
        <time>2022-06-26T11:06:34Z</time>
      </trkpt>
      <trkpt lat="45.87092" lon="4.37736">
        <ele>707</ele>
        <time>2022-06-26T11:06:35Z</time>
      </trkpt>
      <trkpt lat="45.87091" lon="4.37739">
        <ele>707.2</ele>
        <time>2022-06-26T11:06:36Z</time>
      </trkpt>
      <trkpt lat="45.87091" lon="4.37742">
        <ele>707.2</ele>
        <time>2022-06-26T11:06:37Z</time>
      </trkpt>
      <trkpt lat="45.87089" lon="4.37745">
        <ele>707.4</ele>
        <time>2022-06-26T11:06:38Z</time>
      </trkpt>
      <trkpt lat="45.87088" lon="4.37749">
        <ele>707.4</ele>
        <time>2022-06-26T11:06:39Z</time>
      </trkpt>
      <trkpt lat="45.87087" lon="4.37751">
        <ele>707.8</ele>
        <time>2022-06-26T11:06:40Z</time>
      </trkpt>
      <trkpt lat="45.87086" lon="4.37754">
        <ele>707.8</ele>
        <time>2022-06-26T11:06:41Z</time>
      </trkpt>
      <trkpt lat="45.87085" lon="4.37757">
        <ele>708</ele>
        <time>2022-06-26T11:06:42Z</time>
      </trkpt>
      <trkpt lat="45.87084" lon="4.3776">
        <ele>708</ele>
        <time>2022-06-26T11:06:43Z</time>
      </trkpt>
      <trkpt lat="45.87083" lon="4.37763">
        <ele>708.2</ele>
        <time>2022-06-26T11:06:44Z</time>
      </trkpt>
      <trkpt lat="45.87083" lon="4.37765">
        <ele>708.2</ele>
        <time>2022-06-26T11:06:45Z</time>
      </trkpt>
      <trkpt lat="45.87083" lon="4.37767">
        <ele>708.6</ele>
        <time>2022-06-26T11:06:46Z</time>
      </trkpt>
      <trkpt lat="45.87082" lon="4.3777">
        <ele>708.6</ele>
        <time>2022-06-26T11:06:47Z</time>
      </trkpt>
      <trkpt lat="45.87082" lon="4.37772">
        <ele>708.8</ele>
        <time>2022-06-26T11:06:48Z</time>
      </trkpt>
      <trkpt lat="45.87081" lon="4.37775">
        <ele>708.8</ele>
        <time>2022-06-26T11:06:49Z</time>
      </trkpt>
      <trkpt lat="45.8708" lon="4.37777">
        <ele>709.2</ele>
        <time>2022-06-26T11:06:50Z</time>
      </trkpt>
      <trkpt lat="45.8708" lon="4.37781">
        <ele>709.2</ele>
        <time>2022-06-26T11:06:51Z</time>
      </trkpt>
      <trkpt lat="45.87079" lon="4.37783">
        <ele>709.4</ele>
        <time>2022-06-26T11:06:52Z</time>
      </trkpt>
      <trkpt lat="45.87078" lon="4.37788">
        <ele>709.6</ele>
        <time>2022-06-26T11:06:53Z</time>
      </trkpt>
      <trkpt lat="45.87077" lon="4.37791">
        <ele>709.6</ele>
        <time>2022-06-26T11:06:54Z</time>
      </trkpt>
      <trkpt lat="45.87076" lon="4.37793">
        <ele>710</ele>
        <time>2022-06-26T11:06:55Z</time>
      </trkpt>
      <trkpt lat="45.87075" lon="4.37797">
        <ele>710</ele>
        <time>2022-06-26T11:06:56Z</time>
      </trkpt>
      <trkpt lat="45.87074" lon="4.37803">
        <ele>710</ele>
        <time>2022-06-26T11:06:57Z</time>
      </trkpt>
      <trkpt lat="45.87073" lon="4.37809">
        <ele>710.2</ele>
        <time>2022-06-26T11:06:58Z</time>
      </trkpt>
      <trkpt lat="45.87073" lon="4.37814">
        <ele>710.2</ele>
        <time>2022-06-26T11:06:59Z</time>
      </trkpt>
      <trkpt lat="45.87073" lon="4.37818">
        <ele>710.6</ele>
        <time>2022-06-26T11:07:00Z</time>
      </trkpt>
      <trkpt lat="45.87073" lon="4.37823">
        <ele>710.6</ele>
        <time>2022-06-26T11:07:01Z</time>
      </trkpt>
      <trkpt lat="45.87072" lon="4.37828">
        <ele>710.8</ele>
        <time>2022-06-26T11:07:02Z</time>
      </trkpt>
      <trkpt lat="45.87072" lon="4.37832">
        <ele>710.8</ele>
        <time>2022-06-26T11:07:03Z</time>
      </trkpt>
      <trkpt lat="45.87072" lon="4.37837">
        <ele>711.2</ele>
        <time>2022-06-26T11:07:04Z</time>
      </trkpt>
      <trkpt lat="45.87072" lon="4.37842">
        <ele>711.2</ele>
        <time>2022-06-26T11:07:05Z</time>
      </trkpt>
      <trkpt lat="45.87072" lon="4.37847">
        <ele>711.6</ele>
        <time>2022-06-26T11:07:06Z</time>
      </trkpt>
      <trkpt lat="45.87072" lon="4.37852">
        <ele>711.6</ele>
        <time>2022-06-26T11:07:07Z</time>
      </trkpt>
      <trkpt lat="45.87072" lon="4.37857">
        <ele>711.8</ele>
        <time>2022-06-26T11:07:08Z</time>
      </trkpt>
      <trkpt lat="45.87072" lon="4.37862">
        <ele>711.8</ele>
        <time>2022-06-26T11:07:09Z</time>
      </trkpt>
      <trkpt lat="45.87072" lon="4.37867">
        <ele>712</ele>
        <time>2022-06-26T11:07:10Z</time>
      </trkpt>
      <trkpt lat="45.87071" lon="4.37872">
        <ele>712</ele>
        <time>2022-06-26T11:07:11Z</time>
      </trkpt>
      <trkpt lat="45.87071" lon="4.37877">
        <ele>712.4</ele>
        <time>2022-06-26T11:07:12Z</time>
      </trkpt>
      <trkpt lat="45.87071" lon="4.37882">
        <ele>712.4</ele>
        <time>2022-06-26T11:07:13Z</time>
      </trkpt>
      <trkpt lat="45.87071" lon="4.37887">
        <ele>712.6</ele>
        <time>2022-06-26T11:07:14Z</time>
      </trkpt>
      <trkpt lat="45.87071" lon="4.37892">
        <ele>712.6</ele>
        <time>2022-06-26T11:07:15Z</time>
      </trkpt>
      <trkpt lat="45.87071" lon="4.37897">
        <ele>713</ele>
        <time>2022-06-26T11:07:16Z</time>
      </trkpt>
      <trkpt lat="45.8707" lon="4.37902">
        <ele>713</ele>
        <time>2022-06-26T11:07:17Z</time>
      </trkpt>
      <trkpt lat="45.8707" lon="4.37906">
        <ele>713.4</ele>
        <time>2022-06-26T11:07:18Z</time>
      </trkpt>
      <trkpt lat="45.87069" lon="4.3791">
        <ele>713.4</ele>
        <time>2022-06-26T11:07:19Z</time>
      </trkpt>
      <trkpt lat="45.87068" lon="4.37915">
        <ele>713.8</ele>
        <time>2022-06-26T11:07:20Z</time>
      </trkpt>
      <trkpt lat="45.87068" lon="4.37919">
        <ele>713.8</ele>
        <time>2022-06-26T11:07:21Z</time>
      </trkpt>
      <trkpt lat="45.87067" lon="4.37923">
        <ele>714</ele>
        <time>2022-06-26T11:07:22Z</time>
      </trkpt>
      <trkpt lat="45.87066" lon="4.37927">
        <ele>714</ele>
        <time>2022-06-26T11:07:23Z</time>
      </trkpt>
      <trkpt lat="45.87065" lon="4.37931">
        <ele>714.4</ele>
        <time>2022-06-26T11:07:24Z</time>
      </trkpt>
      <trkpt lat="45.87064" lon="4.37935">
        <ele>714.4</ele>
        <time>2022-06-26T11:07:25Z</time>
      </trkpt>
      <trkpt lat="45.87063" lon="4.37939">
        <ele>714.8</ele>
        <time>2022-06-26T11:07:26Z</time>
      </trkpt>
      <trkpt lat="45.87062" lon="4.37943">
        <ele>714.8</ele>
        <time>2022-06-26T11:07:27Z</time>
      </trkpt>
      <trkpt lat="45.87061" lon="4.37947">
        <ele>715</ele>
        <time>2022-06-26T11:07:28Z</time>
      </trkpt>
      <trkpt lat="45.87059" lon="4.37951">
        <ele>715</ele>
        <time>2022-06-26T11:07:29Z</time>
      </trkpt>
      <trkpt lat="45.87058" lon="4.37954">
        <ele>715.2</ele>
        <time>2022-06-26T11:07:30Z</time>
      </trkpt>
      <trkpt lat="45.87057" lon="4.37958">
        <ele>715.2</ele>
        <time>2022-06-26T11:07:31Z</time>
      </trkpt>
      <trkpt lat="45.87056" lon="4.37961">
        <ele>715.6</ele>
        <time>2022-06-26T11:07:32Z</time>
      </trkpt>
      <trkpt lat="45.87055" lon="4.37966">
        <ele>715.6</ele>
        <time>2022-06-26T11:07:33Z</time>
      </trkpt>
      <trkpt lat="45.87054" lon="4.37969">
        <ele>716</ele>
        <time>2022-06-26T11:07:34Z</time>
      </trkpt>
      <trkpt lat="45.87052" lon="4.37973">
        <ele>716</ele>
        <time>2022-06-26T11:07:35Z</time>
      </trkpt>
      <trkpt lat="45.87051" lon="4.37976">
        <ele>716.2</ele>
        <time>2022-06-26T11:07:36Z</time>
      </trkpt>
      <trkpt lat="45.8705" lon="4.3798">
        <ele>716.4</ele>
        <time>2022-06-26T11:07:37Z</time>
      </trkpt>
      <trkpt lat="45.87048" lon="4.37983">
        <ele>716.6</ele>
        <time>2022-06-26T11:07:38Z</time>
      </trkpt>
      <trkpt lat="45.87047" lon="4.37986">
        <ele>716.6</ele>
        <time>2022-06-26T11:07:39Z</time>
      </trkpt>
      <trkpt lat="45.87045" lon="4.37989">
        <ele>717</ele>
        <time>2022-06-26T11:07:40Z</time>
      </trkpt>
      <trkpt lat="45.87044" lon="4.37992">
        <ele>717</ele>
        <time>2022-06-26T11:07:41Z</time>
      </trkpt>
      <trkpt lat="45.87043" lon="4.37995">
        <ele>717.2</ele>
        <time>2022-06-26T11:07:42Z</time>
      </trkpt>
      <trkpt lat="45.87041" lon="4.37998">
        <ele>717.2</ele>
        <time>2022-06-26T11:07:43Z</time>
      </trkpt>
      <trkpt lat="45.8704" lon="4.38001">
        <ele>717.6</ele>
        <time>2022-06-26T11:07:44Z</time>
      </trkpt>
      <trkpt lat="45.87039" lon="4.38004">
        <ele>717.6</ele>
        <time>2022-06-26T11:07:45Z</time>
      </trkpt>
      <trkpt lat="45.87037" lon="4.38007">
        <ele>718</ele>
        <time>2022-06-26T11:07:46Z</time>
      </trkpt>
      <trkpt lat="45.87036" lon="4.3801">
        <ele>718</ele>
        <time>2022-06-26T11:07:47Z</time>
      </trkpt>
      <trkpt lat="45.87034" lon="4.38012">
        <ele>718.2</ele>
        <time>2022-06-26T11:07:48Z</time>
      </trkpt>
      <trkpt lat="45.87032" lon="4.38015">
        <ele>718.2</ele>
        <time>2022-06-26T11:07:49Z</time>
      </trkpt>
      <trkpt lat="45.8703" lon="4.38018">
        <ele>718.6</ele>
        <time>2022-06-26T11:07:50Z</time>
      </trkpt>
      <trkpt lat="45.87029" lon="4.3802">
        <ele>718.6</ele>
        <time>2022-06-26T11:07:51Z</time>
      </trkpt>
      <trkpt lat="45.87027" lon="4.38023">
        <ele>718.8</ele>
        <time>2022-06-26T11:07:52Z</time>
      </trkpt>
      <trkpt lat="45.87026" lon="4.38026">
        <ele>718.8</ele>
        <time>2022-06-26T11:07:53Z</time>
      </trkpt>
      <trkpt lat="45.87024" lon="4.38029">
        <ele>719.2</ele>
        <time>2022-06-26T11:07:54Z</time>
      </trkpt>
      <trkpt lat="45.87023" lon="4.38031">
        <ele>719.2</ele>
        <time>2022-06-26T11:07:55Z</time>
      </trkpt>
      <trkpt lat="45.87022" lon="4.38034">
        <ele>719.4</ele>
        <time>2022-06-26T11:07:56Z</time>
      </trkpt>
      <trkpt lat="45.8702" lon="4.38036">
        <ele>719.4</ele>
        <time>2022-06-26T11:07:57Z</time>
      </trkpt>
      <trkpt lat="45.87019" lon="4.3804">
        <ele>719.8</ele>
        <time>2022-06-26T11:07:58Z</time>
      </trkpt>
      <trkpt lat="45.87018" lon="4.38043">
        <ele>719.8</ele>
        <time>2022-06-26T11:07:59Z</time>
      </trkpt>
      <trkpt lat="45.87017" lon="4.38045">
        <ele>720</ele>
        <time>2022-06-26T11:08:00Z</time>
      </trkpt>
      <trkpt lat="45.87014" lon="4.38047">
        <ele>720</ele>
        <time>2022-06-26T11:08:01Z</time>
      </trkpt>
      <trkpt lat="45.87013" lon="4.3805">
        <ele>720.2</ele>
        <time>2022-06-26T11:08:02Z</time>
      </trkpt>
      <trkpt lat="45.87011" lon="4.38052">
        <ele>720.4</ele>
        <time>2022-06-26T11:08:03Z</time>
      </trkpt>
      <trkpt lat="45.8701" lon="4.38054">
        <ele>720.4</ele>
        <time>2022-06-26T11:08:04Z</time>
      </trkpt>
      <trkpt lat="45.87009" lon="4.38056">
        <ele>720.8</ele>
        <time>2022-06-26T11:08:05Z</time>
      </trkpt>
      <trkpt lat="45.87007" lon="4.38058">
        <ele>720.8</ele>
        <time>2022-06-26T11:08:06Z</time>
      </trkpt>
      <trkpt lat="45.87006" lon="4.38061">
        <ele>721</ele>
        <time>2022-06-26T11:08:07Z</time>
      </trkpt>
      <trkpt lat="45.87005" lon="4.38063">
        <ele>721.2</ele>
        <time>2022-06-26T11:08:08Z</time>
      </trkpt>
      <trkpt lat="45.87004" lon="4.38066">
        <ele>721.2</ele>
        <time>2022-06-26T11:08:09Z</time>
      </trkpt>
      <trkpt lat="45.87003" lon="4.38069">
        <ele>721.6</ele>
        <time>2022-06-26T11:08:10Z</time>
      </trkpt>
      <trkpt lat="45.87001" lon="4.38071">
        <ele>721.6</ele>
        <time>2022-06-26T11:08:11Z</time>
      </trkpt>
      <trkpt lat="45.87" lon="4.38073">
        <ele>722</ele>
        <time>2022-06-26T11:08:12Z</time>
      </trkpt>
      <trkpt lat="45.86998" lon="4.38076">
        <ele>722</ele>
        <time>2022-06-26T11:08:13Z</time>
      </trkpt>
      <trkpt lat="45.86996" lon="4.38078">
        <ele>722</ele>
        <time>2022-06-26T11:08:14Z</time>
      </trkpt>
      <trkpt lat="45.86995" lon="4.38081">
        <ele>722.2</ele>
        <time>2022-06-26T11:08:15Z</time>
      </trkpt>
      <trkpt lat="45.86994" lon="4.38083">
        <ele>722.2</ele>
        <time>2022-06-26T11:08:16Z</time>
      </trkpt>
      <trkpt lat="45.86992" lon="4.38085">
        <ele>722.6</ele>
        <time>2022-06-26T11:08:17Z</time>
      </trkpt>
      <trkpt lat="45.86991" lon="4.38087">
        <ele>722.6</ele>
        <time>2022-06-26T11:08:18Z</time>
      </trkpt>
      <trkpt lat="45.8699" lon="4.3809">
        <ele>723</ele>
        <time>2022-06-26T11:08:19Z</time>
      </trkpt>
      <trkpt lat="45.86989" lon="4.38091">
        <ele>723</ele>
        <time>2022-06-26T11:08:20Z</time>
      </trkpt>
      <trkpt lat="45.86987" lon="4.38094">
        <ele>723.2</ele>
        <time>2022-06-26T11:08:21Z</time>
      </trkpt>
      <trkpt lat="45.86986" lon="4.38096">
        <ele>723.2</ele>
        <time>2022-06-26T11:08:22Z</time>
      </trkpt>
      <trkpt lat="45.86984" lon="4.38098">
        <ele>723.4</ele>
        <time>2022-06-26T11:08:23Z</time>
      </trkpt>
      <trkpt lat="45.86983" lon="4.38101">
        <ele>723.4</ele>
        <time>2022-06-26T11:08:24Z</time>
      </trkpt>
      <trkpt lat="45.86981" lon="4.38103">
        <ele>723.8</ele>
        <time>2022-06-26T11:08:25Z</time>
      </trkpt>
      <trkpt lat="45.86979" lon="4.38106">
        <ele>723.8</ele>
        <time>2022-06-26T11:08:26Z</time>
      </trkpt>
      <trkpt lat="45.86978" lon="4.38108">
        <ele>724</ele>
        <time>2022-06-26T11:08:27Z</time>
      </trkpt>
      <trkpt lat="45.86976" lon="4.3811">
        <ele>724</ele>
        <time>2022-06-26T11:08:28Z</time>
      </trkpt>
      <trkpt lat="45.86974" lon="4.38112">
        <ele>724.2</ele>
        <time>2022-06-26T11:08:29Z</time>
      </trkpt>
      <trkpt lat="45.86973" lon="4.38114">
        <ele>724.2</ele>
        <time>2022-06-26T11:08:30Z</time>
      </trkpt>
      <trkpt lat="45.86971" lon="4.38118">
        <ele>724.6</ele>
        <time>2022-06-26T11:08:31Z</time>
      </trkpt>
      <trkpt lat="45.86969" lon="4.38121">
        <ele>724.6</ele>
        <time>2022-06-26T11:08:32Z</time>
      </trkpt>
      <trkpt lat="45.86968" lon="4.38124">
        <ele>724.8</ele>
        <time>2022-06-26T11:08:33Z</time>
      </trkpt>
      <trkpt lat="45.86966" lon="4.38127">
        <ele>725</ele>
        <time>2022-06-26T11:08:34Z</time>
      </trkpt>
      <trkpt lat="45.86965" lon="4.38131">
        <ele>725</ele>
        <time>2022-06-26T11:08:35Z</time>
      </trkpt>
      <trkpt lat="45.86964" lon="4.38135">
        <ele>725.2</ele>
        <time>2022-06-26T11:08:36Z</time>
      </trkpt>
      <trkpt lat="45.86963" lon="4.38137">
        <ele>725.2</ele>
        <time>2022-06-26T11:08:37Z</time>
      </trkpt>
      <trkpt lat="45.86962" lon="4.38142">
        <ele>725.6</ele>
        <time>2022-06-26T11:08:38Z</time>
      </trkpt>
      <trkpt lat="45.8696" lon="4.38146">
        <ele>725.6</ele>
        <time>2022-06-26T11:08:39Z</time>
      </trkpt>
      <trkpt lat="45.86958" lon="4.38149">
        <ele>725.8</ele>
        <time>2022-06-26T11:08:40Z</time>
      </trkpt>
      <trkpt lat="45.86957" lon="4.38151">
        <ele>725.8</ele>
        <time>2022-06-26T11:08:41Z</time>
      </trkpt>
      <trkpt lat="45.86955" lon="4.38155">
        <ele>726.2</ele>
        <time>2022-06-26T11:08:42Z</time>
      </trkpt>
      <trkpt lat="45.86953" lon="4.38158">
        <ele>726.2</ele>
        <time>2022-06-26T11:08:43Z</time>
      </trkpt>
      <trkpt lat="45.86952" lon="4.38161">
        <ele>726.4</ele>
        <time>2022-06-26T11:08:44Z</time>
      </trkpt>
      <trkpt lat="45.8695" lon="4.38164">
        <ele>726.4</ele>
        <time>2022-06-26T11:08:45Z</time>
      </trkpt>
      <trkpt lat="45.86949" lon="4.38168">
        <ele>726.6</ele>
        <time>2022-06-26T11:08:46Z</time>
      </trkpt>
      <trkpt lat="45.86947" lon="4.38171">
        <ele>726.6</ele>
        <time>2022-06-26T11:08:47Z</time>
      </trkpt>
      <trkpt lat="45.86945" lon="4.38175">
        <ele>726.8</ele>
        <time>2022-06-26T11:08:48Z</time>
      </trkpt>
      <trkpt lat="45.86945" lon="4.38182">
        <ele>726.8</ele>
        <time>2022-06-26T11:08:49Z</time>
      </trkpt>
      <trkpt lat="45.86944" lon="4.38187">
        <ele>727</ele>
        <time>2022-06-26T11:08:50Z</time>
      </trkpt>
      <trkpt lat="45.86942" lon="4.38192">
        <ele>727</ele>
        <time>2022-06-26T11:08:51Z</time>
      </trkpt>
      <trkpt lat="45.86941" lon="4.38196">
        <ele>727</ele>
        <time>2022-06-26T11:08:52Z</time>
      </trkpt>
      <trkpt lat="45.86939" lon="4.38201">
        <ele>727.4</ele>
        <time>2022-06-26T11:08:53Z</time>
      </trkpt>
      <trkpt lat="45.86938" lon="4.38205">
        <ele>727.4</ele>
        <time>2022-06-26T11:08:54Z</time>
      </trkpt>
      <trkpt lat="45.86936" lon="4.38208">
        <ele>727.6</ele>
        <time>2022-06-26T11:08:55Z</time>
      </trkpt>
      <trkpt lat="45.86935" lon="4.38214">
        <ele>727.6</ele>
        <time>2022-06-26T11:08:56Z</time>
      </trkpt>
      <trkpt lat="45.86935" lon="4.38218">
        <ele>728</ele>
        <time>2022-06-26T11:08:57Z</time>
      </trkpt>
      <trkpt lat="45.86934" lon="4.38222">
        <ele>728</ele>
        <time>2022-06-26T11:08:58Z</time>
      </trkpt>
      <trkpt lat="45.86933" lon="4.38226">
        <ele>728.2</ele>
        <time>2022-06-26T11:08:59Z</time>
      </trkpt>
      <trkpt lat="45.86932" lon="4.3823">
        <ele>728.2</ele>
        <time>2022-06-26T11:09:00Z</time>
      </trkpt>
      <trkpt lat="45.86931" lon="4.38235">
        <ele>728.6</ele>
        <time>2022-06-26T11:09:01Z</time>
      </trkpt>
      <trkpt lat="45.8693" lon="4.38239">
        <ele>728.6</ele>
        <time>2022-06-26T11:09:02Z</time>
      </trkpt>
      <trkpt lat="45.86929" lon="4.38243">
        <ele>728.8</ele>
        <time>2022-06-26T11:09:03Z</time>
      </trkpt>
      <trkpt lat="45.86927" lon="4.38247">
        <ele>728.8</ele>
        <time>2022-06-26T11:09:04Z</time>
      </trkpt>
      <trkpt lat="45.86925" lon="4.38252">
        <ele>729</ele>
        <time>2022-06-26T11:09:05Z</time>
      </trkpt>
      <trkpt lat="45.86923" lon="4.38255">
        <ele>729</ele>
        <time>2022-06-26T11:09:06Z</time>
      </trkpt>
      <trkpt lat="45.86921" lon="4.38258">
        <ele>729.4</ele>
        <time>2022-06-26T11:09:07Z</time>
      </trkpt>
      <trkpt lat="45.8692" lon="4.38261">
        <ele>729.4</ele>
        <time>2022-06-26T11:09:08Z</time>
      </trkpt>
      <trkpt lat="45.86918" lon="4.38266">
        <ele>729.6</ele>
        <time>2022-06-26T11:09:09Z</time>
      </trkpt>
      <trkpt lat="45.86917" lon="4.38269">
        <ele>729.6</ele>
        <time>2022-06-26T11:09:10Z</time>
      </trkpt>
      <trkpt lat="45.86915" lon="4.38271">
        <ele>729.8</ele>
        <time>2022-06-26T11:09:11Z</time>
      </trkpt>
      <trkpt lat="45.86912" lon="4.38274">
        <ele>730</ele>
        <time>2022-06-26T11:09:12Z</time>
      </trkpt>
      <trkpt lat="45.8691" lon="4.38276">
        <ele>730</ele>
        <time>2022-06-26T11:09:13Z</time>
      </trkpt>
      <trkpt lat="45.86908" lon="4.38278">
        <ele>730.4</ele>
        <time>2022-06-26T11:09:14Z</time>
      </trkpt>
      <trkpt lat="45.86905" lon="4.3828">
        <ele>730.4</ele>
        <time>2022-06-26T11:09:15Z</time>
      </trkpt>
      <trkpt lat="45.86903" lon="4.38282">
        <ele>730.8</ele>
        <time>2022-06-26T11:09:16Z</time>
      </trkpt>
      <trkpt lat="45.869" lon="4.38283">
        <ele>730.8</ele>
        <time>2022-06-26T11:09:17Z</time>
      </trkpt>
      <trkpt lat="45.86897" lon="4.38284">
        <ele>731.2</ele>
        <time>2022-06-26T11:09:18Z</time>
      </trkpt>
      <trkpt lat="45.86894" lon="4.38285">
        <ele>731.2</ele>
        <time>2022-06-26T11:09:19Z</time>
      </trkpt>
      <trkpt lat="45.86891" lon="4.38286">
        <ele>731.6</ele>
        <time>2022-06-26T11:09:20Z</time>
      </trkpt>
      <trkpt lat="45.86888" lon="4.38287">
        <ele>731.6</ele>
        <time>2022-06-26T11:09:21Z</time>
      </trkpt>
      <trkpt lat="45.86884" lon="4.38287">
        <ele>731.8</ele>
        <time>2022-06-26T11:09:22Z</time>
      </trkpt>
      <trkpt lat="45.86881" lon="4.38287">
        <ele>731.8</ele>
        <time>2022-06-26T11:09:23Z</time>
      </trkpt>
      <trkpt lat="45.86878" lon="4.38287">
        <ele>732.2</ele>
        <time>2022-06-26T11:09:24Z</time>
      </trkpt>
      <trkpt lat="45.86875" lon="4.38286">
        <ele>732.2</ele>
        <time>2022-06-26T11:09:25Z</time>
      </trkpt>
      <trkpt lat="45.86872" lon="4.38286">
        <ele>732.4</ele>
        <time>2022-06-26T11:09:26Z</time>
      </trkpt>
      <trkpt lat="45.86869" lon="4.38284">
        <ele>732.4</ele>
        <time>2022-06-26T11:09:27Z</time>
      </trkpt>
      <trkpt lat="45.86866" lon="4.38283">
        <ele>732.8</ele>
        <time>2022-06-26T11:09:28Z</time>
      </trkpt>
      <trkpt lat="45.86863" lon="4.38281">
        <ele>732.8</ele>
        <time>2022-06-26T11:09:29Z</time>
      </trkpt>
      <trkpt lat="45.8686" lon="4.38279">
        <ele>733</ele>
        <time>2022-06-26T11:09:30Z</time>
      </trkpt>
      <trkpt lat="45.86857" lon="4.38277">
        <ele>733</ele>
        <time>2022-06-26T11:09:31Z</time>
      </trkpt>
      <trkpt lat="45.86854" lon="4.38274">
        <ele>733.4</ele>
        <time>2022-06-26T11:09:32Z</time>
      </trkpt>
      <trkpt lat="45.86852" lon="4.38272">
        <ele>733.8</ele>
        <time>2022-06-26T11:09:33Z</time>
      </trkpt>
      <trkpt lat="45.86849" lon="4.38269">
        <ele>734</ele>
        <time>2022-06-26T11:09:34Z</time>
      </trkpt>
      <trkpt lat="45.86846" lon="4.38267">
        <ele>734.2</ele>
        <time>2022-06-26T11:09:35Z</time>
      </trkpt>
      <trkpt lat="45.86844" lon="4.38265">
        <ele>734.2</ele>
        <time>2022-06-26T11:09:36Z</time>
      </trkpt>
      <trkpt lat="45.86841" lon="4.38263">
        <ele>734.6</ele>
        <time>2022-06-26T11:09:37Z</time>
      </trkpt>
      <trkpt lat="45.86839" lon="4.3826">
        <ele>734.6</ele>
        <time>2022-06-26T11:09:38Z</time>
      </trkpt>
      <trkpt lat="45.86836" lon="4.38258">
        <ele>735</ele>
        <time>2022-06-26T11:09:39Z</time>
      </trkpt>
      <trkpt lat="45.86833" lon="4.38255">
        <ele>735</ele>
        <time>2022-06-26T11:09:40Z</time>
      </trkpt>
      <trkpt lat="45.8683" lon="4.38253">
        <ele>735.4</ele>
        <time>2022-06-26T11:09:41Z</time>
      </trkpt>
      <trkpt lat="45.86828" lon="4.38251">
        <ele>735.6</ele>
        <time>2022-06-26T11:09:42Z</time>
      </trkpt>
      <trkpt lat="45.86826" lon="4.38249">
        <ele>735.8</ele>
        <time>2022-06-26T11:09:43Z</time>
      </trkpt>
      <trkpt lat="45.86823" lon="4.38247">
        <ele>736</ele>
        <time>2022-06-26T11:09:44Z</time>
      </trkpt>
      <trkpt lat="45.86821" lon="4.38246">
        <ele>736</ele>
        <time>2022-06-26T11:09:45Z</time>
      </trkpt>
      <trkpt lat="45.86819" lon="4.38244">
        <ele>736.4</ele>
        <time>2022-06-26T11:09:46Z</time>
      </trkpt>
      <trkpt lat="45.86817" lon="4.38243">
        <ele>736.6</ele>
        <time>2022-06-26T11:09:47Z</time>
      </trkpt>
      <trkpt lat="45.86815" lon="4.38241">
        <ele>736.6</ele>
        <time>2022-06-26T11:09:48Z</time>
      </trkpt>
      <trkpt lat="45.86813" lon="4.3824">
        <ele>737</ele>
        <time>2022-06-26T11:09:49Z</time>
      </trkpt>
      <trkpt lat="45.86811" lon="4.38238">
        <ele>737.2</ele>
        <time>2022-06-26T11:09:50Z</time>
      </trkpt>
      <trkpt lat="45.86809" lon="4.38236">
        <ele>737.2</ele>
        <time>2022-06-26T11:09:51Z</time>
      </trkpt>
      <trkpt lat="45.86806" lon="4.38235">
        <ele>737.6</ele>
        <time>2022-06-26T11:09:52Z</time>
      </trkpt>
      <trkpt lat="45.86804" lon="4.38233">
        <ele>737.6</ele>
        <time>2022-06-26T11:09:53Z</time>
      </trkpt>
      <trkpt lat="45.86801" lon="4.38232">
        <ele>738</ele>
        <time>2022-06-26T11:09:54Z</time>
      </trkpt>
      <trkpt lat="45.86799" lon="4.38231">
        <ele>738</ele>
        <time>2022-06-26T11:09:55Z</time>
      </trkpt>
      <trkpt lat="45.86796" lon="4.38231">
        <ele>738.2</ele>
        <time>2022-06-26T11:09:56Z</time>
      </trkpt>
      <trkpt lat="45.86793" lon="4.3823">
        <ele>738.4</ele>
        <time>2022-06-26T11:09:57Z</time>
      </trkpt>
      <trkpt lat="45.86791" lon="4.38229">
        <ele>738.4</ele>
        <time>2022-06-26T11:09:58Z</time>
      </trkpt>
      <trkpt lat="45.86789" lon="4.38228">
        <ele>738.8</ele>
        <time>2022-06-26T11:09:59Z</time>
      </trkpt>
      <trkpt lat="45.86787" lon="4.38228">
        <ele>738.8</ele>
        <time>2022-06-26T11:10:00Z</time>
      </trkpt>
      <trkpt lat="45.86785" lon="4.38227">
        <ele>739.2</ele>
        <time>2022-06-26T11:10:01Z</time>
      </trkpt>
      <trkpt lat="45.86783" lon="4.38226">
        <ele>739.2</ele>
        <time>2022-06-26T11:10:02Z</time>
      </trkpt>
      <trkpt lat="45.86781" lon="4.38224">
        <ele>739.4</ele>
        <time>2022-06-26T11:10:03Z</time>
      </trkpt>
      <trkpt lat="45.86778" lon="4.38223">
        <ele>739.4</ele>
        <time>2022-06-26T11:10:04Z</time>
      </trkpt>
      <trkpt lat="45.86775" lon="4.38222">
        <ele>739.6</ele>
        <time>2022-06-26T11:10:05Z</time>
      </trkpt>
      <trkpt lat="45.86773" lon="4.38221">
        <ele>740</ele>
        <time>2022-06-26T11:10:06Z</time>
      </trkpt>
      <trkpt lat="45.8677" lon="4.3822">
        <ele>740</ele>
        <time>2022-06-26T11:10:07Z</time>
      </trkpt>
      <trkpt lat="45.86767" lon="4.38219">
        <ele>740.2</ele>
        <time>2022-06-26T11:10:08Z</time>
      </trkpt>
      <trkpt lat="45.86764" lon="4.38217">
        <ele>740.2</ele>
        <time>2022-06-26T11:10:09Z</time>
      </trkpt>
      <trkpt lat="45.86761" lon="4.38216">
        <ele>740.4</ele>
        <time>2022-06-26T11:10:10Z</time>
      </trkpt>
      <trkpt lat="45.86758" lon="4.38215">
        <ele>740.4</ele>
        <time>2022-06-26T11:10:11Z</time>
      </trkpt>
      <trkpt lat="45.86755" lon="4.38214">
        <ele>740.8</ele>
        <time>2022-06-26T11:10:12Z</time>
      </trkpt>
      <trkpt lat="45.86752" lon="4.38212">
        <ele>740.8</ele>
        <time>2022-06-26T11:10:13Z</time>
      </trkpt>
      <trkpt lat="45.86749" lon="4.38211">
        <ele>741.2</ele>
        <time>2022-06-26T11:10:14Z</time>
      </trkpt>
      <trkpt lat="45.86746" lon="4.3821">
        <ele>741.2</ele>
        <time>2022-06-26T11:10:15Z</time>
      </trkpt>
      <trkpt lat="45.86743" lon="4.38209">
        <ele>741.4</ele>
        <time>2022-06-26T11:10:16Z</time>
      </trkpt>
      <trkpt lat="45.8674" lon="4.38207">
        <ele>741.4</ele>
        <time>2022-06-26T11:10:17Z</time>
      </trkpt>
      <trkpt lat="45.86737" lon="4.38206">
        <ele>741.6</ele>
        <time>2022-06-26T11:10:18Z</time>
      </trkpt>
      <trkpt lat="45.86734" lon="4.38204">
        <ele>741.6</ele>
        <time>2022-06-26T11:10:19Z</time>
      </trkpt>
      <trkpt lat="45.86732" lon="4.38202">
        <ele>741.6</ele>
        <time>2022-06-26T11:10:20Z</time>
      </trkpt>
      <trkpt lat="45.86728" lon="4.382">
        <ele>742</ele>
        <time>2022-06-26T11:10:21Z</time>
      </trkpt>
      <trkpt lat="45.86726" lon="4.38198">
        <ele>742</ele>
        <time>2022-06-26T11:10:22Z</time>
      </trkpt>
      <trkpt lat="45.86723" lon="4.38196">
        <ele>742.4</ele>
        <time>2022-06-26T11:10:23Z</time>
      </trkpt>
      <trkpt lat="45.8672" lon="4.38193">
        <ele>742.4</ele>
        <time>2022-06-26T11:10:24Z</time>
      </trkpt>
      <trkpt lat="45.86717" lon="4.38191">
        <ele>742.6</ele>
        <time>2022-06-26T11:10:25Z</time>
      </trkpt>
      <trkpt lat="45.86715" lon="4.38188">
        <ele>742.6</ele>
        <time>2022-06-26T11:10:26Z</time>
      </trkpt>
      <trkpt lat="45.86712" lon="4.38186">
        <ele>743</ele>
        <time>2022-06-26T11:10:27Z</time>
      </trkpt>
      <trkpt lat="45.86709" lon="4.38182">
        <ele>743</ele>
        <time>2022-06-26T11:10:28Z</time>
      </trkpt>
      <trkpt lat="45.86707" lon="4.3818">
        <ele>743.2</ele>
        <time>2022-06-26T11:10:29Z</time>
      </trkpt>
      <trkpt lat="45.86705" lon="4.38176">
        <ele>743.2</ele>
        <time>2022-06-26T11:10:30Z</time>
      </trkpt>
      <trkpt lat="45.86703" lon="4.38173">
        <ele>743.4</ele>
        <time>2022-06-26T11:10:31Z</time>
      </trkpt>
      <trkpt lat="45.86701" lon="4.3817">
        <ele>743.4</ele>
        <time>2022-06-26T11:10:32Z</time>
      </trkpt>
      <trkpt lat="45.86699" lon="4.38166">
        <ele>743.8</ele>
        <time>2022-06-26T11:10:33Z</time>
      </trkpt>
      <trkpt lat="45.86698" lon="4.38163">
        <ele>743.8</ele>
        <time>2022-06-26T11:10:34Z</time>
      </trkpt>
      <trkpt lat="45.86696" lon="4.38159">
        <ele>744</ele>
        <time>2022-06-26T11:10:35Z</time>
      </trkpt>
      <trkpt lat="45.86694" lon="4.38155">
        <ele>744</ele>
        <time>2022-06-26T11:10:36Z</time>
      </trkpt>
      <trkpt lat="45.86693" lon="4.38152">
        <ele>744.4</ele>
        <time>2022-06-26T11:10:37Z</time>
      </trkpt>
      <trkpt lat="45.86691" lon="4.38148">
        <ele>744.4</ele>
        <time>2022-06-26T11:10:38Z</time>
      </trkpt>
      <trkpt lat="45.8669" lon="4.38144">
        <ele>745</ele>
        <time>2022-06-26T11:10:39Z</time>
      </trkpt>
      <trkpt lat="45.86689" lon="4.3814">
        <ele>745.2</ele>
        <time>2022-06-26T11:10:41Z</time>
      </trkpt>
      <trkpt lat="45.86688" lon="4.38136">
        <ele>745.4</ele>
        <time>2022-06-26T11:10:42Z</time>
      </trkpt>
      <trkpt lat="45.86687" lon="4.38133">
        <ele>745.4</ele>
        <time>2022-06-26T11:10:43Z</time>
      </trkpt>
      <trkpt lat="45.86686" lon="4.38129">
        <ele>745.8</ele>
        <time>2022-06-26T11:10:44Z</time>
      </trkpt>
      <trkpt lat="45.86685" lon="4.38125">
        <ele>745.8</ele>
        <time>2022-06-26T11:10:45Z</time>
      </trkpt>
      <trkpt lat="45.86684" lon="4.38121">
        <ele>746</ele>
        <time>2022-06-26T11:10:46Z</time>
      </trkpt>
      <trkpt lat="45.86684" lon="4.38117">
        <ele>746</ele>
        <time>2022-06-26T11:10:47Z</time>
      </trkpt>
      <trkpt lat="45.86683" lon="4.38113">
        <ele>746.4</ele>
        <time>2022-06-26T11:10:48Z</time>
      </trkpt>
      <trkpt lat="45.86682" lon="4.3811">
        <ele>746.4</ele>
        <time>2022-06-26T11:10:49Z</time>
      </trkpt>
      <trkpt lat="45.86681" lon="4.38106">
        <ele>746.6</ele>
        <time>2022-06-26T11:10:50Z</time>
      </trkpt>
      <trkpt lat="45.86681" lon="4.38103">
        <ele>746.6</ele>
        <time>2022-06-26T11:10:51Z</time>
      </trkpt>
      <trkpt lat="45.86681" lon="4.38099">
        <ele>746.8</ele>
        <time>2022-06-26T11:10:52Z</time>
      </trkpt>
      <trkpt lat="45.8668" lon="4.38095">
        <ele>746.8</ele>
        <time>2022-06-26T11:10:53Z</time>
      </trkpt>
      <trkpt lat="45.8668" lon="4.38091">
        <ele>747.2</ele>
        <time>2022-06-26T11:10:54Z</time>
      </trkpt>
      <trkpt lat="45.86679" lon="4.38087">
        <ele>747.4</ele>
        <time>2022-06-26T11:10:55Z</time>
      </trkpt>
      <trkpt lat="45.86679" lon="4.38083">
        <ele>747.4</ele>
        <time>2022-06-26T11:10:56Z</time>
      </trkpt>
      <trkpt lat="45.86679" lon="4.38079">
        <ele>747.8</ele>
        <time>2022-06-26T11:10:57Z</time>
      </trkpt>
      <trkpt lat="45.86679" lon="4.38075">
        <ele>747.8</ele>
        <time>2022-06-26T11:10:58Z</time>
      </trkpt>
      <trkpt lat="45.86679" lon="4.38071">
        <ele>748</ele>
        <time>2022-06-26T11:10:59Z</time>
      </trkpt>
      <trkpt lat="45.86679" lon="4.38066">
        <ele>748</ele>
        <time>2022-06-26T11:11:00Z</time>
      </trkpt>
      <trkpt lat="45.86679" lon="4.38062">
        <ele>748.4</ele>
        <time>2022-06-26T11:11:01Z</time>
      </trkpt>
      <trkpt lat="45.86679" lon="4.38058">
        <ele>748.4</ele>
        <time>2022-06-26T11:11:02Z</time>
      </trkpt>
      <trkpt lat="45.86679" lon="4.38053">
        <ele>748.6</ele>
        <time>2022-06-26T11:11:03Z</time>
      </trkpt>
      <trkpt lat="45.86679" lon="4.38049">
        <ele>748.6</ele>
        <time>2022-06-26T11:11:04Z</time>
      </trkpt>
      <trkpt lat="45.86679" lon="4.38045">
        <ele>749</ele>
        <time>2022-06-26T11:11:05Z</time>
      </trkpt>
      <trkpt lat="45.86679" lon="4.38041">
        <ele>749.2</ele>
        <time>2022-06-26T11:11:06Z</time>
      </trkpt>
      <trkpt lat="45.8668" lon="4.38037">
        <ele>749.2</ele>
        <time>2022-06-26T11:11:07Z</time>
      </trkpt>
      <trkpt lat="45.8668" lon="4.38033">
        <ele>749.6</ele>
        <time>2022-06-26T11:11:08Z</time>
      </trkpt>
      <trkpt lat="45.8668" lon="4.38029">
        <ele>749.6</ele>
        <time>2022-06-26T11:11:09Z</time>
      </trkpt>
      <trkpt lat="45.8668" lon="4.38025">
        <ele>749.8</ele>
        <time>2022-06-26T11:11:10Z</time>
      </trkpt>
      <trkpt lat="45.86681" lon="4.38021">
        <ele>749.8</ele>
        <time>2022-06-26T11:11:11Z</time>
      </trkpt>
      <trkpt lat="45.86681" lon="4.38017">
        <ele>750.2</ele>
        <time>2022-06-26T11:11:12Z</time>
      </trkpt>
      <trkpt lat="45.86682" lon="4.38014">
        <ele>750.2</ele>
        <time>2022-06-26T11:11:13Z</time>
      </trkpt>
      <trkpt lat="45.86682" lon="4.38009">
        <ele>750.6</ele>
        <time>2022-06-26T11:11:14Z</time>
      </trkpt>
      <trkpt lat="45.86683" lon="4.38005">
        <ele>750.6</ele>
        <time>2022-06-26T11:11:15Z</time>
      </trkpt>
      <trkpt lat="45.86683" lon="4.38001">
        <ele>751</ele>
        <time>2022-06-26T11:11:16Z</time>
      </trkpt>
      <trkpt lat="45.86683" lon="4.37996">
        <ele>751</ele>
        <time>2022-06-26T11:11:17Z</time>
      </trkpt>
      <trkpt lat="45.86684" lon="4.37992">
        <ele>751.4</ele>
        <time>2022-06-26T11:11:18Z</time>
      </trkpt>
      <trkpt lat="45.86684" lon="4.37987">
        <ele>751.4</ele>
        <time>2022-06-26T11:11:19Z</time>
      </trkpt>
      <trkpt lat="45.86685" lon="4.37983">
        <ele>751.4</ele>
        <time>2022-06-26T11:11:20Z</time>
      </trkpt>
      <trkpt lat="45.86686" lon="4.37979">
        <ele>751.6</ele>
        <time>2022-06-26T11:11:21Z</time>
      </trkpt>
      <trkpt lat="45.86686" lon="4.37975">
        <ele>751.8</ele>
        <time>2022-06-26T11:11:22Z</time>
      </trkpt>
      <trkpt lat="45.86687" lon="4.37971">
        <ele>752.2</ele>
        <time>2022-06-26T11:11:23Z</time>
      </trkpt>
      <trkpt lat="45.86688" lon="4.37967">
        <ele>752.2</ele>
        <time>2022-06-26T11:11:24Z</time>
      </trkpt>
      <trkpt lat="45.86689" lon="4.37963">
        <ele>752.6</ele>
        <time>2022-06-26T11:11:25Z</time>
      </trkpt>
      <trkpt lat="45.8669" lon="4.37959">
        <ele>752.6</ele>
        <time>2022-06-26T11:11:26Z</time>
      </trkpt>
      <trkpt lat="45.86691" lon="4.37955">
        <ele>752.8</ele>
        <time>2022-06-26T11:11:27Z</time>
      </trkpt>
      <trkpt lat="45.86692" lon="4.37951">
        <ele>752.8</ele>
        <time>2022-06-26T11:11:28Z</time>
      </trkpt>
      <trkpt lat="45.86693" lon="4.37947">
        <ele>753.2</ele>
        <time>2022-06-26T11:11:29Z</time>
      </trkpt>
      <trkpt lat="45.86694" lon="4.37943">
        <ele>753.2</ele>
        <time>2022-06-26T11:11:30Z</time>
      </trkpt>
      <trkpt lat="45.86695" lon="4.37939">
        <ele>753.4</ele>
        <time>2022-06-26T11:11:31Z</time>
      </trkpt>
      <trkpt lat="45.86696" lon="4.37935">
        <ele>753.4</ele>
        <time>2022-06-26T11:11:32Z</time>
      </trkpt>
      <trkpt lat="45.86697" lon="4.37932">
        <ele>753.8</ele>
        <time>2022-06-26T11:11:33Z</time>
      </trkpt>
      <trkpt lat="45.86698" lon="4.37929">
        <ele>753.8</ele>
        <time>2022-06-26T11:11:34Z</time>
      </trkpt>
      <trkpt lat="45.867" lon="4.37926">
        <ele>754</ele>
        <time>2022-06-26T11:11:35Z</time>
      </trkpt>
      <trkpt lat="45.86701" lon="4.37922">
        <ele>754</ele>
        <time>2022-06-26T11:11:36Z</time>
      </trkpt>
      <trkpt lat="45.86702" lon="4.37919">
        <ele>754.4</ele>
        <time>2022-06-26T11:11:37Z</time>
      </trkpt>
      <trkpt lat="45.86704" lon="4.37915">
        <ele>754.4</ele>
        <time>2022-06-26T11:11:38Z</time>
      </trkpt>
      <trkpt lat="45.86705" lon="4.37912">
        <ele>754.8</ele>
        <time>2022-06-26T11:11:39Z</time>
      </trkpt>
      <trkpt lat="45.86706" lon="4.3791">
        <ele>754.8</ele>
        <time>2022-06-26T11:11:40Z</time>
      </trkpt>
      <trkpt lat="45.86708" lon="4.37906">
        <ele>755</ele>
        <time>2022-06-26T11:11:41Z</time>
      </trkpt>
      <trkpt lat="45.86709" lon="4.37904">
        <ele>755.4</ele>
        <time>2022-06-26T11:11:42Z</time>
      </trkpt>
      <trkpt lat="45.8671" lon="4.37901">
        <ele>755.4</ele>
        <time>2022-06-26T11:11:43Z</time>
      </trkpt>
      <trkpt lat="45.86711" lon="4.37898">
        <ele>755.6</ele>
        <time>2022-06-26T11:11:44Z</time>
      </trkpt>
      <trkpt lat="45.86713" lon="4.37895">
        <ele>755.6</ele>
        <time>2022-06-26T11:11:45Z</time>
      </trkpt>
      <trkpt lat="45.86714" lon="4.37892">
        <ele>756</ele>
        <time>2022-06-26T11:11:46Z</time>
      </trkpt>
      <trkpt lat="45.86715" lon="4.37889">
        <ele>756</ele>
        <time>2022-06-26T11:11:47Z</time>
      </trkpt>
      <trkpt lat="45.86717" lon="4.37886">
        <ele>756</ele>
        <time>2022-06-26T11:11:48Z</time>
      </trkpt>
      <trkpt lat="45.86718" lon="4.37884">
        <ele>756.4</ele>
        <time>2022-06-26T11:11:49Z</time>
      </trkpt>
      <trkpt lat="45.86719" lon="4.37881">
        <ele>756.4</ele>
        <time>2022-06-26T11:11:50Z</time>
      </trkpt>
      <trkpt lat="45.8672" lon="4.37878">
        <ele>756.6</ele>
        <time>2022-06-26T11:11:51Z</time>
      </trkpt>
      <trkpt lat="45.86721" lon="4.37875">
        <ele>756.8</ele>
        <time>2022-06-26T11:11:52Z</time>
      </trkpt>
      <trkpt lat="45.86722" lon="4.37871">
        <ele>756.8</ele>
        <time>2022-06-26T11:11:53Z</time>
      </trkpt>
      <trkpt lat="45.86723" lon="4.37868">
        <ele>757.2</ele>
        <time>2022-06-26T11:11:54Z</time>
      </trkpt>
      <trkpt lat="45.86723" lon="4.37865">
        <ele>757.2</ele>
        <time>2022-06-26T11:11:55Z</time>
      </trkpt>
      <trkpt lat="45.86724" lon="4.37861">
        <ele>757.4</ele>
        <time>2022-06-26T11:11:56Z</time>
      </trkpt>
      <trkpt lat="45.86725" lon="4.37858">
        <ele>757.4</ele>
        <time>2022-06-26T11:11:57Z</time>
      </trkpt>
      <trkpt lat="45.86726" lon="4.37854">
        <ele>757.8</ele>
        <time>2022-06-26T11:11:58Z</time>
      </trkpt>
      <trkpt lat="45.86727" lon="4.37851">
        <ele>757.8</ele>
        <time>2022-06-26T11:11:59Z</time>
      </trkpt>
      <trkpt lat="45.86728" lon="4.37848">
        <ele>758</ele>
        <time>2022-06-26T11:12:00Z</time>
      </trkpt>
      <trkpt lat="45.86729" lon="4.37844">
        <ele>758.2</ele>
        <time>2022-06-26T11:12:01Z</time>
      </trkpt>
      <trkpt lat="45.8673" lon="4.37841">
        <ele>758.2</ele>
        <time>2022-06-26T11:12:02Z</time>
      </trkpt>
      <trkpt lat="45.86731" lon="4.37838">
        <ele>758.6</ele>
        <time>2022-06-26T11:12:03Z</time>
      </trkpt>
      <trkpt lat="45.86732" lon="4.37835">
        <ele>758.6</ele>
        <time>2022-06-26T11:12:04Z</time>
      </trkpt>
      <trkpt lat="45.86733" lon="4.37833">
        <ele>758.8</ele>
        <time>2022-06-26T11:12:05Z</time>
      </trkpt>
      <trkpt lat="45.86734" lon="4.3783">
        <ele>758.8</ele>
        <time>2022-06-26T11:12:06Z</time>
      </trkpt>
      <trkpt lat="45.86735" lon="4.37826">
        <ele>759.2</ele>
        <time>2022-06-26T11:12:07Z</time>
      </trkpt>
      <trkpt lat="45.86736" lon="4.37823">
        <ele>759.2</ele>
        <time>2022-06-26T11:12:08Z</time>
      </trkpt>
      <trkpt lat="45.86736" lon="4.3782">
        <ele>759.4</ele>
        <time>2022-06-26T11:12:09Z</time>
      </trkpt>
      <trkpt lat="45.86737" lon="4.37817">
        <ele>759.4</ele>
        <time>2022-06-26T11:12:10Z</time>
      </trkpt>
      <trkpt lat="45.86738" lon="4.37814">
        <ele>759.8</ele>
        <time>2022-06-26T11:12:11Z</time>
      </trkpt>
      <trkpt lat="45.86739" lon="4.37811">
        <ele>759.8</ele>
        <time>2022-06-26T11:12:12Z</time>
      </trkpt>
      <trkpt lat="45.86739" lon="4.37808">
        <ele>760</ele>
        <time>2022-06-26T11:12:13Z</time>
      </trkpt>
      <trkpt lat="45.8674" lon="4.37804">
        <ele>760</ele>
        <time>2022-06-26T11:12:14Z</time>
      </trkpt>
      <trkpt lat="45.86741" lon="4.378">
        <ele>760.2</ele>
        <time>2022-06-26T11:12:15Z</time>
      </trkpt>
      <trkpt lat="45.86742" lon="4.37795">
        <ele>760.6</ele>
        <time>2022-06-26T11:12:16Z</time>
      </trkpt>
      <trkpt lat="45.86743" lon="4.37791">
        <ele>760.6</ele>
        <time>2022-06-26T11:12:17Z</time>
      </trkpt>
      <trkpt lat="45.86743" lon="4.37786">
        <ele>760.8</ele>
        <time>2022-06-26T11:12:18Z</time>
      </trkpt>
      <trkpt lat="45.86743" lon="4.37782">
        <ele>760.8</ele>
        <time>2022-06-26T11:12:19Z</time>
      </trkpt>
      <trkpt lat="45.86744" lon="4.37778">
        <ele>761.2</ele>
        <time>2022-06-26T11:12:20Z</time>
      </trkpt>
      <trkpt lat="45.86744" lon="4.37774">
        <ele>761.4</ele>
        <time>2022-06-26T11:12:21Z</time>
      </trkpt>
      <trkpt lat="45.86745" lon="4.3777">
        <ele>761.6</ele>
        <time>2022-06-26T11:12:22Z</time>
      </trkpt>
      <trkpt lat="45.86745" lon="4.37766">
        <ele>761.6</ele>
        <time>2022-06-26T11:12:23Z</time>
      </trkpt>
      <trkpt lat="45.86746" lon="4.37761">
        <ele>762</ele>
        <time>2022-06-26T11:12:24Z</time>
      </trkpt>
      <trkpt lat="45.86747" lon="4.37757">
        <ele>762</ele>
        <time>2022-06-26T11:12:25Z</time>
      </trkpt>
      <trkpt lat="45.86748" lon="4.37753">
        <ele>762.4</ele>
        <time>2022-06-26T11:12:26Z</time>
      </trkpt>
      <trkpt lat="45.86748" lon="4.3775">
        <ele>762.4</ele>
        <time>2022-06-26T11:12:27Z</time>
      </trkpt>
      <trkpt lat="45.86749" lon="4.37746">
        <ele>762.6</ele>
        <time>2022-06-26T11:12:28Z</time>
      </trkpt>
      <trkpt lat="45.86749" lon="4.37742">
        <ele>762.6</ele>
        <time>2022-06-26T11:12:29Z</time>
      </trkpt>
      <trkpt lat="45.86749" lon="4.37739">
        <ele>762.8</ele>
        <time>2022-06-26T11:12:30Z</time>
      </trkpt>
      <trkpt lat="45.86749" lon="4.37735">
        <ele>762.8</ele>
        <time>2022-06-26T11:12:31Z</time>
      </trkpt>
      <trkpt lat="45.86749" lon="4.37731">
        <ele>763</ele>
        <time>2022-06-26T11:12:32Z</time>
      </trkpt>
      <trkpt lat="45.86749" lon="4.37727">
        <ele>763</ele>
        <time>2022-06-26T11:12:33Z</time>
      </trkpt>
      <trkpt lat="45.8675" lon="4.37722">
        <ele>763.4</ele>
        <time>2022-06-26T11:12:34Z</time>
      </trkpt>
      <trkpt lat="45.86749" lon="4.37718">
        <ele>763.4</ele>
        <time>2022-06-26T11:12:35Z</time>
      </trkpt>
      <trkpt lat="45.8675" lon="4.37714">
        <ele>763.6</ele>
        <time>2022-06-26T11:12:36Z</time>
      </trkpt>
      <trkpt lat="45.8675" lon="4.3771">
        <ele>763.6</ele>
        <time>2022-06-26T11:12:37Z</time>
      </trkpt>
      <trkpt lat="45.8675" lon="4.37707">
        <ele>763.8</ele>
        <time>2022-06-26T11:12:38Z</time>
      </trkpt>
      <trkpt lat="45.8675" lon="4.37703">
        <ele>763.8</ele>
        <time>2022-06-26T11:12:39Z</time>
      </trkpt>
      <trkpt lat="45.8675" lon="4.37699">
        <ele>764</ele>
        <time>2022-06-26T11:12:40Z</time>
      </trkpt>
      <trkpt lat="45.8675" lon="4.37695">
        <ele>764</ele>
        <time>2022-06-26T11:12:41Z</time>
      </trkpt>
      <trkpt lat="45.8675" lon="4.37691">
        <ele>764.4</ele>
        <time>2022-06-26T11:12:42Z</time>
      </trkpt>
      <trkpt lat="45.8675" lon="4.37688">
        <ele>764.4</ele>
        <time>2022-06-26T11:12:43Z</time>
      </trkpt>
      <trkpt lat="45.86749" lon="4.37685">
        <ele>764.6</ele>
        <time>2022-06-26T11:12:44Z</time>
      </trkpt>
      <trkpt lat="45.86749" lon="4.37681">
        <ele>764.6</ele>
        <time>2022-06-26T11:12:45Z</time>
      </trkpt>
      <trkpt lat="45.86748" lon="4.37678">
        <ele>764.8</ele>
        <time>2022-06-26T11:12:46Z</time>
      </trkpt>
      <trkpt lat="45.86748" lon="4.37673">
        <ele>764.8</ele>
        <time>2022-06-26T11:12:47Z</time>
      </trkpt>
      <trkpt lat="45.86748" lon="4.37672">
        <ele>764.8</ele>
        <time>2022-06-26T11:12:48Z</time>
      </trkpt>
      <trkpt lat="45.86748" lon="4.37669">
        <ele>765.2</ele>
        <time>2022-06-26T11:12:49Z</time>
      </trkpt>
      <trkpt lat="45.86748" lon="4.37666">
        <ele>765.2</ele>
        <time>2022-06-26T11:12:50Z</time>
      </trkpt>
      <trkpt lat="45.86747" lon="4.37662">
        <ele>765.6</ele>
        <time>2022-06-26T11:12:51Z</time>
      </trkpt>
      <trkpt lat="45.86747" lon="4.37657">
        <ele>765.6</ele>
        <time>2022-06-26T11:12:52Z</time>
      </trkpt>
      <trkpt lat="45.86746" lon="4.37653">
        <ele>765.8</ele>
        <time>2022-06-26T11:12:53Z</time>
      </trkpt>
      <trkpt lat="45.86745" lon="4.3765">
        <ele>765.8</ele>
        <time>2022-06-26T11:12:54Z</time>
      </trkpt>
      <trkpt lat="45.86743" lon="4.37646">
        <ele>766.2</ele>
        <time>2022-06-26T11:12:55Z</time>
      </trkpt>
      <trkpt lat="45.86742" lon="4.37642">
        <ele>766.2</ele>
        <time>2022-06-26T11:12:56Z</time>
      </trkpt>
      <trkpt lat="45.8674" lon="4.37638">
        <ele>766.4</ele>
        <time>2022-06-26T11:12:57Z</time>
      </trkpt>
      <trkpt lat="45.86739" lon="4.37635">
        <ele>766.4</ele>
        <time>2022-06-26T11:12:58Z</time>
      </trkpt>
      <trkpt lat="45.86739" lon="4.37632">
        <ele>766.6</ele>
        <time>2022-06-26T11:12:59Z</time>
      </trkpt>
      <trkpt lat="45.86737" lon="4.37627">
        <ele>766.6</ele>
        <time>2022-06-26T11:13:00Z</time>
      </trkpt>
      <trkpt lat="45.86736" lon="4.37622">
        <ele>767</ele>
        <time>2022-06-26T11:13:01Z</time>
      </trkpt>
      <trkpt lat="45.86734" lon="4.37618">
        <ele>767</ele>
        <time>2022-06-26T11:13:02Z</time>
      </trkpt>
      <trkpt lat="45.86732" lon="4.37614">
        <ele>767.4</ele>
        <time>2022-06-26T11:13:03Z</time>
      </trkpt>
      <trkpt lat="45.86731" lon="4.37611">
        <ele>767.4</ele>
        <time>2022-06-26T11:13:04Z</time>
      </trkpt>
      <trkpt lat="45.8673" lon="4.37607">
        <ele>767.6</ele>
        <time>2022-06-26T11:13:05Z</time>
      </trkpt>
      <trkpt lat="45.86729" lon="4.37603">
        <ele>767.6</ele>
        <time>2022-06-26T11:13:06Z</time>
      </trkpt>
      <trkpt lat="45.86727" lon="4.37599">
        <ele>768</ele>
        <time>2022-06-26T11:13:07Z</time>
      </trkpt>
      <trkpt lat="45.86726" lon="4.37596">
        <ele>768</ele>
        <time>2022-06-26T11:13:08Z</time>
      </trkpt>
      <trkpt lat="45.86724" lon="4.37593">
        <ele>768.4</ele>
        <time>2022-06-26T11:13:09Z</time>
      </trkpt>
      <trkpt lat="45.86722" lon="4.37589">
        <ele>768.4</ele>
        <time>2022-06-26T11:13:10Z</time>
      </trkpt>
      <trkpt lat="45.8672" lon="4.37586">
        <ele>768.4</ele>
        <time>2022-06-26T11:13:11Z</time>
      </trkpt>
      <trkpt lat="45.86717" lon="4.37582">
        <ele>768.6</ele>
        <time>2022-06-26T11:13:12Z</time>
      </trkpt>
      <trkpt lat="45.86716" lon="4.37578">
        <ele>768.6</ele>
        <time>2022-06-26T11:13:13Z</time>
      </trkpt>
      <trkpt lat="45.86711" lon="4.37571">
        <ele>769</ele>
        <time>2022-06-26T11:13:14Z</time>
      </trkpt>
      <trkpt lat="45.86709" lon="4.37568">
        <ele>769</ele>
        <time>2022-06-26T11:13:15Z</time>
      </trkpt>
      <trkpt lat="45.86706" lon="4.37565">
        <ele>769.2</ele>
        <time>2022-06-26T11:13:16Z</time>
      </trkpt>
      <trkpt lat="45.86704" lon="4.37562">
        <ele>769.2</ele>
        <time>2022-06-26T11:13:17Z</time>
      </trkpt>
      <trkpt lat="45.86702" lon="4.3756">
        <ele>769.2</ele>
        <time>2022-06-26T11:13:18Z</time>
      </trkpt>
      <trkpt lat="45.867" lon="4.37557">
        <ele>769.6</ele>
        <time>2022-06-26T11:13:19Z</time>
      </trkpt>
      <trkpt lat="45.86697" lon="4.37554">
        <ele>769.6</ele>
        <time>2022-06-26T11:13:20Z</time>
      </trkpt>
      <trkpt lat="45.86695" lon="4.37551">
        <ele>770</ele>
        <time>2022-06-26T11:13:21Z</time>
      </trkpt>
      <trkpt lat="45.86692" lon="4.37548">
        <ele>770</ele>
        <time>2022-06-26T11:13:22Z</time>
      </trkpt>
      <trkpt lat="45.86689" lon="4.37545">
        <ele>770.2</ele>
        <time>2022-06-26T11:13:23Z</time>
      </trkpt>
      <trkpt lat="45.86687" lon="4.37543">
        <ele>770.2</ele>
        <time>2022-06-26T11:13:24Z</time>
      </trkpt>
      <trkpt lat="45.86684" lon="4.37541">
        <ele>770.6</ele>
        <time>2022-06-26T11:13:25Z</time>
      </trkpt>
      <trkpt lat="45.86682" lon="4.37538">
        <ele>770.6</ele>
        <time>2022-06-26T11:13:26Z</time>
      </trkpt>
      <trkpt lat="45.86679" lon="4.37535">
        <ele>770.8</ele>
        <time>2022-06-26T11:13:27Z</time>
      </trkpt>
      <trkpt lat="45.86676" lon="4.37533">
        <ele>770.8</ele>
        <time>2022-06-26T11:13:28Z</time>
      </trkpt>
      <trkpt lat="45.86673" lon="4.37531">
        <ele>771</ele>
        <time>2022-06-26T11:13:29Z</time>
      </trkpt>
      <trkpt lat="45.86671" lon="4.37528">
        <ele>771</ele>
        <time>2022-06-26T11:13:30Z</time>
      </trkpt>
      <trkpt lat="45.86668" lon="4.37527">
        <ele>771.4</ele>
        <time>2022-06-26T11:13:31Z</time>
      </trkpt>
      <trkpt lat="45.86665" lon="4.37524">
        <ele>771.4</ele>
        <time>2022-06-26T11:13:32Z</time>
      </trkpt>
      <trkpt lat="45.86662" lon="4.37522">
        <ele>771.6</ele>
        <time>2022-06-26T11:13:33Z</time>
      </trkpt>
      <trkpt lat="45.86659" lon="4.3752">
        <ele>771.6</ele>
        <time>2022-06-26T11:13:34Z</time>
      </trkpt>
      <trkpt lat="45.86656" lon="4.37517">
        <ele>772</ele>
        <time>2022-06-26T11:13:35Z</time>
      </trkpt>
      <trkpt lat="45.86653" lon="4.37514">
        <ele>772</ele>
        <time>2022-06-26T11:13:36Z</time>
      </trkpt>
      <trkpt lat="45.86651" lon="4.37512">
        <ele>772.4</ele>
        <time>2022-06-26T11:13:37Z</time>
      </trkpt>
      <trkpt lat="45.86648" lon="4.3751">
        <ele>772.4</ele>
        <time>2022-06-26T11:13:38Z</time>
      </trkpt>
      <trkpt lat="45.86646" lon="4.37507">
        <ele>772.6</ele>
        <time>2022-06-26T11:13:39Z</time>
      </trkpt>
      <trkpt lat="45.86644" lon="4.37504">
        <ele>772.6</ele>
        <time>2022-06-26T11:13:40Z</time>
      </trkpt>
      <trkpt lat="45.86641" lon="4.375">
        <ele>773</ele>
        <time>2022-06-26T11:13:41Z</time>
      </trkpt>
      <trkpt lat="45.86639" lon="4.37497">
        <ele>773</ele>
        <time>2022-06-26T11:13:42Z</time>
      </trkpt>
      <trkpt lat="45.86638" lon="4.37493">
        <ele>773.4</ele>
        <time>2022-06-26T11:13:43Z</time>
      </trkpt>
      <trkpt lat="45.86637" lon="4.37489">
        <ele>773.4</ele>
        <time>2022-06-26T11:13:44Z</time>
      </trkpt>
      <trkpt lat="45.86636" lon="4.37485">
        <ele>773.6</ele>
        <time>2022-06-26T11:13:45Z</time>
      </trkpt>
      <trkpt lat="45.86634" lon="4.37481">
        <ele>773.6</ele>
        <time>2022-06-26T11:13:46Z</time>
      </trkpt>
      <trkpt lat="45.86634" lon="4.37477">
        <ele>774</ele>
        <time>2022-06-26T11:13:47Z</time>
      </trkpt>
      <trkpt lat="45.86633" lon="4.37473">
        <ele>774.2</ele>
        <time>2022-06-26T11:13:48Z</time>
      </trkpt>
      <trkpt lat="45.86632" lon="4.37469">
        <ele>774.2</ele>
        <time>2022-06-26T11:13:49Z</time>
      </trkpt>
      <trkpt lat="45.86632" lon="4.37465">
        <ele>774.4</ele>
        <time>2022-06-26T11:13:50Z</time>
      </trkpt>
      <trkpt lat="45.86632" lon="4.37461">
        <ele>774.4</ele>
        <time>2022-06-26T11:13:51Z</time>
      </trkpt>
      <trkpt lat="45.86631" lon="4.37457">
        <ele>774.8</ele>
        <time>2022-06-26T11:13:52Z</time>
      </trkpt>
      <trkpt lat="45.86631" lon="4.37453">
        <ele>775</ele>
        <time>2022-06-26T11:13:53Z</time>
      </trkpt>
      <trkpt lat="45.86631" lon="4.37449">
        <ele>775</ele>
        <time>2022-06-26T11:13:54Z</time>
      </trkpt>
      <trkpt lat="45.86631" lon="4.37446">
        <ele>775.4</ele>
        <time>2022-06-26T11:13:55Z</time>
      </trkpt>
      <trkpt lat="45.86631" lon="4.37442">
        <ele>775.4</ele>
        <time>2022-06-26T11:13:56Z</time>
      </trkpt>
      <trkpt lat="45.86631" lon="4.37438">
        <ele>775.6</ele>
        <time>2022-06-26T11:13:57Z</time>
      </trkpt>
      <trkpt lat="45.8663" lon="4.37434">
        <ele>775.6</ele>
        <time>2022-06-26T11:13:58Z</time>
      </trkpt>
      <trkpt lat="45.86631" lon="4.3743">
        <ele>776</ele>
        <time>2022-06-26T11:13:59Z</time>
      </trkpt>
      <trkpt lat="45.86631" lon="4.37427">
        <ele>776.2</ele>
        <time>2022-06-26T11:14:00Z</time>
      </trkpt>
      <trkpt lat="45.86632" lon="4.37423">
        <ele>776.2</ele>
        <time>2022-06-26T11:14:01Z</time>
      </trkpt>
      <trkpt lat="45.86632" lon="4.3742">
        <ele>776.6</ele>
        <time>2022-06-26T11:14:02Z</time>
      </trkpt>
      <trkpt lat="45.86633" lon="4.37416">
        <ele>776.6</ele>
        <time>2022-06-26T11:14:03Z</time>
      </trkpt>
      <trkpt lat="45.86633" lon="4.37412">
        <ele>776.8</ele>
        <time>2022-06-26T11:14:04Z</time>
      </trkpt>
      <trkpt lat="45.86634" lon="4.37409">
        <ele>776.8</ele>
        <time>2022-06-26T11:14:05Z</time>
      </trkpt>
      <trkpt lat="45.86634" lon="4.37405">
        <ele>777.2</ele>
        <time>2022-06-26T11:14:06Z</time>
      </trkpt>
      <trkpt lat="45.86635" lon="4.37402">
        <ele>777.2</ele>
        <time>2022-06-26T11:14:07Z</time>
      </trkpt>
      <trkpt lat="45.86635" lon="4.37398">
        <ele>777.2</ele>
        <time>2022-06-26T11:14:08Z</time>
      </trkpt>
      <trkpt lat="45.86636" lon="4.37394">
        <ele>777.6</ele>
        <time>2022-06-26T11:14:09Z</time>
      </trkpt>
      <trkpt lat="45.86637" lon="4.37391">
        <ele>777.6</ele>
        <time>2022-06-26T11:14:10Z</time>
      </trkpt>
      <trkpt lat="45.86637" lon="4.37388">
        <ele>777.8</ele>
        <time>2022-06-26T11:14:11Z</time>
      </trkpt>
      <trkpt lat="45.86638" lon="4.37384">
        <ele>777.8</ele>
        <time>2022-06-26T11:14:12Z</time>
      </trkpt>
      <trkpt lat="45.86638" lon="4.37381">
        <ele>778</ele>
        <time>2022-06-26T11:14:13Z</time>
      </trkpt>
      <trkpt lat="45.86638" lon="4.37378">
        <ele>778.2</ele>
        <time>2022-06-26T11:14:14Z</time>
      </trkpt>
      <trkpt lat="45.86638" lon="4.37375">
        <ele>778.4</ele>
        <time>2022-06-26T11:14:15Z</time>
      </trkpt>
      <trkpt lat="45.86639" lon="4.37372">
        <ele>778.4</ele>
        <time>2022-06-26T11:14:16Z</time>
      </trkpt>
      <trkpt lat="45.86639" lon="4.37369">
        <ele>778.8</ele>
        <time>2022-06-26T11:14:17Z</time>
      </trkpt>
      <trkpt lat="45.86639" lon="4.37365">
        <ele>779</ele>
        <time>2022-06-26T11:14:18Z</time>
      </trkpt>
      <trkpt lat="45.86639" lon="4.37362">
        <ele>779</ele>
        <time>2022-06-26T11:14:19Z</time>
      </trkpt>
      <trkpt lat="45.86639" lon="4.37359">
        <ele>779.2</ele>
        <time>2022-06-26T11:14:20Z</time>
      </trkpt>
      <trkpt lat="45.86639" lon="4.37356">
        <ele>779.2</ele>
        <time>2022-06-26T11:14:21Z</time>
      </trkpt>
      <trkpt lat="45.86638" lon="4.37353">
        <ele>779.4</ele>
        <time>2022-06-26T11:14:22Z</time>
      </trkpt>
      <trkpt lat="45.86638" lon="4.37349">
        <ele>779.8</ele>
        <time>2022-06-26T11:14:23Z</time>
      </trkpt>
      <trkpt lat="45.86638" lon="4.37346">
        <ele>779.8</ele>
        <time>2022-06-26T11:14:24Z</time>
      </trkpt>
      <trkpt lat="45.86638" lon="4.37342">
        <ele>780</ele>
        <time>2022-06-26T11:14:25Z</time>
      </trkpt>
      <trkpt lat="45.86638" lon="4.37339">
        <ele>780</ele>
        <time>2022-06-26T11:14:26Z</time>
      </trkpt>
      <trkpt lat="45.86638" lon="4.37335">
        <ele>780.4</ele>
        <time>2022-06-26T11:14:27Z</time>
      </trkpt>
      <trkpt lat="45.86638" lon="4.37331">
        <ele>780.4</ele>
        <time>2022-06-26T11:14:28Z</time>
      </trkpt>
      <trkpt lat="45.86637" lon="4.37327">
        <ele>780.6</ele>
        <time>2022-06-26T11:14:29Z</time>
      </trkpt>
      <trkpt lat="45.86637" lon="4.37323">
        <ele>780.6</ele>
        <time>2022-06-26T11:14:30Z</time>
      </trkpt>
      <trkpt lat="45.86637" lon="4.37319">
        <ele>780.8</ele>
        <time>2022-06-26T11:14:31Z</time>
      </trkpt>
      <trkpt lat="45.86637" lon="4.37315">
        <ele>780.8</ele>
        <time>2022-06-26T11:14:32Z</time>
      </trkpt>
      <trkpt lat="45.86637" lon="4.37311">
        <ele>781.2</ele>
        <time>2022-06-26T11:14:33Z</time>
      </trkpt>
      <trkpt lat="45.86637" lon="4.37306">
        <ele>781.2</ele>
        <time>2022-06-26T11:14:34Z</time>
      </trkpt>
      <trkpt lat="45.86637" lon="4.37302">
        <ele>781.4</ele>
        <time>2022-06-26T11:14:35Z</time>
      </trkpt>
      <trkpt lat="45.86637" lon="4.37298">
        <ele>781.4</ele>
        <time>2022-06-26T11:14:36Z</time>
      </trkpt>
      <trkpt lat="45.86638" lon="4.37294">
        <ele>781.8</ele>
        <time>2022-06-26T11:14:37Z</time>
      </trkpt>
      <trkpt lat="45.86638" lon="4.3729">
        <ele>781.8</ele>
        <time>2022-06-26T11:14:38Z</time>
      </trkpt>
      <trkpt lat="45.86638" lon="4.37286">
        <ele>782.2</ele>
        <time>2022-06-26T11:14:39Z</time>
      </trkpt>
      <trkpt lat="45.86637" lon="4.37282">
        <ele>782.2</ele>
        <time>2022-06-26T11:14:40Z</time>
      </trkpt>
      <trkpt lat="45.86637" lon="4.37278">
        <ele>782.6</ele>
        <time>2022-06-26T11:14:41Z</time>
      </trkpt>
      <trkpt lat="45.86637" lon="4.37274">
        <ele>782.6</ele>
        <time>2022-06-26T11:14:42Z</time>
      </trkpt>
      <trkpt lat="45.86637" lon="4.3727">
        <ele>782.8</ele>
        <time>2022-06-26T11:14:43Z</time>
      </trkpt>
      <trkpt lat="45.86637" lon="4.37267">
        <ele>782.8</ele>
        <time>2022-06-26T11:14:44Z</time>
      </trkpt>
      <trkpt lat="45.86637" lon="4.37263">
        <ele>783.2</ele>
        <time>2022-06-26T11:14:45Z</time>
      </trkpt>
      <trkpt lat="45.86638" lon="4.37259">
        <ele>783.2</ele>
        <time>2022-06-26T11:14:46Z</time>
      </trkpt>
      <trkpt lat="45.86639" lon="4.37255">
        <ele>783.4</ele>
        <time>2022-06-26T11:14:47Z</time>
      </trkpt>
      <trkpt lat="45.86639" lon="4.37251">
        <ele>783.4</ele>
        <time>2022-06-26T11:14:48Z</time>
      </trkpt>
      <trkpt lat="45.8664" lon="4.37247">
        <ele>783.8</ele>
        <time>2022-06-26T11:14:49Z</time>
      </trkpt>
      <trkpt lat="45.8664" lon="4.37243">
        <ele>783.8</ele>
        <time>2022-06-26T11:14:50Z</time>
      </trkpt>
      <trkpt lat="45.86641" lon="4.37239">
        <ele>784.2</ele>
        <time>2022-06-26T11:14:51Z</time>
      </trkpt>
      <trkpt lat="45.86641" lon="4.37235">
        <ele>784.2</ele>
        <time>2022-06-26T11:14:52Z</time>
      </trkpt>
      <trkpt lat="45.86642" lon="4.37231">
        <ele>784.6</ele>
        <time>2022-06-26T11:14:53Z</time>
      </trkpt>
      <trkpt lat="45.86642" lon="4.37227">
        <ele>784.8</ele>
        <time>2022-06-26T11:14:54Z</time>
      </trkpt>
      <trkpt lat="45.86642" lon="4.37223">
        <ele>784.8</ele>
        <time>2022-06-26T11:14:55Z</time>
      </trkpt>
      <trkpt lat="45.86642" lon="4.37219">
        <ele>785.2</ele>
        <time>2022-06-26T11:14:56Z</time>
      </trkpt>
      <trkpt lat="45.86642" lon="4.37215">
        <ele>785.2</ele>
        <time>2022-06-26T11:14:57Z</time>
      </trkpt>
      <trkpt lat="45.86642" lon="4.37211">
        <ele>785.4</ele>
        <time>2022-06-26T11:14:58Z</time>
      </trkpt>
      <trkpt lat="45.86641" lon="4.37208">
        <ele>785.4</ele>
        <time>2022-06-26T11:14:59Z</time>
      </trkpt>
      <trkpt lat="45.86641" lon="4.37204">
        <ele>785.8</ele>
        <time>2022-06-26T11:15:00Z</time>
      </trkpt>
      <trkpt lat="45.8664" lon="4.372">
        <ele>786</ele>
        <time>2022-06-26T11:15:01Z</time>
      </trkpt>
      <trkpt lat="45.8664" lon="4.37197">
        <ele>786</ele>
        <time>2022-06-26T11:15:02Z</time>
      </trkpt>
      <trkpt lat="45.86639" lon="4.37193">
        <ele>786.2</ele>
        <time>2022-06-26T11:15:03Z</time>
      </trkpt>
      <trkpt lat="45.86638" lon="4.37189">
        <ele>786.2</ele>
        <time>2022-06-26T11:15:04Z</time>
      </trkpt>
      <trkpt lat="45.86637" lon="4.37186">
        <ele>786.6</ele>
        <time>2022-06-26T11:15:05Z</time>
      </trkpt>
      <trkpt lat="45.86635" lon="4.37182">
        <ele>786.6</ele>
        <time>2022-06-26T11:15:06Z</time>
      </trkpt>
      <trkpt lat="45.86634" lon="4.37178">
        <ele>786.8</ele>
        <time>2022-06-26T11:15:07Z</time>
      </trkpt>
      <trkpt lat="45.86633" lon="4.37175">
        <ele>786.8</ele>
        <time>2022-06-26T11:15:08Z</time>
      </trkpt>
      <trkpt lat="45.86631" lon="4.37172">
        <ele>787</ele>
        <time>2022-06-26T11:15:09Z</time>
      </trkpt>
      <trkpt lat="45.86629" lon="4.37168">
        <ele>787</ele>
        <time>2022-06-26T11:15:10Z</time>
      </trkpt>
      <trkpt lat="45.86627" lon="4.37165">
        <ele>787.4</ele>
        <time>2022-06-26T11:15:11Z</time>
      </trkpt>
      <trkpt lat="45.86625" lon="4.37162">
        <ele>787.4</ele>
        <time>2022-06-26T11:15:12Z</time>
      </trkpt>
      <trkpt lat="45.86622" lon="4.37159">
        <ele>787.8</ele>
        <time>2022-06-26T11:15:13Z</time>
      </trkpt>
      <trkpt lat="45.86619" lon="4.37156">
        <ele>787.8</ele>
        <time>2022-06-26T11:15:14Z</time>
      </trkpt>
      <trkpt lat="45.86617" lon="4.37153">
        <ele>788.2</ele>
        <time>2022-06-26T11:15:15Z</time>
      </trkpt>
      <trkpt lat="45.86614" lon="4.3715">
        <ele>788.2</ele>
        <time>2022-06-26T11:15:16Z</time>
      </trkpt>
      <trkpt lat="45.86612" lon="4.37147">
        <ele>788.4</ele>
        <time>2022-06-26T11:15:17Z</time>
      </trkpt>
      <trkpt lat="45.86609" lon="4.37145">
        <ele>788.6</ele>
        <time>2022-06-26T11:15:18Z</time>
      </trkpt>
      <trkpt lat="45.86606" lon="4.37143">
        <ele>788.6</ele>
        <time>2022-06-26T11:15:19Z</time>
      </trkpt>
      <trkpt lat="45.86604" lon="4.37141">
        <ele>788.8</ele>
        <time>2022-06-26T11:15:20Z</time>
      </trkpt>
      <trkpt lat="45.86601" lon="4.37138">
        <ele>788.8</ele>
        <time>2022-06-26T11:15:21Z</time>
      </trkpt>
      <trkpt lat="45.86598" lon="4.37137">
        <ele>789.2</ele>
        <time>2022-06-26T11:15:22Z</time>
      </trkpt>
      <trkpt lat="45.86596" lon="4.37135">
        <ele>789.2</ele>
        <time>2022-06-26T11:15:23Z</time>
      </trkpt>
      <trkpt lat="45.86594" lon="4.37133">
        <ele>789.4</ele>
        <time>2022-06-26T11:15:24Z</time>
      </trkpt>
      <trkpt lat="45.86591" lon="4.37132">
        <ele>789.4</ele>
        <time>2022-06-26T11:15:25Z</time>
      </trkpt>
      <trkpt lat="45.86589" lon="4.3713">
        <ele>789.4</ele>
        <time>2022-06-26T11:15:26Z</time>
      </trkpt>
      <trkpt lat="45.86586" lon="4.37128">
        <ele>789.8</ele>
        <time>2022-06-26T11:15:27Z</time>
      </trkpt>
      <trkpt lat="45.86584" lon="4.37127">
        <ele>789.8</ele>
        <time>2022-06-26T11:15:28Z</time>
      </trkpt>
      <trkpt lat="45.86582" lon="4.37124">
        <ele>790</ele>
        <time>2022-06-26T11:15:29Z</time>
      </trkpt>
      <trkpt lat="45.86579" lon="4.37123">
        <ele>790</ele>
        <time>2022-06-26T11:15:30Z</time>
      </trkpt>
      <trkpt lat="45.86577" lon="4.3712">
        <ele>790</ele>
        <time>2022-06-26T11:15:31Z</time>
      </trkpt>
      <trkpt lat="45.86575" lon="4.37118">
        <ele>790.2</ele>
        <time>2022-06-26T11:15:32Z</time>
      </trkpt>
      <trkpt lat="45.86573" lon="4.37116">
        <ele>790.2</ele>
        <time>2022-06-26T11:15:33Z</time>
      </trkpt>
      <trkpt lat="45.86571" lon="4.37114">
        <ele>790.4</ele>
        <time>2022-06-26T11:15:34Z</time>
      </trkpt>
      <trkpt lat="45.86569" lon="4.37112">
        <ele>790.4</ele>
        <time>2022-06-26T11:15:35Z</time>
      </trkpt>
      <trkpt lat="45.86567" lon="4.3711">
        <ele>790.8</ele>
        <time>2022-06-26T11:15:36Z</time>
      </trkpt>
      <trkpt lat="45.86565" lon="4.37108">
        <ele>790.8</ele>
        <time>2022-06-26T11:15:37Z</time>
      </trkpt>
      <trkpt lat="45.86562" lon="4.37106">
        <ele>791.2</ele>
        <time>2022-06-26T11:15:38Z</time>
      </trkpt>
      <trkpt lat="45.86561" lon="4.37104">
        <ele>791.2</ele>
        <time>2022-06-26T11:15:39Z</time>
      </trkpt>
      <trkpt lat="45.86559" lon="4.37102">
        <ele>791.4</ele>
        <time>2022-06-26T11:15:40Z</time>
      </trkpt>
      <trkpt lat="45.86557" lon="4.37099">
        <ele>791.4</ele>
        <time>2022-06-26T11:15:41Z</time>
      </trkpt>
      <trkpt lat="45.86555" lon="4.37097">
        <ele>791.6</ele>
        <time>2022-06-26T11:15:42Z</time>
      </trkpt>
      <trkpt lat="45.86553" lon="4.37094">
        <ele>791.6</ele>
        <time>2022-06-26T11:15:43Z</time>
      </trkpt>
      <trkpt lat="45.86551" lon="4.37092">
        <ele>791.8</ele>
        <time>2022-06-26T11:15:44Z</time>
      </trkpt>
      <trkpt lat="45.86549" lon="4.37089">
        <ele>791.8</ele>
        <time>2022-06-26T11:15:45Z</time>
      </trkpt>
      <trkpt lat="45.86548" lon="4.37087">
        <ele>792.2</ele>
        <time>2022-06-26T11:15:46Z</time>
      </trkpt>
      <trkpt lat="45.86546" lon="4.37084">
        <ele>792.2</ele>
        <time>2022-06-26T11:15:47Z</time>
      </trkpt>
      <trkpt lat="45.86545" lon="4.37081">
        <ele>792.4</ele>
        <time>2022-06-26T11:15:48Z</time>
      </trkpt>
      <trkpt lat="45.86543" lon="4.37077">
        <ele>792.4</ele>
        <time>2022-06-26T11:15:49Z</time>
      </trkpt>
      <trkpt lat="45.86542" lon="4.37074">
        <ele>792.6</ele>
        <time>2022-06-26T11:15:50Z</time>
      </trkpt>
      <trkpt lat="45.86541" lon="4.3707">
        <ele>792.6</ele>
        <time>2022-06-26T11:15:51Z</time>
      </trkpt>
      <trkpt lat="45.8654" lon="4.37067">
        <ele>793</ele>
        <time>2022-06-26T11:15:52Z</time>
      </trkpt>
      <trkpt lat="45.86539" lon="4.37063">
        <ele>793</ele>
        <time>2022-06-26T11:15:53Z</time>
      </trkpt>
      <trkpt lat="45.86538" lon="4.37059">
        <ele>793.4</ele>
        <time>2022-06-26T11:15:54Z</time>
      </trkpt>
      <trkpt lat="45.86537" lon="4.37056">
        <ele>793.4</ele>
        <time>2022-06-26T11:15:55Z</time>
      </trkpt>
      <trkpt lat="45.86536" lon="4.37052">
        <ele>793.4</ele>
        <time>2022-06-26T11:15:56Z</time>
      </trkpt>
      <trkpt lat="45.86535" lon="4.37048">
        <ele>793.6</ele>
        <time>2022-06-26T11:15:57Z</time>
      </trkpt>
      <trkpt lat="45.86535" lon="4.37044">
        <ele>793.6</ele>
        <time>2022-06-26T11:15:58Z</time>
      </trkpt>
      <trkpt lat="45.86535" lon="4.3704">
        <ele>793.8</ele>
        <time>2022-06-26T11:15:59Z</time>
      </trkpt>
      <trkpt lat="45.86535" lon="4.37036">
        <ele>793.8</ele>
        <time>2022-06-26T11:16:00Z</time>
      </trkpt>
      <trkpt lat="45.86535" lon="4.37032">
        <ele>794.2</ele>
        <time>2022-06-26T11:16:01Z</time>
      </trkpt>
      <trkpt lat="45.86535" lon="4.37028">
        <ele>794.4</ele>
        <time>2022-06-26T11:16:02Z</time>
      </trkpt>
      <trkpt lat="45.86535" lon="4.37025">
        <ele>794.6</ele>
        <time>2022-06-26T11:16:03Z</time>
      </trkpt>
      <trkpt lat="45.86536" lon="4.37021">
        <ele>794.6</ele>
        <time>2022-06-26T11:16:04Z</time>
      </trkpt>
      <trkpt lat="45.86536" lon="4.37017">
        <ele>795</ele>
        <time>2022-06-26T11:16:05Z</time>
      </trkpt>
      <trkpt lat="45.86537" lon="4.37013">
        <ele>795</ele>
        <time>2022-06-26T11:16:06Z</time>
      </trkpt>
      <trkpt lat="45.86537" lon="4.37009">
        <ele>795.4</ele>
        <time>2022-06-26T11:16:07Z</time>
      </trkpt>
      <trkpt lat="45.86537" lon="4.37005">
        <ele>795.4</ele>
        <time>2022-06-26T11:16:08Z</time>
      </trkpt>
      <trkpt lat="45.86538" lon="4.37001">
        <ele>795.8</ele>
        <time>2022-06-26T11:16:09Z</time>
      </trkpt>
      <trkpt lat="45.86538" lon="4.36997">
        <ele>795.8</ele>
        <time>2022-06-26T11:16:10Z</time>
      </trkpt>
      <trkpt lat="45.86539" lon="4.36993">
        <ele>796</ele>
        <time>2022-06-26T11:16:11Z</time>
      </trkpt>
      <trkpt lat="45.86539" lon="4.3699">
        <ele>796</ele>
        <time>2022-06-26T11:16:12Z</time>
      </trkpt>
      <trkpt lat="45.8654" lon="4.36986">
        <ele>796.2</ele>
        <time>2022-06-26T11:16:13Z</time>
      </trkpt>
      <trkpt lat="45.8654" lon="4.36982">
        <ele>796.2</ele>
        <time>2022-06-26T11:16:14Z</time>
      </trkpt>
      <trkpt lat="45.86541" lon="4.36978">
        <ele>796.6</ele>
        <time>2022-06-26T11:16:15Z</time>
      </trkpt>
      <trkpt lat="45.86541" lon="4.36974">
        <ele>796.6</ele>
        <time>2022-06-26T11:16:16Z</time>
      </trkpt>
      <trkpt lat="45.86541" lon="4.3697">
        <ele>797</ele>
        <time>2022-06-26T11:16:17Z</time>
      </trkpt>
      <trkpt lat="45.86542" lon="4.36966">
        <ele>797</ele>
        <time>2022-06-26T11:16:18Z</time>
      </trkpt>
      <trkpt lat="45.86543" lon="4.36962">
        <ele>797.2</ele>
        <time>2022-06-26T11:16:19Z</time>
      </trkpt>
      <trkpt lat="45.86543" lon="4.36958">
        <ele>797.2</ele>
        <time>2022-06-26T11:16:20Z</time>
      </trkpt>
      <trkpt lat="45.86543" lon="4.36954">
        <ele>797.4</ele>
        <time>2022-06-26T11:16:21Z</time>
      </trkpt>
      <trkpt lat="45.86544" lon="4.3695">
        <ele>797.6</ele>
        <time>2022-06-26T11:16:22Z</time>
      </trkpt>
      <trkpt lat="45.86544" lon="4.36946">
        <ele>797.8</ele>
        <time>2022-06-26T11:16:23Z</time>
      </trkpt>
      <trkpt lat="45.86545" lon="4.36942">
        <ele>798</ele>
        <time>2022-06-26T11:16:24Z</time>
      </trkpt>
      <trkpt lat="45.86546" lon="4.36938">
        <ele>798</ele>
        <time>2022-06-26T11:16:25Z</time>
      </trkpt>
      <trkpt lat="45.86546" lon="4.36934">
        <ele>798.4</ele>
        <time>2022-06-26T11:16:26Z</time>
      </trkpt>
      <trkpt lat="45.86546" lon="4.3693">
        <ele>798.4</ele>
        <time>2022-06-26T11:16:27Z</time>
      </trkpt>
      <trkpt lat="45.86547" lon="4.36926">
        <ele>798.6</ele>
        <time>2022-06-26T11:16:28Z</time>
      </trkpt>
      <trkpt lat="45.86547" lon="4.36922">
        <ele>798.6</ele>
        <time>2022-06-26T11:16:29Z</time>
      </trkpt>
      <trkpt lat="45.86547" lon="4.36918">
        <ele>799</ele>
        <time>2022-06-26T11:16:30Z</time>
      </trkpt>
      <trkpt lat="45.86547" lon="4.36914">
        <ele>799.2</ele>
        <time>2022-06-26T11:16:31Z</time>
      </trkpt>
      <trkpt lat="45.86548" lon="4.36909">
        <ele>799.2</ele>
        <time>2022-06-26T11:16:32Z</time>
      </trkpt>
      <trkpt lat="45.86547" lon="4.36905">
        <ele>799.6</ele>
        <time>2022-06-26T11:16:33Z</time>
      </trkpt>
      <trkpt lat="45.86547" lon="4.36901">
        <ele>800</ele>
        <time>2022-06-26T11:16:34Z</time>
      </trkpt>
      <trkpt lat="45.86547" lon="4.36897">
        <ele>800</ele>
        <time>2022-06-26T11:16:35Z</time>
      </trkpt>
      <trkpt lat="45.86547" lon="4.36893">
        <ele>800.2</ele>
        <time>2022-06-26T11:16:36Z</time>
      </trkpt>
      <trkpt lat="45.86547" lon="4.36889">
        <ele>800.2</ele>
        <time>2022-06-26T11:16:37Z</time>
      </trkpt>
      <trkpt lat="45.86546" lon="4.36885">
        <ele>800.6</ele>
        <time>2022-06-26T11:16:38Z</time>
      </trkpt>
      <trkpt lat="45.86546" lon="4.36881">
        <ele>800.6</ele>
        <time>2022-06-26T11:16:39Z</time>
      </trkpt>
      <trkpt lat="45.86545" lon="4.36877">
        <ele>800.8</ele>
        <time>2022-06-26T11:16:40Z</time>
      </trkpt>
      <trkpt lat="45.86544" lon="4.36874">
        <ele>800.8</ele>
        <time>2022-06-26T11:16:41Z</time>
      </trkpt>
      <trkpt lat="45.86543" lon="4.3687">
        <ele>801.2</ele>
        <time>2022-06-26T11:16:42Z</time>
      </trkpt>
      <trkpt lat="45.86542" lon="4.36866">
        <ele>801.2</ele>
        <time>2022-06-26T11:16:43Z</time>
      </trkpt>
      <trkpt lat="45.86541" lon="4.36862">
        <ele>801.4</ele>
        <time>2022-06-26T11:16:44Z</time>
      </trkpt>
      <trkpt lat="45.86541" lon="4.36858">
        <ele>801.4</ele>
        <time>2022-06-26T11:16:45Z</time>
      </trkpt>
      <trkpt lat="45.8654" lon="4.36855">
        <ele>801.8</ele>
        <time>2022-06-26T11:16:46Z</time>
      </trkpt>
      <trkpt lat="45.86539" lon="4.36851">
        <ele>802</ele>
        <time>2022-06-26T11:16:47Z</time>
      </trkpt>
      <trkpt lat="45.86537" lon="4.36847">
        <ele>802</ele>
        <time>2022-06-26T11:16:48Z</time>
      </trkpt>
      <trkpt lat="45.86536" lon="4.36844">
        <ele>802.4</ele>
        <time>2022-06-26T11:16:49Z</time>
      </trkpt>
      <trkpt lat="45.86535" lon="4.36841">
        <ele>802.4</ele>
        <time>2022-06-26T11:16:50Z</time>
      </trkpt>
      <trkpt lat="45.86533" lon="4.36837">
        <ele>802.6</ele>
        <time>2022-06-26T11:16:51Z</time>
      </trkpt>
      <trkpt lat="45.86532" lon="4.36834">
        <ele>802.6</ele>
        <time>2022-06-26T11:16:52Z</time>
      </trkpt>
      <trkpt lat="45.8653" lon="4.36831">
        <ele>803</ele>
        <time>2022-06-26T11:16:53Z</time>
      </trkpt>
      <trkpt lat="45.86529" lon="4.36828">
        <ele>803</ele>
        <time>2022-06-26T11:16:54Z</time>
      </trkpt>
      <trkpt lat="45.86527" lon="4.36825">
        <ele>803.2</ele>
        <time>2022-06-26T11:16:55Z</time>
      </trkpt>
      <trkpt lat="45.86526" lon="4.36822">
        <ele>803.2</ele>
        <time>2022-06-26T11:16:56Z</time>
      </trkpt>
      <trkpt lat="45.86524" lon="4.36819">
        <ele>803.6</ele>
        <time>2022-06-26T11:16:57Z</time>
      </trkpt>
      <trkpt lat="45.86522" lon="4.36817">
        <ele>803.8</ele>
        <time>2022-06-26T11:16:58Z</time>
      </trkpt>
      <trkpt lat="45.8652" lon="4.36814">
        <ele>803.8</ele>
        <time>2022-06-26T11:16:59Z</time>
      </trkpt>
      <trkpt lat="45.86518" lon="4.36811">
        <ele>803.8</ele>
        <time>2022-06-26T11:17:00Z</time>
      </trkpt>
      <trkpt lat="45.86516" lon="4.36809">
        <ele>804.2</ele>
        <time>2022-06-26T11:17:01Z</time>
      </trkpt>
      <trkpt lat="45.86514" lon="4.36806">
        <ele>804.2</ele>
        <time>2022-06-26T11:17:02Z</time>
      </trkpt>
      <trkpt lat="45.86512" lon="4.36803">
        <ele>804.4</ele>
        <time>2022-06-26T11:17:03Z</time>
      </trkpt>
      <trkpt lat="45.8651" lon="4.36801">
        <ele>804.4</ele>
        <time>2022-06-26T11:17:04Z</time>
      </trkpt>
      <trkpt lat="45.86508" lon="4.36798">
        <ele>804.8</ele>
        <time>2022-06-26T11:17:05Z</time>
      </trkpt>
      <trkpt lat="45.86506" lon="4.36796">
        <ele>804.8</ele>
        <time>2022-06-26T11:17:06Z</time>
      </trkpt>
      <trkpt lat="45.86504" lon="4.36794">
        <ele>805</ele>
        <time>2022-06-26T11:17:07Z</time>
      </trkpt>
      <trkpt lat="45.86502" lon="4.36792">
        <ele>805</ele>
        <time>2022-06-26T11:17:08Z</time>
      </trkpt>
      <trkpt lat="45.865" lon="4.3679">
        <ele>805.2</ele>
        <time>2022-06-26T11:17:09Z</time>
      </trkpt>
      <trkpt lat="45.86497" lon="4.36788">
        <ele>805.2</ele>
        <time>2022-06-26T11:17:10Z</time>
      </trkpt>
      <trkpt lat="45.86495" lon="4.36787">
        <ele>805.6</ele>
        <time>2022-06-26T11:17:11Z</time>
      </trkpt>
      <trkpt lat="45.86492" lon="4.36785">
        <ele>805.6</ele>
        <time>2022-06-26T11:17:12Z</time>
      </trkpt>
      <trkpt lat="45.8649" lon="4.36784">
        <ele>806</ele>
        <time>2022-06-26T11:17:13Z</time>
      </trkpt>
      <trkpt lat="45.86488" lon="4.36783">
        <ele>806</ele>
        <time>2022-06-26T11:17:14Z</time>
      </trkpt>
      <trkpt lat="45.86485" lon="4.36781">
        <ele>806.2</ele>
        <time>2022-06-26T11:17:15Z</time>
      </trkpt>
      <trkpt lat="45.86483" lon="4.3678">
        <ele>806.2</ele>
        <time>2022-06-26T11:17:16Z</time>
      </trkpt>
      <trkpt lat="45.8648" lon="4.3678">
        <ele>806.6</ele>
        <time>2022-06-26T11:17:17Z</time>
      </trkpt>
      <trkpt lat="45.86478" lon="4.36779">
        <ele>806.6</ele>
        <time>2022-06-26T11:17:18Z</time>
      </trkpt>
      <trkpt lat="45.86475" lon="4.36778">
        <ele>806.8</ele>
        <time>2022-06-26T11:17:19Z</time>
      </trkpt>
      <trkpt lat="45.86473" lon="4.36777">
        <ele>806.8</ele>
        <time>2022-06-26T11:17:20Z</time>
      </trkpt>
      <trkpt lat="45.8647" lon="4.36776">
        <ele>807</ele>
        <time>2022-06-26T11:17:21Z</time>
      </trkpt>
      <trkpt lat="45.86468" lon="4.36776">
        <ele>807</ele>
        <time>2022-06-26T11:17:22Z</time>
      </trkpt>
      <trkpt lat="45.86465" lon="4.36775">
        <ele>807.4</ele>
        <time>2022-06-26T11:17:23Z</time>
      </trkpt>
      <trkpt lat="45.86462" lon="4.36775">
        <ele>807.4</ele>
        <time>2022-06-26T11:17:24Z</time>
      </trkpt>
      <trkpt lat="45.86459" lon="4.36774">
        <ele>807.6</ele>
        <time>2022-06-26T11:17:25Z</time>
      </trkpt>
      <trkpt lat="45.86457" lon="4.36774">
        <ele>807.6</ele>
        <time>2022-06-26T11:17:26Z</time>
      </trkpt>
      <trkpt lat="45.86454" lon="4.36774">
        <ele>807.8</ele>
        <time>2022-06-26T11:17:27Z</time>
      </trkpt>
      <trkpt lat="45.86451" lon="4.36773">
        <ele>807.8</ele>
        <time>2022-06-26T11:17:28Z</time>
      </trkpt>
      <trkpt lat="45.86449" lon="4.36773">
        <ele>808.2</ele>
        <time>2022-06-26T11:17:29Z</time>
      </trkpt>
      <trkpt lat="45.86446" lon="4.36773">
        <ele>808.2</ele>
        <time>2022-06-26T11:17:30Z</time>
      </trkpt>
      <trkpt lat="45.86443" lon="4.36772">
        <ele>808.6</ele>
        <time>2022-06-26T11:17:31Z</time>
      </trkpt>
      <trkpt lat="45.86441" lon="4.36771">
        <ele>808.6</ele>
        <time>2022-06-26T11:17:32Z</time>
      </trkpt>
      <trkpt lat="45.86438" lon="4.3677">
        <ele>808.6</ele>
        <time>2022-06-26T11:17:33Z</time>
      </trkpt>
      <trkpt lat="45.86435" lon="4.3677">
        <ele>808.8</ele>
        <time>2022-06-26T11:17:34Z</time>
      </trkpt>
      <trkpt lat="45.86433" lon="4.36769">
        <ele>808.8</ele>
        <time>2022-06-26T11:17:35Z</time>
      </trkpt>
      <trkpt lat="45.8643" lon="4.36768">
        <ele>809.2</ele>
        <time>2022-06-26T11:17:36Z</time>
      </trkpt>
      <trkpt lat="45.86427" lon="4.36767">
        <ele>809.2</ele>
        <time>2022-06-26T11:17:37Z</time>
      </trkpt>
      <trkpt lat="45.86425" lon="4.36766">
        <ele>809.4</ele>
        <time>2022-06-26T11:17:38Z</time>
      </trkpt>
      <trkpt lat="45.86422" lon="4.36765">
        <ele>809.4</ele>
        <time>2022-06-26T11:17:39Z</time>
      </trkpt>
      <trkpt lat="45.8642" lon="4.36764">
        <ele>809.8</ele>
        <time>2022-06-26T11:17:40Z</time>
      </trkpt>
      <trkpt lat="45.86417" lon="4.36763">
        <ele>809.8</ele>
        <time>2022-06-26T11:17:41Z</time>
      </trkpt>
      <trkpt lat="45.86414" lon="4.36762">
        <ele>810</ele>
        <time>2022-06-26T11:17:42Z</time>
      </trkpt>
      <trkpt lat="45.86412" lon="4.3676">
        <ele>810</ele>
        <time>2022-06-26T11:17:43Z</time>
      </trkpt>
      <trkpt lat="45.86409" lon="4.36759">
        <ele>810.4</ele>
        <time>2022-06-26T11:17:44Z</time>
      </trkpt>
      <trkpt lat="45.86407" lon="4.36757">
        <ele>810.4</ele>
        <time>2022-06-26T11:17:45Z</time>
      </trkpt>
      <trkpt lat="45.86404" lon="4.36755">
        <ele>810.6</ele>
        <time>2022-06-26T11:17:46Z</time>
      </trkpt>
      <trkpt lat="45.86402" lon="4.36753">
        <ele>810.6</ele>
        <time>2022-06-26T11:17:47Z</time>
      </trkpt>
      <trkpt lat="45.86399" lon="4.36752">
        <ele>810.8</ele>
        <time>2022-06-26T11:17:48Z</time>
      </trkpt>
      <trkpt lat="45.86397" lon="4.3675">
        <ele>810.8</ele>
        <time>2022-06-26T11:17:49Z</time>
      </trkpt>
      <trkpt lat="45.86394" lon="4.36748">
        <ele>811</ele>
        <time>2022-06-26T11:17:50Z</time>
      </trkpt>
      <trkpt lat="45.86392" lon="4.36746">
        <ele>811</ele>
        <time>2022-06-26T11:17:51Z</time>
      </trkpt>
      <trkpt lat="45.8639" lon="4.36744">
        <ele>811.4</ele>
        <time>2022-06-26T11:17:52Z</time>
      </trkpt>
      <trkpt lat="45.86387" lon="4.36742">
        <ele>811.4</ele>
        <time>2022-06-26T11:17:53Z</time>
      </trkpt>
      <trkpt lat="45.86385" lon="4.36739">
        <ele>811.6</ele>
        <time>2022-06-26T11:17:54Z</time>
      </trkpt>
      <trkpt lat="45.86383" lon="4.36737">
        <ele>811.6</ele>
        <time>2022-06-26T11:17:55Z</time>
      </trkpt>
      <trkpt lat="45.86381" lon="4.36734">
        <ele>812</ele>
        <time>2022-06-26T11:17:56Z</time>
      </trkpt>
      <trkpt lat="45.86379" lon="4.36731">
        <ele>812</ele>
        <time>2022-06-26T11:17:57Z</time>
      </trkpt>
      <trkpt lat="45.86377" lon="4.36729">
        <ele>812.2</ele>
        <time>2022-06-26T11:17:58Z</time>
      </trkpt>
      <trkpt lat="45.86375" lon="4.36726">
        <ele>812.2</ele>
        <time>2022-06-26T11:17:59Z</time>
      </trkpt>
      <trkpt lat="45.86373" lon="4.36723">
        <ele>812.6</ele>
        <time>2022-06-26T11:18:00Z</time>
      </trkpt>
      <trkpt lat="45.86371" lon="4.3672">
        <ele>812.6</ele>
        <time>2022-06-26T11:18:01Z</time>
      </trkpt>
      <trkpt lat="45.86369" lon="4.36717">
        <ele>812.8</ele>
        <time>2022-06-26T11:18:02Z</time>
      </trkpt>
      <trkpt lat="45.86367" lon="4.36714">
        <ele>812.8</ele>
        <time>2022-06-26T11:18:03Z</time>
      </trkpt>
      <trkpt lat="45.86366" lon="4.36711">
        <ele>813.2</ele>
        <time>2022-06-26T11:18:04Z</time>
      </trkpt>
      <trkpt lat="45.86364" lon="4.36708">
        <ele>813.2</ele>
        <time>2022-06-26T11:18:05Z</time>
      </trkpt>
      <trkpt lat="45.86362" lon="4.36705">
        <ele>813.4</ele>
        <time>2022-06-26T11:18:06Z</time>
      </trkpt>
      <trkpt lat="45.86361" lon="4.36702">
        <ele>813.4</ele>
        <time>2022-06-26T11:18:07Z</time>
      </trkpt>
      <trkpt lat="45.86359" lon="4.36699">
        <ele>813.8</ele>
        <time>2022-06-26T11:18:08Z</time>
      </trkpt>
      <trkpt lat="45.86357" lon="4.36696">
        <ele>813.8</ele>
        <time>2022-06-26T11:18:09Z</time>
      </trkpt>
      <trkpt lat="45.86355" lon="4.36693">
        <ele>814</ele>
        <time>2022-06-26T11:18:10Z</time>
      </trkpt>
      <trkpt lat="45.86354" lon="4.3669">
        <ele>814</ele>
        <time>2022-06-26T11:18:11Z</time>
      </trkpt>
      <trkpt lat="45.86352" lon="4.36687">
        <ele>814</ele>
        <time>2022-06-26T11:18:12Z</time>
      </trkpt>
      <trkpt lat="45.8635" lon="4.36684">
        <ele>814.4</ele>
        <time>2022-06-26T11:18:13Z</time>
      </trkpt>
      <trkpt lat="45.86349" lon="4.36681">
        <ele>814.4</ele>
        <time>2022-06-26T11:18:14Z</time>
      </trkpt>
      <trkpt lat="45.86347" lon="4.36678">
        <ele>814.6</ele>
        <time>2022-06-26T11:18:15Z</time>
      </trkpt>
      <trkpt lat="45.86346" lon="4.36675">
        <ele>814.6</ele>
        <time>2022-06-26T11:18:16Z</time>
      </trkpt>
      <trkpt lat="45.86344" lon="4.36672">
        <ele>815</ele>
        <time>2022-06-26T11:18:17Z</time>
      </trkpt>
      <trkpt lat="45.86343" lon="4.36669">
        <ele>815</ele>
        <time>2022-06-26T11:18:18Z</time>
      </trkpt>
      <trkpt lat="45.86341" lon="4.36666">
        <ele>815.4</ele>
        <time>2022-06-26T11:18:19Z</time>
      </trkpt>
      <trkpt lat="45.86339" lon="4.36663">
        <ele>815.4</ele>
        <time>2022-06-26T11:18:20Z</time>
      </trkpt>
      <trkpt lat="45.86337" lon="4.36661">
        <ele>815.6</ele>
        <time>2022-06-26T11:18:21Z</time>
      </trkpt>
      <trkpt lat="45.86335" lon="4.36658">
        <ele>815.6</ele>
        <time>2022-06-26T11:18:22Z</time>
      </trkpt>
      <trkpt lat="45.86333" lon="4.36655">
        <ele>816</ele>
        <time>2022-06-26T11:18:23Z</time>
      </trkpt>
      <trkpt lat="45.86331" lon="4.36653">
        <ele>816</ele>
        <time>2022-06-26T11:18:24Z</time>
      </trkpt>
      <trkpt lat="45.86329" lon="4.36651">
        <ele>816.2</ele>
        <time>2022-06-26T11:18:25Z</time>
      </trkpt>
      <trkpt lat="45.86327" lon="4.36648">
        <ele>816.2</ele>
        <time>2022-06-26T11:18:26Z</time>
      </trkpt>
      <trkpt lat="45.86325" lon="4.36646">
        <ele>816.6</ele>
        <time>2022-06-26T11:18:27Z</time>
      </trkpt>
      <trkpt lat="45.86322" lon="4.36644">
        <ele>816.6</ele>
        <time>2022-06-26T11:18:28Z</time>
      </trkpt>
      <trkpt lat="45.8632" lon="4.36642">
        <ele>816.8</ele>
        <time>2022-06-26T11:18:29Z</time>
      </trkpt>
      <trkpt lat="45.86318" lon="4.36641">
        <ele>816.8</ele>
        <time>2022-06-26T11:18:30Z</time>
      </trkpt>
      <trkpt lat="45.86315" lon="4.36639">
        <ele>817.2</ele>
        <time>2022-06-26T11:18:31Z</time>
      </trkpt>
      <trkpt lat="45.86313" lon="4.36637">
        <ele>817.2</ele>
        <time>2022-06-26T11:18:32Z</time>
      </trkpt>
      <trkpt lat="45.8631" lon="4.36636">
        <ele>817.6</ele>
        <time>2022-06-26T11:18:33Z</time>
      </trkpt>
      <trkpt lat="45.86308" lon="4.36634">
        <ele>817.6</ele>
        <time>2022-06-26T11:18:34Z</time>
      </trkpt>
      <trkpt lat="45.86305" lon="4.36633">
        <ele>817.8</ele>
        <time>2022-06-26T11:18:35Z</time>
      </trkpt>
      <trkpt lat="45.86303" lon="4.36631">
        <ele>817.8</ele>
        <time>2022-06-26T11:18:36Z</time>
      </trkpt>
      <trkpt lat="45.863" lon="4.3663">
        <ele>818.2</ele>
        <time>2022-06-26T11:18:37Z</time>
      </trkpt>
      <trkpt lat="45.86298" lon="4.36628">
        <ele>818.2</ele>
        <time>2022-06-26T11:18:38Z</time>
      </trkpt>
      <trkpt lat="45.86295" lon="4.36627">
        <ele>818.4</ele>
        <time>2022-06-26T11:18:39Z</time>
      </trkpt>
      <trkpt lat="45.86292" lon="4.36626">
        <ele>818.6</ele>
        <time>2022-06-26T11:18:40Z</time>
      </trkpt>
      <trkpt lat="45.8629" lon="4.36625">
        <ele>818.6</ele>
        <time>2022-06-26T11:18:41Z</time>
      </trkpt>
      <trkpt lat="45.86287" lon="4.36625">
        <ele>819</ele>
        <time>2022-06-26T11:18:42Z</time>
      </trkpt>
      <trkpt lat="45.86285" lon="4.36624">
        <ele>819</ele>
        <time>2022-06-26T11:18:43Z</time>
      </trkpt>
      <trkpt lat="45.86282" lon="4.36623">
        <ele>819.2</ele>
        <time>2022-06-26T11:18:44Z</time>
      </trkpt>
      <trkpt lat="45.86279" lon="4.36622">
        <ele>819.6</ele>
        <time>2022-06-26T11:18:45Z</time>
      </trkpt>
      <trkpt lat="45.86276" lon="4.36622">
        <ele>819.6</ele>
        <time>2022-06-26T11:18:46Z</time>
      </trkpt>
      <trkpt lat="45.86274" lon="4.36622">
        <ele>819.8</ele>
        <time>2022-06-26T11:18:47Z</time>
      </trkpt>
      <trkpt lat="45.86271" lon="4.36621">
        <ele>819.8</ele>
        <time>2022-06-26T11:18:48Z</time>
      </trkpt>
      <trkpt lat="45.86268" lon="4.36621">
        <ele>820.2</ele>
        <time>2022-06-26T11:18:49Z</time>
      </trkpt>
      <trkpt lat="45.86265" lon="4.36621">
        <ele>820.2</ele>
        <time>2022-06-26T11:18:50Z</time>
      </trkpt>
      <trkpt lat="45.86263" lon="4.36622">
        <ele>820.4</ele>
        <time>2022-06-26T11:18:51Z</time>
      </trkpt>
      <trkpt lat="45.8626" lon="4.36622">
        <ele>820.4</ele>
        <time>2022-06-26T11:18:52Z</time>
      </trkpt>
      <trkpt lat="45.86257" lon="4.36622">
        <ele>820.6</ele>
        <time>2022-06-26T11:18:53Z</time>
      </trkpt>
      <trkpt lat="45.86254" lon="4.36622">
        <ele>820.6</ele>
        <time>2022-06-26T11:18:54Z</time>
      </trkpt>
      <trkpt lat="45.86251" lon="4.36622">
        <ele>821</ele>
        <time>2022-06-26T11:18:55Z</time>
      </trkpt>
      <trkpt lat="45.86248" lon="4.36622">
        <ele>821</ele>
        <time>2022-06-26T11:18:56Z</time>
      </trkpt>
      <trkpt lat="45.86245" lon="4.36622">
        <ele>821.2</ele>
        <time>2022-06-26T11:18:57Z</time>
      </trkpt>
      <trkpt lat="45.86242" lon="4.36623">
        <ele>821.2</ele>
        <time>2022-06-26T11:18:58Z</time>
      </trkpt>
      <trkpt lat="45.86239" lon="4.36623">
        <ele>821.4</ele>
        <time>2022-06-26T11:18:59Z</time>
      </trkpt>
      <trkpt lat="45.86236" lon="4.36623">
        <ele>821.4</ele>
        <time>2022-06-26T11:19:00Z</time>
      </trkpt>
      <trkpt lat="45.86234" lon="4.36624">
        <ele>821.8</ele>
        <time>2022-06-26T11:19:01Z</time>
      </trkpt>
      <trkpt lat="45.86231" lon="4.36624">
        <ele>821.8</ele>
        <time>2022-06-26T11:19:02Z</time>
      </trkpt>
      <trkpt lat="45.86228" lon="4.36624">
        <ele>822</ele>
        <time>2022-06-26T11:19:03Z</time>
      </trkpt>
      <trkpt lat="45.86225" lon="4.36625">
        <ele>822</ele>
        <time>2022-06-26T11:19:04Z</time>
      </trkpt>
      <trkpt lat="45.86223" lon="4.36625">
        <ele>822.4</ele>
        <time>2022-06-26T11:19:05Z</time>
      </trkpt>
      <trkpt lat="45.8622" lon="4.36626">
        <ele>822.4</ele>
        <time>2022-06-26T11:19:06Z</time>
      </trkpt>
      <trkpt lat="45.86217" lon="4.36626">
        <ele>822.6</ele>
        <time>2022-06-26T11:19:07Z</time>
      </trkpt>
      <trkpt lat="45.86214" lon="4.36626">
        <ele>822.6</ele>
        <time>2022-06-26T11:19:08Z</time>
      </trkpt>
      <trkpt lat="45.86212" lon="4.36626">
        <ele>822.8</ele>
        <time>2022-06-26T11:19:09Z</time>
      </trkpt>
      <trkpt lat="45.86209" lon="4.36626">
        <ele>822.8</ele>
        <time>2022-06-26T11:19:10Z</time>
      </trkpt>
      <trkpt lat="45.86206" lon="4.36625">
        <ele>823.2</ele>
        <time>2022-06-26T11:19:11Z</time>
      </trkpt>
      <trkpt lat="45.86204" lon="4.36625">
        <ele>823.4</ele>
        <time>2022-06-26T11:19:12Z</time>
      </trkpt>
      <trkpt lat="45.86201" lon="4.36626">
        <ele>823.4</ele>
        <time>2022-06-26T11:19:13Z</time>
      </trkpt>
      <trkpt lat="45.86198" lon="4.36627">
        <ele>823.8</ele>
        <time>2022-06-26T11:19:14Z</time>
      </trkpt>
      <trkpt lat="45.86195" lon="4.36628">
        <ele>823.8</ele>
        <time>2022-06-26T11:19:15Z</time>
      </trkpt>
      <trkpt lat="45.86193" lon="4.36629">
        <ele>824.2</ele>
        <time>2022-06-26T11:19:16Z</time>
      </trkpt>
      <trkpt lat="45.8619" lon="4.3663">
        <ele>824.2</ele>
        <time>2022-06-26T11:19:17Z</time>
      </trkpt>
      <trkpt lat="45.86187" lon="4.36631">
        <ele>824.4</ele>
        <time>2022-06-26T11:19:18Z</time>
      </trkpt>
      <trkpt lat="45.86185" lon="4.36632">
        <ele>824.4</ele>
        <time>2022-06-26T11:19:19Z</time>
      </trkpt>
      <trkpt lat="45.86182" lon="4.36633">
        <ele>824.8</ele>
        <time>2022-06-26T11:19:20Z</time>
      </trkpt>
      <trkpt lat="45.8618" lon="4.36634">
        <ele>824.8</ele>
        <time>2022-06-26T11:19:21Z</time>
      </trkpt>
      <trkpt lat="45.86177" lon="4.36635">
        <ele>825</ele>
        <time>2022-06-26T11:19:22Z</time>
      </trkpt>
      <trkpt lat="45.86175" lon="4.36637">
        <ele>825</ele>
        <time>2022-06-26T11:19:23Z</time>
      </trkpt>
      <trkpt lat="45.86172" lon="4.36639">
        <ele>825.4</ele>
        <time>2022-06-26T11:19:24Z</time>
      </trkpt>
      <trkpt lat="45.8617" lon="4.3664">
        <ele>825.4</ele>
        <time>2022-06-26T11:19:25Z</time>
      </trkpt>
      <trkpt lat="45.86167" lon="4.36642">
        <ele>825.8</ele>
        <time>2022-06-26T11:19:26Z</time>
      </trkpt>
      <trkpt lat="45.86165" lon="4.36644">
        <ele>825.8</ele>
        <time>2022-06-26T11:19:27Z</time>
      </trkpt>
      <trkpt lat="45.86163" lon="4.36646">
        <ele>825.8</ele>
        <time>2022-06-26T11:19:28Z</time>
      </trkpt>
      <trkpt lat="45.8616" lon="4.36648">
        <ele>826</ele>
        <time>2022-06-26T11:19:29Z</time>
      </trkpt>
      <trkpt lat="45.86158" lon="4.3665">
        <ele>826</ele>
        <time>2022-06-26T11:19:30Z</time>
      </trkpt>
      <trkpt lat="45.86156" lon="4.36653">
        <ele>826.4</ele>
        <time>2022-06-26T11:19:31Z</time>
      </trkpt>
      <trkpt lat="45.86153" lon="4.36655">
        <ele>826.8</ele>
        <time>2022-06-26T11:19:32Z</time>
      </trkpt>
      <trkpt lat="45.86151" lon="4.36657">
        <ele>826.8</ele>
        <time>2022-06-26T11:19:33Z</time>
      </trkpt>
      <trkpt lat="45.86148" lon="4.36659">
        <ele>827</ele>
        <time>2022-06-26T11:19:34Z</time>
      </trkpt>
      <trkpt lat="45.86146" lon="4.36662">
        <ele>827</ele>
        <time>2022-06-26T11:19:35Z</time>
      </trkpt>
      <trkpt lat="45.86143" lon="4.36663">
        <ele>827.4</ele>
        <time>2022-06-26T11:19:36Z</time>
      </trkpt>
      <trkpt lat="45.86141" lon="4.36666">
        <ele>827.4</ele>
        <time>2022-06-26T11:19:37Z</time>
      </trkpt>
      <trkpt lat="45.86138" lon="4.36668">
        <ele>827.6</ele>
        <time>2022-06-26T11:19:38Z</time>
      </trkpt>
      <trkpt lat="45.86136" lon="4.3667">
        <ele>828</ele>
        <time>2022-06-26T11:19:40Z</time>
      </trkpt>
      <trkpt lat="45.86134" lon="4.36672">
        <ele>828.2</ele>
        <time>2022-06-26T11:19:41Z</time>
      </trkpt>
      <trkpt lat="45.86131" lon="4.36674">
        <ele>828.2</ele>
        <time>2022-06-26T11:19:42Z</time>
      </trkpt>
      <trkpt lat="45.86129" lon="4.36676">
        <ele>828.6</ele>
        <time>2022-06-26T11:19:43Z</time>
      </trkpt>
      <trkpt lat="45.86126" lon="4.36678">
        <ele>828.6</ele>
        <time>2022-06-26T11:19:44Z</time>
      </trkpt>
      <trkpt lat="45.86124" lon="4.3668">
        <ele>828.8</ele>
        <time>2022-06-26T11:19:45Z</time>
      </trkpt>
      <trkpt lat="45.86122" lon="4.36682">
        <ele>828.8</ele>
        <time>2022-06-26T11:19:46Z</time>
      </trkpt>
      <trkpt lat="45.86119" lon="4.36684">
        <ele>829.2</ele>
        <time>2022-06-26T11:19:47Z</time>
      </trkpt>
      <trkpt lat="45.86117" lon="4.36686">
        <ele>829.2</ele>
        <time>2022-06-26T11:19:48Z</time>
      </trkpt>
      <trkpt lat="45.86114" lon="4.36688">
        <ele>829.4</ele>
        <time>2022-06-26T11:19:49Z</time>
      </trkpt>
      <trkpt lat="45.86112" lon="4.3669">
        <ele>829.4</ele>
        <time>2022-06-26T11:19:50Z</time>
      </trkpt>
      <trkpt lat="45.86109" lon="4.36692">
        <ele>829.8</ele>
        <time>2022-06-26T11:19:51Z</time>
      </trkpt>
      <trkpt lat="45.86107" lon="4.36694">
        <ele>829.8</ele>
        <time>2022-06-26T11:19:52Z</time>
      </trkpt>
      <trkpt lat="45.86104" lon="4.36696">
        <ele>830</ele>
        <time>2022-06-26T11:19:53Z</time>
      </trkpt>
      <trkpt lat="45.86102" lon="4.36698">
        <ele>830</ele>
        <time>2022-06-26T11:19:54Z</time>
      </trkpt>
      <trkpt lat="45.861" lon="4.36699">
        <ele>830.4</ele>
        <time>2022-06-26T11:19:55Z</time>
      </trkpt>
      <trkpt lat="45.86097" lon="4.367">
        <ele>830.4</ele>
        <time>2022-06-26T11:19:56Z</time>
      </trkpt>
      <trkpt lat="45.86094" lon="4.36702">
        <ele>830.4</ele>
        <time>2022-06-26T11:19:57Z</time>
      </trkpt>
      <trkpt lat="45.86092" lon="4.36703">
        <ele>830.6</ele>
        <time>2022-06-26T11:19:58Z</time>
      </trkpt>
      <trkpt lat="45.86089" lon="4.36703">
        <ele>830.6</ele>
        <time>2022-06-26T11:19:59Z</time>
      </trkpt>
      <trkpt lat="45.86087" lon="4.36704">
        <ele>831</ele>
        <time>2022-06-26T11:20:00Z</time>
      </trkpt>
      <trkpt lat="45.86084" lon="4.36705">
        <ele>831</ele>
        <time>2022-06-26T11:20:01Z</time>
      </trkpt>
      <trkpt lat="45.86081" lon="4.36705">
        <ele>831.2</ele>
        <time>2022-06-26T11:20:02Z</time>
      </trkpt>
      <trkpt lat="45.86078" lon="4.36706">
        <ele>831.2</ele>
        <time>2022-06-26T11:20:03Z</time>
      </trkpt>
      <trkpt lat="45.86075" lon="4.36706">
        <ele>831.2</ele>
        <time>2022-06-26T11:20:04Z</time>
      </trkpt>
      <trkpt lat="45.86072" lon="4.36706">
        <ele>831.6</ele>
        <time>2022-06-26T11:20:05Z</time>
      </trkpt>
      <trkpt lat="45.86069" lon="4.36706">
        <ele>831.6</ele>
        <time>2022-06-26T11:20:06Z</time>
      </trkpt>
      <trkpt lat="45.86066" lon="4.36706">
        <ele>832</ele>
        <time>2022-06-26T11:20:07Z</time>
      </trkpt>
      <trkpt lat="45.86063" lon="4.36706">
        <ele>832</ele>
        <time>2022-06-26T11:20:08Z</time>
      </trkpt>
      <trkpt lat="45.86061" lon="4.36706">
        <ele>832.2</ele>
        <time>2022-06-26T11:20:09Z</time>
      </trkpt>
      <trkpt lat="45.86058" lon="4.36705">
        <ele>832.2</ele>
        <time>2022-06-26T11:20:10Z</time>
      </trkpt>
      <trkpt lat="45.86055" lon="4.36705">
        <ele>832.6</ele>
        <time>2022-06-26T11:20:11Z</time>
      </trkpt>
      <trkpt lat="45.86053" lon="4.36704">
        <ele>832.6</ele>
        <time>2022-06-26T11:20:12Z</time>
      </trkpt>
      <trkpt lat="45.8605" lon="4.36703">
        <ele>832.8</ele>
        <time>2022-06-26T11:20:13Z</time>
      </trkpt>
      <trkpt lat="45.86048" lon="4.36702">
        <ele>833.2</ele>
        <time>2022-06-26T11:20:14Z</time>
      </trkpt>
      <trkpt lat="45.86045" lon="4.367">
        <ele>833.2</ele>
        <time>2022-06-26T11:20:15Z</time>
      </trkpt>
      <trkpt lat="45.86043" lon="4.36699">
        <ele>833.4</ele>
        <time>2022-06-26T11:20:16Z</time>
      </trkpt>
      <trkpt lat="45.8604" lon="4.36697">
        <ele>833.4</ele>
        <time>2022-06-26T11:20:17Z</time>
      </trkpt>
      <trkpt lat="45.86038" lon="4.36695">
        <ele>833.8</ele>
        <time>2022-06-26T11:20:18Z</time>
      </trkpt>
      <trkpt lat="45.86035" lon="4.36693">
        <ele>833.8</ele>
        <time>2022-06-26T11:20:19Z</time>
      </trkpt>
      <trkpt lat="45.86033" lon="4.36691">
        <ele>834</ele>
        <time>2022-06-26T11:20:20Z</time>
      </trkpt>
      <trkpt lat="45.8603" lon="4.36688">
        <ele>834</ele>
        <time>2022-06-26T11:20:21Z</time>
      </trkpt>
      <trkpt lat="45.86028" lon="4.36686">
        <ele>834.4</ele>
        <time>2022-06-26T11:20:22Z</time>
      </trkpt>
      <trkpt lat="45.86026" lon="4.36683">
        <ele>834.4</ele>
        <time>2022-06-26T11:20:23Z</time>
      </trkpt>
      <trkpt lat="45.86024" lon="4.36681">
        <ele>834.8</ele>
        <time>2022-06-26T11:20:24Z</time>
      </trkpt>
      <trkpt lat="45.86021" lon="4.36678">
        <ele>834.8</ele>
        <time>2022-06-26T11:20:25Z</time>
      </trkpt>
      <trkpt lat="45.86019" lon="4.36675">
        <ele>835</ele>
        <time>2022-06-26T11:20:26Z</time>
      </trkpt>
      <trkpt lat="45.86017" lon="4.36672">
        <ele>835</ele>
        <time>2022-06-26T11:20:27Z</time>
      </trkpt>
      <trkpt lat="45.86015" lon="4.36669">
        <ele>835.4</ele>
        <time>2022-06-26T11:20:28Z</time>
      </trkpt>
      <trkpt lat="45.86014" lon="4.36666">
        <ele>835.4</ele>
        <time>2022-06-26T11:20:29Z</time>
      </trkpt>
      <trkpt lat="45.86012" lon="4.36663">
        <ele>835.8</ele>
        <time>2022-06-26T11:20:30Z</time>
      </trkpt>
      <trkpt lat="45.8601" lon="4.36659">
        <ele>835.8</ele>
        <time>2022-06-26T11:20:31Z</time>
      </trkpt>
      <trkpt lat="45.86008" lon="4.36656">
        <ele>836.4</ele>
        <time>2022-06-26T11:20:32Z</time>
      </trkpt>
      <trkpt lat="45.86007" lon="4.36652">
        <ele>836.6</ele>
        <time>2022-06-26T11:20:33Z</time>
      </trkpt>
      <trkpt lat="45.86005" lon="4.36649">
        <ele>836.6</ele>
        <time>2022-06-26T11:20:34Z</time>
      </trkpt>
      <trkpt lat="45.86004" lon="4.36645">
        <ele>837</ele>
        <time>2022-06-26T11:20:35Z</time>
      </trkpt>
      <trkpt lat="45.86003" lon="4.36641">
        <ele>837.2</ele>
        <time>2022-06-26T11:20:36Z</time>
      </trkpt>
      <trkpt lat="45.86002" lon="4.36638">
        <ele>837.2</ele>
        <time>2022-06-26T11:20:37Z</time>
      </trkpt>
      <trkpt lat="45.86001" lon="4.36634">
        <ele>837.4</ele>
        <time>2022-06-26T11:20:38Z</time>
      </trkpt>
      <trkpt lat="45.85999" lon="4.3663">
        <ele>837.6</ele>
        <time>2022-06-26T11:20:39Z</time>
      </trkpt>
      <trkpt lat="45.85998" lon="4.36626">
        <ele>837.6</ele>
        <time>2022-06-26T11:20:40Z</time>
      </trkpt>
      <trkpt lat="45.85997" lon="4.36623">
        <ele>838</ele>
        <time>2022-06-26T11:20:41Z</time>
      </trkpt>
      <trkpt lat="45.85996" lon="4.36619">
        <ele>838</ele>
        <time>2022-06-26T11:20:42Z</time>
      </trkpt>
      <trkpt lat="45.85994" lon="4.36616">
        <ele>838.4</ele>
        <time>2022-06-26T11:20:43Z</time>
      </trkpt>
      <trkpt lat="45.85993" lon="4.36613">
        <ele>838.4</ele>
        <time>2022-06-26T11:20:44Z</time>
      </trkpt>
      <trkpt lat="45.85992" lon="4.3661">
        <ele>838.4</ele>
        <time>2022-06-26T11:20:45Z</time>
      </trkpt>
      <trkpt lat="45.8599" lon="4.36606">
        <ele>838.6</ele>
        <time>2022-06-26T11:20:46Z</time>
      </trkpt>
      <trkpt lat="45.85989" lon="4.36603">
        <ele>838.6</ele>
        <time>2022-06-26T11:20:47Z</time>
      </trkpt>
      <trkpt lat="45.85988" lon="4.366">
        <ele>838.8</ele>
        <time>2022-06-26T11:20:48Z</time>
      </trkpt>
      <trkpt lat="45.85987" lon="4.36597">
        <ele>839</ele>
        <time>2022-06-26T11:20:49Z</time>
      </trkpt>
      <trkpt lat="45.85986" lon="4.36593">
        <ele>839</ele>
        <time>2022-06-26T11:20:50Z</time>
      </trkpt>
      <trkpt lat="45.85985" lon="4.3659">
        <ele>839.4</ele>
        <time>2022-06-26T11:20:51Z</time>
      </trkpt>
      <trkpt lat="45.85983" lon="4.36586">
        <ele>839.6</ele>
        <time>2022-06-26T11:20:52Z</time>
      </trkpt>
      <trkpt lat="45.85982" lon="4.36583">
        <ele>839.8</ele>
        <time>2022-06-26T11:20:53Z</time>
      </trkpt>
      <trkpt lat="45.85981" lon="4.36579">
        <ele>839.8</ele>
        <time>2022-06-26T11:20:54Z</time>
      </trkpt>
      <trkpt lat="45.8598" lon="4.36576">
        <ele>840.2</ele>
        <time>2022-06-26T11:20:55Z</time>
      </trkpt>
      <trkpt lat="45.85978" lon="4.36573">
        <ele>840.2</ele>
        <time>2022-06-26T11:20:56Z</time>
      </trkpt>
      <trkpt lat="45.85977" lon="4.36569">
        <ele>840.6</ele>
        <time>2022-06-26T11:20:57Z</time>
      </trkpt>
      <trkpt lat="45.85976" lon="4.36566">
        <ele>840.6</ele>
        <time>2022-06-26T11:20:58Z</time>
      </trkpt>
      <trkpt lat="45.85975" lon="4.36563">
        <ele>840.8</ele>
        <time>2022-06-26T11:20:59Z</time>
      </trkpt>
      <trkpt lat="45.85973" lon="4.3656">
        <ele>840.8</ele>
        <time>2022-06-26T11:21:00Z</time>
      </trkpt>
      <trkpt lat="45.85972" lon="4.36557">
        <ele>841.2</ele>
        <time>2022-06-26T11:21:01Z</time>
      </trkpt>
      <trkpt lat="45.85971" lon="4.36554">
        <ele>841.2</ele>
        <time>2022-06-26T11:21:02Z</time>
      </trkpt>
      <trkpt lat="45.8597" lon="4.36551">
        <ele>841.4</ele>
        <time>2022-06-26T11:21:03Z</time>
      </trkpt>
      <trkpt lat="45.85969" lon="4.36547">
        <ele>841.6</ele>
        <time>2022-06-26T11:21:04Z</time>
      </trkpt>
      <trkpt lat="45.85967" lon="4.36544">
        <ele>841.6</ele>
        <time>2022-06-26T11:21:05Z</time>
      </trkpt>
      <trkpt lat="45.85966" lon="4.36541">
        <ele>841.8</ele>
        <time>2022-06-26T11:21:06Z</time>
      </trkpt>
      <trkpt lat="45.85965" lon="4.36538">
        <ele>841.8</ele>
        <time>2022-06-26T11:21:07Z</time>
      </trkpt>
      <trkpt lat="45.85963" lon="4.36535">
        <ele>842.2</ele>
        <time>2022-06-26T11:21:08Z</time>
      </trkpt>
      <trkpt lat="45.85962" lon="4.36532">
        <ele>842.2</ele>
        <time>2022-06-26T11:21:09Z</time>
      </trkpt>
      <trkpt lat="45.85961" lon="4.36529">
        <ele>842.6</ele>
        <time>2022-06-26T11:21:10Z</time>
      </trkpt>
      <trkpt lat="45.85959" lon="4.36527">
        <ele>842.6</ele>
        <time>2022-06-26T11:21:11Z</time>
      </trkpt>
      <trkpt lat="45.85958" lon="4.36524">
        <ele>842.8</ele>
        <time>2022-06-26T11:21:12Z</time>
      </trkpt>
      <trkpt lat="45.85956" lon="4.36521">
        <ele>842.8</ele>
        <time>2022-06-26T11:21:13Z</time>
      </trkpt>
      <trkpt lat="45.85955" lon="4.36518">
        <ele>843.2</ele>
        <time>2022-06-26T11:21:14Z</time>
      </trkpt>
      <trkpt lat="45.85953" lon="4.36516">
        <ele>843.2</ele>
        <time>2022-06-26T11:21:15Z</time>
      </trkpt>
      <trkpt lat="45.85952" lon="4.36513">
        <ele>843.4</ele>
        <time>2022-06-26T11:21:16Z</time>
      </trkpt>
      <trkpt lat="45.85951" lon="4.3651">
        <ele>843.4</ele>
        <time>2022-06-26T11:21:17Z</time>
      </trkpt>
      <trkpt lat="45.85949" lon="4.36507">
        <ele>843.6</ele>
        <time>2022-06-26T11:21:18Z</time>
      </trkpt>
      <trkpt lat="45.85948" lon="4.36504">
        <ele>843.6</ele>
        <time>2022-06-26T11:21:19Z</time>
      </trkpt>
      <trkpt lat="45.85946" lon="4.36501">
        <ele>843.8</ele>
        <time>2022-06-26T11:21:20Z</time>
      </trkpt>
      <trkpt lat="45.85945" lon="4.36498">
        <ele>843.8</ele>
        <time>2022-06-26T11:21:21Z</time>
      </trkpt>
      <trkpt lat="45.85943" lon="4.36496">
        <ele>844</ele>
        <time>2022-06-26T11:21:22Z</time>
      </trkpt>
      <trkpt lat="45.85941" lon="4.36493">
        <ele>844</ele>
        <time>2022-06-26T11:21:23Z</time>
      </trkpt>
      <trkpt lat="45.8594" lon="4.36491">
        <ele>844.4</ele>
        <time>2022-06-26T11:21:24Z</time>
      </trkpt>
      <trkpt lat="45.85938" lon="4.36488">
        <ele>844.4</ele>
        <time>2022-06-26T11:21:25Z</time>
      </trkpt>
      <trkpt lat="45.85936" lon="4.36485">
        <ele>844.6</ele>
        <time>2022-06-26T11:21:26Z</time>
      </trkpt>
      <trkpt lat="45.85935" lon="4.36482">
        <ele>844.6</ele>
        <time>2022-06-26T11:21:27Z</time>
      </trkpt>
      <trkpt lat="45.85933" lon="4.36479">
        <ele>844.8</ele>
        <time>2022-06-26T11:21:28Z</time>
      </trkpt>
      <trkpt lat="45.85931" lon="4.36477">
        <ele>844.8</ele>
        <time>2022-06-26T11:21:29Z</time>
      </trkpt>
      <trkpt lat="45.85929" lon="4.36474">
        <ele>845.2</ele>
        <time>2022-06-26T11:21:30Z</time>
      </trkpt>
      <trkpt lat="45.85927" lon="4.36472">
        <ele>845.2</ele>
        <time>2022-06-26T11:21:31Z</time>
      </trkpt>
      <trkpt lat="45.85926" lon="4.36469">
        <ele>845.4</ele>
        <time>2022-06-26T11:21:32Z</time>
      </trkpt>
      <trkpt lat="45.85924" lon="4.36466">
        <ele>845.4</ele>
        <time>2022-06-26T11:21:33Z</time>
      </trkpt>
      <trkpt lat="45.85922" lon="4.36463">
        <ele>845.8</ele>
        <time>2022-06-26T11:21:34Z</time>
      </trkpt>
      <trkpt lat="45.85921" lon="4.36461">
        <ele>845.8</ele>
        <time>2022-06-26T11:21:35Z</time>
      </trkpt>
      <trkpt lat="45.85919" lon="4.36458">
        <ele>846</ele>
        <time>2022-06-26T11:21:36Z</time>
      </trkpt>
      <trkpt lat="45.85918" lon="4.36455">
        <ele>846</ele>
        <time>2022-06-26T11:21:37Z</time>
      </trkpt>
      <trkpt lat="45.85916" lon="4.36452">
        <ele>846.4</ele>
        <time>2022-06-26T11:21:38Z</time>
      </trkpt>
      <trkpt lat="45.85915" lon="4.3645">
        <ele>846.4</ele>
        <time>2022-06-26T11:21:39Z</time>
      </trkpt>
      <trkpt lat="45.85913" lon="4.36447">
        <ele>846.8</ele>
        <time>2022-06-26T11:21:40Z</time>
      </trkpt>
      <trkpt lat="45.85911" lon="4.36445">
        <ele>846.8</ele>
        <time>2022-06-26T11:21:41Z</time>
      </trkpt>
      <trkpt lat="45.8591" lon="4.36442">
        <ele>847</ele>
        <time>2022-06-26T11:21:42Z</time>
      </trkpt>
      <trkpt lat="45.85908" lon="4.3644">
        <ele>847</ele>
        <time>2022-06-26T11:21:43Z</time>
      </trkpt>
      <trkpt lat="45.85906" lon="4.36438">
        <ele>847.4</ele>
        <time>2022-06-26T11:21:44Z</time>
      </trkpt>
      <trkpt lat="45.85904" lon="4.36435">
        <ele>847.4</ele>
        <time>2022-06-26T11:21:45Z</time>
      </trkpt>
      <trkpt lat="45.85903" lon="4.36432">
        <ele>847.6</ele>
        <time>2022-06-26T11:21:46Z</time>
      </trkpt>
      <trkpt lat="45.85901" lon="4.3643">
        <ele>847.6</ele>
        <time>2022-06-26T11:21:47Z</time>
      </trkpt>
      <trkpt lat="45.85899" lon="4.36427">
        <ele>848</ele>
        <time>2022-06-26T11:21:48Z</time>
      </trkpt>
      <trkpt lat="45.85897" lon="4.36425">
        <ele>848.2</ele>
        <time>2022-06-26T11:21:49Z</time>
      </trkpt>
      <trkpt lat="45.85895" lon="4.36422">
        <ele>848.2</ele>
        <time>2022-06-26T11:21:50Z</time>
      </trkpt>
      <trkpt lat="45.85893" lon="4.3642">
        <ele>848.4</ele>
        <time>2022-06-26T11:21:51Z</time>
      </trkpt>
      <trkpt lat="45.85891" lon="4.36417">
        <ele>848.4</ele>
        <time>2022-06-26T11:21:52Z</time>
      </trkpt>
      <trkpt lat="45.85889" lon="4.36415">
        <ele>848.6</ele>
        <time>2022-06-26T11:21:53Z</time>
      </trkpt>
      <trkpt lat="45.85887" lon="4.36412">
        <ele>848.6</ele>
        <time>2022-06-26T11:21:54Z</time>
      </trkpt>
      <trkpt lat="45.85885" lon="4.3641">
        <ele>849</ele>
        <time>2022-06-26T11:21:55Z</time>
      </trkpt>
      <trkpt lat="45.85883" lon="4.36407">
        <ele>849</ele>
        <time>2022-06-26T11:21:56Z</time>
      </trkpt>
      <trkpt lat="45.85881" lon="4.36405">
        <ele>849.2</ele>
        <time>2022-06-26T11:21:57Z</time>
      </trkpt>
      <trkpt lat="45.85879" lon="4.36403">
        <ele>849.2</ele>
        <time>2022-06-26T11:21:58Z</time>
      </trkpt>
      <trkpt lat="45.85876" lon="4.36401">
        <ele>849.6</ele>
        <time>2022-06-26T11:21:59Z</time>
      </trkpt>
      <trkpt lat="45.85874" lon="4.36399">
        <ele>849.6</ele>
        <time>2022-06-26T11:22:00Z</time>
      </trkpt>
      <trkpt lat="45.85872" lon="4.36397">
        <ele>849.8</ele>
        <time>2022-06-26T11:22:01Z</time>
      </trkpt>
      <trkpt lat="45.8587" lon="4.36395">
        <ele>849.8</ele>
        <time>2022-06-26T11:22:02Z</time>
      </trkpt>
      <trkpt lat="45.85867" lon="4.36393">
        <ele>850.2</ele>
        <time>2022-06-26T11:22:03Z</time>
      </trkpt>
      <trkpt lat="45.85865" lon="4.36391">
        <ele>850.2</ele>
        <time>2022-06-26T11:22:04Z</time>
      </trkpt>
      <trkpt lat="45.85863" lon="4.3639">
        <ele>850.4</ele>
        <time>2022-06-26T11:22:05Z</time>
      </trkpt>
      <trkpt lat="45.85861" lon="4.36388">
        <ele>850.4</ele>
        <time>2022-06-26T11:22:06Z</time>
      </trkpt>
      <trkpt lat="45.85859" lon="4.36386">
        <ele>850.6</ele>
        <time>2022-06-26T11:22:07Z</time>
      </trkpt>
      <trkpt lat="45.85856" lon="4.36385">
        <ele>850.6</ele>
        <time>2022-06-26T11:22:08Z</time>
      </trkpt>
      <trkpt lat="45.85854" lon="4.36383">
        <ele>851</ele>
        <time>2022-06-26T11:22:09Z</time>
      </trkpt>
      <trkpt lat="45.85852" lon="4.36382">
        <ele>851</ele>
        <time>2022-06-26T11:22:10Z</time>
      </trkpt>
      <trkpt lat="45.85849" lon="4.3638">
        <ele>851.2</ele>
        <time>2022-06-26T11:22:11Z</time>
      </trkpt>
      <trkpt lat="45.85847" lon="4.36379">
        <ele>851.4</ele>
        <time>2022-06-26T11:22:12Z</time>
      </trkpt>
      <trkpt lat="45.85845" lon="4.36377">
        <ele>851.4</ele>
        <time>2022-06-26T11:22:13Z</time>
      </trkpt>
      <trkpt lat="45.85842" lon="4.36376">
        <ele>851.8</ele>
        <time>2022-06-26T11:22:14Z</time>
      </trkpt>
      <trkpt lat="45.85839" lon="4.36375">
        <ele>851.8</ele>
        <time>2022-06-26T11:22:15Z</time>
      </trkpt>
      <trkpt lat="45.85835" lon="4.36373">
        <ele>852.2</ele>
        <time>2022-06-26T11:22:16Z</time>
      </trkpt>
      <trkpt lat="45.85832" lon="4.36372">
        <ele>852.2</ele>
        <time>2022-06-26T11:22:17Z</time>
      </trkpt>
      <trkpt lat="45.8583" lon="4.36371">
        <ele>852.4</ele>
        <time>2022-06-26T11:22:18Z</time>
      </trkpt>
      <trkpt lat="45.85827" lon="4.3637">
        <ele>852.4</ele>
        <time>2022-06-26T11:22:19Z</time>
      </trkpt>
      <trkpt lat="45.85825" lon="4.36369">
        <ele>852.6</ele>
        <time>2022-06-26T11:22:20Z</time>
      </trkpt>
      <trkpt lat="45.85822" lon="4.36368">
        <ele>852.6</ele>
        <time>2022-06-26T11:22:21Z</time>
      </trkpt>
      <trkpt lat="45.8582" lon="4.36367">
        <ele>852.8</ele>
        <time>2022-06-26T11:22:22Z</time>
      </trkpt>
      <trkpt lat="45.85818" lon="4.36367">
        <ele>852.8</ele>
        <time>2022-06-26T11:22:23Z</time>
      </trkpt>
      <trkpt lat="45.85815" lon="4.36366">
        <ele>853</ele>
        <time>2022-06-26T11:22:24Z</time>
      </trkpt>
      <trkpt lat="45.85813" lon="4.36366">
        <ele>853</ele>
        <time>2022-06-26T11:22:25Z</time>
      </trkpt>
      <trkpt lat="45.8581" lon="4.36365">
        <ele>853.4</ele>
        <time>2022-06-26T11:22:26Z</time>
      </trkpt>
      <trkpt lat="45.85808" lon="4.36365">
        <ele>853.4</ele>
        <time>2022-06-26T11:22:27Z</time>
      </trkpt>
      <trkpt lat="45.85805" lon="4.36365">
        <ele>853.4</ele>
        <time>2022-06-26T11:22:28Z</time>
      </trkpt>
      <trkpt lat="45.85803" lon="4.36364">
        <ele>853.8</ele>
        <time>2022-06-26T11:22:29Z</time>
      </trkpt>
      <trkpt lat="45.858" lon="4.36364">
        <ele>853.8</ele>
        <time>2022-06-26T11:22:30Z</time>
      </trkpt>
      <trkpt lat="45.85798" lon="4.36363">
        <ele>854</ele>
        <time>2022-06-26T11:22:31Z</time>
      </trkpt>
      <trkpt lat="45.85795" lon="4.36363">
        <ele>854</ele>
        <time>2022-06-26T11:22:32Z</time>
      </trkpt>
      <trkpt lat="45.85792" lon="4.36363">
        <ele>854.2</ele>
        <time>2022-06-26T11:22:33Z</time>
      </trkpt>
      <trkpt lat="45.8579" lon="4.36363">
        <ele>854.2</ele>
        <time>2022-06-26T11:22:34Z</time>
      </trkpt>
      <trkpt lat="45.85787" lon="4.36363">
        <ele>854.6</ele>
        <time>2022-06-26T11:22:35Z</time>
      </trkpt>
      <trkpt lat="45.85784" lon="4.36363">
        <ele>854.6</ele>
        <time>2022-06-26T11:22:36Z</time>
      </trkpt>
      <trkpt lat="45.85782" lon="4.36363">
        <ele>855</ele>
        <time>2022-06-26T11:22:37Z</time>
      </trkpt>
      <trkpt lat="45.85779" lon="4.36363">
        <ele>855</ele>
        <time>2022-06-26T11:22:38Z</time>
      </trkpt>
      <trkpt lat="45.85776" lon="4.36363">
        <ele>855.2</ele>
        <time>2022-06-26T11:22:39Z</time>
      </trkpt>
      <trkpt lat="45.85774" lon="4.36362">
        <ele>855.2</ele>
        <time>2022-06-26T11:22:40Z</time>
      </trkpt>
      <trkpt lat="45.85771" lon="4.36362">
        <ele>855.6</ele>
        <time>2022-06-26T11:22:41Z</time>
      </trkpt>
      <trkpt lat="45.85769" lon="4.36362">
        <ele>855.6</ele>
        <time>2022-06-26T11:22:42Z</time>
      </trkpt>
      <trkpt lat="45.85767" lon="4.36362">
        <ele>855.8</ele>
        <time>2022-06-26T11:22:43Z</time>
      </trkpt>
      <trkpt lat="45.85765" lon="4.36362">
        <ele>855.8</ele>
        <time>2022-06-26T11:22:44Z</time>
      </trkpt>
      <trkpt lat="45.85763" lon="4.36362">
        <ele>855.8</ele>
        <time>2022-06-26T11:22:45Z</time>
      </trkpt>
      <trkpt lat="45.8576" lon="4.36363">
        <ele>856.2</ele>
        <time>2022-06-26T11:22:46Z</time>
      </trkpt>
      <trkpt lat="45.85758" lon="4.36363">
        <ele>856.2</ele>
        <time>2022-06-26T11:22:47Z</time>
      </trkpt>
      <trkpt lat="45.85756" lon="4.36364">
        <ele>856.2</ele>
        <time>2022-06-26T11:22:48Z</time>
      </trkpt>
      <trkpt lat="45.85753" lon="4.36364">
        <ele>856.6</ele>
        <time>2022-06-26T11:22:49Z</time>
      </trkpt>
      <trkpt lat="45.85751" lon="4.36364">
        <ele>856.6</ele>
        <time>2022-06-26T11:22:50Z</time>
      </trkpt>
      <trkpt lat="45.85748" lon="4.36364">
        <ele>856.8</ele>
        <time>2022-06-26T11:22:51Z</time>
      </trkpt>
      <trkpt lat="45.85746" lon="4.36363">
        <ele>856.8</ele>
        <time>2022-06-26T11:22:52Z</time>
      </trkpt>
      <trkpt lat="45.85743" lon="4.36363">
        <ele>857.2</ele>
        <time>2022-06-26T11:22:53Z</time>
      </trkpt>
      <trkpt lat="45.85741" lon="4.36364">
        <ele>857.2</ele>
        <time>2022-06-26T11:22:54Z</time>
      </trkpt>
      <trkpt lat="45.85738" lon="4.36364">
        <ele>857.6</ele>
        <time>2022-06-26T11:22:55Z</time>
      </trkpt>
      <trkpt lat="45.85736" lon="4.36364">
        <ele>857.6</ele>
        <time>2022-06-26T11:22:56Z</time>
      </trkpt>
      <trkpt lat="45.85733" lon="4.36364">
        <ele>857.8</ele>
        <time>2022-06-26T11:22:57Z</time>
      </trkpt>
      <trkpt lat="45.85731" lon="4.36364">
        <ele>858</ele>
        <time>2022-06-26T11:22:58Z</time>
      </trkpt>
      <trkpt lat="45.85729" lon="4.36364">
        <ele>858</ele>
        <time>2022-06-26T11:22:59Z</time>
      </trkpt>
      <trkpt lat="45.85726" lon="4.36364">
        <ele>858.4</ele>
        <time>2022-06-26T11:23:00Z</time>
      </trkpt>
      <trkpt lat="45.85724" lon="4.36365">
        <ele>858.4</ele>
        <time>2022-06-26T11:23:01Z</time>
      </trkpt>
      <trkpt lat="45.85721" lon="4.36366">
        <ele>858.4</ele>
        <time>2022-06-26T11:23:02Z</time>
      </trkpt>
      <trkpt lat="45.85719" lon="4.36366">
        <ele>858.6</ele>
        <time>2022-06-26T11:23:03Z</time>
      </trkpt>
      <trkpt lat="45.85716" lon="4.36367">
        <ele>858.6</ele>
        <time>2022-06-26T11:23:04Z</time>
      </trkpt>
      <trkpt lat="45.85714" lon="4.36367">
        <ele>859</ele>
        <time>2022-06-26T11:23:05Z</time>
      </trkpt>
      <trkpt lat="45.85712" lon="4.36368">
        <ele>859</ele>
        <time>2022-06-26T11:23:06Z</time>
      </trkpt>
      <trkpt lat="45.85709" lon="4.36369">
        <ele>859.4</ele>
        <time>2022-06-26T11:23:07Z</time>
      </trkpt>
      <trkpt lat="45.85707" lon="4.3637">
        <ele>859.4</ele>
        <time>2022-06-26T11:23:08Z</time>
      </trkpt>
      <trkpt lat="45.85705" lon="4.36371">
        <ele>859.6</ele>
        <time>2022-06-26T11:23:09Z</time>
      </trkpt>
      <trkpt lat="45.85702" lon="4.36372">
        <ele>859.6</ele>
        <time>2022-06-26T11:23:10Z</time>
      </trkpt>
      <trkpt lat="45.857" lon="4.36373">
        <ele>859.8</ele>
        <time>2022-06-26T11:23:11Z</time>
      </trkpt>
      <trkpt lat="45.85698" lon="4.36374">
        <ele>859.8</ele>
        <time>2022-06-26T11:23:12Z</time>
      </trkpt>
      <trkpt lat="45.85695" lon="4.36375">
        <ele>860.2</ele>
        <time>2022-06-26T11:23:13Z</time>
      </trkpt>
      <trkpt lat="45.85693" lon="4.36376">
        <ele>860.2</ele>
        <time>2022-06-26T11:23:14Z</time>
      </trkpt>
      <trkpt lat="45.85691" lon="4.36377">
        <ele>860.4</ele>
        <time>2022-06-26T11:23:15Z</time>
      </trkpt>
      <trkpt lat="45.85688" lon="4.36378">
        <ele>860.4</ele>
        <time>2022-06-26T11:23:16Z</time>
      </trkpt>
      <trkpt lat="45.85686" lon="4.3638">
        <ele>860.4</ele>
        <time>2022-06-26T11:23:17Z</time>
      </trkpt>
      <trkpt lat="45.85684" lon="4.36381">
        <ele>860.6</ele>
        <time>2022-06-26T11:23:18Z</time>
      </trkpt>
      <trkpt lat="45.85681" lon="4.36382">
        <ele>860.6</ele>
        <time>2022-06-26T11:23:19Z</time>
      </trkpt>
      <trkpt lat="45.85679" lon="4.36383">
        <ele>860.8</ele>
        <time>2022-06-26T11:23:20Z</time>
      </trkpt>
      <trkpt lat="45.85676" lon="4.36384">
        <ele>860.8</ele>
        <time>2022-06-26T11:23:21Z</time>
      </trkpt>
      <trkpt lat="45.85674" lon="4.36385">
        <ele>861.2</ele>
        <time>2022-06-26T11:23:22Z</time>
      </trkpt>
      <trkpt lat="45.85671" lon="4.36386">
        <ele>861.2</ele>
        <time>2022-06-26T11:23:23Z</time>
      </trkpt>
      <trkpt lat="45.85669" lon="4.36388">
        <ele>861.4</ele>
        <time>2022-06-26T11:23:24Z</time>
      </trkpt>
      <trkpt lat="45.85667" lon="4.36389">
        <ele>861.4</ele>
        <time>2022-06-26T11:23:25Z</time>
      </trkpt>
      <trkpt lat="45.85665" lon="4.3639">
        <ele>861.6</ele>
        <time>2022-06-26T11:23:26Z</time>
      </trkpt>
      <trkpt lat="45.85662" lon="4.36391">
        <ele>861.6</ele>
        <time>2022-06-26T11:23:27Z</time>
      </trkpt>
      <trkpt lat="45.8566" lon="4.36391">
        <ele>862</ele>
        <time>2022-06-26T11:23:28Z</time>
      </trkpt>
      <trkpt lat="45.85657" lon="4.36392">
        <ele>862</ele>
        <time>2022-06-26T11:23:29Z</time>
      </trkpt>
      <trkpt lat="45.85655" lon="4.36392">
        <ele>862.2</ele>
        <time>2022-06-26T11:23:30Z</time>
      </trkpt>
      <trkpt lat="45.85652" lon="4.36393">
        <ele>862.2</ele>
        <time>2022-06-26T11:23:31Z</time>
      </trkpt>
      <trkpt lat="45.8565" lon="4.36394">
        <ele>862.4</ele>
        <time>2022-06-26T11:23:32Z</time>
      </trkpt>
      <trkpt lat="45.85647" lon="4.36394">
        <ele>862.4</ele>
        <time>2022-06-26T11:23:33Z</time>
      </trkpt>
      <trkpt lat="45.85644" lon="4.36395">
        <ele>862.8</ele>
        <time>2022-06-26T11:23:34Z</time>
      </trkpt>
      <trkpt lat="45.85642" lon="4.36396">
        <ele>862.8</ele>
        <time>2022-06-26T11:23:35Z</time>
      </trkpt>
      <trkpt lat="45.85639" lon="4.36396">
        <ele>863</ele>
        <time>2022-06-26T11:23:36Z</time>
      </trkpt>
      <trkpt lat="45.85636" lon="4.36397">
        <ele>863</ele>
        <time>2022-06-26T11:23:37Z</time>
      </trkpt>
      <trkpt lat="45.85634" lon="4.36397">
        <ele>863.4</ele>
        <time>2022-06-26T11:23:38Z</time>
      </trkpt>
      <trkpt lat="45.85631" lon="4.36397">
        <ele>863.4</ele>
        <time>2022-06-26T11:23:39Z</time>
      </trkpt>
      <trkpt lat="45.85628" lon="4.36398">
        <ele>863.4</ele>
        <time>2022-06-26T11:23:40Z</time>
      </trkpt>
      <trkpt lat="45.85626" lon="4.36398">
        <ele>863.8</ele>
        <time>2022-06-26T11:23:41Z</time>
      </trkpt>
      <trkpt lat="45.85623" lon="4.36398">
        <ele>863.8</ele>
        <time>2022-06-26T11:23:42Z</time>
      </trkpt>
      <trkpt lat="45.85621" lon="4.36398">
        <ele>864</ele>
        <time>2022-06-26T11:23:43Z</time>
      </trkpt>
      <trkpt lat="45.85618" lon="4.36398">
        <ele>864</ele>
        <time>2022-06-26T11:23:44Z</time>
      </trkpt>
      <trkpt lat="45.85615" lon="4.36398">
        <ele>864.4</ele>
        <time>2022-06-26T11:23:45Z</time>
      </trkpt>
      <trkpt lat="45.85613" lon="4.36398">
        <ele>864.4</ele>
        <time>2022-06-26T11:23:46Z</time>
      </trkpt>
      <trkpt lat="45.8561" lon="4.36398">
        <ele>864.6</ele>
        <time>2022-06-26T11:23:47Z</time>
      </trkpt>
      <trkpt lat="45.85607" lon="4.36398">
        <ele>864.6</ele>
        <time>2022-06-26T11:23:48Z</time>
      </trkpt>
      <trkpt lat="45.85605" lon="4.36398">
        <ele>865</ele>
        <time>2022-06-26T11:23:49Z</time>
      </trkpt>
      <trkpt lat="45.85602" lon="4.36397">
        <ele>865</ele>
        <time>2022-06-26T11:23:50Z</time>
      </trkpt>
      <trkpt lat="45.85599" lon="4.36397">
        <ele>865.2</ele>
        <time>2022-06-26T11:23:51Z</time>
      </trkpt>
      <trkpt lat="45.85597" lon="4.36397">
        <ele>865.2</ele>
        <time>2022-06-26T11:23:52Z</time>
      </trkpt>
      <trkpt lat="45.85594" lon="4.36397">
        <ele>865.6</ele>
        <time>2022-06-26T11:23:53Z</time>
      </trkpt>
      <trkpt lat="45.85591" lon="4.36397">
        <ele>865.6</ele>
        <time>2022-06-26T11:23:54Z</time>
      </trkpt>
      <trkpt lat="45.85588" lon="4.36397">
        <ele>865.8</ele>
        <time>2022-06-26T11:23:55Z</time>
      </trkpt>
      <trkpt lat="45.85586" lon="4.36396">
        <ele>865.8</ele>
        <time>2022-06-26T11:23:56Z</time>
      </trkpt>
      <trkpt lat="45.85583" lon="4.36396">
        <ele>866.2</ele>
        <time>2022-06-26T11:23:57Z</time>
      </trkpt>
      <trkpt lat="45.8558" lon="4.36396">
        <ele>866.2</ele>
        <time>2022-06-26T11:23:58Z</time>
      </trkpt>
      <trkpt lat="45.85577" lon="4.36396">
        <ele>866.4</ele>
        <time>2022-06-26T11:23:59Z</time>
      </trkpt>
      <trkpt lat="45.85574" lon="4.36395">
        <ele>866.4</ele>
        <time>2022-06-26T11:24:00Z</time>
      </trkpt>
      <trkpt lat="45.85572" lon="4.36395">
        <ele>866.4</ele>
        <time>2022-06-26T11:24:01Z</time>
      </trkpt>
      <trkpt lat="45.85569" lon="4.36395">
        <ele>866.6</ele>
        <time>2022-06-26T11:24:02Z</time>
      </trkpt>
      <trkpt lat="45.85566" lon="4.36394">
        <ele>866.6</ele>
        <time>2022-06-26T11:24:03Z</time>
      </trkpt>
      <trkpt lat="45.85563" lon="4.36394">
        <ele>866.6</ele>
        <time>2022-06-26T11:24:04Z</time>
      </trkpt>
      <trkpt lat="45.85561" lon="4.36393">
        <ele>866.6</ele>
        <time>2022-06-26T11:24:05Z</time>
      </trkpt>
      <trkpt lat="45.85558" lon="4.36393">
        <ele>866.8</ele>
        <time>2022-06-26T11:24:06Z</time>
      </trkpt>
      <trkpt lat="45.85555" lon="4.36392">
        <ele>866.8</ele>
        <time>2022-06-26T11:24:07Z</time>
      </trkpt>
      <trkpt lat="45.85552" lon="4.36392">
        <ele>867</ele>
        <time>2022-06-26T11:24:08Z</time>
      </trkpt>
      <trkpt lat="45.85549" lon="4.36391">
        <ele>867</ele>
        <time>2022-06-26T11:24:09Z</time>
      </trkpt>
      <trkpt lat="45.85546" lon="4.36391">
        <ele>867</ele>
        <time>2022-06-26T11:24:10Z</time>
      </trkpt>
      <trkpt lat="45.85543" lon="4.36391">
        <ele>867.4</ele>
        <time>2022-06-26T11:24:11Z</time>
      </trkpt>
      <trkpt lat="45.8554" lon="4.36392">
        <ele>867.4</ele>
        <time>2022-06-26T11:24:12Z</time>
      </trkpt>
      <trkpt lat="45.85537" lon="4.36392">
        <ele>867.6</ele>
        <time>2022-06-26T11:24:13Z</time>
      </trkpt>
      <trkpt lat="45.85534" lon="4.36391">
        <ele>867.6</ele>
        <time>2022-06-26T11:24:14Z</time>
      </trkpt>
      <trkpt lat="45.8553" lon="4.3639">
        <ele>867.6</ele>
        <time>2022-06-26T11:24:15Z</time>
      </trkpt>
      <trkpt lat="45.85527" lon="4.36389">
        <ele>867.6</ele>
        <time>2022-06-26T11:24:16Z</time>
      </trkpt>
      <trkpt lat="45.85524" lon="4.36388">
        <ele>867.8</ele>
        <time>2022-06-26T11:24:17Z</time>
      </trkpt>
      <trkpt lat="45.85521" lon="4.36387">
        <ele>867.8</ele>
        <time>2022-06-26T11:24:18Z</time>
      </trkpt>
      <trkpt lat="45.85517" lon="4.36385">
        <ele>867.8</ele>
        <time>2022-06-26T11:24:19Z</time>
      </trkpt>
      <trkpt lat="45.85514" lon="4.36384">
        <ele>867.8</ele>
        <time>2022-06-26T11:24:20Z</time>
      </trkpt>
      <trkpt lat="45.85511" lon="4.36381">
        <ele>868</ele>
        <time>2022-06-26T11:24:21Z</time>
      </trkpt>
      <trkpt lat="45.85509" lon="4.36379">
        <ele>868</ele>
        <time>2022-06-26T11:24:22Z</time>
      </trkpt>
      <trkpt lat="45.85506" lon="4.36377">
        <ele>868</ele>
        <time>2022-06-26T11:24:23Z</time>
      </trkpt>
      <trkpt lat="45.85503" lon="4.36377">
        <ele>868</ele>
        <time>2022-06-26T11:24:24Z</time>
      </trkpt>
      <trkpt lat="45.855" lon="4.36377">
        <ele>868</ele>
        <time>2022-06-26T11:24:25Z</time>
      </trkpt>
      <trkpt lat="45.85498" lon="4.36379">
        <ele>868</ele>
        <time>2022-06-26T11:24:26Z</time>
      </trkpt>
      <trkpt lat="45.85496" lon="4.36382">
        <ele>868</ele>
        <time>2022-06-26T11:24:27Z</time>
      </trkpt>
      <trkpt lat="45.85494" lon="4.36385">
        <ele>868.4</ele>
        <time>2022-06-26T11:24:28Z</time>
      </trkpt>
      <trkpt lat="45.85492" lon="4.36389">
        <ele>868.4</ele>
        <time>2022-06-26T11:24:29Z</time>
      </trkpt>
      <trkpt lat="45.85491" lon="4.36392">
        <ele>868.6</ele>
        <time>2022-06-26T11:24:30Z</time>
      </trkpt>
      <trkpt lat="45.85489" lon="4.36396">
        <ele>868.6</ele>
        <time>2022-06-26T11:24:31Z</time>
      </trkpt>
      <trkpt lat="45.85488" lon="4.36399">
        <ele>869.2</ele>
        <time>2022-06-26T11:24:32Z</time>
      </trkpt>
      <trkpt lat="45.85486" lon="4.36402">
        <ele>869.4</ele>
        <time>2022-06-26T11:24:33Z</time>
      </trkpt>
      <trkpt lat="45.85485" lon="4.36405">
        <ele>869.6</ele>
        <time>2022-06-26T11:24:34Z</time>
      </trkpt>
      <trkpt lat="45.85483" lon="4.36408">
        <ele>869.8</ele>
        <time>2022-06-26T11:24:35Z</time>
      </trkpt>
      <trkpt lat="45.85481" lon="4.36412">
        <ele>870.2</ele>
        <time>2022-06-26T11:24:36Z</time>
      </trkpt>
      <trkpt lat="45.8548" lon="4.36415">
        <ele>870.4</ele>
        <time>2022-06-26T11:24:37Z</time>
      </trkpt>
      <trkpt lat="45.85479" lon="4.36419">
        <ele>870.6</ele>
        <time>2022-06-26T11:24:38Z</time>
      </trkpt>
      <trkpt lat="45.85478" lon="4.36423">
        <ele>871</ele>
        <time>2022-06-26T11:24:39Z</time>
      </trkpt>
      <trkpt lat="45.85477" lon="4.36428">
        <ele>871.2</ele>
        <time>2022-06-26T11:24:40Z</time>
      </trkpt>
      <trkpt lat="45.85476" lon="4.36432">
        <ele>871.4</ele>
        <time>2022-06-26T11:24:41Z</time>
      </trkpt>
      <trkpt lat="45.85476" lon="4.36435">
        <ele>871.8</ele>
        <time>2022-06-26T11:24:42Z</time>
      </trkpt>
      <trkpt lat="45.85475" lon="4.36439">
        <ele>872</ele>
        <time>2022-06-26T11:24:43Z</time>
      </trkpt>
      <trkpt lat="45.85474" lon="4.36442">
        <ele>872.2</ele>
        <time>2022-06-26T11:24:44Z</time>
      </trkpt>
      <trkpt lat="45.85473" lon="4.36446">
        <ele>872.6</ele>
        <time>2022-06-26T11:24:45Z</time>
      </trkpt>
      <trkpt lat="45.85472" lon="4.36449">
        <ele>872.6</ele>
        <time>2022-06-26T11:24:46Z</time>
      </trkpt>
      <trkpt lat="45.85472" lon="4.36452">
        <ele>873</ele>
        <time>2022-06-26T11:24:47Z</time>
      </trkpt>
      <trkpt lat="45.85471" lon="4.36455">
        <ele>873.2</ele>
        <time>2022-06-26T11:24:48Z</time>
      </trkpt>
      <trkpt lat="45.8547" lon="4.36458">
        <ele>873.6</ele>
        <time>2022-06-26T11:24:49Z</time>
      </trkpt>
      <trkpt lat="45.85469" lon="4.36461">
        <ele>873.8</ele>
        <time>2022-06-26T11:24:50Z</time>
      </trkpt>
      <trkpt lat="45.85469" lon="4.36464">
        <ele>874</ele>
        <time>2022-06-26T11:24:51Z</time>
      </trkpt>
      <trkpt lat="45.85468" lon="4.36467">
        <ele>874.2</ele>
        <time>2022-06-26T11:24:52Z</time>
      </trkpt>
      <trkpt lat="45.85467" lon="4.36469">
        <ele>874.4</ele>
        <time>2022-06-26T11:24:53Z</time>
      </trkpt>
      <trkpt lat="45.85467" lon="4.36472">
        <ele>874.6</ele>
        <time>2022-06-26T11:24:54Z</time>
      </trkpt>
      <trkpt lat="45.85466" lon="4.36474">
        <ele>875</ele>
        <time>2022-06-26T11:24:55Z</time>
      </trkpt>
      <trkpt lat="45.85465" lon="4.36477">
        <ele>875.2</ele>
        <time>2022-06-26T11:24:56Z</time>
      </trkpt>
      <trkpt lat="45.85465" lon="4.36479">
        <ele>875.4</ele>
        <time>2022-06-26T11:24:57Z</time>
      </trkpt>
      <trkpt lat="45.85465" lon="4.36482">
        <ele>875.6</ele>
        <time>2022-06-26T11:24:58Z</time>
      </trkpt>
      <trkpt lat="45.85464" lon="4.36484">
        <ele>876</ele>
        <time>2022-06-26T11:24:59Z</time>
      </trkpt>
      <trkpt lat="45.85463" lon="4.36487">
        <ele>876.2</ele>
        <time>2022-06-26T11:25:00Z</time>
      </trkpt>
      <trkpt lat="45.85462" lon="4.36489">
        <ele>876.4</ele>
        <time>2022-06-26T11:25:01Z</time>
      </trkpt>
      <trkpt lat="45.85461" lon="4.36491">
        <ele>876.6</ele>
        <time>2022-06-26T11:25:02Z</time>
      </trkpt>
      <trkpt lat="45.85461" lon="4.36494">
        <ele>877</ele>
        <time>2022-06-26T11:25:03Z</time>
      </trkpt>
      <trkpt lat="45.8546" lon="4.36496">
        <ele>877.2</ele>
        <time>2022-06-26T11:25:04Z</time>
      </trkpt>
      <trkpt lat="45.85459" lon="4.36499">
        <ele>877.6</ele>
        <time>2022-06-26T11:25:05Z</time>
      </trkpt>
      <trkpt lat="45.85459" lon="4.36502">
        <ele>877.8</ele>
        <time>2022-06-26T11:25:06Z</time>
      </trkpt>
      <trkpt lat="45.85459" lon="4.36504">
        <ele>878</ele>
        <time>2022-06-26T11:25:07Z</time>
      </trkpt>
      <trkpt lat="45.85458" lon="4.36507">
        <ele>878.4</ele>
        <time>2022-06-26T11:25:08Z</time>
      </trkpt>
      <trkpt lat="45.85458" lon="4.36509">
        <ele>878.6</ele>
        <time>2022-06-26T11:25:09Z</time>
      </trkpt>
      <trkpt lat="45.85457" lon="4.36512">
        <ele>878.8</ele>
        <time>2022-06-26T11:25:10Z</time>
      </trkpt>
      <trkpt lat="45.85457" lon="4.36514">
        <ele>879.2</ele>
        <time>2022-06-26T11:25:11Z</time>
      </trkpt>
      <trkpt lat="45.85456" lon="4.36517">
        <ele>879.4</ele>
        <time>2022-06-26T11:25:12Z</time>
      </trkpt>
      <trkpt lat="45.85455" lon="4.36519">
        <ele>879.8</ele>
        <time>2022-06-26T11:25:13Z</time>
      </trkpt>
      <trkpt lat="45.85454" lon="4.36522">
        <ele>880</ele>
        <time>2022-06-26T11:25:14Z</time>
      </trkpt>
      <trkpt lat="45.85454" lon="4.36524">
        <ele>880.4</ele>
        <time>2022-06-26T11:25:15Z</time>
      </trkpt>
      <trkpt lat="45.85453" lon="4.36527">
        <ele>880.6</ele>
        <time>2022-06-26T11:25:16Z</time>
      </trkpt>
      <trkpt lat="45.85453" lon="4.36529">
        <ele>881</ele>
        <time>2022-06-26T11:25:17Z</time>
      </trkpt>
      <trkpt lat="45.85452" lon="4.36532">
        <ele>881.2</ele>
        <time>2022-06-26T11:25:18Z</time>
      </trkpt>
      <trkpt lat="45.85451" lon="4.36534">
        <ele>881.4</ele>
        <time>2022-06-26T11:25:19Z</time>
      </trkpt>
      <trkpt lat="45.8545" lon="4.36537">
        <ele>881.8</ele>
        <time>2022-06-26T11:25:20Z</time>
      </trkpt>
      <trkpt lat="45.85449" lon="4.36539">
        <ele>882.2</ele>
        <time>2022-06-26T11:25:21Z</time>
      </trkpt>
      <trkpt lat="45.85448" lon="4.36542">
        <ele>882.6</ele>
        <time>2022-06-26T11:25:22Z</time>
      </trkpt>
      <trkpt lat="45.85448" lon="4.36545">
        <ele>882.8</ele>
        <time>2022-06-26T11:25:23Z</time>
      </trkpt>
      <trkpt lat="45.85448" lon="4.36548">
        <ele>883.2</ele>
        <time>2022-06-26T11:25:24Z</time>
      </trkpt>
      <trkpt lat="45.85448" lon="4.3655">
        <ele>883.2</ele>
        <time>2022-06-26T11:25:25Z</time>
      </trkpt>
      <trkpt lat="45.85447" lon="4.36553">
        <ele>883.6</ele>
        <time>2022-06-26T11:25:26Z</time>
      </trkpt>
      <trkpt lat="45.85446" lon="4.36556">
        <ele>884</ele>
        <time>2022-06-26T11:25:27Z</time>
      </trkpt>
      <trkpt lat="45.85445" lon="4.36558">
        <ele>884.2</ele>
        <time>2022-06-26T11:25:28Z</time>
      </trkpt>
      <trkpt lat="45.85444" lon="4.36561">
        <ele>884.6</ele>
        <time>2022-06-26T11:25:29Z</time>
      </trkpt>
      <trkpt lat="45.85443" lon="4.36563">
        <ele>884.8</ele>
        <time>2022-06-26T11:25:30Z</time>
      </trkpt>
      <trkpt lat="45.85442" lon="4.36566">
        <ele>884.8</ele>
        <time>2022-06-26T11:25:31Z</time>
      </trkpt>
      <trkpt lat="45.85441" lon="4.36568">
        <ele>885.2</ele>
        <time>2022-06-26T11:25:32Z</time>
      </trkpt>
      <trkpt lat="45.8544" lon="4.3657">
        <ele>885.4</ele>
        <time>2022-06-26T11:25:33Z</time>
      </trkpt>
      <trkpt lat="45.85438" lon="4.36573">
        <ele>885.6</ele>
        <time>2022-06-26T11:25:34Z</time>
      </trkpt>
      <trkpt lat="45.85437" lon="4.36576">
        <ele>886</ele>
        <time>2022-06-26T11:25:35Z</time>
      </trkpt>
      <trkpt lat="45.85436" lon="4.36578">
        <ele>886.2</ele>
        <time>2022-06-26T11:25:36Z</time>
      </trkpt>
      <trkpt lat="45.85435" lon="4.3658">
        <ele>886.4</ele>
        <time>2022-06-26T11:25:37Z</time>
      </trkpt>
      <trkpt lat="45.85433" lon="4.36583">
        <ele>886.6</ele>
        <time>2022-06-26T11:25:38Z</time>
      </trkpt>
      <trkpt lat="45.85432" lon="4.36585">
        <ele>886.8</ele>
        <time>2022-06-26T11:25:39Z</time>
      </trkpt>
      <trkpt lat="45.8543" lon="4.36587">
        <ele>886.8</ele>
        <time>2022-06-26T11:25:40Z</time>
      </trkpt>
      <trkpt lat="45.85429" lon="4.36589">
        <ele>887.2</ele>
        <time>2022-06-26T11:25:41Z</time>
      </trkpt>
      <trkpt lat="45.85427" lon="4.36591">
        <ele>887.4</ele>
        <time>2022-06-26T11:25:42Z</time>
      </trkpt>
      <trkpt lat="45.85426" lon="4.36594">
        <ele>887.6</ele>
        <time>2022-06-26T11:25:43Z</time>
      </trkpt>
      <trkpt lat="45.85425" lon="4.36596">
        <ele>887.8</ele>
        <time>2022-06-26T11:25:44Z</time>
      </trkpt>
      <trkpt lat="45.85423" lon="4.36598">
        <ele>887.8</ele>
        <time>2022-06-26T11:25:45Z</time>
      </trkpt>
      <trkpt lat="45.85421" lon="4.36601">
        <ele>888.2</ele>
        <time>2022-06-26T11:25:46Z</time>
      </trkpt>
      <trkpt lat="45.8542" lon="4.36603">
        <ele>888.4</ele>
        <time>2022-06-26T11:25:47Z</time>
      </trkpt>
      <trkpt lat="45.85418" lon="4.36605">
        <ele>888.4</ele>
        <time>2022-06-26T11:25:48Z</time>
      </trkpt>
      <trkpt lat="45.85417" lon="4.36607">
        <ele>888.8</ele>
        <time>2022-06-26T11:25:49Z</time>
      </trkpt>
      <trkpt lat="45.85415" lon="4.36609">
        <ele>889</ele>
        <time>2022-06-26T11:25:50Z</time>
      </trkpt>
      <trkpt lat="45.85414" lon="4.36611">
        <ele>889.2</ele>
        <time>2022-06-26T11:25:51Z</time>
      </trkpt>
      <trkpt lat="45.85412" lon="4.36613">
        <ele>889.6</ele>
        <time>2022-06-26T11:25:52Z</time>
      </trkpt>
      <trkpt lat="45.85411" lon="4.36616">
        <ele>889.8</ele>
        <time>2022-06-26T11:25:53Z</time>
      </trkpt>
      <trkpt lat="45.85409" lon="4.36618">
        <ele>889.8</ele>
        <time>2022-06-26T11:25:54Z</time>
      </trkpt>
      <trkpt lat="45.85408" lon="4.3662">
        <ele>890</ele>
        <time>2022-06-26T11:25:55Z</time>
      </trkpt>
      <trkpt lat="45.85406" lon="4.36622">
        <ele>890</ele>
        <time>2022-06-26T11:25:56Z</time>
      </trkpt>
      <trkpt lat="45.85405" lon="4.36624">
        <ele>890.4</ele>
        <time>2022-06-26T11:25:57Z</time>
      </trkpt>
      <trkpt lat="45.85404" lon="4.36627">
        <ele>890.4</ele>
        <time>2022-06-26T11:25:58Z</time>
      </trkpt>
      <trkpt lat="45.85402" lon="4.36629">
        <ele>890.8</ele>
        <time>2022-06-26T11:25:59Z</time>
      </trkpt>
      <trkpt lat="45.85401" lon="4.36631">
        <ele>890.8</ele>
        <time>2022-06-26T11:26:00Z</time>
      </trkpt>
      <trkpt lat="45.85399" lon="4.36633">
        <ele>891</ele>
        <time>2022-06-26T11:26:01Z</time>
      </trkpt>
      <trkpt lat="45.85397" lon="4.36635">
        <ele>891</ele>
        <time>2022-06-26T11:26:02Z</time>
      </trkpt>
      <trkpt lat="45.85396" lon="4.36637">
        <ele>891.4</ele>
        <time>2022-06-26T11:26:03Z</time>
      </trkpt>
      <trkpt lat="45.85394" lon="4.36639">
        <ele>891.4</ele>
        <time>2022-06-26T11:26:04Z</time>
      </trkpt>
      <trkpt lat="45.85393" lon="4.3664">
        <ele>891.6</ele>
        <time>2022-06-26T11:26:05Z</time>
      </trkpt>
      <trkpt lat="45.85391" lon="4.36642">
        <ele>891.6</ele>
        <time>2022-06-26T11:26:06Z</time>
      </trkpt>
      <trkpt lat="45.8539" lon="4.36645">
        <ele>892</ele>
        <time>2022-06-26T11:26:07Z</time>
      </trkpt>
      <trkpt lat="45.85388" lon="4.36647">
        <ele>892</ele>
        <time>2022-06-26T11:26:08Z</time>
      </trkpt>
      <trkpt lat="45.85387" lon="4.36649">
        <ele>892</ele>
        <time>2022-06-26T11:26:09Z</time>
      </trkpt>
      <trkpt lat="45.85385" lon="4.36651">
        <ele>892.4</ele>
        <time>2022-06-26T11:26:10Z</time>
      </trkpt>
      <trkpt lat="45.85384" lon="4.36652">
        <ele>892.4</ele>
        <time>2022-06-26T11:26:11Z</time>
      </trkpt>
      <trkpt lat="45.85383" lon="4.36654">
        <ele>892.6</ele>
        <time>2022-06-26T11:26:12Z</time>
      </trkpt>
      <trkpt lat="45.85382" lon="4.36656">
        <ele>892.6</ele>
        <time>2022-06-26T11:26:13Z</time>
      </trkpt>
      <trkpt lat="45.85381" lon="4.36658">
        <ele>893</ele>
        <time>2022-06-26T11:26:14Z</time>
      </trkpt>
      <trkpt lat="45.8538" lon="4.36661">
        <ele>893.2</ele>
        <time>2022-06-26T11:26:15Z</time>
      </trkpt>
      <trkpt lat="45.85379" lon="4.36663">
        <ele>893.2</ele>
        <time>2022-06-26T11:26:16Z</time>
      </trkpt>
      <trkpt lat="45.85378" lon="4.36666">
        <ele>893.6</ele>
        <time>2022-06-26T11:26:17Z</time>
      </trkpt>
      <trkpt lat="45.85377" lon="4.36668">
        <ele>893.8</ele>
        <time>2022-06-26T11:26:18Z</time>
      </trkpt>
      <trkpt lat="45.85375" lon="4.3667">
        <ele>893.8</ele>
        <time>2022-06-26T11:26:19Z</time>
      </trkpt>
      <trkpt lat="45.85374" lon="4.36672">
        <ele>894.2</ele>
        <time>2022-06-26T11:26:20Z</time>
      </trkpt>
      <trkpt lat="45.85372" lon="4.36674">
        <ele>894.2</ele>
        <time>2022-06-26T11:26:21Z</time>
      </trkpt>
      <trkpt lat="45.85371" lon="4.36676">
        <ele>894.6</ele>
        <time>2022-06-26T11:26:22Z</time>
      </trkpt>
      <trkpt lat="45.85369" lon="4.36678">
        <ele>894.6</ele>
        <time>2022-06-26T11:26:23Z</time>
      </trkpt>
      <trkpt lat="45.85367" lon="4.3668">
        <ele>895</ele>
        <time>2022-06-26T11:26:24Z</time>
      </trkpt>
      <trkpt lat="45.85366" lon="4.36682">
        <ele>895</ele>
        <time>2022-06-26T11:26:25Z</time>
      </trkpt>
      <trkpt lat="45.85365" lon="4.36685">
        <ele>895.2</ele>
        <time>2022-06-26T11:26:26Z</time>
      </trkpt>
      <trkpt lat="45.85364" lon="4.36687">
        <ele>895.2</ele>
        <time>2022-06-26T11:26:27Z</time>
      </trkpt>
      <trkpt lat="45.85362" lon="4.36689">
        <ele>895.2</ele>
        <time>2022-06-26T11:26:28Z</time>
      </trkpt>
      <trkpt lat="45.8536" lon="4.36691">
        <ele>895.6</ele>
        <time>2022-06-26T11:26:29Z</time>
      </trkpt>
      <trkpt lat="45.85359" lon="4.36694">
        <ele>895.8</ele>
        <time>2022-06-26T11:26:30Z</time>
      </trkpt>
      <trkpt lat="45.85357" lon="4.36696">
        <ele>895.8</ele>
        <time>2022-06-26T11:26:31Z</time>
      </trkpt>
      <trkpt lat="45.85356" lon="4.36698">
        <ele>896.2</ele>
        <time>2022-06-26T11:26:32Z</time>
      </trkpt>
      <trkpt lat="45.85354" lon="4.36701">
        <ele>896.2</ele>
        <time>2022-06-26T11:26:33Z</time>
      </trkpt>
      <trkpt lat="45.85353" lon="4.36703">
        <ele>896.4</ele>
        <time>2022-06-26T11:26:34Z</time>
      </trkpt>
      <trkpt lat="45.85351" lon="4.36705">
        <ele>896.4</ele>
        <time>2022-06-26T11:26:35Z</time>
      </trkpt>
      <trkpt lat="45.8535" lon="4.36706">
        <ele>896.6</ele>
        <time>2022-06-26T11:26:36Z</time>
      </trkpt>
      <trkpt lat="45.85349" lon="4.36708">
        <ele>896.6</ele>
        <time>2022-06-26T11:26:37Z</time>
      </trkpt>
      <trkpt lat="45.85347" lon="4.3671">
        <ele>897</ele>
        <time>2022-06-26T11:26:38Z</time>
      </trkpt>
      <trkpt lat="45.85345" lon="4.36712">
        <ele>897</ele>
        <time>2022-06-26T11:26:39Z</time>
      </trkpt>
      <trkpt lat="45.85344" lon="4.36714">
        <ele>897.4</ele>
        <time>2022-06-26T11:26:40Z</time>
      </trkpt>
      <trkpt lat="45.85343" lon="4.36715">
        <ele>897.4</ele>
        <time>2022-06-26T11:26:41Z</time>
      </trkpt>
      <trkpt lat="45.85341" lon="4.36717">
        <ele>897.8</ele>
        <time>2022-06-26T11:26:42Z</time>
      </trkpt>
      <trkpt lat="45.8534" lon="4.36719">
        <ele>897.8</ele>
        <time>2022-06-26T11:26:43Z</time>
      </trkpt>
      <trkpt lat="45.85339" lon="4.36722">
        <ele>898.2</ele>
        <time>2022-06-26T11:26:44Z</time>
      </trkpt>
      <trkpt lat="45.85338" lon="4.36725">
        <ele>898.4</ele>
        <time>2022-06-26T11:26:45Z</time>
      </trkpt>
      <trkpt lat="45.85336" lon="4.36727">
        <ele>898.4</ele>
        <time>2022-06-26T11:26:46Z</time>
      </trkpt>
      <trkpt lat="45.85335" lon="4.36729">
        <ele>898.4</ele>
        <time>2022-06-26T11:26:47Z</time>
      </trkpt>
      <trkpt lat="45.85333" lon="4.36731">
        <ele>898.6</ele>
        <time>2022-06-26T11:26:48Z</time>
      </trkpt>
      <trkpt lat="45.85331" lon="4.36733">
        <ele>898.6</ele>
        <time>2022-06-26T11:26:49Z</time>
      </trkpt>
      <trkpt lat="45.8533" lon="4.36736">
        <ele>898.8</ele>
        <time>2022-06-26T11:26:50Z</time>
      </trkpt>
      <trkpt lat="45.85329" lon="4.36738">
        <ele>898.8</ele>
        <time>2022-06-26T11:26:51Z</time>
      </trkpt>
      <trkpt lat="45.85327" lon="4.36741">
        <ele>899.2</ele>
        <time>2022-06-26T11:26:52Z</time>
      </trkpt>
      <trkpt lat="45.85326" lon="4.36744">
        <ele>899.2</ele>
        <time>2022-06-26T11:26:53Z</time>
      </trkpt>
      <trkpt lat="45.85325" lon="4.36747">
        <ele>899.4</ele>
        <time>2022-06-26T11:26:54Z</time>
      </trkpt>
      <trkpt lat="45.85324" lon="4.36749">
        <ele>899.4</ele>
        <time>2022-06-26T11:26:55Z</time>
      </trkpt>
      <trkpt lat="45.85322" lon="4.36751">
        <ele>899.6</ele>
        <time>2022-06-26T11:26:56Z</time>
      </trkpt>
      <trkpt lat="45.85321" lon="4.36753">
        <ele>899.6</ele>
        <time>2022-06-26T11:26:57Z</time>
      </trkpt>
      <trkpt lat="45.85319" lon="4.36755">
        <ele>900</ele>
        <time>2022-06-26T11:26:58Z</time>
      </trkpt>
      <trkpt lat="45.85318" lon="4.36757">
        <ele>900.2</ele>
        <time>2022-06-26T11:26:59Z</time>
      </trkpt>
      <trkpt lat="45.85316" lon="4.36759">
        <ele>900.2</ele>
        <time>2022-06-26T11:27:00Z</time>
      </trkpt>
      <trkpt lat="45.85314" lon="4.36761">
        <ele>900.6</ele>
        <time>2022-06-26T11:27:01Z</time>
      </trkpt>
      <trkpt lat="45.85312" lon="4.36763">
        <ele>900.6</ele>
        <time>2022-06-26T11:27:02Z</time>
      </trkpt>
      <trkpt lat="45.85311" lon="4.36765">
        <ele>901</ele>
        <time>2022-06-26T11:27:03Z</time>
      </trkpt>
      <trkpt lat="45.85309" lon="4.36767">
        <ele>901</ele>
        <time>2022-06-26T11:27:04Z</time>
      </trkpt>
      <trkpt lat="45.85308" lon="4.3677">
        <ele>901.4</ele>
        <time>2022-06-26T11:27:05Z</time>
      </trkpt>
      <trkpt lat="45.85307" lon="4.36772">
        <ele>901.4</ele>
        <time>2022-06-26T11:27:06Z</time>
      </trkpt>
      <trkpt lat="45.85305" lon="4.36775">
        <ele>901.6</ele>
        <time>2022-06-26T11:27:07Z</time>
      </trkpt>
      <trkpt lat="45.85304" lon="4.36778">
        <ele>901.6</ele>
        <time>2022-06-26T11:27:08Z</time>
      </trkpt>
      <trkpt lat="45.85303" lon="4.3678">
        <ele>901.8</ele>
        <time>2022-06-26T11:27:09Z</time>
      </trkpt>
      <trkpt lat="45.85301" lon="4.36782">
        <ele>901.8</ele>
        <time>2022-06-26T11:27:10Z</time>
      </trkpt>
      <trkpt lat="45.85299" lon="4.36786">
        <ele>902.2</ele>
        <time>2022-06-26T11:27:11Z</time>
      </trkpt>
      <trkpt lat="45.85297" lon="4.36788">
        <ele>902.4</ele>
        <time>2022-06-26T11:27:12Z</time>
      </trkpt>
      <trkpt lat="45.85295" lon="4.36791">
        <ele>902.6</ele>
        <time>2022-06-26T11:27:13Z</time>
      </trkpt>
      <trkpt lat="45.85294" lon="4.36793">
        <ele>902.8</ele>
        <time>2022-06-26T11:27:14Z</time>
      </trkpt>
      <trkpt lat="45.85292" lon="4.36795">
        <ele>902.8</ele>
        <time>2022-06-26T11:27:15Z</time>
      </trkpt>
      <trkpt lat="45.8529" lon="4.36797">
        <ele>903.2</ele>
        <time>2022-06-26T11:27:16Z</time>
      </trkpt>
      <trkpt lat="45.85288" lon="4.36799">
        <ele>903.4</ele>
        <time>2022-06-26T11:27:17Z</time>
      </trkpt>
      <trkpt lat="45.85286" lon="4.36802">
        <ele>903.6</ele>
        <time>2022-06-26T11:27:18Z</time>
      </trkpt>
      <trkpt lat="45.85284" lon="4.36805">
        <ele>903.6</ele>
        <time>2022-06-26T11:27:19Z</time>
      </trkpt>
      <trkpt lat="45.85283" lon="4.36808">
        <ele>904</ele>
        <time>2022-06-26T11:27:20Z</time>
      </trkpt>
      <trkpt lat="45.85281" lon="4.36811">
        <ele>904.2</ele>
        <time>2022-06-26T11:27:21Z</time>
      </trkpt>
      <trkpt lat="45.85279" lon="4.36814">
        <ele>904.4</ele>
        <time>2022-06-26T11:27:22Z</time>
      </trkpt>
      <trkpt lat="45.85278" lon="4.36817">
        <ele>904.4</ele>
        <time>2022-06-26T11:27:23Z</time>
      </trkpt>
      <trkpt lat="45.85276" lon="4.3682">
        <ele>904.8</ele>
        <time>2022-06-26T11:27:24Z</time>
      </trkpt>
      <trkpt lat="45.85275" lon="4.36823">
        <ele>905</ele>
        <time>2022-06-26T11:27:25Z</time>
      </trkpt>
      <trkpt lat="45.85273" lon="4.36826">
        <ele>905.2</ele>
        <time>2022-06-26T11:27:26Z</time>
      </trkpt>
      <trkpt lat="45.85271" lon="4.36828">
        <ele>905.4</ele>
        <time>2022-06-26T11:27:27Z</time>
      </trkpt>
      <trkpt lat="45.85269" lon="4.3683">
        <ele>905.6</ele>
        <time>2022-06-26T11:27:28Z</time>
      </trkpt>
      <trkpt lat="45.85268" lon="4.36833">
        <ele>905.8</ele>
        <time>2022-06-26T11:27:29Z</time>
      </trkpt>
      <trkpt lat="45.85266" lon="4.36835">
        <ele>906.2</ele>
        <time>2022-06-26T11:27:30Z</time>
      </trkpt>
      <trkpt lat="45.85264" lon="4.36838">
        <ele>906.4</ele>
        <time>2022-06-26T11:27:31Z</time>
      </trkpt>
      <trkpt lat="45.85263" lon="4.36841">
        <ele>906.6</ele>
        <time>2022-06-26T11:27:32Z</time>
      </trkpt>
      <trkpt lat="45.85261" lon="4.36843">
        <ele>906.6</ele>
        <time>2022-06-26T11:27:33Z</time>
      </trkpt>
      <trkpt lat="45.8526" lon="4.36845">
        <ele>907</ele>
        <time>2022-06-26T11:27:34Z</time>
      </trkpt>
      <trkpt lat="45.85258" lon="4.36847">
        <ele>907.2</ele>
        <time>2022-06-26T11:27:35Z</time>
      </trkpt>
      <trkpt lat="45.85257" lon="4.3685">
        <ele>907.4</ele>
        <time>2022-06-26T11:27:36Z</time>
      </trkpt>
      <trkpt lat="45.85256" lon="4.36852">
        <ele>907.8</ele>
        <time>2022-06-26T11:27:37Z</time>
      </trkpt>
      <trkpt lat="45.85254" lon="4.36855">
        <ele>908</ele>
        <time>2022-06-26T11:27:38Z</time>
      </trkpt>
      <trkpt lat="45.85253" lon="4.36858">
        <ele>908</ele>
        <time>2022-06-26T11:27:39Z</time>
      </trkpt>
      <trkpt lat="45.85251" lon="4.3686">
        <ele>908.4</ele>
        <time>2022-06-26T11:27:40Z</time>
      </trkpt>
      <trkpt lat="45.8525" lon="4.36863">
        <ele>908.6</ele>
        <time>2022-06-26T11:27:41Z</time>
      </trkpt>
      <trkpt lat="45.85249" lon="4.36865">
        <ele>908.6</ele>
        <time>2022-06-26T11:27:42Z</time>
      </trkpt>
      <trkpt lat="45.85247" lon="4.36868">
        <ele>909</ele>
        <time>2022-06-26T11:27:43Z</time>
      </trkpt>
      <trkpt lat="45.85245" lon="4.36871">
        <ele>909.4</ele>
        <time>2022-06-26T11:27:44Z</time>
      </trkpt>
      <trkpt lat="45.85244" lon="4.36873">
        <ele>909.6</ele>
        <time>2022-06-26T11:27:45Z</time>
      </trkpt>
      <trkpt lat="45.85242" lon="4.36876">
        <ele>909.8</ele>
        <time>2022-06-26T11:27:46Z</time>
      </trkpt>
      <trkpt lat="45.85241" lon="4.36879">
        <ele>909.8</ele>
        <time>2022-06-26T11:27:47Z</time>
      </trkpt>
      <trkpt lat="45.85239" lon="4.36881">
        <ele>910.2</ele>
        <time>2022-06-26T11:27:48Z</time>
      </trkpt>
      <trkpt lat="45.85237" lon="4.36884">
        <ele>910.4</ele>
        <time>2022-06-26T11:27:49Z</time>
      </trkpt>
      <trkpt lat="45.85235" lon="4.36887">
        <ele>910.8</ele>
        <time>2022-06-26T11:27:50Z</time>
      </trkpt>
      <trkpt lat="45.85234" lon="4.36889">
        <ele>911</ele>
        <time>2022-06-26T11:27:51Z</time>
      </trkpt>
      <trkpt lat="45.85232" lon="4.36892">
        <ele>911.2</ele>
        <time>2022-06-26T11:27:52Z</time>
      </trkpt>
      <trkpt lat="45.85231" lon="4.36894">
        <ele>911.4</ele>
        <time>2022-06-26T11:27:53Z</time>
      </trkpt>
      <trkpt lat="45.8523" lon="4.36896">
        <ele>911.4</ele>
        <time>2022-06-26T11:27:54Z</time>
      </trkpt>
      <trkpt lat="45.85229" lon="4.36899">
        <ele>911.8</ele>
        <time>2022-06-26T11:27:55Z</time>
      </trkpt>
      <trkpt lat="45.85228" lon="4.36901">
        <ele>912.2</ele>
        <time>2022-06-26T11:27:56Z</time>
      </trkpt>
      <trkpt lat="45.85226" lon="4.36903">
        <ele>912.4</ele>
        <time>2022-06-26T11:27:57Z</time>
      </trkpt>
      <trkpt lat="45.85225" lon="4.36905">
        <ele>912.4</ele>
        <time>2022-06-26T11:27:58Z</time>
      </trkpt>
      <trkpt lat="45.85224" lon="4.36908">
        <ele>912.8</ele>
        <time>2022-06-26T11:27:59Z</time>
      </trkpt>
      <trkpt lat="45.85223" lon="4.3691">
        <ele>912.8</ele>
        <time>2022-06-26T11:28:00Z</time>
      </trkpt>
      <trkpt lat="45.85221" lon="4.36912">
        <ele>913</ele>
        <time>2022-06-26T11:28:01Z</time>
      </trkpt>
      <trkpt lat="45.8522" lon="4.36915">
        <ele>913</ele>
        <time>2022-06-26T11:28:02Z</time>
      </trkpt>
      <trkpt lat="45.85219" lon="4.36917">
        <ele>913.4</ele>
        <time>2022-06-26T11:28:03Z</time>
      </trkpt>
      <trkpt lat="45.85218" lon="4.36919">
        <ele>913.4</ele>
        <time>2022-06-26T11:28:04Z</time>
      </trkpt>
      <trkpt lat="45.85216" lon="4.36921">
        <ele>913.8</ele>
        <time>2022-06-26T11:28:05Z</time>
      </trkpt>
      <trkpt lat="45.85215" lon="4.36924">
        <ele>914</ele>
        <time>2022-06-26T11:28:06Z</time>
      </trkpt>
      <trkpt lat="45.85214" lon="4.36926">
        <ele>914.2</ele>
        <time>2022-06-26T11:28:07Z</time>
      </trkpt>
      <trkpt lat="45.85213" lon="4.36928">
        <ele>914.2</ele>
        <time>2022-06-26T11:28:08Z</time>
      </trkpt>
      <trkpt lat="45.85212" lon="4.36931">
        <ele>914.6</ele>
        <time>2022-06-26T11:28:09Z</time>
      </trkpt>
      <trkpt lat="45.8521" lon="4.36933">
        <ele>914.6</ele>
        <time>2022-06-26T11:28:10Z</time>
      </trkpt>
      <trkpt lat="45.85209" lon="4.36935">
        <ele>915</ele>
        <time>2022-06-26T11:28:11Z</time>
      </trkpt>
      <trkpt lat="45.85208" lon="4.36938">
        <ele>915.4</ele>
        <time>2022-06-26T11:28:12Z</time>
      </trkpt>
      <trkpt lat="45.85206" lon="4.3694">
        <ele>915.4</ele>
        <time>2022-06-26T11:28:13Z</time>
      </trkpt>
      <trkpt lat="45.85204" lon="4.36943">
        <ele>915.8</ele>
        <time>2022-06-26T11:28:14Z</time>
      </trkpt>
      <trkpt lat="45.85203" lon="4.36945">
        <ele>916</ele>
        <time>2022-06-26T11:28:15Z</time>
      </trkpt>
      <trkpt lat="45.85201" lon="4.36948">
        <ele>916.2</ele>
        <time>2022-06-26T11:28:16Z</time>
      </trkpt>
      <trkpt lat="45.852" lon="4.36951">
        <ele>916.4</ele>
        <time>2022-06-26T11:28:17Z</time>
      </trkpt>
      <trkpt lat="45.85198" lon="4.36953">
        <ele>916.4</ele>
        <time>2022-06-26T11:28:18Z</time>
      </trkpt>
      <trkpt lat="45.85197" lon="4.36956">
        <ele>916.6</ele>
        <time>2022-06-26T11:28:19Z</time>
      </trkpt>
      <trkpt lat="45.85196" lon="4.36958">
        <ele>916.6</ele>
        <time>2022-06-26T11:28:20Z</time>
      </trkpt>
      <trkpt lat="45.85194" lon="4.3696">
        <ele>917</ele>
        <time>2022-06-26T11:28:21Z</time>
      </trkpt>
      <trkpt lat="45.85193" lon="4.36963">
        <ele>917</ele>
        <time>2022-06-26T11:28:22Z</time>
      </trkpt>
      <trkpt lat="45.85192" lon="4.36965">
        <ele>917.2</ele>
        <time>2022-06-26T11:28:23Z</time>
      </trkpt>
      <trkpt lat="45.85191" lon="4.36968">
        <ele>917.2</ele>
        <time>2022-06-26T11:28:24Z</time>
      </trkpt>
      <trkpt lat="45.85189" lon="4.36971">
        <ele>917.6</ele>
        <time>2022-06-26T11:28:25Z</time>
      </trkpt>
      <trkpt lat="45.85188" lon="4.36973">
        <ele>917.6</ele>
        <time>2022-06-26T11:28:26Z</time>
      </trkpt>
      <trkpt lat="45.85186" lon="4.36976">
        <ele>917.8</ele>
        <time>2022-06-26T11:28:27Z</time>
      </trkpt>
      <trkpt lat="45.85185" lon="4.36979">
        <ele>917.8</ele>
        <time>2022-06-26T11:28:28Z</time>
      </trkpt>
      <trkpt lat="45.85183" lon="4.36983">
        <ele>918.2</ele>
        <time>2022-06-26T11:28:29Z</time>
      </trkpt>
      <trkpt lat="45.85182" lon="4.36986">
        <ele>918.2</ele>
        <time>2022-06-26T11:28:30Z</time>
      </trkpt>
      <trkpt lat="45.8518" lon="4.36988">
        <ele>918.6</ele>
        <time>2022-06-26T11:28:31Z</time>
      </trkpt>
      <trkpt lat="45.85179" lon="4.36991">
        <ele>918.6</ele>
        <time>2022-06-26T11:28:32Z</time>
      </trkpt>
      <trkpt lat="45.85178" lon="4.36994">
        <ele>918.6</ele>
        <time>2022-06-26T11:28:33Z</time>
      </trkpt>
      <trkpt lat="45.85176" lon="4.36996">
        <ele>918.8</ele>
        <time>2022-06-26T11:28:34Z</time>
      </trkpt>
      <trkpt lat="45.85174" lon="4.36999">
        <ele>918.8</ele>
        <time>2022-06-26T11:28:35Z</time>
      </trkpt>
      <trkpt lat="45.85173" lon="4.37002">
        <ele>919</ele>
        <time>2022-06-26T11:28:36Z</time>
      </trkpt>
      <trkpt lat="45.85171" lon="4.37005">
        <ele>919</ele>
        <time>2022-06-26T11:28:37Z</time>
      </trkpt>
      <trkpt lat="45.8517" lon="4.37008">
        <ele>919.4</ele>
        <time>2022-06-26T11:28:38Z</time>
      </trkpt>
      <trkpt lat="45.85169" lon="4.37011">
        <ele>919.4</ele>
        <time>2022-06-26T11:28:39Z</time>
      </trkpt>
      <trkpt lat="45.85167" lon="4.37013">
        <ele>919.6</ele>
        <time>2022-06-26T11:28:40Z</time>
      </trkpt>
      <trkpt lat="45.85166" lon="4.37016">
        <ele>919.6</ele>
        <time>2022-06-26T11:28:41Z</time>
      </trkpt>
      <trkpt lat="45.85164" lon="4.3702">
        <ele>919.8</ele>
        <time>2022-06-26T11:28:42Z</time>
      </trkpt>
      <trkpt lat="45.85163" lon="4.37023">
        <ele>919.8</ele>
        <time>2022-06-26T11:28:43Z</time>
      </trkpt>
      <trkpt lat="45.85162" lon="4.37027">
        <ele>919.8</ele>
        <time>2022-06-26T11:28:44Z</time>
      </trkpt>
      <trkpt lat="45.85161" lon="4.3703">
        <ele>920.2</ele>
        <time>2022-06-26T11:28:45Z</time>
      </trkpt>
      <trkpt lat="45.8516" lon="4.37034">
        <ele>920.2</ele>
        <time>2022-06-26T11:28:46Z</time>
      </trkpt>
      <trkpt lat="45.85158" lon="4.37038">
        <ele>920.4</ele>
        <time>2022-06-26T11:28:47Z</time>
      </trkpt>
      <trkpt lat="45.85157" lon="4.37041">
        <ele>920.4</ele>
        <time>2022-06-26T11:28:48Z</time>
      </trkpt>
      <trkpt lat="45.85156" lon="4.37044">
        <ele>920.6</ele>
        <time>2022-06-26T11:28:49Z</time>
      </trkpt>
      <trkpt lat="45.85154" lon="4.37047">
        <ele>920.6</ele>
        <time>2022-06-26T11:28:50Z</time>
      </trkpt>
      <trkpt lat="45.85152" lon="4.3705">
        <ele>920.6</ele>
        <time>2022-06-26T11:28:51Z</time>
      </trkpt>
      <trkpt lat="45.85151" lon="4.37053">
        <ele>920.6</ele>
        <time>2022-06-26T11:28:52Z</time>
      </trkpt>
      <trkpt lat="45.85149" lon="4.37056">
        <ele>920.6</ele>
        <time>2022-06-26T11:28:53Z</time>
      </trkpt>
      <trkpt lat="45.85148" lon="4.37059">
        <ele>920.8</ele>
        <time>2022-06-26T11:28:54Z</time>
      </trkpt>
      <trkpt lat="45.85146" lon="4.37062">
        <ele>920.8</ele>
        <time>2022-06-26T11:28:55Z</time>
      </trkpt>
      <trkpt lat="45.85145" lon="4.37066">
        <ele>920.8</ele>
        <time>2022-06-26T11:28:56Z</time>
      </trkpt>
      <trkpt lat="45.85143" lon="4.37069">
        <ele>921</ele>
        <time>2022-06-26T11:28:57Z</time>
      </trkpt>
      <trkpt lat="45.85142" lon="4.37073">
        <ele>921</ele>
        <time>2022-06-26T11:28:58Z</time>
      </trkpt>
      <trkpt lat="45.8514" lon="4.37076">
        <ele>921</ele>
        <time>2022-06-26T11:28:59Z</time>
      </trkpt>
      <trkpt lat="45.85138" lon="4.3708">
        <ele>921.4</ele>
        <time>2022-06-26T11:29:00Z</time>
      </trkpt>
      <trkpt lat="45.85136" lon="4.37084">
        <ele>921.4</ele>
        <time>2022-06-26T11:29:01Z</time>
      </trkpt>
      <trkpt lat="45.85134" lon="4.37087">
        <ele>921.4</ele>
        <time>2022-06-26T11:29:02Z</time>
      </trkpt>
      <trkpt lat="45.85133" lon="4.3709">
        <ele>921.6</ele>
        <time>2022-06-26T11:29:03Z</time>
      </trkpt>
      <trkpt lat="45.8513" lon="4.37093">
        <ele>921.6</ele>
        <time>2022-06-26T11:29:04Z</time>
      </trkpt>
      <trkpt lat="45.85128" lon="4.37096">
        <ele>921.6</ele>
        <time>2022-06-26T11:29:05Z</time>
      </trkpt>
      <trkpt lat="45.85126" lon="4.37099">
        <ele>921.6</ele>
        <time>2022-06-26T11:29:06Z</time>
      </trkpt>
      <trkpt lat="45.85124" lon="4.37103">
        <ele>921.6</ele>
        <time>2022-06-26T11:29:07Z</time>
      </trkpt>
      <trkpt lat="45.85122" lon="4.37107">
        <ele>921.8</ele>
        <time>2022-06-26T11:29:08Z</time>
      </trkpt>
      <trkpt lat="45.8512" lon="4.37112">
        <ele>921.8</ele>
        <time>2022-06-26T11:29:09Z</time>
      </trkpt>
      <trkpt lat="45.85118" lon="4.37116">
        <ele>921.8</ele>
        <time>2022-06-26T11:29:10Z</time>
      </trkpt>
      <trkpt lat="45.85116" lon="4.37119">
        <ele>921.8</ele>
        <time>2022-06-26T11:29:11Z</time>
      </trkpt>
      <trkpt lat="45.85115" lon="4.37123">
        <ele>921.8</ele>
        <time>2022-06-26T11:29:12Z</time>
      </trkpt>
      <trkpt lat="45.85113" lon="4.37128">
        <ele>922</ele>
        <time>2022-06-26T11:29:13Z</time>
      </trkpt>
      <trkpt lat="45.85111" lon="4.37131">
        <ele>922</ele>
        <time>2022-06-26T11:29:14Z</time>
      </trkpt>
      <trkpt lat="45.85108" lon="4.37135">
        <ele>922</ele>
        <time>2022-06-26T11:29:15Z</time>
      </trkpt>
      <trkpt lat="45.85106" lon="4.37139">
        <ele>922</ele>
        <time>2022-06-26T11:29:16Z</time>
      </trkpt>
      <trkpt lat="45.85104" lon="4.37142">
        <ele>922</ele>
        <time>2022-06-26T11:29:17Z</time>
      </trkpt>
      <trkpt lat="45.85102" lon="4.37146">
        <ele>922</ele>
        <time>2022-06-26T11:29:18Z</time>
      </trkpt>
      <trkpt lat="45.85099" lon="4.37149">
        <ele>922</ele>
        <time>2022-06-26T11:29:19Z</time>
      </trkpt>
      <trkpt lat="45.85097" lon="4.37152">
        <ele>922</ele>
        <time>2022-06-26T11:29:20Z</time>
      </trkpt>
      <trkpt lat="45.85095" lon="4.37155">
        <ele>921.8</ele>
        <time>2022-06-26T11:29:21Z</time>
      </trkpt>
      <trkpt lat="45.85092" lon="4.37158">
        <ele>921.8</ele>
        <time>2022-06-26T11:29:22Z</time>
      </trkpt>
      <trkpt lat="45.85088" lon="4.37163">
        <ele>921.6</ele>
        <time>2022-06-26T11:29:23Z</time>
      </trkpt>
      <trkpt lat="45.85085" lon="4.37167">
        <ele>921.6</ele>
        <time>2022-06-26T11:29:24Z</time>
      </trkpt>
      <trkpt lat="45.85081" lon="4.37171">
        <ele>921.6</ele>
        <time>2022-06-26T11:29:25Z</time>
      </trkpt>
      <trkpt lat="45.85077" lon="4.37176">
        <ele>921.2</ele>
        <time>2022-06-26T11:29:26Z</time>
      </trkpt>
      <trkpt lat="45.85072" lon="4.37181">
        <ele>921.2</ele>
        <time>2022-06-26T11:29:27Z</time>
      </trkpt>
      <trkpt lat="45.85068" lon="4.37186">
        <ele>920.8</ele>
        <time>2022-06-26T11:29:28Z</time>
      </trkpt>
      <trkpt lat="45.85063" lon="4.37191">
        <ele>920.6</ele>
        <time>2022-06-26T11:29:29Z</time>
      </trkpt>
      <trkpt lat="45.85058" lon="4.37197">
        <ele>920.4</ele>
        <time>2022-06-26T11:29:30Z</time>
      </trkpt>
      <trkpt lat="45.85053" lon="4.37202">
        <ele>920</ele>
        <time>2022-06-26T11:29:31Z</time>
      </trkpt>
      <trkpt lat="45.85047" lon="4.37208">
        <ele>919.8</ele>
        <time>2022-06-26T11:29:32Z</time>
      </trkpt>
      <trkpt lat="45.85042" lon="4.37212">
        <ele>919.6</ele>
        <time>2022-06-26T11:29:33Z</time>
      </trkpt>
      <trkpt lat="45.85036" lon="4.37216">
        <ele>919.2</ele>
        <time>2022-06-26T11:29:34Z</time>
      </trkpt>
      <trkpt lat="45.85031" lon="4.3722">
        <ele>919.2</ele>
        <time>2022-06-26T11:29:35Z</time>
      </trkpt>
      <trkpt lat="45.85024" lon="4.37225">
        <ele>918.8</ele>
        <time>2022-06-26T11:29:36Z</time>
      </trkpt>
      <trkpt lat="45.85017" lon="4.37231">
        <ele>918.6</ele>
        <time>2022-06-26T11:29:37Z</time>
      </trkpt>
      <trkpt lat="45.8501" lon="4.37235">
        <ele>918</ele>
        <time>2022-06-26T11:29:38Z</time>
      </trkpt>
      <trkpt lat="45.85003" lon="4.37239">
        <ele>917.6</ele>
        <time>2022-06-26T11:29:39Z</time>
      </trkpt>
      <trkpt lat="45.84996" lon="4.37242">
        <ele>917.6</ele>
        <time>2022-06-26T11:29:40Z</time>
      </trkpt>
      <trkpt lat="45.8499" lon="4.37244">
        <ele>917.2</ele>
        <time>2022-06-26T11:29:41Z</time>
      </trkpt>
      <trkpt lat="45.84984" lon="4.37246">
        <ele>917.2</ele>
        <time>2022-06-26T11:29:42Z</time>
      </trkpt>
      <trkpt lat="45.84979" lon="4.37247">
        <ele>917.2</ele>
        <time>2022-06-26T11:29:43Z</time>
      </trkpt>
      <trkpt lat="45.84974" lon="4.37249">
        <ele>917.2</ele>
        <time>2022-06-26T11:29:44Z</time>
      </trkpt>
      <trkpt lat="45.8497" lon="4.3725">
        <ele>917.2</ele>
        <time>2022-06-26T11:29:45Z</time>
      </trkpt>
      <trkpt lat="45.84966" lon="4.37251">
        <ele>917.2</ele>
        <time>2022-06-26T11:29:46Z</time>
      </trkpt>
      <trkpt lat="45.84961" lon="4.37251">
        <ele>917.2</ele>
        <time>2022-06-26T11:29:47Z</time>
      </trkpt>
      <trkpt lat="45.84957" lon="4.37251">
        <ele>917.2</ele>
        <time>2022-06-26T11:29:48Z</time>
      </trkpt>
      <trkpt lat="45.84953" lon="4.37252">
        <ele>917.2</ele>
        <time>2022-06-26T11:29:49Z</time>
      </trkpt>
      <trkpt lat="45.84949" lon="4.37254">
        <ele>917.4</ele>
        <time>2022-06-26T11:29:51Z</time>
      </trkpt>
      <trkpt lat="45.84946" lon="4.37255">
        <ele>917.4</ele>
        <time>2022-06-26T11:29:52Z</time>
      </trkpt>
      <trkpt lat="45.84943" lon="4.37256">
        <ele>917.8</ele>
        <time>2022-06-26T11:29:53Z</time>
      </trkpt>
      <trkpt lat="45.8494" lon="4.37257">
        <ele>917.8</ele>
        <time>2022-06-26T11:29:54Z</time>
      </trkpt>
      <trkpt lat="45.84938" lon="4.37258">
        <ele>918</ele>
        <time>2022-06-26T11:29:55Z</time>
      </trkpt>
      <trkpt lat="45.84934" lon="4.37258">
        <ele>918</ele>
        <time>2022-06-26T11:29:56Z</time>
      </trkpt>
      <trkpt lat="45.84931" lon="4.37259">
        <ele>918.4</ele>
        <time>2022-06-26T11:29:57Z</time>
      </trkpt>
      <trkpt lat="45.84929" lon="4.37259">
        <ele>918.4</ele>
        <time>2022-06-26T11:29:58Z</time>
      </trkpt>
      <trkpt lat="45.84927" lon="4.3726">
        <ele>918.8</ele>
        <time>2022-06-26T11:29:59Z</time>
      </trkpt>
      <trkpt lat="45.84925" lon="4.37261">
        <ele>919</ele>
        <time>2022-06-26T11:30:00Z</time>
      </trkpt>
      <trkpt lat="45.84921" lon="4.37262">
        <ele>919.2</ele>
        <time>2022-06-26T11:30:01Z</time>
      </trkpt>
      <trkpt lat="45.84918" lon="4.37263">
        <ele>919.4</ele>
        <time>2022-06-26T11:30:02Z</time>
      </trkpt>
      <trkpt lat="45.84914" lon="4.37263">
        <ele>919.6</ele>
        <time>2022-06-26T11:30:03Z</time>
      </trkpt>
      <trkpt lat="45.84912" lon="4.37264">
        <ele>919.8</ele>
        <time>2022-06-26T11:30:04Z</time>
      </trkpt>
      <trkpt lat="45.84908" lon="4.37265">
        <ele>920.2</ele>
        <time>2022-06-26T11:30:05Z</time>
      </trkpt>
      <trkpt lat="45.84905" lon="4.37266">
        <ele>920.2</ele>
        <time>2022-06-26T11:30:06Z</time>
      </trkpt>
      <trkpt lat="45.84903" lon="4.37266">
        <ele>920.6</ele>
        <time>2022-06-26T11:30:07Z</time>
      </trkpt>
      <trkpt lat="45.849" lon="4.37267">
        <ele>920.6</ele>
        <time>2022-06-26T11:30:08Z</time>
      </trkpt>
      <trkpt lat="45.84897" lon="4.37267">
        <ele>921</ele>
        <time>2022-06-26T11:30:09Z</time>
      </trkpt>
      <trkpt lat="45.84894" lon="4.37267">
        <ele>921.2</ele>
        <time>2022-06-26T11:30:10Z</time>
      </trkpt>
      <trkpt lat="45.8489" lon="4.37268">
        <ele>921.4</ele>
        <time>2022-06-26T11:30:11Z</time>
      </trkpt>
      <trkpt lat="45.84887" lon="4.37268">
        <ele>921.4</ele>
        <time>2022-06-26T11:30:12Z</time>
      </trkpt>
      <trkpt lat="45.84885" lon="4.37268">
        <ele>921.8</ele>
        <time>2022-06-26T11:30:13Z</time>
      </trkpt>
      <trkpt lat="45.84882" lon="4.37269">
        <ele>922</ele>
        <time>2022-06-26T11:30:14Z</time>
      </trkpt>
      <trkpt lat="45.84876" lon="4.37271">
        <ele>922</ele>
        <time>2022-06-26T11:30:15Z</time>
      </trkpt>
      <trkpt lat="45.84873" lon="4.37271">
        <ele>922.2</ele>
        <time>2022-06-26T11:30:16Z</time>
      </trkpt>
      <trkpt lat="45.84871" lon="4.37272">
        <ele>922.2</ele>
        <time>2022-06-26T11:30:17Z</time>
      </trkpt>
      <trkpt lat="45.84868" lon="4.37273">
        <ele>922.4</ele>
        <time>2022-06-26T11:30:18Z</time>
      </trkpt>
      <trkpt lat="45.84866" lon="4.37273">
        <ele>922.4</ele>
        <time>2022-06-26T11:30:19Z</time>
      </trkpt>
      <trkpt lat="45.84865" lon="4.37273">
        <ele>922.8</ele>
        <time>2022-06-26T11:30:20Z</time>
      </trkpt>
      <trkpt lat="45.84863" lon="4.37274">
        <ele>922.8</ele>
        <time>2022-06-26T11:30:21Z</time>
      </trkpt>
      <trkpt lat="45.8486" lon="4.37274">
        <ele>923</ele>
        <time>2022-06-26T11:30:22Z</time>
      </trkpt>
      <trkpt lat="45.84857" lon="4.37275">
        <ele>923</ele>
        <time>2022-06-26T11:30:23Z</time>
      </trkpt>
      <trkpt lat="45.84853" lon="4.37276">
        <ele>923</ele>
        <time>2022-06-26T11:30:24Z</time>
      </trkpt>
      <trkpt lat="45.84849" lon="4.37277">
        <ele>923.2</ele>
        <time>2022-06-26T11:30:25Z</time>
      </trkpt>
      <trkpt lat="45.84847" lon="4.37277">
        <ele>923.2</ele>
        <time>2022-06-26T11:30:26Z</time>
      </trkpt>
      <trkpt lat="45.84844" lon="4.37277">
        <ele>923.2</ele>
        <time>2022-06-26T11:30:27Z</time>
      </trkpt>
      <trkpt lat="45.84842" lon="4.37278">
        <ele>923.2</ele>
        <time>2022-06-26T11:30:28Z</time>
      </trkpt>
      <trkpt lat="45.84839" lon="4.37278">
        <ele>923.2</ele>
        <time>2022-06-26T11:30:29Z</time>
      </trkpt>
      <trkpt lat="45.84837" lon="4.37279">
        <ele>923.2</ele>
        <time>2022-06-26T11:30:30Z</time>
      </trkpt>
      <trkpt lat="45.84834" lon="4.37279">
        <ele>923.2</ele>
        <time>2022-06-26T11:30:31Z</time>
      </trkpt>
      <trkpt lat="45.84831" lon="4.3728">
        <ele>923.4</ele>
        <time>2022-06-26T11:30:32Z</time>
      </trkpt>
      <trkpt lat="45.84829" lon="4.37281">
        <ele>923.4</ele>
        <time>2022-06-26T11:30:33Z</time>
      </trkpt>
      <trkpt lat="45.84826" lon="4.37281">
        <ele>923.4</ele>
        <time>2022-06-26T11:30:34Z</time>
      </trkpt>
      <trkpt lat="45.84823" lon="4.37282">
        <ele>923.4</ele>
        <time>2022-06-26T11:30:35Z</time>
      </trkpt>
      <trkpt lat="45.84821" lon="4.37283">
        <ele>923.4</ele>
        <time>2022-06-26T11:30:36Z</time>
      </trkpt>
      <trkpt lat="45.84817" lon="4.37284">
        <ele>923.4</ele>
        <time>2022-06-26T11:30:37Z</time>
      </trkpt>
      <trkpt lat="45.84816" lon="4.37285">
        <ele>923.4</ele>
        <time>2022-06-26T11:30:38Z</time>
      </trkpt>
      <trkpt lat="45.84815" lon="4.37285">
        <ele>923.4</ele>
        <time>2022-06-26T11:30:39Z</time>
      </trkpt>
      <trkpt lat="45.84813" lon="4.37286">
        <ele>923.4</ele>
        <time>2022-06-26T11:30:40Z</time>
      </trkpt>
      <trkpt lat="45.84808" lon="4.37287">
        <ele>923.4</ele>
        <time>2022-06-26T11:30:41Z</time>
      </trkpt>
      <trkpt lat="45.84803" lon="4.37288">
        <ele>923.4</ele>
        <time>2022-06-26T11:30:42Z</time>
      </trkpt>
      <trkpt lat="45.84799" lon="4.37289">
        <ele>923.4</ele>
        <time>2022-06-26T11:30:43Z</time>
      </trkpt>
      <trkpt lat="45.84796" lon="4.37289">
        <ele>923.6</ele>
        <time>2022-06-26T11:30:44Z</time>
      </trkpt>
      <trkpt lat="45.84793" lon="4.37289">
        <ele>923.6</ele>
        <time>2022-06-26T11:30:45Z</time>
      </trkpt>
      <trkpt lat="45.8479" lon="4.37289">
        <ele>923.6</ele>
        <time>2022-06-26T11:30:46Z</time>
      </trkpt>
      <trkpt lat="45.84787" lon="4.3729">
        <ele>923.6</ele>
        <time>2022-06-26T11:30:47Z</time>
      </trkpt>
      <trkpt lat="45.84785" lon="4.37291">
        <ele>924</ele>
        <time>2022-06-26T11:30:48Z</time>
      </trkpt>
      <trkpt lat="45.84781" lon="4.37293">
        <ele>924</ele>
        <time>2022-06-26T11:30:49Z</time>
      </trkpt>
      <trkpt lat="45.84777" lon="4.37295">
        <ele>924.2</ele>
        <time>2022-06-26T11:30:50Z</time>
      </trkpt>
      <trkpt lat="45.84774" lon="4.37296">
        <ele>924.2</ele>
        <time>2022-06-26T11:30:51Z</time>
      </trkpt>
      <trkpt lat="45.84771" lon="4.37298">
        <ele>924.2</ele>
        <time>2022-06-26T11:30:52Z</time>
      </trkpt>
      <trkpt lat="45.84767" lon="4.373">
        <ele>924.6</ele>
        <time>2022-06-26T11:30:53Z</time>
      </trkpt>
      <trkpt lat="45.84763" lon="4.37302">
        <ele>924.6</ele>
        <time>2022-06-26T11:30:54Z</time>
      </trkpt>
      <trkpt lat="45.8476" lon="4.37304">
        <ele>924.6</ele>
        <time>2022-06-26T11:30:55Z</time>
      </trkpt>
      <trkpt lat="45.84757" lon="4.37306">
        <ele>924.8</ele>
        <time>2022-06-26T11:30:56Z</time>
      </trkpt>
      <trkpt lat="45.84753" lon="4.37307">
        <ele>924.8</ele>
        <time>2022-06-26T11:30:57Z</time>
      </trkpt>
      <trkpt lat="45.8475" lon="4.37309">
        <ele>924.8</ele>
        <time>2022-06-26T11:30:58Z</time>
      </trkpt>
      <trkpt lat="45.84748" lon="4.37309">
        <ele>924.8</ele>
        <time>2022-06-26T11:30:59Z</time>
      </trkpt>
      <trkpt lat="45.84745" lon="4.37311">
        <ele>925</ele>
        <time>2022-06-26T11:31:00Z</time>
      </trkpt>
      <trkpt lat="45.84742" lon="4.37312">
        <ele>925</ele>
        <time>2022-06-26T11:31:01Z</time>
      </trkpt>
      <trkpt lat="45.84738" lon="4.37315">
        <ele>925.2</ele>
        <time>2022-06-26T11:31:02Z</time>
      </trkpt>
      <trkpt lat="45.84735" lon="4.37317">
        <ele>925.2</ele>
        <time>2022-06-26T11:31:03Z</time>
      </trkpt>
      <trkpt lat="45.84732" lon="4.3732">
        <ele>925.2</ele>
        <time>2022-06-26T11:31:04Z</time>
      </trkpt>
      <trkpt lat="45.84729" lon="4.37322">
        <ele>925.6</ele>
        <time>2022-06-26T11:31:05Z</time>
      </trkpt>
      <trkpt lat="45.84725" lon="4.37325">
        <ele>925.6</ele>
        <time>2022-06-26T11:31:06Z</time>
      </trkpt>
      <trkpt lat="45.84722" lon="4.37327">
        <ele>925.8</ele>
        <time>2022-06-26T11:31:07Z</time>
      </trkpt>
      <trkpt lat="45.84717" lon="4.37329">
        <ele>925.8</ele>
        <time>2022-06-26T11:31:08Z</time>
      </trkpt>
      <trkpt lat="45.84714" lon="4.3733">
        <ele>926</ele>
        <time>2022-06-26T11:31:09Z</time>
      </trkpt>
      <trkpt lat="45.8471" lon="4.37332">
        <ele>926</ele>
        <time>2022-06-26T11:31:10Z</time>
      </trkpt>
      <trkpt lat="45.84707" lon="4.37334">
        <ele>926.2</ele>
        <time>2022-06-26T11:31:11Z</time>
      </trkpt>
      <trkpt lat="45.84704" lon="4.37336">
        <ele>926.2</ele>
        <time>2022-06-26T11:31:12Z</time>
      </trkpt>
      <trkpt lat="45.84701" lon="4.37338">
        <ele>926.4</ele>
        <time>2022-06-26T11:31:13Z</time>
      </trkpt>
      <trkpt lat="45.84698" lon="4.3734">
        <ele>926.4</ele>
        <time>2022-06-26T11:31:14Z</time>
      </trkpt>
      <trkpt lat="45.84695" lon="4.37342">
        <ele>926.4</ele>
        <time>2022-06-26T11:31:15Z</time>
      </trkpt>
      <trkpt lat="45.84691" lon="4.37345">
        <ele>926.4</ele>
        <time>2022-06-26T11:31:16Z</time>
      </trkpt>
      <trkpt lat="45.84688" lon="4.37347">
        <ele>926.4</ele>
        <time>2022-06-26T11:31:17Z</time>
      </trkpt>
      <trkpt lat="45.84685" lon="4.3735">
        <ele>926.6</ele>
        <time>2022-06-26T11:31:18Z</time>
      </trkpt>
      <trkpt lat="45.84682" lon="4.37353">
        <ele>926.6</ele>
        <time>2022-06-26T11:31:19Z</time>
      </trkpt>
      <trkpt lat="45.84679" lon="4.37355">
        <ele>926.6</ele>
        <time>2022-06-26T11:31:20Z</time>
      </trkpt>
      <trkpt lat="45.84675" lon="4.37358">
        <ele>926.6</ele>
        <time>2022-06-26T11:31:21Z</time>
      </trkpt>
      <trkpt lat="45.84672" lon="4.37361">
        <ele>926.6</ele>
        <time>2022-06-26T11:31:22Z</time>
      </trkpt>
      <trkpt lat="45.84664" lon="4.37367">
        <ele>926.6</ele>
        <time>2022-06-26T11:31:23Z</time>
      </trkpt>
      <trkpt lat="45.8466" lon="4.37369">
        <ele>926.6</ele>
        <time>2022-06-26T11:31:24Z</time>
      </trkpt>
      <trkpt lat="45.84657" lon="4.37372">
        <ele>926.6</ele>
        <time>2022-06-26T11:31:25Z</time>
      </trkpt>
      <trkpt lat="45.84654" lon="4.37375">
        <ele>926.6</ele>
        <time>2022-06-26T11:31:26Z</time>
      </trkpt>
      <trkpt lat="45.84651" lon="4.37378">
        <ele>926.6</ele>
        <time>2022-06-26T11:31:27Z</time>
      </trkpt>
      <trkpt lat="45.84648" lon="4.3738">
        <ele>926.6</ele>
        <time>2022-06-26T11:31:28Z</time>
      </trkpt>
      <trkpt lat="45.84645" lon="4.37382">
        <ele>926.6</ele>
        <time>2022-06-26T11:31:29Z</time>
      </trkpt>
      <trkpt lat="45.84643" lon="4.37385">
        <ele>926.6</ele>
        <time>2022-06-26T11:31:30Z</time>
      </trkpt>
      <trkpt lat="45.8464" lon="4.37387">
        <ele>926.6</ele>
        <time>2022-06-26T11:31:31Z</time>
      </trkpt>
      <trkpt lat="45.84638" lon="4.3739">
        <ele>926.6</ele>
        <time>2022-06-26T11:31:32Z</time>
      </trkpt>
      <trkpt lat="45.84636" lon="4.37391">
        <ele>927</ele>
        <time>2022-06-26T11:31:33Z</time>
      </trkpt>
      <trkpt lat="45.84635" lon="4.37393">
        <ele>927</ele>
        <time>2022-06-26T11:31:34Z</time>
      </trkpt>
      <trkpt lat="45.84634" lon="4.37394">
        <ele>927</ele>
        <time>2022-06-26T11:31:35Z</time>
      </trkpt>
      <trkpt lat="45.84634" lon="4.37395">
        <ele>927</ele>
        <time>2022-06-26T11:31:36Z</time>
      </trkpt>
      <trkpt lat="45.84631" lon="4.37399">
        <ele>926.6</ele>
        <time>2022-06-26T11:32:26Z</time>
      </trkpt>
      <trkpt lat="45.8463" lon="4.37401">
        <ele>926.6</ele>
        <time>2022-06-26T11:32:27Z</time>
      </trkpt>
      <trkpt lat="45.84628" lon="4.37403">
        <ele>926.6</ele>
        <time>2022-06-26T11:32:28Z</time>
      </trkpt>
      <trkpt lat="45.84626" lon="4.37406">
        <ele>926.6</ele>
        <time>2022-06-26T11:32:29Z</time>
      </trkpt>
      <trkpt lat="45.84624" lon="4.37409">
        <ele>926.6</ele>
        <time>2022-06-26T11:32:30Z</time>
      </trkpt>
      <trkpt lat="45.84623" lon="4.37411">
        <ele>926.6</ele>
        <time>2022-06-26T11:32:31Z</time>
      </trkpt>
      <trkpt lat="45.8462" lon="4.37414">
        <ele>926.6</ele>
        <time>2022-06-26T11:32:32Z</time>
      </trkpt>
      <trkpt lat="45.84618" lon="4.37417">
        <ele>926.6</ele>
        <time>2022-06-26T11:32:33Z</time>
      </trkpt>
      <trkpt lat="45.84616" lon="4.3742">
        <ele>926.6</ele>
        <time>2022-06-26T11:32:34Z</time>
      </trkpt>
      <trkpt lat="45.84613" lon="4.37423">
        <ele>927</ele>
        <time>2022-06-26T11:32:35Z</time>
      </trkpt>
      <trkpt lat="45.84611" lon="4.37427">
        <ele>927</ele>
        <time>2022-06-26T11:32:36Z</time>
      </trkpt>
      <trkpt lat="45.84608" lon="4.3743">
        <ele>927</ele>
        <time>2022-06-26T11:32:37Z</time>
      </trkpt>
      <trkpt lat="45.84606" lon="4.37434">
        <ele>927</ele>
        <time>2022-06-26T11:32:38Z</time>
      </trkpt>
      <trkpt lat="45.84603" lon="4.37437">
        <ele>927</ele>
        <time>2022-06-26T11:32:39Z</time>
      </trkpt>
      <trkpt lat="45.84601" lon="4.37441">
        <ele>927</ele>
        <time>2022-06-26T11:32:40Z</time>
      </trkpt>
      <trkpt lat="45.84599" lon="4.37444">
        <ele>927</ele>
        <time>2022-06-26T11:32:41Z</time>
      </trkpt>
      <trkpt lat="45.84597" lon="4.37448">
        <ele>927.2</ele>
        <time>2022-06-26T11:32:42Z</time>
      </trkpt>
      <trkpt lat="45.84594" lon="4.37451">
        <ele>927.2</ele>
        <time>2022-06-26T11:32:43Z</time>
      </trkpt>
      <trkpt lat="45.84592" lon="4.37454">
        <ele>927.2</ele>
        <time>2022-06-26T11:32:44Z</time>
      </trkpt>
      <trkpt lat="45.8459" lon="4.37458">
        <ele>927.4</ele>
        <time>2022-06-26T11:32:45Z</time>
      </trkpt>
      <trkpt lat="45.84587" lon="4.37461">
        <ele>927.4</ele>
        <time>2022-06-26T11:32:46Z</time>
      </trkpt>
      <trkpt lat="45.84586" lon="4.37465">
        <ele>927.4</ele>
        <time>2022-06-26T11:32:47Z</time>
      </trkpt>
      <trkpt lat="45.84584" lon="4.37468">
        <ele>927.4</ele>
        <time>2022-06-26T11:32:48Z</time>
      </trkpt>
      <trkpt lat="45.84581" lon="4.37471">
        <ele>927.6</ele>
        <time>2022-06-26T11:32:49Z</time>
      </trkpt>
      <trkpt lat="45.8458" lon="4.37475">
        <ele>927.6</ele>
        <time>2022-06-26T11:32:50Z</time>
      </trkpt>
      <trkpt lat="45.84578" lon="4.37477">
        <ele>927.6</ele>
        <time>2022-06-26T11:32:51Z</time>
      </trkpt>
      <trkpt lat="45.84576" lon="4.3748">
        <ele>927.8</ele>
        <time>2022-06-26T11:32:52Z</time>
      </trkpt>
      <trkpt lat="45.84574" lon="4.37483">
        <ele>927.8</ele>
        <time>2022-06-26T11:32:53Z</time>
      </trkpt>
      <trkpt lat="45.84572" lon="4.37486">
        <ele>928</ele>
        <time>2022-06-26T11:32:54Z</time>
      </trkpt>
      <trkpt lat="45.8457" lon="4.37488">
        <ele>928</ele>
        <time>2022-06-26T11:32:55Z</time>
      </trkpt>
      <trkpt lat="45.84568" lon="4.37491">
        <ele>928.2</ele>
        <time>2022-06-26T11:32:56Z</time>
      </trkpt>
      <trkpt lat="45.84566" lon="4.37495">
        <ele>928.2</ele>
        <time>2022-06-26T11:32:57Z</time>
      </trkpt>
      <trkpt lat="45.84564" lon="4.37498">
        <ele>928.2</ele>
        <time>2022-06-26T11:32:58Z</time>
      </trkpt>
      <trkpt lat="45.84562" lon="4.37502">
        <ele>928.6</ele>
        <time>2022-06-26T11:32:59Z</time>
      </trkpt>
      <trkpt lat="45.8456" lon="4.37505">
        <ele>928.6</ele>
        <time>2022-06-26T11:33:00Z</time>
      </trkpt>
      <trkpt lat="45.84558" lon="4.37508">
        <ele>928.6</ele>
        <time>2022-06-26T11:33:01Z</time>
      </trkpt>
      <trkpt lat="45.84556" lon="4.37511">
        <ele>928.8</ele>
        <time>2022-06-26T11:33:02Z</time>
      </trkpt>
      <trkpt lat="45.84555" lon="4.37514">
        <ele>929</ele>
        <time>2022-06-26T11:33:03Z</time>
      </trkpt>
      <trkpt lat="45.84553" lon="4.37518">
        <ele>929.2</ele>
        <time>2022-06-26T11:33:04Z</time>
      </trkpt>
      <trkpt lat="45.84552" lon="4.37521">
        <ele>929.2</ele>
        <time>2022-06-26T11:33:05Z</time>
      </trkpt>
      <trkpt lat="45.8455" lon="4.37524">
        <ele>929.6</ele>
        <time>2022-06-26T11:33:06Z</time>
      </trkpt>
      <trkpt lat="45.84549" lon="4.37528">
        <ele>929.8</ele>
        <time>2022-06-26T11:33:07Z</time>
      </trkpt>
      <trkpt lat="45.84547" lon="4.37531">
        <ele>929.8</ele>
        <time>2022-06-26T11:33:08Z</time>
      </trkpt>
      <trkpt lat="45.84546" lon="4.37534">
        <ele>930</ele>
        <time>2022-06-26T11:33:09Z</time>
      </trkpt>
      <trkpt lat="45.84544" lon="4.37538">
        <ele>930</ele>
        <time>2022-06-26T11:33:11Z</time>
      </trkpt>
      <trkpt lat="45.84542" lon="4.37542">
        <ele>930</ele>
        <time>2022-06-26T11:33:12Z</time>
      </trkpt>
      <trkpt lat="45.8454" lon="4.37546">
        <ele>930.2</ele>
        <time>2022-06-26T11:33:13Z</time>
      </trkpt>
      <trkpt lat="45.84538" lon="4.3755">
        <ele>930.2</ele>
        <time>2022-06-26T11:33:14Z</time>
      </trkpt>
      <trkpt lat="45.84536" lon="4.37554">
        <ele>930.2</ele>
        <time>2022-06-26T11:33:15Z</time>
      </trkpt>
      <trkpt lat="45.84534" lon="4.37558">
        <ele>930.4</ele>
        <time>2022-06-26T11:33:16Z</time>
      </trkpt>
      <trkpt lat="45.84532" lon="4.37562">
        <ele>930.4</ele>
        <time>2022-06-26T11:33:17Z</time>
      </trkpt>
      <trkpt lat="45.8453" lon="4.37565">
        <ele>930.4</ele>
        <time>2022-06-26T11:33:18Z</time>
      </trkpt>
      <trkpt lat="45.84529" lon="4.37569">
        <ele>930.4</ele>
        <time>2022-06-26T11:33:19Z</time>
      </trkpt>
      <trkpt lat="45.84527" lon="4.37573">
        <ele>930.4</ele>
        <time>2022-06-26T11:33:20Z</time>
      </trkpt>
      <trkpt lat="45.84524" lon="4.37577">
        <ele>930.4</ele>
        <time>2022-06-26T11:33:21Z</time>
      </trkpt>
      <trkpt lat="45.84522" lon="4.37582">
        <ele>930.4</ele>
        <time>2022-06-26T11:33:22Z</time>
      </trkpt>
      <trkpt lat="45.84518" lon="4.37587">
        <ele>930</ele>
        <time>2022-06-26T11:33:23Z</time>
      </trkpt>
      <trkpt lat="45.84515" lon="4.37594">
        <ele>930</ele>
        <time>2022-06-26T11:33:24Z</time>
      </trkpt>
      <trkpt lat="45.84511" lon="4.37599">
        <ele>929.8</ele>
        <time>2022-06-26T11:33:25Z</time>
      </trkpt>
      <trkpt lat="45.84507" lon="4.37606">
        <ele>929.8</ele>
        <time>2022-06-26T11:33:26Z</time>
      </trkpt>
      <trkpt lat="45.84504" lon="4.37613">
        <ele>929.4</ele>
        <time>2022-06-26T11:33:27Z</time>
      </trkpt>
      <trkpt lat="45.84499" lon="4.37622">
        <ele>929.4</ele>
        <time>2022-06-26T11:33:28Z</time>
      </trkpt>
      <trkpt lat="45.84494" lon="4.37632">
        <ele>929.2</ele>
        <time>2022-06-26T11:33:29Z</time>
      </trkpt>
      <trkpt lat="45.84489" lon="4.37641">
        <ele>929.2</ele>
        <time>2022-06-26T11:33:30Z</time>
      </trkpt>
      <trkpt lat="45.84484" lon="4.3765">
        <ele>928.6</ele>
        <time>2022-06-26T11:33:31Z</time>
      </trkpt>
      <trkpt lat="45.84479" lon="4.3766">
        <ele>928.4</ele>
        <time>2022-06-26T11:33:32Z</time>
      </trkpt>
      <trkpt lat="45.84474" lon="4.37668">
        <ele>928.2</ele>
        <time>2022-06-26T11:33:33Z</time>
      </trkpt>
      <trkpt lat="45.84469" lon="4.37677">
        <ele>928.2</ele>
        <time>2022-06-26T11:33:34Z</time>
      </trkpt>
      <trkpt lat="45.84465" lon="4.37686">
        <ele>928</ele>
        <time>2022-06-26T11:33:35Z</time>
      </trkpt>
      <trkpt lat="45.8446" lon="4.37694">
        <ele>927.6</ele>
        <time>2022-06-26T11:33:36Z</time>
      </trkpt>
      <trkpt lat="45.84456" lon="4.37702">
        <ele>927.6</ele>
        <time>2022-06-26T11:33:37Z</time>
      </trkpt>
      <trkpt lat="45.84451" lon="4.3771">
        <ele>927.4</ele>
        <time>2022-06-26T11:33:38Z</time>
      </trkpt>
      <trkpt lat="45.84446" lon="4.37718">
        <ele>927.4</ele>
        <time>2022-06-26T11:33:39Z</time>
      </trkpt>
      <trkpt lat="45.84442" lon="4.37726">
        <ele>927.2</ele>
        <time>2022-06-26T11:33:40Z</time>
      </trkpt>
      <trkpt lat="45.84437" lon="4.37734">
        <ele>927.2</ele>
        <time>2022-06-26T11:33:41Z</time>
      </trkpt>
      <trkpt lat="45.84433" lon="4.37741">
        <ele>927.2</ele>
        <time>2022-06-26T11:33:42Z</time>
      </trkpt>
      <trkpt lat="45.84428" lon="4.37749">
        <ele>927.2</ele>
        <time>2022-06-26T11:33:43Z</time>
      </trkpt>
      <trkpt lat="45.84424" lon="4.37756">
        <ele>927.2</ele>
        <time>2022-06-26T11:33:44Z</time>
      </trkpt>
      <trkpt lat="45.84419" lon="4.37762">
        <ele>927.2</ele>
        <time>2022-06-26T11:33:45Z</time>
      </trkpt>
      <trkpt lat="45.84415" lon="4.37769">
        <ele>927.2</ele>
        <time>2022-06-26T11:33:46Z</time>
      </trkpt>
      <trkpt lat="45.8441" lon="4.37776">
        <ele>927.2</ele>
        <time>2022-06-26T11:33:47Z</time>
      </trkpt>
      <trkpt lat="45.84406" lon="4.37783">
        <ele>927.2</ele>
        <time>2022-06-26T11:33:48Z</time>
      </trkpt>
      <trkpt lat="45.84402" lon="4.37789">
        <ele>927.2</ele>
        <time>2022-06-26T11:33:49Z</time>
      </trkpt>
      <trkpt lat="45.84399" lon="4.37795">
        <ele>927.4</ele>
        <time>2022-06-26T11:33:50Z</time>
      </trkpt>
      <trkpt lat="45.84395" lon="4.378">
        <ele>927.4</ele>
        <time>2022-06-26T11:33:51Z</time>
      </trkpt>
      <trkpt lat="45.84392" lon="4.37805">
        <ele>927.8</ele>
        <time>2022-06-26T11:33:52Z</time>
      </trkpt>
      <trkpt lat="45.84389" lon="4.3781">
        <ele>927.8</ele>
        <time>2022-06-26T11:33:53Z</time>
      </trkpt>
      <trkpt lat="45.84386" lon="4.37815">
        <ele>928</ele>
        <time>2022-06-26T11:33:54Z</time>
      </trkpt>
      <trkpt lat="45.84383" lon="4.37819">
        <ele>928</ele>
        <time>2022-06-26T11:33:55Z</time>
      </trkpt>
      <trkpt lat="45.8438" lon="4.37824">
        <ele>928.4</ele>
        <time>2022-06-26T11:33:56Z</time>
      </trkpt>
      <trkpt lat="45.84377" lon="4.37828">
        <ele>928.4</ele>
        <time>2022-06-26T11:33:57Z</time>
      </trkpt>
      <trkpt lat="45.84375" lon="4.37832">
        <ele>928.4</ele>
        <time>2022-06-26T11:33:58Z</time>
      </trkpt>
      <trkpt lat="45.84372" lon="4.37835">
        <ele>928.4</ele>
        <time>2022-06-26T11:33:59Z</time>
      </trkpt>
      <trkpt lat="45.84369" lon="4.37838">
        <ele>928.4</ele>
        <time>2022-06-26T11:34:00Z</time>
      </trkpt>
      <trkpt lat="45.84366" lon="4.37841">
        <ele>928.4</ele>
        <time>2022-06-26T11:34:01Z</time>
      </trkpt>
      <trkpt lat="45.84363" lon="4.37844">
        <ele>928.4</ele>
        <time>2022-06-26T11:34:02Z</time>
      </trkpt>
      <trkpt lat="45.84361" lon="4.37848">
        <ele>928.4</ele>
        <time>2022-06-26T11:34:03Z</time>
      </trkpt>
      <trkpt lat="45.84358" lon="4.37853">
        <ele>928.4</ele>
        <time>2022-06-26T11:34:04Z</time>
      </trkpt>
      <trkpt lat="45.84354" lon="4.37857">
        <ele>928.4</ele>
        <time>2022-06-26T11:34:05Z</time>
      </trkpt>
      <trkpt lat="45.84351" lon="4.37862">
        <ele>928.4</ele>
        <time>2022-06-26T11:34:06Z</time>
      </trkpt>
      <trkpt lat="45.84347" lon="4.37867">
        <ele>928</ele>
        <time>2022-06-26T11:34:07Z</time>
      </trkpt>
      <trkpt lat="45.84345" lon="4.37872">
        <ele>928</ele>
        <time>2022-06-26T11:34:08Z</time>
      </trkpt>
      <trkpt lat="45.84341" lon="4.37878">
        <ele>927.8</ele>
        <time>2022-06-26T11:34:09Z</time>
      </trkpt>
      <trkpt lat="45.84338" lon="4.37883">
        <ele>927.8</ele>
        <time>2022-06-26T11:34:10Z</time>
      </trkpt>
      <trkpt lat="45.84334" lon="4.37889">
        <ele>927.8</ele>
        <time>2022-06-26T11:34:11Z</time>
      </trkpt>
      <trkpt lat="45.84328" lon="4.37898">
        <ele>927.4</ele>
        <time>2022-06-26T11:34:12Z</time>
      </trkpt>
      <trkpt lat="45.84325" lon="4.37901">
        <ele>927.2</ele>
        <time>2022-06-26T11:34:13Z</time>
      </trkpt>
      <trkpt lat="45.84321" lon="4.37908">
        <ele>926.8</ele>
        <time>2022-06-26T11:34:14Z</time>
      </trkpt>
      <trkpt lat="45.84317" lon="4.37916">
        <ele>926.4</ele>
        <time>2022-06-26T11:34:15Z</time>
      </trkpt>
      <trkpt lat="45.84312" lon="4.37924">
        <ele>926</ele>
        <time>2022-06-26T11:34:16Z</time>
      </trkpt>
      <trkpt lat="45.84306" lon="4.37932">
        <ele>925.6</ele>
        <time>2022-06-26T11:34:17Z</time>
      </trkpt>
      <trkpt lat="45.843" lon="4.37941">
        <ele>925</ele>
        <time>2022-06-26T11:34:18Z</time>
      </trkpt>
      <trkpt lat="45.84294" lon="4.37951">
        <ele>924.4</ele>
        <time>2022-06-26T11:34:19Z</time>
      </trkpt>
      <trkpt lat="45.84286" lon="4.37964">
        <ele>923.8</ele>
        <time>2022-06-26T11:34:20Z</time>
      </trkpt>
      <trkpt lat="45.84277" lon="4.37978">
        <ele>923.2</ele>
        <time>2022-06-26T11:34:21Z</time>
      </trkpt>
      <trkpt lat="45.84268" lon="4.37992">
        <ele>922.4</ele>
        <time>2022-06-26T11:34:22Z</time>
      </trkpt>
      <trkpt lat="45.8426" lon="4.38005">
        <ele>921.8</ele>
        <time>2022-06-26T11:34:23Z</time>
      </trkpt>
      <trkpt lat="45.84252" lon="4.38017">
        <ele>921.2</ele>
        <time>2022-06-26T11:34:24Z</time>
      </trkpt>
      <trkpt lat="45.84244" lon="4.38028">
        <ele>920.2</ele>
        <time>2022-06-26T11:34:25Z</time>
      </trkpt>
      <trkpt lat="45.84237" lon="4.3804">
        <ele>919.2</ele>
        <time>2022-06-26T11:34:26Z</time>
      </trkpt>
      <trkpt lat="45.8423" lon="4.38051">
        <ele>918.2</ele>
        <time>2022-06-26T11:34:27Z</time>
      </trkpt>
      <trkpt lat="45.84222" lon="4.38062">
        <ele>916.2</ele>
        <time>2022-06-26T11:34:29Z</time>
      </trkpt>
      <trkpt lat="45.84215" lon="4.38074">
        <ele>915.4</ele>
        <time>2022-06-26T11:34:30Z</time>
      </trkpt>
      <trkpt lat="45.84208" lon="4.38085">
        <ele>914.6</ele>
        <time>2022-06-26T11:34:31Z</time>
      </trkpt>
      <trkpt lat="45.84202" lon="4.38097">
        <ele>914.2</ele>
        <time>2022-06-26T11:34:32Z</time>
      </trkpt>
      <trkpt lat="45.84197" lon="4.38109">
        <ele>913.4</ele>
        <time>2022-06-26T11:34:33Z</time>
      </trkpt>
      <trkpt lat="45.84192" lon="4.38123">
        <ele>912.4</ele>
        <time>2022-06-26T11:34:34Z</time>
      </trkpt>
      <trkpt lat="45.84188" lon="4.38137">
        <ele>911.6</ele>
        <time>2022-06-26T11:34:35Z</time>
      </trkpt>
      <trkpt lat="45.84183" lon="4.3815">
        <ele>910.8</ele>
        <time>2022-06-26T11:34:36Z</time>
      </trkpt>
      <trkpt lat="45.84178" lon="4.38163">
        <ele>910</ele>
        <time>2022-06-26T11:34:37Z</time>
      </trkpt>
      <trkpt lat="45.84174" lon="4.38177">
        <ele>909.2</ele>
        <time>2022-06-26T11:34:38Z</time>
      </trkpt>
      <trkpt lat="45.84169" lon="4.38189">
        <ele>908.2</ele>
        <time>2022-06-26T11:34:39Z</time>
      </trkpt>
      <trkpt lat="45.84163" lon="4.38201">
        <ele>907.4</ele>
        <time>2022-06-26T11:34:40Z</time>
      </trkpt>
      <trkpt lat="45.84157" lon="4.38213">
        <ele>906.6</ele>
        <time>2022-06-26T11:34:41Z</time>
      </trkpt>
      <trkpt lat="45.84151" lon="4.38226">
        <ele>905.8</ele>
        <time>2022-06-26T11:34:42Z</time>
      </trkpt>
      <trkpt lat="45.84144" lon="4.38239">
        <ele>904.8</ele>
        <time>2022-06-26T11:34:43Z</time>
      </trkpt>
      <trkpt lat="45.84139" lon="4.38252">
        <ele>904</ele>
        <time>2022-06-26T11:34:44Z</time>
      </trkpt>
      <trkpt lat="45.84133" lon="4.38265">
        <ele>903</ele>
        <time>2022-06-26T11:34:45Z</time>
      </trkpt>
      <trkpt lat="45.84127" lon="4.38276">
        <ele>902</ele>
        <time>2022-06-26T11:34:46Z</time>
      </trkpt>
      <trkpt lat="45.8412" lon="4.38287">
        <ele>901.2</ele>
        <time>2022-06-26T11:34:47Z</time>
      </trkpt>
      <trkpt lat="45.84113" lon="4.38298">
        <ele>900.2</ele>
        <time>2022-06-26T11:34:48Z</time>
      </trkpt>
      <trkpt lat="45.84107" lon="4.38311">
        <ele>899.4</ele>
        <time>2022-06-26T11:34:49Z</time>
      </trkpt>
      <trkpt lat="45.84102" lon="4.3832">
        <ele>898.6</ele>
        <time>2022-06-26T11:34:50Z</time>
      </trkpt>
      <trkpt lat="45.84097" lon="4.38329">
        <ele>897.8</ele>
        <time>2022-06-26T11:34:51Z</time>
      </trkpt>
      <trkpt lat="45.84089" lon="4.38337">
        <ele>896.8</ele>
        <time>2022-06-26T11:34:52Z</time>
      </trkpt>
      <trkpt lat="45.8408" lon="4.38345">
        <ele>895.8</ele>
        <time>2022-06-26T11:34:53Z</time>
      </trkpt>
      <trkpt lat="45.84072" lon="4.38352">
        <ele>894.8</ele>
        <time>2022-06-26T11:34:54Z</time>
      </trkpt>
      <trkpt lat="45.84064" lon="4.38359">
        <ele>893.6</ele>
        <time>2022-06-26T11:34:55Z</time>
      </trkpt>
      <trkpt lat="45.84056" lon="4.38366">
        <ele>892.6</ele>
        <time>2022-06-26T11:34:56Z</time>
      </trkpt>
      <trkpt lat="45.84049" lon="4.38372">
        <ele>891.8</ele>
        <time>2022-06-26T11:34:57Z</time>
      </trkpt>
      <trkpt lat="45.84042" lon="4.3838">
        <ele>890.6</ele>
        <time>2022-06-26T11:34:58Z</time>
      </trkpt>
      <trkpt lat="45.84036" lon="4.38388">
        <ele>889.6</ele>
        <time>2022-06-26T11:34:59Z</time>
      </trkpt>
      <trkpt lat="45.84032" lon="4.38396">
        <ele>888.6</ele>
        <time>2022-06-26T11:35:00Z</time>
      </trkpt>
      <trkpt lat="45.84029" lon="4.38407">
        <ele>887.6</ele>
        <time>2022-06-26T11:35:01Z</time>
      </trkpt>
      <trkpt lat="45.84026" lon="4.38419">
        <ele>886.6</ele>
        <time>2022-06-26T11:35:02Z</time>
      </trkpt>
      <trkpt lat="45.84024" lon="4.38431">
        <ele>885.6</ele>
        <time>2022-06-26T11:35:03Z</time>
      </trkpt>
      <trkpt lat="45.84022" lon="4.38442">
        <ele>884.4</ele>
        <time>2022-06-26T11:35:04Z</time>
      </trkpt>
      <trkpt lat="45.84017" lon="4.3845">
        <ele>883.4</ele>
        <time>2022-06-26T11:35:05Z</time>
      </trkpt>
      <trkpt lat="45.8401" lon="4.38457">
        <ele>882.2</ele>
        <time>2022-06-26T11:35:06Z</time>
      </trkpt>
      <trkpt lat="45.84002" lon="4.38462">
        <ele>881.2</ele>
        <time>2022-06-26T11:35:07Z</time>
      </trkpt>
      <trkpt lat="45.83994" lon="4.38467">
        <ele>880</ele>
        <time>2022-06-26T11:35:08Z</time>
      </trkpt>
      <trkpt lat="45.83985" lon="4.38471">
        <ele>878.6</ele>
        <time>2022-06-26T11:35:09Z</time>
      </trkpt>
      <trkpt lat="45.83975" lon="4.38474">
        <ele>877.6</ele>
        <time>2022-06-26T11:35:10Z</time>
      </trkpt>
      <trkpt lat="45.83965" lon="4.38477">
        <ele>876.4</ele>
        <time>2022-06-26T11:35:11Z</time>
      </trkpt>
      <trkpt lat="45.83956" lon="4.38481">
        <ele>875.4</ele>
        <time>2022-06-26T11:35:12Z</time>
      </trkpt>
      <trkpt lat="45.83948" lon="4.38487">
        <ele>874.2</ele>
        <time>2022-06-26T11:35:13Z</time>
      </trkpt>
      <trkpt lat="45.8394" lon="4.38493">
        <ele>872.8</ele>
        <time>2022-06-26T11:35:14Z</time>
      </trkpt>
      <trkpt lat="45.83931" lon="4.38502">
        <ele>872</ele>
        <time>2022-06-26T11:35:15Z</time>
      </trkpt>
      <trkpt lat="45.83924" lon="4.3851">
        <ele>871</ele>
        <time>2022-06-26T11:35:16Z</time>
      </trkpt>
      <trkpt lat="45.83916" lon="4.38521">
        <ele>869.8</ele>
        <time>2022-06-26T11:35:17Z</time>
      </trkpt>
      <trkpt lat="45.83907" lon="4.38532">
        <ele>868.6</ele>
        <time>2022-06-26T11:35:18Z</time>
      </trkpt>
      <trkpt lat="45.839" lon="4.38543">
        <ele>867.4</ele>
        <time>2022-06-26T11:35:19Z</time>
      </trkpt>
      <trkpt lat="45.83892" lon="4.38556">
        <ele>866.6</ele>
        <time>2022-06-26T11:35:20Z</time>
      </trkpt>
      <trkpt lat="45.83884" lon="4.38567">
        <ele>865.8</ele>
        <time>2022-06-26T11:35:21Z</time>
      </trkpt>
      <trkpt lat="45.83877" lon="4.38579">
        <ele>865.2</ele>
        <time>2022-06-26T11:35:22Z</time>
      </trkpt>
      <trkpt lat="45.83869" lon="4.38591">
        <ele>865</ele>
        <time>2022-06-26T11:35:23Z</time>
      </trkpt>
      <trkpt lat="45.83862" lon="4.38602">
        <ele>864.6</ele>
        <time>2022-06-26T11:35:24Z</time>
      </trkpt>
      <trkpt lat="45.83855" lon="4.38614">
        <ele>864.4</ele>
        <time>2022-06-26T11:35:25Z</time>
      </trkpt>
      <trkpt lat="45.83848" lon="4.38625">
        <ele>864</ele>
        <time>2022-06-26T11:35:26Z</time>
      </trkpt>
      <trkpt lat="45.83841" lon="4.38636">
        <ele>863.6</ele>
        <time>2022-06-26T11:35:27Z</time>
      </trkpt>
      <trkpt lat="45.83834" lon="4.38649">
        <ele>863.4</ele>
        <time>2022-06-26T11:35:28Z</time>
      </trkpt>
      <trkpt lat="45.83828" lon="4.38661">
        <ele>863</ele>
        <time>2022-06-26T11:35:29Z</time>
      </trkpt>
      <trkpt lat="45.83821" lon="4.38673">
        <ele>862.4</ele>
        <time>2022-06-26T11:35:30Z</time>
      </trkpt>
      <trkpt lat="45.83815" lon="4.38688">
        <ele>862.2</ele>
        <time>2022-06-26T11:35:31Z</time>
      </trkpt>
      <trkpt lat="45.83808" lon="4.38699">
        <ele>861.8</ele>
        <time>2022-06-26T11:35:32Z</time>
      </trkpt>
      <trkpt lat="45.83802" lon="4.3871">
        <ele>861.6</ele>
        <time>2022-06-26T11:35:33Z</time>
      </trkpt>
      <trkpt lat="45.83795" lon="4.38719">
        <ele>861.2</ele>
        <time>2022-06-26T11:35:34Z</time>
      </trkpt>
      <trkpt lat="45.83788" lon="4.38728">
        <ele>861</ele>
        <time>2022-06-26T11:35:35Z</time>
      </trkpt>
      <trkpt lat="45.83781" lon="4.38736">
        <ele>861</ele>
        <time>2022-06-26T11:35:36Z</time>
      </trkpt>
      <trkpt lat="45.83774" lon="4.38743">
        <ele>860.6</ele>
        <time>2022-06-26T11:35:37Z</time>
      </trkpt>
      <trkpt lat="45.83767" lon="4.38749">
        <ele>860.6</ele>
        <time>2022-06-26T11:35:38Z</time>
      </trkpt>
      <trkpt lat="45.8376" lon="4.38754">
        <ele>860.6</ele>
        <time>2022-06-26T11:35:39Z</time>
      </trkpt>
      <trkpt lat="45.83754" lon="4.3876">
        <ele>860.2</ele>
        <time>2022-06-26T11:35:40Z</time>
      </trkpt>
      <trkpt lat="45.83748" lon="4.38767">
        <ele>860</ele>
        <time>2022-06-26T11:35:41Z</time>
      </trkpt>
      <trkpt lat="45.83742" lon="4.38774">
        <ele>859.6</ele>
        <time>2022-06-26T11:35:42Z</time>
      </trkpt>
      <trkpt lat="45.83737" lon="4.38781">
        <ele>859.4</ele>
        <time>2022-06-26T11:35:43Z</time>
      </trkpt>
      <trkpt lat="45.83731" lon="4.38789">
        <ele>859.2</ele>
        <time>2022-06-26T11:35:44Z</time>
      </trkpt>
      <trkpt lat="45.83726" lon="4.38797">
        <ele>858.8</ele>
        <time>2022-06-26T11:35:45Z</time>
      </trkpt>
      <trkpt lat="45.8372" lon="4.38807">
        <ele>858.4</ele>
        <time>2022-06-26T11:35:46Z</time>
      </trkpt>
      <trkpt lat="45.83716" lon="4.38816">
        <ele>858</ele>
        <time>2022-06-26T11:35:47Z</time>
      </trkpt>
      <trkpt lat="45.83713" lon="4.38827">
        <ele>858</ele>
        <time>2022-06-26T11:35:48Z</time>
      </trkpt>
      <trkpt lat="45.83711" lon="4.38838">
        <ele>857.6</ele>
        <time>2022-06-26T11:35:49Z</time>
      </trkpt>
      <trkpt lat="45.8371" lon="4.38848">
        <ele>857.6</ele>
        <time>2022-06-26T11:35:50Z</time>
      </trkpt>
      <trkpt lat="45.83709" lon="4.38859">
        <ele>857.4</ele>
        <time>2022-06-26T11:35:51Z</time>
      </trkpt>
      <trkpt lat="45.83709" lon="4.38868">
        <ele>857.4</ele>
        <time>2022-06-26T11:35:52Z</time>
      </trkpt>
      <trkpt lat="45.83709" lon="4.38878">
        <ele>857</ele>
        <time>2022-06-26T11:35:53Z</time>
      </trkpt>
      <trkpt lat="45.83708" lon="4.38888">
        <ele>857</ele>
        <time>2022-06-26T11:35:54Z</time>
      </trkpt>
      <trkpt lat="45.83708" lon="4.38898">
        <ele>856.6</ele>
        <time>2022-06-26T11:35:55Z</time>
      </trkpt>
      <trkpt lat="45.83708" lon="4.38909">
        <ele>856.6</ele>
        <time>2022-06-26T11:35:56Z</time>
      </trkpt>
      <trkpt lat="45.83708" lon="4.3892">
        <ele>856.6</ele>
        <time>2022-06-26T11:35:57Z</time>
      </trkpt>
      <trkpt lat="45.83708" lon="4.38931">
        <ele>856.2</ele>
        <time>2022-06-26T11:35:58Z</time>
      </trkpt>
      <trkpt lat="45.83704" lon="4.38954">
        <ele>856</ele>
        <time>2022-06-26T11:35:59Z</time>
      </trkpt>
      <trkpt lat="45.83701" lon="4.38965">
        <ele>855.4</ele>
        <time>2022-06-26T11:36:00Z</time>
      </trkpt>
      <trkpt lat="45.83698" lon="4.38976">
        <ele>855</ele>
        <time>2022-06-26T11:36:01Z</time>
      </trkpt>
      <trkpt lat="45.83694" lon="4.38987">
        <ele>854.6</ele>
        <time>2022-06-26T11:36:02Z</time>
      </trkpt>
      <trkpt lat="45.83689" lon="4.38998">
        <ele>854</ele>
        <time>2022-06-26T11:36:03Z</time>
      </trkpt>
      <trkpt lat="45.83685" lon="4.39009">
        <ele>853.4</ele>
        <time>2022-06-26T11:36:04Z</time>
      </trkpt>
      <trkpt lat="45.83681" lon="4.39019">
        <ele>852.8</ele>
        <time>2022-06-26T11:36:05Z</time>
      </trkpt>
      <trkpt lat="45.83677" lon="4.3903">
        <ele>852.2</ele>
        <time>2022-06-26T11:36:06Z</time>
      </trkpt>
      <trkpt lat="45.83672" lon="4.39041">
        <ele>851.4</ele>
        <time>2022-06-26T11:36:07Z</time>
      </trkpt>
      <trkpt lat="45.83668" lon="4.39051">
        <ele>851</ele>
        <time>2022-06-26T11:36:08Z</time>
      </trkpt>
      <trkpt lat="45.83664" lon="4.39062">
        <ele>850.6</ele>
        <time>2022-06-26T11:36:09Z</time>
      </trkpt>
      <trkpt lat="45.8366" lon="4.39072">
        <ele>850</ele>
        <time>2022-06-26T11:36:10Z</time>
      </trkpt>
      <trkpt lat="45.83657" lon="4.39082">
        <ele>849.4</ele>
        <time>2022-06-26T11:36:11Z</time>
      </trkpt>
      <trkpt lat="45.83653" lon="4.39092">
        <ele>848.8</ele>
        <time>2022-06-26T11:36:12Z</time>
      </trkpt>
      <trkpt lat="45.8365" lon="4.39101">
        <ele>848.4</ele>
        <time>2022-06-26T11:36:13Z</time>
      </trkpt>
      <trkpt lat="45.83646" lon="4.39109">
        <ele>848</ele>
        <time>2022-06-26T11:36:14Z</time>
      </trkpt>
      <trkpt lat="45.83643" lon="4.39117">
        <ele>847.6</ele>
        <time>2022-06-26T11:36:15Z</time>
      </trkpt>
      <trkpt lat="45.8364" lon="4.39124">
        <ele>847.2</ele>
        <time>2022-06-26T11:36:16Z</time>
      </trkpt>
      <trkpt lat="45.83637" lon="4.39132">
        <ele>847</ele>
        <time>2022-06-26T11:36:17Z</time>
      </trkpt>
      <trkpt lat="45.83634" lon="4.39139">
        <ele>846.6</ele>
        <time>2022-06-26T11:36:18Z</time>
      </trkpt>
      <trkpt lat="45.8363" lon="4.39146">
        <ele>846.2</ele>
        <time>2022-06-26T11:36:19Z</time>
      </trkpt>
      <trkpt lat="45.83626" lon="4.39153">
        <ele>846.2</ele>
        <time>2022-06-26T11:36:20Z</time>
      </trkpt>
      <trkpt lat="45.83622" lon="4.39159">
        <ele>845.8</ele>
        <time>2022-06-26T11:36:21Z</time>
      </trkpt>
      <trkpt lat="45.83617" lon="4.39164">
        <ele>845.8</ele>
        <time>2022-06-26T11:36:22Z</time>
      </trkpt>
      <trkpt lat="45.83611" lon="4.39168">
        <ele>845.8</ele>
        <time>2022-06-26T11:36:23Z</time>
      </trkpt>
      <trkpt lat="45.83607" lon="4.39172">
        <ele>845.8</ele>
        <time>2022-06-26T11:36:24Z</time>
      </trkpt>
      <trkpt lat="45.83603" lon="4.39175">
        <ele>846</ele>
        <time>2022-06-26T11:36:25Z</time>
      </trkpt>
      <trkpt lat="45.83598" lon="4.39179">
        <ele>846</ele>
        <time>2022-06-26T11:36:26Z</time>
      </trkpt>
      <trkpt lat="45.83594" lon="4.39182">
        <ele>846.2</ele>
        <time>2022-06-26T11:36:27Z</time>
      </trkpt>
      <trkpt lat="45.8359" lon="4.39184">
        <ele>846.2</ele>
        <time>2022-06-26T11:36:28Z</time>
      </trkpt>
      <trkpt lat="45.83587" lon="4.39187">
        <ele>846.6</ele>
        <time>2022-06-26T11:36:29Z</time>
      </trkpt>
      <trkpt lat="45.83583" lon="4.39189">
        <ele>846.6</ele>
        <time>2022-06-26T11:36:30Z</time>
      </trkpt>
      <trkpt lat="45.8358" lon="4.3919">
        <ele>847</ele>
        <time>2022-06-26T11:36:31Z</time>
      </trkpt>
      <trkpt lat="45.83577" lon="4.39192">
        <ele>847.2</ele>
        <time>2022-06-26T11:36:32Z</time>
      </trkpt>
      <trkpt lat="45.83573" lon="4.39194">
        <ele>847.2</ele>
        <time>2022-06-26T11:36:33Z</time>
      </trkpt>
      <trkpt lat="45.8357" lon="4.39197">
        <ele>847.4</ele>
        <time>2022-06-26T11:36:34Z</time>
      </trkpt>
      <trkpt lat="45.83567" lon="4.39199">
        <ele>847.4</ele>
        <time>2022-06-26T11:36:35Z</time>
      </trkpt>
      <trkpt lat="45.83563" lon="4.39201">
        <ele>847.6</ele>
        <time>2022-06-26T11:36:36Z</time>
      </trkpt>
      <trkpt lat="45.8356" lon="4.39203">
        <ele>847.6</ele>
        <time>2022-06-26T11:36:37Z</time>
      </trkpt>
      <trkpt lat="45.83557" lon="4.39206">
        <ele>848</ele>
        <time>2022-06-26T11:36:38Z</time>
      </trkpt>
      <trkpt lat="45.83553" lon="4.39208">
        <ele>848</ele>
        <time>2022-06-26T11:36:39Z</time>
      </trkpt>
      <trkpt lat="45.8355" lon="4.3921">
        <ele>848.2</ele>
        <time>2022-06-26T11:36:40Z</time>
      </trkpt>
      <trkpt lat="45.83547" lon="4.39212">
        <ele>848.2</ele>
        <time>2022-06-26T11:36:41Z</time>
      </trkpt>
      <trkpt lat="45.83544" lon="4.39214">
        <ele>848.6</ele>
        <time>2022-06-26T11:36:42Z</time>
      </trkpt>
      <trkpt lat="45.8354" lon="4.39216">
        <ele>848.6</ele>
        <time>2022-06-26T11:36:43Z</time>
      </trkpt>
      <trkpt lat="45.83537" lon="4.39217">
        <ele>848.8</ele>
        <time>2022-06-26T11:36:44Z</time>
      </trkpt>
      <trkpt lat="45.83534" lon="4.39219">
        <ele>849</ele>
        <time>2022-06-26T11:36:45Z</time>
      </trkpt>
      <trkpt lat="45.83531" lon="4.39221">
        <ele>849</ele>
        <time>2022-06-26T11:36:46Z</time>
      </trkpt>
      <trkpt lat="45.83528" lon="4.39223">
        <ele>849.4</ele>
        <time>2022-06-26T11:36:47Z</time>
      </trkpt>
      <trkpt lat="45.83525" lon="4.39226">
        <ele>849.4</ele>
        <time>2022-06-26T11:36:48Z</time>
      </trkpt>
      <trkpt lat="45.83522" lon="4.39228">
        <ele>849.8</ele>
        <time>2022-06-26T11:36:49Z</time>
      </trkpt>
      <trkpt lat="45.83518" lon="4.39231">
        <ele>850.2</ele>
        <time>2022-06-26T11:36:50Z</time>
      </trkpt>
      <trkpt lat="45.83515" lon="4.39233">
        <ele>850.4</ele>
        <time>2022-06-26T11:36:51Z</time>
      </trkpt>
      <trkpt lat="45.83511" lon="4.39235">
        <ele>850.6</ele>
        <time>2022-06-26T11:36:52Z</time>
      </trkpt>
      <trkpt lat="45.83507" lon="4.39237">
        <ele>850.6</ele>
        <time>2022-06-26T11:36:53Z</time>
      </trkpt>
      <trkpt lat="45.83503" lon="4.39239">
        <ele>850.6</ele>
        <time>2022-06-26T11:36:54Z</time>
      </trkpt>
      <trkpt lat="45.835" lon="4.39241">
        <ele>851</ele>
        <time>2022-06-26T11:36:55Z</time>
      </trkpt>
      <trkpt lat="45.83496" lon="4.39242">
        <ele>851</ele>
        <time>2022-06-26T11:36:56Z</time>
      </trkpt>
      <trkpt lat="45.83492" lon="4.39244">
        <ele>851.2</ele>
        <time>2022-06-26T11:36:57Z</time>
      </trkpt>
      <trkpt lat="45.83488" lon="4.39245">
        <ele>851.2</ele>
        <time>2022-06-26T11:36:58Z</time>
      </trkpt>
      <trkpt lat="45.83484" lon="4.39245">
        <ele>851.4</ele>
        <time>2022-06-26T11:36:59Z</time>
      </trkpt>
      <trkpt lat="45.8348" lon="4.39246">
        <ele>851.4</ele>
        <time>2022-06-26T11:37:00Z</time>
      </trkpt>
      <trkpt lat="45.83477" lon="4.39246">
        <ele>851.8</ele>
        <time>2022-06-26T11:37:01Z</time>
      </trkpt>
      <trkpt lat="45.83473" lon="4.39245">
        <ele>851.8</ele>
        <time>2022-06-26T11:37:02Z</time>
      </trkpt>
      <trkpt lat="45.83469" lon="4.39245">
        <ele>852.2</ele>
        <time>2022-06-26T11:37:03Z</time>
      </trkpt>
      <trkpt lat="45.83466" lon="4.39244">
        <ele>852.2</ele>
        <time>2022-06-26T11:37:04Z</time>
      </trkpt>
      <trkpt lat="45.83463" lon="4.39243">
        <ele>852.4</ele>
        <time>2022-06-26T11:37:05Z</time>
      </trkpt>
      <trkpt lat="45.83459" lon="4.39243">
        <ele>852.4</ele>
        <time>2022-06-26T11:37:06Z</time>
      </trkpt>
      <trkpt lat="45.83456" lon="4.39242">
        <ele>852.8</ele>
        <time>2022-06-26T11:37:07Z</time>
      </trkpt>
      <trkpt lat="45.83453" lon="4.39242">
        <ele>852.8</ele>
        <time>2022-06-26T11:37:08Z</time>
      </trkpt>
      <trkpt lat="45.83449" lon="4.39241">
        <ele>853</ele>
        <time>2022-06-26T11:37:09Z</time>
      </trkpt>
      <trkpt lat="45.83446" lon="4.39241">
        <ele>853</ele>
        <time>2022-06-26T11:37:10Z</time>
      </trkpt>
      <trkpt lat="45.83442" lon="4.39241">
        <ele>853.2</ele>
        <time>2022-06-26T11:37:11Z</time>
      </trkpt>
      <trkpt lat="45.83439" lon="4.3924">
        <ele>853.2</ele>
        <time>2022-06-26T11:37:12Z</time>
      </trkpt>
      <trkpt lat="45.83436" lon="4.3924">
        <ele>853.4</ele>
        <time>2022-06-26T11:37:13Z</time>
      </trkpt>
      <trkpt lat="45.83432" lon="4.39239">
        <ele>853.4</ele>
        <time>2022-06-26T11:37:14Z</time>
      </trkpt>
      <trkpt lat="45.83429" lon="4.39239">
        <ele>853.8</ele>
        <time>2022-06-26T11:37:15Z</time>
      </trkpt>
      <trkpt lat="45.83425" lon="4.39239">
        <ele>853.8</ele>
        <time>2022-06-26T11:37:16Z</time>
      </trkpt>
      <trkpt lat="45.83422" lon="4.39238">
        <ele>854.2</ele>
        <time>2022-06-26T11:37:18Z</time>
      </trkpt>
      <trkpt lat="45.83418" lon="4.39238">
        <ele>854.2</ele>
        <time>2022-06-26T11:37:19Z</time>
      </trkpt>
      <trkpt lat="45.83415" lon="4.39238">
        <ele>854.4</ele>
        <time>2022-06-26T11:37:20Z</time>
      </trkpt>
      <trkpt lat="45.83412" lon="4.39237">
        <ele>854.4</ele>
        <time>2022-06-26T11:37:21Z</time>
      </trkpt>
      <trkpt lat="45.83408" lon="4.39237">
        <ele>854.4</ele>
        <time>2022-06-26T11:37:22Z</time>
      </trkpt>
      <trkpt lat="45.83404" lon="4.39237">
        <ele>854.6</ele>
        <time>2022-06-26T11:37:23Z</time>
      </trkpt>
      <trkpt lat="45.83401" lon="4.39238">
        <ele>854.6</ele>
        <time>2022-06-26T11:37:24Z</time>
      </trkpt>
      <trkpt lat="45.83397" lon="4.39239">
        <ele>854.8</ele>
        <time>2022-06-26T11:37:25Z</time>
      </trkpt>
      <trkpt lat="45.83394" lon="4.3924">
        <ele>855</ele>
        <time>2022-06-26T11:37:26Z</time>
      </trkpt>
      <trkpt lat="45.8339" lon="4.39241">
        <ele>855</ele>
        <time>2022-06-26T11:37:27Z</time>
      </trkpt>
      <trkpt lat="45.83387" lon="4.39243">
        <ele>855</ele>
        <time>2022-06-26T11:37:28Z</time>
      </trkpt>
      <trkpt lat="45.83384" lon="4.39244">
        <ele>855.2</ele>
        <time>2022-06-26T11:37:29Z</time>
      </trkpt>
      <trkpt lat="45.83381" lon="4.39246">
        <ele>855.2</ele>
        <time>2022-06-26T11:37:30Z</time>
      </trkpt>
      <trkpt lat="45.83377" lon="4.39248">
        <ele>855.6</ele>
        <time>2022-06-26T11:37:31Z</time>
      </trkpt>
      <trkpt lat="45.83374" lon="4.3925">
        <ele>855.6</ele>
        <time>2022-06-26T11:37:32Z</time>
      </trkpt>
      <trkpt lat="45.83371" lon="4.39253">
        <ele>855.6</ele>
        <time>2022-06-26T11:37:33Z</time>
      </trkpt>
      <trkpt lat="45.83368" lon="4.39257">
        <ele>855.8</ele>
        <time>2022-06-26T11:37:34Z</time>
      </trkpt>
      <trkpt lat="45.83365" lon="4.3926">
        <ele>855.8</ele>
        <time>2022-06-26T11:37:35Z</time>
      </trkpt>
      <trkpt lat="45.83363" lon="4.39264">
        <ele>856</ele>
        <time>2022-06-26T11:37:36Z</time>
      </trkpt>
      <trkpt lat="45.8336" lon="4.39268">
        <ele>856</ele>
        <time>2022-06-26T11:37:37Z</time>
      </trkpt>
      <trkpt lat="45.83358" lon="4.39272">
        <ele>856.2</ele>
        <time>2022-06-26T11:37:38Z</time>
      </trkpt>
      <trkpt lat="45.83355" lon="4.39277">
        <ele>856.2</ele>
        <time>2022-06-26T11:37:39Z</time>
      </trkpt>
      <trkpt lat="45.83353" lon="4.39282">
        <ele>856.6</ele>
        <time>2022-06-26T11:37:40Z</time>
      </trkpt>
      <trkpt lat="45.83351" lon="4.39286">
        <ele>856.6</ele>
        <time>2022-06-26T11:37:41Z</time>
      </trkpt>
      <trkpt lat="45.83349" lon="4.39291">
        <ele>856.8</ele>
        <time>2022-06-26T11:37:42Z</time>
      </trkpt>
      <trkpt lat="45.83347" lon="4.39296">
        <ele>856.8</ele>
        <time>2022-06-26T11:37:43Z</time>
      </trkpt>
      <trkpt lat="45.83345" lon="4.39301">
        <ele>856.8</ele>
        <time>2022-06-26T11:37:44Z</time>
      </trkpt>
      <trkpt lat="45.83343" lon="4.39307">
        <ele>856.8</ele>
        <time>2022-06-26T11:37:45Z</time>
      </trkpt>
      <trkpt lat="45.83341" lon="4.39312">
        <ele>857</ele>
        <time>2022-06-26T11:37:46Z</time>
      </trkpt>
      <trkpt lat="45.83339" lon="4.39317">
        <ele>857</ele>
        <time>2022-06-26T11:37:47Z</time>
      </trkpt>
      <trkpt lat="45.83336" lon="4.39322">
        <ele>857</ele>
        <time>2022-06-26T11:37:48Z</time>
      </trkpt>
      <trkpt lat="45.83334" lon="4.39328">
        <ele>857.4</ele>
        <time>2022-06-26T11:37:49Z</time>
      </trkpt>
      <trkpt lat="45.83332" lon="4.39333">
        <ele>857.4</ele>
        <time>2022-06-26T11:37:50Z</time>
      </trkpt>
      <trkpt lat="45.83329" lon="4.39339">
        <ele>857.4</ele>
        <time>2022-06-26T11:37:51Z</time>
      </trkpt>
      <trkpt lat="45.83326" lon="4.39344">
        <ele>857.4</ele>
        <time>2022-06-26T11:37:52Z</time>
      </trkpt>
      <trkpt lat="45.83323" lon="4.3935">
        <ele>857.4</ele>
        <time>2022-06-26T11:37:53Z</time>
      </trkpt>
      <trkpt lat="45.8332" lon="4.39355">
        <ele>857.6</ele>
        <time>2022-06-26T11:37:54Z</time>
      </trkpt>
      <trkpt lat="45.83317" lon="4.39361">
        <ele>857.6</ele>
        <time>2022-06-26T11:37:55Z</time>
      </trkpt>
      <trkpt lat="45.83314" lon="4.39366">
        <ele>857.6</ele>
        <time>2022-06-26T11:37:56Z</time>
      </trkpt>
      <trkpt lat="45.83311" lon="4.39371">
        <ele>857.6</ele>
        <time>2022-06-26T11:37:57Z</time>
      </trkpt>
      <trkpt lat="45.83308" lon="4.39376">
        <ele>857.6</ele>
        <time>2022-06-26T11:37:58Z</time>
      </trkpt>
      <trkpt lat="45.83304" lon="4.39381">
        <ele>857.6</ele>
        <time>2022-06-26T11:37:59Z</time>
      </trkpt>
      <trkpt lat="45.833" lon="4.39386">
        <ele>857.6</ele>
        <time>2022-06-26T11:38:00Z</time>
      </trkpt>
      <trkpt lat="45.83295" lon="4.3939">
        <ele>857.6</ele>
        <time>2022-06-26T11:38:01Z</time>
      </trkpt>
      <trkpt lat="45.83291" lon="4.39394">
        <ele>857.6</ele>
        <time>2022-06-26T11:38:02Z</time>
      </trkpt>
      <trkpt lat="45.83286" lon="4.39398">
        <ele>857.6</ele>
        <time>2022-06-26T11:38:03Z</time>
      </trkpt>
      <trkpt lat="45.83282" lon="4.39402">
        <ele>858</ele>
        <time>2022-06-26T11:38:04Z</time>
      </trkpt>
      <trkpt lat="45.83278" lon="4.39406">
        <ele>858</ele>
        <time>2022-06-26T11:38:05Z</time>
      </trkpt>
      <trkpt lat="45.83273" lon="4.39409">
        <ele>858</ele>
        <time>2022-06-26T11:38:06Z</time>
      </trkpt>
      <trkpt lat="45.83268" lon="4.39411">
        <ele>858.2</ele>
        <time>2022-06-26T11:38:07Z</time>
      </trkpt>
      <trkpt lat="45.83264" lon="4.39413">
        <ele>858.2</ele>
        <time>2022-06-26T11:38:08Z</time>
      </trkpt>
      <trkpt lat="45.83259" lon="4.39415">
        <ele>858.2</ele>
        <time>2022-06-26T11:38:09Z</time>
      </trkpt>
      <trkpt lat="45.83254" lon="4.39417">
        <ele>858.2</ele>
        <time>2022-06-26T11:38:10Z</time>
      </trkpt>
      <trkpt lat="45.8325" lon="4.39419">
        <ele>858.2</ele>
        <time>2022-06-26T11:38:11Z</time>
      </trkpt>
      <trkpt lat="45.83246" lon="4.39421">
        <ele>858.2</ele>
        <time>2022-06-26T11:38:12Z</time>
      </trkpt>
      <trkpt lat="45.83241" lon="4.39423">
        <ele>858.2</ele>
        <time>2022-06-26T11:38:13Z</time>
      </trkpt>
      <trkpt lat="45.83237" lon="4.39426">
        <ele>858.2</ele>
        <time>2022-06-26T11:38:14Z</time>
      </trkpt>
      <trkpt lat="45.83233" lon="4.39428">
        <ele>858.2</ele>
        <time>2022-06-26T11:38:15Z</time>
      </trkpt>
      <trkpt lat="45.83229" lon="4.3943">
        <ele>858.4</ele>
        <time>2022-06-26T11:38:16Z</time>
      </trkpt>
      <trkpt lat="45.83225" lon="4.39432">
        <ele>858.4</ele>
        <time>2022-06-26T11:38:17Z</time>
      </trkpt>
      <trkpt lat="45.83221" lon="4.39434">
        <ele>858.4</ele>
        <time>2022-06-26T11:38:18Z</time>
      </trkpt>
      <trkpt lat="45.83217" lon="4.39436">
        <ele>858.4</ele>
        <time>2022-06-26T11:38:19Z</time>
      </trkpt>
      <trkpt lat="45.83213" lon="4.39438">
        <ele>858.4</ele>
        <time>2022-06-26T11:38:20Z</time>
      </trkpt>
      <trkpt lat="45.83204" lon="4.39443">
        <ele>858.4</ele>
        <time>2022-06-26T11:38:21Z</time>
      </trkpt>
      <trkpt lat="45.832" lon="4.39445">
        <ele>858.4</ele>
        <time>2022-06-26T11:38:22Z</time>
      </trkpt>
      <trkpt lat="45.83196" lon="4.39447">
        <ele>858.4</ele>
        <time>2022-06-26T11:38:23Z</time>
      </trkpt>
      <trkpt lat="45.83191" lon="4.3945">
        <ele>858.8</ele>
        <time>2022-06-26T11:38:24Z</time>
      </trkpt>
      <trkpt lat="45.83187" lon="4.39454">
        <ele>858.8</ele>
        <time>2022-06-26T11:38:25Z</time>
      </trkpt>
      <trkpt lat="45.83182" lon="4.39457">
        <ele>858.8</ele>
        <time>2022-06-26T11:38:26Z</time>
      </trkpt>
      <trkpt lat="45.83178" lon="4.39461">
        <ele>858.8</ele>
        <time>2022-06-26T11:38:27Z</time>
      </trkpt>
      <trkpt lat="45.83173" lon="4.39464">
        <ele>859</ele>
        <time>2022-06-26T11:38:28Z</time>
      </trkpt>
      <trkpt lat="45.83168" lon="4.39467">
        <ele>859</ele>
        <time>2022-06-26T11:38:29Z</time>
      </trkpt>
      <trkpt lat="45.83163" lon="4.39471">
        <ele>859</ele>
        <time>2022-06-26T11:38:30Z</time>
      </trkpt>
      <trkpt lat="45.83159" lon="4.39473">
        <ele>859</ele>
        <time>2022-06-26T11:38:31Z</time>
      </trkpt>
      <trkpt lat="45.83154" lon="4.39476">
        <ele>859</ele>
        <time>2022-06-26T11:38:32Z</time>
      </trkpt>
      <trkpt lat="45.83149" lon="4.39479">
        <ele>859</ele>
        <time>2022-06-26T11:38:33Z</time>
      </trkpt>
      <trkpt lat="45.83145" lon="4.39482">
        <ele>859</ele>
        <time>2022-06-26T11:38:34Z</time>
      </trkpt>
      <trkpt lat="45.83141" lon="4.39484">
        <ele>859</ele>
        <time>2022-06-26T11:38:35Z</time>
      </trkpt>
      <trkpt lat="45.83138" lon="4.39485">
        <ele>859</ele>
        <time>2022-06-26T11:38:36Z</time>
      </trkpt>
      <trkpt lat="45.83135" lon="4.39486">
        <ele>859</ele>
        <time>2022-06-26T11:38:37Z</time>
      </trkpt>
      <trkpt lat="45.83131" lon="4.39487">
        <ele>859</ele>
        <time>2022-06-26T11:38:38Z</time>
      </trkpt>
      <trkpt lat="45.83128" lon="4.39488">
        <ele>859</ele>
        <time>2022-06-26T11:38:39Z</time>
      </trkpt>
      <trkpt lat="45.83124" lon="4.39488">
        <ele>859</ele>
        <time>2022-06-26T11:38:40Z</time>
      </trkpt>
      <trkpt lat="45.83119" lon="4.39489">
        <ele>859</ele>
        <time>2022-06-26T11:38:41Z</time>
      </trkpt>
      <trkpt lat="45.83114" lon="4.39489">
        <ele>859</ele>
        <time>2022-06-26T11:38:42Z</time>
      </trkpt>
      <trkpt lat="45.83108" lon="4.3949">
        <ele>858.6</ele>
        <time>2022-06-26T11:38:43Z</time>
      </trkpt>
      <trkpt lat="45.83102" lon="4.3949">
        <ele>858.6</ele>
        <time>2022-06-26T11:38:44Z</time>
      </trkpt>
      <trkpt lat="45.83095" lon="4.3949">
        <ele>858.2</ele>
        <time>2022-06-26T11:38:45Z</time>
      </trkpt>
      <trkpt lat="45.83089" lon="4.3949">
        <ele>858.2</ele>
        <time>2022-06-26T11:38:46Z</time>
      </trkpt>
      <trkpt lat="45.83082" lon="4.39489">
        <ele>858</ele>
        <time>2022-06-26T11:38:47Z</time>
      </trkpt>
      <trkpt lat="45.83076" lon="4.39489">
        <ele>857.8</ele>
        <time>2022-06-26T11:38:48Z</time>
      </trkpt>
      <trkpt lat="45.8307" lon="4.39489">
        <ele>857.6</ele>
        <time>2022-06-26T11:38:49Z</time>
      </trkpt>
      <trkpt lat="45.83063" lon="4.3949">
        <ele>857.2</ele>
        <time>2022-06-26T11:38:50Z</time>
      </trkpt>
      <trkpt lat="45.83056" lon="4.39489">
        <ele>857</ele>
        <time>2022-06-26T11:38:51Z</time>
      </trkpt>
      <trkpt lat="45.83049" lon="4.39489">
        <ele>856.6</ele>
        <time>2022-06-26T11:38:52Z</time>
      </trkpt>
      <trkpt lat="45.83041" lon="4.39488">
        <ele>856.4</ele>
        <time>2022-06-26T11:38:53Z</time>
      </trkpt>
      <trkpt lat="45.83033" lon="4.39486">
        <ele>856.2</ele>
        <time>2022-06-26T11:38:54Z</time>
      </trkpt>
      <trkpt lat="45.83025" lon="4.39485">
        <ele>855.8</ele>
        <time>2022-06-26T11:38:55Z</time>
      </trkpt>
      <trkpt lat="45.83017" lon="4.39484">
        <ele>855.8</ele>
        <time>2022-06-26T11:38:56Z</time>
      </trkpt>
      <trkpt lat="45.83009" lon="4.39482">
        <ele>855.4</ele>
        <time>2022-06-26T11:38:57Z</time>
      </trkpt>
      <trkpt lat="45.83001" lon="4.3948">
        <ele>855.2</ele>
        <time>2022-06-26T11:38:58Z</time>
      </trkpt>
      <trkpt lat="45.82993" lon="4.39478">
        <ele>855.2</ele>
        <time>2022-06-26T11:38:59Z</time>
      </trkpt>
      <trkpt lat="45.82984" lon="4.39476">
        <ele>854.8</ele>
        <time>2022-06-26T11:39:00Z</time>
      </trkpt>
      <trkpt lat="45.82975" lon="4.39474">
        <ele>854.2</ele>
        <time>2022-06-26T11:39:01Z</time>
      </trkpt>
      <trkpt lat="45.82966" lon="4.39472">
        <ele>853.8</ele>
        <time>2022-06-26T11:39:02Z</time>
      </trkpt>
      <trkpt lat="45.82956" lon="4.3947">
        <ele>853.4</ele>
        <time>2022-06-26T11:39:03Z</time>
      </trkpt>
      <trkpt lat="45.82947" lon="4.39469">
        <ele>853.4</ele>
        <time>2022-06-26T11:39:04Z</time>
      </trkpt>
      <trkpt lat="45.82938" lon="4.39466">
        <ele>852.8</ele>
        <time>2022-06-26T11:39:05Z</time>
      </trkpt>
      <trkpt lat="45.82928" lon="4.39464">
        <ele>852.2</ele>
        <time>2022-06-26T11:39:06Z</time>
      </trkpt>
      <trkpt lat="45.82918" lon="4.39462">
        <ele>851.6</ele>
        <time>2022-06-26T11:39:07Z</time>
      </trkpt>
      <trkpt lat="45.82909" lon="4.3946">
        <ele>851.2</ele>
        <time>2022-06-26T11:39:08Z</time>
      </trkpt>
      <trkpt lat="45.82899" lon="4.39458">
        <ele>850.6</ele>
        <time>2022-06-26T11:39:09Z</time>
      </trkpt>
      <trkpt lat="45.82889" lon="4.39455">
        <ele>850.2</ele>
        <time>2022-06-26T11:39:10Z</time>
      </trkpt>
      <trkpt lat="45.82878" lon="4.39452">
        <ele>849.6</ele>
        <time>2022-06-26T11:39:11Z</time>
      </trkpt>
      <trkpt lat="45.82868" lon="4.39449">
        <ele>849</ele>
        <time>2022-06-26T11:39:12Z</time>
      </trkpt>
      <trkpt lat="45.82858" lon="4.39446">
        <ele>848.4</ele>
        <time>2022-06-26T11:39:13Z</time>
      </trkpt>
      <trkpt lat="45.82849" lon="4.39442">
        <ele>848</ele>
        <time>2022-06-26T11:39:14Z</time>
      </trkpt>
      <trkpt lat="45.82838" lon="4.39439">
        <ele>847.4</ele>
        <time>2022-06-26T11:39:15Z</time>
      </trkpt>
      <trkpt lat="45.82828" lon="4.39434">
        <ele>847</ele>
        <time>2022-06-26T11:39:16Z</time>
      </trkpt>
      <trkpt lat="45.82818" lon="4.39428">
        <ele>846.4</ele>
        <time>2022-06-26T11:39:17Z</time>
      </trkpt>
      <trkpt lat="45.82807" lon="4.39423">
        <ele>846</ele>
        <time>2022-06-26T11:39:18Z</time>
      </trkpt>
      <trkpt lat="45.82796" lon="4.39418">
        <ele>845.8</ele>
        <time>2022-06-26T11:39:19Z</time>
      </trkpt>
      <trkpt lat="45.82784" lon="4.39414">
        <ele>845.4</ele>
        <time>2022-06-26T11:39:20Z</time>
      </trkpt>
      <trkpt lat="45.82773" lon="4.39411">
        <ele>845</ele>
        <time>2022-06-26T11:39:21Z</time>
      </trkpt>
      <trkpt lat="45.82762" lon="4.3941">
        <ele>844.6</ele>
        <time>2022-06-26T11:39:22Z</time>
      </trkpt>
      <trkpt lat="45.82751" lon="4.3941">
        <ele>844.4</ele>
        <time>2022-06-26T11:39:23Z</time>
      </trkpt>
      <trkpt lat="45.8274" lon="4.3941">
        <ele>843.6</ele>
        <time>2022-06-26T11:39:24Z</time>
      </trkpt>
      <trkpt lat="45.82728" lon="4.39411">
        <ele>843.4</ele>
        <time>2022-06-26T11:39:25Z</time>
      </trkpt>
      <trkpt lat="45.82717" lon="4.39411">
        <ele>843</ele>
        <time>2022-06-26T11:39:26Z</time>
      </trkpt>
      <trkpt lat="45.82705" lon="4.39411">
        <ele>842.6</ele>
        <time>2022-06-26T11:39:27Z</time>
      </trkpt>
      <trkpt lat="45.82689" lon="4.39408">
        <ele>842.2</ele>
        <time>2022-06-26T11:39:28Z</time>
      </trkpt>
      <trkpt lat="45.82676" lon="4.39403">
        <ele>841.4</ele>
        <time>2022-06-26T11:39:29Z</time>
      </trkpt>
      <trkpt lat="45.82664" lon="4.39399">
        <ele>840.4</ele>
        <time>2022-06-26T11:39:30Z</time>
      </trkpt>
      <trkpt lat="45.82653" lon="4.39393">
        <ele>839.4</ele>
        <time>2022-06-26T11:39:31Z</time>
      </trkpt>
      <trkpt lat="45.82641" lon="4.39385">
        <ele>838.6</ele>
        <time>2022-06-26T11:39:32Z</time>
      </trkpt>
      <trkpt lat="45.8263" lon="4.39379">
        <ele>837.8</ele>
        <time>2022-06-26T11:39:33Z</time>
      </trkpt>
      <trkpt lat="45.82619" lon="4.39372">
        <ele>837</ele>
        <time>2022-06-26T11:39:34Z</time>
      </trkpt>
      <trkpt lat="45.82608" lon="4.39366">
        <ele>836.4</ele>
        <time>2022-06-26T11:39:35Z</time>
      </trkpt>
      <trkpt lat="45.82597" lon="4.39359">
        <ele>835.8</ele>
        <time>2022-06-26T11:39:36Z</time>
      </trkpt>
      <trkpt lat="45.82586" lon="4.39351">
        <ele>835</ele>
        <time>2022-06-26T11:39:37Z</time>
      </trkpt>
      <trkpt lat="45.82575" lon="4.39342">
        <ele>834.4</ele>
        <time>2022-06-26T11:39:38Z</time>
      </trkpt>
      <trkpt lat="45.82565" lon="4.39334">
        <ele>833.8</ele>
        <time>2022-06-26T11:39:39Z</time>
      </trkpt>
      <trkpt lat="45.82554" lon="4.39324">
        <ele>833.2</ele>
        <time>2022-06-26T11:39:40Z</time>
      </trkpt>
      <trkpt lat="45.82544" lon="4.39315">
        <ele>832.6</ele>
        <time>2022-06-26T11:39:41Z</time>
      </trkpt>
      <trkpt lat="45.82534" lon="4.39305">
        <ele>832</ele>
        <time>2022-06-26T11:39:42Z</time>
      </trkpt>
      <trkpt lat="45.82525" lon="4.39294">
        <ele>831.4</ele>
        <time>2022-06-26T11:39:43Z</time>
      </trkpt>
      <trkpt lat="45.82517" lon="4.39282">
        <ele>831</ele>
        <time>2022-06-26T11:39:44Z</time>
      </trkpt>
      <trkpt lat="45.82508" lon="4.3927">
        <ele>830.4</ele>
        <time>2022-06-26T11:39:45Z</time>
      </trkpt>
      <trkpt lat="45.825" lon="4.39258">
        <ele>829.8</ele>
        <time>2022-06-26T11:39:46Z</time>
      </trkpt>
      <trkpt lat="45.82491" lon="4.39246">
        <ele>829.2</ele>
        <time>2022-06-26T11:39:47Z</time>
      </trkpt>
      <trkpt lat="45.82482" lon="4.39235">
        <ele>828.6</ele>
        <time>2022-06-26T11:39:48Z</time>
      </trkpt>
      <trkpt lat="45.82473" lon="4.39223">
        <ele>828</ele>
        <time>2022-06-26T11:39:49Z</time>
      </trkpt>
      <trkpt lat="45.82464" lon="4.3921">
        <ele>827.4</ele>
        <time>2022-06-26T11:39:50Z</time>
      </trkpt>
      <trkpt lat="45.82455" lon="4.39198">
        <ele>826.8</ele>
        <time>2022-06-26T11:39:51Z</time>
      </trkpt>
      <trkpt lat="45.82446" lon="4.39186">
        <ele>826.2</ele>
        <time>2022-06-26T11:39:52Z</time>
      </trkpt>
      <trkpt lat="45.82438" lon="4.39174">
        <ele>825.6</ele>
        <time>2022-06-26T11:39:53Z</time>
      </trkpt>
      <trkpt lat="45.8243" lon="4.3916">
        <ele>825</ele>
        <time>2022-06-26T11:39:54Z</time>
      </trkpt>
      <trkpt lat="45.82424" lon="4.39146">
        <ele>824.4</ele>
        <time>2022-06-26T11:39:55Z</time>
      </trkpt>
      <trkpt lat="45.82416" lon="4.39133">
        <ele>823.8</ele>
        <time>2022-06-26T11:39:56Z</time>
      </trkpt>
      <trkpt lat="45.82409" lon="4.3912">
        <ele>823.4</ele>
        <time>2022-06-26T11:39:57Z</time>
      </trkpt>
      <trkpt lat="45.82402" lon="4.39107">
        <ele>822.8</ele>
        <time>2022-06-26T11:39:58Z</time>
      </trkpt>
      <trkpt lat="45.82396" lon="4.39093">
        <ele>822.8</ele>
        <time>2022-06-26T11:39:59Z</time>
      </trkpt>
      <trkpt lat="45.82389" lon="4.39079">
        <ele>822.2</ele>
        <time>2022-06-26T11:40:00Z</time>
      </trkpt>
      <trkpt lat="45.82383" lon="4.39065">
        <ele>821.6</ele>
        <time>2022-06-26T11:40:01Z</time>
      </trkpt>
      <trkpt lat="45.82377" lon="4.39051">
        <ele>820.8</ele>
        <time>2022-06-26T11:40:02Z</time>
      </trkpt>
      <trkpt lat="45.82372" lon="4.39037">
        <ele>820.4</ele>
        <time>2022-06-26T11:40:03Z</time>
      </trkpt>
      <trkpt lat="45.82367" lon="4.39022">
        <ele>819.8</ele>
        <time>2022-06-26T11:40:04Z</time>
      </trkpt>
      <trkpt lat="45.82362" lon="4.39006">
        <ele>819.4</ele>
        <time>2022-06-26T11:40:05Z</time>
      </trkpt>
      <trkpt lat="45.82358" lon="4.38991">
        <ele>818.8</ele>
        <time>2022-06-26T11:40:06Z</time>
      </trkpt>
      <trkpt lat="45.82354" lon="4.38974">
        <ele>818.2</ele>
        <time>2022-06-26T11:40:07Z</time>
      </trkpt>
      <trkpt lat="45.82351" lon="4.38957">
        <ele>817.8</ele>
        <time>2022-06-26T11:40:08Z</time>
      </trkpt>
      <trkpt lat="45.82349" lon="4.38938">
        <ele>817.4</ele>
        <time>2022-06-26T11:40:09Z</time>
      </trkpt>
      <trkpt lat="45.82345" lon="4.38922">
        <ele>816.6</ele>
        <time>2022-06-26T11:40:10Z</time>
      </trkpt>
      <trkpt lat="45.82342" lon="4.38906">
        <ele>815.8</ele>
        <time>2022-06-26T11:40:11Z</time>
      </trkpt>
      <trkpt lat="45.82341" lon="4.38891">
        <ele>815.2</ele>
        <time>2022-06-26T11:40:12Z</time>
      </trkpt>
      <trkpt lat="45.82337" lon="4.38876">
        <ele>814.8</ele>
        <time>2022-06-26T11:40:13Z</time>
      </trkpt>
      <trkpt lat="45.82333" lon="4.38862">
        <ele>814.6</ele>
        <time>2022-06-26T11:40:14Z</time>
      </trkpt>
      <trkpt lat="45.82328" lon="4.38847">
        <ele>814.2</ele>
        <time>2022-06-26T11:40:15Z</time>
      </trkpt>
      <trkpt lat="45.82323" lon="4.38832">
        <ele>813.6</ele>
        <time>2022-06-26T11:40:16Z</time>
      </trkpt>
      <trkpt lat="45.82317" lon="4.38818">
        <ele>813.2</ele>
        <time>2022-06-26T11:40:17Z</time>
      </trkpt>
      <trkpt lat="45.82311" lon="4.38803">
        <ele>812.6</ele>
        <time>2022-06-26T11:40:18Z</time>
      </trkpt>
      <trkpt lat="45.82306" lon="4.38787">
        <ele>811.6</ele>
        <time>2022-06-26T11:40:19Z</time>
      </trkpt>
      <trkpt lat="45.82301" lon="4.38772">
        <ele>811</ele>
        <time>2022-06-26T11:40:20Z</time>
      </trkpt>
      <trkpt lat="45.82297" lon="4.38757">
        <ele>810.2</ele>
        <time>2022-06-26T11:40:21Z</time>
      </trkpt>
      <trkpt lat="45.82293" lon="4.38742">
        <ele>809.4</ele>
        <time>2022-06-26T11:40:22Z</time>
      </trkpt>
      <trkpt lat="45.8229" lon="4.38727">
        <ele>809</ele>
        <time>2022-06-26T11:40:23Z</time>
      </trkpt>
      <trkpt lat="45.82286" lon="4.38712">
        <ele>808.4</ele>
        <time>2022-06-26T11:40:24Z</time>
      </trkpt>
      <trkpt lat="45.82282" lon="4.38697">
        <ele>808</ele>
        <time>2022-06-26T11:40:25Z</time>
      </trkpt>
      <trkpt lat="45.82278" lon="4.38683">
        <ele>807.6</ele>
        <time>2022-06-26T11:40:26Z</time>
      </trkpt>
      <trkpt lat="45.82274" lon="4.38669">
        <ele>807</ele>
        <time>2022-06-26T11:40:27Z</time>
      </trkpt>
      <trkpt lat="45.82269" lon="4.38655">
        <ele>806.6</ele>
        <time>2022-06-26T11:40:28Z</time>
      </trkpt>
      <trkpt lat="45.82264" lon="4.38641">
        <ele>806</ele>
        <time>2022-06-26T11:40:29Z</time>
      </trkpt>
      <trkpt lat="45.82259" lon="4.38627">
        <ele>805.2</ele>
        <time>2022-06-26T11:40:30Z</time>
      </trkpt>
      <trkpt lat="45.82253" lon="4.38613">
        <ele>804.4</ele>
        <time>2022-06-26T11:40:31Z</time>
      </trkpt>
      <trkpt lat="45.82247" lon="4.38602">
        <ele>803.6</ele>
        <time>2022-06-26T11:40:32Z</time>
      </trkpt>
      <trkpt lat="45.82238" lon="4.38591">
        <ele>802.8</ele>
        <time>2022-06-26T11:40:33Z</time>
      </trkpt>
      <trkpt lat="45.82223" lon="4.38582">
        <ele>802.4</ele>
        <time>2022-06-26T11:40:34Z</time>
      </trkpt>
      <trkpt lat="45.82212" lon="4.38575">
        <ele>801.8</ele>
        <time>2022-06-26T11:40:35Z</time>
      </trkpt>
      <trkpt lat="45.82201" lon="4.38569">
        <ele>801</ele>
        <time>2022-06-26T11:40:36Z</time>
      </trkpt>
      <trkpt lat="45.8219" lon="4.38566">
        <ele>800.2</ele>
        <time>2022-06-26T11:40:37Z</time>
      </trkpt>
      <trkpt lat="45.82179" lon="4.38563">
        <ele>799.6</ele>
        <time>2022-06-26T11:40:38Z</time>
      </trkpt>
      <trkpt lat="45.82168" lon="4.3856">
        <ele>799</ele>
        <time>2022-06-26T11:40:39Z</time>
      </trkpt>
      <trkpt lat="45.82158" lon="4.38558">
        <ele>798.6</ele>
        <time>2022-06-26T11:40:40Z</time>
      </trkpt>
      <trkpt lat="45.82147" lon="4.38556">
        <ele>798.2</ele>
        <time>2022-06-26T11:40:41Z</time>
      </trkpt>
      <trkpt lat="45.82136" lon="4.38553">
        <ele>797.8</ele>
        <time>2022-06-26T11:40:42Z</time>
      </trkpt>
      <trkpt lat="45.82126" lon="4.3855">
        <ele>797.2</ele>
        <time>2022-06-26T11:40:43Z</time>
      </trkpt>
      <trkpt lat="45.82115" lon="4.38547">
        <ele>796.8</ele>
        <time>2022-06-26T11:40:44Z</time>
      </trkpt>
      <trkpt lat="45.82106" lon="4.38543">
        <ele>796.2</ele>
        <time>2022-06-26T11:40:45Z</time>
      </trkpt>
      <trkpt lat="45.82097" lon="4.3854">
        <ele>795.6</ele>
        <time>2022-06-26T11:40:46Z</time>
      </trkpt>
      <trkpt lat="45.82087" lon="4.38539">
        <ele>795</ele>
        <time>2022-06-26T11:40:47Z</time>
      </trkpt>
      <trkpt lat="45.82076" lon="4.38539">
        <ele>794.6</ele>
        <time>2022-06-26T11:40:48Z</time>
      </trkpt>
      <trkpt lat="45.82066" lon="4.3854">
        <ele>794</ele>
        <time>2022-06-26T11:40:49Z</time>
      </trkpt>
      <trkpt lat="45.82057" lon="4.38541">
        <ele>794</ele>
        <time>2022-06-26T11:40:50Z</time>
      </trkpt>
      <trkpt lat="45.82047" lon="4.38543">
        <ele>793.2</ele>
        <time>2022-06-26T11:40:51Z</time>
      </trkpt>
      <trkpt lat="45.82037" lon="4.38545">
        <ele>792.8</ele>
        <time>2022-06-26T11:40:52Z</time>
      </trkpt>
      <trkpt lat="45.82029" lon="4.38548">
        <ele>792.2</ele>
        <time>2022-06-26T11:40:53Z</time>
      </trkpt>
      <trkpt lat="45.8202" lon="4.38551">
        <ele>791.8</ele>
        <time>2022-06-26T11:40:54Z</time>
      </trkpt>
      <trkpt lat="45.82013" lon="4.38554">
        <ele>791.4</ele>
        <time>2022-06-26T11:40:55Z</time>
      </trkpt>
      <trkpt lat="45.82005" lon="4.38558">
        <ele>791</ele>
        <time>2022-06-26T11:40:56Z</time>
      </trkpt>
      <trkpt lat="45.81999" lon="4.38562">
        <ele>790.6</ele>
        <time>2022-06-26T11:40:57Z</time>
      </trkpt>
      <trkpt lat="45.81992" lon="4.38566">
        <ele>790</ele>
        <time>2022-06-26T11:40:58Z</time>
      </trkpt>
      <trkpt lat="45.81985" lon="4.38571">
        <ele>789.6</ele>
        <time>2022-06-26T11:40:59Z</time>
      </trkpt>
      <trkpt lat="45.81979" lon="4.38575">
        <ele>789.4</ele>
        <time>2022-06-26T11:41:00Z</time>
      </trkpt>
      <trkpt lat="45.81974" lon="4.38579">
        <ele>789</ele>
        <time>2022-06-26T11:41:01Z</time>
      </trkpt>
      <trkpt lat="45.81969" lon="4.38583">
        <ele>788.6</ele>
        <time>2022-06-26T11:41:02Z</time>
      </trkpt>
      <trkpt lat="45.81964" lon="4.38587">
        <ele>788.2</ele>
        <time>2022-06-26T11:41:03Z</time>
      </trkpt>
      <trkpt lat="45.8196" lon="4.38592">
        <ele>788</ele>
        <time>2022-06-26T11:41:04Z</time>
      </trkpt>
      <trkpt lat="45.81957" lon="4.38598">
        <ele>787.8</ele>
        <time>2022-06-26T11:41:05Z</time>
      </trkpt>
      <trkpt lat="45.81955" lon="4.38605">
        <ele>787.4</ele>
        <time>2022-06-26T11:41:06Z</time>
      </trkpt>
      <trkpt lat="45.81955" lon="4.38612">
        <ele>787.2</ele>
        <time>2022-06-26T11:41:07Z</time>
      </trkpt>
      <trkpt lat="45.81956" lon="4.38619">
        <ele>787.2</ele>
        <time>2022-06-26T11:41:08Z</time>
      </trkpt>
      <trkpt lat="45.81958" lon="4.38625">
        <ele>787</ele>
        <time>2022-06-26T11:41:09Z</time>
      </trkpt>
      <trkpt lat="45.81961" lon="4.38632">
        <ele>787</ele>
        <time>2022-06-26T11:41:10Z</time>
      </trkpt>
      <trkpt lat="45.81964" lon="4.38638">
        <ele>786.6</ele>
        <time>2022-06-26T11:41:11Z</time>
      </trkpt>
      <trkpt lat="45.81966" lon="4.38645">
        <ele>786.6</ele>
        <time>2022-06-26T11:41:12Z</time>
      </trkpt>
      <trkpt lat="45.81969" lon="4.38652">
        <ele>786.4</ele>
        <time>2022-06-26T11:41:13Z</time>
      </trkpt>
      <trkpt lat="45.81971" lon="4.3866">
        <ele>786.4</ele>
        <time>2022-06-26T11:41:14Z</time>
      </trkpt>
      <trkpt lat="45.81974" lon="4.38668">
        <ele>786</ele>
        <time>2022-06-26T11:41:15Z</time>
      </trkpt>
      <trkpt lat="45.81976" lon="4.38677">
        <ele>785.8</ele>
        <time>2022-06-26T11:41:16Z</time>
      </trkpt>
      <trkpt lat="45.81979" lon="4.38686">
        <ele>785.4</ele>
        <time>2022-06-26T11:41:17Z</time>
      </trkpt>
      <trkpt lat="45.81981" lon="4.38694">
        <ele>785</ele>
        <time>2022-06-26T11:41:18Z</time>
      </trkpt>
      <trkpt lat="45.81983" lon="4.38703">
        <ele>784.6</ele>
        <time>2022-06-26T11:41:19Z</time>
      </trkpt>
      <trkpt lat="45.81985" lon="4.38712">
        <ele>784.6</ele>
        <time>2022-06-26T11:41:20Z</time>
      </trkpt>
      <trkpt lat="45.81987" lon="4.38722">
        <ele>784.4</ele>
        <time>2022-06-26T11:41:21Z</time>
      </trkpt>
      <trkpt lat="45.8199" lon="4.38731">
        <ele>784</ele>
        <time>2022-06-26T11:41:22Z</time>
      </trkpt>
      <trkpt lat="45.81993" lon="4.38741">
        <ele>783.6</ele>
        <time>2022-06-26T11:41:23Z</time>
      </trkpt>
      <trkpt lat="45.81996" lon="4.38751">
        <ele>783.2</ele>
        <time>2022-06-26T11:41:24Z</time>
      </trkpt>
      <trkpt lat="45.81999" lon="4.3876">
        <ele>783</ele>
        <time>2022-06-26T11:41:25Z</time>
      </trkpt>
      <trkpt lat="45.82001" lon="4.3877">
        <ele>782.6</ele>
        <time>2022-06-26T11:41:26Z</time>
      </trkpt>
      <trkpt lat="45.82004" lon="4.3878">
        <ele>782.2</ele>
        <time>2022-06-26T11:41:27Z</time>
      </trkpt>
      <trkpt lat="45.82007" lon="4.3879">
        <ele>782.2</ele>
        <time>2022-06-26T11:41:28Z</time>
      </trkpt>
      <trkpt lat="45.8201" lon="4.388">
        <ele>781.8</ele>
        <time>2022-06-26T11:41:29Z</time>
      </trkpt>
      <trkpt lat="45.82014" lon="4.38811">
        <ele>781.4</ele>
        <time>2022-06-26T11:41:30Z</time>
      </trkpt>
      <trkpt lat="45.82017" lon="4.38823">
        <ele>781</ele>
        <time>2022-06-26T11:41:31Z</time>
      </trkpt>
      <trkpt lat="45.8202" lon="4.38836">
        <ele>780.8</ele>
        <time>2022-06-26T11:41:32Z</time>
      </trkpt>
      <trkpt lat="45.82024" lon="4.38849">
        <ele>780.4</ele>
        <time>2022-06-26T11:41:33Z</time>
      </trkpt>
      <trkpt lat="45.82027" lon="4.38862">
        <ele>780</ele>
        <time>2022-06-26T11:41:34Z</time>
      </trkpt>
      <trkpt lat="45.8203" lon="4.38875">
        <ele>779.8</ele>
        <time>2022-06-26T11:41:35Z</time>
      </trkpt>
      <trkpt lat="45.82033" lon="4.38889">
        <ele>779.4</ele>
        <time>2022-06-26T11:41:36Z</time>
      </trkpt>
      <trkpt lat="45.82034" lon="4.38903">
        <ele>779</ele>
        <time>2022-06-26T11:41:37Z</time>
      </trkpt>
      <trkpt lat="45.82035" lon="4.38916">
        <ele>778.6</ele>
        <time>2022-06-26T11:41:38Z</time>
      </trkpt>
      <trkpt lat="45.82036" lon="4.3893">
        <ele>778.4</ele>
        <time>2022-06-26T11:41:39Z</time>
      </trkpt>
      <trkpt lat="45.82037" lon="4.38944">
        <ele>778.4</ele>
        <time>2022-06-26T11:41:40Z</time>
      </trkpt>
      <trkpt lat="45.82037" lon="4.38959">
        <ele>778</ele>
        <time>2022-06-26T11:41:41Z</time>
      </trkpt>
      <trkpt lat="45.82037" lon="4.38973">
        <ele>777.6</ele>
        <time>2022-06-26T11:41:42Z</time>
      </trkpt>
      <trkpt lat="45.82037" lon="4.38987">
        <ele>777.4</ele>
        <time>2022-06-26T11:41:43Z</time>
      </trkpt>
      <trkpt lat="45.82035" lon="4.39">
        <ele>777.4</ele>
        <time>2022-06-26T11:41:44Z</time>
      </trkpt>
      <trkpt lat="45.82032" lon="4.39013">
        <ele>777.4</ele>
        <time>2022-06-26T11:41:45Z</time>
      </trkpt>
      <trkpt lat="45.82029" lon="4.39026">
        <ele>777.4</ele>
        <time>2022-06-26T11:41:46Z</time>
      </trkpt>
      <trkpt lat="45.82025" lon="4.39038">
        <ele>777.4</ele>
        <time>2022-06-26T11:41:47Z</time>
      </trkpt>
      <trkpt lat="45.82022" lon="4.3905">
        <ele>777.2</ele>
        <time>2022-06-26T11:41:48Z</time>
      </trkpt>
      <trkpt lat="45.82019" lon="4.39062">
        <ele>777.2</ele>
        <time>2022-06-26T11:41:49Z</time>
      </trkpt>
      <trkpt lat="45.82016" lon="4.39073">
        <ele>776.6</ele>
        <time>2022-06-26T11:41:51Z</time>
      </trkpt>
      <trkpt lat="45.82013" lon="4.39084">
        <ele>776.4</ele>
        <time>2022-06-26T11:41:52Z</time>
      </trkpt>
      <trkpt lat="45.82012" lon="4.39096">
        <ele>776.4</ele>
        <time>2022-06-26T11:41:53Z</time>
      </trkpt>
      <trkpt lat="45.82012" lon="4.39108">
        <ele>776</ele>
        <time>2022-06-26T11:41:54Z</time>
      </trkpt>
      <trkpt lat="45.82013" lon="4.39119">
        <ele>776</ele>
        <time>2022-06-26T11:41:55Z</time>
      </trkpt>
      <trkpt lat="45.82015" lon="4.39129">
        <ele>775.8</ele>
        <time>2022-06-26T11:41:56Z</time>
      </trkpt>
      <trkpt lat="45.82019" lon="4.39138">
        <ele>775.8</ele>
        <time>2022-06-26T11:41:57Z</time>
      </trkpt>
      <trkpt lat="45.82023" lon="4.39146">
        <ele>775.8</ele>
        <time>2022-06-26T11:41:58Z</time>
      </trkpt>
      <trkpt lat="45.82028" lon="4.39154">
        <ele>775.4</ele>
        <time>2022-06-26T11:41:59Z</time>
      </trkpt>
      <trkpt lat="45.82033" lon="4.39162">
        <ele>775.4</ele>
        <time>2022-06-26T11:42:00Z</time>
      </trkpt>
      <trkpt lat="45.82038" lon="4.3917">
        <ele>775</ele>
        <time>2022-06-26T11:42:01Z</time>
      </trkpt>
      <trkpt lat="45.82043" lon="4.39178">
        <ele>775</ele>
        <time>2022-06-26T11:42:02Z</time>
      </trkpt>
      <trkpt lat="45.82048" lon="4.39186">
        <ele>774.8</ele>
        <time>2022-06-26T11:42:03Z</time>
      </trkpt>
      <trkpt lat="45.82053" lon="4.39195">
        <ele>774.8</ele>
        <time>2022-06-26T11:42:04Z</time>
      </trkpt>
      <trkpt lat="45.82057" lon="4.39204">
        <ele>774.4</ele>
        <time>2022-06-26T11:42:05Z</time>
      </trkpt>
      <trkpt lat="45.8206" lon="4.39214">
        <ele>774.2</ele>
        <time>2022-06-26T11:42:06Z</time>
      </trkpt>
      <trkpt lat="45.82063" lon="4.39224">
        <ele>773.8</ele>
        <time>2022-06-26T11:42:07Z</time>
      </trkpt>
      <trkpt lat="45.82064" lon="4.39235">
        <ele>773.6</ele>
        <time>2022-06-26T11:42:08Z</time>
      </trkpt>
      <trkpt lat="45.82065" lon="4.39246">
        <ele>773.6</ele>
        <time>2022-06-26T11:42:09Z</time>
      </trkpt>
      <trkpt lat="45.82065" lon="4.39257">
        <ele>773.6</ele>
        <time>2022-06-26T11:42:10Z</time>
      </trkpt>
      <trkpt lat="45.82064" lon="4.39269">
        <ele>773.2</ele>
        <time>2022-06-26T11:42:11Z</time>
      </trkpt>
      <trkpt lat="45.82063" lon="4.3928">
        <ele>773</ele>
        <time>2022-06-26T11:42:12Z</time>
      </trkpt>
      <trkpt lat="45.82063" lon="4.39292">
        <ele>772.6</ele>
        <time>2022-06-26T11:42:13Z</time>
      </trkpt>
      <trkpt lat="45.82062" lon="4.39303">
        <ele>772.2</ele>
        <time>2022-06-26T11:42:14Z</time>
      </trkpt>
      <trkpt lat="45.82062" lon="4.39315">
        <ele>772</ele>
        <time>2022-06-26T11:42:15Z</time>
      </trkpt>
      <trkpt lat="45.82061" lon="4.39327">
        <ele>772</ele>
        <time>2022-06-26T11:42:16Z</time>
      </trkpt>
      <trkpt lat="45.82061" lon="4.39339">
        <ele>771.8</ele>
        <time>2022-06-26T11:42:17Z</time>
      </trkpt>
      <trkpt lat="45.8206" lon="4.39351">
        <ele>771.8</ele>
        <time>2022-06-26T11:42:18Z</time>
      </trkpt>
      <trkpt lat="45.82059" lon="4.39363">
        <ele>771.8</ele>
        <time>2022-06-26T11:42:19Z</time>
      </trkpt>
      <trkpt lat="45.82058" lon="4.39375">
        <ele>771.4</ele>
        <time>2022-06-26T11:42:20Z</time>
      </trkpt>
      <trkpt lat="45.82058" lon="4.39387">
        <ele>771.2</ele>
        <time>2022-06-26T11:42:21Z</time>
      </trkpt>
      <trkpt lat="45.82058" lon="4.39399">
        <ele>770.8</ele>
        <time>2022-06-26T11:42:22Z</time>
      </trkpt>
      <trkpt lat="45.82057" lon="4.39411">
        <ele>770.4</ele>
        <time>2022-06-26T11:42:23Z</time>
      </trkpt>
      <trkpt lat="45.82056" lon="4.39422">
        <ele>770</ele>
        <time>2022-06-26T11:42:24Z</time>
      </trkpt>
      <trkpt lat="45.82056" lon="4.39434">
        <ele>769.8</ele>
        <time>2022-06-26T11:42:25Z</time>
      </trkpt>
      <trkpt lat="45.82056" lon="4.39446">
        <ele>769.8</ele>
        <time>2022-06-26T11:42:26Z</time>
      </trkpt>
      <trkpt lat="45.82057" lon="4.39457">
        <ele>769.6</ele>
        <time>2022-06-26T11:42:27Z</time>
      </trkpt>
      <trkpt lat="45.82058" lon="4.39468">
        <ele>769.4</ele>
        <time>2022-06-26T11:42:28Z</time>
      </trkpt>
      <trkpt lat="45.8206" lon="4.39479">
        <ele>769</ele>
        <time>2022-06-26T11:42:29Z</time>
      </trkpt>
      <trkpt lat="45.82063" lon="4.3949">
        <ele>768.8</ele>
        <time>2022-06-26T11:42:30Z</time>
      </trkpt>
      <trkpt lat="45.82066" lon="4.39501">
        <ele>768.4</ele>
        <time>2022-06-26T11:42:31Z</time>
      </trkpt>
      <trkpt lat="45.82069" lon="4.39512">
        <ele>768.2</ele>
        <time>2022-06-26T11:42:32Z</time>
      </trkpt>
      <trkpt lat="45.82072" lon="4.39523">
        <ele>768</ele>
        <time>2022-06-26T11:42:33Z</time>
      </trkpt>
      <trkpt lat="45.82075" lon="4.39534">
        <ele>767.8</ele>
        <time>2022-06-26T11:42:34Z</time>
      </trkpt>
      <trkpt lat="45.82077" lon="4.39546">
        <ele>767.4</ele>
        <time>2022-06-26T11:42:35Z</time>
      </trkpt>
      <trkpt lat="45.82079" lon="4.39558">
        <ele>767.2</ele>
        <time>2022-06-26T11:42:36Z</time>
      </trkpt>
      <trkpt lat="45.82081" lon="4.39569">
        <ele>767</ele>
        <time>2022-06-26T11:42:37Z</time>
      </trkpt>
      <trkpt lat="45.82082" lon="4.39582">
        <ele>766.6</ele>
        <time>2022-06-26T11:42:38Z</time>
      </trkpt>
      <trkpt lat="45.82084" lon="4.39594">
        <ele>766.4</ele>
        <time>2022-06-26T11:42:39Z</time>
      </trkpt>
      <trkpt lat="45.82086" lon="4.39606">
        <ele>766.2</ele>
        <time>2022-06-26T11:42:40Z</time>
      </trkpt>
      <trkpt lat="45.82088" lon="4.39618">
        <ele>766</ele>
        <time>2022-06-26T11:42:41Z</time>
      </trkpt>
      <trkpt lat="45.82089" lon="4.3963">
        <ele>765.4</ele>
        <time>2022-06-26T11:42:42Z</time>
      </trkpt>
      <trkpt lat="45.8209" lon="4.39642">
        <ele>765</ele>
        <time>2022-06-26T11:42:43Z</time>
      </trkpt>
      <trkpt lat="45.82091" lon="4.39654">
        <ele>764.6</ele>
        <time>2022-06-26T11:42:44Z</time>
      </trkpt>
      <trkpt lat="45.8209" lon="4.39667">
        <ele>764.6</ele>
        <time>2022-06-26T11:42:45Z</time>
      </trkpt>
      <trkpt lat="45.82088" lon="4.39679">
        <ele>764.2</ele>
        <time>2022-06-26T11:42:46Z</time>
      </trkpt>
      <trkpt lat="45.82084" lon="4.3969">
        <ele>764.2</ele>
        <time>2022-06-26T11:42:47Z</time>
      </trkpt>
      <trkpt lat="45.8208" lon="4.39701">
        <ele>764.2</ele>
        <time>2022-06-26T11:42:48Z</time>
      </trkpt>
      <trkpt lat="45.82074" lon="4.39712">
        <ele>764</ele>
        <time>2022-06-26T11:42:49Z</time>
      </trkpt>
      <trkpt lat="45.82069" lon="4.39722">
        <ele>763.6</ele>
        <time>2022-06-26T11:42:50Z</time>
      </trkpt>
      <trkpt lat="45.82063" lon="4.39732">
        <ele>763.4</ele>
        <time>2022-06-26T11:42:51Z</time>
      </trkpt>
      <trkpt lat="45.82058" lon="4.39742">
        <ele>763</ele>
        <time>2022-06-26T11:42:52Z</time>
      </trkpt>
      <trkpt lat="45.82052" lon="4.39751">
        <ele>762.6</ele>
        <time>2022-06-26T11:42:53Z</time>
      </trkpt>
      <trkpt lat="45.82047" lon="4.3976">
        <ele>762.2</ele>
        <time>2022-06-26T11:42:54Z</time>
      </trkpt>
      <trkpt lat="45.82042" lon="4.3977">
        <ele>761.8</ele>
        <time>2022-06-26T11:42:55Z</time>
      </trkpt>
      <trkpt lat="45.82037" lon="4.39779">
        <ele>761.4</ele>
        <time>2022-06-26T11:42:56Z</time>
      </trkpt>
      <trkpt lat="45.82031" lon="4.39788">
        <ele>761.4</ele>
        <time>2022-06-26T11:42:57Z</time>
      </trkpt>
      <trkpt lat="45.82026" lon="4.39797">
        <ele>761.4</ele>
        <time>2022-06-26T11:42:58Z</time>
      </trkpt>
      <trkpt lat="45.82021" lon="4.39806">
        <ele>761</ele>
        <time>2022-06-26T11:42:59Z</time>
      </trkpt>
      <trkpt lat="45.82016" lon="4.39815">
        <ele>760.8</ele>
        <time>2022-06-26T11:43:00Z</time>
      </trkpt>
      <trkpt lat="45.82011" lon="4.39824">
        <ele>760.8</ele>
        <time>2022-06-26T11:43:01Z</time>
      </trkpt>
      <trkpt lat="45.82006" lon="4.39833">
        <ele>760.8</ele>
        <time>2022-06-26T11:43:02Z</time>
      </trkpt>
      <trkpt lat="45.82001" lon="4.39842">
        <ele>760.8</ele>
        <time>2022-06-26T11:43:03Z</time>
      </trkpt>
      <trkpt lat="45.81996" lon="4.39851">
        <ele>760.2</ele>
        <time>2022-06-26T11:43:04Z</time>
      </trkpt>
      <trkpt lat="45.81992" lon="4.3986">
        <ele>760</ele>
        <time>2022-06-26T11:43:05Z</time>
      </trkpt>
      <trkpt lat="45.81987" lon="4.39869">
        <ele>760</ele>
        <time>2022-06-26T11:43:06Z</time>
      </trkpt>
      <trkpt lat="45.81983" lon="4.39878">
        <ele>759.6</ele>
        <time>2022-06-26T11:43:07Z</time>
      </trkpt>
      <trkpt lat="45.81979" lon="4.39888">
        <ele>759.4</ele>
        <time>2022-06-26T11:43:08Z</time>
      </trkpt>
      <trkpt lat="45.81974" lon="4.39897">
        <ele>759</ele>
        <time>2022-06-26T11:43:09Z</time>
      </trkpt>
      <trkpt lat="45.8197" lon="4.39907">
        <ele>758.8</ele>
        <time>2022-06-26T11:43:10Z</time>
      </trkpt>
      <trkpt lat="45.81966" lon="4.39917">
        <ele>758.8</ele>
        <time>2022-06-26T11:43:11Z</time>
      </trkpt>
      <trkpt lat="45.81961" lon="4.39926">
        <ele>758.6</ele>
        <time>2022-06-26T11:43:12Z</time>
      </trkpt>
      <trkpt lat="45.81956" lon="4.39934">
        <ele>758.6</ele>
        <time>2022-06-26T11:43:13Z</time>
      </trkpt>
      <trkpt lat="45.8195" lon="4.39941">
        <ele>758.6</ele>
        <time>2022-06-26T11:43:14Z</time>
      </trkpt>
      <trkpt lat="45.81944" lon="4.39947">
        <ele>758.6</ele>
        <time>2022-06-26T11:43:15Z</time>
      </trkpt>
      <trkpt lat="45.81937" lon="4.39953">
        <ele>758.6</ele>
        <time>2022-06-26T11:43:16Z</time>
      </trkpt>
      <trkpt lat="45.8193" lon="4.39957">
        <ele>758.4</ele>
        <time>2022-06-26T11:43:17Z</time>
      </trkpt>
      <trkpt lat="45.81923" lon="4.39961">
        <ele>758.4</ele>
        <time>2022-06-26T11:43:18Z</time>
      </trkpt>
      <trkpt lat="45.81915" lon="4.39965">
        <ele>758</ele>
        <time>2022-06-26T11:43:19Z</time>
      </trkpt>
      <trkpt lat="45.81908" lon="4.3997">
        <ele>757.6</ele>
        <time>2022-06-26T11:43:20Z</time>
      </trkpt>
      <trkpt lat="45.81901" lon="4.39974">
        <ele>757.6</ele>
        <time>2022-06-26T11:43:21Z</time>
      </trkpt>
      <trkpt lat="45.81894" lon="4.39979">
        <ele>757.2</ele>
        <time>2022-06-26T11:43:22Z</time>
      </trkpt>
      <trkpt lat="45.81887" lon="4.39984">
        <ele>757.2</ele>
        <time>2022-06-26T11:43:23Z</time>
      </trkpt>
      <trkpt lat="45.8188" lon="4.39989">
        <ele>756.8</ele>
        <time>2022-06-26T11:43:24Z</time>
      </trkpt>
      <trkpt lat="45.81873" lon="4.39995">
        <ele>756.8</ele>
        <time>2022-06-26T11:43:25Z</time>
      </trkpt>
      <trkpt lat="45.81867" lon="4.40003">
        <ele>756.6</ele>
        <time>2022-06-26T11:43:26Z</time>
      </trkpt>
      <trkpt lat="45.81862" lon="4.40012">
        <ele>756.4</ele>
        <time>2022-06-26T11:43:27Z</time>
      </trkpt>
      <trkpt lat="45.81858" lon="4.40021">
        <ele>756.4</ele>
        <time>2022-06-26T11:43:28Z</time>
      </trkpt>
      <trkpt lat="45.81855" lon="4.40032">
        <ele>756</ele>
        <time>2022-06-26T11:43:29Z</time>
      </trkpt>
      <trkpt lat="45.81854" lon="4.40043">
        <ele>756</ele>
        <time>2022-06-26T11:43:30Z</time>
      </trkpt>
      <trkpt lat="45.81855" lon="4.40054">
        <ele>755.4</ele>
        <time>2022-06-26T11:43:31Z</time>
      </trkpt>
      <trkpt lat="45.81857" lon="4.40064">
        <ele>755</ele>
        <time>2022-06-26T11:43:32Z</time>
      </trkpt>
      <trkpt lat="45.8186" lon="4.40075">
        <ele>754.6</ele>
        <time>2022-06-26T11:43:33Z</time>
      </trkpt>
      <trkpt lat="45.81864" lon="4.40085">
        <ele>754.4</ele>
        <time>2022-06-26T11:43:34Z</time>
      </trkpt>
      <trkpt lat="45.81868" lon="4.40095">
        <ele>753.8</ele>
        <time>2022-06-26T11:43:35Z</time>
      </trkpt>
      <trkpt lat="45.81873" lon="4.40105">
        <ele>753.2</ele>
        <time>2022-06-26T11:43:36Z</time>
      </trkpt>
      <trkpt lat="45.81877" lon="4.40116">
        <ele>752.8</ele>
        <time>2022-06-26T11:43:37Z</time>
      </trkpt>
      <trkpt lat="45.81881" lon="4.40126">
        <ele>752.4</ele>
        <time>2022-06-26T11:43:38Z</time>
      </trkpt>
      <trkpt lat="45.81884" lon="4.40137">
        <ele>752</ele>
        <time>2022-06-26T11:43:39Z</time>
      </trkpt>
      <trkpt lat="45.81886" lon="4.40148">
        <ele>752</ele>
        <time>2022-06-26T11:43:40Z</time>
      </trkpt>
      <trkpt lat="45.81888" lon="4.4016">
        <ele>751.8</ele>
        <time>2022-06-26T11:43:41Z</time>
      </trkpt>
      <trkpt lat="45.81888" lon="4.40172">
        <ele>751.6</ele>
        <time>2022-06-26T11:43:42Z</time>
      </trkpt>
      <trkpt lat="45.81887" lon="4.40185">
        <ele>751.4</ele>
        <time>2022-06-26T11:43:43Z</time>
      </trkpt>
      <trkpt lat="45.81884" lon="4.40196">
        <ele>750.8</ele>
        <time>2022-06-26T11:43:44Z</time>
      </trkpt>
      <trkpt lat="45.81879" lon="4.40207">
        <ele>750.6</ele>
        <time>2022-06-26T11:43:45Z</time>
      </trkpt>
      <trkpt lat="45.81874" lon="4.40216">
        <ele>750.2</ele>
        <time>2022-06-26T11:43:46Z</time>
      </trkpt>
      <trkpt lat="45.81868" lon="4.40226">
        <ele>750</ele>
        <time>2022-06-26T11:43:47Z</time>
      </trkpt>
      <trkpt lat="45.81862" lon="4.40235">
        <ele>749.6</ele>
        <time>2022-06-26T11:43:48Z</time>
      </trkpt>
      <trkpt lat="45.81856" lon="4.40245">
        <ele>749.4</ele>
        <time>2022-06-26T11:43:49Z</time>
      </trkpt>
      <trkpt lat="45.8185" lon="4.40254">
        <ele>749.2</ele>
        <time>2022-06-26T11:43:50Z</time>
      </trkpt>
      <trkpt lat="45.81844" lon="4.40265">
        <ele>749</ele>
        <time>2022-06-26T11:43:51Z</time>
      </trkpt>
      <trkpt lat="45.81838" lon="4.40274">
        <ele>748.6</ele>
        <time>2022-06-26T11:43:52Z</time>
      </trkpt>
      <trkpt lat="45.81832" lon="4.40284">
        <ele>748.4</ele>
        <time>2022-06-26T11:43:53Z</time>
      </trkpt>
      <trkpt lat="45.81826" lon="4.40293">
        <ele>748</ele>
        <time>2022-06-26T11:43:54Z</time>
      </trkpt>
      <trkpt lat="45.8182" lon="4.40302">
        <ele>747.8</ele>
        <time>2022-06-26T11:43:55Z</time>
      </trkpt>
      <trkpt lat="45.81814" lon="4.40313">
        <ele>747.4</ele>
        <time>2022-06-26T11:43:56Z</time>
      </trkpt>
      <trkpt lat="45.81808" lon="4.40323">
        <ele>747.4</ele>
        <time>2022-06-26T11:43:57Z</time>
      </trkpt>
      <trkpt lat="45.81802" lon="4.40334">
        <ele>746.8</ele>
        <time>2022-06-26T11:43:58Z</time>
      </trkpt>
      <trkpt lat="45.81796" lon="4.40343">
        <ele>746.4</ele>
        <time>2022-06-26T11:43:59Z</time>
      </trkpt>
      <trkpt lat="45.8179" lon="4.40354">
        <ele>746</ele>
        <time>2022-06-26T11:44:00Z</time>
      </trkpt>
      <trkpt lat="45.81784" lon="4.40365">
        <ele>745.6</ele>
        <time>2022-06-26T11:44:01Z</time>
      </trkpt>
      <trkpt lat="45.81777" lon="4.40374">
        <ele>745</ele>
        <time>2022-06-26T11:44:02Z</time>
      </trkpt>
      <trkpt lat="45.8177" lon="4.40385">
        <ele>744.4</ele>
        <time>2022-06-26T11:44:03Z</time>
      </trkpt>
      <trkpt lat="45.81764" lon="4.40396">
        <ele>744</ele>
        <time>2022-06-26T11:44:04Z</time>
      </trkpt>
      <trkpt lat="45.81758" lon="4.40407">
        <ele>743.6</ele>
        <time>2022-06-26T11:44:05Z</time>
      </trkpt>
      <trkpt lat="45.81752" lon="4.40416">
        <ele>743.2</ele>
        <time>2022-06-26T11:44:06Z</time>
      </trkpt>
      <trkpt lat="45.81747" lon="4.40425">
        <ele>742.8</ele>
        <time>2022-06-26T11:44:07Z</time>
      </trkpt>
      <trkpt lat="45.81742" lon="4.40434">
        <ele>742.2</ele>
        <time>2022-06-26T11:44:08Z</time>
      </trkpt>
      <trkpt lat="45.81737" lon="4.40442">
        <ele>741.8</ele>
        <time>2022-06-26T11:44:09Z</time>
      </trkpt>
      <trkpt lat="45.81732" lon="4.4045">
        <ele>741.2</ele>
        <time>2022-06-26T11:44:10Z</time>
      </trkpt>
      <trkpt lat="45.81728" lon="4.40457">
        <ele>740.6</ele>
        <time>2022-06-26T11:44:11Z</time>
      </trkpt>
      <trkpt lat="45.81724" lon="4.40463">
        <ele>740.2</ele>
        <time>2022-06-26T11:44:12Z</time>
      </trkpt>
      <trkpt lat="45.8172" lon="4.40469">
        <ele>739.8</ele>
        <time>2022-06-26T11:44:13Z</time>
      </trkpt>
      <trkpt lat="45.81715" lon="4.40474">
        <ele>739.4</ele>
        <time>2022-06-26T11:44:14Z</time>
      </trkpt>
      <trkpt lat="45.81711" lon="4.40479">
        <ele>739</ele>
        <time>2022-06-26T11:44:15Z</time>
      </trkpt>
      <trkpt lat="45.81705" lon="4.40482">
        <ele>738.6</ele>
        <time>2022-06-26T11:44:16Z</time>
      </trkpt>
      <trkpt lat="45.817" lon="4.40484">
        <ele>738.2</ele>
        <time>2022-06-26T11:44:17Z</time>
      </trkpt>
      <trkpt lat="45.81696" lon="4.40485">
        <ele>737.8</ele>
        <time>2022-06-26T11:44:18Z</time>
      </trkpt>
      <trkpt lat="45.81691" lon="4.40486">
        <ele>737.6</ele>
        <time>2022-06-26T11:44:19Z</time>
      </trkpt>
      <trkpt lat="45.81686" lon="4.40486">
        <ele>737.2</ele>
        <time>2022-06-26T11:44:20Z</time>
      </trkpt>
      <trkpt lat="45.81681" lon="4.40486">
        <ele>737</ele>
        <time>2022-06-26T11:44:21Z</time>
      </trkpt>
      <trkpt lat="45.81676" lon="4.40487">
        <ele>736.8</ele>
        <time>2022-06-26T11:44:22Z</time>
      </trkpt>
      <trkpt lat="45.81671" lon="4.40489">
        <ele>736.8</ele>
        <time>2022-06-26T11:44:23Z</time>
      </trkpt>
      <trkpt lat="45.81667" lon="4.40493">
        <ele>736.4</ele>
        <time>2022-06-26T11:44:24Z</time>
      </trkpt>
      <trkpt lat="45.81662" lon="4.40496">
        <ele>736.4</ele>
        <time>2022-06-26T11:44:25Z</time>
      </trkpt>
      <trkpt lat="45.81658" lon="4.405">
        <ele>736.4</ele>
        <time>2022-06-26T11:44:26Z</time>
      </trkpt>
      <trkpt lat="45.81654" lon="4.40503">
        <ele>736.4</ele>
        <time>2022-06-26T11:44:27Z</time>
      </trkpt>
      <trkpt lat="45.81651" lon="4.40505">
        <ele>736.4</ele>
        <time>2022-06-26T11:44:28Z</time>
      </trkpt>
      <trkpt lat="45.81648" lon="4.40508">
        <ele>736.6</ele>
        <time>2022-06-26T11:44:29Z</time>
      </trkpt>
      <trkpt lat="45.81645" lon="4.40511">
        <ele>736.8</ele>
        <time>2022-06-26T11:44:30Z</time>
      </trkpt>
      <trkpt lat="45.81643" lon="4.40514">
        <ele>737</ele>
        <time>2022-06-26T11:44:31Z</time>
      </trkpt>
      <trkpt lat="45.8164" lon="4.40516">
        <ele>737.4</ele>
        <time>2022-06-26T11:44:32Z</time>
      </trkpt>
      <trkpt lat="45.81638" lon="4.40519">
        <ele>737.4</ele>
        <time>2022-06-26T11:44:33Z</time>
      </trkpt>
      <trkpt lat="45.81636" lon="4.40521">
        <ele>737.8</ele>
        <time>2022-06-26T11:44:34Z</time>
      </trkpt>
      <trkpt lat="45.81634" lon="4.40523">
        <ele>737.8</ele>
        <time>2022-06-26T11:44:35Z</time>
      </trkpt>
      <trkpt lat="45.81632" lon="4.40524">
        <ele>738</ele>
        <time>2022-06-26T11:44:36Z</time>
      </trkpt>
      <trkpt lat="45.8163" lon="4.40525">
        <ele>738.2</ele>
        <time>2022-06-26T11:44:37Z</time>
      </trkpt>
      <trkpt lat="45.81628" lon="4.40527">
        <ele>738.2</ele>
        <time>2022-06-26T11:44:38Z</time>
      </trkpt>
      <trkpt lat="45.81625" lon="4.40528">
        <ele>738.6</ele>
        <time>2022-06-26T11:44:39Z</time>
      </trkpt>
      <trkpt lat="45.81623" lon="4.40529">
        <ele>739</ele>
        <time>2022-06-26T11:44:40Z</time>
      </trkpt>
      <trkpt lat="45.81621" lon="4.40531">
        <ele>739</ele>
        <time>2022-06-26T11:44:41Z</time>
      </trkpt>
      <trkpt lat="45.81619" lon="4.40533">
        <ele>739.2</ele>
        <time>2022-06-26T11:44:42Z</time>
      </trkpt>
      <trkpt lat="45.81617" lon="4.40534">
        <ele>739.4</ele>
        <time>2022-06-26T11:44:43Z</time>
      </trkpt>
      <trkpt lat="45.81615" lon="4.40536">
        <ele>739.8</ele>
        <time>2022-06-26T11:44:44Z</time>
      </trkpt>
      <trkpt lat="45.81613" lon="4.40537">
        <ele>740</ele>
        <time>2022-06-26T11:44:45Z</time>
      </trkpt>
      <trkpt lat="45.81612" lon="4.40538">
        <ele>740.2</ele>
        <time>2022-06-26T11:44:46Z</time>
      </trkpt>
      <trkpt lat="45.8161" lon="4.4054">
        <ele>740.6</ele>
        <time>2022-06-26T11:44:47Z</time>
      </trkpt>
      <trkpt lat="45.81608" lon="4.40542">
        <ele>740.8</ele>
        <time>2022-06-26T11:44:48Z</time>
      </trkpt>
      <trkpt lat="45.81607" lon="4.40543">
        <ele>741</ele>
        <time>2022-06-26T11:44:49Z</time>
      </trkpt>
      <trkpt lat="45.81605" lon="4.40545">
        <ele>741.2</ele>
        <time>2022-06-26T11:44:50Z</time>
      </trkpt>
      <trkpt lat="45.81603" lon="4.40546">
        <ele>741.4</ele>
        <time>2022-06-26T11:44:51Z</time>
      </trkpt>
      <trkpt lat="45.81601" lon="4.40547">
        <ele>741.8</ele>
        <time>2022-06-26T11:44:52Z</time>
      </trkpt>
      <trkpt lat="45.81599" lon="4.40548">
        <ele>741.8</ele>
        <time>2022-06-26T11:44:53Z</time>
      </trkpt>
      <trkpt lat="45.81597" lon="4.40549">
        <ele>742.2</ele>
        <time>2022-06-26T11:44:54Z</time>
      </trkpt>
      <trkpt lat="45.81596" lon="4.40551">
        <ele>742.4</ele>
        <time>2022-06-26T11:44:55Z</time>
      </trkpt>
      <trkpt lat="45.81595" lon="4.40553">
        <ele>742.6</ele>
        <time>2022-06-26T11:44:56Z</time>
      </trkpt>
      <trkpt lat="45.81593" lon="4.40555">
        <ele>743</ele>
        <time>2022-06-26T11:44:57Z</time>
      </trkpt>
      <trkpt lat="45.81592" lon="4.40556">
        <ele>743.2</ele>
        <time>2022-06-26T11:44:58Z</time>
      </trkpt>
      <trkpt lat="45.8159" lon="4.40557">
        <ele>743.4</ele>
        <time>2022-06-26T11:44:59Z</time>
      </trkpt>
      <trkpt lat="45.81588" lon="4.40559">
        <ele>743.6</ele>
        <time>2022-06-26T11:45:00Z</time>
      </trkpt>
      <trkpt lat="45.81587" lon="4.40561">
        <ele>743.6</ele>
        <time>2022-06-26T11:45:01Z</time>
      </trkpt>
      <trkpt lat="45.81586" lon="4.40562">
        <ele>743.8</ele>
        <time>2022-06-26T11:45:02Z</time>
      </trkpt>
      <trkpt lat="45.81584" lon="4.40562">
        <ele>743.8</ele>
        <time>2022-06-26T11:45:03Z</time>
      </trkpt>
      <trkpt lat="45.81583" lon="4.40563">
        <ele>744.2</ele>
        <time>2022-06-26T11:45:04Z</time>
      </trkpt>
      <trkpt lat="45.81581" lon="4.40564">
        <ele>744.2</ele>
        <time>2022-06-26T11:45:05Z</time>
      </trkpt>
      <trkpt lat="45.8158" lon="4.40566">
        <ele>744.6</ele>
        <time>2022-06-26T11:45:06Z</time>
      </trkpt>
      <trkpt lat="45.81578" lon="4.40567">
        <ele>744.8</ele>
        <time>2022-06-26T11:45:07Z</time>
      </trkpt>
      <trkpt lat="45.81577" lon="4.40568">
        <ele>745</ele>
        <time>2022-06-26T11:45:08Z</time>
      </trkpt>
      <trkpt lat="45.81575" lon="4.40569">
        <ele>745</ele>
        <time>2022-06-26T11:45:09Z</time>
      </trkpt>
      <trkpt lat="45.81573" lon="4.40568">
        <ele>745.4</ele>
        <time>2022-06-26T11:45:10Z</time>
      </trkpt>
      <trkpt lat="45.81572" lon="4.40568">
        <ele>745.4</ele>
        <time>2022-06-26T11:45:11Z</time>
      </trkpt>
      <trkpt lat="45.81571" lon="4.40568">
        <ele>745.4</ele>
        <time>2022-06-26T11:45:12Z</time>
      </trkpt>
      <trkpt lat="45.81569" lon="4.40568">
        <ele>745.6</ele>
        <time>2022-06-26T11:45:13Z</time>
      </trkpt>
      <trkpt lat="45.81568" lon="4.40569">
        <ele>745.6</ele>
        <time>2022-06-26T11:45:14Z</time>
      </trkpt>
      <trkpt lat="45.81567" lon="4.40572">
        <ele>745.6</ele>
        <time>2022-06-26T11:45:15Z</time>
      </trkpt>
      <trkpt lat="45.81567" lon="4.40574">
        <ele>745.8</ele>
        <time>2022-06-26T11:45:16Z</time>
      </trkpt>
      <trkpt lat="45.81567" lon="4.40576">
        <ele>745.8</ele>
        <time>2022-06-26T11:45:17Z</time>
      </trkpt>
      <trkpt lat="45.81567" lon="4.40578">
        <ele>746.2</ele>
        <time>2022-06-26T11:45:18Z</time>
      </trkpt>
      <trkpt lat="45.81567" lon="4.4058">
        <ele>746.2</ele>
        <time>2022-06-26T11:45:19Z</time>
      </trkpt>
      <trkpt lat="45.81566" lon="4.40582">
        <ele>746.4</ele>
        <time>2022-06-26T11:45:20Z</time>
      </trkpt>
      <trkpt lat="45.81564" lon="4.40584">
        <ele>746.6</ele>
        <time>2022-06-26T11:45:21Z</time>
      </trkpt>
      <trkpt lat="45.81562" lon="4.40586">
        <ele>746.8</ele>
        <time>2022-06-26T11:45:22Z</time>
      </trkpt>
      <trkpt lat="45.81561" lon="4.40587">
        <ele>747</ele>
        <time>2022-06-26T11:45:23Z</time>
      </trkpt>
      <trkpt lat="45.81561" lon="4.40588">
        <ele>747</ele>
        <time>2022-06-26T11:45:24Z</time>
      </trkpt>
      <trkpt lat="45.81561" lon="4.40589">
        <ele>747.4</ele>
        <time>2022-06-26T11:45:25Z</time>
      </trkpt>
      <trkpt lat="45.81565" lon="4.40583">
        <ele>747.6</ele>
        <time>2022-06-26T11:45:29Z</time>
      </trkpt>
      <trkpt lat="45.81566" lon="4.4058">
        <ele>747.6</ele>
        <time>2022-06-26T11:45:30Z</time>
      </trkpt>
      <trkpt lat="45.81568" lon="4.40577">
        <ele>747.4</ele>
        <time>2022-06-26T11:45:31Z</time>
      </trkpt>
      <trkpt lat="45.81571" lon="4.40574">
        <ele>747.4</ele>
        <time>2022-06-26T11:45:32Z</time>
      </trkpt>
      <trkpt lat="45.81573" lon="4.40572">
        <ele>747</ele>
        <time>2022-06-26T11:45:33Z</time>
      </trkpt>
      <trkpt lat="45.81576" lon="4.40569">
        <ele>746.8</ele>
        <time>2022-06-26T11:45:34Z</time>
      </trkpt>
      <trkpt lat="45.8158" lon="4.40566">
        <ele>746.6</ele>
        <time>2022-06-26T11:45:35Z</time>
      </trkpt>
      <trkpt lat="45.81583" lon="4.40563">
        <ele>746.2</ele>
        <time>2022-06-26T11:45:36Z</time>
      </trkpt>
      <trkpt lat="45.81587" lon="4.4056">
        <ele>746</ele>
        <time>2022-06-26T11:45:37Z</time>
      </trkpt>
      <trkpt lat="45.8159" lon="4.40556">
        <ele>745.6</ele>
        <time>2022-06-26T11:45:38Z</time>
      </trkpt>
      <trkpt lat="45.81594" lon="4.40553">
        <ele>745.4</ele>
        <time>2022-06-26T11:45:39Z</time>
      </trkpt>
      <trkpt lat="45.81597" lon="4.4055">
        <ele>745</ele>
        <time>2022-06-26T11:45:40Z</time>
      </trkpt>
      <trkpt lat="45.81601" lon="4.40546">
        <ele>744.6</ele>
        <time>2022-06-26T11:45:41Z</time>
      </trkpt>
      <trkpt lat="45.81604" lon="4.40542">
        <ele>744.2</ele>
        <time>2022-06-26T11:45:42Z</time>
      </trkpt>
      <trkpt lat="45.81608" lon="4.40538">
        <ele>743.8</ele>
        <time>2022-06-26T11:45:43Z</time>
      </trkpt>
      <trkpt lat="45.81613" lon="4.40535">
        <ele>743.4</ele>
        <time>2022-06-26T11:45:44Z</time>
      </trkpt>
      <trkpt lat="45.81618" lon="4.40531">
        <ele>743</ele>
        <time>2022-06-26T11:45:45Z</time>
      </trkpt>
      <trkpt lat="45.81623" lon="4.40527">
        <ele>742.4</ele>
        <time>2022-06-26T11:45:46Z</time>
      </trkpt>
      <trkpt lat="45.81628" lon="4.40523">
        <ele>741.8</ele>
        <time>2022-06-26T11:45:47Z</time>
      </trkpt>
      <trkpt lat="45.81633" lon="4.4052">
        <ele>741.2</ele>
        <time>2022-06-26T11:45:48Z</time>
      </trkpt>
      <trkpt lat="45.81638" lon="4.40516">
        <ele>740.8</ele>
        <time>2022-06-26T11:45:49Z</time>
      </trkpt>
      <trkpt lat="45.81643" lon="4.40512">
        <ele>740.4</ele>
        <time>2022-06-26T11:45:50Z</time>
      </trkpt>
      <trkpt lat="45.81647" lon="4.40508">
        <ele>740</ele>
        <time>2022-06-26T11:45:51Z</time>
      </trkpt>
      <trkpt lat="45.81652" lon="4.40504">
        <ele>739.2</ele>
        <time>2022-06-26T11:45:52Z</time>
      </trkpt>
      <trkpt lat="45.81655" lon="4.405">
        <ele>738.6</ele>
        <time>2022-06-26T11:45:53Z</time>
      </trkpt>
      <trkpt lat="45.81659" lon="4.40496">
        <ele>738.2</ele>
        <time>2022-06-26T11:45:54Z</time>
      </trkpt>
      <trkpt lat="45.81662" lon="4.40493">
        <ele>737.8</ele>
        <time>2022-06-26T11:45:55Z</time>
      </trkpt>
      <trkpt lat="45.81664" lon="4.40491">
        <ele>737.4</ele>
        <time>2022-06-26T11:45:56Z</time>
      </trkpt>
      <trkpt lat="45.81666" lon="4.40489">
        <ele>737</ele>
        <time>2022-06-26T11:45:57Z</time>
      </trkpt>
      <trkpt lat="45.81667" lon="4.40487">
        <ele>736.8</ele>
        <time>2022-06-26T11:45:58Z</time>
      </trkpt>
      <trkpt lat="45.81667" lon="4.40485">
        <ele>736.4</ele>
        <time>2022-06-26T11:45:59Z</time>
      </trkpt>
      <trkpt lat="45.81666" lon="4.40483">
        <ele>736.4</ele>
        <time>2022-06-26T11:46:00Z</time>
      </trkpt>
      <trkpt lat="45.81664" lon="4.40482">
        <ele>736.2</ele>
        <time>2022-06-26T11:46:01Z</time>
      </trkpt>
      <trkpt lat="45.81662" lon="4.40481">
        <ele>736.2</ele>
        <time>2022-06-26T11:46:02Z</time>
      </trkpt>
      <trkpt lat="45.81659" lon="4.40481">
        <ele>736</ele>
        <time>2022-06-26T11:46:03Z</time>
      </trkpt>
      <trkpt lat="45.81657" lon="4.40482">
        <ele>736</ele>
        <time>2022-06-26T11:46:04Z</time>
      </trkpt>
      <trkpt lat="45.81654" lon="4.40482">
        <ele>736</ele>
        <time>2022-06-26T11:46:05Z</time>
      </trkpt>
      <trkpt lat="45.81651" lon="4.40482">
        <ele>735.8</ele>
        <time>2022-06-26T11:46:06Z</time>
      </trkpt>
      <trkpt lat="45.81648" lon="4.40482">
        <ele>735.8</ele>
        <time>2022-06-26T11:46:07Z</time>
      </trkpt>
      <trkpt lat="45.81644" lon="4.40482">
        <ele>735.8</ele>
        <time>2022-06-26T11:46:08Z</time>
      </trkpt>
      <trkpt lat="45.8164" lon="4.40481">
        <ele>735.8</ele>
        <time>2022-06-26T11:46:09Z</time>
      </trkpt>
      <trkpt lat="45.81636" lon="4.40481">
        <ele>735.6</ele>
        <time>2022-06-26T11:46:10Z</time>
      </trkpt>
      <trkpt lat="45.81632" lon="4.4048">
        <ele>735.6</ele>
        <time>2022-06-26T11:46:11Z</time>
      </trkpt>
      <trkpt lat="45.81627" lon="4.4048">
        <ele>735.2</ele>
        <time>2022-06-26T11:46:12Z</time>
      </trkpt>
      <trkpt lat="45.81622" lon="4.4048">
        <ele>735.2</ele>
        <time>2022-06-26T11:46:13Z</time>
      </trkpt>
      <trkpt lat="45.81617" lon="4.4048">
        <ele>735</ele>
        <time>2022-06-26T11:46:14Z</time>
      </trkpt>
      <trkpt lat="45.81612" lon="4.40479">
        <ele>734.8</ele>
        <time>2022-06-26T11:46:15Z</time>
      </trkpt>
      <trkpt lat="45.81607" lon="4.40479">
        <ele>734.8</ele>
        <time>2022-06-26T11:46:16Z</time>
      </trkpt>
      <trkpt lat="45.81601" lon="4.40479">
        <ele>734.4</ele>
        <time>2022-06-26T11:46:17Z</time>
      </trkpt>
      <trkpt lat="45.81596" lon="4.40479">
        <ele>734.4</ele>
        <time>2022-06-26T11:46:18Z</time>
      </trkpt>
      <trkpt lat="45.8159" lon="4.40479">
        <ele>734</ele>
        <time>2022-06-26T11:46:19Z</time>
      </trkpt>
      <trkpt lat="45.81584" lon="4.40479">
        <ele>734</ele>
        <time>2022-06-26T11:46:20Z</time>
      </trkpt>
      <trkpt lat="45.81577" lon="4.40479">
        <ele>733.8</ele>
        <time>2022-06-26T11:46:21Z</time>
      </trkpt>
      <trkpt lat="45.8157" lon="4.40479">
        <ele>733.4</ele>
        <time>2022-06-26T11:46:22Z</time>
      </trkpt>
      <trkpt lat="45.81563" lon="4.40479">
        <ele>733.4</ele>
        <time>2022-06-26T11:46:23Z</time>
      </trkpt>
      <trkpt lat="45.81556" lon="4.40479">
        <ele>733.2</ele>
        <time>2022-06-26T11:46:24Z</time>
      </trkpt>
      <trkpt lat="45.81549" lon="4.40479">
        <ele>732.8</ele>
        <time>2022-06-26T11:46:25Z</time>
      </trkpt>
      <trkpt lat="45.81541" lon="4.40479">
        <ele>732.6</ele>
        <time>2022-06-26T11:46:26Z</time>
      </trkpt>
      <trkpt lat="45.81534" lon="4.40479">
        <ele>732.4</ele>
        <time>2022-06-26T11:46:27Z</time>
      </trkpt>
      <trkpt lat="45.81527" lon="4.40478">
        <ele>732.4</ele>
        <time>2022-06-26T11:46:28Z</time>
      </trkpt>
      <trkpt lat="45.8152" lon="4.40477">
        <ele>732</ele>
        <time>2022-06-26T11:46:29Z</time>
      </trkpt>
      <trkpt lat="45.81513" lon="4.40475">
        <ele>731.6</ele>
        <time>2022-06-26T11:46:30Z</time>
      </trkpt>
      <trkpt lat="45.81506" lon="4.40473">
        <ele>731.6</ele>
        <time>2022-06-26T11:46:31Z</time>
      </trkpt>
      <trkpt lat="45.815" lon="4.4047">
        <ele>731.6</ele>
        <time>2022-06-26T11:46:32Z</time>
      </trkpt>
      <trkpt lat="45.81493" lon="4.40466">
        <ele>731.6</ele>
        <time>2022-06-26T11:46:33Z</time>
      </trkpt>
      <trkpt lat="45.81487" lon="4.40463">
        <ele>731.6</ele>
        <time>2022-06-26T11:46:34Z</time>
      </trkpt>
      <trkpt lat="45.81481" lon="4.40459">
        <ele>731.6</ele>
        <time>2022-06-26T11:46:35Z</time>
      </trkpt>
      <trkpt lat="45.81474" lon="4.40456">
        <ele>731.6</ele>
        <time>2022-06-26T11:46:36Z</time>
      </trkpt>
      <trkpt lat="45.81468" lon="4.40453">
        <ele>731.6</ele>
        <time>2022-06-26T11:46:37Z</time>
      </trkpt>
      <trkpt lat="45.81462" lon="4.4045">
        <ele>731.6</ele>
        <time>2022-06-26T11:46:38Z</time>
      </trkpt>
      <trkpt lat="45.81456" lon="4.40447">
        <ele>731.6</ele>
        <time>2022-06-26T11:46:39Z</time>
      </trkpt>
      <trkpt lat="45.8145" lon="4.40445">
        <ele>731.6</ele>
        <time>2022-06-26T11:46:40Z</time>
      </trkpt>
      <trkpt lat="45.81444" lon="4.40442">
        <ele>732</ele>
        <time>2022-06-26T11:46:41Z</time>
      </trkpt>
      <trkpt lat="45.81438" lon="4.4044">
        <ele>732</ele>
        <time>2022-06-26T11:46:42Z</time>
      </trkpt>
      <trkpt lat="45.81432" lon="4.40438">
        <ele>732</ele>
        <time>2022-06-26T11:46:43Z</time>
      </trkpt>
      <trkpt lat="45.81426" lon="4.40436">
        <ele>732</ele>
        <time>2022-06-26T11:46:44Z</time>
      </trkpt>
      <trkpt lat="45.8142" lon="4.40435">
        <ele>732</ele>
        <time>2022-06-26T11:46:45Z</time>
      </trkpt>
      <trkpt lat="45.81414" lon="4.40435">
        <ele>732</ele>
        <time>2022-06-26T11:46:46Z</time>
      </trkpt>
      <trkpt lat="45.81408" lon="4.40435">
        <ele>732</ele>
        <time>2022-06-26T11:46:47Z</time>
      </trkpt>
      <trkpt lat="45.81402" lon="4.40436">
        <ele>732</ele>
        <time>2022-06-26T11:46:48Z</time>
      </trkpt>
      <trkpt lat="45.81397" lon="4.40439">
        <ele>732</ele>
        <time>2022-06-26T11:46:49Z</time>
      </trkpt>
      <trkpt lat="45.81391" lon="4.40441">
        <ele>732.2</ele>
        <time>2022-06-26T11:46:50Z</time>
      </trkpt>
      <trkpt lat="45.81386" lon="4.40444">
        <ele>732.2</ele>
        <time>2022-06-26T11:46:51Z</time>
      </trkpt>
      <trkpt lat="45.81382" lon="4.40446">
        <ele>732.4</ele>
        <time>2022-06-26T11:46:52Z</time>
      </trkpt>
      <trkpt lat="45.81378" lon="4.40449">
        <ele>732.4</ele>
        <time>2022-06-26T11:46:53Z</time>
      </trkpt>
      <trkpt lat="45.81373" lon="4.40451">
        <ele>732.8</ele>
        <time>2022-06-26T11:46:54Z</time>
      </trkpt>
      <trkpt lat="45.81369" lon="4.40453">
        <ele>733</ele>
        <time>2022-06-26T11:46:55Z</time>
      </trkpt>
      <trkpt lat="45.81365" lon="4.40455">
        <ele>733</ele>
        <time>2022-06-26T11:46:56Z</time>
      </trkpt>
      <trkpt lat="45.81362" lon="4.40457">
        <ele>733.4</ele>
        <time>2022-06-26T11:46:57Z</time>
      </trkpt>
      <trkpt lat="45.81358" lon="4.40459">
        <ele>733.6</ele>
        <time>2022-06-26T11:46:58Z</time>
      </trkpt>
      <trkpt lat="45.81355" lon="4.40461">
        <ele>733.6</ele>
        <time>2022-06-26T11:46:59Z</time>
      </trkpt>
      <trkpt lat="45.81352" lon="4.40464">
        <ele>734</ele>
        <time>2022-06-26T11:47:00Z</time>
      </trkpt>
      <trkpt lat="45.81348" lon="4.40466">
        <ele>734</ele>
        <time>2022-06-26T11:47:01Z</time>
      </trkpt>
      <trkpt lat="45.81345" lon="4.40467">
        <ele>734</ele>
        <time>2022-06-26T11:47:02Z</time>
      </trkpt>
      <trkpt lat="45.81342" lon="4.40469">
        <ele>734.4</ele>
        <time>2022-06-26T11:47:03Z</time>
      </trkpt>
      <trkpt lat="45.81338" lon="4.40471">
        <ele>734.4</ele>
        <time>2022-06-26T11:47:04Z</time>
      </trkpt>
      <trkpt lat="45.81335" lon="4.40474">
        <ele>734.6</ele>
        <time>2022-06-26T11:47:05Z</time>
      </trkpt>
      <trkpt lat="45.81332" lon="4.40476">
        <ele>734.6</ele>
        <time>2022-06-26T11:47:06Z</time>
      </trkpt>
      <trkpt lat="45.81329" lon="4.40478">
        <ele>734.8</ele>
        <time>2022-06-26T11:47:07Z</time>
      </trkpt>
      <trkpt lat="45.81326" lon="4.4048">
        <ele>734.8</ele>
        <time>2022-06-26T11:47:08Z</time>
      </trkpt>
      <trkpt lat="45.81324" lon="4.40482">
        <ele>735.2</ele>
        <time>2022-06-26T11:47:09Z</time>
      </trkpt>
      <trkpt lat="45.81321" lon="4.40484">
        <ele>735.2</ele>
        <time>2022-06-26T11:47:10Z</time>
      </trkpt>
      <trkpt lat="45.81318" lon="4.40486">
        <ele>735.6</ele>
        <time>2022-06-26T11:47:11Z</time>
      </trkpt>
      <trkpt lat="45.81316" lon="4.40487">
        <ele>735.6</ele>
        <time>2022-06-26T11:47:12Z</time>
      </trkpt>
      <trkpt lat="45.81313" lon="4.40488">
        <ele>735.8</ele>
        <time>2022-06-26T11:47:13Z</time>
      </trkpt>
      <trkpt lat="45.81311" lon="4.4049">
        <ele>735.8</ele>
        <time>2022-06-26T11:47:14Z</time>
      </trkpt>
      <trkpt lat="45.81308" lon="4.40492">
        <ele>736</ele>
        <time>2022-06-26T11:47:15Z</time>
      </trkpt>
      <trkpt lat="45.81306" lon="4.40494">
        <ele>736</ele>
        <time>2022-06-26T11:47:16Z</time>
      </trkpt>
      <trkpt lat="45.81303" lon="4.40496">
        <ele>736.2</ele>
        <time>2022-06-26T11:47:17Z</time>
      </trkpt>
      <trkpt lat="45.813" lon="4.40498">
        <ele>736.2</ele>
        <time>2022-06-26T11:47:18Z</time>
      </trkpt>
      <trkpt lat="45.81297" lon="4.40502">
        <ele>736.2</ele>
        <time>2022-06-26T11:47:19Z</time>
      </trkpt>
      <trkpt lat="45.81295" lon="4.40505">
        <ele>736.2</ele>
        <time>2022-06-26T11:47:20Z</time>
      </trkpt>
      <trkpt lat="45.81294" lon="4.40509">
        <ele>736.6</ele>
        <time>2022-06-26T11:47:21Z</time>
      </trkpt>
      <trkpt lat="45.81293" lon="4.40514">
        <ele>736.6</ele>
        <time>2022-06-26T11:47:22Z</time>
      </trkpt>
      <trkpt lat="45.81291" lon="4.40518">
        <ele>736.6</ele>
        <time>2022-06-26T11:47:23Z</time>
      </trkpt>
      <trkpt lat="45.8129" lon="4.40523">
        <ele>736.6</ele>
        <time>2022-06-26T11:47:24Z</time>
      </trkpt>
      <trkpt lat="45.81288" lon="4.40528">
        <ele>736.6</ele>
        <time>2022-06-26T11:47:25Z</time>
      </trkpt>
      <trkpt lat="45.81287" lon="4.40532">
        <ele>736.8</ele>
        <time>2022-06-26T11:47:26Z</time>
      </trkpt>
      <trkpt lat="45.81285" lon="4.40538">
        <ele>736.8</ele>
        <time>2022-06-26T11:47:27Z</time>
      </trkpt>
      <trkpt lat="45.81284" lon="4.40543">
        <ele>736.8</ele>
        <time>2022-06-26T11:47:28Z</time>
      </trkpt>
      <trkpt lat="45.81283" lon="4.40548">
        <ele>736.8</ele>
        <time>2022-06-26T11:47:29Z</time>
      </trkpt>
      <trkpt lat="45.81281" lon="4.40553">
        <ele>737</ele>
        <time>2022-06-26T11:47:30Z</time>
      </trkpt>
      <trkpt lat="45.81281" lon="4.40559">
        <ele>737</ele>
        <time>2022-06-26T11:47:31Z</time>
      </trkpt>
      <trkpt lat="45.8128" lon="4.40565">
        <ele>737</ele>
        <time>2022-06-26T11:47:32Z</time>
      </trkpt>
      <trkpt lat="45.8128" lon="4.40571">
        <ele>737</ele>
        <time>2022-06-26T11:47:33Z</time>
      </trkpt>
      <trkpt lat="45.8128" lon="4.40577">
        <ele>737</ele>
        <time>2022-06-26T11:47:34Z</time>
      </trkpt>
      <trkpt lat="45.81279" lon="4.40583">
        <ele>737</ele>
        <time>2022-06-26T11:47:35Z</time>
      </trkpt>
      <trkpt lat="45.81279" lon="4.40589">
        <ele>737.2</ele>
        <time>2022-06-26T11:47:36Z</time>
      </trkpt>
      <trkpt lat="45.81278" lon="4.40595">
        <ele>737.2</ele>
        <time>2022-06-26T11:47:37Z</time>
      </trkpt>
      <trkpt lat="45.81278" lon="4.406">
        <ele>737.2</ele>
        <time>2022-06-26T11:47:38Z</time>
      </trkpt>
      <trkpt lat="45.81277" lon="4.40606">
        <ele>737.6</ele>
        <time>2022-06-26T11:47:39Z</time>
      </trkpt>
      <trkpt lat="45.81276" lon="4.40612">
        <ele>737.6</ele>
        <time>2022-06-26T11:47:40Z</time>
      </trkpt>
      <trkpt lat="45.81275" lon="4.40617">
        <ele>737.8</ele>
        <time>2022-06-26T11:47:41Z</time>
      </trkpt>
      <trkpt lat="45.81274" lon="4.40623">
        <ele>737.8</ele>
        <time>2022-06-26T11:47:42Z</time>
      </trkpt>
      <trkpt lat="45.81273" lon="4.40628">
        <ele>737.8</ele>
        <time>2022-06-26T11:47:43Z</time>
      </trkpt>
      <trkpt lat="45.81273" lon="4.40633">
        <ele>738</ele>
        <time>2022-06-26T11:47:44Z</time>
      </trkpt>
      <trkpt lat="45.81272" lon="4.40639">
        <ele>738</ele>
        <time>2022-06-26T11:47:45Z</time>
      </trkpt>
      <trkpt lat="45.81271" lon="4.40645">
        <ele>738.4</ele>
        <time>2022-06-26T11:47:46Z</time>
      </trkpt>
      <trkpt lat="45.81271" lon="4.40651">
        <ele>738.4</ele>
        <time>2022-06-26T11:47:47Z</time>
      </trkpt>
      <trkpt lat="45.8127" lon="4.40657">
        <ele>738.6</ele>
        <time>2022-06-26T11:47:48Z</time>
      </trkpt>
      <trkpt lat="45.8127" lon="4.40663">
        <ele>738.6</ele>
        <time>2022-06-26T11:47:49Z</time>
      </trkpt>
      <trkpt lat="45.8127" lon="4.40669">
        <ele>738.6</ele>
        <time>2022-06-26T11:47:50Z</time>
      </trkpt>
      <trkpt lat="45.81269" lon="4.40675">
        <ele>738.8</ele>
        <time>2022-06-26T11:47:51Z</time>
      </trkpt>
      <trkpt lat="45.81268" lon="4.40681">
        <ele>738.8</ele>
        <time>2022-06-26T11:47:52Z</time>
      </trkpt>
      <trkpt lat="45.81266" lon="4.40687">
        <ele>738.8</ele>
        <time>2022-06-26T11:47:53Z</time>
      </trkpt>
      <trkpt lat="45.81264" lon="4.40693">
        <ele>738.8</ele>
        <time>2022-06-26T11:47:54Z</time>
      </trkpt>
      <trkpt lat="45.81261" lon="4.40699">
        <ele>739</ele>
        <time>2022-06-26T11:47:55Z</time>
      </trkpt>
      <trkpt lat="45.81259" lon="4.40705">
        <ele>739</ele>
        <time>2022-06-26T11:47:56Z</time>
      </trkpt>
      <trkpt lat="45.81256" lon="4.4071">
        <ele>739.2</ele>
        <time>2022-06-26T11:47:57Z</time>
      </trkpt>
      <trkpt lat="45.81253" lon="4.40716">
        <ele>739.2</ele>
        <time>2022-06-26T11:47:58Z</time>
      </trkpt>
      <trkpt lat="45.8125" lon="4.40722">
        <ele>739.2</ele>
        <time>2022-06-26T11:47:59Z</time>
      </trkpt>
      <trkpt lat="45.81246" lon="4.40727">
        <ele>739.6</ele>
        <time>2022-06-26T11:48:00Z</time>
      </trkpt>
      <trkpt lat="45.81243" lon="4.40732">
        <ele>739.6</ele>
        <time>2022-06-26T11:48:01Z</time>
      </trkpt>
      <trkpt lat="45.8124" lon="4.40737">
        <ele>739.8</ele>
        <time>2022-06-26T11:48:02Z</time>
      </trkpt>
      <trkpt lat="45.81238" lon="4.40742">
        <ele>739.8</ele>
        <time>2022-06-26T11:48:03Z</time>
      </trkpt>
      <trkpt lat="45.81235" lon="4.40748">
        <ele>740</ele>
        <time>2022-06-26T11:48:04Z</time>
      </trkpt>
      <trkpt lat="45.81233" lon="4.40753">
        <ele>740</ele>
        <time>2022-06-26T11:48:05Z</time>
      </trkpt>
      <trkpt lat="45.8123" lon="4.40758">
        <ele>740</ele>
        <time>2022-06-26T11:48:06Z</time>
      </trkpt>
      <trkpt lat="45.81228" lon="4.40763">
        <ele>740.2</ele>
        <time>2022-06-26T11:48:07Z</time>
      </trkpt>
      <trkpt lat="45.81225" lon="4.40768">
        <ele>740.2</ele>
        <time>2022-06-26T11:48:08Z</time>
      </trkpt>
      <trkpt lat="45.81222" lon="4.40773">
        <ele>740.4</ele>
        <time>2022-06-26T11:48:09Z</time>
      </trkpt>
      <trkpt lat="45.8122" lon="4.40778">
        <ele>740.4</ele>
        <time>2022-06-26T11:48:10Z</time>
      </trkpt>
      <trkpt lat="45.81217" lon="4.40783">
        <ele>740.4</ele>
        <time>2022-06-26T11:48:11Z</time>
      </trkpt>
      <trkpt lat="45.81214" lon="4.40788">
        <ele>740.4</ele>
        <time>2022-06-26T11:48:12Z</time>
      </trkpt>
      <trkpt lat="45.81211" lon="4.40793">
        <ele>740.8</ele>
        <time>2022-06-26T11:48:13Z</time>
      </trkpt>
      <trkpt lat="45.81207" lon="4.40798">
        <ele>740.8</ele>
        <time>2022-06-26T11:48:14Z</time>
      </trkpt>
      <trkpt lat="45.81204" lon="4.40803">
        <ele>740.8</ele>
        <time>2022-06-26T11:48:15Z</time>
      </trkpt>
      <trkpt lat="45.81201" lon="4.40808">
        <ele>741</ele>
        <time>2022-06-26T11:48:16Z</time>
      </trkpt>
      <trkpt lat="45.81198" lon="4.40813">
        <ele>741</ele>
        <time>2022-06-26T11:48:17Z</time>
      </trkpt>
      <trkpt lat="45.81195" lon="4.40818">
        <ele>741.2</ele>
        <time>2022-06-26T11:48:18Z</time>
      </trkpt>
      <trkpt lat="45.81191" lon="4.40823">
        <ele>741.2</ele>
        <time>2022-06-26T11:48:19Z</time>
      </trkpt>
      <trkpt lat="45.81188" lon="4.40828">
        <ele>741.4</ele>
        <time>2022-06-26T11:48:20Z</time>
      </trkpt>
      <trkpt lat="45.81185" lon="4.40833">
        <ele>741.4</ele>
        <time>2022-06-26T11:48:21Z</time>
      </trkpt>
      <trkpt lat="45.81181" lon="4.40837">
        <ele>741.4</ele>
        <time>2022-06-26T11:48:22Z</time>
      </trkpt>
      <trkpt lat="45.81178" lon="4.40841">
        <ele>741.8</ele>
        <time>2022-06-26T11:48:23Z</time>
      </trkpt>
      <trkpt lat="45.81175" lon="4.40845">
        <ele>741.8</ele>
        <time>2022-06-26T11:48:24Z</time>
      </trkpt>
      <trkpt lat="45.81172" lon="4.4085">
        <ele>741.8</ele>
        <time>2022-06-26T11:48:25Z</time>
      </trkpt>
      <trkpt lat="45.81168" lon="4.40854">
        <ele>742</ele>
        <time>2022-06-26T11:48:26Z</time>
      </trkpt>
      <trkpt lat="45.81165" lon="4.40859">
        <ele>742</ele>
        <time>2022-06-26T11:48:27Z</time>
      </trkpt>
      <trkpt lat="45.81162" lon="4.40864">
        <ele>742</ele>
        <time>2022-06-26T11:48:28Z</time>
      </trkpt>
      <trkpt lat="45.81158" lon="4.40869">
        <ele>742</ele>
        <time>2022-06-26T11:48:29Z</time>
      </trkpt>
      <trkpt lat="45.81155" lon="4.40874">
        <ele>742</ele>
        <time>2022-06-26T11:48:30Z</time>
      </trkpt>
      <trkpt lat="45.81151" lon="4.4088">
        <ele>742.2</ele>
        <time>2022-06-26T11:48:31Z</time>
      </trkpt>
      <trkpt lat="45.81148" lon="4.40885">
        <ele>742.2</ele>
        <time>2022-06-26T11:48:32Z</time>
      </trkpt>
      <trkpt lat="45.81144" lon="4.40891">
        <ele>742.2</ele>
        <time>2022-06-26T11:48:33Z</time>
      </trkpt>
      <trkpt lat="45.8114" lon="4.40896">
        <ele>742.6</ele>
        <time>2022-06-26T11:48:35Z</time>
      </trkpt>
      <trkpt lat="45.81137" lon="4.40901">
        <ele>742.6</ele>
        <time>2022-06-26T11:48:36Z</time>
      </trkpt>
      <trkpt lat="45.81133" lon="4.40905">
        <ele>742.6</ele>
        <time>2022-06-26T11:48:37Z</time>
      </trkpt>
      <trkpt lat="45.81129" lon="4.4091">
        <ele>742.6</ele>
        <time>2022-06-26T11:48:38Z</time>
      </trkpt>
      <trkpt lat="45.81126" lon="4.40914">
        <ele>742.6</ele>
        <time>2022-06-26T11:48:39Z</time>
      </trkpt>
      <trkpt lat="45.81122" lon="4.40919">
        <ele>742.8</ele>
        <time>2022-06-26T11:48:40Z</time>
      </trkpt>
      <trkpt lat="45.81119" lon="4.40924">
        <ele>742.8</ele>
        <time>2022-06-26T11:48:41Z</time>
      </trkpt>
      <trkpt lat="45.81116" lon="4.40928">
        <ele>743</ele>
        <time>2022-06-26T11:48:42Z</time>
      </trkpt>
      <trkpt lat="45.81112" lon="4.40933">
        <ele>743</ele>
        <time>2022-06-26T11:48:43Z</time>
      </trkpt>
      <trkpt lat="45.81109" lon="4.40937">
        <ele>743.2</ele>
        <time>2022-06-26T11:48:44Z</time>
      </trkpt>
      <trkpt lat="45.81105" lon="4.40942">
        <ele>743.2</ele>
        <time>2022-06-26T11:48:45Z</time>
      </trkpt>
      <trkpt lat="45.81102" lon="4.40946">
        <ele>743.4</ele>
        <time>2022-06-26T11:48:46Z</time>
      </trkpt>
      <trkpt lat="45.81098" lon="4.4095">
        <ele>743.4</ele>
        <time>2022-06-26T11:48:47Z</time>
      </trkpt>
      <trkpt lat="45.81095" lon="4.40955">
        <ele>743.4</ele>
        <time>2022-06-26T11:48:48Z</time>
      </trkpt>
      <trkpt lat="45.81091" lon="4.40959">
        <ele>743.6</ele>
        <time>2022-06-26T11:48:49Z</time>
      </trkpt>
      <trkpt lat="45.81088" lon="4.40964">
        <ele>743.6</ele>
        <time>2022-06-26T11:48:50Z</time>
      </trkpt>
      <trkpt lat="45.81085" lon="4.40969">
        <ele>744</ele>
        <time>2022-06-26T11:48:51Z</time>
      </trkpt>
      <trkpt lat="45.81082" lon="4.40973">
        <ele>744</ele>
        <time>2022-06-26T11:48:52Z</time>
      </trkpt>
      <trkpt lat="45.81078" lon="4.40978">
        <ele>744.2</ele>
        <time>2022-06-26T11:48:53Z</time>
      </trkpt>
      <trkpt lat="45.81075" lon="4.40983">
        <ele>744.2</ele>
        <time>2022-06-26T11:48:54Z</time>
      </trkpt>
      <trkpt lat="45.81072" lon="4.40987">
        <ele>744.2</ele>
        <time>2022-06-26T11:48:55Z</time>
      </trkpt>
      <trkpt lat="45.81068" lon="4.40992">
        <ele>744.2</ele>
        <time>2022-06-26T11:48:56Z</time>
      </trkpt>
      <trkpt lat="45.81065" lon="4.40996">
        <ele>744.2</ele>
        <time>2022-06-26T11:48:57Z</time>
      </trkpt>
      <trkpt lat="45.81061" lon="4.41001">
        <ele>744.4</ele>
        <time>2022-06-26T11:48:58Z</time>
      </trkpt>
      <trkpt lat="45.81058" lon="4.41005">
        <ele>744.4</ele>
        <time>2022-06-26T11:48:59Z</time>
      </trkpt>
      <trkpt lat="45.81054" lon="4.4101">
        <ele>744.8</ele>
        <time>2022-06-26T11:49:00Z</time>
      </trkpt>
      <trkpt lat="45.81051" lon="4.41014">
        <ele>744.8</ele>
        <time>2022-06-26T11:49:01Z</time>
      </trkpt>
      <trkpt lat="45.81048" lon="4.41019">
        <ele>744.8</ele>
        <time>2022-06-26T11:49:02Z</time>
      </trkpt>
      <trkpt lat="45.81044" lon="4.41024">
        <ele>744.8</ele>
        <time>2022-06-26T11:49:03Z</time>
      </trkpt>
      <trkpt lat="45.81041" lon="4.41028">
        <ele>745</ele>
        <time>2022-06-26T11:49:04Z</time>
      </trkpt>
      <trkpt lat="45.81038" lon="4.41033">
        <ele>745</ele>
        <time>2022-06-26T11:49:05Z</time>
      </trkpt>
      <trkpt lat="45.81035" lon="4.41037">
        <ele>745</ele>
        <time>2022-06-26T11:49:06Z</time>
      </trkpt>
      <trkpt lat="45.81032" lon="4.41042">
        <ele>745.2</ele>
        <time>2022-06-26T11:49:07Z</time>
      </trkpt>
      <trkpt lat="45.81029" lon="4.41046">
        <ele>745.2</ele>
        <time>2022-06-26T11:49:08Z</time>
      </trkpt>
      <trkpt lat="45.81026" lon="4.41051">
        <ele>745.2</ele>
        <time>2022-06-26T11:49:09Z</time>
      </trkpt>
      <trkpt lat="45.81023" lon="4.41055">
        <ele>745.2</ele>
        <time>2022-06-26T11:49:10Z</time>
      </trkpt>
      <trkpt lat="45.8102" lon="4.41059">
        <ele>745.4</ele>
        <time>2022-06-26T11:49:11Z</time>
      </trkpt>
      <trkpt lat="45.81017" lon="4.41063">
        <ele>745.4</ele>
        <time>2022-06-26T11:49:12Z</time>
      </trkpt>
      <trkpt lat="45.81014" lon="4.41067">
        <ele>745.4</ele>
        <time>2022-06-26T11:49:13Z</time>
      </trkpt>
      <trkpt lat="45.81011" lon="4.41071">
        <ele>745.8</ele>
        <time>2022-06-26T11:49:14Z</time>
      </trkpt>
      <trkpt lat="45.81007" lon="4.41075">
        <ele>745.8</ele>
        <time>2022-06-26T11:49:15Z</time>
      </trkpt>
      <trkpt lat="45.81004" lon="4.4108">
        <ele>745.8</ele>
        <time>2022-06-26T11:49:16Z</time>
      </trkpt>
      <trkpt lat="45.81001" lon="4.41084">
        <ele>745.8</ele>
        <time>2022-06-26T11:49:17Z</time>
      </trkpt>
      <trkpt lat="45.80997" lon="4.41089">
        <ele>745.8</ele>
        <time>2022-06-26T11:49:18Z</time>
      </trkpt>
      <trkpt lat="45.80994" lon="4.41094">
        <ele>745.8</ele>
        <time>2022-06-26T11:49:19Z</time>
      </trkpt>
      <trkpt lat="45.8099" lon="4.41099">
        <ele>745.8</ele>
        <time>2022-06-26T11:49:20Z</time>
      </trkpt>
      <trkpt lat="45.80987" lon="4.41105">
        <ele>745.4</ele>
        <time>2022-06-26T11:49:21Z</time>
      </trkpt>
      <trkpt lat="45.80984" lon="4.41111">
        <ele>745.4</ele>
        <time>2022-06-26T11:49:22Z</time>
      </trkpt>
      <trkpt lat="45.80981" lon="4.41118">
        <ele>745</ele>
        <time>2022-06-26T11:49:23Z</time>
      </trkpt>
      <trkpt lat="45.80978" lon="4.41125">
        <ele>744.8</ele>
        <time>2022-06-26T11:49:24Z</time>
      </trkpt>
      <trkpt lat="45.80975" lon="4.41133">
        <ele>744.6</ele>
        <time>2022-06-26T11:49:25Z</time>
      </trkpt>
      <trkpt lat="45.80973" lon="4.41141">
        <ele>744.6</ele>
        <time>2022-06-26T11:49:26Z</time>
      </trkpt>
      <trkpt lat="45.80971" lon="4.4115">
        <ele>744.2</ele>
        <time>2022-06-26T11:49:27Z</time>
      </trkpt>
      <trkpt lat="45.80968" lon="4.41159">
        <ele>743.8</ele>
        <time>2022-06-26T11:49:28Z</time>
      </trkpt>
      <trkpt lat="45.80964" lon="4.41172">
        <ele>743.6</ele>
        <time>2022-06-26T11:49:29Z</time>
      </trkpt>
      <trkpt lat="45.80962" lon="4.41177">
        <ele>743.2</ele>
        <time>2022-06-26T11:49:30Z</time>
      </trkpt>
      <trkpt lat="45.80959" lon="4.41186">
        <ele>743</ele>
        <time>2022-06-26T11:49:31Z</time>
      </trkpt>
      <trkpt lat="45.80956" lon="4.41196">
        <ele>742.6</ele>
        <time>2022-06-26T11:49:32Z</time>
      </trkpt>
      <trkpt lat="45.80953" lon="4.41206">
        <ele>742.6</ele>
        <time>2022-06-26T11:49:33Z</time>
      </trkpt>
      <trkpt lat="45.8095" lon="4.41216">
        <ele>742.2</ele>
        <time>2022-06-26T11:49:34Z</time>
      </trkpt>
      <trkpt lat="45.80947" lon="4.41227">
        <ele>742</ele>
        <time>2022-06-26T11:49:35Z</time>
      </trkpt>
      <trkpt lat="45.80944" lon="4.41237">
        <ele>741.6</ele>
        <time>2022-06-26T11:49:36Z</time>
      </trkpt>
      <trkpt lat="45.80941" lon="4.41248">
        <ele>741.6</ele>
        <time>2022-06-26T11:49:37Z</time>
      </trkpt>
      <trkpt lat="45.80938" lon="4.41259">
        <ele>741.2</ele>
        <time>2022-06-26T11:49:38Z</time>
      </trkpt>
      <trkpt lat="45.80935" lon="4.4127">
        <ele>740.8</ele>
        <time>2022-06-26T11:49:39Z</time>
      </trkpt>
      <trkpt lat="45.80931" lon="4.41281">
        <ele>740.8</ele>
        <time>2022-06-26T11:49:40Z</time>
      </trkpt>
      <trkpt lat="45.80928" lon="4.41292">
        <ele>740.4</ele>
        <time>2022-06-26T11:49:41Z</time>
      </trkpt>
      <trkpt lat="45.80925" lon="4.41303">
        <ele>740.4</ele>
        <time>2022-06-26T11:49:42Z</time>
      </trkpt>
      <trkpt lat="45.80922" lon="4.41314">
        <ele>740.4</ele>
        <time>2022-06-26T11:49:43Z</time>
      </trkpt>
      <trkpt lat="45.80919" lon="4.41324">
        <ele>740.4</ele>
        <time>2022-06-26T11:49:44Z</time>
      </trkpt>
      <trkpt lat="45.80916" lon="4.41335">
        <ele>740.4</ele>
        <time>2022-06-26T11:49:45Z</time>
      </trkpt>
      <trkpt lat="45.80913" lon="4.41346">
        <ele>740.4</ele>
        <time>2022-06-26T11:49:46Z</time>
      </trkpt>
      <trkpt lat="45.8091" lon="4.41357">
        <ele>740.2</ele>
        <time>2022-06-26T11:49:47Z</time>
      </trkpt>
      <trkpt lat="45.80907" lon="4.41368">
        <ele>740.2</ele>
        <time>2022-06-26T11:49:48Z</time>
      </trkpt>
      <trkpt lat="45.80904" lon="4.41379">
        <ele>740</ele>
        <time>2022-06-26T11:49:49Z</time>
      </trkpt>
      <trkpt lat="45.80902" lon="4.41391">
        <ele>739.8</ele>
        <time>2022-06-26T11:49:50Z</time>
      </trkpt>
      <trkpt lat="45.80901" lon="4.41402">
        <ele>739.8</ele>
        <time>2022-06-26T11:49:51Z</time>
      </trkpt>
      <trkpt lat="45.80901" lon="4.41413">
        <ele>739.8</ele>
        <time>2022-06-26T11:49:52Z</time>
      </trkpt>
      <trkpt lat="45.80902" lon="4.41424">
        <ele>739.2</ele>
        <time>2022-06-26T11:49:53Z</time>
      </trkpt>
      <trkpt lat="45.80903" lon="4.41434">
        <ele>739</ele>
        <time>2022-06-26T11:49:54Z</time>
      </trkpt>
      <trkpt lat="45.80906" lon="4.41444">
        <ele>739</ele>
        <time>2022-06-26T11:49:55Z</time>
      </trkpt>
      <trkpt lat="45.8091" lon="4.41453">
        <ele>739</ele>
        <time>2022-06-26T11:49:56Z</time>
      </trkpt>
      <trkpt lat="45.80914" lon="4.41461">
        <ele>738.8</ele>
        <time>2022-06-26T11:49:57Z</time>
      </trkpt>
      <trkpt lat="45.80919" lon="4.41469">
        <ele>738.8</ele>
        <time>2022-06-26T11:49:58Z</time>
      </trkpt>
      <trkpt lat="45.80924" lon="4.41475">
        <ele>738.4</ele>
        <time>2022-06-26T11:49:59Z</time>
      </trkpt>
      <trkpt lat="45.8093" lon="4.41481">
        <ele>738.2</ele>
        <time>2022-06-26T11:50:00Z</time>
      </trkpt>
      <trkpt lat="45.80936" lon="4.41486">
        <ele>738.2</ele>
        <time>2022-06-26T11:50:01Z</time>
      </trkpt>
      <trkpt lat="45.80942" lon="4.41491">
        <ele>737.8</ele>
        <time>2022-06-26T11:50:02Z</time>
      </trkpt>
      <trkpt lat="45.80948" lon="4.41496">
        <ele>737.8</ele>
        <time>2022-06-26T11:50:03Z</time>
      </trkpt>
      <trkpt lat="45.80954" lon="4.41502">
        <ele>737.6</ele>
        <time>2022-06-26T11:50:04Z</time>
      </trkpt>
      <trkpt lat="45.8096" lon="4.41507">
        <ele>737.6</ele>
        <time>2022-06-26T11:50:05Z</time>
      </trkpt>
      <trkpt lat="45.80966" lon="4.41513">
        <ele>737.6</ele>
        <time>2022-06-26T11:50:06Z</time>
      </trkpt>
      <trkpt lat="45.80972" lon="4.41519">
        <ele>737.6</ele>
        <time>2022-06-26T11:50:07Z</time>
      </trkpt>
      <trkpt lat="45.80978" lon="4.41524">
        <ele>737.2</ele>
        <time>2022-06-26T11:50:08Z</time>
      </trkpt>
      <trkpt lat="45.80984" lon="4.4153">
        <ele>737</ele>
        <time>2022-06-26T11:50:09Z</time>
      </trkpt>
      <trkpt lat="45.80991" lon="4.41535">
        <ele>736.6</ele>
        <time>2022-06-26T11:50:10Z</time>
      </trkpt>
      <trkpt lat="45.80997" lon="4.4154">
        <ele>736.4</ele>
        <time>2022-06-26T11:50:11Z</time>
      </trkpt>
      <trkpt lat="45.81004" lon="4.41546">
        <ele>736.2</ele>
        <time>2022-06-26T11:50:12Z</time>
      </trkpt>
      <trkpt lat="45.81011" lon="4.4155">
        <ele>736</ele>
        <time>2022-06-26T11:50:13Z</time>
      </trkpt>
      <trkpt lat="45.81018" lon="4.41554">
        <ele>735.6</ele>
        <time>2022-06-26T11:50:14Z</time>
      </trkpt>
      <trkpt lat="45.81025" lon="4.41558">
        <ele>735.4</ele>
        <time>2022-06-26T11:50:15Z</time>
      </trkpt>
      <trkpt lat="45.81032" lon="4.41561">
        <ele>735</ele>
        <time>2022-06-26T11:50:16Z</time>
      </trkpt>
      <trkpt lat="45.8104" lon="4.41564">
        <ele>734.8</ele>
        <time>2022-06-26T11:50:17Z</time>
      </trkpt>
      <trkpt lat="45.81047" lon="4.41567">
        <ele>734.4</ele>
        <time>2022-06-26T11:50:18Z</time>
      </trkpt>
      <trkpt lat="45.81054" lon="4.41569">
        <ele>734</ele>
        <time>2022-06-26T11:50:19Z</time>
      </trkpt>
      <trkpt lat="45.81062" lon="4.41572">
        <ele>733.8</ele>
        <time>2022-06-26T11:50:20Z</time>
      </trkpt>
      <trkpt lat="45.8107" lon="4.41574">
        <ele>733.4</ele>
        <time>2022-06-26T11:50:21Z</time>
      </trkpt>
      <trkpt lat="45.81077" lon="4.41577">
        <ele>733.2</ele>
        <time>2022-06-26T11:50:22Z</time>
      </trkpt>
      <trkpt lat="45.81085" lon="4.4158">
        <ele>733</ele>
        <time>2022-06-26T11:50:23Z</time>
      </trkpt>
      <trkpt lat="45.81092" lon="4.41584">
        <ele>732.8</ele>
        <time>2022-06-26T11:50:24Z</time>
      </trkpt>
      <trkpt lat="45.81099" lon="4.41589">
        <ele>732.8</ele>
        <time>2022-06-26T11:50:25Z</time>
      </trkpt>
      <trkpt lat="45.81104" lon="4.41595">
        <ele>732.4</ele>
        <time>2022-06-26T11:50:26Z</time>
      </trkpt>
      <trkpt lat="45.81109" lon="4.41603">
        <ele>732.4</ele>
        <time>2022-06-26T11:50:27Z</time>
      </trkpt>
      <trkpt lat="45.81114" lon="4.41612">
        <ele>732.2</ele>
        <time>2022-06-26T11:50:28Z</time>
      </trkpt>
      <trkpt lat="45.81117" lon="4.41621">
        <ele>732.2</ele>
        <time>2022-06-26T11:50:29Z</time>
      </trkpt>
      <trkpt lat="45.81119" lon="4.41631">
        <ele>731.8</ele>
        <time>2022-06-26T11:50:30Z</time>
      </trkpt>
      <trkpt lat="45.81121" lon="4.4164">
        <ele>731.8</ele>
        <time>2022-06-26T11:50:31Z</time>
      </trkpt>
      <trkpt lat="45.81123" lon="4.4165">
        <ele>731.8</ele>
        <time>2022-06-26T11:50:32Z</time>
      </trkpt>
      <trkpt lat="45.81124" lon="4.41659">
        <ele>731.8</ele>
        <time>2022-06-26T11:50:33Z</time>
      </trkpt>
      <trkpt lat="45.81125" lon="4.41669">
        <ele>731.6</ele>
        <time>2022-06-26T11:50:34Z</time>
      </trkpt>
      <trkpt lat="45.81126" lon="4.41678">
        <ele>731.6</ele>
        <time>2022-06-26T11:50:35Z</time>
      </trkpt>
      <trkpt lat="45.81127" lon="4.41687">
        <ele>731.6</ele>
        <time>2022-06-26T11:50:36Z</time>
      </trkpt>
      <trkpt lat="45.81128" lon="4.41695">
        <ele>731.6</ele>
        <time>2022-06-26T11:50:37Z</time>
      </trkpt>
      <trkpt lat="45.81129" lon="4.41704">
        <ele>731.6</ele>
        <time>2022-06-26T11:50:38Z</time>
      </trkpt>
      <trkpt lat="45.8113" lon="4.41712">
        <ele>731.6</ele>
        <time>2022-06-26T11:50:39Z</time>
      </trkpt>
      <trkpt lat="45.81131" lon="4.4172">
        <ele>731.6</ele>
        <time>2022-06-26T11:50:40Z</time>
      </trkpt>
      <trkpt lat="45.81131" lon="4.41728">
        <ele>731.6</ele>
        <time>2022-06-26T11:50:41Z</time>
      </trkpt>
      <trkpt lat="45.81132" lon="4.41736">
        <ele>731.6</ele>
        <time>2022-06-26T11:50:42Z</time>
      </trkpt>
      <trkpt lat="45.81133" lon="4.41745">
        <ele>731.6</ele>
        <time>2022-06-26T11:50:43Z</time>
      </trkpt>
      <trkpt lat="45.81134" lon="4.41753">
        <ele>731.6</ele>
        <time>2022-06-26T11:50:44Z</time>
      </trkpt>
      <trkpt lat="45.81135" lon="4.41762">
        <ele>731.6</ele>
        <time>2022-06-26T11:50:45Z</time>
      </trkpt>
      <trkpt lat="45.81136" lon="4.4177">
        <ele>731.6</ele>
        <time>2022-06-26T11:50:46Z</time>
      </trkpt>
      <trkpt lat="45.81137" lon="4.41779">
        <ele>731.6</ele>
        <time>2022-06-26T11:50:47Z</time>
      </trkpt>
      <trkpt lat="45.81138" lon="4.41787">
        <ele>731.6</ele>
        <time>2022-06-26T11:50:48Z</time>
      </trkpt>
      <trkpt lat="45.81139" lon="4.41796">
        <ele>731.6</ele>
        <time>2022-06-26T11:50:49Z</time>
      </trkpt>
      <trkpt lat="45.8114" lon="4.41804">
        <ele>731.6</ele>
        <time>2022-06-26T11:50:50Z</time>
      </trkpt>
      <trkpt lat="45.81141" lon="4.41813">
        <ele>731.6</ele>
        <time>2022-06-26T11:50:51Z</time>
      </trkpt>
      <trkpt lat="45.81142" lon="4.41822">
        <ele>731.4</ele>
        <time>2022-06-26T11:50:52Z</time>
      </trkpt>
      <trkpt lat="45.81143" lon="4.41831">
        <ele>731.4</ele>
        <time>2022-06-26T11:50:53Z</time>
      </trkpt>
      <trkpt lat="45.81144" lon="4.41841">
        <ele>731.4</ele>
        <time>2022-06-26T11:50:54Z</time>
      </trkpt>
      <trkpt lat="45.81145" lon="4.4185">
        <ele>731.4</ele>
        <time>2022-06-26T11:50:55Z</time>
      </trkpt>
      <trkpt lat="45.81146" lon="4.41859">
        <ele>731.4</ele>
        <time>2022-06-26T11:50:56Z</time>
      </trkpt>
      <trkpt lat="45.81147" lon="4.41868">
        <ele>731.2</ele>
        <time>2022-06-26T11:50:57Z</time>
      </trkpt>
      <trkpt lat="45.81148" lon="4.41878">
        <ele>731.2</ele>
        <time>2022-06-26T11:50:58Z</time>
      </trkpt>
      <trkpt lat="45.81148" lon="4.41887">
        <ele>731.2</ele>
        <time>2022-06-26T11:50:59Z</time>
      </trkpt>
      <trkpt lat="45.81148" lon="4.41897">
        <ele>730.8</ele>
        <time>2022-06-26T11:51:00Z</time>
      </trkpt>
      <trkpt lat="45.81147" lon="4.41907">
        <ele>730.8</ele>
        <time>2022-06-26T11:51:01Z</time>
      </trkpt>
      <trkpt lat="45.81146" lon="4.41917">
        <ele>730.8</ele>
        <time>2022-06-26T11:51:02Z</time>
      </trkpt>
      <trkpt lat="45.81144" lon="4.41926">
        <ele>730.8</ele>
        <time>2022-06-26T11:51:03Z</time>
      </trkpt>
      <trkpt lat="45.81141" lon="4.41935">
        <ele>730.8</ele>
        <time>2022-06-26T11:51:04Z</time>
      </trkpt>
      <trkpt lat="45.81139" lon="4.41944">
        <ele>730.8</ele>
        <time>2022-06-26T11:51:05Z</time>
      </trkpt>
      <trkpt lat="45.81135" lon="4.41952">
        <ele>730.8</ele>
        <time>2022-06-26T11:51:06Z</time>
      </trkpt>
      <trkpt lat="45.81132" lon="4.41961">
        <ele>730.8</ele>
        <time>2022-06-26T11:51:07Z</time>
      </trkpt>
      <trkpt lat="45.81128" lon="4.41969">
        <ele>730.8</ele>
        <time>2022-06-26T11:51:08Z</time>
      </trkpt>
      <trkpt lat="45.81124" lon="4.41976">
        <ele>730.6</ele>
        <time>2022-06-26T11:51:09Z</time>
      </trkpt>
      <trkpt lat="45.8112" lon="4.41983">
        <ele>730.6</ele>
        <time>2022-06-26T11:51:10Z</time>
      </trkpt>
      <trkpt lat="45.81115" lon="4.4199">
        <ele>730.6</ele>
        <time>2022-06-26T11:51:11Z</time>
      </trkpt>
      <trkpt lat="45.8111" lon="4.41997">
        <ele>730.6</ele>
        <time>2022-06-26T11:51:12Z</time>
      </trkpt>
      <trkpt lat="45.81106" lon="4.42004">
        <ele>730.6</ele>
        <time>2022-06-26T11:51:13Z</time>
      </trkpt>
      <trkpt lat="45.81101" lon="4.42011">
        <ele>730.2</ele>
        <time>2022-06-26T11:51:14Z</time>
      </trkpt>
      <trkpt lat="45.81096" lon="4.42018">
        <ele>730.2</ele>
        <time>2022-06-26T11:51:15Z</time>
      </trkpt>
      <trkpt lat="45.81091" lon="4.42025">
        <ele>730.2</ele>
        <time>2022-06-26T11:51:16Z</time>
      </trkpt>
      <trkpt lat="45.81087" lon="4.42032">
        <ele>730.2</ele>
        <time>2022-06-26T11:51:17Z</time>
      </trkpt>
      <trkpt lat="45.81082" lon="4.42039">
        <ele>730.2</ele>
        <time>2022-06-26T11:51:18Z</time>
      </trkpt>
      <trkpt lat="45.81077" lon="4.42046">
        <ele>729.8</ele>
        <time>2022-06-26T11:51:19Z</time>
      </trkpt>
      <trkpt lat="45.81073" lon="4.42053">
        <ele>729.8</ele>
        <time>2022-06-26T11:51:20Z</time>
      </trkpt>
      <trkpt lat="45.81068" lon="4.4206">
        <ele>729.8</ele>
        <time>2022-06-26T11:51:21Z</time>
      </trkpt>
      <trkpt lat="45.81063" lon="4.42067">
        <ele>729.6</ele>
        <time>2022-06-26T11:51:22Z</time>
      </trkpt>
      <trkpt lat="45.81058" lon="4.42074">
        <ele>729.6</ele>
        <time>2022-06-26T11:51:23Z</time>
      </trkpt>
      <trkpt lat="45.81054" lon="4.42082">
        <ele>729.6</ele>
        <time>2022-06-26T11:51:24Z</time>
      </trkpt>
      <trkpt lat="45.81049" lon="4.42089">
        <ele>729.6</ele>
        <time>2022-06-26T11:51:25Z</time>
      </trkpt>
      <trkpt lat="45.81044" lon="4.42096">
        <ele>729.4</ele>
        <time>2022-06-26T11:51:26Z</time>
      </trkpt>
      <trkpt lat="45.81039" lon="4.42103">
        <ele>729.4</ele>
        <time>2022-06-26T11:51:27Z</time>
      </trkpt>
      <trkpt lat="45.81034" lon="4.4211">
        <ele>729.4</ele>
        <time>2022-06-26T11:51:28Z</time>
      </trkpt>
      <trkpt lat="45.81029" lon="4.42117">
        <ele>729</ele>
        <time>2022-06-26T11:51:29Z</time>
      </trkpt>
      <trkpt lat="45.81024" lon="4.42125">
        <ele>729</ele>
        <time>2022-06-26T11:51:30Z</time>
      </trkpt>
      <trkpt lat="45.81019" lon="4.42132">
        <ele>728.8</ele>
        <time>2022-06-26T11:51:31Z</time>
      </trkpt>
      <trkpt lat="45.81014" lon="4.4214">
        <ele>728.8</ele>
        <time>2022-06-26T11:51:32Z</time>
      </trkpt>
      <trkpt lat="45.81009" lon="4.42147">
        <ele>728.8</ele>
        <time>2022-06-26T11:51:33Z</time>
      </trkpt>
      <trkpt lat="45.81004" lon="4.42154">
        <ele>728.8</ele>
        <time>2022-06-26T11:51:34Z</time>
      </trkpt>
      <trkpt lat="45.80999" lon="4.42162">
        <ele>728.6</ele>
        <time>2022-06-26T11:51:35Z</time>
      </trkpt>
      <trkpt lat="45.80994" lon="4.4217">
        <ele>728.6</ele>
        <time>2022-06-26T11:51:36Z</time>
      </trkpt>
      <trkpt lat="45.80989" lon="4.42177">
        <ele>728.4</ele>
        <time>2022-06-26T11:51:37Z</time>
      </trkpt>
      <trkpt lat="45.80984" lon="4.42185">
        <ele>728.4</ele>
        <time>2022-06-26T11:51:38Z</time>
      </trkpt>
      <trkpt lat="45.80979" lon="4.42193">
        <ele>728</ele>
        <time>2022-06-26T11:51:39Z</time>
      </trkpt>
      <trkpt lat="45.80974" lon="4.42201">
        <ele>728</ele>
        <time>2022-06-26T11:51:40Z</time>
      </trkpt>
      <trkpt lat="45.80968" lon="4.42209">
        <ele>728</ele>
        <time>2022-06-26T11:51:41Z</time>
      </trkpt>
      <trkpt lat="45.80963" lon="4.42217">
        <ele>727.6</ele>
        <time>2022-06-26T11:51:42Z</time>
      </trkpt>
      <trkpt lat="45.80958" lon="4.42225">
        <ele>727.6</ele>
        <time>2022-06-26T11:51:43Z</time>
      </trkpt>
      <trkpt lat="45.80952" lon="4.42233">
        <ele>727.2</ele>
        <time>2022-06-26T11:51:44Z</time>
      </trkpt>
      <trkpt lat="45.80947" lon="4.42242">
        <ele>727.2</ele>
        <time>2022-06-26T11:51:45Z</time>
      </trkpt>
      <trkpt lat="45.80942" lon="4.4225">
        <ele>727</ele>
        <time>2022-06-26T11:51:46Z</time>
      </trkpt>
      <trkpt lat="45.80936" lon="4.42258">
        <ele>727</ele>
        <time>2022-06-26T11:51:47Z</time>
      </trkpt>
      <trkpt lat="45.8093" lon="4.42266">
        <ele>726.6</ele>
        <time>2022-06-26T11:51:48Z</time>
      </trkpt>
      <trkpt lat="45.80924" lon="4.42274">
        <ele>726.6</ele>
        <time>2022-06-26T11:51:49Z</time>
      </trkpt>
      <trkpt lat="45.80917" lon="4.42281">
        <ele>726.4</ele>
        <time>2022-06-26T11:51:50Z</time>
      </trkpt>
      <trkpt lat="45.80911" lon="4.42288">
        <ele>726.4</ele>
        <time>2022-06-26T11:51:51Z</time>
      </trkpt>
      <trkpt lat="45.80904" lon="4.42294">
        <ele>726.4</ele>
        <time>2022-06-26T11:51:52Z</time>
      </trkpt>
      <trkpt lat="45.80897" lon="4.423">
        <ele>726.4</ele>
        <time>2022-06-26T11:51:53Z</time>
      </trkpt>
      <trkpt lat="45.8089" lon="4.42304">
        <ele>726.6</ele>
        <time>2022-06-26T11:51:54Z</time>
      </trkpt>
      <trkpt lat="45.80882" lon="4.42309">
        <ele>726.6</ele>
        <time>2022-06-26T11:51:55Z</time>
      </trkpt>
      <trkpt lat="45.80875" lon="4.42312">
        <ele>726.4</ele>
        <time>2022-06-26T11:51:56Z</time>
      </trkpt>
      <trkpt lat="45.80867" lon="4.42315">
        <ele>726.2</ele>
        <time>2022-06-26T11:51:57Z</time>
      </trkpt>
      <trkpt lat="45.80859" lon="4.42317">
        <ele>725.8</ele>
        <time>2022-06-26T11:51:58Z</time>
      </trkpt>
      <trkpt lat="45.80852" lon="4.42319">
        <ele>725.8</ele>
        <time>2022-06-26T11:51:59Z</time>
      </trkpt>
      <trkpt lat="45.80844" lon="4.4232">
        <ele>725.4</ele>
        <time>2022-06-26T11:52:00Z</time>
      </trkpt>
      <trkpt lat="45.80836" lon="4.42321">
        <ele>725.2</ele>
        <time>2022-06-26T11:52:01Z</time>
      </trkpt>
      <trkpt lat="45.80828" lon="4.42322">
        <ele>725.2</ele>
        <time>2022-06-26T11:52:02Z</time>
      </trkpt>
      <trkpt lat="45.8082" lon="4.42323">
        <ele>724.8</ele>
        <time>2022-06-26T11:52:03Z</time>
      </trkpt>
      <trkpt lat="45.80813" lon="4.42324">
        <ele>724.8</ele>
        <time>2022-06-26T11:52:04Z</time>
      </trkpt>
      <trkpt lat="45.80805" lon="4.42325">
        <ele>724.8</ele>
        <time>2022-06-26T11:52:05Z</time>
      </trkpt>
      <trkpt lat="45.80797" lon="4.42326">
        <ele>724.6</ele>
        <time>2022-06-26T11:52:06Z</time>
      </trkpt>
      <trkpt lat="45.80789" lon="4.42327">
        <ele>724.6</ele>
        <time>2022-06-26T11:52:07Z</time>
      </trkpt>
      <trkpt lat="45.80781" lon="4.42328">
        <ele>724.6</ele>
        <time>2022-06-26T11:52:08Z</time>
      </trkpt>
      <trkpt lat="45.80773" lon="4.42329">
        <ele>724.4</ele>
        <time>2022-06-26T11:52:09Z</time>
      </trkpt>
      <trkpt lat="45.80765" lon="4.4233">
        <ele>724.4</ele>
        <time>2022-06-26T11:52:10Z</time>
      </trkpt>
      <trkpt lat="45.80757" lon="4.42331">
        <ele>724</ele>
        <time>2022-06-26T11:52:11Z</time>
      </trkpt>
      <trkpt lat="45.8075" lon="4.42332">
        <ele>724</ele>
        <time>2022-06-26T11:52:12Z</time>
      </trkpt>
      <trkpt lat="45.80742" lon="4.42335">
        <ele>724</ele>
        <time>2022-06-26T11:52:13Z</time>
      </trkpt>
      <trkpt lat="45.80734" lon="4.42338">
        <ele>724</ele>
        <time>2022-06-26T11:52:14Z</time>
      </trkpt>
      <trkpt lat="45.80727" lon="4.42342">
        <ele>724</ele>
        <time>2022-06-26T11:52:15Z</time>
      </trkpt>
      <trkpt lat="45.8072" lon="4.42346">
        <ele>724</ele>
        <time>2022-06-26T11:52:16Z</time>
      </trkpt>
      <trkpt lat="45.80713" lon="4.42352">
        <ele>723.8</ele>
        <time>2022-06-26T11:52:17Z</time>
      </trkpt>
      <trkpt lat="45.80706" lon="4.42358">
        <ele>723.6</ele>
        <time>2022-06-26T11:52:18Z</time>
      </trkpt>
      <trkpt lat="45.807" lon="4.42364">
        <ele>723.6</ele>
        <time>2022-06-26T11:52:19Z</time>
      </trkpt>
      <trkpt lat="45.80693" lon="4.42371">
        <ele>723.2</ele>
        <time>2022-06-26T11:52:20Z</time>
      </trkpt>
      <trkpt lat="45.80687" lon="4.42377">
        <ele>723.2</ele>
        <time>2022-06-26T11:52:21Z</time>
      </trkpt>
      <trkpt lat="45.8068" lon="4.42384">
        <ele>723.2</ele>
        <time>2022-06-26T11:52:22Z</time>
      </trkpt>
      <trkpt lat="45.80673" lon="4.4239">
        <ele>722.8</ele>
        <time>2022-06-26T11:52:23Z</time>
      </trkpt>
      <trkpt lat="45.80666" lon="4.42397">
        <ele>722.6</ele>
        <time>2022-06-26T11:52:24Z</time>
      </trkpt>
      <trkpt lat="45.8066" lon="4.42404">
        <ele>722.2</ele>
        <time>2022-06-26T11:52:25Z</time>
      </trkpt>
      <trkpt lat="45.80653" lon="4.4241">
        <ele>722</ele>
        <time>2022-06-26T11:52:26Z</time>
      </trkpt>
      <trkpt lat="45.80645" lon="4.42417">
        <ele>721.8</ele>
        <time>2022-06-26T11:52:27Z</time>
      </trkpt>
      <trkpt lat="45.80638" lon="4.42424">
        <ele>721.6</ele>
        <time>2022-06-26T11:52:28Z</time>
      </trkpt>
      <trkpt lat="45.80631" lon="4.42431">
        <ele>721</ele>
        <time>2022-06-26T11:52:29Z</time>
      </trkpt>
      <trkpt lat="45.80624" lon="4.42438">
        <ele>721</ele>
        <time>2022-06-26T11:52:30Z</time>
      </trkpt>
      <trkpt lat="45.80617" lon="4.42445">
        <ele>720.8</ele>
        <time>2022-06-26T11:52:31Z</time>
      </trkpt>
      <trkpt lat="45.8061" lon="4.42452">
        <ele>720.6</ele>
        <time>2022-06-26T11:52:32Z</time>
      </trkpt>
      <trkpt lat="45.80603" lon="4.42459">
        <ele>720.4</ele>
        <time>2022-06-26T11:52:33Z</time>
      </trkpt>
      <trkpt lat="45.80596" lon="4.42466">
        <ele>720.2</ele>
        <time>2022-06-26T11:52:34Z</time>
      </trkpt>
      <trkpt lat="45.80588" lon="4.42473">
        <ele>720.2</ele>
        <time>2022-06-26T11:52:35Z</time>
      </trkpt>
      <trkpt lat="45.80581" lon="4.42481">
        <ele>719.8</ele>
        <time>2022-06-26T11:52:36Z</time>
      </trkpt>
      <trkpt lat="45.80574" lon="4.42488">
        <ele>719.8</ele>
        <time>2022-06-26T11:52:37Z</time>
      </trkpt>
      <trkpt lat="45.80566" lon="4.42496">
        <ele>719.8</ele>
        <time>2022-06-26T11:52:38Z</time>
      </trkpt>
      <trkpt lat="45.80559" lon="4.42502">
        <ele>719.6</ele>
        <time>2022-06-26T11:52:39Z</time>
      </trkpt>
      <trkpt lat="45.80552" lon="4.42509">
        <ele>719.6</ele>
        <time>2022-06-26T11:52:40Z</time>
      </trkpt>
      <trkpt lat="45.80545" lon="4.42516">
        <ele>719.4</ele>
        <time>2022-06-26T11:52:41Z</time>
      </trkpt>
      <trkpt lat="45.80538" lon="4.42523">
        <ele>719.4</ele>
        <time>2022-06-26T11:52:42Z</time>
      </trkpt>
      <trkpt lat="45.80531" lon="4.42529">
        <ele>719.4</ele>
        <time>2022-06-26T11:52:43Z</time>
      </trkpt>
      <trkpt lat="45.80525" lon="4.42535">
        <ele>719.4</ele>
        <time>2022-06-26T11:52:44Z</time>
      </trkpt>
      <trkpt lat="45.80518" lon="4.42542">
        <ele>719.2</ele>
        <time>2022-06-26T11:52:45Z</time>
      </trkpt>
      <trkpt lat="45.80511" lon="4.42548">
        <ele>719.2</ele>
        <time>2022-06-26T11:52:46Z</time>
      </trkpt>
      <trkpt lat="45.80505" lon="4.42554">
        <ele>718.8</ele>
        <time>2022-06-26T11:52:47Z</time>
      </trkpt>
      <trkpt lat="45.80498" lon="4.42561">
        <ele>718.8</ele>
        <time>2022-06-26T11:52:48Z</time>
      </trkpt>
      <trkpt lat="45.80492" lon="4.42567">
        <ele>718.6</ele>
        <time>2022-06-26T11:52:49Z</time>
      </trkpt>
      <trkpt lat="45.80485" lon="4.42574">
        <ele>718.6</ele>
        <time>2022-06-26T11:52:50Z</time>
      </trkpt>
      <trkpt lat="45.80479" lon="4.4258">
        <ele>718.6</ele>
        <time>2022-06-26T11:52:51Z</time>
      </trkpt>
      <trkpt lat="45.80472" lon="4.42586">
        <ele>718.6</ele>
        <time>2022-06-26T11:52:52Z</time>
      </trkpt>
      <trkpt lat="45.80466" lon="4.42592">
        <ele>718.6</ele>
        <time>2022-06-26T11:52:53Z</time>
      </trkpt>
      <trkpt lat="45.8046" lon="4.42597">
        <ele>718.6</ele>
        <time>2022-06-26T11:52:54Z</time>
      </trkpt>
      <trkpt lat="45.80453" lon="4.42603">
        <ele>718.6</ele>
        <time>2022-06-26T11:52:55Z</time>
      </trkpt>
      <trkpt lat="45.80447" lon="4.42609">
        <ele>718.6</ele>
        <time>2022-06-26T11:52:56Z</time>
      </trkpt>
      <trkpt lat="45.80442" lon="4.42614">
        <ele>718.6</ele>
        <time>2022-06-26T11:52:57Z</time>
      </trkpt>
      <trkpt lat="45.80436" lon="4.4262">
        <ele>718.6</ele>
        <time>2022-06-26T11:52:58Z</time>
      </trkpt>
      <trkpt lat="45.8043" lon="4.42625">
        <ele>718.6</ele>
        <time>2022-06-26T11:52:59Z</time>
      </trkpt>
      <trkpt lat="45.80425" lon="4.42631">
        <ele>718.6</ele>
        <time>2022-06-26T11:53:00Z</time>
      </trkpt>
      <trkpt lat="45.80419" lon="4.42636">
        <ele>719</ele>
        <time>2022-06-26T11:53:01Z</time>
      </trkpt>
      <trkpt lat="45.80415" lon="4.42642">
        <ele>719</ele>
        <time>2022-06-26T11:53:02Z</time>
      </trkpt>
      <trkpt lat="45.8041" lon="4.42648">
        <ele>719.2</ele>
        <time>2022-06-26T11:53:03Z</time>
      </trkpt>
      <trkpt lat="45.80406" lon="4.42654">
        <ele>719.4</ele>
        <time>2022-06-26T11:53:04Z</time>
      </trkpt>
      <trkpt lat="45.80403" lon="4.4266">
        <ele>719.4</ele>
        <time>2022-06-26T11:53:05Z</time>
      </trkpt>
      <trkpt lat="45.804" lon="4.42666">
        <ele>719.8</ele>
        <time>2022-06-26T11:53:06Z</time>
      </trkpt>
      <trkpt lat="45.80397" lon="4.42672">
        <ele>720</ele>
        <time>2022-06-26T11:53:07Z</time>
      </trkpt>
      <trkpt lat="45.80394" lon="4.42678">
        <ele>720</ele>
        <time>2022-06-26T11:53:08Z</time>
      </trkpt>
      <trkpt lat="45.80391" lon="4.42685">
        <ele>720.4</ele>
        <time>2022-06-26T11:53:09Z</time>
      </trkpt>
      <trkpt lat="45.80388" lon="4.42691">
        <ele>720.4</ele>
        <time>2022-06-26T11:53:10Z</time>
      </trkpt>
      <trkpt lat="45.80386" lon="4.42697">
        <ele>720.6</ele>
        <time>2022-06-26T11:53:11Z</time>
      </trkpt>
      <trkpt lat="45.80383" lon="4.42703">
        <ele>720.6</ele>
        <time>2022-06-26T11:53:12Z</time>
      </trkpt>
      <trkpt lat="45.8038" lon="4.42708">
        <ele>721</ele>
        <time>2022-06-26T11:53:13Z</time>
      </trkpt>
      <trkpt lat="45.80377" lon="4.42713">
        <ele>721</ele>
        <time>2022-06-26T11:53:14Z</time>
      </trkpt>
      <trkpt lat="45.80373" lon="4.42718">
        <ele>721.4</ele>
        <time>2022-06-26T11:53:15Z</time>
      </trkpt>
      <trkpt lat="45.80369" lon="4.42722">
        <ele>721.4</ele>
        <time>2022-06-26T11:53:16Z</time>
      </trkpt>
      <trkpt lat="45.80365" lon="4.42725">
        <ele>721.6</ele>
        <time>2022-06-26T11:53:17Z</time>
      </trkpt>
      <trkpt lat="45.80361" lon="4.42728">
        <ele>721.6</ele>
        <time>2022-06-26T11:53:18Z</time>
      </trkpt>
      <trkpt lat="45.80357" lon="4.42731">
        <ele>722</ele>
        <time>2022-06-26T11:53:19Z</time>
      </trkpt>
      <trkpt lat="45.80353" lon="4.42734">
        <ele>722</ele>
        <time>2022-06-26T11:53:20Z</time>
      </trkpt>
      <trkpt lat="45.80349" lon="4.42737">
        <ele>722</ele>
        <time>2022-06-26T11:53:21Z</time>
      </trkpt>
      <trkpt lat="45.80346" lon="4.4274">
        <ele>722.4</ele>
        <time>2022-06-26T11:53:22Z</time>
      </trkpt>
      <trkpt lat="45.80342" lon="4.42742">
        <ele>722.4</ele>
        <time>2022-06-26T11:53:23Z</time>
      </trkpt>
      <trkpt lat="45.80339" lon="4.42745">
        <ele>722.6</ele>
        <time>2022-06-26T11:53:24Z</time>
      </trkpt>
      <trkpt lat="45.80335" lon="4.42747">
        <ele>722.6</ele>
        <time>2022-06-26T11:53:25Z</time>
      </trkpt>
      <trkpt lat="45.80331" lon="4.42749">
        <ele>723.2</ele>
        <time>2022-06-26T11:53:26Z</time>
      </trkpt>
      <trkpt lat="45.80328" lon="4.42751">
        <ele>723.4</ele>
        <time>2022-06-26T11:53:27Z</time>
      </trkpt>
      <trkpt lat="45.80324" lon="4.42753">
        <ele>723.4</ele>
        <time>2022-06-26T11:53:28Z</time>
      </trkpt>
      <trkpt lat="45.80321" lon="4.42756">
        <ele>723.6</ele>
        <time>2022-06-26T11:53:29Z</time>
      </trkpt>
      <trkpt lat="45.80317" lon="4.42758">
        <ele>723.6</ele>
        <time>2022-06-26T11:53:30Z</time>
      </trkpt>
      <trkpt lat="45.80314" lon="4.42761">
        <ele>724</ele>
        <time>2022-06-26T11:53:31Z</time>
      </trkpt>
      <trkpt lat="45.80311" lon="4.42764">
        <ele>724</ele>
        <time>2022-06-26T11:53:32Z</time>
      </trkpt>
      <trkpt lat="45.80308" lon="4.42767">
        <ele>724.4</ele>
        <time>2022-06-26T11:53:33Z</time>
      </trkpt>
      <trkpt lat="45.80305" lon="4.4277">
        <ele>724.4</ele>
        <time>2022-06-26T11:53:34Z</time>
      </trkpt>
      <trkpt lat="45.80302" lon="4.42774">
        <ele>724.6</ele>
        <time>2022-06-26T11:53:35Z</time>
      </trkpt>
      <trkpt lat="45.803" lon="4.42778">
        <ele>724.6</ele>
        <time>2022-06-26T11:53:36Z</time>
      </trkpt>
      <trkpt lat="45.80298" lon="4.42782">
        <ele>725</ele>
        <time>2022-06-26T11:53:37Z</time>
      </trkpt>
      <trkpt lat="45.80296" lon="4.42787">
        <ele>725</ele>
        <time>2022-06-26T11:53:38Z</time>
      </trkpt>
      <trkpt lat="45.80294" lon="4.42791">
        <ele>725.2</ele>
        <time>2022-06-26T11:53:39Z</time>
      </trkpt>
      <trkpt lat="45.80292" lon="4.42796">
        <ele>725.2</ele>
        <time>2022-06-26T11:53:40Z</time>
      </trkpt>
      <trkpt lat="45.80291" lon="4.42802">
        <ele>725.6</ele>
        <time>2022-06-26T11:53:41Z</time>
      </trkpt>
      <trkpt lat="45.8029" lon="4.42808">
        <ele>725.6</ele>
        <time>2022-06-26T11:53:42Z</time>
      </trkpt>
      <trkpt lat="45.80289" lon="4.42813">
        <ele>725.8</ele>
        <time>2022-06-26T11:53:43Z</time>
      </trkpt>
      <trkpt lat="45.80288" lon="4.42819">
        <ele>726</ele>
        <time>2022-06-26T11:53:44Z</time>
      </trkpt>
      <trkpt lat="45.80288" lon="4.42825">
        <ele>726</ele>
        <time>2022-06-26T11:53:45Z</time>
      </trkpt>
      <trkpt lat="45.80287" lon="4.4283">
        <ele>726</ele>
        <time>2022-06-26T11:53:46Z</time>
      </trkpt>
      <trkpt lat="45.80287" lon="4.42836">
        <ele>726.2</ele>
        <time>2022-06-26T11:53:47Z</time>
      </trkpt>
      <trkpt lat="45.80287" lon="4.42841">
        <ele>726.2</ele>
        <time>2022-06-26T11:53:48Z</time>
      </trkpt>
      <trkpt lat="45.80286" lon="4.42847">
        <ele>726.4</ele>
        <time>2022-06-26T11:53:49Z</time>
      </trkpt>
      <trkpt lat="45.80286" lon="4.42852">
        <ele>726.4</ele>
        <time>2022-06-26T11:53:50Z</time>
      </trkpt>
      <trkpt lat="45.80286" lon="4.42857">
        <ele>726.8</ele>
        <time>2022-06-26T11:53:51Z</time>
      </trkpt>
      <trkpt lat="45.80286" lon="4.42863">
        <ele>726.8</ele>
        <time>2022-06-26T11:53:52Z</time>
      </trkpt>
      <trkpt lat="45.80286" lon="4.42868">
        <ele>727</ele>
        <time>2022-06-26T11:53:53Z</time>
      </trkpt>
      <trkpt lat="45.80285" lon="4.42873">
        <ele>727</ele>
        <time>2022-06-26T11:53:54Z</time>
      </trkpt>
      <trkpt lat="45.80285" lon="4.42878">
        <ele>727</ele>
        <time>2022-06-26T11:53:55Z</time>
      </trkpt>
      <trkpt lat="45.80284" lon="4.42884">
        <ele>727.2</ele>
        <time>2022-06-26T11:53:56Z</time>
      </trkpt>
      <trkpt lat="45.80284" lon="4.42889">
        <ele>727.2</ele>
        <time>2022-06-26T11:53:57Z</time>
      </trkpt>
      <trkpt lat="45.80284" lon="4.42894">
        <ele>727.2</ele>
        <time>2022-06-26T11:53:58Z</time>
      </trkpt>
      <trkpt lat="45.80284" lon="4.429">
        <ele>727.6</ele>
        <time>2022-06-26T11:53:59Z</time>
      </trkpt>
      <trkpt lat="45.80283" lon="4.42905">
        <ele>727.6</ele>
        <time>2022-06-26T11:54:00Z</time>
      </trkpt>
      <trkpt lat="45.80283" lon="4.4291">
        <ele>727.8</ele>
        <time>2022-06-26T11:54:01Z</time>
      </trkpt>
      <trkpt lat="45.80283" lon="4.42916">
        <ele>727.8</ele>
        <time>2022-06-26T11:54:02Z</time>
      </trkpt>
      <trkpt lat="45.80283" lon="4.42921">
        <ele>727.8</ele>
        <time>2022-06-26T11:54:03Z</time>
      </trkpt>
      <trkpt lat="45.80282" lon="4.42926">
        <ele>728.2</ele>
        <time>2022-06-26T11:54:04Z</time>
      </trkpt>
      <trkpt lat="45.80281" lon="4.42931">
        <ele>728.2</ele>
        <time>2022-06-26T11:54:05Z</time>
      </trkpt>
      <trkpt lat="45.80281" lon="4.42937">
        <ele>728.4</ele>
        <time>2022-06-26T11:54:06Z</time>
      </trkpt>
      <trkpt lat="45.8028" lon="4.42942">
        <ele>728.4</ele>
        <time>2022-06-26T11:54:07Z</time>
      </trkpt>
      <trkpt lat="45.80279" lon="4.42947">
        <ele>728.4</ele>
        <time>2022-06-26T11:54:08Z</time>
      </trkpt>
      <trkpt lat="45.80278" lon="4.42952">
        <ele>728.6</ele>
        <time>2022-06-26T11:54:09Z</time>
      </trkpt>
      <trkpt lat="45.80277" lon="4.42957">
        <ele>728.6</ele>
        <time>2022-06-26T11:54:10Z</time>
      </trkpt>
      <trkpt lat="45.80276" lon="4.42962">
        <ele>729</ele>
        <time>2022-06-26T11:54:11Z</time>
      </trkpt>
      <trkpt lat="45.80274" lon="4.42967">
        <ele>729</ele>
        <time>2022-06-26T11:54:12Z</time>
      </trkpt>
      <trkpt lat="45.80272" lon="4.42971">
        <ele>729.2</ele>
        <time>2022-06-26T11:54:13Z</time>
      </trkpt>
      <trkpt lat="45.80271" lon="4.42976">
        <ele>729.2</ele>
        <time>2022-06-26T11:54:14Z</time>
      </trkpt>
      <trkpt lat="45.80269" lon="4.4298">
        <ele>729.4</ele>
        <time>2022-06-26T11:54:15Z</time>
      </trkpt>
      <trkpt lat="45.80267" lon="4.42984">
        <ele>729.4</ele>
        <time>2022-06-26T11:54:16Z</time>
      </trkpt>
      <trkpt lat="45.80265" lon="4.42988">
        <ele>729.8</ele>
        <time>2022-06-26T11:54:17Z</time>
      </trkpt>
      <trkpt lat="45.80263" lon="4.42993">
        <ele>729.8</ele>
        <time>2022-06-26T11:54:18Z</time>
      </trkpt>
      <trkpt lat="45.80261" lon="4.42997">
        <ele>729.8</ele>
        <time>2022-06-26T11:54:19Z</time>
      </trkpt>
      <trkpt lat="45.80259" lon="4.43001">
        <ele>730</ele>
        <time>2022-06-26T11:54:20Z</time>
      </trkpt>
      <trkpt lat="45.80257" lon="4.43006">
        <ele>730</ele>
        <time>2022-06-26T11:54:21Z</time>
      </trkpt>
      <trkpt lat="45.80255" lon="4.4301">
        <ele>730</ele>
        <time>2022-06-26T11:54:22Z</time>
      </trkpt>
      <trkpt lat="45.80253" lon="4.43014">
        <ele>730.4</ele>
        <time>2022-06-26T11:54:23Z</time>
      </trkpt>
      <trkpt lat="45.80251" lon="4.43018">
        <ele>730.4</ele>
        <time>2022-06-26T11:54:24Z</time>
      </trkpt>
      <trkpt lat="45.8025" lon="4.43022">
        <ele>730.4</ele>
        <time>2022-06-26T11:54:25Z</time>
      </trkpt>
      <trkpt lat="45.80248" lon="4.43027">
        <ele>730.8</ele>
        <time>2022-06-26T11:54:26Z</time>
      </trkpt>
      <trkpt lat="45.80247" lon="4.43031">
        <ele>730.8</ele>
        <time>2022-06-26T11:54:27Z</time>
      </trkpt>
      <trkpt lat="45.80245" lon="4.43035">
        <ele>730.8</ele>
        <time>2022-06-26T11:54:28Z</time>
      </trkpt>
      <trkpt lat="45.80243" lon="4.4304">
        <ele>731</ele>
        <time>2022-06-26T11:54:29Z</time>
      </trkpt>
      <trkpt lat="45.80242" lon="4.43044">
        <ele>731</ele>
        <time>2022-06-26T11:54:30Z</time>
      </trkpt>
      <trkpt lat="45.8024" lon="4.43048">
        <ele>731.4</ele>
        <time>2022-06-26T11:54:31Z</time>
      </trkpt>
      <trkpt lat="45.80239" lon="4.43052">
        <ele>731.4</ele>
        <time>2022-06-26T11:54:32Z</time>
      </trkpt>
      <trkpt lat="45.80237" lon="4.43057">
        <ele>731.6</ele>
        <time>2022-06-26T11:54:33Z</time>
      </trkpt>
      <trkpt lat="45.80236" lon="4.43061">
        <ele>731.6</ele>
        <time>2022-06-26T11:54:34Z</time>
      </trkpt>
      <trkpt lat="45.80235" lon="4.43066">
        <ele>731.8</ele>
        <time>2022-06-26T11:54:35Z</time>
      </trkpt>
      <trkpt lat="45.80234" lon="4.4307">
        <ele>731.8</ele>
        <time>2022-06-26T11:54:36Z</time>
      </trkpt>
      <trkpt lat="45.80233" lon="4.43075">
        <ele>732</ele>
        <time>2022-06-26T11:54:37Z</time>
      </trkpt>
      <trkpt lat="45.80232" lon="4.4308">
        <ele>732</ele>
        <time>2022-06-26T11:54:38Z</time>
      </trkpt>
      <trkpt lat="45.80232" lon="4.43085">
        <ele>732.4</ele>
        <time>2022-06-26T11:54:39Z</time>
      </trkpt>
      <trkpt lat="45.80231" lon="4.4309">
        <ele>732.4</ele>
        <time>2022-06-26T11:54:40Z</time>
      </trkpt>
      <trkpt lat="45.8023" lon="4.43095">
        <ele>732.6</ele>
        <time>2022-06-26T11:54:41Z</time>
      </trkpt>
      <trkpt lat="45.8023" lon="4.431">
        <ele>732.6</ele>
        <time>2022-06-26T11:54:42Z</time>
      </trkpt>
      <trkpt lat="45.80229" lon="4.43105">
        <ele>733</ele>
        <time>2022-06-26T11:54:43Z</time>
      </trkpt>
      <trkpt lat="45.80229" lon="4.4311">
        <ele>733</ele>
        <time>2022-06-26T11:54:44Z</time>
      </trkpt>
      <trkpt lat="45.8023" lon="4.43116">
        <ele>733</ele>
        <time>2022-06-26T11:54:45Z</time>
      </trkpt>
      <trkpt lat="45.8023" lon="4.43121">
        <ele>733.2</ele>
        <time>2022-06-26T11:54:46Z</time>
      </trkpt>
      <trkpt lat="45.8023" lon="4.43127">
        <ele>733.2</ele>
        <time>2022-06-26T11:54:47Z</time>
      </trkpt>
      <trkpt lat="45.80231" lon="4.43138">
        <ele>733.2</ele>
        <time>2022-06-26T11:54:48Z</time>
      </trkpt>
      <trkpt lat="45.80232" lon="4.43143">
        <ele>733.4</ele>
        <time>2022-06-26T11:54:49Z</time>
      </trkpt>
      <trkpt lat="45.80232" lon="4.43149">
        <ele>733.4</ele>
        <time>2022-06-26T11:54:50Z</time>
      </trkpt>
      <trkpt lat="45.80233" lon="4.43154">
        <ele>733.4</ele>
        <time>2022-06-26T11:54:51Z</time>
      </trkpt>
      <trkpt lat="45.80234" lon="4.4316">
        <ele>733.4</ele>
        <time>2022-06-26T11:54:52Z</time>
      </trkpt>
      <trkpt lat="45.80234" lon="4.43165">
        <ele>733.6</ele>
        <time>2022-06-26T11:54:53Z</time>
      </trkpt>
      <trkpt lat="45.80235" lon="4.43171">
        <ele>733.6</ele>
        <time>2022-06-26T11:54:54Z</time>
      </trkpt>
      <trkpt lat="45.80236" lon="4.43176">
        <ele>734</ele>
        <time>2022-06-26T11:54:55Z</time>
      </trkpt>
      <trkpt lat="45.80236" lon="4.43181">
        <ele>734</ele>
        <time>2022-06-26T11:54:56Z</time>
      </trkpt>
      <trkpt lat="45.80237" lon="4.43186">
        <ele>734.2</ele>
        <time>2022-06-26T11:54:57Z</time>
      </trkpt>
      <trkpt lat="45.80238" lon="4.43192">
        <ele>734.2</ele>
        <time>2022-06-26T11:54:58Z</time>
      </trkpt>
      <trkpt lat="45.80238" lon="4.43197">
        <ele>734.4</ele>
        <time>2022-06-26T11:54:59Z</time>
      </trkpt>
      <trkpt lat="45.80239" lon="4.43202">
        <ele>734.4</ele>
        <time>2022-06-26T11:55:00Z</time>
      </trkpt>
      <trkpt lat="45.8024" lon="4.43207">
        <ele>734.4</ele>
        <time>2022-06-26T11:55:01Z</time>
      </trkpt>
      <trkpt lat="45.8024" lon="4.43212">
        <ele>734.8</ele>
        <time>2022-06-26T11:55:02Z</time>
      </trkpt>
      <trkpt lat="45.80239" lon="4.43217">
        <ele>734.8</ele>
        <time>2022-06-26T11:55:03Z</time>
      </trkpt>
      <trkpt lat="45.80239" lon="4.43222">
        <ele>735</ele>
        <time>2022-06-26T11:55:04Z</time>
      </trkpt>
      <trkpt lat="45.80238" lon="4.43228">
        <ele>735</ele>
        <time>2022-06-26T11:55:05Z</time>
      </trkpt>
      <trkpt lat="45.80238" lon="4.43233">
        <ele>735</ele>
        <time>2022-06-26T11:55:06Z</time>
      </trkpt>
      <trkpt lat="45.80237" lon="4.43238">
        <ele>735.2</ele>
        <time>2022-06-26T11:55:07Z</time>
      </trkpt>
      <trkpt lat="45.80236" lon="4.43243">
        <ele>735.2</ele>
        <time>2022-06-26T11:55:08Z</time>
      </trkpt>
      <trkpt lat="45.80234" lon="4.43248">
        <ele>735.4</ele>
        <time>2022-06-26T11:55:09Z</time>
      </trkpt>
      <trkpt lat="45.80233" lon="4.43253">
        <ele>735.4</ele>
        <time>2022-06-26T11:55:10Z</time>
      </trkpt>
      <trkpt lat="45.80231" lon="4.43258">
        <ele>735.8</ele>
        <time>2022-06-26T11:55:11Z</time>
      </trkpt>
      <trkpt lat="45.80229" lon="4.43262">
        <ele>735.8</ele>
        <time>2022-06-26T11:55:12Z</time>
      </trkpt>
      <trkpt lat="45.80226" lon="4.43267">
        <ele>736</ele>
        <time>2022-06-26T11:55:13Z</time>
      </trkpt>
      <trkpt lat="45.80224" lon="4.43271">
        <ele>736</ele>
        <time>2022-06-26T11:55:14Z</time>
      </trkpt>
      <trkpt lat="45.80221" lon="4.43275">
        <ele>736.2</ele>
        <time>2022-06-26T11:55:15Z</time>
      </trkpt>
      <trkpt lat="45.80218" lon="4.43279">
        <ele>736.2</ele>
        <time>2022-06-26T11:55:16Z</time>
      </trkpt>
      <trkpt lat="45.80215" lon="4.43282">
        <ele>736.6</ele>
        <time>2022-06-26T11:55:17Z</time>
      </trkpt>
      <trkpt lat="45.80212" lon="4.43284">
        <ele>736.6</ele>
        <time>2022-06-26T11:55:18Z</time>
      </trkpt>
      <trkpt lat="45.80209" lon="4.43286">
        <ele>736.8</ele>
        <time>2022-06-26T11:55:19Z</time>
      </trkpt>
      <trkpt lat="45.80206" lon="4.43287">
        <ele>736.8</ele>
        <time>2022-06-26T11:55:20Z</time>
      </trkpt>
      <trkpt lat="45.80202" lon="4.43289">
        <ele>737.2</ele>
        <time>2022-06-26T11:55:21Z</time>
      </trkpt>
      <trkpt lat="45.80198" lon="4.4329">
        <ele>737.2</ele>
        <time>2022-06-26T11:55:22Z</time>
      </trkpt>
      <trkpt lat="45.80195" lon="4.43291">
        <ele>737.4</ele>
        <time>2022-06-26T11:55:23Z</time>
      </trkpt>
      <trkpt lat="45.80191" lon="4.43293">
        <ele>737.4</ele>
        <time>2022-06-26T11:55:24Z</time>
      </trkpt>
      <trkpt lat="45.80188" lon="4.43294">
        <ele>737.6</ele>
        <time>2022-06-26T11:55:25Z</time>
      </trkpt>
      <trkpt lat="45.80185" lon="4.43294">
        <ele>737.6</ele>
        <time>2022-06-26T11:55:26Z</time>
      </trkpt>
      <trkpt lat="45.80181" lon="4.43295">
        <ele>737.6</ele>
        <time>2022-06-26T11:55:27Z</time>
      </trkpt>
      <trkpt lat="45.80178" lon="4.43296">
        <ele>738</ele>
        <time>2022-06-26T11:55:28Z</time>
      </trkpt>
      <trkpt lat="45.80174" lon="4.43298">
        <ele>738</ele>
        <time>2022-06-26T11:55:29Z</time>
      </trkpt>
      <trkpt lat="45.80171" lon="4.43299">
        <ele>738.2</ele>
        <time>2022-06-26T11:55:30Z</time>
      </trkpt>
      <trkpt lat="45.80167" lon="4.433">
        <ele>738.2</ele>
        <time>2022-06-26T11:55:31Z</time>
      </trkpt>
      <trkpt lat="45.80164" lon="4.433">
        <ele>738.2</ele>
        <time>2022-06-26T11:55:32Z</time>
      </trkpt>
      <trkpt lat="45.8016" lon="4.43302">
        <ele>738.6</ele>
        <time>2022-06-26T11:55:33Z</time>
      </trkpt>
      <trkpt lat="45.80157" lon="4.43303">
        <ele>738.6</ele>
        <time>2022-06-26T11:55:34Z</time>
      </trkpt>
      <trkpt lat="45.80154" lon="4.43304">
        <ele>738.6</ele>
        <time>2022-06-26T11:55:35Z</time>
      </trkpt>
      <trkpt lat="45.80151" lon="4.43306">
        <ele>738.8</ele>
        <time>2022-06-26T11:55:36Z</time>
      </trkpt>
      <trkpt lat="45.80147" lon="4.43308">
        <ele>738.8</ele>
        <time>2022-06-26T11:55:37Z</time>
      </trkpt>
      <trkpt lat="45.80144" lon="4.43309">
        <ele>739.2</ele>
        <time>2022-06-26T11:55:38Z</time>
      </trkpt>
      <trkpt lat="45.80141" lon="4.43311">
        <ele>739.2</ele>
        <time>2022-06-26T11:55:39Z</time>
      </trkpt>
      <trkpt lat="45.80137" lon="4.43312">
        <ele>739.2</ele>
        <time>2022-06-26T11:55:40Z</time>
      </trkpt>
      <trkpt lat="45.80134" lon="4.43314">
        <ele>739.4</ele>
        <time>2022-06-26T11:55:41Z</time>
      </trkpt>
      <trkpt lat="45.80131" lon="4.43316">
        <ele>739.4</ele>
        <time>2022-06-26T11:55:42Z</time>
      </trkpt>
      <trkpt lat="45.80127" lon="4.43318">
        <ele>739.6</ele>
        <time>2022-06-26T11:55:43Z</time>
      </trkpt>
      <trkpt lat="45.80124" lon="4.43319">
        <ele>739.6</ele>
        <time>2022-06-26T11:55:44Z</time>
      </trkpt>
      <trkpt lat="45.80121" lon="4.43322">
        <ele>739.6</ele>
        <time>2022-06-26T11:55:45Z</time>
      </trkpt>
      <trkpt lat="45.80118" lon="4.43324">
        <ele>739.8</ele>
        <time>2022-06-26T11:55:46Z</time>
      </trkpt>
      <trkpt lat="45.80114" lon="4.43326">
        <ele>739.8</ele>
        <time>2022-06-26T11:55:47Z</time>
      </trkpt>
      <trkpt lat="45.80111" lon="4.43328">
        <ele>739.8</ele>
        <time>2022-06-26T11:55:48Z</time>
      </trkpt>
      <trkpt lat="45.80107" lon="4.43331">
        <ele>739.8</ele>
        <time>2022-06-26T11:55:49Z</time>
      </trkpt>
      <trkpt lat="45.80104" lon="4.43333">
        <ele>740.2</ele>
        <time>2022-06-26T11:55:50Z</time>
      </trkpt>
      <trkpt lat="45.80101" lon="4.43335">
        <ele>740.2</ele>
        <time>2022-06-26T11:55:51Z</time>
      </trkpt>
      <trkpt lat="45.80097" lon="4.43338">
        <ele>740.4</ele>
        <time>2022-06-26T11:55:52Z</time>
      </trkpt>
      <trkpt lat="45.80093" lon="4.4334">
        <ele>740.4</ele>
        <time>2022-06-26T11:55:53Z</time>
      </trkpt>
      <trkpt lat="45.8009" lon="4.43342">
        <ele>740.4</ele>
        <time>2022-06-26T11:55:54Z</time>
      </trkpt>
      <trkpt lat="45.80086" lon="4.43345">
        <ele>740.4</ele>
        <time>2022-06-26T11:55:55Z</time>
      </trkpt>
      <trkpt lat="45.80083" lon="4.43349">
        <ele>740.6</ele>
        <time>2022-06-26T11:55:56Z</time>
      </trkpt>
      <trkpt lat="45.80079" lon="4.43351">
        <ele>740.6</ele>
        <time>2022-06-26T11:55:57Z</time>
      </trkpt>
      <trkpt lat="45.80075" lon="4.43353">
        <ele>740.6</ele>
        <time>2022-06-26T11:55:58Z</time>
      </trkpt>
      <trkpt lat="45.80071" lon="4.43356">
        <ele>740.6</ele>
        <time>2022-06-26T11:55:59Z</time>
      </trkpt>
      <trkpt lat="45.80067" lon="4.43359">
        <ele>741</ele>
        <time>2022-06-26T11:56:00Z</time>
      </trkpt>
      <trkpt lat="45.80063" lon="4.43363">
        <ele>741</ele>
        <time>2022-06-26T11:56:01Z</time>
      </trkpt>
      <trkpt lat="45.80059" lon="4.43366">
        <ele>741</ele>
        <time>2022-06-26T11:56:02Z</time>
      </trkpt>
      <trkpt lat="45.80055" lon="4.43369">
        <ele>741</ele>
        <time>2022-06-26T11:56:03Z</time>
      </trkpt>
      <trkpt lat="45.8005" lon="4.43373">
        <ele>741.2</ele>
        <time>2022-06-26T11:56:04Z</time>
      </trkpt>
      <trkpt lat="45.80046" lon="4.43376">
        <ele>741.2</ele>
        <time>2022-06-26T11:56:05Z</time>
      </trkpt>
      <trkpt lat="45.80041" lon="4.4338">
        <ele>741.2</ele>
        <time>2022-06-26T11:56:06Z</time>
      </trkpt>
      <trkpt lat="45.80037" lon="4.43384">
        <ele>741.2</ele>
        <time>2022-06-26T11:56:07Z</time>
      </trkpt>
      <trkpt lat="45.80032" lon="4.43387">
        <ele>741.4</ele>
        <time>2022-06-26T11:56:08Z</time>
      </trkpt>
      <trkpt lat="45.80028" lon="4.43391">
        <ele>741.4</ele>
        <time>2022-06-26T11:56:09Z</time>
      </trkpt>
      <trkpt lat="45.80023" lon="4.43395">
        <ele>741.6</ele>
        <time>2022-06-26T11:56:10Z</time>
      </trkpt>
      <trkpt lat="45.80019" lon="4.434">
        <ele>741.6</ele>
        <time>2022-06-26T11:56:11Z</time>
      </trkpt>
      <trkpt lat="45.80014" lon="4.43405">
        <ele>741.6</ele>
        <time>2022-06-26T11:56:12Z</time>
      </trkpt>
      <trkpt lat="45.8001" lon="4.4341">
        <ele>741.6</ele>
        <time>2022-06-26T11:56:13Z</time>
      </trkpt>
      <trkpt lat="45.80006" lon="4.43415">
        <ele>741.6</ele>
        <time>2022-06-26T11:56:14Z</time>
      </trkpt>
      <trkpt lat="45.80002" lon="4.4342">
        <ele>741.6</ele>
        <time>2022-06-26T11:56:15Z</time>
      </trkpt>
      <trkpt lat="45.79998" lon="4.43426">
        <ele>741.6</ele>
        <time>2022-06-26T11:56:16Z</time>
      </trkpt>
      <trkpt lat="45.79994" lon="4.43432">
        <ele>741.6</ele>
        <time>2022-06-26T11:56:17Z</time>
      </trkpt>
      <trkpt lat="45.79989" lon="4.43437">
        <ele>741.6</ele>
        <time>2022-06-26T11:56:18Z</time>
      </trkpt>
      <trkpt lat="45.79984" lon="4.43443">
        <ele>741.6</ele>
        <time>2022-06-26T11:56:19Z</time>
      </trkpt>
      <trkpt lat="45.79979" lon="4.43448">
        <ele>741.4</ele>
        <time>2022-06-26T11:56:20Z</time>
      </trkpt>
      <trkpt lat="45.79974" lon="4.43453">
        <ele>741.4</ele>
        <time>2022-06-26T11:56:21Z</time>
      </trkpt>
      <trkpt lat="45.79968" lon="4.43457">
        <ele>741.4</ele>
        <time>2022-06-26T11:56:22Z</time>
      </trkpt>
      <trkpt lat="45.79962" lon="4.43461">
        <ele>741.4</ele>
        <time>2022-06-26T11:56:23Z</time>
      </trkpt>
      <trkpt lat="45.79956" lon="4.43464">
        <ele>741.4</ele>
        <time>2022-06-26T11:56:24Z</time>
      </trkpt>
      <trkpt lat="45.7995" lon="4.43466">
        <ele>741.2</ele>
        <time>2022-06-26T11:56:25Z</time>
      </trkpt>
      <trkpt lat="45.79944" lon="4.43468">
        <ele>741.2</ele>
        <time>2022-06-26T11:56:26Z</time>
      </trkpt>
      <trkpt lat="45.79937" lon="4.4347">
        <ele>741.2</ele>
        <time>2022-06-26T11:56:27Z</time>
      </trkpt>
      <trkpt lat="45.79931" lon="4.4347">
        <ele>741.2</ele>
        <time>2022-06-26T11:56:28Z</time>
      </trkpt>
      <trkpt lat="45.79925" lon="4.4347">
        <ele>741.2</ele>
        <time>2022-06-26T11:56:29Z</time>
      </trkpt>
      <trkpt lat="45.79918" lon="4.4347">
        <ele>741.2</ele>
        <time>2022-06-26T11:56:30Z</time>
      </trkpt>
      <trkpt lat="45.79912" lon="4.43469">
        <ele>741.2</ele>
        <time>2022-06-26T11:56:31Z</time>
      </trkpt>
      <trkpt lat="45.79905" lon="4.43468">
        <ele>741.2</ele>
        <time>2022-06-26T11:56:32Z</time>
      </trkpt>
      <trkpt lat="45.79899" lon="4.43467">
        <ele>741.2</ele>
        <time>2022-06-26T11:56:33Z</time>
      </trkpt>
      <trkpt lat="45.79893" lon="4.43467">
        <ele>741.2</ele>
        <time>2022-06-26T11:56:34Z</time>
      </trkpt>
      <trkpt lat="45.79887" lon="4.43467">
        <ele>741.2</ele>
        <time>2022-06-26T11:56:35Z</time>
      </trkpt>
      <trkpt lat="45.79881" lon="4.43467">
        <ele>741.4</ele>
        <time>2022-06-26T11:56:36Z</time>
      </trkpt>
      <trkpt lat="45.79875" lon="4.43469">
        <ele>741.4</ele>
        <time>2022-06-26T11:56:37Z</time>
      </trkpt>
      <trkpt lat="45.79869" lon="4.43471">
        <ele>741.4</ele>
        <time>2022-06-26T11:56:38Z</time>
      </trkpt>
      <trkpt lat="45.79863" lon="4.43474">
        <ele>741.4</ele>
        <time>2022-06-26T11:56:39Z</time>
      </trkpt>
      <trkpt lat="45.79858" lon="4.43477">
        <ele>741.4</ele>
        <time>2022-06-26T11:56:40Z</time>
      </trkpt>
      <trkpt lat="45.79853" lon="4.43483">
        <ele>741.8</ele>
        <time>2022-06-26T11:56:41Z</time>
      </trkpt>
      <trkpt lat="45.79848" lon="4.43488">
        <ele>741.8</ele>
        <time>2022-06-26T11:56:42Z</time>
      </trkpt>
      <trkpt lat="45.79843" lon="4.43494">
        <ele>741.8</ele>
        <time>2022-06-26T11:56:43Z</time>
      </trkpt>
      <trkpt lat="45.79839" lon="4.43501">
        <ele>741.8</ele>
        <time>2022-06-26T11:56:44Z</time>
      </trkpt>
      <trkpt lat="45.79835" lon="4.43509">
        <ele>741.8</ele>
        <time>2022-06-26T11:56:45Z</time>
      </trkpt>
      <trkpt lat="45.79831" lon="4.43517">
        <ele>741.8</ele>
        <time>2022-06-26T11:56:46Z</time>
      </trkpt>
      <trkpt lat="45.79828" lon="4.43525">
        <ele>741.8</ele>
        <time>2022-06-26T11:56:47Z</time>
      </trkpt>
      <trkpt lat="45.79825" lon="4.43533">
        <ele>741.8</ele>
        <time>2022-06-26T11:56:48Z</time>
      </trkpt>
      <trkpt lat="45.79823" lon="4.43542">
        <ele>741.8</ele>
        <time>2022-06-26T11:56:49Z</time>
      </trkpt>
      <trkpt lat="45.79821" lon="4.43552">
        <ele>741.8</ele>
        <time>2022-06-26T11:56:50Z</time>
      </trkpt>
      <trkpt lat="45.7982" lon="4.43561">
        <ele>741.8</ele>
        <time>2022-06-26T11:56:51Z</time>
      </trkpt>
      <trkpt lat="45.79819" lon="4.43571">
        <ele>741.6</ele>
        <time>2022-06-26T11:56:52Z</time>
      </trkpt>
      <trkpt lat="45.79817" lon="4.4358">
        <ele>741.6</ele>
        <time>2022-06-26T11:56:53Z</time>
      </trkpt>
      <trkpt lat="45.79815" lon="4.4359">
        <ele>741.4</ele>
        <time>2022-06-26T11:56:54Z</time>
      </trkpt>
      <trkpt lat="45.79813" lon="4.43599">
        <ele>741.4</ele>
        <time>2022-06-26T11:56:55Z</time>
      </trkpt>
      <trkpt lat="45.79811" lon="4.43608">
        <ele>741.4</ele>
        <time>2022-06-26T11:56:56Z</time>
      </trkpt>
      <trkpt lat="45.79808" lon="4.43617">
        <ele>741</ele>
        <time>2022-06-26T11:56:57Z</time>
      </trkpt>
      <trkpt lat="45.79805" lon="4.43625">
        <ele>741</ele>
        <time>2022-06-26T11:56:58Z</time>
      </trkpt>
      <trkpt lat="45.79801" lon="4.43634">
        <ele>741</ele>
        <time>2022-06-26T11:56:59Z</time>
      </trkpt>
      <trkpt lat="45.79798" lon="4.43642">
        <ele>740.8</ele>
        <time>2022-06-26T11:57:00Z</time>
      </trkpt>
      <trkpt lat="45.79794" lon="4.4365">
        <ele>740.8</ele>
        <time>2022-06-26T11:57:01Z</time>
      </trkpt>
      <trkpt lat="45.7979" lon="4.43658">
        <ele>740.8</ele>
        <time>2022-06-26T11:57:02Z</time>
      </trkpt>
      <trkpt lat="45.79786" lon="4.43665">
        <ele>740.8</ele>
        <time>2022-06-26T11:57:03Z</time>
      </trkpt>
      <trkpt lat="45.79782" lon="4.43673">
        <ele>740.6</ele>
        <time>2022-06-26T11:57:04Z</time>
      </trkpt>
      <trkpt lat="45.79778" lon="4.4368">
        <ele>740.6</ele>
        <time>2022-06-26T11:57:05Z</time>
      </trkpt>
      <trkpt lat="45.79773" lon="4.43688">
        <ele>740.6</ele>
        <time>2022-06-26T11:57:06Z</time>
      </trkpt>
      <trkpt lat="45.79769" lon="4.43695">
        <ele>740.6</ele>
        <time>2022-06-26T11:57:07Z</time>
      </trkpt>
      <trkpt lat="45.79764" lon="4.43702">
        <ele>740.6</ele>
        <time>2022-06-26T11:57:08Z</time>
      </trkpt>
      <trkpt lat="45.7976" lon="4.43709">
        <ele>740.6</ele>
        <time>2022-06-26T11:57:09Z</time>
      </trkpt>
      <trkpt lat="45.79756" lon="4.43716">
        <ele>740.6</ele>
        <time>2022-06-26T11:57:10Z</time>
      </trkpt>
      <trkpt lat="45.79752" lon="4.43724">
        <ele>740.6</ele>
        <time>2022-06-26T11:57:11Z</time>
      </trkpt>
      <trkpt lat="45.79748" lon="4.43732">
        <ele>740.6</ele>
        <time>2022-06-26T11:57:12Z</time>
      </trkpt>
      <trkpt lat="45.79744" lon="4.4374">
        <ele>740.6</ele>
        <time>2022-06-26T11:57:13Z</time>
      </trkpt>
      <trkpt lat="45.79741" lon="4.43747">
        <ele>740.6</ele>
        <time>2022-06-26T11:57:14Z</time>
      </trkpt>
      <trkpt lat="45.79737" lon="4.43755">
        <ele>740.6</ele>
        <time>2022-06-26T11:57:15Z</time>
      </trkpt>
      <trkpt lat="45.79733" lon="4.43763">
        <ele>740.6</ele>
        <time>2022-06-26T11:57:16Z</time>
      </trkpt>
      <trkpt lat="45.79729" lon="4.43771">
        <ele>740.6</ele>
        <time>2022-06-26T11:57:17Z</time>
      </trkpt>
      <trkpt lat="45.79725" lon="4.43778">
        <ele>740.6</ele>
        <time>2022-06-26T11:57:18Z</time>
      </trkpt>
      <trkpt lat="45.79721" lon="4.43786">
        <ele>740.6</ele>
        <time>2022-06-26T11:57:19Z</time>
      </trkpt>
      <trkpt lat="45.79717" lon="4.43793">
        <ele>740.6</ele>
        <time>2022-06-26T11:57:20Z</time>
      </trkpt>
      <trkpt lat="45.79713" lon="4.43799">
        <ele>740.6</ele>
        <time>2022-06-26T11:57:21Z</time>
      </trkpt>
      <trkpt lat="45.79708" lon="4.43805">
        <ele>740.6</ele>
        <time>2022-06-26T11:57:22Z</time>
      </trkpt>
      <trkpt lat="45.79704" lon="4.43811">
        <ele>740.6</ele>
        <time>2022-06-26T11:57:23Z</time>
      </trkpt>
      <trkpt lat="45.79699" lon="4.43817">
        <ele>740.6</ele>
        <time>2022-06-26T11:57:24Z</time>
      </trkpt>
      <trkpt lat="45.79694" lon="4.43822">
        <ele>740.4</ele>
        <time>2022-06-26T11:57:25Z</time>
      </trkpt>
      <trkpt lat="45.79689" lon="4.43826">
        <ele>740.4</ele>
        <time>2022-06-26T11:57:26Z</time>
      </trkpt>
      <trkpt lat="45.79683" lon="4.4383">
        <ele>740.4</ele>
        <time>2022-06-26T11:57:27Z</time>
      </trkpt>
      <trkpt lat="45.79677" lon="4.43834">
        <ele>740.4</ele>
        <time>2022-06-26T11:57:28Z</time>
      </trkpt>
      <trkpt lat="45.79672" lon="4.43837">
        <ele>740.4</ele>
        <time>2022-06-26T11:57:29Z</time>
      </trkpt>
      <trkpt lat="45.79666" lon="4.43842">
        <ele>740.4</ele>
        <time>2022-06-26T11:57:30Z</time>
      </trkpt>
      <trkpt lat="45.7966" lon="4.43847">
        <ele>740</ele>
        <time>2022-06-26T11:57:31Z</time>
      </trkpt>
      <trkpt lat="45.79655" lon="4.43851">
        <ele>740</ele>
        <time>2022-06-26T11:57:32Z</time>
      </trkpt>
      <trkpt lat="45.7965" lon="4.43855">
        <ele>740</ele>
        <time>2022-06-26T11:57:33Z</time>
      </trkpt>
      <trkpt lat="45.79644" lon="4.43857">
        <ele>740</ele>
        <time>2022-06-26T11:57:34Z</time>
      </trkpt>
      <trkpt lat="45.79638" lon="4.43859">
        <ele>740</ele>
        <time>2022-06-26T11:57:35Z</time>
      </trkpt>
      <trkpt lat="45.79632" lon="4.4386">
        <ele>740</ele>
        <time>2022-06-26T11:57:36Z</time>
      </trkpt>
      <trkpt lat="45.79626" lon="4.43862">
        <ele>740</ele>
        <time>2022-06-26T11:57:37Z</time>
      </trkpt>
      <trkpt lat="45.7962" lon="4.43862">
        <ele>740</ele>
        <time>2022-06-26T11:57:38Z</time>
      </trkpt>
      <trkpt lat="45.79613" lon="4.43861">
        <ele>740</ele>
        <time>2022-06-26T11:57:39Z</time>
      </trkpt>
      <trkpt lat="45.79606" lon="4.43861">
        <ele>740</ele>
        <time>2022-06-26T11:57:40Z</time>
      </trkpt>
      <trkpt lat="45.796" lon="4.43861">
        <ele>740</ele>
        <time>2022-06-26T11:57:41Z</time>
      </trkpt>
      <trkpt lat="45.79593" lon="4.43861">
        <ele>740</ele>
        <time>2022-06-26T11:57:42Z</time>
      </trkpt>
      <trkpt lat="45.79586" lon="4.43861">
        <ele>740</ele>
        <time>2022-06-26T11:57:43Z</time>
      </trkpt>
      <trkpt lat="45.7958" lon="4.43861">
        <ele>740</ele>
        <time>2022-06-26T11:57:44Z</time>
      </trkpt>
      <trkpt lat="45.79574" lon="4.43861">
        <ele>740</ele>
        <time>2022-06-26T11:57:45Z</time>
      </trkpt>
      <trkpt lat="45.79567" lon="4.43862">
        <ele>740</ele>
        <time>2022-06-26T11:57:46Z</time>
      </trkpt>
      <trkpt lat="45.7956" lon="4.43862">
        <ele>740</ele>
        <time>2022-06-26T11:57:47Z</time>
      </trkpt>
      <trkpt lat="45.79553" lon="4.43863">
        <ele>740</ele>
        <time>2022-06-26T11:57:48Z</time>
      </trkpt>
      <trkpt lat="45.79547" lon="4.43864">
        <ele>740</ele>
        <time>2022-06-26T11:57:49Z</time>
      </trkpt>
      <trkpt lat="45.7954" lon="4.43865">
        <ele>740</ele>
        <time>2022-06-26T11:57:50Z</time>
      </trkpt>
      <trkpt lat="45.79533" lon="4.43866">
        <ele>740</ele>
        <time>2022-06-26T11:57:51Z</time>
      </trkpt>
      <trkpt lat="45.79526" lon="4.43866">
        <ele>740</ele>
        <time>2022-06-26T11:57:52Z</time>
      </trkpt>
      <trkpt lat="45.7952" lon="4.43867">
        <ele>740.4</ele>
        <time>2022-06-26T11:57:53Z</time>
      </trkpt>
      <trkpt lat="45.79513" lon="4.4387">
        <ele>740.4</ele>
        <time>2022-06-26T11:57:54Z</time>
      </trkpt>
      <trkpt lat="45.79506" lon="4.43872">
        <ele>740.4</ele>
        <time>2022-06-26T11:57:55Z</time>
      </trkpt>
      <trkpt lat="45.795" lon="4.43876">
        <ele>740.4</ele>
        <time>2022-06-26T11:57:56Z</time>
      </trkpt>
      <trkpt lat="45.79494" lon="4.43881">
        <ele>740.4</ele>
        <time>2022-06-26T11:57:57Z</time>
      </trkpt>
      <trkpt lat="45.79488" lon="4.43886">
        <ele>740.4</ele>
        <time>2022-06-26T11:57:58Z</time>
      </trkpt>
      <trkpt lat="45.79483" lon="4.43892">
        <ele>740.4</ele>
        <time>2022-06-26T11:57:59Z</time>
      </trkpt>
      <trkpt lat="45.79478" lon="4.43899">
        <ele>740.2</ele>
        <time>2022-06-26T11:58:00Z</time>
      </trkpt>
      <trkpt lat="45.79474" lon="4.43906">
        <ele>740.2</ele>
        <time>2022-06-26T11:58:01Z</time>
      </trkpt>
      <trkpt lat="45.79469" lon="4.43915">
        <ele>740.2</ele>
        <time>2022-06-26T11:58:02Z</time>
      </trkpt>
      <trkpt lat="45.79465" lon="4.43924">
        <ele>740.2</ele>
        <time>2022-06-26T11:58:03Z</time>
      </trkpt>
      <trkpt lat="45.7946" lon="4.43933">
        <ele>740.2</ele>
        <time>2022-06-26T11:58:04Z</time>
      </trkpt>
      <trkpt lat="45.79456" lon="4.43942">
        <ele>740</ele>
        <time>2022-06-26T11:58:05Z</time>
      </trkpt>
      <trkpt lat="45.79451" lon="4.43951">
        <ele>740</ele>
        <time>2022-06-26T11:58:06Z</time>
      </trkpt>
      <trkpt lat="45.79447" lon="4.4396">
        <ele>740</ele>
        <time>2022-06-26T11:58:07Z</time>
      </trkpt>
      <trkpt lat="45.79442" lon="4.43968">
        <ele>740</ele>
        <time>2022-06-26T11:58:08Z</time>
      </trkpt>
      <trkpt lat="45.79437" lon="4.43975">
        <ele>740</ele>
        <time>2022-06-26T11:58:09Z</time>
      </trkpt>
      <trkpt lat="45.79432" lon="4.43981">
        <ele>740</ele>
        <time>2022-06-26T11:58:10Z</time>
      </trkpt>
      <trkpt lat="45.79426" lon="4.43986">
        <ele>739.6</ele>
        <time>2022-06-26T11:58:11Z</time>
      </trkpt>
      <trkpt lat="45.79421" lon="4.43991">
        <ele>739.6</ele>
        <time>2022-06-26T11:58:12Z</time>
      </trkpt>
      <trkpt lat="45.79415" lon="4.43996">
        <ele>739.6</ele>
        <time>2022-06-26T11:58:13Z</time>
      </trkpt>
      <trkpt lat="45.79409" lon="4.44001">
        <ele>739.6</ele>
        <time>2022-06-26T11:58:14Z</time>
      </trkpt>
      <trkpt lat="45.79403" lon="4.44006">
        <ele>739.6</ele>
        <time>2022-06-26T11:58:15Z</time>
      </trkpt>
      <trkpt lat="45.79397" lon="4.4401">
        <ele>739.6</ele>
        <time>2022-06-26T11:58:16Z</time>
      </trkpt>
      <trkpt lat="45.79392" lon="4.44015">
        <ele>739.6</ele>
        <time>2022-06-26T11:58:17Z</time>
      </trkpt>
      <trkpt lat="45.79387" lon="4.44019">
        <ele>739.6</ele>
        <time>2022-06-26T11:58:18Z</time>
      </trkpt>
      <trkpt lat="45.79382" lon="4.44023">
        <ele>739.4</ele>
        <time>2022-06-26T11:58:19Z</time>
      </trkpt>
      <trkpt lat="45.79377" lon="4.44028">
        <ele>739.4</ele>
        <time>2022-06-26T11:58:20Z</time>
      </trkpt>
      <trkpt lat="45.79374" lon="4.44031">
        <ele>739.4</ele>
        <time>2022-06-26T11:58:21Z</time>
      </trkpt>
      <trkpt lat="45.7937" lon="4.44034">
        <ele>739.4</ele>
        <time>2022-06-26T11:58:22Z</time>
      </trkpt>
      <trkpt lat="45.79367" lon="4.44038">
        <ele>739.4</ele>
        <time>2022-06-26T11:58:23Z</time>
      </trkpt>
      <trkpt lat="45.79364" lon="4.44042">
        <ele>739.4</ele>
        <time>2022-06-26T11:58:24Z</time>
      </trkpt>
      <trkpt lat="45.79362" lon="4.44047">
        <ele>739.4</ele>
        <time>2022-06-26T11:58:25Z</time>
      </trkpt>
      <trkpt lat="45.7936" lon="4.44053">
        <ele>739.4</ele>
        <time>2022-06-26T11:58:26Z</time>
      </trkpt>
      <trkpt lat="45.79358" lon="4.4406">
        <ele>739.4</ele>
        <time>2022-06-26T11:58:27Z</time>
      </trkpt>
      <trkpt lat="45.79357" lon="4.44067">
        <ele>739.4</ele>
        <time>2022-06-26T11:58:28Z</time>
      </trkpt>
      <trkpt lat="45.79356" lon="4.44074">
        <ele>739.4</ele>
        <time>2022-06-26T11:58:29Z</time>
      </trkpt>
      <trkpt lat="45.79355" lon="4.44081">
        <ele>739.4</ele>
        <time>2022-06-26T11:58:30Z</time>
      </trkpt>
      <trkpt lat="45.79354" lon="4.44089">
        <ele>739.4</ele>
        <time>2022-06-26T11:58:31Z</time>
      </trkpt>
      <trkpt lat="45.79353" lon="4.44096">
        <ele>739.4</ele>
        <time>2022-06-26T11:58:32Z</time>
      </trkpt>
      <trkpt lat="45.79352" lon="4.44104">
        <ele>739.4</ele>
        <time>2022-06-26T11:58:33Z</time>
      </trkpt>
      <trkpt lat="45.79351" lon="4.44111">
        <ele>739.4</ele>
        <time>2022-06-26T11:58:34Z</time>
      </trkpt>
      <trkpt lat="45.79351" lon="4.44119">
        <ele>739.4</ele>
        <time>2022-06-26T11:58:35Z</time>
      </trkpt>
      <trkpt lat="45.7935" lon="4.44126">
        <ele>739.4</ele>
        <time>2022-06-26T11:58:36Z</time>
      </trkpt>
      <trkpt lat="45.79349" lon="4.44133">
        <ele>739.4</ele>
        <time>2022-06-26T11:58:37Z</time>
      </trkpt>
      <trkpt lat="45.79348" lon="4.4414">
        <ele>739.4</ele>
        <time>2022-06-26T11:58:38Z</time>
      </trkpt>
      <trkpt lat="45.79347" lon="4.44147">
        <ele>739.4</ele>
        <time>2022-06-26T11:58:39Z</time>
      </trkpt>
      <trkpt lat="45.79347" lon="4.44154">
        <ele>739.4</ele>
        <time>2022-06-26T11:58:40Z</time>
      </trkpt>
      <trkpt lat="45.79346" lon="4.4416">
        <ele>739.8</ele>
        <time>2022-06-26T11:58:41Z</time>
      </trkpt>
      <trkpt lat="45.79345" lon="4.44167">
        <ele>739.8</ele>
        <time>2022-06-26T11:58:42Z</time>
      </trkpt>
      <trkpt lat="45.79344" lon="4.44174">
        <ele>739.8</ele>
        <time>2022-06-26T11:58:43Z</time>
      </trkpt>
      <trkpt lat="45.79343" lon="4.44181">
        <ele>740</ele>
        <time>2022-06-26T11:58:44Z</time>
      </trkpt>
      <trkpt lat="45.79342" lon="4.44188">
        <ele>740</ele>
        <time>2022-06-26T11:58:45Z</time>
      </trkpt>
      <trkpt lat="45.79341" lon="4.44194">
        <ele>740</ele>
        <time>2022-06-26T11:58:46Z</time>
      </trkpt>
      <trkpt lat="45.7934" lon="4.44201">
        <ele>740.2</ele>
        <time>2022-06-26T11:58:47Z</time>
      </trkpt>
      <trkpt lat="45.7934" lon="4.44207">
        <ele>740.2</ele>
        <time>2022-06-26T11:58:48Z</time>
      </trkpt>
      <trkpt lat="45.79339" lon="4.44214">
        <ele>740.4</ele>
        <time>2022-06-26T11:58:49Z</time>
      </trkpt>
      <trkpt lat="45.79338" lon="4.4422">
        <ele>740.4</ele>
        <time>2022-06-26T11:58:50Z</time>
      </trkpt>
      <trkpt lat="45.79337" lon="4.44227">
        <ele>740.4</ele>
        <time>2022-06-26T11:58:51Z</time>
      </trkpt>
      <trkpt lat="45.79337" lon="4.44234">
        <ele>740.6</ele>
        <time>2022-06-26T11:58:52Z</time>
      </trkpt>
      <trkpt lat="45.79336" lon="4.44241">
        <ele>740.6</ele>
        <time>2022-06-26T11:58:53Z</time>
      </trkpt>
      <trkpt lat="45.79335" lon="4.44248">
        <ele>740.6</ele>
        <time>2022-06-26T11:58:54Z</time>
      </trkpt>
      <trkpt lat="45.79334" lon="4.44255">
        <ele>740.6</ele>
        <time>2022-06-26T11:58:55Z</time>
      </trkpt>
      <trkpt lat="45.79333" lon="4.44262">
        <ele>740.6</ele>
        <time>2022-06-26T11:58:56Z</time>
      </trkpt>
      <trkpt lat="45.79333" lon="4.4427">
        <ele>740.6</ele>
        <time>2022-06-26T11:58:57Z</time>
      </trkpt>
      <trkpt lat="45.79332" lon="4.44277">
        <ele>740.6</ele>
        <time>2022-06-26T11:58:58Z</time>
      </trkpt>
      <trkpt lat="45.79332" lon="4.44285">
        <ele>740.6</ele>
        <time>2022-06-26T11:58:59Z</time>
      </trkpt>
      <trkpt lat="45.79332" lon="4.44293">
        <ele>740.6</ele>
        <time>2022-06-26T11:59:00Z</time>
      </trkpt>
      <trkpt lat="45.79331" lon="4.44302">
        <ele>740.6</ele>
        <time>2022-06-26T11:59:01Z</time>
      </trkpt>
      <trkpt lat="45.79331" lon="4.4431">
        <ele>740.6</ele>
        <time>2022-06-26T11:59:02Z</time>
      </trkpt>
      <trkpt lat="45.7933" lon="4.44319">
        <ele>740.4</ele>
        <time>2022-06-26T11:59:03Z</time>
      </trkpt>
      <trkpt lat="45.7933" lon="4.44327">
        <ele>740.4</ele>
        <time>2022-06-26T11:59:04Z</time>
      </trkpt>
      <trkpt lat="45.79329" lon="4.44336">
        <ele>740.2</ele>
        <time>2022-06-26T11:59:05Z</time>
      </trkpt>
      <trkpt lat="45.79329" lon="4.44345">
        <ele>740.2</ele>
        <time>2022-06-26T11:59:06Z</time>
      </trkpt>
      <trkpt lat="45.79329" lon="4.44355">
        <ele>740</ele>
        <time>2022-06-26T11:59:07Z</time>
      </trkpt>
      <trkpt lat="45.79329" lon="4.44364">
        <ele>740</ele>
        <time>2022-06-26T11:59:08Z</time>
      </trkpt>
      <trkpt lat="45.79329" lon="4.44373">
        <ele>740</ele>
        <time>2022-06-26T11:59:09Z</time>
      </trkpt>
      <trkpt lat="45.79329" lon="4.44383">
        <ele>739.6</ele>
        <time>2022-06-26T11:59:10Z</time>
      </trkpt>
      <trkpt lat="45.79329" lon="4.44392">
        <ele>739.6</ele>
        <time>2022-06-26T11:59:11Z</time>
      </trkpt>
      <trkpt lat="45.79329" lon="4.44402">
        <ele>739.4</ele>
        <time>2022-06-26T11:59:12Z</time>
      </trkpt>
      <trkpt lat="45.79329" lon="4.44412">
        <ele>739.4</ele>
        <time>2022-06-26T11:59:13Z</time>
      </trkpt>
      <trkpt lat="45.79329" lon="4.44421">
        <ele>739</ele>
        <time>2022-06-26T11:59:14Z</time>
      </trkpt>
      <trkpt lat="45.79329" lon="4.44431">
        <ele>739</ele>
        <time>2022-06-26T11:59:15Z</time>
      </trkpt>
      <trkpt lat="45.7933" lon="4.44442">
        <ele>738.8</ele>
        <time>2022-06-26T11:59:16Z</time>
      </trkpt>
      <trkpt lat="45.7933" lon="4.44452">
        <ele>738.8</ele>
        <time>2022-06-26T11:59:17Z</time>
      </trkpt>
      <trkpt lat="45.79332" lon="4.44461">
        <ele>738.8</ele>
        <time>2022-06-26T11:59:18Z</time>
      </trkpt>
      <trkpt lat="45.79334" lon="4.44471">
        <ele>738.8</ele>
        <time>2022-06-26T11:59:19Z</time>
      </trkpt>
      <trkpt lat="45.79337" lon="4.4448">
        <ele>738.4</ele>
        <time>2022-06-26T11:59:20Z</time>
      </trkpt>
      <trkpt lat="45.79342" lon="4.44488">
        <ele>738.4</ele>
        <time>2022-06-26T11:59:21Z</time>
      </trkpt>
      <trkpt lat="45.79346" lon="4.44496">
        <ele>738.4</ele>
        <time>2022-06-26T11:59:22Z</time>
      </trkpt>
      <trkpt lat="45.79352" lon="4.44503">
        <ele>738</ele>
        <time>2022-06-26T11:59:23Z</time>
      </trkpt>
      <trkpt lat="45.79358" lon="4.4451">
        <ele>737.8</ele>
        <time>2022-06-26T11:59:24Z</time>
      </trkpt>
      <trkpt lat="45.79365" lon="4.44515">
        <ele>737.4</ele>
        <time>2022-06-26T11:59:25Z</time>
      </trkpt>
      <trkpt lat="45.79373" lon="4.4452">
        <ele>737</ele>
        <time>2022-06-26T11:59:26Z</time>
      </trkpt>
      <trkpt lat="45.7938" lon="4.44524">
        <ele>736.8</ele>
        <time>2022-06-26T11:59:27Z</time>
      </trkpt>
      <trkpt lat="45.79388" lon="4.44528">
        <ele>736.8</ele>
        <time>2022-06-26T11:59:28Z</time>
      </trkpt>
      <trkpt lat="45.79396" lon="4.44533">
        <ele>736.4</ele>
        <time>2022-06-26T11:59:29Z</time>
      </trkpt>
      <trkpt lat="45.79403" lon="4.44539">
        <ele>736.2</ele>
        <time>2022-06-26T11:59:30Z</time>
      </trkpt>
      <trkpt lat="45.7941" lon="4.44546">
        <ele>736.2</ele>
        <time>2022-06-26T11:59:31Z</time>
      </trkpt>
      <trkpt lat="45.79417" lon="4.44554">
        <ele>735.8</ele>
        <time>2022-06-26T11:59:32Z</time>
      </trkpt>
      <trkpt lat="45.79423" lon="4.44562">
        <ele>735.8</ele>
        <time>2022-06-26T11:59:33Z</time>
      </trkpt>
      <trkpt lat="45.79428" lon="4.4457">
        <ele>735.4</ele>
        <time>2022-06-26T11:59:34Z</time>
      </trkpt>
      <trkpt lat="45.79433" lon="4.4458">
        <ele>735.4</ele>
        <time>2022-06-26T11:59:35Z</time>
      </trkpt>
      <trkpt lat="45.79437" lon="4.4459">
        <ele>735</ele>
        <time>2022-06-26T11:59:36Z</time>
      </trkpt>
      <trkpt lat="45.7944" lon="4.446">
        <ele>734.8</ele>
        <time>2022-06-26T11:59:37Z</time>
      </trkpt>
      <trkpt lat="45.79443" lon="4.44611">
        <ele>734.8</ele>
        <time>2022-06-26T11:59:38Z</time>
      </trkpt>
      <trkpt lat="45.79445" lon="4.44622">
        <ele>734.4</ele>
        <time>2022-06-26T11:59:39Z</time>
      </trkpt>
      <trkpt lat="45.79447" lon="4.44632">
        <ele>734.4</ele>
        <time>2022-06-26T11:59:40Z</time>
      </trkpt>
      <trkpt lat="45.79449" lon="4.44642">
        <ele>734</ele>
        <time>2022-06-26T11:59:41Z</time>
      </trkpt>
      <trkpt lat="45.79451" lon="4.44653">
        <ele>734</ele>
        <time>2022-06-26T11:59:42Z</time>
      </trkpt>
      <trkpt lat="45.79453" lon="4.44663">
        <ele>734</ele>
        <time>2022-06-26T11:59:43Z</time>
      </trkpt>
      <trkpt lat="45.79455" lon="4.44672">
        <ele>734</ele>
        <time>2022-06-26T11:59:44Z</time>
      </trkpt>
      <trkpt lat="45.79457" lon="4.44682">
        <ele>734</ele>
        <time>2022-06-26T11:59:45Z</time>
      </trkpt>
      <trkpt lat="45.79459" lon="4.44691">
        <ele>734</ele>
        <time>2022-06-26T11:59:46Z</time>
      </trkpt>
      <trkpt lat="45.79461" lon="4.44701">
        <ele>734</ele>
        <time>2022-06-26T11:59:47Z</time>
      </trkpt>
      <trkpt lat="45.79463" lon="4.4471">
        <ele>734</ele>
        <time>2022-06-26T11:59:48Z</time>
      </trkpt>
      <trkpt lat="45.79465" lon="4.44719">
        <ele>734</ele>
        <time>2022-06-26T11:59:49Z</time>
      </trkpt>
      <trkpt lat="45.79467" lon="4.44727">
        <ele>734</ele>
        <time>2022-06-26T11:59:50Z</time>
      </trkpt>
      <trkpt lat="45.7947" lon="4.4474">
        <ele>733.6</ele>
        <time>2022-06-26T11:59:51Z</time>
      </trkpt>
      <trkpt lat="45.79471" lon="4.44745">
        <ele>733.6</ele>
        <time>2022-06-26T11:59:52Z</time>
      </trkpt>
      <trkpt lat="45.79473" lon="4.44753">
        <ele>733.6</ele>
        <time>2022-06-26T11:59:53Z</time>
      </trkpt>
      <trkpt lat="45.79475" lon="4.44762">
        <ele>733.6</ele>
        <time>2022-06-26T11:59:54Z</time>
      </trkpt>
      <trkpt lat="45.79476" lon="4.4477">
        <ele>733.6</ele>
        <time>2022-06-26T11:59:55Z</time>
      </trkpt>
      <trkpt lat="45.79478" lon="4.44778">
        <ele>733.6</ele>
        <time>2022-06-26T11:59:56Z</time>
      </trkpt>
      <trkpt lat="45.7948" lon="4.44785">
        <ele>734</ele>
        <time>2022-06-26T11:59:57Z</time>
      </trkpt>
      <trkpt lat="45.79481" lon="4.44793">
        <ele>734</ele>
        <time>2022-06-26T11:59:58Z</time>
      </trkpt>
      <trkpt lat="45.79482" lon="4.448">
        <ele>734</ele>
        <time>2022-06-26T11:59:59Z</time>
      </trkpt>
      <trkpt lat="45.79483" lon="4.44808">
        <ele>734.2</ele>
        <time>2022-06-26T12:00:00Z</time>
      </trkpt>
      <trkpt lat="45.79484" lon="4.44815">
        <ele>734.2</ele>
        <time>2022-06-26T12:00:01Z</time>
      </trkpt>
      <trkpt lat="45.79485" lon="4.44823">
        <ele>734.6</ele>
        <time>2022-06-26T12:00:02Z</time>
      </trkpt>
      <trkpt lat="45.79486" lon="4.4483">
        <ele>734.6</ele>
        <time>2022-06-26T12:00:03Z</time>
      </trkpt>
      <trkpt lat="45.79486" lon="4.44837">
        <ele>734.8</ele>
        <time>2022-06-26T12:00:04Z</time>
      </trkpt>
      <trkpt lat="45.79487" lon="4.44845">
        <ele>734.8</ele>
        <time>2022-06-26T12:00:05Z</time>
      </trkpt>
      <trkpt lat="45.79486" lon="4.44852">
        <ele>735.2</ele>
        <time>2022-06-26T12:00:06Z</time>
      </trkpt>
      <trkpt lat="45.79486" lon="4.44858">
        <ele>735.2</ele>
        <time>2022-06-26T12:00:07Z</time>
      </trkpt>
      <trkpt lat="45.79485" lon="4.44864">
        <ele>735.4</ele>
        <time>2022-06-26T12:00:08Z</time>
      </trkpt>
      <trkpt lat="45.79485" lon="4.44871">
        <ele>735.4</ele>
        <time>2022-06-26T12:00:09Z</time>
      </trkpt>
      <trkpt lat="45.79484" lon="4.44877">
        <ele>735.8</ele>
        <time>2022-06-26T12:00:10Z</time>
      </trkpt>
      <trkpt lat="45.79483" lon="4.44883">
        <ele>735.8</ele>
        <time>2022-06-26T12:00:11Z</time>
      </trkpt>
      <trkpt lat="45.79482" lon="4.4489">
        <ele>736</ele>
        <time>2022-06-26T12:00:12Z</time>
      </trkpt>
      <trkpt lat="45.7948" lon="4.44897">
        <ele>736</ele>
        <time>2022-06-26T12:00:13Z</time>
      </trkpt>
      <trkpt lat="45.79479" lon="4.44903">
        <ele>736.2</ele>
        <time>2022-06-26T12:00:14Z</time>
      </trkpt>
      <trkpt lat="45.79478" lon="4.4491">
        <ele>736.2</ele>
        <time>2022-06-26T12:00:15Z</time>
      </trkpt>
      <trkpt lat="45.79477" lon="4.44917">
        <ele>736.6</ele>
        <time>2022-06-26T12:00:16Z</time>
      </trkpt>
      <trkpt lat="45.79476" lon="4.44923">
        <ele>736.6</ele>
        <time>2022-06-26T12:00:17Z</time>
      </trkpt>
      <trkpt lat="45.79474" lon="4.4493">
        <ele>736.6</ele>
        <time>2022-06-26T12:00:18Z</time>
      </trkpt>
      <trkpt lat="45.79473" lon="4.44937">
        <ele>736.8</ele>
        <time>2022-06-26T12:00:19Z</time>
      </trkpt>
      <trkpt lat="45.79472" lon="4.44943">
        <ele>736.8</ele>
        <time>2022-06-26T12:00:20Z</time>
      </trkpt>
      <trkpt lat="45.7947" lon="4.4495">
        <ele>737.2</ele>
        <time>2022-06-26T12:00:21Z</time>
      </trkpt>
      <trkpt lat="45.79469" lon="4.44956">
        <ele>737.2</ele>
        <time>2022-06-26T12:00:22Z</time>
      </trkpt>
      <trkpt lat="45.79468" lon="4.44962">
        <ele>737.4</ele>
        <time>2022-06-26T12:00:23Z</time>
      </trkpt>
      <trkpt lat="45.79467" lon="4.44968">
        <ele>737.4</ele>
        <time>2022-06-26T12:00:24Z</time>
      </trkpt>
      <trkpt lat="45.79465" lon="4.44975">
        <ele>737.6</ele>
        <time>2022-06-26T12:00:25Z</time>
      </trkpt>
      <trkpt lat="45.79464" lon="4.44981">
        <ele>737.6</ele>
        <time>2022-06-26T12:00:26Z</time>
      </trkpt>
      <trkpt lat="45.79463" lon="4.44988">
        <ele>737.8</ele>
        <time>2022-06-26T12:00:27Z</time>
      </trkpt>
      <trkpt lat="45.79462" lon="4.44994">
        <ele>737.8</ele>
        <time>2022-06-26T12:00:28Z</time>
      </trkpt>
      <trkpt lat="45.79461" lon="4.45">
        <ele>737.8</ele>
        <time>2022-06-26T12:00:29Z</time>
      </trkpt>
      <trkpt lat="45.79461" lon="4.45007">
        <ele>738</ele>
        <time>2022-06-26T12:00:30Z</time>
      </trkpt>
      <trkpt lat="45.7946" lon="4.45014">
        <ele>738</ele>
        <time>2022-06-26T12:00:31Z</time>
      </trkpt>
      <trkpt lat="45.79459" lon="4.4502">
        <ele>738</ele>
        <time>2022-06-26T12:00:32Z</time>
      </trkpt>
      <trkpt lat="45.79459" lon="4.45027">
        <ele>738.4</ele>
        <time>2022-06-26T12:00:33Z</time>
      </trkpt>
      <trkpt lat="45.79458" lon="4.45036">
        <ele>738.4</ele>
        <time>2022-06-26T12:00:34Z</time>
      </trkpt>
      <trkpt lat="45.79458" lon="4.4504">
        <ele>738.8</ele>
        <time>2022-06-26T12:00:35Z</time>
      </trkpt>
      <trkpt lat="45.79459" lon="4.45049">
        <ele>738.8</ele>
        <time>2022-06-26T12:00:36Z</time>
      </trkpt>
      <trkpt lat="45.79459" lon="4.45053">
        <ele>739</ele>
        <time>2022-06-26T12:00:37Z</time>
      </trkpt>
      <trkpt lat="45.7946" lon="4.45059">
        <ele>739</ele>
        <time>2022-06-26T12:00:38Z</time>
      </trkpt>
      <trkpt lat="45.79461" lon="4.45066">
        <ele>739</ele>
        <time>2022-06-26T12:00:39Z</time>
      </trkpt>
      <trkpt lat="45.79463" lon="4.45072">
        <ele>739.4</ele>
        <time>2022-06-26T12:00:40Z</time>
      </trkpt>
      <trkpt lat="45.79466" lon="4.45078">
        <ele>739.4</ele>
        <time>2022-06-26T12:00:41Z</time>
      </trkpt>
      <trkpt lat="45.79469" lon="4.45084">
        <ele>739.4</ele>
        <time>2022-06-26T12:00:42Z</time>
      </trkpt>
      <trkpt lat="45.79472" lon="4.4509">
        <ele>739.6</ele>
        <time>2022-06-26T12:00:43Z</time>
      </trkpt>
      <trkpt lat="45.79476" lon="4.45094">
        <ele>739.6</ele>
        <time>2022-06-26T12:00:44Z</time>
      </trkpt>
      <trkpt lat="45.7948" lon="4.45098">
        <ele>740</ele>
        <time>2022-06-26T12:00:45Z</time>
      </trkpt>
      <trkpt lat="45.79484" lon="4.45101">
        <ele>740</ele>
        <time>2022-06-26T12:00:46Z</time>
      </trkpt>
      <trkpt lat="45.79489" lon="4.45104">
        <ele>740</ele>
        <time>2022-06-26T12:00:47Z</time>
      </trkpt>
      <trkpt lat="45.79494" lon="4.45106">
        <ele>740.2</ele>
        <time>2022-06-26T12:00:48Z</time>
      </trkpt>
      <trkpt lat="45.79499" lon="4.45107">
        <ele>740.2</ele>
        <time>2022-06-26T12:00:49Z</time>
      </trkpt>
      <trkpt lat="45.79504" lon="4.45108">
        <ele>740.2</ele>
        <time>2022-06-26T12:00:50Z</time>
      </trkpt>
      <trkpt lat="45.79509" lon="4.45107">
        <ele>740.4</ele>
        <time>2022-06-26T12:00:51Z</time>
      </trkpt>
      <trkpt lat="45.79514" lon="4.45106">
        <ele>740.4</ele>
        <time>2022-06-26T12:00:52Z</time>
      </trkpt>
      <trkpt lat="45.79519" lon="4.45105">
        <ele>740.4</ele>
        <time>2022-06-26T12:00:53Z</time>
      </trkpt>
      <trkpt lat="45.79524" lon="4.45103">
        <ele>740.6</ele>
        <time>2022-06-26T12:00:54Z</time>
      </trkpt>
      <trkpt lat="45.7953" lon="4.45101">
        <ele>740.6</ele>
        <time>2022-06-26T12:00:55Z</time>
      </trkpt>
      <trkpt lat="45.79535" lon="4.45099">
        <ele>740.6</ele>
        <time>2022-06-26T12:00:56Z</time>
      </trkpt>
      <trkpt lat="45.79541" lon="4.45096">
        <ele>740.6</ele>
        <time>2022-06-26T12:00:57Z</time>
      </trkpt>
      <trkpt lat="45.79546" lon="4.45092">
        <ele>740.6</ele>
        <time>2022-06-26T12:00:58Z</time>
      </trkpt>
      <trkpt lat="45.79552" lon="4.45088">
        <ele>740.4</ele>
        <time>2022-06-26T12:00:59Z</time>
      </trkpt>
      <trkpt lat="45.79557" lon="4.45084">
        <ele>740.4</ele>
        <time>2022-06-26T12:01:00Z</time>
      </trkpt>
      <trkpt lat="45.79563" lon="4.45079">
        <ele>740.4</ele>
        <time>2022-06-26T12:01:01Z</time>
      </trkpt>
      <trkpt lat="45.79568" lon="4.45074">
        <ele>740.4</ele>
        <time>2022-06-26T12:01:02Z</time>
      </trkpt>
      <trkpt lat="45.79574" lon="4.45069">
        <ele>740</ele>
        <time>2022-06-26T12:01:03Z</time>
      </trkpt>
      <trkpt lat="45.7958" lon="4.45064">
        <ele>740</ele>
        <time>2022-06-26T12:01:04Z</time>
      </trkpt>
      <trkpt lat="45.79586" lon="4.45059">
        <ele>739.8</ele>
        <time>2022-06-26T12:01:05Z</time>
      </trkpt>
      <trkpt lat="45.79592" lon="4.45053">
        <ele>739.8</ele>
        <time>2022-06-26T12:01:06Z</time>
      </trkpt>
      <trkpt lat="45.79599" lon="4.45048">
        <ele>739.6</ele>
        <time>2022-06-26T12:01:07Z</time>
      </trkpt>
      <trkpt lat="45.79605" lon="4.45044">
        <ele>739.6</ele>
        <time>2022-06-26T12:01:08Z</time>
      </trkpt>
      <trkpt lat="45.79612" lon="4.4504">
        <ele>739.2</ele>
        <time>2022-06-26T12:01:09Z</time>
      </trkpt>
      <trkpt lat="45.79619" lon="4.45037">
        <ele>739.2</ele>
        <time>2022-06-26T12:01:10Z</time>
      </trkpt>
      <trkpt lat="45.79626" lon="4.45034">
        <ele>739</ele>
        <time>2022-06-26T12:01:11Z</time>
      </trkpt>
      <trkpt lat="45.79633" lon="4.45031">
        <ele>738.6</ele>
        <time>2022-06-26T12:01:12Z</time>
      </trkpt>
      <trkpt lat="45.79639" lon="4.45029">
        <ele>738.6</ele>
        <time>2022-06-26T12:01:13Z</time>
      </trkpt>
      <trkpt lat="45.79646" lon="4.45026">
        <ele>738.4</ele>
        <time>2022-06-26T12:01:14Z</time>
      </trkpt>
      <trkpt lat="45.79654" lon="4.45024">
        <ele>738.2</ele>
        <time>2022-06-26T12:01:15Z</time>
      </trkpt>
      <trkpt lat="45.79661" lon="4.45021">
        <ele>738.2</ele>
        <time>2022-06-26T12:01:16Z</time>
      </trkpt>
      <trkpt lat="45.79668" lon="4.4502">
        <ele>737.8</ele>
        <time>2022-06-26T12:01:17Z</time>
      </trkpt>
      <trkpt lat="45.79675" lon="4.45018">
        <ele>737.8</ele>
        <time>2022-06-26T12:01:18Z</time>
      </trkpt>
      <trkpt lat="45.79683" lon="4.45018">
        <ele>737.4</ele>
        <time>2022-06-26T12:01:19Z</time>
      </trkpt>
      <trkpt lat="45.7969" lon="4.45018">
        <ele>737.2</ele>
        <time>2022-06-26T12:01:20Z</time>
      </trkpt>
      <trkpt lat="45.79698" lon="4.4502">
        <ele>737</ele>
        <time>2022-06-26T12:01:21Z</time>
      </trkpt>
      <trkpt lat="45.79706" lon="4.45023">
        <ele>737</ele>
        <time>2022-06-26T12:01:22Z</time>
      </trkpt>
      <trkpt lat="45.79714" lon="4.45026">
        <ele>736.6</ele>
        <time>2022-06-26T12:01:23Z</time>
      </trkpt>
      <trkpt lat="45.79721" lon="4.4503">
        <ele>736.6</ele>
        <time>2022-06-26T12:01:24Z</time>
      </trkpt>
      <trkpt lat="45.79728" lon="4.45033">
        <ele>736.4</ele>
        <time>2022-06-26T12:01:25Z</time>
      </trkpt>
      <trkpt lat="45.79735" lon="4.45038">
        <ele>736.4</ele>
        <time>2022-06-26T12:01:26Z</time>
      </trkpt>
      <trkpt lat="45.79741" lon="4.45042">
        <ele>736.4</ele>
        <time>2022-06-26T12:01:27Z</time>
      </trkpt>
      <trkpt lat="45.79747" lon="4.45046">
        <ele>736.4</ele>
        <time>2022-06-26T12:01:28Z</time>
      </trkpt>
      <trkpt lat="45.79753" lon="4.4505">
        <ele>736.4</ele>
        <time>2022-06-26T12:01:29Z</time>
      </trkpt>
      <trkpt lat="45.7976" lon="4.45054">
        <ele>736.4</ele>
        <time>2022-06-26T12:01:30Z</time>
      </trkpt>
      <trkpt lat="45.79766" lon="4.45058">
        <ele>736.4</ele>
        <time>2022-06-26T12:01:31Z</time>
      </trkpt>
      <trkpt lat="45.79773" lon="4.45062">
        <ele>736.4</ele>
        <time>2022-06-26T12:01:32Z</time>
      </trkpt>
      <trkpt lat="45.7978" lon="4.45066">
        <ele>736.2</ele>
        <time>2022-06-26T12:01:33Z</time>
      </trkpt>
      <trkpt lat="45.79787" lon="4.4507">
        <ele>736</ele>
        <time>2022-06-26T12:01:34Z</time>
      </trkpt>
      <trkpt lat="45.79794" lon="4.45074">
        <ele>736</ele>
        <time>2022-06-26T12:01:35Z</time>
      </trkpt>
      <trkpt lat="45.79801" lon="4.45079">
        <ele>735.8</ele>
        <time>2022-06-26T12:01:36Z</time>
      </trkpt>
      <trkpt lat="45.79809" lon="4.45083">
        <ele>735.4</ele>
        <time>2022-06-26T12:01:37Z</time>
      </trkpt>
      <trkpt lat="45.79816" lon="4.45088">
        <ele>735.2</ele>
        <time>2022-06-26T12:01:38Z</time>
      </trkpt>
      <trkpt lat="45.79823" lon="4.45093">
        <ele>735.2</ele>
        <time>2022-06-26T12:01:39Z</time>
      </trkpt>
      <trkpt lat="45.7983" lon="4.45099">
        <ele>734.8</ele>
        <time>2022-06-26T12:01:40Z</time>
      </trkpt>
      <trkpt lat="45.79836" lon="4.45105">
        <ele>734.4</ele>
        <time>2022-06-26T12:01:41Z</time>
      </trkpt>
      <trkpt lat="45.79842" lon="4.45113">
        <ele>734.4</ele>
        <time>2022-06-26T12:01:42Z</time>
      </trkpt>
      <trkpt lat="45.79848" lon="4.45122">
        <ele>734.2</ele>
        <time>2022-06-26T12:01:43Z</time>
      </trkpt>
      <trkpt lat="45.79853" lon="4.45131">
        <ele>734.2</ele>
        <time>2022-06-26T12:01:44Z</time>
      </trkpt>
      <trkpt lat="45.79857" lon="4.45141">
        <ele>734.2</ele>
        <time>2022-06-26T12:01:45Z</time>
      </trkpt>
      <trkpt lat="45.79862" lon="4.4515">
        <ele>733.8</ele>
        <time>2022-06-26T12:01:46Z</time>
      </trkpt>
      <trkpt lat="45.79867" lon="4.45159">
        <ele>733.8</ele>
        <time>2022-06-26T12:01:47Z</time>
      </trkpt>
      <trkpt lat="45.79871" lon="4.45168">
        <ele>733.4</ele>
        <time>2022-06-26T12:01:48Z</time>
      </trkpt>
      <trkpt lat="45.79875" lon="4.45178">
        <ele>733.4</ele>
        <time>2022-06-26T12:01:49Z</time>
      </trkpt>
      <trkpt lat="45.79879" lon="4.45187">
        <ele>733</ele>
        <time>2022-06-26T12:01:50Z</time>
      </trkpt>
      <trkpt lat="45.79883" lon="4.45197">
        <ele>732.8</ele>
        <time>2022-06-26T12:01:51Z</time>
      </trkpt>
      <trkpt lat="45.79886" lon="4.45207">
        <ele>732.4</ele>
        <time>2022-06-26T12:01:52Z</time>
      </trkpt>
      <trkpt lat="45.79889" lon="4.45218">
        <ele>732</ele>
        <time>2022-06-26T12:01:53Z</time>
      </trkpt>
      <trkpt lat="45.79891" lon="4.4523">
        <ele>731.6</ele>
        <time>2022-06-26T12:01:54Z</time>
      </trkpt>
      <trkpt lat="45.79893" lon="4.45242">
        <ele>731.2</ele>
        <time>2022-06-26T12:01:55Z</time>
      </trkpt>
      <trkpt lat="45.79894" lon="4.45254">
        <ele>730.8</ele>
        <time>2022-06-26T12:01:56Z</time>
      </trkpt>
      <trkpt lat="45.79895" lon="4.45267">
        <ele>730.6</ele>
        <time>2022-06-26T12:01:57Z</time>
      </trkpt>
      <trkpt lat="45.79896" lon="4.45282">
        <ele>730.6</ele>
        <time>2022-06-26T12:01:58Z</time>
      </trkpt>
      <trkpt lat="45.79897" lon="4.45297">
        <ele>730</ele>
        <time>2022-06-26T12:01:59Z</time>
      </trkpt>
      <trkpt lat="45.79898" lon="4.45311">
        <ele>729.4</ele>
        <time>2022-06-26T12:02:00Z</time>
      </trkpt>
      <trkpt lat="45.79898" lon="4.45325">
        <ele>729.2</ele>
        <time>2022-06-26T12:02:01Z</time>
      </trkpt>
      <trkpt lat="45.799" lon="4.4534">
        <ele>729.2</ele>
        <time>2022-06-26T12:02:02Z</time>
      </trkpt>
      <trkpt lat="45.799" lon="4.45354">
        <ele>729</ele>
        <time>2022-06-26T12:02:03Z</time>
      </trkpt>
      <trkpt lat="45.79901" lon="4.45368">
        <ele>728.6</ele>
        <time>2022-06-26T12:02:04Z</time>
      </trkpt>
      <trkpt lat="45.79902" lon="4.45382">
        <ele>728.2</ele>
        <time>2022-06-26T12:02:05Z</time>
      </trkpt>
      <trkpt lat="45.79903" lon="4.45397">
        <ele>728</ele>
        <time>2022-06-26T12:02:06Z</time>
      </trkpt>
      <trkpt lat="45.79904" lon="4.45411">
        <ele>727.4</ele>
        <time>2022-06-26T12:02:07Z</time>
      </trkpt>
      <trkpt lat="45.79905" lon="4.45426">
        <ele>727</ele>
        <time>2022-06-26T12:02:08Z</time>
      </trkpt>
      <trkpt lat="45.79905" lon="4.45439">
        <ele>726.8</ele>
        <time>2022-06-26T12:02:09Z</time>
      </trkpt>
      <trkpt lat="45.79905" lon="4.45454">
        <ele>726.4</ele>
        <time>2022-06-26T12:02:10Z</time>
      </trkpt>
      <trkpt lat="45.79906" lon="4.45469">
        <ele>725.8</ele>
        <time>2022-06-26T12:02:11Z</time>
      </trkpt>
      <trkpt lat="45.79907" lon="4.45484">
        <ele>725.8</ele>
        <time>2022-06-26T12:02:12Z</time>
      </trkpt>
      <trkpt lat="45.79908" lon="4.45498">
        <ele>725.2</ele>
        <time>2022-06-26T12:02:13Z</time>
      </trkpt>
      <trkpt lat="45.79908" lon="4.45513">
        <ele>724.8</ele>
        <time>2022-06-26T12:02:14Z</time>
      </trkpt>
      <trkpt lat="45.7991" lon="4.45528">
        <ele>724.2</ele>
        <time>2022-06-26T12:02:15Z</time>
      </trkpt>
      <trkpt lat="45.79911" lon="4.45543">
        <ele>723.6</ele>
        <time>2022-06-26T12:02:16Z</time>
      </trkpt>
      <trkpt lat="45.79912" lon="4.45558">
        <ele>722.8</ele>
        <time>2022-06-26T12:02:17Z</time>
      </trkpt>
      <trkpt lat="45.79913" lon="4.45574">
        <ele>721.8</ele>
        <time>2022-06-26T12:02:18Z</time>
      </trkpt>
      <trkpt lat="45.79913" lon="4.45589">
        <ele>721.2</ele>
        <time>2022-06-26T12:02:19Z</time>
      </trkpt>
      <trkpt lat="45.79914" lon="4.45605">
        <ele>720.6</ele>
        <time>2022-06-26T12:02:20Z</time>
      </trkpt>
      <trkpt lat="45.79914" lon="4.45621">
        <ele>720</ele>
        <time>2022-06-26T12:02:21Z</time>
      </trkpt>
      <trkpt lat="45.79912" lon="4.45636">
        <ele>719.6</ele>
        <time>2022-06-26T12:02:22Z</time>
      </trkpt>
      <trkpt lat="45.79911" lon="4.45653">
        <ele>719</ele>
        <time>2022-06-26T12:02:23Z</time>
      </trkpt>
      <trkpt lat="45.7991" lon="4.45669">
        <ele>718.6</ele>
        <time>2022-06-26T12:02:24Z</time>
      </trkpt>
      <trkpt lat="45.79907" lon="4.45683">
        <ele>718</ele>
        <time>2022-06-26T12:02:25Z</time>
      </trkpt>
      <trkpt lat="45.79903" lon="4.45699">
        <ele>717.2</ele>
        <time>2022-06-26T12:02:26Z</time>
      </trkpt>
      <trkpt lat="45.799" lon="4.45712">
        <ele>716.6</ele>
        <time>2022-06-26T12:02:27Z</time>
      </trkpt>
      <trkpt lat="45.79896" lon="4.45726">
        <ele>716.6</ele>
        <time>2022-06-26T12:02:28Z</time>
      </trkpt>
      <trkpt lat="45.7989" lon="4.4574">
        <ele>716</ele>
        <time>2022-06-26T12:02:29Z</time>
      </trkpt>
      <trkpt lat="45.79886" lon="4.45753">
        <ele>715.2</ele>
        <time>2022-06-26T12:02:30Z</time>
      </trkpt>
      <trkpt lat="45.79881" lon="4.45767">
        <ele>714.6</ele>
        <time>2022-06-26T12:02:31Z</time>
      </trkpt>
      <trkpt lat="45.79876" lon="4.45781">
        <ele>714.2</ele>
        <time>2022-06-26T12:02:32Z</time>
      </trkpt>
      <trkpt lat="45.79871" lon="4.45795">
        <ele>713.6</ele>
        <time>2022-06-26T12:02:33Z</time>
      </trkpt>
      <trkpt lat="45.79866" lon="4.45809">
        <ele>713.4</ele>
        <time>2022-06-26T12:02:34Z</time>
      </trkpt>
      <trkpt lat="45.79862" lon="4.45823">
        <ele>712.8</ele>
        <time>2022-06-26T12:02:35Z</time>
      </trkpt>
      <trkpt lat="45.79856" lon="4.45837">
        <ele>712</ele>
        <time>2022-06-26T12:02:36Z</time>
      </trkpt>
      <trkpt lat="45.7985" lon="4.45851">
        <ele>711.4</ele>
        <time>2022-06-26T12:02:37Z</time>
      </trkpt>
      <trkpt lat="45.79841" lon="4.45863">
        <ele>711.2</ele>
        <time>2022-06-26T12:02:38Z</time>
      </trkpt>
      <trkpt lat="45.79832" lon="4.45872">
        <ele>710.4</ele>
        <time>2022-06-26T12:02:39Z</time>
      </trkpt>
      <trkpt lat="45.79822" lon="4.4588">
        <ele>709.8</ele>
        <time>2022-06-26T12:02:40Z</time>
      </trkpt>
      <trkpt lat="45.79811" lon="4.45887">
        <ele>709.4</ele>
        <time>2022-06-26T12:02:41Z</time>
      </trkpt>
      <trkpt lat="45.798" lon="4.4589">
        <ele>709</ele>
        <time>2022-06-26T12:02:42Z</time>
      </trkpt>
      <trkpt lat="45.79788" lon="4.4589">
        <ele>708.4</ele>
        <time>2022-06-26T12:02:43Z</time>
      </trkpt>
      <trkpt lat="45.79777" lon="4.45887">
        <ele>707.8</ele>
        <time>2022-06-26T12:02:44Z</time>
      </trkpt>
      <trkpt lat="45.79765" lon="4.45883">
        <ele>706.8</ele>
        <time>2022-06-26T12:02:45Z</time>
      </trkpt>
      <trkpt lat="45.79754" lon="4.4588">
        <ele>706</ele>
        <time>2022-06-26T12:02:46Z</time>
      </trkpt>
      <trkpt lat="45.79742" lon="4.45875">
        <ele>705.2</ele>
        <time>2022-06-26T12:02:47Z</time>
      </trkpt>
      <trkpt lat="45.79731" lon="4.45872">
        <ele>704.4</ele>
        <time>2022-06-26T12:02:48Z</time>
      </trkpt>
      <trkpt lat="45.7972" lon="4.45867">
        <ele>703.8</ele>
        <time>2022-06-26T12:02:49Z</time>
      </trkpt>
      <trkpt lat="45.79708" lon="4.45864">
        <ele>703.2</ele>
        <time>2022-06-26T12:02:50Z</time>
      </trkpt>
      <trkpt lat="45.79698" lon="4.45862">
        <ele>702.6</ele>
        <time>2022-06-26T12:02:51Z</time>
      </trkpt>
      <trkpt lat="45.79687" lon="4.4586">
        <ele>702.4</ele>
        <time>2022-06-26T12:02:52Z</time>
      </trkpt>
      <trkpt lat="45.79677" lon="4.4586">
        <ele>702</ele>
        <time>2022-06-26T12:02:53Z</time>
      </trkpt>
      <trkpt lat="45.79668" lon="4.45862">
        <ele>701.6</ele>
        <time>2022-06-26T12:02:54Z</time>
      </trkpt>
      <trkpt lat="45.79657" lon="4.45867">
        <ele>701</ele>
        <time>2022-06-26T12:02:55Z</time>
      </trkpt>
      <trkpt lat="45.79648" lon="4.45873">
        <ele>700.2</ele>
        <time>2022-06-26T12:02:56Z</time>
      </trkpt>
      <trkpt lat="45.79639" lon="4.4588">
        <ele>699.4</ele>
        <time>2022-06-26T12:02:57Z</time>
      </trkpt>
      <trkpt lat="45.79629" lon="4.45887">
        <ele>698.8</ele>
        <time>2022-06-26T12:02:58Z</time>
      </trkpt>
      <trkpt lat="45.79619" lon="4.45894">
        <ele>698</ele>
        <time>2022-06-26T12:02:59Z</time>
      </trkpt>
      <trkpt lat="45.79609" lon="4.45902">
        <ele>697.2</ele>
        <time>2022-06-26T12:03:00Z</time>
      </trkpt>
      <trkpt lat="45.79599" lon="4.45909">
        <ele>696.2</ele>
        <time>2022-06-26T12:03:02Z</time>
      </trkpt>
      <trkpt lat="45.79589" lon="4.45917">
        <ele>695.4</ele>
        <time>2022-06-26T12:03:03Z</time>
      </trkpt>
      <trkpt lat="45.7958" lon="4.45924">
        <ele>694.8</ele>
        <time>2022-06-26T12:03:04Z</time>
      </trkpt>
      <trkpt lat="45.79571" lon="4.45931">
        <ele>694</ele>
        <time>2022-06-26T12:03:05Z</time>
      </trkpt>
      <trkpt lat="45.79563" lon="4.45938">
        <ele>693.4</ele>
        <time>2022-06-26T12:03:06Z</time>
      </trkpt>
      <trkpt lat="45.79554" lon="4.45945">
        <ele>692.6</ele>
        <time>2022-06-26T12:03:07Z</time>
      </trkpt>
      <trkpt lat="45.79547" lon="4.45954">
        <ele>692</ele>
        <time>2022-06-26T12:03:08Z</time>
      </trkpt>
      <trkpt lat="45.79539" lon="4.45962">
        <ele>691.6</ele>
        <time>2022-06-26T12:03:09Z</time>
      </trkpt>
      <trkpt lat="45.79532" lon="4.45971">
        <ele>691</ele>
        <time>2022-06-26T12:03:10Z</time>
      </trkpt>
      <trkpt lat="45.79524" lon="4.45981">
        <ele>690.8</ele>
        <time>2022-06-26T12:03:11Z</time>
      </trkpt>
      <trkpt lat="45.79518" lon="4.45991">
        <ele>690.2</ele>
        <time>2022-06-26T12:03:12Z</time>
      </trkpt>
      <trkpt lat="45.79512" lon="4.46002">
        <ele>689.6</ele>
        <time>2022-06-26T12:03:13Z</time>
      </trkpt>
      <trkpt lat="45.79507" lon="4.46013">
        <ele>689.6</ele>
        <time>2022-06-26T12:03:14Z</time>
      </trkpt>
      <trkpt lat="45.79504" lon="4.46026">
        <ele>688.8</ele>
        <time>2022-06-26T12:03:15Z</time>
      </trkpt>
      <trkpt lat="45.795" lon="4.46039">
        <ele>688.4</ele>
        <time>2022-06-26T12:03:16Z</time>
      </trkpt>
      <trkpt lat="45.79497" lon="4.46053">
        <ele>688</ele>
        <time>2022-06-26T12:03:17Z</time>
      </trkpt>
      <trkpt lat="45.79495" lon="4.46066">
        <ele>687.4</ele>
        <time>2022-06-26T12:03:18Z</time>
      </trkpt>
      <trkpt lat="45.79492" lon="4.46081">
        <ele>687</ele>
        <time>2022-06-26T12:03:19Z</time>
      </trkpt>
      <trkpt lat="45.79486" lon="4.46108">
        <ele>686.4</ele>
        <time>2022-06-26T12:03:20Z</time>
      </trkpt>
      <trkpt lat="45.79483" lon="4.46122">
        <ele>685.6</ele>
        <time>2022-06-26T12:03:21Z</time>
      </trkpt>
      <trkpt lat="45.7948" lon="4.46137">
        <ele>685</ele>
        <time>2022-06-26T12:03:22Z</time>
      </trkpt>
      <trkpt lat="45.79476" lon="4.46152">
        <ele>684.2</ele>
        <time>2022-06-26T12:03:23Z</time>
      </trkpt>
      <trkpt lat="45.79472" lon="4.46166">
        <ele>683.8</ele>
        <time>2022-06-26T12:03:24Z</time>
      </trkpt>
      <trkpt lat="45.79468" lon="4.46181">
        <ele>683.8</ele>
        <time>2022-06-26T12:03:25Z</time>
      </trkpt>
      <trkpt lat="45.79464" lon="4.46196">
        <ele>683.2</ele>
        <time>2022-06-26T12:03:26Z</time>
      </trkpt>
      <trkpt lat="45.79461" lon="4.46211">
        <ele>682.6</ele>
        <time>2022-06-26T12:03:27Z</time>
      </trkpt>
      <trkpt lat="45.79458" lon="4.46227">
        <ele>682.2</ele>
        <time>2022-06-26T12:03:28Z</time>
      </trkpt>
      <trkpt lat="45.79454" lon="4.46242">
        <ele>681.4</ele>
        <time>2022-06-26T12:03:29Z</time>
      </trkpt>
      <trkpt lat="45.7945" lon="4.46257">
        <ele>681</ele>
        <time>2022-06-26T12:03:30Z</time>
      </trkpt>
      <trkpt lat="45.79447" lon="4.46273">
        <ele>680.4</ele>
        <time>2022-06-26T12:03:31Z</time>
      </trkpt>
      <trkpt lat="45.79444" lon="4.46287">
        <ele>679.8</ele>
        <time>2022-06-26T12:03:32Z</time>
      </trkpt>
      <trkpt lat="45.7944" lon="4.46301">
        <ele>679.4</ele>
        <time>2022-06-26T12:03:33Z</time>
      </trkpt>
      <trkpt lat="45.79437" lon="4.46315">
        <ele>678.6</ele>
        <time>2022-06-26T12:03:34Z</time>
      </trkpt>
      <trkpt lat="45.79433" lon="4.46328">
        <ele>678.2</ele>
        <time>2022-06-26T12:03:35Z</time>
      </trkpt>
      <trkpt lat="45.79428" lon="4.46341">
        <ele>677.8</ele>
        <time>2022-06-26T12:03:36Z</time>
      </trkpt>
      <trkpt lat="45.79424" lon="4.46353">
        <ele>677.4</ele>
        <time>2022-06-26T12:03:37Z</time>
      </trkpt>
      <trkpt lat="45.79419" lon="4.46364">
        <ele>677</ele>
        <time>2022-06-26T12:03:38Z</time>
      </trkpt>
      <trkpt lat="45.79414" lon="4.46375">
        <ele>676.6</ele>
        <time>2022-06-26T12:03:39Z</time>
      </trkpt>
      <trkpt lat="45.7941" lon="4.46384">
        <ele>676.4</ele>
        <time>2022-06-26T12:03:40Z</time>
      </trkpt>
      <trkpt lat="45.79405" lon="4.46392">
        <ele>676</ele>
        <time>2022-06-26T12:03:41Z</time>
      </trkpt>
      <trkpt lat="45.79401" lon="4.46399">
        <ele>675.6</ele>
        <time>2022-06-26T12:03:42Z</time>
      </trkpt>
      <trkpt lat="45.79397" lon="4.46404">
        <ele>675.2</ele>
        <time>2022-06-26T12:03:43Z</time>
      </trkpt>
      <trkpt lat="45.79394" lon="4.46408">
        <ele>675</ele>
        <time>2022-06-26T12:03:44Z</time>
      </trkpt>
      <trkpt lat="45.79392" lon="4.46411">
        <ele>674.8</ele>
        <time>2022-06-26T12:03:45Z</time>
      </trkpt>
      <trkpt lat="45.7939" lon="4.46413">
        <ele>674.6</ele>
        <time>2022-06-26T12:03:46Z</time>
      </trkpt>
      <trkpt lat="45.79389" lon="4.46416">
        <ele>674.6</ele>
        <time>2022-06-26T12:03:47Z</time>
      </trkpt>
      <trkpt lat="45.79387" lon="4.46417">
        <ele>673.8</ele>
        <time>2022-06-26T12:04:37Z</time>
      </trkpt>
      <trkpt lat="45.79386" lon="4.46419">
        <ele>674</ele>
        <time>2022-06-26T12:04:38Z</time>
      </trkpt>
      <trkpt lat="45.79385" lon="4.46421">
        <ele>674</ele>
        <time>2022-06-26T12:04:39Z</time>
      </trkpt>
      <trkpt lat="45.79383" lon="4.46424">
        <ele>674</ele>
        <time>2022-06-26T12:04:40Z</time>
      </trkpt>
      <trkpt lat="45.79381" lon="4.46426">
        <ele>674</ele>
        <time>2022-06-26T12:04:41Z</time>
      </trkpt>
      <trkpt lat="45.79379" lon="4.46429">
        <ele>674</ele>
        <time>2022-06-26T12:04:42Z</time>
      </trkpt>
      <trkpt lat="45.79377" lon="4.46433">
        <ele>674</ele>
        <time>2022-06-26T12:04:43Z</time>
      </trkpt>
      <trkpt lat="45.79374" lon="4.46436">
        <ele>674</ele>
        <time>2022-06-26T12:04:44Z</time>
      </trkpt>
      <trkpt lat="45.79372" lon="4.46439">
        <ele>674</ele>
        <time>2022-06-26T12:04:45Z</time>
      </trkpt>
      <trkpt lat="45.7937" lon="4.46443">
        <ele>674</ele>
        <time>2022-06-26T12:04:46Z</time>
      </trkpt>
      <trkpt lat="45.79367" lon="4.46446">
        <ele>674</ele>
        <time>2022-06-26T12:04:47Z</time>
      </trkpt>
      <trkpt lat="45.79365" lon="4.46449">
        <ele>674</ele>
        <time>2022-06-26T12:04:48Z</time>
      </trkpt>
      <trkpt lat="45.79362" lon="4.46452">
        <ele>674</ele>
        <time>2022-06-26T12:04:49Z</time>
      </trkpt>
      <trkpt lat="45.79359" lon="4.46456">
        <ele>674</ele>
        <time>2022-06-26T12:04:50Z</time>
      </trkpt>
      <trkpt lat="45.79356" lon="4.4646">
        <ele>674</ele>
        <time>2022-06-26T12:04:51Z</time>
      </trkpt>
      <trkpt lat="45.79352" lon="4.46464">
        <ele>674</ele>
        <time>2022-06-26T12:04:52Z</time>
      </trkpt>
      <trkpt lat="45.79349" lon="4.46467">
        <ele>674</ele>
        <time>2022-06-26T12:04:53Z</time>
      </trkpt>
      <trkpt lat="45.79345" lon="4.46471">
        <ele>674</ele>
        <time>2022-06-26T12:04:54Z</time>
      </trkpt>
      <trkpt lat="45.79341" lon="4.46475">
        <ele>674</ele>
        <time>2022-06-26T12:04:55Z</time>
      </trkpt>
      <trkpt lat="45.79338" lon="4.46479">
        <ele>673.8</ele>
        <time>2022-06-26T12:04:56Z</time>
      </trkpt>
      <trkpt lat="45.79334" lon="4.46483">
        <ele>673.8</ele>
        <time>2022-06-26T12:04:57Z</time>
      </trkpt>
      <trkpt lat="45.7933" lon="4.46487">
        <ele>673.8</ele>
        <time>2022-06-26T12:04:58Z</time>
      </trkpt>
      <trkpt lat="45.79326" lon="4.46491">
        <ele>673.4</ele>
        <time>2022-06-26T12:04:59Z</time>
      </trkpt>
      <trkpt lat="45.79322" lon="4.46495">
        <ele>673.4</ele>
        <time>2022-06-26T12:05:00Z</time>
      </trkpt>
      <trkpt lat="45.79318" lon="4.46499">
        <ele>673.4</ele>
        <time>2022-06-26T12:05:01Z</time>
      </trkpt>
      <trkpt lat="45.79314" lon="4.46503">
        <ele>673.4</ele>
        <time>2022-06-26T12:05:02Z</time>
      </trkpt>
      <trkpt lat="45.7931" lon="4.46507">
        <ele>673.2</ele>
        <time>2022-06-26T12:05:03Z</time>
      </trkpt>
      <trkpt lat="45.79305" lon="4.46511">
        <ele>673.2</ele>
        <time>2022-06-26T12:05:04Z</time>
      </trkpt>
      <trkpt lat="45.79301" lon="4.46515">
        <ele>673.2</ele>
        <time>2022-06-26T12:05:05Z</time>
      </trkpt>
      <trkpt lat="45.79297" lon="4.46519">
        <ele>672.8</ele>
        <time>2022-06-26T12:05:06Z</time>
      </trkpt>
      <trkpt lat="45.79292" lon="4.46523">
        <ele>672.8</ele>
        <time>2022-06-26T12:05:07Z</time>
      </trkpt>
      <trkpt lat="45.79288" lon="4.46527">
        <ele>672.8</ele>
        <time>2022-06-26T12:05:08Z</time>
      </trkpt>
      <trkpt lat="45.79283" lon="4.46531">
        <ele>672.6</ele>
        <time>2022-06-26T12:05:09Z</time>
      </trkpt>
      <trkpt lat="45.79278" lon="4.46535">
        <ele>672.6</ele>
        <time>2022-06-26T12:05:10Z</time>
      </trkpt>
      <trkpt lat="45.79274" lon="4.46539">
        <ele>672.6</ele>
        <time>2022-06-26T12:05:11Z</time>
      </trkpt>
      <trkpt lat="45.79269" lon="4.46543">
        <ele>672.4</ele>
        <time>2022-06-26T12:05:12Z</time>
      </trkpt>
      <trkpt lat="45.79265" lon="4.46547">
        <ele>672.4</ele>
        <time>2022-06-26T12:05:13Z</time>
      </trkpt>
      <trkpt lat="45.7926" lon="4.46551">
        <ele>672.2</ele>
        <time>2022-06-26T12:05:14Z</time>
      </trkpt>
      <trkpt lat="45.79255" lon="4.46555">
        <ele>672.2</ele>
        <time>2022-06-26T12:05:15Z</time>
      </trkpt>
      <trkpt lat="45.79249" lon="4.4656">
        <ele>671.8</ele>
        <time>2022-06-26T12:05:16Z</time>
      </trkpt>
      <trkpt lat="45.79244" lon="4.46564">
        <ele>671.8</ele>
        <time>2022-06-26T12:05:17Z</time>
      </trkpt>
      <trkpt lat="45.79239" lon="4.46568">
        <ele>671.8</ele>
        <time>2022-06-26T12:05:18Z</time>
      </trkpt>
      <trkpt lat="45.79233" lon="4.46571">
        <ele>671.8</ele>
        <time>2022-06-26T12:05:19Z</time>
      </trkpt>
      <trkpt lat="45.79228" lon="4.46574">
        <ele>671.8</ele>
        <time>2022-06-26T12:05:20Z</time>
      </trkpt>
      <trkpt lat="45.79222" lon="4.46576">
        <ele>671.6</ele>
        <time>2022-06-26T12:05:21Z</time>
      </trkpt>
      <trkpt lat="45.79217" lon="4.46577">
        <ele>671.6</ele>
        <time>2022-06-26T12:05:22Z</time>
      </trkpt>
      <trkpt lat="45.79211" lon="4.46578">
        <ele>671.4</ele>
        <time>2022-06-26T12:05:23Z</time>
      </trkpt>
      <trkpt lat="45.79206" lon="4.46578">
        <ele>671.4</ele>
        <time>2022-06-26T12:05:24Z</time>
      </trkpt>
      <trkpt lat="45.792" lon="4.46577">
        <ele>671.4</ele>
        <time>2022-06-26T12:05:25Z</time>
      </trkpt>
      <trkpt lat="45.79195" lon="4.46577">
        <ele>671.4</ele>
        <time>2022-06-26T12:05:26Z</time>
      </trkpt>
      <trkpt lat="45.7919" lon="4.46576">
        <ele>671.4</ele>
        <time>2022-06-26T12:05:27Z</time>
      </trkpt>
      <trkpt lat="45.79184" lon="4.46575">
        <ele>671.4</ele>
        <time>2022-06-26T12:05:28Z</time>
      </trkpt>
      <trkpt lat="45.79179" lon="4.46574">
        <ele>671.4</ele>
        <time>2022-06-26T12:05:29Z</time>
      </trkpt>
      <trkpt lat="45.79173" lon="4.46574">
        <ele>671.4</ele>
        <time>2022-06-26T12:05:30Z</time>
      </trkpt>
      <trkpt lat="45.79168" lon="4.46573">
        <ele>671.6</ele>
        <time>2022-06-26T12:05:31Z</time>
      </trkpt>
      <trkpt lat="45.79163" lon="4.46573">
        <ele>671.6</ele>
        <time>2022-06-26T12:05:32Z</time>
      </trkpt>
      <trkpt lat="45.79157" lon="4.46572">
        <ele>671.6</ele>
        <time>2022-06-26T12:05:33Z</time>
      </trkpt>
      <trkpt lat="45.79152" lon="4.46571">
        <ele>671.6</ele>
        <time>2022-06-26T12:05:34Z</time>
      </trkpt>
      <trkpt lat="45.79147" lon="4.46571">
        <ele>671.6</ele>
        <time>2022-06-26T12:05:35Z</time>
      </trkpt>
      <trkpt lat="45.79142" lon="4.4657">
        <ele>671.6</ele>
        <time>2022-06-26T12:05:36Z</time>
      </trkpt>
      <trkpt lat="45.79137" lon="4.46569">
        <ele>672</ele>
        <time>2022-06-26T12:05:37Z</time>
      </trkpt>
      <trkpt lat="45.79132" lon="4.46569">
        <ele>672.2</ele>
        <time>2022-06-26T12:05:38Z</time>
      </trkpt>
      <trkpt lat="45.79127" lon="4.46568">
        <ele>672.2</ele>
        <time>2022-06-26T12:05:39Z</time>
      </trkpt>
      <trkpt lat="45.79123" lon="4.46568">
        <ele>672.2</ele>
        <time>2022-06-26T12:05:40Z</time>
      </trkpt>
      <trkpt lat="45.79118" lon="4.46568">
        <ele>672.2</ele>
        <time>2022-06-26T12:05:41Z</time>
      </trkpt>
      <trkpt lat="45.79114" lon="4.46567">
        <ele>672.4</ele>
        <time>2022-06-26T12:05:42Z</time>
      </trkpt>
      <trkpt lat="45.79109" lon="4.46567">
        <ele>672.4</ele>
        <time>2022-06-26T12:05:43Z</time>
      </trkpt>
      <trkpt lat="45.79105" lon="4.46567">
        <ele>672.4</ele>
        <time>2022-06-26T12:05:44Z</time>
      </trkpt>
      <trkpt lat="45.79101" lon="4.46567">
        <ele>672.6</ele>
        <time>2022-06-26T12:05:45Z</time>
      </trkpt>
      <trkpt lat="45.79097" lon="4.46567">
        <ele>672.6</ele>
        <time>2022-06-26T12:05:46Z</time>
      </trkpt>
      <trkpt lat="45.79092" lon="4.46568">
        <ele>672.8</ele>
        <time>2022-06-26T12:05:47Z</time>
      </trkpt>
      <trkpt lat="45.79089" lon="4.46568">
        <ele>672.8</ele>
        <time>2022-06-26T12:05:48Z</time>
      </trkpt>
      <trkpt lat="45.79085" lon="4.46569">
        <ele>673.2</ele>
        <time>2022-06-26T12:05:49Z</time>
      </trkpt>
      <trkpt lat="45.79081" lon="4.4657">
        <ele>673.4</ele>
        <time>2022-06-26T12:05:50Z</time>
      </trkpt>
      <trkpt lat="45.79077" lon="4.46572">
        <ele>673.4</ele>
        <time>2022-06-26T12:05:51Z</time>
      </trkpt>
      <trkpt lat="45.79074" lon="4.46573">
        <ele>673.8</ele>
        <time>2022-06-26T12:05:52Z</time>
      </trkpt>
      <trkpt lat="45.79071" lon="4.46575">
        <ele>673.8</ele>
        <time>2022-06-26T12:05:53Z</time>
      </trkpt>
      <trkpt lat="45.79068" lon="4.46577">
        <ele>674.2</ele>
        <time>2022-06-26T12:05:54Z</time>
      </trkpt>
      <trkpt lat="45.79066" lon="4.46579">
        <ele>674.2</ele>
        <time>2022-06-26T12:05:55Z</time>
      </trkpt>
      <trkpt lat="45.79063" lon="4.4658">
        <ele>674.6</ele>
        <time>2022-06-26T12:05:56Z</time>
      </trkpt>
      <trkpt lat="45.79061" lon="4.46582">
        <ele>674.6</ele>
        <time>2022-06-26T12:05:57Z</time>
      </trkpt>
      <trkpt lat="45.79058" lon="4.46584">
        <ele>675</ele>
        <time>2022-06-26T12:05:58Z</time>
      </trkpt>
      <trkpt lat="45.79055" lon="4.46586">
        <ele>675</ele>
        <time>2022-06-26T12:05:59Z</time>
      </trkpt>
      <trkpt lat="45.79053" lon="4.46589">
        <ele>675.4</ele>
        <time>2022-06-26T12:06:00Z</time>
      </trkpt>
      <trkpt lat="45.79051" lon="4.46591">
        <ele>675.4</ele>
        <time>2022-06-26T12:06:01Z</time>
      </trkpt>
      <trkpt lat="45.79048" lon="4.46593">
        <ele>675.6</ele>
        <time>2022-06-26T12:06:02Z</time>
      </trkpt>
      <trkpt lat="45.79046" lon="4.46596">
        <ele>675.6</ele>
        <time>2022-06-26T12:06:03Z</time>
      </trkpt>
      <trkpt lat="45.79044" lon="4.46598">
        <ele>676</ele>
        <time>2022-06-26T12:06:04Z</time>
      </trkpt>
      <trkpt lat="45.79041" lon="4.466">
        <ele>676</ele>
        <time>2022-06-26T12:06:05Z</time>
      </trkpt>
      <trkpt lat="45.79039" lon="4.46602">
        <ele>676.2</ele>
        <time>2022-06-26T12:06:06Z</time>
      </trkpt>
      <trkpt lat="45.79036" lon="4.46604">
        <ele>676.4</ele>
        <time>2022-06-26T12:06:07Z</time>
      </trkpt>
      <trkpt lat="45.79034" lon="4.46606">
        <ele>676.4</ele>
        <time>2022-06-26T12:06:08Z</time>
      </trkpt>
      <trkpt lat="45.79031" lon="4.46607">
        <ele>676.8</ele>
        <time>2022-06-26T12:06:09Z</time>
      </trkpt>
      <trkpt lat="45.79029" lon="4.46609">
        <ele>676.8</ele>
        <time>2022-06-26T12:06:10Z</time>
      </trkpt>
      <trkpt lat="45.79027" lon="4.46611">
        <ele>677</ele>
        <time>2022-06-26T12:06:11Z</time>
      </trkpt>
      <trkpt lat="45.79025" lon="4.46613">
        <ele>677</ele>
        <time>2022-06-26T12:06:12Z</time>
      </trkpt>
      <trkpt lat="45.79023" lon="4.46615">
        <ele>677.4</ele>
        <time>2022-06-26T12:06:13Z</time>
      </trkpt>
      <trkpt lat="45.79021" lon="4.46617">
        <ele>677.6</ele>
        <time>2022-06-26T12:06:14Z</time>
      </trkpt>
      <trkpt lat="45.79019" lon="4.46619">
        <ele>677.6</ele>
        <time>2022-06-26T12:06:15Z</time>
      </trkpt>
      <trkpt lat="45.79018" lon="4.46621">
        <ele>677.8</ele>
        <time>2022-06-26T12:06:16Z</time>
      </trkpt>
      <trkpt lat="45.79016" lon="4.46622">
        <ele>677.8</ele>
        <time>2022-06-26T12:06:17Z</time>
      </trkpt>
      <trkpt lat="45.79014" lon="4.46624">
        <ele>677.8</ele>
        <time>2022-06-26T12:06:18Z</time>
      </trkpt>
      <trkpt lat="45.79012" lon="4.46627">
        <ele>678.2</ele>
        <time>2022-06-26T12:06:19Z</time>
      </trkpt>
      <trkpt lat="45.79011" lon="4.4663">
        <ele>678.2</ele>
        <time>2022-06-26T12:06:20Z</time>
      </trkpt>
      <trkpt lat="45.7901" lon="4.46632">
        <ele>678.2</ele>
        <time>2022-06-26T12:06:21Z</time>
      </trkpt>
      <trkpt lat="45.79009" lon="4.46635">
        <ele>678.2</ele>
        <time>2022-06-26T12:06:22Z</time>
      </trkpt>
      <trkpt lat="45.79008" lon="4.46638">
        <ele>678.2</ele>
        <time>2022-06-26T12:06:23Z</time>
      </trkpt>
      <trkpt lat="45.79006" lon="4.4664">
        <ele>678.2</ele>
        <time>2022-06-26T12:06:24Z</time>
      </trkpt>
      <trkpt lat="45.79005" lon="4.46644">
        <ele>678.2</ele>
        <time>2022-06-26T12:06:25Z</time>
      </trkpt>
      <trkpt lat="45.79003" lon="4.46648">
        <ele>678.2</ele>
        <time>2022-06-26T12:06:26Z</time>
      </trkpt>
      <trkpt lat="45.79001" lon="4.46651">
        <ele>678</ele>
        <time>2022-06-26T12:06:27Z</time>
      </trkpt>
      <trkpt lat="45.78999" lon="4.46655">
        <ele>678</ele>
        <time>2022-06-26T12:06:28Z</time>
      </trkpt>
      <trkpt lat="45.78997" lon="4.46659">
        <ele>677.6</ele>
        <time>2022-06-26T12:06:29Z</time>
      </trkpt>
      <trkpt lat="45.78995" lon="4.46663">
        <ele>677.4</ele>
        <time>2022-06-26T12:06:30Z</time>
      </trkpt>
      <trkpt lat="45.78993" lon="4.46667">
        <ele>677.2</ele>
        <time>2022-06-26T12:06:31Z</time>
      </trkpt>
      <trkpt lat="45.78992" lon="4.46671">
        <ele>677.2</ele>
        <time>2022-06-26T12:06:32Z</time>
      </trkpt>
      <trkpt lat="45.78991" lon="4.46676">
        <ele>677</ele>
        <time>2022-06-26T12:06:33Z</time>
      </trkpt>
      <trkpt lat="45.78991" lon="4.46681">
        <ele>677</ele>
        <time>2022-06-26T12:06:34Z</time>
      </trkpt>
      <trkpt lat="45.78991" lon="4.46688">
        <ele>677</ele>
        <time>2022-06-26T12:06:35Z</time>
      </trkpt>
      <trkpt lat="45.78991" lon="4.46694">
        <ele>676.6</ele>
        <time>2022-06-26T12:06:36Z</time>
      </trkpt>
      <trkpt lat="45.78992" lon="4.46701">
        <ele>676.2</ele>
        <time>2022-06-26T12:06:37Z</time>
      </trkpt>
      <trkpt lat="45.78992" lon="4.46709">
        <ele>676</ele>
        <time>2022-06-26T12:06:38Z</time>
      </trkpt>
      <trkpt lat="45.78993" lon="4.46716">
        <ele>675.8</ele>
        <time>2022-06-26T12:06:39Z</time>
      </trkpt>
      <trkpt lat="45.78994" lon="4.46724">
        <ele>675.4</ele>
        <time>2022-06-26T12:06:40Z</time>
      </trkpt>
      <trkpt lat="45.78996" lon="4.46731">
        <ele>675.2</ele>
        <time>2022-06-26T12:06:41Z</time>
      </trkpt>
      <trkpt lat="45.78998" lon="4.46737">
        <ele>675</ele>
        <time>2022-06-26T12:06:42Z</time>
      </trkpt>
      <trkpt lat="45.79" lon="4.46743">
        <ele>674.8</ele>
        <time>2022-06-26T12:06:43Z</time>
      </trkpt>
      <trkpt lat="45.79001" lon="4.46749">
        <ele>674.4</ele>
        <time>2022-06-26T12:06:44Z</time>
      </trkpt>
      <trkpt lat="45.79003" lon="4.46754">
        <ele>674.2</ele>
        <time>2022-06-26T12:06:45Z</time>
      </trkpt>
      <trkpt lat="45.79005" lon="4.46757">
        <ele>674</ele>
        <time>2022-06-26T12:06:46Z</time>
      </trkpt>
      <trkpt lat="45.79006" lon="4.46761">
        <ele>674</ele>
        <time>2022-06-26T12:06:47Z</time>
      </trkpt>
      <trkpt lat="45.79007" lon="4.46763">
        <ele>673.6</ele>
        <time>2022-06-26T12:06:48Z</time>
      </trkpt>
      <trkpt lat="45.79008" lon="4.46766">
        <ele>673.6</ele>
        <time>2022-06-26T12:06:49Z</time>
      </trkpt>
      <trkpt lat="45.7901" lon="4.46769">
        <ele>673.4</ele>
        <time>2022-06-26T12:06:50Z</time>
      </trkpt>
      <trkpt lat="45.79012" lon="4.46772">
        <ele>673.4</ele>
        <time>2022-06-26T12:06:51Z</time>
      </trkpt>
      <trkpt lat="45.79014" lon="4.46776">
        <ele>673</ele>
        <time>2022-06-26T12:06:52Z</time>
      </trkpt>
      <trkpt lat="45.79015" lon="4.46781">
        <ele>672.8</ele>
        <time>2022-06-26T12:06:53Z</time>
      </trkpt>
      <trkpt lat="45.79016" lon="4.46787">
        <ele>672.6</ele>
        <time>2022-06-26T12:06:54Z</time>
      </trkpt>
      <trkpt lat="45.79016" lon="4.46794">
        <ele>672.2</ele>
        <time>2022-06-26T12:06:55Z</time>
      </trkpt>
      <trkpt lat="45.79014" lon="4.46801">
        <ele>672</ele>
        <time>2022-06-26T12:06:56Z</time>
      </trkpt>
      <trkpt lat="45.79011" lon="4.46809">
        <ele>671.4</ele>
        <time>2022-06-26T12:06:57Z</time>
      </trkpt>
      <trkpt lat="45.79007" lon="4.46817">
        <ele>671.2</ele>
        <time>2022-06-26T12:06:58Z</time>
      </trkpt>
      <trkpt lat="45.79002" lon="4.46824">
        <ele>670.6</ele>
        <time>2022-06-26T12:06:59Z</time>
      </trkpt>
      <trkpt lat="45.78997" lon="4.46831">
        <ele>670.2</ele>
        <time>2022-06-26T12:07:00Z</time>
      </trkpt>
      <trkpt lat="45.78992" lon="4.46837">
        <ele>669.6</ele>
        <time>2022-06-26T12:07:01Z</time>
      </trkpt>
      <trkpt lat="45.78988" lon="4.46842">
        <ele>669.2</ele>
        <time>2022-06-26T12:07:02Z</time>
      </trkpt>
      <trkpt lat="45.78985" lon="4.46846">
        <ele>668.8</ele>
        <time>2022-06-26T12:07:03Z</time>
      </trkpt>
      <trkpt lat="45.78982" lon="4.46849">
        <ele>668.4</ele>
        <time>2022-06-26T12:07:04Z</time>
      </trkpt>
      <trkpt lat="45.7898" lon="4.46851">
        <ele>668</ele>
        <time>2022-06-26T12:07:05Z</time>
      </trkpt>
      <trkpt lat="45.78978" lon="4.46853">
        <ele>668</ele>
        <time>2022-06-26T12:07:06Z</time>
      </trkpt>
      <trkpt lat="45.78977" lon="4.46855">
        <ele>667.8</ele>
        <time>2022-06-26T12:07:07Z</time>
      </trkpt>
      <trkpt lat="45.78976" lon="4.46859">
        <ele>667.4</ele>
        <time>2022-06-26T12:07:08Z</time>
      </trkpt>
      <trkpt lat="45.78974" lon="4.46863">
        <ele>667.2</ele>
        <time>2022-06-26T12:07:09Z</time>
      </trkpt>
      <trkpt lat="45.78972" lon="4.46867">
        <ele>667.2</ele>
        <time>2022-06-26T12:07:10Z</time>
      </trkpt>
      <trkpt lat="45.7897" lon="4.46871">
        <ele>667</ele>
        <time>2022-06-26T12:07:11Z</time>
      </trkpt>
      <trkpt lat="45.78966" lon="4.46876">
        <ele>666.8</ele>
        <time>2022-06-26T12:07:12Z</time>
      </trkpt>
      <trkpt lat="45.78963" lon="4.4688">
        <ele>666.6</ele>
        <time>2022-06-26T12:07:13Z</time>
      </trkpt>
      <trkpt lat="45.78959" lon="4.46885">
        <ele>666.6</ele>
        <time>2022-06-26T12:07:14Z</time>
      </trkpt>
      <trkpt lat="45.78955" lon="4.4689">
        <ele>666.2</ele>
        <time>2022-06-26T12:07:15Z</time>
      </trkpt>
      <trkpt lat="45.7895" lon="4.46895">
        <ele>666</ele>
        <time>2022-06-26T12:07:16Z</time>
      </trkpt>
      <trkpt lat="45.78946" lon="4.46901">
        <ele>665.6</ele>
        <time>2022-06-26T12:07:17Z</time>
      </trkpt>
      <trkpt lat="45.78941" lon="4.46908">
        <ele>665.2</ele>
        <time>2022-06-26T12:07:18Z</time>
      </trkpt>
      <trkpt lat="45.78936" lon="4.46914">
        <ele>665</ele>
        <time>2022-06-26T12:07:19Z</time>
      </trkpt>
      <trkpt lat="45.78931" lon="4.46922">
        <ele>664.8</ele>
        <time>2022-06-26T12:07:20Z</time>
      </trkpt>
      <trkpt lat="45.78926" lon="4.46929">
        <ele>664.4</ele>
        <time>2022-06-26T12:07:21Z</time>
      </trkpt>
      <trkpt lat="45.78921" lon="4.46937">
        <ele>664.2</ele>
        <time>2022-06-26T12:07:22Z</time>
      </trkpt>
      <trkpt lat="45.78916" lon="4.46945">
        <ele>663.8</ele>
        <time>2022-06-26T12:07:23Z</time>
      </trkpt>
      <trkpt lat="45.7891" lon="4.46953">
        <ele>663.4</ele>
        <time>2022-06-26T12:07:24Z</time>
      </trkpt>
      <trkpt lat="45.78905" lon="4.46961">
        <ele>663</ele>
        <time>2022-06-26T12:07:25Z</time>
      </trkpt>
      <trkpt lat="45.78899" lon="4.46969">
        <ele>662.6</ele>
        <time>2022-06-26T12:07:26Z</time>
      </trkpt>
      <trkpt lat="45.78893" lon="4.46977">
        <ele>662.2</ele>
        <time>2022-06-26T12:07:27Z</time>
      </trkpt>
      <trkpt lat="45.78887" lon="4.46986">
        <ele>661.8</ele>
        <time>2022-06-26T12:07:28Z</time>
      </trkpt>
      <trkpt lat="45.78881" lon="4.46994">
        <ele>661.4</ele>
        <time>2022-06-26T12:07:29Z</time>
      </trkpt>
      <trkpt lat="45.78875" lon="4.47003">
        <ele>661</ele>
        <time>2022-06-26T12:07:30Z</time>
      </trkpt>
      <trkpt lat="45.78869" lon="4.47012">
        <ele>660.6</ele>
        <time>2022-06-26T12:07:31Z</time>
      </trkpt>
      <trkpt lat="45.78863" lon="4.47021">
        <ele>660.2</ele>
        <time>2022-06-26T12:07:32Z</time>
      </trkpt>
      <trkpt lat="45.78858" lon="4.47031">
        <ele>659.8</ele>
        <time>2022-06-26T12:07:33Z</time>
      </trkpt>
      <trkpt lat="45.78852" lon="4.4704">
        <ele>659.4</ele>
        <time>2022-06-26T12:07:34Z</time>
      </trkpt>
      <trkpt lat="45.78847" lon="4.4705">
        <ele>659</ele>
        <time>2022-06-26T12:07:35Z</time>
      </trkpt>
      <trkpt lat="45.78841" lon="4.47059">
        <ele>658.6</ele>
        <time>2022-06-26T12:07:36Z</time>
      </trkpt>
      <trkpt lat="45.78836" lon="4.47069">
        <ele>658.2</ele>
        <time>2022-06-26T12:07:37Z</time>
      </trkpt>
      <trkpt lat="45.78831" lon="4.47079">
        <ele>657.8</ele>
        <time>2022-06-26T12:07:38Z</time>
      </trkpt>
      <trkpt lat="45.78825" lon="4.47089">
        <ele>657.4</ele>
        <time>2022-06-26T12:07:39Z</time>
      </trkpt>
      <trkpt lat="45.7882" lon="4.47099">
        <ele>657</ele>
        <time>2022-06-26T12:07:40Z</time>
      </trkpt>
      <trkpt lat="45.78815" lon="4.47109">
        <ele>656.6</ele>
        <time>2022-06-26T12:07:41Z</time>
      </trkpt>
      <trkpt lat="45.78809" lon="4.47119">
        <ele>656</ele>
        <time>2022-06-26T12:07:42Z</time>
      </trkpt>
      <trkpt lat="45.78803" lon="4.47128">
        <ele>655.4</ele>
        <time>2022-06-26T12:07:43Z</time>
      </trkpt>
      <trkpt lat="45.78798" lon="4.47137">
        <ele>655</ele>
        <time>2022-06-26T12:07:44Z</time>
      </trkpt>
      <trkpt lat="45.78791" lon="4.47145">
        <ele>654.6</ele>
        <time>2022-06-26T12:07:45Z</time>
      </trkpt>
      <trkpt lat="45.78785" lon="4.47153">
        <ele>654</ele>
        <time>2022-06-26T12:07:46Z</time>
      </trkpt>
      <trkpt lat="45.78778" lon="4.4716">
        <ele>653.6</ele>
        <time>2022-06-26T12:07:47Z</time>
      </trkpt>
      <trkpt lat="45.78771" lon="4.47166">
        <ele>653.6</ele>
        <time>2022-06-26T12:07:48Z</time>
      </trkpt>
      <trkpt lat="45.78763" lon="4.47171">
        <ele>653.2</ele>
        <time>2022-06-26T12:07:49Z</time>
      </trkpt>
      <trkpt lat="45.78754" lon="4.47175">
        <ele>652.6</ele>
        <time>2022-06-26T12:07:50Z</time>
      </trkpt>
      <trkpt lat="45.78744" lon="4.47179">
        <ele>652.2</ele>
        <time>2022-06-26T12:07:51Z</time>
      </trkpt>
      <trkpt lat="45.78734" lon="4.47182">
        <ele>651.6</ele>
        <time>2022-06-26T12:07:52Z</time>
      </trkpt>
      <trkpt lat="45.78723" lon="4.47185">
        <ele>651</ele>
        <time>2022-06-26T12:07:53Z</time>
      </trkpt>
      <trkpt lat="45.78713" lon="4.47186">
        <ele>650.4</ele>
        <time>2022-06-26T12:07:54Z</time>
      </trkpt>
      <trkpt lat="45.78703" lon="4.47188">
        <ele>649.8</ele>
        <time>2022-06-26T12:07:55Z</time>
      </trkpt>
      <trkpt lat="45.78693" lon="4.4719">
        <ele>649.4</ele>
        <time>2022-06-26T12:07:56Z</time>
      </trkpt>
      <trkpt lat="45.78683" lon="4.47192">
        <ele>649</ele>
        <time>2022-06-26T12:07:57Z</time>
      </trkpt>
      <trkpt lat="45.78673" lon="4.47195">
        <ele>648.4</ele>
        <time>2022-06-26T12:07:58Z</time>
      </trkpt>
      <trkpt lat="45.78663" lon="4.47197">
        <ele>648</ele>
        <time>2022-06-26T12:07:59Z</time>
      </trkpt>
      <trkpt lat="45.78653" lon="4.47201">
        <ele>647.4</ele>
        <time>2022-06-26T12:08:00Z</time>
      </trkpt>
      <trkpt lat="45.78643" lon="4.47204">
        <ele>646.8</ele>
        <time>2022-06-26T12:08:01Z</time>
      </trkpt>
      <trkpt lat="45.78634" lon="4.47208">
        <ele>646.4</ele>
        <time>2022-06-26T12:08:02Z</time>
      </trkpt>
      <trkpt lat="45.78625" lon="4.47212">
        <ele>645.8</ele>
        <time>2022-06-26T12:08:03Z</time>
      </trkpt>
      <trkpt lat="45.78615" lon="4.47218">
        <ele>645.6</ele>
        <time>2022-06-26T12:08:04Z</time>
      </trkpt>
      <trkpt lat="45.78606" lon="4.47222">
        <ele>645.2</ele>
        <time>2022-06-26T12:08:05Z</time>
      </trkpt>
      <trkpt lat="45.78597" lon="4.47226">
        <ele>644.8</ele>
        <time>2022-06-26T12:08:06Z</time>
      </trkpt>
      <trkpt lat="45.78588" lon="4.4723">
        <ele>644.4</ele>
        <time>2022-06-26T12:08:07Z</time>
      </trkpt>
      <trkpt lat="45.7858" lon="4.47234">
        <ele>644.4</ele>
        <time>2022-06-26T12:08:08Z</time>
      </trkpt>
      <trkpt lat="45.78572" lon="4.47238">
        <ele>644</ele>
        <time>2022-06-26T12:08:09Z</time>
      </trkpt>
      <trkpt lat="45.78564" lon="4.47242">
        <ele>643.6</ele>
        <time>2022-06-26T12:08:10Z</time>
      </trkpt>
      <trkpt lat="45.78557" lon="4.47245">
        <ele>643.6</ele>
        <time>2022-06-26T12:08:11Z</time>
      </trkpt>
      <trkpt lat="45.78549" lon="4.47248">
        <ele>643.2</ele>
        <time>2022-06-26T12:08:12Z</time>
      </trkpt>
      <trkpt lat="45.78541" lon="4.4725">
        <ele>643.2</ele>
        <time>2022-06-26T12:08:13Z</time>
      </trkpt>
      <trkpt lat="45.78533" lon="4.47252">
        <ele>642.6</ele>
        <time>2022-06-26T12:08:14Z</time>
      </trkpt>
      <trkpt lat="45.78525" lon="4.47253">
        <ele>642.4</ele>
        <time>2022-06-26T12:08:15Z</time>
      </trkpt>
      <trkpt lat="45.78517" lon="4.47252">
        <ele>642</ele>
        <time>2022-06-26T12:08:16Z</time>
      </trkpt>
      <trkpt lat="45.78508" lon="4.4725">
        <ele>641.6</ele>
        <time>2022-06-26T12:08:17Z</time>
      </trkpt>
      <trkpt lat="45.785" lon="4.47247">
        <ele>641.2</ele>
        <time>2022-06-26T12:08:18Z</time>
      </trkpt>
      <trkpt lat="45.78491" lon="4.47243">
        <ele>640.8</ele>
        <time>2022-06-26T12:08:19Z</time>
      </trkpt>
      <trkpt lat="45.78483" lon="4.47238">
        <ele>640.4</ele>
        <time>2022-06-26T12:08:20Z</time>
      </trkpt>
      <trkpt lat="45.78475" lon="4.47232">
        <ele>640</ele>
        <time>2022-06-26T12:08:21Z</time>
      </trkpt>
      <trkpt lat="45.78468" lon="4.47225">
        <ele>639.6</ele>
        <time>2022-06-26T12:08:22Z</time>
      </trkpt>
      <trkpt lat="45.78461" lon="4.47215">
        <ele>639.2</ele>
        <time>2022-06-26T12:08:23Z</time>
      </trkpt>
      <trkpt lat="45.78454" lon="4.47205">
        <ele>639</ele>
        <time>2022-06-26T12:08:24Z</time>
      </trkpt>
      <trkpt lat="45.78448" lon="4.47195">
        <ele>639</ele>
        <time>2022-06-26T12:08:25Z</time>
      </trkpt>
      <trkpt lat="45.78441" lon="4.47186">
        <ele>638.4</ele>
        <time>2022-06-26T12:08:26Z</time>
      </trkpt>
      <trkpt lat="45.78435" lon="4.47176">
        <ele>638.2</ele>
        <time>2022-06-26T12:08:27Z</time>
      </trkpt>
      <trkpt lat="45.78429" lon="4.47165">
        <ele>638</ele>
        <time>2022-06-26T12:08:28Z</time>
      </trkpt>
      <trkpt lat="45.78425" lon="4.47154">
        <ele>637.6</ele>
        <time>2022-06-26T12:08:29Z</time>
      </trkpt>
      <trkpt lat="45.78421" lon="4.47141">
        <ele>637.4</ele>
        <time>2022-06-26T12:08:30Z</time>
      </trkpt>
      <trkpt lat="45.78418" lon="4.47129">
        <ele>636.8</ele>
        <time>2022-06-26T12:08:31Z</time>
      </trkpt>
      <trkpt lat="45.78414" lon="4.47116">
        <ele>636.2</ele>
        <time>2022-06-26T12:08:32Z</time>
      </trkpt>
      <trkpt lat="45.7841" lon="4.47103">
        <ele>635.8</ele>
        <time>2022-06-26T12:08:33Z</time>
      </trkpt>
      <trkpt lat="45.78406" lon="4.4709">
        <ele>635.4</ele>
        <time>2022-06-26T12:08:34Z</time>
      </trkpt>
      <trkpt lat="45.784" lon="4.47078">
        <ele>635.2</ele>
        <time>2022-06-26T12:08:35Z</time>
      </trkpt>
      <trkpt lat="45.78394" lon="4.47069">
        <ele>635</ele>
        <time>2022-06-26T12:08:36Z</time>
      </trkpt>
      <trkpt lat="45.78387" lon="4.47061">
        <ele>634.6</ele>
        <time>2022-06-26T12:08:37Z</time>
      </trkpt>
      <trkpt lat="45.78378" lon="4.47053">
        <ele>634.2</ele>
        <time>2022-06-26T12:08:38Z</time>
      </trkpt>
      <trkpt lat="45.78368" lon="4.47048">
        <ele>634</ele>
        <time>2022-06-26T12:08:39Z</time>
      </trkpt>
      <trkpt lat="45.7836" lon="4.47042">
        <ele>633.6</ele>
        <time>2022-06-26T12:08:40Z</time>
      </trkpt>
      <trkpt lat="45.7835" lon="4.47037">
        <ele>633.4</ele>
        <time>2022-06-26T12:08:41Z</time>
      </trkpt>
      <trkpt lat="45.78341" lon="4.47031">
        <ele>633</ele>
        <time>2022-06-26T12:08:42Z</time>
      </trkpt>
      <trkpt lat="45.7833" lon="4.47025">
        <ele>632.6</ele>
        <time>2022-06-26T12:08:43Z</time>
      </trkpt>
      <trkpt lat="45.78322" lon="4.4702">
        <ele>632</ele>
        <time>2022-06-26T12:08:44Z</time>
      </trkpt>
      <trkpt lat="45.78312" lon="4.47015">
        <ele>631.6</ele>
        <time>2022-06-26T12:08:45Z</time>
      </trkpt>
      <trkpt lat="45.78304" lon="4.47009">
        <ele>631</ele>
        <time>2022-06-26T12:08:46Z</time>
      </trkpt>
      <trkpt lat="45.78293" lon="4.47002">
        <ele>630.6</ele>
        <time>2022-06-26T12:08:47Z</time>
      </trkpt>
      <trkpt lat="45.78283" lon="4.46998">
        <ele>630.2</ele>
        <time>2022-06-26T12:08:48Z</time>
      </trkpt>
      <trkpt lat="45.78272" lon="4.46996">
        <ele>629.8</ele>
        <time>2022-06-26T12:08:49Z</time>
      </trkpt>
      <trkpt lat="45.78262" lon="4.46996">
        <ele>629.4</ele>
        <time>2022-06-26T12:08:50Z</time>
      </trkpt>
      <trkpt lat="45.78253" lon="4.47">
        <ele>629.2</ele>
        <time>2022-06-26T12:08:51Z</time>
      </trkpt>
      <trkpt lat="45.78244" lon="4.47005">
        <ele>628.8</ele>
        <time>2022-06-26T12:08:52Z</time>
      </trkpt>
      <trkpt lat="45.78235" lon="4.47012">
        <ele>628.6</ele>
        <time>2022-06-26T12:08:53Z</time>
      </trkpt>
      <trkpt lat="45.78228" lon="4.47021">
        <ele>628.4</ele>
        <time>2022-06-26T12:08:54Z</time>
      </trkpt>
      <trkpt lat="45.78222" lon="4.47033">
        <ele>627.8</ele>
        <time>2022-06-26T12:08:55Z</time>
      </trkpt>
      <trkpt lat="45.78217" lon="4.47045">
        <ele>627.4</ele>
        <time>2022-06-26T12:08:56Z</time>
      </trkpt>
      <trkpt lat="45.78212" lon="4.47057">
        <ele>627.4</ele>
        <time>2022-06-26T12:08:57Z</time>
      </trkpt>
      <trkpt lat="45.78208" lon="4.47069">
        <ele>626.6</ele>
        <time>2022-06-26T12:08:58Z</time>
      </trkpt>
      <trkpt lat="45.78203" lon="4.47082">
        <ele>626</ele>
        <time>2022-06-26T12:08:59Z</time>
      </trkpt>
      <trkpt lat="45.78198" lon="4.47094">
        <ele>625.6</ele>
        <time>2022-06-26T12:09:00Z</time>
      </trkpt>
      <trkpt lat="45.78192" lon="4.47105">
        <ele>625</ele>
        <time>2022-06-26T12:09:01Z</time>
      </trkpt>
      <trkpt lat="45.78186" lon="4.47116">
        <ele>624.6</ele>
        <time>2022-06-26T12:09:02Z</time>
      </trkpt>
      <trkpt lat="45.78179" lon="4.47124">
        <ele>624.2</ele>
        <time>2022-06-26T12:09:03Z</time>
      </trkpt>
      <trkpt lat="45.78171" lon="4.4713">
        <ele>623.8</ele>
        <time>2022-06-26T12:09:04Z</time>
      </trkpt>
      <trkpt lat="45.78162" lon="4.47136">
        <ele>623.4</ele>
        <time>2022-06-26T12:09:05Z</time>
      </trkpt>
      <trkpt lat="45.78153" lon="4.4714">
        <ele>622.8</ele>
        <time>2022-06-26T12:09:06Z</time>
      </trkpt>
      <trkpt lat="45.78143" lon="4.47145">
        <ele>622.2</ele>
        <time>2022-06-26T12:09:07Z</time>
      </trkpt>
      <trkpt lat="45.78133" lon="4.47149">
        <ele>622</ele>
        <time>2022-06-26T12:09:08Z</time>
      </trkpt>
      <trkpt lat="45.78124" lon="4.47155">
        <ele>621.6</ele>
        <time>2022-06-26T12:09:09Z</time>
      </trkpt>
      <trkpt lat="45.78114" lon="4.4716">
        <ele>621</ele>
        <time>2022-06-26T12:09:10Z</time>
      </trkpt>
      <trkpt lat="45.78104" lon="4.47165">
        <ele>620.6</ele>
        <time>2022-06-26T12:09:11Z</time>
      </trkpt>
      <trkpt lat="45.78095" lon="4.47168">
        <ele>620</ele>
        <time>2022-06-26T12:09:12Z</time>
      </trkpt>
      <trkpt lat="45.78086" lon="4.47168">
        <ele>619.4</ele>
        <time>2022-06-26T12:09:13Z</time>
      </trkpt>
      <trkpt lat="45.78074" lon="4.47165">
        <ele>618.8</ele>
        <time>2022-06-26T12:09:14Z</time>
      </trkpt>
      <trkpt lat="45.78064" lon="4.47161">
        <ele>618.2</ele>
        <time>2022-06-26T12:09:15Z</time>
      </trkpt>
      <trkpt lat="45.78055" lon="4.47155">
        <ele>617.6</ele>
        <time>2022-06-26T12:09:16Z</time>
      </trkpt>
      <trkpt lat="45.78044" lon="4.47144">
        <ele>617</ele>
        <time>2022-06-26T12:09:17Z</time>
      </trkpt>
      <trkpt lat="45.78037" lon="4.47134">
        <ele>616.4</ele>
        <time>2022-06-26T12:09:18Z</time>
      </trkpt>
      <trkpt lat="45.78029" lon="4.47125">
        <ele>615.8</ele>
        <time>2022-06-26T12:09:19Z</time>
      </trkpt>
      <trkpt lat="45.78022" lon="4.47118">
        <ele>615.2</ele>
        <time>2022-06-26T12:09:20Z</time>
      </trkpt>
      <trkpt lat="45.78014" lon="4.47114">
        <ele>614.8</ele>
        <time>2022-06-26T12:09:21Z</time>
      </trkpt>
      <trkpt lat="45.78005" lon="4.4711">
        <ele>614.4</ele>
        <time>2022-06-26T12:09:22Z</time>
      </trkpt>
      <trkpt lat="45.77996" lon="4.47108">
        <ele>613.8</ele>
        <time>2022-06-26T12:09:23Z</time>
      </trkpt>
      <trkpt lat="45.77986" lon="4.47109">
        <ele>613.4</ele>
        <time>2022-06-26T12:09:24Z</time>
      </trkpt>
      <trkpt lat="45.77978" lon="4.47111">
        <ele>613</ele>
        <time>2022-06-26T12:09:25Z</time>
      </trkpt>
      <trkpt lat="45.7797" lon="4.47115">
        <ele>612.6</ele>
        <time>2022-06-26T12:09:26Z</time>
      </trkpt>
      <trkpt lat="45.77963" lon="4.47121">
        <ele>612.2</ele>
        <time>2022-06-26T12:09:27Z</time>
      </trkpt>
      <trkpt lat="45.77956" lon="4.47128">
        <ele>611.6</ele>
        <time>2022-06-26T12:09:28Z</time>
      </trkpt>
      <trkpt lat="45.77948" lon="4.47135">
        <ele>611.2</ele>
        <time>2022-06-26T12:09:29Z</time>
      </trkpt>
      <trkpt lat="45.77941" lon="4.47144">
        <ele>610.8</ele>
        <time>2022-06-26T12:09:30Z</time>
      </trkpt>
      <trkpt lat="45.77933" lon="4.47153">
        <ele>610.6</ele>
        <time>2022-06-26T12:09:31Z</time>
      </trkpt>
      <trkpt lat="45.77926" lon="4.47161">
        <ele>610.2</ele>
        <time>2022-06-26T12:09:32Z</time>
      </trkpt>
      <trkpt lat="45.77917" lon="4.47168">
        <ele>609.6</ele>
        <time>2022-06-26T12:09:33Z</time>
      </trkpt>
      <trkpt lat="45.77908" lon="4.47173">
        <ele>609.2</ele>
        <time>2022-06-26T12:09:34Z</time>
      </trkpt>
      <trkpt lat="45.77899" lon="4.47177">
        <ele>608.6</ele>
        <time>2022-06-26T12:09:35Z</time>
      </trkpt>
      <trkpt lat="45.7789" lon="4.47178">
        <ele>608.4</ele>
        <time>2022-06-26T12:09:36Z</time>
      </trkpt>
      <trkpt lat="45.7788" lon="4.47179">
        <ele>608.4</ele>
        <time>2022-06-26T12:09:37Z</time>
      </trkpt>
      <trkpt lat="45.7787" lon="4.47179">
        <ele>608</ele>
        <time>2022-06-26T12:09:38Z</time>
      </trkpt>
      <trkpt lat="45.7786" lon="4.47178">
        <ele>607.6</ele>
        <time>2022-06-26T12:09:39Z</time>
      </trkpt>
      <trkpt lat="45.7785" lon="4.47177">
        <ele>607.4</ele>
        <time>2022-06-26T12:09:40Z</time>
      </trkpt>
      <trkpt lat="45.7784" lon="4.47176">
        <ele>606.8</ele>
        <time>2022-06-26T12:09:41Z</time>
      </trkpt>
      <trkpt lat="45.77831" lon="4.47175">
        <ele>606.4</ele>
        <time>2022-06-26T12:09:42Z</time>
      </trkpt>
      <trkpt lat="45.77821" lon="4.47173">
        <ele>605.8</ele>
        <time>2022-06-26T12:09:43Z</time>
      </trkpt>
      <trkpt lat="45.77811" lon="4.47172">
        <ele>605.4</ele>
        <time>2022-06-26T12:09:44Z</time>
      </trkpt>
      <trkpt lat="45.77802" lon="4.47169">
        <ele>605.2</ele>
        <time>2022-06-26T12:09:45Z</time>
      </trkpt>
      <trkpt lat="45.77792" lon="4.47165">
        <ele>605</ele>
        <time>2022-06-26T12:09:46Z</time>
      </trkpt>
      <trkpt lat="45.77783" lon="4.4716">
        <ele>604.4</ele>
        <time>2022-06-26T12:09:47Z</time>
      </trkpt>
      <trkpt lat="45.77774" lon="4.47154">
        <ele>603.8</ele>
        <time>2022-06-26T12:09:48Z</time>
      </trkpt>
      <trkpt lat="45.77765" lon="4.47147">
        <ele>603.4</ele>
        <time>2022-06-26T12:09:49Z</time>
      </trkpt>
      <trkpt lat="45.77757" lon="4.47139">
        <ele>603</ele>
        <time>2022-06-26T12:09:50Z</time>
      </trkpt>
      <trkpt lat="45.77748" lon="4.4713">
        <ele>602.6</ele>
        <time>2022-06-26T12:09:51Z</time>
      </trkpt>
      <trkpt lat="45.77741" lon="4.47121">
        <ele>602.2</ele>
        <time>2022-06-26T12:09:52Z</time>
      </trkpt>
      <trkpt lat="45.77734" lon="4.47114">
        <ele>601.8</ele>
        <time>2022-06-26T12:09:53Z</time>
      </trkpt>
      <trkpt lat="45.77725" lon="4.47109">
        <ele>601.4</ele>
        <time>2022-06-26T12:09:54Z</time>
      </trkpt>
      <trkpt lat="45.77716" lon="4.47105">
        <ele>601</ele>
        <time>2022-06-26T12:09:55Z</time>
      </trkpt>
      <trkpt lat="45.77707" lon="4.47104">
        <ele>600.6</ele>
        <time>2022-06-26T12:09:56Z</time>
      </trkpt>
      <trkpt lat="45.77697" lon="4.47105">
        <ele>600.2</ele>
        <time>2022-06-26T12:09:57Z</time>
      </trkpt>
      <trkpt lat="45.77689" lon="4.47108">
        <ele>599.8</ele>
        <time>2022-06-26T12:09:58Z</time>
      </trkpt>
      <trkpt lat="45.7768" lon="4.4711">
        <ele>599.4</ele>
        <time>2022-06-26T12:09:59Z</time>
      </trkpt>
      <trkpt lat="45.77671" lon="4.47114">
        <ele>599</ele>
        <time>2022-06-26T12:10:00Z</time>
      </trkpt>
      <trkpt lat="45.77661" lon="4.47118">
        <ele>598.8</ele>
        <time>2022-06-26T12:10:01Z</time>
      </trkpt>
      <trkpt lat="45.77651" lon="4.47121">
        <ele>598.4</ele>
        <time>2022-06-26T12:10:02Z</time>
      </trkpt>
      <trkpt lat="45.77641" lon="4.47122">
        <ele>598.2</ele>
        <time>2022-06-26T12:10:03Z</time>
      </trkpt>
      <trkpt lat="45.7763" lon="4.4712">
        <ele>597.6</ele>
        <time>2022-06-26T12:10:04Z</time>
      </trkpt>
      <trkpt lat="45.77622" lon="4.47117">
        <ele>597.2</ele>
        <time>2022-06-26T12:10:05Z</time>
      </trkpt>
      <trkpt lat="45.77612" lon="4.47113">
        <ele>596.6</ele>
        <time>2022-06-26T12:10:06Z</time>
      </trkpt>
      <trkpt lat="45.77604" lon="4.47109">
        <ele>596.2</ele>
        <time>2022-06-26T12:10:07Z</time>
      </trkpt>
      <trkpt lat="45.77595" lon="4.47106">
        <ele>595.8</ele>
        <time>2022-06-26T12:10:08Z</time>
      </trkpt>
      <trkpt lat="45.77586" lon="4.47106">
        <ele>595.6</ele>
        <time>2022-06-26T12:10:09Z</time>
      </trkpt>
      <trkpt lat="45.77578" lon="4.47106">
        <ele>595.6</ele>
        <time>2022-06-26T12:10:10Z</time>
      </trkpt>
      <trkpt lat="45.77569" lon="4.47109">
        <ele>595</ele>
        <time>2022-06-26T12:10:11Z</time>
      </trkpt>
      <trkpt lat="45.7756" lon="4.47114">
        <ele>594.4</ele>
        <time>2022-06-26T12:10:12Z</time>
      </trkpt>
      <trkpt lat="45.77552" lon="4.4712">
        <ele>593.8</ele>
        <time>2022-06-26T12:10:13Z</time>
      </trkpt>
      <trkpt lat="45.77545" lon="4.47126">
        <ele>593.4</ele>
        <time>2022-06-26T12:10:14Z</time>
      </trkpt>
      <trkpt lat="45.77537" lon="4.47134">
        <ele>593</ele>
        <time>2022-06-26T12:10:15Z</time>
      </trkpt>
      <trkpt lat="45.77529" lon="4.47141">
        <ele>592.6</ele>
        <time>2022-06-26T12:10:16Z</time>
      </trkpt>
      <trkpt lat="45.7752" lon="4.47148">
        <ele>592.2</ele>
        <time>2022-06-26T12:10:17Z</time>
      </trkpt>
      <trkpt lat="45.77511" lon="4.47155">
        <ele>591.6</ele>
        <time>2022-06-26T12:10:19Z</time>
      </trkpt>
      <trkpt lat="45.77503" lon="4.47162">
        <ele>591</ele>
        <time>2022-06-26T12:10:20Z</time>
      </trkpt>
      <trkpt lat="45.77495" lon="4.4717">
        <ele>590.8</ele>
        <time>2022-06-26T12:10:21Z</time>
      </trkpt>
      <trkpt lat="45.77488" lon="4.47179">
        <ele>590.2</ele>
        <time>2022-06-26T12:10:22Z</time>
      </trkpt>
      <trkpt lat="45.77481" lon="4.4719">
        <ele>589.8</ele>
        <time>2022-06-26T12:10:23Z</time>
      </trkpt>
      <trkpt lat="45.77474" lon="4.472">
        <ele>589</ele>
        <time>2022-06-26T12:10:24Z</time>
      </trkpt>
      <trkpt lat="45.77467" lon="4.47212">
        <ele>588.6</ele>
        <time>2022-06-26T12:10:25Z</time>
      </trkpt>
      <trkpt lat="45.7746" lon="4.47222">
        <ele>588</ele>
        <time>2022-06-26T12:10:26Z</time>
      </trkpt>
      <trkpt lat="45.77451" lon="4.47228">
        <ele>587.6</ele>
        <time>2022-06-26T12:10:27Z</time>
      </trkpt>
      <trkpt lat="45.77442" lon="4.47233">
        <ele>587.2</ele>
        <time>2022-06-26T12:10:28Z</time>
      </trkpt>
      <trkpt lat="45.77433" lon="4.47236">
        <ele>586.8</ele>
        <time>2022-06-26T12:10:29Z</time>
      </trkpt>
      <trkpt lat="45.77424" lon="4.47236">
        <ele>586.4</ele>
        <time>2022-06-26T12:10:30Z</time>
      </trkpt>
      <trkpt lat="45.77414" lon="4.47232">
        <ele>586</ele>
        <time>2022-06-26T12:10:31Z</time>
      </trkpt>
      <trkpt lat="45.77406" lon="4.47228">
        <ele>585.8</ele>
        <time>2022-06-26T12:10:32Z</time>
      </trkpt>
      <trkpt lat="45.77397" lon="4.47224">
        <ele>585.8</ele>
        <time>2022-06-26T12:10:33Z</time>
      </trkpt>
      <trkpt lat="45.77389" lon="4.47221">
        <ele>585.4</ele>
        <time>2022-06-26T12:10:34Z</time>
      </trkpt>
      <trkpt lat="45.77379" lon="4.47218">
        <ele>585.4</ele>
        <time>2022-06-26T12:10:35Z</time>
      </trkpt>
      <trkpt lat="45.77371" lon="4.47217">
        <ele>585</ele>
        <time>2022-06-26T12:10:36Z</time>
      </trkpt>
      <trkpt lat="45.77362" lon="4.47217">
        <ele>585</ele>
        <time>2022-06-26T12:10:37Z</time>
      </trkpt>
      <trkpt lat="45.77354" lon="4.47217">
        <ele>584.8</ele>
        <time>2022-06-26T12:10:38Z</time>
      </trkpt>
      <trkpt lat="45.77346" lon="4.47217">
        <ele>584.8</ele>
        <time>2022-06-26T12:10:39Z</time>
      </trkpt>
      <trkpt lat="45.77338" lon="4.47217">
        <ele>584.4</ele>
        <time>2022-06-26T12:10:40Z</time>
      </trkpt>
      <trkpt lat="45.7733" lon="4.47218">
        <ele>584.4</ele>
        <time>2022-06-26T12:10:41Z</time>
      </trkpt>
      <trkpt lat="45.77322" lon="4.47218">
        <ele>584.2</ele>
        <time>2022-06-26T12:10:42Z</time>
      </trkpt>
      <trkpt lat="45.77314" lon="4.47219">
        <ele>584.2</ele>
        <time>2022-06-26T12:10:43Z</time>
      </trkpt>
      <trkpt lat="45.77306" lon="4.4722">
        <ele>584</ele>
        <time>2022-06-26T12:10:44Z</time>
      </trkpt>
      <trkpt lat="45.77298" lon="4.47221">
        <ele>584</ele>
        <time>2022-06-26T12:10:45Z</time>
      </trkpt>
      <trkpt lat="45.77289" lon="4.47222">
        <ele>583.8</ele>
        <time>2022-06-26T12:10:46Z</time>
      </trkpt>
      <trkpt lat="45.77281" lon="4.47223">
        <ele>583.8</ele>
        <time>2022-06-26T12:10:47Z</time>
      </trkpt>
      <trkpt lat="45.77274" lon="4.47226">
        <ele>583.4</ele>
        <time>2022-06-26T12:10:48Z</time>
      </trkpt>
      <trkpt lat="45.77267" lon="4.47229">
        <ele>583.4</ele>
        <time>2022-06-26T12:10:49Z</time>
      </trkpt>
      <trkpt lat="45.7726" lon="4.47233">
        <ele>583</ele>
        <time>2022-06-26T12:10:50Z</time>
      </trkpt>
      <trkpt lat="45.77255" lon="4.4724">
        <ele>583</ele>
        <time>2022-06-26T12:10:51Z</time>
      </trkpt>
      <trkpt lat="45.7725" lon="4.47248">
        <ele>583</ele>
        <time>2022-06-26T12:10:52Z</time>
      </trkpt>
      <trkpt lat="45.77247" lon="4.47257">
        <ele>582.6</ele>
        <time>2022-06-26T12:10:53Z</time>
      </trkpt>
      <trkpt lat="45.77245" lon="4.47267">
        <ele>582.4</ele>
        <time>2022-06-26T12:10:54Z</time>
      </trkpt>
      <trkpt lat="45.77244" lon="4.47277">
        <ele>582.2</ele>
        <time>2022-06-26T12:10:55Z</time>
      </trkpt>
      <trkpt lat="45.77245" lon="4.47288">
        <ele>582</ele>
        <time>2022-06-26T12:10:56Z</time>
      </trkpt>
      <trkpt lat="45.77248" lon="4.47298">
        <ele>582</ele>
        <time>2022-06-26T12:10:57Z</time>
      </trkpt>
      <trkpt lat="45.77251" lon="4.47308">
        <ele>581.4</ele>
        <time>2022-06-26T12:10:58Z</time>
      </trkpt>
      <trkpt lat="45.77254" lon="4.47317">
        <ele>581.2</ele>
        <time>2022-06-26T12:10:59Z</time>
      </trkpt>
      <trkpt lat="45.77256" lon="4.47327">
        <ele>581.2</ele>
        <time>2022-06-26T12:11:00Z</time>
      </trkpt>
      <trkpt lat="45.77258" lon="4.47337">
        <ele>580.8</ele>
        <time>2022-06-26T12:11:01Z</time>
      </trkpt>
      <trkpt lat="45.77258" lon="4.47348">
        <ele>580.8</ele>
        <time>2022-06-26T12:11:02Z</time>
      </trkpt>
      <trkpt lat="45.77256" lon="4.47358">
        <ele>580.4</ele>
        <time>2022-06-26T12:11:03Z</time>
      </trkpt>
      <trkpt lat="45.77253" lon="4.47368">
        <ele>580.2</ele>
        <time>2022-06-26T12:11:04Z</time>
      </trkpt>
      <trkpt lat="45.7725" lon="4.47376">
        <ele>579.8</ele>
        <time>2022-06-26T12:11:05Z</time>
      </trkpt>
      <trkpt lat="45.77242" lon="4.47388">
        <ele>579.4</ele>
        <time>2022-06-26T12:11:06Z</time>
      </trkpt>
      <trkpt lat="45.77239" lon="4.47391">
        <ele>579.4</ele>
        <time>2022-06-26T12:11:07Z</time>
      </trkpt>
      <trkpt lat="45.77234" lon="4.47398">
        <ele>579.4</ele>
        <time>2022-06-26T12:11:08Z</time>
      </trkpt>
      <trkpt lat="45.77227" lon="4.47403">
        <ele>579.2</ele>
        <time>2022-06-26T12:11:09Z</time>
      </trkpt>
      <trkpt lat="45.77219" lon="4.47405">
        <ele>579.2</ele>
        <time>2022-06-26T12:11:10Z</time>
      </trkpt>
      <trkpt lat="45.77212" lon="4.47406">
        <ele>578.8</ele>
        <time>2022-06-26T12:11:11Z</time>
      </trkpt>
      <trkpt lat="45.77204" lon="4.47406">
        <ele>578.8</ele>
        <time>2022-06-26T12:11:12Z</time>
      </trkpt>
      <trkpt lat="45.77196" lon="4.47405">
        <ele>578.6</ele>
        <time>2022-06-26T12:11:13Z</time>
      </trkpt>
      <trkpt lat="45.77189" lon="4.47403">
        <ele>578.6</ele>
        <time>2022-06-26T12:11:14Z</time>
      </trkpt>
      <trkpt lat="45.77181" lon="4.47402">
        <ele>578.6</ele>
        <time>2022-06-26T12:11:15Z</time>
      </trkpt>
      <trkpt lat="45.77174" lon="4.474">
        <ele>578.4</ele>
        <time>2022-06-26T12:11:16Z</time>
      </trkpt>
      <trkpt lat="45.77166" lon="4.47397">
        <ele>578.4</ele>
        <time>2022-06-26T12:11:17Z</time>
      </trkpt>
      <trkpt lat="45.77159" lon="4.47394">
        <ele>578.4</ele>
        <time>2022-06-26T12:11:18Z</time>
      </trkpt>
      <trkpt lat="45.77153" lon="4.47391">
        <ele>578.4</ele>
        <time>2022-06-26T12:11:19Z</time>
      </trkpt>
      <trkpt lat="45.77146" lon="4.47388">
        <ele>578.4</ele>
        <time>2022-06-26T12:11:20Z</time>
      </trkpt>
      <trkpt lat="45.7714" lon="4.47385">
        <ele>578.4</ele>
        <time>2022-06-26T12:11:21Z</time>
      </trkpt>
      <trkpt lat="45.77134" lon="4.4738">
        <ele>578.4</ele>
        <time>2022-06-26T12:11:22Z</time>
      </trkpt>
      <trkpt lat="45.77128" lon="4.47376">
        <ele>578.4</ele>
        <time>2022-06-26T12:11:23Z</time>
      </trkpt>
      <trkpt lat="45.77123" lon="4.47372">
        <ele>578.6</ele>
        <time>2022-06-26T12:11:24Z</time>
      </trkpt>
      <trkpt lat="45.77117" lon="4.47367">
        <ele>578.6</ele>
        <time>2022-06-26T12:11:25Z</time>
      </trkpt>
      <trkpt lat="45.77112" lon="4.47362">
        <ele>578.6</ele>
        <time>2022-06-26T12:11:26Z</time>
      </trkpt>
      <trkpt lat="45.77107" lon="4.47358">
        <ele>578.6</ele>
        <time>2022-06-26T12:11:27Z</time>
      </trkpt>
      <trkpt lat="45.77102" lon="4.47353">
        <ele>578.6</ele>
        <time>2022-06-26T12:11:28Z</time>
      </trkpt>
      <trkpt lat="45.77097" lon="4.47348">
        <ele>579</ele>
        <time>2022-06-26T12:11:29Z</time>
      </trkpt>
      <trkpt lat="45.77092" lon="4.47343">
        <ele>579</ele>
        <time>2022-06-26T12:11:30Z</time>
      </trkpt>
      <trkpt lat="45.77087" lon="4.4734">
        <ele>579</ele>
        <time>2022-06-26T12:11:31Z</time>
      </trkpt>
      <trkpt lat="45.77081" lon="4.47337">
        <ele>579</ele>
        <time>2022-06-26T12:11:32Z</time>
      </trkpt>
      <trkpt lat="45.77075" lon="4.47334">
        <ele>579</ele>
        <time>2022-06-26T12:11:33Z</time>
      </trkpt>
      <trkpt lat="45.77069" lon="4.47333">
        <ele>579</ele>
        <time>2022-06-26T12:11:34Z</time>
      </trkpt>
      <trkpt lat="45.77063" lon="4.47332">
        <ele>579</ele>
        <time>2022-06-26T12:11:35Z</time>
      </trkpt>
      <trkpt lat="45.77058" lon="4.47331">
        <ele>579</ele>
        <time>2022-06-26T12:11:36Z</time>
      </trkpt>
      <trkpt lat="45.77052" lon="4.47332">
        <ele>579</ele>
        <time>2022-06-26T12:11:37Z</time>
      </trkpt>
      <trkpt lat="45.77046" lon="4.47333">
        <ele>579</ele>
        <time>2022-06-26T12:11:38Z</time>
      </trkpt>
      <trkpt lat="45.7704" lon="4.47334">
        <ele>579</ele>
        <time>2022-06-26T12:11:39Z</time>
      </trkpt>
      <trkpt lat="45.77035" lon="4.47336">
        <ele>579</ele>
        <time>2022-06-26T12:11:40Z</time>
      </trkpt>
      <trkpt lat="45.77029" lon="4.47338">
        <ele>579</ele>
        <time>2022-06-26T12:11:41Z</time>
      </trkpt>
      <trkpt lat="45.77025" lon="4.4734">
        <ele>578.6</ele>
        <time>2022-06-26T12:11:42Z</time>
      </trkpt>
      <trkpt lat="45.77021" lon="4.47342">
        <ele>578.6</ele>
        <time>2022-06-26T12:11:43Z</time>
      </trkpt>
      <trkpt lat="45.77017" lon="4.47344">
        <ele>578.4</ele>
        <time>2022-06-26T12:11:44Z</time>
      </trkpt>
      <trkpt lat="45.77015" lon="4.47345">
        <ele>578.4</ele>
        <time>2022-06-26T12:11:45Z</time>
      </trkpt>
      <trkpt lat="45.77013" lon="4.47346">
        <ele>578.2</ele>
        <time>2022-06-26T12:11:46Z</time>
      </trkpt>
      <trkpt lat="45.77013" lon="4.47347">
        <ele>578.2</ele>
        <time>2022-06-26T12:11:47Z</time>
      </trkpt>
      <trkpt lat="45.7701" lon="4.47348">
        <ele>578.4</ele>
        <time>2022-06-26T12:14:11Z</time>
      </trkpt>
      <trkpt lat="45.77009" lon="4.4735">
        <ele>578.4</ele>
        <time>2022-06-26T12:14:12Z</time>
      </trkpt>
      <trkpt lat="45.77007" lon="4.47351">
        <ele>578.4</ele>
        <time>2022-06-26T12:14:13Z</time>
      </trkpt>
      <trkpt lat="45.77005" lon="4.47353">
        <ele>578.4</ele>
        <time>2022-06-26T12:14:14Z</time>
      </trkpt>
      <trkpt lat="45.77003" lon="4.47355">
        <ele>578.4</ele>
        <time>2022-06-26T12:14:15Z</time>
      </trkpt>
      <trkpt lat="45.77" lon="4.47357">
        <ele>578.4</ele>
        <time>2022-06-26T12:14:16Z</time>
      </trkpt>
      <trkpt lat="45.76997" lon="4.4736">
        <ele>578.4</ele>
        <time>2022-06-26T12:14:17Z</time>
      </trkpt>
      <trkpt lat="45.76994" lon="4.47363">
        <ele>578.4</ele>
        <time>2022-06-26T12:14:18Z</time>
      </trkpt>
      <trkpt lat="45.76991" lon="4.47366">
        <ele>578.4</ele>
        <time>2022-06-26T12:14:19Z</time>
      </trkpt>
      <trkpt lat="45.76988" lon="4.4737">
        <ele>578.4</ele>
        <time>2022-06-26T12:14:20Z</time>
      </trkpt>
      <trkpt lat="45.76984" lon="4.47374">
        <ele>578.4</ele>
        <time>2022-06-26T12:14:21Z</time>
      </trkpt>
      <trkpt lat="45.76981" lon="4.47379">
        <ele>578.4</ele>
        <time>2022-06-26T12:14:22Z</time>
      </trkpt>
      <trkpt lat="45.76978" lon="4.47384">
        <ele>578.4</ele>
        <time>2022-06-26T12:14:23Z</time>
      </trkpt>
      <trkpt lat="45.76975" lon="4.47389">
        <ele>578.4</ele>
        <time>2022-06-26T12:14:24Z</time>
      </trkpt>
      <trkpt lat="45.76972" lon="4.47395">
        <ele>578.2</ele>
        <time>2022-06-26T12:14:25Z</time>
      </trkpt>
      <trkpt lat="45.7697" lon="4.47401">
        <ele>578.2</ele>
        <time>2022-06-26T12:14:26Z</time>
      </trkpt>
      <trkpt lat="45.76967" lon="4.47408">
        <ele>578.2</ele>
        <time>2022-06-26T12:14:27Z</time>
      </trkpt>
      <trkpt lat="45.76965" lon="4.47415">
        <ele>578.2</ele>
        <time>2022-06-26T12:14:28Z</time>
      </trkpt>
      <trkpt lat="45.76962" lon="4.47422">
        <ele>578.2</ele>
        <time>2022-06-26T12:14:29Z</time>
      </trkpt>
      <trkpt lat="45.7696" lon="4.47429">
        <ele>578.2</ele>
        <time>2022-06-26T12:14:30Z</time>
      </trkpt>
      <trkpt lat="45.76957" lon="4.47437">
        <ele>578.2</ele>
        <time>2022-06-26T12:14:31Z</time>
      </trkpt>
      <trkpt lat="45.76954" lon="4.47444">
        <ele>578.2</ele>
        <time>2022-06-26T12:14:32Z</time>
      </trkpt>
      <trkpt lat="45.76951" lon="4.4745">
        <ele>578.2</ele>
        <time>2022-06-26T12:14:33Z</time>
      </trkpt>
      <trkpt lat="45.76947" lon="4.47456">
        <ele>578.2</ele>
        <time>2022-06-26T12:14:34Z</time>
      </trkpt>
      <trkpt lat="45.76944" lon="4.47462">
        <ele>578.2</ele>
        <time>2022-06-26T12:14:35Z</time>
      </trkpt>
      <trkpt lat="45.7694" lon="4.47467">
        <ele>578.2</ele>
        <time>2022-06-26T12:14:36Z</time>
      </trkpt>
      <trkpt lat="45.76936" lon="4.47471">
        <ele>578.2</ele>
        <time>2022-06-26T12:14:37Z</time>
      </trkpt>
      <trkpt lat="45.76931" lon="4.47475">
        <ele>578.4</ele>
        <time>2022-06-26T12:14:38Z</time>
      </trkpt>
      <trkpt lat="45.76927" lon="4.47479">
        <ele>578.4</ele>
        <time>2022-06-26T12:14:39Z</time>
      </trkpt>
      <trkpt lat="45.76923" lon="4.47483">
        <ele>578.8</ele>
        <time>2022-06-26T12:14:40Z</time>
      </trkpt>
      <trkpt lat="45.76919" lon="4.47486">
        <ele>578.8</ele>
        <time>2022-06-26T12:14:41Z</time>
      </trkpt>
      <trkpt lat="45.76915" lon="4.47489">
        <ele>579</ele>
        <time>2022-06-26T12:14:42Z</time>
      </trkpt>
      <trkpt lat="45.76911" lon="4.47491">
        <ele>579</ele>
        <time>2022-06-26T12:14:43Z</time>
      </trkpt>
      <trkpt lat="45.76907" lon="4.47494">
        <ele>579.2</ele>
        <time>2022-06-26T12:14:44Z</time>
      </trkpt>
      <trkpt lat="45.76902" lon="4.47496">
        <ele>579.2</ele>
        <time>2022-06-26T12:14:45Z</time>
      </trkpt>
      <trkpt lat="45.76898" lon="4.47498">
        <ele>579.6</ele>
        <time>2022-06-26T12:14:46Z</time>
      </trkpt>
      <trkpt lat="45.76894" lon="4.47501">
        <ele>579.6</ele>
        <time>2022-06-26T12:14:47Z</time>
      </trkpt>
      <trkpt lat="45.76889" lon="4.47503">
        <ele>579.6</ele>
        <time>2022-06-26T12:14:48Z</time>
      </trkpt>
      <trkpt lat="45.76885" lon="4.47505">
        <ele>580</ele>
        <time>2022-06-26T12:14:49Z</time>
      </trkpt>
      <trkpt lat="45.76881" lon="4.47507">
        <ele>580</ele>
        <time>2022-06-26T12:14:50Z</time>
      </trkpt>
      <trkpt lat="45.76877" lon="4.47508">
        <ele>580.4</ele>
        <time>2022-06-26T12:14:51Z</time>
      </trkpt>
      <trkpt lat="45.76873" lon="4.4751">
        <ele>580.4</ele>
        <time>2022-06-26T12:14:52Z</time>
      </trkpt>
      <trkpt lat="45.76869" lon="4.47512">
        <ele>580.6</ele>
        <time>2022-06-26T12:14:53Z</time>
      </trkpt>
      <trkpt lat="45.76865" lon="4.47513">
        <ele>580.6</ele>
        <time>2022-06-26T12:14:54Z</time>
      </trkpt>
      <trkpt lat="45.76861" lon="4.47515">
        <ele>581</ele>
        <time>2022-06-26T12:14:55Z</time>
      </trkpt>
      <trkpt lat="45.76857" lon="4.47516">
        <ele>581</ele>
        <time>2022-06-26T12:14:56Z</time>
      </trkpt>
      <trkpt lat="45.76854" lon="4.47517">
        <ele>581.2</ele>
        <time>2022-06-26T12:14:57Z</time>
      </trkpt>
      <trkpt lat="45.7685" lon="4.47519">
        <ele>581.2</ele>
        <time>2022-06-26T12:14:58Z</time>
      </trkpt>
      <trkpt lat="45.76847" lon="4.4752">
        <ele>581.8</ele>
        <time>2022-06-26T12:14:59Z</time>
      </trkpt>
      <trkpt lat="45.76844" lon="4.47522">
        <ele>581.8</ele>
        <time>2022-06-26T12:15:00Z</time>
      </trkpt>
      <trkpt lat="45.7684" lon="4.47523">
        <ele>582</ele>
        <time>2022-06-26T12:15:01Z</time>
      </trkpt>
      <trkpt lat="45.76837" lon="4.47525">
        <ele>582</ele>
        <time>2022-06-26T12:15:02Z</time>
      </trkpt>
      <trkpt lat="45.76834" lon="4.47527">
        <ele>582.4</ele>
        <time>2022-06-26T12:15:03Z</time>
      </trkpt>
      <trkpt lat="45.7683" lon="4.47528">
        <ele>582.4</ele>
        <time>2022-06-26T12:15:04Z</time>
      </trkpt>
      <trkpt lat="45.76827" lon="4.4753">
        <ele>582.4</ele>
        <time>2022-06-26T12:15:05Z</time>
      </trkpt>
      <trkpt lat="45.76824" lon="4.47531">
        <ele>582.6</ele>
        <time>2022-06-26T12:15:06Z</time>
      </trkpt>
      <trkpt lat="45.76821" lon="4.47533">
        <ele>582.6</ele>
        <time>2022-06-26T12:15:07Z</time>
      </trkpt>
      <trkpt lat="45.76818" lon="4.47536">
        <ele>582.6</ele>
        <time>2022-06-26T12:15:08Z</time>
      </trkpt>
      <trkpt lat="45.76814" lon="4.47538">
        <ele>582.6</ele>
        <time>2022-06-26T12:15:09Z</time>
      </trkpt>
      <trkpt lat="45.76811" lon="4.47541">
        <ele>582.6</ele>
        <time>2022-06-26T12:15:10Z</time>
      </trkpt>
      <trkpt lat="45.76807" lon="4.47545">
        <ele>582.6</ele>
        <time>2022-06-26T12:15:11Z</time>
      </trkpt>
      <trkpt lat="45.76803" lon="4.47548">
        <ele>582.6</ele>
        <time>2022-06-26T12:15:12Z</time>
      </trkpt>
      <trkpt lat="45.76798" lon="4.47552">
        <ele>582.6</ele>
        <time>2022-06-26T12:15:13Z</time>
      </trkpt>
      <trkpt lat="45.76793" lon="4.47556">
        <ele>582.6</ele>
        <time>2022-06-26T12:15:14Z</time>
      </trkpt>
      <trkpt lat="45.76788" lon="4.47561">
        <ele>582.2</ele>
        <time>2022-06-26T12:15:15Z</time>
      </trkpt>
      <trkpt lat="45.76783" lon="4.47566">
        <ele>582.2</ele>
        <time>2022-06-26T12:15:16Z</time>
      </trkpt>
      <trkpt lat="45.76778" lon="4.47571">
        <ele>582</ele>
        <time>2022-06-26T12:15:17Z</time>
      </trkpt>
      <trkpt lat="45.76772" lon="4.47576">
        <ele>582</ele>
        <time>2022-06-26T12:15:18Z</time>
      </trkpt>
      <trkpt lat="45.76767" lon="4.47582">
        <ele>581.6</ele>
        <time>2022-06-26T12:15:19Z</time>
      </trkpt>
      <trkpt lat="45.76761" lon="4.47587">
        <ele>581.2</ele>
        <time>2022-06-26T12:15:20Z</time>
      </trkpt>
      <trkpt lat="45.76756" lon="4.47593">
        <ele>581</ele>
        <time>2022-06-26T12:15:21Z</time>
      </trkpt>
      <trkpt lat="45.7675" lon="4.47599">
        <ele>581</ele>
        <time>2022-06-26T12:15:22Z</time>
      </trkpt>
      <trkpt lat="45.76744" lon="4.47606">
        <ele>580.4</ele>
        <time>2022-06-26T12:15:23Z</time>
      </trkpt>
      <trkpt lat="45.76739" lon="4.47613">
        <ele>580.2</ele>
        <time>2022-06-26T12:15:24Z</time>
      </trkpt>
      <trkpt lat="45.76733" lon="4.47619">
        <ele>580</ele>
        <time>2022-06-26T12:15:25Z</time>
      </trkpt>
      <trkpt lat="45.76727" lon="4.47626">
        <ele>580</ele>
        <time>2022-06-26T12:15:26Z</time>
      </trkpt>
      <trkpt lat="45.76721" lon="4.47633">
        <ele>579.6</ele>
        <time>2022-06-26T12:15:27Z</time>
      </trkpt>
      <trkpt lat="45.76716" lon="4.47641">
        <ele>579.4</ele>
        <time>2022-06-26T12:15:28Z</time>
      </trkpt>
      <trkpt lat="45.7671" lon="4.47648">
        <ele>579</ele>
        <time>2022-06-26T12:15:29Z</time>
      </trkpt>
      <trkpt lat="45.76704" lon="4.47656">
        <ele>578.8</ele>
        <time>2022-06-26T12:15:30Z</time>
      </trkpt>
      <trkpt lat="45.76698" lon="4.47663">
        <ele>578.4</ele>
        <time>2022-06-26T12:15:31Z</time>
      </trkpt>
      <trkpt lat="45.76691" lon="4.4767">
        <ele>578</ele>
        <time>2022-06-26T12:15:32Z</time>
      </trkpt>
      <trkpt lat="45.76685" lon="4.47677">
        <ele>577.8</ele>
        <time>2022-06-26T12:15:33Z</time>
      </trkpt>
      <trkpt lat="45.76678" lon="4.47683">
        <ele>577.6</ele>
        <time>2022-06-26T12:15:34Z</time>
      </trkpt>
      <trkpt lat="45.76671" lon="4.47688">
        <ele>577.2</ele>
        <time>2022-06-26T12:15:35Z</time>
      </trkpt>
      <trkpt lat="45.76663" lon="4.47691">
        <ele>577</ele>
        <time>2022-06-26T12:15:36Z</time>
      </trkpt>
      <trkpt lat="45.76655" lon="4.47694">
        <ele>576.8</ele>
        <time>2022-06-26T12:15:37Z</time>
      </trkpt>
      <trkpt lat="45.76648" lon="4.47695">
        <ele>576.6</ele>
        <time>2022-06-26T12:15:38Z</time>
      </trkpt>
      <trkpt lat="45.7664" lon="4.47697">
        <ele>576.6</ele>
        <time>2022-06-26T12:15:39Z</time>
      </trkpt>
      <trkpt lat="45.76633" lon="4.47698">
        <ele>576.6</ele>
        <time>2022-06-26T12:15:40Z</time>
      </trkpt>
      <trkpt lat="45.76626" lon="4.47699">
        <ele>576.6</ele>
        <time>2022-06-26T12:15:41Z</time>
      </trkpt>
      <trkpt lat="45.7662" lon="4.47701">
        <ele>576.6</ele>
        <time>2022-06-26T12:15:42Z</time>
      </trkpt>
      <trkpt lat="45.76613" lon="4.47702">
        <ele>576.6</ele>
        <time>2022-06-26T12:15:43Z</time>
      </trkpt>
      <trkpt lat="45.76607" lon="4.47704">
        <ele>576.6</ele>
        <time>2022-06-26T12:15:44Z</time>
      </trkpt>
      <trkpt lat="45.76602" lon="4.47707">
        <ele>576.6</ele>
        <time>2022-06-26T12:15:45Z</time>
      </trkpt>
      <trkpt lat="45.76597" lon="4.47711">
        <ele>576.6</ele>
        <time>2022-06-26T12:15:46Z</time>
      </trkpt>
      <trkpt lat="45.76592" lon="4.47715">
        <ele>576.8</ele>
        <time>2022-06-26T12:15:47Z</time>
      </trkpt>
      <trkpt lat="45.76588" lon="4.4772">
        <ele>576.8</ele>
        <time>2022-06-26T12:15:48Z</time>
      </trkpt>
      <trkpt lat="45.76585" lon="4.47725">
        <ele>576.8</ele>
        <time>2022-06-26T12:15:49Z</time>
      </trkpt>
      <trkpt lat="45.76582" lon="4.47729">
        <ele>577</ele>
        <time>2022-06-26T12:15:50Z</time>
      </trkpt>
      <trkpt lat="45.76579" lon="4.47733">
        <ele>577</ele>
        <time>2022-06-26T12:15:51Z</time>
      </trkpt>
      <trkpt lat="45.76576" lon="4.47737">
        <ele>577</ele>
        <time>2022-06-26T12:15:52Z</time>
      </trkpt>
      <trkpt lat="45.76573" lon="4.47741">
        <ele>577</ele>
        <time>2022-06-26T12:15:53Z</time>
      </trkpt>
      <trkpt lat="45.7657" lon="4.47745">
        <ele>577.2</ele>
        <time>2022-06-26T12:15:54Z</time>
      </trkpt>
      <trkpt lat="45.76568" lon="4.4775">
        <ele>577.2</ele>
        <time>2022-06-26T12:15:55Z</time>
      </trkpt>
      <trkpt lat="45.76565" lon="4.47755">
        <ele>577.2</ele>
        <time>2022-06-26T12:15:56Z</time>
      </trkpt>
      <trkpt lat="45.76561" lon="4.4776">
        <ele>577.2</ele>
        <time>2022-06-26T12:15:57Z</time>
      </trkpt>
      <trkpt lat="45.76558" lon="4.47766">
        <ele>577.2</ele>
        <time>2022-06-26T12:15:58Z</time>
      </trkpt>
      <trkpt lat="45.76555" lon="4.47772">
        <ele>577.2</ele>
        <time>2022-06-26T12:15:59Z</time>
      </trkpt>
      <trkpt lat="45.76552" lon="4.47779">
        <ele>577.2</ele>
        <time>2022-06-26T12:16:00Z</time>
      </trkpt>
      <trkpt lat="45.76548" lon="4.47786">
        <ele>577</ele>
        <time>2022-06-26T12:16:01Z</time>
      </trkpt>
      <trkpt lat="45.76545" lon="4.47793">
        <ele>577</ele>
        <time>2022-06-26T12:16:02Z</time>
      </trkpt>
      <trkpt lat="45.76542" lon="4.47801">
        <ele>576.6</ele>
        <time>2022-06-26T12:16:03Z</time>
      </trkpt>
      <trkpt lat="45.76539" lon="4.4781">
        <ele>576.4</ele>
        <time>2022-06-26T12:16:04Z</time>
      </trkpt>
      <trkpt lat="45.76535" lon="4.47819">
        <ele>576.4</ele>
        <time>2022-06-26T12:16:05Z</time>
      </trkpt>
      <trkpt lat="45.76532" lon="4.47827">
        <ele>576</ele>
        <time>2022-06-26T12:16:06Z</time>
      </trkpt>
      <trkpt lat="45.76528" lon="4.47836">
        <ele>575.6</ele>
        <time>2022-06-26T12:16:07Z</time>
      </trkpt>
      <trkpt lat="45.76524" lon="4.47844">
        <ele>575.6</ele>
        <time>2022-06-26T12:16:08Z</time>
      </trkpt>
      <trkpt lat="45.76519" lon="4.47851">
        <ele>575.2</ele>
        <time>2022-06-26T12:16:09Z</time>
      </trkpt>
      <trkpt lat="45.76514" lon="4.47858">
        <ele>575.2</ele>
        <time>2022-06-26T12:16:10Z</time>
      </trkpt>
      <trkpt lat="45.76509" lon="4.47864">
        <ele>575</ele>
        <time>2022-06-26T12:16:11Z</time>
      </trkpt>
      <trkpt lat="45.76503" lon="4.47869">
        <ele>575</ele>
        <time>2022-06-26T12:16:12Z</time>
      </trkpt>
      <trkpt lat="45.76498" lon="4.47874">
        <ele>575</ele>
        <time>2022-06-26T12:16:13Z</time>
      </trkpt>
      <trkpt lat="45.76492" lon="4.47878">
        <ele>575</ele>
        <time>2022-06-26T12:16:14Z</time>
      </trkpt>
      <trkpt lat="45.76486" lon="4.47881">
        <ele>575</ele>
        <time>2022-06-26T12:16:15Z</time>
      </trkpt>
      <trkpt lat="45.7648" lon="4.47884">
        <ele>575</ele>
        <time>2022-06-26T12:16:16Z</time>
      </trkpt>
      <trkpt lat="45.76474" lon="4.47887">
        <ele>575</ele>
        <time>2022-06-26T12:16:17Z</time>
      </trkpt>
      <trkpt lat="45.76469" lon="4.47889">
        <ele>574.8</ele>
        <time>2022-06-26T12:16:18Z</time>
      </trkpt>
      <trkpt lat="45.76463" lon="4.47891">
        <ele>574.8</ele>
        <time>2022-06-26T12:16:19Z</time>
      </trkpt>
      <trkpt lat="45.76457" lon="4.47893">
        <ele>574.8</ele>
        <time>2022-06-26T12:16:20Z</time>
      </trkpt>
      <trkpt lat="45.76452" lon="4.47896">
        <ele>574.8</ele>
        <time>2022-06-26T12:16:21Z</time>
      </trkpt>
      <trkpt lat="45.76446" lon="4.47898">
        <ele>575.2</ele>
        <time>2022-06-26T12:16:22Z</time>
      </trkpt>
      <trkpt lat="45.76441" lon="4.47901">
        <ele>575.2</ele>
        <time>2022-06-26T12:16:23Z</time>
      </trkpt>
      <trkpt lat="45.76436" lon="4.47905">
        <ele>575.2</ele>
        <time>2022-06-26T12:16:24Z</time>
      </trkpt>
      <trkpt lat="45.76432" lon="4.47909">
        <ele>575.2</ele>
        <time>2022-06-26T12:16:25Z</time>
      </trkpt>
      <trkpt lat="45.76428" lon="4.47913">
        <ele>575.4</ele>
        <time>2022-06-26T12:16:26Z</time>
      </trkpt>
      <trkpt lat="45.76424" lon="4.47919">
        <ele>575.4</ele>
        <time>2022-06-26T12:16:27Z</time>
      </trkpt>
      <trkpt lat="45.7642" lon="4.47924">
        <ele>575.4</ele>
        <time>2022-06-26T12:16:28Z</time>
      </trkpt>
      <trkpt lat="45.76416" lon="4.4793">
        <ele>575.4</ele>
        <time>2022-06-26T12:16:29Z</time>
      </trkpt>
      <trkpt lat="45.76413" lon="4.47937">
        <ele>575.4</ele>
        <time>2022-06-26T12:16:30Z</time>
      </trkpt>
      <trkpt lat="45.76411" lon="4.47945">
        <ele>575.4</ele>
        <time>2022-06-26T12:16:31Z</time>
      </trkpt>
      <trkpt lat="45.76409" lon="4.47953">
        <ele>575</ele>
        <time>2022-06-26T12:16:32Z</time>
      </trkpt>
      <trkpt lat="45.76408" lon="4.47962">
        <ele>575</ele>
        <time>2022-06-26T12:16:33Z</time>
      </trkpt>
      <trkpt lat="45.76408" lon="4.47971">
        <ele>575</ele>
        <time>2022-06-26T12:16:34Z</time>
      </trkpt>
      <trkpt lat="45.76408" lon="4.47979">
        <ele>575</ele>
        <time>2022-06-26T12:16:35Z</time>
      </trkpt>
      <trkpt lat="45.76409" lon="4.47988">
        <ele>574.8</ele>
        <time>2022-06-26T12:16:36Z</time>
      </trkpt>
      <trkpt lat="45.76411" lon="4.47997">
        <ele>574.8</ele>
        <time>2022-06-26T12:16:37Z</time>
      </trkpt>
      <trkpt lat="45.76412" lon="4.48006">
        <ele>574.6</ele>
        <time>2022-06-26T12:16:38Z</time>
      </trkpt>
      <trkpt lat="45.76413" lon="4.48015">
        <ele>574.6</ele>
        <time>2022-06-26T12:16:39Z</time>
      </trkpt>
      <trkpt lat="45.76413" lon="4.48025">
        <ele>574.6</ele>
        <time>2022-06-26T12:16:40Z</time>
      </trkpt>
      <trkpt lat="45.76412" lon="4.48034">
        <ele>574.6</ele>
        <time>2022-06-26T12:16:41Z</time>
      </trkpt>
      <trkpt lat="45.7641" lon="4.48044">
        <ele>574.2</ele>
        <time>2022-06-26T12:16:42Z</time>
      </trkpt>
      <trkpt lat="45.76408" lon="4.48052">
        <ele>574.2</ele>
        <time>2022-06-26T12:16:43Z</time>
      </trkpt>
      <trkpt lat="45.76404" lon="4.48061">
        <ele>574.2</ele>
        <time>2022-06-26T12:16:44Z</time>
      </trkpt>
      <trkpt lat="45.76399" lon="4.48068">
        <ele>574.2</ele>
        <time>2022-06-26T12:16:45Z</time>
      </trkpt>
      <trkpt lat="45.76394" lon="4.48074">
        <ele>574.2</ele>
        <time>2022-06-26T12:16:46Z</time>
      </trkpt>
      <trkpt lat="45.76389" lon="4.4808">
        <ele>574</ele>
        <time>2022-06-26T12:16:47Z</time>
      </trkpt>
      <trkpt lat="45.76383" lon="4.48085">
        <ele>574</ele>
        <time>2022-06-26T12:16:48Z</time>
      </trkpt>
      <trkpt lat="45.76377" lon="4.48088">
        <ele>574</ele>
        <time>2022-06-26T12:16:49Z</time>
      </trkpt>
      <trkpt lat="45.76371" lon="4.48091">
        <ele>574</ele>
        <time>2022-06-26T12:16:50Z</time>
      </trkpt>
      <trkpt lat="45.76364" lon="4.48094">
        <ele>574</ele>
        <time>2022-06-26T12:16:51Z</time>
      </trkpt>
      <trkpt lat="45.76357" lon="4.48097">
        <ele>574.2</ele>
        <time>2022-06-26T12:16:52Z</time>
      </trkpt>
      <trkpt lat="45.76351" lon="4.481">
        <ele>574.2</ele>
        <time>2022-06-26T12:16:53Z</time>
      </trkpt>
      <trkpt lat="45.76345" lon="4.48103">
        <ele>574.2</ele>
        <time>2022-06-26T12:16:54Z</time>
      </trkpt>
      <trkpt lat="45.76339" lon="4.48105">
        <ele>574.2</ele>
        <time>2022-06-26T12:16:55Z</time>
      </trkpt>
      <trkpt lat="45.76334" lon="4.48108">
        <ele>574.2</ele>
        <time>2022-06-26T12:16:56Z</time>
      </trkpt>
      <trkpt lat="45.76328" lon="4.48111">
        <ele>574.2</ele>
        <time>2022-06-26T12:16:57Z</time>
      </trkpt>
      <trkpt lat="45.76322" lon="4.48114">
        <ele>574.2</ele>
        <time>2022-06-26T12:16:58Z</time>
      </trkpt>
      <trkpt lat="45.76316" lon="4.48116">
        <ele>574.2</ele>
        <time>2022-06-26T12:16:59Z</time>
      </trkpt>
      <trkpt lat="45.7631" lon="4.48119">
        <ele>574.2</ele>
        <time>2022-06-26T12:17:00Z</time>
      </trkpt>
      <trkpt lat="45.76304" lon="4.48122">
        <ele>574.2</ele>
        <time>2022-06-26T12:17:01Z</time>
      </trkpt>
      <trkpt lat="45.76298" lon="4.48125">
        <ele>574.2</ele>
        <time>2022-06-26T12:17:02Z</time>
      </trkpt>
      <trkpt lat="45.76292" lon="4.48127">
        <ele>574.2</ele>
        <time>2022-06-26T12:17:03Z</time>
      </trkpt>
      <trkpt lat="45.76285" lon="4.48128">
        <ele>574.2</ele>
        <time>2022-06-26T12:17:04Z</time>
      </trkpt>
      <trkpt lat="45.76279" lon="4.48128">
        <ele>574.2</ele>
        <time>2022-06-26T12:17:05Z</time>
      </trkpt>
      <trkpt lat="45.76273" lon="4.48128">
        <ele>574.2</ele>
        <time>2022-06-26T12:17:06Z</time>
      </trkpt>
      <trkpt lat="45.76267" lon="4.48127">
        <ele>574.2</ele>
        <time>2022-06-26T12:17:07Z</time>
      </trkpt>
      <trkpt lat="45.76261" lon="4.48126">
        <ele>574.2</ele>
        <time>2022-06-26T12:17:08Z</time>
      </trkpt>
      <trkpt lat="45.76255" lon="4.48125">
        <ele>574.6</ele>
        <time>2022-06-26T12:17:09Z</time>
      </trkpt>
      <trkpt lat="45.76249" lon="4.48125">
        <ele>574.6</ele>
        <time>2022-06-26T12:17:10Z</time>
      </trkpt>
      <trkpt lat="45.76243" lon="4.48125">
        <ele>574.6</ele>
        <time>2022-06-26T12:17:11Z</time>
      </trkpt>
      <trkpt lat="45.76237" lon="4.48125">
        <ele>574.6</ele>
        <time>2022-06-26T12:17:12Z</time>
      </trkpt>
      <trkpt lat="45.76231" lon="4.48124">
        <ele>574.8</ele>
        <time>2022-06-26T12:17:13Z</time>
      </trkpt>
      <trkpt lat="45.76225" lon="4.48124">
        <ele>574.8</ele>
        <time>2022-06-26T12:17:14Z</time>
      </trkpt>
      <trkpt lat="45.76219" lon="4.48123">
        <ele>575</ele>
        <time>2022-06-26T12:17:15Z</time>
      </trkpt>
      <trkpt lat="45.76213" lon="4.48122">
        <ele>575</ele>
        <time>2022-06-26T12:17:16Z</time>
      </trkpt>
      <trkpt lat="45.76208" lon="4.4812">
        <ele>575</ele>
        <time>2022-06-26T12:17:17Z</time>
      </trkpt>
      <trkpt lat="45.76202" lon="4.48119">
        <ele>575</ele>
        <time>2022-06-26T12:17:18Z</time>
      </trkpt>
      <trkpt lat="45.76196" lon="4.48118">
        <ele>575.2</ele>
        <time>2022-06-26T12:17:19Z</time>
      </trkpt>
      <trkpt lat="45.76191" lon="4.48117">
        <ele>575.2</ele>
        <time>2022-06-26T12:17:20Z</time>
      </trkpt>
      <trkpt lat="45.76185" lon="4.48115">
        <ele>575.4</ele>
        <time>2022-06-26T12:17:21Z</time>
      </trkpt>
      <trkpt lat="45.7618" lon="4.48114">
        <ele>575.4</ele>
        <time>2022-06-26T12:17:22Z</time>
      </trkpt>
      <trkpt lat="45.76174" lon="4.48113">
        <ele>575.4</ele>
        <time>2022-06-26T12:17:23Z</time>
      </trkpt>
      <trkpt lat="45.76169" lon="4.48111">
        <ele>575.4</ele>
        <time>2022-06-26T12:17:24Z</time>
      </trkpt>
      <trkpt lat="45.76163" lon="4.4811">
        <ele>575.8</ele>
        <time>2022-06-26T12:17:25Z</time>
      </trkpt>
      <trkpt lat="45.76158" lon="4.48109">
        <ele>575.8</ele>
        <time>2022-06-26T12:17:26Z</time>
      </trkpt>
      <trkpt lat="45.76152" lon="4.48109">
        <ele>576</ele>
        <time>2022-06-26T12:17:27Z</time>
      </trkpt>
      <trkpt lat="45.76147" lon="4.48109">
        <ele>576</ele>
        <time>2022-06-26T12:17:28Z</time>
      </trkpt>
      <trkpt lat="45.76142" lon="4.48109">
        <ele>576</ele>
        <time>2022-06-26T12:17:29Z</time>
      </trkpt>
      <trkpt lat="45.76136" lon="4.48111">
        <ele>576.4</ele>
        <time>2022-06-26T12:17:30Z</time>
      </trkpt>
      <trkpt lat="45.76131" lon="4.48113">
        <ele>576.4</ele>
        <time>2022-06-26T12:17:31Z</time>
      </trkpt>
      <trkpt lat="45.76126" lon="4.48115">
        <ele>576.4</ele>
        <time>2022-06-26T12:17:32Z</time>
      </trkpt>
      <trkpt lat="45.7612" lon="4.48117">
        <ele>576.4</ele>
        <time>2022-06-26T12:17:33Z</time>
      </trkpt>
      <trkpt lat="45.76115" lon="4.4812">
        <ele>576.6</ele>
        <time>2022-06-26T12:17:34Z</time>
      </trkpt>
      <trkpt lat="45.76109" lon="4.48123">
        <ele>576.6</ele>
        <time>2022-06-26T12:17:35Z</time>
      </trkpt>
      <trkpt lat="45.76104" lon="4.48126">
        <ele>576.6</ele>
        <time>2022-06-26T12:17:36Z</time>
      </trkpt>
      <trkpt lat="45.76099" lon="4.4813">
        <ele>576.6</ele>
        <time>2022-06-26T12:17:37Z</time>
      </trkpt>
      <trkpt lat="45.76094" lon="4.48133">
        <ele>576.8</ele>
        <time>2022-06-26T12:17:38Z</time>
      </trkpt>
      <trkpt lat="45.76089" lon="4.48137">
        <ele>576.8</ele>
        <time>2022-06-26T12:17:39Z</time>
      </trkpt>
      <trkpt lat="45.76084" lon="4.48141">
        <ele>576.8</ele>
        <time>2022-06-26T12:17:40Z</time>
      </trkpt>
      <trkpt lat="45.76078" lon="4.48145">
        <ele>576.8</ele>
        <time>2022-06-26T12:17:41Z</time>
      </trkpt>
      <trkpt lat="45.76073" lon="4.48149">
        <ele>576.8</ele>
        <time>2022-06-26T12:17:42Z</time>
      </trkpt>
      <trkpt lat="45.76068" lon="4.48153">
        <ele>576.8</ele>
        <time>2022-06-26T12:17:43Z</time>
      </trkpt>
      <trkpt lat="45.76063" lon="4.48157">
        <ele>576.8</ele>
        <time>2022-06-26T12:17:44Z</time>
      </trkpt>
      <trkpt lat="45.76058" lon="4.48161">
        <ele>576.8</ele>
        <time>2022-06-26T12:17:45Z</time>
      </trkpt>
      <trkpt lat="45.76053" lon="4.48165">
        <ele>576.8</ele>
        <time>2022-06-26T12:17:46Z</time>
      </trkpt>
      <trkpt lat="45.76048" lon="4.48168">
        <ele>576.8</ele>
        <time>2022-06-26T12:17:47Z</time>
      </trkpt>
      <trkpt lat="45.76043" lon="4.48172">
        <ele>577</ele>
        <time>2022-06-26T12:17:48Z</time>
      </trkpt>
      <trkpt lat="45.76038" lon="4.48176">
        <ele>577</ele>
        <time>2022-06-26T12:17:49Z</time>
      </trkpt>
      <trkpt lat="45.76033" lon="4.4818">
        <ele>577</ele>
        <time>2022-06-26T12:17:50Z</time>
      </trkpt>
      <trkpt lat="45.76028" lon="4.48184">
        <ele>577</ele>
        <time>2022-06-26T12:17:51Z</time>
      </trkpt>
      <trkpt lat="45.76023" lon="4.48188">
        <ele>577</ele>
        <time>2022-06-26T12:17:52Z</time>
      </trkpt>
      <trkpt lat="45.76018" lon="4.48192">
        <ele>577</ele>
        <time>2022-06-26T12:17:53Z</time>
      </trkpt>
      <trkpt lat="45.76013" lon="4.48197">
        <ele>577</ele>
        <time>2022-06-26T12:17:54Z</time>
      </trkpt>
      <trkpt lat="45.76008" lon="4.48202">
        <ele>577</ele>
        <time>2022-06-26T12:17:55Z</time>
      </trkpt>
      <trkpt lat="45.76003" lon="4.48208">
        <ele>577</ele>
        <time>2022-06-26T12:17:56Z</time>
      </trkpt>
      <trkpt lat="45.75999" lon="4.48214">
        <ele>577</ele>
        <time>2022-06-26T12:17:57Z</time>
      </trkpt>
      <trkpt lat="45.75995" lon="4.48221">
        <ele>577</ele>
        <time>2022-06-26T12:17:58Z</time>
      </trkpt>
      <trkpt lat="45.75991" lon="4.48229">
        <ele>576.8</ele>
        <time>2022-06-26T12:17:59Z</time>
      </trkpt>
      <trkpt lat="45.75987" lon="4.48236">
        <ele>576.8</ele>
        <time>2022-06-26T12:18:00Z</time>
      </trkpt>
      <trkpt lat="45.75984" lon="4.48245">
        <ele>576.4</ele>
        <time>2022-06-26T12:18:01Z</time>
      </trkpt>
      <trkpt lat="45.75981" lon="4.48254">
        <ele>576.4</ele>
        <time>2022-06-26T12:18:02Z</time>
      </trkpt>
      <trkpt lat="45.75978" lon="4.48262">
        <ele>576.2</ele>
        <time>2022-06-26T12:18:03Z</time>
      </trkpt>
      <trkpt lat="45.75976" lon="4.48271">
        <ele>576.2</ele>
        <time>2022-06-26T12:18:04Z</time>
      </trkpt>
      <trkpt lat="45.75973" lon="4.4828">
        <ele>576</ele>
        <time>2022-06-26T12:18:05Z</time>
      </trkpt>
      <trkpt lat="45.75972" lon="4.4829">
        <ele>576</ele>
        <time>2022-06-26T12:18:06Z</time>
      </trkpt>
      <trkpt lat="45.75971" lon="4.48299">
        <ele>576</ele>
        <time>2022-06-26T12:18:07Z</time>
      </trkpt>
      <trkpt lat="45.7597" lon="4.4831">
        <ele>575.6</ele>
        <time>2022-06-26T12:18:08Z</time>
      </trkpt>
      <trkpt lat="45.75971" lon="4.4832">
        <ele>575.6</ele>
        <time>2022-06-26T12:18:09Z</time>
      </trkpt>
      <trkpt lat="45.75971" lon="4.4833">
        <ele>575.6</ele>
        <time>2022-06-26T12:18:10Z</time>
      </trkpt>
      <trkpt lat="45.75972" lon="4.48341">
        <ele>575.4</ele>
        <time>2022-06-26T12:18:11Z</time>
      </trkpt>
      <trkpt lat="45.75972" lon="4.48351">
        <ele>575.4</ele>
        <time>2022-06-26T12:18:12Z</time>
      </trkpt>
      <trkpt lat="45.75972" lon="4.48361">
        <ele>575.2</ele>
        <time>2022-06-26T12:18:13Z</time>
      </trkpt>
      <trkpt lat="45.75972" lon="4.48372">
        <ele>575.2</ele>
        <time>2022-06-26T12:18:14Z</time>
      </trkpt>
      <trkpt lat="45.7597" lon="4.48382">
        <ele>574.8</ele>
        <time>2022-06-26T12:18:15Z</time>
      </trkpt>
      <trkpt lat="45.75968" lon="4.48392">
        <ele>574.8</ele>
        <time>2022-06-26T12:18:16Z</time>
      </trkpt>
      <trkpt lat="45.75966" lon="4.48402">
        <ele>574.6</ele>
        <time>2022-06-26T12:18:17Z</time>
      </trkpt>
      <trkpt lat="45.75964" lon="4.48412">
        <ele>574.6</ele>
        <time>2022-06-26T12:18:18Z</time>
      </trkpt>
      <trkpt lat="45.75961" lon="4.48421">
        <ele>574.2</ele>
        <time>2022-06-26T12:18:19Z</time>
      </trkpt>
      <trkpt lat="45.75958" lon="4.48431">
        <ele>574</ele>
        <time>2022-06-26T12:18:20Z</time>
      </trkpt>
      <trkpt lat="45.75956" lon="4.48441">
        <ele>574</ele>
        <time>2022-06-26T12:18:21Z</time>
      </trkpt>
      <trkpt lat="45.75953" lon="4.48451">
        <ele>573.8</ele>
        <time>2022-06-26T12:18:22Z</time>
      </trkpt>
      <trkpt lat="45.75951" lon="4.48461">
        <ele>573.6</ele>
        <time>2022-06-26T12:18:23Z</time>
      </trkpt>
      <trkpt lat="45.7595" lon="4.48471">
        <ele>573.6</ele>
        <time>2022-06-26T12:18:24Z</time>
      </trkpt>
      <trkpt lat="45.75949" lon="4.48482">
        <ele>573.2</ele>
        <time>2022-06-26T12:18:25Z</time>
      </trkpt>
      <trkpt lat="45.75947" lon="4.48492">
        <ele>572.8</ele>
        <time>2022-06-26T12:18:26Z</time>
      </trkpt>
      <trkpt lat="45.75946" lon="4.48503">
        <ele>572.6</ele>
        <time>2022-06-26T12:18:27Z</time>
      </trkpt>
      <trkpt lat="45.75945" lon="4.48514">
        <ele>572.4</ele>
        <time>2022-06-26T12:18:28Z</time>
      </trkpt>
      <trkpt lat="45.75943" lon="4.48525">
        <ele>572</ele>
        <time>2022-06-26T12:18:29Z</time>
      </trkpt>
      <trkpt lat="45.75942" lon="4.48536">
        <ele>571.8</ele>
        <time>2022-06-26T12:18:30Z</time>
      </trkpt>
      <trkpt lat="45.7594" lon="4.48547">
        <ele>571.4</ele>
        <time>2022-06-26T12:18:31Z</time>
      </trkpt>
      <trkpt lat="45.75939" lon="4.48559">
        <ele>571.2</ele>
        <time>2022-06-26T12:18:32Z</time>
      </trkpt>
      <trkpt lat="45.75938" lon="4.4857">
        <ele>570.8</ele>
        <time>2022-06-26T12:18:33Z</time>
      </trkpt>
      <trkpt lat="45.75937" lon="4.48581">
        <ele>570.8</ele>
        <time>2022-06-26T12:18:34Z</time>
      </trkpt>
      <trkpt lat="45.75936" lon="4.48592">
        <ele>570.4</ele>
        <time>2022-06-26T12:18:35Z</time>
      </trkpt>
      <trkpt lat="45.75936" lon="4.48604">
        <ele>570.2</ele>
        <time>2022-06-26T12:18:36Z</time>
      </trkpt>
      <trkpt lat="45.75936" lon="4.48615">
        <ele>569.8</ele>
        <time>2022-06-26T12:18:37Z</time>
      </trkpt>
      <trkpt lat="45.75937" lon="4.48626">
        <ele>569.6</ele>
        <time>2022-06-26T12:18:38Z</time>
      </trkpt>
      <trkpt lat="45.7594" lon="4.48637">
        <ele>569</ele>
        <time>2022-06-26T12:18:39Z</time>
      </trkpt>
      <trkpt lat="45.75943" lon="4.48648">
        <ele>568.6</ele>
        <time>2022-06-26T12:18:40Z</time>
      </trkpt>
      <trkpt lat="45.75946" lon="4.48659">
        <ele>568.4</ele>
        <time>2022-06-26T12:18:41Z</time>
      </trkpt>
      <trkpt lat="45.75949" lon="4.4867">
        <ele>568</ele>
        <time>2022-06-26T12:18:42Z</time>
      </trkpt>
      <trkpt lat="45.75952" lon="4.48681">
        <ele>567.6</ele>
        <time>2022-06-26T12:18:43Z</time>
      </trkpt>
      <trkpt lat="45.75956" lon="4.48693">
        <ele>567.4</ele>
        <time>2022-06-26T12:18:44Z</time>
      </trkpt>
      <trkpt lat="45.75958" lon="4.48705">
        <ele>566.8</ele>
        <time>2022-06-26T12:18:45Z</time>
      </trkpt>
      <trkpt lat="45.7596" lon="4.48717">
        <ele>566.6</ele>
        <time>2022-06-26T12:18:46Z</time>
      </trkpt>
      <trkpt lat="45.75961" lon="4.4873">
        <ele>566.2</ele>
        <time>2022-06-26T12:18:47Z</time>
      </trkpt>
      <trkpt lat="45.7596" lon="4.48742">
        <ele>565.8</ele>
        <time>2022-06-26T12:18:48Z</time>
      </trkpt>
      <trkpt lat="45.75959" lon="4.48755">
        <ele>565.6</ele>
        <time>2022-06-26T12:18:49Z</time>
      </trkpt>
      <trkpt lat="45.75957" lon="4.48767">
        <ele>565.2</ele>
        <time>2022-06-26T12:18:50Z</time>
      </trkpt>
      <trkpt lat="45.75954" lon="4.48779">
        <ele>564.8</ele>
        <time>2022-06-26T12:18:51Z</time>
      </trkpt>
      <trkpt lat="45.7595" lon="4.4879">
        <ele>564.4</ele>
        <time>2022-06-26T12:18:52Z</time>
      </trkpt>
      <trkpt lat="45.75945" lon="4.48801">
        <ele>564.2</ele>
        <time>2022-06-26T12:18:53Z</time>
      </trkpt>
      <trkpt lat="45.75941" lon="4.48812">
        <ele>564</ele>
        <time>2022-06-26T12:18:54Z</time>
      </trkpt>
      <trkpt lat="45.75937" lon="4.48824">
        <ele>563.6</ele>
        <time>2022-06-26T12:18:55Z</time>
      </trkpt>
      <trkpt lat="45.75934" lon="4.48835">
        <ele>563.4</ele>
        <time>2022-06-26T12:18:56Z</time>
      </trkpt>
      <trkpt lat="45.75931" lon="4.48847">
        <ele>563</ele>
        <time>2022-06-26T12:18:57Z</time>
      </trkpt>
      <trkpt lat="45.75929" lon="4.48859">
        <ele>562.8</ele>
        <time>2022-06-26T12:18:58Z</time>
      </trkpt>
      <trkpt lat="45.75927" lon="4.48872">
        <ele>562.4</ele>
        <time>2022-06-26T12:18:59Z</time>
      </trkpt>
      <trkpt lat="45.75925" lon="4.48884">
        <ele>562.4</ele>
        <time>2022-06-26T12:19:00Z</time>
      </trkpt>
      <trkpt lat="45.75923" lon="4.48896">
        <ele>562.2</ele>
        <time>2022-06-26T12:19:01Z</time>
      </trkpt>
      <trkpt lat="45.75921" lon="4.48909">
        <ele>562.2</ele>
        <time>2022-06-26T12:19:02Z</time>
      </trkpt>
      <trkpt lat="45.7592" lon="4.48921">
        <ele>562.2</ele>
        <time>2022-06-26T12:19:03Z</time>
      </trkpt>
      <trkpt lat="45.7592" lon="4.48934">
        <ele>562</ele>
        <time>2022-06-26T12:19:04Z</time>
      </trkpt>
      <trkpt lat="45.75919" lon="4.48946">
        <ele>561.6</ele>
        <time>2022-06-26T12:19:05Z</time>
      </trkpt>
      <trkpt lat="45.75919" lon="4.48959">
        <ele>561.2</ele>
        <time>2022-06-26T12:19:06Z</time>
      </trkpt>
      <trkpt lat="45.75919" lon="4.48972">
        <ele>560.6</ele>
        <time>2022-06-26T12:19:07Z</time>
      </trkpt>
      <trkpt lat="45.75919" lon="4.48985">
        <ele>560.6</ele>
        <time>2022-06-26T12:19:08Z</time>
      </trkpt>
      <trkpt lat="45.75919" lon="4.48999">
        <ele>560.2</ele>
        <time>2022-06-26T12:19:09Z</time>
      </trkpt>
      <trkpt lat="45.75917" lon="4.49012">
        <ele>560.2</ele>
        <time>2022-06-26T12:19:10Z</time>
      </trkpt>
      <trkpt lat="45.75916" lon="4.49024">
        <ele>559.8</ele>
        <time>2022-06-26T12:19:11Z</time>
      </trkpt>
      <trkpt lat="45.75914" lon="4.49037">
        <ele>559.8</ele>
        <time>2022-06-26T12:19:12Z</time>
      </trkpt>
      <trkpt lat="45.75912" lon="4.49049">
        <ele>559.2</ele>
        <time>2022-06-26T12:19:13Z</time>
      </trkpt>
      <trkpt lat="45.75909" lon="4.49063">
        <ele>558.8</ele>
        <time>2022-06-26T12:19:14Z</time>
      </trkpt>
      <trkpt lat="45.75906" lon="4.49075">
        <ele>558.8</ele>
        <time>2022-06-26T12:19:15Z</time>
      </trkpt>
      <trkpt lat="45.75904" lon="4.49088">
        <ele>558.4</ele>
        <time>2022-06-26T12:19:16Z</time>
      </trkpt>
      <trkpt lat="45.75901" lon="4.49101">
        <ele>558</ele>
        <time>2022-06-26T12:19:17Z</time>
      </trkpt>
      <trkpt lat="45.75899" lon="4.49114">
        <ele>557.6</ele>
        <time>2022-06-26T12:19:18Z</time>
      </trkpt>
      <trkpt lat="45.75895" lon="4.49126">
        <ele>557.2</ele>
        <time>2022-06-26T12:19:19Z</time>
      </trkpt>
      <trkpt lat="45.7589" lon="4.49138">
        <ele>556.6</ele>
        <time>2022-06-26T12:19:20Z</time>
      </trkpt>
      <trkpt lat="45.75884" lon="4.4915">
        <ele>556</ele>
        <time>2022-06-26T12:19:21Z</time>
      </trkpt>
      <trkpt lat="45.75878" lon="4.4916">
        <ele>555.4</ele>
        <time>2022-06-26T12:19:22Z</time>
      </trkpt>
      <trkpt lat="45.75871" lon="4.4917">
        <ele>555</ele>
        <time>2022-06-26T12:19:23Z</time>
      </trkpt>
      <trkpt lat="45.75865" lon="4.4918">
        <ele>554.6</ele>
        <time>2022-06-26T12:19:24Z</time>
      </trkpt>
      <trkpt lat="45.75859" lon="4.49189">
        <ele>554.2</ele>
        <time>2022-06-26T12:19:25Z</time>
      </trkpt>
      <trkpt lat="45.75852" lon="4.49199">
        <ele>554</ele>
        <time>2022-06-26T12:19:26Z</time>
      </trkpt>
      <trkpt lat="45.75845" lon="4.49207">
        <ele>553.4</ele>
        <time>2022-06-26T12:19:27Z</time>
      </trkpt>
      <trkpt lat="45.75838" lon="4.49217">
        <ele>552.8</ele>
        <time>2022-06-26T12:19:28Z</time>
      </trkpt>
      <trkpt lat="45.75832" lon="4.49227">
        <ele>552.4</ele>
        <time>2022-06-26T12:19:29Z</time>
      </trkpt>
      <trkpt lat="45.75826" lon="4.49238">
        <ele>552</ele>
        <time>2022-06-26T12:19:30Z</time>
      </trkpt>
      <trkpt lat="45.7582" lon="4.49247">
        <ele>551.6</ele>
        <time>2022-06-26T12:19:31Z</time>
      </trkpt>
      <trkpt lat="45.75814" lon="4.49257">
        <ele>551</ele>
        <time>2022-06-26T12:19:32Z</time>
      </trkpt>
      <trkpt lat="45.75807" lon="4.49267">
        <ele>551</ele>
        <time>2022-06-26T12:19:33Z</time>
      </trkpt>
      <trkpt lat="45.75801" lon="4.49277">
        <ele>550.8</ele>
        <time>2022-06-26T12:19:34Z</time>
      </trkpt>
      <trkpt lat="45.75796" lon="4.49285">
        <ele>550.6</ele>
        <time>2022-06-26T12:19:35Z</time>
      </trkpt>
      <trkpt lat="45.7579" lon="4.49294">
        <ele>550.2</ele>
        <time>2022-06-26T12:19:36Z</time>
      </trkpt>
      <trkpt lat="45.75785" lon="4.49303">
        <ele>549.8</ele>
        <time>2022-06-26T12:19:37Z</time>
      </trkpt>
      <trkpt lat="45.7578" lon="4.49311">
        <ele>549.4</ele>
        <time>2022-06-26T12:19:38Z</time>
      </trkpt>
      <trkpt lat="45.75775" lon="4.4932">
        <ele>549.2</ele>
        <time>2022-06-26T12:19:39Z</time>
      </trkpt>
      <trkpt lat="45.75771" lon="4.49328">
        <ele>549.2</ele>
        <time>2022-06-26T12:19:40Z</time>
      </trkpt>
      <trkpt lat="45.75766" lon="4.49335">
        <ele>549</ele>
        <time>2022-06-26T12:19:41Z</time>
      </trkpt>
      <trkpt lat="45.75762" lon="4.49342">
        <ele>549</ele>
        <time>2022-06-26T12:19:42Z</time>
      </trkpt>
      <trkpt lat="45.75759" lon="4.49349">
        <ele>548.6</ele>
        <time>2022-06-26T12:19:43Z</time>
      </trkpt>
      <trkpt lat="45.75755" lon="4.49355">
        <ele>548.4</ele>
        <time>2022-06-26T12:19:44Z</time>
      </trkpt>
      <trkpt lat="45.75752" lon="4.4936">
        <ele>548.2</ele>
        <time>2022-06-26T12:19:45Z</time>
      </trkpt>
      <trkpt lat="45.7575" lon="4.49365">
        <ele>548</ele>
        <time>2022-06-26T12:19:46Z</time>
      </trkpt>
      <trkpt lat="45.75747" lon="4.49369">
        <ele>547.8</ele>
        <time>2022-06-26T12:19:47Z</time>
      </trkpt>
      <trkpt lat="45.75745" lon="4.49372">
        <ele>547.4</ele>
        <time>2022-06-26T12:19:48Z</time>
      </trkpt>
      <trkpt lat="45.75744" lon="4.49374">
        <ele>547.2</ele>
        <time>2022-06-26T12:19:49Z</time>
      </trkpt>
      <trkpt lat="45.75742" lon="4.49376">
        <ele>547</ele>
        <time>2022-06-26T12:19:50Z</time>
      </trkpt>
      <trkpt lat="45.7574" lon="4.49378">
        <ele>547</ele>
        <time>2022-06-26T12:19:51Z</time>
      </trkpt>
      <trkpt lat="45.75738" lon="4.49379">
        <ele>546.6</ele>
        <time>2022-06-26T12:19:52Z</time>
      </trkpt>
      <trkpt lat="45.75736" lon="4.4938">
        <ele>546.4</ele>
        <time>2022-06-26T12:19:53Z</time>
      </trkpt>
      <trkpt lat="45.75734" lon="4.49381">
        <ele>546.4</ele>
        <time>2022-06-26T12:19:54Z</time>
      </trkpt>
      <trkpt lat="45.75732" lon="4.49382">
        <ele>546.4</ele>
        <time>2022-06-26T12:19:55Z</time>
      </trkpt>
      <trkpt lat="45.75729" lon="4.49383">
        <ele>546.2</ele>
        <time>2022-06-26T12:19:56Z</time>
      </trkpt>
      <trkpt lat="45.75728" lon="4.49386">
        <ele>546.2</ele>
        <time>2022-06-26T12:19:57Z</time>
      </trkpt>
      <trkpt lat="45.75726" lon="4.49388">
        <ele>546.2</ele>
        <time>2022-06-26T12:19:58Z</time>
      </trkpt>
      <trkpt lat="45.75723" lon="4.49391">
        <ele>546</ele>
        <time>2022-06-26T12:19:59Z</time>
      </trkpt>
      <trkpt lat="45.7572" lon="4.49394">
        <ele>546</ele>
        <time>2022-06-26T12:20:00Z</time>
      </trkpt>
      <trkpt lat="45.75716" lon="4.49398">
        <ele>546</ele>
        <time>2022-06-26T12:20:01Z</time>
      </trkpt>
      <trkpt lat="45.75712" lon="4.49402">
        <ele>545.6</ele>
        <time>2022-06-26T12:20:02Z</time>
      </trkpt>
      <trkpt lat="45.75708" lon="4.49405">
        <ele>545.4</ele>
        <time>2022-06-26T12:20:03Z</time>
      </trkpt>
      <trkpt lat="45.75704" lon="4.4941">
        <ele>545.2</ele>
        <time>2022-06-26T12:20:04Z</time>
      </trkpt>
      <trkpt lat="45.75699" lon="4.49416">
        <ele>545</ele>
        <time>2022-06-26T12:20:05Z</time>
      </trkpt>
      <trkpt lat="45.75694" lon="4.49422">
        <ele>544.8</ele>
        <time>2022-06-26T12:20:06Z</time>
      </trkpt>
      <trkpt lat="45.75689" lon="4.49428">
        <ele>544.4</ele>
        <time>2022-06-26T12:20:07Z</time>
      </trkpt>
      <trkpt lat="45.75684" lon="4.49434">
        <ele>544.2</ele>
        <time>2022-06-26T12:20:08Z</time>
      </trkpt>
      <trkpt lat="45.7568" lon="4.4944">
        <ele>543.6</ele>
        <time>2022-06-26T12:20:09Z</time>
      </trkpt>
      <trkpt lat="45.75675" lon="4.49448">
        <ele>543.2</ele>
        <time>2022-06-26T12:20:10Z</time>
      </trkpt>
      <trkpt lat="45.75671" lon="4.49456">
        <ele>542.6</ele>
        <time>2022-06-26T12:20:11Z</time>
      </trkpt>
      <trkpt lat="45.75667" lon="4.49464">
        <ele>542.2</ele>
        <time>2022-06-26T12:20:12Z</time>
      </trkpt>
      <trkpt lat="45.75664" lon="4.49473">
        <ele>541.4</ele>
        <time>2022-06-26T12:20:13Z</time>
      </trkpt>
      <trkpt lat="45.75661" lon="4.49482">
        <ele>540.8</ele>
        <time>2022-06-26T12:20:14Z</time>
      </trkpt>
      <trkpt lat="45.75659" lon="4.49491">
        <ele>539.8</ele>
        <time>2022-06-26T12:20:15Z</time>
      </trkpt>
      <trkpt lat="45.75657" lon="4.49501">
        <ele>539</ele>
        <time>2022-06-26T12:20:16Z</time>
      </trkpt>
      <trkpt lat="45.75655" lon="4.49511">
        <ele>538</ele>
        <time>2022-06-26T12:20:17Z</time>
      </trkpt>
      <trkpt lat="45.75654" lon="4.49522">
        <ele>537</ele>
        <time>2022-06-26T12:20:18Z</time>
      </trkpt>
      <trkpt lat="45.75654" lon="4.49532">
        <ele>536</ele>
        <time>2022-06-26T12:20:19Z</time>
      </trkpt>
      <trkpt lat="45.75654" lon="4.49543">
        <ele>535.2</ele>
        <time>2022-06-26T12:20:20Z</time>
      </trkpt>
      <trkpt lat="45.75654" lon="4.49554">
        <ele>534</ele>
        <time>2022-06-26T12:20:21Z</time>
      </trkpt>
      <trkpt lat="45.75655" lon="4.49564">
        <ele>533</ele>
        <time>2022-06-26T12:20:22Z</time>
      </trkpt>
      <trkpt lat="45.75656" lon="4.49575">
        <ele>531.8</ele>
        <time>2022-06-26T12:20:23Z</time>
      </trkpt>
      <trkpt lat="45.75657" lon="4.49585">
        <ele>530.8</ele>
        <time>2022-06-26T12:20:24Z</time>
      </trkpt>
      <trkpt lat="45.75659" lon="4.49595">
        <ele>530</ele>
        <time>2022-06-26T12:20:25Z</time>
      </trkpt>
      <trkpt lat="45.75661" lon="4.49605">
        <ele>529</ele>
        <time>2022-06-26T12:20:26Z</time>
      </trkpt>
      <trkpt lat="45.75664" lon="4.49615">
        <ele>528.2</ele>
        <time>2022-06-26T12:20:27Z</time>
      </trkpt>
      <trkpt lat="45.75667" lon="4.49626">
        <ele>527.4</ele>
        <time>2022-06-26T12:20:28Z</time>
      </trkpt>
      <trkpt lat="45.75672" lon="4.49636">
        <ele>526.4</ele>
        <time>2022-06-26T12:20:29Z</time>
      </trkpt>
      <trkpt lat="45.75677" lon="4.49645">
        <ele>525.4</ele>
        <time>2022-06-26T12:20:30Z</time>
      </trkpt>
      <trkpt lat="45.75683" lon="4.49654">
        <ele>524.4</ele>
        <time>2022-06-26T12:20:31Z</time>
      </trkpt>
      <trkpt lat="45.75689" lon="4.49662">
        <ele>523.4</ele>
        <time>2022-06-26T12:20:32Z</time>
      </trkpt>
      <trkpt lat="45.75695" lon="4.49671">
        <ele>522.4</ele>
        <time>2022-06-26T12:20:33Z</time>
      </trkpt>
      <trkpt lat="45.75701" lon="4.4968">
        <ele>521.2</ele>
        <time>2022-06-26T12:20:34Z</time>
      </trkpt>
      <trkpt lat="45.75707" lon="4.49689">
        <ele>520.4</ele>
        <time>2022-06-26T12:20:35Z</time>
      </trkpt>
      <trkpt lat="45.75714" lon="4.49698">
        <ele>519.2</ele>
        <time>2022-06-26T12:20:36Z</time>
      </trkpt>
      <trkpt lat="45.75722" lon="4.49707">
        <ele>518.2</ele>
        <time>2022-06-26T12:20:37Z</time>
      </trkpt>
      <trkpt lat="45.75729" lon="4.49714">
        <ele>517.4</ele>
        <time>2022-06-26T12:20:38Z</time>
      </trkpt>
      <trkpt lat="45.75735" lon="4.49721">
        <ele>516.4</ele>
        <time>2022-06-26T12:20:39Z</time>
      </trkpt>
      <trkpt lat="45.75742" lon="4.49727">
        <ele>515.8</ele>
        <time>2022-06-26T12:20:40Z</time>
      </trkpt>
      <trkpt lat="45.75748" lon="4.49732">
        <ele>515.2</ele>
        <time>2022-06-26T12:20:41Z</time>
      </trkpt>
      <trkpt lat="45.75753" lon="4.49736">
        <ele>514.4</ele>
        <time>2022-06-26T12:20:42Z</time>
      </trkpt>
      <trkpt lat="45.75758" lon="4.49739">
        <ele>513.8</ele>
        <time>2022-06-26T12:20:43Z</time>
      </trkpt>
      <trkpt lat="45.75762" lon="4.4974">
        <ele>513</ele>
        <time>2022-06-26T12:20:44Z</time>
      </trkpt>
      <trkpt lat="45.75765" lon="4.49742">
        <ele>512.2</ele>
        <time>2022-06-26T12:20:45Z</time>
      </trkpt>
      <trkpt lat="45.75767" lon="4.49744">
        <ele>511.6</ele>
        <time>2022-06-26T12:20:46Z</time>
      </trkpt>
      <trkpt lat="45.75769" lon="4.49747">
        <ele>511.2</ele>
        <time>2022-06-26T12:20:47Z</time>
      </trkpt>
      <trkpt lat="45.7577" lon="4.49748">
        <ele>510.8</ele>
        <time>2022-06-26T12:20:48Z</time>
      </trkpt>
      <trkpt lat="45.75771" lon="4.49749">
        <ele>510.4</ele>
        <time>2022-06-26T12:20:49Z</time>
      </trkpt>
      <trkpt lat="45.75771" lon="4.4975">
        <ele>510.2</ele>
        <time>2022-06-26T12:20:50Z</time>
      </trkpt>
      <trkpt lat="45.75766" lon="4.49754">
        <ele>509.4</ele>
        <time>2022-06-26T12:20:56Z</time>
      </trkpt>
      <trkpt lat="45.75763" lon="4.49755">
        <ele>509.4</ele>
        <time>2022-06-26T12:20:57Z</time>
      </trkpt>
      <trkpt lat="45.75759" lon="4.49755">
        <ele>509</ele>
        <time>2022-06-26T12:20:58Z</time>
      </trkpt>
      <trkpt lat="45.75755" lon="4.49755">
        <ele>509</ele>
        <time>2022-06-26T12:20:59Z</time>
      </trkpt>
      <trkpt lat="45.75749" lon="4.49754">
        <ele>508.6</ele>
        <time>2022-06-26T12:21:00Z</time>
      </trkpt>
      <trkpt lat="45.75743" lon="4.49754">
        <ele>508.2</ele>
        <time>2022-06-26T12:21:01Z</time>
      </trkpt>
      <trkpt lat="45.75737" lon="4.49753">
        <ele>507.8</ele>
        <time>2022-06-26T12:21:02Z</time>
      </trkpt>
      <trkpt lat="45.75731" lon="4.49753">
        <ele>507.4</ele>
        <time>2022-06-26T12:21:03Z</time>
      </trkpt>
      <trkpt lat="45.75725" lon="4.49752">
        <ele>506.8</ele>
        <time>2022-06-26T12:21:04Z</time>
      </trkpt>
      <trkpt lat="45.7572" lon="4.49752">
        <ele>506.2</ele>
        <time>2022-06-26T12:21:05Z</time>
      </trkpt>
      <trkpt lat="45.75716" lon="4.49752">
        <ele>505.6</ele>
        <time>2022-06-26T12:21:06Z</time>
      </trkpt>
      <trkpt lat="45.75712" lon="4.49752">
        <ele>505.2</ele>
        <time>2022-06-26T12:21:07Z</time>
      </trkpt>
      <trkpt lat="45.75709" lon="4.49751">
        <ele>504.8</ele>
        <time>2022-06-26T12:21:08Z</time>
      </trkpt>
      <trkpt lat="45.75707" lon="4.49751">
        <ele>504.4</ele>
        <time>2022-06-26T12:21:09Z</time>
      </trkpt>
      <trkpt lat="45.75705" lon="4.49751">
        <ele>504</ele>
        <time>2022-06-26T12:21:10Z</time>
      </trkpt>
      <trkpt lat="45.75712" lon="4.49752">
        <ele>503.8</ele>
        <time>2022-06-26T12:21:58Z</time>
      </trkpt>
      <trkpt lat="45.75714" lon="4.49752">
        <ele>504</ele>
        <time>2022-06-26T12:21:59Z</time>
      </trkpt>
      <trkpt lat="45.75716" lon="4.49752">
        <ele>504</ele>
        <time>2022-06-26T12:22:00Z</time>
      </trkpt>
      <trkpt lat="45.75718" lon="4.49752">
        <ele>504.2</ele>
        <time>2022-06-26T12:22:01Z</time>
      </trkpt>
      <trkpt lat="45.7572" lon="4.49752">
        <ele>504.2</ele>
        <time>2022-06-26T12:22:02Z</time>
      </trkpt>
      <trkpt lat="45.75721" lon="4.49752">
        <ele>504.6</ele>
        <time>2022-06-26T12:22:03Z</time>
      </trkpt>
      <trkpt lat="45.75723" lon="4.49752">
        <ele>504.8</ele>
        <time>2022-06-26T12:22:04Z</time>
      </trkpt>
      <trkpt lat="45.75725" lon="4.49752">
        <ele>505</ele>
        <time>2022-06-26T12:22:05Z</time>
      </trkpt>
      <trkpt lat="45.75728" lon="4.49753">
        <ele>505</ele>
        <time>2022-06-26T12:22:06Z</time>
      </trkpt>
      <trkpt lat="45.7573" lon="4.49753">
        <ele>505.4</ele>
        <time>2022-06-26T12:22:07Z</time>
      </trkpt>
      <trkpt lat="45.75732" lon="4.49753">
        <ele>505.6</ele>
        <time>2022-06-26T12:22:08Z</time>
      </trkpt>
      <trkpt lat="45.75734" lon="4.49754">
        <ele>506</ele>
        <time>2022-06-26T12:22:09Z</time>
      </trkpt>
      <trkpt lat="45.75736" lon="4.49753">
        <ele>506</ele>
        <time>2022-06-26T12:22:10Z</time>
      </trkpt>
      <trkpt lat="45.75738" lon="4.49753">
        <ele>506.4</ele>
        <time>2022-06-26T12:22:11Z</time>
      </trkpt>
      <trkpt lat="45.7574" lon="4.49754">
        <ele>506.6</ele>
        <time>2022-06-26T12:22:12Z</time>
      </trkpt>
      <trkpt lat="45.75742" lon="4.49754">
        <ele>506.8</ele>
        <time>2022-06-26T12:22:13Z</time>
      </trkpt>
      <trkpt lat="45.75744" lon="4.49754">
        <ele>506.8</ele>
        <time>2022-06-26T12:22:14Z</time>
      </trkpt>
      <trkpt lat="45.75746" lon="4.49754">
        <ele>507.2</ele>
        <time>2022-06-26T12:22:15Z</time>
      </trkpt>
      <trkpt lat="45.75748" lon="4.49754">
        <ele>507.2</ele>
        <time>2022-06-26T12:22:16Z</time>
      </trkpt>
      <trkpt lat="45.75751" lon="4.49754">
        <ele>507.6</ele>
        <time>2022-06-26T12:22:17Z</time>
      </trkpt>
      <trkpt lat="45.75753" lon="4.49753">
        <ele>507.8</ele>
        <time>2022-06-26T12:22:18Z</time>
      </trkpt>
      <trkpt lat="45.75755" lon="4.49753">
        <ele>507.8</ele>
        <time>2022-06-26T12:22:19Z</time>
      </trkpt>
      <trkpt lat="45.75757" lon="4.49753">
        <ele>508.2</ele>
        <time>2022-06-26T12:22:20Z</time>
      </trkpt>
      <trkpt lat="45.75759" lon="4.49753">
        <ele>508.6</ele>
        <time>2022-06-26T12:22:21Z</time>
      </trkpt>
      <trkpt lat="45.75761" lon="4.49753">
        <ele>508.8</ele>
        <time>2022-06-26T12:22:22Z</time>
      </trkpt>
      <trkpt lat="45.75764" lon="4.49752">
        <ele>509</ele>
        <time>2022-06-26T12:22:23Z</time>
      </trkpt>
      <trkpt lat="45.75766" lon="4.49752">
        <ele>509.2</ele>
        <time>2022-06-26T12:22:24Z</time>
      </trkpt>
      <trkpt lat="45.75768" lon="4.49751">
        <ele>509.2</ele>
        <time>2022-06-26T12:22:25Z</time>
      </trkpt>
      <trkpt lat="45.7577" lon="4.49751">
        <ele>509.6</ele>
        <time>2022-06-26T12:22:26Z</time>
      </trkpt>
      <trkpt lat="45.75772" lon="4.49751">
        <ele>509.8</ele>
        <time>2022-06-26T12:22:27Z</time>
      </trkpt>
      <trkpt lat="45.75775" lon="4.49752">
        <ele>509.8</ele>
        <time>2022-06-26T12:22:28Z</time>
      </trkpt>
      <trkpt lat="45.75778" lon="4.49753">
        <ele>509.8</ele>
        <time>2022-06-26T12:22:29Z</time>
      </trkpt>
      <trkpt lat="45.75781" lon="4.49754">
        <ele>509.8</ele>
        <time>2022-06-26T12:22:30Z</time>
      </trkpt>
      <trkpt lat="45.75784" lon="4.49756">
        <ele>509.8</ele>
        <time>2022-06-26T12:22:31Z</time>
      </trkpt>
      <trkpt lat="45.75787" lon="4.49759">
        <ele>509.8</ele>
        <time>2022-06-26T12:22:32Z</time>
      </trkpt>
      <trkpt lat="45.75789" lon="4.49763">
        <ele>509.8</ele>
        <time>2022-06-26T12:22:33Z</time>
      </trkpt>
      <trkpt lat="45.75791" lon="4.49767">
        <ele>510</ele>
        <time>2022-06-26T12:22:34Z</time>
      </trkpt>
      <trkpt lat="45.75793" lon="4.49771">
        <ele>510</ele>
        <time>2022-06-26T12:22:35Z</time>
      </trkpt>
      <trkpt lat="45.75794" lon="4.49775">
        <ele>510</ele>
        <time>2022-06-26T12:22:36Z</time>
      </trkpt>
      <trkpt lat="45.75794" lon="4.4978">
        <ele>510</ele>
        <time>2022-06-26T12:22:37Z</time>
      </trkpt>
      <trkpt lat="45.75792" lon="4.49785">
        <ele>510</ele>
        <time>2022-06-26T12:22:38Z</time>
      </trkpt>
      <trkpt lat="45.7579" lon="4.49789">
        <ele>510</ele>
        <time>2022-06-26T12:22:39Z</time>
      </trkpt>
      <trkpt lat="45.75786" lon="4.49794">
        <ele>509.8</ele>
        <time>2022-06-26T12:22:40Z</time>
      </trkpt>
      <trkpt lat="45.75782" lon="4.498">
        <ele>509.6</ele>
        <time>2022-06-26T12:22:41Z</time>
      </trkpt>
      <trkpt lat="45.75777" lon="4.49805">
        <ele>509.2</ele>
        <time>2022-06-26T12:22:42Z</time>
      </trkpt>
      <trkpt lat="45.75772" lon="4.49811">
        <ele>509</ele>
        <time>2022-06-26T12:22:43Z</time>
      </trkpt>
      <trkpt lat="45.75766" lon="4.49817">
        <ele>508.6</ele>
        <time>2022-06-26T12:22:44Z</time>
      </trkpt>
      <trkpt lat="45.7576" lon="4.49823">
        <ele>508.4</ele>
        <time>2022-06-26T12:22:45Z</time>
      </trkpt>
      <trkpt lat="45.75754" lon="4.4983">
        <ele>508</ele>
        <time>2022-06-26T12:22:46Z</time>
      </trkpt>
      <trkpt lat="45.75748" lon="4.49836">
        <ele>507.6</ele>
        <time>2022-06-26T12:22:47Z</time>
      </trkpt>
      <trkpt lat="45.75742" lon="4.49843">
        <ele>507.4</ele>
        <time>2022-06-26T12:22:48Z</time>
      </trkpt>
      <trkpt lat="45.75736" lon="4.4985">
        <ele>507</ele>
        <time>2022-06-26T12:22:49Z</time>
      </trkpt>
      <trkpt lat="45.7573" lon="4.49859">
        <ele>507</ele>
        <time>2022-06-26T12:22:50Z</time>
      </trkpt>
      <trkpt lat="45.75725" lon="4.49868">
        <ele>506.6</ele>
        <time>2022-06-26T12:22:51Z</time>
      </trkpt>
      <trkpt lat="45.7572" lon="4.49877">
        <ele>506.4</ele>
        <time>2022-06-26T12:22:52Z</time>
      </trkpt>
      <trkpt lat="45.75715" lon="4.49886">
        <ele>506.4</ele>
        <time>2022-06-26T12:22:53Z</time>
      </trkpt>
      <trkpt lat="45.7571" lon="4.49895">
        <ele>505.8</ele>
        <time>2022-06-26T12:22:54Z</time>
      </trkpt>
      <trkpt lat="45.75705" lon="4.49904">
        <ele>505.6</ele>
        <time>2022-06-26T12:22:55Z</time>
      </trkpt>
      <trkpt lat="45.75699" lon="4.49913">
        <ele>505.4</ele>
        <time>2022-06-26T12:22:56Z</time>
      </trkpt>
      <trkpt lat="45.75693" lon="4.49921">
        <ele>505.4</ele>
        <time>2022-06-26T12:22:57Z</time>
      </trkpt>
      <trkpt lat="45.75686" lon="4.49928">
        <ele>504.6</ele>
        <time>2022-06-26T12:22:58Z</time>
      </trkpt>
      <trkpt lat="45.75679" lon="4.49936">
        <ele>504.2</ele>
        <time>2022-06-26T12:22:59Z</time>
      </trkpt>
      <trkpt lat="45.75672" lon="4.49943">
        <ele>503.8</ele>
        <time>2022-06-26T12:23:00Z</time>
      </trkpt>
      <trkpt lat="45.75666" lon="4.4995">
        <ele>503.4</ele>
        <time>2022-06-26T12:23:01Z</time>
      </trkpt>
      <trkpt lat="45.75659" lon="4.49956">
        <ele>502.8</ele>
        <time>2022-06-26T12:23:02Z</time>
      </trkpt>
      <trkpt lat="45.75652" lon="4.49962">
        <ele>502.4</ele>
        <time>2022-06-26T12:23:03Z</time>
      </trkpt>
      <trkpt lat="45.75645" lon="4.49967">
        <ele>501.8</ele>
        <time>2022-06-26T12:23:04Z</time>
      </trkpt>
      <trkpt lat="45.75638" lon="4.49971">
        <ele>501.6</ele>
        <time>2022-06-26T12:23:05Z</time>
      </trkpt>
      <trkpt lat="45.75631" lon="4.49974">
        <ele>501</ele>
        <time>2022-06-26T12:23:06Z</time>
      </trkpt>
      <trkpt lat="45.75623" lon="4.49977">
        <ele>500.6</ele>
        <time>2022-06-26T12:23:07Z</time>
      </trkpt>
      <trkpt lat="45.75616" lon="4.49979">
        <ele>500</ele>
        <time>2022-06-26T12:23:08Z</time>
      </trkpt>
      <trkpt lat="45.75608" lon="4.49981">
        <ele>499.6</ele>
        <time>2022-06-26T12:23:09Z</time>
      </trkpt>
      <trkpt lat="45.75601" lon="4.49984">
        <ele>499</ele>
        <time>2022-06-26T12:23:10Z</time>
      </trkpt>
      <trkpt lat="45.75593" lon="4.49988">
        <ele>498.2</ele>
        <time>2022-06-26T12:23:11Z</time>
      </trkpt>
      <trkpt lat="45.75585" lon="4.49993">
        <ele>497.6</ele>
        <time>2022-06-26T12:23:12Z</time>
      </trkpt>
      <trkpt lat="45.75578" lon="4.49999">
        <ele>497.2</ele>
        <time>2022-06-26T12:23:13Z</time>
      </trkpt>
      <trkpt lat="45.75571" lon="4.50005">
        <ele>496.6</ele>
        <time>2022-06-26T12:23:14Z</time>
      </trkpt>
      <trkpt lat="45.75563" lon="4.50011">
        <ele>496.2</ele>
        <time>2022-06-26T12:23:15Z</time>
      </trkpt>
      <trkpt lat="45.75556" lon="4.50017">
        <ele>495.2</ele>
        <time>2022-06-26T12:23:16Z</time>
      </trkpt>
      <trkpt lat="45.75549" lon="4.50022">
        <ele>494.4</ele>
        <time>2022-06-26T12:23:17Z</time>
      </trkpt>
      <trkpt lat="45.75543" lon="4.50026">
        <ele>493.8</ele>
        <time>2022-06-26T12:23:18Z</time>
      </trkpt>
      <trkpt lat="45.75536" lon="4.50031">
        <ele>493</ele>
        <time>2022-06-26T12:23:19Z</time>
      </trkpt>
      <trkpt lat="45.7553" lon="4.50036">
        <ele>492.2</ele>
        <time>2022-06-26T12:23:20Z</time>
      </trkpt>
      <trkpt lat="45.75524" lon="4.50042">
        <ele>491.6</ele>
        <time>2022-06-26T12:23:21Z</time>
      </trkpt>
      <trkpt lat="45.75518" lon="4.50048">
        <ele>490.8</ele>
        <time>2022-06-26T12:23:22Z</time>
      </trkpt>
      <trkpt lat="45.75513" lon="4.50055">
        <ele>490.2</ele>
        <time>2022-06-26T12:23:23Z</time>
      </trkpt>
      <trkpt lat="45.75508" lon="4.50064">
        <ele>489.6</ele>
        <time>2022-06-26T12:23:24Z</time>
      </trkpt>
      <trkpt lat="45.75504" lon="4.50072">
        <ele>488.8</ele>
        <time>2022-06-26T12:23:25Z</time>
      </trkpt>
      <trkpt lat="45.75499" lon="4.50082">
        <ele>488.2</ele>
        <time>2022-06-26T12:23:26Z</time>
      </trkpt>
      <trkpt lat="45.75495" lon="4.50092">
        <ele>487.4</ele>
        <time>2022-06-26T12:23:27Z</time>
      </trkpt>
      <trkpt lat="45.75491" lon="4.50101">
        <ele>486.6</ele>
        <time>2022-06-26T12:23:28Z</time>
      </trkpt>
      <trkpt lat="45.75488" lon="4.5011">
        <ele>485.6</ele>
        <time>2022-06-26T12:23:29Z</time>
      </trkpt>
      <trkpt lat="45.75485" lon="4.5012">
        <ele>484.8</ele>
        <time>2022-06-26T12:23:30Z</time>
      </trkpt>
      <trkpt lat="45.75483" lon="4.50129">
        <ele>484</ele>
        <time>2022-06-26T12:23:31Z</time>
      </trkpt>
      <trkpt lat="45.75481" lon="4.50139">
        <ele>483</ele>
        <time>2022-06-26T12:23:32Z</time>
      </trkpt>
      <trkpt lat="45.7548" lon="4.50149">
        <ele>482.2</ele>
        <time>2022-06-26T12:23:33Z</time>
      </trkpt>
      <trkpt lat="45.75478" lon="4.50158">
        <ele>481.6</ele>
        <time>2022-06-26T12:23:34Z</time>
      </trkpt>
      <trkpt lat="45.75476" lon="4.50168">
        <ele>480.6</ele>
        <time>2022-06-26T12:23:35Z</time>
      </trkpt>
      <trkpt lat="45.75473" lon="4.50178">
        <ele>479.8</ele>
        <time>2022-06-26T12:23:36Z</time>
      </trkpt>
      <trkpt lat="45.75471" lon="4.50189">
        <ele>477.6</ele>
        <time>2022-06-26T12:23:38Z</time>
      </trkpt>
      <trkpt lat="45.75469" lon="4.50201">
        <ele>476.6</ele>
        <time>2022-06-26T12:23:39Z</time>
      </trkpt>
      <trkpt lat="45.75467" lon="4.50213">
        <ele>475.4</ele>
        <time>2022-06-26T12:23:40Z</time>
      </trkpt>
      <trkpt lat="45.75464" lon="4.50224">
        <ele>474.2</ele>
        <time>2022-06-26T12:23:41Z</time>
      </trkpt>
      <trkpt lat="45.75462" lon="4.50234">
        <ele>473</ele>
        <time>2022-06-26T12:23:42Z</time>
      </trkpt>
      <trkpt lat="45.7546" lon="4.50243">
        <ele>471.8</ele>
        <time>2022-06-26T12:23:43Z</time>
      </trkpt>
      <trkpt lat="45.75458" lon="4.50252">
        <ele>470.6</ele>
        <time>2022-06-26T12:23:44Z</time>
      </trkpt>
      <trkpt lat="45.75457" lon="4.50261">
        <ele>469.4</ele>
        <time>2022-06-26T12:23:45Z</time>
      </trkpt>
      <trkpt lat="45.75455" lon="4.50268">
        <ele>468.6</ele>
        <time>2022-06-26T12:23:46Z</time>
      </trkpt>
      <trkpt lat="45.75454" lon="4.50276">
        <ele>467.6</ele>
        <time>2022-06-26T12:23:47Z</time>
      </trkpt>
      <trkpt lat="45.75454" lon="4.50285">
        <ele>466.6</ele>
        <time>2022-06-26T12:23:48Z</time>
      </trkpt>
      <trkpt lat="45.75455" lon="4.50294">
        <ele>465.8</ele>
        <time>2022-06-26T12:23:49Z</time>
      </trkpt>
      <trkpt lat="45.75457" lon="4.50303">
        <ele>465.2</ele>
        <time>2022-06-26T12:23:50Z</time>
      </trkpt>
      <trkpt lat="45.7546" lon="4.50312">
        <ele>464.6</ele>
        <time>2022-06-26T12:23:51Z</time>
      </trkpt>
      <trkpt lat="45.75462" lon="4.50321">
        <ele>463.8</ele>
        <time>2022-06-26T12:23:52Z</time>
      </trkpt>
      <trkpt lat="45.75465" lon="4.5033">
        <ele>463.4</ele>
        <time>2022-06-26T12:23:53Z</time>
      </trkpt>
      <trkpt lat="45.75468" lon="4.5034">
        <ele>462.8</ele>
        <time>2022-06-26T12:23:54Z</time>
      </trkpt>
      <trkpt lat="45.7547" lon="4.50349">
        <ele>462.2</ele>
        <time>2022-06-26T12:23:55Z</time>
      </trkpt>
      <trkpt lat="45.75472" lon="4.5036">
        <ele>461.6</ele>
        <time>2022-06-26T12:23:56Z</time>
      </trkpt>
      <trkpt lat="45.75474" lon="4.5037">
        <ele>461.4</ele>
        <time>2022-06-26T12:23:57Z</time>
      </trkpt>
      <trkpt lat="45.75477" lon="4.5038">
        <ele>461</ele>
        <time>2022-06-26T12:23:58Z</time>
      </trkpt>
      <trkpt lat="45.75479" lon="4.5039">
        <ele>460.2</ele>
        <time>2022-06-26T12:23:59Z</time>
      </trkpt>
      <trkpt lat="45.75482" lon="4.504">
        <ele>459.6</ele>
        <time>2022-06-26T12:24:00Z</time>
      </trkpt>
      <trkpt lat="45.75484" lon="4.5041">
        <ele>459</ele>
        <time>2022-06-26T12:24:01Z</time>
      </trkpt>
      <trkpt lat="45.75486" lon="4.50422">
        <ele>458.4</ele>
        <time>2022-06-26T12:24:02Z</time>
      </trkpt>
      <trkpt lat="45.75487" lon="4.50433">
        <ele>457.8</ele>
        <time>2022-06-26T12:24:03Z</time>
      </trkpt>
      <trkpt lat="45.75488" lon="4.50445">
        <ele>457.4</ele>
        <time>2022-06-26T12:24:04Z</time>
      </trkpt>
      <trkpt lat="45.75489" lon="4.50455">
        <ele>456.8</ele>
        <time>2022-06-26T12:24:05Z</time>
      </trkpt>
      <trkpt lat="45.7549" lon="4.50466">
        <ele>456.2</ele>
        <time>2022-06-26T12:24:06Z</time>
      </trkpt>
      <trkpt lat="45.75491" lon="4.50477">
        <ele>455.8</ele>
        <time>2022-06-26T12:24:07Z</time>
      </trkpt>
      <trkpt lat="45.75491" lon="4.50489">
        <ele>455.2</ele>
        <time>2022-06-26T12:24:08Z</time>
      </trkpt>
      <trkpt lat="45.7549" lon="4.50501">
        <ele>454.2</ele>
        <time>2022-06-26T12:24:09Z</time>
      </trkpt>
      <trkpt lat="45.75491" lon="4.50515">
        <ele>453.2</ele>
        <time>2022-06-26T12:24:10Z</time>
      </trkpt>
      <trkpt lat="45.75491" lon="4.5053">
        <ele>452.4</ele>
        <time>2022-06-26T12:24:11Z</time>
      </trkpt>
      <trkpt lat="45.75491" lon="4.50544">
        <ele>451.2</ele>
        <time>2022-06-26T12:24:12Z</time>
      </trkpt>
      <trkpt lat="45.7549" lon="4.50558">
        <ele>450</ele>
        <time>2022-06-26T12:24:13Z</time>
      </trkpt>
      <trkpt lat="45.75489" lon="4.50573">
        <ele>448.8</ele>
        <time>2022-06-26T12:24:14Z</time>
      </trkpt>
      <trkpt lat="45.75488" lon="4.50588">
        <ele>447.8</ele>
        <time>2022-06-26T12:24:15Z</time>
      </trkpt>
      <trkpt lat="45.75487" lon="4.50604">
        <ele>447</ele>
        <time>2022-06-26T12:24:16Z</time>
      </trkpt>
      <trkpt lat="45.75486" lon="4.5062">
        <ele>446.4</ele>
        <time>2022-06-26T12:24:17Z</time>
      </trkpt>
      <trkpt lat="45.75485" lon="4.50634">
        <ele>445.6</ele>
        <time>2022-06-26T12:24:18Z</time>
      </trkpt>
      <trkpt lat="45.75483" lon="4.50648">
        <ele>445</ele>
        <time>2022-06-26T12:24:19Z</time>
      </trkpt>
      <trkpt lat="45.75482" lon="4.50659">
        <ele>444.4</ele>
        <time>2022-06-26T12:24:20Z</time>
      </trkpt>
      <trkpt lat="45.75482" lon="4.50671">
        <ele>444</ele>
        <time>2022-06-26T12:24:21Z</time>
      </trkpt>
      <trkpt lat="45.75481" lon="4.50682">
        <ele>443.6</ele>
        <time>2022-06-26T12:24:22Z</time>
      </trkpt>
      <trkpt lat="45.7548" lon="4.50692">
        <ele>443.4</ele>
        <time>2022-06-26T12:24:23Z</time>
      </trkpt>
      <trkpt lat="45.7548" lon="4.50703">
        <ele>443.4</ele>
        <time>2022-06-26T12:24:24Z</time>
      </trkpt>
      <trkpt lat="45.7548" lon="4.50713">
        <ele>443.2</ele>
        <time>2022-06-26T12:24:25Z</time>
      </trkpt>
      <trkpt lat="45.75481" lon="4.50723">
        <ele>443.2</ele>
        <time>2022-06-26T12:24:26Z</time>
      </trkpt>
      <trkpt lat="45.75483" lon="4.50733">
        <ele>443.2</ele>
        <time>2022-06-26T12:24:27Z</time>
      </trkpt>
      <trkpt lat="45.75485" lon="4.50741">
        <ele>442.6</ele>
        <time>2022-06-26T12:24:28Z</time>
      </trkpt>
      <trkpt lat="45.75488" lon="4.50749">
        <ele>442.6</ele>
        <time>2022-06-26T12:24:29Z</time>
      </trkpt>
      <trkpt lat="45.75491" lon="4.50757">
        <ele>442.4</ele>
        <time>2022-06-26T12:24:30Z</time>
      </trkpt>
      <trkpt lat="45.75493" lon="4.50764">
        <ele>442.4</ele>
        <time>2022-06-26T12:24:31Z</time>
      </trkpt>
      <trkpt lat="45.75496" lon="4.5077">
        <ele>442.4</ele>
        <time>2022-06-26T12:24:32Z</time>
      </trkpt>
      <trkpt lat="45.75498" lon="4.50776">
        <ele>442.4</ele>
        <time>2022-06-26T12:24:33Z</time>
      </trkpt>
      <trkpt lat="45.75501" lon="4.50782">
        <ele>442.4</ele>
        <time>2022-06-26T12:24:34Z</time>
      </trkpt>
      <trkpt lat="45.75503" lon="4.50788">
        <ele>442.4</ele>
        <time>2022-06-26T12:24:35Z</time>
      </trkpt>
      <trkpt lat="45.75506" lon="4.50793">
        <ele>442.8</ele>
        <time>2022-06-26T12:24:36Z</time>
      </trkpt>
      <trkpt lat="45.75508" lon="4.50799">
        <ele>442.8</ele>
        <time>2022-06-26T12:24:37Z</time>
      </trkpt>
      <trkpt lat="45.7551" lon="4.50805">
        <ele>443</ele>
        <time>2022-06-26T12:24:38Z</time>
      </trkpt>
      <trkpt lat="45.75512" lon="4.50811">
        <ele>443</ele>
        <time>2022-06-26T12:24:39Z</time>
      </trkpt>
      <trkpt lat="45.75513" lon="4.50818">
        <ele>443</ele>
        <time>2022-06-26T12:24:40Z</time>
      </trkpt>
      <trkpt lat="45.75515" lon="4.50825">
        <ele>443</ele>
        <time>2022-06-26T12:24:41Z</time>
      </trkpt>
      <trkpt lat="45.75516" lon="4.50833">
        <ele>443</ele>
        <time>2022-06-26T12:24:42Z</time>
      </trkpt>
      <trkpt lat="45.75517" lon="4.50841">
        <ele>443</ele>
        <time>2022-06-26T12:24:43Z</time>
      </trkpt>
      <trkpt lat="45.75518" lon="4.50849">
        <ele>443</ele>
        <time>2022-06-26T12:24:44Z</time>
      </trkpt>
      <trkpt lat="45.75519" lon="4.50858">
        <ele>442.8</ele>
        <time>2022-06-26T12:24:45Z</time>
      </trkpt>
      <trkpt lat="45.7552" lon="4.50866">
        <ele>442.8</ele>
        <time>2022-06-26T12:24:46Z</time>
      </trkpt>
      <trkpt lat="45.75521" lon="4.50875">
        <ele>442.6</ele>
        <time>2022-06-26T12:24:47Z</time>
      </trkpt>
      <trkpt lat="45.75521" lon="4.50883">
        <ele>442.6</ele>
        <time>2022-06-26T12:24:48Z</time>
      </trkpt>
      <trkpt lat="45.75522" lon="4.50891">
        <ele>442.6</ele>
        <time>2022-06-26T12:24:49Z</time>
      </trkpt>
      <trkpt lat="45.75523" lon="4.50899">
        <ele>442.6</ele>
        <time>2022-06-26T12:24:50Z</time>
      </trkpt>
      <trkpt lat="45.75523" lon="4.50906">
        <ele>442.6</ele>
        <time>2022-06-26T12:24:51Z</time>
      </trkpt>
      <trkpt lat="45.75523" lon="4.50913">
        <ele>442.6</ele>
        <time>2022-06-26T12:24:52Z</time>
      </trkpt>
      <trkpt lat="45.75523" lon="4.50919">
        <ele>442.6</ele>
        <time>2022-06-26T12:24:53Z</time>
      </trkpt>
      <trkpt lat="45.75523" lon="4.50926">
        <ele>442.8</ele>
        <time>2022-06-26T12:24:54Z</time>
      </trkpt>
      <trkpt lat="45.75523" lon="4.50932">
        <ele>442.8</ele>
        <time>2022-06-26T12:24:55Z</time>
      </trkpt>
      <trkpt lat="45.75523" lon="4.50939">
        <ele>442.8</ele>
        <time>2022-06-26T12:24:56Z</time>
      </trkpt>
      <trkpt lat="45.75523" lon="4.50946">
        <ele>443</ele>
        <time>2022-06-26T12:24:57Z</time>
      </trkpt>
      <trkpt lat="45.75522" lon="4.50953">
        <ele>443</ele>
        <time>2022-06-26T12:24:58Z</time>
      </trkpt>
      <trkpt lat="45.75522" lon="4.5096">
        <ele>443.2</ele>
        <time>2022-06-26T12:24:59Z</time>
      </trkpt>
      <trkpt lat="45.75521" lon="4.50966">
        <ele>443.2</ele>
        <time>2022-06-26T12:25:00Z</time>
      </trkpt>
      <trkpt lat="45.75521" lon="4.50973">
        <ele>443.2</ele>
        <time>2022-06-26T12:25:01Z</time>
      </trkpt>
      <trkpt lat="45.7552" lon="4.5098">
        <ele>443.6</ele>
        <time>2022-06-26T12:25:02Z</time>
      </trkpt>
      <trkpt lat="45.75519" lon="4.50987">
        <ele>443.6</ele>
        <time>2022-06-26T12:25:03Z</time>
      </trkpt>
      <trkpt lat="45.75518" lon="4.50993">
        <ele>443.6</ele>
        <time>2022-06-26T12:25:04Z</time>
      </trkpt>
      <trkpt lat="45.75517" lon="4.51">
        <ele>443.6</ele>
        <time>2022-06-26T12:25:05Z</time>
      </trkpt>
      <trkpt lat="45.75517" lon="4.51006">
        <ele>443.6</ele>
        <time>2022-06-26T12:25:06Z</time>
      </trkpt>
      <trkpt lat="45.75515" lon="4.51013">
        <ele>443.6</ele>
        <time>2022-06-26T12:25:07Z</time>
      </trkpt>
      <trkpt lat="45.75514" lon="4.51021">
        <ele>443.6</ele>
        <time>2022-06-26T12:25:08Z</time>
      </trkpt>
      <trkpt lat="45.75513" lon="4.51029">
        <ele>443.6</ele>
        <time>2022-06-26T12:25:09Z</time>
      </trkpt>
      <trkpt lat="45.75512" lon="4.51037">
        <ele>443.2</ele>
        <time>2022-06-26T12:25:10Z</time>
      </trkpt>
      <trkpt lat="45.75512" lon="4.51045">
        <ele>443.2</ele>
        <time>2022-06-26T12:25:11Z</time>
      </trkpt>
      <trkpt lat="45.75511" lon="4.51053">
        <ele>443.2</ele>
        <time>2022-06-26T12:25:12Z</time>
      </trkpt>
      <trkpt lat="45.7551" lon="4.51061">
        <ele>443</ele>
        <time>2022-06-26T12:25:13Z</time>
      </trkpt>
      <trkpt lat="45.7551" lon="4.51069">
        <ele>443</ele>
        <time>2022-06-26T12:25:14Z</time>
      </trkpt>
      <trkpt lat="45.75508" lon="4.51077">
        <ele>443</ele>
        <time>2022-06-26T12:25:15Z</time>
      </trkpt>
      <trkpt lat="45.75507" lon="4.51084">
        <ele>443</ele>
        <time>2022-06-26T12:25:16Z</time>
      </trkpt>
      <trkpt lat="45.75506" lon="4.51092">
        <ele>443</ele>
        <time>2022-06-26T12:25:17Z</time>
      </trkpt>
      <trkpt lat="45.75504" lon="4.51099">
        <ele>443</ele>
        <time>2022-06-26T12:25:18Z</time>
      </trkpt>
      <trkpt lat="45.75502" lon="4.51106">
        <ele>443.2</ele>
        <time>2022-06-26T12:25:19Z</time>
      </trkpt>
      <trkpt lat="45.75501" lon="4.51113">
        <ele>443.2</ele>
        <time>2022-06-26T12:25:20Z</time>
      </trkpt>
      <trkpt lat="45.75499" lon="4.5112">
        <ele>443.2</ele>
        <time>2022-06-26T12:25:21Z</time>
      </trkpt>
      <trkpt lat="45.75497" lon="4.51127">
        <ele>443.2</ele>
        <time>2022-06-26T12:25:22Z</time>
      </trkpt>
      <trkpt lat="45.75494" lon="4.51134">
        <ele>442.8</ele>
        <time>2022-06-26T12:25:23Z</time>
      </trkpt>
      <trkpt lat="45.75492" lon="4.51142">
        <ele>442.6</ele>
        <time>2022-06-26T12:25:24Z</time>
      </trkpt>
      <trkpt lat="45.7549" lon="4.5115">
        <ele>442.4</ele>
        <time>2022-06-26T12:25:25Z</time>
      </trkpt>
      <trkpt lat="45.75487" lon="4.51159">
        <ele>442</ele>
        <time>2022-06-26T12:25:26Z</time>
      </trkpt>
      <trkpt lat="45.75484" lon="4.51169">
        <ele>441.6</ele>
        <time>2022-06-26T12:25:27Z</time>
      </trkpt>
      <trkpt lat="45.7548" lon="4.51179">
        <ele>441.2</ele>
        <time>2022-06-26T12:25:28Z</time>
      </trkpt>
      <trkpt lat="45.75476" lon="4.51188">
        <ele>440.8</ele>
        <time>2022-06-26T12:25:29Z</time>
      </trkpt>
      <trkpt lat="45.75472" lon="4.51197">
        <ele>440.6</ele>
        <time>2022-06-26T12:25:30Z</time>
      </trkpt>
      <trkpt lat="45.75468" lon="4.51205">
        <ele>440.6</ele>
        <time>2022-06-26T12:25:31Z</time>
      </trkpt>
      <trkpt lat="45.75465" lon="4.51213">
        <ele>440.2</ele>
        <time>2022-06-26T12:25:32Z</time>
      </trkpt>
      <trkpt lat="45.75462" lon="4.5122">
        <ele>440.2</ele>
        <time>2022-06-26T12:25:33Z</time>
      </trkpt>
      <trkpt lat="45.7546" lon="4.51227">
        <ele>439.8</ele>
        <time>2022-06-26T12:25:34Z</time>
      </trkpt>
      <trkpt lat="45.75459" lon="4.51234">
        <ele>439.8</ele>
        <time>2022-06-26T12:25:35Z</time>
      </trkpt>
      <trkpt lat="45.7546" lon="4.51241">
        <ele>439.8</ele>
        <time>2022-06-26T12:25:36Z</time>
      </trkpt>
      <trkpt lat="45.75461" lon="4.51248">
        <ele>439.6</ele>
        <time>2022-06-26T12:25:37Z</time>
      </trkpt>
      <trkpt lat="45.75462" lon="4.51255">
        <ele>439.6</ele>
        <time>2022-06-26T12:25:38Z</time>
      </trkpt>
      <trkpt lat="45.75465" lon="4.51262">
        <ele>439.4</ele>
        <time>2022-06-26T12:25:39Z</time>
      </trkpt>
      <trkpt lat="45.75467" lon="4.51269">
        <ele>439.4</ele>
        <time>2022-06-26T12:25:40Z</time>
      </trkpt>
      <trkpt lat="45.75471" lon="4.51277">
        <ele>439.2</ele>
        <time>2022-06-26T12:25:41Z</time>
      </trkpt>
      <trkpt lat="45.75474" lon="4.51284">
        <ele>439.2</ele>
        <time>2022-06-26T12:25:42Z</time>
      </trkpt>
      <trkpt lat="45.75477" lon="4.5129">
        <ele>439.2</ele>
        <time>2022-06-26T12:25:43Z</time>
      </trkpt>
      <trkpt lat="45.75481" lon="4.51295">
        <ele>439.2</ele>
        <time>2022-06-26T12:25:44Z</time>
      </trkpt>
      <trkpt lat="45.75484" lon="4.513">
        <ele>439.4</ele>
        <time>2022-06-26T12:25:45Z</time>
      </trkpt>
      <trkpt lat="45.75486" lon="4.51304">
        <ele>439.4</ele>
        <time>2022-06-26T12:25:46Z</time>
      </trkpt>
      <trkpt lat="45.75489" lon="4.51308">
        <ele>439.4</ele>
        <time>2022-06-26T12:25:47Z</time>
      </trkpt>
      <trkpt lat="45.75492" lon="4.51312">
        <ele>439.4</ele>
        <time>2022-06-26T12:25:48Z</time>
      </trkpt>
      <trkpt lat="45.75496" lon="4.51316">
        <ele>439.4</ele>
        <time>2022-06-26T12:25:49Z</time>
      </trkpt>
      <trkpt lat="45.75499" lon="4.5132">
        <ele>439.4</ele>
        <time>2022-06-26T12:25:50Z</time>
      </trkpt>
      <trkpt lat="45.75503" lon="4.51324">
        <ele>439.2</ele>
        <time>2022-06-26T12:25:51Z</time>
      </trkpt>
      <trkpt lat="45.75507" lon="4.51329">
        <ele>438.8</ele>
        <time>2022-06-26T12:25:52Z</time>
      </trkpt>
      <trkpt lat="45.75512" lon="4.51332">
        <ele>438.6</ele>
        <time>2022-06-26T12:25:53Z</time>
      </trkpt>
      <trkpt lat="45.75518" lon="4.51335">
        <ele>438.4</ele>
        <time>2022-06-26T12:25:54Z</time>
      </trkpt>
      <trkpt lat="45.75524" lon="4.51336">
        <ele>438</ele>
        <time>2022-06-26T12:25:55Z</time>
      </trkpt>
      <trkpt lat="45.7553" lon="4.51336">
        <ele>438</ele>
        <time>2022-06-26T12:25:56Z</time>
      </trkpt>
      <trkpt lat="45.75535" lon="4.51337">
        <ele>437.8</ele>
        <time>2022-06-26T12:25:57Z</time>
      </trkpt>
      <trkpt lat="45.7554" lon="4.5134">
        <ele>437.8</ele>
        <time>2022-06-26T12:25:58Z</time>
      </trkpt>
      <trkpt lat="45.75544" lon="4.51345">
        <ele>437.8</ele>
        <time>2022-06-26T12:25:59Z</time>
      </trkpt>
      <trkpt lat="45.75547" lon="4.51351">
        <ele>437.8</ele>
        <time>2022-06-26T12:26:00Z</time>
      </trkpt>
      <trkpt lat="45.75548" lon="4.51356">
        <ele>437.8</ele>
        <time>2022-06-26T12:26:01Z</time>
      </trkpt>
      <trkpt lat="45.7555" lon="4.51362">
        <ele>437.8</ele>
        <time>2022-06-26T12:26:02Z</time>
      </trkpt>
      <trkpt lat="45.75551" lon="4.51367">
        <ele>438</ele>
        <time>2022-06-26T12:26:03Z</time>
      </trkpt>
      <trkpt lat="45.75552" lon="4.51372">
        <ele>438.2</ele>
        <time>2022-06-26T12:26:04Z</time>
      </trkpt>
      <trkpt lat="45.75553" lon="4.51377">
        <ele>438.2</ele>
        <time>2022-06-26T12:26:05Z</time>
      </trkpt>
      <trkpt lat="45.75554" lon="4.51382">
        <ele>438.6</ele>
        <time>2022-06-26T12:26:06Z</time>
      </trkpt>
      <trkpt lat="45.75555" lon="4.51387">
        <ele>438.6</ele>
        <time>2022-06-26T12:26:07Z</time>
      </trkpt>
      <trkpt lat="45.75556" lon="4.51391">
        <ele>438.8</ele>
        <time>2022-06-26T12:26:08Z</time>
      </trkpt>
      <trkpt lat="45.75556" lon="4.51395">
        <ele>438.8</ele>
        <time>2022-06-26T12:26:09Z</time>
      </trkpt>
      <trkpt lat="45.75556" lon="4.51399">
        <ele>439</ele>
        <time>2022-06-26T12:26:10Z</time>
      </trkpt>
      <trkpt lat="45.75557" lon="4.51402">
        <ele>439</ele>
        <time>2022-06-26T12:26:11Z</time>
      </trkpt>
      <trkpt lat="45.75557" lon="4.51406">
        <ele>439.2</ele>
        <time>2022-06-26T12:26:12Z</time>
      </trkpt>
      <trkpt lat="45.75557" lon="4.51412">
        <ele>439.2</ele>
        <time>2022-06-26T12:26:13Z</time>
      </trkpt>
      <trkpt lat="45.75557" lon="4.51415">
        <ele>439.2</ele>
        <time>2022-06-26T12:26:14Z</time>
      </trkpt>
      <trkpt lat="45.75557" lon="4.51418">
        <ele>439.2</ele>
        <time>2022-06-26T12:26:15Z</time>
      </trkpt>
      <trkpt lat="45.75558" lon="4.5142">
        <ele>439.2</ele>
        <time>2022-06-26T12:27:09Z</time>
      </trkpt>
      <trkpt lat="45.75558" lon="4.51423">
        <ele>439.2</ele>
        <time>2022-06-26T12:27:10Z</time>
      </trkpt>
      <trkpt lat="45.75558" lon="4.51427">
        <ele>439.2</ele>
        <time>2022-06-26T12:27:11Z</time>
      </trkpt>
      <trkpt lat="45.75558" lon="4.5143">
        <ele>439.2</ele>
        <time>2022-06-26T12:27:12Z</time>
      </trkpt>
      <trkpt lat="45.75558" lon="4.51434">
        <ele>439.2</ele>
        <time>2022-06-26T12:27:13Z</time>
      </trkpt>
      <trkpt lat="45.75558" lon="4.51438">
        <ele>439.2</ele>
        <time>2022-06-26T12:27:14Z</time>
      </trkpt>
      <trkpt lat="45.75558" lon="4.51443">
        <ele>439.2</ele>
        <time>2022-06-26T12:27:15Z</time>
      </trkpt>
      <trkpt lat="45.75558" lon="4.51448">
        <ele>439.2</ele>
        <time>2022-06-26T12:27:16Z</time>
      </trkpt>
      <trkpt lat="45.75558" lon="4.51453">
        <ele>439.2</ele>
        <time>2022-06-26T12:27:17Z</time>
      </trkpt>
      <trkpt lat="45.75558" lon="4.51459">
        <ele>439</ele>
        <time>2022-06-26T12:27:18Z</time>
      </trkpt>
      <trkpt lat="45.75559" lon="4.51465">
        <ele>439</ele>
        <time>2022-06-26T12:27:19Z</time>
      </trkpt>
      <trkpt lat="45.7556" lon="4.51471">
        <ele>438.8</ele>
        <time>2022-06-26T12:27:20Z</time>
      </trkpt>
      <trkpt lat="45.75561" lon="4.51478">
        <ele>438.6</ele>
        <time>2022-06-26T12:27:21Z</time>
      </trkpt>
      <trkpt lat="45.75562" lon="4.51484">
        <ele>438.6</ele>
        <time>2022-06-26T12:27:22Z</time>
      </trkpt>
      <trkpt lat="45.75563" lon="4.51491">
        <ele>438</ele>
        <time>2022-06-26T12:27:23Z</time>
      </trkpt>
      <trkpt lat="45.75567" lon="4.51497">
        <ele>437.8</ele>
        <time>2022-06-26T12:27:24Z</time>
      </trkpt>
      <trkpt lat="45.75569" lon="4.51503">
        <ele>437.4</ele>
        <time>2022-06-26T12:27:25Z</time>
      </trkpt>
      <trkpt lat="45.75573" lon="4.5151">
        <ele>437</ele>
        <time>2022-06-26T12:27:26Z</time>
      </trkpt>
      <trkpt lat="45.75576" lon="4.51516">
        <ele>436.6</ele>
        <time>2022-06-26T12:27:27Z</time>
      </trkpt>
      <trkpt lat="45.7558" lon="4.51523">
        <ele>436</ele>
        <time>2022-06-26T12:27:28Z</time>
      </trkpt>
      <trkpt lat="45.75584" lon="4.51529">
        <ele>435.2</ele>
        <time>2022-06-26T12:27:29Z</time>
      </trkpt>
      <trkpt lat="45.75589" lon="4.51536">
        <ele>434.6</ele>
        <time>2022-06-26T12:27:30Z</time>
      </trkpt>
      <trkpt lat="45.75593" lon="4.51542">
        <ele>433.8</ele>
        <time>2022-06-26T12:27:31Z</time>
      </trkpt>
      <trkpt lat="45.75599" lon="4.51546">
        <ele>433.2</ele>
        <time>2022-06-26T12:27:32Z</time>
      </trkpt>
      <trkpt lat="45.75605" lon="4.5155">
        <ele>432.4</ele>
        <time>2022-06-26T12:27:33Z</time>
      </trkpt>
      <trkpt lat="45.75612" lon="4.51553">
        <ele>431.8</ele>
        <time>2022-06-26T12:27:34Z</time>
      </trkpt>
      <trkpt lat="45.7562" lon="4.51554">
        <ele>431.4</ele>
        <time>2022-06-26T12:27:35Z</time>
      </trkpt>
      <trkpt lat="45.75627" lon="4.51555">
        <ele>431</ele>
        <time>2022-06-26T12:27:36Z</time>
      </trkpt>
      <trkpt lat="45.75635" lon="4.51556">
        <ele>430.6</ele>
        <time>2022-06-26T12:27:37Z</time>
      </trkpt>
      <trkpt lat="45.75642" lon="4.51556">
        <ele>430.2</ele>
        <time>2022-06-26T12:27:38Z</time>
      </trkpt>
      <trkpt lat="45.7565" lon="4.51557">
        <ele>430.2</ele>
        <time>2022-06-26T12:27:39Z</time>
      </trkpt>
      <trkpt lat="45.75656" lon="4.51558">
        <ele>429.8</ele>
        <time>2022-06-26T12:27:40Z</time>
      </trkpt>
      <trkpt lat="45.75662" lon="4.51559">
        <ele>429.8</ele>
        <time>2022-06-26T12:27:41Z</time>
      </trkpt>
      <trkpt lat="45.75668" lon="4.5156">
        <ele>429.4</ele>
        <time>2022-06-26T12:27:42Z</time>
      </trkpt>
      <trkpt lat="45.75674" lon="4.51563">
        <ele>429</ele>
        <time>2022-06-26T12:27:43Z</time>
      </trkpt>
      <trkpt lat="45.7568" lon="4.51566">
        <ele>428.6</ele>
        <time>2022-06-26T12:27:44Z</time>
      </trkpt>
      <trkpt lat="45.75686" lon="4.5157">
        <ele>428.4</ele>
        <time>2022-06-26T12:27:45Z</time>
      </trkpt>
      <trkpt lat="45.75691" lon="4.51575">
        <ele>428</ele>
        <time>2022-06-26T12:27:46Z</time>
      </trkpt>
      <trkpt lat="45.75696" lon="4.5158">
        <ele>427.8</ele>
        <time>2022-06-26T12:27:47Z</time>
      </trkpt>
      <trkpt lat="45.757" lon="4.51585">
        <ele>427.6</ele>
        <time>2022-06-26T12:27:48Z</time>
      </trkpt>
      <trkpt lat="45.75704" lon="4.51591">
        <ele>427.6</ele>
        <time>2022-06-26T12:27:49Z</time>
      </trkpt>
      <trkpt lat="45.75709" lon="4.51597">
        <ele>427.2</ele>
        <time>2022-06-26T12:27:50Z</time>
      </trkpt>
      <trkpt lat="45.75714" lon="4.51603">
        <ele>427.2</ele>
        <time>2022-06-26T12:27:51Z</time>
      </trkpt>
      <trkpt lat="45.75719" lon="4.51609">
        <ele>427.2</ele>
        <time>2022-06-26T12:27:52Z</time>
      </trkpt>
      <trkpt lat="45.75723" lon="4.51614">
        <ele>427.2</ele>
        <time>2022-06-26T12:27:53Z</time>
      </trkpt>
      <trkpt lat="45.75726" lon="4.51618">
        <ele>427.2</ele>
        <time>2022-06-26T12:27:54Z</time>
      </trkpt>
      <trkpt lat="45.7573" lon="4.51623">
        <ele>427.2</ele>
        <time>2022-06-26T12:27:55Z</time>
      </trkpt>
      <trkpt lat="45.75733" lon="4.51628">
        <ele>427.2</ele>
        <time>2022-06-26T12:27:56Z</time>
      </trkpt>
      <trkpt lat="45.75737" lon="4.51632">
        <ele>427.6</ele>
        <time>2022-06-26T12:27:57Z</time>
      </trkpt>
      <trkpt lat="45.7574" lon="4.51635">
        <ele>427.6</ele>
        <time>2022-06-26T12:27:58Z</time>
      </trkpt>
      <trkpt lat="45.75744" lon="4.51639">
        <ele>427.6</ele>
        <time>2022-06-26T12:27:59Z</time>
      </trkpt>
      <trkpt lat="45.75747" lon="4.51642">
        <ele>427.8</ele>
        <time>2022-06-26T12:28:00Z</time>
      </trkpt>
      <trkpt lat="45.7575" lon="4.51646">
        <ele>427.8</ele>
        <time>2022-06-26T12:28:01Z</time>
      </trkpt>
      <trkpt lat="45.75753" lon="4.51648">
        <ele>427.8</ele>
        <time>2022-06-26T12:28:02Z</time>
      </trkpt>
      <trkpt lat="45.75756" lon="4.51651">
        <ele>427.8</ele>
        <time>2022-06-26T12:28:03Z</time>
      </trkpt>
      <trkpt lat="45.75758" lon="4.51653">
        <ele>427.8</ele>
        <time>2022-06-26T12:28:04Z</time>
      </trkpt>
      <trkpt lat="45.75761" lon="4.51655">
        <ele>427.6</ele>
        <time>2022-06-26T12:28:05Z</time>
      </trkpt>
      <trkpt lat="45.75764" lon="4.51657">
        <ele>427.6</ele>
        <time>2022-06-26T12:28:06Z</time>
      </trkpt>
      <trkpt lat="45.75767" lon="4.5166">
        <ele>427.4</ele>
        <time>2022-06-26T12:28:07Z</time>
      </trkpt>
      <trkpt lat="45.7577" lon="4.51663">
        <ele>427.4</ele>
        <time>2022-06-26T12:28:08Z</time>
      </trkpt>
      <trkpt lat="45.75773" lon="4.51666">
        <ele>427.2</ele>
        <time>2022-06-26T12:28:09Z</time>
      </trkpt>
      <trkpt lat="45.75777" lon="4.5167">
        <ele>426.8</ele>
        <time>2022-06-26T12:28:10Z</time>
      </trkpt>
      <trkpt lat="45.75782" lon="4.51674">
        <ele>426.8</ele>
        <time>2022-06-26T12:28:11Z</time>
      </trkpt>
      <trkpt lat="45.75787" lon="4.51679">
        <ele>426.8</ele>
        <time>2022-06-26T12:28:12Z</time>
      </trkpt>
      <trkpt lat="45.75792" lon="4.51685">
        <ele>426.6</ele>
        <time>2022-06-26T12:28:13Z</time>
      </trkpt>
      <trkpt lat="45.75797" lon="4.51691">
        <ele>426.6</ele>
        <time>2022-06-26T12:28:14Z</time>
      </trkpt>
      <trkpt lat="45.75802" lon="4.51697">
        <ele>426.4</ele>
        <time>2022-06-26T12:28:15Z</time>
      </trkpt>
      <trkpt lat="45.75808" lon="4.51702">
        <ele>426.4</ele>
        <time>2022-06-26T12:28:16Z</time>
      </trkpt>
      <trkpt lat="45.75813" lon="4.51708">
        <ele>425.8</ele>
        <time>2022-06-26T12:28:17Z</time>
      </trkpt>
      <trkpt lat="45.75817" lon="4.51714">
        <ele>425.8</ele>
        <time>2022-06-26T12:28:18Z</time>
      </trkpt>
      <trkpt lat="45.75823" lon="4.51722">
        <ele>425.4</ele>
        <time>2022-06-26T12:28:19Z</time>
      </trkpt>
      <trkpt lat="45.75829" lon="4.51729">
        <ele>425.4</ele>
        <time>2022-06-26T12:28:20Z</time>
      </trkpt>
      <trkpt lat="45.75834" lon="4.51735">
        <ele>425.2</ele>
        <time>2022-06-26T12:28:21Z</time>
      </trkpt>
      <trkpt lat="45.7584" lon="4.51742">
        <ele>425.2</ele>
        <time>2022-06-26T12:28:22Z</time>
      </trkpt>
      <trkpt lat="45.75845" lon="4.5175">
        <ele>424.8</ele>
        <time>2022-06-26T12:28:23Z</time>
      </trkpt>
      <trkpt lat="45.7585" lon="4.51757">
        <ele>424.8</ele>
        <time>2022-06-26T12:28:24Z</time>
      </trkpt>
      <trkpt lat="45.75854" lon="4.51763">
        <ele>424.6</ele>
        <time>2022-06-26T12:28:25Z</time>
      </trkpt>
      <trkpt lat="45.75859" lon="4.5177">
        <ele>424.6</ele>
        <time>2022-06-26T12:28:26Z</time>
      </trkpt>
      <trkpt lat="45.75863" lon="4.51777">
        <ele>424.4</ele>
        <time>2022-06-26T12:28:27Z</time>
      </trkpt>
      <trkpt lat="45.75868" lon="4.51784">
        <ele>424.4</ele>
        <time>2022-06-26T12:28:28Z</time>
      </trkpt>
      <trkpt lat="45.75872" lon="4.51791">
        <ele>424.4</ele>
        <time>2022-06-26T12:28:29Z</time>
      </trkpt>
      <trkpt lat="45.75876" lon="4.51798">
        <ele>424</ele>
        <time>2022-06-26T12:28:30Z</time>
      </trkpt>
      <trkpt lat="45.75879" lon="4.51805">
        <ele>423.6</ele>
        <time>2022-06-26T12:28:31Z</time>
      </trkpt>
      <trkpt lat="45.75882" lon="4.51812">
        <ele>423.6</ele>
        <time>2022-06-26T12:28:32Z</time>
      </trkpt>
      <trkpt lat="45.75884" lon="4.51818">
        <ele>423.4</ele>
        <time>2022-06-26T12:28:33Z</time>
      </trkpt>
      <trkpt lat="45.75887" lon="4.51825">
        <ele>423.4</ele>
        <time>2022-06-26T12:28:34Z</time>
      </trkpt>
      <trkpt lat="45.7589" lon="4.51832">
        <ele>423.4</ele>
        <time>2022-06-26T12:28:35Z</time>
      </trkpt>
      <trkpt lat="45.75893" lon="4.51839">
        <ele>423.4</ele>
        <time>2022-06-26T12:28:36Z</time>
      </trkpt>
      <trkpt lat="45.75896" lon="4.51846">
        <ele>423.2</ele>
        <time>2022-06-26T12:28:37Z</time>
      </trkpt>
      <trkpt lat="45.75899" lon="4.51853">
        <ele>423.2</ele>
        <time>2022-06-26T12:28:38Z</time>
      </trkpt>
      <trkpt lat="45.75902" lon="4.51859">
        <ele>422.6</ele>
        <time>2022-06-26T12:28:39Z</time>
      </trkpt>
      <trkpt lat="45.75905" lon="4.51865">
        <ele>422.2</ele>
        <time>2022-06-26T12:28:40Z</time>
      </trkpt>
      <trkpt lat="45.75908" lon="4.51872">
        <ele>421.8</ele>
        <time>2022-06-26T12:28:41Z</time>
      </trkpt>
      <trkpt lat="45.75911" lon="4.51879">
        <ele>421.4</ele>
        <time>2022-06-26T12:28:42Z</time>
      </trkpt>
      <trkpt lat="45.75914" lon="4.51886">
        <ele>420.8</ele>
        <time>2022-06-26T12:28:43Z</time>
      </trkpt>
      <trkpt lat="45.75916" lon="4.51893">
        <ele>420.2</ele>
        <time>2022-06-26T12:28:44Z</time>
      </trkpt>
      <trkpt lat="45.75917" lon="4.51901">
        <ele>419.4</ele>
        <time>2022-06-26T12:28:45Z</time>
      </trkpt>
      <trkpt lat="45.75917" lon="4.51907">
        <ele>418.8</ele>
        <time>2022-06-26T12:28:46Z</time>
      </trkpt>
      <trkpt lat="45.75916" lon="4.51913">
        <ele>418.2</ele>
        <time>2022-06-26T12:28:47Z</time>
      </trkpt>
      <trkpt lat="45.75913" lon="4.51917">
        <ele>417.2</ele>
        <time>2022-06-26T12:28:49Z</time>
      </trkpt>
      <trkpt lat="45.75909" lon="4.51922">
        <ele>416.8</ele>
        <time>2022-06-26T12:28:50Z</time>
      </trkpt>
      <trkpt lat="45.75905" lon="4.51926">
        <ele>416.4</ele>
        <time>2022-06-26T12:28:51Z</time>
      </trkpt>
      <trkpt lat="45.75899" lon="4.51929">
        <ele>416</ele>
        <time>2022-06-26T12:28:52Z</time>
      </trkpt>
      <trkpt lat="45.75893" lon="4.51932">
        <ele>415.4</ele>
        <time>2022-06-26T12:28:53Z</time>
      </trkpt>
      <trkpt lat="45.75887" lon="4.51935">
        <ele>415</ele>
        <time>2022-06-26T12:28:54Z</time>
      </trkpt>
      <trkpt lat="45.75881" lon="4.51938">
        <ele>414.6</ele>
        <time>2022-06-26T12:28:55Z</time>
      </trkpt>
      <trkpt lat="45.75875" lon="4.51941">
        <ele>414.2</ele>
        <time>2022-06-26T12:28:56Z</time>
      </trkpt>
      <trkpt lat="45.7587" lon="4.51944">
        <ele>414</ele>
        <time>2022-06-26T12:28:57Z</time>
      </trkpt>
      <trkpt lat="45.75866" lon="4.51949">
        <ele>413.6</ele>
        <time>2022-06-26T12:28:58Z</time>
      </trkpt>
      <trkpt lat="45.75862" lon="4.51954">
        <ele>413.4</ele>
        <time>2022-06-26T12:28:59Z</time>
      </trkpt>
      <trkpt lat="45.75859" lon="4.51961">
        <ele>413.2</ele>
        <time>2022-06-26T12:29:00Z</time>
      </trkpt>
      <trkpt lat="45.75856" lon="4.51969">
        <ele>413</ele>
        <time>2022-06-26T12:29:01Z</time>
      </trkpt>
      <trkpt lat="45.75854" lon="4.51977">
        <ele>413</ele>
        <time>2022-06-26T12:29:02Z</time>
      </trkpt>
      <trkpt lat="45.75853" lon="4.51985">
        <ele>413</ele>
        <time>2022-06-26T12:29:03Z</time>
      </trkpt>
      <trkpt lat="45.75852" lon="4.51992">
        <ele>413</ele>
        <time>2022-06-26T12:29:04Z</time>
      </trkpt>
      <trkpt lat="45.75851" lon="4.52">
        <ele>412.8</ele>
        <time>2022-06-26T12:29:05Z</time>
      </trkpt>
      <trkpt lat="45.75851" lon="4.52007">
        <ele>412.8</ele>
        <time>2022-06-26T12:29:06Z</time>
      </trkpt>
      <trkpt lat="45.7585" lon="4.52015">
        <ele>412.8</ele>
        <time>2022-06-26T12:29:07Z</time>
      </trkpt>
      <trkpt lat="45.75849" lon="4.52024">
        <ele>412.8</ele>
        <time>2022-06-26T12:29:08Z</time>
      </trkpt>
      <trkpt lat="45.75848" lon="4.52032">
        <ele>412.8</ele>
        <time>2022-06-26T12:29:09Z</time>
      </trkpt>
      <trkpt lat="45.75847" lon="4.52041">
        <ele>413</ele>
        <time>2022-06-26T12:29:10Z</time>
      </trkpt>
      <trkpt lat="45.75846" lon="4.52049">
        <ele>413</ele>
        <time>2022-06-26T12:29:11Z</time>
      </trkpt>
      <trkpt lat="45.75845" lon="4.52056">
        <ele>413.2</ele>
        <time>2022-06-26T12:29:12Z</time>
      </trkpt>
      <trkpt lat="45.75844" lon="4.52062">
        <ele>413.2</ele>
        <time>2022-06-26T12:29:13Z</time>
      </trkpt>
      <trkpt lat="45.75843" lon="4.52067">
        <ele>413.4</ele>
        <time>2022-06-26T12:29:14Z</time>
      </trkpt>
      <trkpt lat="45.75843" lon="4.52072">
        <ele>413.8</ele>
        <time>2022-06-26T12:29:15Z</time>
      </trkpt>
      <trkpt lat="45.75843" lon="4.52077">
        <ele>414</ele>
        <time>2022-06-26T12:29:16Z</time>
      </trkpt>
      <trkpt lat="45.75843" lon="4.52081">
        <ele>414.2</ele>
        <time>2022-06-26T12:29:17Z</time>
      </trkpt>
      <trkpt lat="45.75843" lon="4.52085">
        <ele>414.6</ele>
        <time>2022-06-26T12:29:18Z</time>
      </trkpt>
      <trkpt lat="45.75843" lon="4.52089">
        <ele>414.8</ele>
        <time>2022-06-26T12:29:19Z</time>
      </trkpt>
      <trkpt lat="45.75843" lon="4.52092">
        <ele>415</ele>
        <time>2022-06-26T12:29:20Z</time>
      </trkpt>
      <trkpt lat="45.75843" lon="4.52096">
        <ele>415.4</ele>
        <time>2022-06-26T12:29:21Z</time>
      </trkpt>
      <trkpt lat="45.75844" lon="4.52099">
        <ele>415.6</ele>
        <time>2022-06-26T12:29:22Z</time>
      </trkpt>
      <trkpt lat="45.75845" lon="4.52102">
        <ele>416</ele>
        <time>2022-06-26T12:29:23Z</time>
      </trkpt>
      <trkpt lat="45.75845" lon="4.52105">
        <ele>416.2</ele>
        <time>2022-06-26T12:29:24Z</time>
      </trkpt>
      <trkpt lat="45.75844" lon="4.52107">
        <ele>416.6</ele>
        <time>2022-06-26T12:29:25Z</time>
      </trkpt>
      <trkpt lat="45.75845" lon="4.5211">
        <ele>416.8</ele>
        <time>2022-06-26T12:29:26Z</time>
      </trkpt>
      <trkpt lat="45.75845" lon="4.52113">
        <ele>417.2</ele>
        <time>2022-06-26T12:29:27Z</time>
      </trkpt>
      <trkpt lat="45.75844" lon="4.52116">
        <ele>417.4</ele>
        <time>2022-06-26T12:29:28Z</time>
      </trkpt>
      <trkpt lat="45.75844" lon="4.52119">
        <ele>417.6</ele>
        <time>2022-06-26T12:29:29Z</time>
      </trkpt>
      <trkpt lat="45.75843" lon="4.52121">
        <ele>418</ele>
        <time>2022-06-26T12:29:30Z</time>
      </trkpt>
      <trkpt lat="45.75843" lon="4.52124">
        <ele>418.2</ele>
        <time>2022-06-26T12:29:31Z</time>
      </trkpt>
      <trkpt lat="45.75842" lon="4.52127">
        <ele>418.4</ele>
        <time>2022-06-26T12:29:32Z</time>
      </trkpt>
      <trkpt lat="45.7584" lon="4.5213">
        <ele>418.8</ele>
        <time>2022-06-26T12:29:33Z</time>
      </trkpt>
      <trkpt lat="45.75839" lon="4.52134">
        <ele>419.2</ele>
        <time>2022-06-26T12:29:34Z</time>
      </trkpt>
      <trkpt lat="45.75837" lon="4.52137">
        <ele>419.4</ele>
        <time>2022-06-26T12:29:35Z</time>
      </trkpt>
      <trkpt lat="45.75835" lon="4.5214">
        <ele>419.8</ele>
        <time>2022-06-26T12:29:36Z</time>
      </trkpt>
      <trkpt lat="45.75834" lon="4.52142">
        <ele>420.2</ele>
        <time>2022-06-26T12:29:37Z</time>
      </trkpt>
      <trkpt lat="45.75833" lon="4.52145">
        <ele>420.6</ele>
        <time>2022-06-26T12:29:38Z</time>
      </trkpt>
      <trkpt lat="45.75832" lon="4.52148">
        <ele>420.8</ele>
        <time>2022-06-26T12:29:39Z</time>
      </trkpt>
      <trkpt lat="45.75831" lon="4.52151">
        <ele>421.2</ele>
        <time>2022-06-26T12:29:40Z</time>
      </trkpt>
      <trkpt lat="45.75831" lon="4.52154">
        <ele>421.4</ele>
        <time>2022-06-26T12:29:41Z</time>
      </trkpt>
      <trkpt lat="45.7583" lon="4.52157">
        <ele>421.8</ele>
        <time>2022-06-26T12:29:42Z</time>
      </trkpt>
      <trkpt lat="45.75829" lon="4.52159">
        <ele>422.2</ele>
        <time>2022-06-26T12:29:43Z</time>
      </trkpt>
      <trkpt lat="45.75828" lon="4.52162">
        <ele>422.6</ele>
        <time>2022-06-26T12:29:44Z</time>
      </trkpt>
      <trkpt lat="45.75827" lon="4.52165">
        <ele>422.8</ele>
        <time>2022-06-26T12:29:45Z</time>
      </trkpt>
      <trkpt lat="45.75826" lon="4.52168">
        <ele>423.2</ele>
        <time>2022-06-26T12:29:46Z</time>
      </trkpt>
      <trkpt lat="45.75826" lon="4.5217">
        <ele>423.4</ele>
        <time>2022-06-26T12:29:47Z</time>
      </trkpt>
      <trkpt lat="45.75825" lon="4.52173">
        <ele>423.8</ele>
        <time>2022-06-26T12:29:48Z</time>
      </trkpt>
      <trkpt lat="45.75825" lon="4.52176">
        <ele>424.2</ele>
        <time>2022-06-26T12:29:49Z</time>
      </trkpt>
      <trkpt lat="45.75824" lon="4.5218">
        <ele>424.6</ele>
        <time>2022-06-26T12:29:50Z</time>
      </trkpt>
      <trkpt lat="45.75824" lon="4.52182">
        <ele>424.8</ele>
        <time>2022-06-26T12:29:51Z</time>
      </trkpt>
      <trkpt lat="45.75823" lon="4.52184">
        <ele>425.2</ele>
        <time>2022-06-26T12:29:52Z</time>
      </trkpt>
      <trkpt lat="45.75822" lon="4.52187">
        <ele>425.4</ele>
        <time>2022-06-26T12:29:53Z</time>
      </trkpt>
      <trkpt lat="45.75821" lon="4.52189">
        <ele>426</ele>
        <time>2022-06-26T12:29:54Z</time>
      </trkpt>
      <trkpt lat="45.75821" lon="4.52192">
        <ele>426.2</ele>
        <time>2022-06-26T12:29:55Z</time>
      </trkpt>
      <trkpt lat="45.7582" lon="4.52194">
        <ele>426.6</ele>
        <time>2022-06-26T12:29:56Z</time>
      </trkpt>
      <trkpt lat="45.75819" lon="4.52196">
        <ele>427</ele>
        <time>2022-06-26T12:29:57Z</time>
      </trkpt>
      <trkpt lat="45.75818" lon="4.52199">
        <ele>427.2</ele>
        <time>2022-06-26T12:29:58Z</time>
      </trkpt>
      <trkpt lat="45.75818" lon="4.522">
        <ele>427.4</ele>
        <time>2022-06-26T12:29:59Z</time>
      </trkpt>
      <trkpt lat="45.75817" lon="4.52202">
        <ele>427.8</ele>
        <time>2022-06-26T12:30:00Z</time>
      </trkpt>
      <trkpt lat="45.75816" lon="4.52204">
        <ele>428</ele>
        <time>2022-06-26T12:30:01Z</time>
      </trkpt>
      <trkpt lat="45.75816" lon="4.52206">
        <ele>428.2</ele>
        <time>2022-06-26T12:30:02Z</time>
      </trkpt>
      <trkpt lat="45.75815" lon="4.52209">
        <ele>428.6</ele>
        <time>2022-06-26T12:30:03Z</time>
      </trkpt>
      <trkpt lat="45.75815" lon="4.52211">
        <ele>428.8</ele>
        <time>2022-06-26T12:30:04Z</time>
      </trkpt>
      <trkpt lat="45.75814" lon="4.52214">
        <ele>429.2</ele>
        <time>2022-06-26T12:30:05Z</time>
      </trkpt>
      <trkpt lat="45.75813" lon="4.52216">
        <ele>429.4</ele>
        <time>2022-06-26T12:30:06Z</time>
      </trkpt>
      <trkpt lat="45.75812" lon="4.52219">
        <ele>429.6</ele>
        <time>2022-06-26T12:30:07Z</time>
      </trkpt>
      <trkpt lat="45.75812" lon="4.52222">
        <ele>430</ele>
        <time>2022-06-26T12:30:08Z</time>
      </trkpt>
      <trkpt lat="45.75812" lon="4.52224">
        <ele>430.2</ele>
        <time>2022-06-26T12:30:09Z</time>
      </trkpt>
      <trkpt lat="45.75811" lon="4.52227">
        <ele>430.4</ele>
        <time>2022-06-26T12:30:10Z</time>
      </trkpt>
      <trkpt lat="45.7581" lon="4.52229">
        <ele>430.6</ele>
        <time>2022-06-26T12:30:11Z</time>
      </trkpt>
      <trkpt lat="45.75809" lon="4.52232">
        <ele>431</ele>
        <time>2022-06-26T12:30:12Z</time>
      </trkpt>
      <trkpt lat="45.75808" lon="4.52234">
        <ele>431.2</ele>
        <time>2022-06-26T12:30:13Z</time>
      </trkpt>
      <trkpt lat="45.75808" lon="4.52237">
        <ele>431.4</ele>
        <time>2022-06-26T12:30:14Z</time>
      </trkpt>
      <trkpt lat="45.75807" lon="4.52239">
        <ele>431.6</ele>
        <time>2022-06-26T12:30:15Z</time>
      </trkpt>
      <trkpt lat="45.75806" lon="4.52241">
        <ele>431.8</ele>
        <time>2022-06-26T12:30:16Z</time>
      </trkpt>
      <trkpt lat="45.75805" lon="4.52244">
        <ele>431.8</ele>
        <time>2022-06-26T12:30:17Z</time>
      </trkpt>
      <trkpt lat="45.75804" lon="4.52246">
        <ele>432.2</ele>
        <time>2022-06-26T12:30:18Z</time>
      </trkpt>
      <trkpt lat="45.75803" lon="4.52249">
        <ele>432.4</ele>
        <time>2022-06-26T12:30:19Z</time>
      </trkpt>
      <trkpt lat="45.75802" lon="4.52251">
        <ele>432.8</ele>
        <time>2022-06-26T12:30:20Z</time>
      </trkpt>
      <trkpt lat="45.75801" lon="4.52254">
        <ele>433</ele>
        <time>2022-06-26T12:30:21Z</time>
      </trkpt>
      <trkpt lat="45.758" lon="4.52259">
        <ele>433.2</ele>
        <time>2022-06-26T12:30:22Z</time>
      </trkpt>
      <trkpt lat="45.75799" lon="4.52261">
        <ele>433.2</ele>
        <time>2022-06-26T12:30:23Z</time>
      </trkpt>
      <trkpt lat="45.75798" lon="4.52263">
        <ele>433.6</ele>
        <time>2022-06-26T12:30:24Z</time>
      </trkpt>
      <trkpt lat="45.75798" lon="4.52266">
        <ele>433.8</ele>
        <time>2022-06-26T12:30:25Z</time>
      </trkpt>
      <trkpt lat="45.75797" lon="4.52267">
        <ele>434.2</ele>
        <time>2022-06-26T12:30:26Z</time>
      </trkpt>
      <trkpt lat="45.75796" lon="4.5227">
        <ele>434.4</ele>
        <time>2022-06-26T12:30:27Z</time>
      </trkpt>
      <trkpt lat="45.75795" lon="4.52272">
        <ele>434.6</ele>
        <time>2022-06-26T12:30:28Z</time>
      </trkpt>
      <trkpt lat="45.75794" lon="4.52274">
        <ele>434.8</ele>
        <time>2022-06-26T12:30:29Z</time>
      </trkpt>
      <trkpt lat="45.75794" lon="4.52276">
        <ele>434.8</ele>
        <time>2022-06-26T12:30:30Z</time>
      </trkpt>
      <trkpt lat="45.75793" lon="4.52278">
        <ele>435.2</ele>
        <time>2022-06-26T12:30:31Z</time>
      </trkpt>
      <trkpt lat="45.75792" lon="4.52281">
        <ele>435.4</ele>
        <time>2022-06-26T12:30:32Z</time>
      </trkpt>
      <trkpt lat="45.75792" lon="4.52283">
        <ele>435.6</ele>
        <time>2022-06-26T12:30:33Z</time>
      </trkpt>
      <trkpt lat="45.75791" lon="4.52285">
        <ele>435.6</ele>
        <time>2022-06-26T12:30:34Z</time>
      </trkpt>
      <trkpt lat="45.7579" lon="4.52287">
        <ele>436</ele>
        <time>2022-06-26T12:30:35Z</time>
      </trkpt>
      <trkpt lat="45.7579" lon="4.52289">
        <ele>436</ele>
        <time>2022-06-26T12:30:36Z</time>
      </trkpt>
      <trkpt lat="45.75789" lon="4.52291">
        <ele>436.2</ele>
        <time>2022-06-26T12:30:37Z</time>
      </trkpt>
      <trkpt lat="45.75788" lon="4.52293">
        <ele>436.2</ele>
        <time>2022-06-26T12:30:38Z</time>
      </trkpt>
      <trkpt lat="45.75786" lon="4.52296">
        <ele>436.6</ele>
        <time>2022-06-26T12:30:39Z</time>
      </trkpt>
      <trkpt lat="45.75786" lon="4.52298">
        <ele>436.6</ele>
        <time>2022-06-26T12:30:40Z</time>
      </trkpt>
      <trkpt lat="45.75785" lon="4.523">
        <ele>436.8</ele>
        <time>2022-06-26T12:30:41Z</time>
      </trkpt>
      <trkpt lat="45.75785" lon="4.52302">
        <ele>436.8</ele>
        <time>2022-06-26T12:30:42Z</time>
      </trkpt>
      <trkpt lat="45.75784" lon="4.52305">
        <ele>437.2</ele>
        <time>2022-06-26T12:30:43Z</time>
      </trkpt>
      <trkpt lat="45.75784" lon="4.52308">
        <ele>437.2</ele>
        <time>2022-06-26T12:30:44Z</time>
      </trkpt>
      <trkpt lat="45.75783" lon="4.5231">
        <ele>437.4</ele>
        <time>2022-06-26T12:30:45Z</time>
      </trkpt>
      <trkpt lat="45.75783" lon="4.52313">
        <ele>437.4</ele>
        <time>2022-06-26T12:30:46Z</time>
      </trkpt>
      <trkpt lat="45.75782" lon="4.52315">
        <ele>437.8</ele>
        <time>2022-06-26T12:30:47Z</time>
      </trkpt>
      <trkpt lat="45.75781" lon="4.52317">
        <ele>437.8</ele>
        <time>2022-06-26T12:30:48Z</time>
      </trkpt>
      <trkpt lat="45.75781" lon="4.5232">
        <ele>437.8</ele>
        <time>2022-06-26T12:30:49Z</time>
      </trkpt>
      <trkpt lat="45.75779" lon="4.52323">
        <ele>438</ele>
        <time>2022-06-26T12:30:50Z</time>
      </trkpt>
      <trkpt lat="45.75778" lon="4.52328">
        <ele>438</ele>
        <time>2022-06-26T12:30:51Z</time>
      </trkpt>
      <trkpt lat="45.75777" lon="4.52331">
        <ele>438</ele>
        <time>2022-06-26T12:30:52Z</time>
      </trkpt>
      <trkpt lat="45.75775" lon="4.52335">
        <ele>438</ele>
        <time>2022-06-26T12:30:53Z</time>
      </trkpt>
      <trkpt lat="45.75774" lon="4.52339">
        <ele>438</ele>
        <time>2022-06-26T12:30:54Z</time>
      </trkpt>
      <trkpt lat="45.75773" lon="4.52343">
        <ele>438.2</ele>
        <time>2022-06-26T12:30:55Z</time>
      </trkpt>
      <trkpt lat="45.75771" lon="4.52347">
        <ele>438.2</ele>
        <time>2022-06-26T12:30:56Z</time>
      </trkpt>
      <trkpt lat="45.7577" lon="4.5235">
        <ele>438.2</ele>
        <time>2022-06-26T12:30:57Z</time>
      </trkpt>
      <trkpt lat="45.75768" lon="4.52354">
        <ele>438.2</ele>
        <time>2022-06-26T12:30:58Z</time>
      </trkpt>
      <trkpt lat="45.75767" lon="4.52358">
        <ele>438.2</ele>
        <time>2022-06-26T12:30:59Z</time>
      </trkpt>
      <trkpt lat="45.75765" lon="4.52362">
        <ele>438.6</ele>
        <time>2022-06-26T12:31:00Z</time>
      </trkpt>
      <trkpt lat="45.75763" lon="4.52366">
        <ele>438.6</ele>
        <time>2022-06-26T12:31:01Z</time>
      </trkpt>
      <trkpt lat="45.75761" lon="4.52369">
        <ele>438.6</ele>
        <time>2022-06-26T12:31:02Z</time>
      </trkpt>
      <trkpt lat="45.7576" lon="4.52373">
        <ele>438.6</ele>
        <time>2022-06-26T12:31:03Z</time>
      </trkpt>
      <trkpt lat="45.75758" lon="4.52377">
        <ele>438.8</ele>
        <time>2022-06-26T12:31:04Z</time>
      </trkpt>
      <trkpt lat="45.75756" lon="4.5238">
        <ele>438.8</ele>
        <time>2022-06-26T12:31:05Z</time>
      </trkpt>
      <trkpt lat="45.75754" lon="4.52383">
        <ele>439</ele>
        <time>2022-06-26T12:31:06Z</time>
      </trkpt>
      <trkpt lat="45.75753" lon="4.52387">
        <ele>439</ele>
        <time>2022-06-26T12:31:07Z</time>
      </trkpt>
      <trkpt lat="45.75751" lon="4.52392">
        <ele>439.2</ele>
        <time>2022-06-26T12:31:08Z</time>
      </trkpt>
      <trkpt lat="45.7575" lon="4.52396">
        <ele>439.2</ele>
        <time>2022-06-26T12:31:09Z</time>
      </trkpt>
      <trkpt lat="45.75749" lon="4.524">
        <ele>439.2</ele>
        <time>2022-06-26T12:31:10Z</time>
      </trkpt>
      <trkpt lat="45.75747" lon="4.52404">
        <ele>439.6</ele>
        <time>2022-06-26T12:31:11Z</time>
      </trkpt>
      <trkpt lat="45.75745" lon="4.52408">
        <ele>439.6</ele>
        <time>2022-06-26T12:31:12Z</time>
      </trkpt>
      <trkpt lat="45.75744" lon="4.52412">
        <ele>439.8</ele>
        <time>2022-06-26T12:31:13Z</time>
      </trkpt>
      <trkpt lat="45.75742" lon="4.52416">
        <ele>439.8</ele>
        <time>2022-06-26T12:31:14Z</time>
      </trkpt>
      <trkpt lat="45.75741" lon="4.5242">
        <ele>440.2</ele>
        <time>2022-06-26T12:31:15Z</time>
      </trkpt>
      <trkpt lat="45.7574" lon="4.52424">
        <ele>440.4</ele>
        <time>2022-06-26T12:31:16Z</time>
      </trkpt>
      <trkpt lat="45.75739" lon="4.52427">
        <ele>440.8</ele>
        <time>2022-06-26T12:31:17Z</time>
      </trkpt>
      <trkpt lat="45.75738" lon="4.52431">
        <ele>441</ele>
        <time>2022-06-26T12:31:18Z</time>
      </trkpt>
      <trkpt lat="45.75737" lon="4.52434">
        <ele>441.4</ele>
        <time>2022-06-26T12:31:19Z</time>
      </trkpt>
      <trkpt lat="45.75736" lon="4.52438">
        <ele>441.6</ele>
        <time>2022-06-26T12:31:20Z</time>
      </trkpt>
      <trkpt lat="45.75735" lon="4.52441">
        <ele>442</ele>
        <time>2022-06-26T12:31:21Z</time>
      </trkpt>
      <trkpt lat="45.75733" lon="4.52445">
        <ele>442.4</ele>
        <time>2022-06-26T12:31:22Z</time>
      </trkpt>
      <trkpt lat="45.75732" lon="4.52448">
        <ele>442.8</ele>
        <time>2022-06-26T12:31:23Z</time>
      </trkpt>
      <trkpt lat="45.75731" lon="4.5245">
        <ele>443.2</ele>
        <time>2022-06-26T12:31:24Z</time>
      </trkpt>
      <trkpt lat="45.75731" lon="4.52454">
        <ele>443.4</ele>
        <time>2022-06-26T12:31:25Z</time>
      </trkpt>
      <trkpt lat="45.7573" lon="4.52456">
        <ele>443.8</ele>
        <time>2022-06-26T12:31:26Z</time>
      </trkpt>
      <trkpt lat="45.75729" lon="4.5246">
        <ele>444</ele>
        <time>2022-06-26T12:31:27Z</time>
      </trkpt>
      <trkpt lat="45.75728" lon="4.52463">
        <ele>444.2</ele>
        <time>2022-06-26T12:31:28Z</time>
      </trkpt>
      <trkpt lat="45.75727" lon="4.52466">
        <ele>444.6</ele>
        <time>2022-06-26T12:31:29Z</time>
      </trkpt>
      <trkpt lat="45.75725" lon="4.52469">
        <ele>444.8</ele>
        <time>2022-06-26T12:31:30Z</time>
      </trkpt>
      <trkpt lat="45.75724" lon="4.52471">
        <ele>445.2</ele>
        <time>2022-06-26T12:31:31Z</time>
      </trkpt>
      <trkpt lat="45.75723" lon="4.52474">
        <ele>445.6</ele>
        <time>2022-06-26T12:31:32Z</time>
      </trkpt>
      <trkpt lat="45.75722" lon="4.52477">
        <ele>445.8</ele>
        <time>2022-06-26T12:31:33Z</time>
      </trkpt>
      <trkpt lat="45.75721" lon="4.5248">
        <ele>446.2</ele>
        <time>2022-06-26T12:31:34Z</time>
      </trkpt>
      <trkpt lat="45.7572" lon="4.52483">
        <ele>446.4</ele>
        <time>2022-06-26T12:31:35Z</time>
      </trkpt>
      <trkpt lat="45.75719" lon="4.52488">
        <ele>446.6</ele>
        <time>2022-06-26T12:31:36Z</time>
      </trkpt>
      <trkpt lat="45.75718" lon="4.52491">
        <ele>446.8</ele>
        <time>2022-06-26T12:31:37Z</time>
      </trkpt>
      <trkpt lat="45.75717" lon="4.52495">
        <ele>447.2</ele>
        <time>2022-06-26T12:31:38Z</time>
      </trkpt>
      <trkpt lat="45.75717" lon="4.52498">
        <ele>447.6</ele>
        <time>2022-06-26T12:31:39Z</time>
      </trkpt>
      <trkpt lat="45.75716" lon="4.52501">
        <ele>447.8</ele>
        <time>2022-06-26T12:31:40Z</time>
      </trkpt>
      <trkpt lat="45.75714" lon="4.52503">
        <ele>448</ele>
        <time>2022-06-26T12:31:41Z</time>
      </trkpt>
      <trkpt lat="45.75713" lon="4.52506">
        <ele>448.4</ele>
        <time>2022-06-26T12:31:42Z</time>
      </trkpt>
      <trkpt lat="45.75712" lon="4.52509">
        <ele>448.6</ele>
        <time>2022-06-26T12:31:43Z</time>
      </trkpt>
      <trkpt lat="45.75711" lon="4.52511">
        <ele>448.8</ele>
        <time>2022-06-26T12:31:44Z</time>
      </trkpt>
      <trkpt lat="45.7571" lon="4.52513">
        <ele>449</ele>
        <time>2022-06-26T12:31:45Z</time>
      </trkpt>
      <trkpt lat="45.75708" lon="4.52515">
        <ele>449.2</ele>
        <time>2022-06-26T12:31:46Z</time>
      </trkpt>
      <trkpt lat="45.75707" lon="4.52517">
        <ele>449.4</ele>
        <time>2022-06-26T12:31:47Z</time>
      </trkpt>
      <trkpt lat="45.75706" lon="4.5252">
        <ele>449.6</ele>
        <time>2022-06-26T12:31:48Z</time>
      </trkpt>
      <trkpt lat="45.75705" lon="4.52521">
        <ele>449.6</ele>
        <time>2022-06-26T12:31:49Z</time>
      </trkpt>
      <trkpt lat="45.75704" lon="4.52524">
        <ele>450</ele>
        <time>2022-06-26T12:31:50Z</time>
      </trkpt>
      <trkpt lat="45.75703" lon="4.52526">
        <ele>450.4</ele>
        <time>2022-06-26T12:31:51Z</time>
      </trkpt>
      <trkpt lat="45.75702" lon="4.52528">
        <ele>450.4</ele>
        <time>2022-06-26T12:31:52Z</time>
      </trkpt>
      <trkpt lat="45.75701" lon="4.52529">
        <ele>450.6</ele>
        <time>2022-06-26T12:31:53Z</time>
      </trkpt>
      <trkpt lat="45.757" lon="4.52531">
        <ele>450.6</ele>
        <time>2022-06-26T12:31:54Z</time>
      </trkpt>
      <trkpt lat="45.75699" lon="4.52533">
        <ele>451</ele>
        <time>2022-06-26T12:31:55Z</time>
      </trkpt>
      <trkpt lat="45.75698" lon="4.52535">
        <ele>451</ele>
        <time>2022-06-26T12:31:56Z</time>
      </trkpt>
      <trkpt lat="45.75696" lon="4.52538">
        <ele>451.4</ele>
        <time>2022-06-26T12:31:57Z</time>
      </trkpt>
      <trkpt lat="45.75695" lon="4.5254">
        <ele>451.4</ele>
        <time>2022-06-26T12:31:58Z</time>
      </trkpt>
      <trkpt lat="45.75694" lon="4.52542">
        <ele>451.6</ele>
        <time>2022-06-26T12:31:59Z</time>
      </trkpt>
      <trkpt lat="45.75692" lon="4.52543">
        <ele>451.8</ele>
        <time>2022-06-26T12:32:00Z</time>
      </trkpt>
      <trkpt lat="45.75691" lon="4.52545">
        <ele>451.8</ele>
        <time>2022-06-26T12:32:01Z</time>
      </trkpt>
      <trkpt lat="45.75689" lon="4.52547">
        <ele>452.2</ele>
        <time>2022-06-26T12:32:02Z</time>
      </trkpt>
      <trkpt lat="45.75687" lon="4.52548">
        <ele>452.6</ele>
        <time>2022-06-26T12:32:03Z</time>
      </trkpt>
      <trkpt lat="45.75685" lon="4.52549">
        <ele>452.8</ele>
        <time>2022-06-26T12:32:04Z</time>
      </trkpt>
      <trkpt lat="45.75684" lon="4.52551">
        <ele>453</ele>
        <time>2022-06-26T12:32:05Z</time>
      </trkpt>
      <trkpt lat="45.75682" lon="4.52552">
        <ele>453.2</ele>
        <time>2022-06-26T12:32:06Z</time>
      </trkpt>
      <trkpt lat="45.75681" lon="4.52554">
        <ele>453.2</ele>
        <time>2022-06-26T12:32:07Z</time>
      </trkpt>
      <trkpt lat="45.7568" lon="4.52556">
        <ele>453.8</ele>
        <time>2022-06-26T12:32:08Z</time>
      </trkpt>
      <trkpt lat="45.75678" lon="4.52557">
        <ele>454</ele>
        <time>2022-06-26T12:32:09Z</time>
      </trkpt>
      <trkpt lat="45.75677" lon="4.52558">
        <ele>454.2</ele>
        <time>2022-06-26T12:32:10Z</time>
      </trkpt>
      <trkpt lat="45.75675" lon="4.5256">
        <ele>454.2</ele>
        <time>2022-06-26T12:32:11Z</time>
      </trkpt>
      <trkpt lat="45.75674" lon="4.52561">
        <ele>454.4</ele>
        <time>2022-06-26T12:32:12Z</time>
      </trkpt>
      <trkpt lat="45.75672" lon="4.52562">
        <ele>454.4</ele>
        <time>2022-06-26T12:32:13Z</time>
      </trkpt>
      <trkpt lat="45.75671" lon="4.52564">
        <ele>454.8</ele>
        <time>2022-06-26T12:32:14Z</time>
      </trkpt>
      <trkpt lat="45.75669" lon="4.52565">
        <ele>454.8</ele>
        <time>2022-06-26T12:32:15Z</time>
      </trkpt>
      <trkpt lat="45.75667" lon="4.52565">
        <ele>455.2</ele>
        <time>2022-06-26T12:32:16Z</time>
      </trkpt>
      <trkpt lat="45.75665" lon="4.52566">
        <ele>455.2</ele>
        <time>2022-06-26T12:32:17Z</time>
      </trkpt>
      <trkpt lat="45.75663" lon="4.52566">
        <ele>455.6</ele>
        <time>2022-06-26T12:32:18Z</time>
      </trkpt>
      <trkpt lat="45.75661" lon="4.52567">
        <ele>455.6</ele>
        <time>2022-06-26T12:32:19Z</time>
      </trkpt>
      <trkpt lat="45.75659" lon="4.52567">
        <ele>456</ele>
        <time>2022-06-26T12:32:20Z</time>
      </trkpt>
      <trkpt lat="45.75657" lon="4.52568">
        <ele>456</ele>
        <time>2022-06-26T12:32:21Z</time>
      </trkpt>
      <trkpt lat="45.75654" lon="4.52568">
        <ele>456.4</ele>
        <time>2022-06-26T12:32:22Z</time>
      </trkpt>
      <trkpt lat="45.75652" lon="4.52568">
        <ele>456.4</ele>
        <time>2022-06-26T12:32:23Z</time>
      </trkpt>
      <trkpt lat="45.7565" lon="4.52568">
        <ele>456.6</ele>
        <time>2022-06-26T12:32:24Z</time>
      </trkpt>
      <trkpt lat="45.75648" lon="4.52569">
        <ele>456.6</ele>
        <time>2022-06-26T12:32:25Z</time>
      </trkpt>
      <trkpt lat="45.75646" lon="4.52569">
        <ele>457</ele>
        <time>2022-06-26T12:32:26Z</time>
      </trkpt>
      <trkpt lat="45.75644" lon="4.52569">
        <ele>457.4</ele>
        <time>2022-06-26T12:32:27Z</time>
      </trkpt>
      <trkpt lat="45.75642" lon="4.5257">
        <ele>457.4</ele>
        <time>2022-06-26T12:32:28Z</time>
      </trkpt>
      <trkpt lat="45.7564" lon="4.52571">
        <ele>457.8</ele>
        <time>2022-06-26T12:32:29Z</time>
      </trkpt>
      <trkpt lat="45.75638" lon="4.52571">
        <ele>457.8</ele>
        <time>2022-06-26T12:32:30Z</time>
      </trkpt>
      <trkpt lat="45.75636" lon="4.52571">
        <ele>458.2</ele>
        <time>2022-06-26T12:32:31Z</time>
      </trkpt>
      <trkpt lat="45.75634" lon="4.52571">
        <ele>458.4</ele>
        <time>2022-06-26T12:32:32Z</time>
      </trkpt>
      <trkpt lat="45.75632" lon="4.52571">
        <ele>458.4</ele>
        <time>2022-06-26T12:32:33Z</time>
      </trkpt>
      <trkpt lat="45.7563" lon="4.52571">
        <ele>458.8</ele>
        <time>2022-06-26T12:32:34Z</time>
      </trkpt>
      <trkpt lat="45.75628" lon="4.52571">
        <ele>459</ele>
        <time>2022-06-26T12:32:35Z</time>
      </trkpt>
      <trkpt lat="45.75626" lon="4.5257">
        <ele>459</ele>
        <time>2022-06-26T12:32:36Z</time>
      </trkpt>
      <trkpt lat="45.75624" lon="4.5257">
        <ele>459.4</ele>
        <time>2022-06-26T12:32:37Z</time>
      </trkpt>
      <trkpt lat="45.75621" lon="4.52569">
        <ele>459.4</ele>
        <time>2022-06-26T12:32:38Z</time>
      </trkpt>
      <trkpt lat="45.75619" lon="4.52569">
        <ele>459.6</ele>
        <time>2022-06-26T12:32:39Z</time>
      </trkpt>
      <trkpt lat="45.75618" lon="4.52569">
        <ele>459.6</ele>
        <time>2022-06-26T12:32:40Z</time>
      </trkpt>
      <trkpt lat="45.75616" lon="4.52568">
        <ele>459.8</ele>
        <time>2022-06-26T12:32:41Z</time>
      </trkpt>
      <trkpt lat="45.75614" lon="4.52567">
        <ele>459.8</ele>
        <time>2022-06-26T12:32:42Z</time>
      </trkpt>
      <trkpt lat="45.75611" lon="4.52567">
        <ele>459.8</ele>
        <time>2022-06-26T12:32:43Z</time>
      </trkpt>
      <trkpt lat="45.75609" lon="4.52566">
        <ele>460.2</ele>
        <time>2022-06-26T12:32:44Z</time>
      </trkpt>
      <trkpt lat="45.75607" lon="4.52565">
        <ele>460.2</ele>
        <time>2022-06-26T12:32:45Z</time>
      </trkpt>
      <trkpt lat="45.75604" lon="4.52564">
        <ele>460.4</ele>
        <time>2022-06-26T12:32:46Z</time>
      </trkpt>
      <trkpt lat="45.75601" lon="4.52563">
        <ele>460.4</ele>
        <time>2022-06-26T12:32:47Z</time>
      </trkpt>
      <trkpt lat="45.75599" lon="4.52563">
        <ele>460.8</ele>
        <time>2022-06-26T12:32:48Z</time>
      </trkpt>
      <trkpt lat="45.75596" lon="4.52562">
        <ele>460.8</ele>
        <time>2022-06-26T12:32:49Z</time>
      </trkpt>
      <trkpt lat="45.75594" lon="4.52561">
        <ele>461.2</ele>
        <time>2022-06-26T12:32:50Z</time>
      </trkpt>
      <trkpt lat="45.75591" lon="4.52561">
        <ele>461.2</ele>
        <time>2022-06-26T12:32:51Z</time>
      </trkpt>
      <trkpt lat="45.75588" lon="4.5256">
        <ele>461.6</ele>
        <time>2022-06-26T12:32:52Z</time>
      </trkpt>
      <trkpt lat="45.75586" lon="4.5256">
        <ele>461.8</ele>
        <time>2022-06-26T12:32:53Z</time>
      </trkpt>
      <trkpt lat="45.75583" lon="4.5256">
        <ele>462</ele>
        <time>2022-06-26T12:32:54Z</time>
      </trkpt>
      <trkpt lat="45.75581" lon="4.5256">
        <ele>462.2</ele>
        <time>2022-06-26T12:32:55Z</time>
      </trkpt>
      <trkpt lat="45.75578" lon="4.5256">
        <ele>462.6</ele>
        <time>2022-06-26T12:32:56Z</time>
      </trkpt>
      <trkpt lat="45.75576" lon="4.52561">
        <ele>462.8</ele>
        <time>2022-06-26T12:32:57Z</time>
      </trkpt>
      <trkpt lat="45.75574" lon="4.52561">
        <ele>462.8</ele>
        <time>2022-06-26T12:32:58Z</time>
      </trkpt>
      <trkpt lat="45.75571" lon="4.52561">
        <ele>463.4</ele>
        <time>2022-06-26T12:33:00Z</time>
      </trkpt>
      <trkpt lat="45.75569" lon="4.52562">
        <ele>463.4</ele>
        <time>2022-06-26T12:33:01Z</time>
      </trkpt>
      <trkpt lat="45.75567" lon="4.52562">
        <ele>463.8</ele>
        <time>2022-06-26T12:33:02Z</time>
      </trkpt>
      <trkpt lat="45.75565" lon="4.52562">
        <ele>464.2</ele>
        <time>2022-06-26T12:33:03Z</time>
      </trkpt>
      <trkpt lat="45.75563" lon="4.52562">
        <ele>464.4</ele>
        <time>2022-06-26T12:33:04Z</time>
      </trkpt>
      <trkpt lat="45.75561" lon="4.52562">
        <ele>464.4</ele>
        <time>2022-06-26T12:33:05Z</time>
      </trkpt>
      <trkpt lat="45.75559" lon="4.52563">
        <ele>464.8</ele>
        <time>2022-06-26T12:33:06Z</time>
      </trkpt>
      <trkpt lat="45.75556" lon="4.52564">
        <ele>464.8</ele>
        <time>2022-06-26T12:33:07Z</time>
      </trkpt>
      <trkpt lat="45.75554" lon="4.52564">
        <ele>465.2</ele>
        <time>2022-06-26T12:33:08Z</time>
      </trkpt>
      <trkpt lat="45.75552" lon="4.52565">
        <ele>465.2</ele>
        <time>2022-06-26T12:33:09Z</time>
      </trkpt>
      <trkpt lat="45.7555" lon="4.52565">
        <ele>465.4</ele>
        <time>2022-06-26T12:33:10Z</time>
      </trkpt>
      <trkpt lat="45.75547" lon="4.52564">
        <ele>465.4</ele>
        <time>2022-06-26T12:33:11Z</time>
      </trkpt>
      <trkpt lat="45.75545" lon="4.52564">
        <ele>465.8</ele>
        <time>2022-06-26T12:33:12Z</time>
      </trkpt>
      <trkpt lat="45.75543" lon="4.52563">
        <ele>465.8</ele>
        <time>2022-06-26T12:33:13Z</time>
      </trkpt>
      <trkpt lat="45.75541" lon="4.52563">
        <ele>466</ele>
        <time>2022-06-26T12:33:14Z</time>
      </trkpt>
      <trkpt lat="45.75539" lon="4.52563">
        <ele>466</ele>
        <time>2022-06-26T12:33:15Z</time>
      </trkpt>
      <trkpt lat="45.75536" lon="4.52564">
        <ele>466.2</ele>
        <time>2022-06-26T12:33:16Z</time>
      </trkpt>
      <trkpt lat="45.75534" lon="4.52564">
        <ele>466.2</ele>
        <time>2022-06-26T12:33:17Z</time>
      </trkpt>
      <trkpt lat="45.75531" lon="4.52564">
        <ele>466.2</ele>
        <time>2022-06-26T12:33:18Z</time>
      </trkpt>
      <trkpt lat="45.75529" lon="4.52565">
        <ele>466.6</ele>
        <time>2022-06-26T12:33:19Z</time>
      </trkpt>
      <trkpt lat="45.75527" lon="4.52565">
        <ele>466.6</ele>
        <time>2022-06-26T12:33:20Z</time>
      </trkpt>
      <trkpt lat="45.75524" lon="4.52566">
        <ele>466.6</ele>
        <time>2022-06-26T12:33:21Z</time>
      </trkpt>
      <trkpt lat="45.75522" lon="4.52567">
        <ele>466.6</ele>
        <time>2022-06-26T12:33:22Z</time>
      </trkpt>
      <trkpt lat="45.75519" lon="4.52569">
        <ele>466.6</ele>
        <time>2022-06-26T12:33:23Z</time>
      </trkpt>
      <trkpt lat="45.75516" lon="4.5257">
        <ele>466.8</ele>
        <time>2022-06-26T12:33:24Z</time>
      </trkpt>
      <trkpt lat="45.75514" lon="4.52572">
        <ele>466.8</ele>
        <time>2022-06-26T12:33:25Z</time>
      </trkpt>
      <trkpt lat="45.75511" lon="4.52575">
        <ele>466.8</ele>
        <time>2022-06-26T12:33:26Z</time>
      </trkpt>
      <trkpt lat="45.75508" lon="4.52577">
        <ele>467</ele>
        <time>2022-06-26T12:33:27Z</time>
      </trkpt>
      <trkpt lat="45.75505" lon="4.52579">
        <ele>467</ele>
        <time>2022-06-26T12:33:28Z</time>
      </trkpt>
      <trkpt lat="45.75502" lon="4.52581">
        <ele>467.2</ele>
        <time>2022-06-26T12:33:29Z</time>
      </trkpt>
      <trkpt lat="45.75499" lon="4.52584">
        <ele>467.2</ele>
        <time>2022-06-26T12:33:30Z</time>
      </trkpt>
      <trkpt lat="45.75497" lon="4.52586">
        <ele>467.6</ele>
        <time>2022-06-26T12:33:31Z</time>
      </trkpt>
      <trkpt lat="45.75494" lon="4.52589">
        <ele>467.6</ele>
        <time>2022-06-26T12:33:32Z</time>
      </trkpt>
      <trkpt lat="45.75492" lon="4.52591">
        <ele>467.8</ele>
        <time>2022-06-26T12:33:33Z</time>
      </trkpt>
      <trkpt lat="45.7549" lon="4.52593">
        <ele>467.8</ele>
        <time>2022-06-26T12:33:34Z</time>
      </trkpt>
      <trkpt lat="45.75487" lon="4.52595">
        <ele>468</ele>
        <time>2022-06-26T12:33:35Z</time>
      </trkpt>
      <trkpt lat="45.75484" lon="4.52597">
        <ele>468</ele>
        <time>2022-06-26T12:33:36Z</time>
      </trkpt>
      <trkpt lat="45.75481" lon="4.52599">
        <ele>468</ele>
        <time>2022-06-26T12:33:37Z</time>
      </trkpt>
      <trkpt lat="45.75479" lon="4.52601">
        <ele>468</ele>
        <time>2022-06-26T12:33:38Z</time>
      </trkpt>
      <trkpt lat="45.75477" lon="4.52604">
        <ele>468.4</ele>
        <time>2022-06-26T12:33:39Z</time>
      </trkpt>
      <trkpt lat="45.75475" lon="4.52606">
        <ele>468.4</ele>
        <time>2022-06-26T12:33:40Z</time>
      </trkpt>
      <trkpt lat="45.75473" lon="4.52609">
        <ele>468.4</ele>
        <time>2022-06-26T12:33:41Z</time>
      </trkpt>
      <trkpt lat="45.75471" lon="4.52611">
        <ele>468.4</ele>
        <time>2022-06-26T12:33:42Z</time>
      </trkpt>
      <trkpt lat="45.75468" lon="4.52613">
        <ele>468.4</ele>
        <time>2022-06-26T12:33:43Z</time>
      </trkpt>
      <trkpt lat="45.75465" lon="4.52616">
        <ele>468.4</ele>
        <time>2022-06-26T12:33:44Z</time>
      </trkpt>
      <trkpt lat="45.75463" lon="4.5262">
        <ele>468.4</ele>
        <time>2022-06-26T12:33:45Z</time>
      </trkpt>
      <trkpt lat="45.75461" lon="4.52623">
        <ele>468.6</ele>
        <time>2022-06-26T12:33:46Z</time>
      </trkpt>
      <trkpt lat="45.75458" lon="4.52627">
        <ele>468.6</ele>
        <time>2022-06-26T12:33:47Z</time>
      </trkpt>
      <trkpt lat="45.75455" lon="4.52631">
        <ele>468.6</ele>
        <time>2022-06-26T12:33:48Z</time>
      </trkpt>
      <trkpt lat="45.75452" lon="4.52634">
        <ele>468.8</ele>
        <time>2022-06-26T12:33:49Z</time>
      </trkpt>
      <trkpt lat="45.75449" lon="4.52637">
        <ele>468.8</ele>
        <time>2022-06-26T12:33:50Z</time>
      </trkpt>
      <trkpt lat="45.75446" lon="4.5264">
        <ele>469</ele>
        <time>2022-06-26T12:33:51Z</time>
      </trkpt>
      <trkpt lat="45.75443" lon="4.52643">
        <ele>469</ele>
        <time>2022-06-26T12:33:52Z</time>
      </trkpt>
      <trkpt lat="45.7544" lon="4.52645">
        <ele>469.4</ele>
        <time>2022-06-26T12:33:53Z</time>
      </trkpt>
      <trkpt lat="45.75438" lon="4.52648">
        <ele>469.6</ele>
        <time>2022-06-26T12:33:54Z</time>
      </trkpt>
      <trkpt lat="45.75435" lon="4.52651">
        <ele>469.6</ele>
        <time>2022-06-26T12:33:55Z</time>
      </trkpt>
      <trkpt lat="45.75433" lon="4.52653">
        <ele>470</ele>
        <time>2022-06-26T12:33:56Z</time>
      </trkpt>
      <trkpt lat="45.7543" lon="4.52655">
        <ele>470</ele>
        <time>2022-06-26T12:33:57Z</time>
      </trkpt>
      <trkpt lat="45.75428" lon="4.52658">
        <ele>470.2</ele>
        <time>2022-06-26T12:33:58Z</time>
      </trkpt>
      <trkpt lat="45.75425" lon="4.52661">
        <ele>470.2</ele>
        <time>2022-06-26T12:33:59Z</time>
      </trkpt>
      <trkpt lat="45.75422" lon="4.52665">
        <ele>470.2</ele>
        <time>2022-06-26T12:34:00Z</time>
      </trkpt>
      <trkpt lat="45.75419" lon="4.52669">
        <ele>470.2</ele>
        <time>2022-06-26T12:34:01Z</time>
      </trkpt>
      <trkpt lat="45.75416" lon="4.52674">
        <ele>470.2</ele>
        <time>2022-06-26T12:34:02Z</time>
      </trkpt>
      <trkpt lat="45.75413" lon="4.52679">
        <ele>470.2</ele>
        <time>2022-06-26T12:34:03Z</time>
      </trkpt>
      <trkpt lat="45.7541" lon="4.52685">
        <ele>470.2</ele>
        <time>2022-06-26T12:34:04Z</time>
      </trkpt>
      <trkpt lat="45.75408" lon="4.5269">
        <ele>470.2</ele>
        <time>2022-06-26T12:34:05Z</time>
      </trkpt>
      <trkpt lat="45.75405" lon="4.52695">
        <ele>470.2</ele>
        <time>2022-06-26T12:34:06Z</time>
      </trkpt>
      <trkpt lat="45.75402" lon="4.527">
        <ele>470.2</ele>
        <time>2022-06-26T12:34:07Z</time>
      </trkpt>
      <trkpt lat="45.754" lon="4.52705">
        <ele>470.2</ele>
        <time>2022-06-26T12:34:08Z</time>
      </trkpt>
      <trkpt lat="45.75398" lon="4.52709">
        <ele>470.2</ele>
        <time>2022-06-26T12:34:09Z</time>
      </trkpt>
      <trkpt lat="45.75396" lon="4.52714">
        <ele>470.2</ele>
        <time>2022-06-26T12:34:10Z</time>
      </trkpt>
      <trkpt lat="45.75394" lon="4.52718">
        <ele>470.2</ele>
        <time>2022-06-26T12:34:11Z</time>
      </trkpt>
      <trkpt lat="45.75391" lon="4.52722">
        <ele>470.2</ele>
        <time>2022-06-26T12:34:12Z</time>
      </trkpt>
      <trkpt lat="45.75389" lon="4.52726">
        <ele>470.2</ele>
        <time>2022-06-26T12:34:13Z</time>
      </trkpt>
      <trkpt lat="45.75387" lon="4.5273">
        <ele>470.2</ele>
        <time>2022-06-26T12:34:14Z</time>
      </trkpt>
      <trkpt lat="45.75384" lon="4.52734">
        <ele>470.2</ele>
        <time>2022-06-26T12:34:15Z</time>
      </trkpt>
      <trkpt lat="45.75382" lon="4.52738">
        <ele>470.2</ele>
        <time>2022-06-26T12:34:16Z</time>
      </trkpt>
      <trkpt lat="45.7538" lon="4.52742">
        <ele>470.2</ele>
        <time>2022-06-26T12:34:17Z</time>
      </trkpt>
      <trkpt lat="45.75378" lon="4.52746">
        <ele>470.2</ele>
        <time>2022-06-26T12:34:18Z</time>
      </trkpt>
      <trkpt lat="45.75376" lon="4.52751">
        <ele>470.2</ele>
        <time>2022-06-26T12:34:19Z</time>
      </trkpt>
      <trkpt lat="45.75373" lon="4.52755">
        <ele>470.2</ele>
        <time>2022-06-26T12:34:20Z</time>
      </trkpt>
      <trkpt lat="45.7537" lon="4.52759">
        <ele>470</ele>
        <time>2022-06-26T12:34:21Z</time>
      </trkpt>
      <trkpt lat="45.75367" lon="4.52764">
        <ele>470</ele>
        <time>2022-06-26T12:34:22Z</time>
      </trkpt>
      <trkpt lat="45.75364" lon="4.52768">
        <ele>470</ele>
        <time>2022-06-26T12:34:23Z</time>
      </trkpt>
      <trkpt lat="45.75361" lon="4.52772">
        <ele>470</ele>
        <time>2022-06-26T12:34:24Z</time>
      </trkpt>
      <trkpt lat="45.75358" lon="4.52776">
        <ele>469.8</ele>
        <time>2022-06-26T12:34:25Z</time>
      </trkpt>
      <trkpt lat="45.75355" lon="4.52781">
        <ele>469.8</ele>
        <time>2022-06-26T12:34:26Z</time>
      </trkpt>
      <trkpt lat="45.75352" lon="4.52785">
        <ele>469.8</ele>
        <time>2022-06-26T12:34:27Z</time>
      </trkpt>
      <trkpt lat="45.75349" lon="4.5279">
        <ele>469.8</ele>
        <time>2022-06-26T12:34:28Z</time>
      </trkpt>
      <trkpt lat="45.75346" lon="4.52795">
        <ele>469.6</ele>
        <time>2022-06-26T12:34:29Z</time>
      </trkpt>
      <trkpt lat="45.75343" lon="4.528">
        <ele>469.6</ele>
        <time>2022-06-26T12:34:30Z</time>
      </trkpt>
      <trkpt lat="45.75339" lon="4.52805">
        <ele>469.4</ele>
        <time>2022-06-26T12:34:31Z</time>
      </trkpt>
      <trkpt lat="45.75336" lon="4.52811">
        <ele>469.4</ele>
        <time>2022-06-26T12:34:32Z</time>
      </trkpt>
      <trkpt lat="45.75332" lon="4.52817">
        <ele>469</ele>
        <time>2022-06-26T12:34:33Z</time>
      </trkpt>
      <trkpt lat="45.75328" lon="4.52824">
        <ele>468.8</ele>
        <time>2022-06-26T12:34:34Z</time>
      </trkpt>
      <trkpt lat="45.75325" lon="4.52832">
        <ele>468.4</ele>
        <time>2022-06-26T12:34:35Z</time>
      </trkpt>
      <trkpt lat="45.75321" lon="4.52839">
        <ele>468</ele>
        <time>2022-06-26T12:34:36Z</time>
      </trkpt>
      <trkpt lat="45.75318" lon="4.52848">
        <ele>467.6</ele>
        <time>2022-06-26T12:34:37Z</time>
      </trkpt>
      <trkpt lat="45.75315" lon="4.52857">
        <ele>467.2</ele>
        <time>2022-06-26T12:34:38Z</time>
      </trkpt>
      <trkpt lat="45.75312" lon="4.52867">
        <ele>466.8</ele>
        <time>2022-06-26T12:34:39Z</time>
      </trkpt>
      <trkpt lat="45.7531" lon="4.52878">
        <ele>466.6</ele>
        <time>2022-06-26T12:34:40Z</time>
      </trkpt>
      <trkpt lat="45.75308" lon="4.52889">
        <ele>466</ele>
        <time>2022-06-26T12:34:41Z</time>
      </trkpt>
      <trkpt lat="45.75307" lon="4.529">
        <ele>465.8</ele>
        <time>2022-06-26T12:34:42Z</time>
      </trkpt>
      <trkpt lat="45.75307" lon="4.52912">
        <ele>465.6</ele>
        <time>2022-06-26T12:34:43Z</time>
      </trkpt>
      <trkpt lat="45.75307" lon="4.52925">
        <ele>465.2</ele>
        <time>2022-06-26T12:34:44Z</time>
      </trkpt>
      <trkpt lat="45.75308" lon="4.52939">
        <ele>464.8</ele>
        <time>2022-06-26T12:34:45Z</time>
      </trkpt>
      <trkpt lat="45.75309" lon="4.52954">
        <ele>464.4</ele>
        <time>2022-06-26T12:34:46Z</time>
      </trkpt>
      <trkpt lat="45.75309" lon="4.52967">
        <ele>464.2</ele>
        <time>2022-06-26T12:34:47Z</time>
      </trkpt>
      <trkpt lat="45.75309" lon="4.5298">
        <ele>463.6</ele>
        <time>2022-06-26T12:34:48Z</time>
      </trkpt>
      <trkpt lat="45.75309" lon="4.52992">
        <ele>463.4</ele>
        <time>2022-06-26T12:34:49Z</time>
      </trkpt>
      <trkpt lat="45.75308" lon="4.53004">
        <ele>463</ele>
        <time>2022-06-26T12:34:50Z</time>
      </trkpt>
      <trkpt lat="45.75307" lon="4.53016">
        <ele>463</ele>
        <time>2022-06-26T12:34:51Z</time>
      </trkpt>
      <trkpt lat="45.75305" lon="4.53028">
        <ele>462.8</ele>
        <time>2022-06-26T12:34:52Z</time>
      </trkpt>
      <trkpt lat="45.75302" lon="4.53038">
        <ele>462.8</ele>
        <time>2022-06-26T12:34:53Z</time>
      </trkpt>
      <trkpt lat="45.75299" lon="4.53048">
        <ele>462.4</ele>
        <time>2022-06-26T12:34:54Z</time>
      </trkpt>
      <trkpt lat="45.75295" lon="4.53057">
        <ele>462.4</ele>
        <time>2022-06-26T12:34:55Z</time>
      </trkpt>
      <trkpt lat="45.7529" lon="4.53065">
        <ele>462.2</ele>
        <time>2022-06-26T12:34:56Z</time>
      </trkpt>
      <trkpt lat="45.75285" lon="4.53072">
        <ele>462.2</ele>
        <time>2022-06-26T12:34:57Z</time>
      </trkpt>
      <trkpt lat="45.7528" lon="4.53079">
        <ele>462</ele>
        <time>2022-06-26T12:34:58Z</time>
      </trkpt>
      <trkpt lat="45.75275" lon="4.53085">
        <ele>462</ele>
        <time>2022-06-26T12:34:59Z</time>
      </trkpt>
      <trkpt lat="45.75271" lon="4.53092">
        <ele>462</ele>
        <time>2022-06-26T12:35:00Z</time>
      </trkpt>
      <trkpt lat="45.75266" lon="4.53098">
        <ele>461.6</ele>
        <time>2022-06-26T12:35:01Z</time>
      </trkpt>
      <trkpt lat="45.75262" lon="4.53106">
        <ele>461.4</ele>
        <time>2022-06-26T12:35:02Z</time>
      </trkpt>
      <trkpt lat="45.75257" lon="4.53114">
        <ele>461</ele>
        <time>2022-06-26T12:35:03Z</time>
      </trkpt>
      <trkpt lat="45.75254" lon="4.53123">
        <ele>460.6</ele>
        <time>2022-06-26T12:35:04Z</time>
      </trkpt>
      <trkpt lat="45.7525" lon="4.53133">
        <ele>460.6</ele>
        <time>2022-06-26T12:35:05Z</time>
      </trkpt>
      <trkpt lat="45.75246" lon="4.53143">
        <ele>460.2</ele>
        <time>2022-06-26T12:35:06Z</time>
      </trkpt>
      <trkpt lat="45.75243" lon="4.53153">
        <ele>460</ele>
        <time>2022-06-26T12:35:07Z</time>
      </trkpt>
      <trkpt lat="45.7524" lon="4.53163">
        <ele>460</ele>
        <time>2022-06-26T12:35:08Z</time>
      </trkpt>
      <trkpt lat="45.75236" lon="4.53173">
        <ele>459.6</ele>
        <time>2022-06-26T12:35:09Z</time>
      </trkpt>
      <trkpt lat="45.75233" lon="4.53183">
        <ele>459.2</ele>
        <time>2022-06-26T12:35:10Z</time>
      </trkpt>
      <trkpt lat="45.75229" lon="4.53193">
        <ele>458.8</ele>
        <time>2022-06-26T12:35:11Z</time>
      </trkpt>
      <trkpt lat="45.75226" lon="4.53202">
        <ele>458.4</ele>
        <time>2022-06-26T12:35:12Z</time>
      </trkpt>
      <trkpt lat="45.75223" lon="4.53211">
        <ele>458.2</ele>
        <time>2022-06-26T12:35:13Z</time>
      </trkpt>
      <trkpt lat="45.75221" lon="4.53219">
        <ele>458</ele>
        <time>2022-06-26T12:35:14Z</time>
      </trkpt>
      <trkpt lat="45.75218" lon="4.53227">
        <ele>457.6</ele>
        <time>2022-06-26T12:35:15Z</time>
      </trkpt>
      <trkpt lat="45.75217" lon="4.53237">
        <ele>457.4</ele>
        <time>2022-06-26T12:35:16Z</time>
      </trkpt>
      <trkpt lat="45.75215" lon="4.53246">
        <ele>456.6</ele>
        <time>2022-06-26T12:35:17Z</time>
      </trkpt>
      <trkpt lat="45.75213" lon="4.53257">
        <ele>456</ele>
        <time>2022-06-26T12:35:18Z</time>
      </trkpt>
      <trkpt lat="45.75211" lon="4.53268">
        <ele>455.6</ele>
        <time>2022-06-26T12:35:19Z</time>
      </trkpt>
      <trkpt lat="45.75209" lon="4.53279">
        <ele>454.8</ele>
        <time>2022-06-26T12:35:20Z</time>
      </trkpt>
      <trkpt lat="45.75207" lon="4.53291">
        <ele>453.8</ele>
        <time>2022-06-26T12:35:21Z</time>
      </trkpt>
      <trkpt lat="45.75205" lon="4.53303">
        <ele>453</ele>
        <time>2022-06-26T12:35:22Z</time>
      </trkpt>
      <trkpt lat="45.75204" lon="4.53317">
        <ele>452</ele>
        <time>2022-06-26T12:35:23Z</time>
      </trkpt>
      <trkpt lat="45.75203" lon="4.53332">
        <ele>451.4</ele>
        <time>2022-06-26T12:35:24Z</time>
      </trkpt>
      <trkpt lat="45.75203" lon="4.53347">
        <ele>450.6</ele>
        <time>2022-06-26T12:35:25Z</time>
      </trkpt>
      <trkpt lat="45.75201" lon="4.53362">
        <ele>449.8</ele>
        <time>2022-06-26T12:35:26Z</time>
      </trkpt>
      <trkpt lat="45.75199" lon="4.53375">
        <ele>448.8</ele>
        <time>2022-06-26T12:35:27Z</time>
      </trkpt>
      <trkpt lat="45.75197" lon="4.53387">
        <ele>447.6</ele>
        <time>2022-06-26T12:35:28Z</time>
      </trkpt>
      <trkpt lat="45.75195" lon="4.53397">
        <ele>446.6</ele>
        <time>2022-06-26T12:35:29Z</time>
      </trkpt>
      <trkpt lat="45.75193" lon="4.53408">
        <ele>445.8</ele>
        <time>2022-06-26T12:35:30Z</time>
      </trkpt>
      <trkpt lat="45.7519" lon="4.53418">
        <ele>445</ele>
        <time>2022-06-26T12:35:31Z</time>
      </trkpt>
      <trkpt lat="45.75187" lon="4.53427">
        <ele>444</ele>
        <time>2022-06-26T12:35:32Z</time>
      </trkpt>
      <trkpt lat="45.75185" lon="4.53436">
        <ele>443.2</ele>
        <time>2022-06-26T12:35:33Z</time>
      </trkpt>
      <trkpt lat="45.75182" lon="4.53446">
        <ele>442.6</ele>
        <time>2022-06-26T12:35:34Z</time>
      </trkpt>
      <trkpt lat="45.75179" lon="4.53455">
        <ele>442</ele>
        <time>2022-06-26T12:35:35Z</time>
      </trkpt>
      <trkpt lat="45.75175" lon="4.53464">
        <ele>441.4</ele>
        <time>2022-06-26T12:35:36Z</time>
      </trkpt>
      <trkpt lat="45.75172" lon="4.53473">
        <ele>441</ele>
        <time>2022-06-26T12:35:37Z</time>
      </trkpt>
      <trkpt lat="45.75168" lon="4.53483">
        <ele>440.6</ele>
        <time>2022-06-26T12:35:38Z</time>
      </trkpt>
      <trkpt lat="45.75164" lon="4.53492">
        <ele>440.2</ele>
        <time>2022-06-26T12:35:39Z</time>
      </trkpt>
      <trkpt lat="45.7516" lon="4.53502">
        <ele>440</ele>
        <time>2022-06-26T12:35:40Z</time>
      </trkpt>
      <trkpt lat="45.75157" lon="4.53511">
        <ele>439.8</ele>
        <time>2022-06-26T12:35:41Z</time>
      </trkpt>
      <trkpt lat="45.75154" lon="4.5352">
        <ele>439.4</ele>
        <time>2022-06-26T12:35:42Z</time>
      </trkpt>
      <trkpt lat="45.75151" lon="4.53529">
        <ele>439.2</ele>
        <time>2022-06-26T12:35:43Z</time>
      </trkpt>
      <trkpt lat="45.75147" lon="4.53538">
        <ele>439</ele>
        <time>2022-06-26T12:35:44Z</time>
      </trkpt>
      <trkpt lat="45.75144" lon="4.53547">
        <ele>439</ele>
        <time>2022-06-26T12:35:45Z</time>
      </trkpt>
      <trkpt lat="45.75141" lon="4.53556">
        <ele>438.6</ele>
        <time>2022-06-26T12:35:46Z</time>
      </trkpt>
      <trkpt lat="45.75138" lon="4.53564">
        <ele>438.6</ele>
        <time>2022-06-26T12:35:47Z</time>
      </trkpt>
      <trkpt lat="45.75134" lon="4.53573">
        <ele>438.4</ele>
        <time>2022-06-26T12:35:48Z</time>
      </trkpt>
      <trkpt lat="45.75131" lon="4.53581">
        <ele>438.4</ele>
        <time>2022-06-26T12:35:49Z</time>
      </trkpt>
      <trkpt lat="45.75129" lon="4.53589">
        <ele>438.2</ele>
        <time>2022-06-26T12:35:50Z</time>
      </trkpt>
      <trkpt lat="45.75125" lon="4.53597">
        <ele>438.2</ele>
        <time>2022-06-26T12:35:51Z</time>
      </trkpt>
      <trkpt lat="45.75122" lon="4.53606">
        <ele>437.8</ele>
        <time>2022-06-26T12:35:52Z</time>
      </trkpt>
      <trkpt lat="45.75119" lon="4.53614">
        <ele>437.8</ele>
        <time>2022-06-26T12:35:53Z</time>
      </trkpt>
      <trkpt lat="45.75116" lon="4.53621">
        <ele>437.6</ele>
        <time>2022-06-26T12:35:54Z</time>
      </trkpt>
      <trkpt lat="45.75114" lon="4.53629">
        <ele>437.6</ele>
        <time>2022-06-26T12:35:55Z</time>
      </trkpt>
      <trkpt lat="45.75111" lon="4.53637">
        <ele>437.6</ele>
        <time>2022-06-26T12:35:56Z</time>
      </trkpt>
      <trkpt lat="45.75109" lon="4.53645">
        <ele>437.4</ele>
        <time>2022-06-26T12:35:57Z</time>
      </trkpt>
      <trkpt lat="45.75108" lon="4.53654">
        <ele>437.2</ele>
        <time>2022-06-26T12:35:58Z</time>
      </trkpt>
      <trkpt lat="45.75108" lon="4.53663">
        <ele>436.8</ele>
        <time>2022-06-26T12:35:59Z</time>
      </trkpt>
      <trkpt lat="45.75109" lon="4.53673">
        <ele>436.6</ele>
        <time>2022-06-26T12:36:00Z</time>
      </trkpt>
      <trkpt lat="45.7511" lon="4.53683">
        <ele>436.2</ele>
        <time>2022-06-26T12:36:01Z</time>
      </trkpt>
      <trkpt lat="45.75113" lon="4.53692">
        <ele>436</ele>
        <time>2022-06-26T12:36:02Z</time>
      </trkpt>
      <trkpt lat="45.75116" lon="4.53702">
        <ele>435.4</ele>
        <time>2022-06-26T12:36:03Z</time>
      </trkpt>
      <trkpt lat="45.7512" lon="4.53712">
        <ele>435</ele>
        <time>2022-06-26T12:36:04Z</time>
      </trkpt>
      <trkpt lat="45.75124" lon="4.53722">
        <ele>434.6</ele>
        <time>2022-06-26T12:36:05Z</time>
      </trkpt>
      <trkpt lat="45.75128" lon="4.53733">
        <ele>434</ele>
        <time>2022-06-26T12:36:06Z</time>
      </trkpt>
      <trkpt lat="45.75132" lon="4.53744">
        <ele>433.6</ele>
        <time>2022-06-26T12:36:07Z</time>
      </trkpt>
      <trkpt lat="45.75136" lon="4.53755">
        <ele>433</ele>
        <time>2022-06-26T12:36:08Z</time>
      </trkpt>
      <trkpt lat="45.7514" lon="4.53766">
        <ele>432.4</ele>
        <time>2022-06-26T12:36:09Z</time>
      </trkpt>
      <trkpt lat="45.75143" lon="4.53777">
        <ele>432</ele>
        <time>2022-06-26T12:36:10Z</time>
      </trkpt>
      <trkpt lat="45.75146" lon="4.53789">
        <ele>431.4</ele>
        <time>2022-06-26T12:36:11Z</time>
      </trkpt>
      <trkpt lat="45.75149" lon="4.53801">
        <ele>431</ele>
        <time>2022-06-26T12:36:12Z</time>
      </trkpt>
      <trkpt lat="45.75151" lon="4.53813">
        <ele>430.6</ele>
        <time>2022-06-26T12:36:13Z</time>
      </trkpt>
      <trkpt lat="45.75154" lon="4.53825">
        <ele>430.2</ele>
        <time>2022-06-26T12:36:14Z</time>
      </trkpt>
      <trkpt lat="45.75157" lon="4.53837">
        <ele>429.6</ele>
        <time>2022-06-26T12:36:15Z</time>
      </trkpt>
      <trkpt lat="45.7516" lon="4.53848">
        <ele>429.2</ele>
        <time>2022-06-26T12:36:16Z</time>
      </trkpt>
      <trkpt lat="45.75164" lon="4.53859">
        <ele>428.8</ele>
        <time>2022-06-26T12:36:17Z</time>
      </trkpt>
      <trkpt lat="45.75168" lon="4.5387">
        <ele>428.4</ele>
        <time>2022-06-26T12:36:18Z</time>
      </trkpt>
      <trkpt lat="45.75173" lon="4.53881">
        <ele>428</ele>
        <time>2022-06-26T12:36:19Z</time>
      </trkpt>
      <trkpt lat="45.75178" lon="4.5389">
        <ele>427.4</ele>
        <time>2022-06-26T12:36:20Z</time>
      </trkpt>
      <trkpt lat="45.75185" lon="4.53899">
        <ele>427.2</ele>
        <time>2022-06-26T12:36:21Z</time>
      </trkpt>
      <trkpt lat="45.75192" lon="4.53909">
        <ele>426.6</ele>
        <time>2022-06-26T12:36:22Z</time>
      </trkpt>
      <trkpt lat="45.75199" lon="4.53918">
        <ele>425.8</ele>
        <time>2022-06-26T12:36:23Z</time>
      </trkpt>
      <trkpt lat="45.75207" lon="4.53928">
        <ele>425.2</ele>
        <time>2022-06-26T12:36:24Z</time>
      </trkpt>
      <trkpt lat="45.75215" lon="4.53938">
        <ele>424.8</ele>
        <time>2022-06-26T12:36:25Z</time>
      </trkpt>
      <trkpt lat="45.75223" lon="4.53948">
        <ele>424</ele>
        <time>2022-06-26T12:36:26Z</time>
      </trkpt>
      <trkpt lat="45.7523" lon="4.53958">
        <ele>423.6</ele>
        <time>2022-06-26T12:36:27Z</time>
      </trkpt>
      <trkpt lat="45.75238" lon="4.53968">
        <ele>422.8</ele>
        <time>2022-06-26T12:36:28Z</time>
      </trkpt>
      <trkpt lat="45.75247" lon="4.53976">
        <ele>422.2</ele>
        <time>2022-06-26T12:36:29Z</time>
      </trkpt>
      <trkpt lat="45.75256" lon="4.53984">
        <ele>421.4</ele>
        <time>2022-06-26T12:36:30Z</time>
      </trkpt>
      <trkpt lat="45.75265" lon="4.5399">
        <ele>420.2</ele>
        <time>2022-06-26T12:36:31Z</time>
      </trkpt>
      <trkpt lat="45.75274" lon="4.53996">
        <ele>419.6</ele>
        <time>2022-06-26T12:36:32Z</time>
      </trkpt>
      <trkpt lat="45.75281" lon="4.54001">
        <ele>418.6</ele>
        <time>2022-06-26T12:36:33Z</time>
      </trkpt>
      <trkpt lat="45.75289" lon="4.54006">
        <ele>417.8</ele>
        <time>2022-06-26T12:36:34Z</time>
      </trkpt>
      <trkpt lat="45.75297" lon="4.54011">
        <ele>417</ele>
        <time>2022-06-26T12:36:35Z</time>
      </trkpt>
      <trkpt lat="45.75306" lon="4.54017">
        <ele>416.2</ele>
        <time>2022-06-26T12:36:36Z</time>
      </trkpt>
      <trkpt lat="45.75316" lon="4.54021">
        <ele>415.4</ele>
        <time>2022-06-26T12:36:37Z</time>
      </trkpt>
      <trkpt lat="45.75327" lon="4.54027">
        <ele>414.6</ele>
        <time>2022-06-26T12:36:38Z</time>
      </trkpt>
      <trkpt lat="45.75337" lon="4.5403">
        <ele>413.6</ele>
        <time>2022-06-26T12:36:39Z</time>
      </trkpt>
      <trkpt lat="45.75347" lon="4.54031">
        <ele>413</ele>
        <time>2022-06-26T12:36:40Z</time>
      </trkpt>
      <trkpt lat="45.75357" lon="4.54032">
        <ele>412.4</ele>
        <time>2022-06-26T12:36:41Z</time>
      </trkpt>
      <trkpt lat="45.75365" lon="4.54034">
        <ele>411.4</ele>
        <time>2022-06-26T12:36:42Z</time>
      </trkpt>
      <trkpt lat="45.75373" lon="4.54039">
        <ele>410.6</ele>
        <time>2022-06-26T12:36:43Z</time>
      </trkpt>
      <trkpt lat="45.75379" lon="4.54046">
        <ele>409.8</ele>
        <time>2022-06-26T12:36:44Z</time>
      </trkpt>
      <trkpt lat="45.75384" lon="4.54055">
        <ele>409</ele>
        <time>2022-06-26T12:36:45Z</time>
      </trkpt>
      <trkpt lat="45.75387" lon="4.54065">
        <ele>408.4</ele>
        <time>2022-06-26T12:36:46Z</time>
      </trkpt>
      <trkpt lat="45.75388" lon="4.54077">
        <ele>407.8</ele>
        <time>2022-06-26T12:36:47Z</time>
      </trkpt>
      <trkpt lat="45.75387" lon="4.54091">
        <ele>407</ele>
        <time>2022-06-26T12:36:48Z</time>
      </trkpt>
      <trkpt lat="45.75383" lon="4.54104">
        <ele>406.2</ele>
        <time>2022-06-26T12:36:49Z</time>
      </trkpt>
      <trkpt lat="45.75379" lon="4.54118">
        <ele>405.6</ele>
        <time>2022-06-26T12:36:50Z</time>
      </trkpt>
      <trkpt lat="45.75375" lon="4.54132">
        <ele>405</ele>
        <time>2022-06-26T12:36:51Z</time>
      </trkpt>
      <trkpt lat="45.75371" lon="4.54146">
        <ele>404.4</ele>
        <time>2022-06-26T12:36:52Z</time>
      </trkpt>
      <trkpt lat="45.75367" lon="4.54159">
        <ele>403.6</ele>
        <time>2022-06-26T12:36:53Z</time>
      </trkpt>
      <trkpt lat="45.75364" lon="4.54174">
        <ele>402.8</ele>
        <time>2022-06-26T12:36:54Z</time>
      </trkpt>
      <trkpt lat="45.75363" lon="4.54189">
        <ele>402</ele>
        <time>2022-06-26T12:36:55Z</time>
      </trkpt>
      <trkpt lat="45.75363" lon="4.54205">
        <ele>401</ele>
        <time>2022-06-26T12:36:56Z</time>
      </trkpt>
      <trkpt lat="45.75363" lon="4.5422">
        <ele>400</ele>
        <time>2022-06-26T12:36:57Z</time>
      </trkpt>
      <trkpt lat="45.75361" lon="4.54234">
        <ele>399.4</ele>
        <time>2022-06-26T12:36:58Z</time>
      </trkpt>
      <trkpt lat="45.75358" lon="4.54247">
        <ele>398.6</ele>
        <time>2022-06-26T12:36:59Z</time>
      </trkpt>
      <trkpt lat="45.75353" lon="4.54259">
        <ele>397.6</ele>
        <time>2022-06-26T12:37:00Z</time>
      </trkpt>
      <trkpt lat="45.75345" lon="4.54269">
        <ele>396.8</ele>
        <time>2022-06-26T12:37:01Z</time>
      </trkpt>
      <trkpt lat="45.75337" lon="4.54278">
        <ele>396</ele>
        <time>2022-06-26T12:37:02Z</time>
      </trkpt>
      <trkpt lat="45.75328" lon="4.54284">
        <ele>395</ele>
        <time>2022-06-26T12:37:03Z</time>
      </trkpt>
      <trkpt lat="45.75317" lon="4.54289">
        <ele>394.4</ele>
        <time>2022-06-26T12:37:04Z</time>
      </trkpt>
      <trkpt lat="45.75305" lon="4.54293">
        <ele>393.4</ele>
        <time>2022-06-26T12:37:05Z</time>
      </trkpt>
      <trkpt lat="45.75294" lon="4.54299">
        <ele>392.6</ele>
        <time>2022-06-26T12:37:06Z</time>
      </trkpt>
      <trkpt lat="45.75283" lon="4.54303">
        <ele>391.8</ele>
        <time>2022-06-26T12:37:07Z</time>
      </trkpt>
      <trkpt lat="45.75271" lon="4.54306">
        <ele>391.2</ele>
        <time>2022-06-26T12:37:08Z</time>
      </trkpt>
      <trkpt lat="45.7526" lon="4.5431">
        <ele>390</ele>
        <time>2022-06-26T12:37:09Z</time>
      </trkpt>
      <trkpt lat="45.7525" lon="4.54313">
        <ele>389</ele>
        <time>2022-06-26T12:37:10Z</time>
      </trkpt>
      <trkpt lat="45.75239" lon="4.54315">
        <ele>388.2</ele>
        <time>2022-06-26T12:37:11Z</time>
      </trkpt>
      <trkpt lat="45.75228" lon="4.54316">
        <ele>387.2</ele>
        <time>2022-06-26T12:37:12Z</time>
      </trkpt>
      <trkpt lat="45.75218" lon="4.54316">
        <ele>386.4</ele>
        <time>2022-06-26T12:37:13Z</time>
      </trkpt>
      <trkpt lat="45.75208" lon="4.54316">
        <ele>385.6</ele>
        <time>2022-06-26T12:37:14Z</time>
      </trkpt>
      <trkpt lat="45.75197" lon="4.54315">
        <ele>384.8</ele>
        <time>2022-06-26T12:37:15Z</time>
      </trkpt>
      <trkpt lat="45.75187" lon="4.54314">
        <ele>384</ele>
        <time>2022-06-26T12:37:16Z</time>
      </trkpt>
      <trkpt lat="45.75176" lon="4.5431">
        <ele>383.4</ele>
        <time>2022-06-26T12:37:17Z</time>
      </trkpt>
      <trkpt lat="45.75166" lon="4.54306">
        <ele>382.4</ele>
        <time>2022-06-26T12:37:18Z</time>
      </trkpt>
      <trkpt lat="45.75144" lon="4.54295">
        <ele>381.6</ele>
        <time>2022-06-26T12:37:19Z</time>
      </trkpt>
      <trkpt lat="45.75133" lon="4.54287">
        <ele>381</ele>
        <time>2022-06-26T12:37:20Z</time>
      </trkpt>
      <trkpt lat="45.75123" lon="4.54278">
        <ele>380.4</ele>
        <time>2022-06-26T12:37:21Z</time>
      </trkpt>
      <trkpt lat="45.75112" lon="4.54271">
        <ele>379.8</ele>
        <time>2022-06-26T12:37:22Z</time>
      </trkpt>
      <trkpt lat="45.75102" lon="4.54263">
        <ele>379.2</ele>
        <time>2022-06-26T12:37:23Z</time>
      </trkpt>
      <trkpt lat="45.75091" lon="4.54256">
        <ele>378.6</ele>
        <time>2022-06-26T12:37:24Z</time>
      </trkpt>
      <trkpt lat="45.75081" lon="4.54248">
        <ele>377.8</ele>
        <time>2022-06-26T12:37:25Z</time>
      </trkpt>
      <trkpt lat="45.75072" lon="4.54241">
        <ele>377.2</ele>
        <time>2022-06-26T12:37:26Z</time>
      </trkpt>
      <trkpt lat="45.75063" lon="4.54232">
        <ele>376.4</ele>
        <time>2022-06-26T12:37:27Z</time>
      </trkpt>
      <trkpt lat="45.75055" lon="4.54224">
        <ele>375.4</ele>
        <time>2022-06-26T12:37:28Z</time>
      </trkpt>
      <trkpt lat="45.75047" lon="4.54217">
        <ele>374.6</ele>
        <time>2022-06-26T12:37:29Z</time>
      </trkpt>
      <trkpt lat="45.7504" lon="4.54208">
        <ele>374</ele>
        <time>2022-06-26T12:37:30Z</time>
      </trkpt>
      <trkpt lat="45.75035" lon="4.54201">
        <ele>373.2</ele>
        <time>2022-06-26T12:37:31Z</time>
      </trkpt>
      <trkpt lat="45.75029" lon="4.54194">
        <ele>372.6</ele>
        <time>2022-06-26T12:37:32Z</time>
      </trkpt>
      <trkpt lat="45.75024" lon="4.54189">
        <ele>372</ele>
        <time>2022-06-26T12:37:33Z</time>
      </trkpt>
      <trkpt lat="45.7502" lon="4.54183">
        <ele>371.4</ele>
        <time>2022-06-26T12:37:34Z</time>
      </trkpt>
      <trkpt lat="45.75016" lon="4.54179">
        <ele>371</ele>
        <time>2022-06-26T12:37:35Z</time>
      </trkpt>
      <trkpt lat="45.75012" lon="4.54176">
        <ele>370.4</ele>
        <time>2022-06-26T12:37:36Z</time>
      </trkpt>
      <trkpt lat="45.75008" lon="4.54177">
        <ele>370.2</ele>
        <time>2022-06-26T12:37:37Z</time>
      </trkpt>
      <trkpt lat="45.75003" lon="4.54182">
        <ele>369.8</ele>
        <time>2022-06-26T12:37:38Z</time>
      </trkpt>
      <trkpt lat="45.75" lon="4.54189">
        <ele>369.4</ele>
        <time>2022-06-26T12:37:39Z</time>
      </trkpt>
      <trkpt lat="45.74999" lon="4.54199">
        <ele>369.2</ele>
        <time>2022-06-26T12:37:40Z</time>
      </trkpt>
      <trkpt lat="45.75" lon="4.54209">
        <ele>369</ele>
        <time>2022-06-26T12:37:41Z</time>
      </trkpt>
      <trkpt lat="45.75001" lon="4.54219">
        <ele>368.6</ele>
        <time>2022-06-26T12:37:42Z</time>
      </trkpt>
      <trkpt lat="45.75004" lon="4.5423">
        <ele>368</ele>
        <time>2022-06-26T12:37:43Z</time>
      </trkpt>
      <trkpt lat="45.75007" lon="4.54241">
        <ele>367.4</ele>
        <time>2022-06-26T12:37:44Z</time>
      </trkpt>
      <trkpt lat="45.75009" lon="4.54253">
        <ele>366.8</ele>
        <time>2022-06-26T12:37:45Z</time>
      </trkpt>
      <trkpt lat="45.75012" lon="4.54265">
        <ele>366.2</ele>
        <time>2022-06-26T12:37:46Z</time>
      </trkpt>
      <trkpt lat="45.75015" lon="4.54277">
        <ele>365.8</ele>
        <time>2022-06-26T12:37:47Z</time>
      </trkpt>
      <trkpt lat="45.75019" lon="4.54291">
        <ele>365.2</ele>
        <time>2022-06-26T12:37:48Z</time>
      </trkpt>
      <trkpt lat="45.75024" lon="4.54304">
        <ele>364.6</ele>
        <time>2022-06-26T12:37:49Z</time>
      </trkpt>
      <trkpt lat="45.75029" lon="4.54317">
        <ele>364.2</ele>
        <time>2022-06-26T12:37:50Z</time>
      </trkpt>
      <trkpt lat="45.75035" lon="4.54331">
        <ele>364</ele>
        <time>2022-06-26T12:37:51Z</time>
      </trkpt>
      <trkpt lat="45.75041" lon="4.54345">
        <ele>363.6</ele>
        <time>2022-06-26T12:37:52Z</time>
      </trkpt>
      <trkpt lat="45.75047" lon="4.54359">
        <ele>363.2</ele>
        <time>2022-06-26T12:37:53Z</time>
      </trkpt>
      <trkpt lat="45.75053" lon="4.54374">
        <ele>362.4</ele>
        <time>2022-06-26T12:37:54Z</time>
      </trkpt>
      <trkpt lat="45.75059" lon="4.54387">
        <ele>362</ele>
        <time>2022-06-26T12:37:55Z</time>
      </trkpt>
      <trkpt lat="45.75065" lon="4.544">
        <ele>360.8</ele>
        <time>2022-06-26T12:37:56Z</time>
      </trkpt>
      <trkpt lat="45.75071" lon="4.54413">
        <ele>359.8</ele>
        <time>2022-06-26T12:37:57Z</time>
      </trkpt>
      <trkpt lat="45.75077" lon="4.54425">
        <ele>358.4</ele>
        <time>2022-06-26T12:37:58Z</time>
      </trkpt>
      <trkpt lat="45.75083" lon="4.54437">
        <ele>357.4</ele>
        <time>2022-06-26T12:37:59Z</time>
      </trkpt>
      <trkpt lat="45.75089" lon="4.5445">
        <ele>356.4</ele>
        <time>2022-06-26T12:38:00Z</time>
      </trkpt>
      <trkpt lat="45.75094" lon="4.54464">
        <ele>355.4</ele>
        <time>2022-06-26T12:38:01Z</time>
      </trkpt>
      <trkpt lat="45.75099" lon="4.54477">
        <ele>354.6</ele>
        <time>2022-06-26T12:38:02Z</time>
      </trkpt>
      <trkpt lat="45.75103" lon="4.54491">
        <ele>354.2</ele>
        <time>2022-06-26T12:38:03Z</time>
      </trkpt>
      <trkpt lat="45.75106" lon="4.54505">
        <ele>353.2</ele>
        <time>2022-06-26T12:38:04Z</time>
      </trkpt>
      <trkpt lat="45.7511" lon="4.54519">
        <ele>352.4</ele>
        <time>2022-06-26T12:38:05Z</time>
      </trkpt>
      <trkpt lat="45.75113" lon="4.54532">
        <ele>351.6</ele>
        <time>2022-06-26T12:38:06Z</time>
      </trkpt>
      <trkpt lat="45.75116" lon="4.54546">
        <ele>351</ele>
        <time>2022-06-26T12:38:07Z</time>
      </trkpt>
      <trkpt lat="45.75119" lon="4.54559">
        <ele>350.6</ele>
        <time>2022-06-26T12:38:08Z</time>
      </trkpt>
      <trkpt lat="45.75124" lon="4.54572">
        <ele>350.2</ele>
        <time>2022-06-26T12:38:09Z</time>
      </trkpt>
      <trkpt lat="45.75129" lon="4.54583">
        <ele>349.8</ele>
        <time>2022-06-26T12:38:10Z</time>
      </trkpt>
      <trkpt lat="45.75136" lon="4.54593">
        <ele>348.8</ele>
        <time>2022-06-26T12:38:11Z</time>
      </trkpt>
      <trkpt lat="45.75143" lon="4.54602">
        <ele>348.2</ele>
        <time>2022-06-26T12:38:12Z</time>
      </trkpt>
      <trkpt lat="45.7515" lon="4.54611">
        <ele>347.4</ele>
        <time>2022-06-26T12:38:13Z</time>
      </trkpt>
      <trkpt lat="45.75158" lon="4.54618">
        <ele>346.6</ele>
        <time>2022-06-26T12:38:14Z</time>
      </trkpt>
      <trkpt lat="45.75165" lon="4.54626">
        <ele>345.8</ele>
        <time>2022-06-26T12:38:15Z</time>
      </trkpt>
      <trkpt lat="45.75171" lon="4.54633">
        <ele>345.2</ele>
        <time>2022-06-26T12:38:16Z</time>
      </trkpt>
      <trkpt lat="45.75177" lon="4.54639">
        <ele>344.6</ele>
        <time>2022-06-26T12:38:17Z</time>
      </trkpt>
      <trkpt lat="45.75185" lon="4.54643">
        <ele>344</ele>
        <time>2022-06-26T12:38:18Z</time>
      </trkpt>
      <trkpt lat="45.75193" lon="4.54644">
        <ele>343.2</ele>
        <time>2022-06-26T12:38:19Z</time>
      </trkpt>
      <trkpt lat="45.75202" lon="4.54643">
        <ele>342.4</ele>
        <time>2022-06-26T12:38:20Z</time>
      </trkpt>
      <trkpt lat="45.7521" lon="4.54641">
        <ele>341.6</ele>
        <time>2022-06-26T12:38:21Z</time>
      </trkpt>
      <trkpt lat="45.75218" lon="4.54638">
        <ele>340.6</ele>
        <time>2022-06-26T12:38:22Z</time>
      </trkpt>
      <trkpt lat="45.75225" lon="4.54636">
        <ele>339.8</ele>
        <time>2022-06-26T12:38:23Z</time>
      </trkpt>
      <trkpt lat="45.75233" lon="4.54634">
        <ele>338.8</ele>
        <time>2022-06-26T12:38:24Z</time>
      </trkpt>
      <trkpt lat="45.75239" lon="4.54632">
        <ele>338</ele>
        <time>2022-06-26T12:38:25Z</time>
      </trkpt>
      <trkpt lat="45.75246" lon="4.54631">
        <ele>337.2</ele>
        <time>2022-06-26T12:38:26Z</time>
      </trkpt>
      <trkpt lat="45.75251" lon="4.54633">
        <ele>336.4</ele>
        <time>2022-06-26T12:38:27Z</time>
      </trkpt>
      <trkpt lat="45.75256" lon="4.54637">
        <ele>335.6</ele>
        <time>2022-06-26T12:38:28Z</time>
      </trkpt>
      <trkpt lat="45.75259" lon="4.54643">
        <ele>334.8</ele>
        <time>2022-06-26T12:38:29Z</time>
      </trkpt>
      <trkpt lat="45.7526" lon="4.54652">
        <ele>334.2</ele>
        <time>2022-06-26T12:38:30Z</time>
      </trkpt>
      <trkpt lat="45.75258" lon="4.54661">
        <ele>333.6</ele>
        <time>2022-06-26T12:38:31Z</time>
      </trkpt>
      <trkpt lat="45.75254" lon="4.5467">
        <ele>332.8</ele>
        <time>2022-06-26T12:38:32Z</time>
      </trkpt>
      <trkpt lat="45.75249" lon="4.54677">
        <ele>332.2</ele>
        <time>2022-06-26T12:38:33Z</time>
      </trkpt>
      <trkpt lat="45.75243" lon="4.54683">
        <ele>331.8</ele>
        <time>2022-06-26T12:38:34Z</time>
      </trkpt>
      <trkpt lat="45.75237" lon="4.54689">
        <ele>331.2</ele>
        <time>2022-06-26T12:38:35Z</time>
      </trkpt>
      <trkpt lat="45.75233" lon="4.54695">
        <ele>330.6</ele>
        <time>2022-06-26T12:38:36Z</time>
      </trkpt>
      <trkpt lat="45.75229" lon="4.54702">
        <ele>330</ele>
        <time>2022-06-26T12:38:37Z</time>
      </trkpt>
      <trkpt lat="45.75226" lon="4.54708">
        <ele>329.6</ele>
        <time>2022-06-26T12:38:38Z</time>
      </trkpt>
      <trkpt lat="45.75223" lon="4.54714">
        <ele>329.2</ele>
        <time>2022-06-26T12:38:39Z</time>
      </trkpt>
      <trkpt lat="45.75221" lon="4.54719">
        <ele>328.8</ele>
        <time>2022-06-26T12:38:40Z</time>
      </trkpt>
      <trkpt lat="45.75219" lon="4.54724">
        <ele>328.4</ele>
        <time>2022-06-26T12:38:41Z</time>
      </trkpt>
      <trkpt lat="45.75217" lon="4.54729">
        <ele>328.2</ele>
        <time>2022-06-26T12:38:42Z</time>
      </trkpt>
      <trkpt lat="45.75215" lon="4.54733">
        <ele>328</ele>
        <time>2022-06-26T12:38:43Z</time>
      </trkpt>
      <trkpt lat="45.75212" lon="4.54736">
        <ele>328</ele>
        <time>2022-06-26T12:38:44Z</time>
      </trkpt>
      <trkpt lat="45.75209" lon="4.54738">
        <ele>327.6</ele>
        <time>2022-06-26T12:38:45Z</time>
      </trkpt>
      <trkpt lat="45.75206" lon="4.54738">
        <ele>327.6</ele>
        <time>2022-06-26T12:38:46Z</time>
      </trkpt>
      <trkpt lat="45.75203" lon="4.54737">
        <ele>327.6</ele>
        <time>2022-06-26T12:38:47Z</time>
      </trkpt>
      <trkpt lat="45.752" lon="4.54735">
        <ele>327.6</ele>
        <time>2022-06-26T12:38:48Z</time>
      </trkpt>
      <trkpt lat="45.75197" lon="4.54733">
        <ele>328</ele>
        <time>2022-06-26T12:38:49Z</time>
      </trkpt>
      <trkpt lat="45.75194" lon="4.5473">
        <ele>328</ele>
        <time>2022-06-26T12:38:50Z</time>
      </trkpt>
      <trkpt lat="45.75192" lon="4.54727">
        <ele>328</ele>
        <time>2022-06-26T12:38:51Z</time>
      </trkpt>
      <trkpt lat="45.7519" lon="4.54724">
        <ele>328.2</ele>
        <time>2022-06-26T12:38:52Z</time>
      </trkpt>
      <trkpt lat="45.75187" lon="4.54721">
        <ele>328.2</ele>
        <time>2022-06-26T12:38:53Z</time>
      </trkpt>
      <trkpt lat="45.75185" lon="4.54718">
        <ele>328.2</ele>
        <time>2022-06-26T12:38:54Z</time>
      </trkpt>
      <trkpt lat="45.75182" lon="4.54715">
        <ele>328.6</ele>
        <time>2022-06-26T12:38:55Z</time>
      </trkpt>
      <trkpt lat="45.7518" lon="4.54712">
        <ele>328.6</ele>
        <time>2022-06-26T12:38:56Z</time>
      </trkpt>
      <trkpt lat="45.75177" lon="4.54709">
        <ele>328.6</ele>
        <time>2022-06-26T12:38:57Z</time>
      </trkpt>
      <trkpt lat="45.75175" lon="4.54706">
        <ele>328.8</ele>
        <time>2022-06-26T12:38:58Z</time>
      </trkpt>
      <trkpt lat="45.75173" lon="4.54704">
        <ele>328.8</ele>
        <time>2022-06-26T12:38:59Z</time>
      </trkpt>
      <trkpt lat="45.7517" lon="4.54701">
        <ele>328.8</ele>
        <time>2022-06-26T12:39:00Z</time>
      </trkpt>
      <trkpt lat="45.75168" lon="4.54698">
        <ele>328.8</ele>
        <time>2022-06-26T12:39:01Z</time>
      </trkpt>
      <trkpt lat="45.75165" lon="4.54696">
        <ele>329</ele>
        <time>2022-06-26T12:39:02Z</time>
      </trkpt>
      <trkpt lat="45.75163" lon="4.54695">
        <ele>329</ele>
        <time>2022-06-26T12:39:03Z</time>
      </trkpt>
      <trkpt lat="45.7516" lon="4.54694">
        <ele>329.2</ele>
        <time>2022-06-26T12:39:04Z</time>
      </trkpt>
      <trkpt lat="45.75157" lon="4.54695">
        <ele>329.2</ele>
        <time>2022-06-26T12:39:05Z</time>
      </trkpt>
      <trkpt lat="45.75154" lon="4.54695">
        <ele>329.2</ele>
        <time>2022-06-26T12:39:06Z</time>
      </trkpt>
      <trkpt lat="45.75151" lon="4.54696">
        <ele>329.2</ele>
        <time>2022-06-26T12:39:07Z</time>
      </trkpt>
      <trkpt lat="45.75147" lon="4.54698">
        <ele>329.2</ele>
        <time>2022-06-26T12:39:08Z</time>
      </trkpt>
      <trkpt lat="45.75143" lon="4.54701">
        <ele>329.2</ele>
        <time>2022-06-26T12:39:09Z</time>
      </trkpt>
      <trkpt lat="45.75138" lon="4.54703">
        <ele>329</ele>
        <time>2022-06-26T12:39:10Z</time>
      </trkpt>
      <trkpt lat="45.75134" lon="4.54707">
        <ele>329</ele>
        <time>2022-06-26T12:39:11Z</time>
      </trkpt>
      <trkpt lat="45.75129" lon="4.5471">
        <ele>328.8</ele>
        <time>2022-06-26T12:39:12Z</time>
      </trkpt>
      <trkpt lat="45.75125" lon="4.54714">
        <ele>328.8</ele>
        <time>2022-06-26T12:39:13Z</time>
      </trkpt>
      <trkpt lat="45.7512" lon="4.54717">
        <ele>328.6</ele>
        <time>2022-06-26T12:39:14Z</time>
      </trkpt>
      <trkpt lat="45.75116" lon="4.5472">
        <ele>328.6</ele>
        <time>2022-06-26T12:39:15Z</time>
      </trkpt>
      <trkpt lat="45.75111" lon="4.54723">
        <ele>328.2</ele>
        <time>2022-06-26T12:39:16Z</time>
      </trkpt>
      <trkpt lat="45.75107" lon="4.54727">
        <ele>328.2</ele>
        <time>2022-06-26T12:39:17Z</time>
      </trkpt>
      <trkpt lat="45.75102" lon="4.54729">
        <ele>328.2</ele>
        <time>2022-06-26T12:39:18Z</time>
      </trkpt>
      <trkpt lat="45.75098" lon="4.54732">
        <ele>328.2</ele>
        <time>2022-06-26T12:39:19Z</time>
      </trkpt>
      <trkpt lat="45.75094" lon="4.54735">
        <ele>328.2</ele>
        <time>2022-06-26T12:39:20Z</time>
      </trkpt>
      <trkpt lat="45.7509" lon="4.54738">
        <ele>328.2</ele>
        <time>2022-06-26T12:39:21Z</time>
      </trkpt>
      <trkpt lat="45.75087" lon="4.54741">
        <ele>328.2</ele>
        <time>2022-06-26T12:39:22Z</time>
      </trkpt>
      <trkpt lat="45.75083" lon="4.54744">
        <ele>328.2</ele>
        <time>2022-06-26T12:39:23Z</time>
      </trkpt>
      <trkpt lat="45.75079" lon="4.54747">
        <ele>328.2</ele>
        <time>2022-06-26T12:39:24Z</time>
      </trkpt>
      <trkpt lat="45.75075" lon="4.54749">
        <ele>328.2</ele>
        <time>2022-06-26T12:39:25Z</time>
      </trkpt>
      <trkpt lat="45.75071" lon="4.54751">
        <ele>328.2</ele>
        <time>2022-06-26T12:39:26Z</time>
      </trkpt>
      <trkpt lat="45.75067" lon="4.54754">
        <ele>328.2</ele>
        <time>2022-06-26T12:39:27Z</time>
      </trkpt>
      <trkpt lat="45.75063" lon="4.54757">
        <ele>328.2</ele>
        <time>2022-06-26T12:39:28Z</time>
      </trkpt>
      <trkpt lat="45.7506" lon="4.5476">
        <ele>328.6</ele>
        <time>2022-06-26T12:39:29Z</time>
      </trkpt>
      <trkpt lat="45.75056" lon="4.54764">
        <ele>328.6</ele>
        <time>2022-06-26T12:39:30Z</time>
      </trkpt>
      <trkpt lat="45.75052" lon="4.54767">
        <ele>328.6</ele>
        <time>2022-06-26T12:39:31Z</time>
      </trkpt>
      <trkpt lat="45.75048" lon="4.5477">
        <ele>328.6</ele>
        <time>2022-06-26T12:39:32Z</time>
      </trkpt>
      <trkpt lat="45.75045" lon="4.54772">
        <ele>328.6</ele>
        <time>2022-06-26T12:39:33Z</time>
      </trkpt>
      <trkpt lat="45.75041" lon="4.54774">
        <ele>328.8</ele>
        <time>2022-06-26T12:39:34Z</time>
      </trkpt>
      <trkpt lat="45.75037" lon="4.54776">
        <ele>328.8</ele>
        <time>2022-06-26T12:39:35Z</time>
      </trkpt>
      <trkpt lat="45.75033" lon="4.54778">
        <ele>328.8</ele>
        <time>2022-06-26T12:39:36Z</time>
      </trkpt>
      <trkpt lat="45.75029" lon="4.54781">
        <ele>329.2</ele>
        <time>2022-06-26T12:39:37Z</time>
      </trkpt>
      <trkpt lat="45.75026" lon="4.54783">
        <ele>329.2</ele>
        <time>2022-06-26T12:39:38Z</time>
      </trkpt>
      <trkpt lat="45.75022" lon="4.54784">
        <ele>329.2</ele>
        <time>2022-06-26T12:39:39Z</time>
      </trkpt>
      <trkpt lat="45.7502" lon="4.54787">
        <ele>329.4</ele>
        <time>2022-06-26T12:39:40Z</time>
      </trkpt>
      <trkpt lat="45.75017" lon="4.5479">
        <ele>329.4</ele>
        <time>2022-06-26T12:39:41Z</time>
      </trkpt>
      <trkpt lat="45.75015" lon="4.54793">
        <ele>329.4</ele>
        <time>2022-06-26T12:39:42Z</time>
      </trkpt>
      <trkpt lat="45.75014" lon="4.54797">
        <ele>329.6</ele>
        <time>2022-06-26T12:39:43Z</time>
      </trkpt>
      <trkpt lat="45.75014" lon="4.54801">
        <ele>329.6</ele>
        <time>2022-06-26T12:39:44Z</time>
      </trkpt>
      <trkpt lat="45.75014" lon="4.54806">
        <ele>329.6</ele>
        <time>2022-06-26T12:39:45Z</time>
      </trkpt>
      <trkpt lat="45.75014" lon="4.5481">
        <ele>329.6</ele>
        <time>2022-06-26T12:39:46Z</time>
      </trkpt>
      <trkpt lat="45.75015" lon="4.54815">
        <ele>330</ele>
        <time>2022-06-26T12:39:47Z</time>
      </trkpt>
      <trkpt lat="45.75016" lon="4.5482">
        <ele>330</ele>
        <time>2022-06-26T12:39:48Z</time>
      </trkpt>
      <trkpt lat="45.75018" lon="4.54824">
        <ele>330</ele>
        <time>2022-06-26T12:39:49Z</time>
      </trkpt>
      <trkpt lat="45.7502" lon="4.5483">
        <ele>330</ele>
        <time>2022-06-26T12:39:50Z</time>
      </trkpt>
      <trkpt lat="45.75022" lon="4.54835">
        <ele>330</ele>
        <time>2022-06-26T12:39:51Z</time>
      </trkpt>
      <trkpt lat="45.75024" lon="4.5484">
        <ele>330</ele>
        <time>2022-06-26T12:39:52Z</time>
      </trkpt>
      <trkpt lat="45.75026" lon="4.54846">
        <ele>330</ele>
        <time>2022-06-26T12:39:53Z</time>
      </trkpt>
      <trkpt lat="45.75028" lon="4.54851">
        <ele>330</ele>
        <time>2022-06-26T12:39:54Z</time>
      </trkpt>
      <trkpt lat="45.75031" lon="4.54856">
        <ele>330</ele>
        <time>2022-06-26T12:39:55Z</time>
      </trkpt>
      <trkpt lat="45.75033" lon="4.54861">
        <ele>330</ele>
        <time>2022-06-26T12:39:56Z</time>
      </trkpt>
      <trkpt lat="45.75035" lon="4.54867">
        <ele>330</ele>
        <time>2022-06-26T12:39:57Z</time>
      </trkpt>
      <trkpt lat="45.75037" lon="4.54872">
        <ele>330</ele>
        <time>2022-06-26T12:39:58Z</time>
      </trkpt>
      <trkpt lat="45.75039" lon="4.54878">
        <ele>330</ele>
        <time>2022-06-26T12:39:59Z</time>
      </trkpt>
      <trkpt lat="45.7504" lon="4.54884">
        <ele>330</ele>
        <time>2022-06-26T12:40:00Z</time>
      </trkpt>
      <trkpt lat="45.75042" lon="4.54889">
        <ele>330</ele>
        <time>2022-06-26T12:40:01Z</time>
      </trkpt>
      <trkpt lat="45.75044" lon="4.54894">
        <ele>330.2</ele>
        <time>2022-06-26T12:40:02Z</time>
      </trkpt>
      <trkpt lat="45.75046" lon="4.54899">
        <ele>330.2</ele>
        <time>2022-06-26T12:40:03Z</time>
      </trkpt>
      <trkpt lat="45.75048" lon="4.54904">
        <ele>330.4</ele>
        <time>2022-06-26T12:40:04Z</time>
      </trkpt>
      <trkpt lat="45.75049" lon="4.54909">
        <ele>330.4</ele>
        <time>2022-06-26T12:40:05Z</time>
      </trkpt>
      <trkpt lat="45.75051" lon="4.54914">
        <ele>330.4</ele>
        <time>2022-06-26T12:40:06Z</time>
      </trkpt>
      <trkpt lat="45.75052" lon="4.54918">
        <ele>330.8</ele>
        <time>2022-06-26T12:40:07Z</time>
      </trkpt>
      <trkpt lat="45.75054" lon="4.54923">
        <ele>330.8</ele>
        <time>2022-06-26T12:40:08Z</time>
      </trkpt>
      <trkpt lat="45.75055" lon="4.54928">
        <ele>331</ele>
        <time>2022-06-26T12:40:09Z</time>
      </trkpt>
      <trkpt lat="45.75057" lon="4.54934">
        <ele>331</ele>
        <time>2022-06-26T12:40:10Z</time>
      </trkpt>
      <trkpt lat="45.75058" lon="4.54939">
        <ele>331.4</ele>
        <time>2022-06-26T12:40:11Z</time>
      </trkpt>
      <trkpt lat="45.75059" lon="4.54944">
        <ele>331.4</ele>
        <time>2022-06-26T12:40:12Z</time>
      </trkpt>
      <trkpt lat="45.7506" lon="4.5495">
        <ele>331.6</ele>
        <time>2022-06-26T12:40:13Z</time>
      </trkpt>
      <trkpt lat="45.7506" lon="4.54955">
        <ele>331.6</ele>
        <time>2022-06-26T12:40:14Z</time>
      </trkpt>
      <trkpt lat="45.7506" lon="4.5496">
        <ele>332</ele>
        <time>2022-06-26T12:40:15Z</time>
      </trkpt>
      <trkpt lat="45.7506" lon="4.54966">
        <ele>332</ele>
        <time>2022-06-26T12:40:16Z</time>
      </trkpt>
      <trkpt lat="45.7506" lon="4.54972">
        <ele>332.2</ele>
        <time>2022-06-26T12:40:17Z</time>
      </trkpt>
      <trkpt lat="45.7506" lon="4.54977">
        <ele>332.2</ele>
        <time>2022-06-26T12:40:18Z</time>
      </trkpt>
      <trkpt lat="45.75059" lon="4.54984">
        <ele>332.2</ele>
        <time>2022-06-26T12:40:19Z</time>
      </trkpt>
      <trkpt lat="45.75058" lon="4.5499">
        <ele>332.2</ele>
        <time>2022-06-26T12:40:20Z</time>
      </trkpt>
      <trkpt lat="45.75058" lon="4.54997">
        <ele>332.2</ele>
        <time>2022-06-26T12:40:21Z</time>
      </trkpt>
      <trkpt lat="45.75059" lon="4.55003">
        <ele>332.4</ele>
        <time>2022-06-26T12:40:22Z</time>
      </trkpt>
      <trkpt lat="45.75061" lon="4.55008">
        <ele>332.4</ele>
        <time>2022-06-26T12:40:23Z</time>
      </trkpt>
      <trkpt lat="45.75063" lon="4.55013">
        <ele>332.8</ele>
        <time>2022-06-26T12:40:24Z</time>
      </trkpt>
      <trkpt lat="45.75065" lon="4.55018">
        <ele>332.8</ele>
        <time>2022-06-26T12:40:25Z</time>
      </trkpt>
      <trkpt lat="45.75068" lon="4.55022">
        <ele>333.2</ele>
        <time>2022-06-26T12:40:26Z</time>
      </trkpt>
      <trkpt lat="45.75071" lon="4.55026">
        <ele>333.2</ele>
        <time>2022-06-26T12:40:27Z</time>
      </trkpt>
      <trkpt lat="45.75074" lon="4.5503">
        <ele>333.2</ele>
        <time>2022-06-26T12:40:28Z</time>
      </trkpt>
      <trkpt lat="45.75077" lon="4.55034">
        <ele>333.4</ele>
        <time>2022-06-26T12:40:29Z</time>
      </trkpt>
      <trkpt lat="45.75079" lon="4.55039">
        <ele>333.4</ele>
        <time>2022-06-26T12:40:30Z</time>
      </trkpt>
      <trkpt lat="45.75082" lon="4.55043">
        <ele>333.4</ele>
        <time>2022-06-26T12:40:31Z</time>
      </trkpt>
      <trkpt lat="45.75085" lon="4.55047">
        <ele>333.6</ele>
        <time>2022-06-26T12:40:32Z</time>
      </trkpt>
      <trkpt lat="45.75088" lon="4.55051">
        <ele>333.6</ele>
        <time>2022-06-26T12:40:33Z</time>
      </trkpt>
      <trkpt lat="45.75091" lon="4.55055">
        <ele>333.8</ele>
        <time>2022-06-26T12:40:34Z</time>
      </trkpt>
      <trkpt lat="45.75094" lon="4.55059">
        <ele>333.8</ele>
        <time>2022-06-26T12:40:35Z</time>
      </trkpt>
      <trkpt lat="45.75097" lon="4.55064">
        <ele>334</ele>
        <time>2022-06-26T12:40:36Z</time>
      </trkpt>
      <trkpt lat="45.751" lon="4.55069">
        <ele>334</ele>
        <time>2022-06-26T12:40:37Z</time>
      </trkpt>
      <trkpt lat="45.75102" lon="4.55074">
        <ele>334</ele>
        <time>2022-06-26T12:40:38Z</time>
      </trkpt>
      <trkpt lat="45.75105" lon="4.55079">
        <ele>334.4</ele>
        <time>2022-06-26T12:40:39Z</time>
      </trkpt>
      <trkpt lat="45.75107" lon="4.55084">
        <ele>334.4</ele>
        <time>2022-06-26T12:40:40Z</time>
      </trkpt>
      <trkpt lat="45.7511" lon="4.5509">
        <ele>334.4</ele>
        <time>2022-06-26T12:40:41Z</time>
      </trkpt>
      <trkpt lat="45.75112" lon="4.55095">
        <ele>334.6</ele>
        <time>2022-06-26T12:40:42Z</time>
      </trkpt>
      <trkpt lat="45.75114" lon="4.55101">
        <ele>334.6</ele>
        <time>2022-06-26T12:40:43Z</time>
      </trkpt>
      <trkpt lat="45.75117" lon="4.55106">
        <ele>334.8</ele>
        <time>2022-06-26T12:40:44Z</time>
      </trkpt>
      <trkpt lat="45.75119" lon="4.55112">
        <ele>334.8</ele>
        <time>2022-06-26T12:40:45Z</time>
      </trkpt>
      <trkpt lat="45.75122" lon="4.55117">
        <ele>334.8</ele>
        <time>2022-06-26T12:40:46Z</time>
      </trkpt>
      <trkpt lat="45.75124" lon="4.55123">
        <ele>335</ele>
        <time>2022-06-26T12:40:47Z</time>
      </trkpt>
      <trkpt lat="45.75126" lon="4.55129">
        <ele>335</ele>
        <time>2022-06-26T12:40:48Z</time>
      </trkpt>
      <trkpt lat="45.75129" lon="4.55134">
        <ele>335</ele>
        <time>2022-06-26T12:40:49Z</time>
      </trkpt>
      <trkpt lat="45.75131" lon="4.55139">
        <ele>335.4</ele>
        <time>2022-06-26T12:40:50Z</time>
      </trkpt>
      <trkpt lat="45.75133" lon="4.55145">
        <ele>335.4</ele>
        <time>2022-06-26T12:40:51Z</time>
      </trkpt>
      <trkpt lat="45.75135" lon="4.5515">
        <ele>335.4</ele>
        <time>2022-06-26T12:40:52Z</time>
      </trkpt>
      <trkpt lat="45.75137" lon="4.55155">
        <ele>335.6</ele>
        <time>2022-06-26T12:40:53Z</time>
      </trkpt>
      <trkpt lat="45.75139" lon="4.5516">
        <ele>335.6</ele>
        <time>2022-06-26T12:40:54Z</time>
      </trkpt>
      <trkpt lat="45.7514" lon="4.55166">
        <ele>335.8</ele>
        <time>2022-06-26T12:40:55Z</time>
      </trkpt>
      <trkpt lat="45.75142" lon="4.55171">
        <ele>335.8</ele>
        <time>2022-06-26T12:40:56Z</time>
      </trkpt>
      <trkpt lat="45.75144" lon="4.55177">
        <ele>336</ele>
        <time>2022-06-26T12:40:57Z</time>
      </trkpt>
      <trkpt lat="45.75146" lon="4.55182">
        <ele>336</ele>
        <time>2022-06-26T12:40:58Z</time>
      </trkpt>
      <trkpt lat="45.75149" lon="4.55187">
        <ele>336</ele>
        <time>2022-06-26T12:40:59Z</time>
      </trkpt>
      <trkpt lat="45.75151" lon="4.55193">
        <ele>336.2</ele>
        <time>2022-06-26T12:41:00Z</time>
      </trkpt>
      <trkpt lat="45.75154" lon="4.55198">
        <ele>336.2</ele>
        <time>2022-06-26T12:41:01Z</time>
      </trkpt>
      <trkpt lat="45.75156" lon="4.55202">
        <ele>336.4</ele>
        <time>2022-06-26T12:41:02Z</time>
      </trkpt>
      <trkpt lat="45.75158" lon="4.55207">
        <ele>336.4</ele>
        <time>2022-06-26T12:41:03Z</time>
      </trkpt>
      <trkpt lat="45.75159" lon="4.55212">
        <ele>336.8</ele>
        <time>2022-06-26T12:41:04Z</time>
      </trkpt>
      <trkpt lat="45.75161" lon="4.55217">
        <ele>336.8</ele>
        <time>2022-06-26T12:41:05Z</time>
      </trkpt>
      <trkpt lat="45.75163" lon="4.55221">
        <ele>337</ele>
        <time>2022-06-26T12:41:06Z</time>
      </trkpt>
      <trkpt lat="45.75164" lon="4.55226">
        <ele>337</ele>
        <time>2022-06-26T12:41:07Z</time>
      </trkpt>
      <trkpt lat="45.75166" lon="4.5523">
        <ele>337.2</ele>
        <time>2022-06-26T12:41:08Z</time>
      </trkpt>
      <trkpt lat="45.75168" lon="4.55235">
        <ele>337.2</ele>
        <time>2022-06-26T12:41:09Z</time>
      </trkpt>
      <trkpt lat="45.75169" lon="4.55239">
        <ele>337.4</ele>
        <time>2022-06-26T12:41:10Z</time>
      </trkpt>
      <trkpt lat="45.75171" lon="4.55244">
        <ele>337.4</ele>
        <time>2022-06-26T12:41:11Z</time>
      </trkpt>
      <trkpt lat="45.75172" lon="4.55248">
        <ele>337.6</ele>
        <time>2022-06-26T12:41:12Z</time>
      </trkpt>
      <trkpt lat="45.75174" lon="4.55253">
        <ele>337.6</ele>
        <time>2022-06-26T12:41:13Z</time>
      </trkpt>
      <trkpt lat="45.75176" lon="4.55258">
        <ele>337.6</ele>
        <time>2022-06-26T12:41:14Z</time>
      </trkpt>
      <trkpt lat="45.75178" lon="4.55262">
        <ele>337.8</ele>
        <time>2022-06-26T12:41:15Z</time>
      </trkpt>
      <trkpt lat="45.7518" lon="4.55267">
        <ele>337.8</ele>
        <time>2022-06-26T12:41:16Z</time>
      </trkpt>
      <trkpt lat="45.75182" lon="4.55271">
        <ele>338.2</ele>
        <time>2022-06-26T12:41:17Z</time>
      </trkpt>
      <trkpt lat="45.75183" lon="4.55276">
        <ele>338.2</ele>
        <time>2022-06-26T12:41:18Z</time>
      </trkpt>
      <trkpt lat="45.75185" lon="4.5528">
        <ele>338.4</ele>
        <time>2022-06-26T12:41:19Z</time>
      </trkpt>
      <trkpt lat="45.75187" lon="4.55285">
        <ele>338.4</ele>
        <time>2022-06-26T12:41:20Z</time>
      </trkpt>
      <trkpt lat="45.75188" lon="4.5529">
        <ele>338.4</ele>
        <time>2022-06-26T12:41:21Z</time>
      </trkpt>
      <trkpt lat="45.7519" lon="4.55294">
        <ele>338.4</ele>
        <time>2022-06-26T12:41:22Z</time>
      </trkpt>
      <trkpt lat="45.75192" lon="4.55299">
        <ele>338.8</ele>
        <time>2022-06-26T12:41:23Z</time>
      </trkpt>
      <trkpt lat="45.75193" lon="4.55303">
        <ele>338.8</ele>
        <time>2022-06-26T12:41:24Z</time>
      </trkpt>
      <trkpt lat="45.75195" lon="4.55308">
        <ele>339</ele>
        <time>2022-06-26T12:41:25Z</time>
      </trkpt>
      <trkpt lat="45.75196" lon="4.55312">
        <ele>339</ele>
        <time>2022-06-26T12:41:26Z</time>
      </trkpt>
      <trkpt lat="45.75198" lon="4.55317">
        <ele>339</ele>
        <time>2022-06-26T12:41:27Z</time>
      </trkpt>
      <trkpt lat="45.752" lon="4.55321">
        <ele>339.2</ele>
        <time>2022-06-26T12:41:28Z</time>
      </trkpt>
      <trkpt lat="45.75201" lon="4.55326">
        <ele>339.2</ele>
        <time>2022-06-26T12:41:29Z</time>
      </trkpt>
      <trkpt lat="45.75202" lon="4.5533">
        <ele>339.6</ele>
        <time>2022-06-26T12:41:30Z</time>
      </trkpt>
      <trkpt lat="45.75204" lon="4.55334">
        <ele>339.6</ele>
        <time>2022-06-26T12:41:31Z</time>
      </trkpt>
      <trkpt lat="45.75206" lon="4.55338">
        <ele>339.6</ele>
        <time>2022-06-26T12:41:32Z</time>
      </trkpt>
      <trkpt lat="45.75207" lon="4.55343">
        <ele>339.6</ele>
        <time>2022-06-26T12:41:33Z</time>
      </trkpt>
      <trkpt lat="45.75209" lon="4.55347">
        <ele>339.6</ele>
        <time>2022-06-26T12:41:34Z</time>
      </trkpt>
      <trkpt lat="45.75211" lon="4.55351">
        <ele>339.8</ele>
        <time>2022-06-26T12:41:35Z</time>
      </trkpt>
      <trkpt lat="45.75212" lon="4.55355">
        <ele>339.8</ele>
        <time>2022-06-26T12:41:36Z</time>
      </trkpt>
      <trkpt lat="45.75214" lon="4.55359">
        <ele>339.8</ele>
        <time>2022-06-26T12:41:37Z</time>
      </trkpt>
      <trkpt lat="45.75215" lon="4.55363">
        <ele>340</ele>
        <time>2022-06-26T12:41:38Z</time>
      </trkpt>
      <trkpt lat="45.75217" lon="4.55367">
        <ele>340</ele>
        <time>2022-06-26T12:41:39Z</time>
      </trkpt>
      <trkpt lat="45.75219" lon="4.55371">
        <ele>340.2</ele>
        <time>2022-06-26T12:41:40Z</time>
      </trkpt>
      <trkpt lat="45.7522" lon="4.55375">
        <ele>340.2</ele>
        <time>2022-06-26T12:41:41Z</time>
      </trkpt>
      <trkpt lat="45.75222" lon="4.55379">
        <ele>340.6</ele>
        <time>2022-06-26T12:41:42Z</time>
      </trkpt>
      <trkpt lat="45.75224" lon="4.55384">
        <ele>340.6</ele>
        <time>2022-06-26T12:41:43Z</time>
      </trkpt>
      <trkpt lat="45.75225" lon="4.55387">
        <ele>340.6</ele>
        <time>2022-06-26T12:41:44Z</time>
      </trkpt>
      <trkpt lat="45.75227" lon="4.55391">
        <ele>340.8</ele>
        <time>2022-06-26T12:41:45Z</time>
      </trkpt>
      <trkpt lat="45.75229" lon="4.55395">
        <ele>340.8</ele>
        <time>2022-06-26T12:41:46Z</time>
      </trkpt>
      <trkpt lat="45.75231" lon="4.55399">
        <ele>340.8</ele>
        <time>2022-06-26T12:41:47Z</time>
      </trkpt>
      <trkpt lat="45.75232" lon="4.55403">
        <ele>341</ele>
        <time>2022-06-26T12:41:48Z</time>
      </trkpt>
      <trkpt lat="45.75234" lon="4.55406">
        <ele>341</ele>
        <time>2022-06-26T12:41:49Z</time>
      </trkpt>
      <trkpt lat="45.75236" lon="4.5541">
        <ele>341</ele>
        <time>2022-06-26T12:41:50Z</time>
      </trkpt>
      <trkpt lat="45.75238" lon="4.55414">
        <ele>341</ele>
        <time>2022-06-26T12:41:51Z</time>
      </trkpt>
      <trkpt lat="45.75239" lon="4.55418">
        <ele>341.2</ele>
        <time>2022-06-26T12:41:52Z</time>
      </trkpt>
      <trkpt lat="45.75241" lon="4.55422">
        <ele>341.2</ele>
        <time>2022-06-26T12:41:53Z</time>
      </trkpt>
      <trkpt lat="45.75243" lon="4.55426">
        <ele>341.2</ele>
        <time>2022-06-26T12:41:54Z</time>
      </trkpt>
      <trkpt lat="45.75245" lon="4.5543">
        <ele>341.4</ele>
        <time>2022-06-26T12:41:55Z</time>
      </trkpt>
      <trkpt lat="45.75247" lon="4.55434">
        <ele>341.4</ele>
        <time>2022-06-26T12:41:56Z</time>
      </trkpt>
      <trkpt lat="45.75249" lon="4.55438">
        <ele>341.4</ele>
        <time>2022-06-26T12:41:57Z</time>
      </trkpt>
      <trkpt lat="45.75251" lon="4.55442">
        <ele>341.6</ele>
        <time>2022-06-26T12:41:58Z</time>
      </trkpt>
      <trkpt lat="45.75253" lon="4.55446">
        <ele>341.6</ele>
        <time>2022-06-26T12:41:59Z</time>
      </trkpt>
      <trkpt lat="45.75255" lon="4.5545">
        <ele>341.6</ele>
        <time>2022-06-26T12:42:00Z</time>
      </trkpt>
      <trkpt lat="45.75257" lon="4.55454">
        <ele>341.6</ele>
        <time>2022-06-26T12:42:01Z</time>
      </trkpt>
      <trkpt lat="45.75259" lon="4.55458">
        <ele>341.6</ele>
        <time>2022-06-26T12:42:02Z</time>
      </trkpt>
      <trkpt lat="45.75261" lon="4.55463">
        <ele>341.6</ele>
        <time>2022-06-26T12:42:03Z</time>
      </trkpt>
      <trkpt lat="45.75263" lon="4.55468">
        <ele>342</ele>
        <time>2022-06-26T12:42:04Z</time>
      </trkpt>
      <trkpt lat="45.75265" lon="4.55472">
        <ele>342</ele>
        <time>2022-06-26T12:42:05Z</time>
      </trkpt>
      <trkpt lat="45.75267" lon="4.55477">
        <ele>342</ele>
        <time>2022-06-26T12:42:06Z</time>
      </trkpt>
      <trkpt lat="45.75269" lon="4.55482">
        <ele>342.2</ele>
        <time>2022-06-26T12:42:07Z</time>
      </trkpt>
      <trkpt lat="45.75271" lon="4.55487">
        <ele>342.2</ele>
        <time>2022-06-26T12:42:08Z</time>
      </trkpt>
      <trkpt lat="45.75273" lon="4.55492">
        <ele>342.2</ele>
        <time>2022-06-26T12:42:09Z</time>
      </trkpt>
      <trkpt lat="45.75274" lon="4.55497">
        <ele>342.2</ele>
        <time>2022-06-26T12:42:10Z</time>
      </trkpt>
      <trkpt lat="45.75277" lon="4.55501">
        <ele>342.4</ele>
        <time>2022-06-26T12:42:11Z</time>
      </trkpt>
      <trkpt lat="45.75279" lon="4.55506">
        <ele>342.4</ele>
        <time>2022-06-26T12:42:12Z</time>
      </trkpt>
      <trkpt lat="45.75281" lon="4.55511">
        <ele>342.4</ele>
        <time>2022-06-26T12:42:13Z</time>
      </trkpt>
      <trkpt lat="45.75283" lon="4.55516">
        <ele>342.4</ele>
        <time>2022-06-26T12:42:14Z</time>
      </trkpt>
      <trkpt lat="45.75285" lon="4.5552">
        <ele>342.6</ele>
        <time>2022-06-26T12:42:15Z</time>
      </trkpt>
      <trkpt lat="45.75287" lon="4.55525">
        <ele>342.6</ele>
        <time>2022-06-26T12:42:16Z</time>
      </trkpt>
      <trkpt lat="45.75289" lon="4.5553">
        <ele>342.6</ele>
        <time>2022-06-26T12:42:17Z</time>
      </trkpt>
      <trkpt lat="45.75291" lon="4.55535">
        <ele>342.6</ele>
        <time>2022-06-26T12:42:18Z</time>
      </trkpt>
      <trkpt lat="45.75293" lon="4.5554">
        <ele>343</ele>
        <time>2022-06-26T12:42:19Z</time>
      </trkpt>
      <trkpt lat="45.75295" lon="4.55544">
        <ele>343</ele>
        <time>2022-06-26T12:42:20Z</time>
      </trkpt>
      <trkpt lat="45.75297" lon="4.55548">
        <ele>343.2</ele>
        <time>2022-06-26T12:42:21Z</time>
      </trkpt>
      <trkpt lat="45.75299" lon="4.55552">
        <ele>343.2</ele>
        <time>2022-06-26T12:42:22Z</time>
      </trkpt>
      <trkpt lat="45.75301" lon="4.55556">
        <ele>343.4</ele>
        <time>2022-06-26T12:42:24Z</time>
      </trkpt>
      <trkpt lat="45.75304" lon="4.5556">
        <ele>343.4</ele>
        <time>2022-06-26T12:42:25Z</time>
      </trkpt>
      <trkpt lat="45.75306" lon="4.55564">
        <ele>343.4</ele>
        <time>2022-06-26T12:42:26Z</time>
      </trkpt>
      <trkpt lat="45.75308" lon="4.55568">
        <ele>343.6</ele>
        <time>2022-06-26T12:42:27Z</time>
      </trkpt>
      <trkpt lat="45.7531" lon="4.55572">
        <ele>343.6</ele>
        <time>2022-06-26T12:42:28Z</time>
      </trkpt>
      <trkpt lat="45.75312" lon="4.55576">
        <ele>343.6</ele>
        <time>2022-06-26T12:42:29Z</time>
      </trkpt>
      <trkpt lat="45.75315" lon="4.5558">
        <ele>344</ele>
        <time>2022-06-26T12:42:30Z</time>
      </trkpt>
      <trkpt lat="45.75317" lon="4.55584">
        <ele>344</ele>
        <time>2022-06-26T12:42:31Z</time>
      </trkpt>
      <trkpt lat="45.75319" lon="4.55588">
        <ele>344</ele>
        <time>2022-06-26T12:42:32Z</time>
      </trkpt>
      <trkpt lat="45.75321" lon="4.55592">
        <ele>344.2</ele>
        <time>2022-06-26T12:42:33Z</time>
      </trkpt>
      <trkpt lat="45.75323" lon="4.55596">
        <ele>344.2</ele>
        <time>2022-06-26T12:42:34Z</time>
      </trkpt>
      <trkpt lat="45.75325" lon="4.556">
        <ele>344.2</ele>
        <time>2022-06-26T12:42:35Z</time>
      </trkpt>
      <trkpt lat="45.75328" lon="4.55603">
        <ele>344.6</ele>
        <time>2022-06-26T12:42:36Z</time>
      </trkpt>
      <trkpt lat="45.7533" lon="4.55607">
        <ele>344.6</ele>
        <time>2022-06-26T12:42:37Z</time>
      </trkpt>
      <trkpt lat="45.75332" lon="4.55611">
        <ele>344.6</ele>
        <time>2022-06-26T12:42:38Z</time>
      </trkpt>
      <trkpt lat="45.75334" lon="4.55615">
        <ele>344.8</ele>
        <time>2022-06-26T12:42:39Z</time>
      </trkpt>
      <trkpt lat="45.75336" lon="4.55619">
        <ele>344.8</ele>
        <time>2022-06-26T12:42:40Z</time>
      </trkpt>
      <trkpt lat="45.75337" lon="4.55624">
        <ele>344.8</ele>
        <time>2022-06-26T12:42:41Z</time>
      </trkpt>
      <trkpt lat="45.75339" lon="4.55628">
        <ele>345</ele>
        <time>2022-06-26T12:42:42Z</time>
      </trkpt>
      <trkpt lat="45.75341" lon="4.55633">
        <ele>345</ele>
        <time>2022-06-26T12:42:43Z</time>
      </trkpt>
      <trkpt lat="45.75342" lon="4.55637">
        <ele>345</ele>
        <time>2022-06-26T12:42:44Z</time>
      </trkpt>
      <trkpt lat="45.75344" lon="4.55642">
        <ele>345</ele>
        <time>2022-06-26T12:42:45Z</time>
      </trkpt>
      <trkpt lat="45.75346" lon="4.55647">
        <ele>345</ele>
        <time>2022-06-26T12:42:46Z</time>
      </trkpt>
      <trkpt lat="45.75347" lon="4.55652">
        <ele>345.2</ele>
        <time>2022-06-26T12:42:47Z</time>
      </trkpt>
      <trkpt lat="45.75349" lon="4.55657">
        <ele>345.2</ele>
        <time>2022-06-26T12:42:48Z</time>
      </trkpt>
      <trkpt lat="45.7535" lon="4.55662">
        <ele>345.2</ele>
        <time>2022-06-26T12:42:49Z</time>
      </trkpt>
      <trkpt lat="45.75352" lon="4.55667">
        <ele>345.2</ele>
        <time>2022-06-26T12:42:50Z</time>
      </trkpt>
      <trkpt lat="45.75353" lon="4.55672">
        <ele>345.2</ele>
        <time>2022-06-26T12:42:51Z</time>
      </trkpt>
      <trkpt lat="45.75355" lon="4.55678">
        <ele>345.2</ele>
        <time>2022-06-26T12:42:52Z</time>
      </trkpt>
      <trkpt lat="45.75356" lon="4.55683">
        <ele>345.2</ele>
        <time>2022-06-26T12:42:53Z</time>
      </trkpt>
      <trkpt lat="45.75357" lon="4.55689">
        <ele>345.2</ele>
        <time>2022-06-26T12:42:54Z</time>
      </trkpt>
      <trkpt lat="45.75359" lon="4.55695">
        <ele>345.2</ele>
        <time>2022-06-26T12:42:55Z</time>
      </trkpt>
      <trkpt lat="45.7536" lon="4.557">
        <ele>345.2</ele>
        <time>2022-06-26T12:42:56Z</time>
      </trkpt>
      <trkpt lat="45.75361" lon="4.55706">
        <ele>345.2</ele>
        <time>2022-06-26T12:42:57Z</time>
      </trkpt>
      <trkpt lat="45.75362" lon="4.55712">
        <ele>345.4</ele>
        <time>2022-06-26T12:42:58Z</time>
      </trkpt>
      <trkpt lat="45.75363" lon="4.55718">
        <ele>345.4</ele>
        <time>2022-06-26T12:42:59Z</time>
      </trkpt>
      <trkpt lat="45.75363" lon="4.55725">
        <ele>345.4</ele>
        <time>2022-06-26T12:43:00Z</time>
      </trkpt>
      <trkpt lat="45.75364" lon="4.5573">
        <ele>345.4</ele>
        <time>2022-06-26T12:43:01Z</time>
      </trkpt>
      <trkpt lat="45.75364" lon="4.55736">
        <ele>345.6</ele>
        <time>2022-06-26T12:43:02Z</time>
      </trkpt>
      <trkpt lat="45.75363" lon="4.55742">
        <ele>345.6</ele>
        <time>2022-06-26T12:43:03Z</time>
      </trkpt>
      <trkpt lat="45.75363" lon="4.55747">
        <ele>345.6</ele>
        <time>2022-06-26T12:43:04Z</time>
      </trkpt>
      <trkpt lat="45.75362" lon="4.55752">
        <ele>345.8</ele>
        <time>2022-06-26T12:43:05Z</time>
      </trkpt>
      <trkpt lat="45.75362" lon="4.55757">
        <ele>345.8</ele>
        <time>2022-06-26T12:43:06Z</time>
      </trkpt>
      <trkpt lat="45.75361" lon="4.55762">
        <ele>346</ele>
        <time>2022-06-26T12:43:07Z</time>
      </trkpt>
      <trkpt lat="45.7536" lon="4.55767">
        <ele>346</ele>
        <time>2022-06-26T12:43:08Z</time>
      </trkpt>
      <trkpt lat="45.75359" lon="4.55772">
        <ele>346</ele>
        <time>2022-06-26T12:43:09Z</time>
      </trkpt>
      <trkpt lat="45.75358" lon="4.55777">
        <ele>346.2</ele>
        <time>2022-06-26T12:43:10Z</time>
      </trkpt>
      <trkpt lat="45.75356" lon="4.55782">
        <ele>346.2</ele>
        <time>2022-06-26T12:43:11Z</time>
      </trkpt>
      <trkpt lat="45.75355" lon="4.55787">
        <ele>346.2</ele>
        <time>2022-06-26T12:43:12Z</time>
      </trkpt>
      <trkpt lat="45.75354" lon="4.55791">
        <ele>346.4</ele>
        <time>2022-06-26T12:43:13Z</time>
      </trkpt>
      <trkpt lat="45.75352" lon="4.55796">
        <ele>346.4</ele>
        <time>2022-06-26T12:43:14Z</time>
      </trkpt>
      <trkpt lat="45.75351" lon="4.55801">
        <ele>346.8</ele>
        <time>2022-06-26T12:43:15Z</time>
      </trkpt>
      <trkpt lat="45.75349" lon="4.55807">
        <ele>346.8</ele>
        <time>2022-06-26T12:43:16Z</time>
      </trkpt>
      <trkpt lat="45.75348" lon="4.55812">
        <ele>346.8</ele>
        <time>2022-06-26T12:43:17Z</time>
      </trkpt>
      <trkpt lat="45.75346" lon="4.55817">
        <ele>346.8</ele>
        <time>2022-06-26T12:43:18Z</time>
      </trkpt>
      <trkpt lat="45.75345" lon="4.55822">
        <ele>346.8</ele>
        <time>2022-06-26T12:43:19Z</time>
      </trkpt>
      <trkpt lat="45.75343" lon="4.55828">
        <ele>346.8</ele>
        <time>2022-06-26T12:43:20Z</time>
      </trkpt>
      <trkpt lat="45.75342" lon="4.55833">
        <ele>346.8</ele>
        <time>2022-06-26T12:43:21Z</time>
      </trkpt>
      <trkpt lat="45.7534" lon="4.55838">
        <ele>346.8</ele>
        <time>2022-06-26T12:43:22Z</time>
      </trkpt>
      <trkpt lat="45.75339" lon="4.55843">
        <ele>347</ele>
        <time>2022-06-26T12:43:23Z</time>
      </trkpt>
      <trkpt lat="45.75337" lon="4.55849">
        <ele>347</ele>
        <time>2022-06-26T12:43:24Z</time>
      </trkpt>
      <trkpt lat="45.75335" lon="4.55854">
        <ele>347</ele>
        <time>2022-06-26T12:43:25Z</time>
      </trkpt>
      <trkpt lat="45.75334" lon="4.55858">
        <ele>347.2</ele>
        <time>2022-06-26T12:43:26Z</time>
      </trkpt>
      <trkpt lat="45.75332" lon="4.55863">
        <ele>347.2</ele>
        <time>2022-06-26T12:43:27Z</time>
      </trkpt>
      <trkpt lat="45.7533" lon="4.55868">
        <ele>347.2</ele>
        <time>2022-06-26T12:43:28Z</time>
      </trkpt>
      <trkpt lat="45.75328" lon="4.55872">
        <ele>347.4</ele>
        <time>2022-06-26T12:43:29Z</time>
      </trkpt>
      <trkpt lat="45.75326" lon="4.55876">
        <ele>347.4</ele>
        <time>2022-06-26T12:43:30Z</time>
      </trkpt>
      <trkpt lat="45.75323" lon="4.5588">
        <ele>347.4</ele>
        <time>2022-06-26T12:43:31Z</time>
      </trkpt>
      <trkpt lat="45.75321" lon="4.55884">
        <ele>347.6</ele>
        <time>2022-06-26T12:43:32Z</time>
      </trkpt>
      <trkpt lat="45.75319" lon="4.55888">
        <ele>347.6</ele>
        <time>2022-06-26T12:43:33Z</time>
      </trkpt>
      <trkpt lat="45.75317" lon="4.55892">
        <ele>347.6</ele>
        <time>2022-06-26T12:43:34Z</time>
      </trkpt>
      <trkpt lat="45.75315" lon="4.55896">
        <ele>348</ele>
        <time>2022-06-26T12:43:35Z</time>
      </trkpt>
      <trkpt lat="45.75312" lon="4.55901">
        <ele>348</ele>
        <time>2022-06-26T12:43:36Z</time>
      </trkpt>
      <trkpt lat="45.7531" lon="4.55904">
        <ele>348</ele>
        <time>2022-06-26T12:43:37Z</time>
      </trkpt>
      <trkpt lat="45.75307" lon="4.55908">
        <ele>348.4</ele>
        <time>2022-06-26T12:43:38Z</time>
      </trkpt>
      <trkpt lat="45.75304" lon="4.55912">
        <ele>348.4</ele>
        <time>2022-06-26T12:43:39Z</time>
      </trkpt>
      <trkpt lat="45.75301" lon="4.55916">
        <ele>348.4</ele>
        <time>2022-06-26T12:43:40Z</time>
      </trkpt>
      <trkpt lat="45.75299" lon="4.5592">
        <ele>348.6</ele>
        <time>2022-06-26T12:43:41Z</time>
      </trkpt>
      <trkpt lat="45.75296" lon="4.55923">
        <ele>348.6</ele>
        <time>2022-06-26T12:43:42Z</time>
      </trkpt>
      <trkpt lat="45.75293" lon="4.55927">
        <ele>349</ele>
        <time>2022-06-26T12:43:43Z</time>
      </trkpt>
      <trkpt lat="45.75289" lon="4.5593">
        <ele>349</ele>
        <time>2022-06-26T12:43:44Z</time>
      </trkpt>
      <trkpt lat="45.75286" lon="4.55933">
        <ele>349</ele>
        <time>2022-06-26T12:43:45Z</time>
      </trkpt>
      <trkpt lat="45.75283" lon="4.55936">
        <ele>349</ele>
        <time>2022-06-26T12:43:46Z</time>
      </trkpt>
      <trkpt lat="45.7528" lon="4.55938">
        <ele>349.2</ele>
        <time>2022-06-26T12:43:47Z</time>
      </trkpt>
      <trkpt lat="45.75277" lon="4.5594">
        <ele>349.2</ele>
        <time>2022-06-26T12:43:48Z</time>
      </trkpt>
      <trkpt lat="45.75273" lon="4.55942">
        <ele>349.6</ele>
        <time>2022-06-26T12:43:49Z</time>
      </trkpt>
      <trkpt lat="45.7527" lon="4.55944">
        <ele>349.6</ele>
        <time>2022-06-26T12:43:50Z</time>
      </trkpt>
      <trkpt lat="45.75266" lon="4.55946">
        <ele>349.8</ele>
        <time>2022-06-26T12:43:51Z</time>
      </trkpt>
      <trkpt lat="45.75263" lon="4.55947">
        <ele>349.8</ele>
        <time>2022-06-26T12:43:52Z</time>
      </trkpt>
      <trkpt lat="45.75259" lon="4.55949">
        <ele>350.2</ele>
        <time>2022-06-26T12:43:53Z</time>
      </trkpt>
      <trkpt lat="45.75256" lon="4.5595">
        <ele>350.2</ele>
        <time>2022-06-26T12:43:54Z</time>
      </trkpt>
      <trkpt lat="45.75252" lon="4.55951">
        <ele>350.2</ele>
        <time>2022-06-26T12:43:55Z</time>
      </trkpt>
      <trkpt lat="45.75249" lon="4.55951">
        <ele>350.4</ele>
        <time>2022-06-26T12:43:56Z</time>
      </trkpt>
      <trkpt lat="45.75245" lon="4.55951">
        <ele>350.4</ele>
        <time>2022-06-26T12:43:57Z</time>
      </trkpt>
      <trkpt lat="45.75241" lon="4.55951">
        <ele>350.6</ele>
        <time>2022-06-26T12:43:58Z</time>
      </trkpt>
      <trkpt lat="45.75237" lon="4.55952">
        <ele>350.6</ele>
        <time>2022-06-26T12:43:59Z</time>
      </trkpt>
      <trkpt lat="45.75233" lon="4.55952">
        <ele>350.8</ele>
        <time>2022-06-26T12:44:00Z</time>
      </trkpt>
      <trkpt lat="45.7523" lon="4.55953">
        <ele>350.8</ele>
        <time>2022-06-26T12:44:01Z</time>
      </trkpt>
      <trkpt lat="45.75226" lon="4.55953">
        <ele>351.2</ele>
        <time>2022-06-26T12:44:02Z</time>
      </trkpt>
      <trkpt lat="45.75222" lon="4.55953">
        <ele>351.2</ele>
        <time>2022-06-26T12:44:03Z</time>
      </trkpt>
      <trkpt lat="45.75218" lon="4.55952">
        <ele>351.6</ele>
        <time>2022-06-26T12:44:04Z</time>
      </trkpt>
      <trkpt lat="45.75214" lon="4.55951">
        <ele>351.6</ele>
        <time>2022-06-26T12:44:05Z</time>
      </trkpt>
      <trkpt lat="45.75211" lon="4.55951">
        <ele>351.8</ele>
        <time>2022-06-26T12:44:06Z</time>
      </trkpt>
      <trkpt lat="45.75207" lon="4.5595">
        <ele>351.8</ele>
        <time>2022-06-26T12:44:07Z</time>
      </trkpt>
      <trkpt lat="45.75203" lon="4.5595">
        <ele>352</ele>
        <time>2022-06-26T12:44:08Z</time>
      </trkpt>
      <trkpt lat="45.75199" lon="4.55951">
        <ele>352</ele>
        <time>2022-06-26T12:44:09Z</time>
      </trkpt>
      <trkpt lat="45.75195" lon="4.55952">
        <ele>352.2</ele>
        <time>2022-06-26T12:44:10Z</time>
      </trkpt>
      <trkpt lat="45.75191" lon="4.55953">
        <ele>352.2</ele>
        <time>2022-06-26T12:44:11Z</time>
      </trkpt>
      <trkpt lat="45.75187" lon="4.55954">
        <ele>352.6</ele>
        <time>2022-06-26T12:44:12Z</time>
      </trkpt>
      <trkpt lat="45.75183" lon="4.55956">
        <ele>352.6</ele>
        <time>2022-06-26T12:44:13Z</time>
      </trkpt>
      <trkpt lat="45.7518" lon="4.55958">
        <ele>352.8</ele>
        <time>2022-06-26T12:44:14Z</time>
      </trkpt>
      <trkpt lat="45.75176" lon="4.55959">
        <ele>352.8</ele>
        <time>2022-06-26T12:44:15Z</time>
      </trkpt>
      <trkpt lat="45.75172" lon="4.55961">
        <ele>353</ele>
        <time>2022-06-26T12:44:16Z</time>
      </trkpt>
      <trkpt lat="45.75169" lon="4.55963">
        <ele>353</ele>
        <time>2022-06-26T12:44:17Z</time>
      </trkpt>
      <trkpt lat="45.75165" lon="4.55964">
        <ele>353.4</ele>
        <time>2022-06-26T12:44:18Z</time>
      </trkpt>
      <trkpt lat="45.75161" lon="4.55966">
        <ele>353.4</ele>
        <time>2022-06-26T12:44:19Z</time>
      </trkpt>
      <trkpt lat="45.75158" lon="4.55968">
        <ele>353.6</ele>
        <time>2022-06-26T12:44:20Z</time>
      </trkpt>
      <trkpt lat="45.75154" lon="4.5597">
        <ele>353.8</ele>
        <time>2022-06-26T12:44:21Z</time>
      </trkpt>
      <trkpt lat="45.75151" lon="4.55972">
        <ele>353.8</ele>
        <time>2022-06-26T12:44:22Z</time>
      </trkpt>
      <trkpt lat="45.75148" lon="4.55974">
        <ele>354.2</ele>
        <time>2022-06-26T12:44:23Z</time>
      </trkpt>
      <trkpt lat="45.75144" lon="4.55976">
        <ele>354.2</ele>
        <time>2022-06-26T12:44:24Z</time>
      </trkpt>
      <trkpt lat="45.75141" lon="4.55978">
        <ele>354.4</ele>
        <time>2022-06-26T12:44:25Z</time>
      </trkpt>
      <trkpt lat="45.75137" lon="4.5598">
        <ele>354.4</ele>
        <time>2022-06-26T12:44:26Z</time>
      </trkpt>
      <trkpt lat="45.75134" lon="4.55982">
        <ele>354.6</ele>
        <time>2022-06-26T12:44:27Z</time>
      </trkpt>
      <trkpt lat="45.75131" lon="4.55984">
        <ele>354.6</ele>
        <time>2022-06-26T12:44:28Z</time>
      </trkpt>
      <trkpt lat="45.75127" lon="4.55986">
        <ele>354.8</ele>
        <time>2022-06-26T12:44:29Z</time>
      </trkpt>
      <trkpt lat="45.75124" lon="4.55988">
        <ele>354.8</ele>
        <time>2022-06-26T12:44:30Z</time>
      </trkpt>
      <trkpt lat="45.7512" lon="4.5599">
        <ele>354.8</ele>
        <time>2022-06-26T12:44:31Z</time>
      </trkpt>
      <trkpt lat="45.75117" lon="4.55992">
        <ele>354.8</ele>
        <time>2022-06-26T12:44:32Z</time>
      </trkpt>
      <trkpt lat="45.75114" lon="4.55994">
        <ele>355</ele>
        <time>2022-06-26T12:44:33Z</time>
      </trkpt>
      <trkpt lat="45.7511" lon="4.55996">
        <ele>355</ele>
        <time>2022-06-26T12:44:34Z</time>
      </trkpt>
      <trkpt lat="45.75107" lon="4.55997">
        <ele>355.4</ele>
        <time>2022-06-26T12:44:35Z</time>
      </trkpt>
      <trkpt lat="45.75104" lon="4.55999">
        <ele>355.4</ele>
        <time>2022-06-26T12:44:36Z</time>
      </trkpt>
      <trkpt lat="45.75101" lon="4.56002">
        <ele>355.8</ele>
        <time>2022-06-26T12:44:37Z</time>
      </trkpt>
      <trkpt lat="45.75097" lon="4.56004">
        <ele>355.8</ele>
        <time>2022-06-26T12:44:38Z</time>
      </trkpt>
      <trkpt lat="45.75094" lon="4.56006">
        <ele>355.8</ele>
        <time>2022-06-26T12:44:39Z</time>
      </trkpt>
      <trkpt lat="45.7509" lon="4.56008">
        <ele>356</ele>
        <time>2022-06-26T12:44:40Z</time>
      </trkpt>
      <trkpt lat="45.75087" lon="4.5601">
        <ele>356</ele>
        <time>2022-06-26T12:44:41Z</time>
      </trkpt>
      <trkpt lat="45.75084" lon="4.56012">
        <ele>356</ele>
        <time>2022-06-26T12:44:42Z</time>
      </trkpt>
      <trkpt lat="45.7508" lon="4.56014">
        <ele>356.2</ele>
        <time>2022-06-26T12:44:43Z</time>
      </trkpt>
      <trkpt lat="45.75077" lon="4.56016">
        <ele>356.2</ele>
        <time>2022-06-26T12:44:44Z</time>
      </trkpt>
      <trkpt lat="45.75073" lon="4.56018">
        <ele>356.2</ele>
        <time>2022-06-26T12:44:45Z</time>
      </trkpt>
      <trkpt lat="45.7507" lon="4.56021">
        <ele>356.4</ele>
        <time>2022-06-26T12:44:46Z</time>
      </trkpt>
      <trkpt lat="45.75066" lon="4.56023">
        <ele>356.4</ele>
        <time>2022-06-26T12:44:47Z</time>
      </trkpt>
      <trkpt lat="45.75063" lon="4.56026">
        <ele>356.8</ele>
        <time>2022-06-26T12:44:48Z</time>
      </trkpt>
      <trkpt lat="45.75059" lon="4.56028">
        <ele>356.8</ele>
        <time>2022-06-26T12:44:49Z</time>
      </trkpt>
      <trkpt lat="45.75056" lon="4.56032">
        <ele>356.8</ele>
        <time>2022-06-26T12:44:50Z</time>
      </trkpt>
      <trkpt lat="45.75052" lon="4.56035">
        <ele>357</ele>
        <time>2022-06-26T12:44:51Z</time>
      </trkpt>
      <trkpt lat="45.75049" lon="4.56038">
        <ele>357</ele>
        <time>2022-06-26T12:44:52Z</time>
      </trkpt>
      <trkpt lat="45.75045" lon="4.56042">
        <ele>357</ele>
        <time>2022-06-26T12:44:53Z</time>
      </trkpt>
      <trkpt lat="45.75041" lon="4.56045">
        <ele>357.2</ele>
        <time>2022-06-26T12:44:54Z</time>
      </trkpt>
      <trkpt lat="45.75038" lon="4.56049">
        <ele>357.2</ele>
        <time>2022-06-26T12:44:55Z</time>
      </trkpt>
      <trkpt lat="45.75034" lon="4.56052">
        <ele>357.2</ele>
        <time>2022-06-26T12:44:56Z</time>
      </trkpt>
      <trkpt lat="45.75031" lon="4.56056">
        <ele>357.2</ele>
        <time>2022-06-26T12:44:57Z</time>
      </trkpt>
      <trkpt lat="45.75027" lon="4.56061">
        <ele>357.2</ele>
        <time>2022-06-26T12:44:58Z</time>
      </trkpt>
      <trkpt lat="45.75024" lon="4.56065">
        <ele>357.2</ele>
        <time>2022-06-26T12:44:59Z</time>
      </trkpt>
      <trkpt lat="45.7502" lon="4.56069">
        <ele>357.2</ele>
        <time>2022-06-26T12:45:00Z</time>
      </trkpt>
      <trkpt lat="45.75016" lon="4.56074">
        <ele>357.2</ele>
        <time>2022-06-26T12:45:01Z</time>
      </trkpt>
      <trkpt lat="45.75012" lon="4.56078">
        <ele>357.2</ele>
        <time>2022-06-26T12:45:02Z</time>
      </trkpt>
      <trkpt lat="45.75009" lon="4.56083">
        <ele>357.2</ele>
        <time>2022-06-26T12:45:03Z</time>
      </trkpt>
      <trkpt lat="45.75005" lon="4.56088">
        <ele>357.2</ele>
        <time>2022-06-26T12:45:04Z</time>
      </trkpt>
      <trkpt lat="45.75001" lon="4.56092">
        <ele>357.2</ele>
        <time>2022-06-26T12:45:05Z</time>
      </trkpt>
      <trkpt lat="45.74998" lon="4.56097">
        <ele>357.2</ele>
        <time>2022-06-26T12:45:06Z</time>
      </trkpt>
      <trkpt lat="45.74994" lon="4.56102">
        <ele>357.2</ele>
        <time>2022-06-26T12:45:07Z</time>
      </trkpt>
      <trkpt lat="45.7499" lon="4.56107">
        <ele>357.2</ele>
        <time>2022-06-26T12:45:08Z</time>
      </trkpt>
      <trkpt lat="45.74986" lon="4.56112">
        <ele>357.2</ele>
        <time>2022-06-26T12:45:09Z</time>
      </trkpt>
      <trkpt lat="45.74982" lon="4.56116">
        <ele>357.4</ele>
        <time>2022-06-26T12:45:10Z</time>
      </trkpt>
      <trkpt lat="45.74978" lon="4.56122">
        <ele>357.4</ele>
        <time>2022-06-26T12:45:11Z</time>
      </trkpt>
      <trkpt lat="45.74975" lon="4.56126">
        <ele>357.4</ele>
        <time>2022-06-26T12:45:12Z</time>
      </trkpt>
      <trkpt lat="45.74971" lon="4.56131">
        <ele>357.4</ele>
        <time>2022-06-26T12:45:13Z</time>
      </trkpt>
      <trkpt lat="45.74967" lon="4.56136">
        <ele>357.4</ele>
        <time>2022-06-26T12:45:14Z</time>
      </trkpt>
      <trkpt lat="45.74964" lon="4.56141">
        <ele>357.8</ele>
        <time>2022-06-26T12:45:15Z</time>
      </trkpt>
      <trkpt lat="45.74961" lon="4.56145">
        <ele>357.8</ele>
        <time>2022-06-26T12:45:16Z</time>
      </trkpt>
      <trkpt lat="45.74958" lon="4.5615">
        <ele>357.8</ele>
        <time>2022-06-26T12:45:17Z</time>
      </trkpt>
      <trkpt lat="45.74954" lon="4.56155">
        <ele>357.8</ele>
        <time>2022-06-26T12:45:18Z</time>
      </trkpt>
      <trkpt lat="45.74951" lon="4.56159">
        <ele>358</ele>
        <time>2022-06-26T12:45:19Z</time>
      </trkpt>
      <trkpt lat="45.74947" lon="4.56163">
        <ele>358</ele>
        <time>2022-06-26T12:45:20Z</time>
      </trkpt>
      <trkpt lat="45.74943" lon="4.56168">
        <ele>358</ele>
        <time>2022-06-26T12:45:21Z</time>
      </trkpt>
      <trkpt lat="45.7494" lon="4.56172">
        <ele>358</ele>
        <time>2022-06-26T12:45:22Z</time>
      </trkpt>
      <trkpt lat="45.74936" lon="4.56177">
        <ele>358.2</ele>
        <time>2022-06-26T12:45:23Z</time>
      </trkpt>
      <trkpt lat="45.74933" lon="4.56182">
        <ele>358.2</ele>
        <time>2022-06-26T12:45:24Z</time>
      </trkpt>
      <trkpt lat="45.7493" lon="4.56187">
        <ele>358.2</ele>
        <time>2022-06-26T12:45:25Z</time>
      </trkpt>
      <trkpt lat="45.74927" lon="4.56191">
        <ele>358.2</ele>
        <time>2022-06-26T12:45:26Z</time>
      </trkpt>
      <trkpt lat="45.74923" lon="4.56195">
        <ele>358.4</ele>
        <time>2022-06-26T12:45:27Z</time>
      </trkpt>
      <trkpt lat="45.74919" lon="4.56199">
        <ele>358.4</ele>
        <time>2022-06-26T12:45:28Z</time>
      </trkpt>
      <trkpt lat="45.74916" lon="4.56203">
        <ele>358.6</ele>
        <time>2022-06-26T12:45:29Z</time>
      </trkpt>
      <trkpt lat="45.74913" lon="4.56207">
        <ele>358.6</ele>
        <time>2022-06-26T12:45:30Z</time>
      </trkpt>
      <trkpt lat="45.7491" lon="4.5621">
        <ele>359</ele>
        <time>2022-06-26T12:45:31Z</time>
      </trkpt>
      <trkpt lat="45.74907" lon="4.56213">
        <ele>359</ele>
        <time>2022-06-26T12:45:32Z</time>
      </trkpt>
      <trkpt lat="45.74904" lon="4.56217">
        <ele>359</ele>
        <time>2022-06-26T12:45:33Z</time>
      </trkpt>
      <trkpt lat="45.74901" lon="4.56221">
        <ele>359.2</ele>
        <time>2022-06-26T12:45:34Z</time>
      </trkpt>
      <trkpt lat="45.74898" lon="4.56225">
        <ele>359.2</ele>
        <time>2022-06-26T12:45:35Z</time>
      </trkpt>
      <trkpt lat="45.74895" lon="4.56229">
        <ele>359.4</ele>
        <time>2022-06-26T12:45:36Z</time>
      </trkpt>
      <trkpt lat="45.74892" lon="4.56232">
        <ele>359.4</ele>
        <time>2022-06-26T12:45:37Z</time>
      </trkpt>
      <trkpt lat="45.74889" lon="4.56236">
        <ele>359.4</ele>
        <time>2022-06-26T12:45:38Z</time>
      </trkpt>
      <trkpt lat="45.74886" lon="4.5624">
        <ele>359.4</ele>
        <time>2022-06-26T12:45:39Z</time>
      </trkpt>
      <trkpt lat="45.74883" lon="4.56244">
        <ele>359.6</ele>
        <time>2022-06-26T12:45:40Z</time>
      </trkpt>
      <trkpt lat="45.74881" lon="4.56248">
        <ele>359.6</ele>
        <time>2022-06-26T12:45:41Z</time>
      </trkpt>
      <trkpt lat="45.74878" lon="4.56251">
        <ele>359.6</ele>
        <time>2022-06-26T12:45:42Z</time>
      </trkpt>
      <trkpt lat="45.74875" lon="4.56254">
        <ele>359.8</ele>
        <time>2022-06-26T12:45:43Z</time>
      </trkpt>
      <trkpt lat="45.74871" lon="4.56258">
        <ele>359.8</ele>
        <time>2022-06-26T12:45:44Z</time>
      </trkpt>
      <trkpt lat="45.74868" lon="4.56262">
        <ele>359.8</ele>
        <time>2022-06-26T12:45:45Z</time>
      </trkpt>
      <trkpt lat="45.74865" lon="4.56266">
        <ele>360.2</ele>
        <time>2022-06-26T12:45:46Z</time>
      </trkpt>
      <trkpt lat="45.74862" lon="4.5627">
        <ele>360.2</ele>
        <time>2022-06-26T12:45:47Z</time>
      </trkpt>
      <trkpt lat="45.74859" lon="4.56274">
        <ele>360.2</ele>
        <time>2022-06-26T12:45:48Z</time>
      </trkpt>
      <trkpt lat="45.74856" lon="4.56278">
        <ele>360.4</ele>
        <time>2022-06-26T12:45:49Z</time>
      </trkpt>
      <trkpt lat="45.74853" lon="4.56282">
        <ele>360.4</ele>
        <time>2022-06-26T12:45:50Z</time>
      </trkpt>
      <trkpt lat="45.7485" lon="4.56286">
        <ele>360.6</ele>
        <time>2022-06-26T12:45:51Z</time>
      </trkpt>
      <trkpt lat="45.74848" lon="4.5629">
        <ele>360.6</ele>
        <time>2022-06-26T12:45:52Z</time>
      </trkpt>
      <trkpt lat="45.74846" lon="4.56294">
        <ele>361</ele>
        <time>2022-06-26T12:45:53Z</time>
      </trkpt>
      <trkpt lat="45.74843" lon="4.56298">
        <ele>361</ele>
        <time>2022-06-26T12:45:54Z</time>
      </trkpt>
      <trkpt lat="45.7484" lon="4.56302">
        <ele>361.2</ele>
        <time>2022-06-26T12:45:55Z</time>
      </trkpt>
      <trkpt lat="45.74838" lon="4.56305">
        <ele>361.4</ele>
        <time>2022-06-26T12:45:56Z</time>
      </trkpt>
      <trkpt lat="45.74835" lon="4.56309">
        <ele>361.4</ele>
        <time>2022-06-26T12:45:57Z</time>
      </trkpt>
      <trkpt lat="45.74833" lon="4.56312">
        <ele>361.8</ele>
        <time>2022-06-26T12:45:58Z</time>
      </trkpt>
      <trkpt lat="45.7483" lon="4.56315">
        <ele>361.8</ele>
        <time>2022-06-26T12:45:59Z</time>
      </trkpt>
      <trkpt lat="45.74828" lon="4.56319">
        <ele>362.2</ele>
        <time>2022-06-26T12:46:00Z</time>
      </trkpt>
      <trkpt lat="45.74826" lon="4.56324">
        <ele>362.2</ele>
        <time>2022-06-26T12:46:01Z</time>
      </trkpt>
      <trkpt lat="45.74824" lon="4.56328">
        <ele>362.4</ele>
        <time>2022-06-26T12:46:02Z</time>
      </trkpt>
      <trkpt lat="45.74822" lon="4.56332">
        <ele>362.4</ele>
        <time>2022-06-26T12:46:03Z</time>
      </trkpt>
      <trkpt lat="45.7482" lon="4.56337">
        <ele>362.8</ele>
        <time>2022-06-26T12:46:04Z</time>
      </trkpt>
      <trkpt lat="45.74817" lon="4.56341">
        <ele>362.8</ele>
        <time>2022-06-26T12:46:05Z</time>
      </trkpt>
      <trkpt lat="45.74815" lon="4.56346">
        <ele>362.8</ele>
        <time>2022-06-26T12:46:06Z</time>
      </trkpt>
      <trkpt lat="45.74813" lon="4.5635">
        <ele>363.2</ele>
        <time>2022-06-26T12:46:07Z</time>
      </trkpt>
      <trkpt lat="45.74811" lon="4.56355">
        <ele>363.4</ele>
        <time>2022-06-26T12:46:08Z</time>
      </trkpt>
      <trkpt lat="45.74808" lon="4.56361">
        <ele>363.4</ele>
        <time>2022-06-26T12:46:09Z</time>
      </trkpt>
      <trkpt lat="45.74805" lon="4.56366">
        <ele>363.6</ele>
        <time>2022-06-26T12:46:10Z</time>
      </trkpt>
      <trkpt lat="45.74803" lon="4.56372">
        <ele>363.6</ele>
        <time>2022-06-26T12:46:11Z</time>
      </trkpt>
      <trkpt lat="45.74801" lon="4.56377">
        <ele>364</ele>
        <time>2022-06-26T12:46:12Z</time>
      </trkpt>
      <trkpt lat="45.74799" lon="4.56381">
        <ele>364</ele>
        <time>2022-06-26T12:46:13Z</time>
      </trkpt>
      <trkpt lat="45.74797" lon="4.56385">
        <ele>364.4</ele>
        <time>2022-06-26T12:46:14Z</time>
      </trkpt>
      <trkpt lat="45.74795" lon="4.56389">
        <ele>364.4</ele>
        <time>2022-06-26T12:46:15Z</time>
      </trkpt>
      <trkpt lat="45.74794" lon="4.56395">
        <ele>364.6</ele>
        <time>2022-06-26T12:46:16Z</time>
      </trkpt>
      <trkpt lat="45.74792" lon="4.56401">
        <ele>364.6</ele>
        <time>2022-06-26T12:46:17Z</time>
      </trkpt>
      <trkpt lat="45.7479" lon="4.56406">
        <ele>364.8</ele>
        <time>2022-06-26T12:46:18Z</time>
      </trkpt>
      <trkpt lat="45.74788" lon="4.56411">
        <ele>364.8</ele>
        <time>2022-06-26T12:46:19Z</time>
      </trkpt>
      <trkpt lat="45.74786" lon="4.56416">
        <ele>365</ele>
        <time>2022-06-26T12:46:20Z</time>
      </trkpt>
      <trkpt lat="45.74785" lon="4.5642">
        <ele>365</ele>
        <time>2022-06-26T12:46:21Z</time>
      </trkpt>
      <trkpt lat="45.74783" lon="4.56424">
        <ele>365.4</ele>
        <time>2022-06-26T12:46:22Z</time>
      </trkpt>
      <trkpt lat="45.74781" lon="4.56429">
        <ele>365.4</ele>
        <time>2022-06-26T12:46:23Z</time>
      </trkpt>
      <trkpt lat="45.7478" lon="4.56434">
        <ele>365.6</ele>
        <time>2022-06-26T12:46:24Z</time>
      </trkpt>
      <trkpt lat="45.74778" lon="4.5644">
        <ele>365.6</ele>
        <time>2022-06-26T12:46:25Z</time>
      </trkpt>
      <trkpt lat="45.74776" lon="4.56445">
        <ele>366</ele>
        <time>2022-06-26T12:46:26Z</time>
      </trkpt>
      <trkpt lat="45.74775" lon="4.56451">
        <ele>366</ele>
        <time>2022-06-26T12:46:27Z</time>
      </trkpt>
      <trkpt lat="45.74773" lon="4.56456">
        <ele>366.2</ele>
        <time>2022-06-26T12:46:28Z</time>
      </trkpt>
      <trkpt lat="45.74772" lon="4.56462">
        <ele>366.2</ele>
        <time>2022-06-26T12:46:29Z</time>
      </trkpt>
      <trkpt lat="45.7477" lon="4.56468">
        <ele>366.2</ele>
        <time>2022-06-26T12:46:30Z</time>
      </trkpt>
      <trkpt lat="45.74768" lon="4.56473">
        <ele>366.4</ele>
        <time>2022-06-26T12:46:31Z</time>
      </trkpt>
      <trkpt lat="45.74767" lon="4.56478">
        <ele>366.4</ele>
        <time>2022-06-26T12:46:32Z</time>
      </trkpt>
      <trkpt lat="45.74765" lon="4.56483">
        <ele>366.6</ele>
        <time>2022-06-26T12:46:33Z</time>
      </trkpt>
      <trkpt lat="45.74763" lon="4.56488">
        <ele>366.6</ele>
        <time>2022-06-26T12:46:34Z</time>
      </trkpt>
      <trkpt lat="45.74762" lon="4.56492">
        <ele>367</ele>
        <time>2022-06-26T12:46:35Z</time>
      </trkpt>
      <trkpt lat="45.74761" lon="4.56496">
        <ele>367</ele>
        <time>2022-06-26T12:46:36Z</time>
      </trkpt>
      <trkpt lat="45.74759" lon="4.56501">
        <ele>367.2</ele>
        <time>2022-06-26T12:46:37Z</time>
      </trkpt>
      <trkpt lat="45.74757" lon="4.56505">
        <ele>367.2</ele>
        <time>2022-06-26T12:46:38Z</time>
      </trkpt>
      <trkpt lat="45.74756" lon="4.5651">
        <ele>367.6</ele>
        <time>2022-06-26T12:46:39Z</time>
      </trkpt>
      <trkpt lat="45.74754" lon="4.56515">
        <ele>367.6</ele>
        <time>2022-06-26T12:46:40Z</time>
      </trkpt>
      <trkpt lat="45.74752" lon="4.56519">
        <ele>367.8</ele>
        <time>2022-06-26T12:46:41Z</time>
      </trkpt>
      <trkpt lat="45.74751" lon="4.56524">
        <ele>367.8</ele>
        <time>2022-06-26T12:46:42Z</time>
      </trkpt>
      <trkpt lat="45.74749" lon="4.56528">
        <ele>368.2</ele>
        <time>2022-06-26T12:46:43Z</time>
      </trkpt>
      <trkpt lat="45.74747" lon="4.56532">
        <ele>368.2</ele>
        <time>2022-06-26T12:46:44Z</time>
      </trkpt>
      <trkpt lat="45.74746" lon="4.56536">
        <ele>368.4</ele>
        <time>2022-06-26T12:46:45Z</time>
      </trkpt>
      <trkpt lat="45.74744" lon="4.5654">
        <ele>368.4</ele>
        <time>2022-06-26T12:46:46Z</time>
      </trkpt>
      <trkpt lat="45.74742" lon="4.56544">
        <ele>368.8</ele>
        <time>2022-06-26T12:46:47Z</time>
      </trkpt>
      <trkpt lat="45.74738" lon="4.56553">
        <ele>369</ele>
        <time>2022-06-26T12:46:48Z</time>
      </trkpt>
      <trkpt lat="45.74737" lon="4.56557">
        <ele>369.2</ele>
        <time>2022-06-26T12:46:49Z</time>
      </trkpt>
      <trkpt lat="45.74735" lon="4.56561">
        <ele>369.2</ele>
        <time>2022-06-26T12:46:50Z</time>
      </trkpt>
      <trkpt lat="45.74734" lon="4.56566">
        <ele>369.4</ele>
        <time>2022-06-26T12:46:51Z</time>
      </trkpt>
      <trkpt lat="45.74732" lon="4.5657">
        <ele>369.6</ele>
        <time>2022-06-26T12:46:52Z</time>
      </trkpt>
      <trkpt lat="45.74731" lon="4.56575">
        <ele>369.6</ele>
        <time>2022-06-26T12:46:53Z</time>
      </trkpt>
      <trkpt lat="45.7473" lon="4.56579">
        <ele>370</ele>
        <time>2022-06-26T12:46:54Z</time>
      </trkpt>
      <trkpt lat="45.74728" lon="4.56584">
        <ele>370</ele>
        <time>2022-06-26T12:46:55Z</time>
      </trkpt>
      <trkpt lat="45.74727" lon="4.56588">
        <ele>370.2</ele>
        <time>2022-06-26T12:46:56Z</time>
      </trkpt>
      <trkpt lat="45.74725" lon="4.56592">
        <ele>370.2</ele>
        <time>2022-06-26T12:46:57Z</time>
      </trkpt>
      <trkpt lat="45.74723" lon="4.56597">
        <ele>370.4</ele>
        <time>2022-06-26T12:46:58Z</time>
      </trkpt>
      <trkpt lat="45.74721" lon="4.56601">
        <ele>370.4</ele>
        <time>2022-06-26T12:46:59Z</time>
      </trkpt>
      <trkpt lat="45.7472" lon="4.56605">
        <ele>370.8</ele>
        <time>2022-06-26T12:47:00Z</time>
      </trkpt>
      <trkpt lat="45.74718" lon="4.56609">
        <ele>370.8</ele>
        <time>2022-06-26T12:47:01Z</time>
      </trkpt>
      <trkpt lat="45.74716" lon="4.56614">
        <ele>371</ele>
        <time>2022-06-26T12:47:02Z</time>
      </trkpt>
      <trkpt lat="45.74714" lon="4.56617">
        <ele>371</ele>
        <time>2022-06-26T12:47:03Z</time>
      </trkpt>
      <trkpt lat="45.74712" lon="4.56621">
        <ele>371.2</ele>
        <time>2022-06-26T12:47:04Z</time>
      </trkpt>
      <trkpt lat="45.7471" lon="4.56625">
        <ele>371.2</ele>
        <time>2022-06-26T12:47:05Z</time>
      </trkpt>
      <trkpt lat="45.74708" lon="4.56628">
        <ele>371.4</ele>
        <time>2022-06-26T12:47:06Z</time>
      </trkpt>
      <trkpt lat="45.74706" lon="4.56632">
        <ele>371.4</ele>
        <time>2022-06-26T12:47:07Z</time>
      </trkpt>
      <trkpt lat="45.74703" lon="4.56635">
        <ele>371.6</ele>
        <time>2022-06-26T12:47:08Z</time>
      </trkpt>
      <trkpt lat="45.74701" lon="4.56638">
        <ele>371.6</ele>
        <time>2022-06-26T12:47:09Z</time>
      </trkpt>
      <trkpt lat="45.74698" lon="4.56642">
        <ele>372</ele>
        <time>2022-06-26T12:47:10Z</time>
      </trkpt>
      <trkpt lat="45.74696" lon="4.56645">
        <ele>372</ele>
        <time>2022-06-26T12:47:11Z</time>
      </trkpt>
      <trkpt lat="45.74694" lon="4.56649">
        <ele>372.2</ele>
        <time>2022-06-26T12:47:12Z</time>
      </trkpt>
      <trkpt lat="45.74691" lon="4.56652">
        <ele>372.2</ele>
        <time>2022-06-26T12:47:13Z</time>
      </trkpt>
      <trkpt lat="45.74689" lon="4.56655">
        <ele>372.4</ele>
        <time>2022-06-26T12:47:14Z</time>
      </trkpt>
      <trkpt lat="45.74687" lon="4.56658">
        <ele>372.4</ele>
        <time>2022-06-26T12:47:15Z</time>
      </trkpt>
      <trkpt lat="45.74684" lon="4.56661">
        <ele>372.6</ele>
        <time>2022-06-26T12:47:16Z</time>
      </trkpt>
      <trkpt lat="45.74682" lon="4.56665">
        <ele>372.6</ele>
        <time>2022-06-26T12:47:17Z</time>
      </trkpt>
      <trkpt lat="45.74679" lon="4.56668">
        <ele>372.8</ele>
        <time>2022-06-26T12:47:18Z</time>
      </trkpt>
      <trkpt lat="45.74677" lon="4.56671">
        <ele>372.8</ele>
        <time>2022-06-26T12:47:19Z</time>
      </trkpt>
      <trkpt lat="45.74675" lon="4.56674">
        <ele>373.2</ele>
        <time>2022-06-26T12:47:20Z</time>
      </trkpt>
      <trkpt lat="45.74673" lon="4.56677">
        <ele>373.2</ele>
        <time>2022-06-26T12:47:21Z</time>
      </trkpt>
      <trkpt lat="45.74671" lon="4.5668">
        <ele>373.4</ele>
        <time>2022-06-26T12:47:22Z</time>
      </trkpt>
      <trkpt lat="45.74668" lon="4.56683">
        <ele>373.4</ele>
        <time>2022-06-26T12:47:23Z</time>
      </trkpt>
      <trkpt lat="45.74666" lon="4.56686">
        <ele>373.8</ele>
        <time>2022-06-26T12:47:24Z</time>
      </trkpt>
      <trkpt lat="45.74664" lon="4.56688">
        <ele>373.8</ele>
        <time>2022-06-26T12:47:25Z</time>
      </trkpt>
      <trkpt lat="45.74662" lon="4.56691">
        <ele>374.2</ele>
        <time>2022-06-26T12:47:26Z</time>
      </trkpt>
      <trkpt lat="45.74659" lon="4.56694">
        <ele>374.2</ele>
        <time>2022-06-26T12:47:27Z</time>
      </trkpt>
      <trkpt lat="45.74657" lon="4.56696">
        <ele>374.6</ele>
        <time>2022-06-26T12:47:28Z</time>
      </trkpt>
      <trkpt lat="45.74655" lon="4.56699">
        <ele>374.8</ele>
        <time>2022-06-26T12:47:29Z</time>
      </trkpt>
      <trkpt lat="45.74653" lon="4.56702">
        <ele>374.8</ele>
        <time>2022-06-26T12:47:30Z</time>
      </trkpt>
      <trkpt lat="45.74651" lon="4.56705">
        <ele>375.2</ele>
        <time>2022-06-26T12:47:31Z</time>
      </trkpt>
      <trkpt lat="45.74649" lon="4.56707">
        <ele>375.2</ele>
        <time>2022-06-26T12:47:32Z</time>
      </trkpt>
      <trkpt lat="45.74647" lon="4.5671">
        <ele>375.6</ele>
        <time>2022-06-26T12:47:33Z</time>
      </trkpt>
      <trkpt lat="45.74645" lon="4.56712">
        <ele>375.6</ele>
        <time>2022-06-26T12:47:34Z</time>
      </trkpt>
      <trkpt lat="45.74643" lon="4.56715">
        <ele>376</ele>
        <time>2022-06-26T12:47:35Z</time>
      </trkpt>
      <trkpt lat="45.7464" lon="4.56717">
        <ele>376</ele>
        <time>2022-06-26T12:47:36Z</time>
      </trkpt>
      <trkpt lat="45.74638" lon="4.5672">
        <ele>376.2</ele>
        <time>2022-06-26T12:47:37Z</time>
      </trkpt>
      <trkpt lat="45.74636" lon="4.56722">
        <ele>376.2</ele>
        <time>2022-06-26T12:47:38Z</time>
      </trkpt>
      <trkpt lat="45.74634" lon="4.56724">
        <ele>376.6</ele>
        <time>2022-06-26T12:47:39Z</time>
      </trkpt>
      <trkpt lat="45.74632" lon="4.56727">
        <ele>376.6</ele>
        <time>2022-06-26T12:47:40Z</time>
      </trkpt>
      <trkpt lat="45.7463" lon="4.5673">
        <ele>377</ele>
        <time>2022-06-26T12:47:41Z</time>
      </trkpt>
      <trkpt lat="45.74628" lon="4.56732">
        <ele>377</ele>
        <time>2022-06-26T12:47:42Z</time>
      </trkpt>
      <trkpt lat="45.74626" lon="4.56734">
        <ele>377.2</ele>
        <time>2022-06-26T12:47:43Z</time>
      </trkpt>
      <trkpt lat="45.74624" lon="4.56737">
        <ele>377.4</ele>
        <time>2022-06-26T12:47:44Z</time>
      </trkpt>
      <trkpt lat="45.74622" lon="4.56739">
        <ele>377.6</ele>
        <time>2022-06-26T12:47:45Z</time>
      </trkpt>
      <trkpt lat="45.7462" lon="4.56741">
        <ele>377.6</ele>
        <time>2022-06-26T12:47:46Z</time>
      </trkpt>
      <trkpt lat="45.74618" lon="4.56744">
        <ele>378</ele>
        <time>2022-06-26T12:47:47Z</time>
      </trkpt>
      <trkpt lat="45.74616" lon="4.56746">
        <ele>378</ele>
        <time>2022-06-26T12:47:48Z</time>
      </trkpt>
      <trkpt lat="45.74614" lon="4.56748">
        <ele>378.4</ele>
        <time>2022-06-26T12:47:49Z</time>
      </trkpt>
      <trkpt lat="45.74612" lon="4.5675">
        <ele>378.4</ele>
        <time>2022-06-26T12:47:50Z</time>
      </trkpt>
      <trkpt lat="45.74611" lon="4.56753">
        <ele>378.6</ele>
        <time>2022-06-26T12:47:51Z</time>
      </trkpt>
      <trkpt lat="45.74609" lon="4.56755">
        <ele>378.6</ele>
        <time>2022-06-26T12:47:52Z</time>
      </trkpt>
      <trkpt lat="45.74607" lon="4.56758">
        <ele>379</ele>
        <time>2022-06-26T12:47:53Z</time>
      </trkpt>
      <trkpt lat="45.74605" lon="4.5676">
        <ele>379</ele>
        <time>2022-06-26T12:47:54Z</time>
      </trkpt>
      <trkpt lat="45.74603" lon="4.56762">
        <ele>379.4</ele>
        <time>2022-06-26T12:47:55Z</time>
      </trkpt>
      <trkpt lat="45.74601" lon="4.56765">
        <ele>379.6</ele>
        <time>2022-06-26T12:47:56Z</time>
      </trkpt>
      <trkpt lat="45.74599" lon="4.56767">
        <ele>379.6</ele>
        <time>2022-06-26T12:47:57Z</time>
      </trkpt>
      <trkpt lat="45.74597" lon="4.56769">
        <ele>380</ele>
        <time>2022-06-26T12:47:58Z</time>
      </trkpt>
      <trkpt lat="45.74595" lon="4.56771">
        <ele>380</ele>
        <time>2022-06-26T12:47:59Z</time>
      </trkpt>
      <trkpt lat="45.74593" lon="4.56774">
        <ele>380</ele>
        <time>2022-06-26T12:48:00Z</time>
      </trkpt>
      <trkpt lat="45.74591" lon="4.56776">
        <ele>380.4</ele>
        <time>2022-06-26T12:48:01Z</time>
      </trkpt>
      <trkpt lat="45.74589" lon="4.56778">
        <ele>380.4</ele>
        <time>2022-06-26T12:48:02Z</time>
      </trkpt>
      <trkpt lat="45.74587" lon="4.5678">
        <ele>380.6</ele>
        <time>2022-06-26T12:48:03Z</time>
      </trkpt>
      <trkpt lat="45.74585" lon="4.56782">
        <ele>380.8</ele>
        <time>2022-06-26T12:48:04Z</time>
      </trkpt>
      <trkpt lat="45.74583" lon="4.56785">
        <ele>380.8</ele>
        <time>2022-06-26T12:48:05Z</time>
      </trkpt>
      <trkpt lat="45.74581" lon="4.56787">
        <ele>381.2</ele>
        <time>2022-06-26T12:48:06Z</time>
      </trkpt>
      <trkpt lat="45.7458" lon="4.56789">
        <ele>381.2</ele>
        <time>2022-06-26T12:48:07Z</time>
      </trkpt>
      <trkpt lat="45.74578" lon="4.56791">
        <ele>381.4</ele>
        <time>2022-06-26T12:48:08Z</time>
      </trkpt>
      <trkpt lat="45.74576" lon="4.56793">
        <ele>381.4</ele>
        <time>2022-06-26T12:48:09Z</time>
      </trkpt>
      <trkpt lat="45.74574" lon="4.56795">
        <ele>381.8</ele>
        <time>2022-06-26T12:48:10Z</time>
      </trkpt>
      <trkpt lat="45.74571" lon="4.56797">
        <ele>381.8</ele>
        <time>2022-06-26T12:48:11Z</time>
      </trkpt>
      <trkpt lat="45.74569" lon="4.56799">
        <ele>382</ele>
        <time>2022-06-26T12:48:12Z</time>
      </trkpt>
      <trkpt lat="45.74567" lon="4.568">
        <ele>382</ele>
        <time>2022-06-26T12:48:13Z</time>
      </trkpt>
      <trkpt lat="45.74564" lon="4.56802">
        <ele>382.2</ele>
        <time>2022-06-26T12:48:14Z</time>
      </trkpt>
      <trkpt lat="45.74562" lon="4.56803">
        <ele>382.2</ele>
        <time>2022-06-26T12:48:15Z</time>
      </trkpt>
      <trkpt lat="45.7456" lon="4.56805">
        <ele>382.2</ele>
        <time>2022-06-26T12:48:16Z</time>
      </trkpt>
      <trkpt lat="45.74558" lon="4.56807">
        <ele>382.4</ele>
        <time>2022-06-26T12:48:17Z</time>
      </trkpt>
      <trkpt lat="45.74555" lon="4.56808">
        <ele>382.4</ele>
        <time>2022-06-26T12:48:18Z</time>
      </trkpt>
      <trkpt lat="45.74553" lon="4.56809">
        <ele>382.8</ele>
        <time>2022-06-26T12:48:19Z</time>
      </trkpt>
      <trkpt lat="45.74551" lon="4.5681">
        <ele>382.8</ele>
        <time>2022-06-26T12:48:20Z</time>
      </trkpt>
      <trkpt lat="45.74548" lon="4.56811">
        <ele>383</ele>
        <time>2022-06-26T12:48:21Z</time>
      </trkpt>
      <trkpt lat="45.74546" lon="4.56811">
        <ele>383</ele>
        <time>2022-06-26T12:48:22Z</time>
      </trkpt>
      <trkpt lat="45.74544" lon="4.56812">
        <ele>383.4</ele>
        <time>2022-06-26T12:48:23Z</time>
      </trkpt>
      <trkpt lat="45.74542" lon="4.56813">
        <ele>383.4</ele>
        <time>2022-06-26T12:48:24Z</time>
      </trkpt>
      <trkpt lat="45.74539" lon="4.56814">
        <ele>383.6</ele>
        <time>2022-06-26T12:48:25Z</time>
      </trkpt>
      <trkpt lat="45.74537" lon="4.56814">
        <ele>383.8</ele>
        <time>2022-06-26T12:48:26Z</time>
      </trkpt>
      <trkpt lat="45.74535" lon="4.56815">
        <ele>383.8</ele>
        <time>2022-06-26T12:48:27Z</time>
      </trkpt>
      <trkpt lat="45.74533" lon="4.56815">
        <ele>384.2</ele>
        <time>2022-06-26T12:48:28Z</time>
      </trkpt>
      <trkpt lat="45.74531" lon="4.56815">
        <ele>384.4</ele>
        <time>2022-06-26T12:48:29Z</time>
      </trkpt>
      <trkpt lat="45.7453" lon="4.56815">
        <ele>384.6</ele>
        <time>2022-06-26T12:48:30Z</time>
      </trkpt>
      <trkpt lat="45.74528" lon="4.56816">
        <ele>384.8</ele>
        <time>2022-06-26T12:48:31Z</time>
      </trkpt>
      <trkpt lat="45.74527" lon="4.56817">
        <ele>385.2</ele>
        <time>2022-06-26T12:48:32Z</time>
      </trkpt>
      <trkpt lat="45.74525" lon="4.56817">
        <ele>385.2</ele>
        <time>2022-06-26T12:48:33Z</time>
      </trkpt>
      <trkpt lat="45.74524" lon="4.56818">
        <ele>385.6</ele>
        <time>2022-06-26T12:48:34Z</time>
      </trkpt>
      <trkpt lat="45.74522" lon="4.56818">
        <ele>385.8</ele>
        <time>2022-06-26T12:48:35Z</time>
      </trkpt>
      <trkpt lat="45.7452" lon="4.56819">
        <ele>385.8</ele>
        <time>2022-06-26T12:48:36Z</time>
      </trkpt>
      <trkpt lat="45.74518" lon="4.56819">
        <ele>386</ele>
        <time>2022-06-26T12:48:37Z</time>
      </trkpt>
      <trkpt lat="45.74516" lon="4.5682">
        <ele>386</ele>
        <time>2022-06-26T12:48:38Z</time>
      </trkpt>
      <trkpt lat="45.74515" lon="4.56821">
        <ele>386</ele>
        <time>2022-06-26T12:48:39Z</time>
      </trkpt>
      <trkpt lat="45.74513" lon="4.56823">
        <ele>386.4</ele>
        <time>2022-06-26T12:48:40Z</time>
      </trkpt>
      <trkpt lat="45.74511" lon="4.56825">
        <ele>386.4</ele>
        <time>2022-06-26T12:48:41Z</time>
      </trkpt>
      <trkpt lat="45.74508" lon="4.56827">
        <ele>386.6</ele>
        <time>2022-06-26T12:48:42Z</time>
      </trkpt>
      <trkpt lat="45.74505" lon="4.5683">
        <ele>386.6</ele>
        <time>2022-06-26T12:48:43Z</time>
      </trkpt>
      <trkpt lat="45.74502" lon="4.56833">
        <ele>386.6</ele>
        <time>2022-06-26T12:48:44Z</time>
      </trkpt>
      <trkpt lat="45.74499" lon="4.56836">
        <ele>386.6</ele>
        <time>2022-06-26T12:48:45Z</time>
      </trkpt>
      <trkpt lat="45.74496" lon="4.56839">
        <ele>386.6</ele>
        <time>2022-06-26T12:48:46Z</time>
      </trkpt>
      <trkpt lat="45.74493" lon="4.56842">
        <ele>386.6</ele>
        <time>2022-06-26T12:48:47Z</time>
      </trkpt>
      <trkpt lat="45.7449" lon="4.56845">
        <ele>386.6</ele>
        <time>2022-06-26T12:48:48Z</time>
      </trkpt>
      <trkpt lat="45.74487" lon="4.56847">
        <ele>386.6</ele>
        <time>2022-06-26T12:48:49Z</time>
      </trkpt>
      <trkpt lat="45.74485" lon="4.5685">
        <ele>386.6</ele>
        <time>2022-06-26T12:48:50Z</time>
      </trkpt>
      <trkpt lat="45.74483" lon="4.56853">
        <ele>386.6</ele>
        <time>2022-06-26T12:48:51Z</time>
      </trkpt>
      <trkpt lat="45.7448" lon="4.56855">
        <ele>386.6</ele>
        <time>2022-06-26T12:48:52Z</time>
      </trkpt>
      <trkpt lat="45.74477" lon="4.56858">
        <ele>387</ele>
        <time>2022-06-26T12:48:53Z</time>
      </trkpt>
      <trkpt lat="45.74475" lon="4.5686">
        <ele>387</ele>
        <time>2022-06-26T12:48:54Z</time>
      </trkpt>
      <trkpt lat="45.74472" lon="4.56862">
        <ele>387</ele>
        <time>2022-06-26T12:48:55Z</time>
      </trkpt>
      <trkpt lat="45.7447" lon="4.56865">
        <ele>387.2</ele>
        <time>2022-06-26T12:48:56Z</time>
      </trkpt>
      <trkpt lat="45.74467" lon="4.56867">
        <ele>387.2</ele>
        <time>2022-06-26T12:48:57Z</time>
      </trkpt>
      <trkpt lat="45.74465" lon="4.5687">
        <ele>387.2</ele>
        <time>2022-06-26T12:48:58Z</time>
      </trkpt>
      <trkpt lat="45.74462" lon="4.56873">
        <ele>387.4</ele>
        <time>2022-06-26T12:48:59Z</time>
      </trkpt>
      <trkpt lat="45.74459" lon="4.56875">
        <ele>387.4</ele>
        <time>2022-06-26T12:49:00Z</time>
      </trkpt>
      <trkpt lat="45.74456" lon="4.56878">
        <ele>387.4</ele>
        <time>2022-06-26T12:49:01Z</time>
      </trkpt>
      <trkpt lat="45.74454" lon="4.56881">
        <ele>387.6</ele>
        <time>2022-06-26T12:49:02Z</time>
      </trkpt>
      <trkpt lat="45.74451" lon="4.56884">
        <ele>387.6</ele>
        <time>2022-06-26T12:49:03Z</time>
      </trkpt>
      <trkpt lat="45.74448" lon="4.56886">
        <ele>387.6</ele>
        <time>2022-06-26T12:49:04Z</time>
      </trkpt>
      <trkpt lat="45.74445" lon="4.56888">
        <ele>387.6</ele>
        <time>2022-06-26T12:49:05Z</time>
      </trkpt>
      <trkpt lat="45.74443" lon="4.5689">
        <ele>388</ele>
        <time>2022-06-26T12:49:06Z</time>
      </trkpt>
      <trkpt lat="45.7444" lon="4.56892">
        <ele>388</ele>
        <time>2022-06-26T12:49:07Z</time>
      </trkpt>
      <trkpt lat="45.74437" lon="4.56894">
        <ele>388</ele>
        <time>2022-06-26T12:49:08Z</time>
      </trkpt>
      <trkpt lat="45.74435" lon="4.56896">
        <ele>388.2</ele>
        <time>2022-06-26T12:49:09Z</time>
      </trkpt>
      <trkpt lat="45.74432" lon="4.56897">
        <ele>388.2</ele>
        <time>2022-06-26T12:49:10Z</time>
      </trkpt>
      <trkpt lat="45.7443" lon="4.56898">
        <ele>388.6</ele>
        <time>2022-06-26T12:49:11Z</time>
      </trkpt>
      <trkpt lat="45.74427" lon="4.569">
        <ele>388.6</ele>
        <time>2022-06-26T12:49:12Z</time>
      </trkpt>
      <trkpt lat="45.74424" lon="4.56902">
        <ele>388.8</ele>
        <time>2022-06-26T12:49:13Z</time>
      </trkpt>
      <trkpt lat="45.74422" lon="4.56905">
        <ele>388.8</ele>
        <time>2022-06-26T12:49:14Z</time>
      </trkpt>
      <trkpt lat="45.74419" lon="4.56906">
        <ele>389.2</ele>
        <time>2022-06-26T12:49:15Z</time>
      </trkpt>
      <trkpt lat="45.74417" lon="4.56909">
        <ele>389.2</ele>
        <time>2022-06-26T12:49:16Z</time>
      </trkpt>
      <trkpt lat="45.74415" lon="4.56911">
        <ele>389.4</ele>
        <time>2022-06-26T12:49:17Z</time>
      </trkpt>
      <trkpt lat="45.74413" lon="4.56914">
        <ele>389.6</ele>
        <time>2022-06-26T12:49:18Z</time>
      </trkpt>
      <trkpt lat="45.7441" lon="4.56915">
        <ele>390</ele>
        <time>2022-06-26T12:49:19Z</time>
      </trkpt>
      <trkpt lat="45.74408" lon="4.56917">
        <ele>390.2</ele>
        <time>2022-06-26T12:49:20Z</time>
      </trkpt>
      <trkpt lat="45.74406" lon="4.56919">
        <ele>390.4</ele>
        <time>2022-06-26T12:49:21Z</time>
      </trkpt>
      <trkpt lat="45.74403" lon="4.56921">
        <ele>390.6</ele>
        <time>2022-06-26T12:49:22Z</time>
      </trkpt>
      <trkpt lat="45.74401" lon="4.56923">
        <ele>390.8</ele>
        <time>2022-06-26T12:49:23Z</time>
      </trkpt>
      <trkpt lat="45.74398" lon="4.56924">
        <ele>391.2</ele>
        <time>2022-06-26T12:49:24Z</time>
      </trkpt>
      <trkpt lat="45.74396" lon="4.56926">
        <ele>391.2</ele>
        <time>2022-06-26T12:49:25Z</time>
      </trkpt>
      <trkpt lat="45.74393" lon="4.56927">
        <ele>391.6</ele>
        <time>2022-06-26T12:49:26Z</time>
      </trkpt>
      <trkpt lat="45.7439" lon="4.56928">
        <ele>391.8</ele>
        <time>2022-06-26T12:49:27Z</time>
      </trkpt>
      <trkpt lat="45.74388" lon="4.5693">
        <ele>391.8</ele>
        <time>2022-06-26T12:49:28Z</time>
      </trkpt>
      <trkpt lat="45.74385" lon="4.56931">
        <ele>392</ele>
        <time>2022-06-26T12:49:29Z</time>
      </trkpt>
      <trkpt lat="45.74383" lon="4.56933">
        <ele>392</ele>
        <time>2022-06-26T12:49:30Z</time>
      </trkpt>
      <trkpt lat="45.74381" lon="4.56934">
        <ele>392.4</ele>
        <time>2022-06-26T12:49:31Z</time>
      </trkpt>
      <trkpt lat="45.74379" lon="4.56935">
        <ele>392.4</ele>
        <time>2022-06-26T12:49:32Z</time>
      </trkpt>
      <trkpt lat="45.74376" lon="4.56936">
        <ele>392.6</ele>
        <time>2022-06-26T12:49:33Z</time>
      </trkpt>
      <trkpt lat="45.74374" lon="4.56938">
        <ele>392.6</ele>
        <time>2022-06-26T12:49:34Z</time>
      </trkpt>
      <trkpt lat="45.74372" lon="4.5694">
        <ele>393</ele>
        <time>2022-06-26T12:49:35Z</time>
      </trkpt>
      <trkpt lat="45.7437" lon="4.56941">
        <ele>393</ele>
        <time>2022-06-26T12:49:36Z</time>
      </trkpt>
      <trkpt lat="45.74368" lon="4.56941">
        <ele>393.4</ele>
        <time>2022-06-26T12:49:37Z</time>
      </trkpt>
      <trkpt lat="45.74365" lon="4.56942">
        <ele>393.6</ele>
        <time>2022-06-26T12:49:38Z</time>
      </trkpt>
      <trkpt lat="45.74363" lon="4.56943">
        <ele>393.8</ele>
        <time>2022-06-26T12:49:39Z</time>
      </trkpt>
      <trkpt lat="45.74362" lon="4.56944">
        <ele>394</ele>
        <time>2022-06-26T12:49:40Z</time>
      </trkpt>
      <trkpt lat="45.7436" lon="4.56946">
        <ele>394</ele>
        <time>2022-06-26T12:49:41Z</time>
      </trkpt>
      <trkpt lat="45.74358" lon="4.56947">
        <ele>394.2</ele>
        <time>2022-06-26T12:49:42Z</time>
      </trkpt>
      <trkpt lat="45.74356" lon="4.56948">
        <ele>394.2</ele>
        <time>2022-06-26T12:49:43Z</time>
      </trkpt>
      <trkpt lat="45.74354" lon="4.56949">
        <ele>394.4</ele>
        <time>2022-06-26T12:49:44Z</time>
      </trkpt>
      <trkpt lat="45.74353" lon="4.56951">
        <ele>394.4</ele>
        <time>2022-06-26T12:49:45Z</time>
      </trkpt>
      <trkpt lat="45.74351" lon="4.56952">
        <ele>394.8</ele>
        <time>2022-06-26T12:49:47Z</time>
      </trkpt>
      <trkpt lat="45.74349" lon="4.56954">
        <ele>395.2</ele>
        <time>2022-06-26T12:49:48Z</time>
      </trkpt>
      <trkpt lat="45.74347" lon="4.56955">
        <ele>395.2</ele>
        <time>2022-06-26T12:49:49Z</time>
      </trkpt>
      <trkpt lat="45.74345" lon="4.56956">
        <ele>395.6</ele>
        <time>2022-06-26T12:49:50Z</time>
      </trkpt>
      <trkpt lat="45.74343" lon="4.56958">
        <ele>395.8</ele>
        <time>2022-06-26T12:49:51Z</time>
      </trkpt>
      <trkpt lat="45.74341" lon="4.56959">
        <ele>395.8</ele>
        <time>2022-06-26T12:49:52Z</time>
      </trkpt>
      <trkpt lat="45.74339" lon="4.5696">
        <ele>396.2</ele>
        <time>2022-06-26T12:49:53Z</time>
      </trkpt>
      <trkpt lat="45.74337" lon="4.56961">
        <ele>396.2</ele>
        <time>2022-06-26T12:49:54Z</time>
      </trkpt>
      <trkpt lat="45.74335" lon="4.56962">
        <ele>396.4</ele>
        <time>2022-06-26T12:49:55Z</time>
      </trkpt>
      <trkpt lat="45.74332" lon="4.56964">
        <ele>396.4</ele>
        <time>2022-06-26T12:49:56Z</time>
      </trkpt>
      <trkpt lat="45.7433" lon="4.56965">
        <ele>396.8</ele>
        <time>2022-06-26T12:49:57Z</time>
      </trkpt>
      <trkpt lat="45.74329" lon="4.56967">
        <ele>396.8</ele>
        <time>2022-06-26T12:49:58Z</time>
      </trkpt>
      <trkpt lat="45.74326" lon="4.56968">
        <ele>397</ele>
        <time>2022-06-26T12:49:59Z</time>
      </trkpt>
      <trkpt lat="45.74324" lon="4.56969">
        <ele>397</ele>
        <time>2022-06-26T12:50:00Z</time>
      </trkpt>
      <trkpt lat="45.74322" lon="4.56971">
        <ele>397.2</ele>
        <time>2022-06-26T12:50:01Z</time>
      </trkpt>
      <trkpt lat="45.74321" lon="4.56974">
        <ele>397.2</ele>
        <time>2022-06-26T12:50:02Z</time>
      </trkpt>
      <trkpt lat="45.74321" lon="4.56977">
        <ele>397.2</ele>
        <time>2022-06-26T12:50:03Z</time>
      </trkpt>
      <trkpt lat="45.74322" lon="4.56979">
        <ele>397.2</ele>
        <time>2022-06-26T12:50:04Z</time>
      </trkpt>
      <trkpt lat="45.74323" lon="4.56979">
        <ele>397.2</ele>
        <time>2022-06-26T12:50:05Z</time>
      </trkpt>
      <trkpt lat="45.74321" lon="4.56965">
        <ele>397.6</ele>
        <time>2022-06-26T12:57:58Z</time>
      </trkpt>
      <trkpt lat="45.74319" lon="4.56966">
        <ele>397.6</ele>
        <time>2022-06-26T12:57:59Z</time>
      </trkpt>
      <trkpt lat="45.74318" lon="4.56967">
        <ele>397.6</ele>
        <time>2022-06-26T12:58:00Z</time>
      </trkpt>
      <trkpt lat="45.74316" lon="4.56969">
        <ele>397.6</ele>
        <time>2022-06-26T12:58:01Z</time>
      </trkpt>
      <trkpt lat="45.74314" lon="4.56971">
        <ele>397.6</ele>
        <time>2022-06-26T12:58:02Z</time>
      </trkpt>
      <trkpt lat="45.74312" lon="4.56973">
        <ele>397.6</ele>
        <time>2022-06-26T12:58:03Z</time>
      </trkpt>
      <trkpt lat="45.74309" lon="4.56976">
        <ele>397.4</ele>
        <time>2022-06-26T12:58:04Z</time>
      </trkpt>
      <trkpt lat="45.74307" lon="4.56978">
        <ele>397.4</ele>
        <time>2022-06-26T12:58:05Z</time>
      </trkpt>
      <trkpt lat="45.74305" lon="4.56981">
        <ele>397.4</ele>
        <time>2022-06-26T12:58:06Z</time>
      </trkpt>
      <trkpt lat="45.74302" lon="4.56983">
        <ele>397.4</ele>
        <time>2022-06-26T12:58:07Z</time>
      </trkpt>
      <trkpt lat="45.743" lon="4.56986">
        <ele>397.4</ele>
        <time>2022-06-26T12:58:08Z</time>
      </trkpt>
      <trkpt lat="45.74297" lon="4.56989">
        <ele>397.4</ele>
        <time>2022-06-26T12:58:09Z</time>
      </trkpt>
      <trkpt lat="45.74295" lon="4.56992">
        <ele>397.2</ele>
        <time>2022-06-26T12:58:10Z</time>
      </trkpt>
      <trkpt lat="45.74293" lon="4.56994">
        <ele>397.2</ele>
        <time>2022-06-26T12:58:11Z</time>
      </trkpt>
      <trkpt lat="45.74291" lon="4.56996">
        <ele>397.2</ele>
        <time>2022-06-26T12:58:12Z</time>
      </trkpt>
      <trkpt lat="45.74288" lon="4.56998">
        <ele>397.2</ele>
        <time>2022-06-26T12:58:13Z</time>
      </trkpt>
      <trkpt lat="45.74286" lon="4.57">
        <ele>397.2</ele>
        <time>2022-06-26T12:58:14Z</time>
      </trkpt>
      <trkpt lat="45.74284" lon="4.57001">
        <ele>397.2</ele>
        <time>2022-06-26T12:58:15Z</time>
      </trkpt>
      <trkpt lat="45.74282" lon="4.57002">
        <ele>397.2</ele>
        <time>2022-06-26T12:58:16Z</time>
      </trkpt>
      <trkpt lat="45.7428" lon="4.57003">
        <ele>397.2</ele>
        <time>2022-06-26T12:58:17Z</time>
      </trkpt>
      <trkpt lat="45.74277" lon="4.57004">
        <ele>397.2</ele>
        <time>2022-06-26T12:58:18Z</time>
      </trkpt>
      <trkpt lat="45.74275" lon="4.57005">
        <ele>397.2</ele>
        <time>2022-06-26T12:58:19Z</time>
      </trkpt>
      <trkpt lat="45.74273" lon="4.57006">
        <ele>397.4</ele>
        <time>2022-06-26T12:58:20Z</time>
      </trkpt>
      <trkpt lat="45.74271" lon="4.57007">
        <ele>397.4</ele>
        <time>2022-06-26T12:58:21Z</time>
      </trkpt>
      <trkpt lat="45.74269" lon="4.57008">
        <ele>397.6</ele>
        <time>2022-06-26T12:58:22Z</time>
      </trkpt>
      <trkpt lat="45.74267" lon="4.57008">
        <ele>397.6</ele>
        <time>2022-06-26T12:58:23Z</time>
      </trkpt>
      <trkpt lat="45.74265" lon="4.57009">
        <ele>398</ele>
        <time>2022-06-26T12:58:24Z</time>
      </trkpt>
      <trkpt lat="45.74263" lon="4.57011">
        <ele>398</ele>
        <time>2022-06-26T12:58:25Z</time>
      </trkpt>
      <trkpt lat="45.74261" lon="4.57012">
        <ele>398.2</ele>
        <time>2022-06-26T12:58:26Z</time>
      </trkpt>
      <trkpt lat="45.74258" lon="4.57013">
        <ele>398.2</ele>
        <time>2022-06-26T12:58:27Z</time>
      </trkpt>
      <trkpt lat="45.74256" lon="4.57014">
        <ele>398.6</ele>
        <time>2022-06-26T12:58:28Z</time>
      </trkpt>
      <trkpt lat="45.74253" lon="4.57014">
        <ele>398.6</ele>
        <time>2022-06-26T12:58:29Z</time>
      </trkpt>
      <trkpt lat="45.7425" lon="4.57015">
        <ele>398.8</ele>
        <time>2022-06-26T12:58:30Z</time>
      </trkpt>
      <trkpt lat="45.74247" lon="4.57016">
        <ele>398.8</ele>
        <time>2022-06-26T12:58:31Z</time>
      </trkpt>
      <trkpt lat="45.74245" lon="4.57016">
        <ele>399.2</ele>
        <time>2022-06-26T12:58:32Z</time>
      </trkpt>
      <trkpt lat="45.74242" lon="4.57017">
        <ele>399.2</ele>
        <time>2022-06-26T12:58:33Z</time>
      </trkpt>
      <trkpt lat="45.7424" lon="4.57018">
        <ele>399.4</ele>
        <time>2022-06-26T12:58:34Z</time>
      </trkpt>
      <trkpt lat="45.74237" lon="4.5702">
        <ele>399.4</ele>
        <time>2022-06-26T12:58:35Z</time>
      </trkpt>
      <trkpt lat="45.74235" lon="4.57021">
        <ele>399.6</ele>
        <time>2022-06-26T12:58:36Z</time>
      </trkpt>
      <trkpt lat="45.74233" lon="4.57026">
        <ele>399.6</ele>
        <time>2022-06-26T12:58:37Z</time>
      </trkpt>
      <trkpt lat="45.7423" lon="4.57029">
        <ele>400</ele>
        <time>2022-06-26T12:58:38Z</time>
      </trkpt>
      <trkpt lat="45.74227" lon="4.57031">
        <ele>400</ele>
        <time>2022-06-26T12:58:39Z</time>
      </trkpt>
      <trkpt lat="45.74225" lon="4.57032">
        <ele>400.4</ele>
        <time>2022-06-26T12:58:40Z</time>
      </trkpt>
      <trkpt lat="45.74223" lon="4.57034">
        <ele>400.6</ele>
        <time>2022-06-26T12:58:41Z</time>
      </trkpt>
      <trkpt lat="45.74221" lon="4.57037">
        <ele>400.8</ele>
        <time>2022-06-26T12:58:42Z</time>
      </trkpt>
      <trkpt lat="45.74219" lon="4.5704">
        <ele>401.2</ele>
        <time>2022-06-26T12:58:43Z</time>
      </trkpt>
      <trkpt lat="45.74217" lon="4.57044">
        <ele>401.2</ele>
        <time>2022-06-26T12:58:44Z</time>
      </trkpt>
      <trkpt lat="45.74215" lon="4.57045">
        <ele>401.4</ele>
        <time>2022-06-26T12:58:45Z</time>
      </trkpt>
      <trkpt lat="45.74213" lon="4.57047">
        <ele>401.8</ele>
        <time>2022-06-26T12:58:46Z</time>
      </trkpt>
      <trkpt lat="45.74211" lon="4.5705">
        <ele>402</ele>
        <time>2022-06-26T12:58:47Z</time>
      </trkpt>
      <trkpt lat="45.74209" lon="4.5705">
        <ele>402.2</ele>
        <time>2022-06-26T12:58:48Z</time>
      </trkpt>
      <trkpt lat="45.74207" lon="4.57052">
        <ele>402.6</ele>
        <time>2022-06-26T12:58:49Z</time>
      </trkpt>
      <trkpt lat="45.74205" lon="4.57053">
        <ele>402.8</ele>
        <time>2022-06-26T12:58:50Z</time>
      </trkpt>
      <trkpt lat="45.74203" lon="4.57054">
        <ele>403</ele>
        <time>2022-06-26T12:58:51Z</time>
      </trkpt>
      <trkpt lat="45.74201" lon="4.57055">
        <ele>403.2</ele>
        <time>2022-06-26T12:58:52Z</time>
      </trkpt>
      <trkpt lat="45.74198" lon="4.57056">
        <ele>403.6</ele>
        <time>2022-06-26T12:58:53Z</time>
      </trkpt>
      <trkpt lat="45.74197" lon="4.57057">
        <ele>403.6</ele>
        <time>2022-06-26T12:58:54Z</time>
      </trkpt>
      <trkpt lat="45.74195" lon="4.57058">
        <ele>404</ele>
        <time>2022-06-26T12:58:55Z</time>
      </trkpt>
      <trkpt lat="45.74193" lon="4.57059">
        <ele>404</ele>
        <time>2022-06-26T12:58:56Z</time>
      </trkpt>
      <trkpt lat="45.74191" lon="4.5706">
        <ele>404.2</ele>
        <time>2022-06-26T12:58:57Z</time>
      </trkpt>
      <trkpt lat="45.7419" lon="4.57062">
        <ele>404.2</ele>
        <time>2022-06-26T12:58:58Z</time>
      </trkpt>
      <trkpt lat="45.74188" lon="4.57062">
        <ele>404.6</ele>
        <time>2022-06-26T12:58:59Z</time>
      </trkpt>
      <trkpt lat="45.74186" lon="4.57062">
        <ele>404.6</ele>
        <time>2022-06-26T12:59:00Z</time>
      </trkpt>
      <trkpt lat="45.74184" lon="4.57062">
        <ele>404.8</ele>
        <time>2022-06-26T12:59:01Z</time>
      </trkpt>
      <trkpt lat="45.74182" lon="4.57062">
        <ele>404.8</ele>
        <time>2022-06-26T12:59:02Z</time>
      </trkpt>
      <trkpt lat="45.7418" lon="4.57062">
        <ele>405</ele>
        <time>2022-06-26T12:59:03Z</time>
      </trkpt>
      <trkpt lat="45.74177" lon="4.57063">
        <ele>405</ele>
        <time>2022-06-26T12:59:04Z</time>
      </trkpt>
      <trkpt lat="45.74175" lon="4.57064">
        <ele>405</ele>
        <time>2022-06-26T12:59:05Z</time>
      </trkpt>
      <trkpt lat="45.74172" lon="4.57066">
        <ele>405.2</ele>
        <time>2022-06-26T12:59:06Z</time>
      </trkpt>
      <trkpt lat="45.7417" lon="4.57067">
        <ele>405.2</ele>
        <time>2022-06-26T12:59:07Z</time>
      </trkpt>
      <trkpt lat="45.74168" lon="4.57068">
        <ele>405.6</ele>
        <time>2022-06-26T12:59:08Z</time>
      </trkpt>
      <trkpt lat="45.74166" lon="4.57069">
        <ele>405.6</ele>
        <time>2022-06-26T12:59:09Z</time>
      </trkpt>
      <trkpt lat="45.74163" lon="4.5707">
        <ele>405.8</ele>
        <time>2022-06-26T12:59:10Z</time>
      </trkpt>
      <trkpt lat="45.7416" lon="4.57071">
        <ele>405.8</ele>
        <time>2022-06-26T12:59:11Z</time>
      </trkpt>
      <trkpt lat="45.74158" lon="4.57072">
        <ele>406</ele>
        <time>2022-06-26T12:59:12Z</time>
      </trkpt>
      <trkpt lat="45.74155" lon="4.57072">
        <ele>406</ele>
        <time>2022-06-26T12:59:13Z</time>
      </trkpt>
      <trkpt lat="45.74153" lon="4.57074">
        <ele>406.4</ele>
        <time>2022-06-26T12:59:14Z</time>
      </trkpt>
      <trkpt lat="45.7415" lon="4.57075">
        <ele>406.4</ele>
        <time>2022-06-26T12:59:15Z</time>
      </trkpt>
      <trkpt lat="45.74147" lon="4.57075">
        <ele>406.6</ele>
        <time>2022-06-26T12:59:16Z</time>
      </trkpt>
      <trkpt lat="45.74145" lon="4.57075">
        <ele>407</ele>
        <time>2022-06-26T12:59:17Z</time>
      </trkpt>
      <trkpt lat="45.74139" lon="4.57075">
        <ele>407.2</ele>
        <time>2022-06-26T12:59:18Z</time>
      </trkpt>
      <trkpt lat="45.74134" lon="4.57075">
        <ele>407.4</ele>
        <time>2022-06-26T12:59:19Z</time>
      </trkpt>
      <trkpt lat="45.74129" lon="4.57076">
        <ele>410.2</ele>
        <time>2022-06-26T12:59:27Z</time>
      </trkpt>
      <trkpt lat="45.74125" lon="4.57076">
        <ele>410.6</ele>
        <time>2022-06-26T12:59:28Z</time>
      </trkpt>
      <trkpt lat="45.74122" lon="4.57075">
        <ele>410.8</ele>
        <time>2022-06-26T12:59:29Z</time>
      </trkpt>
      <trkpt lat="45.7412" lon="4.57075">
        <ele>411.2</ele>
        <time>2022-06-26T12:59:30Z</time>
      </trkpt>
      <trkpt lat="45.74117" lon="4.57075">
        <ele>411.4</ele>
        <time>2022-06-26T12:59:31Z</time>
      </trkpt>
      <trkpt lat="45.74115" lon="4.57074">
        <ele>411.6</ele>
        <time>2022-06-26T12:59:32Z</time>
      </trkpt>
      <trkpt lat="45.74113" lon="4.57073">
        <ele>412</ele>
        <time>2022-06-26T12:59:33Z</time>
      </trkpt>
      <trkpt lat="45.74111" lon="4.57073">
        <ele>412.4</ele>
        <time>2022-06-26T12:59:34Z</time>
      </trkpt>
      <trkpt lat="45.74109" lon="4.57071">
        <ele>412.8</ele>
        <time>2022-06-26T12:59:35Z</time>
      </trkpt>
      <trkpt lat="45.74107" lon="4.5707">
        <ele>413</ele>
        <time>2022-06-26T12:59:36Z</time>
      </trkpt>
      <trkpt lat="45.74104" lon="4.57069">
        <ele>413</ele>
        <time>2022-06-26T12:59:37Z</time>
      </trkpt>
      <trkpt lat="45.74102" lon="4.57068">
        <ele>413.2</ele>
        <time>2022-06-26T12:59:38Z</time>
      </trkpt>
      <trkpt lat="45.741" lon="4.57067">
        <ele>413.2</ele>
        <time>2022-06-26T12:59:39Z</time>
      </trkpt>
      <trkpt lat="45.74097" lon="4.57066">
        <ele>413.4</ele>
        <time>2022-06-26T12:59:40Z</time>
      </trkpt>
      <trkpt lat="45.74095" lon="4.57066">
        <ele>413.4</ele>
        <time>2022-06-26T12:59:41Z</time>
      </trkpt>
      <trkpt lat="45.74092" lon="4.57065">
        <ele>413.6</ele>
        <time>2022-06-26T12:59:42Z</time>
      </trkpt>
      <trkpt lat="45.74089" lon="4.57064">
        <ele>413.6</ele>
        <time>2022-06-26T12:59:43Z</time>
      </trkpt>
      <trkpt lat="45.74087" lon="4.57062">
        <ele>413.6</ele>
        <time>2022-06-26T12:59:44Z</time>
      </trkpt>
      <trkpt lat="45.74085" lon="4.5706">
        <ele>413.6</ele>
        <time>2022-06-26T12:59:45Z</time>
      </trkpt>
      <trkpt lat="45.74082" lon="4.57059">
        <ele>413.6</ele>
        <time>2022-06-26T12:59:46Z</time>
      </trkpt>
      <trkpt lat="45.7408" lon="4.57058">
        <ele>414</ele>
        <time>2022-06-26T12:59:47Z</time>
      </trkpt>
      <trkpt lat="45.74077" lon="4.57056">
        <ele>414</ele>
        <time>2022-06-26T12:59:48Z</time>
      </trkpt>
      <trkpt lat="45.74074" lon="4.57054">
        <ele>414</ele>
        <time>2022-06-26T12:59:49Z</time>
      </trkpt>
      <trkpt lat="45.74072" lon="4.57052">
        <ele>414</ele>
        <time>2022-06-26T12:59:50Z</time>
      </trkpt>
      <trkpt lat="45.74069" lon="4.57049">
        <ele>414</ele>
        <time>2022-06-26T12:59:51Z</time>
      </trkpt>
      <trkpt lat="45.74066" lon="4.57046">
        <ele>414</ele>
        <time>2022-06-26T12:59:52Z</time>
      </trkpt>
      <trkpt lat="45.74062" lon="4.57043">
        <ele>414</ele>
        <time>2022-06-26T12:59:53Z</time>
      </trkpt>
      <trkpt lat="45.74059" lon="4.5704">
        <ele>414.2</ele>
        <time>2022-06-26T12:59:54Z</time>
      </trkpt>
      <trkpt lat="45.74056" lon="4.57037">
        <ele>414.2</ele>
        <time>2022-06-26T12:59:55Z</time>
      </trkpt>
      <trkpt lat="45.74053" lon="4.57034">
        <ele>414.2</ele>
        <time>2022-06-26T12:59:56Z</time>
      </trkpt>
      <trkpt lat="45.7405" lon="4.57031">
        <ele>414.2</ele>
        <time>2022-06-26T12:59:57Z</time>
      </trkpt>
      <trkpt lat="45.74047" lon="4.57028">
        <ele>414.4</ele>
        <time>2022-06-26T12:59:58Z</time>
      </trkpt>
      <trkpt lat="45.74044" lon="4.57025">
        <ele>414.4</ele>
        <time>2022-06-26T12:59:59Z</time>
      </trkpt>
      <trkpt lat="45.74041" lon="4.57021">
        <ele>414.6</ele>
        <time>2022-06-26T13:00:00Z</time>
      </trkpt>
      <trkpt lat="45.74037" lon="4.57018">
        <ele>414.6</ele>
        <time>2022-06-26T13:00:01Z</time>
      </trkpt>
      <trkpt lat="45.74034" lon="4.57015">
        <ele>414.8</ele>
        <time>2022-06-26T13:00:02Z</time>
      </trkpt>
      <trkpt lat="45.74031" lon="4.57013">
        <ele>414.8</ele>
        <time>2022-06-26T13:00:03Z</time>
      </trkpt>
      <trkpt lat="45.74028" lon="4.5701">
        <ele>415.2</ele>
        <time>2022-06-26T13:00:04Z</time>
      </trkpt>
      <trkpt lat="45.74025" lon="4.57006">
        <ele>415.2</ele>
        <time>2022-06-26T13:00:05Z</time>
      </trkpt>
      <trkpt lat="45.74022" lon="4.57003">
        <ele>415.4</ele>
        <time>2022-06-26T13:00:06Z</time>
      </trkpt>
      <trkpt lat="45.74019" lon="4.57">
        <ele>415.4</ele>
        <time>2022-06-26T13:00:07Z</time>
      </trkpt>
      <trkpt lat="45.74017" lon="4.56997">
        <ele>415.6</ele>
        <time>2022-06-26T13:00:08Z</time>
      </trkpt>
      <trkpt lat="45.74014" lon="4.56994">
        <ele>415.6</ele>
        <time>2022-06-26T13:00:09Z</time>
      </trkpt>
      <trkpt lat="45.74011" lon="4.56991">
        <ele>416</ele>
        <time>2022-06-26T13:00:10Z</time>
      </trkpt>
      <trkpt lat="45.74009" lon="4.56989">
        <ele>416</ele>
        <time>2022-06-26T13:00:11Z</time>
      </trkpt>
      <trkpt lat="45.74006" lon="4.56986">
        <ele>416.4</ele>
        <time>2022-06-26T13:00:12Z</time>
      </trkpt>
      <trkpt lat="45.74004" lon="4.56983">
        <ele>416.6</ele>
        <time>2022-06-26T13:00:13Z</time>
      </trkpt>
      <trkpt lat="45.74001" lon="4.56981">
        <ele>416.6</ele>
        <time>2022-06-26T13:00:14Z</time>
      </trkpt>
      <trkpt lat="45.73999" lon="4.56978">
        <ele>417</ele>
        <time>2022-06-26T13:00:15Z</time>
      </trkpt>
      <trkpt lat="45.73996" lon="4.56976">
        <ele>417</ele>
        <time>2022-06-26T13:00:16Z</time>
      </trkpt>
      <trkpt lat="45.73994" lon="4.56974">
        <ele>417.4</ele>
        <time>2022-06-26T13:00:17Z</time>
      </trkpt>
      <trkpt lat="45.73992" lon="4.56972">
        <ele>417.4</ele>
        <time>2022-06-26T13:00:18Z</time>
      </trkpt>
      <trkpt lat="45.73991" lon="4.56969">
        <ele>417.6</ele>
        <time>2022-06-26T13:00:19Z</time>
      </trkpt>
      <trkpt lat="45.73989" lon="4.56967">
        <ele>417.6</ele>
        <time>2022-06-26T13:00:20Z</time>
      </trkpt>
      <trkpt lat="45.73987" lon="4.56964">
        <ele>418</ele>
        <time>2022-06-26T13:00:21Z</time>
      </trkpt>
      <trkpt lat="45.73985" lon="4.56962">
        <ele>418</ele>
        <time>2022-06-26T13:00:22Z</time>
      </trkpt>
      <trkpt lat="45.73983" lon="4.5696">
        <ele>418.4</ele>
        <time>2022-06-26T13:00:23Z</time>
      </trkpt>
      <trkpt lat="45.73981" lon="4.56958">
        <ele>418.6</ele>
        <time>2022-06-26T13:00:25Z</time>
      </trkpt>
      <trkpt lat="45.73979" lon="4.56956">
        <ele>419</ele>
        <time>2022-06-26T13:00:26Z</time>
      </trkpt>
      <trkpt lat="45.73977" lon="4.56954">
        <ele>419</ele>
        <time>2022-06-26T13:00:27Z</time>
      </trkpt>
      <trkpt lat="45.73975" lon="4.56951">
        <ele>419.2</ele>
        <time>2022-06-26T13:00:28Z</time>
      </trkpt>
      <trkpt lat="45.73973" lon="4.56949">
        <ele>419.2</ele>
        <time>2022-06-26T13:00:29Z</time>
      </trkpt>
      <trkpt lat="45.7397" lon="4.56946">
        <ele>419.6</ele>
        <time>2022-06-26T13:00:30Z</time>
      </trkpt>
      <trkpt lat="45.73968" lon="4.56944">
        <ele>419.6</ele>
        <time>2022-06-26T13:00:31Z</time>
      </trkpt>
      <trkpt lat="45.73966" lon="4.56941">
        <ele>420</ele>
        <time>2022-06-26T13:00:32Z</time>
      </trkpt>
      <trkpt lat="45.73964" lon="4.56938">
        <ele>420</ele>
        <time>2022-06-26T13:00:33Z</time>
      </trkpt>
      <trkpt lat="45.73962" lon="4.56935">
        <ele>420.2</ele>
        <time>2022-06-26T13:00:34Z</time>
      </trkpt>
      <trkpt lat="45.73961" lon="4.56932">
        <ele>420.2</ele>
        <time>2022-06-26T13:00:35Z</time>
      </trkpt>
      <trkpt lat="45.73959" lon="4.56929">
        <ele>420.6</ele>
        <time>2022-06-26T13:00:36Z</time>
      </trkpt>
      <trkpt lat="45.73957" lon="4.56926">
        <ele>420.6</ele>
        <time>2022-06-26T13:00:37Z</time>
      </trkpt>
      <trkpt lat="45.73955" lon="4.56923">
        <ele>420.8</ele>
        <time>2022-06-26T13:00:38Z</time>
      </trkpt>
      <trkpt lat="45.73954" lon="4.5692">
        <ele>420.8</ele>
        <time>2022-06-26T13:00:39Z</time>
      </trkpt>
      <trkpt lat="45.73951" lon="4.56917">
        <ele>421.2</ele>
        <time>2022-06-26T13:00:40Z</time>
      </trkpt>
      <trkpt lat="45.73949" lon="4.56914">
        <ele>421.2</ele>
        <time>2022-06-26T13:00:41Z</time>
      </trkpt>
      <trkpt lat="45.73948" lon="4.56911">
        <ele>421.4</ele>
        <time>2022-06-26T13:00:42Z</time>
      </trkpt>
      <trkpt lat="45.73946" lon="4.56908">
        <ele>421.4</ele>
        <time>2022-06-26T13:00:43Z</time>
      </trkpt>
      <trkpt lat="45.73944" lon="4.56905">
        <ele>421.8</ele>
        <time>2022-06-26T13:00:44Z</time>
      </trkpt>
      <trkpt lat="45.73943" lon="4.56901">
        <ele>421.8</ele>
        <time>2022-06-26T13:00:45Z</time>
      </trkpt>
      <trkpt lat="45.73941" lon="4.56898">
        <ele>422</ele>
        <time>2022-06-26T13:00:46Z</time>
      </trkpt>
      <trkpt lat="45.73939" lon="4.56894">
        <ele>422</ele>
        <time>2022-06-26T13:00:47Z</time>
      </trkpt>
      <trkpt lat="45.73938" lon="4.56891">
        <ele>422</ele>
        <time>2022-06-26T13:00:48Z</time>
      </trkpt>
      <trkpt lat="45.73936" lon="4.56888">
        <ele>422.2</ele>
        <time>2022-06-26T13:00:49Z</time>
      </trkpt>
      <trkpt lat="45.73934" lon="4.56884">
        <ele>422.2</ele>
        <time>2022-06-26T13:00:50Z</time>
      </trkpt>
      <trkpt lat="45.73933" lon="4.5688">
        <ele>422.6</ele>
        <time>2022-06-26T13:00:51Z</time>
      </trkpt>
      <trkpt lat="45.73931" lon="4.56876">
        <ele>422.6</ele>
        <time>2022-06-26T13:00:52Z</time>
      </trkpt>
      <trkpt lat="45.7393" lon="4.56873">
        <ele>422.8</ele>
        <time>2022-06-26T13:00:53Z</time>
      </trkpt>
      <trkpt lat="45.73928" lon="4.56869">
        <ele>422.8</ele>
        <time>2022-06-26T13:00:54Z</time>
      </trkpt>
      <trkpt lat="45.73927" lon="4.56866">
        <ele>423</ele>
        <time>2022-06-26T13:00:55Z</time>
      </trkpt>
      <trkpt lat="45.73925" lon="4.56862">
        <ele>423</ele>
        <time>2022-06-26T13:00:56Z</time>
      </trkpt>
      <trkpt lat="45.73924" lon="4.56859">
        <ele>423</ele>
        <time>2022-06-26T13:00:57Z</time>
      </trkpt>
      <trkpt lat="45.73922" lon="4.56855">
        <ele>423.4</ele>
        <time>2022-06-26T13:00:58Z</time>
      </trkpt>
      <trkpt lat="45.73921" lon="4.56851">
        <ele>423.4</ele>
        <time>2022-06-26T13:00:59Z</time>
      </trkpt>
      <trkpt lat="45.73919" lon="4.56847">
        <ele>423.6</ele>
        <time>2022-06-26T13:01:00Z</time>
      </trkpt>
      <trkpt lat="45.73918" lon="4.56843">
        <ele>423.6</ele>
        <time>2022-06-26T13:01:01Z</time>
      </trkpt>
      <trkpt lat="45.73916" lon="4.5684">
        <ele>424</ele>
        <time>2022-06-26T13:01:02Z</time>
      </trkpt>
      <trkpt lat="45.73915" lon="4.56836">
        <ele>424</ele>
        <time>2022-06-26T13:01:03Z</time>
      </trkpt>
      <trkpt lat="45.73913" lon="4.56833">
        <ele>424.2</ele>
        <time>2022-06-26T13:01:04Z</time>
      </trkpt>
      <trkpt lat="45.73912" lon="4.56829">
        <ele>424.2</ele>
        <time>2022-06-26T13:01:05Z</time>
      </trkpt>
      <trkpt lat="45.73911" lon="4.56825">
        <ele>424.6</ele>
        <time>2022-06-26T13:01:06Z</time>
      </trkpt>
      <trkpt lat="45.7391" lon="4.56821">
        <ele>424.8</ele>
        <time>2022-06-26T13:01:07Z</time>
      </trkpt>
      <trkpt lat="45.73909" lon="4.56817">
        <ele>424.8</ele>
        <time>2022-06-26T13:01:08Z</time>
      </trkpt>
      <trkpt lat="45.73908" lon="4.56814">
        <ele>425.2</ele>
        <time>2022-06-26T13:01:09Z</time>
      </trkpt>
      <trkpt lat="45.73907" lon="4.5681">
        <ele>425.4</ele>
        <time>2022-06-26T13:01:10Z</time>
      </trkpt>
      <trkpt lat="45.73906" lon="4.56807">
        <ele>425.6</ele>
        <time>2022-06-26T13:01:11Z</time>
      </trkpt>
      <trkpt lat="45.73905" lon="4.56804">
        <ele>425.8</ele>
        <time>2022-06-26T13:01:12Z</time>
      </trkpt>
      <trkpt lat="45.73904" lon="4.56802">
        <ele>426</ele>
        <time>2022-06-26T13:01:13Z</time>
      </trkpt>
      <trkpt lat="45.73903" lon="4.56799">
        <ele>426.4</ele>
        <time>2022-06-26T13:01:14Z</time>
      </trkpt>
      <trkpt lat="45.73902" lon="4.56795">
        <ele>426.6</ele>
        <time>2022-06-26T13:01:15Z</time>
      </trkpt>
      <trkpt lat="45.73901" lon="4.56792">
        <ele>427</ele>
        <time>2022-06-26T13:01:16Z</time>
      </trkpt>
      <trkpt lat="45.739" lon="4.56789">
        <ele>427.2</ele>
        <time>2022-06-26T13:01:17Z</time>
      </trkpt>
      <trkpt lat="45.739" lon="4.56786">
        <ele>427.6</ele>
        <time>2022-06-26T13:01:18Z</time>
      </trkpt>
      <trkpt lat="45.73899" lon="4.56783">
        <ele>427.8</ele>
        <time>2022-06-26T13:01:19Z</time>
      </trkpt>
      <trkpt lat="45.73898" lon="4.5678">
        <ele>428.2</ele>
        <time>2022-06-26T13:01:20Z</time>
      </trkpt>
      <trkpt lat="45.73897" lon="4.56778">
        <ele>428.4</ele>
        <time>2022-06-26T13:01:21Z</time>
      </trkpt>
      <trkpt lat="45.73897" lon="4.56775">
        <ele>428.8</ele>
        <time>2022-06-26T13:01:22Z</time>
      </trkpt>
      <trkpt lat="45.73896" lon="4.56772">
        <ele>429.2</ele>
        <time>2022-06-26T13:01:23Z</time>
      </trkpt>
      <trkpt lat="45.73895" lon="4.5677">
        <ele>429.4</ele>
        <time>2022-06-26T13:01:24Z</time>
      </trkpt>
      <trkpt lat="45.73894" lon="4.56767">
        <ele>429.8</ele>
        <time>2022-06-26T13:01:25Z</time>
      </trkpt>
      <trkpt lat="45.73893" lon="4.56765">
        <ele>430.2</ele>
        <time>2022-06-26T13:01:26Z</time>
      </trkpt>
      <trkpt lat="45.73891" lon="4.56762">
        <ele>430.4</ele>
        <time>2022-06-26T13:01:27Z</time>
      </trkpt>
      <trkpt lat="45.7389" lon="4.5676">
        <ele>430.8</ele>
        <time>2022-06-26T13:01:28Z</time>
      </trkpt>
      <trkpt lat="45.73888" lon="4.56758">
        <ele>431</ele>
        <time>2022-06-26T13:01:29Z</time>
      </trkpt>
      <trkpt lat="45.73887" lon="4.56756">
        <ele>431.4</ele>
        <time>2022-06-26T13:01:30Z</time>
      </trkpt>
      <trkpt lat="45.73885" lon="4.56754">
        <ele>432</ele>
        <time>2022-06-26T13:01:31Z</time>
      </trkpt>
      <trkpt lat="45.73883" lon="4.56752">
        <ele>432.4</ele>
        <time>2022-06-26T13:01:32Z</time>
      </trkpt>
      <trkpt lat="45.73882" lon="4.56749">
        <ele>432.6</ele>
        <time>2022-06-26T13:01:33Z</time>
      </trkpt>
      <trkpt lat="45.7388" lon="4.56747">
        <ele>433</ele>
        <time>2022-06-26T13:01:34Z</time>
      </trkpt>
      <trkpt lat="45.73879" lon="4.56745">
        <ele>433.4</ele>
        <time>2022-06-26T13:01:35Z</time>
      </trkpt>
      <trkpt lat="45.73877" lon="4.56742">
        <ele>433.6</ele>
        <time>2022-06-26T13:01:36Z</time>
      </trkpt>
      <trkpt lat="45.73876" lon="4.5674">
        <ele>434</ele>
        <time>2022-06-26T13:01:37Z</time>
      </trkpt>
      <trkpt lat="45.73875" lon="4.56737">
        <ele>434.2</ele>
        <time>2022-06-26T13:01:38Z</time>
      </trkpt>
      <trkpt lat="45.73874" lon="4.56735">
        <ele>434.4</ele>
        <time>2022-06-26T13:01:39Z</time>
      </trkpt>
      <trkpt lat="45.73872" lon="4.56732">
        <ele>434.6</ele>
        <time>2022-06-26T13:01:40Z</time>
      </trkpt>
      <trkpt lat="45.73871" lon="4.5673">
        <ele>434.8</ele>
        <time>2022-06-26T13:01:41Z</time>
      </trkpt>
      <trkpt lat="45.7387" lon="4.56728">
        <ele>435</ele>
        <time>2022-06-26T13:01:42Z</time>
      </trkpt>
      <trkpt lat="45.73869" lon="4.56726">
        <ele>435.4</ele>
        <time>2022-06-26T13:01:43Z</time>
      </trkpt>
      <trkpt lat="45.73868" lon="4.56724">
        <ele>435.4</ele>
        <time>2022-06-26T13:01:44Z</time>
      </trkpt>
      <trkpt lat="45.73866" lon="4.56722">
        <ele>435.6</ele>
        <time>2022-06-26T13:01:45Z</time>
      </trkpt>
      <trkpt lat="45.73865" lon="4.5672">
        <ele>436</ele>
        <time>2022-06-26T13:01:46Z</time>
      </trkpt>
      <trkpt lat="45.73863" lon="4.56718">
        <ele>436.2</ele>
        <time>2022-06-26T13:01:47Z</time>
      </trkpt>
      <trkpt lat="45.73862" lon="4.56716">
        <ele>436.4</ele>
        <time>2022-06-26T13:01:48Z</time>
      </trkpt>
      <trkpt lat="45.7386" lon="4.56714">
        <ele>436.6</ele>
        <time>2022-06-26T13:01:49Z</time>
      </trkpt>
      <trkpt lat="45.73859" lon="4.56713">
        <ele>436.8</ele>
        <time>2022-06-26T13:01:50Z</time>
      </trkpt>
      <trkpt lat="45.73857" lon="4.56711">
        <ele>437.2</ele>
        <time>2022-06-26T13:01:51Z</time>
      </trkpt>
      <trkpt lat="45.73856" lon="4.56709">
        <ele>437.4</ele>
        <time>2022-06-26T13:01:52Z</time>
      </trkpt>
      <trkpt lat="45.73855" lon="4.56707">
        <ele>437.4</ele>
        <time>2022-06-26T13:01:53Z</time>
      </trkpt>
      <trkpt lat="45.73854" lon="4.56705">
        <ele>437.8</ele>
        <time>2022-06-26T13:01:54Z</time>
      </trkpt>
      <trkpt lat="45.73853" lon="4.56703">
        <ele>438</ele>
        <time>2022-06-26T13:01:55Z</time>
      </trkpt>
      <trkpt lat="45.73852" lon="4.56701">
        <ele>438.2</ele>
        <time>2022-06-26T13:01:56Z</time>
      </trkpt>
      <trkpt lat="45.73851" lon="4.56699">
        <ele>438.4</ele>
        <time>2022-06-26T13:01:57Z</time>
      </trkpt>
      <trkpt lat="45.73849" lon="4.56697">
        <ele>438.4</ele>
        <time>2022-06-26T13:01:58Z</time>
      </trkpt>
      <trkpt lat="45.73848" lon="4.56695">
        <ele>439</ele>
        <time>2022-06-26T13:01:59Z</time>
      </trkpt>
      <trkpt lat="45.73847" lon="4.56693">
        <ele>439.2</ele>
        <time>2022-06-26T13:02:00Z</time>
      </trkpt>
      <trkpt lat="45.73846" lon="4.56691">
        <ele>439.4</ele>
        <time>2022-06-26T13:02:01Z</time>
      </trkpt>
      <trkpt lat="45.73844" lon="4.56689">
        <ele>439.6</ele>
        <time>2022-06-26T13:02:02Z</time>
      </trkpt>
      <trkpt lat="45.73843" lon="4.56688">
        <ele>439.8</ele>
        <time>2022-06-26T13:02:03Z</time>
      </trkpt>
      <trkpt lat="45.73841" lon="4.56686">
        <ele>440</ele>
        <time>2022-06-26T13:02:04Z</time>
      </trkpt>
      <trkpt lat="45.7384" lon="4.56685">
        <ele>440.2</ele>
        <time>2022-06-26T13:02:05Z</time>
      </trkpt>
      <trkpt lat="45.73839" lon="4.56683">
        <ele>440.6</ele>
        <time>2022-06-26T13:02:06Z</time>
      </trkpt>
      <trkpt lat="45.73837" lon="4.56682">
        <ele>440.8</ele>
        <time>2022-06-26T13:02:07Z</time>
      </trkpt>
      <trkpt lat="45.73836" lon="4.56681">
        <ele>441</ele>
        <time>2022-06-26T13:02:08Z</time>
      </trkpt>
      <trkpt lat="45.73834" lon="4.5668">
        <ele>441.2</ele>
        <time>2022-06-26T13:02:09Z</time>
      </trkpt>
      <trkpt lat="45.73833" lon="4.56678">
        <ele>441.4</ele>
        <time>2022-06-26T13:02:10Z</time>
      </trkpt>
      <trkpt lat="45.73831" lon="4.56677">
        <ele>441.6</ele>
        <time>2022-06-26T13:02:11Z</time>
      </trkpt>
      <trkpt lat="45.7383" lon="4.56676">
        <ele>442</ele>
        <time>2022-06-26T13:02:12Z</time>
      </trkpt>
      <trkpt lat="45.73828" lon="4.56674">
        <ele>442</ele>
        <time>2022-06-26T13:02:13Z</time>
      </trkpt>
      <trkpt lat="45.73827" lon="4.56673">
        <ele>442.2</ele>
        <time>2022-06-26T13:02:14Z</time>
      </trkpt>
      <trkpt lat="45.73826" lon="4.56671">
        <ele>442.6</ele>
        <time>2022-06-26T13:02:15Z</time>
      </trkpt>
      <trkpt lat="45.73824" lon="4.5667">
        <ele>442.8</ele>
        <time>2022-06-26T13:02:16Z</time>
      </trkpt>
      <trkpt lat="45.73822" lon="4.56669">
        <ele>443</ele>
        <time>2022-06-26T13:02:17Z</time>
      </trkpt>
      <trkpt lat="45.73821" lon="4.56668">
        <ele>443.2</ele>
        <time>2022-06-26T13:02:18Z</time>
      </trkpt>
      <trkpt lat="45.73819" lon="4.56667">
        <ele>443.4</ele>
        <time>2022-06-26T13:02:19Z</time>
      </trkpt>
      <trkpt lat="45.73818" lon="4.56666">
        <ele>443.4</ele>
        <time>2022-06-26T13:02:20Z</time>
      </trkpt>
      <trkpt lat="45.73816" lon="4.56665">
        <ele>443.8</ele>
        <time>2022-06-26T13:02:21Z</time>
      </trkpt>
      <trkpt lat="45.73815" lon="4.56664">
        <ele>443.8</ele>
        <time>2022-06-26T13:02:22Z</time>
      </trkpt>
      <trkpt lat="45.73813" lon="4.56663">
        <ele>444.2</ele>
        <time>2022-06-26T13:02:23Z</time>
      </trkpt>
      <trkpt lat="45.73812" lon="4.56662">
        <ele>444.4</ele>
        <time>2022-06-26T13:02:24Z</time>
      </trkpt>
      <trkpt lat="45.7381" lon="4.56661">
        <ele>444.8</ele>
        <time>2022-06-26T13:02:25Z</time>
      </trkpt>
      <trkpt lat="45.73809" lon="4.5666">
        <ele>445</ele>
        <time>2022-06-26T13:02:26Z</time>
      </trkpt>
      <trkpt lat="45.73808" lon="4.56658">
        <ele>445.2</ele>
        <time>2022-06-26T13:02:27Z</time>
      </trkpt>
      <trkpt lat="45.73806" lon="4.56658">
        <ele>445.2</ele>
        <time>2022-06-26T13:02:28Z</time>
      </trkpt>
      <trkpt lat="45.73805" lon="4.56657">
        <ele>445.4</ele>
        <time>2022-06-26T13:02:29Z</time>
      </trkpt>
      <trkpt lat="45.73804" lon="4.56656">
        <ele>445.4</ele>
        <time>2022-06-26T13:02:30Z</time>
      </trkpt>
      <trkpt lat="45.73803" lon="4.56654">
        <ele>445.8</ele>
        <time>2022-06-26T13:02:31Z</time>
      </trkpt>
      <trkpt lat="45.73801" lon="4.56652">
        <ele>445.8</ele>
        <time>2022-06-26T13:02:32Z</time>
      </trkpt>
      <trkpt lat="45.738" lon="4.56651">
        <ele>446.2</ele>
        <time>2022-06-26T13:02:33Z</time>
      </trkpt>
      <trkpt lat="45.73799" lon="4.56649">
        <ele>446.2</ele>
        <time>2022-06-26T13:02:34Z</time>
      </trkpt>
      <trkpt lat="45.73797" lon="4.56648">
        <ele>446.6</ele>
        <time>2022-06-26T13:02:35Z</time>
      </trkpt>
      <trkpt lat="45.73796" lon="4.56646">
        <ele>446.8</ele>
        <time>2022-06-26T13:02:36Z</time>
      </trkpt>
      <trkpt lat="45.73795" lon="4.56644">
        <ele>446.8</ele>
        <time>2022-06-26T13:02:37Z</time>
      </trkpt>
      <trkpt lat="45.73793" lon="4.56643">
        <ele>447.2</ele>
        <time>2022-06-26T13:02:38Z</time>
      </trkpt>
      <trkpt lat="45.73792" lon="4.56641">
        <ele>447.2</ele>
        <time>2022-06-26T13:02:39Z</time>
      </trkpt>
      <trkpt lat="45.7379" lon="4.56639">
        <ele>447.4</ele>
        <time>2022-06-26T13:02:40Z</time>
      </trkpt>
      <trkpt lat="45.73789" lon="4.56637">
        <ele>447.8</ele>
        <time>2022-06-26T13:02:41Z</time>
      </trkpt>
      <trkpt lat="45.73788" lon="4.56635">
        <ele>447.8</ele>
        <time>2022-06-26T13:02:42Z</time>
      </trkpt>
      <trkpt lat="45.73786" lon="4.56633">
        <ele>448</ele>
        <time>2022-06-26T13:02:43Z</time>
      </trkpt>
      <trkpt lat="45.73785" lon="4.56631">
        <ele>448</ele>
        <time>2022-06-26T13:02:44Z</time>
      </trkpt>
      <trkpt lat="45.73784" lon="4.56629">
        <ele>448.4</ele>
        <time>2022-06-26T13:02:45Z</time>
      </trkpt>
      <trkpt lat="45.73782" lon="4.56628">
        <ele>448.4</ele>
        <time>2022-06-26T13:02:46Z</time>
      </trkpt>
      <trkpt lat="45.7378" lon="4.56627">
        <ele>448.8</ele>
        <time>2022-06-26T13:02:47Z</time>
      </trkpt>
      <trkpt lat="45.73779" lon="4.56625">
        <ele>448.8</ele>
        <time>2022-06-26T13:02:48Z</time>
      </trkpt>
      <trkpt lat="45.73778" lon="4.56623">
        <ele>449</ele>
        <time>2022-06-26T13:02:49Z</time>
      </trkpt>
      <trkpt lat="45.73776" lon="4.56621">
        <ele>449</ele>
        <time>2022-06-26T13:02:50Z</time>
      </trkpt>
      <trkpt lat="45.73775" lon="4.5662">
        <ele>449.4</ele>
        <time>2022-06-26T13:02:51Z</time>
      </trkpt>
      <trkpt lat="45.73773" lon="4.56618">
        <ele>449.4</ele>
        <time>2022-06-26T13:02:52Z</time>
      </trkpt>
      <trkpt lat="45.73771" lon="4.56617">
        <ele>449.8</ele>
        <time>2022-06-26T13:02:53Z</time>
      </trkpt>
      <trkpt lat="45.7377" lon="4.56616">
        <ele>450</ele>
        <time>2022-06-26T13:02:54Z</time>
      </trkpt>
      <trkpt lat="45.73768" lon="4.56615">
        <ele>450</ele>
        <time>2022-06-26T13:02:55Z</time>
      </trkpt>
      <trkpt lat="45.73767" lon="4.56614">
        <ele>450.4</ele>
        <time>2022-06-26T13:02:56Z</time>
      </trkpt>
      <trkpt lat="45.73765" lon="4.56613">
        <ele>450.4</ele>
        <time>2022-06-26T13:02:57Z</time>
      </trkpt>
      <trkpt lat="45.73763" lon="4.56612">
        <ele>450.6</ele>
        <time>2022-06-26T13:02:58Z</time>
      </trkpt>
      <trkpt lat="45.73762" lon="4.5661">
        <ele>450.6</ele>
        <time>2022-06-26T13:02:59Z</time>
      </trkpt>
      <trkpt lat="45.7376" lon="4.56609">
        <ele>450.6</ele>
        <time>2022-06-26T13:03:00Z</time>
      </trkpt>
      <trkpt lat="45.73759" lon="4.56607">
        <ele>451</ele>
        <time>2022-06-26T13:03:01Z</time>
      </trkpt>
      <trkpt lat="45.73757" lon="4.56606">
        <ele>451</ele>
        <time>2022-06-26T13:03:02Z</time>
      </trkpt>
      <trkpt lat="45.73756" lon="4.56605">
        <ele>451.2</ele>
        <time>2022-06-26T13:03:03Z</time>
      </trkpt>
      <trkpt lat="45.73754" lon="4.56603">
        <ele>451.2</ele>
        <time>2022-06-26T13:03:04Z</time>
      </trkpt>
      <trkpt lat="45.73752" lon="4.56602">
        <ele>451.4</ele>
        <time>2022-06-26T13:03:05Z</time>
      </trkpt>
      <trkpt lat="45.73751" lon="4.56601">
        <ele>451.4</ele>
        <time>2022-06-26T13:03:06Z</time>
      </trkpt>
      <trkpt lat="45.73749" lon="4.566">
        <ele>451.8</ele>
        <time>2022-06-26T13:03:07Z</time>
      </trkpt>
      <trkpt lat="45.73748" lon="4.56599">
        <ele>451.8</ele>
        <time>2022-06-26T13:03:08Z</time>
      </trkpt>
      <trkpt lat="45.73746" lon="4.56598">
        <ele>452.2</ele>
        <time>2022-06-26T13:03:09Z</time>
      </trkpt>
      <trkpt lat="45.73744" lon="4.56597">
        <ele>452.2</ele>
        <time>2022-06-26T13:03:10Z</time>
      </trkpt>
      <trkpt lat="45.73743" lon="4.56596">
        <ele>452.6</ele>
        <time>2022-06-26T13:03:11Z</time>
      </trkpt>
      <trkpt lat="45.73741" lon="4.56595">
        <ele>452.6</ele>
        <time>2022-06-26T13:03:12Z</time>
      </trkpt>
      <trkpt lat="45.73739" lon="4.56594">
        <ele>453</ele>
        <time>2022-06-26T13:03:13Z</time>
      </trkpt>
      <trkpt lat="45.73738" lon="4.56593">
        <ele>453</ele>
        <time>2022-06-26T13:03:14Z</time>
      </trkpt>
      <trkpt lat="45.73736" lon="4.56593">
        <ele>453.4</ele>
        <time>2022-06-26T13:03:15Z</time>
      </trkpt>
      <trkpt lat="45.73734" lon="4.56592">
        <ele>453.6</ele>
        <time>2022-06-26T13:03:16Z</time>
      </trkpt>
      <trkpt lat="45.73732" lon="4.56591">
        <ele>453.8</ele>
        <time>2022-06-26T13:03:17Z</time>
      </trkpt>
      <trkpt lat="45.73731" lon="4.56589">
        <ele>453.8</ele>
        <time>2022-06-26T13:03:18Z</time>
      </trkpt>
      <trkpt lat="45.7373" lon="4.56588">
        <ele>454.2</ele>
        <time>2022-06-26T13:03:19Z</time>
      </trkpt>
      <trkpt lat="45.73728" lon="4.56586">
        <ele>454.2</ele>
        <time>2022-06-26T13:03:20Z</time>
      </trkpt>
      <trkpt lat="45.73727" lon="4.56585">
        <ele>454.6</ele>
        <time>2022-06-26T13:03:21Z</time>
      </trkpt>
      <trkpt lat="45.73726" lon="4.56583">
        <ele>454.8</ele>
        <time>2022-06-26T13:03:22Z</time>
      </trkpt>
      <trkpt lat="45.73725" lon="4.56581">
        <ele>454.8</ele>
        <time>2022-06-26T13:03:23Z</time>
      </trkpt>
      <trkpt lat="45.73723" lon="4.56579">
        <ele>455.2</ele>
        <time>2022-06-26T13:03:24Z</time>
      </trkpt>
      <trkpt lat="45.73722" lon="4.56578">
        <ele>455.4</ele>
        <time>2022-06-26T13:03:25Z</time>
      </trkpt>
      <trkpt lat="45.7372" lon="4.56577">
        <ele>455.4</ele>
        <time>2022-06-26T13:03:26Z</time>
      </trkpt>
      <trkpt lat="45.73719" lon="4.56576">
        <ele>455.8</ele>
        <time>2022-06-26T13:03:27Z</time>
      </trkpt>
      <trkpt lat="45.73717" lon="4.56575">
        <ele>455.8</ele>
        <time>2022-06-26T13:03:28Z</time>
      </trkpt>
      <trkpt lat="45.73716" lon="4.56574">
        <ele>456</ele>
        <time>2022-06-26T13:03:29Z</time>
      </trkpt>
      <trkpt lat="45.73715" lon="4.56572">
        <ele>456</ele>
        <time>2022-06-26T13:03:30Z</time>
      </trkpt>
      <trkpt lat="45.73713" lon="4.5657">
        <ele>456.4</ele>
        <time>2022-06-26T13:03:31Z</time>
      </trkpt>
      <trkpt lat="45.73712" lon="4.56569">
        <ele>456.4</ele>
        <time>2022-06-26T13:03:32Z</time>
      </trkpt>
      <trkpt lat="45.73711" lon="4.56567">
        <ele>456.8</ele>
        <time>2022-06-26T13:03:33Z</time>
      </trkpt>
      <trkpt lat="45.7371" lon="4.56565">
        <ele>457</ele>
        <time>2022-06-26T13:03:34Z</time>
      </trkpt>
      <trkpt lat="45.73708" lon="4.56564">
        <ele>457</ele>
        <time>2022-06-26T13:03:35Z</time>
      </trkpt>
      <trkpt lat="45.73707" lon="4.56562">
        <ele>457.2</ele>
        <time>2022-06-26T13:03:36Z</time>
      </trkpt>
      <trkpt lat="45.73706" lon="4.5656">
        <ele>457.2</ele>
        <time>2022-06-26T13:03:37Z</time>
      </trkpt>
      <trkpt lat="45.73705" lon="4.56557">
        <ele>457.6</ele>
        <time>2022-06-26T13:03:38Z</time>
      </trkpt>
      <trkpt lat="45.73704" lon="4.56555">
        <ele>457.6</ele>
        <time>2022-06-26T13:03:39Z</time>
      </trkpt>
      <trkpt lat="45.73702" lon="4.56554">
        <ele>457.8</ele>
        <time>2022-06-26T13:03:40Z</time>
      </trkpt>
      <trkpt lat="45.73701" lon="4.56552">
        <ele>458.2</ele>
        <time>2022-06-26T13:03:41Z</time>
      </trkpt>
      <trkpt lat="45.73699" lon="4.5655">
        <ele>458.2</ele>
        <time>2022-06-26T13:03:42Z</time>
      </trkpt>
      <trkpt lat="45.73698" lon="4.56548">
        <ele>458.4</ele>
        <time>2022-06-26T13:03:43Z</time>
      </trkpt>
      <trkpt lat="45.73696" lon="4.56547">
        <ele>458.6</ele>
        <time>2022-06-26T13:03:44Z</time>
      </trkpt>
      <trkpt lat="45.73695" lon="4.56545">
        <ele>458.6</ele>
        <time>2022-06-26T13:03:45Z</time>
      </trkpt>
      <trkpt lat="45.73694" lon="4.56543">
        <ele>459</ele>
        <time>2022-06-26T13:03:46Z</time>
      </trkpt>
      <trkpt lat="45.73693" lon="4.56541">
        <ele>459</ele>
        <time>2022-06-26T13:03:47Z</time>
      </trkpt>
      <trkpt lat="45.73692" lon="4.56539">
        <ele>459.2</ele>
        <time>2022-06-26T13:03:48Z</time>
      </trkpt>
      <trkpt lat="45.7369" lon="4.56537">
        <ele>459.2</ele>
        <time>2022-06-26T13:03:49Z</time>
      </trkpt>
      <trkpt lat="45.73689" lon="4.56535">
        <ele>459.6</ele>
        <time>2022-06-26T13:03:50Z</time>
      </trkpt>
      <trkpt lat="45.73688" lon="4.56533">
        <ele>459.6</ele>
        <time>2022-06-26T13:03:51Z</time>
      </trkpt>
      <trkpt lat="45.73686" lon="4.56532">
        <ele>460</ele>
        <time>2022-06-26T13:03:52Z</time>
      </trkpt>
      <trkpt lat="45.73685" lon="4.5653">
        <ele>460</ele>
        <time>2022-06-26T13:03:53Z</time>
      </trkpt>
      <trkpt lat="45.73684" lon="4.56528">
        <ele>460.2</ele>
        <time>2022-06-26T13:03:54Z</time>
      </trkpt>
      <trkpt lat="45.73682" lon="4.56526">
        <ele>460.2</ele>
        <time>2022-06-26T13:03:55Z</time>
      </trkpt>
      <trkpt lat="45.73681" lon="4.56524">
        <ele>460.6</ele>
        <time>2022-06-26T13:03:56Z</time>
      </trkpt>
      <trkpt lat="45.7368" lon="4.56523">
        <ele>460.6</ele>
        <time>2022-06-26T13:03:57Z</time>
      </trkpt>
      <trkpt lat="45.73679" lon="4.56521">
        <ele>461</ele>
        <time>2022-06-26T13:03:58Z</time>
      </trkpt>
      <trkpt lat="45.73677" lon="4.56519">
        <ele>461</ele>
        <time>2022-06-26T13:03:59Z</time>
      </trkpt>
      <trkpt lat="45.73676" lon="4.56517">
        <ele>461.2</ele>
        <time>2022-06-26T13:04:00Z</time>
      </trkpt>
      <trkpt lat="45.73675" lon="4.56515">
        <ele>461.6</ele>
        <time>2022-06-26T13:04:01Z</time>
      </trkpt>
      <trkpt lat="45.73674" lon="4.56513">
        <ele>461.6</ele>
        <time>2022-06-26T13:04:02Z</time>
      </trkpt>
      <trkpt lat="45.73673" lon="4.5651">
        <ele>461.8</ele>
        <time>2022-06-26T13:04:03Z</time>
      </trkpt>
      <trkpt lat="45.73672" lon="4.56508">
        <ele>461.8</ele>
        <time>2022-06-26T13:04:04Z</time>
      </trkpt>
      <trkpt lat="45.73671" lon="4.56506">
        <ele>462.2</ele>
        <time>2022-06-26T13:04:05Z</time>
      </trkpt>
      <trkpt lat="45.7367" lon="4.56503">
        <ele>462.4</ele>
        <time>2022-06-26T13:04:06Z</time>
      </trkpt>
      <trkpt lat="45.73669" lon="4.56501">
        <ele>462.6</ele>
        <time>2022-06-26T13:04:07Z</time>
      </trkpt>
      <trkpt lat="45.73668" lon="4.56499">
        <ele>463</ele>
        <time>2022-06-26T13:04:08Z</time>
      </trkpt>
      <trkpt lat="45.73667" lon="4.56497">
        <ele>463.2</ele>
        <time>2022-06-26T13:04:09Z</time>
      </trkpt>
      <trkpt lat="45.73667" lon="4.56494">
        <ele>463.4</ele>
        <time>2022-06-26T13:04:10Z</time>
      </trkpt>
      <trkpt lat="45.73666" lon="4.56492">
        <ele>463.6</ele>
        <time>2022-06-26T13:04:11Z</time>
      </trkpt>
      <trkpt lat="45.73665" lon="4.56489">
        <ele>463.8</ele>
        <time>2022-06-26T13:04:12Z</time>
      </trkpt>
      <trkpt lat="45.73664" lon="4.56487">
        <ele>463.8</ele>
        <time>2022-06-26T13:04:13Z</time>
      </trkpt>
      <trkpt lat="45.73663" lon="4.56485">
        <ele>464.2</ele>
        <time>2022-06-26T13:04:14Z</time>
      </trkpt>
      <trkpt lat="45.73663" lon="4.56482">
        <ele>464.2</ele>
        <time>2022-06-26T13:04:15Z</time>
      </trkpt>
      <trkpt lat="45.73662" lon="4.5648">
        <ele>464.6</ele>
        <time>2022-06-26T13:04:16Z</time>
      </trkpt>
      <trkpt lat="45.73661" lon="4.56477">
        <ele>464.6</ele>
        <time>2022-06-26T13:04:17Z</time>
      </trkpt>
      <trkpt lat="45.7366" lon="4.56475">
        <ele>464.8</ele>
        <time>2022-06-26T13:04:18Z</time>
      </trkpt>
      <trkpt lat="45.73659" lon="4.56472">
        <ele>465</ele>
        <time>2022-06-26T13:04:19Z</time>
      </trkpt>
      <trkpt lat="45.73658" lon="4.56469">
        <ele>465.4</ele>
        <time>2022-06-26T13:04:20Z</time>
      </trkpt>
      <trkpt lat="45.73657" lon="4.56467">
        <ele>465.4</ele>
        <time>2022-06-26T13:04:21Z</time>
      </trkpt>
      <trkpt lat="45.73656" lon="4.56464">
        <ele>465.6</ele>
        <time>2022-06-26T13:04:22Z</time>
      </trkpt>
      <trkpt lat="45.73655" lon="4.56461">
        <ele>465.6</ele>
        <time>2022-06-26T13:04:23Z</time>
      </trkpt>
      <trkpt lat="45.73654" lon="4.56458">
        <ele>466</ele>
        <time>2022-06-26T13:04:24Z</time>
      </trkpt>
      <trkpt lat="45.73653" lon="4.56455">
        <ele>466</ele>
        <time>2022-06-26T13:04:25Z</time>
      </trkpt>
      <trkpt lat="45.73652" lon="4.56452">
        <ele>466</ele>
        <time>2022-06-26T13:04:26Z</time>
      </trkpt>
      <trkpt lat="45.73651" lon="4.56448">
        <ele>466</ele>
        <time>2022-06-26T13:04:27Z</time>
      </trkpt>
      <trkpt lat="45.7365" lon="4.56445">
        <ele>466.2</ele>
        <time>2022-06-26T13:04:28Z</time>
      </trkpt>
      <trkpt lat="45.73648" lon="4.56442">
        <ele>466.2</ele>
        <time>2022-06-26T13:04:29Z</time>
      </trkpt>
      <trkpt lat="45.73647" lon="4.56439">
        <ele>466.4</ele>
        <time>2022-06-26T13:04:30Z</time>
      </trkpt>
      <trkpt lat="45.73646" lon="4.56436">
        <ele>466.4</ele>
        <time>2022-06-26T13:04:31Z</time>
      </trkpt>
      <trkpt lat="45.73645" lon="4.56434">
        <ele>466.4</ele>
        <time>2022-06-26T13:04:32Z</time>
      </trkpt>
      <trkpt lat="45.73644" lon="4.56431">
        <ele>466.6</ele>
        <time>2022-06-26T13:04:33Z</time>
      </trkpt>
      <trkpt lat="45.73643" lon="4.56428">
        <ele>466.6</ele>
        <time>2022-06-26T13:04:34Z</time>
      </trkpt>
      <trkpt lat="45.73642" lon="4.56424">
        <ele>466.8</ele>
        <time>2022-06-26T13:04:35Z</time>
      </trkpt>
      <trkpt lat="45.73641" lon="4.56421">
        <ele>466.8</ele>
        <time>2022-06-26T13:04:36Z</time>
      </trkpt>
      <trkpt lat="45.7364" lon="4.56419">
        <ele>466.8</ele>
        <time>2022-06-26T13:04:37Z</time>
      </trkpt>
      <trkpt lat="45.73638" lon="4.56416">
        <ele>467.2</ele>
        <time>2022-06-26T13:04:38Z</time>
      </trkpt>
      <trkpt lat="45.73637" lon="4.56412">
        <ele>467.2</ele>
        <time>2022-06-26T13:04:39Z</time>
      </trkpt>
      <trkpt lat="45.73635" lon="4.5641">
        <ele>467.4</ele>
        <time>2022-06-26T13:04:40Z</time>
      </trkpt>
      <trkpt lat="45.73634" lon="4.56407">
        <ele>467.4</ele>
        <time>2022-06-26T13:04:41Z</time>
      </trkpt>
      <trkpt lat="45.73632" lon="4.56404">
        <ele>467.4</ele>
        <time>2022-06-26T13:04:42Z</time>
      </trkpt>
      <trkpt lat="45.73631" lon="4.56401">
        <ele>467.6</ele>
        <time>2022-06-26T13:04:43Z</time>
      </trkpt>
      <trkpt lat="45.73629" lon="4.56398">
        <ele>467.6</ele>
        <time>2022-06-26T13:04:44Z</time>
      </trkpt>
      <trkpt lat="45.73628" lon="4.56396">
        <ele>467.6</ele>
        <time>2022-06-26T13:04:45Z</time>
      </trkpt>
      <trkpt lat="45.73626" lon="4.56394">
        <ele>467.8</ele>
        <time>2022-06-26T13:04:46Z</time>
      </trkpt>
      <trkpt lat="45.73624" lon="4.56391">
        <ele>467.8</ele>
        <time>2022-06-26T13:04:47Z</time>
      </trkpt>
      <trkpt lat="45.73622" lon="4.56389">
        <ele>468.2</ele>
        <time>2022-06-26T13:04:48Z</time>
      </trkpt>
      <trkpt lat="45.73621" lon="4.56387">
        <ele>468.2</ele>
        <time>2022-06-26T13:04:49Z</time>
      </trkpt>
      <trkpt lat="45.73619" lon="4.56385">
        <ele>468.4</ele>
        <time>2022-06-26T13:04:50Z</time>
      </trkpt>
      <trkpt lat="45.73617" lon="4.56382">
        <ele>468.4</ele>
        <time>2022-06-26T13:04:51Z</time>
      </trkpt>
      <trkpt lat="45.73615" lon="4.5638">
        <ele>468.4</ele>
        <time>2022-06-26T13:04:52Z</time>
      </trkpt>
      <trkpt lat="45.73614" lon="4.56378">
        <ele>468.8</ele>
        <time>2022-06-26T13:04:53Z</time>
      </trkpt>
      <trkpt lat="45.73612" lon="4.56376">
        <ele>468.8</ele>
        <time>2022-06-26T13:04:54Z</time>
      </trkpt>
      <trkpt lat="45.7361" lon="4.56373">
        <ele>469</ele>
        <time>2022-06-26T13:04:55Z</time>
      </trkpt>
      <trkpt lat="45.73608" lon="4.56371">
        <ele>469</ele>
        <time>2022-06-26T13:04:56Z</time>
      </trkpt>
      <trkpt lat="45.73607" lon="4.56369">
        <ele>469.2</ele>
        <time>2022-06-26T13:04:57Z</time>
      </trkpt>
      <trkpt lat="45.73605" lon="4.56367">
        <ele>469.2</ele>
        <time>2022-06-26T13:04:58Z</time>
      </trkpt>
      <trkpt lat="45.73604" lon="4.56364">
        <ele>469.6</ele>
        <time>2022-06-26T13:04:59Z</time>
      </trkpt>
      <trkpt lat="45.73602" lon="4.56362">
        <ele>469.6</ele>
        <time>2022-06-26T13:05:00Z</time>
      </trkpt>
      <trkpt lat="45.73601" lon="4.5636">
        <ele>469.8</ele>
        <time>2022-06-26T13:05:01Z</time>
      </trkpt>
      <trkpt lat="45.73599" lon="4.56357">
        <ele>469.8</ele>
        <time>2022-06-26T13:05:02Z</time>
      </trkpt>
      <trkpt lat="45.73598" lon="4.56355">
        <ele>470</ele>
        <time>2022-06-26T13:05:03Z</time>
      </trkpt>
      <trkpt lat="45.73596" lon="4.56353">
        <ele>470</ele>
        <time>2022-06-26T13:05:04Z</time>
      </trkpt>
      <trkpt lat="45.73595" lon="4.5635">
        <ele>470.2</ele>
        <time>2022-06-26T13:05:05Z</time>
      </trkpt>
      <trkpt lat="45.73593" lon="4.56348">
        <ele>470.2</ele>
        <time>2022-06-26T13:05:06Z</time>
      </trkpt>
      <trkpt lat="45.73592" lon="4.56346">
        <ele>470.6</ele>
        <time>2022-06-26T13:05:07Z</time>
      </trkpt>
      <trkpt lat="45.73591" lon="4.56343">
        <ele>470.6</ele>
        <time>2022-06-26T13:05:08Z</time>
      </trkpt>
      <trkpt lat="45.7359" lon="4.56341">
        <ele>471</ele>
        <time>2022-06-26T13:05:09Z</time>
      </trkpt>
      <trkpt lat="45.73589" lon="4.56338">
        <ele>471</ele>
        <time>2022-06-26T13:05:10Z</time>
      </trkpt>
      <trkpt lat="45.73588" lon="4.56335">
        <ele>471.4</ele>
        <time>2022-06-26T13:05:11Z</time>
      </trkpt>
      <trkpt lat="45.73587" lon="4.56334">
        <ele>471.6</ele>
        <time>2022-06-26T13:05:12Z</time>
      </trkpt>
      <trkpt lat="45.73586" lon="4.56332">
        <ele>471.8</ele>
        <time>2022-06-26T13:05:13Z</time>
      </trkpt>
      <trkpt lat="45.73585" lon="4.5633">
        <ele>471.8</ele>
        <time>2022-06-26T13:05:14Z</time>
      </trkpt>
      <trkpt lat="45.73584" lon="4.56327">
        <ele>472.2</ele>
        <time>2022-06-26T13:05:15Z</time>
      </trkpt>
      <trkpt lat="45.73583" lon="4.56325">
        <ele>472.4</ele>
        <time>2022-06-26T13:05:16Z</time>
      </trkpt>
      <trkpt lat="45.73581" lon="4.56323">
        <ele>472.4</ele>
        <time>2022-06-26T13:05:17Z</time>
      </trkpt>
      <trkpt lat="45.7358" lon="4.56321">
        <ele>472.8</ele>
        <time>2022-06-26T13:05:18Z</time>
      </trkpt>
      <trkpt lat="45.73578" lon="4.56318">
        <ele>472.8</ele>
        <time>2022-06-26T13:05:19Z</time>
      </trkpt>
      <trkpt lat="45.73576" lon="4.56316">
        <ele>473.2</ele>
        <time>2022-06-26T13:05:20Z</time>
      </trkpt>
      <trkpt lat="45.73575" lon="4.56314">
        <ele>473.2</ele>
        <time>2022-06-26T13:05:21Z</time>
      </trkpt>
      <trkpt lat="45.73573" lon="4.56312">
        <ele>473.4</ele>
        <time>2022-06-26T13:05:22Z</time>
      </trkpt>
      <trkpt lat="45.73571" lon="4.5631">
        <ele>473.6</ele>
        <time>2022-06-26T13:05:23Z</time>
      </trkpt>
      <trkpt lat="45.73569" lon="4.56308">
        <ele>474</ele>
        <time>2022-06-26T13:05:24Z</time>
      </trkpt>
      <trkpt lat="45.73568" lon="4.56306">
        <ele>474</ele>
        <time>2022-06-26T13:05:25Z</time>
      </trkpt>
      <trkpt lat="45.73566" lon="4.56305">
        <ele>474.2</ele>
        <time>2022-06-26T13:05:26Z</time>
      </trkpt>
      <trkpt lat="45.73564" lon="4.56303">
        <ele>474.4</ele>
        <time>2022-06-26T13:05:27Z</time>
      </trkpt>
      <trkpt lat="45.73562" lon="4.56302">
        <ele>474.6</ele>
        <time>2022-06-26T13:05:28Z</time>
      </trkpt>
      <trkpt lat="45.73561" lon="4.563">
        <ele>474.6</ele>
        <time>2022-06-26T13:05:29Z</time>
      </trkpt>
      <trkpt lat="45.73559" lon="4.56298">
        <ele>475.2</ele>
        <time>2022-06-26T13:05:30Z</time>
      </trkpt>
      <trkpt lat="45.73557" lon="4.56296">
        <ele>475.4</ele>
        <time>2022-06-26T13:05:31Z</time>
      </trkpt>
      <trkpt lat="45.73555" lon="4.56294">
        <ele>475.8</ele>
        <time>2022-06-26T13:05:32Z</time>
      </trkpt>
      <trkpt lat="45.73554" lon="4.56292">
        <ele>476</ele>
        <time>2022-06-26T13:05:33Z</time>
      </trkpt>
      <trkpt lat="45.73553" lon="4.5629">
        <ele>476.2</ele>
        <time>2022-06-26T13:05:34Z</time>
      </trkpt>
      <trkpt lat="45.73551" lon="4.56289">
        <ele>476.4</ele>
        <time>2022-06-26T13:05:35Z</time>
      </trkpt>
      <trkpt lat="45.73549" lon="4.56287">
        <ele>476.6</ele>
        <time>2022-06-26T13:05:36Z</time>
      </trkpt>
      <trkpt lat="45.73547" lon="4.56286">
        <ele>477</ele>
        <time>2022-06-26T13:05:37Z</time>
      </trkpt>
      <trkpt lat="45.73545" lon="4.56285">
        <ele>477.2</ele>
        <time>2022-06-26T13:05:38Z</time>
      </trkpt>
      <trkpt lat="45.73543" lon="4.56283">
        <ele>477.2</ele>
        <time>2022-06-26T13:05:39Z</time>
      </trkpt>
      <trkpt lat="45.73541" lon="4.56281">
        <ele>477.6</ele>
        <time>2022-06-26T13:05:40Z</time>
      </trkpt>
      <trkpt lat="45.7354" lon="4.5628">
        <ele>477.6</ele>
        <time>2022-06-26T13:05:41Z</time>
      </trkpt>
      <trkpt lat="45.73538" lon="4.56278">
        <ele>478</ele>
        <time>2022-06-26T13:05:42Z</time>
      </trkpt>
      <trkpt lat="45.73536" lon="4.56277">
        <ele>478.2</ele>
        <time>2022-06-26T13:05:43Z</time>
      </trkpt>
      <trkpt lat="45.73534" lon="4.56275">
        <ele>478.4</ele>
        <time>2022-06-26T13:05:44Z</time>
      </trkpt>
      <trkpt lat="45.73532" lon="4.56275">
        <ele>478.6</ele>
        <time>2022-06-26T13:05:45Z</time>
      </trkpt>
      <trkpt lat="45.73531" lon="4.56273">
        <ele>479</ele>
        <time>2022-06-26T13:05:46Z</time>
      </trkpt>
      <trkpt lat="45.73529" lon="4.56271">
        <ele>479</ele>
        <time>2022-06-26T13:05:47Z</time>
      </trkpt>
      <trkpt lat="45.73527" lon="4.5627">
        <ele>479.2</ele>
        <time>2022-06-26T13:05:48Z</time>
      </trkpt>
      <trkpt lat="45.73525" lon="4.56268">
        <ele>479.2</ele>
        <time>2022-06-26T13:05:49Z</time>
      </trkpt>
      <trkpt lat="45.73524" lon="4.56267">
        <ele>479.6</ele>
        <time>2022-06-26T13:05:50Z</time>
      </trkpt>
      <trkpt lat="45.73522" lon="4.56265">
        <ele>480</ele>
        <time>2022-06-26T13:05:51Z</time>
      </trkpt>
      <trkpt lat="45.7352" lon="4.56263">
        <ele>480</ele>
        <time>2022-06-26T13:05:52Z</time>
      </trkpt>
      <trkpt lat="45.73518" lon="4.56262">
        <ele>480.2</ele>
        <time>2022-06-26T13:05:53Z</time>
      </trkpt>
      <trkpt lat="45.73516" lon="4.5626">
        <ele>480.2</ele>
        <time>2022-06-26T13:05:54Z</time>
      </trkpt>
      <trkpt lat="45.73514" lon="4.56259">
        <ele>480.6</ele>
        <time>2022-06-26T13:05:55Z</time>
      </trkpt>
      <trkpt lat="45.73512" lon="4.56258">
        <ele>480.6</ele>
        <time>2022-06-26T13:05:56Z</time>
      </trkpt>
      <trkpt lat="45.7351" lon="4.56257">
        <ele>480.8</ele>
        <time>2022-06-26T13:05:57Z</time>
      </trkpt>
      <trkpt lat="45.73508" lon="4.56256">
        <ele>480.8</ele>
        <time>2022-06-26T13:05:58Z</time>
      </trkpt>
      <trkpt lat="45.73506" lon="4.56254">
        <ele>481.2</ele>
        <time>2022-06-26T13:05:59Z</time>
      </trkpt>
      <trkpt lat="45.73503" lon="4.56253">
        <ele>481.2</ele>
        <time>2022-06-26T13:06:00Z</time>
      </trkpt>
      <trkpt lat="45.73501" lon="4.56252">
        <ele>481.2</ele>
        <time>2022-06-26T13:06:01Z</time>
      </trkpt>
      <trkpt lat="45.73498" lon="4.56251">
        <ele>481.4</ele>
        <time>2022-06-26T13:06:02Z</time>
      </trkpt>
      <trkpt lat="45.73495" lon="4.5625">
        <ele>481.4</ele>
        <time>2022-06-26T13:06:03Z</time>
      </trkpt>
      <trkpt lat="45.73493" lon="4.5625">
        <ele>481.4</ele>
        <time>2022-06-26T13:06:04Z</time>
      </trkpt>
      <trkpt lat="45.7349" lon="4.56249">
        <ele>481.4</ele>
        <time>2022-06-26T13:06:05Z</time>
      </trkpt>
      <trkpt lat="45.73487" lon="4.56249">
        <ele>481.6</ele>
        <time>2022-06-26T13:06:06Z</time>
      </trkpt>
      <trkpt lat="45.73485" lon="4.56248">
        <ele>481.6</ele>
        <time>2022-06-26T13:06:07Z</time>
      </trkpt>
      <trkpt lat="45.73482" lon="4.56248">
        <ele>481.6</ele>
        <time>2022-06-26T13:06:08Z</time>
      </trkpt>
      <trkpt lat="45.73479" lon="4.56248">
        <ele>481.6</ele>
        <time>2022-06-26T13:06:09Z</time>
      </trkpt>
      <trkpt lat="45.73476" lon="4.56248">
        <ele>481.6</ele>
        <time>2022-06-26T13:06:10Z</time>
      </trkpt>
      <trkpt lat="45.73472" lon="4.56249">
        <ele>481.6</ele>
        <time>2022-06-26T13:06:11Z</time>
      </trkpt>
      <trkpt lat="45.73469" lon="4.56249">
        <ele>481.6</ele>
        <time>2022-06-26T13:06:12Z</time>
      </trkpt>
      <trkpt lat="45.73466" lon="4.5625">
        <ele>481.6</ele>
        <time>2022-06-26T13:06:13Z</time>
      </trkpt>
      <trkpt lat="45.73462" lon="4.5625">
        <ele>481.6</ele>
        <time>2022-06-26T13:06:14Z</time>
      </trkpt>
      <trkpt lat="45.73458" lon="4.56249">
        <ele>481.6</ele>
        <time>2022-06-26T13:06:15Z</time>
      </trkpt>
      <trkpt lat="45.73454" lon="4.56249">
        <ele>481.6</ele>
        <time>2022-06-26T13:06:16Z</time>
      </trkpt>
      <trkpt lat="45.7345" lon="4.56249">
        <ele>481.4</ele>
        <time>2022-06-26T13:06:17Z</time>
      </trkpt>
      <trkpt lat="45.73445" lon="4.56249">
        <ele>481.4</ele>
        <time>2022-06-26T13:06:18Z</time>
      </trkpt>
      <trkpt lat="45.73441" lon="4.56248">
        <ele>481.4</ele>
        <time>2022-06-26T13:06:19Z</time>
      </trkpt>
      <trkpt lat="45.73436" lon="4.56247">
        <ele>481.4</ele>
        <time>2022-06-26T13:06:20Z</time>
      </trkpt>
      <trkpt lat="45.73432" lon="4.56246">
        <ele>481.4</ele>
        <time>2022-06-26T13:06:21Z</time>
      </trkpt>
      <trkpt lat="45.73429" lon="4.56246">
        <ele>481.4</ele>
        <time>2022-06-26T13:06:22Z</time>
      </trkpt>
      <trkpt lat="45.73425" lon="4.56245">
        <ele>481.6</ele>
        <time>2022-06-26T13:06:23Z</time>
      </trkpt>
      <trkpt lat="45.73421" lon="4.56244">
        <ele>481.6</ele>
        <time>2022-06-26T13:06:24Z</time>
      </trkpt>
      <trkpt lat="45.73417" lon="4.56243">
        <ele>481.8</ele>
        <time>2022-06-26T13:06:25Z</time>
      </trkpt>
      <trkpt lat="45.73414" lon="4.56242">
        <ele>481.8</ele>
        <time>2022-06-26T13:06:26Z</time>
      </trkpt>
      <trkpt lat="45.73411" lon="4.56241">
        <ele>482.2</ele>
        <time>2022-06-26T13:06:27Z</time>
      </trkpt>
      <trkpt lat="45.73408" lon="4.5624">
        <ele>482.4</ele>
        <time>2022-06-26T13:06:28Z</time>
      </trkpt>
      <trkpt lat="45.73405" lon="4.56239">
        <ele>482.8</ele>
        <time>2022-06-26T13:06:29Z</time>
      </trkpt>
      <trkpt lat="45.73402" lon="4.56239">
        <ele>483</ele>
        <time>2022-06-26T13:06:30Z</time>
      </trkpt>
      <trkpt lat="45.734" lon="4.56238">
        <ele>483.2</ele>
        <time>2022-06-26T13:06:31Z</time>
      </trkpt>
      <trkpt lat="45.73398" lon="4.56237">
        <ele>483.4</ele>
        <time>2022-06-26T13:06:32Z</time>
      </trkpt>
      <trkpt lat="45.73396" lon="4.56236">
        <ele>483.6</ele>
        <time>2022-06-26T13:06:33Z</time>
      </trkpt>
      <trkpt lat="45.73394" lon="4.56234">
        <ele>484</ele>
        <time>2022-06-26T13:06:34Z</time>
      </trkpt>
      <trkpt lat="45.73392" lon="4.56233">
        <ele>484.2</ele>
        <time>2022-06-26T13:06:35Z</time>
      </trkpt>
      <trkpt lat="45.7339" lon="4.56231">
        <ele>484.4</ele>
        <time>2022-06-26T13:06:36Z</time>
      </trkpt>
      <trkpt lat="45.73388" lon="4.5623">
        <ele>484.6</ele>
        <time>2022-06-26T13:06:37Z</time>
      </trkpt>
      <trkpt lat="45.73386" lon="4.56229">
        <ele>485</ele>
        <time>2022-06-26T13:06:38Z</time>
      </trkpt>
      <trkpt lat="45.73384" lon="4.56229">
        <ele>485.2</ele>
        <time>2022-06-26T13:06:39Z</time>
      </trkpt>
      <trkpt lat="45.73381" lon="4.56227">
        <ele>485.4</ele>
        <time>2022-06-26T13:06:40Z</time>
      </trkpt>
      <trkpt lat="45.7338" lon="4.56227">
        <ele>485.8</ele>
        <time>2022-06-26T13:06:41Z</time>
      </trkpt>
      <trkpt lat="45.73378" lon="4.56226">
        <ele>485.8</ele>
        <time>2022-06-26T13:06:42Z</time>
      </trkpt>
      <trkpt lat="45.73376" lon="4.56226">
        <ele>486</ele>
        <time>2022-06-26T13:06:43Z</time>
      </trkpt>
      <trkpt lat="45.73374" lon="4.56226">
        <ele>486.4</ele>
        <time>2022-06-26T13:06:44Z</time>
      </trkpt>
      <trkpt lat="45.73373" lon="4.56225">
        <ele>486.4</ele>
        <time>2022-06-26T13:06:45Z</time>
      </trkpt>
      <trkpt lat="45.73371" lon="4.56224">
        <ele>486.8</ele>
        <time>2022-06-26T13:06:46Z</time>
      </trkpt>
      <trkpt lat="45.7337" lon="4.56223">
        <ele>487</ele>
        <time>2022-06-26T13:06:47Z</time>
      </trkpt>
      <trkpt lat="45.73368" lon="4.56223">
        <ele>487.4</ele>
        <time>2022-06-26T13:06:48Z</time>
      </trkpt>
      <trkpt lat="45.73366" lon="4.56222">
        <ele>487.6</ele>
        <time>2022-06-26T13:06:49Z</time>
      </trkpt>
      <trkpt lat="45.73364" lon="4.56222">
        <ele>487.6</ele>
        <time>2022-06-26T13:06:50Z</time>
      </trkpt>
      <trkpt lat="45.73363" lon="4.56221">
        <ele>488</ele>
        <time>2022-06-26T13:06:51Z</time>
      </trkpt>
      <trkpt lat="45.73361" lon="4.5622">
        <ele>488</ele>
        <time>2022-06-26T13:06:52Z</time>
      </trkpt>
      <trkpt lat="45.73359" lon="4.56219">
        <ele>488.4</ele>
        <time>2022-06-26T13:06:53Z</time>
      </trkpt>
      <trkpt lat="45.73358" lon="4.56218">
        <ele>488.4</ele>
        <time>2022-06-26T13:06:54Z</time>
      </trkpt>
      <trkpt lat="45.73356" lon="4.56217">
        <ele>488.8</ele>
        <time>2022-06-26T13:06:55Z</time>
      </trkpt>
      <trkpt lat="45.73354" lon="4.56216">
        <ele>489</ele>
        <time>2022-06-26T13:06:56Z</time>
      </trkpt>
      <trkpt lat="45.73352" lon="4.56214">
        <ele>489.2</ele>
        <time>2022-06-26T13:06:57Z</time>
      </trkpt>
      <trkpt lat="45.7335" lon="4.56213">
        <ele>489.2</ele>
        <time>2022-06-26T13:06:58Z</time>
      </trkpt>
      <trkpt lat="45.73349" lon="4.56211">
        <ele>489.6</ele>
        <time>2022-06-26T13:06:59Z</time>
      </trkpt>
      <trkpt lat="45.73346" lon="4.5621">
        <ele>489.6</ele>
        <time>2022-06-26T13:07:00Z</time>
      </trkpt>
      <trkpt lat="45.73344" lon="4.56209">
        <ele>490</ele>
        <time>2022-06-26T13:07:01Z</time>
      </trkpt>
      <trkpt lat="45.73342" lon="4.56208">
        <ele>490.4</ele>
        <time>2022-06-26T13:07:02Z</time>
      </trkpt>
      <trkpt lat="45.7334" lon="4.56207">
        <ele>490.4</ele>
        <time>2022-06-26T13:07:03Z</time>
      </trkpt>
      <trkpt lat="45.73338" lon="4.56205">
        <ele>490.8</ele>
        <time>2022-06-26T13:07:04Z</time>
      </trkpt>
      <trkpt lat="45.73336" lon="4.56203">
        <ele>491</ele>
        <time>2022-06-26T13:07:05Z</time>
      </trkpt>
      <trkpt lat="45.73334" lon="4.56202">
        <ele>491</ele>
        <time>2022-06-26T13:07:06Z</time>
      </trkpt>
      <trkpt lat="45.73331" lon="4.56201">
        <ele>491.2</ele>
        <time>2022-06-26T13:07:07Z</time>
      </trkpt>
      <trkpt lat="45.73329" lon="4.562">
        <ele>491.2</ele>
        <time>2022-06-26T13:07:08Z</time>
      </trkpt>
      <trkpt lat="45.73327" lon="4.56199">
        <ele>491.6</ele>
        <time>2022-06-26T13:07:09Z</time>
      </trkpt>
      <trkpt lat="45.73325" lon="4.56198">
        <ele>491.6</ele>
        <time>2022-06-26T13:07:10Z</time>
      </trkpt>
      <trkpt lat="45.73323" lon="4.56197">
        <ele>492</ele>
        <time>2022-06-26T13:07:11Z</time>
      </trkpt>
      <trkpt lat="45.73321" lon="4.56195">
        <ele>492</ele>
        <time>2022-06-26T13:07:12Z</time>
      </trkpt>
      <trkpt lat="45.73319" lon="4.56194">
        <ele>492.2</ele>
        <time>2022-06-26T13:07:13Z</time>
      </trkpt>
      <trkpt lat="45.73316" lon="4.56193">
        <ele>492.2</ele>
        <time>2022-06-26T13:07:14Z</time>
      </trkpt>
      <trkpt lat="45.73314" lon="4.56192">
        <ele>492.6</ele>
        <time>2022-06-26T13:07:15Z</time>
      </trkpt>
      <trkpt lat="45.73312" lon="4.56192">
        <ele>492.6</ele>
        <time>2022-06-26T13:07:16Z</time>
      </trkpt>
      <trkpt lat="45.7331" lon="4.56191">
        <ele>493</ele>
        <time>2022-06-26T13:07:17Z</time>
      </trkpt>
      <trkpt lat="45.73309" lon="4.5619">
        <ele>493</ele>
        <time>2022-06-26T13:07:18Z</time>
      </trkpt>
      <trkpt lat="45.73307" lon="4.56189">
        <ele>493.4</ele>
        <time>2022-06-26T13:07:19Z</time>
      </trkpt>
      <trkpt lat="45.73305" lon="4.56188">
        <ele>493.6</ele>
        <time>2022-06-26T13:07:20Z</time>
      </trkpt>
      <trkpt lat="45.73303" lon="4.56187">
        <ele>493.8</ele>
        <time>2022-06-26T13:07:21Z</time>
      </trkpt>
      <trkpt lat="45.73301" lon="4.56186">
        <ele>494</ele>
        <time>2022-06-26T13:07:22Z</time>
      </trkpt>
      <trkpt lat="45.73299" lon="4.56184">
        <ele>494</ele>
        <time>2022-06-26T13:07:23Z</time>
      </trkpt>
      <trkpt lat="45.73297" lon="4.56183">
        <ele>494.4</ele>
        <time>2022-06-26T13:07:24Z</time>
      </trkpt>
      <trkpt lat="45.73293" lon="4.5618">
        <ele>494.6</ele>
        <time>2022-06-26T13:07:25Z</time>
      </trkpt>
      <trkpt lat="45.73292" lon="4.56178">
        <ele>494.6</ele>
        <time>2022-06-26T13:07:26Z</time>
      </trkpt>
      <trkpt lat="45.7329" lon="4.56177">
        <ele>495</ele>
        <time>2022-06-26T13:07:27Z</time>
      </trkpt>
      <trkpt lat="45.73288" lon="4.56175">
        <ele>495</ele>
        <time>2022-06-26T13:07:28Z</time>
      </trkpt>
      <trkpt lat="45.73286" lon="4.56174">
        <ele>495.4</ele>
        <time>2022-06-26T13:07:29Z</time>
      </trkpt>
      <trkpt lat="45.73284" lon="4.56174">
        <ele>495.4</ele>
        <time>2022-06-26T13:07:30Z</time>
      </trkpt>
      <trkpt lat="45.73283" lon="4.56172">
        <ele>495.6</ele>
        <time>2022-06-26T13:07:31Z</time>
      </trkpt>
      <trkpt lat="45.73281" lon="4.56171">
        <ele>495.6</ele>
        <time>2022-06-26T13:07:32Z</time>
      </trkpt>
      <trkpt lat="45.73281" lon="4.56169">
        <ele>496</ele>
        <time>2022-06-26T13:07:33Z</time>
      </trkpt>
      <trkpt lat="45.73279" lon="4.56168">
        <ele>496</ele>
        <time>2022-06-26T13:07:34Z</time>
      </trkpt>
      <trkpt lat="45.73278" lon="4.56166">
        <ele>496.2</ele>
        <time>2022-06-26T13:07:35Z</time>
      </trkpt>
      <trkpt lat="45.73277" lon="4.56164">
        <ele>496.2</ele>
        <time>2022-06-26T13:07:36Z</time>
      </trkpt>
      <trkpt lat="45.73276" lon="4.56162">
        <ele>496.6</ele>
        <time>2022-06-26T13:07:37Z</time>
      </trkpt>
      <trkpt lat="45.73275" lon="4.5616">
        <ele>496.6</ele>
        <time>2022-06-26T13:07:38Z</time>
      </trkpt>
      <trkpt lat="45.73274" lon="4.56158">
        <ele>497</ele>
        <time>2022-06-26T13:07:39Z</time>
      </trkpt>
      <trkpt lat="45.73273" lon="4.56156">
        <ele>497.2</ele>
        <time>2022-06-26T13:07:40Z</time>
      </trkpt>
      <trkpt lat="45.73272" lon="4.56154">
        <ele>497.4</ele>
        <time>2022-06-26T13:07:41Z</time>
      </trkpt>
      <trkpt lat="45.7327" lon="4.56152">
        <ele>497.6</ele>
        <time>2022-06-26T13:07:42Z</time>
      </trkpt>
      <trkpt lat="45.73269" lon="4.5615">
        <ele>497.6</ele>
        <time>2022-06-26T13:07:43Z</time>
      </trkpt>
      <trkpt lat="45.73267" lon="4.56149">
        <ele>498</ele>
        <time>2022-06-26T13:07:44Z</time>
      </trkpt>
      <trkpt lat="45.73266" lon="4.56148">
        <ele>498</ele>
        <time>2022-06-26T13:07:45Z</time>
      </trkpt>
      <trkpt lat="45.73264" lon="4.56146">
        <ele>498.4</ele>
        <time>2022-06-26T13:07:46Z</time>
      </trkpt>
      <trkpt lat="45.73263" lon="4.56145">
        <ele>498.4</ele>
        <time>2022-06-26T13:07:47Z</time>
      </trkpt>
      <trkpt lat="45.73262" lon="4.56143">
        <ele>498.6</ele>
        <time>2022-06-26T13:07:48Z</time>
      </trkpt>
      <trkpt lat="45.7326" lon="4.56142">
        <ele>498.6</ele>
        <time>2022-06-26T13:07:49Z</time>
      </trkpt>
      <trkpt lat="45.73259" lon="4.5614">
        <ele>499.2</ele>
        <time>2022-06-26T13:07:50Z</time>
      </trkpt>
      <trkpt lat="45.73258" lon="4.56138">
        <ele>499.2</ele>
        <time>2022-06-26T13:07:51Z</time>
      </trkpt>
      <trkpt lat="45.73256" lon="4.56135">
        <ele>499.4</ele>
        <time>2022-06-26T13:07:52Z</time>
      </trkpt>
      <trkpt lat="45.73255" lon="4.56133">
        <ele>499.4</ele>
        <time>2022-06-26T13:07:53Z</time>
      </trkpt>
      <trkpt lat="45.73253" lon="4.5613">
        <ele>499.8</ele>
        <time>2022-06-26T13:07:54Z</time>
      </trkpt>
      <trkpt lat="45.73251" lon="4.56128">
        <ele>499.8</ele>
        <time>2022-06-26T13:07:55Z</time>
      </trkpt>
      <trkpt lat="45.7325" lon="4.56125">
        <ele>500</ele>
        <time>2022-06-26T13:07:56Z</time>
      </trkpt>
      <trkpt lat="45.73248" lon="4.56123">
        <ele>500</ele>
        <time>2022-06-26T13:07:57Z</time>
      </trkpt>
      <trkpt lat="45.73247" lon="4.56121">
        <ele>500.2</ele>
        <time>2022-06-26T13:07:58Z</time>
      </trkpt>
      <trkpt lat="45.73245" lon="4.56118">
        <ele>500.2</ele>
        <time>2022-06-26T13:07:59Z</time>
      </trkpt>
      <trkpt lat="45.73244" lon="4.56116">
        <ele>500.6</ele>
        <time>2022-06-26T13:08:00Z</time>
      </trkpt>
      <trkpt lat="45.73242" lon="4.56114">
        <ele>500.6</ele>
        <time>2022-06-26T13:08:01Z</time>
      </trkpt>
      <trkpt lat="45.73241" lon="4.56111">
        <ele>500.8</ele>
        <time>2022-06-26T13:08:02Z</time>
      </trkpt>
      <trkpt lat="45.7324" lon="4.56109">
        <ele>501</ele>
        <time>2022-06-26T13:08:03Z</time>
      </trkpt>
      <trkpt lat="45.73239" lon="4.56107">
        <ele>501</ele>
        <time>2022-06-26T13:08:04Z</time>
      </trkpt>
      <trkpt lat="45.73237" lon="4.56105">
        <ele>501.4</ele>
        <time>2022-06-26T13:08:05Z</time>
      </trkpt>
      <trkpt lat="45.73236" lon="4.56103">
        <ele>501.6</ele>
        <time>2022-06-26T13:08:06Z</time>
      </trkpt>
      <trkpt lat="45.73234" lon="4.56101">
        <ele>502</ele>
        <time>2022-06-26T13:08:07Z</time>
      </trkpt>
      <trkpt lat="45.73233" lon="4.56099">
        <ele>502.2</ele>
        <time>2022-06-26T13:08:08Z</time>
      </trkpt>
      <trkpt lat="45.73231" lon="4.56097">
        <ele>502.2</ele>
        <time>2022-06-26T13:08:09Z</time>
      </trkpt>
      <trkpt lat="45.7323" lon="4.56095">
        <ele>502.6</ele>
        <time>2022-06-26T13:08:10Z</time>
      </trkpt>
      <trkpt lat="45.73229" lon="4.56093">
        <ele>502.8</ele>
        <time>2022-06-26T13:08:11Z</time>
      </trkpt>
      <trkpt lat="45.73227" lon="4.56091">
        <ele>503</ele>
        <time>2022-06-26T13:08:12Z</time>
      </trkpt>
      <trkpt lat="45.73226" lon="4.56089">
        <ele>503.2</ele>
        <time>2022-06-26T13:08:13Z</time>
      </trkpt>
      <trkpt lat="45.73224" lon="4.56088">
        <ele>503.6</ele>
        <time>2022-06-26T13:08:14Z</time>
      </trkpt>
      <trkpt lat="45.73223" lon="4.56087">
        <ele>503.8</ele>
        <time>2022-06-26T13:08:15Z</time>
      </trkpt>
      <trkpt lat="45.73221" lon="4.56085">
        <ele>503.8</ele>
        <time>2022-06-26T13:08:16Z</time>
      </trkpt>
      <trkpt lat="45.7322" lon="4.56083">
        <ele>504.2</ele>
        <time>2022-06-26T13:08:17Z</time>
      </trkpt>
      <trkpt lat="45.73219" lon="4.56081">
        <ele>504.6</ele>
        <time>2022-06-26T13:08:18Z</time>
      </trkpt>
      <trkpt lat="45.73217" lon="4.5608">
        <ele>504.8</ele>
        <time>2022-06-26T13:08:19Z</time>
      </trkpt>
      <trkpt lat="45.73216" lon="4.56078">
        <ele>505.2</ele>
        <time>2022-06-26T13:08:20Z</time>
      </trkpt>
      <trkpt lat="45.73214" lon="4.56076">
        <ele>505.4</ele>
        <time>2022-06-26T13:08:21Z</time>
      </trkpt>
      <trkpt lat="45.73213" lon="4.56075">
        <ele>505.6</ele>
        <time>2022-06-26T13:08:22Z</time>
      </trkpt>
      <trkpt lat="45.73212" lon="4.56074">
        <ele>505.6</ele>
        <time>2022-06-26T13:08:23Z</time>
      </trkpt>
      <trkpt lat="45.7321" lon="4.56072">
        <ele>505.8</ele>
        <time>2022-06-26T13:08:24Z</time>
      </trkpt>
      <trkpt lat="45.73209" lon="4.56071">
        <ele>506</ele>
        <time>2022-06-26T13:08:25Z</time>
      </trkpt>
      <trkpt lat="45.73207" lon="4.56069">
        <ele>506.4</ele>
        <time>2022-06-26T13:08:26Z</time>
      </trkpt>
      <trkpt lat="45.73206" lon="4.56068">
        <ele>506.4</ele>
        <time>2022-06-26T13:08:27Z</time>
      </trkpt>
      <trkpt lat="45.73205" lon="4.56066">
        <ele>506.8</ele>
        <time>2022-06-26T13:08:28Z</time>
      </trkpt>
      <trkpt lat="45.73203" lon="4.56065">
        <ele>507.2</ele>
        <time>2022-06-26T13:08:29Z</time>
      </trkpt>
      <trkpt lat="45.73202" lon="4.56063">
        <ele>507.4</ele>
        <time>2022-06-26T13:08:30Z</time>
      </trkpt>
      <trkpt lat="45.73201" lon="4.56062">
        <ele>507.8</ele>
        <time>2022-06-26T13:08:31Z</time>
      </trkpt>
      <trkpt lat="45.73199" lon="4.5606">
        <ele>508</ele>
        <time>2022-06-26T13:08:32Z</time>
      </trkpt>
      <trkpt lat="45.73198" lon="4.56059">
        <ele>508.2</ele>
        <time>2022-06-26T13:08:33Z</time>
      </trkpt>
      <trkpt lat="45.73197" lon="4.56058">
        <ele>508.6</ele>
        <time>2022-06-26T13:08:34Z</time>
      </trkpt>
      <trkpt lat="45.73196" lon="4.56056">
        <ele>508.8</ele>
        <time>2022-06-26T13:08:35Z</time>
      </trkpt>
      <trkpt lat="45.73194" lon="4.56055">
        <ele>509</ele>
        <time>2022-06-26T13:08:36Z</time>
      </trkpt>
      <trkpt lat="45.73193" lon="4.56053">
        <ele>509.2</ele>
        <time>2022-06-26T13:08:37Z</time>
      </trkpt>
      <trkpt lat="45.73192" lon="4.56052">
        <ele>509.6</ele>
        <time>2022-06-26T13:08:38Z</time>
      </trkpt>
      <trkpt lat="45.73191" lon="4.56051">
        <ele>509.8</ele>
        <time>2022-06-26T13:08:39Z</time>
      </trkpt>
      <trkpt lat="45.7319" lon="4.5605">
        <ele>510</ele>
        <time>2022-06-26T13:08:40Z</time>
      </trkpt>
      <trkpt lat="45.73189" lon="4.56049">
        <ele>510.2</ele>
        <time>2022-06-26T13:08:41Z</time>
      </trkpt>
      <trkpt lat="45.73188" lon="4.56047">
        <ele>510.4</ele>
        <time>2022-06-26T13:08:42Z</time>
      </trkpt>
      <trkpt lat="45.73186" lon="4.56045">
        <ele>510.4</ele>
        <time>2022-06-26T13:08:43Z</time>
      </trkpt>
      <trkpt lat="45.73185" lon="4.56044">
        <ele>510.8</ele>
        <time>2022-06-26T13:08:44Z</time>
      </trkpt>
      <trkpt lat="45.73184" lon="4.56043">
        <ele>510.8</ele>
        <time>2022-06-26T13:08:45Z</time>
      </trkpt>
      <trkpt lat="45.73183" lon="4.56042">
        <ele>511.2</ele>
        <time>2022-06-26T13:08:46Z</time>
      </trkpt>
      <trkpt lat="45.73182" lon="4.5604">
        <ele>511.4</ele>
        <time>2022-06-26T13:08:47Z</time>
      </trkpt>
      <trkpt lat="45.73181" lon="4.56039">
        <ele>511.4</ele>
        <time>2022-06-26T13:08:48Z</time>
      </trkpt>
      <trkpt lat="45.7318" lon="4.56037">
        <ele>511.8</ele>
        <time>2022-06-26T13:08:49Z</time>
      </trkpt>
      <trkpt lat="45.73178" lon="4.56036">
        <ele>511.8</ele>
        <time>2022-06-26T13:08:50Z</time>
      </trkpt>
      <trkpt lat="45.73177" lon="4.56035">
        <ele>512</ele>
        <time>2022-06-26T13:08:51Z</time>
      </trkpt>
      <trkpt lat="45.73176" lon="4.56033">
        <ele>512</ele>
        <time>2022-06-26T13:08:52Z</time>
      </trkpt>
      <trkpt lat="45.73174" lon="4.56032">
        <ele>512.4</ele>
        <time>2022-06-26T13:08:53Z</time>
      </trkpt>
      <trkpt lat="45.73173" lon="4.5603">
        <ele>512.4</ele>
        <time>2022-06-26T13:08:54Z</time>
      </trkpt>
      <trkpt lat="45.73172" lon="4.56029">
        <ele>512.8</ele>
        <time>2022-06-26T13:08:55Z</time>
      </trkpt>
      <trkpt lat="45.7317" lon="4.56027">
        <ele>512.8</ele>
        <time>2022-06-26T13:08:56Z</time>
      </trkpt>
      <trkpt lat="45.73169" lon="4.56026">
        <ele>513.2</ele>
        <time>2022-06-26T13:08:57Z</time>
      </trkpt>
      <trkpt lat="45.73167" lon="4.56025">
        <ele>513.2</ele>
        <time>2022-06-26T13:08:58Z</time>
      </trkpt>
      <trkpt lat="45.73166" lon="4.56024">
        <ele>513.4</ele>
        <time>2022-06-26T13:08:59Z</time>
      </trkpt>
      <trkpt lat="45.73165" lon="4.56022">
        <ele>513.8</ele>
        <time>2022-06-26T13:09:00Z</time>
      </trkpt>
      <trkpt lat="45.73163" lon="4.5602">
        <ele>513.8</ele>
        <time>2022-06-26T13:09:01Z</time>
      </trkpt>
      <trkpt lat="45.73162" lon="4.56019">
        <ele>514</ele>
        <time>2022-06-26T13:09:02Z</time>
      </trkpt>
      <trkpt lat="45.7316" lon="4.56018">
        <ele>514.4</ele>
        <time>2022-06-26T13:09:03Z</time>
      </trkpt>
      <trkpt lat="45.73159" lon="4.56017">
        <ele>514.6</ele>
        <time>2022-06-26T13:09:04Z</time>
      </trkpt>
      <trkpt lat="45.73158" lon="4.56016">
        <ele>514.6</ele>
        <time>2022-06-26T13:09:05Z</time>
      </trkpt>
      <trkpt lat="45.73156" lon="4.56014">
        <ele>514.8</ele>
        <time>2022-06-26T13:09:06Z</time>
      </trkpt>
      <trkpt lat="45.73155" lon="4.56013">
        <ele>514.8</ele>
        <time>2022-06-26T13:09:07Z</time>
      </trkpt>
      <trkpt lat="45.73154" lon="4.56012">
        <ele>515.2</ele>
        <time>2022-06-26T13:09:08Z</time>
      </trkpt>
      <trkpt lat="45.73152" lon="4.56011">
        <ele>515.4</ele>
        <time>2022-06-26T13:09:09Z</time>
      </trkpt>
      <trkpt lat="45.7315" lon="4.56009">
        <ele>515.4</ele>
        <time>2022-06-26T13:09:10Z</time>
      </trkpt>
      <trkpt lat="45.73149" lon="4.56008">
        <ele>516</ele>
        <time>2022-06-26T13:09:11Z</time>
      </trkpt>
      <trkpt lat="45.73148" lon="4.56007">
        <ele>516.2</ele>
        <time>2022-06-26T13:09:12Z</time>
      </trkpt>
      <trkpt lat="45.73147" lon="4.56006">
        <ele>516.4</ele>
        <time>2022-06-26T13:09:13Z</time>
      </trkpt>
      <trkpt lat="45.73146" lon="4.56005">
        <ele>516.4</ele>
        <time>2022-06-26T13:09:14Z</time>
      </trkpt>
      <trkpt lat="45.73145" lon="4.56004">
        <ele>516.8</ele>
        <time>2022-06-26T13:09:15Z</time>
      </trkpt>
      <trkpt lat="45.73144" lon="4.56004">
        <ele>516.8</ele>
        <time>2022-06-26T13:09:16Z</time>
      </trkpt>
      <trkpt lat="45.73142" lon="4.56003">
        <ele>517</ele>
        <time>2022-06-26T13:09:17Z</time>
      </trkpt>
      <trkpt lat="45.73141" lon="4.56003">
        <ele>517</ele>
        <time>2022-06-26T13:09:18Z</time>
      </trkpt>
      <trkpt lat="45.73139" lon="4.56002">
        <ele>517.2</ele>
        <time>2022-06-26T13:09:19Z</time>
      </trkpt>
      <trkpt lat="45.73138" lon="4.56002">
        <ele>517.2</ele>
        <time>2022-06-26T13:09:20Z</time>
      </trkpt>
      <trkpt lat="45.73137" lon="4.56003">
        <ele>517.6</ele>
        <time>2022-06-26T13:09:21Z</time>
      </trkpt>
      <trkpt lat="45.73135" lon="4.56002">
        <ele>517.6</ele>
        <time>2022-06-26T13:09:22Z</time>
      </trkpt>
      <trkpt lat="45.73134" lon="4.56002">
        <ele>518</ele>
        <time>2022-06-26T13:09:23Z</time>
      </trkpt>
      <trkpt lat="45.73132" lon="4.56002">
        <ele>518.4</ele>
        <time>2022-06-26T13:09:24Z</time>
      </trkpt>
      <trkpt lat="45.73131" lon="4.56002">
        <ele>518.6</ele>
        <time>2022-06-26T13:09:25Z</time>
      </trkpt>
      <trkpt lat="45.73129" lon="4.56002">
        <ele>518.8</ele>
        <time>2022-06-26T13:09:26Z</time>
      </trkpt>
      <trkpt lat="45.73128" lon="4.56002">
        <ele>519</ele>
        <time>2022-06-26T13:09:27Z</time>
      </trkpt>
      <trkpt lat="45.73127" lon="4.56002">
        <ele>519</ele>
        <time>2022-06-26T13:09:28Z</time>
      </trkpt>
      <trkpt lat="45.73125" lon="4.56002">
        <ele>519.4</ele>
        <time>2022-06-26T13:09:29Z</time>
      </trkpt>
      <trkpt lat="45.73124" lon="4.56003">
        <ele>519.6</ele>
        <time>2022-06-26T13:09:30Z</time>
      </trkpt>
      <trkpt lat="45.73123" lon="4.56003">
        <ele>519.6</ele>
        <time>2022-06-26T13:09:31Z</time>
      </trkpt>
      <trkpt lat="45.73121" lon="4.56003">
        <ele>520</ele>
        <time>2022-06-26T13:09:32Z</time>
      </trkpt>
      <trkpt lat="45.7312" lon="4.56004">
        <ele>520</ele>
        <time>2022-06-26T13:09:33Z</time>
      </trkpt>
      <trkpt lat="45.73118" lon="4.56004">
        <ele>520.4</ele>
        <time>2022-06-26T13:09:34Z</time>
      </trkpt>
      <trkpt lat="45.73117" lon="4.56004">
        <ele>520.4</ele>
        <time>2022-06-26T13:09:35Z</time>
      </trkpt>
      <trkpt lat="45.73115" lon="4.56004">
        <ele>520.8</ele>
        <time>2022-06-26T13:09:36Z</time>
      </trkpt>
      <trkpt lat="45.73113" lon="4.56004">
        <ele>520.8</ele>
        <time>2022-06-26T13:09:37Z</time>
      </trkpt>
      <trkpt lat="45.73112" lon="4.56004">
        <ele>521.2</ele>
        <time>2022-06-26T13:09:38Z</time>
      </trkpt>
      <trkpt lat="45.7311" lon="4.56004">
        <ele>521.2</ele>
        <time>2022-06-26T13:09:39Z</time>
      </trkpt>
      <trkpt lat="45.73108" lon="4.56003">
        <ele>521.4</ele>
        <time>2022-06-26T13:09:40Z</time>
      </trkpt>
      <trkpt lat="45.73107" lon="4.56003">
        <ele>521.4</ele>
        <time>2022-06-26T13:09:41Z</time>
      </trkpt>
      <trkpt lat="45.73105" lon="4.56003">
        <ele>521.8</ele>
        <time>2022-06-26T13:09:42Z</time>
      </trkpt>
      <trkpt lat="45.73104" lon="4.56003">
        <ele>522</ele>
        <time>2022-06-26T13:09:43Z</time>
      </trkpt>
      <trkpt lat="45.73102" lon="4.56003">
        <ele>522.2</ele>
        <time>2022-06-26T13:09:44Z</time>
      </trkpt>
      <trkpt lat="45.73101" lon="4.56004">
        <ele>522.2</ele>
        <time>2022-06-26T13:09:45Z</time>
      </trkpt>
      <trkpt lat="45.73099" lon="4.56004">
        <ele>522.6</ele>
        <time>2022-06-26T13:09:46Z</time>
      </trkpt>
      <trkpt lat="45.73098" lon="4.56004">
        <ele>522.8</ele>
        <time>2022-06-26T13:09:47Z</time>
      </trkpt>
      <trkpt lat="45.73096" lon="4.56005">
        <ele>522.8</ele>
        <time>2022-06-26T13:09:48Z</time>
      </trkpt>
      <trkpt lat="45.73094" lon="4.56005">
        <ele>523.2</ele>
        <time>2022-06-26T13:09:49Z</time>
      </trkpt>
      <trkpt lat="45.73093" lon="4.56006">
        <ele>523.2</ele>
        <time>2022-06-26T13:09:50Z</time>
      </trkpt>
      <trkpt lat="45.73092" lon="4.56007">
        <ele>523.6</ele>
        <time>2022-06-26T13:09:51Z</time>
      </trkpt>
      <trkpt lat="45.7309" lon="4.56007">
        <ele>523.6</ele>
        <time>2022-06-26T13:09:52Z</time>
      </trkpt>
      <trkpt lat="45.73089" lon="4.56008">
        <ele>523.8</ele>
        <time>2022-06-26T13:09:53Z</time>
      </trkpt>
      <trkpt lat="45.73087" lon="4.56009">
        <ele>523.8</ele>
        <time>2022-06-26T13:09:54Z</time>
      </trkpt>
      <trkpt lat="45.73086" lon="4.56009">
        <ele>524.2</ele>
        <time>2022-06-26T13:09:56Z</time>
      </trkpt>
      <trkpt lat="45.73084" lon="4.56009">
        <ele>524.2</ele>
        <time>2022-06-26T13:09:57Z</time>
      </trkpt>
      <trkpt lat="45.73082" lon="4.5601">
        <ele>524.4</ele>
        <time>2022-06-26T13:09:58Z</time>
      </trkpt>
      <trkpt lat="45.7308" lon="4.5601">
        <ele>524.4</ele>
        <time>2022-06-26T13:09:59Z</time>
      </trkpt>
      <trkpt lat="45.73078" lon="4.5601">
        <ele>524.8</ele>
        <time>2022-06-26T13:10:00Z</time>
      </trkpt>
      <trkpt lat="45.73075" lon="4.5601">
        <ele>524.8</ele>
        <time>2022-06-26T13:10:01Z</time>
      </trkpt>
      <trkpt lat="45.73073" lon="4.56009">
        <ele>524.8</ele>
        <time>2022-06-26T13:10:02Z</time>
      </trkpt>
      <trkpt lat="45.73071" lon="4.56008">
        <ele>524.8</ele>
        <time>2022-06-26T13:10:03Z</time>
      </trkpt>
      <trkpt lat="45.73068" lon="4.56006">
        <ele>525</ele>
        <time>2022-06-26T13:10:04Z</time>
      </trkpt>
      <trkpt lat="45.73066" lon="4.56005">
        <ele>525</ele>
        <time>2022-06-26T13:10:05Z</time>
      </trkpt>
      <trkpt lat="45.73064" lon="4.56003">
        <ele>525.4</ele>
        <time>2022-06-26T13:10:06Z</time>
      </trkpt>
      <trkpt lat="45.73062" lon="4.56002">
        <ele>525.4</ele>
        <time>2022-06-26T13:10:07Z</time>
      </trkpt>
      <trkpt lat="45.73061" lon="4.56">
        <ele>525.6</ele>
        <time>2022-06-26T13:10:08Z</time>
      </trkpt>
      <trkpt lat="45.73059" lon="4.55999">
        <ele>525.6</ele>
        <time>2022-06-26T13:10:09Z</time>
      </trkpt>
      <trkpt lat="45.73057" lon="4.55997">
        <ele>525.8</ele>
        <time>2022-06-26T13:10:10Z</time>
      </trkpt>
      <trkpt lat="45.73056" lon="4.55996">
        <ele>526</ele>
        <time>2022-06-26T13:10:11Z</time>
      </trkpt>
      <trkpt lat="45.73055" lon="4.55994">
        <ele>526.4</ele>
        <time>2022-06-26T13:10:12Z</time>
      </trkpt>
      <trkpt lat="45.73053" lon="4.55993">
        <ele>526.6</ele>
        <time>2022-06-26T13:10:13Z</time>
      </trkpt>
      <trkpt lat="45.73052" lon="4.55992">
        <ele>527</ele>
        <time>2022-06-26T13:10:14Z</time>
      </trkpt>
      <trkpt lat="45.73051" lon="4.5599">
        <ele>527.2</ele>
        <time>2022-06-26T13:10:15Z</time>
      </trkpt>
      <trkpt lat="45.7305" lon="4.55989">
        <ele>527.6</ele>
        <time>2022-06-26T13:10:16Z</time>
      </trkpt>
      <trkpt lat="45.73048" lon="4.55988">
        <ele>527.8</ele>
        <time>2022-06-26T13:10:17Z</time>
      </trkpt>
      <trkpt lat="45.73046" lon="4.55987">
        <ele>528</ele>
        <time>2022-06-26T13:10:18Z</time>
      </trkpt>
      <trkpt lat="45.73044" lon="4.55985">
        <ele>528.2</ele>
        <time>2022-06-26T13:10:19Z</time>
      </trkpt>
      <trkpt lat="45.73042" lon="4.55984">
        <ele>528.6</ele>
        <time>2022-06-26T13:10:20Z</time>
      </trkpt>
      <trkpt lat="45.7304" lon="4.55981">
        <ele>528.6</ele>
        <time>2022-06-26T13:10:21Z</time>
      </trkpt>
      <trkpt lat="45.73038" lon="4.55979">
        <ele>528.8</ele>
        <time>2022-06-26T13:10:22Z</time>
      </trkpt>
      <trkpt lat="45.73036" lon="4.55977">
        <ele>529</ele>
        <time>2022-06-26T13:10:23Z</time>
      </trkpt>
      <trkpt lat="45.73035" lon="4.55976">
        <ele>529.4</ele>
        <time>2022-06-26T13:10:24Z</time>
      </trkpt>
      <trkpt lat="45.73033" lon="4.55974">
        <ele>529.4</ele>
        <time>2022-06-26T13:10:25Z</time>
      </trkpt>
      <trkpt lat="45.73032" lon="4.55973">
        <ele>529.8</ele>
        <time>2022-06-26T13:10:26Z</time>
      </trkpt>
      <trkpt lat="45.73031" lon="4.55972">
        <ele>530</ele>
        <time>2022-06-26T13:10:27Z</time>
      </trkpt>
      <trkpt lat="45.73029" lon="4.5597">
        <ele>530</ele>
        <time>2022-06-26T13:10:28Z</time>
      </trkpt>
      <trkpt lat="45.73028" lon="4.55968">
        <ele>530.6</ele>
        <time>2022-06-26T13:10:29Z</time>
      </trkpt>
      <trkpt lat="45.73027" lon="4.55966">
        <ele>530.8</ele>
        <time>2022-06-26T13:10:30Z</time>
      </trkpt>
      <trkpt lat="45.73025" lon="4.55964">
        <ele>530.8</ele>
        <time>2022-06-26T13:10:31Z</time>
      </trkpt>
      <trkpt lat="45.73024" lon="4.55962">
        <ele>531.2</ele>
        <time>2022-06-26T13:10:32Z</time>
      </trkpt>
      <trkpt lat="45.73023" lon="4.5596">
        <ele>531.4</ele>
        <time>2022-06-26T13:10:33Z</time>
      </trkpt>
      <trkpt lat="45.73022" lon="4.55958">
        <ele>531.4</ele>
        <time>2022-06-26T13:10:34Z</time>
      </trkpt>
      <trkpt lat="45.73022" lon="4.55956">
        <ele>531.8</ele>
        <time>2022-06-26T13:10:35Z</time>
      </trkpt>
      <trkpt lat="45.73021" lon="4.55954">
        <ele>531.8</ele>
        <time>2022-06-26T13:10:36Z</time>
      </trkpt>
      <trkpt lat="45.7302" lon="4.55952">
        <ele>532.2</ele>
        <time>2022-06-26T13:10:37Z</time>
      </trkpt>
      <trkpt lat="45.73019" lon="4.5595">
        <ele>532.4</ele>
        <time>2022-06-26T13:10:38Z</time>
      </trkpt>
      <trkpt lat="45.73018" lon="4.55947">
        <ele>532.4</ele>
        <time>2022-06-26T13:10:39Z</time>
      </trkpt>
      <trkpt lat="45.73018" lon="4.55944">
        <ele>532.8</ele>
        <time>2022-06-26T13:10:40Z</time>
      </trkpt>
      <trkpt lat="45.73017" lon="4.55942">
        <ele>532.8</ele>
        <time>2022-06-26T13:10:41Z</time>
      </trkpt>
      <trkpt lat="45.73017" lon="4.55939">
        <ele>533.2</ele>
        <time>2022-06-26T13:10:42Z</time>
      </trkpt>
      <trkpt lat="45.73016" lon="4.55937">
        <ele>533.2</ele>
        <time>2022-06-26T13:10:43Z</time>
      </trkpt>
      <trkpt lat="45.73015" lon="4.55934">
        <ele>533.6</ele>
        <time>2022-06-26T13:10:44Z</time>
      </trkpt>
      <trkpt lat="45.73015" lon="4.55932">
        <ele>534</ele>
        <time>2022-06-26T13:10:45Z</time>
      </trkpt>
      <trkpt lat="45.73014" lon="4.5593">
        <ele>534.2</ele>
        <time>2022-06-26T13:10:46Z</time>
      </trkpt>
      <trkpt lat="45.73014" lon="4.55927">
        <ele>534.2</ele>
        <time>2022-06-26T13:10:47Z</time>
      </trkpt>
      <trkpt lat="45.73014" lon="4.55925">
        <ele>534.6</ele>
        <time>2022-06-26T13:10:48Z</time>
      </trkpt>
      <trkpt lat="45.73013" lon="4.55923">
        <ele>534.6</ele>
        <time>2022-06-26T13:10:49Z</time>
      </trkpt>
      <trkpt lat="45.73013" lon="4.5592">
        <ele>535</ele>
        <time>2022-06-26T13:10:50Z</time>
      </trkpt>
      <trkpt lat="45.73013" lon="4.55918">
        <ele>535.2</ele>
        <time>2022-06-26T13:10:51Z</time>
      </trkpt>
      <trkpt lat="45.73013" lon="4.55916">
        <ele>535.4</ele>
        <time>2022-06-26T13:10:52Z</time>
      </trkpt>
      <trkpt lat="45.73012" lon="4.55914">
        <ele>535.4</ele>
        <time>2022-06-26T13:10:53Z</time>
      </trkpt>
      <trkpt lat="45.73012" lon="4.55911">
        <ele>535.8</ele>
        <time>2022-06-26T13:10:54Z</time>
      </trkpt>
      <trkpt lat="45.73012" lon="4.55909">
        <ele>535.8</ele>
        <time>2022-06-26T13:10:55Z</time>
      </trkpt>
      <trkpt lat="45.73011" lon="4.55907">
        <ele>536</ele>
        <time>2022-06-26T13:10:56Z</time>
      </trkpt>
      <trkpt lat="45.73011" lon="4.55905">
        <ele>536</ele>
        <time>2022-06-26T13:10:57Z</time>
      </trkpt>
      <trkpt lat="45.73011" lon="4.55902">
        <ele>536.4</ele>
        <time>2022-06-26T13:10:58Z</time>
      </trkpt>
      <trkpt lat="45.73011" lon="4.559">
        <ele>536.6</ele>
        <time>2022-06-26T13:10:59Z</time>
      </trkpt>
      <trkpt lat="45.73011" lon="4.55898">
        <ele>536.6</ele>
        <time>2022-06-26T13:11:00Z</time>
      </trkpt>
      <trkpt lat="45.73011" lon="4.55895">
        <ele>536.8</ele>
        <time>2022-06-26T13:11:01Z</time>
      </trkpt>
      <trkpt lat="45.73012" lon="4.55893">
        <ele>537.2</ele>
        <time>2022-06-26T13:11:02Z</time>
      </trkpt>
      <trkpt lat="45.73013" lon="4.55891">
        <ele>537.4</ele>
        <time>2022-06-26T13:11:03Z</time>
      </trkpt>
      <trkpt lat="45.73014" lon="4.5589">
        <ele>537.4</ele>
        <time>2022-06-26T13:11:04Z</time>
      </trkpt>
      <trkpt lat="45.73015" lon="4.55888">
        <ele>537.6</ele>
        <time>2022-06-26T13:11:05Z</time>
      </trkpt>
      <trkpt lat="45.73016" lon="4.55887">
        <ele>537.6</ele>
        <time>2022-06-26T13:11:06Z</time>
      </trkpt>
      <trkpt lat="45.73018" lon="4.55886">
        <ele>538</ele>
        <time>2022-06-26T13:11:07Z</time>
      </trkpt>
      <trkpt lat="45.73019" lon="4.55886">
        <ele>538.2</ele>
        <time>2022-06-26T13:11:08Z</time>
      </trkpt>
      <trkpt lat="45.73021" lon="4.55886">
        <ele>538.2</ele>
        <time>2022-06-26T13:11:09Z</time>
      </trkpt>
      <trkpt lat="45.73022" lon="4.55886">
        <ele>538.6</ele>
        <time>2022-06-26T13:11:10Z</time>
      </trkpt>
      <trkpt lat="45.73024" lon="4.55887">
        <ele>538.6</ele>
        <time>2022-06-26T13:11:11Z</time>
      </trkpt>
      <trkpt lat="45.73025" lon="4.55888">
        <ele>539</ele>
        <time>2022-06-26T13:11:12Z</time>
      </trkpt>
      <trkpt lat="45.73027" lon="4.55888">
        <ele>539</ele>
        <time>2022-06-26T13:11:13Z</time>
      </trkpt>
      <trkpt lat="45.73028" lon="4.55889">
        <ele>539.4</ele>
        <time>2022-06-26T13:11:14Z</time>
      </trkpt>
      <trkpt lat="45.73029" lon="4.5589">
        <ele>539.4</ele>
        <time>2022-06-26T13:11:15Z</time>
      </trkpt>
      <trkpt lat="45.73031" lon="4.55891">
        <ele>539.6</ele>
        <time>2022-06-26T13:11:16Z</time>
      </trkpt>
      <trkpt lat="45.73032" lon="4.55892">
        <ele>539.6</ele>
        <time>2022-06-26T13:11:17Z</time>
      </trkpt>
      <trkpt lat="45.73034" lon="4.55893">
        <ele>540</ele>
        <time>2022-06-26T13:11:18Z</time>
      </trkpt>
      <trkpt lat="45.73035" lon="4.55894">
        <ele>540</ele>
        <time>2022-06-26T13:11:19Z</time>
      </trkpt>
      <trkpt lat="45.73036" lon="4.55895">
        <ele>540.2</ele>
        <time>2022-06-26T13:11:20Z</time>
      </trkpt>
      <trkpt lat="45.73038" lon="4.55896">
        <ele>540.2</ele>
        <time>2022-06-26T13:11:21Z</time>
      </trkpt>
      <trkpt lat="45.73039" lon="4.55897">
        <ele>540.6</ele>
        <time>2022-06-26T13:11:22Z</time>
      </trkpt>
      <trkpt lat="45.73041" lon="4.55897">
        <ele>540.6</ele>
        <time>2022-06-26T13:11:23Z</time>
      </trkpt>
      <trkpt lat="45.73042" lon="4.55899">
        <ele>540.8</ele>
        <time>2022-06-26T13:11:24Z</time>
      </trkpt>
      <trkpt lat="45.73043" lon="4.559">
        <ele>540.8</ele>
        <time>2022-06-26T13:11:25Z</time>
      </trkpt>
      <trkpt lat="45.73045" lon="4.55901">
        <ele>541.2</ele>
        <time>2022-06-26T13:11:26Z</time>
      </trkpt>
      <trkpt lat="45.73046" lon="4.55901">
        <ele>541.2</ele>
        <time>2022-06-26T13:11:27Z</time>
      </trkpt>
      <trkpt lat="45.73048" lon="4.55902">
        <ele>541.4</ele>
        <time>2022-06-26T13:11:28Z</time>
      </trkpt>
      <trkpt lat="45.7305" lon="4.55902">
        <ele>541.4</ele>
        <time>2022-06-26T13:11:29Z</time>
      </trkpt>
      <trkpt lat="45.73051" lon="4.55903">
        <ele>541.6</ele>
        <time>2022-06-26T13:11:30Z</time>
      </trkpt>
      <trkpt lat="45.73052" lon="4.55904">
        <ele>541.6</ele>
        <time>2022-06-26T13:11:31Z</time>
      </trkpt>
      <trkpt lat="45.73054" lon="4.55906">
        <ele>541.8</ele>
        <time>2022-06-26T13:11:32Z</time>
      </trkpt>
      <trkpt lat="45.73055" lon="4.55907">
        <ele>541.8</ele>
        <time>2022-06-26T13:11:33Z</time>
      </trkpt>
      <trkpt lat="45.73056" lon="4.55908">
        <ele>542.2</ele>
        <time>2022-06-26T13:11:34Z</time>
      </trkpt>
      <trkpt lat="45.73058" lon="4.55909">
        <ele>542.4</ele>
        <time>2022-06-26T13:11:35Z</time>
      </trkpt>
      <trkpt lat="45.73059" lon="4.5591">
        <ele>542.4</ele>
        <time>2022-06-26T13:11:36Z</time>
      </trkpt>
      <trkpt lat="45.73061" lon="4.5591">
        <ele>542.6</ele>
        <time>2022-06-26T13:11:37Z</time>
      </trkpt>
      <trkpt lat="45.73062" lon="4.5591">
        <ele>542.6</ele>
        <time>2022-06-26T13:11:38Z</time>
      </trkpt>
      <trkpt lat="45.73064" lon="4.55911">
        <ele>542.8</ele>
        <time>2022-06-26T13:11:39Z</time>
      </trkpt>
      <trkpt lat="45.73065" lon="4.55911">
        <ele>543</ele>
        <time>2022-06-26T13:11:40Z</time>
      </trkpt>
      <trkpt lat="45.73067" lon="4.55912">
        <ele>543</ele>
        <time>2022-06-26T13:11:41Z</time>
      </trkpt>
      <trkpt lat="45.73068" lon="4.55912">
        <ele>543.4</ele>
        <time>2022-06-26T13:11:42Z</time>
      </trkpt>
      <trkpt lat="45.7307" lon="4.55913">
        <ele>543.4</ele>
        <time>2022-06-26T13:11:43Z</time>
      </trkpt>
      <trkpt lat="45.73071" lon="4.55913">
        <ele>543.8</ele>
        <time>2022-06-26T13:11:44Z</time>
      </trkpt>
      <trkpt lat="45.73073" lon="4.55914">
        <ele>544</ele>
        <time>2022-06-26T13:11:45Z</time>
      </trkpt>
      <trkpt lat="45.73074" lon="4.55915">
        <ele>544</ele>
        <time>2022-06-26T13:11:46Z</time>
      </trkpt>
      <trkpt lat="45.73076" lon="4.55917">
        <ele>544.2</ele>
        <time>2022-06-26T13:11:47Z</time>
      </trkpt>
      <trkpt lat="45.73077" lon="4.55918">
        <ele>544.2</ele>
        <time>2022-06-26T13:11:48Z</time>
      </trkpt>
      <trkpt lat="45.73079" lon="4.5592">
        <ele>544.6</ele>
        <time>2022-06-26T13:11:49Z</time>
      </trkpt>
      <trkpt lat="45.7308" lon="4.55921">
        <ele>544.6</ele>
        <time>2022-06-26T13:11:50Z</time>
      </trkpt>
      <trkpt lat="45.73082" lon="4.55921">
        <ele>545</ele>
        <time>2022-06-26T13:11:51Z</time>
      </trkpt>
      <trkpt lat="45.73083" lon="4.55922">
        <ele>545</ele>
        <time>2022-06-26T13:11:52Z</time>
      </trkpt>
      <trkpt lat="45.73085" lon="4.55923">
        <ele>545.2</ele>
        <time>2022-06-26T13:11:53Z</time>
      </trkpt>
      <trkpt lat="45.73086" lon="4.55924">
        <ele>545.2</ele>
        <time>2022-06-26T13:11:54Z</time>
      </trkpt>
      <trkpt lat="45.73088" lon="4.55925">
        <ele>545.6</ele>
        <time>2022-06-26T13:11:55Z</time>
      </trkpt>
      <trkpt lat="45.73089" lon="4.55926">
        <ele>545.6</ele>
        <time>2022-06-26T13:11:56Z</time>
      </trkpt>
      <trkpt lat="45.73091" lon="4.55927">
        <ele>545.8</ele>
        <time>2022-06-26T13:11:57Z</time>
      </trkpt>
      <trkpt lat="45.73092" lon="4.55928">
        <ele>546</ele>
        <time>2022-06-26T13:11:58Z</time>
      </trkpt>
      <trkpt lat="45.73094" lon="4.55929">
        <ele>546</ele>
        <time>2022-06-26T13:11:59Z</time>
      </trkpt>
      <trkpt lat="45.73095" lon="4.55929">
        <ele>546.4</ele>
        <time>2022-06-26T13:12:00Z</time>
      </trkpt>
      <trkpt lat="45.73097" lon="4.5593">
        <ele>546.6</ele>
        <time>2022-06-26T13:12:01Z</time>
      </trkpt>
      <trkpt lat="45.73099" lon="4.55931">
        <ele>546.6</ele>
        <time>2022-06-26T13:12:02Z</time>
      </trkpt>
      <trkpt lat="45.731" lon="4.55932">
        <ele>547</ele>
        <time>2022-06-26T13:12:03Z</time>
      </trkpt>
      <trkpt lat="45.73102" lon="4.55933">
        <ele>547</ele>
        <time>2022-06-26T13:12:04Z</time>
      </trkpt>
      <trkpt lat="45.73103" lon="4.55933">
        <ele>547.2</ele>
        <time>2022-06-26T13:12:05Z</time>
      </trkpt>
      <trkpt lat="45.73105" lon="4.55934">
        <ele>547.2</ele>
        <time>2022-06-26T13:12:06Z</time>
      </trkpt>
      <trkpt lat="45.73106" lon="4.55934">
        <ele>547.6</ele>
        <time>2022-06-26T13:12:07Z</time>
      </trkpt>
      <trkpt lat="45.73108" lon="4.55934">
        <ele>547.6</ele>
        <time>2022-06-26T13:12:08Z</time>
      </trkpt>
      <trkpt lat="45.7311" lon="4.55934">
        <ele>547.8</ele>
        <time>2022-06-26T13:12:09Z</time>
      </trkpt>
      <trkpt lat="45.73111" lon="4.55932">
        <ele>547.8</ele>
        <time>2022-06-26T13:12:10Z</time>
      </trkpt>
      <trkpt lat="45.73112" lon="4.5593">
        <ele>548.2</ele>
        <time>2022-06-26T13:12:11Z</time>
      </trkpt>
      <trkpt lat="45.73113" lon="4.55928">
        <ele>548.2</ele>
        <time>2022-06-26T13:12:12Z</time>
      </trkpt>
      <trkpt lat="45.73113" lon="4.55926">
        <ele>548.6</ele>
        <time>2022-06-26T13:12:13Z</time>
      </trkpt>
      <trkpt lat="45.73113" lon="4.55923">
        <ele>548.6</ele>
        <time>2022-06-26T13:12:14Z</time>
      </trkpt>
      <trkpt lat="45.73112" lon="4.55921">
        <ele>548.8</ele>
        <time>2022-06-26T13:12:15Z</time>
      </trkpt>
      <trkpt lat="45.73112" lon="4.55919">
        <ele>548.8</ele>
        <time>2022-06-26T13:12:16Z</time>
      </trkpt>
      <trkpt lat="45.73111" lon="4.55917">
        <ele>549</ele>
        <time>2022-06-26T13:12:17Z</time>
      </trkpt>
      <trkpt lat="45.7311" lon="4.55915">
        <ele>549</ele>
        <time>2022-06-26T13:12:18Z</time>
      </trkpt>
      <trkpt lat="45.73109" lon="4.55914">
        <ele>549.4</ele>
        <time>2022-06-26T13:12:19Z</time>
      </trkpt>
      <trkpt lat="45.73108" lon="4.55912">
        <ele>549.4</ele>
        <time>2022-06-26T13:12:20Z</time>
      </trkpt>
      <trkpt lat="45.73107" lon="4.5591">
        <ele>549.8</ele>
        <time>2022-06-26T13:12:21Z</time>
      </trkpt>
      <trkpt lat="45.73106" lon="4.55908">
        <ele>550</ele>
        <time>2022-06-26T13:12:22Z</time>
      </trkpt>
      <trkpt lat="45.73105" lon="4.55906">
        <ele>550</ele>
        <time>2022-06-26T13:12:23Z</time>
      </trkpt>
      <trkpt lat="45.73104" lon="4.55905">
        <ele>550.4</ele>
        <time>2022-06-26T13:12:24Z</time>
      </trkpt>
      <trkpt lat="45.73103" lon="4.55904">
        <ele>550.6</ele>
        <time>2022-06-26T13:12:25Z</time>
      </trkpt>
      <trkpt lat="45.73101" lon="4.55902">
        <ele>550.6</ele>
        <time>2022-06-26T13:12:26Z</time>
      </trkpt>
      <trkpt lat="45.731" lon="4.55901">
        <ele>551</ele>
        <time>2022-06-26T13:12:27Z</time>
      </trkpt>
      <trkpt lat="45.73099" lon="4.559">
        <ele>551.2</ele>
        <time>2022-06-26T13:12:28Z</time>
      </trkpt>
      <trkpt lat="45.73098" lon="4.55899">
        <ele>551.2</ele>
        <time>2022-06-26T13:12:29Z</time>
      </trkpt>
      <trkpt lat="45.73096" lon="4.55897">
        <ele>551.4</ele>
        <time>2022-06-26T13:12:30Z</time>
      </trkpt>
      <trkpt lat="45.73095" lon="4.55896">
        <ele>551.6</ele>
        <time>2022-06-26T13:12:31Z</time>
      </trkpt>
      <trkpt lat="45.73094" lon="4.55894">
        <ele>551.6</ele>
        <time>2022-06-26T13:12:32Z</time>
      </trkpt>
      <trkpt lat="45.73093" lon="4.55892">
        <ele>552</ele>
        <time>2022-06-26T13:12:33Z</time>
      </trkpt>
      <trkpt lat="45.73091" lon="4.5589">
        <ele>552</ele>
        <time>2022-06-26T13:12:34Z</time>
      </trkpt>
      <trkpt lat="45.7309" lon="4.55889">
        <ele>552.2</ele>
        <time>2022-06-26T13:12:35Z</time>
      </trkpt>
      <trkpt lat="45.73088" lon="4.55887">
        <ele>552.4</ele>
        <time>2022-06-26T13:12:36Z</time>
      </trkpt>
      <trkpt lat="45.73087" lon="4.55886">
        <ele>552.4</ele>
        <time>2022-06-26T13:12:37Z</time>
      </trkpt>
      <trkpt lat="45.73086" lon="4.55884">
        <ele>552.8</ele>
        <time>2022-06-26T13:12:38Z</time>
      </trkpt>
      <trkpt lat="45.73084" lon="4.55883">
        <ele>552.8</ele>
        <time>2022-06-26T13:12:39Z</time>
      </trkpt>
      <trkpt lat="45.73083" lon="4.55881">
        <ele>553</ele>
        <time>2022-06-26T13:12:40Z</time>
      </trkpt>
      <trkpt lat="45.73082" lon="4.5588">
        <ele>553</ele>
        <time>2022-06-26T13:12:41Z</time>
      </trkpt>
      <trkpt lat="45.7308" lon="4.55878">
        <ele>553.4</ele>
        <time>2022-06-26T13:12:42Z</time>
      </trkpt>
      <trkpt lat="45.73079" lon="4.55876">
        <ele>553.4</ele>
        <time>2022-06-26T13:12:43Z</time>
      </trkpt>
      <trkpt lat="45.73078" lon="4.55874">
        <ele>553.8</ele>
        <time>2022-06-26T13:12:44Z</time>
      </trkpt>
      <trkpt lat="45.73077" lon="4.55872">
        <ele>553.8</ele>
        <time>2022-06-26T13:12:45Z</time>
      </trkpt>
      <trkpt lat="45.73075" lon="4.55871">
        <ele>554</ele>
        <time>2022-06-26T13:12:46Z</time>
      </trkpt>
      <trkpt lat="45.73074" lon="4.55869">
        <ele>554.2</ele>
        <time>2022-06-26T13:12:47Z</time>
      </trkpt>
      <trkpt lat="45.73073" lon="4.55867">
        <ele>554.2</ele>
        <time>2022-06-26T13:12:48Z</time>
      </trkpt>
      <trkpt lat="45.73072" lon="4.55866">
        <ele>554.6</ele>
        <time>2022-06-26T13:12:49Z</time>
      </trkpt>
      <trkpt lat="45.7307" lon="4.55864">
        <ele>554.6</ele>
        <time>2022-06-26T13:12:50Z</time>
      </trkpt>
      <trkpt lat="45.73069" lon="4.55862">
        <ele>555</ele>
        <time>2022-06-26T13:12:51Z</time>
      </trkpt>
      <trkpt lat="45.73068" lon="4.5586">
        <ele>555</ele>
        <time>2022-06-26T13:12:52Z</time>
      </trkpt>
      <trkpt lat="45.73066" lon="4.55859">
        <ele>555.4</ele>
        <time>2022-06-26T13:12:53Z</time>
      </trkpt>
      <trkpt lat="45.73065" lon="4.55857">
        <ele>555.4</ele>
        <time>2022-06-26T13:12:54Z</time>
      </trkpt>
      <trkpt lat="45.73064" lon="4.55855">
        <ele>555.6</ele>
        <time>2022-06-26T13:12:55Z</time>
      </trkpt>
      <trkpt lat="45.73063" lon="4.55854">
        <ele>555.6</ele>
        <time>2022-06-26T13:12:56Z</time>
      </trkpt>
      <trkpt lat="45.73062" lon="4.55852">
        <ele>556</ele>
        <time>2022-06-26T13:12:57Z</time>
      </trkpt>
      <trkpt lat="45.7306" lon="4.55851">
        <ele>556.2</ele>
        <time>2022-06-26T13:12:58Z</time>
      </trkpt>
      <trkpt lat="45.73059" lon="4.55849">
        <ele>556.2</ele>
        <time>2022-06-26T13:12:59Z</time>
      </trkpt>
      <trkpt lat="45.73058" lon="4.55847">
        <ele>556.4</ele>
        <time>2022-06-26T13:13:00Z</time>
      </trkpt>
      <trkpt lat="45.73057" lon="4.55846">
        <ele>556.4</ele>
        <time>2022-06-26T13:13:01Z</time>
      </trkpt>
      <trkpt lat="45.73056" lon="4.55844">
        <ele>556.8</ele>
        <time>2022-06-26T13:13:02Z</time>
      </trkpt>
      <trkpt lat="45.73055" lon="4.55843">
        <ele>556.8</ele>
        <time>2022-06-26T13:13:03Z</time>
      </trkpt>
      <trkpt lat="45.73053" lon="4.55841">
        <ele>557</ele>
        <time>2022-06-26T13:13:04Z</time>
      </trkpt>
      <trkpt lat="45.73052" lon="4.5584">
        <ele>557</ele>
        <time>2022-06-26T13:13:05Z</time>
      </trkpt>
      <trkpt lat="45.73051" lon="4.55838">
        <ele>557.4</ele>
        <time>2022-06-26T13:13:06Z</time>
      </trkpt>
      <trkpt lat="45.7305" lon="4.55836">
        <ele>557.4</ele>
        <time>2022-06-26T13:13:07Z</time>
      </trkpt>
      <trkpt lat="45.73049" lon="4.55834">
        <ele>557.8</ele>
        <time>2022-06-26T13:13:08Z</time>
      </trkpt>
      <trkpt lat="45.73048" lon="4.55833">
        <ele>557.8</ele>
        <time>2022-06-26T13:13:09Z</time>
      </trkpt>
      <trkpt lat="45.73047" lon="4.55831">
        <ele>558.2</ele>
        <time>2022-06-26T13:13:10Z</time>
      </trkpt>
      <trkpt lat="45.73046" lon="4.55829">
        <ele>558.2</ele>
        <time>2022-06-26T13:13:11Z</time>
      </trkpt>
      <trkpt lat="45.73044" lon="4.55828">
        <ele>558.4</ele>
        <time>2022-06-26T13:13:12Z</time>
      </trkpt>
      <trkpt lat="45.73043" lon="4.55826">
        <ele>558.4</ele>
        <time>2022-06-26T13:13:13Z</time>
      </trkpt>
      <trkpt lat="45.73042" lon="4.55824">
        <ele>558.8</ele>
        <time>2022-06-26T13:13:14Z</time>
      </trkpt>
      <trkpt lat="45.73041" lon="4.55822">
        <ele>559</ele>
        <time>2022-06-26T13:13:15Z</time>
      </trkpt>
      <trkpt lat="45.7304" lon="4.5582">
        <ele>559</ele>
        <time>2022-06-26T13:13:16Z</time>
      </trkpt>
      <trkpt lat="45.73039" lon="4.55818">
        <ele>559.4</ele>
        <time>2022-06-26T13:13:17Z</time>
      </trkpt>
      <trkpt lat="45.73038" lon="4.55816">
        <ele>559.6</ele>
        <time>2022-06-26T13:13:18Z</time>
      </trkpt>
      <trkpt lat="45.73037" lon="4.55814">
        <ele>559.8</ele>
        <time>2022-06-26T13:13:19Z</time>
      </trkpt>
      <trkpt lat="45.73036" lon="4.55812">
        <ele>560</ele>
        <time>2022-06-26T13:13:20Z</time>
      </trkpt>
      <trkpt lat="45.73034" lon="4.5581">
        <ele>560</ele>
        <time>2022-06-26T13:13:21Z</time>
      </trkpt>
      <trkpt lat="45.73034" lon="4.55808">
        <ele>560.4</ele>
        <time>2022-06-26T13:13:22Z</time>
      </trkpt>
      <trkpt lat="45.73032" lon="4.55806">
        <ele>560.4</ele>
        <time>2022-06-26T13:13:23Z</time>
      </trkpt>
      <trkpt lat="45.73031" lon="4.55804">
        <ele>560.8</ele>
        <time>2022-06-26T13:13:24Z</time>
      </trkpt>
      <trkpt lat="45.73031" lon="4.55802">
        <ele>560.8</ele>
        <time>2022-06-26T13:13:25Z</time>
      </trkpt>
      <trkpt lat="45.7303" lon="4.558">
        <ele>561</ele>
        <time>2022-06-26T13:13:26Z</time>
      </trkpt>
      <trkpt lat="45.73028" lon="4.55799">
        <ele>561.2</ele>
        <time>2022-06-26T13:13:27Z</time>
      </trkpt>
      <trkpt lat="45.73028" lon="4.55797">
        <ele>561.6</ele>
        <time>2022-06-26T13:13:28Z</time>
      </trkpt>
      <trkpt lat="45.73027" lon="4.55795">
        <ele>561.8</ele>
        <time>2022-06-26T13:13:29Z</time>
      </trkpt>
      <trkpt lat="45.73026" lon="4.55793">
        <ele>562</ele>
        <time>2022-06-26T13:13:30Z</time>
      </trkpt>
      <trkpt lat="45.73025" lon="4.55791">
        <ele>562.2</ele>
        <time>2022-06-26T13:13:31Z</time>
      </trkpt>
      <trkpt lat="45.73024" lon="4.55789">
        <ele>562.2</ele>
        <time>2022-06-26T13:13:32Z</time>
      </trkpt>
      <trkpt lat="45.73024" lon="4.55787">
        <ele>562.6</ele>
        <time>2022-06-26T13:13:33Z</time>
      </trkpt>
      <trkpt lat="45.73023" lon="4.55785">
        <ele>562.6</ele>
        <time>2022-06-26T13:13:34Z</time>
      </trkpt>
      <trkpt lat="45.73022" lon="4.55783">
        <ele>563</ele>
        <time>2022-06-26T13:13:35Z</time>
      </trkpt>
      <trkpt lat="45.73021" lon="4.55781">
        <ele>563</ele>
        <time>2022-06-26T13:13:36Z</time>
      </trkpt>
      <trkpt lat="45.7302" lon="4.55779">
        <ele>563.4</ele>
        <time>2022-06-26T13:13:37Z</time>
      </trkpt>
      <trkpt lat="45.7302" lon="4.55777">
        <ele>563.4</ele>
        <time>2022-06-26T13:13:38Z</time>
      </trkpt>
      <trkpt lat="45.73019" lon="4.55775">
        <ele>563.6</ele>
        <time>2022-06-26T13:13:39Z</time>
      </trkpt>
      <trkpt lat="45.73018" lon="4.55773">
        <ele>563.6</ele>
        <time>2022-06-26T13:13:40Z</time>
      </trkpt>
      <trkpt lat="45.73017" lon="4.55771">
        <ele>564</ele>
        <time>2022-06-26T13:13:41Z</time>
      </trkpt>
      <trkpt lat="45.73016" lon="4.5577">
        <ele>564</ele>
        <time>2022-06-26T13:13:42Z</time>
      </trkpt>
      <trkpt lat="45.73015" lon="4.55768">
        <ele>564.4</ele>
        <time>2022-06-26T13:13:43Z</time>
      </trkpt>
      <trkpt lat="45.73015" lon="4.55766">
        <ele>564.4</ele>
        <time>2022-06-26T13:13:44Z</time>
      </trkpt>
      <trkpt lat="45.73014" lon="4.55764">
        <ele>564.6</ele>
        <time>2022-06-26T13:13:45Z</time>
      </trkpt>
      <trkpt lat="45.73013" lon="4.55762">
        <ele>564.6</ele>
        <time>2022-06-26T13:13:46Z</time>
      </trkpt>
      <trkpt lat="45.73012" lon="4.5576">
        <ele>565</ele>
        <time>2022-06-26T13:13:47Z</time>
      </trkpt>
      <trkpt lat="45.73011" lon="4.55759">
        <ele>565</ele>
        <time>2022-06-26T13:13:48Z</time>
      </trkpt>
      <trkpt lat="45.73011" lon="4.55757">
        <ele>565.4</ele>
        <time>2022-06-26T13:13:49Z</time>
      </trkpt>
      <trkpt lat="45.7301" lon="4.55755">
        <ele>565.4</ele>
        <time>2022-06-26T13:13:50Z</time>
      </trkpt>
      <trkpt lat="45.73009" lon="4.55753">
        <ele>565.6</ele>
        <time>2022-06-26T13:13:51Z</time>
      </trkpt>
      <trkpt lat="45.73008" lon="4.55751">
        <ele>565.6</ele>
        <time>2022-06-26T13:13:52Z</time>
      </trkpt>
      <trkpt lat="45.73007" lon="4.55749">
        <ele>566</ele>
        <time>2022-06-26T13:13:53Z</time>
      </trkpt>
      <trkpt lat="45.73006" lon="4.55747">
        <ele>566</ele>
        <time>2022-06-26T13:13:54Z</time>
      </trkpt>
      <trkpt lat="45.73005" lon="4.55746">
        <ele>566.4</ele>
        <time>2022-06-26T13:13:55Z</time>
      </trkpt>
      <trkpt lat="45.73004" lon="4.55744">
        <ele>566.4</ele>
        <time>2022-06-26T13:13:56Z</time>
      </trkpt>
      <trkpt lat="45.73004" lon="4.55742">
        <ele>566.6</ele>
        <time>2022-06-26T13:13:57Z</time>
      </trkpt>
      <trkpt lat="45.73003" lon="4.5574">
        <ele>567</ele>
        <time>2022-06-26T13:13:58Z</time>
      </trkpt>
      <trkpt lat="45.73002" lon="4.55738">
        <ele>567</ele>
        <time>2022-06-26T13:13:59Z</time>
      </trkpt>
      <trkpt lat="45.73001" lon="4.55736">
        <ele>567.2</ele>
        <time>2022-06-26T13:14:00Z</time>
      </trkpt>
      <trkpt lat="45.73" lon="4.55734">
        <ele>567.2</ele>
        <time>2022-06-26T13:14:01Z</time>
      </trkpt>
      <trkpt lat="45.72999" lon="4.55732">
        <ele>567.6</ele>
        <time>2022-06-26T13:14:02Z</time>
      </trkpt>
      <trkpt lat="45.72998" lon="4.55731">
        <ele>567.6</ele>
        <time>2022-06-26T13:14:03Z</time>
      </trkpt>
      <trkpt lat="45.72997" lon="4.55729">
        <ele>568</ele>
        <time>2022-06-26T13:14:04Z</time>
      </trkpt>
      <trkpt lat="45.72996" lon="4.55727">
        <ele>568</ele>
        <time>2022-06-26T13:14:05Z</time>
      </trkpt>
      <trkpt lat="45.72995" lon="4.55725">
        <ele>568.4</ele>
        <time>2022-06-26T13:14:06Z</time>
      </trkpt>
      <trkpt lat="45.72994" lon="4.55724">
        <ele>568.6</ele>
        <time>2022-06-26T13:14:07Z</time>
      </trkpt>
      <trkpt lat="45.72993" lon="4.55722">
        <ele>568.8</ele>
        <time>2022-06-26T13:14:08Z</time>
      </trkpt>
      <trkpt lat="45.72992" lon="4.5572">
        <ele>568.8</ele>
        <time>2022-06-26T13:14:09Z</time>
      </trkpt>
      <trkpt lat="45.72991" lon="4.55719">
        <ele>569</ele>
        <time>2022-06-26T13:14:10Z</time>
      </trkpt>
      <trkpt lat="45.7299" lon="4.55717">
        <ele>569</ele>
        <time>2022-06-26T13:14:11Z</time>
      </trkpt>
      <trkpt lat="45.72989" lon="4.55715">
        <ele>569.4</ele>
        <time>2022-06-26T13:14:12Z</time>
      </trkpt>
      <trkpt lat="45.72988" lon="4.55713">
        <ele>569.4</ele>
        <time>2022-06-26T13:14:13Z</time>
      </trkpt>
      <trkpt lat="45.72987" lon="4.55711">
        <ele>569.8</ele>
        <time>2022-06-26T13:14:14Z</time>
      </trkpt>
      <trkpt lat="45.72986" lon="4.55709">
        <ele>569.8</ele>
        <time>2022-06-26T13:14:15Z</time>
      </trkpt>
      <trkpt lat="45.72985" lon="4.55708">
        <ele>570</ele>
        <time>2022-06-26T13:14:16Z</time>
      </trkpt>
      <trkpt lat="45.72984" lon="4.55706">
        <ele>570</ele>
        <time>2022-06-26T13:14:17Z</time>
      </trkpt>
      <trkpt lat="45.72983" lon="4.55704">
        <ele>570.2</ele>
        <time>2022-06-26T13:14:18Z</time>
      </trkpt>
      <trkpt lat="45.72982" lon="4.55703">
        <ele>570.2</ele>
        <time>2022-06-26T13:14:19Z</time>
      </trkpt>
      <trkpt lat="45.72981" lon="4.55701">
        <ele>570.6</ele>
        <time>2022-06-26T13:14:20Z</time>
      </trkpt>
      <trkpt lat="45.72981" lon="4.55699">
        <ele>570.6</ele>
        <time>2022-06-26T13:14:21Z</time>
      </trkpt>
      <trkpt lat="45.7298" lon="4.55697">
        <ele>571</ele>
        <time>2022-06-26T13:14:22Z</time>
      </trkpt>
      <trkpt lat="45.72979" lon="4.55695">
        <ele>571.2</ele>
        <time>2022-06-26T13:14:23Z</time>
      </trkpt>
      <trkpt lat="45.72978" lon="4.55693">
        <ele>571.2</ele>
        <time>2022-06-26T13:14:24Z</time>
      </trkpt>
      <trkpt lat="45.72977" lon="4.55691">
        <ele>571.4</ele>
        <time>2022-06-26T13:14:25Z</time>
      </trkpt>
      <trkpt lat="45.72977" lon="4.55688">
        <ele>571.4</ele>
        <time>2022-06-26T13:14:26Z</time>
      </trkpt>
      <trkpt lat="45.72976" lon="4.55686">
        <ele>571.8</ele>
        <time>2022-06-26T13:14:27Z</time>
      </trkpt>
      <trkpt lat="45.72975" lon="4.55685">
        <ele>571.8</ele>
        <time>2022-06-26T13:14:28Z</time>
      </trkpt>
      <trkpt lat="45.72974" lon="4.55683">
        <ele>572.2</ele>
        <time>2022-06-26T13:14:29Z</time>
      </trkpt>
      <trkpt lat="45.72973" lon="4.55681">
        <ele>572.4</ele>
        <time>2022-06-26T13:14:30Z</time>
      </trkpt>
      <trkpt lat="45.72972" lon="4.55679">
        <ele>572.6</ele>
        <time>2022-06-26T13:14:31Z</time>
      </trkpt>
      <trkpt lat="45.72971" lon="4.55677">
        <ele>572.6</ele>
        <time>2022-06-26T13:14:32Z</time>
      </trkpt>
      <trkpt lat="45.72971" lon="4.55675">
        <ele>573</ele>
        <time>2022-06-26T13:14:33Z</time>
      </trkpt>
      <trkpt lat="45.7297" lon="4.55673">
        <ele>573</ele>
        <time>2022-06-26T13:14:34Z</time>
      </trkpt>
      <trkpt lat="45.7297" lon="4.55671">
        <ele>573.2</ele>
        <time>2022-06-26T13:14:35Z</time>
      </trkpt>
      <trkpt lat="45.72969" lon="4.55668">
        <ele>573.2</ele>
        <time>2022-06-26T13:14:36Z</time>
      </trkpt>
      <trkpt lat="45.72968" lon="4.55666">
        <ele>573.4</ele>
        <time>2022-06-26T13:14:37Z</time>
      </trkpt>
      <trkpt lat="45.72968" lon="4.55664">
        <ele>573.4</ele>
        <time>2022-06-26T13:14:38Z</time>
      </trkpt>
      <trkpt lat="45.72967" lon="4.55662">
        <ele>573.8</ele>
        <time>2022-06-26T13:14:39Z</time>
      </trkpt>
      <trkpt lat="45.72966" lon="4.5566">
        <ele>573.8</ele>
        <time>2022-06-26T13:14:40Z</time>
      </trkpt>
      <trkpt lat="45.72965" lon="4.55658">
        <ele>574</ele>
        <time>2022-06-26T13:14:41Z</time>
      </trkpt>
      <trkpt lat="45.72964" lon="4.55656">
        <ele>574</ele>
        <time>2022-06-26T13:14:42Z</time>
      </trkpt>
      <trkpt lat="45.72964" lon="4.55654">
        <ele>574.4</ele>
        <time>2022-06-26T13:14:43Z</time>
      </trkpt>
      <trkpt lat="45.72963" lon="4.55652">
        <ele>574.4</ele>
        <time>2022-06-26T13:14:44Z</time>
      </trkpt>
      <trkpt lat="45.72963" lon="4.5565">
        <ele>574.6</ele>
        <time>2022-06-26T13:14:45Z</time>
      </trkpt>
      <trkpt lat="45.72962" lon="4.55648">
        <ele>574.8</ele>
        <time>2022-06-26T13:14:46Z</time>
      </trkpt>
      <trkpt lat="45.72962" lon="4.55645">
        <ele>574.8</ele>
        <time>2022-06-26T13:14:47Z</time>
      </trkpt>
      <trkpt lat="45.72961" lon="4.55643">
        <ele>575.2</ele>
        <time>2022-06-26T13:14:48Z</time>
      </trkpt>
      <trkpt lat="45.7296" lon="4.55641">
        <ele>575.2</ele>
        <time>2022-06-26T13:14:49Z</time>
      </trkpt>
      <trkpt lat="45.7296" lon="4.55639">
        <ele>575.6</ele>
        <time>2022-06-26T13:14:50Z</time>
      </trkpt>
      <trkpt lat="45.72959" lon="4.55637">
        <ele>575.6</ele>
        <time>2022-06-26T13:14:51Z</time>
      </trkpt>
      <trkpt lat="45.72958" lon="4.55635">
        <ele>576</ele>
        <time>2022-06-26T13:14:52Z</time>
      </trkpt>
      <trkpt lat="45.72957" lon="4.55634">
        <ele>576.2</ele>
        <time>2022-06-26T13:14:53Z</time>
      </trkpt>
      <trkpt lat="45.72956" lon="4.55632">
        <ele>576.2</ele>
        <time>2022-06-26T13:14:54Z</time>
      </trkpt>
      <trkpt lat="45.72955" lon="4.5563">
        <ele>576.4</ele>
        <time>2022-06-26T13:14:55Z</time>
      </trkpt>
      <trkpt lat="45.72954" lon="4.55628">
        <ele>576.6</ele>
        <time>2022-06-26T13:14:56Z</time>
      </trkpt>
      <trkpt lat="45.72953" lon="4.55627">
        <ele>576.6</ele>
        <time>2022-06-26T13:14:57Z</time>
      </trkpt>
      <trkpt lat="45.72952" lon="4.55626">
        <ele>577</ele>
        <time>2022-06-26T13:14:58Z</time>
      </trkpt>
      <trkpt lat="45.72951" lon="4.55624">
        <ele>577</ele>
        <time>2022-06-26T13:14:59Z</time>
      </trkpt>
      <trkpt lat="45.7295" lon="4.55623">
        <ele>577.4</ele>
        <time>2022-06-26T13:15:00Z</time>
      </trkpt>
      <trkpt lat="45.72949" lon="4.55621">
        <ele>577.4</ele>
        <time>2022-06-26T13:15:01Z</time>
      </trkpt>
      <trkpt lat="45.72948" lon="4.5562">
        <ele>577.6</ele>
        <time>2022-06-26T13:15:02Z</time>
      </trkpt>
      <trkpt lat="45.72947" lon="4.55618">
        <ele>577.6</ele>
        <time>2022-06-26T13:15:03Z</time>
      </trkpt>
      <trkpt lat="45.72946" lon="4.55617">
        <ele>578</ele>
        <time>2022-06-26T13:15:04Z</time>
      </trkpt>
      <trkpt lat="45.72945" lon="4.55615">
        <ele>578</ele>
        <time>2022-06-26T13:15:05Z</time>
      </trkpt>
      <trkpt lat="45.72944" lon="4.55614">
        <ele>578.4</ele>
        <time>2022-06-26T13:15:06Z</time>
      </trkpt>
      <trkpt lat="45.72943" lon="4.55613">
        <ele>578.6</ele>
        <time>2022-06-26T13:15:07Z</time>
      </trkpt>
      <trkpt lat="45.72942" lon="4.55612">
        <ele>578.6</ele>
        <time>2022-06-26T13:15:08Z</time>
      </trkpt>
      <trkpt lat="45.7294" lon="4.55611">
        <ele>578.8</ele>
        <time>2022-06-26T13:15:09Z</time>
      </trkpt>
      <trkpt lat="45.72939" lon="4.5561">
        <ele>578.8</ele>
        <time>2022-06-26T13:15:10Z</time>
      </trkpt>
      <trkpt lat="45.72938" lon="4.55609">
        <ele>579</ele>
        <time>2022-06-26T13:15:11Z</time>
      </trkpt>
      <trkpt lat="45.72936" lon="4.55608">
        <ele>579</ele>
        <time>2022-06-26T13:15:12Z</time>
      </trkpt>
      <trkpt lat="45.72935" lon="4.55607">
        <ele>579.4</ele>
        <time>2022-06-26T13:15:13Z</time>
      </trkpt>
      <trkpt lat="45.72934" lon="4.55606">
        <ele>579.4</ele>
        <time>2022-06-26T13:15:14Z</time>
      </trkpt>
      <trkpt lat="45.72933" lon="4.55605">
        <ele>579.6</ele>
        <time>2022-06-26T13:15:15Z</time>
      </trkpt>
      <trkpt lat="45.72932" lon="4.55604">
        <ele>579.6</ele>
        <time>2022-06-26T13:15:16Z</time>
      </trkpt>
      <trkpt lat="45.72931" lon="4.55603">
        <ele>580</ele>
        <time>2022-06-26T13:15:17Z</time>
      </trkpt>
      <trkpt lat="45.72929" lon="4.55602">
        <ele>580</ele>
        <time>2022-06-26T13:15:18Z</time>
      </trkpt>
      <trkpt lat="45.72928" lon="4.55601">
        <ele>580.2</ele>
        <time>2022-06-26T13:15:19Z</time>
      </trkpt>
      <trkpt lat="45.72927" lon="4.55601">
        <ele>580.2</ele>
        <time>2022-06-26T13:15:20Z</time>
      </trkpt>
      <trkpt lat="45.72926" lon="4.556">
        <ele>580.4</ele>
        <time>2022-06-26T13:15:21Z</time>
      </trkpt>
      <trkpt lat="45.72924" lon="4.556">
        <ele>580.4</ele>
        <time>2022-06-26T13:15:22Z</time>
      </trkpt>
      <trkpt lat="45.72923" lon="4.55599">
        <ele>580.8</ele>
        <time>2022-06-26T13:15:23Z</time>
      </trkpt>
      <trkpt lat="45.72921" lon="4.55599">
        <ele>580.8</ele>
        <time>2022-06-26T13:15:24Z</time>
      </trkpt>
      <trkpt lat="45.7292" lon="4.55598">
        <ele>581</ele>
        <time>2022-06-26T13:15:25Z</time>
      </trkpt>
      <trkpt lat="45.72919" lon="4.55597">
        <ele>581</ele>
        <time>2022-06-26T13:15:26Z</time>
      </trkpt>
      <trkpt lat="45.72917" lon="4.55597">
        <ele>581.4</ele>
        <time>2022-06-26T13:15:27Z</time>
      </trkpt>
      <trkpt lat="45.72916" lon="4.55597">
        <ele>581.4</ele>
        <time>2022-06-26T13:15:28Z</time>
      </trkpt>
      <trkpt lat="45.72914" lon="4.55596">
        <ele>581.6</ele>
        <time>2022-06-26T13:15:29Z</time>
      </trkpt>
      <trkpt lat="45.72913" lon="4.55596">
        <ele>581.6</ele>
        <time>2022-06-26T13:15:30Z</time>
      </trkpt>
      <trkpt lat="45.72911" lon="4.55595">
        <ele>581.8</ele>
        <time>2022-06-26T13:15:31Z</time>
      </trkpt>
      <trkpt lat="45.7291" lon="4.55595">
        <ele>582.2</ele>
        <time>2022-06-26T13:15:32Z</time>
      </trkpt>
      <trkpt lat="45.72908" lon="4.55594">
        <ele>582.2</ele>
        <time>2022-06-26T13:15:33Z</time>
      </trkpt>
      <trkpt lat="45.72907" lon="4.55593">
        <ele>582.4</ele>
        <time>2022-06-26T13:15:34Z</time>
      </trkpt>
      <trkpt lat="45.72905" lon="4.55593">
        <ele>582.6</ele>
        <time>2022-06-26T13:15:35Z</time>
      </trkpt>
      <trkpt lat="45.72903" lon="4.55593">
        <ele>582.6</ele>
        <time>2022-06-26T13:15:36Z</time>
      </trkpt>
      <trkpt lat="45.72902" lon="4.55593">
        <ele>583</ele>
        <time>2022-06-26T13:15:37Z</time>
      </trkpt>
      <trkpt lat="45.729" lon="4.55592">
        <ele>583.2</ele>
        <time>2022-06-26T13:15:38Z</time>
      </trkpt>
      <trkpt lat="45.72899" lon="4.55591">
        <ele>583.2</ele>
        <time>2022-06-26T13:15:39Z</time>
      </trkpt>
      <trkpt lat="45.72897" lon="4.55591">
        <ele>583.6</ele>
        <time>2022-06-26T13:15:40Z</time>
      </trkpt>
      <trkpt lat="45.72896" lon="4.5559">
        <ele>583.6</ele>
        <time>2022-06-26T13:15:41Z</time>
      </trkpt>
      <trkpt lat="45.72894" lon="4.5559">
        <ele>583.8</ele>
        <time>2022-06-26T13:15:42Z</time>
      </trkpt>
      <trkpt lat="45.72892" lon="4.55589">
        <ele>583.8</ele>
        <time>2022-06-26T13:15:43Z</time>
      </trkpt>
      <trkpt lat="45.7289" lon="4.55589">
        <ele>584.2</ele>
        <time>2022-06-26T13:15:44Z</time>
      </trkpt>
      <trkpt lat="45.72889" lon="4.55589">
        <ele>584.6</ele>
        <time>2022-06-26T13:15:45Z</time>
      </trkpt>
      <trkpt lat="45.72887" lon="4.55589">
        <ele>584.8</ele>
        <time>2022-06-26T13:15:46Z</time>
      </trkpt>
      <trkpt lat="45.72885" lon="4.55589">
        <ele>584.8</ele>
        <time>2022-06-26T13:15:47Z</time>
      </trkpt>
      <trkpt lat="45.72884" lon="4.5559">
        <ele>585.2</ele>
        <time>2022-06-26T13:15:48Z</time>
      </trkpt>
      <trkpt lat="45.72882" lon="4.5559">
        <ele>585.2</ele>
        <time>2022-06-26T13:15:49Z</time>
      </trkpt>
      <trkpt lat="45.7288" lon="4.55591">
        <ele>585.4</ele>
        <time>2022-06-26T13:15:50Z</time>
      </trkpt>
      <trkpt lat="45.72879" lon="4.55591">
        <ele>585.4</ele>
        <time>2022-06-26T13:15:51Z</time>
      </trkpt>
      <trkpt lat="45.72877" lon="4.55593">
        <ele>585.8</ele>
        <time>2022-06-26T13:15:52Z</time>
      </trkpt>
      <trkpt lat="45.72876" lon="4.55594">
        <ele>585.8</ele>
        <time>2022-06-26T13:15:53Z</time>
      </trkpt>
      <trkpt lat="45.72874" lon="4.55595">
        <ele>586.2</ele>
        <time>2022-06-26T13:15:54Z</time>
      </trkpt>
      <trkpt lat="45.72873" lon="4.55597">
        <ele>586.4</ele>
        <time>2022-06-26T13:15:55Z</time>
      </trkpt>
      <trkpt lat="45.72872" lon="4.55598">
        <ele>586.4</ele>
        <time>2022-06-26T13:15:56Z</time>
      </trkpt>
      <trkpt lat="45.7287" lon="4.556">
        <ele>586.8</ele>
        <time>2022-06-26T13:15:57Z</time>
      </trkpt>
      <trkpt lat="45.72869" lon="4.55601">
        <ele>586.8</ele>
        <time>2022-06-26T13:15:58Z</time>
      </trkpt>
      <trkpt lat="45.72869" lon="4.55603">
        <ele>587.2</ele>
        <time>2022-06-26T13:15:59Z</time>
      </trkpt>
      <trkpt lat="45.72868" lon="4.55606">
        <ele>587.4</ele>
        <time>2022-06-26T13:16:00Z</time>
      </trkpt>
      <trkpt lat="45.72867" lon="4.55608">
        <ele>587.8</ele>
        <time>2022-06-26T13:16:01Z</time>
      </trkpt>
      <trkpt lat="45.72867" lon="4.55611">
        <ele>587.8</ele>
        <time>2022-06-26T13:16:02Z</time>
      </trkpt>
      <trkpt lat="45.72866" lon="4.55613">
        <ele>588.2</ele>
        <time>2022-06-26T13:16:03Z</time>
      </trkpt>
      <trkpt lat="45.72866" lon="4.55616">
        <ele>588.4</ele>
        <time>2022-06-26T13:16:04Z</time>
      </trkpt>
      <trkpt lat="45.72865" lon="4.55618">
        <ele>588.6</ele>
        <time>2022-06-26T13:16:05Z</time>
      </trkpt>
      <trkpt lat="45.72864" lon="4.5562">
        <ele>588.6</ele>
        <time>2022-06-26T13:16:06Z</time>
      </trkpt>
      <trkpt lat="45.72863" lon="4.55623">
        <ele>589</ele>
        <time>2022-06-26T13:16:07Z</time>
      </trkpt>
      <trkpt lat="45.72863" lon="4.55625">
        <ele>589</ele>
        <time>2022-06-26T13:16:08Z</time>
      </trkpt>
      <trkpt lat="45.72862" lon="4.55627">
        <ele>589.2</ele>
        <time>2022-06-26T13:16:09Z</time>
      </trkpt>
      <trkpt lat="45.72861" lon="4.55629">
        <ele>589.2</ele>
        <time>2022-06-26T13:16:10Z</time>
      </trkpt>
      <trkpt lat="45.72861" lon="4.55632">
        <ele>589.6</ele>
        <time>2022-06-26T13:16:11Z</time>
      </trkpt>
      <trkpt lat="45.72861" lon="4.55634">
        <ele>589.6</ele>
        <time>2022-06-26T13:16:12Z</time>
      </trkpt>
      <trkpt lat="45.7286" lon="4.55636">
        <ele>590</ele>
        <time>2022-06-26T13:16:13Z</time>
      </trkpt>
      <trkpt lat="45.72859" lon="4.55638">
        <ele>590.2</ele>
        <time>2022-06-26T13:16:14Z</time>
      </trkpt>
      <trkpt lat="45.72858" lon="4.55639">
        <ele>590.4</ele>
        <time>2022-06-26T13:16:15Z</time>
      </trkpt>
      <trkpt lat="45.72856" lon="4.5564">
        <ele>590.4</ele>
        <time>2022-06-26T13:16:16Z</time>
      </trkpt>
      <trkpt lat="45.72854" lon="4.55641">
        <ele>590.8</ele>
        <time>2022-06-26T13:16:17Z</time>
      </trkpt>
      <trkpt lat="45.72853" lon="4.55642">
        <ele>590.8</ele>
        <time>2022-06-26T13:16:18Z</time>
      </trkpt>
      <trkpt lat="45.72851" lon="4.55643">
        <ele>591</ele>
        <time>2022-06-26T13:16:19Z</time>
      </trkpt>
      <trkpt lat="45.72849" lon="4.55644">
        <ele>591</ele>
        <time>2022-06-26T13:16:20Z</time>
      </trkpt>
      <trkpt lat="45.72848" lon="4.55644">
        <ele>591.4</ele>
        <time>2022-06-26T13:16:21Z</time>
      </trkpt>
      <trkpt lat="45.72846" lon="4.55645">
        <ele>591.6</ele>
        <time>2022-06-26T13:16:22Z</time>
      </trkpt>
      <trkpt lat="45.72844" lon="4.55645">
        <ele>591.6</ele>
        <time>2022-06-26T13:16:23Z</time>
      </trkpt>
      <trkpt lat="45.72843" lon="4.55645">
        <ele>592</ele>
        <time>2022-06-26T13:16:24Z</time>
      </trkpt>
      <trkpt lat="45.72841" lon="4.55645">
        <ele>592.2</ele>
        <time>2022-06-26T13:16:25Z</time>
      </trkpt>
      <trkpt lat="45.7284" lon="4.55646">
        <ele>592.4</ele>
        <time>2022-06-26T13:16:26Z</time>
      </trkpt>
      <trkpt lat="45.72838" lon="4.55646">
        <ele>592.4</ele>
        <time>2022-06-26T13:16:27Z</time>
      </trkpt>
      <trkpt lat="45.72836" lon="4.55647">
        <ele>592.8</ele>
        <time>2022-06-26T13:16:28Z</time>
      </trkpt>
      <trkpt lat="45.72835" lon="4.55647">
        <ele>592.8</ele>
        <time>2022-06-26T13:16:29Z</time>
      </trkpt>
      <trkpt lat="45.72833" lon="4.55648">
        <ele>593.2</ele>
        <time>2022-06-26T13:16:30Z</time>
      </trkpt>
      <trkpt lat="45.72831" lon="4.55648">
        <ele>593.2</ele>
        <time>2022-06-26T13:16:31Z</time>
      </trkpt>
      <trkpt lat="45.7283" lon="4.55649">
        <ele>593.6</ele>
        <time>2022-06-26T13:16:32Z</time>
      </trkpt>
      <trkpt lat="45.72828" lon="4.55649">
        <ele>593.8</ele>
        <time>2022-06-26T13:16:33Z</time>
      </trkpt>
      <trkpt lat="45.72827" lon="4.5565">
        <ele>593.8</ele>
        <time>2022-06-26T13:16:34Z</time>
      </trkpt>
      <trkpt lat="45.72825" lon="4.55651">
        <ele>594.2</ele>
        <time>2022-06-26T13:16:35Z</time>
      </trkpt>
      <trkpt lat="45.72824" lon="4.55651">
        <ele>594.2</ele>
        <time>2022-06-26T13:16:36Z</time>
      </trkpt>
      <trkpt lat="45.72822" lon="4.55652">
        <ele>594.4</ele>
        <time>2022-06-26T13:16:37Z</time>
      </trkpt>
      <trkpt lat="45.72821" lon="4.55653">
        <ele>594.4</ele>
        <time>2022-06-26T13:16:38Z</time>
      </trkpt>
      <trkpt lat="45.7282" lon="4.55655">
        <ele>594.8</ele>
        <time>2022-06-26T13:16:39Z</time>
      </trkpt>
      <trkpt lat="45.72818" lon="4.55657">
        <ele>594.8</ele>
        <time>2022-06-26T13:16:40Z</time>
      </trkpt>
      <trkpt lat="45.72817" lon="4.55659">
        <ele>595</ele>
        <time>2022-06-26T13:16:41Z</time>
      </trkpt>
      <trkpt lat="45.72817" lon="4.55661">
        <ele>595</ele>
        <time>2022-06-26T13:16:42Z</time>
      </trkpt>
      <trkpt lat="45.72816" lon="4.55663">
        <ele>595.4</ele>
        <time>2022-06-26T13:16:43Z</time>
      </trkpt>
      <trkpt lat="45.72815" lon="4.55664">
        <ele>595.6</ele>
        <time>2022-06-26T13:16:44Z</time>
      </trkpt>
      <trkpt lat="45.72814" lon="4.55669">
        <ele>595.6</ele>
        <time>2022-06-26T13:16:45Z</time>
      </trkpt>
      <trkpt lat="45.72813" lon="4.5567">
        <ele>595.8</ele>
        <time>2022-06-26T13:16:46Z</time>
      </trkpt>
      <trkpt lat="45.72812" lon="4.55672">
        <ele>595.8</ele>
        <time>2022-06-26T13:16:47Z</time>
      </trkpt>
      <trkpt lat="45.72811" lon="4.55674">
        <ele>596.2</ele>
        <time>2022-06-26T13:16:48Z</time>
      </trkpt>
      <trkpt lat="45.72811" lon="4.55677">
        <ele>596.6</ele>
        <time>2022-06-26T13:16:49Z</time>
      </trkpt>
      <trkpt lat="45.7281" lon="4.55679">
        <ele>596.6</ele>
        <time>2022-06-26T13:16:50Z</time>
      </trkpt>
      <trkpt lat="45.72809" lon="4.55681">
        <ele>596.8</ele>
        <time>2022-06-26T13:16:51Z</time>
      </trkpt>
      <trkpt lat="45.72808" lon="4.55683">
        <ele>596.8</ele>
        <time>2022-06-26T13:16:52Z</time>
      </trkpt>
      <trkpt lat="45.72808" lon="4.55685">
        <ele>597.2</ele>
        <time>2022-06-26T13:16:53Z</time>
      </trkpt>
      <trkpt lat="45.72807" lon="4.55687">
        <ele>597.2</ele>
        <time>2022-06-26T13:16:54Z</time>
      </trkpt>
      <trkpt lat="45.72806" lon="4.55689">
        <ele>597.6</ele>
        <time>2022-06-26T13:16:55Z</time>
      </trkpt>
      <trkpt lat="45.72805" lon="4.55691">
        <ele>597.8</ele>
        <time>2022-06-26T13:16:56Z</time>
      </trkpt>
      <trkpt lat="45.72804" lon="4.55693">
        <ele>598</ele>
        <time>2022-06-26T13:16:57Z</time>
      </trkpt>
      <trkpt lat="45.72804" lon="4.55696">
        <ele>598</ele>
        <time>2022-06-26T13:16:58Z</time>
      </trkpt>
      <trkpt lat="45.72803" lon="4.55698">
        <ele>598.4</ele>
        <time>2022-06-26T13:16:59Z</time>
      </trkpt>
      <trkpt lat="45.72802" lon="4.557">
        <ele>598.4</ele>
        <time>2022-06-26T13:17:00Z</time>
      </trkpt>
      <trkpt lat="45.72802" lon="4.55702">
        <ele>598.6</ele>
        <time>2022-06-26T13:17:01Z</time>
      </trkpt>
      <trkpt lat="45.72801" lon="4.55704">
        <ele>599</ele>
        <time>2022-06-26T13:17:02Z</time>
      </trkpt>
      <trkpt lat="45.72799" lon="4.55705">
        <ele>599.2</ele>
        <time>2022-06-26T13:17:03Z</time>
      </trkpt>
      <trkpt lat="45.72798" lon="4.55707">
        <ele>599.2</ele>
        <time>2022-06-26T13:17:04Z</time>
      </trkpt>
      <trkpt lat="45.72796" lon="4.55708">
        <ele>599.6</ele>
        <time>2022-06-26T13:17:05Z</time>
      </trkpt>
      <trkpt lat="45.72794" lon="4.5571">
        <ele>599.8</ele>
        <time>2022-06-26T13:17:06Z</time>
      </trkpt>
      <trkpt lat="45.72792" lon="4.55711">
        <ele>600.2</ele>
        <time>2022-06-26T13:17:07Z</time>
      </trkpt>
      <trkpt lat="45.7279" lon="4.55711">
        <ele>600.4</ele>
        <time>2022-06-26T13:17:08Z</time>
      </trkpt>
      <trkpt lat="45.72788" lon="4.55711">
        <ele>600.4</ele>
        <time>2022-06-26T13:17:09Z</time>
      </trkpt>
      <trkpt lat="45.72787" lon="4.55711">
        <ele>600.6</ele>
        <time>2022-06-26T13:17:10Z</time>
      </trkpt>
      <trkpt lat="45.72785" lon="4.55711">
        <ele>600.6</ele>
        <time>2022-06-26T13:17:11Z</time>
      </trkpt>
      <trkpt lat="45.72783" lon="4.55712">
        <ele>601.2</ele>
        <time>2022-06-26T13:17:12Z</time>
      </trkpt>
      <trkpt lat="45.72782" lon="4.55712">
        <ele>601.4</ele>
        <time>2022-06-26T13:17:13Z</time>
      </trkpt>
      <trkpt lat="45.7278" lon="4.55713">
        <ele>601.6</ele>
        <time>2022-06-26T13:17:14Z</time>
      </trkpt>
      <trkpt lat="45.72778" lon="4.55713">
        <ele>601.8</ele>
        <time>2022-06-26T13:17:15Z</time>
      </trkpt>
      <trkpt lat="45.72776" lon="4.55713">
        <ele>602</ele>
        <time>2022-06-26T13:17:16Z</time>
      </trkpt>
      <trkpt lat="45.72775" lon="4.55713">
        <ele>602</ele>
        <time>2022-06-26T13:17:17Z</time>
      </trkpt>
      <trkpt lat="45.72773" lon="4.55713">
        <ele>602.4</ele>
        <time>2022-06-26T13:17:18Z</time>
      </trkpt>
      <trkpt lat="45.72771" lon="4.55714">
        <ele>602.4</ele>
        <time>2022-06-26T13:17:19Z</time>
      </trkpt>
      <trkpt lat="45.7277" lon="4.55714">
        <ele>602.6</ele>
        <time>2022-06-26T13:17:20Z</time>
      </trkpt>
      <trkpt lat="45.72768" lon="4.55714">
        <ele>603</ele>
        <time>2022-06-26T13:17:21Z</time>
      </trkpt>
      <trkpt lat="45.72766" lon="4.55714">
        <ele>603.2</ele>
        <time>2022-06-26T13:17:22Z</time>
      </trkpt>
      <trkpt lat="45.72765" lon="4.55715">
        <ele>603.2</ele>
        <time>2022-06-26T13:17:23Z</time>
      </trkpt>
      <trkpt lat="45.72763" lon="4.55715">
        <ele>603.4</ele>
        <time>2022-06-26T13:17:24Z</time>
      </trkpt>
      <trkpt lat="45.72762" lon="4.55716">
        <ele>603.6</ele>
        <time>2022-06-26T13:17:25Z</time>
      </trkpt>
      <trkpt lat="45.7276" lon="4.55716">
        <ele>603.6</ele>
        <time>2022-06-26T13:17:26Z</time>
      </trkpt>
      <trkpt lat="45.72758" lon="4.55716">
        <ele>604</ele>
        <time>2022-06-26T13:17:27Z</time>
      </trkpt>
      <trkpt lat="45.72756" lon="4.55716">
        <ele>604</ele>
        <time>2022-06-26T13:17:28Z</time>
      </trkpt>
      <trkpt lat="45.72755" lon="4.55717">
        <ele>604.4</ele>
        <time>2022-06-26T13:17:29Z</time>
      </trkpt>
      <trkpt lat="45.72753" lon="4.55717">
        <ele>604.6</ele>
        <time>2022-06-26T13:17:30Z</time>
      </trkpt>
      <trkpt lat="45.72751" lon="4.55717">
        <ele>604.8</ele>
        <time>2022-06-26T13:17:31Z</time>
      </trkpt>
      <trkpt lat="45.7275" lon="4.55717">
        <ele>604.8</ele>
        <time>2022-06-26T13:17:32Z</time>
      </trkpt>
      <trkpt lat="45.72748" lon="4.55717">
        <ele>605</ele>
        <time>2022-06-26T13:17:33Z</time>
      </trkpt>
      <trkpt lat="45.72746" lon="4.55717">
        <ele>605</ele>
        <time>2022-06-26T13:17:34Z</time>
      </trkpt>
      <trkpt lat="45.72745" lon="4.55717">
        <ele>605.4</ele>
        <time>2022-06-26T13:17:35Z</time>
      </trkpt>
      <trkpt lat="45.72743" lon="4.55718">
        <ele>605.4</ele>
        <time>2022-06-26T13:17:36Z</time>
      </trkpt>
      <trkpt lat="45.72742" lon="4.55718">
        <ele>605.6</ele>
        <time>2022-06-26T13:17:37Z</time>
      </trkpt>
      <trkpt lat="45.7274" lon="4.55719">
        <ele>605.6</ele>
        <time>2022-06-26T13:17:38Z</time>
      </trkpt>
      <trkpt lat="45.72738" lon="4.55719">
        <ele>605.8</ele>
        <time>2022-06-26T13:17:39Z</time>
      </trkpt>
      <trkpt lat="45.72737" lon="4.55719">
        <ele>606.2</ele>
        <time>2022-06-26T13:17:40Z</time>
      </trkpt>
      <trkpt lat="45.72735" lon="4.5572">
        <ele>606.4</ele>
        <time>2022-06-26T13:17:41Z</time>
      </trkpt>
      <trkpt lat="45.72734" lon="4.5572">
        <ele>606.6</ele>
        <time>2022-06-26T13:17:42Z</time>
      </trkpt>
      <trkpt lat="45.72732" lon="4.55721">
        <ele>606.8</ele>
        <time>2022-06-26T13:17:43Z</time>
      </trkpt>
      <trkpt lat="45.7273" lon="4.5572">
        <ele>607</ele>
        <time>2022-06-26T13:17:44Z</time>
      </trkpt>
      <trkpt lat="45.72729" lon="4.5572">
        <ele>607</ele>
        <time>2022-06-26T13:17:45Z</time>
      </trkpt>
      <trkpt lat="45.72727" lon="4.5572">
        <ele>607.4</ele>
        <time>2022-06-26T13:17:46Z</time>
      </trkpt>
      <trkpt lat="45.72725" lon="4.55721">
        <ele>607.4</ele>
        <time>2022-06-26T13:17:47Z</time>
      </trkpt>
      <trkpt lat="45.72724" lon="4.55721">
        <ele>607.8</ele>
        <time>2022-06-26T13:17:48Z</time>
      </trkpt>
      <trkpt lat="45.72722" lon="4.55722">
        <ele>607.8</ele>
        <time>2022-06-26T13:17:49Z</time>
      </trkpt>
      <trkpt lat="45.72721" lon="4.55723">
        <ele>608.2</ele>
        <time>2022-06-26T13:17:50Z</time>
      </trkpt>
      <trkpt lat="45.72719" lon="4.55723">
        <ele>608.2</ele>
        <time>2022-06-26T13:17:51Z</time>
      </trkpt>
      <trkpt lat="45.72718" lon="4.55724">
        <ele>608.2</ele>
        <time>2022-06-26T13:17:52Z</time>
      </trkpt>
      <trkpt lat="45.72716" lon="4.55724">
        <ele>608.6</ele>
        <time>2022-06-26T13:17:53Z</time>
      </trkpt>
      <trkpt lat="45.72715" lon="4.55725">
        <ele>608.6</ele>
        <time>2022-06-26T13:17:54Z</time>
      </trkpt>
      <trkpt lat="45.72713" lon="4.55725">
        <ele>609</ele>
        <time>2022-06-26T13:17:55Z</time>
      </trkpt>
      <trkpt lat="45.72711" lon="4.55725">
        <ele>609.2</ele>
        <time>2022-06-26T13:17:56Z</time>
      </trkpt>
      <trkpt lat="45.7271" lon="4.55726">
        <ele>609.4</ele>
        <time>2022-06-26T13:17:57Z</time>
      </trkpt>
      <trkpt lat="45.72708" lon="4.55726">
        <ele>609.4</ele>
        <time>2022-06-26T13:17:58Z</time>
      </trkpt>
      <trkpt lat="45.72706" lon="4.55726">
        <ele>609.8</ele>
        <time>2022-06-26T13:17:59Z</time>
      </trkpt>
      <trkpt lat="45.72705" lon="4.55727">
        <ele>609.8</ele>
        <time>2022-06-26T13:18:00Z</time>
      </trkpt>
      <trkpt lat="45.72703" lon="4.55727">
        <ele>610</ele>
        <time>2022-06-26T13:18:01Z</time>
      </trkpt>
      <trkpt lat="45.72701" lon="4.55728">
        <ele>610</ele>
        <time>2022-06-26T13:18:02Z</time>
      </trkpt>
      <trkpt lat="45.727" lon="4.55728">
        <ele>610.4</ele>
        <time>2022-06-26T13:18:03Z</time>
      </trkpt>
      <trkpt lat="45.72698" lon="4.55729">
        <ele>610.4</ele>
        <time>2022-06-26T13:18:04Z</time>
      </trkpt>
      <trkpt lat="45.72696" lon="4.5573">
        <ele>610.8</ele>
        <time>2022-06-26T13:18:05Z</time>
      </trkpt>
      <trkpt lat="45.72695" lon="4.5573">
        <ele>610.8</ele>
        <time>2022-06-26T13:18:06Z</time>
      </trkpt>
      <trkpt lat="45.72693" lon="4.55731">
        <ele>611.2</ele>
        <time>2022-06-26T13:18:07Z</time>
      </trkpt>
      <trkpt lat="45.72692" lon="4.55732">
        <ele>611.2</ele>
        <time>2022-06-26T13:18:08Z</time>
      </trkpt>
      <trkpt lat="45.7269" lon="4.55733">
        <ele>611.6</ele>
        <time>2022-06-26T13:18:09Z</time>
      </trkpt>
      <trkpt lat="45.72689" lon="4.55734">
        <ele>611.8</ele>
        <time>2022-06-26T13:18:10Z</time>
      </trkpt>
      <trkpt lat="45.72687" lon="4.55735">
        <ele>611.8</ele>
        <time>2022-06-26T13:18:11Z</time>
      </trkpt>
      <trkpt lat="45.72686" lon="4.55735">
        <ele>612</ele>
        <time>2022-06-26T13:18:12Z</time>
      </trkpt>
      <trkpt lat="45.72684" lon="4.55736">
        <ele>612</ele>
        <time>2022-06-26T13:18:13Z</time>
      </trkpt>
      <trkpt lat="45.72683" lon="4.55736">
        <ele>612.2</ele>
        <time>2022-06-26T13:18:14Z</time>
      </trkpt>
      <trkpt lat="45.72681" lon="4.55737">
        <ele>612.2</ele>
        <time>2022-06-26T13:18:15Z</time>
      </trkpt>
      <trkpt lat="45.7268" lon="4.55738">
        <ele>612.6</ele>
        <time>2022-06-26T13:18:16Z</time>
      </trkpt>
      <trkpt lat="45.72678" lon="4.55738">
        <ele>612.6</ele>
        <time>2022-06-26T13:18:17Z</time>
      </trkpt>
      <trkpt lat="45.72677" lon="4.55738">
        <ele>612.8</ele>
        <time>2022-06-26T13:18:18Z</time>
      </trkpt>
      <trkpt lat="45.72675" lon="4.55739">
        <ele>612.8</ele>
        <time>2022-06-26T13:18:19Z</time>
      </trkpt>
      <trkpt lat="45.72674" lon="4.55739">
        <ele>613.2</ele>
        <time>2022-06-26T13:18:20Z</time>
      </trkpt>
      <trkpt lat="45.72672" lon="4.5574">
        <ele>613.2</ele>
        <time>2022-06-26T13:18:21Z</time>
      </trkpt>
      <trkpt lat="45.7267" lon="4.55741">
        <ele>613.6</ele>
        <time>2022-06-26T13:18:22Z</time>
      </trkpt>
      <trkpt lat="45.72669" lon="4.55742">
        <ele>613.6</ele>
        <time>2022-06-26T13:18:23Z</time>
      </trkpt>
      <trkpt lat="45.72667" lon="4.55743">
        <ele>614</ele>
        <time>2022-06-26T13:18:24Z</time>
      </trkpt>
      <trkpt lat="45.72666" lon="4.55744">
        <ele>614.2</ele>
        <time>2022-06-26T13:18:25Z</time>
      </trkpt>
      <trkpt lat="45.72664" lon="4.55745">
        <ele>614.4</ele>
        <time>2022-06-26T13:18:26Z</time>
      </trkpt>
      <trkpt lat="45.72663" lon="4.55747">
        <ele>614.4</ele>
        <time>2022-06-26T13:18:27Z</time>
      </trkpt>
      <trkpt lat="45.72662" lon="4.55748">
        <ele>614.8</ele>
        <time>2022-06-26T13:18:28Z</time>
      </trkpt>
      <trkpt lat="45.7266" lon="4.5575">
        <ele>614.8</ele>
        <time>2022-06-26T13:18:29Z</time>
      </trkpt>
      <trkpt lat="45.72659" lon="4.55751">
        <ele>615</ele>
        <time>2022-06-26T13:18:30Z</time>
      </trkpt>
      <trkpt lat="45.72658" lon="4.55753">
        <ele>615</ele>
        <time>2022-06-26T13:18:31Z</time>
      </trkpt>
      <trkpt lat="45.72657" lon="4.55754">
        <ele>615.4</ele>
        <time>2022-06-26T13:18:32Z</time>
      </trkpt>
      <trkpt lat="45.72656" lon="4.55755">
        <ele>615.4</ele>
        <time>2022-06-26T13:18:33Z</time>
      </trkpt>
      <trkpt lat="45.72654" lon="4.55756">
        <ele>615.6</ele>
        <time>2022-06-26T13:18:34Z</time>
      </trkpt>
      <trkpt lat="45.72653" lon="4.55757">
        <ele>615.6</ele>
        <time>2022-06-26T13:18:35Z</time>
      </trkpt>
      <trkpt lat="45.72652" lon="4.55758">
        <ele>616</ele>
        <time>2022-06-26T13:18:36Z</time>
      </trkpt>
      <trkpt lat="45.7265" lon="4.55759">
        <ele>616.2</ele>
        <time>2022-06-26T13:18:37Z</time>
      </trkpt>
      <trkpt lat="45.72649" lon="4.55759">
        <ele>616.2</ele>
        <time>2022-06-26T13:18:38Z</time>
      </trkpt>
      <trkpt lat="45.72647" lon="4.5576">
        <ele>616.4</ele>
        <time>2022-06-26T13:18:39Z</time>
      </trkpt>
      <trkpt lat="45.72646" lon="4.55761">
        <ele>616.4</ele>
        <time>2022-06-26T13:18:40Z</time>
      </trkpt>
      <trkpt lat="45.72645" lon="4.55763">
        <ele>616.8</ele>
        <time>2022-06-26T13:18:41Z</time>
      </trkpt>
      <trkpt lat="45.72644" lon="4.55764">
        <ele>616.8</ele>
        <time>2022-06-26T13:18:42Z</time>
      </trkpt>
      <trkpt lat="45.72643" lon="4.55766">
        <ele>617.2</ele>
        <time>2022-06-26T13:18:43Z</time>
      </trkpt>
      <trkpt lat="45.72641" lon="4.55767">
        <ele>617.2</ele>
        <time>2022-06-26T13:18:44Z</time>
      </trkpt>
      <trkpt lat="45.7264" lon="4.55769">
        <ele>617.4</ele>
        <time>2022-06-26T13:18:45Z</time>
      </trkpt>
      <trkpt lat="45.72639" lon="4.5577">
        <ele>617.6</ele>
        <time>2022-06-26T13:18:46Z</time>
      </trkpt>
      <trkpt lat="45.72638" lon="4.55772">
        <ele>617.6</ele>
        <time>2022-06-26T13:18:47Z</time>
      </trkpt>
      <trkpt lat="45.72637" lon="4.55774">
        <ele>618</ele>
        <time>2022-06-26T13:18:48Z</time>
      </trkpt>
      <trkpt lat="45.72636" lon="4.55775">
        <ele>618</ele>
        <time>2022-06-26T13:18:49Z</time>
      </trkpt>
      <trkpt lat="45.72635" lon="4.55776">
        <ele>618.4</ele>
        <time>2022-06-26T13:18:50Z</time>
      </trkpt>
      <trkpt lat="45.72633" lon="4.55777">
        <ele>618.4</ele>
        <time>2022-06-26T13:18:51Z</time>
      </trkpt>
      <trkpt lat="45.72632" lon="4.55778">
        <ele>618.8</ele>
        <time>2022-06-26T13:18:52Z</time>
      </trkpt>
      <trkpt lat="45.72631" lon="4.55779">
        <ele>618.8</ele>
        <time>2022-06-26T13:18:53Z</time>
      </trkpt>
      <trkpt lat="45.72629" lon="4.5578">
        <ele>619.2</ele>
        <time>2022-06-26T13:18:54Z</time>
      </trkpt>
      <trkpt lat="45.72628" lon="4.55781">
        <ele>619.2</ele>
        <time>2022-06-26T13:18:55Z</time>
      </trkpt>
      <trkpt lat="45.72626" lon="4.55782">
        <ele>619.6</ele>
        <time>2022-06-26T13:18:56Z</time>
      </trkpt>
      <trkpt lat="45.72625" lon="4.55783">
        <ele>619.8</ele>
        <time>2022-06-26T13:18:57Z</time>
      </trkpt>
      <trkpt lat="45.72624" lon="4.55785">
        <ele>620</ele>
        <time>2022-06-26T13:18:58Z</time>
      </trkpt>
      <trkpt lat="45.72623" lon="4.55786">
        <ele>620</ele>
        <time>2022-06-26T13:18:59Z</time>
      </trkpt>
      <trkpt lat="45.72622" lon="4.55787">
        <ele>620.2</ele>
        <time>2022-06-26T13:19:00Z</time>
      </trkpt>
      <trkpt lat="45.72621" lon="4.55789">
        <ele>620.2</ele>
        <time>2022-06-26T13:19:01Z</time>
      </trkpt>
      <trkpt lat="45.7262" lon="4.5579">
        <ele>620.6</ele>
        <time>2022-06-26T13:19:02Z</time>
      </trkpt>
      <trkpt lat="45.72618" lon="4.55791">
        <ele>620.6</ele>
        <time>2022-06-26T13:19:03Z</time>
      </trkpt>
      <trkpt lat="45.72617" lon="4.55792">
        <ele>620.8</ele>
        <time>2022-06-26T13:19:04Z</time>
      </trkpt>
      <trkpt lat="45.72616" lon="4.55793">
        <ele>621</ele>
        <time>2022-06-26T13:19:05Z</time>
      </trkpt>
      <trkpt lat="45.72614" lon="4.55794">
        <ele>621</ele>
        <time>2022-06-26T13:19:06Z</time>
      </trkpt>
      <trkpt lat="45.72613" lon="4.55794">
        <ele>621</ele>
        <time>2022-06-26T13:19:07Z</time>
      </trkpt>
      <trkpt lat="45.72611" lon="4.55794">
        <ele>621.4</ele>
        <time>2022-06-26T13:19:09Z</time>
      </trkpt>
      <trkpt lat="45.7261" lon="4.55794">
        <ele>621.4</ele>
        <time>2022-06-26T13:19:10Z</time>
      </trkpt>
      <trkpt lat="45.72608" lon="4.55793">
        <ele>621.6</ele>
        <time>2022-06-26T13:19:11Z</time>
      </trkpt>
      <trkpt lat="45.72607" lon="4.55792">
        <ele>621.6</ele>
        <time>2022-06-26T13:19:12Z</time>
      </trkpt>
      <trkpt lat="45.72605" lon="4.55791">
        <ele>622</ele>
        <time>2022-06-26T13:19:13Z</time>
      </trkpt>
      <trkpt lat="45.72604" lon="4.55789">
        <ele>622</ele>
        <time>2022-06-26T13:19:14Z</time>
      </trkpt>
      <trkpt lat="45.72603" lon="4.55786">
        <ele>622.2</ele>
        <time>2022-06-26T13:19:15Z</time>
      </trkpt>
      <trkpt lat="45.72602" lon="4.55784">
        <ele>622.2</ele>
        <time>2022-06-26T13:19:16Z</time>
      </trkpt>
      <trkpt lat="45.72602" lon="4.55781">
        <ele>622.4</ele>
        <time>2022-06-26T13:19:17Z</time>
      </trkpt>
      <trkpt lat="45.72603" lon="4.55779">
        <ele>622.4</ele>
        <time>2022-06-26T13:19:18Z</time>
      </trkpt>
      <trkpt lat="45.72603" lon="4.55777">
        <ele>622.8</ele>
        <time>2022-06-26T13:19:19Z</time>
      </trkpt>
      <trkpt lat="45.72603" lon="4.55774">
        <ele>622.8</ele>
        <time>2022-06-26T13:19:20Z</time>
      </trkpt>
      <trkpt lat="45.72603" lon="4.55772">
        <ele>623</ele>
        <time>2022-06-26T13:19:21Z</time>
      </trkpt>
      <trkpt lat="45.72603" lon="4.5577">
        <ele>623</ele>
        <time>2022-06-26T13:19:22Z</time>
      </trkpt>
      <trkpt lat="45.72604" lon="4.55768">
        <ele>623.4</ele>
        <time>2022-06-26T13:19:23Z</time>
      </trkpt>
      <trkpt lat="45.72605" lon="4.55766">
        <ele>623.4</ele>
        <time>2022-06-26T13:19:24Z</time>
      </trkpt>
      <trkpt lat="45.72606" lon="4.55765">
        <ele>623.6</ele>
        <time>2022-06-26T13:19:25Z</time>
      </trkpt>
      <trkpt lat="45.72608" lon="4.55763">
        <ele>623.6</ele>
        <time>2022-06-26T13:19:26Z</time>
      </trkpt>
      <trkpt lat="45.72609" lon="4.55762">
        <ele>624</ele>
        <time>2022-06-26T13:19:27Z</time>
      </trkpt>
      <trkpt lat="45.72611" lon="4.5576">
        <ele>624</ele>
        <time>2022-06-26T13:19:28Z</time>
      </trkpt>
      <trkpt lat="45.72612" lon="4.55758">
        <ele>624.4</ele>
        <time>2022-06-26T13:19:29Z</time>
      </trkpt>
      <trkpt lat="45.72613" lon="4.55757">
        <ele>624.4</ele>
        <time>2022-06-26T13:19:30Z</time>
      </trkpt>
      <trkpt lat="45.72615" lon="4.55755">
        <ele>624.6</ele>
        <time>2022-06-26T13:19:31Z</time>
      </trkpt>
      <trkpt lat="45.72616" lon="4.55754">
        <ele>625</ele>
        <time>2022-06-26T13:19:32Z</time>
      </trkpt>
      <trkpt lat="45.72617" lon="4.55752">
        <ele>625</ele>
        <time>2022-06-26T13:19:33Z</time>
      </trkpt>
      <trkpt lat="45.72619" lon="4.55751">
        <ele>625.2</ele>
        <time>2022-06-26T13:19:34Z</time>
      </trkpt>
      <trkpt lat="45.7262" lon="4.5575">
        <ele>625.2</ele>
        <time>2022-06-26T13:19:35Z</time>
      </trkpt>
      <trkpt lat="45.72622" lon="4.55748">
        <ele>625.6</ele>
        <time>2022-06-26T13:19:36Z</time>
      </trkpt>
      <trkpt lat="45.72623" lon="4.55746">
        <ele>625.6</ele>
        <time>2022-06-26T13:19:37Z</time>
      </trkpt>
      <trkpt lat="45.72624" lon="4.55744">
        <ele>626</ele>
        <time>2022-06-26T13:19:38Z</time>
      </trkpt>
      <trkpt lat="45.72625" lon="4.55742">
        <ele>626</ele>
        <time>2022-06-26T13:19:39Z</time>
      </trkpt>
      <trkpt lat="45.72626" lon="4.5574">
        <ele>626.4</ele>
        <time>2022-06-26T13:19:40Z</time>
      </trkpt>
      <trkpt lat="45.72627" lon="4.55739">
        <ele>626.4</ele>
        <time>2022-06-26T13:19:41Z</time>
      </trkpt>
      <trkpt lat="45.72629" lon="4.55737">
        <ele>626.8</ele>
        <time>2022-06-26T13:19:42Z</time>
      </trkpt>
      <trkpt lat="45.7263" lon="4.55735">
        <ele>626.8</ele>
        <time>2022-06-26T13:19:43Z</time>
      </trkpt>
      <trkpt lat="45.72631" lon="4.55733">
        <ele>627</ele>
        <time>2022-06-26T13:19:44Z</time>
      </trkpt>
      <trkpt lat="45.72632" lon="4.55732">
        <ele>627.2</ele>
        <time>2022-06-26T13:19:45Z</time>
      </trkpt>
      <trkpt lat="45.72633" lon="4.5573">
        <ele>627.2</ele>
        <time>2022-06-26T13:19:46Z</time>
      </trkpt>
      <trkpt lat="45.72634" lon="4.55728">
        <ele>627.8</ele>
        <time>2022-06-26T13:19:47Z</time>
      </trkpt>
      <trkpt lat="45.72635" lon="4.55726">
        <ele>627.8</ele>
        <time>2022-06-26T13:19:48Z</time>
      </trkpt>
      <trkpt lat="45.72636" lon="4.55724">
        <ele>628</ele>
        <time>2022-06-26T13:19:49Z</time>
      </trkpt>
      <trkpt lat="45.72637" lon="4.55723">
        <ele>628</ele>
        <time>2022-06-26T13:19:50Z</time>
      </trkpt>
      <trkpt lat="45.72638" lon="4.55721">
        <ele>628.4</ele>
        <time>2022-06-26T13:19:51Z</time>
      </trkpt>
      <trkpt lat="45.72639" lon="4.55719">
        <ele>628.4</ele>
        <time>2022-06-26T13:19:52Z</time>
      </trkpt>
      <trkpt lat="45.72641" lon="4.55718">
        <ele>628.8</ele>
        <time>2022-06-26T13:19:53Z</time>
      </trkpt>
      <trkpt lat="45.72642" lon="4.55716">
        <ele>628.8</ele>
        <time>2022-06-26T13:19:54Z</time>
      </trkpt>
      <trkpt lat="45.72643" lon="4.55715">
        <ele>629.2</ele>
        <time>2022-06-26T13:19:55Z</time>
      </trkpt>
      <trkpt lat="45.72644" lon="4.55713">
        <ele>629.4</ele>
        <time>2022-06-26T13:19:56Z</time>
      </trkpt>
      <trkpt lat="45.72645" lon="4.55712">
        <ele>629.4</ele>
        <time>2022-06-26T13:19:57Z</time>
      </trkpt>
      <trkpt lat="45.72646" lon="4.55711">
        <ele>629.8</ele>
        <time>2022-06-26T13:19:58Z</time>
      </trkpt>
      <trkpt lat="45.72647" lon="4.55709">
        <ele>630</ele>
        <time>2022-06-26T13:19:59Z</time>
      </trkpt>
      <trkpt lat="45.72648" lon="4.55707">
        <ele>630</ele>
        <time>2022-06-26T13:20:00Z</time>
      </trkpt>
      <trkpt lat="45.72648" lon="4.55705">
        <ele>630.4</ele>
        <time>2022-06-26T13:20:01Z</time>
      </trkpt>
      <trkpt lat="45.72649" lon="4.55703">
        <ele>630.4</ele>
        <time>2022-06-26T13:20:02Z</time>
      </trkpt>
      <trkpt lat="45.7265" lon="4.55701">
        <ele>630.8</ele>
        <time>2022-06-26T13:20:03Z</time>
      </trkpt>
      <trkpt lat="45.72651" lon="4.55698">
        <ele>630.8</ele>
        <time>2022-06-26T13:20:04Z</time>
      </trkpt>
      <trkpt lat="45.72651" lon="4.55696">
        <ele>631.2</ele>
        <time>2022-06-26T13:20:05Z</time>
      </trkpt>
      <trkpt lat="45.72652" lon="4.55694">
        <ele>631.2</ele>
        <time>2022-06-26T13:20:06Z</time>
      </trkpt>
      <trkpt lat="45.72653" lon="4.55692">
        <ele>631.4</ele>
        <time>2022-06-26T13:20:07Z</time>
      </trkpt>
      <trkpt lat="45.72654" lon="4.5569">
        <ele>631.4</ele>
        <time>2022-06-26T13:20:08Z</time>
      </trkpt>
      <trkpt lat="45.72655" lon="4.55688">
        <ele>631.8</ele>
        <time>2022-06-26T13:20:09Z</time>
      </trkpt>
      <trkpt lat="45.72656" lon="4.55686">
        <ele>632</ele>
        <time>2022-06-26T13:20:10Z</time>
      </trkpt>
      <trkpt lat="45.72657" lon="4.55683">
        <ele>632</ele>
        <time>2022-06-26T13:20:11Z</time>
      </trkpt>
      <trkpt lat="45.72658" lon="4.55681">
        <ele>632.4</ele>
        <time>2022-06-26T13:20:12Z</time>
      </trkpt>
      <trkpt lat="45.72658" lon="4.55679">
        <ele>632.4</ele>
        <time>2022-06-26T13:20:13Z</time>
      </trkpt>
      <trkpt lat="45.72659" lon="4.55677">
        <ele>632.6</ele>
        <time>2022-06-26T13:20:14Z</time>
      </trkpt>
      <trkpt lat="45.7266" lon="4.55675">
        <ele>632.6</ele>
        <time>2022-06-26T13:20:15Z</time>
      </trkpt>
      <trkpt lat="45.72661" lon="4.55673">
        <ele>633</ele>
        <time>2022-06-26T13:20:16Z</time>
      </trkpt>
      <trkpt lat="45.72662" lon="4.55671">
        <ele>633</ele>
        <time>2022-06-26T13:20:17Z</time>
      </trkpt>
      <trkpt lat="45.72663" lon="4.55669">
        <ele>633.2</ele>
        <time>2022-06-26T13:20:18Z</time>
      </trkpt>
      <trkpt lat="45.72664" lon="4.55666">
        <ele>633.6</ele>
        <time>2022-06-26T13:20:19Z</time>
      </trkpt>
      <trkpt lat="45.72665" lon="4.55665">
        <ele>633.6</ele>
        <time>2022-06-26T13:20:20Z</time>
      </trkpt>
      <trkpt lat="45.72666" lon="4.55663">
        <ele>633.8</ele>
        <time>2022-06-26T13:20:21Z</time>
      </trkpt>
      <trkpt lat="45.72668" lon="4.55661">
        <ele>633.8</ele>
        <time>2022-06-26T13:20:22Z</time>
      </trkpt>
      <trkpt lat="45.72669" lon="4.55658">
        <ele>634.2</ele>
        <time>2022-06-26T13:20:23Z</time>
      </trkpt>
      <trkpt lat="45.7267" lon="4.55656">
        <ele>634.2</ele>
        <time>2022-06-26T13:20:24Z</time>
      </trkpt>
      <trkpt lat="45.72671" lon="4.55654">
        <ele>634.6</ele>
        <time>2022-06-26T13:20:25Z</time>
      </trkpt>
      <trkpt lat="45.72672" lon="4.55653">
        <ele>634.6</ele>
        <time>2022-06-26T13:20:26Z</time>
      </trkpt>
      <trkpt lat="45.72673" lon="4.55651">
        <ele>634.8</ele>
        <time>2022-06-26T13:20:27Z</time>
      </trkpt>
      <trkpt lat="45.72673" lon="4.55649">
        <ele>635</ele>
        <time>2022-06-26T13:20:28Z</time>
      </trkpt>
      <trkpt lat="45.72674" lon="4.55646">
        <ele>635.2</ele>
        <time>2022-06-26T13:20:29Z</time>
      </trkpt>
      <trkpt lat="45.72675" lon="4.55644">
        <ele>635.2</ele>
        <time>2022-06-26T13:20:30Z</time>
      </trkpt>
      <trkpt lat="45.72675" lon="4.55642">
        <ele>635.6</ele>
        <time>2022-06-26T13:20:31Z</time>
      </trkpt>
      <trkpt lat="45.72676" lon="4.55639">
        <ele>635.6</ele>
        <time>2022-06-26T13:20:32Z</time>
      </trkpt>
      <trkpt lat="45.72677" lon="4.55637">
        <ele>635.8</ele>
        <time>2022-06-26T13:20:33Z</time>
      </trkpt>
      <trkpt lat="45.72678" lon="4.55635">
        <ele>636.2</ele>
        <time>2022-06-26T13:20:34Z</time>
      </trkpt>
      <trkpt lat="45.72679" lon="4.55633">
        <ele>636.2</ele>
        <time>2022-06-26T13:20:35Z</time>
      </trkpt>
      <trkpt lat="45.7268" lon="4.55632">
        <ele>636.4</ele>
        <time>2022-06-26T13:20:36Z</time>
      </trkpt>
      <trkpt lat="45.72681" lon="4.5563">
        <ele>636.4</ele>
        <time>2022-06-26T13:20:37Z</time>
      </trkpt>
      <trkpt lat="45.72682" lon="4.55628">
        <ele>636.8</ele>
        <time>2022-06-26T13:20:38Z</time>
      </trkpt>
      <trkpt lat="45.72683" lon="4.55626">
        <ele>637.2</ele>
        <time>2022-06-26T13:20:39Z</time>
      </trkpt>
      <trkpt lat="45.72683" lon="4.55624">
        <ele>637.4</ele>
        <time>2022-06-26T13:20:40Z</time>
      </trkpt>
      <trkpt lat="45.72684" lon="4.55622">
        <ele>637.6</ele>
        <time>2022-06-26T13:20:41Z</time>
      </trkpt>
      <trkpt lat="45.72685" lon="4.55621">
        <ele>637.6</ele>
        <time>2022-06-26T13:20:42Z</time>
      </trkpt>
      <trkpt lat="45.72686" lon="4.55619">
        <ele>638</ele>
        <time>2022-06-26T13:20:43Z</time>
      </trkpt>
      <trkpt lat="45.72687" lon="4.55617">
        <ele>638</ele>
        <time>2022-06-26T13:20:44Z</time>
      </trkpt>
      <trkpt lat="45.72688" lon="4.55615">
        <ele>638.4</ele>
        <time>2022-06-26T13:20:45Z</time>
      </trkpt>
      <trkpt lat="45.72689" lon="4.55613">
        <ele>638.6</ele>
        <time>2022-06-26T13:20:46Z</time>
      </trkpt>
      <trkpt lat="45.72689" lon="4.55611">
        <ele>638.8</ele>
        <time>2022-06-26T13:20:47Z</time>
      </trkpt>
      <trkpt lat="45.7269" lon="4.55609">
        <ele>638.8</ele>
        <time>2022-06-26T13:20:48Z</time>
      </trkpt>
      <trkpt lat="45.72691" lon="4.55607">
        <ele>639.2</ele>
        <time>2022-06-26T13:20:49Z</time>
      </trkpt>
      <trkpt lat="45.72692" lon="4.55606">
        <ele>639.4</ele>
        <time>2022-06-26T13:20:50Z</time>
      </trkpt>
      <trkpt lat="45.72694" lon="4.55604">
        <ele>639.6</ele>
        <time>2022-06-26T13:20:51Z</time>
      </trkpt>
      <trkpt lat="45.72694" lon="4.55602">
        <ele>639.6</ele>
        <time>2022-06-26T13:20:52Z</time>
      </trkpt>
      <trkpt lat="45.72695" lon="4.556">
        <ele>640</ele>
        <time>2022-06-26T13:20:53Z</time>
      </trkpt>
      <trkpt lat="45.72696" lon="4.55598">
        <ele>640</ele>
        <time>2022-06-26T13:20:54Z</time>
      </trkpt>
      <trkpt lat="45.72697" lon="4.55596">
        <ele>640.4</ele>
        <time>2022-06-26T13:20:55Z</time>
      </trkpt>
      <trkpt lat="45.72697" lon="4.55594">
        <ele>640.4</ele>
        <time>2022-06-26T13:20:56Z</time>
      </trkpt>
      <trkpt lat="45.72698" lon="4.55592">
        <ele>640.6</ele>
        <time>2022-06-26T13:20:57Z</time>
      </trkpt>
      <trkpt lat="45.72699" lon="4.5559">
        <ele>640.6</ele>
        <time>2022-06-26T13:20:58Z</time>
      </trkpt>
      <trkpt lat="45.727" lon="4.55587">
        <ele>641</ele>
        <time>2022-06-26T13:20:59Z</time>
      </trkpt>
      <trkpt lat="45.72701" lon="4.55586">
        <ele>641</ele>
        <time>2022-06-26T13:21:00Z</time>
      </trkpt>
      <trkpt lat="45.72702" lon="4.55584">
        <ele>641.4</ele>
        <time>2022-06-26T13:21:01Z</time>
      </trkpt>
      <trkpt lat="45.72703" lon="4.55581">
        <ele>641.6</ele>
        <time>2022-06-26T13:21:02Z</time>
      </trkpt>
      <trkpt lat="45.72704" lon="4.55579">
        <ele>641.6</ele>
        <time>2022-06-26T13:21:03Z</time>
      </trkpt>
      <trkpt lat="45.72705" lon="4.55577">
        <ele>641.8</ele>
        <time>2022-06-26T13:21:04Z</time>
      </trkpt>
      <trkpt lat="45.72705" lon="4.55574">
        <ele>641.8</ele>
        <time>2022-06-26T13:21:05Z</time>
      </trkpt>
      <trkpt lat="45.72706" lon="4.55572">
        <ele>642.2</ele>
        <time>2022-06-26T13:21:06Z</time>
      </trkpt>
      <trkpt lat="45.72706" lon="4.5557">
        <ele>642.4</ele>
        <time>2022-06-26T13:21:07Z</time>
      </trkpt>
      <trkpt lat="45.72707" lon="4.55568">
        <ele>642.4</ele>
        <time>2022-06-26T13:21:08Z</time>
      </trkpt>
      <trkpt lat="45.72708" lon="4.55566">
        <ele>642.8</ele>
        <time>2022-06-26T13:21:09Z</time>
      </trkpt>
      <trkpt lat="45.72709" lon="4.55564">
        <ele>642.8</ele>
        <time>2022-06-26T13:21:10Z</time>
      </trkpt>
      <trkpt lat="45.72709" lon="4.55562">
        <ele>643</ele>
        <time>2022-06-26T13:21:11Z</time>
      </trkpt>
      <trkpt lat="45.7271" lon="4.55559">
        <ele>643</ele>
        <time>2022-06-26T13:21:12Z</time>
      </trkpt>
      <trkpt lat="45.72711" lon="4.55557">
        <ele>643.4</ele>
        <time>2022-06-26T13:21:13Z</time>
      </trkpt>
      <trkpt lat="45.72711" lon="4.55555">
        <ele>643.6</ele>
        <time>2022-06-26T13:21:14Z</time>
      </trkpt>
      <trkpt lat="45.72712" lon="4.55553">
        <ele>643.6</ele>
        <time>2022-06-26T13:21:15Z</time>
      </trkpt>
      <trkpt lat="45.72713" lon="4.55551">
        <ele>644</ele>
        <time>2022-06-26T13:21:16Z</time>
      </trkpt>
      <trkpt lat="45.72713" lon="4.55549">
        <ele>644</ele>
        <time>2022-06-26T13:21:17Z</time>
      </trkpt>
      <trkpt lat="45.72714" lon="4.55547">
        <ele>644.2</ele>
        <time>2022-06-26T13:21:18Z</time>
      </trkpt>
      <trkpt lat="45.72714" lon="4.55544">
        <ele>644.6</ele>
        <time>2022-06-26T13:21:19Z</time>
      </trkpt>
      <trkpt lat="45.72714" lon="4.55542">
        <ele>644.6</ele>
        <time>2022-06-26T13:21:20Z</time>
      </trkpt>
      <trkpt lat="45.72714" lon="4.5554">
        <ele>644.8</ele>
        <time>2022-06-26T13:21:21Z</time>
      </trkpt>
      <trkpt lat="45.72714" lon="4.55537">
        <ele>644.8</ele>
        <time>2022-06-26T13:21:22Z</time>
      </trkpt>
      <trkpt lat="45.72714" lon="4.55535">
        <ele>645.2</ele>
        <time>2022-06-26T13:21:23Z</time>
      </trkpt>
      <trkpt lat="45.72714" lon="4.55533">
        <ele>645.2</ele>
        <time>2022-06-26T13:21:24Z</time>
      </trkpt>
      <trkpt lat="45.72713" lon="4.5553">
        <ele>645.4</ele>
        <time>2022-06-26T13:21:25Z</time>
      </trkpt>
      <trkpt lat="45.72712" lon="4.55528">
        <ele>645.6</ele>
        <time>2022-06-26T13:21:26Z</time>
      </trkpt>
      <trkpt lat="45.72712" lon="4.55525">
        <ele>645.6</ele>
        <time>2022-06-26T13:21:27Z</time>
      </trkpt>
      <trkpt lat="45.72711" lon="4.55523">
        <ele>646</ele>
        <time>2022-06-26T13:21:28Z</time>
      </trkpt>
      <trkpt lat="45.7271" lon="4.55521">
        <ele>646.2</ele>
        <time>2022-06-26T13:21:29Z</time>
      </trkpt>
      <trkpt lat="45.72708" lon="4.55519">
        <ele>646.6</ele>
        <time>2022-06-26T13:21:30Z</time>
      </trkpt>
      <trkpt lat="45.72707" lon="4.55517">
        <ele>646.8</ele>
        <time>2022-06-26T13:21:31Z</time>
      </trkpt>
      <trkpt lat="45.72705" lon="4.55517">
        <ele>647</ele>
        <time>2022-06-26T13:21:32Z</time>
      </trkpt>
      <trkpt lat="45.72704" lon="4.55517">
        <ele>647.4</ele>
        <time>2022-06-26T13:21:33Z</time>
      </trkpt>
      <trkpt lat="45.72702" lon="4.55517">
        <ele>647.6</ele>
        <time>2022-06-26T13:21:34Z</time>
      </trkpt>
      <trkpt lat="45.72701" lon="4.55517">
        <ele>647.8</ele>
        <time>2022-06-26T13:21:35Z</time>
      </trkpt>
      <trkpt lat="45.72699" lon="4.55517">
        <ele>648</ele>
        <time>2022-06-26T13:21:36Z</time>
      </trkpt>
      <trkpt lat="45.72697" lon="4.55518">
        <ele>648.4</ele>
        <time>2022-06-26T13:21:37Z</time>
      </trkpt>
      <trkpt lat="45.72696" lon="4.55518">
        <ele>648.6</ele>
        <time>2022-06-26T13:21:38Z</time>
      </trkpt>
      <trkpt lat="45.72694" lon="4.55518">
        <ele>648.8</ele>
        <time>2022-06-26T13:21:39Z</time>
      </trkpt>
      <trkpt lat="45.72692" lon="4.55519">
        <ele>649.2</ele>
        <time>2022-06-26T13:21:40Z</time>
      </trkpt>
      <trkpt lat="45.7269" lon="4.5552">
        <ele>649.4</ele>
        <time>2022-06-26T13:21:41Z</time>
      </trkpt>
      <trkpt lat="45.72689" lon="4.55521">
        <ele>649.8</ele>
        <time>2022-06-26T13:21:42Z</time>
      </trkpt>
      <trkpt lat="45.72687" lon="4.55523">
        <ele>649.8</ele>
        <time>2022-06-26T13:21:43Z</time>
      </trkpt>
      <trkpt lat="45.72686" lon="4.55524">
        <ele>650</ele>
        <time>2022-06-26T13:21:44Z</time>
      </trkpt>
      <trkpt lat="45.72685" lon="4.55526">
        <ele>650.4</ele>
        <time>2022-06-26T13:21:45Z</time>
      </trkpt>
      <trkpt lat="45.72683" lon="4.55528">
        <ele>650.6</ele>
        <time>2022-06-26T13:21:46Z</time>
      </trkpt>
      <trkpt lat="45.72682" lon="4.55529">
        <ele>650.8</ele>
        <time>2022-06-26T13:21:47Z</time>
      </trkpt>
      <trkpt lat="45.72681" lon="4.55531">
        <ele>651.2</ele>
        <time>2022-06-26T13:21:48Z</time>
      </trkpt>
      <trkpt lat="45.7268" lon="4.55532">
        <ele>651.4</ele>
        <time>2022-06-26T13:21:49Z</time>
      </trkpt>
      <trkpt lat="45.72678" lon="4.55534">
        <ele>651.6</ele>
        <time>2022-06-26T13:21:50Z</time>
      </trkpt>
      <trkpt lat="45.72677" lon="4.55535">
        <ele>651.8</ele>
        <time>2022-06-26T13:21:51Z</time>
      </trkpt>
      <trkpt lat="45.72676" lon="4.55537">
        <ele>652.2</ele>
        <time>2022-06-26T13:21:52Z</time>
      </trkpt>
      <trkpt lat="45.72675" lon="4.55538">
        <ele>652.4</ele>
        <time>2022-06-26T13:21:53Z</time>
      </trkpt>
      <trkpt lat="45.72674" lon="4.5554">
        <ele>652.6</ele>
        <time>2022-06-26T13:21:54Z</time>
      </trkpt>
      <trkpt lat="45.72672" lon="4.55541">
        <ele>652.8</ele>
        <time>2022-06-26T13:21:55Z</time>
      </trkpt>
      <trkpt lat="45.72671" lon="4.55543">
        <ele>653.2</ele>
        <time>2022-06-26T13:21:56Z</time>
      </trkpt>
      <trkpt lat="45.7267" lon="4.55544">
        <ele>653.4</ele>
        <time>2022-06-26T13:21:57Z</time>
      </trkpt>
      <trkpt lat="45.72669" lon="4.55546">
        <ele>653.6</ele>
        <time>2022-06-26T13:21:58Z</time>
      </trkpt>
      <trkpt lat="45.72668" lon="4.55548">
        <ele>653.8</ele>
        <time>2022-06-26T13:21:59Z</time>
      </trkpt>
      <trkpt lat="45.72667" lon="4.5555">
        <ele>654.2</ele>
        <time>2022-06-26T13:22:00Z</time>
      </trkpt>
      <trkpt lat="45.72666" lon="4.55552">
        <ele>654.4</ele>
        <time>2022-06-26T13:22:01Z</time>
      </trkpt>
      <trkpt lat="45.72665" lon="4.55553">
        <ele>654.6</ele>
        <time>2022-06-26T13:22:02Z</time>
      </trkpt>
      <trkpt lat="45.72663" lon="4.55555">
        <ele>655</ele>
        <time>2022-06-26T13:22:03Z</time>
      </trkpt>
      <trkpt lat="45.72662" lon="4.55557">
        <ele>655.2</ele>
        <time>2022-06-26T13:22:04Z</time>
      </trkpt>
      <trkpt lat="45.72661" lon="4.55558">
        <ele>655.4</ele>
        <time>2022-06-26T13:22:05Z</time>
      </trkpt>
      <trkpt lat="45.7266" lon="4.55559">
        <ele>655.8</ele>
        <time>2022-06-26T13:22:06Z</time>
      </trkpt>
      <trkpt lat="45.72658" lon="4.5556">
        <ele>656</ele>
        <time>2022-06-26T13:22:07Z</time>
      </trkpt>
      <trkpt lat="45.72657" lon="4.55561">
        <ele>656</ele>
        <time>2022-06-26T13:22:08Z</time>
      </trkpt>
      <trkpt lat="45.72656" lon="4.55562">
        <ele>656.4</ele>
        <time>2022-06-26T13:22:09Z</time>
      </trkpt>
      <trkpt lat="45.72654" lon="4.55564">
        <ele>656.6</ele>
        <time>2022-06-26T13:22:10Z</time>
      </trkpt>
      <trkpt lat="45.72653" lon="4.55565">
        <ele>656.6</ele>
        <time>2022-06-26T13:22:11Z</time>
      </trkpt>
      <trkpt lat="45.72652" lon="4.55567">
        <ele>657</ele>
        <time>2022-06-26T13:22:12Z</time>
      </trkpt>
      <trkpt lat="45.72651" lon="4.55569">
        <ele>657.2</ele>
        <time>2022-06-26T13:22:13Z</time>
      </trkpt>
      <trkpt lat="45.72649" lon="4.5557">
        <ele>657.2</ele>
        <time>2022-06-26T13:22:14Z</time>
      </trkpt>
      <trkpt lat="45.72648" lon="4.55572">
        <ele>657.6</ele>
        <time>2022-06-26T13:22:15Z</time>
      </trkpt>
      <trkpt lat="45.72647" lon="4.55573">
        <ele>657.6</ele>
        <time>2022-06-26T13:22:16Z</time>
      </trkpt>
      <trkpt lat="45.72646" lon="4.55575">
        <ele>658</ele>
        <time>2022-06-26T13:22:17Z</time>
      </trkpt>
      <trkpt lat="45.72645" lon="4.55576">
        <ele>658.2</ele>
        <time>2022-06-26T13:22:18Z</time>
      </trkpt>
      <trkpt lat="45.72643" lon="4.55578">
        <ele>658.2</ele>
        <time>2022-06-26T13:22:19Z</time>
      </trkpt>
      <trkpt lat="45.72642" lon="4.5558">
        <ele>658.6</ele>
        <time>2022-06-26T13:22:20Z</time>
      </trkpt>
      <trkpt lat="45.72641" lon="4.55581">
        <ele>658.8</ele>
        <time>2022-06-26T13:22:21Z</time>
      </trkpt>
      <trkpt lat="45.7264" lon="4.55583">
        <ele>659</ele>
        <time>2022-06-26T13:22:22Z</time>
      </trkpt>
      <trkpt lat="45.72639" lon="4.55585">
        <ele>659</ele>
        <time>2022-06-26T13:22:23Z</time>
      </trkpt>
      <trkpt lat="45.72637" lon="4.55586">
        <ele>659.4</ele>
        <time>2022-06-26T13:22:24Z</time>
      </trkpt>
      <trkpt lat="45.72636" lon="4.55587">
        <ele>659.6</ele>
        <time>2022-06-26T13:22:25Z</time>
      </trkpt>
      <trkpt lat="45.72634" lon="4.55588">
        <ele>659.8</ele>
        <time>2022-06-26T13:22:26Z</time>
      </trkpt>
      <trkpt lat="45.72633" lon="4.5559">
        <ele>660.2</ele>
        <time>2022-06-26T13:22:27Z</time>
      </trkpt>
      <trkpt lat="45.72632" lon="4.55591">
        <ele>660.4</ele>
        <time>2022-06-26T13:22:28Z</time>
      </trkpt>
      <trkpt lat="45.7263" lon="4.55593">
        <ele>660.4</ele>
        <time>2022-06-26T13:22:29Z</time>
      </trkpt>
      <trkpt lat="45.72629" lon="4.55595">
        <ele>660.6</ele>
        <time>2022-06-26T13:22:30Z</time>
      </trkpt>
      <trkpt lat="45.72628" lon="4.55596">
        <ele>660.6</ele>
        <time>2022-06-26T13:22:31Z</time>
      </trkpt>
      <trkpt lat="45.72627" lon="4.55598">
        <ele>661</ele>
        <time>2022-06-26T13:22:32Z</time>
      </trkpt>
      <trkpt lat="45.72626" lon="4.556">
        <ele>661.2</ele>
        <time>2022-06-26T13:22:33Z</time>
      </trkpt>
      <trkpt lat="45.72625" lon="4.55602">
        <ele>661.6</ele>
        <time>2022-06-26T13:22:34Z</time>
      </trkpt>
      <trkpt lat="45.72624" lon="4.55603">
        <ele>661.8</ele>
        <time>2022-06-26T13:22:35Z</time>
      </trkpt>
      <trkpt lat="45.72623" lon="4.55605">
        <ele>662</ele>
        <time>2022-06-26T13:22:36Z</time>
      </trkpt>
      <trkpt lat="45.72621" lon="4.55606">
        <ele>662.2</ele>
        <time>2022-06-26T13:22:37Z</time>
      </trkpt>
      <trkpt lat="45.7262" lon="4.55607">
        <ele>662.2</ele>
        <time>2022-06-26T13:22:38Z</time>
      </trkpt>
      <trkpt lat="45.72618" lon="4.55608">
        <ele>662.6</ele>
        <time>2022-06-26T13:22:39Z</time>
      </trkpt>
      <trkpt lat="45.72617" lon="4.5561">
        <ele>662.8</ele>
        <time>2022-06-26T13:22:40Z</time>
      </trkpt>
      <trkpt lat="45.72615" lon="4.55611">
        <ele>663</ele>
        <time>2022-06-26T13:22:41Z</time>
      </trkpt>
      <trkpt lat="45.72614" lon="4.55612">
        <ele>663</ele>
        <time>2022-06-26T13:22:42Z</time>
      </trkpt>
      <trkpt lat="45.72613" lon="4.55614">
        <ele>663.4</ele>
        <time>2022-06-26T13:22:43Z</time>
      </trkpt>
      <trkpt lat="45.72611" lon="4.55616">
        <ele>663.4</ele>
        <time>2022-06-26T13:22:44Z</time>
      </trkpt>
      <trkpt lat="45.7261" lon="4.55617">
        <ele>663.8</ele>
        <time>2022-06-26T13:22:45Z</time>
      </trkpt>
      <trkpt lat="45.72609" lon="4.55619">
        <ele>663.8</ele>
        <time>2022-06-26T13:22:46Z</time>
      </trkpt>
      <trkpt lat="45.72608" lon="4.5562">
        <ele>664</ele>
        <time>2022-06-26T13:22:47Z</time>
      </trkpt>
      <trkpt lat="45.72607" lon="4.55621">
        <ele>664.2</ele>
        <time>2022-06-26T13:22:48Z</time>
      </trkpt>
      <trkpt lat="45.72606" lon="4.55622">
        <ele>664.2</ele>
        <time>2022-06-26T13:22:49Z</time>
      </trkpt>
      <trkpt lat="45.72604" lon="4.55623">
        <ele>664.8</ele>
        <time>2022-06-26T13:22:50Z</time>
      </trkpt>
      <trkpt lat="45.72603" lon="4.55624">
        <ele>665</ele>
        <time>2022-06-26T13:22:51Z</time>
      </trkpt>
      <trkpt lat="45.72602" lon="4.55626">
        <ele>665.2</ele>
        <time>2022-06-26T13:22:52Z</time>
      </trkpt>
      <trkpt lat="45.726" lon="4.55627">
        <ele>665.2</ele>
        <time>2022-06-26T13:22:53Z</time>
      </trkpt>
      <trkpt lat="45.72599" lon="4.55628">
        <ele>665.6</ele>
        <time>2022-06-26T13:22:54Z</time>
      </trkpt>
      <trkpt lat="45.72598" lon="4.55629">
        <ele>665.6</ele>
        <time>2022-06-26T13:22:55Z</time>
      </trkpt>
      <trkpt lat="45.72597" lon="4.5563">
        <ele>666</ele>
        <time>2022-06-26T13:22:56Z</time>
      </trkpt>
      <trkpt lat="45.72596" lon="4.55632">
        <ele>666.2</ele>
        <time>2022-06-26T13:22:57Z</time>
      </trkpt>
      <trkpt lat="45.72595" lon="4.55633">
        <ele>666.4</ele>
        <time>2022-06-26T13:22:58Z</time>
      </trkpt>
      <trkpt lat="45.72593" lon="4.55634">
        <ele>666.6</ele>
        <time>2022-06-26T13:22:59Z</time>
      </trkpt>
      <trkpt lat="45.72592" lon="4.55634">
        <ele>666.6</ele>
        <time>2022-06-26T13:23:00Z</time>
      </trkpt>
      <trkpt lat="45.7259" lon="4.55635">
        <ele>667</ele>
        <time>2022-06-26T13:23:01Z</time>
      </trkpt>
      <trkpt lat="45.72589" lon="4.55637">
        <ele>667</ele>
        <time>2022-06-26T13:23:02Z</time>
      </trkpt>
      <trkpt lat="45.72588" lon="4.55638">
        <ele>667.2</ele>
        <time>2022-06-26T13:23:03Z</time>
      </trkpt>
      <trkpt lat="45.72586" lon="4.55638">
        <ele>667.6</ele>
        <time>2022-06-26T13:23:04Z</time>
      </trkpt>
      <trkpt lat="45.72585" lon="4.55639">
        <ele>667.8</ele>
        <time>2022-06-26T13:23:05Z</time>
      </trkpt>
      <trkpt lat="45.72583" lon="4.5564">
        <ele>667.8</ele>
        <time>2022-06-26T13:23:06Z</time>
      </trkpt>
      <trkpt lat="45.72582" lon="4.55641">
        <ele>668</ele>
        <time>2022-06-26T13:23:07Z</time>
      </trkpt>
      <trkpt lat="45.7258" lon="4.55642">
        <ele>668</ele>
        <time>2022-06-26T13:23:08Z</time>
      </trkpt>
      <trkpt lat="45.72579" lon="4.55643">
        <ele>668.4</ele>
        <time>2022-06-26T13:23:09Z</time>
      </trkpt>
      <trkpt lat="45.72577" lon="4.55644">
        <ele>668.4</ele>
        <time>2022-06-26T13:23:10Z</time>
      </trkpt>
      <trkpt lat="45.72576" lon="4.55645">
        <ele>668.8</ele>
        <time>2022-06-26T13:23:11Z</time>
      </trkpt>
      <trkpt lat="45.72574" lon="4.55646">
        <ele>668.8</ele>
        <time>2022-06-26T13:23:12Z</time>
      </trkpt>
      <trkpt lat="45.72573" lon="4.55647">
        <ele>669</ele>
        <time>2022-06-26T13:23:13Z</time>
      </trkpt>
      <trkpt lat="45.72571" lon="4.55648">
        <ele>669</ele>
        <time>2022-06-26T13:23:14Z</time>
      </trkpt>
      <trkpt lat="45.7257" lon="4.55649">
        <ele>669.4</ele>
        <time>2022-06-26T13:23:15Z</time>
      </trkpt>
      <trkpt lat="45.72568" lon="4.5565">
        <ele>669.4</ele>
        <time>2022-06-26T13:23:16Z</time>
      </trkpt>
      <trkpt lat="45.72567" lon="4.5565">
        <ele>669.6</ele>
        <time>2022-06-26T13:23:17Z</time>
      </trkpt>
      <trkpt lat="45.72565" lon="4.55651">
        <ele>669.6</ele>
        <time>2022-06-26T13:23:18Z</time>
      </trkpt>
      <trkpt lat="45.72564" lon="4.55652">
        <ele>670</ele>
        <time>2022-06-26T13:23:19Z</time>
      </trkpt>
      <trkpt lat="45.72562" lon="4.55653">
        <ele>670</ele>
        <time>2022-06-26T13:23:20Z</time>
      </trkpt>
      <trkpt lat="45.72561" lon="4.55654">
        <ele>670.2</ele>
        <time>2022-06-26T13:23:21Z</time>
      </trkpt>
      <trkpt lat="45.72559" lon="4.55654">
        <ele>670.2</ele>
        <time>2022-06-26T13:23:22Z</time>
      </trkpt>
      <trkpt lat="45.72558" lon="4.55655">
        <ele>670.6</ele>
        <time>2022-06-26T13:23:23Z</time>
      </trkpt>
      <trkpt lat="45.72556" lon="4.55655">
        <ele>670.6</ele>
        <time>2022-06-26T13:23:24Z</time>
      </trkpt>
      <trkpt lat="45.72555" lon="4.55655">
        <ele>670.8</ele>
        <time>2022-06-26T13:23:25Z</time>
      </trkpt>
      <trkpt lat="45.72553" lon="4.55656">
        <ele>670.8</ele>
        <time>2022-06-26T13:23:26Z</time>
      </trkpt>
      <trkpt lat="45.72552" lon="4.55657">
        <ele>671.2</ele>
        <time>2022-06-26T13:23:27Z</time>
      </trkpt>
      <trkpt lat="45.7255" lon="4.55658">
        <ele>671.6</ele>
        <time>2022-06-26T13:23:28Z</time>
      </trkpt>
      <trkpt lat="45.72549" lon="4.55658">
        <ele>671.8</ele>
        <time>2022-06-26T13:23:29Z</time>
      </trkpt>
      <trkpt lat="45.72548" lon="4.55659">
        <ele>672</ele>
        <time>2022-06-26T13:23:30Z</time>
      </trkpt>
      <trkpt lat="45.72546" lon="4.55659">
        <ele>672.2</ele>
        <time>2022-06-26T13:23:31Z</time>
      </trkpt>
      <trkpt lat="45.72545" lon="4.55659">
        <ele>672.2</ele>
        <time>2022-06-26T13:23:32Z</time>
      </trkpt>
      <trkpt lat="45.72544" lon="4.55659">
        <ele>672.6</ele>
        <time>2022-06-26T13:23:33Z</time>
      </trkpt>
      <trkpt lat="45.72543" lon="4.55659">
        <ele>672.6</ele>
        <time>2022-06-26T13:23:34Z</time>
      </trkpt>
      <trkpt lat="45.72541" lon="4.55659">
        <ele>673</ele>
        <time>2022-06-26T13:23:35Z</time>
      </trkpt>
      <trkpt lat="45.7254" lon="4.55659">
        <ele>673</ele>
        <time>2022-06-26T13:23:36Z</time>
      </trkpt>
      <trkpt lat="45.72539" lon="4.55659">
        <ele>673.4</ele>
        <time>2022-06-26T13:23:37Z</time>
      </trkpt>
      <trkpt lat="45.72538" lon="4.5566">
        <ele>673.4</ele>
        <time>2022-06-26T13:23:38Z</time>
      </trkpt>
      <trkpt lat="45.72536" lon="4.5566">
        <ele>673.8</ele>
        <time>2022-06-26T13:23:39Z</time>
      </trkpt>
      <trkpt lat="45.72535" lon="4.5566">
        <ele>674</ele>
        <time>2022-06-26T13:23:40Z</time>
      </trkpt>
      <trkpt lat="45.72533" lon="4.5566">
        <ele>674.2</ele>
        <time>2022-06-26T13:23:41Z</time>
      </trkpt>
      <trkpt lat="45.72532" lon="4.55661">
        <ele>674.4</ele>
        <time>2022-06-26T13:23:42Z</time>
      </trkpt>
      <trkpt lat="45.7253" lon="4.55661">
        <ele>674.8</ele>
        <time>2022-06-26T13:23:43Z</time>
      </trkpt>
      <trkpt lat="45.72529" lon="4.55662">
        <ele>675</ele>
        <time>2022-06-26T13:23:44Z</time>
      </trkpt>
      <trkpt lat="45.72526" lon="4.55662">
        <ele>675.2</ele>
        <time>2022-06-26T13:23:45Z</time>
      </trkpt>
      <trkpt lat="45.72524" lon="4.55662">
        <ele>675.4</ele>
        <time>2022-06-26T13:23:46Z</time>
      </trkpt>
      <trkpt lat="45.72522" lon="4.55662">
        <ele>675.8</ele>
        <time>2022-06-26T13:23:47Z</time>
      </trkpt>
      <trkpt lat="45.7252" lon="4.55663">
        <ele>676</ele>
        <time>2022-06-26T13:23:48Z</time>
      </trkpt>
      <trkpt lat="45.72518" lon="4.55663">
        <ele>676.2</ele>
        <time>2022-06-26T13:23:49Z</time>
      </trkpt>
      <trkpt lat="45.72517" lon="4.55663">
        <ele>676.2</ele>
        <time>2022-06-26T13:23:50Z</time>
      </trkpt>
      <trkpt lat="45.72515" lon="4.55663">
        <ele>676.6</ele>
        <time>2022-06-26T13:23:51Z</time>
      </trkpt>
      <trkpt lat="45.72514" lon="4.55664">
        <ele>676.8</ele>
        <time>2022-06-26T13:23:52Z</time>
      </trkpt>
      <trkpt lat="45.72512" lon="4.55664">
        <ele>676.8</ele>
        <time>2022-06-26T13:23:53Z</time>
      </trkpt>
      <trkpt lat="45.72511" lon="4.55664">
        <ele>677</ele>
        <time>2022-06-26T13:23:54Z</time>
      </trkpt>
      <trkpt lat="45.7251" lon="4.55664">
        <ele>677.2</ele>
        <time>2022-06-26T13:23:55Z</time>
      </trkpt>
      <trkpt lat="45.72509" lon="4.55664">
        <ele>677.6</ele>
        <time>2022-06-26T13:23:56Z</time>
      </trkpt>
      <trkpt lat="45.72504" lon="4.55664">
        <ele>678</ele>
        <time>2022-06-26T13:23:59Z</time>
      </trkpt>
      <trkpt lat="45.72502" lon="4.55665">
        <ele>678.4</ele>
        <time>2022-06-26T13:24:00Z</time>
      </trkpt>
      <trkpt lat="45.72501" lon="4.55665">
        <ele>678.4</ele>
        <time>2022-06-26T13:24:01Z</time>
      </trkpt>
      <trkpt lat="45.72499" lon="4.55665">
        <ele>678.8</ele>
        <time>2022-06-26T13:24:02Z</time>
      </trkpt>
      <trkpt lat="45.72498" lon="4.55666">
        <ele>679</ele>
        <time>2022-06-26T13:24:03Z</time>
      </trkpt>
      <trkpt lat="45.72496" lon="4.55667">
        <ele>679.2</ele>
        <time>2022-06-26T13:24:04Z</time>
      </trkpt>
      <trkpt lat="45.72495" lon="4.55667">
        <ele>679.2</ele>
        <time>2022-06-26T13:24:05Z</time>
      </trkpt>
      <trkpt lat="45.72493" lon="4.55667">
        <ele>679.4</ele>
        <time>2022-06-26T13:24:06Z</time>
      </trkpt>
      <trkpt lat="45.72491" lon="4.55668">
        <ele>679.4</ele>
        <time>2022-06-26T13:24:07Z</time>
      </trkpt>
      <trkpt lat="45.72489" lon="4.55669">
        <ele>679.8</ele>
        <time>2022-06-26T13:24:08Z</time>
      </trkpt>
      <trkpt lat="45.72488" lon="4.5567">
        <ele>679.8</ele>
        <time>2022-06-26T13:24:09Z</time>
      </trkpt>
      <trkpt lat="45.72487" lon="4.55671">
        <ele>680</ele>
        <time>2022-06-26T13:24:10Z</time>
      </trkpt>
      <trkpt lat="45.72486" lon="4.55672">
        <ele>680</ele>
        <time>2022-06-26T13:24:11Z</time>
      </trkpt>
      <trkpt lat="45.72484" lon="4.55673">
        <ele>680.4</ele>
        <time>2022-06-26T13:24:12Z</time>
      </trkpt>
      <trkpt lat="45.72482" lon="4.55674">
        <ele>680.4</ele>
        <time>2022-06-26T13:24:13Z</time>
      </trkpt>
      <trkpt lat="45.72481" lon="4.55674">
        <ele>680.8</ele>
        <time>2022-06-26T13:24:14Z</time>
      </trkpt>
      <trkpt lat="45.72479" lon="4.55676">
        <ele>680.8</ele>
        <time>2022-06-26T13:24:15Z</time>
      </trkpt>
      <trkpt lat="45.72478" lon="4.55678">
        <ele>681.2</ele>
        <time>2022-06-26T13:24:16Z</time>
      </trkpt>
      <trkpt lat="45.72477" lon="4.55679">
        <ele>681.2</ele>
        <time>2022-06-26T13:24:17Z</time>
      </trkpt>
      <trkpt lat="45.72475" lon="4.55681">
        <ele>681.6</ele>
        <time>2022-06-26T13:24:18Z</time>
      </trkpt>
      <trkpt lat="45.72474" lon="4.55682">
        <ele>681.6</ele>
        <time>2022-06-26T13:24:19Z</time>
      </trkpt>
      <trkpt lat="45.72472" lon="4.55684">
        <ele>682</ele>
        <time>2022-06-26T13:24:20Z</time>
      </trkpt>
      <trkpt lat="45.72471" lon="4.55685">
        <ele>682.2</ele>
        <time>2022-06-26T13:24:21Z</time>
      </trkpt>
      <trkpt lat="45.72469" lon="4.55685">
        <ele>682.4</ele>
        <time>2022-06-26T13:24:22Z</time>
      </trkpt>
      <trkpt lat="45.72468" lon="4.55686">
        <ele>682.8</ele>
        <time>2022-06-26T13:24:23Z</time>
      </trkpt>
      <trkpt lat="45.72466" lon="4.55687">
        <ele>683</ele>
        <time>2022-06-26T13:24:24Z</time>
      </trkpt>
      <trkpt lat="45.72464" lon="4.55689">
        <ele>683</ele>
        <time>2022-06-26T13:24:25Z</time>
      </trkpt>
      <trkpt lat="45.72462" lon="4.5569">
        <ele>683.4</ele>
        <time>2022-06-26T13:24:26Z</time>
      </trkpt>
      <trkpt lat="45.72461" lon="4.55691">
        <ele>683.6</ele>
        <time>2022-06-26T13:24:27Z</time>
      </trkpt>
      <trkpt lat="45.72459" lon="4.55693">
        <ele>683.6</ele>
        <time>2022-06-26T13:24:28Z</time>
      </trkpt>
      <trkpt lat="45.72457" lon="4.55694">
        <ele>684</ele>
        <time>2022-06-26T13:24:29Z</time>
      </trkpt>
      <trkpt lat="45.72456" lon="4.55695">
        <ele>684.2</ele>
        <time>2022-06-26T13:24:30Z</time>
      </trkpt>
      <trkpt lat="45.72454" lon="4.55696">
        <ele>684.4</ele>
        <time>2022-06-26T13:24:31Z</time>
      </trkpt>
      <trkpt lat="45.72453" lon="4.55697">
        <ele>684.6</ele>
        <time>2022-06-26T13:24:32Z</time>
      </trkpt>
      <trkpt lat="45.72452" lon="4.55699">
        <ele>684.8</ele>
        <time>2022-06-26T13:24:33Z</time>
      </trkpt>
      <trkpt lat="45.7245" lon="4.557">
        <ele>684.8</ele>
        <time>2022-06-26T13:24:34Z</time>
      </trkpt>
      <trkpt lat="45.72449" lon="4.55701">
        <ele>685.2</ele>
        <time>2022-06-26T13:24:35Z</time>
      </trkpt>
      <trkpt lat="45.72448" lon="4.55702">
        <ele>685.2</ele>
        <time>2022-06-26T13:24:36Z</time>
      </trkpt>
      <trkpt lat="45.72446" lon="4.55702">
        <ele>685.6</ele>
        <time>2022-06-26T13:24:37Z</time>
      </trkpt>
      <trkpt lat="45.72445" lon="4.55703">
        <ele>685.6</ele>
        <time>2022-06-26T13:24:38Z</time>
      </trkpt>
      <trkpt lat="45.72443" lon="4.55703">
        <ele>686</ele>
        <time>2022-06-26T13:24:39Z</time>
      </trkpt>
      <trkpt lat="45.72441" lon="4.55703">
        <ele>686</ele>
        <time>2022-06-26T13:24:40Z</time>
      </trkpt>
      <trkpt lat="45.7244" lon="4.55702">
        <ele>686.4</ele>
        <time>2022-06-26T13:24:41Z</time>
      </trkpt>
      <trkpt lat="45.72439" lon="4.55701">
        <ele>686.4</ele>
        <time>2022-06-26T13:24:42Z</time>
      </trkpt>
      <trkpt lat="45.72437" lon="4.55699">
        <ele>686.8</ele>
        <time>2022-06-26T13:24:43Z</time>
      </trkpt>
      <trkpt lat="45.72436" lon="4.55698">
        <ele>687</ele>
        <time>2022-06-26T13:24:44Z</time>
      </trkpt>
      <trkpt lat="45.72435" lon="4.55696">
        <ele>687</ele>
        <time>2022-06-26T13:24:45Z</time>
      </trkpt>
      <trkpt lat="45.72435" lon="4.55694">
        <ele>687.4</ele>
        <time>2022-06-26T13:24:46Z</time>
      </trkpt>
      <trkpt lat="45.72435" lon="4.55692">
        <ele>687.4</ele>
        <time>2022-06-26T13:24:47Z</time>
      </trkpt>
      <trkpt lat="45.72435" lon="4.5569">
        <ele>687.8</ele>
        <time>2022-06-26T13:24:48Z</time>
      </trkpt>
      <trkpt lat="45.72435" lon="4.55688">
        <ele>687.8</ele>
        <time>2022-06-26T13:24:49Z</time>
      </trkpt>
      <trkpt lat="45.72436" lon="4.55686">
        <ele>688</ele>
        <time>2022-06-26T13:24:50Z</time>
      </trkpt>
      <trkpt lat="45.72436" lon="4.55684">
        <ele>688.4</ele>
        <time>2022-06-26T13:24:51Z</time>
      </trkpt>
      <trkpt lat="45.72437" lon="4.55682">
        <ele>688.4</ele>
        <time>2022-06-26T13:24:52Z</time>
      </trkpt>
      <trkpt lat="45.72438" lon="4.55681">
        <ele>688.4</ele>
        <time>2022-06-26T13:24:53Z</time>
      </trkpt>
      <trkpt lat="45.72438" lon="4.55679">
        <ele>688.6</ele>
        <time>2022-06-26T13:24:54Z</time>
      </trkpt>
      <trkpt lat="45.72439" lon="4.55678">
        <ele>688.8</ele>
        <time>2022-06-26T13:24:55Z</time>
      </trkpt>
      <trkpt lat="45.7244" lon="4.55677">
        <ele>688.8</ele>
        <time>2022-06-26T13:24:56Z</time>
      </trkpt>
      <trkpt lat="45.72441" lon="4.55675">
        <ele>689.2</ele>
        <time>2022-06-26T13:24:57Z</time>
      </trkpt>
      <trkpt lat="45.72442" lon="4.55674">
        <ele>689.2</ele>
        <time>2022-06-26T13:24:58Z</time>
      </trkpt>
      <trkpt lat="45.72444" lon="4.55673">
        <ele>689.6</ele>
        <time>2022-06-26T13:24:59Z</time>
      </trkpt>
      <trkpt lat="45.72445" lon="4.55672">
        <ele>689.6</ele>
        <time>2022-06-26T13:25:00Z</time>
      </trkpt>
      <trkpt lat="45.72446" lon="4.5567">
        <ele>689.8</ele>
        <time>2022-06-26T13:25:01Z</time>
      </trkpt>
      <trkpt lat="45.72447" lon="4.55669">
        <ele>689.8</ele>
        <time>2022-06-26T13:25:02Z</time>
      </trkpt>
      <trkpt lat="45.72448" lon="4.55667">
        <ele>690.2</ele>
        <time>2022-06-26T13:25:03Z</time>
      </trkpt>
      <trkpt lat="45.72449" lon="4.55666">
        <ele>690.2</ele>
        <time>2022-06-26T13:25:04Z</time>
      </trkpt>
      <trkpt lat="45.72451" lon="4.55665">
        <ele>690.4</ele>
        <time>2022-06-26T13:25:05Z</time>
      </trkpt>
      <trkpt lat="45.72453" lon="4.55664">
        <ele>690.4</ele>
        <time>2022-06-26T13:25:06Z</time>
      </trkpt>
      <trkpt lat="45.72454" lon="4.55663">
        <ele>690.6</ele>
        <time>2022-06-26T13:25:07Z</time>
      </trkpt>
      <trkpt lat="45.72456" lon="4.55661">
        <ele>690.6</ele>
        <time>2022-06-26T13:25:08Z</time>
      </trkpt>
      <trkpt lat="45.72457" lon="4.5566">
        <ele>691</ele>
        <time>2022-06-26T13:25:09Z</time>
      </trkpt>
      <trkpt lat="45.72459" lon="4.55658">
        <ele>691</ele>
        <time>2022-06-26T13:25:10Z</time>
      </trkpt>
      <trkpt lat="45.7246" lon="4.55657">
        <ele>691.2</ele>
        <time>2022-06-26T13:25:11Z</time>
      </trkpt>
      <trkpt lat="45.72462" lon="4.55655">
        <ele>691.2</ele>
        <time>2022-06-26T13:25:12Z</time>
      </trkpt>
      <trkpt lat="45.72463" lon="4.55653">
        <ele>691.6</ele>
        <time>2022-06-26T13:25:13Z</time>
      </trkpt>
      <trkpt lat="45.72465" lon="4.55652">
        <ele>691.6</ele>
        <time>2022-06-26T13:25:14Z</time>
      </trkpt>
      <trkpt lat="45.72466" lon="4.55651">
        <ele>691.8</ele>
        <time>2022-06-26T13:25:15Z</time>
      </trkpt>
      <trkpt lat="45.72468" lon="4.5565">
        <ele>691.8</ele>
        <time>2022-06-26T13:25:16Z</time>
      </trkpt>
      <trkpt lat="45.7247" lon="4.55649">
        <ele>692.2</ele>
        <time>2022-06-26T13:25:17Z</time>
      </trkpt>
      <trkpt lat="45.72472" lon="4.55648">
        <ele>692.2</ele>
        <time>2022-06-26T13:25:18Z</time>
      </trkpt>
      <trkpt lat="45.72473" lon="4.55647">
        <ele>692.4</ele>
        <time>2022-06-26T13:25:19Z</time>
      </trkpt>
      <trkpt lat="45.72475" lon="4.55645">
        <ele>692.6</ele>
        <time>2022-06-26T13:25:20Z</time>
      </trkpt>
      <trkpt lat="45.72476" lon="4.55644">
        <ele>692.6</ele>
        <time>2022-06-26T13:25:21Z</time>
      </trkpt>
      <trkpt lat="45.72477" lon="4.55642">
        <ele>693</ele>
        <time>2022-06-26T13:25:22Z</time>
      </trkpt>
      <trkpt lat="45.72479" lon="4.55641">
        <ele>693</ele>
        <time>2022-06-26T13:25:23Z</time>
      </trkpt>
      <trkpt lat="45.7248" lon="4.5564">
        <ele>693.4</ele>
        <time>2022-06-26T13:25:24Z</time>
      </trkpt>
      <trkpt lat="45.72481" lon="4.55639">
        <ele>693.6</ele>
        <time>2022-06-26T13:25:25Z</time>
      </trkpt>
      <trkpt lat="45.72483" lon="4.55639">
        <ele>693.6</ele>
        <time>2022-06-26T13:25:26Z</time>
      </trkpt>
      <trkpt lat="45.72484" lon="4.55638">
        <ele>693.8</ele>
        <time>2022-06-26T13:25:27Z</time>
      </trkpt>
      <trkpt lat="45.72486" lon="4.55637">
        <ele>693.8</ele>
        <time>2022-06-26T13:25:28Z</time>
      </trkpt>
      <trkpt lat="45.72487" lon="4.55636">
        <ele>694.2</ele>
        <time>2022-06-26T13:25:29Z</time>
      </trkpt>
      <trkpt lat="45.72488" lon="4.55636">
        <ele>694.2</ele>
        <time>2022-06-26T13:25:30Z</time>
      </trkpt>
      <trkpt lat="45.7249" lon="4.55635">
        <ele>694.4</ele>
        <time>2022-06-26T13:25:31Z</time>
      </trkpt>
      <trkpt lat="45.72491" lon="4.55634">
        <ele>694.4</ele>
        <time>2022-06-26T13:25:32Z</time>
      </trkpt>
      <trkpt lat="45.72493" lon="4.55633">
        <ele>694.8</ele>
        <time>2022-06-26T13:25:33Z</time>
      </trkpt>
      <trkpt lat="45.72494" lon="4.55631">
        <ele>694.8</ele>
        <time>2022-06-26T13:25:34Z</time>
      </trkpt>
      <trkpt lat="45.72495" lon="4.5563">
        <ele>695.2</ele>
        <time>2022-06-26T13:25:35Z</time>
      </trkpt>
      <trkpt lat="45.72496" lon="4.55629">
        <ele>695.2</ele>
        <time>2022-06-26T13:25:36Z</time>
      </trkpt>
      <trkpt lat="45.72498" lon="4.55627">
        <ele>695.6</ele>
        <time>2022-06-26T13:25:37Z</time>
      </trkpt>
      <trkpt lat="45.72499" lon="4.55626">
        <ele>695.6</ele>
        <time>2022-06-26T13:25:38Z</time>
      </trkpt>
      <trkpt lat="45.725" lon="4.55625">
        <ele>695.8</ele>
        <time>2022-06-26T13:25:39Z</time>
      </trkpt>
      <trkpt lat="45.72502" lon="4.55624">
        <ele>695.8</ele>
        <time>2022-06-26T13:25:40Z</time>
      </trkpt>
      <trkpt lat="45.72503" lon="4.55622">
        <ele>696.2</ele>
        <time>2022-06-26T13:25:41Z</time>
      </trkpt>
      <trkpt lat="45.72504" lon="4.5562">
        <ele>696.4</ele>
        <time>2022-06-26T13:25:42Z</time>
      </trkpt>
      <trkpt lat="45.72505" lon="4.55619">
        <ele>696.4</ele>
        <time>2022-06-26T13:25:43Z</time>
      </trkpt>
      <trkpt lat="45.72506" lon="4.55617">
        <ele>696.8</ele>
        <time>2022-06-26T13:25:44Z</time>
      </trkpt>
      <trkpt lat="45.72508" lon="4.55616">
        <ele>696.8</ele>
        <time>2022-06-26T13:25:45Z</time>
      </trkpt>
      <trkpt lat="45.72509" lon="4.55615">
        <ele>697</ele>
        <time>2022-06-26T13:25:46Z</time>
      </trkpt>
      <trkpt lat="45.7251" lon="4.55613">
        <ele>697</ele>
        <time>2022-06-26T13:25:47Z</time>
      </trkpt>
      <trkpt lat="45.72511" lon="4.55611">
        <ele>697.4</ele>
        <time>2022-06-26T13:25:48Z</time>
      </trkpt>
      <trkpt lat="45.72512" lon="4.5561">
        <ele>697.4</ele>
        <time>2022-06-26T13:25:49Z</time>
      </trkpt>
      <trkpt lat="45.72514" lon="4.55608">
        <ele>697.6</ele>
        <time>2022-06-26T13:25:50Z</time>
      </trkpt>
      <trkpt lat="45.72515" lon="4.55607">
        <ele>697.6</ele>
        <time>2022-06-26T13:25:51Z</time>
      </trkpt>
      <trkpt lat="45.72516" lon="4.55605">
        <ele>698</ele>
        <time>2022-06-26T13:25:52Z</time>
      </trkpt>
      <trkpt lat="45.72518" lon="4.55604">
        <ele>698</ele>
        <time>2022-06-26T13:25:53Z</time>
      </trkpt>
      <trkpt lat="45.72519" lon="4.55602">
        <ele>698.2</ele>
        <time>2022-06-26T13:25:54Z</time>
      </trkpt>
      <trkpt lat="45.7252" lon="4.556">
        <ele>698.2</ele>
        <time>2022-06-26T13:25:55Z</time>
      </trkpt>
      <trkpt lat="45.72521" lon="4.55598">
        <ele>698.4</ele>
        <time>2022-06-26T13:25:56Z</time>
      </trkpt>
      <trkpt lat="45.72522" lon="4.55596">
        <ele>698.4</ele>
        <time>2022-06-26T13:25:57Z</time>
      </trkpt>
      <trkpt lat="45.72523" lon="4.55594">
        <ele>698.8</ele>
        <time>2022-06-26T13:25:58Z</time>
      </trkpt>
      <trkpt lat="45.72524" lon="4.55592">
        <ele>698.8</ele>
        <time>2022-06-26T13:25:59Z</time>
      </trkpt>
      <trkpt lat="45.72525" lon="4.5559">
        <ele>699</ele>
        <time>2022-06-26T13:26:00Z</time>
      </trkpt>
      <trkpt lat="45.72526" lon="4.55589">
        <ele>699</ele>
        <time>2022-06-26T13:26:01Z</time>
      </trkpt>
      <trkpt lat="45.72527" lon="4.55587">
        <ele>699.4</ele>
        <time>2022-06-26T13:26:02Z</time>
      </trkpt>
      <trkpt lat="45.72528" lon="4.55586">
        <ele>699.4</ele>
        <time>2022-06-26T13:26:03Z</time>
      </trkpt>
      <trkpt lat="45.72529" lon="4.55585">
        <ele>699.8</ele>
        <time>2022-06-26T13:26:04Z</time>
      </trkpt>
      <trkpt lat="45.7253" lon="4.55583">
        <ele>699.8</ele>
        <time>2022-06-26T13:26:05Z</time>
      </trkpt>
      <trkpt lat="45.72531" lon="4.55581">
        <ele>700.2</ele>
        <time>2022-06-26T13:26:06Z</time>
      </trkpt>
      <trkpt lat="45.72532" lon="4.5558">
        <ele>700.2</ele>
        <time>2022-06-26T13:26:07Z</time>
      </trkpt>
      <trkpt lat="45.72532" lon="4.55578">
        <ele>700.4</ele>
        <time>2022-06-26T13:26:08Z</time>
      </trkpt>
      <trkpt lat="45.72533" lon="4.55576">
        <ele>700.4</ele>
        <time>2022-06-26T13:26:09Z</time>
      </trkpt>
      <trkpt lat="45.72534" lon="4.55574">
        <ele>700.8</ele>
        <time>2022-06-26T13:26:10Z</time>
      </trkpt>
      <trkpt lat="45.72535" lon="4.55572">
        <ele>700.8</ele>
        <time>2022-06-26T13:26:11Z</time>
      </trkpt>
      <trkpt lat="45.72535" lon="4.5557">
        <ele>701.2</ele>
        <time>2022-06-26T13:26:12Z</time>
      </trkpt>
      <trkpt lat="45.72536" lon="4.55568">
        <ele>701.2</ele>
        <time>2022-06-26T13:26:13Z</time>
      </trkpt>
      <trkpt lat="45.72537" lon="4.55566">
        <ele>701.4</ele>
        <time>2022-06-26T13:26:14Z</time>
      </trkpt>
      <trkpt lat="45.72538" lon="4.55564">
        <ele>701.4</ele>
        <time>2022-06-26T13:26:15Z</time>
      </trkpt>
      <trkpt lat="45.72538" lon="4.55562">
        <ele>701.8</ele>
        <time>2022-06-26T13:26:16Z</time>
      </trkpt>
      <trkpt lat="45.72539" lon="4.5556">
        <ele>702</ele>
        <time>2022-06-26T13:26:17Z</time>
      </trkpt>
      <trkpt lat="45.72539" lon="4.55558">
        <ele>702</ele>
        <time>2022-06-26T13:26:18Z</time>
      </trkpt>
      <trkpt lat="45.7254" lon="4.55556">
        <ele>702.4</ele>
        <time>2022-06-26T13:26:19Z</time>
      </trkpt>
      <trkpt lat="45.7254" lon="4.55554">
        <ele>702.4</ele>
        <time>2022-06-26T13:26:20Z</time>
      </trkpt>
      <trkpt lat="45.72541" lon="4.55552">
        <ele>702.6</ele>
        <time>2022-06-26T13:26:21Z</time>
      </trkpt>
      <trkpt lat="45.72542" lon="4.5555">
        <ele>702.6</ele>
        <time>2022-06-26T13:26:22Z</time>
      </trkpt>
      <trkpt lat="45.72542" lon="4.55548">
        <ele>703.2</ele>
        <time>2022-06-26T13:26:23Z</time>
      </trkpt>
      <trkpt lat="45.72543" lon="4.55546">
        <ele>703.4</ele>
        <time>2022-06-26T13:26:24Z</time>
      </trkpt>
      <trkpt lat="45.72544" lon="4.55544">
        <ele>703.4</ele>
        <time>2022-06-26T13:26:25Z</time>
      </trkpt>
      <trkpt lat="45.72545" lon="4.55542">
        <ele>703.6</ele>
        <time>2022-06-26T13:26:26Z</time>
      </trkpt>
      <trkpt lat="45.72545" lon="4.55541">
        <ele>703.6</ele>
        <time>2022-06-26T13:26:27Z</time>
      </trkpt>
      <trkpt lat="45.72546" lon="4.55539">
        <ele>704</ele>
        <time>2022-06-26T13:26:28Z</time>
      </trkpt>
      <trkpt lat="45.72547" lon="4.55537">
        <ele>704</ele>
        <time>2022-06-26T13:26:29Z</time>
      </trkpt>
      <trkpt lat="45.72548" lon="4.55536">
        <ele>704.2</ele>
        <time>2022-06-26T13:26:30Z</time>
      </trkpt>
      <trkpt lat="45.72548" lon="4.55534">
        <ele>704.2</ele>
        <time>2022-06-26T13:26:31Z</time>
      </trkpt>
      <trkpt lat="45.72549" lon="4.55532">
        <ele>704.4</ele>
        <time>2022-06-26T13:26:32Z</time>
      </trkpt>
      <trkpt lat="45.7255" lon="4.55531">
        <ele>704.4</ele>
        <time>2022-06-26T13:26:33Z</time>
      </trkpt>
      <trkpt lat="45.72551" lon="4.55529">
        <ele>704.8</ele>
        <time>2022-06-26T13:26:34Z</time>
      </trkpt>
      <trkpt lat="45.72552" lon="4.55528">
        <ele>704.8</ele>
        <time>2022-06-26T13:26:35Z</time>
      </trkpt>
      <trkpt lat="45.72554" lon="4.55526">
        <ele>705</ele>
        <time>2022-06-26T13:26:36Z</time>
      </trkpt>
      <trkpt lat="45.72555" lon="4.55524">
        <ele>705</ele>
        <time>2022-06-26T13:26:37Z</time>
      </trkpt>
      <trkpt lat="45.72556" lon="4.55522">
        <ele>705.4</ele>
        <time>2022-06-26T13:26:38Z</time>
      </trkpt>
      <trkpt lat="45.72557" lon="4.5552">
        <ele>705.4</ele>
        <time>2022-06-26T13:26:39Z</time>
      </trkpt>
      <trkpt lat="45.72558" lon="4.55518">
        <ele>705.6</ele>
        <time>2022-06-26T13:26:40Z</time>
      </trkpt>
      <trkpt lat="45.72558" lon="4.55516">
        <ele>705.6</ele>
        <time>2022-06-26T13:26:41Z</time>
      </trkpt>
      <trkpt lat="45.72559" lon="4.55514">
        <ele>706</ele>
        <time>2022-06-26T13:26:42Z</time>
      </trkpt>
      <trkpt lat="45.7256" lon="4.55512">
        <ele>706</ele>
        <time>2022-06-26T13:26:43Z</time>
      </trkpt>
      <trkpt lat="45.7256" lon="4.55509">
        <ele>706.2</ele>
        <time>2022-06-26T13:26:44Z</time>
      </trkpt>
      <trkpt lat="45.72561" lon="4.55507">
        <ele>706.2</ele>
        <time>2022-06-26T13:26:45Z</time>
      </trkpt>
      <trkpt lat="45.72561" lon="4.55505">
        <ele>706.6</ele>
        <time>2022-06-26T13:26:46Z</time>
      </trkpt>
      <trkpt lat="45.72562" lon="4.55502">
        <ele>706.6</ele>
        <time>2022-06-26T13:26:47Z</time>
      </trkpt>
      <trkpt lat="45.72562" lon="4.555">
        <ele>706.8</ele>
        <time>2022-06-26T13:26:48Z</time>
      </trkpt>
      <trkpt lat="45.72563" lon="4.55498">
        <ele>706.8</ele>
        <time>2022-06-26T13:26:49Z</time>
      </trkpt>
      <trkpt lat="45.72564" lon="4.55495">
        <ele>707.2</ele>
        <time>2022-06-26T13:26:50Z</time>
      </trkpt>
      <trkpt lat="45.72565" lon="4.55493">
        <ele>707.4</ele>
        <time>2022-06-26T13:26:51Z</time>
      </trkpt>
      <trkpt lat="45.72566" lon="4.55489">
        <ele>707.6</ele>
        <time>2022-06-26T13:26:52Z</time>
      </trkpt>
      <trkpt lat="45.72567" lon="4.55487">
        <ele>707.6</ele>
        <time>2022-06-26T13:26:53Z</time>
      </trkpt>
      <trkpt lat="45.72567" lon="4.55485">
        <ele>708</ele>
        <time>2022-06-26T13:26:54Z</time>
      </trkpt>
      <trkpt lat="45.72567" lon="4.55483">
        <ele>708</ele>
        <time>2022-06-26T13:26:55Z</time>
      </trkpt>
      <trkpt lat="45.72567" lon="4.5548">
        <ele>708.2</ele>
        <time>2022-06-26T13:26:56Z</time>
      </trkpt>
      <trkpt lat="45.72568" lon="4.55478">
        <ele>708.2</ele>
        <time>2022-06-26T13:26:57Z</time>
      </trkpt>
      <trkpt lat="45.72568" lon="4.55476">
        <ele>708.4</ele>
        <time>2022-06-26T13:26:58Z</time>
      </trkpt>
      <trkpt lat="45.72568" lon="4.55474">
        <ele>708.4</ele>
        <time>2022-06-26T13:26:59Z</time>
      </trkpt>
      <trkpt lat="45.72569" lon="4.55472">
        <ele>708.6</ele>
        <time>2022-06-26T13:27:00Z</time>
      </trkpt>
      <trkpt lat="45.72569" lon="4.55469">
        <ele>708.6</ele>
        <time>2022-06-26T13:27:01Z</time>
      </trkpt>
      <trkpt lat="45.72569" lon="4.55467">
        <ele>709</ele>
        <time>2022-06-26T13:27:02Z</time>
      </trkpt>
      <trkpt lat="45.7257" lon="4.55466">
        <ele>709</ele>
        <time>2022-06-26T13:27:03Z</time>
      </trkpt>
      <trkpt lat="45.7257" lon="4.55463">
        <ele>709.4</ele>
        <time>2022-06-26T13:27:04Z</time>
      </trkpt>
      <trkpt lat="45.7257" lon="4.55461">
        <ele>709.4</ele>
        <time>2022-06-26T13:27:05Z</time>
      </trkpt>
      <trkpt lat="45.72571" lon="4.55459">
        <ele>709.6</ele>
        <time>2022-06-26T13:27:06Z</time>
      </trkpt>
      <trkpt lat="45.72571" lon="4.55458">
        <ele>709.6</ele>
        <time>2022-06-26T13:27:07Z</time>
      </trkpt>
      <trkpt lat="45.72572" lon="4.55456">
        <ele>709.8</ele>
        <time>2022-06-26T13:27:08Z</time>
      </trkpt>
      <trkpt lat="45.72572" lon="4.55454">
        <ele>709.8</ele>
        <time>2022-06-26T13:27:09Z</time>
      </trkpt>
      <trkpt lat="45.72573" lon="4.55453">
        <ele>710.2</ele>
        <time>2022-06-26T13:27:10Z</time>
      </trkpt>
      <trkpt lat="45.72574" lon="4.55451">
        <ele>710.2</ele>
        <time>2022-06-26T13:27:11Z</time>
      </trkpt>
      <trkpt lat="45.72574" lon="4.55449">
        <ele>710.4</ele>
        <time>2022-06-26T13:27:12Z</time>
      </trkpt>
      <trkpt lat="45.72575" lon="4.55447">
        <ele>710.4</ele>
        <time>2022-06-26T13:27:13Z</time>
      </trkpt>
      <trkpt lat="45.72575" lon="4.55445">
        <ele>710.8</ele>
        <time>2022-06-26T13:27:14Z</time>
      </trkpt>
      <trkpt lat="45.72576" lon="4.55443">
        <ele>711.2</ele>
        <time>2022-06-26T13:27:15Z</time>
      </trkpt>
      <trkpt lat="45.72577" lon="4.55441">
        <ele>711.4</ele>
        <time>2022-06-26T13:27:16Z</time>
      </trkpt>
      <trkpt lat="45.72577" lon="4.55439">
        <ele>711.4</ele>
        <time>2022-06-26T13:27:17Z</time>
      </trkpt>
      <trkpt lat="45.72577" lon="4.55437">
        <ele>711.6</ele>
        <time>2022-06-26T13:27:18Z</time>
      </trkpt>
      <trkpt lat="45.72577" lon="4.55434">
        <ele>711.6</ele>
        <time>2022-06-26T13:27:19Z</time>
      </trkpt>
      <trkpt lat="45.72577" lon="4.55432">
        <ele>712</ele>
        <time>2022-06-26T13:27:20Z</time>
      </trkpt>
      <trkpt lat="45.72578" lon="4.5543">
        <ele>712.2</ele>
        <time>2022-06-26T13:27:21Z</time>
      </trkpt>
      <trkpt lat="45.72579" lon="4.55428">
        <ele>712.2</ele>
        <time>2022-06-26T13:27:22Z</time>
      </trkpt>
      <trkpt lat="45.7258" lon="4.55426">
        <ele>712.6</ele>
        <time>2022-06-26T13:27:23Z</time>
      </trkpt>
      <trkpt lat="45.7258" lon="4.55424">
        <ele>712.6</ele>
        <time>2022-06-26T13:27:24Z</time>
      </trkpt>
      <trkpt lat="45.72581" lon="4.55422">
        <ele>713</ele>
        <time>2022-06-26T13:27:25Z</time>
      </trkpt>
      <trkpt lat="45.72582" lon="4.55419">
        <ele>713</ele>
        <time>2022-06-26T13:27:26Z</time>
      </trkpt>
      <trkpt lat="45.72583" lon="4.55417">
        <ele>713.2</ele>
        <time>2022-06-26T13:27:27Z</time>
      </trkpt>
      <trkpt lat="45.72583" lon="4.55415">
        <ele>713.2</ele>
        <time>2022-06-26T13:27:28Z</time>
      </trkpt>
      <trkpt lat="45.72584" lon="4.55413">
        <ele>713.4</ele>
        <time>2022-06-26T13:27:29Z</time>
      </trkpt>
      <trkpt lat="45.72585" lon="4.55411">
        <ele>713.4</ele>
        <time>2022-06-26T13:27:30Z</time>
      </trkpt>
      <trkpt lat="45.72584" lon="4.55409">
        <ele>713.8</ele>
        <time>2022-06-26T13:27:31Z</time>
      </trkpt>
      <trkpt lat="45.72584" lon="4.55406">
        <ele>713.8</ele>
        <time>2022-06-26T13:27:32Z</time>
      </trkpt>
      <trkpt lat="45.72584" lon="4.55404">
        <ele>714.2</ele>
        <time>2022-06-26T13:27:33Z</time>
      </trkpt>
      <trkpt lat="45.72584" lon="4.55402">
        <ele>714.2</ele>
        <time>2022-06-26T13:27:34Z</time>
      </trkpt>
      <trkpt lat="45.72584" lon="4.55399">
        <ele>714.4</ele>
        <time>2022-06-26T13:27:35Z</time>
      </trkpt>
      <trkpt lat="45.72584" lon="4.55396">
        <ele>714.8</ele>
        <time>2022-06-26T13:27:36Z</time>
      </trkpt>
      <trkpt lat="45.72584" lon="4.55394">
        <ele>715</ele>
        <time>2022-06-26T13:27:37Z</time>
      </trkpt>
      <trkpt lat="45.72583" lon="4.55391">
        <ele>715</ele>
        <time>2022-06-26T13:27:38Z</time>
      </trkpt>
      <trkpt lat="45.72582" lon="4.55388">
        <ele>715.2</ele>
        <time>2022-06-26T13:27:39Z</time>
      </trkpt>
      <trkpt lat="45.72582" lon="4.55386">
        <ele>715.2</ele>
        <time>2022-06-26T13:27:40Z</time>
      </trkpt>
      <trkpt lat="45.72581" lon="4.55383">
        <ele>715.6</ele>
        <time>2022-06-26T13:27:41Z</time>
      </trkpt>
      <trkpt lat="45.7258" lon="4.55381">
        <ele>715.6</ele>
        <time>2022-06-26T13:27:42Z</time>
      </trkpt>
      <trkpt lat="45.7258" lon="4.55378">
        <ele>715.8</ele>
        <time>2022-06-26T13:27:43Z</time>
      </trkpt>
      <trkpt lat="45.7258" lon="4.55376">
        <ele>715.8</ele>
        <time>2022-06-26T13:27:44Z</time>
      </trkpt>
      <trkpt lat="45.72579" lon="4.55373">
        <ele>715.8</ele>
        <time>2022-06-26T13:27:45Z</time>
      </trkpt>
      <trkpt lat="45.72579" lon="4.5537">
        <ele>716.2</ele>
        <time>2022-06-26T13:27:46Z</time>
      </trkpt>
      <trkpt lat="45.72578" lon="4.55368">
        <ele>716.2</ele>
        <time>2022-06-26T13:27:47Z</time>
      </trkpt>
      <trkpt lat="45.72578" lon="4.55365">
        <ele>716.4</ele>
        <time>2022-06-26T13:27:48Z</time>
      </trkpt>
      <trkpt lat="45.72577" lon="4.55363">
        <ele>716.4</ele>
        <time>2022-06-26T13:27:49Z</time>
      </trkpt>
      <trkpt lat="45.72577" lon="4.55361">
        <ele>716.8</ele>
        <time>2022-06-26T13:27:50Z</time>
      </trkpt>
      <trkpt lat="45.72576" lon="4.55359">
        <ele>716.8</ele>
        <time>2022-06-26T13:27:51Z</time>
      </trkpt>
      <trkpt lat="45.72576" lon="4.55357">
        <ele>717</ele>
        <time>2022-06-26T13:27:52Z</time>
      </trkpt>
      <trkpt lat="45.72575" lon="4.55354">
        <ele>717</ele>
        <time>2022-06-26T13:27:53Z</time>
      </trkpt>
      <trkpt lat="45.72575" lon="4.55352">
        <ele>717.4</ele>
        <time>2022-06-26T13:27:54Z</time>
      </trkpt>
      <trkpt lat="45.72574" lon="4.5535">
        <ele>717.4</ele>
        <time>2022-06-26T13:27:55Z</time>
      </trkpt>
      <trkpt lat="45.72574" lon="4.55348">
        <ele>717.6</ele>
        <time>2022-06-26T13:27:56Z</time>
      </trkpt>
      <trkpt lat="45.72573" lon="4.55346">
        <ele>717.6</ele>
        <time>2022-06-26T13:27:57Z</time>
      </trkpt>
      <trkpt lat="45.72572" lon="4.55344">
        <ele>718</ele>
        <time>2022-06-26T13:27:58Z</time>
      </trkpt>
      <trkpt lat="45.72571" lon="4.55341">
        <ele>718.2</ele>
        <time>2022-06-26T13:27:59Z</time>
      </trkpt>
      <trkpt lat="45.7257" lon="4.55339">
        <ele>718.2</ele>
        <time>2022-06-26T13:28:00Z</time>
      </trkpt>
      <trkpt lat="45.7257" lon="4.55337">
        <ele>718.6</ele>
        <time>2022-06-26T13:28:01Z</time>
      </trkpt>
      <trkpt lat="45.7257" lon="4.55335">
        <ele>718.6</ele>
        <time>2022-06-26T13:28:02Z</time>
      </trkpt>
      <trkpt lat="45.72569" lon="4.55332">
        <ele>719</ele>
        <time>2022-06-26T13:28:03Z</time>
      </trkpt>
      <trkpt lat="45.72569" lon="4.5533">
        <ele>719</ele>
        <time>2022-06-26T13:28:04Z</time>
      </trkpt>
      <trkpt lat="45.72568" lon="4.55328">
        <ele>719.2</ele>
        <time>2022-06-26T13:28:05Z</time>
      </trkpt>
      <trkpt lat="45.72567" lon="4.55326">
        <ele>719.2</ele>
        <time>2022-06-26T13:28:06Z</time>
      </trkpt>
      <trkpt lat="45.72566" lon="4.55324">
        <ele>719.6</ele>
        <time>2022-06-26T13:28:08Z</time>
      </trkpt>
      <trkpt lat="45.72565" lon="4.55322">
        <ele>720</ele>
        <time>2022-06-26T13:28:09Z</time>
      </trkpt>
      <trkpt lat="45.72564" lon="4.55319">
        <ele>720</ele>
        <time>2022-06-26T13:28:10Z</time>
      </trkpt>
      <trkpt lat="45.72563" lon="4.55317">
        <ele>720.2</ele>
        <time>2022-06-26T13:28:11Z</time>
      </trkpt>
      <trkpt lat="45.72562" lon="4.55315">
        <ele>720.2</ele>
        <time>2022-06-26T13:28:12Z</time>
      </trkpt>
      <trkpt lat="45.72562" lon="4.55312">
        <ele>720.6</ele>
        <time>2022-06-26T13:28:13Z</time>
      </trkpt>
      <trkpt lat="45.72561" lon="4.5531">
        <ele>720.6</ele>
        <time>2022-06-26T13:28:14Z</time>
      </trkpt>
      <trkpt lat="45.7256" lon="4.55308">
        <ele>721</ele>
        <time>2022-06-26T13:28:15Z</time>
      </trkpt>
      <trkpt lat="45.7256" lon="4.55306">
        <ele>721.2</ele>
        <time>2022-06-26T13:28:16Z</time>
      </trkpt>
      <trkpt lat="45.72559" lon="4.55304">
        <ele>721.2</ele>
        <time>2022-06-26T13:28:17Z</time>
      </trkpt>
      <trkpt lat="45.72557" lon="4.55302">
        <ele>721.6</ele>
        <time>2022-06-26T13:28:18Z</time>
      </trkpt>
      <trkpt lat="45.72556" lon="4.553">
        <ele>721.6</ele>
        <time>2022-06-26T13:28:19Z</time>
      </trkpt>
      <trkpt lat="45.72555" lon="4.55298">
        <ele>721.8</ele>
        <time>2022-06-26T13:28:20Z</time>
      </trkpt>
      <trkpt lat="45.72554" lon="4.55296">
        <ele>721.8</ele>
        <time>2022-06-26T13:28:21Z</time>
      </trkpt>
      <trkpt lat="45.72553" lon="4.55294">
        <ele>722.2</ele>
        <time>2022-06-26T13:28:22Z</time>
      </trkpt>
      <trkpt lat="45.72552" lon="4.55292">
        <ele>722.2</ele>
        <time>2022-06-26T13:28:23Z</time>
      </trkpt>
      <trkpt lat="45.72551" lon="4.5529">
        <ele>722.4</ele>
        <time>2022-06-26T13:28:24Z</time>
      </trkpt>
      <trkpt lat="45.7255" lon="4.55288">
        <ele>722.4</ele>
        <time>2022-06-26T13:28:25Z</time>
      </trkpt>
      <trkpt lat="45.72549" lon="4.55286">
        <ele>722.6</ele>
        <time>2022-06-26T13:28:26Z</time>
      </trkpt>
      <trkpt lat="45.72548" lon="4.55285">
        <ele>722.6</ele>
        <time>2022-06-26T13:28:27Z</time>
      </trkpt>
      <trkpt lat="45.72547" lon="4.55283">
        <ele>722.8</ele>
        <time>2022-06-26T13:28:28Z</time>
      </trkpt>
      <trkpt lat="45.72546" lon="4.55282">
        <ele>722.8</ele>
        <time>2022-06-26T13:28:29Z</time>
      </trkpt>
      <trkpt lat="45.72544" lon="4.5528">
        <ele>723</ele>
        <time>2022-06-26T13:28:30Z</time>
      </trkpt>
      <trkpt lat="45.72543" lon="4.55278">
        <ele>723</ele>
        <time>2022-06-26T13:28:31Z</time>
      </trkpt>
      <trkpt lat="45.72542" lon="4.55277">
        <ele>723.4</ele>
        <time>2022-06-26T13:28:32Z</time>
      </trkpt>
      <trkpt lat="45.7254" lon="4.55276">
        <ele>723.4</ele>
        <time>2022-06-26T13:28:33Z</time>
      </trkpt>
      <trkpt lat="45.72539" lon="4.55274">
        <ele>723.6</ele>
        <time>2022-06-26T13:28:34Z</time>
      </trkpt>
      <trkpt lat="45.72538" lon="4.55272">
        <ele>723.6</ele>
        <time>2022-06-26T13:28:35Z</time>
      </trkpt>
      <trkpt lat="45.72537" lon="4.5527">
        <ele>723.6</ele>
        <time>2022-06-26T13:28:36Z</time>
      </trkpt>
      <trkpt lat="45.72536" lon="4.55268">
        <ele>724</ele>
        <time>2022-06-26T13:28:37Z</time>
      </trkpt>
      <trkpt lat="45.72535" lon="4.55267">
        <ele>724</ele>
        <time>2022-06-26T13:28:38Z</time>
      </trkpt>
      <trkpt lat="45.72534" lon="4.55265">
        <ele>724.2</ele>
        <time>2022-06-26T13:28:39Z</time>
      </trkpt>
      <trkpt lat="45.72533" lon="4.55264">
        <ele>724.2</ele>
        <time>2022-06-26T13:28:40Z</time>
      </trkpt>
      <trkpt lat="45.72531" lon="4.55262">
        <ele>724.6</ele>
        <time>2022-06-26T13:28:41Z</time>
      </trkpt>
      <trkpt lat="45.7253" lon="4.55261">
        <ele>724.6</ele>
        <time>2022-06-26T13:28:42Z</time>
      </trkpt>
      <trkpt lat="45.72529" lon="4.5526">
        <ele>724.8</ele>
        <time>2022-06-26T13:28:43Z</time>
      </trkpt>
      <trkpt lat="45.72527" lon="4.55258">
        <ele>724.8</ele>
        <time>2022-06-26T13:28:44Z</time>
      </trkpt>
      <trkpt lat="45.72526" lon="4.55257">
        <ele>725</ele>
        <time>2022-06-26T13:28:45Z</time>
      </trkpt>
      <trkpt lat="45.72525" lon="4.55255">
        <ele>725</ele>
        <time>2022-06-26T13:28:46Z</time>
      </trkpt>
      <trkpt lat="45.72524" lon="4.55253">
        <ele>725.4</ele>
        <time>2022-06-26T13:28:47Z</time>
      </trkpt>
      <trkpt lat="45.72523" lon="4.55252">
        <ele>725.4</ele>
        <time>2022-06-26T13:28:48Z</time>
      </trkpt>
      <trkpt lat="45.72522" lon="4.5525">
        <ele>725.6</ele>
        <time>2022-06-26T13:28:49Z</time>
      </trkpt>
      <trkpt lat="45.7252" lon="4.55248">
        <ele>725.6</ele>
        <time>2022-06-26T13:28:50Z</time>
      </trkpt>
      <trkpt lat="45.72519" lon="4.55247">
        <ele>725.6</ele>
        <time>2022-06-26T13:28:51Z</time>
      </trkpt>
      <trkpt lat="45.72517" lon="4.55245">
        <ele>726</ele>
        <time>2022-06-26T13:28:52Z</time>
      </trkpt>
      <trkpt lat="45.72515" lon="4.55244">
        <ele>726</ele>
        <time>2022-06-26T13:28:53Z</time>
      </trkpt>
      <trkpt lat="45.72514" lon="4.55242">
        <ele>726</ele>
        <time>2022-06-26T13:28:54Z</time>
      </trkpt>
      <trkpt lat="45.72512" lon="4.55241">
        <ele>726.2</ele>
        <time>2022-06-26T13:28:55Z</time>
      </trkpt>
      <trkpt lat="45.72511" lon="4.5524">
        <ele>726.2</ele>
        <time>2022-06-26T13:28:56Z</time>
      </trkpt>
      <trkpt lat="45.7251" lon="4.55239">
        <ele>726.4</ele>
        <time>2022-06-26T13:28:57Z</time>
      </trkpt>
      <trkpt lat="45.72508" lon="4.55238">
        <ele>726.4</ele>
        <time>2022-06-26T13:28:58Z</time>
      </trkpt>
      <trkpt lat="45.72507" lon="4.55236">
        <ele>726.8</ele>
        <time>2022-06-26T13:28:59Z</time>
      </trkpt>
      <trkpt lat="45.72505" lon="4.55235">
        <ele>726.8</ele>
        <time>2022-06-26T13:29:00Z</time>
      </trkpt>
      <trkpt lat="45.72504" lon="4.55234">
        <ele>727</ele>
        <time>2022-06-26T13:29:01Z</time>
      </trkpt>
      <trkpt lat="45.72502" lon="4.55233">
        <ele>727</ele>
        <time>2022-06-26T13:29:02Z</time>
      </trkpt>
      <trkpt lat="45.72501" lon="4.55231">
        <ele>727.4</ele>
        <time>2022-06-26T13:29:03Z</time>
      </trkpt>
      <trkpt lat="45.72499" lon="4.5523">
        <ele>727.4</ele>
        <time>2022-06-26T13:29:04Z</time>
      </trkpt>
      <trkpt lat="45.72498" lon="4.55229">
        <ele>727.6</ele>
        <time>2022-06-26T13:29:05Z</time>
      </trkpt>
      <trkpt lat="45.72496" lon="4.55228">
        <ele>727.6</ele>
        <time>2022-06-26T13:29:06Z</time>
      </trkpt>
      <trkpt lat="45.72494" lon="4.55227">
        <ele>727.8</ele>
        <time>2022-06-26T13:29:07Z</time>
      </trkpt>
      <trkpt lat="45.72493" lon="4.55225">
        <ele>727.8</ele>
        <time>2022-06-26T13:29:08Z</time>
      </trkpt>
      <trkpt lat="45.72491" lon="4.55224">
        <ele>728</ele>
        <time>2022-06-26T13:29:09Z</time>
      </trkpt>
      <trkpt lat="45.7249" lon="4.55223">
        <ele>728</ele>
        <time>2022-06-26T13:29:10Z</time>
      </trkpt>
      <trkpt lat="45.72488" lon="4.55222">
        <ele>728.4</ele>
        <time>2022-06-26T13:29:11Z</time>
      </trkpt>
      <trkpt lat="45.72487" lon="4.5522">
        <ele>728.4</ele>
        <time>2022-06-26T13:29:12Z</time>
      </trkpt>
      <trkpt lat="45.72485" lon="4.55219">
        <ele>728.4</ele>
        <time>2022-06-26T13:29:13Z</time>
      </trkpt>
      <trkpt lat="45.72483" lon="4.55218">
        <ele>728.6</ele>
        <time>2022-06-26T13:29:14Z</time>
      </trkpt>
      <trkpt lat="45.72482" lon="4.55217">
        <ele>728.6</ele>
        <time>2022-06-26T13:29:15Z</time>
      </trkpt>
      <trkpt lat="45.7248" lon="4.55216">
        <ele>729</ele>
        <time>2022-06-26T13:29:16Z</time>
      </trkpt>
      <trkpt lat="45.72478" lon="4.55216">
        <ele>729</ele>
        <time>2022-06-26T13:29:17Z</time>
      </trkpt>
      <trkpt lat="45.72476" lon="4.55215">
        <ele>729.2</ele>
        <time>2022-06-26T13:29:18Z</time>
      </trkpt>
      <trkpt lat="45.72475" lon="4.55214">
        <ele>729.2</ele>
        <time>2022-06-26T13:29:19Z</time>
      </trkpt>
      <trkpt lat="45.72473" lon="4.55213">
        <ele>729.4</ele>
        <time>2022-06-26T13:29:20Z</time>
      </trkpt>
      <trkpt lat="45.72471" lon="4.55212">
        <ele>729.4</ele>
        <time>2022-06-26T13:29:21Z</time>
      </trkpt>
      <trkpt lat="45.7247" lon="4.55211">
        <ele>729.6</ele>
        <time>2022-06-26T13:29:22Z</time>
      </trkpt>
      <trkpt lat="45.72468" lon="4.5521">
        <ele>730</ele>
        <time>2022-06-26T13:29:23Z</time>
      </trkpt>
      <trkpt lat="45.72466" lon="4.55209">
        <ele>730.2</ele>
        <time>2022-06-26T13:29:24Z</time>
      </trkpt>
      <trkpt lat="45.72465" lon="4.55208">
        <ele>730.2</ele>
        <time>2022-06-26T13:29:25Z</time>
      </trkpt>
      <trkpt lat="45.72463" lon="4.55207">
        <ele>730.4</ele>
        <time>2022-06-26T13:29:26Z</time>
      </trkpt>
      <trkpt lat="45.72462" lon="4.55206">
        <ele>730.4</ele>
        <time>2022-06-26T13:29:27Z</time>
      </trkpt>
      <trkpt lat="45.7246" lon="4.55206">
        <ele>730.6</ele>
        <time>2022-06-26T13:29:28Z</time>
      </trkpt>
      <trkpt lat="45.72458" lon="4.55205">
        <ele>730.6</ele>
        <time>2022-06-26T13:29:29Z</time>
      </trkpt>
      <trkpt lat="45.72456" lon="4.55204">
        <ele>731</ele>
        <time>2022-06-26T13:29:30Z</time>
      </trkpt>
      <trkpt lat="45.72455" lon="4.55203">
        <ele>731</ele>
        <time>2022-06-26T13:29:31Z</time>
      </trkpt>
      <trkpt lat="45.72453" lon="4.55203">
        <ele>731</ele>
        <time>2022-06-26T13:29:32Z</time>
      </trkpt>
      <trkpt lat="45.72451" lon="4.55202">
        <ele>731.4</ele>
        <time>2022-06-26T13:29:33Z</time>
      </trkpt>
      <trkpt lat="45.72449" lon="4.55202">
        <ele>731.4</ele>
        <time>2022-06-26T13:29:34Z</time>
      </trkpt>
      <trkpt lat="45.72448" lon="4.55201">
        <ele>731.4</ele>
        <time>2022-06-26T13:29:35Z</time>
      </trkpt>
      <trkpt lat="45.72446" lon="4.552">
        <ele>731.6</ele>
        <time>2022-06-26T13:29:36Z</time>
      </trkpt>
      <trkpt lat="45.72444" lon="4.55199">
        <ele>731.6</ele>
        <time>2022-06-26T13:29:37Z</time>
      </trkpt>
      <trkpt lat="45.72443" lon="4.55198">
        <ele>731.8</ele>
        <time>2022-06-26T13:29:38Z</time>
      </trkpt>
      <trkpt lat="45.72441" lon="4.55197">
        <ele>731.8</ele>
        <time>2022-06-26T13:29:39Z</time>
      </trkpt>
      <trkpt lat="45.7244" lon="4.55196">
        <ele>732</ele>
        <time>2022-06-26T13:29:40Z</time>
      </trkpt>
      <trkpt lat="45.72438" lon="4.55195">
        <ele>732</ele>
        <time>2022-06-26T13:29:41Z</time>
      </trkpt>
      <trkpt lat="45.72436" lon="4.55193">
        <ele>732.4</ele>
        <time>2022-06-26T13:29:42Z</time>
      </trkpt>
      <trkpt lat="45.72435" lon="4.55192">
        <ele>732.4</ele>
        <time>2022-06-26T13:29:43Z</time>
      </trkpt>
      <trkpt lat="45.72433" lon="4.55191">
        <ele>732.4</ele>
        <time>2022-06-26T13:29:44Z</time>
      </trkpt>
      <trkpt lat="45.72431" lon="4.5519">
        <ele>732.6</ele>
        <time>2022-06-26T13:29:45Z</time>
      </trkpt>
      <trkpt lat="45.7243" lon="4.55189">
        <ele>732.6</ele>
        <time>2022-06-26T13:29:46Z</time>
      </trkpt>
      <trkpt lat="45.72428" lon="4.55188">
        <ele>732.6</ele>
        <time>2022-06-26T13:29:47Z</time>
      </trkpt>
      <trkpt lat="45.72426" lon="4.55187">
        <ele>733</ele>
        <time>2022-06-26T13:29:48Z</time>
      </trkpt>
      <trkpt lat="45.72424" lon="4.55186">
        <ele>733</ele>
        <time>2022-06-26T13:29:49Z</time>
      </trkpt>
      <trkpt lat="45.72423" lon="4.55184">
        <ele>733.2</ele>
        <time>2022-06-26T13:29:50Z</time>
      </trkpt>
      <trkpt lat="45.72421" lon="4.55183">
        <ele>733.2</ele>
        <time>2022-06-26T13:29:51Z</time>
      </trkpt>
      <trkpt lat="45.72419" lon="4.55181">
        <ele>733.6</ele>
        <time>2022-06-26T13:29:52Z</time>
      </trkpt>
      <trkpt lat="45.72417" lon="4.5518">
        <ele>733.6</ele>
        <time>2022-06-26T13:29:53Z</time>
      </trkpt>
      <trkpt lat="45.72415" lon="4.55179">
        <ele>734</ele>
        <time>2022-06-26T13:29:54Z</time>
      </trkpt>
      <trkpt lat="45.72413" lon="4.55177">
        <ele>734</ele>
        <time>2022-06-26T13:29:55Z</time>
      </trkpt>
      <trkpt lat="45.72411" lon="4.55176">
        <ele>734.2</ele>
        <time>2022-06-26T13:29:56Z</time>
      </trkpt>
      <trkpt lat="45.7241" lon="4.55174">
        <ele>734.2</ele>
        <time>2022-06-26T13:29:57Z</time>
      </trkpt>
      <trkpt lat="45.72408" lon="4.55173">
        <ele>734.6</ele>
        <time>2022-06-26T13:29:58Z</time>
      </trkpt>
      <trkpt lat="45.72407" lon="4.55172">
        <ele>734.8</ele>
        <time>2022-06-26T13:29:59Z</time>
      </trkpt>
      <trkpt lat="45.72405" lon="4.5517">
        <ele>734.8</ele>
        <time>2022-06-26T13:30:00Z</time>
      </trkpt>
      <trkpt lat="45.72403" lon="4.55169">
        <ele>735</ele>
        <time>2022-06-26T13:30:01Z</time>
      </trkpt>
      <trkpt lat="45.72402" lon="4.55168">
        <ele>735</ele>
        <time>2022-06-26T13:30:02Z</time>
      </trkpt>
      <trkpt lat="45.724" lon="4.55166">
        <ele>735.4</ele>
        <time>2022-06-26T13:30:03Z</time>
      </trkpt>
      <trkpt lat="45.72398" lon="4.55165">
        <ele>735.4</ele>
        <time>2022-06-26T13:30:04Z</time>
      </trkpt>
      <trkpt lat="45.72397" lon="4.55164">
        <ele>735.8</ele>
        <time>2022-06-26T13:30:05Z</time>
      </trkpt>
      <trkpt lat="45.72395" lon="4.55162">
        <ele>735.8</ele>
        <time>2022-06-26T13:30:06Z</time>
      </trkpt>
      <trkpt lat="45.72394" lon="4.55161">
        <ele>736.2</ele>
        <time>2022-06-26T13:30:07Z</time>
      </trkpt>
      <trkpt lat="45.72392" lon="4.5516">
        <ele>736.4</ele>
        <time>2022-06-26T13:30:08Z</time>
      </trkpt>
      <trkpt lat="45.7239" lon="4.55159">
        <ele>736.4</ele>
        <time>2022-06-26T13:30:09Z</time>
      </trkpt>
      <trkpt lat="45.72388" lon="4.55157">
        <ele>736.8</ele>
        <time>2022-06-26T13:30:10Z</time>
      </trkpt>
      <trkpt lat="45.72387" lon="4.55155">
        <ele>736.8</ele>
        <time>2022-06-26T13:30:11Z</time>
      </trkpt>
      <trkpt lat="45.72385" lon="4.55153">
        <ele>737</ele>
        <time>2022-06-26T13:30:12Z</time>
      </trkpt>
      <trkpt lat="45.72383" lon="4.55151">
        <ele>737</ele>
        <time>2022-06-26T13:30:13Z</time>
      </trkpt>
      <trkpt lat="45.72382" lon="4.55149">
        <ele>737.4</ele>
        <time>2022-06-26T13:30:14Z</time>
      </trkpt>
      <trkpt lat="45.7238" lon="4.55147">
        <ele>737.6</ele>
        <time>2022-06-26T13:30:15Z</time>
      </trkpt>
      <trkpt lat="45.72378" lon="4.55146">
        <ele>737.8</ele>
        <time>2022-06-26T13:30:16Z</time>
      </trkpt>
      <trkpt lat="45.72376" lon="4.55144">
        <ele>737.8</ele>
        <time>2022-06-26T13:30:17Z</time>
      </trkpt>
      <trkpt lat="45.72375" lon="4.55143">
        <ele>738.2</ele>
        <time>2022-06-26T13:30:18Z</time>
      </trkpt>
      <trkpt lat="45.72373" lon="4.55142">
        <ele>738.2</ele>
        <time>2022-06-26T13:30:19Z</time>
      </trkpt>
      <trkpt lat="45.72371" lon="4.55141">
        <ele>738.6</ele>
        <time>2022-06-26T13:30:20Z</time>
      </trkpt>
      <trkpt lat="45.72369" lon="4.55139">
        <ele>738.8</ele>
        <time>2022-06-26T13:30:21Z</time>
      </trkpt>
      <trkpt lat="45.72367" lon="4.55138">
        <ele>738.8</ele>
        <time>2022-06-26T13:30:22Z</time>
      </trkpt>
      <trkpt lat="45.72365" lon="4.55137">
        <ele>739</ele>
        <time>2022-06-26T13:30:23Z</time>
      </trkpt>
      <trkpt lat="45.72362" lon="4.55136">
        <ele>739</ele>
        <time>2022-06-26T13:30:24Z</time>
      </trkpt>
      <trkpt lat="45.7236" lon="4.55135">
        <ele>739.4</ele>
        <time>2022-06-26T13:30:25Z</time>
      </trkpt>
      <trkpt lat="45.72357" lon="4.55133">
        <ele>739.6</ele>
        <time>2022-06-26T13:30:26Z</time>
      </trkpt>
      <trkpt lat="45.72355" lon="4.55132">
        <ele>739.6</ele>
        <time>2022-06-26T13:30:27Z</time>
      </trkpt>
      <trkpt lat="45.72353" lon="4.55131">
        <ele>740</ele>
        <time>2022-06-26T13:30:28Z</time>
      </trkpt>
      <trkpt lat="45.72351" lon="4.55129">
        <ele>740</ele>
        <time>2022-06-26T13:30:29Z</time>
      </trkpt>
      <trkpt lat="45.72349" lon="4.55128">
        <ele>740.2</ele>
        <time>2022-06-26T13:30:30Z</time>
      </trkpt>
      <trkpt lat="45.72347" lon="4.55127">
        <ele>740.2</ele>
        <time>2022-06-26T13:30:31Z</time>
      </trkpt>
      <trkpt lat="45.72344" lon="4.55126">
        <ele>740.6</ele>
        <time>2022-06-26T13:30:32Z</time>
      </trkpt>
      <trkpt lat="45.72342" lon="4.55125">
        <ele>740.6</ele>
        <time>2022-06-26T13:30:33Z</time>
      </trkpt>
      <trkpt lat="45.7234" lon="4.55125">
        <ele>740.8</ele>
        <time>2022-06-26T13:30:34Z</time>
      </trkpt>
      <trkpt lat="45.72338" lon="4.55124">
        <ele>741</ele>
        <time>2022-06-26T13:30:35Z</time>
      </trkpt>
      <trkpt lat="45.72336" lon="4.55124">
        <ele>741</ele>
        <time>2022-06-26T13:30:36Z</time>
      </trkpt>
      <trkpt lat="45.72335" lon="4.55123">
        <ele>741.4</ele>
        <time>2022-06-26T13:30:37Z</time>
      </trkpt>
      <trkpt lat="45.72333" lon="4.55123">
        <ele>741.4</ele>
        <time>2022-06-26T13:30:38Z</time>
      </trkpt>
      <trkpt lat="45.72331" lon="4.55123">
        <ele>741.8</ele>
        <time>2022-06-26T13:30:39Z</time>
      </trkpt>
      <trkpt lat="45.72329" lon="4.55122">
        <ele>741.8</ele>
        <time>2022-06-26T13:30:40Z</time>
      </trkpt>
      <trkpt lat="45.72327" lon="4.55122">
        <ele>742</ele>
        <time>2022-06-26T13:30:41Z</time>
      </trkpt>
      <trkpt lat="45.72325" lon="4.55122">
        <ele>742</ele>
        <time>2022-06-26T13:30:42Z</time>
      </trkpt>
      <trkpt lat="45.72323" lon="4.55121">
        <ele>742.4</ele>
        <time>2022-06-26T13:30:43Z</time>
      </trkpt>
      <trkpt lat="45.72321" lon="4.55121">
        <ele>742.4</ele>
        <time>2022-06-26T13:30:44Z</time>
      </trkpt>
      <trkpt lat="45.72318" lon="4.55121">
        <ele>742.6</ele>
        <time>2022-06-26T13:30:45Z</time>
      </trkpt>
      <trkpt lat="45.72316" lon="4.55122">
        <ele>742.8</ele>
        <time>2022-06-26T13:30:46Z</time>
      </trkpt>
      <trkpt lat="45.72314" lon="4.55121">
        <ele>742.8</ele>
        <time>2022-06-26T13:30:47Z</time>
      </trkpt>
      <trkpt lat="45.72312" lon="4.55121">
        <ele>743.2</ele>
        <time>2022-06-26T13:30:48Z</time>
      </trkpt>
      <trkpt lat="45.7231" lon="4.55121">
        <ele>743.2</ele>
        <time>2022-06-26T13:30:49Z</time>
      </trkpt>
      <trkpt lat="45.72308" lon="4.55121">
        <ele>743.6</ele>
        <time>2022-06-26T13:30:50Z</time>
      </trkpt>
      <trkpt lat="45.72306" lon="4.55121">
        <ele>743.6</ele>
        <time>2022-06-26T13:30:51Z</time>
      </trkpt>
      <trkpt lat="45.72303" lon="4.55122">
        <ele>744</ele>
        <time>2022-06-26T13:30:52Z</time>
      </trkpt>
      <trkpt lat="45.72301" lon="4.55122">
        <ele>744</ele>
        <time>2022-06-26T13:30:53Z</time>
      </trkpt>
      <trkpt lat="45.72299" lon="4.55122">
        <ele>744.2</ele>
        <time>2022-06-26T13:30:54Z</time>
      </trkpt>
      <trkpt lat="45.72297" lon="4.55122">
        <ele>744.2</ele>
        <time>2022-06-26T13:30:55Z</time>
      </trkpt>
      <trkpt lat="45.72295" lon="4.55122">
        <ele>744.2</ele>
        <time>2022-06-26T13:30:56Z</time>
      </trkpt>
      <trkpt lat="45.72293" lon="4.55122">
        <ele>744.6</ele>
        <time>2022-06-26T13:30:57Z</time>
      </trkpt>
      <trkpt lat="45.72291" lon="4.55122">
        <ele>744.8</ele>
        <time>2022-06-26T13:30:58Z</time>
      </trkpt>
      <trkpt lat="45.72289" lon="4.55122">
        <ele>745</ele>
        <time>2022-06-26T13:30:59Z</time>
      </trkpt>
      <trkpt lat="45.72288" lon="4.55123">
        <ele>745</ele>
        <time>2022-06-26T13:31:00Z</time>
      </trkpt>
      <trkpt lat="45.72286" lon="4.55123">
        <ele>745.4</ele>
        <time>2022-06-26T13:31:01Z</time>
      </trkpt>
      <trkpt lat="45.72284" lon="4.55123">
        <ele>745.4</ele>
        <time>2022-06-26T13:31:02Z</time>
      </trkpt>
      <trkpt lat="45.72282" lon="4.55123">
        <ele>745.6</ele>
        <time>2022-06-26T13:31:03Z</time>
      </trkpt>
      <trkpt lat="45.7228" lon="4.55124">
        <ele>745.6</ele>
        <time>2022-06-26T13:31:04Z</time>
      </trkpt>
      <trkpt lat="45.72278" lon="4.55124">
        <ele>746</ele>
        <time>2022-06-26T13:31:05Z</time>
      </trkpt>
      <trkpt lat="45.72277" lon="4.55125">
        <ele>746</ele>
        <time>2022-06-26T13:31:06Z</time>
      </trkpt>
      <trkpt lat="45.72275" lon="4.55125">
        <ele>746.2</ele>
        <time>2022-06-26T13:31:07Z</time>
      </trkpt>
      <trkpt lat="45.72273" lon="4.55125">
        <ele>746.2</ele>
        <time>2022-06-26T13:31:08Z</time>
      </trkpt>
      <trkpt lat="45.72271" lon="4.55125">
        <ele>746.4</ele>
        <time>2022-06-26T13:31:09Z</time>
      </trkpt>
      <trkpt lat="45.72269" lon="4.55125">
        <ele>746.4</ele>
        <time>2022-06-26T13:31:10Z</time>
      </trkpt>
      <trkpt lat="45.72267" lon="4.55124">
        <ele>746.8</ele>
        <time>2022-06-26T13:31:11Z</time>
      </trkpt>
      <trkpt lat="45.72265" lon="4.55124">
        <ele>746.8</ele>
        <time>2022-06-26T13:31:12Z</time>
      </trkpt>
      <trkpt lat="45.72264" lon="4.55124">
        <ele>747</ele>
        <time>2022-06-26T13:31:13Z</time>
      </trkpt>
      <trkpt lat="45.72262" lon="4.55124">
        <ele>747.2</ele>
        <time>2022-06-26T13:31:14Z</time>
      </trkpt>
      <trkpt lat="45.7226" lon="4.55124">
        <ele>747.4</ele>
        <time>2022-06-26T13:31:15Z</time>
      </trkpt>
      <trkpt lat="45.72258" lon="4.55123">
        <ele>747.8</ele>
        <time>2022-06-26T13:31:16Z</time>
      </trkpt>
      <trkpt lat="45.72256" lon="4.55123">
        <ele>747.8</ele>
        <time>2022-06-26T13:31:17Z</time>
      </trkpt>
      <trkpt lat="45.72254" lon="4.55123">
        <ele>748.2</ele>
        <time>2022-06-26T13:31:18Z</time>
      </trkpt>
      <trkpt lat="45.72252" lon="4.55123">
        <ele>748.4</ele>
        <time>2022-06-26T13:31:19Z</time>
      </trkpt>
      <trkpt lat="45.7225" lon="4.55123">
        <ele>748.4</ele>
        <time>2022-06-26T13:31:20Z</time>
      </trkpt>
      <trkpt lat="45.72248" lon="4.55123">
        <ele>748.8</ele>
        <time>2022-06-26T13:31:21Z</time>
      </trkpt>
      <trkpt lat="45.72246" lon="4.55123">
        <ele>749</ele>
        <time>2022-06-26T13:31:22Z</time>
      </trkpt>
      <trkpt lat="45.72245" lon="4.55123">
        <ele>749.2</ele>
        <time>2022-06-26T13:31:23Z</time>
      </trkpt>
      <trkpt lat="45.72243" lon="4.55123">
        <ele>749.4</ele>
        <time>2022-06-26T13:31:24Z</time>
      </trkpt>
      <trkpt lat="45.72241" lon="4.55123">
        <ele>749.8</ele>
        <time>2022-06-26T13:31:25Z</time>
      </trkpt>
      <trkpt lat="45.72239" lon="4.55122">
        <ele>750</ele>
        <time>2022-06-26T13:31:26Z</time>
      </trkpt>
      <trkpt lat="45.72238" lon="4.55122">
        <ele>750</ele>
        <time>2022-06-26T13:31:27Z</time>
      </trkpt>
      <trkpt lat="45.72236" lon="4.55121">
        <ele>750.4</ele>
        <time>2022-06-26T13:31:28Z</time>
      </trkpt>
      <trkpt lat="45.72234" lon="4.55121">
        <ele>750.6</ele>
        <time>2022-06-26T13:31:29Z</time>
      </trkpt>
      <trkpt lat="45.72233" lon="4.55121">
        <ele>750.8</ele>
        <time>2022-06-26T13:31:30Z</time>
      </trkpt>
      <trkpt lat="45.72231" lon="4.5512">
        <ele>750.8</ele>
        <time>2022-06-26T13:31:31Z</time>
      </trkpt>
      <trkpt lat="45.72229" lon="4.5512">
        <ele>750.8</ele>
        <time>2022-06-26T13:31:32Z</time>
      </trkpt>
      <trkpt lat="45.72227" lon="4.55121">
        <ele>750.8</ele>
        <time>2022-06-26T13:31:33Z</time>
      </trkpt>
      <trkpt lat="45.72226" lon="4.55123">
        <ele>751</ele>
        <time>2022-06-26T13:31:34Z</time>
      </trkpt>
      <trkpt lat="45.72225" lon="4.55125">
        <ele>751</ele>
        <time>2022-06-26T13:31:35Z</time>
      </trkpt>
      <trkpt lat="45.72225" lon="4.55128">
        <ele>751</ele>
        <time>2022-06-26T13:31:36Z</time>
      </trkpt>
      <trkpt lat="45.72226" lon="4.55131">
        <ele>751.4</ele>
        <time>2022-06-26T13:31:37Z</time>
      </trkpt>
      <trkpt lat="45.72227" lon="4.55133">
        <ele>751.4</ele>
        <time>2022-06-26T13:31:38Z</time>
      </trkpt>
      <trkpt lat="45.72229" lon="4.55135">
        <ele>751.6</ele>
        <time>2022-06-26T13:31:39Z</time>
      </trkpt>
      <trkpt lat="45.7223" lon="4.55137">
        <ele>751.6</ele>
        <time>2022-06-26T13:31:40Z</time>
      </trkpt>
      <trkpt lat="45.72232" lon="4.55138">
        <ele>751.6</ele>
        <time>2022-06-26T13:31:41Z</time>
      </trkpt>
      <trkpt lat="45.72234" lon="4.5514">
        <ele>752</ele>
        <time>2022-06-26T13:31:42Z</time>
      </trkpt>
      <trkpt lat="45.72237" lon="4.55141">
        <ele>752</ele>
        <time>2022-06-26T13:31:43Z</time>
      </trkpt>
      <trkpt lat="45.72239" lon="4.55142">
        <ele>752.2</ele>
        <time>2022-06-26T13:31:44Z</time>
      </trkpt>
      <trkpt lat="45.72241" lon="4.55143">
        <ele>752.2</ele>
        <time>2022-06-26T13:31:45Z</time>
      </trkpt>
      <trkpt lat="45.72243" lon="4.55144">
        <ele>752.4</ele>
        <time>2022-06-26T13:31:46Z</time>
      </trkpt>
      <trkpt lat="45.72245" lon="4.55145">
        <ele>752.4</ele>
        <time>2022-06-26T13:31:47Z</time>
      </trkpt>
      <trkpt lat="45.72248" lon="4.55146">
        <ele>752.6</ele>
        <time>2022-06-26T13:31:48Z</time>
      </trkpt>
      <trkpt lat="45.7225" lon="4.55147">
        <ele>752.6</ele>
        <time>2022-06-26T13:31:49Z</time>
      </trkpt>
      <trkpt lat="45.72252" lon="4.55148">
        <ele>753</ele>
        <time>2022-06-26T13:31:50Z</time>
      </trkpt>
      <trkpt lat="45.72254" lon="4.55149">
        <ele>753</ele>
        <time>2022-06-26T13:31:51Z</time>
      </trkpt>
      <trkpt lat="45.72257" lon="4.5515">
        <ele>753.2</ele>
        <time>2022-06-26T13:31:52Z</time>
      </trkpt>
      <trkpt lat="45.72259" lon="4.5515">
        <ele>753.2</ele>
        <time>2022-06-26T13:31:53Z</time>
      </trkpt>
      <trkpt lat="45.72262" lon="4.55151">
        <ele>753.2</ele>
        <time>2022-06-26T13:31:54Z</time>
      </trkpt>
      <trkpt lat="45.72264" lon="4.55152">
        <ele>753.6</ele>
        <time>2022-06-26T13:31:55Z</time>
      </trkpt>
      <trkpt lat="45.72266" lon="4.55152">
        <ele>753.6</ele>
        <time>2022-06-26T13:31:56Z</time>
      </trkpt>
      <trkpt lat="45.72268" lon="4.55153">
        <ele>753.6</ele>
        <time>2022-06-26T13:31:57Z</time>
      </trkpt>
      <trkpt lat="45.7227" lon="4.55153">
        <ele>753.8</ele>
        <time>2022-06-26T13:31:58Z</time>
      </trkpt>
      <trkpt lat="45.72272" lon="4.55154">
        <ele>753.8</ele>
        <time>2022-06-26T13:31:59Z</time>
      </trkpt>
      <trkpt lat="45.72274" lon="4.55155">
        <ele>754</ele>
        <time>2022-06-26T13:32:00Z</time>
      </trkpt>
      <trkpt lat="45.72276" lon="4.55156">
        <ele>754</ele>
        <time>2022-06-26T13:32:01Z</time>
      </trkpt>
      <trkpt lat="45.72278" lon="4.55157">
        <ele>754</ele>
        <time>2022-06-26T13:32:02Z</time>
      </trkpt>
      <trkpt lat="45.7228" lon="4.55158">
        <ele>754.2</ele>
        <time>2022-06-26T13:32:03Z</time>
      </trkpt>
      <trkpt lat="45.72283" lon="4.55159">
        <ele>754.2</ele>
        <time>2022-06-26T13:32:04Z</time>
      </trkpt>
      <trkpt lat="45.72285" lon="4.55159">
        <ele>754.4</ele>
        <time>2022-06-26T13:32:05Z</time>
      </trkpt>
      <trkpt lat="45.72287" lon="4.5516">
        <ele>754.4</ele>
        <time>2022-06-26T13:32:06Z</time>
      </trkpt>
      <trkpt lat="45.7229" lon="4.55161">
        <ele>754.8</ele>
        <time>2022-06-26T13:32:07Z</time>
      </trkpt>
      <trkpt lat="45.72292" lon="4.55161">
        <ele>754.8</ele>
        <time>2022-06-26T13:32:08Z</time>
      </trkpt>
      <trkpt lat="45.72294" lon="4.55162">
        <ele>755</ele>
        <time>2022-06-26T13:32:09Z</time>
      </trkpt>
      <trkpt lat="45.72296" lon="4.55163">
        <ele>755</ele>
        <time>2022-06-26T13:32:10Z</time>
      </trkpt>
      <trkpt lat="45.72299" lon="4.55164">
        <ele>755.4</ele>
        <time>2022-06-26T13:32:11Z</time>
      </trkpt>
      <trkpt lat="45.72302" lon="4.55166">
        <ele>755.4</ele>
        <time>2022-06-26T13:32:12Z</time>
      </trkpt>
      <trkpt lat="45.72304" lon="4.55167">
        <ele>755.6</ele>
        <time>2022-06-26T13:32:13Z</time>
      </trkpt>
      <trkpt lat="45.72306" lon="4.55168">
        <ele>755.6</ele>
        <time>2022-06-26T13:32:14Z</time>
      </trkpt>
      <trkpt lat="45.72309" lon="4.55169">
        <ele>755.8</ele>
        <time>2022-06-26T13:32:15Z</time>
      </trkpt>
      <trkpt lat="45.72311" lon="4.5517">
        <ele>755.8</ele>
        <time>2022-06-26T13:32:16Z</time>
      </trkpt>
      <trkpt lat="45.72313" lon="4.55172">
        <ele>756.2</ele>
        <time>2022-06-26T13:32:17Z</time>
      </trkpt>
      <trkpt lat="45.72316" lon="4.55173">
        <ele>756.4</ele>
        <time>2022-06-26T13:32:18Z</time>
      </trkpt>
      <trkpt lat="45.72318" lon="4.55175">
        <ele>756.4</ele>
        <time>2022-06-26T13:32:19Z</time>
      </trkpt>
      <trkpt lat="45.72321" lon="4.55176">
        <ele>756.6</ele>
        <time>2022-06-26T13:32:20Z</time>
      </trkpt>
      <trkpt lat="45.72324" lon="4.55177">
        <ele>756.6</ele>
        <time>2022-06-26T13:32:21Z</time>
      </trkpt>
      <trkpt lat="45.72327" lon="4.55178">
        <ele>756.8</ele>
        <time>2022-06-26T13:32:22Z</time>
      </trkpt>
      <trkpt lat="45.72329" lon="4.5518">
        <ele>756.8</ele>
        <time>2022-06-26T13:32:23Z</time>
      </trkpt>
      <trkpt lat="45.72331" lon="4.55181">
        <ele>757</ele>
        <time>2022-06-26T13:32:24Z</time>
      </trkpt>
      <trkpt lat="45.72333" lon="4.55183">
        <ele>757</ele>
        <time>2022-06-26T13:32:25Z</time>
      </trkpt>
      <trkpt lat="45.72335" lon="4.55184">
        <ele>757.2</ele>
        <time>2022-06-26T13:32:26Z</time>
      </trkpt>
      <trkpt lat="45.72338" lon="4.55185">
        <ele>757.2</ele>
        <time>2022-06-26T13:32:27Z</time>
      </trkpt>
      <trkpt lat="45.7234" lon="4.55187">
        <ele>757.6</ele>
        <time>2022-06-26T13:32:28Z</time>
      </trkpt>
      <trkpt lat="45.72342" lon="4.55189">
        <ele>757.6</ele>
        <time>2022-06-26T13:32:29Z</time>
      </trkpt>
      <trkpt lat="45.72344" lon="4.5519">
        <ele>758</ele>
        <time>2022-06-26T13:32:30Z</time>
      </trkpt>
      <trkpt lat="45.72347" lon="4.55192">
        <ele>758.2</ele>
        <time>2022-06-26T13:32:31Z</time>
      </trkpt>
      <trkpt lat="45.72349" lon="4.55194">
        <ele>758.2</ele>
        <time>2022-06-26T13:32:32Z</time>
      </trkpt>
      <trkpt lat="45.7235" lon="4.55197">
        <ele>758.4</ele>
        <time>2022-06-26T13:32:33Z</time>
      </trkpt>
      <trkpt lat="45.72353" lon="4.55199">
        <ele>758.6</ele>
        <time>2022-06-26T13:32:34Z</time>
      </trkpt>
      <trkpt lat="45.72354" lon="4.55202">
        <ele>758.6</ele>
        <time>2022-06-26T13:32:35Z</time>
      </trkpt>
      <trkpt lat="45.72356" lon="4.55204">
        <ele>759</ele>
        <time>2022-06-26T13:32:36Z</time>
      </trkpt>
      <trkpt lat="45.72359" lon="4.55207">
        <ele>759</ele>
        <time>2022-06-26T13:32:37Z</time>
      </trkpt>
      <trkpt lat="45.72361" lon="4.55211">
        <ele>759.2</ele>
        <time>2022-06-26T13:32:38Z</time>
      </trkpt>
      <trkpt lat="45.72363" lon="4.55214">
        <ele>759.2</ele>
        <time>2022-06-26T13:32:39Z</time>
      </trkpt>
      <trkpt lat="45.72365" lon="4.55216">
        <ele>759.4</ele>
        <time>2022-06-26T13:32:40Z</time>
      </trkpt>
      <trkpt lat="45.72367" lon="4.55219">
        <ele>759.4</ele>
        <time>2022-06-26T13:32:41Z</time>
      </trkpt>
      <trkpt lat="45.72369" lon="4.55222">
        <ele>759.6</ele>
        <time>2022-06-26T13:32:42Z</time>
      </trkpt>
      <trkpt lat="45.72371" lon="4.55224">
        <ele>759.6</ele>
        <time>2022-06-26T13:32:43Z</time>
      </trkpt>
      <trkpt lat="45.72372" lon="4.55227">
        <ele>760</ele>
        <time>2022-06-26T13:32:44Z</time>
      </trkpt>
      <trkpt lat="45.72374" lon="4.5523">
        <ele>760</ele>
        <time>2022-06-26T13:32:45Z</time>
      </trkpt>
      <trkpt lat="45.72375" lon="4.55233">
        <ele>760.2</ele>
        <time>2022-06-26T13:32:46Z</time>
      </trkpt>
      <trkpt lat="45.72376" lon="4.55236">
        <ele>760.2</ele>
        <time>2022-06-26T13:32:47Z</time>
      </trkpt>
      <trkpt lat="45.72378" lon="4.55239">
        <ele>760.4</ele>
        <time>2022-06-26T13:32:48Z</time>
      </trkpt>
      <trkpt lat="45.7238" lon="4.55242">
        <ele>760.4</ele>
        <time>2022-06-26T13:32:49Z</time>
      </trkpt>
      <trkpt lat="45.72382" lon="4.55245">
        <ele>760.8</ele>
        <time>2022-06-26T13:32:50Z</time>
      </trkpt>
      <trkpt lat="45.72383" lon="4.55247">
        <ele>760.8</ele>
        <time>2022-06-26T13:32:51Z</time>
      </trkpt>
      <trkpt lat="45.72385" lon="4.5525">
        <ele>761</ele>
        <time>2022-06-26T13:32:52Z</time>
      </trkpt>
      <trkpt lat="45.72387" lon="4.55254">
        <ele>761</ele>
        <time>2022-06-26T13:32:53Z</time>
      </trkpt>
      <trkpt lat="45.72388" lon="4.55257">
        <ele>761.2</ele>
        <time>2022-06-26T13:32:54Z</time>
      </trkpt>
      <trkpt lat="45.7239" lon="4.5526">
        <ele>761.2</ele>
        <time>2022-06-26T13:32:55Z</time>
      </trkpt>
      <trkpt lat="45.72391" lon="4.55263">
        <ele>761.2</ele>
        <time>2022-06-26T13:32:56Z</time>
      </trkpt>
      <trkpt lat="45.72393" lon="4.55266">
        <ele>761.6</ele>
        <time>2022-06-26T13:32:57Z</time>
      </trkpt>
      <trkpt lat="45.72394" lon="4.55268">
        <ele>761.6</ele>
        <time>2022-06-26T13:32:58Z</time>
      </trkpt>
      <trkpt lat="45.72395" lon="4.55271">
        <ele>761.8</ele>
        <time>2022-06-26T13:32:59Z</time>
      </trkpt>
      <trkpt lat="45.72396" lon="4.55274">
        <ele>761.8</ele>
        <time>2022-06-26T13:33:00Z</time>
      </trkpt>
      <trkpt lat="45.72397" lon="4.55276">
        <ele>762.2</ele>
        <time>2022-06-26T13:33:01Z</time>
      </trkpt>
      <trkpt lat="45.72398" lon="4.55279">
        <ele>762.2</ele>
        <time>2022-06-26T13:33:02Z</time>
      </trkpt>
      <trkpt lat="45.724" lon="4.55282">
        <ele>762.4</ele>
        <time>2022-06-26T13:33:03Z</time>
      </trkpt>
      <trkpt lat="45.72401" lon="4.55284">
        <ele>762.4</ele>
        <time>2022-06-26T13:33:04Z</time>
      </trkpt>
      <trkpt lat="45.72403" lon="4.55287">
        <ele>762.8</ele>
        <time>2022-06-26T13:33:05Z</time>
      </trkpt>
      <trkpt lat="45.72405" lon="4.5529">
        <ele>762.8</ele>
        <time>2022-06-26T13:33:06Z</time>
      </trkpt>
      <trkpt lat="45.72407" lon="4.55294">
        <ele>763</ele>
        <time>2022-06-26T13:33:07Z</time>
      </trkpt>
      <trkpt lat="45.72408" lon="4.55298">
        <ele>763</ele>
        <time>2022-06-26T13:33:08Z</time>
      </trkpt>
      <trkpt lat="45.72409" lon="4.55301">
        <ele>763.4</ele>
        <time>2022-06-26T13:33:09Z</time>
      </trkpt>
      <trkpt lat="45.7241" lon="4.55304">
        <ele>763.4</ele>
        <time>2022-06-26T13:33:10Z</time>
      </trkpt>
      <trkpt lat="45.72411" lon="4.55307">
        <ele>763.6</ele>
        <time>2022-06-26T13:33:11Z</time>
      </trkpt>
      <trkpt lat="45.72412" lon="4.5531">
        <ele>763.6</ele>
        <time>2022-06-26T13:33:12Z</time>
      </trkpt>
      <trkpt lat="45.72413" lon="4.55314">
        <ele>763.8</ele>
        <time>2022-06-26T13:33:13Z</time>
      </trkpt>
      <trkpt lat="45.72414" lon="4.55318">
        <ele>763.8</ele>
        <time>2022-06-26T13:33:14Z</time>
      </trkpt>
      <trkpt lat="45.72415" lon="4.55321">
        <ele>764.2</ele>
        <time>2022-06-26T13:33:15Z</time>
      </trkpt>
      <trkpt lat="45.72417" lon="4.55326">
        <ele>764.2</ele>
        <time>2022-06-26T13:33:16Z</time>
      </trkpt>
      <trkpt lat="45.72417" lon="4.5533">
        <ele>764.2</ele>
        <time>2022-06-26T13:33:17Z</time>
      </trkpt>
      <trkpt lat="45.72418" lon="4.55334">
        <ele>764.4</ele>
        <time>2022-06-26T13:33:18Z</time>
      </trkpt>
      <trkpt lat="45.72419" lon="4.55339">
        <ele>764.4</ele>
        <time>2022-06-26T13:33:19Z</time>
      </trkpt>
      <trkpt lat="45.72419" lon="4.55344">
        <ele>764.8</ele>
        <time>2022-06-26T13:33:20Z</time>
      </trkpt>
      <trkpt lat="45.7242" lon="4.55348">
        <ele>764.8</ele>
        <time>2022-06-26T13:33:21Z</time>
      </trkpt>
      <trkpt lat="45.72419" lon="4.55353">
        <ele>764.8</ele>
        <time>2022-06-26T13:33:22Z</time>
      </trkpt>
      <trkpt lat="45.72419" lon="4.55358">
        <ele>765</ele>
        <time>2022-06-26T13:33:23Z</time>
      </trkpt>
      <trkpt lat="45.72419" lon="4.55362">
        <ele>765</ele>
        <time>2022-06-26T13:33:24Z</time>
      </trkpt>
      <trkpt lat="45.72418" lon="4.55367">
        <ele>765.2</ele>
        <time>2022-06-26T13:33:25Z</time>
      </trkpt>
      <trkpt lat="45.72417" lon="4.55371">
        <ele>765.2</ele>
        <time>2022-06-26T13:33:26Z</time>
      </trkpt>
      <trkpt lat="45.72417" lon="4.55375">
        <ele>765.6</ele>
        <time>2022-06-26T13:33:27Z</time>
      </trkpt>
      <trkpt lat="45.72416" lon="4.55379">
        <ele>765.8</ele>
        <time>2022-06-26T13:33:28Z</time>
      </trkpt>
      <trkpt lat="45.72416" lon="4.55384">
        <ele>765.8</ele>
        <time>2022-06-26T13:33:29Z</time>
      </trkpt>
      <trkpt lat="45.72415" lon="4.55387">
        <ele>766</ele>
        <time>2022-06-26T13:33:30Z</time>
      </trkpt>
      <trkpt lat="45.72415" lon="4.55391">
        <ele>766.2</ele>
        <time>2022-06-26T13:33:31Z</time>
      </trkpt>
      <trkpt lat="45.72414" lon="4.55394">
        <ele>766.2</ele>
        <time>2022-06-26T13:33:32Z</time>
      </trkpt>
      <trkpt lat="45.72413" lon="4.55398">
        <ele>766.2</ele>
        <time>2022-06-26T13:33:33Z</time>
      </trkpt>
      <trkpt lat="45.72412" lon="4.55401">
        <ele>766.6</ele>
        <time>2022-06-26T13:33:34Z</time>
      </trkpt>
      <trkpt lat="45.72411" lon="4.55405">
        <ele>766.6</ele>
        <time>2022-06-26T13:33:35Z</time>
      </trkpt>
      <trkpt lat="45.7241" lon="4.55409">
        <ele>766.8</ele>
        <time>2022-06-26T13:33:36Z</time>
      </trkpt>
      <trkpt lat="45.72409" lon="4.55413">
        <ele>766.8</ele>
        <time>2022-06-26T13:33:37Z</time>
      </trkpt>
      <trkpt lat="45.72408" lon="4.55417">
        <ele>767</ele>
        <time>2022-06-26T13:33:38Z</time>
      </trkpt>
      <trkpt lat="45.72406" lon="4.55421">
        <ele>767</ele>
        <time>2022-06-26T13:33:39Z</time>
      </trkpt>
      <trkpt lat="45.72405" lon="4.55425">
        <ele>767.4</ele>
        <time>2022-06-26T13:33:40Z</time>
      </trkpt>
      <trkpt lat="45.72403" lon="4.55429">
        <ele>767.4</ele>
        <time>2022-06-26T13:33:41Z</time>
      </trkpt>
      <trkpt lat="45.72402" lon="4.55433">
        <ele>767.6</ele>
        <time>2022-06-26T13:33:42Z</time>
      </trkpt>
      <trkpt lat="45.724" lon="4.55437">
        <ele>767.6</ele>
        <time>2022-06-26T13:33:43Z</time>
      </trkpt>
      <trkpt lat="45.72399" lon="4.5544">
        <ele>767.8</ele>
        <time>2022-06-26T13:33:44Z</time>
      </trkpt>
      <trkpt lat="45.72397" lon="4.55443">
        <ele>767.8</ele>
        <time>2022-06-26T13:33:45Z</time>
      </trkpt>
      <trkpt lat="45.72395" lon="4.55447">
        <ele>767.8</ele>
        <time>2022-06-26T13:33:46Z</time>
      </trkpt>
      <trkpt lat="45.72392" lon="4.5545">
        <ele>768.2</ele>
        <time>2022-06-26T13:33:47Z</time>
      </trkpt>
      <trkpt lat="45.7239" lon="4.55452">
        <ele>768.2</ele>
        <time>2022-06-26T13:33:48Z</time>
      </trkpt>
      <trkpt lat="45.72388" lon="4.55455">
        <ele>768.2</ele>
        <time>2022-06-26T13:33:49Z</time>
      </trkpt>
      <trkpt lat="45.72386" lon="4.55458">
        <ele>768.4</ele>
        <time>2022-06-26T13:33:50Z</time>
      </trkpt>
      <trkpt lat="45.72384" lon="4.5546">
        <ele>768.4</ele>
        <time>2022-06-26T13:33:51Z</time>
      </trkpt>
      <trkpt lat="45.72381" lon="4.55462">
        <ele>768.8</ele>
        <time>2022-06-26T13:33:52Z</time>
      </trkpt>
      <trkpt lat="45.72379" lon="4.55463">
        <ele>768.8</ele>
        <time>2022-06-26T13:33:53Z</time>
      </trkpt>
      <trkpt lat="45.72377" lon="4.55465">
        <ele>769.2</ele>
        <time>2022-06-26T13:33:54Z</time>
      </trkpt>
      <trkpt lat="45.72375" lon="4.55466">
        <ele>769.2</ele>
        <time>2022-06-26T13:33:55Z</time>
      </trkpt>
      <trkpt lat="45.72373" lon="4.55467">
        <ele>769.4</ele>
        <time>2022-06-26T13:33:56Z</time>
      </trkpt>
      <trkpt lat="45.72371" lon="4.55468">
        <ele>769.4</ele>
        <time>2022-06-26T13:33:57Z</time>
      </trkpt>
      <trkpt lat="45.72368" lon="4.55468">
        <ele>769.8</ele>
        <time>2022-06-26T13:33:58Z</time>
      </trkpt>
      <trkpt lat="45.72366" lon="4.55469">
        <ele>769.8</ele>
        <time>2022-06-26T13:33:59Z</time>
      </trkpt>
      <trkpt lat="45.72364" lon="4.55468">
        <ele>770</ele>
        <time>2022-06-26T13:34:00Z</time>
      </trkpt>
      <trkpt lat="45.72362" lon="4.55469">
        <ele>770</ele>
        <time>2022-06-26T13:34:01Z</time>
      </trkpt>
      <trkpt lat="45.7236" lon="4.55469">
        <ele>770.4</ele>
        <time>2022-06-26T13:34:02Z</time>
      </trkpt>
      <trkpt lat="45.72357" lon="4.5547">
        <ele>770.4</ele>
        <time>2022-06-26T13:34:03Z</time>
      </trkpt>
      <trkpt lat="45.72355" lon="4.5547">
        <ele>770.6</ele>
        <time>2022-06-26T13:34:04Z</time>
      </trkpt>
      <trkpt lat="45.72353" lon="4.5547">
        <ele>770.6</ele>
        <time>2022-06-26T13:34:05Z</time>
      </trkpt>
      <trkpt lat="45.7235" lon="4.5547">
        <ele>771</ele>
        <time>2022-06-26T13:34:06Z</time>
      </trkpt>
      <trkpt lat="45.72348" lon="4.55471">
        <ele>771</ele>
        <time>2022-06-26T13:34:07Z</time>
      </trkpt>
      <trkpt lat="45.72346" lon="4.55473">
        <ele>771.2</ele>
        <time>2022-06-26T13:34:08Z</time>
      </trkpt>
      <trkpt lat="45.72344" lon="4.55474">
        <ele>771.2</ele>
        <time>2022-06-26T13:34:09Z</time>
      </trkpt>
      <trkpt lat="45.72342" lon="4.55475">
        <ele>771.6</ele>
        <time>2022-06-26T13:34:10Z</time>
      </trkpt>
      <trkpt lat="45.72339" lon="4.55476">
        <ele>771.6</ele>
        <time>2022-06-26T13:34:11Z</time>
      </trkpt>
      <trkpt lat="45.72337" lon="4.55476">
        <ele>771.8</ele>
        <time>2022-06-26T13:34:12Z</time>
      </trkpt>
      <trkpt lat="45.72336" lon="4.55478">
        <ele>771.8</ele>
        <time>2022-06-26T13:34:13Z</time>
      </trkpt>
      <trkpt lat="45.72334" lon="4.55479">
        <ele>771.8</ele>
        <time>2022-06-26T13:34:14Z</time>
      </trkpt>
      <trkpt lat="45.72332" lon="4.55479">
        <ele>772.2</ele>
        <time>2022-06-26T13:34:15Z</time>
      </trkpt>
      <trkpt lat="45.72329" lon="4.5548">
        <ele>772.2</ele>
        <time>2022-06-26T13:34:16Z</time>
      </trkpt>
      <trkpt lat="45.72327" lon="4.55481">
        <ele>772.4</ele>
        <time>2022-06-26T13:34:17Z</time>
      </trkpt>
      <trkpt lat="45.72325" lon="4.55482">
        <ele>772.4</ele>
        <time>2022-06-26T13:34:18Z</time>
      </trkpt>
      <trkpt lat="45.72323" lon="4.55482">
        <ele>772.6</ele>
        <time>2022-06-26T13:34:19Z</time>
      </trkpt>
      <trkpt lat="45.72321" lon="4.55483">
        <ele>772.6</ele>
        <time>2022-06-26T13:34:20Z</time>
      </trkpt>
      <trkpt lat="45.72319" lon="4.55483">
        <ele>773</ele>
        <time>2022-06-26T13:34:21Z</time>
      </trkpt>
      <trkpt lat="45.72317" lon="4.55484">
        <ele>773</ele>
        <time>2022-06-26T13:34:22Z</time>
      </trkpt>
      <trkpt lat="45.72314" lon="4.55484">
        <ele>773.2</ele>
        <time>2022-06-26T13:34:23Z</time>
      </trkpt>
      <trkpt lat="45.72312" lon="4.55485">
        <ele>773.2</ele>
        <time>2022-06-26T13:34:24Z</time>
      </trkpt>
      <trkpt lat="45.7231" lon="4.55486">
        <ele>773.6</ele>
        <time>2022-06-26T13:34:25Z</time>
      </trkpt>
      <trkpt lat="45.72308" lon="4.55486">
        <ele>773.6</ele>
        <time>2022-06-26T13:34:26Z</time>
      </trkpt>
      <trkpt lat="45.72306" lon="4.55487">
        <ele>773.8</ele>
        <time>2022-06-26T13:34:27Z</time>
      </trkpt>
      <trkpt lat="45.72304" lon="4.55487">
        <ele>773.8</ele>
        <time>2022-06-26T13:34:28Z</time>
      </trkpt>
      <trkpt lat="45.72302" lon="4.55489">
        <ele>774</ele>
        <time>2022-06-26T13:34:29Z</time>
      </trkpt>
      <trkpt lat="45.723" lon="4.5549">
        <ele>774</ele>
        <time>2022-06-26T13:34:30Z</time>
      </trkpt>
      <trkpt lat="45.72298" lon="4.55492">
        <ele>774.4</ele>
        <time>2022-06-26T13:34:31Z</time>
      </trkpt>
      <trkpt lat="45.72296" lon="4.55494">
        <ele>774.4</ele>
        <time>2022-06-26T13:34:32Z</time>
      </trkpt>
      <trkpt lat="45.72294" lon="4.55496">
        <ele>774.6</ele>
        <time>2022-06-26T13:34:33Z</time>
      </trkpt>
      <trkpt lat="45.72292" lon="4.55498">
        <ele>774.6</ele>
        <time>2022-06-26T13:34:34Z</time>
      </trkpt>
      <trkpt lat="45.7229" lon="4.55499">
        <ele>775</ele>
        <time>2022-06-26T13:34:35Z</time>
      </trkpt>
      <trkpt lat="45.72288" lon="4.555">
        <ele>775</ele>
        <time>2022-06-26T13:34:36Z</time>
      </trkpt>
      <trkpt lat="45.72286" lon="4.55502">
        <ele>775</ele>
        <time>2022-06-26T13:34:37Z</time>
      </trkpt>
      <trkpt lat="45.72285" lon="4.55503">
        <ele>775.2</ele>
        <time>2022-06-26T13:34:38Z</time>
      </trkpt>
      <trkpt lat="45.72284" lon="4.55505">
        <ele>775.2</ele>
        <time>2022-06-26T13:34:39Z</time>
      </trkpt>
      <trkpt lat="45.72282" lon="4.55506">
        <ele>775.2</ele>
        <time>2022-06-26T13:34:40Z</time>
      </trkpt>
      <trkpt lat="45.7228" lon="4.55508">
        <ele>775.4</ele>
        <time>2022-06-26T13:34:41Z</time>
      </trkpt>
      <trkpt lat="45.72277" lon="4.5551">
        <ele>775.4</ele>
        <time>2022-06-26T13:34:42Z</time>
      </trkpt>
      <trkpt lat="45.72275" lon="4.55512">
        <ele>775.6</ele>
        <time>2022-06-26T13:34:43Z</time>
      </trkpt>
      <trkpt lat="45.72273" lon="4.55514">
        <ele>775.6</ele>
        <time>2022-06-26T13:34:44Z</time>
      </trkpt>
      <trkpt lat="45.7227" lon="4.55516">
        <ele>775.6</ele>
        <time>2022-06-26T13:34:45Z</time>
      </trkpt>
      <trkpt lat="45.72267" lon="4.55518">
        <ele>776</ele>
        <time>2022-06-26T13:34:46Z</time>
      </trkpt>
      <trkpt lat="45.72265" lon="4.5552">
        <ele>776</ele>
        <time>2022-06-26T13:34:47Z</time>
      </trkpt>
      <trkpt lat="45.72263" lon="4.55522">
        <ele>776.2</ele>
        <time>2022-06-26T13:34:48Z</time>
      </trkpt>
      <trkpt lat="45.7226" lon="4.55524">
        <ele>776.2</ele>
        <time>2022-06-26T13:34:49Z</time>
      </trkpt>
      <trkpt lat="45.72258" lon="4.55526">
        <ele>776.2</ele>
        <time>2022-06-26T13:34:50Z</time>
      </trkpt>
      <trkpt lat="45.72257" lon="4.55529">
        <ele>776.6</ele>
        <time>2022-06-26T13:34:51Z</time>
      </trkpt>
      <trkpt lat="45.72255" lon="4.55531">
        <ele>776.6</ele>
        <time>2022-06-26T13:34:52Z</time>
      </trkpt>
      <trkpt lat="45.72253" lon="4.55533">
        <ele>776.8</ele>
        <time>2022-06-26T13:34:53Z</time>
      </trkpt>
      <trkpt lat="45.72251" lon="4.55535">
        <ele>776.8</ele>
        <time>2022-06-26T13:34:54Z</time>
      </trkpt>
      <trkpt lat="45.72248" lon="4.55536">
        <ele>777.2</ele>
        <time>2022-06-26T13:34:55Z</time>
      </trkpt>
      <trkpt lat="45.72246" lon="4.55538">
        <ele>777.2</ele>
        <time>2022-06-26T13:34:56Z</time>
      </trkpt>
      <trkpt lat="45.72244" lon="4.55541">
        <ele>777.2</ele>
        <time>2022-06-26T13:34:57Z</time>
      </trkpt>
      <trkpt lat="45.72242" lon="4.55544">
        <ele>777.4</ele>
        <time>2022-06-26T13:34:58Z</time>
      </trkpt>
      <trkpt lat="45.7224" lon="4.55547">
        <ele>777.4</ele>
        <time>2022-06-26T13:34:59Z</time>
      </trkpt>
      <trkpt lat="45.72237" lon="4.55551">
        <ele>777.4</ele>
        <time>2022-06-26T13:35:00Z</time>
      </trkpt>
      <trkpt lat="45.72235" lon="4.55555">
        <ele>777.6</ele>
        <time>2022-06-26T13:35:01Z</time>
      </trkpt>
      <trkpt lat="45.72232" lon="4.5556">
        <ele>777.6</ele>
        <time>2022-06-26T13:35:02Z</time>
      </trkpt>
      <trkpt lat="45.72231" lon="4.55564">
        <ele>778</ele>
        <time>2022-06-26T13:35:03Z</time>
      </trkpt>
      <trkpt lat="45.72229" lon="4.55567">
        <ele>778</ele>
        <time>2022-06-26T13:35:04Z</time>
      </trkpt>
      <trkpt lat="45.72227" lon="4.55571">
        <ele>778.4</ele>
        <time>2022-06-26T13:35:05Z</time>
      </trkpt>
      <trkpt lat="45.72226" lon="4.55575">
        <ele>778.4</ele>
        <time>2022-06-26T13:35:06Z</time>
      </trkpt>
      <trkpt lat="45.72224" lon="4.55578">
        <ele>778.8</ele>
        <time>2022-06-26T13:35:07Z</time>
      </trkpt>
      <trkpt lat="45.72223" lon="4.55582">
        <ele>778.8</ele>
        <time>2022-06-26T13:35:08Z</time>
      </trkpt>
      <trkpt lat="45.72222" lon="4.55586">
        <ele>779</ele>
        <time>2022-06-26T13:35:09Z</time>
      </trkpt>
      <trkpt lat="45.72221" lon="4.5559">
        <ele>779</ele>
        <time>2022-06-26T13:35:10Z</time>
      </trkpt>
      <trkpt lat="45.72219" lon="4.55593">
        <ele>779.2</ele>
        <time>2022-06-26T13:35:11Z</time>
      </trkpt>
      <trkpt lat="45.72219" lon="4.55596">
        <ele>779.2</ele>
        <time>2022-06-26T13:35:12Z</time>
      </trkpt>
      <trkpt lat="45.72218" lon="4.556">
        <ele>779.6</ele>
        <time>2022-06-26T13:35:13Z</time>
      </trkpt>
      <trkpt lat="45.72217" lon="4.55603">
        <ele>779.6</ele>
        <time>2022-06-26T13:35:14Z</time>
      </trkpt>
      <trkpt lat="45.72217" lon="4.55606">
        <ele>779.8</ele>
        <time>2022-06-26T13:35:15Z</time>
      </trkpt>
      <trkpt lat="45.72216" lon="4.5561">
        <ele>779.8</ele>
        <time>2022-06-26T13:35:16Z</time>
      </trkpt>
      <trkpt lat="45.72215" lon="4.55613">
        <ele>780.2</ele>
        <time>2022-06-26T13:35:17Z</time>
      </trkpt>
      <trkpt lat="45.72214" lon="4.55617">
        <ele>780.2</ele>
        <time>2022-06-26T13:35:18Z</time>
      </trkpt>
      <trkpt lat="45.72214" lon="4.5562">
        <ele>780.4</ele>
        <time>2022-06-26T13:35:19Z</time>
      </trkpt>
      <trkpt lat="45.72213" lon="4.55623">
        <ele>780.4</ele>
        <time>2022-06-26T13:35:20Z</time>
      </trkpt>
      <trkpt lat="45.72212" lon="4.55626">
        <ele>780.6</ele>
        <time>2022-06-26T13:35:21Z</time>
      </trkpt>
      <trkpt lat="45.7221" lon="4.5563">
        <ele>780.6</ele>
        <time>2022-06-26T13:35:22Z</time>
      </trkpt>
      <trkpt lat="45.72209" lon="4.55633">
        <ele>781</ele>
        <time>2022-06-26T13:35:23Z</time>
      </trkpt>
      <trkpt lat="45.72208" lon="4.55636">
        <ele>781</ele>
        <time>2022-06-26T13:35:24Z</time>
      </trkpt>
      <trkpt lat="45.72207" lon="4.5564">
        <ele>781.2</ele>
        <time>2022-06-26T13:35:25Z</time>
      </trkpt>
      <trkpt lat="45.72207" lon="4.55643">
        <ele>781.2</ele>
        <time>2022-06-26T13:35:26Z</time>
      </trkpt>
      <trkpt lat="45.72206" lon="4.55647">
        <ele>781.4</ele>
        <time>2022-06-26T13:35:27Z</time>
      </trkpt>
      <trkpt lat="45.72205" lon="4.5565">
        <ele>781.4</ele>
        <time>2022-06-26T13:35:28Z</time>
      </trkpt>
      <trkpt lat="45.72204" lon="4.55654">
        <ele>781.4</ele>
        <time>2022-06-26T13:35:29Z</time>
      </trkpt>
      <trkpt lat="45.72203" lon="4.55657">
        <ele>781.6</ele>
        <time>2022-06-26T13:35:30Z</time>
      </trkpt>
      <trkpt lat="45.72202" lon="4.5566">
        <ele>781.6</ele>
        <time>2022-06-26T13:35:31Z</time>
      </trkpt>
      <trkpt lat="45.72202" lon="4.55664">
        <ele>781.6</ele>
        <time>2022-06-26T13:35:32Z</time>
      </trkpt>
      <trkpt lat="45.72202" lon="4.55668">
        <ele>782</ele>
        <time>2022-06-26T13:35:33Z</time>
      </trkpt>
      <trkpt lat="45.72201" lon="4.55672">
        <ele>782</ele>
        <time>2022-06-26T13:35:34Z</time>
      </trkpt>
      <trkpt lat="45.722" lon="4.55676">
        <ele>782.2</ele>
        <time>2022-06-26T13:35:35Z</time>
      </trkpt>
      <trkpt lat="45.72198" lon="4.55684">
        <ele>782.2</ele>
        <time>2022-06-26T13:35:36Z</time>
      </trkpt>
      <trkpt lat="45.72197" lon="4.55688">
        <ele>782.4</ele>
        <time>2022-06-26T13:35:37Z</time>
      </trkpt>
      <trkpt lat="45.72196" lon="4.55692">
        <ele>782.4</ele>
        <time>2022-06-26T13:35:38Z</time>
      </trkpt>
      <trkpt lat="45.72195" lon="4.55696">
        <ele>782.6</ele>
        <time>2022-06-26T13:35:39Z</time>
      </trkpt>
      <trkpt lat="45.72194" lon="4.557">
        <ele>782.6</ele>
        <time>2022-06-26T13:35:40Z</time>
      </trkpt>
      <trkpt lat="45.72193" lon="4.55704">
        <ele>783</ele>
        <time>2022-06-26T13:35:41Z</time>
      </trkpt>
      <trkpt lat="45.72192" lon="4.55708">
        <ele>783</ele>
        <time>2022-06-26T13:35:42Z</time>
      </trkpt>
      <trkpt lat="45.72191" lon="4.55712">
        <ele>783.2</ele>
        <time>2022-06-26T13:35:43Z</time>
      </trkpt>
      <trkpt lat="45.72191" lon="4.55716">
        <ele>783.2</ele>
        <time>2022-06-26T13:35:44Z</time>
      </trkpt>
      <trkpt lat="45.7219" lon="4.5572">
        <ele>783.6</ele>
        <time>2022-06-26T13:35:45Z</time>
      </trkpt>
      <trkpt lat="45.72189" lon="4.55725">
        <ele>783.6</ele>
        <time>2022-06-26T13:35:46Z</time>
      </trkpt>
      <trkpt lat="45.72188" lon="4.55729">
        <ele>783.8</ele>
        <time>2022-06-26T13:35:47Z</time>
      </trkpt>
      <trkpt lat="45.72188" lon="4.55733">
        <ele>783.8</ele>
        <time>2022-06-26T13:35:48Z</time>
      </trkpt>
      <trkpt lat="45.72187" lon="4.55738">
        <ele>784.2</ele>
        <time>2022-06-26T13:35:49Z</time>
      </trkpt>
      <trkpt lat="45.72186" lon="4.55743">
        <ele>784.2</ele>
        <time>2022-06-26T13:35:50Z</time>
      </trkpt>
      <trkpt lat="45.72186" lon="4.55747">
        <ele>784.6</ele>
        <time>2022-06-26T13:35:51Z</time>
      </trkpt>
      <trkpt lat="45.72185" lon="4.55751">
        <ele>784.6</ele>
        <time>2022-06-26T13:35:52Z</time>
      </trkpt>
      <trkpt lat="45.72185" lon="4.55756">
        <ele>784.8</ele>
        <time>2022-06-26T13:35:53Z</time>
      </trkpt>
      <trkpt lat="45.72184" lon="4.5576">
        <ele>784.8</ele>
        <time>2022-06-26T13:35:54Z</time>
      </trkpt>
      <trkpt lat="45.72183" lon="4.55764">
        <ele>785.2</ele>
        <time>2022-06-26T13:35:55Z</time>
      </trkpt>
      <trkpt lat="45.72183" lon="4.55769">
        <ele>785.4</ele>
        <time>2022-06-26T13:35:56Z</time>
      </trkpt>
      <trkpt lat="45.72183" lon="4.55773">
        <ele>785.4</ele>
        <time>2022-06-26T13:35:57Z</time>
      </trkpt>
      <trkpt lat="45.72182" lon="4.55777">
        <ele>785.6</ele>
        <time>2022-06-26T13:35:58Z</time>
      </trkpt>
      <trkpt lat="45.72182" lon="4.55781">
        <ele>785.6</ele>
        <time>2022-06-26T13:35:59Z</time>
      </trkpt>
      <trkpt lat="45.72182" lon="4.55785">
        <ele>786</ele>
        <time>2022-06-26T13:36:00Z</time>
      </trkpt>
      <trkpt lat="45.72181" lon="4.55789">
        <ele>786</ele>
        <time>2022-06-26T13:36:01Z</time>
      </trkpt>
      <trkpt lat="45.72181" lon="4.55793">
        <ele>786</ele>
        <time>2022-06-26T13:36:02Z</time>
      </trkpt>
      <trkpt lat="45.7218" lon="4.55798">
        <ele>786.4</ele>
        <time>2022-06-26T13:36:03Z</time>
      </trkpt>
      <trkpt lat="45.72179" lon="4.55802">
        <ele>786.4</ele>
        <time>2022-06-26T13:36:04Z</time>
      </trkpt>
      <trkpt lat="45.72179" lon="4.55806">
        <ele>786.6</ele>
        <time>2022-06-26T13:36:05Z</time>
      </trkpt>
      <trkpt lat="45.72179" lon="4.5581">
        <ele>786.6</ele>
        <time>2022-06-26T13:36:06Z</time>
      </trkpt>
      <trkpt lat="45.72178" lon="4.55814">
        <ele>786.8</ele>
        <time>2022-06-26T13:36:07Z</time>
      </trkpt>
      <trkpt lat="45.72178" lon="4.55818">
        <ele>786.8</ele>
        <time>2022-06-26T13:36:08Z</time>
      </trkpt>
      <trkpt lat="45.72177" lon="4.55823">
        <ele>787</ele>
        <time>2022-06-26T13:36:09Z</time>
      </trkpt>
      <trkpt lat="45.72177" lon="4.55827">
        <ele>787</ele>
        <time>2022-06-26T13:36:10Z</time>
      </trkpt>
      <trkpt lat="45.72177" lon="4.55831">
        <ele>787.2</ele>
        <time>2022-06-26T13:36:11Z</time>
      </trkpt>
      <trkpt lat="45.72176" lon="4.55835">
        <ele>787.2</ele>
        <time>2022-06-26T13:36:12Z</time>
      </trkpt>
      <trkpt lat="45.72176" lon="4.55839">
        <ele>787.6</ele>
        <time>2022-06-26T13:36:13Z</time>
      </trkpt>
      <trkpt lat="45.72176" lon="4.55843">
        <ele>787.6</ele>
        <time>2022-06-26T13:36:14Z</time>
      </trkpt>
      <trkpt lat="45.72175" lon="4.55847">
        <ele>787.8</ele>
        <time>2022-06-26T13:36:15Z</time>
      </trkpt>
      <trkpt lat="45.72175" lon="4.55851">
        <ele>787.8</ele>
        <time>2022-06-26T13:36:16Z</time>
      </trkpt>
      <trkpt lat="45.72174" lon="4.55855">
        <ele>788</ele>
        <time>2022-06-26T13:36:17Z</time>
      </trkpt>
      <trkpt lat="45.72174" lon="4.55859">
        <ele>788</ele>
        <time>2022-06-26T13:36:18Z</time>
      </trkpt>
      <trkpt lat="45.72174" lon="4.55863">
        <ele>788.2</ele>
        <time>2022-06-26T13:36:19Z</time>
      </trkpt>
      <trkpt lat="45.72174" lon="4.55867">
        <ele>788.6</ele>
        <time>2022-06-26T13:36:20Z</time>
      </trkpt>
      <trkpt lat="45.72175" lon="4.55871">
        <ele>788.8</ele>
        <time>2022-06-26T13:36:21Z</time>
      </trkpt>
      <trkpt lat="45.72175" lon="4.55875">
        <ele>788.8</ele>
        <time>2022-06-26T13:36:22Z</time>
      </trkpt>
      <trkpt lat="45.72175" lon="4.55878">
        <ele>789</ele>
        <time>2022-06-26T13:36:23Z</time>
      </trkpt>
      <trkpt lat="45.72175" lon="4.55882">
        <ele>789</ele>
        <time>2022-06-26T13:36:24Z</time>
      </trkpt>
      <trkpt lat="45.72176" lon="4.55886">
        <ele>789.2</ele>
        <time>2022-06-26T13:36:25Z</time>
      </trkpt>
      <trkpt lat="45.72176" lon="4.5589">
        <ele>789.2</ele>
        <time>2022-06-26T13:36:26Z</time>
      </trkpt>
      <trkpt lat="45.72176" lon="4.55893">
        <ele>789.6</ele>
        <time>2022-06-26T13:36:27Z</time>
      </trkpt>
      <trkpt lat="45.72177" lon="4.55897">
        <ele>789.6</ele>
        <time>2022-06-26T13:36:28Z</time>
      </trkpt>
      <trkpt lat="45.72178" lon="4.559">
        <ele>789.8</ele>
        <time>2022-06-26T13:36:29Z</time>
      </trkpt>
      <trkpt lat="45.72178" lon="4.55904">
        <ele>789.8</ele>
        <time>2022-06-26T13:36:30Z</time>
      </trkpt>
      <trkpt lat="45.72179" lon="4.55908">
        <ele>790</ele>
        <time>2022-06-26T13:36:31Z</time>
      </trkpt>
      <trkpt lat="45.72179" lon="4.55912">
        <ele>790</ele>
        <time>2022-06-26T13:36:32Z</time>
      </trkpt>
      <trkpt lat="45.7218" lon="4.55915">
        <ele>790</ele>
        <time>2022-06-26T13:36:33Z</time>
      </trkpt>
      <trkpt lat="45.72181" lon="4.55919">
        <ele>790.4</ele>
        <time>2022-06-26T13:36:34Z</time>
      </trkpt>
      <trkpt lat="45.72181" lon="4.55923">
        <ele>790.4</ele>
        <time>2022-06-26T13:36:35Z</time>
      </trkpt>
      <trkpt lat="45.72182" lon="4.55927">
        <ele>790.6</ele>
        <time>2022-06-26T13:36:36Z</time>
      </trkpt>
      <trkpt lat="45.72183" lon="4.5593">
        <ele>790.6</ele>
        <time>2022-06-26T13:36:37Z</time>
      </trkpt>
      <trkpt lat="45.72184" lon="4.55934">
        <ele>791</ele>
        <time>2022-06-26T13:36:38Z</time>
      </trkpt>
      <trkpt lat="45.72184" lon="4.55938">
        <ele>791</ele>
        <time>2022-06-26T13:36:39Z</time>
      </trkpt>
      <trkpt lat="45.72185" lon="4.55941">
        <ele>791.2</ele>
        <time>2022-06-26T13:36:40Z</time>
      </trkpt>
      <trkpt lat="45.72186" lon="4.55945">
        <ele>791.2</ele>
        <time>2022-06-26T13:36:41Z</time>
      </trkpt>
      <trkpt lat="45.72187" lon="4.55949">
        <ele>791.6</ele>
        <time>2022-06-26T13:36:42Z</time>
      </trkpt>
      <trkpt lat="45.72188" lon="4.55952">
        <ele>791.6</ele>
        <time>2022-06-26T13:36:43Z</time>
      </trkpt>
      <trkpt lat="45.72189" lon="4.55956">
        <ele>791.8</ele>
        <time>2022-06-26T13:36:44Z</time>
      </trkpt>
      <trkpt lat="45.7219" lon="4.55959">
        <ele>791.8</ele>
        <time>2022-06-26T13:36:45Z</time>
      </trkpt>
      <trkpt lat="45.72191" lon="4.55963">
        <ele>792</ele>
        <time>2022-06-26T13:36:46Z</time>
      </trkpt>
      <trkpt lat="45.72192" lon="4.55967">
        <ele>792</ele>
        <time>2022-06-26T13:36:47Z</time>
      </trkpt>
      <trkpt lat="45.72193" lon="4.55971">
        <ele>792.2</ele>
        <time>2022-06-26T13:36:48Z</time>
      </trkpt>
      <trkpt lat="45.72194" lon="4.55974">
        <ele>792.2</ele>
        <time>2022-06-26T13:36:49Z</time>
      </trkpt>
      <trkpt lat="45.72195" lon="4.55978">
        <ele>792.2</ele>
        <time>2022-06-26T13:36:50Z</time>
      </trkpt>
      <trkpt lat="45.72196" lon="4.55982">
        <ele>792.6</ele>
        <time>2022-06-26T13:36:51Z</time>
      </trkpt>
      <trkpt lat="45.72196" lon="4.55986">
        <ele>792.6</ele>
        <time>2022-06-26T13:36:52Z</time>
      </trkpt>
      <trkpt lat="45.72197" lon="4.5599">
        <ele>792.8</ele>
        <time>2022-06-26T13:36:53Z</time>
      </trkpt>
      <trkpt lat="45.72198" lon="4.55993">
        <ele>792.8</ele>
        <time>2022-06-26T13:36:54Z</time>
      </trkpt>
      <trkpt lat="45.72199" lon="4.55997">
        <ele>793.2</ele>
        <time>2022-06-26T13:36:55Z</time>
      </trkpt>
      <trkpt lat="45.722" lon="4.56001">
        <ele>793.4</ele>
        <time>2022-06-26T13:36:56Z</time>
      </trkpt>
      <trkpt lat="45.72201" lon="4.56005">
        <ele>793.4</ele>
        <time>2022-06-26T13:36:57Z</time>
      </trkpt>
      <trkpt lat="45.72202" lon="4.56009">
        <ele>793.6</ele>
        <time>2022-06-26T13:36:58Z</time>
      </trkpt>
      <trkpt lat="45.72202" lon="4.56012">
        <ele>793.6</ele>
        <time>2022-06-26T13:36:59Z</time>
      </trkpt>
      <trkpt lat="45.72203" lon="4.56017">
        <ele>794</ele>
        <time>2022-06-26T13:37:00Z</time>
      </trkpt>
      <trkpt lat="45.72204" lon="4.56021">
        <ele>794</ele>
        <time>2022-06-26T13:37:01Z</time>
      </trkpt>
      <trkpt lat="45.72205" lon="4.56024">
        <ele>794.2</ele>
        <time>2022-06-26T13:37:02Z</time>
      </trkpt>
      <trkpt lat="45.72205" lon="4.56028">
        <ele>794.2</ele>
        <time>2022-06-26T13:37:03Z</time>
      </trkpt>
      <trkpt lat="45.72206" lon="4.56032">
        <ele>794.6</ele>
        <time>2022-06-26T13:37:04Z</time>
      </trkpt>
      <trkpt lat="45.72206" lon="4.56035">
        <ele>794.6</ele>
        <time>2022-06-26T13:37:05Z</time>
      </trkpt>
      <trkpt lat="45.72207" lon="4.56039">
        <ele>794.6</ele>
        <time>2022-06-26T13:37:06Z</time>
      </trkpt>
      <trkpt lat="45.72208" lon="4.56042">
        <ele>794.8</ele>
        <time>2022-06-26T13:37:07Z</time>
      </trkpt>
      <trkpt lat="45.72208" lon="4.56046">
        <ele>795.2</ele>
        <time>2022-06-26T13:37:08Z</time>
      </trkpt>
      <trkpt lat="45.72208" lon="4.56049">
        <ele>795.2</ele>
        <time>2022-06-26T13:37:09Z</time>
      </trkpt>
      <trkpt lat="45.72209" lon="4.56052">
        <ele>795.6</ele>
        <time>2022-06-26T13:37:10Z</time>
      </trkpt>
      <trkpt lat="45.7221" lon="4.56055">
        <ele>795.6</ele>
        <time>2022-06-26T13:37:11Z</time>
      </trkpt>
      <trkpt lat="45.72211" lon="4.56058">
        <ele>795.8</ele>
        <time>2022-06-26T13:37:12Z</time>
      </trkpt>
      <trkpt lat="45.72211" lon="4.56062">
        <ele>795.8</ele>
        <time>2022-06-26T13:37:13Z</time>
      </trkpt>
      <trkpt lat="45.72212" lon="4.56065">
        <ele>796.2</ele>
        <time>2022-06-26T13:37:14Z</time>
      </trkpt>
      <trkpt lat="45.72213" lon="4.56069">
        <ele>796.2</ele>
        <time>2022-06-26T13:37:15Z</time>
      </trkpt>
      <trkpt lat="45.72213" lon="4.56072">
        <ele>796.4</ele>
        <time>2022-06-26T13:37:16Z</time>
      </trkpt>
      <trkpt lat="45.72213" lon="4.56075">
        <ele>796.4</ele>
        <time>2022-06-26T13:37:17Z</time>
      </trkpt>
      <trkpt lat="45.72213" lon="4.56078">
        <ele>796.4</ele>
        <time>2022-06-26T13:37:18Z</time>
      </trkpt>
      <trkpt lat="45.72213" lon="4.56081">
        <ele>796.6</ele>
        <time>2022-06-26T13:37:19Z</time>
      </trkpt>
      <trkpt lat="45.72213" lon="4.56084">
        <ele>796.6</ele>
        <time>2022-06-26T13:37:20Z</time>
      </trkpt>
      <trkpt lat="45.72214" lon="4.56088">
        <ele>797</ele>
        <time>2022-06-26T13:37:21Z</time>
      </trkpt>
      <trkpt lat="45.72214" lon="4.56092">
        <ele>797</ele>
        <time>2022-06-26T13:37:22Z</time>
      </trkpt>
      <trkpt lat="45.72214" lon="4.56095">
        <ele>797.2</ele>
        <time>2022-06-26T13:37:23Z</time>
      </trkpt>
      <trkpt lat="45.72214" lon="4.56099">
        <ele>797.2</ele>
        <time>2022-06-26T13:37:24Z</time>
      </trkpt>
      <trkpt lat="45.72215" lon="4.56103">
        <ele>797.6</ele>
        <time>2022-06-26T13:37:25Z</time>
      </trkpt>
      <trkpt lat="45.72215" lon="4.56107">
        <ele>797.6</ele>
        <time>2022-06-26T13:37:26Z</time>
      </trkpt>
      <trkpt lat="45.72215" lon="4.5611">
        <ele>797.8</ele>
        <time>2022-06-26T13:37:27Z</time>
      </trkpt>
      <trkpt lat="45.72214" lon="4.56114">
        <ele>797.8</ele>
        <time>2022-06-26T13:37:28Z</time>
      </trkpt>
      <trkpt lat="45.72214" lon="4.56117">
        <ele>798</ele>
        <time>2022-06-26T13:37:29Z</time>
      </trkpt>
      <trkpt lat="45.72214" lon="4.56121">
        <ele>798</ele>
        <time>2022-06-26T13:37:30Z</time>
      </trkpt>
      <trkpt lat="45.72213" lon="4.56125">
        <ele>798.4</ele>
        <time>2022-06-26T13:37:31Z</time>
      </trkpt>
      <trkpt lat="45.72213" lon="4.56129">
        <ele>798.4</ele>
        <time>2022-06-26T13:37:32Z</time>
      </trkpt>
      <trkpt lat="45.72213" lon="4.56133">
        <ele>798.6</ele>
        <time>2022-06-26T13:37:33Z</time>
      </trkpt>
      <trkpt lat="45.72213" lon="4.56137">
        <ele>798.6</ele>
        <time>2022-06-26T13:37:34Z</time>
      </trkpt>
      <trkpt lat="45.72212" lon="4.5614">
        <ele>798.8</ele>
        <time>2022-06-26T13:37:35Z</time>
      </trkpt>
      <trkpt lat="45.72212" lon="4.56143">
        <ele>799</ele>
        <time>2022-06-26T13:37:36Z</time>
      </trkpt>
      <trkpt lat="45.72212" lon="4.56146">
        <ele>799</ele>
        <time>2022-06-26T13:37:37Z</time>
      </trkpt>
      <trkpt lat="45.72211" lon="4.56149">
        <ele>799.4</ele>
        <time>2022-06-26T13:37:38Z</time>
      </trkpt>
      <trkpt lat="45.7221" lon="4.56153">
        <ele>799.4</ele>
        <time>2022-06-26T13:37:39Z</time>
      </trkpt>
      <trkpt lat="45.72209" lon="4.56156">
        <ele>799.8</ele>
        <time>2022-06-26T13:37:40Z</time>
      </trkpt>
      <trkpt lat="45.72209" lon="4.56159">
        <ele>799.8</ele>
        <time>2022-06-26T13:37:41Z</time>
      </trkpt>
      <trkpt lat="45.72207" lon="4.56162">
        <ele>800</ele>
        <time>2022-06-26T13:37:42Z</time>
      </trkpt>
      <trkpt lat="45.72206" lon="4.56165">
        <ele>800</ele>
        <time>2022-06-26T13:37:43Z</time>
      </trkpt>
      <trkpt lat="45.72205" lon="4.56168">
        <ele>800.4</ele>
        <time>2022-06-26T13:37:44Z</time>
      </trkpt>
      <trkpt lat="45.72204" lon="4.56172">
        <ele>800.4</ele>
        <time>2022-06-26T13:37:45Z</time>
      </trkpt>
      <trkpt lat="45.72202" lon="4.56176">
        <ele>800.8</ele>
        <time>2022-06-26T13:37:46Z</time>
      </trkpt>
      <trkpt lat="45.72201" lon="4.5618">
        <ele>800.8</ele>
        <time>2022-06-26T13:37:47Z</time>
      </trkpt>
      <trkpt lat="45.722" lon="4.56183">
        <ele>801</ele>
        <time>2022-06-26T13:37:48Z</time>
      </trkpt>
      <trkpt lat="45.72199" lon="4.56186">
        <ele>801</ele>
        <time>2022-06-26T13:37:49Z</time>
      </trkpt>
      <trkpt lat="45.72197" lon="4.56189">
        <ele>801.4</ele>
        <time>2022-06-26T13:37:50Z</time>
      </trkpt>
      <trkpt lat="45.72196" lon="4.56192">
        <ele>801.4</ele>
        <time>2022-06-26T13:37:51Z</time>
      </trkpt>
      <trkpt lat="45.72195" lon="4.56195">
        <ele>801.6</ele>
        <time>2022-06-26T13:37:52Z</time>
      </trkpt>
      <trkpt lat="45.72194" lon="4.56198">
        <ele>801.6</ele>
        <time>2022-06-26T13:37:53Z</time>
      </trkpt>
      <trkpt lat="45.72193" lon="4.56201">
        <ele>801.8</ele>
        <time>2022-06-26T13:37:54Z</time>
      </trkpt>
      <trkpt lat="45.72191" lon="4.56203">
        <ele>801.8</ele>
        <time>2022-06-26T13:37:55Z</time>
      </trkpt>
      <trkpt lat="45.7219" lon="4.56206">
        <ele>802</ele>
        <time>2022-06-26T13:37:56Z</time>
      </trkpt>
      <trkpt lat="45.72188" lon="4.56208">
        <ele>802.2</ele>
        <time>2022-06-26T13:37:57Z</time>
      </trkpt>
      <trkpt lat="45.72187" lon="4.56211">
        <ele>802.2</ele>
        <time>2022-06-26T13:37:58Z</time>
      </trkpt>
      <trkpt lat="45.72185" lon="4.56214">
        <ele>802.8</ele>
        <time>2022-06-26T13:37:59Z</time>
      </trkpt>
      <trkpt lat="45.72183" lon="4.56218">
        <ele>802.8</ele>
        <time>2022-06-26T13:38:00Z</time>
      </trkpt>
      <trkpt lat="45.72181" lon="4.56221">
        <ele>803</ele>
        <time>2022-06-26T13:38:01Z</time>
      </trkpt>
      <trkpt lat="45.7218" lon="4.56224">
        <ele>803</ele>
        <time>2022-06-26T13:38:02Z</time>
      </trkpt>
      <trkpt lat="45.72178" lon="4.56227">
        <ele>803.2</ele>
        <time>2022-06-26T13:38:03Z</time>
      </trkpt>
      <trkpt lat="45.72176" lon="4.5623">
        <ele>803.2</ele>
        <time>2022-06-26T13:38:04Z</time>
      </trkpt>
      <trkpt lat="45.72174" lon="4.56233">
        <ele>803.4</ele>
        <time>2022-06-26T13:38:05Z</time>
      </trkpt>
      <trkpt lat="45.72173" lon="4.56236">
        <ele>803.4</ele>
        <time>2022-06-26T13:38:06Z</time>
      </trkpt>
      <trkpt lat="45.72171" lon="4.56239">
        <ele>803.8</ele>
        <time>2022-06-26T13:38:07Z</time>
      </trkpt>
      <trkpt lat="45.72169" lon="4.56241">
        <ele>803.8</ele>
        <time>2022-06-26T13:38:08Z</time>
      </trkpt>
      <trkpt lat="45.72167" lon="4.56244">
        <ele>804.2</ele>
        <time>2022-06-26T13:38:09Z</time>
      </trkpt>
      <trkpt lat="45.72166" lon="4.56247">
        <ele>804.2</ele>
        <time>2022-06-26T13:38:10Z</time>
      </trkpt>
      <trkpt lat="45.72164" lon="4.5625">
        <ele>804.4</ele>
        <time>2022-06-26T13:38:11Z</time>
      </trkpt>
      <trkpt lat="45.72161" lon="4.56252">
        <ele>804.4</ele>
        <time>2022-06-26T13:38:12Z</time>
      </trkpt>
      <trkpt lat="45.72159" lon="4.56256">
        <ele>804.6</ele>
        <time>2022-06-26T13:38:13Z</time>
      </trkpt>
      <trkpt lat="45.72157" lon="4.56259">
        <ele>804.8</ele>
        <time>2022-06-26T13:38:14Z</time>
      </trkpt>
      <trkpt lat="45.72155" lon="4.56261">
        <ele>804.8</ele>
        <time>2022-06-26T13:38:15Z</time>
      </trkpt>
      <trkpt lat="45.72153" lon="4.56264">
        <ele>805.2</ele>
        <time>2022-06-26T13:38:16Z</time>
      </trkpt>
      <trkpt lat="45.72151" lon="4.56268">
        <ele>805.2</ele>
        <time>2022-06-26T13:38:17Z</time>
      </trkpt>
      <trkpt lat="45.72149" lon="4.56271">
        <ele>805.6</ele>
        <time>2022-06-26T13:38:18Z</time>
      </trkpt>
      <trkpt lat="45.72147" lon="4.56274">
        <ele>805.6</ele>
        <time>2022-06-26T13:38:19Z</time>
      </trkpt>
      <trkpt lat="45.72145" lon="4.56278">
        <ele>805.8</ele>
        <time>2022-06-26T13:38:20Z</time>
      </trkpt>
      <trkpt lat="45.72143" lon="4.56281">
        <ele>805.8</ele>
        <time>2022-06-26T13:38:21Z</time>
      </trkpt>
      <trkpt lat="45.72142" lon="4.56285">
        <ele>806.2</ele>
        <time>2022-06-26T13:38:22Z</time>
      </trkpt>
      <trkpt lat="45.7214" lon="4.56289">
        <ele>806.2</ele>
        <time>2022-06-26T13:38:23Z</time>
      </trkpt>
      <trkpt lat="45.72138" lon="4.56292">
        <ele>806.4</ele>
        <time>2022-06-26T13:38:24Z</time>
      </trkpt>
      <trkpt lat="45.72136" lon="4.56296">
        <ele>806.4</ele>
        <time>2022-06-26T13:38:25Z</time>
      </trkpt>
      <trkpt lat="45.72135" lon="4.56299">
        <ele>806.6</ele>
        <time>2022-06-26T13:38:26Z</time>
      </trkpt>
      <trkpt lat="45.72133" lon="4.56302">
        <ele>806.8</ele>
        <time>2022-06-26T13:38:27Z</time>
      </trkpt>
      <trkpt lat="45.72132" lon="4.56305">
        <ele>806.8</ele>
        <time>2022-06-26T13:38:28Z</time>
      </trkpt>
      <trkpt lat="45.7213" lon="4.56309">
        <ele>807</ele>
        <time>2022-06-26T13:38:29Z</time>
      </trkpt>
      <trkpt lat="45.72128" lon="4.56312">
        <ele>807</ele>
        <time>2022-06-26T13:38:30Z</time>
      </trkpt>
      <trkpt lat="45.72127" lon="4.56315">
        <ele>807.6</ele>
        <time>2022-06-26T13:38:31Z</time>
      </trkpt>
      <trkpt lat="45.72126" lon="4.56318">
        <ele>807.6</ele>
        <time>2022-06-26T13:38:32Z</time>
      </trkpt>
      <trkpt lat="45.72125" lon="4.56321">
        <ele>807.8</ele>
        <time>2022-06-26T13:38:33Z</time>
      </trkpt>
      <trkpt lat="45.72124" lon="4.56324">
        <ele>807.8</ele>
        <time>2022-06-26T13:38:34Z</time>
      </trkpt>
      <trkpt lat="45.72123" lon="4.56328">
        <ele>808.2</ele>
        <time>2022-06-26T13:38:35Z</time>
      </trkpt>
      <trkpt lat="45.72122" lon="4.56331">
        <ele>808.2</ele>
        <time>2022-06-26T13:38:36Z</time>
      </trkpt>
      <trkpt lat="45.72121" lon="4.56335">
        <ele>808.6</ele>
        <time>2022-06-26T13:38:37Z</time>
      </trkpt>
      <trkpt lat="45.7212" lon="4.56338">
        <ele>808.6</ele>
        <time>2022-06-26T13:38:38Z</time>
      </trkpt>
      <trkpt lat="45.72119" lon="4.56342">
        <ele>808.8</ele>
        <time>2022-06-26T13:38:39Z</time>
      </trkpt>
      <trkpt lat="45.72117" lon="4.56346">
        <ele>809</ele>
        <time>2022-06-26T13:38:40Z</time>
      </trkpt>
      <trkpt lat="45.72116" lon="4.5635">
        <ele>809</ele>
        <time>2022-06-26T13:38:41Z</time>
      </trkpt>
      <trkpt lat="45.72115" lon="4.56354">
        <ele>809.4</ele>
        <time>2022-06-26T13:38:42Z</time>
      </trkpt>
      <trkpt lat="45.72114" lon="4.56358">
        <ele>809.4</ele>
        <time>2022-06-26T13:38:43Z</time>
      </trkpt>
      <trkpt lat="45.72113" lon="4.56362">
        <ele>809.6</ele>
        <time>2022-06-26T13:38:44Z</time>
      </trkpt>
      <trkpt lat="45.72112" lon="4.56366">
        <ele>809.6</ele>
        <time>2022-06-26T13:38:45Z</time>
      </trkpt>
      <trkpt lat="45.72111" lon="4.5637">
        <ele>809.8</ele>
        <time>2022-06-26T13:38:46Z</time>
      </trkpt>
      <trkpt lat="45.7211" lon="4.56374">
        <ele>809.8</ele>
        <time>2022-06-26T13:38:47Z</time>
      </trkpt>
      <trkpt lat="45.72109" lon="4.56378">
        <ele>810.2</ele>
        <time>2022-06-26T13:38:48Z</time>
      </trkpt>
      <trkpt lat="45.72108" lon="4.56382">
        <ele>810.4</ele>
        <time>2022-06-26T13:38:49Z</time>
      </trkpt>
      <trkpt lat="45.72107" lon="4.56385">
        <ele>810.4</ele>
        <time>2022-06-26T13:38:50Z</time>
      </trkpt>
      <trkpt lat="45.72106" lon="4.56389">
        <ele>810.6</ele>
        <time>2022-06-26T13:38:51Z</time>
      </trkpt>
      <trkpt lat="45.72104" lon="4.56393">
        <ele>810.6</ele>
        <time>2022-06-26T13:38:52Z</time>
      </trkpt>
      <trkpt lat="45.72103" lon="4.56397">
        <ele>811</ele>
        <time>2022-06-26T13:38:53Z</time>
      </trkpt>
      <trkpt lat="45.72102" lon="4.56401">
        <ele>811</ele>
        <time>2022-06-26T13:38:54Z</time>
      </trkpt>
      <trkpt lat="45.72101" lon="4.56404">
        <ele>811.2</ele>
        <time>2022-06-26T13:38:55Z</time>
      </trkpt>
      <trkpt lat="45.721" lon="4.56408">
        <ele>811.2</ele>
        <time>2022-06-26T13:38:56Z</time>
      </trkpt>
      <trkpt lat="45.72099" lon="4.56412">
        <ele>811.6</ele>
        <time>2022-06-26T13:38:57Z</time>
      </trkpt>
      <trkpt lat="45.72099" lon="4.56416">
        <ele>811.6</ele>
        <time>2022-06-26T13:38:58Z</time>
      </trkpt>
      <trkpt lat="45.72098" lon="4.5642">
        <ele>811.8</ele>
        <time>2022-06-26T13:38:59Z</time>
      </trkpt>
      <trkpt lat="45.72098" lon="4.56426">
        <ele>811.8</ele>
        <time>2022-06-26T13:39:00Z</time>
      </trkpt>
      <trkpt lat="45.72097" lon="4.5643">
        <ele>812.2</ele>
        <time>2022-06-26T13:39:01Z</time>
      </trkpt>
      <trkpt lat="45.72097" lon="4.56435">
        <ele>812.2</ele>
        <time>2022-06-26T13:39:02Z</time>
      </trkpt>
      <trkpt lat="45.72097" lon="4.5644">
        <ele>812.4</ele>
        <time>2022-06-26T13:39:03Z</time>
      </trkpt>
      <trkpt lat="45.72097" lon="4.56445">
        <ele>812.4</ele>
        <time>2022-06-26T13:39:04Z</time>
      </trkpt>
      <trkpt lat="45.72096" lon="4.56449">
        <ele>812.8</ele>
        <time>2022-06-26T13:39:05Z</time>
      </trkpt>
      <trkpt lat="45.72096" lon="4.56454">
        <ele>812.8</ele>
        <time>2022-06-26T13:39:06Z</time>
      </trkpt>
      <trkpt lat="45.72097" lon="4.56458">
        <ele>813</ele>
        <time>2022-06-26T13:39:07Z</time>
      </trkpt>
      <trkpt lat="45.72097" lon="4.56462">
        <ele>813</ele>
        <time>2022-06-26T13:39:08Z</time>
      </trkpt>
      <trkpt lat="45.72096" lon="4.56467">
        <ele>813.2</ele>
        <time>2022-06-26T13:39:09Z</time>
      </trkpt>
      <trkpt lat="45.72095" lon="4.56471">
        <ele>813.2</ele>
        <time>2022-06-26T13:39:10Z</time>
      </trkpt>
      <trkpt lat="45.72095" lon="4.56476">
        <ele>813.4</ele>
        <time>2022-06-26T13:39:11Z</time>
      </trkpt>
      <trkpt lat="45.72095" lon="4.56481">
        <ele>813.4</ele>
        <time>2022-06-26T13:39:12Z</time>
      </trkpt>
      <trkpt lat="45.72095" lon="4.56485">
        <ele>813.8</ele>
        <time>2022-06-26T13:39:13Z</time>
      </trkpt>
      <trkpt lat="45.72095" lon="4.56489">
        <ele>813.8</ele>
        <time>2022-06-26T13:39:14Z</time>
      </trkpt>
      <trkpt lat="45.72095" lon="4.56493">
        <ele>814</ele>
        <time>2022-06-26T13:39:15Z</time>
      </trkpt>
      <trkpt lat="45.72094" lon="4.56496">
        <ele>814</ele>
        <time>2022-06-26T13:39:16Z</time>
      </trkpt>
      <trkpt lat="45.72094" lon="4.565">
        <ele>814.2</ele>
        <time>2022-06-26T13:39:17Z</time>
      </trkpt>
      <trkpt lat="45.72093" lon="4.56504">
        <ele>814.2</ele>
        <time>2022-06-26T13:39:18Z</time>
      </trkpt>
      <trkpt lat="45.72093" lon="4.56509">
        <ele>814.6</ele>
        <time>2022-06-26T13:39:19Z</time>
      </trkpt>
      <trkpt lat="45.72093" lon="4.56514">
        <ele>814.6</ele>
        <time>2022-06-26T13:39:20Z</time>
      </trkpt>
      <trkpt lat="45.72093" lon="4.56519">
        <ele>815</ele>
        <time>2022-06-26T13:39:21Z</time>
      </trkpt>
      <trkpt lat="45.72092" lon="4.56524">
        <ele>815.2</ele>
        <time>2022-06-26T13:39:22Z</time>
      </trkpt>
      <trkpt lat="45.72092" lon="4.56528">
        <ele>815.4</ele>
        <time>2022-06-26T13:39:23Z</time>
      </trkpt>
      <trkpt lat="45.72091" lon="4.56533">
        <ele>815.4</ele>
        <time>2022-06-26T13:39:24Z</time>
      </trkpt>
      <trkpt lat="45.72091" lon="4.56537">
        <ele>815.6</ele>
        <time>2022-06-26T13:39:25Z</time>
      </trkpt>
      <trkpt lat="45.7209" lon="4.56541">
        <ele>815.6</ele>
        <time>2022-06-26T13:39:26Z</time>
      </trkpt>
      <trkpt lat="45.72089" lon="4.56545">
        <ele>816</ele>
        <time>2022-06-26T13:39:27Z</time>
      </trkpt>
      <trkpt lat="45.72089" lon="4.56549">
        <ele>816</ele>
        <time>2022-06-26T13:39:28Z</time>
      </trkpt>
      <trkpt lat="45.72088" lon="4.56553">
        <ele>816.2</ele>
        <time>2022-06-26T13:39:29Z</time>
      </trkpt>
      <trkpt lat="45.72087" lon="4.56557">
        <ele>816.2</ele>
        <time>2022-06-26T13:39:30Z</time>
      </trkpt>
      <trkpt lat="45.72087" lon="4.56561">
        <ele>816.6</ele>
        <time>2022-06-26T13:39:31Z</time>
      </trkpt>
      <trkpt lat="45.72087" lon="4.56565">
        <ele>816.8</ele>
        <time>2022-06-26T13:39:32Z</time>
      </trkpt>
      <trkpt lat="45.72087" lon="4.56569">
        <ele>816.8</ele>
        <time>2022-06-26T13:39:33Z</time>
      </trkpt>
      <trkpt lat="45.72086" lon="4.56572">
        <ele>817</ele>
        <time>2022-06-26T13:39:34Z</time>
      </trkpt>
      <trkpt lat="45.72085" lon="4.56576">
        <ele>817</ele>
        <time>2022-06-26T13:39:35Z</time>
      </trkpt>
      <trkpt lat="45.72084" lon="4.5658">
        <ele>817.4</ele>
        <time>2022-06-26T13:39:36Z</time>
      </trkpt>
      <trkpt lat="45.72084" lon="4.56584">
        <ele>817.4</ele>
        <time>2022-06-26T13:39:37Z</time>
      </trkpt>
      <trkpt lat="45.72083" lon="4.56588">
        <ele>817.6</ele>
        <time>2022-06-26T13:39:38Z</time>
      </trkpt>
      <trkpt lat="45.72083" lon="4.56591">
        <ele>817.6</ele>
        <time>2022-06-26T13:39:39Z</time>
      </trkpt>
      <trkpt lat="45.72083" lon="4.56595">
        <ele>817.8</ele>
        <time>2022-06-26T13:39:40Z</time>
      </trkpt>
      <trkpt lat="45.72083" lon="4.56599">
        <ele>818</ele>
        <time>2022-06-26T13:39:41Z</time>
      </trkpt>
      <trkpt lat="45.72083" lon="4.56604">
        <ele>818</ele>
        <time>2022-06-26T13:39:42Z</time>
      </trkpt>
      <trkpt lat="45.72083" lon="4.56609">
        <ele>818.4</ele>
        <time>2022-06-26T13:39:43Z</time>
      </trkpt>
      <trkpt lat="45.72082" lon="4.56613">
        <ele>818.4</ele>
        <time>2022-06-26T13:39:44Z</time>
      </trkpt>
      <trkpt lat="45.72081" lon="4.56617">
        <ele>818.8</ele>
        <time>2022-06-26T13:39:45Z</time>
      </trkpt>
      <trkpt lat="45.7208" lon="4.56622">
        <ele>818.8</ele>
        <time>2022-06-26T13:39:46Z</time>
      </trkpt>
      <trkpt lat="45.7208" lon="4.56626">
        <ele>819</ele>
        <time>2022-06-26T13:39:47Z</time>
      </trkpt>
      <trkpt lat="45.7208" lon="4.5663">
        <ele>819</ele>
        <time>2022-06-26T13:39:48Z</time>
      </trkpt>
      <trkpt lat="45.72079" lon="4.56634">
        <ele>819.4</ele>
        <time>2022-06-26T13:39:49Z</time>
      </trkpt>
      <trkpt lat="45.72078" lon="4.56638">
        <ele>819.4</ele>
        <time>2022-06-26T13:39:50Z</time>
      </trkpt>
      <trkpt lat="45.72078" lon="4.56642">
        <ele>819.6</ele>
        <time>2022-06-26T13:39:51Z</time>
      </trkpt>
      <trkpt lat="45.72078" lon="4.56647">
        <ele>819.6</ele>
        <time>2022-06-26T13:39:52Z</time>
      </trkpt>
      <trkpt lat="45.72077" lon="4.56651">
        <ele>820</ele>
        <time>2022-06-26T13:39:53Z</time>
      </trkpt>
      <trkpt lat="45.72077" lon="4.56655">
        <ele>820</ele>
        <time>2022-06-26T13:39:54Z</time>
      </trkpt>
      <trkpt lat="45.72077" lon="4.56659">
        <ele>820.2</ele>
        <time>2022-06-26T13:39:55Z</time>
      </trkpt>
      <trkpt lat="45.72077" lon="4.56663">
        <ele>820.2</ele>
        <time>2022-06-26T13:39:56Z</time>
      </trkpt>
      <trkpt lat="45.72077" lon="4.56668">
        <ele>820.4</ele>
        <time>2022-06-26T13:39:57Z</time>
      </trkpt>
      <trkpt lat="45.72076" lon="4.56672">
        <ele>820.4</ele>
        <time>2022-06-26T13:39:58Z</time>
      </trkpt>
      <trkpt lat="45.72076" lon="4.56676">
        <ele>820.6</ele>
        <time>2022-06-26T13:39:59Z</time>
      </trkpt>
      <trkpt lat="45.72076" lon="4.5668">
        <ele>820.6</ele>
        <time>2022-06-26T13:40:00Z</time>
      </trkpt>
      <trkpt lat="45.72076" lon="4.56684">
        <ele>821</ele>
        <time>2022-06-26T13:40:01Z</time>
      </trkpt>
      <trkpt lat="45.72076" lon="4.56689">
        <ele>821</ele>
        <time>2022-06-26T13:40:02Z</time>
      </trkpt>
      <trkpt lat="45.72077" lon="4.56693">
        <ele>821.2</ele>
        <time>2022-06-26T13:40:03Z</time>
      </trkpt>
      <trkpt lat="45.72077" lon="4.56697">
        <ele>821.2</ele>
        <time>2022-06-26T13:40:04Z</time>
      </trkpt>
      <trkpt lat="45.72077" lon="4.56701">
        <ele>821.4</ele>
        <time>2022-06-26T13:40:05Z</time>
      </trkpt>
      <trkpt lat="45.72077" lon="4.56705">
        <ele>821.4</ele>
        <time>2022-06-26T13:40:06Z</time>
      </trkpt>
      <trkpt lat="45.72078" lon="4.5671">
        <ele>821.8</ele>
        <time>2022-06-26T13:40:07Z</time>
      </trkpt>
      <trkpt lat="45.72078" lon="4.56713">
        <ele>821.8</ele>
        <time>2022-06-26T13:40:08Z</time>
      </trkpt>
      <trkpt lat="45.72078" lon="4.56718">
        <ele>822</ele>
        <time>2022-06-26T13:40:09Z</time>
      </trkpt>
      <trkpt lat="45.72078" lon="4.56721">
        <ele>822</ele>
        <time>2022-06-26T13:40:10Z</time>
      </trkpt>
      <trkpt lat="45.72078" lon="4.56726">
        <ele>822.2</ele>
        <time>2022-06-26T13:40:11Z</time>
      </trkpt>
      <trkpt lat="45.72078" lon="4.5673">
        <ele>822.2</ele>
        <time>2022-06-26T13:40:12Z</time>
      </trkpt>
      <trkpt lat="45.72079" lon="4.56733">
        <ele>822.2</ele>
        <time>2022-06-26T13:40:13Z</time>
      </trkpt>
      <trkpt lat="45.72079" lon="4.56737">
        <ele>822.6</ele>
        <time>2022-06-26T13:40:14Z</time>
      </trkpt>
      <trkpt lat="45.72079" lon="4.56741">
        <ele>822.6</ele>
        <time>2022-06-26T13:40:15Z</time>
      </trkpt>
      <trkpt lat="45.72079" lon="4.56745">
        <ele>822.8</ele>
        <time>2022-06-26T13:40:16Z</time>
      </trkpt>
      <trkpt lat="45.72079" lon="4.56749">
        <ele>822.8</ele>
        <time>2022-06-26T13:40:17Z</time>
      </trkpt>
      <trkpt lat="45.72079" lon="4.56752">
        <ele>823</ele>
        <time>2022-06-26T13:40:18Z</time>
      </trkpt>
      <trkpt lat="45.7208" lon="4.56756">
        <ele>823</ele>
        <time>2022-06-26T13:40:19Z</time>
      </trkpt>
      <trkpt lat="45.72081" lon="4.5676">
        <ele>823.4</ele>
        <time>2022-06-26T13:40:20Z</time>
      </trkpt>
      <trkpt lat="45.72081" lon="4.56763">
        <ele>823.4</ele>
        <time>2022-06-26T13:40:21Z</time>
      </trkpt>
      <trkpt lat="45.72082" lon="4.56767">
        <ele>823.6</ele>
        <time>2022-06-26T13:40:22Z</time>
      </trkpt>
      <trkpt lat="45.72083" lon="4.56771">
        <ele>823.6</ele>
        <time>2022-06-26T13:40:23Z</time>
      </trkpt>
      <trkpt lat="45.72084" lon="4.56775">
        <ele>823.8</ele>
        <time>2022-06-26T13:40:24Z</time>
      </trkpt>
      <trkpt lat="45.72085" lon="4.56778">
        <ele>823.8</ele>
        <time>2022-06-26T13:40:25Z</time>
      </trkpt>
      <trkpt lat="45.72085" lon="4.56782">
        <ele>824.2</ele>
        <time>2022-06-26T13:40:26Z</time>
      </trkpt>
      <trkpt lat="45.72086" lon="4.56785">
        <ele>824.2</ele>
        <time>2022-06-26T13:40:27Z</time>
      </trkpt>
      <trkpt lat="45.72086" lon="4.56787">
        <ele>824.2</ele>
        <time>2022-06-26T13:40:28Z</time>
      </trkpt>
      <trkpt lat="45.72086" lon="4.56789">
        <ele>824.4</ele>
        <time>2022-06-26T13:40:29Z</time>
      </trkpt>
      <trkpt lat="45.72086" lon="4.56791">
        <ele>824.4</ele>
        <time>2022-06-26T13:40:30Z</time>
      </trkpt>
      <trkpt lat="45.72087" lon="4.56799">
        <ele>824.8</ele>
        <time>2022-06-26T13:42:26Z</time>
      </trkpt>
      <trkpt lat="45.72087" lon="4.56801">
        <ele>824.8</ele>
        <time>2022-06-26T13:42:27Z</time>
      </trkpt>
      <trkpt lat="45.72086" lon="4.56804">
        <ele>824.8</ele>
        <time>2022-06-26T13:42:28Z</time>
      </trkpt>
      <trkpt lat="45.72085" lon="4.56807">
        <ele>824.8</ele>
        <time>2022-06-26T13:42:29Z</time>
      </trkpt>
      <trkpt lat="45.72084" lon="4.56811">
        <ele>824.6</ele>
        <time>2022-06-26T13:42:30Z</time>
      </trkpt>
      <trkpt lat="45.72083" lon="4.56815">
        <ele>824.6</ele>
        <time>2022-06-26T13:42:31Z</time>
      </trkpt>
      <trkpt lat="45.72081" lon="4.5682">
        <ele>824.6</ele>
        <time>2022-06-26T13:42:32Z</time>
      </trkpt>
      <trkpt lat="45.7208" lon="4.56825">
        <ele>824.4</ele>
        <time>2022-06-26T13:42:33Z</time>
      </trkpt>
      <trkpt lat="45.72078" lon="4.5683">
        <ele>824.4</ele>
        <time>2022-06-26T13:42:34Z</time>
      </trkpt>
      <trkpt lat="45.72077" lon="4.56836">
        <ele>824.2</ele>
        <time>2022-06-26T13:42:35Z</time>
      </trkpt>
      <trkpt lat="45.72075" lon="4.56842">
        <ele>824.2</ele>
        <time>2022-06-26T13:42:36Z</time>
      </trkpt>
      <trkpt lat="45.72073" lon="4.56849">
        <ele>823.8</ele>
        <time>2022-06-26T13:42:37Z</time>
      </trkpt>
      <trkpt lat="45.72071" lon="4.56856">
        <ele>823.8</ele>
        <time>2022-06-26T13:42:38Z</time>
      </trkpt>
      <trkpt lat="45.72069" lon="4.56863">
        <ele>823.4</ele>
        <time>2022-06-26T13:42:39Z</time>
      </trkpt>
      <trkpt lat="45.72067" lon="4.56872">
        <ele>823.2</ele>
        <time>2022-06-26T13:42:40Z</time>
      </trkpt>
      <trkpt lat="45.72065" lon="4.56881">
        <ele>823</ele>
        <time>2022-06-26T13:42:41Z</time>
      </trkpt>
      <trkpt lat="45.72064" lon="4.56891">
        <ele>822.6</ele>
        <time>2022-06-26T13:42:42Z</time>
      </trkpt>
      <trkpt lat="45.72063" lon="4.56901">
        <ele>822.4</ele>
        <time>2022-06-26T13:42:43Z</time>
      </trkpt>
      <trkpt lat="45.72062" lon="4.56911">
        <ele>822.4</ele>
        <time>2022-06-26T13:42:44Z</time>
      </trkpt>
      <trkpt lat="45.72062" lon="4.56922">
        <ele>822</ele>
        <time>2022-06-26T13:42:45Z</time>
      </trkpt>
      <trkpt lat="45.72062" lon="4.56933">
        <ele>821.6</ele>
        <time>2022-06-26T13:42:46Z</time>
      </trkpt>
      <trkpt lat="45.72061" lon="4.56945">
        <ele>821.4</ele>
        <time>2022-06-26T13:42:47Z</time>
      </trkpt>
      <trkpt lat="45.72061" lon="4.56957">
        <ele>821.2</ele>
        <time>2022-06-26T13:42:48Z</time>
      </trkpt>
      <trkpt lat="45.7206" lon="4.56969">
        <ele>821</ele>
        <time>2022-06-26T13:42:49Z</time>
      </trkpt>
      <trkpt lat="45.7206" lon="4.56981">
        <ele>820.6</ele>
        <time>2022-06-26T13:42:50Z</time>
      </trkpt>
      <trkpt lat="45.72059" lon="4.56994">
        <ele>820</ele>
        <time>2022-06-26T13:42:51Z</time>
      </trkpt>
      <trkpt lat="45.72059" lon="4.57007">
        <ele>819.6</ele>
        <time>2022-06-26T13:42:52Z</time>
      </trkpt>
      <trkpt lat="45.72057" lon="4.57024">
        <ele>819.2</ele>
        <time>2022-06-26T13:42:53Z</time>
      </trkpt>
      <trkpt lat="45.72056" lon="4.5704">
        <ele>818.8</ele>
        <time>2022-06-26T13:42:54Z</time>
      </trkpt>
      <trkpt lat="45.72055" lon="4.57056">
        <ele>818.2</ele>
        <time>2022-06-26T13:42:55Z</time>
      </trkpt>
      <trkpt lat="45.72053" lon="4.57072">
        <ele>817.4</ele>
        <time>2022-06-26T13:42:56Z</time>
      </trkpt>
      <trkpt lat="45.72051" lon="4.57087">
        <ele>817</ele>
        <time>2022-06-26T13:42:57Z</time>
      </trkpt>
      <trkpt lat="45.72048" lon="4.57102">
        <ele>816.4</ele>
        <time>2022-06-26T13:42:58Z</time>
      </trkpt>
      <trkpt lat="45.72045" lon="4.57116">
        <ele>815.8</ele>
        <time>2022-06-26T13:42:59Z</time>
      </trkpt>
      <trkpt lat="45.72042" lon="4.57131">
        <ele>815.2</ele>
        <time>2022-06-26T13:43:00Z</time>
      </trkpt>
      <trkpt lat="45.72039" lon="4.57147">
        <ele>814.4</ele>
        <time>2022-06-26T13:43:01Z</time>
      </trkpt>
      <trkpt lat="45.72034" lon="4.57161">
        <ele>814</ele>
        <time>2022-06-26T13:43:02Z</time>
      </trkpt>
      <trkpt lat="45.72028" lon="4.57176">
        <ele>813.2</ele>
        <time>2022-06-26T13:43:03Z</time>
      </trkpt>
      <trkpt lat="45.72022" lon="4.5719">
        <ele>812.6</ele>
        <time>2022-06-26T13:43:04Z</time>
      </trkpt>
      <trkpt lat="45.72015" lon="4.57203">
        <ele>812</ele>
        <time>2022-06-26T13:43:05Z</time>
      </trkpt>
      <trkpt lat="45.72008" lon="4.57216">
        <ele>811.4</ele>
        <time>2022-06-26T13:43:06Z</time>
      </trkpt>
      <trkpt lat="45.72001" lon="4.57228">
        <ele>811</ele>
        <time>2022-06-26T13:43:07Z</time>
      </trkpt>
      <trkpt lat="45.71994" lon="4.5724">
        <ele>810.6</ele>
        <time>2022-06-26T13:43:08Z</time>
      </trkpt>
      <trkpt lat="45.71986" lon="4.57251">
        <ele>810.2</ele>
        <time>2022-06-26T13:43:09Z</time>
      </trkpt>
      <trkpt lat="45.71979" lon="4.57263">
        <ele>809.8</ele>
        <time>2022-06-26T13:43:10Z</time>
      </trkpt>
      <trkpt lat="45.71971" lon="4.57276">
        <ele>809.2</ele>
        <time>2022-06-26T13:43:11Z</time>
      </trkpt>
      <trkpt lat="45.71965" lon="4.57289">
        <ele>808.8</ele>
        <time>2022-06-26T13:43:12Z</time>
      </trkpt>
      <trkpt lat="45.71959" lon="4.57302">
        <ele>808.2</ele>
        <time>2022-06-26T13:43:13Z</time>
      </trkpt>
      <trkpt lat="45.71954" lon="4.57314">
        <ele>807.4</ele>
        <time>2022-06-26T13:43:14Z</time>
      </trkpt>
      <trkpt lat="45.7195" lon="4.57326">
        <ele>806.8</ele>
        <time>2022-06-26T13:43:15Z</time>
      </trkpt>
      <trkpt lat="45.71947" lon="4.57339">
        <ele>806.4</ele>
        <time>2022-06-26T13:43:16Z</time>
      </trkpt>
      <trkpt lat="45.71946" lon="4.57352">
        <ele>805.8</ele>
        <time>2022-06-26T13:43:17Z</time>
      </trkpt>
      <trkpt lat="45.71947" lon="4.57366">
        <ele>805.4</ele>
        <time>2022-06-26T13:43:18Z</time>
      </trkpt>
      <trkpt lat="45.7195" lon="4.57379">
        <ele>805</ele>
        <time>2022-06-26T13:43:19Z</time>
      </trkpt>
      <trkpt lat="45.71953" lon="4.57392">
        <ele>804.4</ele>
        <time>2022-06-26T13:43:20Z</time>
      </trkpt>
      <trkpt lat="45.71956" lon="4.57406">
        <ele>804</ele>
        <time>2022-06-26T13:43:21Z</time>
      </trkpt>
      <trkpt lat="45.71958" lon="4.57419">
        <ele>803.6</ele>
        <time>2022-06-26T13:43:22Z</time>
      </trkpt>
      <trkpt lat="45.7196" lon="4.57434">
        <ele>803.2</ele>
        <time>2022-06-26T13:43:23Z</time>
      </trkpt>
      <trkpt lat="45.7196" lon="4.57446">
        <ele>802.8</ele>
        <time>2022-06-26T13:43:24Z</time>
      </trkpt>
      <trkpt lat="45.71961" lon="4.5746">
        <ele>802.2</ele>
        <time>2022-06-26T13:43:25Z</time>
      </trkpt>
      <trkpt lat="45.71961" lon="4.57471">
        <ele>801.6</ele>
        <time>2022-06-26T13:43:26Z</time>
      </trkpt>
      <trkpt lat="45.71961" lon="4.57481">
        <ele>801</ele>
        <time>2022-06-26T13:43:27Z</time>
      </trkpt>
      <trkpt lat="45.71959" lon="4.57491">
        <ele>800.4</ele>
        <time>2022-06-26T13:43:28Z</time>
      </trkpt>
      <trkpt lat="45.71955" lon="4.57498">
        <ele>799.8</ele>
        <time>2022-06-26T13:43:29Z</time>
      </trkpt>
      <trkpt lat="45.71949" lon="4.57503">
        <ele>799</ele>
        <time>2022-06-26T13:43:30Z</time>
      </trkpt>
      <trkpt lat="45.71942" lon="4.57504">
        <ele>798.4</ele>
        <time>2022-06-26T13:43:31Z</time>
      </trkpt>
      <trkpt lat="45.71935" lon="4.575">
        <ele>797.8</ele>
        <time>2022-06-26T13:43:32Z</time>
      </trkpt>
      <trkpt lat="45.71928" lon="4.57494">
        <ele>797.4</ele>
        <time>2022-06-26T13:43:33Z</time>
      </trkpt>
      <trkpt lat="45.71922" lon="4.57485">
        <ele>797</ele>
        <time>2022-06-26T13:43:34Z</time>
      </trkpt>
      <trkpt lat="45.71916" lon="4.57477">
        <ele>796.6</ele>
        <time>2022-06-26T13:43:35Z</time>
      </trkpt>
      <trkpt lat="45.7191" lon="4.57468">
        <ele>796.2</ele>
        <time>2022-06-26T13:43:36Z</time>
      </trkpt>
      <trkpt lat="45.71903" lon="4.57459">
        <ele>795.8</ele>
        <time>2022-06-26T13:43:37Z</time>
      </trkpt>
      <trkpt lat="45.71897" lon="4.5745">
        <ele>795.4</ele>
        <time>2022-06-26T13:43:38Z</time>
      </trkpt>
      <trkpt lat="45.7189" lon="4.5744">
        <ele>795</ele>
        <time>2022-06-26T13:43:39Z</time>
      </trkpt>
      <trkpt lat="45.71883" lon="4.5743">
        <ele>794.6</ele>
        <time>2022-06-26T13:43:40Z</time>
      </trkpt>
      <trkpt lat="45.71876" lon="4.5742">
        <ele>794.2</ele>
        <time>2022-06-26T13:43:41Z</time>
      </trkpt>
      <trkpt lat="45.71868" lon="4.5741">
        <ele>793.6</ele>
        <time>2022-06-26T13:43:42Z</time>
      </trkpt>
      <trkpt lat="45.71861" lon="4.57402">
        <ele>793.2</ele>
        <time>2022-06-26T13:43:43Z</time>
      </trkpt>
      <trkpt lat="45.71853" lon="4.57395">
        <ele>792.6</ele>
        <time>2022-06-26T13:43:44Z</time>
      </trkpt>
      <trkpt lat="45.71843" lon="4.57389">
        <ele>792.2</ele>
        <time>2022-06-26T13:43:45Z</time>
      </trkpt>
      <trkpt lat="45.71833" lon="4.57383">
        <ele>791.8</ele>
        <time>2022-06-26T13:43:46Z</time>
      </trkpt>
      <trkpt lat="45.71823" lon="4.57379">
        <ele>791.2</ele>
        <time>2022-06-26T13:43:47Z</time>
      </trkpt>
      <trkpt lat="45.71812" lon="4.57376">
        <ele>790.8</ele>
        <time>2022-06-26T13:43:48Z</time>
      </trkpt>
      <trkpt lat="45.71801" lon="4.57374">
        <ele>790.2</ele>
        <time>2022-06-26T13:43:49Z</time>
      </trkpt>
      <trkpt lat="45.7179" lon="4.57372">
        <ele>789.6</ele>
        <time>2022-06-26T13:43:50Z</time>
      </trkpt>
      <trkpt lat="45.71779" lon="4.57372">
        <ele>789</ele>
        <time>2022-06-26T13:43:51Z</time>
      </trkpt>
      <trkpt lat="45.71768" lon="4.57372">
        <ele>788.6</ele>
        <time>2022-06-26T13:43:52Z</time>
      </trkpt>
      <trkpt lat="45.71758" lon="4.57374">
        <ele>788</ele>
        <time>2022-06-26T13:43:53Z</time>
      </trkpt>
      <trkpt lat="45.71747" lon="4.57377">
        <ele>787.4</ele>
        <time>2022-06-26T13:43:54Z</time>
      </trkpt>
      <trkpt lat="45.71736" lon="4.5738">
        <ele>786.8</ele>
        <time>2022-06-26T13:43:55Z</time>
      </trkpt>
      <trkpt lat="45.71726" lon="4.57386">
        <ele>786.4</ele>
        <time>2022-06-26T13:43:56Z</time>
      </trkpt>
      <trkpt lat="45.71715" lon="4.57392">
        <ele>785.8</ele>
        <time>2022-06-26T13:43:57Z</time>
      </trkpt>
      <trkpt lat="45.71705" lon="4.57399">
        <ele>785.2</ele>
        <time>2022-06-26T13:43:58Z</time>
      </trkpt>
      <trkpt lat="45.71695" lon="4.57404">
        <ele>784.6</ele>
        <time>2022-06-26T13:43:59Z</time>
      </trkpt>
      <trkpt lat="45.71685" lon="4.57412">
        <ele>784.2</ele>
        <time>2022-06-26T13:44:00Z</time>
      </trkpt>
      <trkpt lat="45.71675" lon="4.57419">
        <ele>783.6</ele>
        <time>2022-06-26T13:44:01Z</time>
      </trkpt>
      <trkpt lat="45.71664" lon="4.57428">
        <ele>782.8</ele>
        <time>2022-06-26T13:44:02Z</time>
      </trkpt>
      <trkpt lat="45.71654" lon="4.57437">
        <ele>782.2</ele>
        <time>2022-06-26T13:44:03Z</time>
      </trkpt>
      <trkpt lat="45.71644" lon="4.57445">
        <ele>781.8</ele>
        <time>2022-06-26T13:44:04Z</time>
      </trkpt>
      <trkpt lat="45.71633" lon="4.57453">
        <ele>781.2</ele>
        <time>2022-06-26T13:44:05Z</time>
      </trkpt>
      <trkpt lat="45.71621" lon="4.57461">
        <ele>780.6</ele>
        <time>2022-06-26T13:44:06Z</time>
      </trkpt>
      <trkpt lat="45.71611" lon="4.5747">
        <ele>780.2</ele>
        <time>2022-06-26T13:44:07Z</time>
      </trkpt>
      <trkpt lat="45.71601" lon="4.57479">
        <ele>779.6</ele>
        <time>2022-06-26T13:44:08Z</time>
      </trkpt>
      <trkpt lat="45.71591" lon="4.5749">
        <ele>779</ele>
        <time>2022-06-26T13:44:09Z</time>
      </trkpt>
      <trkpt lat="45.71581" lon="4.575">
        <ele>778.4</ele>
        <time>2022-06-26T13:44:10Z</time>
      </trkpt>
      <trkpt lat="45.71571" lon="4.57511">
        <ele>777.8</ele>
        <time>2022-06-26T13:44:11Z</time>
      </trkpt>
      <trkpt lat="45.71561" lon="4.57522">
        <ele>777.2</ele>
        <time>2022-06-26T13:44:12Z</time>
      </trkpt>
      <trkpt lat="45.71552" lon="4.57533">
        <ele>776.6</ele>
        <time>2022-06-26T13:44:13Z</time>
      </trkpt>
      <trkpt lat="45.71543" lon="4.57546">
        <ele>776</ele>
        <time>2022-06-26T13:44:14Z</time>
      </trkpt>
      <trkpt lat="45.71535" lon="4.57558">
        <ele>775.2</ele>
        <time>2022-06-26T13:44:15Z</time>
      </trkpt>
      <trkpt lat="45.71527" lon="4.57571">
        <ele>774.8</ele>
        <time>2022-06-26T13:44:16Z</time>
      </trkpt>
      <trkpt lat="45.71521" lon="4.57585">
        <ele>774.2</ele>
        <time>2022-06-26T13:44:17Z</time>
      </trkpt>
      <trkpt lat="45.71515" lon="4.57599">
        <ele>773.8</ele>
        <time>2022-06-26T13:44:18Z</time>
      </trkpt>
      <trkpt lat="45.7151" lon="4.57614">
        <ele>773.2</ele>
        <time>2022-06-26T13:44:19Z</time>
      </trkpt>
      <trkpt lat="45.71505" lon="4.57629">
        <ele>772.4</ele>
        <time>2022-06-26T13:44:20Z</time>
      </trkpt>
      <trkpt lat="45.71501" lon="4.57642">
        <ele>771.8</ele>
        <time>2022-06-26T13:44:21Z</time>
      </trkpt>
      <trkpt lat="45.71497" lon="4.57655">
        <ele>771</ele>
        <time>2022-06-26T13:44:22Z</time>
      </trkpt>
      <trkpt lat="45.71495" lon="4.57668">
        <ele>770.2</ele>
        <time>2022-06-26T13:44:23Z</time>
      </trkpt>
      <trkpt lat="45.71494" lon="4.5768">
        <ele>769.6</ele>
        <time>2022-06-26T13:44:24Z</time>
      </trkpt>
      <trkpt lat="45.71493" lon="4.57694">
        <ele>769.2</ele>
        <time>2022-06-26T13:44:25Z</time>
      </trkpt>
      <trkpt lat="45.71495" lon="4.57708">
        <ele>768.8</ele>
        <time>2022-06-26T13:44:26Z</time>
      </trkpt>
      <trkpt lat="45.71499" lon="4.5772">
        <ele>768.6</ele>
        <time>2022-06-26T13:44:27Z</time>
      </trkpt>
      <trkpt lat="45.71503" lon="4.57732">
        <ele>768</ele>
        <time>2022-06-26T13:44:28Z</time>
      </trkpt>
      <trkpt lat="45.71507" lon="4.57744">
        <ele>767.4</ele>
        <time>2022-06-26T13:44:29Z</time>
      </trkpt>
      <trkpt lat="45.71509" lon="4.57756">
        <ele>766.8</ele>
        <time>2022-06-26T13:44:30Z</time>
      </trkpt>
      <trkpt lat="45.7151" lon="4.57768">
        <ele>766.4</ele>
        <time>2022-06-26T13:44:31Z</time>
      </trkpt>
      <trkpt lat="45.7151" lon="4.57779">
        <ele>765.8</ele>
        <time>2022-06-26T13:44:32Z</time>
      </trkpt>
      <trkpt lat="45.71508" lon="4.5779">
        <ele>765.2</ele>
        <time>2022-06-26T13:44:33Z</time>
      </trkpt>
      <trkpt lat="45.71506" lon="4.57799">
        <ele>764.6</ele>
        <time>2022-06-26T13:44:34Z</time>
      </trkpt>
      <trkpt lat="45.71502" lon="4.57806">
        <ele>764</ele>
        <time>2022-06-26T13:44:35Z</time>
      </trkpt>
      <trkpt lat="45.71498" lon="4.5781">
        <ele>763.4</ele>
        <time>2022-06-26T13:44:36Z</time>
      </trkpt>
      <trkpt lat="45.71492" lon="4.5781">
        <ele>763</ele>
        <time>2022-06-26T13:44:37Z</time>
      </trkpt>
      <trkpt lat="45.71486" lon="4.57809">
        <ele>762.6</ele>
        <time>2022-06-26T13:44:38Z</time>
      </trkpt>
      <trkpt lat="45.7148" lon="4.57806">
        <ele>762.2</ele>
        <time>2022-06-26T13:44:39Z</time>
      </trkpt>
      <trkpt lat="45.71474" lon="4.57804">
        <ele>762</ele>
        <time>2022-06-26T13:44:40Z</time>
      </trkpt>
      <trkpt lat="45.71468" lon="4.57801">
        <ele>761.6</ele>
        <time>2022-06-26T13:44:41Z</time>
      </trkpt>
      <trkpt lat="45.71462" lon="4.57798">
        <ele>761.6</ele>
        <time>2022-06-26T13:44:42Z</time>
      </trkpt>
      <trkpt lat="45.71457" lon="4.57794">
        <ele>761.4</ele>
        <time>2022-06-26T13:44:43Z</time>
      </trkpt>
      <trkpt lat="45.71451" lon="4.5779">
        <ele>761.4</ele>
        <time>2022-06-26T13:44:44Z</time>
      </trkpt>
      <trkpt lat="45.71446" lon="4.57785">
        <ele>761.2</ele>
        <time>2022-06-26T13:44:45Z</time>
      </trkpt>
      <trkpt lat="45.71441" lon="4.57781">
        <ele>761.2</ele>
        <time>2022-06-26T13:44:46Z</time>
      </trkpt>
      <trkpt lat="45.71436" lon="4.57776">
        <ele>761.2</ele>
        <time>2022-06-26T13:44:47Z</time>
      </trkpt>
      <trkpt lat="45.71431" lon="4.57771">
        <ele>760.8</ele>
        <time>2022-06-26T13:44:48Z</time>
      </trkpt>
      <trkpt lat="45.71426" lon="4.57765">
        <ele>760.8</ele>
        <time>2022-06-26T13:44:49Z</time>
      </trkpt>
      <trkpt lat="45.71422" lon="4.5776">
        <ele>760.8</ele>
        <time>2022-06-26T13:44:50Z</time>
      </trkpt>
      <trkpt lat="45.71417" lon="4.57754">
        <ele>760.6</ele>
        <time>2022-06-26T13:44:51Z</time>
      </trkpt>
      <trkpt lat="45.71412" lon="4.57749">
        <ele>760.6</ele>
        <time>2022-06-26T13:44:52Z</time>
      </trkpt>
      <trkpt lat="45.71407" lon="4.57744">
        <ele>760.6</ele>
        <time>2022-06-26T13:44:53Z</time>
      </trkpt>
      <trkpt lat="45.71401" lon="4.5774">
        <ele>760.6</ele>
        <time>2022-06-26T13:44:54Z</time>
      </trkpt>
      <trkpt lat="45.71395" lon="4.57737">
        <ele>760.4</ele>
        <time>2022-06-26T13:44:55Z</time>
      </trkpt>
      <trkpt lat="45.71388" lon="4.57735">
        <ele>760.4</ele>
        <time>2022-06-26T13:44:56Z</time>
      </trkpt>
      <trkpt lat="45.71382" lon="4.57733">
        <ele>760.4</ele>
        <time>2022-06-26T13:44:57Z</time>
      </trkpt>
      <trkpt lat="45.71374" lon="4.57732">
        <ele>760</ele>
        <time>2022-06-26T13:44:58Z</time>
      </trkpt>
      <trkpt lat="45.71367" lon="4.57732">
        <ele>759.8</ele>
        <time>2022-06-26T13:44:59Z</time>
      </trkpt>
      <trkpt lat="45.71359" lon="4.57732">
        <ele>759.6</ele>
        <time>2022-06-26T13:45:00Z</time>
      </trkpt>
      <trkpt lat="45.71351" lon="4.57732">
        <ele>759.4</ele>
        <time>2022-06-26T13:45:01Z</time>
      </trkpt>
      <trkpt lat="45.71343" lon="4.57733">
        <ele>759</ele>
        <time>2022-06-26T13:45:02Z</time>
      </trkpt>
      <trkpt lat="45.71335" lon="4.57734">
        <ele>758.8</ele>
        <time>2022-06-26T13:45:03Z</time>
      </trkpt>
      <trkpt lat="45.71327" lon="4.57736">
        <ele>758.4</ele>
        <time>2022-06-26T13:45:04Z</time>
      </trkpt>
      <trkpt lat="45.71318" lon="4.5774">
        <ele>758</ele>
        <time>2022-06-26T13:45:05Z</time>
      </trkpt>
      <trkpt lat="45.7131" lon="4.57744">
        <ele>757.6</ele>
        <time>2022-06-26T13:45:06Z</time>
      </trkpt>
      <trkpt lat="45.71302" lon="4.57748">
        <ele>757.2</ele>
        <time>2022-06-26T13:45:07Z</time>
      </trkpt>
      <trkpt lat="45.71294" lon="4.57753">
        <ele>756.8</ele>
        <time>2022-06-26T13:45:08Z</time>
      </trkpt>
      <trkpt lat="45.71285" lon="4.57758">
        <ele>756.4</ele>
        <time>2022-06-26T13:45:09Z</time>
      </trkpt>
      <trkpt lat="45.71276" lon="4.57764">
        <ele>756</ele>
        <time>2022-06-26T13:45:10Z</time>
      </trkpt>
      <trkpt lat="45.71267" lon="4.57768">
        <ele>755.8</ele>
        <time>2022-06-26T13:45:11Z</time>
      </trkpt>
      <trkpt lat="45.71258" lon="4.57776">
        <ele>755.4</ele>
        <time>2022-06-26T13:45:12Z</time>
      </trkpt>
      <trkpt lat="45.7125" lon="4.57785">
        <ele>755</ele>
        <time>2022-06-26T13:45:13Z</time>
      </trkpt>
      <trkpt lat="45.71242" lon="4.57793">
        <ele>754.6</ele>
        <time>2022-06-26T13:45:14Z</time>
      </trkpt>
      <trkpt lat="45.71234" lon="4.57803">
        <ele>754.2</ele>
        <time>2022-06-26T13:45:15Z</time>
      </trkpt>
      <trkpt lat="45.71226" lon="4.57813">
        <ele>753.6</ele>
        <time>2022-06-26T13:45:16Z</time>
      </trkpt>
      <trkpt lat="45.71218" lon="4.57822">
        <ele>753.2</ele>
        <time>2022-06-26T13:45:17Z</time>
      </trkpt>
      <trkpt lat="45.71211" lon="4.57832">
        <ele>752.8</ele>
        <time>2022-06-26T13:45:18Z</time>
      </trkpt>
      <trkpt lat="45.71203" lon="4.57842">
        <ele>752.2</ele>
        <time>2022-06-26T13:45:19Z</time>
      </trkpt>
      <trkpt lat="45.71195" lon="4.57851">
        <ele>751.6</ele>
        <time>2022-06-26T13:45:20Z</time>
      </trkpt>
      <trkpt lat="45.71188" lon="4.57861">
        <ele>751</ele>
        <time>2022-06-26T13:45:21Z</time>
      </trkpt>
      <trkpt lat="45.7118" lon="4.57872">
        <ele>750.4</ele>
        <time>2022-06-26T13:45:22Z</time>
      </trkpt>
      <trkpt lat="45.71172" lon="4.57881">
        <ele>749.8</ele>
        <time>2022-06-26T13:45:23Z</time>
      </trkpt>
      <trkpt lat="45.71163" lon="4.57891">
        <ele>749.2</ele>
        <time>2022-06-26T13:45:24Z</time>
      </trkpt>
      <trkpt lat="45.71155" lon="4.57901">
        <ele>748.6</ele>
        <time>2022-06-26T13:45:25Z</time>
      </trkpt>
      <trkpt lat="45.71146" lon="4.5791">
        <ele>747.8</ele>
        <time>2022-06-26T13:45:26Z</time>
      </trkpt>
      <trkpt lat="45.71137" lon="4.57919">
        <ele>747.4</ele>
        <time>2022-06-26T13:45:27Z</time>
      </trkpt>
      <trkpt lat="45.71128" lon="4.57928">
        <ele>747</ele>
        <time>2022-06-26T13:45:28Z</time>
      </trkpt>
      <trkpt lat="45.7112" lon="4.57937">
        <ele>746.6</ele>
        <time>2022-06-26T13:45:29Z</time>
      </trkpt>
      <trkpt lat="45.71111" lon="4.57946">
        <ele>746</ele>
        <time>2022-06-26T13:45:30Z</time>
      </trkpt>
      <trkpt lat="45.71102" lon="4.57956">
        <ele>745.6</ele>
        <time>2022-06-26T13:45:31Z</time>
      </trkpt>
      <trkpt lat="45.71092" lon="4.57964">
        <ele>745</ele>
        <time>2022-06-26T13:45:32Z</time>
      </trkpt>
      <trkpt lat="45.71083" lon="4.57973">
        <ele>744.4</ele>
        <time>2022-06-26T13:45:33Z</time>
      </trkpt>
      <trkpt lat="45.71073" lon="4.5798">
        <ele>743.8</ele>
        <time>2022-06-26T13:45:34Z</time>
      </trkpt>
      <trkpt lat="45.71064" lon="4.57988">
        <ele>743.2</ele>
        <time>2022-06-26T13:45:35Z</time>
      </trkpt>
      <trkpt lat="45.71054" lon="4.57996">
        <ele>742.8</ele>
        <time>2022-06-26T13:45:36Z</time>
      </trkpt>
      <trkpt lat="45.71045" lon="4.58005">
        <ele>742.4</ele>
        <time>2022-06-26T13:45:37Z</time>
      </trkpt>
      <trkpt lat="45.71035" lon="4.58013">
        <ele>742</ele>
        <time>2022-06-26T13:45:38Z</time>
      </trkpt>
      <trkpt lat="45.71027" lon="4.58023">
        <ele>741.6</ele>
        <time>2022-06-26T13:45:39Z</time>
      </trkpt>
      <trkpt lat="45.71018" lon="4.58034">
        <ele>741</ele>
        <time>2022-06-26T13:45:40Z</time>
      </trkpt>
      <trkpt lat="45.7101" lon="4.58045">
        <ele>740.6</ele>
        <time>2022-06-26T13:45:41Z</time>
      </trkpt>
      <trkpt lat="45.71002" lon="4.58056">
        <ele>740</ele>
        <time>2022-06-26T13:45:42Z</time>
      </trkpt>
      <trkpt lat="45.70995" lon="4.58069">
        <ele>739.6</ele>
        <time>2022-06-26T13:45:43Z</time>
      </trkpt>
      <trkpt lat="45.70987" lon="4.58081">
        <ele>739</ele>
        <time>2022-06-26T13:45:44Z</time>
      </trkpt>
      <trkpt lat="45.70981" lon="4.58094">
        <ele>738.6</ele>
        <time>2022-06-26T13:45:45Z</time>
      </trkpt>
      <trkpt lat="45.70975" lon="4.58108">
        <ele>738</ele>
        <time>2022-06-26T13:45:46Z</time>
      </trkpt>
      <trkpt lat="45.70969" lon="4.58122">
        <ele>737.4</ele>
        <time>2022-06-26T13:45:47Z</time>
      </trkpt>
      <trkpt lat="45.70963" lon="4.58134">
        <ele>736.8</ele>
        <time>2022-06-26T13:45:48Z</time>
      </trkpt>
      <trkpt lat="45.70957" lon="4.58148">
        <ele>736.2</ele>
        <time>2022-06-26T13:45:49Z</time>
      </trkpt>
      <trkpt lat="45.70952" lon="4.58162">
        <ele>735.6</ele>
        <time>2022-06-26T13:45:50Z</time>
      </trkpt>
      <trkpt lat="45.70947" lon="4.58177">
        <ele>735.2</ele>
        <time>2022-06-26T13:45:51Z</time>
      </trkpt>
      <trkpt lat="45.70942" lon="4.58191">
        <ele>735</ele>
        <time>2022-06-26T13:45:52Z</time>
      </trkpt>
      <trkpt lat="45.70938" lon="4.58203">
        <ele>734.4</ele>
        <time>2022-06-26T13:45:53Z</time>
      </trkpt>
      <trkpt lat="45.70934" lon="4.58215">
        <ele>733.6</ele>
        <time>2022-06-26T13:45:54Z</time>
      </trkpt>
      <trkpt lat="45.70931" lon="4.58223">
        <ele>733</ele>
        <time>2022-06-26T13:45:55Z</time>
      </trkpt>
      <trkpt lat="45.70929" lon="4.58229">
        <ele>732.4</ele>
        <time>2022-06-26T13:45:56Z</time>
      </trkpt>
      <trkpt lat="45.70928" lon="4.58233">
        <ele>731.8</ele>
        <time>2022-06-26T13:45:57Z</time>
      </trkpt>
      <trkpt lat="45.70927" lon="4.58236">
        <ele>731.4</ele>
        <time>2022-06-26T13:45:58Z</time>
      </trkpt>
      <trkpt lat="45.70927" lon="4.58237">
        <ele>731</ele>
        <time>2022-06-26T13:45:59Z</time>
      </trkpt>
      <trkpt lat="45.7093" lon="4.5823">
        <ele>730.2</ele>
        <time>2022-06-26T13:46:10Z</time>
      </trkpt>
      <trkpt lat="45.7093" lon="4.58228">
        <ele>730.2</ele>
        <time>2022-06-26T13:46:11Z</time>
      </trkpt>
      <trkpt lat="45.70931" lon="4.58227">
        <ele>730.2</ele>
        <time>2022-06-26T13:46:12Z</time>
      </trkpt>
      <trkpt lat="45.70931" lon="4.58225">
        <ele>730.2</ele>
        <time>2022-06-26T13:46:13Z</time>
      </trkpt>
      <trkpt lat="45.70932" lon="4.58224">
        <ele>730.2</ele>
        <time>2022-06-26T13:46:14Z</time>
      </trkpt>
      <trkpt lat="45.70932" lon="4.58223">
        <ele>730.2</ele>
        <time>2022-06-26T13:46:15Z</time>
      </trkpt>
      <trkpt lat="45.70932" lon="4.58226">
        <ele>730.6</ele>
        <time>2022-06-26T13:48:35Z</time>
      </trkpt>
      <trkpt lat="45.70931" lon="4.5823">
        <ele>730.6</ele>
        <time>2022-06-26T13:48:36Z</time>
      </trkpt>
      <trkpt lat="45.7093" lon="4.58234">
        <ele>730.4</ele>
        <time>2022-06-26T13:48:37Z</time>
      </trkpt>
      <trkpt lat="45.70929" lon="4.58238">
        <ele>730.4</ele>
        <time>2022-06-26T13:48:38Z</time>
      </trkpt>
      <trkpt lat="45.70927" lon="4.58244">
        <ele>730.2</ele>
        <time>2022-06-26T13:48:39Z</time>
      </trkpt>
      <trkpt lat="45.70926" lon="4.5825">
        <ele>730</ele>
        <time>2022-06-26T13:48:40Z</time>
      </trkpt>
      <trkpt lat="45.70924" lon="4.58256">
        <ele>729.6</ele>
        <time>2022-06-26T13:48:41Z</time>
      </trkpt>
      <trkpt lat="45.70922" lon="4.58263">
        <ele>729.4</ele>
        <time>2022-06-26T13:48:42Z</time>
      </trkpt>
      <trkpt lat="45.7092" lon="4.5827">
        <ele>729.2</ele>
        <time>2022-06-26T13:48:43Z</time>
      </trkpt>
      <trkpt lat="45.70917" lon="4.58277">
        <ele>729.2</ele>
        <time>2022-06-26T13:48:44Z</time>
      </trkpt>
      <trkpt lat="45.70915" lon="4.58284">
        <ele>729</ele>
        <time>2022-06-26T13:48:45Z</time>
      </trkpt>
      <trkpt lat="45.70912" lon="4.58292">
        <ele>728.6</ele>
        <time>2022-06-26T13:48:46Z</time>
      </trkpt>
      <trkpt lat="45.7091" lon="4.583">
        <ele>728.4</ele>
        <time>2022-06-26T13:48:47Z</time>
      </trkpt>
      <trkpt lat="45.70907" lon="4.58309">
        <ele>728.2</ele>
        <time>2022-06-26T13:48:48Z</time>
      </trkpt>
      <trkpt lat="45.70905" lon="4.58317">
        <ele>728</ele>
        <time>2022-06-26T13:48:49Z</time>
      </trkpt>
      <trkpt lat="45.70902" lon="4.58326">
        <ele>727.6</ele>
        <time>2022-06-26T13:48:50Z</time>
      </trkpt>
      <trkpt lat="45.709" lon="4.58336">
        <ele>727.4</ele>
        <time>2022-06-26T13:48:51Z</time>
      </trkpt>
      <trkpt lat="45.70897" lon="4.58346">
        <ele>727</ele>
        <time>2022-06-26T13:48:52Z</time>
      </trkpt>
      <trkpt lat="45.70894" lon="4.58356">
        <ele>726.8</ele>
        <time>2022-06-26T13:48:53Z</time>
      </trkpt>
      <trkpt lat="45.70891" lon="4.58367">
        <ele>726.4</ele>
        <time>2022-06-26T13:48:54Z</time>
      </trkpt>
      <trkpt lat="45.70888" lon="4.58378">
        <ele>726.2</ele>
        <time>2022-06-26T13:48:55Z</time>
      </trkpt>
      <trkpt lat="45.70885" lon="4.58389">
        <ele>725.8</ele>
        <time>2022-06-26T13:48:56Z</time>
      </trkpt>
      <trkpt lat="45.70882" lon="4.584">
        <ele>725.4</ele>
        <time>2022-06-26T13:48:57Z</time>
      </trkpt>
      <trkpt lat="45.70878" lon="4.58412">
        <ele>725</ele>
        <time>2022-06-26T13:48:58Z</time>
      </trkpt>
      <trkpt lat="45.70875" lon="4.58424">
        <ele>724.4</ele>
        <time>2022-06-26T13:48:59Z</time>
      </trkpt>
      <trkpt lat="45.70872" lon="4.58436">
        <ele>724</ele>
        <time>2022-06-26T13:49:00Z</time>
      </trkpt>
      <trkpt lat="45.70869" lon="4.58449">
        <ele>723.6</ele>
        <time>2022-06-26T13:49:01Z</time>
      </trkpt>
      <trkpt lat="45.70865" lon="4.58461">
        <ele>723.2</ele>
        <time>2022-06-26T13:49:02Z</time>
      </trkpt>
      <trkpt lat="45.70862" lon="4.58474">
        <ele>722.8</ele>
        <time>2022-06-26T13:49:03Z</time>
      </trkpt>
      <trkpt lat="45.70859" lon="4.58485">
        <ele>722.2</ele>
        <time>2022-06-26T13:49:04Z</time>
      </trkpt>
      <trkpt lat="45.70856" lon="4.58497">
        <ele>721.8</ele>
        <time>2022-06-26T13:49:05Z</time>
      </trkpt>
      <trkpt lat="45.70853" lon="4.58509">
        <ele>721.2</ele>
        <time>2022-06-26T13:49:06Z</time>
      </trkpt>
      <trkpt lat="45.7085" lon="4.5852">
        <ele>720.8</ele>
        <time>2022-06-26T13:49:07Z</time>
      </trkpt>
      <trkpt lat="45.70847" lon="4.58532">
        <ele>720.4</ele>
        <time>2022-06-26T13:49:08Z</time>
      </trkpt>
      <trkpt lat="45.70844" lon="4.58545">
        <ele>720</ele>
        <time>2022-06-26T13:49:09Z</time>
      </trkpt>
      <trkpt lat="45.70842" lon="4.58556">
        <ele>719.4</ele>
        <time>2022-06-26T13:49:10Z</time>
      </trkpt>
      <trkpt lat="45.7084" lon="4.58568">
        <ele>719</ele>
        <time>2022-06-26T13:49:11Z</time>
      </trkpt>
      <trkpt lat="45.70838" lon="4.5858">
        <ele>718.8</ele>
        <time>2022-06-26T13:49:12Z</time>
      </trkpt>
      <trkpt lat="45.70836" lon="4.58591">
        <ele>718.4</ele>
        <time>2022-06-26T13:49:13Z</time>
      </trkpt>
      <trkpt lat="45.70835" lon="4.58603">
        <ele>718</ele>
        <time>2022-06-26T13:49:14Z</time>
      </trkpt>
      <trkpt lat="45.70833" lon="4.58615">
        <ele>718</ele>
        <time>2022-06-26T13:49:15Z</time>
      </trkpt>
      <trkpt lat="45.70832" lon="4.58627">
        <ele>717.4</ele>
        <time>2022-06-26T13:49:16Z</time>
      </trkpt>
      <trkpt lat="45.70831" lon="4.58638">
        <ele>716.8</ele>
        <time>2022-06-26T13:49:17Z</time>
      </trkpt>
      <trkpt lat="45.70829" lon="4.58648">
        <ele>716.4</ele>
        <time>2022-06-26T13:49:18Z</time>
      </trkpt>
      <trkpt lat="45.70828" lon="4.58659">
        <ele>716</ele>
        <time>2022-06-26T13:49:19Z</time>
      </trkpt>
      <trkpt lat="45.70826" lon="4.58669">
        <ele>715.6</ele>
        <time>2022-06-26T13:49:20Z</time>
      </trkpt>
      <trkpt lat="45.70825" lon="4.58679">
        <ele>715.2</ele>
        <time>2022-06-26T13:49:21Z</time>
      </trkpt>
      <trkpt lat="45.70824" lon="4.58689">
        <ele>714.8</ele>
        <time>2022-06-26T13:49:22Z</time>
      </trkpt>
      <trkpt lat="45.70823" lon="4.58698">
        <ele>714.4</ele>
        <time>2022-06-26T13:49:23Z</time>
      </trkpt>
      <trkpt lat="45.70822" lon="4.58707">
        <ele>714</ele>
        <time>2022-06-26T13:49:24Z</time>
      </trkpt>
      <trkpt lat="45.70822" lon="4.58715">
        <ele>713.6</ele>
        <time>2022-06-26T13:49:25Z</time>
      </trkpt>
      <trkpt lat="45.70821" lon="4.58722">
        <ele>713.2</ele>
        <time>2022-06-26T13:49:26Z</time>
      </trkpt>
      <trkpt lat="45.7082" lon="4.58729">
        <ele>712.8</ele>
        <time>2022-06-26T13:49:27Z</time>
      </trkpt>
      <trkpt lat="45.70819" lon="4.58735">
        <ele>712.6</ele>
        <time>2022-06-26T13:49:28Z</time>
      </trkpt>
      <trkpt lat="45.70819" lon="4.5874">
        <ele>712.2</ele>
        <time>2022-06-26T13:49:29Z</time>
      </trkpt>
      <trkpt lat="45.70818" lon="4.58745">
        <ele>712</ele>
        <time>2022-06-26T13:49:30Z</time>
      </trkpt>
      <trkpt lat="45.70817" lon="4.5875">
        <ele>712</ele>
        <time>2022-06-26T13:49:31Z</time>
      </trkpt>
      <trkpt lat="45.70816" lon="4.58754">
        <ele>711.6</ele>
        <time>2022-06-26T13:49:32Z</time>
      </trkpt>
      <trkpt lat="45.70816" lon="4.58759">
        <ele>711.4</ele>
        <time>2022-06-26T13:49:33Z</time>
      </trkpt>
      <trkpt lat="45.70816" lon="4.58763">
        <ele>711.4</ele>
        <time>2022-06-26T13:49:34Z</time>
      </trkpt>
      <trkpt lat="45.70816" lon="4.58767">
        <ele>711</ele>
        <time>2022-06-26T13:49:35Z</time>
      </trkpt>
      <trkpt lat="45.70816" lon="4.58772">
        <ele>711</ele>
        <time>2022-06-26T13:49:36Z</time>
      </trkpt>
      <trkpt lat="45.70815" lon="4.58777">
        <ele>710.6</ele>
        <time>2022-06-26T13:49:37Z</time>
      </trkpt>
      <trkpt lat="45.70815" lon="4.58783">
        <ele>710.6</ele>
        <time>2022-06-26T13:49:38Z</time>
      </trkpt>
      <trkpt lat="45.70814" lon="4.58788">
        <ele>710.2</ele>
        <time>2022-06-26T13:49:39Z</time>
      </trkpt>
      <trkpt lat="45.70813" lon="4.58793">
        <ele>710</ele>
        <time>2022-06-26T13:49:40Z</time>
      </trkpt>
      <trkpt lat="45.70813" lon="4.58797">
        <ele>709.8</ele>
        <time>2022-06-26T13:49:41Z</time>
      </trkpt>
      <trkpt lat="45.70812" lon="4.58801">
        <ele>709.8</ele>
        <time>2022-06-26T13:49:42Z</time>
      </trkpt>
      <trkpt lat="45.70812" lon="4.58803">
        <ele>709.4</ele>
        <time>2022-06-26T13:49:43Z</time>
      </trkpt>
      <trkpt lat="45.70813" lon="4.58805">
        <ele>709.4</ele>
        <time>2022-06-26T13:49:44Z</time>
      </trkpt>
      <trkpt lat="45.70814" lon="4.58806">
        <ele>709</ele>
        <time>2022-06-26T13:49:45Z</time>
      </trkpt>
      <trkpt lat="45.70815" lon="4.58805">
        <ele>709</ele>
        <time>2022-06-26T13:49:46Z</time>
      </trkpt>
      <trkpt lat="45.70816" lon="4.58804">
        <ele>709</ele>
        <time>2022-06-26T13:49:47Z</time>
      </trkpt>
      <trkpt lat="45.70817" lon="4.58801">
        <ele>708.8</ele>
        <time>2022-06-26T13:49:48Z</time>
      </trkpt>
      <trkpt lat="45.70817" lon="4.58799">
        <ele>708.8</ele>
        <time>2022-06-26T13:49:49Z</time>
      </trkpt>
      <trkpt lat="45.70817" lon="4.58797">
        <ele>708.8</ele>
        <time>2022-06-26T13:49:50Z</time>
      </trkpt>
      <trkpt lat="45.70817" lon="4.58795">
        <ele>708.8</ele>
        <time>2022-06-26T13:49:51Z</time>
      </trkpt>
      <trkpt lat="45.70817" lon="4.58793">
        <ele>708.8</ele>
        <time>2022-06-26T13:49:52Z</time>
      </trkpt>
      <trkpt lat="45.70817" lon="4.5879">
        <ele>708.8</ele>
        <time>2022-06-26T13:49:53Z</time>
      </trkpt>
      <trkpt lat="45.70817" lon="4.58787">
        <ele>709.2</ele>
        <time>2022-06-26T13:49:54Z</time>
      </trkpt>
      <trkpt lat="45.70817" lon="4.58784">
        <ele>709.2</ele>
        <time>2022-06-26T13:49:55Z</time>
      </trkpt>
      <trkpt lat="45.70817" lon="4.58781">
        <ele>709.4</ele>
        <time>2022-06-26T13:49:56Z</time>
      </trkpt>
      <trkpt lat="45.70817" lon="4.58778">
        <ele>709.4</ele>
        <time>2022-06-26T13:49:57Z</time>
      </trkpt>
      <trkpt lat="45.70817" lon="4.58775">
        <ele>709.6</ele>
        <time>2022-06-26T13:49:58Z</time>
      </trkpt>
      <trkpt lat="45.70817" lon="4.58772">
        <ele>709.6</ele>
        <time>2022-06-26T13:49:59Z</time>
      </trkpt>
      <trkpt lat="45.70816" lon="4.58768">
        <ele>710</ele>
        <time>2022-06-26T13:50:00Z</time>
      </trkpt>
      <trkpt lat="45.70816" lon="4.58765">
        <ele>710</ele>
        <time>2022-06-26T13:50:01Z</time>
      </trkpt>
      <trkpt lat="45.70816" lon="4.58762">
        <ele>710.2</ele>
        <time>2022-06-26T13:50:02Z</time>
      </trkpt>
      <trkpt lat="45.70816" lon="4.58758">
        <ele>710.2</ele>
        <time>2022-06-26T13:50:03Z</time>
      </trkpt>
      <trkpt lat="45.70815" lon="4.58755">
        <ele>710.6</ele>
        <time>2022-06-26T13:50:04Z</time>
      </trkpt>
      <trkpt lat="45.70814" lon="4.58753">
        <ele>710.6</ele>
        <time>2022-06-26T13:50:05Z</time>
      </trkpt>
      <trkpt lat="45.70812" lon="4.58752">
        <ele>710.6</ele>
        <time>2022-06-26T13:50:06Z</time>
      </trkpt>
      <trkpt lat="45.70809" lon="4.58752">
        <ele>710.6</ele>
        <time>2022-06-26T13:50:07Z</time>
      </trkpt>
      <trkpt lat="45.70806" lon="4.58753">
        <ele>710.8</ele>
        <time>2022-06-26T13:50:08Z</time>
      </trkpt>
      <trkpt lat="45.70803" lon="4.58754">
        <ele>710.8</ele>
        <time>2022-06-26T13:50:09Z</time>
      </trkpt>
      <trkpt lat="45.708" lon="4.58756">
        <ele>710.8</ele>
        <time>2022-06-26T13:50:10Z</time>
      </trkpt>
      <trkpt lat="45.70797" lon="4.58757">
        <ele>711.2</ele>
        <time>2022-06-26T13:50:11Z</time>
      </trkpt>
      <trkpt lat="45.70794" lon="4.58757">
        <ele>711.4</ele>
        <time>2022-06-26T13:50:12Z</time>
      </trkpt>
      <trkpt lat="45.70792" lon="4.58758">
        <ele>711.6</ele>
        <time>2022-06-26T13:50:13Z</time>
      </trkpt>
      <trkpt lat="45.70789" lon="4.58758">
        <ele>711.8</ele>
        <time>2022-06-26T13:50:14Z</time>
      </trkpt>
      <trkpt lat="45.70785" lon="4.5876">
        <ele>712</ele>
        <time>2022-06-26T13:50:15Z</time>
      </trkpt>
      <trkpt lat="45.70782" lon="4.58762">
        <ele>712.4</ele>
        <time>2022-06-26T13:50:16Z</time>
      </trkpt>
      <trkpt lat="45.70779" lon="4.58765">
        <ele>712.4</ele>
        <time>2022-06-26T13:50:17Z</time>
      </trkpt>
      <trkpt lat="45.70777" lon="4.58769">
        <ele>712.8</ele>
        <time>2022-06-26T13:50:18Z</time>
      </trkpt>
      <trkpt lat="45.70775" lon="4.58772">
        <ele>713</ele>
        <time>2022-06-26T13:50:19Z</time>
      </trkpt>
      <trkpt lat="45.70773" lon="4.58776">
        <ele>713</ele>
        <time>2022-06-26T13:50:20Z</time>
      </trkpt>
      <trkpt lat="45.70772" lon="4.5878">
        <ele>713.4</ele>
        <time>2022-06-26T13:50:21Z</time>
      </trkpt>
      <trkpt lat="45.7077" lon="4.58784">
        <ele>713.6</ele>
        <time>2022-06-26T13:50:22Z</time>
      </trkpt>
      <trkpt lat="45.70769" lon="4.58787">
        <ele>714</ele>
        <time>2022-06-26T13:50:23Z</time>
      </trkpt>
      <trkpt lat="45.70767" lon="4.58791">
        <ele>714.2</ele>
        <time>2022-06-26T13:50:24Z</time>
      </trkpt>
      <trkpt lat="45.70766" lon="4.58795">
        <ele>714.4</ele>
        <time>2022-06-26T13:50:25Z</time>
      </trkpt>
      <trkpt lat="45.70764" lon="4.58799">
        <ele>714.6</ele>
        <time>2022-06-26T13:50:26Z</time>
      </trkpt>
      <trkpt lat="45.70763" lon="4.58803">
        <ele>715</ele>
        <time>2022-06-26T13:50:27Z</time>
      </trkpt>
      <trkpt lat="45.70761" lon="4.58806">
        <ele>715.2</ele>
        <time>2022-06-26T13:50:28Z</time>
      </trkpt>
      <trkpt lat="45.7076" lon="4.5881">
        <ele>715.4</ele>
        <time>2022-06-26T13:50:29Z</time>
      </trkpt>
      <trkpt lat="45.70758" lon="4.58814">
        <ele>715.6</ele>
        <time>2022-06-26T13:50:30Z</time>
      </trkpt>
      <trkpt lat="45.70757" lon="4.58817">
        <ele>715.8</ele>
        <time>2022-06-26T13:50:31Z</time>
      </trkpt>
      <trkpt lat="45.70756" lon="4.5882">
        <ele>716.2</ele>
        <time>2022-06-26T13:50:32Z</time>
      </trkpt>
      <trkpt lat="45.70755" lon="4.58824">
        <ele>716.4</ele>
        <time>2022-06-26T13:50:33Z</time>
      </trkpt>
      <trkpt lat="45.70753" lon="4.58827">
        <ele>716.6</ele>
        <time>2022-06-26T13:50:34Z</time>
      </trkpt>
      <trkpt lat="45.70752" lon="4.58831">
        <ele>717</ele>
        <time>2022-06-26T13:50:35Z</time>
      </trkpt>
      <trkpt lat="45.70751" lon="4.58834">
        <ele>717</ele>
        <time>2022-06-26T13:50:36Z</time>
      </trkpt>
      <trkpt lat="45.7075" lon="4.58837">
        <ele>717.4</ele>
        <time>2022-06-26T13:50:37Z</time>
      </trkpt>
      <trkpt lat="45.70748" lon="4.5884">
        <ele>717.8</ele>
        <time>2022-06-26T13:50:38Z</time>
      </trkpt>
      <trkpt lat="45.70747" lon="4.58844">
        <ele>718</ele>
        <time>2022-06-26T13:50:39Z</time>
      </trkpt>
      <trkpt lat="45.70747" lon="4.58847">
        <ele>718.2</ele>
        <time>2022-06-26T13:50:40Z</time>
      </trkpt>
      <trkpt lat="45.70746" lon="4.5885">
        <ele>718.4</ele>
        <time>2022-06-26T13:50:41Z</time>
      </trkpt>
      <trkpt lat="45.70745" lon="4.58854">
        <ele>718.4</ele>
        <time>2022-06-26T13:50:42Z</time>
      </trkpt>
      <trkpt lat="45.70744" lon="4.58857">
        <ele>718.8</ele>
        <time>2022-06-26T13:50:43Z</time>
      </trkpt>
      <trkpt lat="45.70743" lon="4.5886">
        <ele>719</ele>
        <time>2022-06-26T13:50:44Z</time>
      </trkpt>
      <trkpt lat="45.70742" lon="4.58863">
        <ele>719.4</ele>
        <time>2022-06-26T13:50:45Z</time>
      </trkpt>
      <trkpt lat="45.70742" lon="4.58867">
        <ele>719.6</ele>
        <time>2022-06-26T13:50:46Z</time>
      </trkpt>
      <trkpt lat="45.70741" lon="4.5887">
        <ele>719.6</ele>
        <time>2022-06-26T13:50:47Z</time>
      </trkpt>
      <trkpt lat="45.70741" lon="4.58874">
        <ele>720.2</ele>
        <time>2022-06-26T13:50:48Z</time>
      </trkpt>
      <trkpt lat="45.7074" lon="4.58878">
        <ele>720.2</ele>
        <time>2022-06-26T13:50:49Z</time>
      </trkpt>
      <trkpt lat="45.70739" lon="4.58881">
        <ele>720.6</ele>
        <time>2022-06-26T13:50:50Z</time>
      </trkpt>
      <trkpt lat="45.70738" lon="4.58885">
        <ele>720.8</ele>
        <time>2022-06-26T13:50:51Z</time>
      </trkpt>
      <trkpt lat="45.70737" lon="4.58889">
        <ele>721</ele>
        <time>2022-06-26T13:50:52Z</time>
      </trkpt>
      <trkpt lat="45.70738" lon="4.58893">
        <ele>721.4</ele>
        <time>2022-06-26T13:50:53Z</time>
      </trkpt>
      <trkpt lat="45.70738" lon="4.58896">
        <ele>721.6</ele>
        <time>2022-06-26T13:50:54Z</time>
      </trkpt>
      <trkpt lat="45.70739" lon="4.58899">
        <ele>721.8</ele>
        <time>2022-06-26T13:50:55Z</time>
      </trkpt>
      <trkpt lat="45.7074" lon="4.58903">
        <ele>722</ele>
        <time>2022-06-26T13:50:56Z</time>
      </trkpt>
      <trkpt lat="45.70741" lon="4.58906">
        <ele>722</ele>
        <time>2022-06-26T13:50:57Z</time>
      </trkpt>
      <trkpt lat="45.70741" lon="4.58909">
        <ele>722.4</ele>
        <time>2022-06-26T13:50:58Z</time>
      </trkpt>
      <trkpt lat="45.70742" lon="4.58913">
        <ele>722.4</ele>
        <time>2022-06-26T13:50:59Z</time>
      </trkpt>
      <trkpt lat="45.70743" lon="4.58916">
        <ele>722.8</ele>
        <time>2022-06-26T13:51:00Z</time>
      </trkpt>
      <trkpt lat="45.70743" lon="4.5892">
        <ele>722.8</ele>
        <time>2022-06-26T13:51:01Z</time>
      </trkpt>
      <trkpt lat="45.70744" lon="4.58923">
        <ele>723</ele>
        <time>2022-06-26T13:51:02Z</time>
      </trkpt>
      <trkpt lat="45.70744" lon="4.58926">
        <ele>723</ele>
        <time>2022-06-26T13:51:03Z</time>
      </trkpt>
      <trkpt lat="45.70745" lon="4.5893">
        <ele>723.4</ele>
        <time>2022-06-26T13:51:04Z</time>
      </trkpt>
      <trkpt lat="45.70746" lon="4.58933">
        <ele>723.4</ele>
        <time>2022-06-26T13:51:05Z</time>
      </trkpt>
      <trkpt lat="45.70747" lon="4.58936">
        <ele>723.4</ele>
        <time>2022-06-26T13:51:06Z</time>
      </trkpt>
      <trkpt lat="45.70748" lon="4.5894">
        <ele>723.6</ele>
        <time>2022-06-26T13:51:07Z</time>
      </trkpt>
      <trkpt lat="45.70749" lon="4.58943">
        <ele>723.6</ele>
        <time>2022-06-26T13:51:08Z</time>
      </trkpt>
      <trkpt lat="45.70749" lon="4.58946">
        <ele>723.8</ele>
        <time>2022-06-26T13:51:09Z</time>
      </trkpt>
      <trkpt lat="45.7075" lon="4.58949">
        <ele>723.8</ele>
        <time>2022-06-26T13:51:10Z</time>
      </trkpt>
      <trkpt lat="45.7075" lon="4.58952">
        <ele>724.2</ele>
        <time>2022-06-26T13:51:11Z</time>
      </trkpt>
      <trkpt lat="45.70751" lon="4.58955">
        <ele>724.2</ele>
        <time>2022-06-26T13:51:12Z</time>
      </trkpt>
      <trkpt lat="45.70751" lon="4.58958">
        <ele>724.4</ele>
        <time>2022-06-26T13:51:13Z</time>
      </trkpt>
      <trkpt lat="45.70752" lon="4.58961">
        <ele>724.6</ele>
        <time>2022-06-26T13:51:14Z</time>
      </trkpt>
      <trkpt lat="45.70753" lon="4.58964">
        <ele>724.6</ele>
        <time>2022-06-26T13:51:15Z</time>
      </trkpt>
      <trkpt lat="45.70753" lon="4.58967">
        <ele>725</ele>
        <time>2022-06-26T13:51:16Z</time>
      </trkpt>
      <trkpt lat="45.70754" lon="4.5897">
        <ele>725.2</ele>
        <time>2022-06-26T13:51:17Z</time>
      </trkpt>
      <trkpt lat="45.70755" lon="4.58974">
        <ele>725.2</ele>
        <time>2022-06-26T13:51:18Z</time>
      </trkpt>
      <trkpt lat="45.70756" lon="4.58977">
        <ele>725.4</ele>
        <time>2022-06-26T13:51:19Z</time>
      </trkpt>
      <trkpt lat="45.70757" lon="4.58981">
        <ele>725.4</ele>
        <time>2022-06-26T13:51:20Z</time>
      </trkpt>
      <trkpt lat="45.70757" lon="4.58983">
        <ele>725.4</ele>
        <time>2022-06-26T13:51:21Z</time>
      </trkpt>
      <trkpt lat="45.70757" lon="4.58986">
        <ele>725.8</ele>
        <time>2022-06-26T13:51:22Z</time>
      </trkpt>
      <trkpt lat="45.70757" lon="4.5899">
        <ele>725.8</ele>
        <time>2022-06-26T13:51:23Z</time>
      </trkpt>
      <trkpt lat="45.70757" lon="4.58994">
        <ele>726</ele>
        <time>2022-06-26T13:51:24Z</time>
      </trkpt>
      <trkpt lat="45.70758" lon="4.58997">
        <ele>726</ele>
        <time>2022-06-26T13:51:25Z</time>
      </trkpt>
      <trkpt lat="45.70758" lon="4.59">
        <ele>726.2</ele>
        <time>2022-06-26T13:51:26Z</time>
      </trkpt>
      <trkpt lat="45.70759" lon="4.59003">
        <ele>726.2</ele>
        <time>2022-06-26T13:51:27Z</time>
      </trkpt>
      <trkpt lat="45.70759" lon="4.59006">
        <ele>726.2</ele>
        <time>2022-06-26T13:51:28Z</time>
      </trkpt>
      <trkpt lat="45.7076" lon="4.5901">
        <ele>726.4</ele>
        <time>2022-06-26T13:51:29Z</time>
      </trkpt>
      <trkpt lat="45.70761" lon="4.59013">
        <ele>726.4</ele>
        <time>2022-06-26T13:51:30Z</time>
      </trkpt>
      <trkpt lat="45.70763" lon="4.59016">
        <ele>726.4</ele>
        <time>2022-06-26T13:51:31Z</time>
      </trkpt>
      <trkpt lat="45.70764" lon="4.59019">
        <ele>726.4</ele>
        <time>2022-06-26T13:51:32Z</time>
      </trkpt>
      <trkpt lat="45.70765" lon="4.59022">
        <ele>726.4</ele>
        <time>2022-06-26T13:51:33Z</time>
      </trkpt>
      <trkpt lat="45.70767" lon="4.59025">
        <ele>726.4</ele>
        <time>2022-06-26T13:51:34Z</time>
      </trkpt>
      <trkpt lat="45.7077" lon="4.59029">
        <ele>726.2</ele>
        <time>2022-06-26T13:51:35Z</time>
      </trkpt>
      <trkpt lat="45.70772" lon="4.59032">
        <ele>726.2</ele>
        <time>2022-06-26T13:51:36Z</time>
      </trkpt>
      <trkpt lat="45.70774" lon="4.59036">
        <ele>726.2</ele>
        <time>2022-06-26T13:51:37Z</time>
      </trkpt>
      <trkpt lat="45.70776" lon="4.59039">
        <ele>726</ele>
        <time>2022-06-26T13:51:38Z</time>
      </trkpt>
      <trkpt lat="45.70777" lon="4.59044">
        <ele>726</ele>
        <time>2022-06-26T13:51:39Z</time>
      </trkpt>
      <trkpt lat="45.70779" lon="4.59048">
        <ele>726</ele>
        <time>2022-06-26T13:51:40Z</time>
      </trkpt>
      <trkpt lat="45.70781" lon="4.5905">
        <ele>726</ele>
        <time>2022-06-26T13:51:41Z</time>
      </trkpt>
      <trkpt lat="45.70783" lon="4.59051">
        <ele>726</ele>
        <time>2022-06-26T13:51:42Z</time>
      </trkpt>
      <trkpt lat="45.70786" lon="4.59052">
        <ele>726</ele>
        <time>2022-06-26T13:51:43Z</time>
      </trkpt>
      <trkpt lat="45.70788" lon="4.59051">
        <ele>726</ele>
        <time>2022-06-26T13:51:44Z</time>
      </trkpt>
      <trkpt lat="45.7079" lon="4.59051">
        <ele>726.2</ele>
        <time>2022-06-26T13:51:45Z</time>
      </trkpt>
      <trkpt lat="45.70791" lon="4.5905">
        <ele>726.2</ele>
        <time>2022-06-26T13:51:46Z</time>
      </trkpt>
      <trkpt lat="45.70793" lon="4.59049">
        <ele>726.2</ele>
        <time>2022-06-26T13:51:47Z</time>
      </trkpt>
      <trkpt lat="45.70795" lon="4.59048">
        <ele>726.6</ele>
        <time>2022-06-26T13:51:48Z</time>
      </trkpt>
      <trkpt lat="45.70796" lon="4.59047">
        <ele>726.6</ele>
        <time>2022-06-26T13:51:49Z</time>
      </trkpt>
      <trkpt lat="45.70798" lon="4.59046">
        <ele>726.6</ele>
        <time>2022-06-26T13:51:50Z</time>
      </trkpt>
      <trkpt lat="45.70799" lon="4.59046">
        <ele>726.6</ele>
        <time>2022-06-26T13:51:51Z</time>
      </trkpt>
      <trkpt lat="45.708" lon="4.59047">
        <ele>726.6</ele>
        <time>2022-06-26T13:51:52Z</time>
      </trkpt>
      <trkpt lat="45.70801" lon="4.59048">
        <ele>726.6</ele>
        <time>2022-06-26T13:51:53Z</time>
      </trkpt>
      <trkpt lat="45.70802" lon="4.59049">
        <ele>726.6</ele>
        <time>2022-06-26T13:51:54Z</time>
      </trkpt>
      <trkpt lat="45.70802" lon="4.59051">
        <ele>726.6</ele>
        <time>2022-06-26T13:51:55Z</time>
      </trkpt>
      <trkpt lat="45.70789" lon="4.59054">
        <ele>708.8</ele>
        <time>2022-06-26T14:02:35Z</time>
      </trkpt>
      <trkpt lat="45.70788" lon="4.59056">
        <ele>708.8</ele>
        <time>2022-06-26T14:02:36Z</time>
      </trkpt>
      <trkpt lat="45.70787" lon="4.59057">
        <ele>708.8</ele>
        <time>2022-06-26T14:02:37Z</time>
      </trkpt>
      <trkpt lat="45.70784" lon="4.5906">
        <ele>708.8</ele>
        <time>2022-06-26T14:02:48Z</time>
      </trkpt>
      <trkpt lat="45.70783" lon="4.59061">
        <ele>708.8</ele>
        <time>2022-06-26T14:02:49Z</time>
      </trkpt>
      <trkpt lat="45.70783" lon="4.59063">
        <ele>708.8</ele>
        <time>2022-06-26T14:02:50Z</time>
      </trkpt>
      <trkpt lat="45.70783" lon="4.59066">
        <ele>708.8</ele>
        <time>2022-06-26T14:02:51Z</time>
      </trkpt>
      <trkpt lat="45.70784" lon="4.59068">
        <ele>708.8</ele>
        <time>2022-06-26T14:02:52Z</time>
      </trkpt>
      <trkpt lat="45.70785" lon="4.59068">
        <ele>708.8</ele>
        <time>2022-06-26T14:02:53Z</time>
      </trkpt>
      <trkpt lat="45.70786" lon="4.59067">
        <ele>708.8</ele>
        <time>2022-06-26T14:02:54Z</time>
      </trkpt>
      <trkpt lat="45.70787" lon="4.59065">
        <ele>708.8</ele>
        <time>2022-06-26T14:02:55Z</time>
      </trkpt>
      <trkpt lat="45.70786" lon="4.5906">
        <ele>708.8</ele>
        <time>2022-06-26T14:02:56Z</time>
      </trkpt>
      <trkpt lat="45.70786" lon="4.59059">
        <ele>709</ele>
        <time>2022-06-26T14:02:57Z</time>
      </trkpt>
      <trkpt lat="45.70783" lon="4.59056">
        <ele>709</ele>
        <time>2022-06-26T14:02:58Z</time>
      </trkpt>
      <trkpt lat="45.70783" lon="4.59055">
        <ele>709</ele>
        <time>2022-06-26T14:02:59Z</time>
      </trkpt>
      <trkpt lat="45.70781" lon="4.59053">
        <ele>709</ele>
        <time>2022-06-26T14:03:00Z</time>
      </trkpt>
      <trkpt lat="45.70779" lon="4.59051">
        <ele>708.8</ele>
        <time>2022-06-26T14:03:01Z</time>
      </trkpt>
      <trkpt lat="45.70778" lon="4.59047">
        <ele>708.8</ele>
        <time>2022-06-26T14:03:02Z</time>
      </trkpt>
      <trkpt lat="45.70777" lon="4.59046">
        <ele>708.8</ele>
        <time>2022-06-26T14:03:03Z</time>
      </trkpt>
      <trkpt lat="45.70778" lon="4.59042">
        <ele>708.8</ele>
        <time>2022-06-26T14:03:04Z</time>
      </trkpt>
      <trkpt lat="45.70779" lon="4.59041">
        <ele>708.4</ele>
        <time>2022-06-26T14:03:05Z</time>
      </trkpt>
      <trkpt lat="45.7078" lon="4.5904">
        <ele>708.4</ele>
        <time>2022-06-26T14:03:06Z</time>
      </trkpt>
      <trkpt lat="45.70781" lon="4.59038">
        <ele>708.4</ele>
        <time>2022-06-26T14:03:07Z</time>
      </trkpt>
      <trkpt lat="45.70783" lon="4.59037">
        <ele>708.4</ele>
        <time>2022-06-26T14:03:08Z</time>
      </trkpt>
      <trkpt lat="45.70785" lon="4.59036">
        <ele>708</ele>
        <time>2022-06-26T14:03:09Z</time>
      </trkpt>
      <trkpt lat="45.70787" lon="4.59034">
        <ele>707.8</ele>
        <time>2022-06-26T14:03:10Z</time>
      </trkpt>
      <trkpt lat="45.70788" lon="4.59033">
        <ele>707.6</ele>
        <time>2022-06-26T14:03:11Z</time>
      </trkpt>
      <trkpt lat="45.7079" lon="4.59032">
        <ele>707.2</ele>
        <time>2022-06-26T14:03:12Z</time>
      </trkpt>
      <trkpt lat="45.70792" lon="4.59031">
        <ele>706.8</ele>
        <time>2022-06-26T14:03:13Z</time>
      </trkpt>
      <trkpt lat="45.70795" lon="4.5903">
        <ele>706.4</ele>
        <time>2022-06-26T14:03:14Z</time>
      </trkpt>
      <trkpt lat="45.70798" lon="4.5903">
        <ele>706</ele>
        <time>2022-06-26T14:03:15Z</time>
      </trkpt>
      <trkpt lat="45.70801" lon="4.5903">
        <ele>705.6</ele>
        <time>2022-06-26T14:03:16Z</time>
      </trkpt>
      <trkpt lat="45.70807" lon="4.59029">
        <ele>705.2</ele>
        <time>2022-06-26T14:03:17Z</time>
      </trkpt>
      <trkpt lat="45.70809" lon="4.59029">
        <ele>704.6</ele>
        <time>2022-06-26T14:03:18Z</time>
      </trkpt>
      <trkpt lat="45.70813" lon="4.59029">
        <ele>704.2</ele>
        <time>2022-06-26T14:03:19Z</time>
      </trkpt>
      <trkpt lat="45.70817" lon="4.59028">
        <ele>703.6</ele>
        <time>2022-06-26T14:03:20Z</time>
      </trkpt>
      <trkpt lat="45.7082" lon="4.59029">
        <ele>703.2</ele>
        <time>2022-06-26T14:03:21Z</time>
      </trkpt>
      <trkpt lat="45.70822" lon="4.59031">
        <ele>702.8</ele>
        <time>2022-06-26T14:03:22Z</time>
      </trkpt>
      <trkpt lat="45.70826" lon="4.59032">
        <ele>702.2</ele>
        <time>2022-06-26T14:03:23Z</time>
      </trkpt>
      <trkpt lat="45.7083" lon="4.59035">
        <ele>701.8</ele>
        <time>2022-06-26T14:03:24Z</time>
      </trkpt>
      <trkpt lat="45.70833" lon="4.59037">
        <ele>701.4</ele>
        <time>2022-06-26T14:03:25Z</time>
      </trkpt>
      <trkpt lat="45.70836" lon="4.5904">
        <ele>701</ele>
        <time>2022-06-26T14:03:26Z</time>
      </trkpt>
      <trkpt lat="45.70838" lon="4.59044">
        <ele>700.8</ele>
        <time>2022-06-26T14:03:27Z</time>
      </trkpt>
      <trkpt lat="45.70841" lon="4.59048">
        <ele>700.6</ele>
        <time>2022-06-26T14:03:28Z</time>
      </trkpt>
      <trkpt lat="45.70844" lon="4.59053">
        <ele>700.4</ele>
        <time>2022-06-26T14:03:29Z</time>
      </trkpt>
      <trkpt lat="45.70846" lon="4.59057">
        <ele>700</ele>
        <time>2022-06-26T14:03:30Z</time>
      </trkpt>
      <trkpt lat="45.70849" lon="4.5906">
        <ele>700</ele>
        <time>2022-06-26T14:03:31Z</time>
      </trkpt>
      <trkpt lat="45.70853" lon="4.59064">
        <ele>699.8</ele>
        <time>2022-06-26T14:03:32Z</time>
      </trkpt>
      <trkpt lat="45.70856" lon="4.59068">
        <ele>699.8</ele>
        <time>2022-06-26T14:03:33Z</time>
      </trkpt>
      <trkpt lat="45.70858" lon="4.59072">
        <ele>699.6</ele>
        <time>2022-06-26T14:03:34Z</time>
      </trkpt>
      <trkpt lat="45.7086" lon="4.59078">
        <ele>699.4</ele>
        <time>2022-06-26T14:03:35Z</time>
      </trkpt>
      <trkpt lat="45.70862" lon="4.59083">
        <ele>699</ele>
        <time>2022-06-26T14:03:36Z</time>
      </trkpt>
      <trkpt lat="45.70863" lon="4.59089">
        <ele>698.8</ele>
        <time>2022-06-26T14:03:37Z</time>
      </trkpt>
      <trkpt lat="45.70865" lon="4.59096">
        <ele>698.6</ele>
        <time>2022-06-26T14:03:38Z</time>
      </trkpt>
      <trkpt lat="45.70867" lon="4.59102">
        <ele>698.4</ele>
        <time>2022-06-26T14:03:39Z</time>
      </trkpt>
      <trkpt lat="45.70869" lon="4.59109">
        <ele>698.2</ele>
        <time>2022-06-26T14:03:40Z</time>
      </trkpt>
      <trkpt lat="45.70871" lon="4.59115">
        <ele>697.8</ele>
        <time>2022-06-26T14:03:41Z</time>
      </trkpt>
      <trkpt lat="45.70872" lon="4.59123">
        <ele>697.4</ele>
        <time>2022-06-26T14:03:42Z</time>
      </trkpt>
      <trkpt lat="45.70873" lon="4.5913">
        <ele>697</ele>
        <time>2022-06-26T14:03:43Z</time>
      </trkpt>
      <trkpt lat="45.70874" lon="4.59137">
        <ele>696.6</ele>
        <time>2022-06-26T14:03:44Z</time>
      </trkpt>
      <trkpt lat="45.70875" lon="4.59143">
        <ele>696.2</ele>
        <time>2022-06-26T14:03:45Z</time>
      </trkpt>
      <trkpt lat="45.70875" lon="4.5915">
        <ele>696</ele>
        <time>2022-06-26T14:03:46Z</time>
      </trkpt>
      <trkpt lat="45.70877" lon="4.59155">
        <ele>695.8</ele>
        <time>2022-06-26T14:03:47Z</time>
      </trkpt>
      <trkpt lat="45.70878" lon="4.59161">
        <ele>695.4</ele>
        <time>2022-06-26T14:03:48Z</time>
      </trkpt>
      <trkpt lat="45.70878" lon="4.59165">
        <ele>695.2</ele>
        <time>2022-06-26T14:03:49Z</time>
      </trkpt>
      <trkpt lat="45.70877" lon="4.5917">
        <ele>695</ele>
        <time>2022-06-26T14:03:50Z</time>
      </trkpt>
      <trkpt lat="45.70875" lon="4.59174">
        <ele>695</ele>
        <time>2022-06-26T14:03:51Z</time>
      </trkpt>
      <trkpt lat="45.70872" lon="4.59177">
        <ele>694.6</ele>
        <time>2022-06-26T14:03:52Z</time>
      </trkpt>
      <trkpt lat="45.70869" lon="4.59179">
        <ele>694.6</ele>
        <time>2022-06-26T14:03:53Z</time>
      </trkpt>
      <trkpt lat="45.70865" lon="4.59182">
        <ele>694.2</ele>
        <time>2022-06-26T14:03:54Z</time>
      </trkpt>
      <trkpt lat="45.7086" lon="4.59184">
        <ele>694</ele>
        <time>2022-06-26T14:03:55Z</time>
      </trkpt>
      <trkpt lat="45.70855" lon="4.59185">
        <ele>693.8</ele>
        <time>2022-06-26T14:03:56Z</time>
      </trkpt>
      <trkpt lat="45.70849" lon="4.59188">
        <ele>693.4</ele>
        <time>2022-06-26T14:03:57Z</time>
      </trkpt>
      <trkpt lat="45.70844" lon="4.5919">
        <ele>693</ele>
        <time>2022-06-26T14:03:58Z</time>
      </trkpt>
      <trkpt lat="45.70838" lon="4.59193">
        <ele>692.6</ele>
        <time>2022-06-26T14:03:59Z</time>
      </trkpt>
      <trkpt lat="45.70833" lon="4.59196">
        <ele>692.2</ele>
        <time>2022-06-26T14:04:00Z</time>
      </trkpt>
      <trkpt lat="45.70827" lon="4.59199">
        <ele>691.8</ele>
        <time>2022-06-26T14:04:01Z</time>
      </trkpt>
      <trkpt lat="45.70822" lon="4.59202">
        <ele>691.2</ele>
        <time>2022-06-26T14:04:02Z</time>
      </trkpt>
      <trkpt lat="45.70816" lon="4.59205">
        <ele>690.6</ele>
        <time>2022-06-26T14:04:03Z</time>
      </trkpt>
      <trkpt lat="45.7081" lon="4.59207">
        <ele>690</ele>
        <time>2022-06-26T14:04:04Z</time>
      </trkpt>
      <trkpt lat="45.70804" lon="4.59208">
        <ele>689.4</ele>
        <time>2022-06-26T14:04:05Z</time>
      </trkpt>
      <trkpt lat="45.70798" lon="4.59209">
        <ele>688.6</ele>
        <time>2022-06-26T14:04:06Z</time>
      </trkpt>
      <trkpt lat="45.70791" lon="4.59209">
        <ele>688</ele>
        <time>2022-06-26T14:04:07Z</time>
      </trkpt>
      <trkpt lat="45.70784" lon="4.59209">
        <ele>687.2</ele>
        <time>2022-06-26T14:04:08Z</time>
      </trkpt>
      <trkpt lat="45.70778" lon="4.5921">
        <ele>686.6</ele>
        <time>2022-06-26T14:04:09Z</time>
      </trkpt>
      <trkpt lat="45.70772" lon="4.59211">
        <ele>685.8</ele>
        <time>2022-06-26T14:04:10Z</time>
      </trkpt>
      <trkpt lat="45.70766" lon="4.59212">
        <ele>685.2</ele>
        <time>2022-06-26T14:04:11Z</time>
      </trkpt>
      <trkpt lat="45.70761" lon="4.59215">
        <ele>684.4</ele>
        <time>2022-06-26T14:04:12Z</time>
      </trkpt>
      <trkpt lat="45.70755" lon="4.59219">
        <ele>683.8</ele>
        <time>2022-06-26T14:04:13Z</time>
      </trkpt>
      <trkpt lat="45.7075" lon="4.59225">
        <ele>683</ele>
        <time>2022-06-26T14:04:14Z</time>
      </trkpt>
      <trkpt lat="45.70745" lon="4.59233">
        <ele>681</ele>
        <time>2022-06-26T14:04:15Z</time>
      </trkpt>
      <trkpt lat="45.70741" lon="4.59244">
        <ele>679.8</ele>
        <time>2022-06-26T14:04:16Z</time>
      </trkpt>
      <trkpt lat="45.70737" lon="4.59254">
        <ele>678.8</ele>
        <time>2022-06-26T14:04:17Z</time>
      </trkpt>
      <trkpt lat="45.70734" lon="4.59265">
        <ele>677.8</ele>
        <time>2022-06-26T14:04:18Z</time>
      </trkpt>
      <trkpt lat="45.7073" lon="4.59276">
        <ele>676.6</ele>
        <time>2022-06-26T14:04:19Z</time>
      </trkpt>
      <trkpt lat="45.70727" lon="4.59287">
        <ele>675.4</ele>
        <time>2022-06-26T14:04:20Z</time>
      </trkpt>
      <trkpt lat="45.70723" lon="4.59298">
        <ele>674.4</ele>
        <time>2022-06-26T14:04:21Z</time>
      </trkpt>
      <trkpt lat="45.7072" lon="4.59309">
        <ele>673.2</ele>
        <time>2022-06-26T14:04:22Z</time>
      </trkpt>
      <trkpt lat="45.70718" lon="4.5932">
        <ele>672.2</ele>
        <time>2022-06-26T14:04:23Z</time>
      </trkpt>
      <trkpt lat="45.70715" lon="4.59331">
        <ele>671.4</ele>
        <time>2022-06-26T14:04:24Z</time>
      </trkpt>
      <trkpt lat="45.70713" lon="4.59342">
        <ele>670.4</ele>
        <time>2022-06-26T14:04:25Z</time>
      </trkpt>
      <trkpt lat="45.70711" lon="4.59352">
        <ele>669.4</ele>
        <time>2022-06-26T14:04:26Z</time>
      </trkpt>
      <trkpt lat="45.70708" lon="4.59363">
        <ele>668.4</ele>
        <time>2022-06-26T14:04:27Z</time>
      </trkpt>
      <trkpt lat="45.70705" lon="4.59374">
        <ele>667.4</ele>
        <time>2022-06-26T14:04:28Z</time>
      </trkpt>
      <trkpt lat="45.70702" lon="4.59385">
        <ele>666.2</ele>
        <time>2022-06-26T14:04:29Z</time>
      </trkpt>
      <trkpt lat="45.70699" lon="4.59396">
        <ele>665</ele>
        <time>2022-06-26T14:04:30Z</time>
      </trkpt>
      <trkpt lat="45.70696" lon="4.59406">
        <ele>664</ele>
        <time>2022-06-26T14:04:31Z</time>
      </trkpt>
      <trkpt lat="45.70694" lon="4.59415">
        <ele>662.8</ele>
        <time>2022-06-26T14:04:32Z</time>
      </trkpt>
      <trkpt lat="45.70691" lon="4.59424">
        <ele>661.6</ele>
        <time>2022-06-26T14:04:33Z</time>
      </trkpt>
      <trkpt lat="45.7069" lon="4.59431">
        <ele>660.6</ele>
        <time>2022-06-26T14:04:34Z</time>
      </trkpt>
      <trkpt lat="45.70689" lon="4.59438">
        <ele>659.6</ele>
        <time>2022-06-26T14:04:35Z</time>
      </trkpt>
      <trkpt lat="45.7069" lon="4.59442">
        <ele>658.8</ele>
        <time>2022-06-26T14:04:36Z</time>
      </trkpt>
      <trkpt lat="45.70691" lon="4.59446">
        <ele>658.2</ele>
        <time>2022-06-26T14:04:37Z</time>
      </trkpt>
      <trkpt lat="45.70693" lon="4.59447">
        <ele>657.6</ele>
        <time>2022-06-26T14:04:38Z</time>
      </trkpt>
      <trkpt lat="45.70697" lon="4.59447">
        <ele>657</ele>
        <time>2022-06-26T14:04:39Z</time>
      </trkpt>
      <trkpt lat="45.70701" lon="4.59445">
        <ele>656.2</ele>
        <time>2022-06-26T14:04:40Z</time>
      </trkpt>
      <trkpt lat="45.70705" lon="4.59442">
        <ele>655.2</ele>
        <time>2022-06-26T14:04:41Z</time>
      </trkpt>
      <trkpt lat="45.7071" lon="4.59439">
        <ele>654.4</ele>
        <time>2022-06-26T14:04:42Z</time>
      </trkpt>
      <trkpt lat="45.70716" lon="4.59437">
        <ele>653.4</ele>
        <time>2022-06-26T14:04:43Z</time>
      </trkpt>
      <trkpt lat="45.70722" lon="4.59434">
        <ele>652.6</ele>
        <time>2022-06-26T14:04:44Z</time>
      </trkpt>
      <trkpt lat="45.70728" lon="4.59432">
        <ele>651.4</ele>
        <time>2022-06-26T14:04:45Z</time>
      </trkpt>
      <trkpt lat="45.70734" lon="4.59428">
        <ele>650.2</ele>
        <time>2022-06-26T14:04:46Z</time>
      </trkpt>
      <trkpt lat="45.70741" lon="4.59425">
        <ele>649</ele>
        <time>2022-06-26T14:04:47Z</time>
      </trkpt>
      <trkpt lat="45.70747" lon="4.59421">
        <ele>647.6</ele>
        <time>2022-06-26T14:04:48Z</time>
      </trkpt>
      <trkpt lat="45.70754" lon="4.59418">
        <ele>646.4</ele>
        <time>2022-06-26T14:04:49Z</time>
      </trkpt>
      <trkpt lat="45.7076" lon="4.59413">
        <ele>645</ele>
        <time>2022-06-26T14:04:50Z</time>
      </trkpt>
      <trkpt lat="45.70767" lon="4.59408">
        <ele>644</ele>
        <time>2022-06-26T14:04:51Z</time>
      </trkpt>
      <trkpt lat="45.70774" lon="4.59402">
        <ele>643</ele>
        <time>2022-06-26T14:04:52Z</time>
      </trkpt>
      <trkpt lat="45.7078" lon="4.59395">
        <ele>642</ele>
        <time>2022-06-26T14:04:53Z</time>
      </trkpt>
      <trkpt lat="45.70787" lon="4.59388">
        <ele>641.2</ele>
        <time>2022-06-26T14:04:54Z</time>
      </trkpt>
      <trkpt lat="45.70793" lon="4.59381">
        <ele>640.4</ele>
        <time>2022-06-26T14:04:55Z</time>
      </trkpt>
      <trkpt lat="45.70799" lon="4.59375">
        <ele>639.6</ele>
        <time>2022-06-26T14:04:56Z</time>
      </trkpt>
      <trkpt lat="45.70805" lon="4.5937">
        <ele>639</ele>
        <time>2022-06-26T14:04:57Z</time>
      </trkpt>
      <trkpt lat="45.70811" lon="4.59367">
        <ele>638.2</ele>
        <time>2022-06-26T14:04:58Z</time>
      </trkpt>
      <trkpt lat="45.70816" lon="4.59364">
        <ele>637.6</ele>
        <time>2022-06-26T14:04:59Z</time>
      </trkpt>
      <trkpt lat="45.7082" lon="4.59363">
        <ele>636.8</ele>
        <time>2022-06-26T14:05:00Z</time>
      </trkpt>
      <trkpt lat="45.70824" lon="4.59362">
        <ele>636.2</ele>
        <time>2022-06-26T14:05:01Z</time>
      </trkpt>
      <trkpt lat="45.70829" lon="4.59361">
        <ele>635.4</ele>
        <time>2022-06-26T14:05:02Z</time>
      </trkpt>
      <trkpt lat="45.70834" lon="4.59361">
        <ele>634.8</ele>
        <time>2022-06-26T14:05:03Z</time>
      </trkpt>
      <trkpt lat="45.7084" lon="4.59362">
        <ele>633.8</ele>
        <time>2022-06-26T14:05:04Z</time>
      </trkpt>
      <trkpt lat="45.70847" lon="4.59362">
        <ele>632.8</ele>
        <time>2022-06-26T14:05:05Z</time>
      </trkpt>
      <trkpt lat="45.70854" lon="4.59363">
        <ele>631.4</ele>
        <time>2022-06-26T14:05:06Z</time>
      </trkpt>
      <trkpt lat="45.70861" lon="4.59365">
        <ele>630</ele>
        <time>2022-06-26T14:05:07Z</time>
      </trkpt>
      <trkpt lat="45.70868" lon="4.59366">
        <ele>628.6</ele>
        <time>2022-06-26T14:05:08Z</time>
      </trkpt>
      <trkpt lat="45.70875" lon="4.59368">
        <ele>627.2</ele>
        <time>2022-06-26T14:05:09Z</time>
      </trkpt>
      <trkpt lat="45.70882" lon="4.59369">
        <ele>625.8</ele>
        <time>2022-06-26T14:05:10Z</time>
      </trkpt>
      <trkpt lat="45.70889" lon="4.59369">
        <ele>624.6</ele>
        <time>2022-06-26T14:05:11Z</time>
      </trkpt>
      <trkpt lat="45.70894" lon="4.59369">
        <ele>623.2</ele>
        <time>2022-06-26T14:05:12Z</time>
      </trkpt>
      <trkpt lat="45.709" lon="4.59368">
        <ele>622</ele>
        <time>2022-06-26T14:05:13Z</time>
      </trkpt>
      <trkpt lat="45.70905" lon="4.59367">
        <ele>621</ele>
        <time>2022-06-26T14:05:14Z</time>
      </trkpt>
      <trkpt lat="45.70909" lon="4.59366">
        <ele>620</ele>
        <time>2022-06-26T14:05:15Z</time>
      </trkpt>
      <trkpt lat="45.70913" lon="4.59364">
        <ele>619.2</ele>
        <time>2022-06-26T14:05:16Z</time>
      </trkpt>
      <trkpt lat="45.70915" lon="4.59363">
        <ele>618.4</ele>
        <time>2022-06-26T14:05:17Z</time>
      </trkpt>
      <trkpt lat="45.70918" lon="4.59363">
        <ele>617.6</ele>
        <time>2022-06-26T14:05:18Z</time>
      </trkpt>
      <trkpt lat="45.7092" lon="4.59364">
        <ele>617.2</ele>
        <time>2022-06-26T14:05:19Z</time>
      </trkpt>
      <trkpt lat="45.70922" lon="4.59368">
        <ele>616.4</ele>
        <time>2022-06-26T14:05:20Z</time>
      </trkpt>
      <trkpt lat="45.70921" lon="4.59373">
        <ele>615.8</ele>
        <time>2022-06-26T14:05:21Z</time>
      </trkpt>
      <trkpt lat="45.70919" lon="4.59378">
        <ele>615.2</ele>
        <time>2022-06-26T14:05:22Z</time>
      </trkpt>
      <trkpt lat="45.70915" lon="4.59383">
        <ele>614.8</ele>
        <time>2022-06-26T14:05:23Z</time>
      </trkpt>
      <trkpt lat="45.70911" lon="4.59388">
        <ele>614.2</ele>
        <time>2022-06-26T14:05:24Z</time>
      </trkpt>
      <trkpt lat="45.70906" lon="4.59394">
        <ele>613.6</ele>
        <time>2022-06-26T14:05:25Z</time>
      </trkpt>
      <trkpt lat="45.70902" lon="4.59403">
        <ele>612.8</ele>
        <time>2022-06-26T14:05:26Z</time>
      </trkpt>
      <trkpt lat="45.70897" lon="4.59413">
        <ele>612</ele>
        <time>2022-06-26T14:05:27Z</time>
      </trkpt>
      <trkpt lat="45.70892" lon="4.59424">
        <ele>611.2</ele>
        <time>2022-06-26T14:05:28Z</time>
      </trkpt>
      <trkpt lat="45.70886" lon="4.59436">
        <ele>610.2</ele>
        <time>2022-06-26T14:05:29Z</time>
      </trkpt>
      <trkpt lat="45.7088" lon="4.59448">
        <ele>609.2</ele>
        <time>2022-06-26T14:05:30Z</time>
      </trkpt>
      <trkpt lat="45.70874" lon="4.59459">
        <ele>608.6</ele>
        <time>2022-06-26T14:05:31Z</time>
      </trkpt>
      <trkpt lat="45.7087" lon="4.59472">
        <ele>607.4</ele>
        <time>2022-06-26T14:05:32Z</time>
      </trkpt>
      <trkpt lat="45.70866" lon="4.59484">
        <ele>606.6</ele>
        <time>2022-06-26T14:05:33Z</time>
      </trkpt>
      <trkpt lat="45.70861" lon="4.59497">
        <ele>605.8</ele>
        <time>2022-06-26T14:05:34Z</time>
      </trkpt>
      <trkpt lat="45.70857" lon="4.59509">
        <ele>605</ele>
        <time>2022-06-26T14:05:35Z</time>
      </trkpt>
      <trkpt lat="45.70854" lon="4.5952">
        <ele>604.4</ele>
        <time>2022-06-26T14:05:36Z</time>
      </trkpt>
      <trkpt lat="45.7085" lon="4.59531">
        <ele>603.6</ele>
        <time>2022-06-26T14:05:37Z</time>
      </trkpt>
      <trkpt lat="45.70848" lon="4.5954">
        <ele>602.8</ele>
        <time>2022-06-26T14:05:38Z</time>
      </trkpt>
      <trkpt lat="45.70847" lon="4.59549">
        <ele>602.2</ele>
        <time>2022-06-26T14:05:39Z</time>
      </trkpt>
      <trkpt lat="45.70848" lon="4.59558">
        <ele>601.4</ele>
        <time>2022-06-26T14:05:40Z</time>
      </trkpt>
      <trkpt lat="45.7085" lon="4.59567">
        <ele>600.8</ele>
        <time>2022-06-26T14:05:41Z</time>
      </trkpt>
      <trkpt lat="45.70852" lon="4.59577">
        <ele>600</ele>
        <time>2022-06-26T14:05:42Z</time>
      </trkpt>
      <trkpt lat="45.70854" lon="4.59586">
        <ele>599.4</ele>
        <time>2022-06-26T14:05:43Z</time>
      </trkpt>
      <trkpt lat="45.70857" lon="4.59594">
        <ele>598.8</ele>
        <time>2022-06-26T14:05:44Z</time>
      </trkpt>
      <trkpt lat="45.7086" lon="4.59602">
        <ele>598</ele>
        <time>2022-06-26T14:05:45Z</time>
      </trkpt>
      <trkpt lat="45.70863" lon="4.59609">
        <ele>597.2</ele>
        <time>2022-06-26T14:05:46Z</time>
      </trkpt>
      <trkpt lat="45.70867" lon="4.59616">
        <ele>596.4</ele>
        <time>2022-06-26T14:05:47Z</time>
      </trkpt>
      <trkpt lat="45.70871" lon="4.59624">
        <ele>595.4</ele>
        <time>2022-06-26T14:05:48Z</time>
      </trkpt>
      <trkpt lat="45.70876" lon="4.59631">
        <ele>594.4</ele>
        <time>2022-06-26T14:05:49Z</time>
      </trkpt>
      <trkpt lat="45.7088" lon="4.59639">
        <ele>593.2</ele>
        <time>2022-06-26T14:05:50Z</time>
      </trkpt>
      <trkpt lat="45.70885" lon="4.59646">
        <ele>592</ele>
        <time>2022-06-26T14:05:51Z</time>
      </trkpt>
      <trkpt lat="45.70889" lon="4.59654">
        <ele>591</ele>
        <time>2022-06-26T14:05:52Z</time>
      </trkpt>
      <trkpt lat="45.70892" lon="4.59663">
        <ele>589.8</ele>
        <time>2022-06-26T14:05:53Z</time>
      </trkpt>
      <trkpt lat="45.70894" lon="4.59672">
        <ele>588.6</ele>
        <time>2022-06-26T14:05:54Z</time>
      </trkpt>
      <trkpt lat="45.70896" lon="4.5968">
        <ele>587.6</ele>
        <time>2022-06-26T14:05:55Z</time>
      </trkpt>
      <trkpt lat="45.70899" lon="4.59688">
        <ele>586.4</ele>
        <time>2022-06-26T14:05:56Z</time>
      </trkpt>
      <trkpt lat="45.70902" lon="4.59695">
        <ele>585.2</ele>
        <time>2022-06-26T14:05:57Z</time>
      </trkpt>
      <trkpt lat="45.70906" lon="4.59703">
        <ele>583.8</ele>
        <time>2022-06-26T14:05:58Z</time>
      </trkpt>
      <trkpt lat="45.7091" lon="4.59711">
        <ele>582.6</ele>
        <time>2022-06-26T14:05:59Z</time>
      </trkpt>
      <trkpt lat="45.70915" lon="4.59719">
        <ele>581.4</ele>
        <time>2022-06-26T14:06:00Z</time>
      </trkpt>
      <trkpt lat="45.70919" lon="4.59726">
        <ele>580.2</ele>
        <time>2022-06-26T14:06:01Z</time>
      </trkpt>
      <trkpt lat="45.70924" lon="4.59733">
        <ele>579</ele>
        <time>2022-06-26T14:06:02Z</time>
      </trkpt>
      <trkpt lat="45.70928" lon="4.5974">
        <ele>577.6</ele>
        <time>2022-06-26T14:06:03Z</time>
      </trkpt>
      <trkpt lat="45.70933" lon="4.59747">
        <ele>576.4</ele>
        <time>2022-06-26T14:06:04Z</time>
      </trkpt>
      <trkpt lat="45.70937" lon="4.59754">
        <ele>575.2</ele>
        <time>2022-06-26T14:06:05Z</time>
      </trkpt>
      <trkpt lat="45.7094" lon="4.59761">
        <ele>574.2</ele>
        <time>2022-06-26T14:06:06Z</time>
      </trkpt>
      <trkpt lat="45.70944" lon="4.59767">
        <ele>573</ele>
        <time>2022-06-26T14:06:07Z</time>
      </trkpt>
      <trkpt lat="45.70947" lon="4.59774">
        <ele>572.2</ele>
        <time>2022-06-26T14:06:08Z</time>
      </trkpt>
      <trkpt lat="45.7095" lon="4.59781">
        <ele>571.2</ele>
        <time>2022-06-26T14:06:09Z</time>
      </trkpt>
      <trkpt lat="45.70953" lon="4.59788">
        <ele>570.4</ele>
        <time>2022-06-26T14:06:10Z</time>
      </trkpt>
      <trkpt lat="45.70955" lon="4.59796">
        <ele>569.6</ele>
        <time>2022-06-26T14:06:11Z</time>
      </trkpt>
      <trkpt lat="45.70957" lon="4.59804">
        <ele>568.6</ele>
        <time>2022-06-26T14:06:12Z</time>
      </trkpt>
      <trkpt lat="45.70958" lon="4.59812">
        <ele>567.8</ele>
        <time>2022-06-26T14:06:13Z</time>
      </trkpt>
      <trkpt lat="45.70959" lon="4.59821">
        <ele>567.2</ele>
        <time>2022-06-26T14:06:14Z</time>
      </trkpt>
      <trkpt lat="45.70959" lon="4.59832">
        <ele>566.4</ele>
        <time>2022-06-26T14:06:15Z</time>
      </trkpt>
      <trkpt lat="45.70959" lon="4.59841">
        <ele>565.6</ele>
        <time>2022-06-26T14:06:16Z</time>
      </trkpt>
      <trkpt lat="45.7096" lon="4.5985">
        <ele>565</ele>
        <time>2022-06-26T14:06:17Z</time>
      </trkpt>
      <trkpt lat="45.70961" lon="4.59858">
        <ele>564.4</ele>
        <time>2022-06-26T14:06:18Z</time>
      </trkpt>
      <trkpt lat="45.70964" lon="4.59866">
        <ele>563.8</ele>
        <time>2022-06-26T14:06:19Z</time>
      </trkpt>
      <trkpt lat="45.70969" lon="4.59874">
        <ele>563.4</ele>
        <time>2022-06-26T14:06:20Z</time>
      </trkpt>
      <trkpt lat="45.70973" lon="4.59881">
        <ele>562.8</ele>
        <time>2022-06-26T14:06:21Z</time>
      </trkpt>
      <trkpt lat="45.70978" lon="4.59887">
        <ele>562.2</ele>
        <time>2022-06-26T14:06:22Z</time>
      </trkpt>
      <trkpt lat="45.70983" lon="4.59892">
        <ele>561.6</ele>
        <time>2022-06-26T14:06:23Z</time>
      </trkpt>
      <trkpt lat="45.70989" lon="4.59897">
        <ele>561.2</ele>
        <time>2022-06-26T14:06:24Z</time>
      </trkpt>
      <trkpt lat="45.70995" lon="4.59901">
        <ele>560.6</ele>
        <time>2022-06-26T14:06:25Z</time>
      </trkpt>
      <trkpt lat="45.71" lon="4.59906">
        <ele>560.2</ele>
        <time>2022-06-26T14:06:26Z</time>
      </trkpt>
      <trkpt lat="45.71006" lon="4.59911">
        <ele>559.6</ele>
        <time>2022-06-26T14:06:27Z</time>
      </trkpt>
      <trkpt lat="45.71011" lon="4.59916">
        <ele>559</ele>
        <time>2022-06-26T14:06:28Z</time>
      </trkpt>
      <trkpt lat="45.71015" lon="4.59921">
        <ele>558.4</ele>
        <time>2022-06-26T14:06:29Z</time>
      </trkpt>
      <trkpt lat="45.71019" lon="4.59926">
        <ele>558</ele>
        <time>2022-06-26T14:06:30Z</time>
      </trkpt>
      <trkpt lat="45.71022" lon="4.59931">
        <ele>557.2</ele>
        <time>2022-06-26T14:06:31Z</time>
      </trkpt>
      <trkpt lat="45.71026" lon="4.59935">
        <ele>557.2</ele>
        <time>2022-06-26T14:06:32Z</time>
      </trkpt>
      <trkpt lat="45.71029" lon="4.5994">
        <ele>556.6</ele>
        <time>2022-06-26T14:06:33Z</time>
      </trkpt>
      <trkpt lat="45.71034" lon="4.59945">
        <ele>555.8</ele>
        <time>2022-06-26T14:06:34Z</time>
      </trkpt>
      <trkpt lat="45.71038" lon="4.59949">
        <ele>555.2</ele>
        <time>2022-06-26T14:06:35Z</time>
      </trkpt>
      <trkpt lat="45.71041" lon="4.59955">
        <ele>554.4</ele>
        <time>2022-06-26T14:06:36Z</time>
      </trkpt>
      <trkpt lat="45.71044" lon="4.5996">
        <ele>553.8</ele>
        <time>2022-06-26T14:06:37Z</time>
      </trkpt>
      <trkpt lat="45.71048" lon="4.59965">
        <ele>553.2</ele>
        <time>2022-06-26T14:06:38Z</time>
      </trkpt>
      <trkpt lat="45.71052" lon="4.59971">
        <ele>552.8</ele>
        <time>2022-06-26T14:06:39Z</time>
      </trkpt>
      <trkpt lat="45.71055" lon="4.59976">
        <ele>552</ele>
        <time>2022-06-26T14:06:40Z</time>
      </trkpt>
      <trkpt lat="45.71058" lon="4.5998">
        <ele>551.6</ele>
        <time>2022-06-26T14:06:41Z</time>
      </trkpt>
      <trkpt lat="45.71066" lon="4.59989">
        <ele>551</ele>
        <time>2022-06-26T14:06:42Z</time>
      </trkpt>
      <trkpt lat="45.71072" lon="4.59993">
        <ele>550.2</ele>
        <time>2022-06-26T14:06:43Z</time>
      </trkpt>
      <trkpt lat="45.71079" lon="4.59997">
        <ele>549.4</ele>
        <time>2022-06-26T14:06:44Z</time>
      </trkpt>
      <trkpt lat="45.71084" lon="4.60001">
        <ele>548.6</ele>
        <time>2022-06-26T14:06:45Z</time>
      </trkpt>
      <trkpt lat="45.71089" lon="4.60005">
        <ele>547.8</ele>
        <time>2022-06-26T14:06:46Z</time>
      </trkpt>
      <trkpt lat="45.71097" lon="4.60011">
        <ele>547</ele>
        <time>2022-06-26T14:06:47Z</time>
      </trkpt>
      <trkpt lat="45.71102" lon="4.60019">
        <ele>546</ele>
        <time>2022-06-26T14:06:48Z</time>
      </trkpt>
      <trkpt lat="45.71108" lon="4.60026">
        <ele>545.2</ele>
        <time>2022-06-26T14:06:49Z</time>
      </trkpt>
      <trkpt lat="45.71114" lon="4.60034">
        <ele>544.4</ele>
        <time>2022-06-26T14:06:50Z</time>
      </trkpt>
      <trkpt lat="45.7112" lon="4.60041">
        <ele>543.6</ele>
        <time>2022-06-26T14:06:51Z</time>
      </trkpt>
      <trkpt lat="45.71126" lon="4.60048">
        <ele>542.8</ele>
        <time>2022-06-26T14:06:52Z</time>
      </trkpt>
      <trkpt lat="45.71131" lon="4.60054">
        <ele>542</ele>
        <time>2022-06-26T14:06:53Z</time>
      </trkpt>
      <trkpt lat="45.71136" lon="4.6006">
        <ele>541.4</ele>
        <time>2022-06-26T14:06:54Z</time>
      </trkpt>
      <trkpt lat="45.71141" lon="4.60066">
        <ele>540.8</ele>
        <time>2022-06-26T14:06:55Z</time>
      </trkpt>
      <trkpt lat="45.71146" lon="4.60071">
        <ele>540.2</ele>
        <time>2022-06-26T14:06:56Z</time>
      </trkpt>
      <trkpt lat="45.71151" lon="4.60077">
        <ele>539.6</ele>
        <time>2022-06-26T14:06:57Z</time>
      </trkpt>
      <trkpt lat="45.71157" lon="4.60084">
        <ele>539</ele>
        <time>2022-06-26T14:06:58Z</time>
      </trkpt>
      <trkpt lat="45.71164" lon="4.60091">
        <ele>538.4</ele>
        <time>2022-06-26T14:06:59Z</time>
      </trkpt>
      <trkpt lat="45.7117" lon="4.60098">
        <ele>537.6</ele>
        <time>2022-06-26T14:07:00Z</time>
      </trkpt>
      <trkpt lat="45.71175" lon="4.60105">
        <ele>536.4</ele>
        <time>2022-06-26T14:07:02Z</time>
      </trkpt>
      <trkpt lat="45.7118" lon="4.60113">
        <ele>535.8</ele>
        <time>2022-06-26T14:07:03Z</time>
      </trkpt>
      <trkpt lat="45.71184" lon="4.6012">
        <ele>535.2</ele>
        <time>2022-06-26T14:07:04Z</time>
      </trkpt>
      <trkpt lat="45.71188" lon="4.60127">
        <ele>534.6</ele>
        <time>2022-06-26T14:07:05Z</time>
      </trkpt>
      <trkpt lat="45.71192" lon="4.60134">
        <ele>534</ele>
        <time>2022-06-26T14:07:06Z</time>
      </trkpt>
      <trkpt lat="45.71195" lon="4.60141">
        <ele>533.4</ele>
        <time>2022-06-26T14:07:07Z</time>
      </trkpt>
      <trkpt lat="45.71198" lon="4.60147">
        <ele>533</ele>
        <time>2022-06-26T14:07:08Z</time>
      </trkpt>
      <trkpt lat="45.712" lon="4.60153">
        <ele>532.4</ele>
        <time>2022-06-26T14:07:09Z</time>
      </trkpt>
      <trkpt lat="45.71203" lon="4.6016">
        <ele>531.8</ele>
        <time>2022-06-26T14:07:10Z</time>
      </trkpt>
      <trkpt lat="45.71206" lon="4.60165">
        <ele>531.2</ele>
        <time>2022-06-26T14:07:11Z</time>
      </trkpt>
      <trkpt lat="45.71208" lon="4.60172">
        <ele>530.6</ele>
        <time>2022-06-26T14:07:12Z</time>
      </trkpt>
      <trkpt lat="45.71211" lon="4.60179">
        <ele>530</ele>
        <time>2022-06-26T14:07:13Z</time>
      </trkpt>
      <trkpt lat="45.71213" lon="4.60187">
        <ele>529.2</ele>
        <time>2022-06-26T14:07:14Z</time>
      </trkpt>
      <trkpt lat="45.71214" lon="4.60195">
        <ele>528.4</ele>
        <time>2022-06-26T14:07:15Z</time>
      </trkpt>
      <trkpt lat="45.71217" lon="4.60204">
        <ele>527.6</ele>
        <time>2022-06-26T14:07:16Z</time>
      </trkpt>
      <trkpt lat="45.71219" lon="4.60213">
        <ele>526.6</ele>
        <time>2022-06-26T14:07:17Z</time>
      </trkpt>
      <trkpt lat="45.71222" lon="4.60223">
        <ele>525.6</ele>
        <time>2022-06-26T14:07:18Z</time>
      </trkpt>
      <trkpt lat="45.71223" lon="4.60233">
        <ele>524.8</ele>
        <time>2022-06-26T14:07:19Z</time>
      </trkpt>
      <trkpt lat="45.71225" lon="4.60242">
        <ele>523.8</ele>
        <time>2022-06-26T14:07:20Z</time>
      </trkpt>
      <trkpt lat="45.71227" lon="4.60251">
        <ele>522.8</ele>
        <time>2022-06-26T14:07:21Z</time>
      </trkpt>
      <trkpt lat="45.71229" lon="4.6026">
        <ele>521.8</ele>
        <time>2022-06-26T14:07:22Z</time>
      </trkpt>
      <trkpt lat="45.7123" lon="4.60269">
        <ele>520.8</ele>
        <time>2022-06-26T14:07:23Z</time>
      </trkpt>
      <trkpt lat="45.71232" lon="4.60278">
        <ele>520</ele>
        <time>2022-06-26T14:07:24Z</time>
      </trkpt>
      <trkpt lat="45.71234" lon="4.60287">
        <ele>519</ele>
        <time>2022-06-26T14:07:25Z</time>
      </trkpt>
      <trkpt lat="45.71238" lon="4.60296">
        <ele>518.4</ele>
        <time>2022-06-26T14:07:26Z</time>
      </trkpt>
      <trkpt lat="45.71241" lon="4.60305">
        <ele>517.6</ele>
        <time>2022-06-26T14:07:27Z</time>
      </trkpt>
      <trkpt lat="45.71244" lon="4.60315">
        <ele>517</ele>
        <time>2022-06-26T14:07:28Z</time>
      </trkpt>
      <trkpt lat="45.71247" lon="4.60325">
        <ele>516.2</ele>
        <time>2022-06-26T14:07:29Z</time>
      </trkpt>
      <trkpt lat="45.71251" lon="4.60336">
        <ele>515.4</ele>
        <time>2022-06-26T14:07:30Z</time>
      </trkpt>
      <trkpt lat="45.71254" lon="4.60347">
        <ele>514.8</ele>
        <time>2022-06-26T14:07:31Z</time>
      </trkpt>
      <trkpt lat="45.71257" lon="4.60358">
        <ele>514</ele>
        <time>2022-06-26T14:07:32Z</time>
      </trkpt>
      <trkpt lat="45.71261" lon="4.60368">
        <ele>513.4</ele>
        <time>2022-06-26T14:07:33Z</time>
      </trkpt>
      <trkpt lat="45.71265" lon="4.60379">
        <ele>512.8</ele>
        <time>2022-06-26T14:07:34Z</time>
      </trkpt>
      <trkpt lat="45.71267" lon="4.60388">
        <ele>512</ele>
        <time>2022-06-26T14:07:35Z</time>
      </trkpt>
      <trkpt lat="45.71269" lon="4.60398">
        <ele>511.2</ele>
        <time>2022-06-26T14:07:36Z</time>
      </trkpt>
      <trkpt lat="45.71272" lon="4.60408">
        <ele>510.4</ele>
        <time>2022-06-26T14:07:37Z</time>
      </trkpt>
      <trkpt lat="45.71274" lon="4.60418">
        <ele>509.6</ele>
        <time>2022-06-26T14:07:38Z</time>
      </trkpt>
      <trkpt lat="45.71275" lon="4.60428">
        <ele>508.8</ele>
        <time>2022-06-26T14:07:39Z</time>
      </trkpt>
      <trkpt lat="45.71276" lon="4.60439">
        <ele>508</ele>
        <time>2022-06-26T14:07:40Z</time>
      </trkpt>
      <trkpt lat="45.71277" lon="4.6045">
        <ele>507.2</ele>
        <time>2022-06-26T14:07:41Z</time>
      </trkpt>
      <trkpt lat="45.71278" lon="4.60463">
        <ele>506.4</ele>
        <time>2022-06-26T14:07:42Z</time>
      </trkpt>
      <trkpt lat="45.71278" lon="4.60475">
        <ele>505.6</ele>
        <time>2022-06-26T14:07:43Z</time>
      </trkpt>
      <trkpt lat="45.71277" lon="4.60488">
        <ele>504.8</ele>
        <time>2022-06-26T14:07:44Z</time>
      </trkpt>
      <trkpt lat="45.71277" lon="4.60501">
        <ele>504</ele>
        <time>2022-06-26T14:07:45Z</time>
      </trkpt>
      <trkpt lat="45.71276" lon="4.60514">
        <ele>503.4</ele>
        <time>2022-06-26T14:07:46Z</time>
      </trkpt>
      <trkpt lat="45.71276" lon="4.60526">
        <ele>502.6</ele>
        <time>2022-06-26T14:07:47Z</time>
      </trkpt>
      <trkpt lat="45.71276" lon="4.60538">
        <ele>502</ele>
        <time>2022-06-26T14:07:48Z</time>
      </trkpt>
      <trkpt lat="45.71276" lon="4.6055">
        <ele>501.4</ele>
        <time>2022-06-26T14:07:49Z</time>
      </trkpt>
      <trkpt lat="45.71275" lon="4.60562">
        <ele>500.8</ele>
        <time>2022-06-26T14:07:50Z</time>
      </trkpt>
      <trkpt lat="45.71274" lon="4.60575">
        <ele>500.4</ele>
        <time>2022-06-26T14:07:51Z</time>
      </trkpt>
      <trkpt lat="45.71274" lon="4.60587">
        <ele>499.8</ele>
        <time>2022-06-26T14:07:52Z</time>
      </trkpt>
      <trkpt lat="45.71273" lon="4.60599">
        <ele>499.4</ele>
        <time>2022-06-26T14:07:53Z</time>
      </trkpt>
      <trkpt lat="45.71272" lon="4.60611">
        <ele>498.8</ele>
        <time>2022-06-26T14:07:54Z</time>
      </trkpt>
      <trkpt lat="45.71272" lon="4.60623">
        <ele>498.4</ele>
        <time>2022-06-26T14:07:55Z</time>
      </trkpt>
      <trkpt lat="45.71272" lon="4.60636">
        <ele>497.8</ele>
        <time>2022-06-26T14:07:56Z</time>
      </trkpt>
      <trkpt lat="45.71271" lon="4.60648">
        <ele>497.4</ele>
        <time>2022-06-26T14:07:57Z</time>
      </trkpt>
      <trkpt lat="45.7127" lon="4.6066">
        <ele>497</ele>
        <time>2022-06-26T14:07:58Z</time>
      </trkpt>
      <trkpt lat="45.71268" lon="4.60673">
        <ele>496.6</ele>
        <time>2022-06-26T14:07:59Z</time>
      </trkpt>
      <trkpt lat="45.71267" lon="4.60685">
        <ele>496.2</ele>
        <time>2022-06-26T14:08:00Z</time>
      </trkpt>
      <trkpt lat="45.71267" lon="4.60697">
        <ele>495.8</ele>
        <time>2022-06-26T14:08:01Z</time>
      </trkpt>
      <trkpt lat="45.71266" lon="4.60709">
        <ele>495.6</ele>
        <time>2022-06-26T14:08:02Z</time>
      </trkpt>
      <trkpt lat="45.71266" lon="4.60721">
        <ele>495.2</ele>
        <time>2022-06-26T14:08:03Z</time>
      </trkpt>
      <trkpt lat="45.71266" lon="4.60733">
        <ele>494.8</ele>
        <time>2022-06-26T14:08:04Z</time>
      </trkpt>
      <trkpt lat="45.71266" lon="4.60745">
        <ele>494.4</ele>
        <time>2022-06-26T14:08:05Z</time>
      </trkpt>
      <trkpt lat="45.71266" lon="4.60757">
        <ele>493.8</ele>
        <time>2022-06-26T14:08:06Z</time>
      </trkpt>
      <trkpt lat="45.71266" lon="4.6077">
        <ele>493.2</ele>
        <time>2022-06-26T14:08:07Z</time>
      </trkpt>
      <trkpt lat="45.71266" lon="4.60782">
        <ele>492.6</ele>
        <time>2022-06-26T14:08:08Z</time>
      </trkpt>
      <trkpt lat="45.71266" lon="4.60794">
        <ele>492</ele>
        <time>2022-06-26T14:08:09Z</time>
      </trkpt>
      <trkpt lat="45.71267" lon="4.60806">
        <ele>491.2</ele>
        <time>2022-06-26T14:08:10Z</time>
      </trkpt>
      <trkpt lat="45.71267" lon="4.60818">
        <ele>490.6</ele>
        <time>2022-06-26T14:08:11Z</time>
      </trkpt>
      <trkpt lat="45.71267" lon="4.6083">
        <ele>490</ele>
        <time>2022-06-26T14:08:12Z</time>
      </trkpt>
      <trkpt lat="45.71267" lon="4.60841">
        <ele>489.4</ele>
        <time>2022-06-26T14:08:13Z</time>
      </trkpt>
      <trkpt lat="45.71267" lon="4.60852">
        <ele>488.6</ele>
        <time>2022-06-26T14:08:14Z</time>
      </trkpt>
      <trkpt lat="45.71267" lon="4.60862">
        <ele>488</ele>
        <time>2022-06-26T14:08:15Z</time>
      </trkpt>
      <trkpt lat="45.71267" lon="4.60872">
        <ele>487.4</ele>
        <time>2022-06-26T14:08:16Z</time>
      </trkpt>
      <trkpt lat="45.71266" lon="4.60882">
        <ele>486.8</ele>
        <time>2022-06-26T14:08:17Z</time>
      </trkpt>
      <trkpt lat="45.71267" lon="4.6089">
        <ele>486</ele>
        <time>2022-06-26T14:08:18Z</time>
      </trkpt>
      <trkpt lat="45.71267" lon="4.60899">
        <ele>485.6</ele>
        <time>2022-06-26T14:08:19Z</time>
      </trkpt>
      <trkpt lat="45.71269" lon="4.60907">
        <ele>485</ele>
        <time>2022-06-26T14:08:20Z</time>
      </trkpt>
      <trkpt lat="45.7127" lon="4.60915">
        <ele>484.6</ele>
        <time>2022-06-26T14:08:21Z</time>
      </trkpt>
      <trkpt lat="45.71271" lon="4.60925">
        <ele>483.8</ele>
        <time>2022-06-26T14:08:22Z</time>
      </trkpt>
      <trkpt lat="45.71272" lon="4.60936">
        <ele>483</ele>
        <time>2022-06-26T14:08:23Z</time>
      </trkpt>
      <trkpt lat="45.71272" lon="4.60948">
        <ele>482.2</ele>
        <time>2022-06-26T14:08:24Z</time>
      </trkpt>
      <trkpt lat="45.71273" lon="4.6096">
        <ele>481.2</ele>
        <time>2022-06-26T14:08:25Z</time>
      </trkpt>
      <trkpt lat="45.71273" lon="4.60972">
        <ele>480.2</ele>
        <time>2022-06-26T14:08:26Z</time>
      </trkpt>
      <trkpt lat="45.71273" lon="4.60986">
        <ele>479.2</ele>
        <time>2022-06-26T14:08:27Z</time>
      </trkpt>
      <trkpt lat="45.71273" lon="4.61">
        <ele>478.2</ele>
        <time>2022-06-26T14:08:28Z</time>
      </trkpt>
      <trkpt lat="45.71274" lon="4.61014">
        <ele>477</ele>
        <time>2022-06-26T14:08:29Z</time>
      </trkpt>
      <trkpt lat="45.71274" lon="4.61027">
        <ele>475.8</ele>
        <time>2022-06-26T14:08:30Z</time>
      </trkpt>
      <trkpt lat="45.71275" lon="4.61042">
        <ele>474.8</ele>
        <time>2022-06-26T14:08:31Z</time>
      </trkpt>
      <trkpt lat="45.71275" lon="4.61055">
        <ele>473.6</ele>
        <time>2022-06-26T14:08:32Z</time>
      </trkpt>
      <trkpt lat="45.71276" lon="4.61068">
        <ele>472.6</ele>
        <time>2022-06-26T14:08:33Z</time>
      </trkpt>
      <trkpt lat="45.71276" lon="4.61081">
        <ele>471.4</ele>
        <time>2022-06-26T14:08:34Z</time>
      </trkpt>
      <trkpt lat="45.71275" lon="4.61094">
        <ele>470.2</ele>
        <time>2022-06-26T14:08:35Z</time>
      </trkpt>
      <trkpt lat="45.71275" lon="4.61108">
        <ele>469.2</ele>
        <time>2022-06-26T14:08:36Z</time>
      </trkpt>
      <trkpt lat="45.71274" lon="4.61121">
        <ele>468.2</ele>
        <time>2022-06-26T14:08:37Z</time>
      </trkpt>
      <trkpt lat="45.71273" lon="4.61134">
        <ele>467.2</ele>
        <time>2022-06-26T14:08:38Z</time>
      </trkpt>
      <trkpt lat="45.71272" lon="4.61146">
        <ele>466.4</ele>
        <time>2022-06-26T14:08:39Z</time>
      </trkpt>
      <trkpt lat="45.71271" lon="4.61158">
        <ele>465.6</ele>
        <time>2022-06-26T14:08:40Z</time>
      </trkpt>
      <trkpt lat="45.7127" lon="4.61169">
        <ele>464.8</ele>
        <time>2022-06-26T14:08:41Z</time>
      </trkpt>
      <trkpt lat="45.7127" lon="4.6118">
        <ele>464.2</ele>
        <time>2022-06-26T14:08:42Z</time>
      </trkpt>
      <trkpt lat="45.7127" lon="4.6119">
        <ele>463.6</ele>
        <time>2022-06-26T14:08:43Z</time>
      </trkpt>
      <trkpt lat="45.7127" lon="4.61199">
        <ele>463</ele>
        <time>2022-06-26T14:08:44Z</time>
      </trkpt>
      <trkpt lat="45.71271" lon="4.61208">
        <ele>462.2</ele>
        <time>2022-06-26T14:08:45Z</time>
      </trkpt>
      <trkpt lat="45.71272" lon="4.61217">
        <ele>461.6</ele>
        <time>2022-06-26T14:08:46Z</time>
      </trkpt>
      <trkpt lat="45.71272" lon="4.61226">
        <ele>460.8</ele>
        <time>2022-06-26T14:08:47Z</time>
      </trkpt>
      <trkpt lat="45.71271" lon="4.61235">
        <ele>460</ele>
        <time>2022-06-26T14:08:48Z</time>
      </trkpt>
      <trkpt lat="45.71269" lon="4.61246">
        <ele>459</ele>
        <time>2022-06-26T14:08:49Z</time>
      </trkpt>
      <trkpt lat="45.71267" lon="4.61257">
        <ele>458.2</ele>
        <time>2022-06-26T14:08:50Z</time>
      </trkpt>
      <trkpt lat="45.71263" lon="4.61268">
        <ele>457.6</ele>
        <time>2022-06-26T14:08:51Z</time>
      </trkpt>
      <trkpt lat="45.7126" lon="4.61278">
        <ele>457</ele>
        <time>2022-06-26T14:08:52Z</time>
      </trkpt>
      <trkpt lat="45.71257" lon="4.61289">
        <ele>456.4</ele>
        <time>2022-06-26T14:08:53Z</time>
      </trkpt>
      <trkpt lat="45.71254" lon="4.613">
        <ele>456</ele>
        <time>2022-06-26T14:08:54Z</time>
      </trkpt>
      <trkpt lat="45.71252" lon="4.61312">
        <ele>455.8</ele>
        <time>2022-06-26T14:08:55Z</time>
      </trkpt>
      <trkpt lat="45.71249" lon="4.61323">
        <ele>455.4</ele>
        <time>2022-06-26T14:08:56Z</time>
      </trkpt>
      <trkpt lat="45.71246" lon="4.61334">
        <ele>455.2</ele>
        <time>2022-06-26T14:08:57Z</time>
      </trkpt>
      <trkpt lat="45.71244" lon="4.61345">
        <ele>455.2</ele>
        <time>2022-06-26T14:08:58Z</time>
      </trkpt>
      <trkpt lat="45.71242" lon="4.61357">
        <ele>454.8</ele>
        <time>2022-06-26T14:08:59Z</time>
      </trkpt>
      <trkpt lat="45.71241" lon="4.61368">
        <ele>454.8</ele>
        <time>2022-06-26T14:09:00Z</time>
      </trkpt>
      <trkpt lat="45.7124" lon="4.6138">
        <ele>454.6</ele>
        <time>2022-06-26T14:09:01Z</time>
      </trkpt>
      <trkpt lat="45.71239" lon="4.61392">
        <ele>454.6</ele>
        <time>2022-06-26T14:09:02Z</time>
      </trkpt>
      <trkpt lat="45.71238" lon="4.61403">
        <ele>454.4</ele>
        <time>2022-06-26T14:09:03Z</time>
      </trkpt>
      <trkpt lat="45.71237" lon="4.61415">
        <ele>454.4</ele>
        <time>2022-06-26T14:09:04Z</time>
      </trkpt>
      <trkpt lat="45.71236" lon="4.61426">
        <ele>454</ele>
        <time>2022-06-26T14:09:05Z</time>
      </trkpt>
      <trkpt lat="45.71235" lon="4.61438">
        <ele>454</ele>
        <time>2022-06-26T14:09:06Z</time>
      </trkpt>
      <trkpt lat="45.71234" lon="4.6145">
        <ele>454</ele>
        <time>2022-06-26T14:09:07Z</time>
      </trkpt>
      <trkpt lat="45.71233" lon="4.61462">
        <ele>453.8</ele>
        <time>2022-06-26T14:09:08Z</time>
      </trkpt>
      <trkpt lat="45.71231" lon="4.61474">
        <ele>453.8</ele>
        <time>2022-06-26T14:09:09Z</time>
      </trkpt>
      <trkpt lat="45.7123" lon="4.61486">
        <ele>453.8</ele>
        <time>2022-06-26T14:09:10Z</time>
      </trkpt>
      <trkpt lat="45.71228" lon="4.61497">
        <ele>453.8</ele>
        <time>2022-06-26T14:09:11Z</time>
      </trkpt>
      <trkpt lat="45.71226" lon="4.61508">
        <ele>453.4</ele>
        <time>2022-06-26T14:09:12Z</time>
      </trkpt>
      <trkpt lat="45.71224" lon="4.61519">
        <ele>453.4</ele>
        <time>2022-06-26T14:09:13Z</time>
      </trkpt>
      <trkpt lat="45.71222" lon="4.6153">
        <ele>453.4</ele>
        <time>2022-06-26T14:09:14Z</time>
      </trkpt>
      <trkpt lat="45.7122" lon="4.6154">
        <ele>453.2</ele>
        <time>2022-06-26T14:09:15Z</time>
      </trkpt>
      <trkpt lat="45.71218" lon="4.61551">
        <ele>453.2</ele>
        <time>2022-06-26T14:09:16Z</time>
      </trkpt>
      <trkpt lat="45.71216" lon="4.61561">
        <ele>453.2</ele>
        <time>2022-06-26T14:09:17Z</time>
      </trkpt>
      <trkpt lat="45.71214" lon="4.61572">
        <ele>453.2</ele>
        <time>2022-06-26T14:09:18Z</time>
      </trkpt>
      <trkpt lat="45.71212" lon="4.61582">
        <ele>453</ele>
        <time>2022-06-26T14:09:19Z</time>
      </trkpt>
      <trkpt lat="45.71211" lon="4.61592">
        <ele>453</ele>
        <time>2022-06-26T14:09:20Z</time>
      </trkpt>
      <trkpt lat="45.71209" lon="4.61603">
        <ele>452.8</ele>
        <time>2022-06-26T14:09:21Z</time>
      </trkpt>
      <trkpt lat="45.71207" lon="4.61613">
        <ele>452.8</ele>
        <time>2022-06-26T14:09:22Z</time>
      </trkpt>
      <trkpt lat="45.71205" lon="4.61624">
        <ele>452.8</ele>
        <time>2022-06-26T14:09:23Z</time>
      </trkpt>
      <trkpt lat="45.71204" lon="4.61634">
        <ele>452.8</ele>
        <time>2022-06-26T14:09:24Z</time>
      </trkpt>
      <trkpt lat="45.71204" lon="4.61643">
        <ele>452.8</ele>
        <time>2022-06-26T14:09:25Z</time>
      </trkpt>
      <trkpt lat="45.71203" lon="4.61652">
        <ele>452.8</ele>
        <time>2022-06-26T14:09:26Z</time>
      </trkpt>
      <trkpt lat="45.71203" lon="4.61661">
        <ele>452.8</ele>
        <time>2022-06-26T14:09:27Z</time>
      </trkpt>
      <trkpt lat="45.71202" lon="4.6167">
        <ele>452.8</ele>
        <time>2022-06-26T14:09:28Z</time>
      </trkpt>
      <trkpt lat="45.71202" lon="4.61679">
        <ele>452.8</ele>
        <time>2022-06-26T14:09:29Z</time>
      </trkpt>
      <trkpt lat="45.71202" lon="4.61688">
        <ele>452.8</ele>
        <time>2022-06-26T14:09:30Z</time>
      </trkpt>
      <trkpt lat="45.71202" lon="4.61698">
        <ele>452.8</ele>
        <time>2022-06-26T14:09:31Z</time>
      </trkpt>
      <trkpt lat="45.71201" lon="4.61708">
        <ele>452.8</ele>
        <time>2022-06-26T14:09:32Z</time>
      </trkpt>
      <trkpt lat="45.71201" lon="4.61718">
        <ele>452.8</ele>
        <time>2022-06-26T14:09:33Z</time>
      </trkpt>
      <trkpt lat="45.712" lon="4.61729">
        <ele>452.8</ele>
        <time>2022-06-26T14:09:34Z</time>
      </trkpt>
      <trkpt lat="45.712" lon="4.61739">
        <ele>452.8</ele>
        <time>2022-06-26T14:09:35Z</time>
      </trkpt>
      <trkpt lat="45.712" lon="4.61749">
        <ele>452.8</ele>
        <time>2022-06-26T14:09:36Z</time>
      </trkpt>
      <trkpt lat="45.712" lon="4.6176">
        <ele>452.8</ele>
        <time>2022-06-26T14:09:37Z</time>
      </trkpt>
      <trkpt lat="45.712" lon="4.61769">
        <ele>452.8</ele>
        <time>2022-06-26T14:09:38Z</time>
      </trkpt>
      <trkpt lat="45.71201" lon="4.61779">
        <ele>452.8</ele>
        <time>2022-06-26T14:09:39Z</time>
      </trkpt>
      <trkpt lat="45.71202" lon="4.61789">
        <ele>452.8</ele>
        <time>2022-06-26T14:09:40Z</time>
      </trkpt>
      <trkpt lat="45.71203" lon="4.61798">
        <ele>452.8</ele>
        <time>2022-06-26T14:09:41Z</time>
      </trkpt>
      <trkpt lat="45.71204" lon="4.61807">
        <ele>452.8</ele>
        <time>2022-06-26T14:09:42Z</time>
      </trkpt>
      <trkpt lat="45.71205" lon="4.61816">
        <ele>452.8</ele>
        <time>2022-06-26T14:09:43Z</time>
      </trkpt>
      <trkpt lat="45.71207" lon="4.61825">
        <ele>452.4</ele>
        <time>2022-06-26T14:09:44Z</time>
      </trkpt>
      <trkpt lat="45.71209" lon="4.61834">
        <ele>452.2</ele>
        <time>2022-06-26T14:09:45Z</time>
      </trkpt>
      <trkpt lat="45.71211" lon="4.61844">
        <ele>452</ele>
        <time>2022-06-26T14:09:46Z</time>
      </trkpt>
      <trkpt lat="45.71213" lon="4.61854">
        <ele>451.6</ele>
        <time>2022-06-26T14:09:47Z</time>
      </trkpt>
      <trkpt lat="45.71215" lon="4.61865">
        <ele>451.4</ele>
        <time>2022-06-26T14:09:48Z</time>
      </trkpt>
      <trkpt lat="45.71216" lon="4.61876">
        <ele>451.2</ele>
        <time>2022-06-26T14:09:49Z</time>
      </trkpt>
      <trkpt lat="45.71217" lon="4.61887">
        <ele>450.8</ele>
        <time>2022-06-26T14:09:50Z</time>
      </trkpt>
      <trkpt lat="45.71218" lon="4.61898">
        <ele>450.6</ele>
        <time>2022-06-26T14:09:51Z</time>
      </trkpt>
      <trkpt lat="45.71218" lon="4.6191">
        <ele>450.2</ele>
        <time>2022-06-26T14:09:52Z</time>
      </trkpt>
      <trkpt lat="45.71217" lon="4.61921">
        <ele>450</ele>
        <time>2022-06-26T14:09:53Z</time>
      </trkpt>
      <trkpt lat="45.71217" lon="4.61932">
        <ele>449.8</ele>
        <time>2022-06-26T14:09:54Z</time>
      </trkpt>
      <trkpt lat="45.71216" lon="4.61943">
        <ele>449.6</ele>
        <time>2022-06-26T14:09:55Z</time>
      </trkpt>
      <trkpt lat="45.71216" lon="4.61954">
        <ele>449.2</ele>
        <time>2022-06-26T14:09:56Z</time>
      </trkpt>
      <trkpt lat="45.71216" lon="4.61965">
        <ele>448.8</ele>
        <time>2022-06-26T14:09:57Z</time>
      </trkpt>
      <trkpt lat="45.71215" lon="4.61977">
        <ele>448.6</ele>
        <time>2022-06-26T14:09:58Z</time>
      </trkpt>
      <trkpt lat="45.71214" lon="4.61988">
        <ele>448.2</ele>
        <time>2022-06-26T14:09:59Z</time>
      </trkpt>
      <trkpt lat="45.71213" lon="4.62">
        <ele>448</ele>
        <time>2022-06-26T14:10:00Z</time>
      </trkpt>
      <trkpt lat="45.71213" lon="4.62012">
        <ele>447.4</ele>
        <time>2022-06-26T14:10:01Z</time>
      </trkpt>
      <trkpt lat="45.71213" lon="4.62023">
        <ele>446.8</ele>
        <time>2022-06-26T14:10:02Z</time>
      </trkpt>
      <trkpt lat="45.71214" lon="4.62034">
        <ele>446.4</ele>
        <time>2022-06-26T14:10:03Z</time>
      </trkpt>
      <trkpt lat="45.71216" lon="4.62045">
        <ele>445.8</ele>
        <time>2022-06-26T14:10:04Z</time>
      </trkpt>
      <trkpt lat="45.71219" lon="4.62056">
        <ele>445.2</ele>
        <time>2022-06-26T14:10:05Z</time>
      </trkpt>
      <trkpt lat="45.71223" lon="4.62066">
        <ele>444.8</ele>
        <time>2022-06-26T14:10:06Z</time>
      </trkpt>
      <trkpt lat="45.71227" lon="4.62076">
        <ele>444.6</ele>
        <time>2022-06-26T14:10:07Z</time>
      </trkpt>
      <trkpt lat="45.71231" lon="4.62087">
        <ele>444.2</ele>
        <time>2022-06-26T14:10:08Z</time>
      </trkpt>
      <trkpt lat="45.71235" lon="4.62097">
        <ele>443.8</ele>
        <time>2022-06-26T14:10:09Z</time>
      </trkpt>
      <trkpt lat="45.71238" lon="4.62108">
        <ele>443.4</ele>
        <time>2022-06-26T14:10:10Z</time>
      </trkpt>
      <trkpt lat="45.71242" lon="4.62119">
        <ele>442.8</ele>
        <time>2022-06-26T14:10:11Z</time>
      </trkpt>
      <trkpt lat="45.71246" lon="4.62129">
        <ele>442.4</ele>
        <time>2022-06-26T14:10:12Z</time>
      </trkpt>
      <trkpt lat="45.71252" lon="4.62139">
        <ele>442</ele>
        <time>2022-06-26T14:10:13Z</time>
      </trkpt>
      <trkpt lat="45.71258" lon="4.62145">
        <ele>441.6</ele>
        <time>2022-06-26T14:10:14Z</time>
      </trkpt>
      <trkpt lat="45.71266" lon="4.6215">
        <ele>441</ele>
        <time>2022-06-26T14:10:15Z</time>
      </trkpt>
      <trkpt lat="45.71273" lon="4.62155">
        <ele>440.6</ele>
        <time>2022-06-26T14:10:16Z</time>
      </trkpt>
      <trkpt lat="45.7128" lon="4.62161">
        <ele>440</ele>
        <time>2022-06-26T14:10:17Z</time>
      </trkpt>
      <trkpt lat="45.71288" lon="4.62169">
        <ele>439.2</ele>
        <time>2022-06-26T14:10:18Z</time>
      </trkpt>
      <trkpt lat="45.71295" lon="4.62177">
        <ele>438.4</ele>
        <time>2022-06-26T14:10:19Z</time>
      </trkpt>
      <trkpt lat="45.71303" lon="4.62187">
        <ele>437.6</ele>
        <time>2022-06-26T14:10:20Z</time>
      </trkpt>
      <trkpt lat="45.7131" lon="4.62198">
        <ele>436.6</ele>
        <time>2022-06-26T14:10:21Z</time>
      </trkpt>
      <trkpt lat="45.71318" lon="4.6221">
        <ele>435.6</ele>
        <time>2022-06-26T14:10:22Z</time>
      </trkpt>
      <trkpt lat="45.71325" lon="4.62221">
        <ele>434.6</ele>
        <time>2022-06-26T14:10:23Z</time>
      </trkpt>
      <trkpt lat="45.71331" lon="4.62231">
        <ele>433.6</ele>
        <time>2022-06-26T14:10:24Z</time>
      </trkpt>
      <trkpt lat="45.71337" lon="4.62239">
        <ele>432.8</ele>
        <time>2022-06-26T14:10:25Z</time>
      </trkpt>
      <trkpt lat="45.71342" lon="4.62247">
        <ele>432.2</ele>
        <time>2022-06-26T14:10:26Z</time>
      </trkpt>
      <trkpt lat="45.71346" lon="4.62256">
        <ele>431.8</ele>
        <time>2022-06-26T14:10:27Z</time>
      </trkpt>
      <trkpt lat="45.71349" lon="4.62265">
        <ele>431.2</ele>
        <time>2022-06-26T14:10:28Z</time>
      </trkpt>
      <trkpt lat="45.71352" lon="4.62276">
        <ele>430.6</ele>
        <time>2022-06-26T14:10:29Z</time>
      </trkpt>
      <trkpt lat="45.71355" lon="4.62287">
        <ele>430.4</ele>
        <time>2022-06-26T14:10:30Z</time>
      </trkpt>
      <trkpt lat="45.71358" lon="4.62298">
        <ele>430</ele>
        <time>2022-06-26T14:10:31Z</time>
      </trkpt>
      <trkpt lat="45.71361" lon="4.62309">
        <ele>429.8</ele>
        <time>2022-06-26T14:10:32Z</time>
      </trkpt>
      <trkpt lat="45.71364" lon="4.6232">
        <ele>429.4</ele>
        <time>2022-06-26T14:10:33Z</time>
      </trkpt>
      <trkpt lat="45.71368" lon="4.62331">
        <ele>429.2</ele>
        <time>2022-06-26T14:10:34Z</time>
      </trkpt>
      <trkpt lat="45.71372" lon="4.62341">
        <ele>428.8</ele>
        <time>2022-06-26T14:10:35Z</time>
      </trkpt>
      <trkpt lat="45.71375" lon="4.62352">
        <ele>428.8</ele>
        <time>2022-06-26T14:10:36Z</time>
      </trkpt>
      <trkpt lat="45.71379" lon="4.62361">
        <ele>428.6</ele>
        <time>2022-06-26T14:10:37Z</time>
      </trkpt>
      <trkpt lat="45.71382" lon="4.62371">
        <ele>428.2</ele>
        <time>2022-06-26T14:10:38Z</time>
      </trkpt>
      <trkpt lat="45.71385" lon="4.62381">
        <ele>428.2</ele>
        <time>2022-06-26T14:10:39Z</time>
      </trkpt>
      <trkpt lat="45.71388" lon="4.62391">
        <ele>427.8</ele>
        <time>2022-06-26T14:10:40Z</time>
      </trkpt>
      <trkpt lat="45.71391" lon="4.62401">
        <ele>427.8</ele>
        <time>2022-06-26T14:10:41Z</time>
      </trkpt>
      <trkpt lat="45.71393" lon="4.62411">
        <ele>427.6</ele>
        <time>2022-06-26T14:10:42Z</time>
      </trkpt>
      <trkpt lat="45.71396" lon="4.62421">
        <ele>427.2</ele>
        <time>2022-06-26T14:10:43Z</time>
      </trkpt>
      <trkpt lat="45.71399" lon="4.6243">
        <ele>427</ele>
        <time>2022-06-26T14:10:44Z</time>
      </trkpt>
      <trkpt lat="45.71401" lon="4.62438">
        <ele>426.8</ele>
        <time>2022-06-26T14:10:45Z</time>
      </trkpt>
      <trkpt lat="45.71404" lon="4.62446">
        <ele>426.8</ele>
        <time>2022-06-26T14:10:46Z</time>
      </trkpt>
      <trkpt lat="45.71408" lon="4.62453">
        <ele>426.4</ele>
        <time>2022-06-26T14:10:47Z</time>
      </trkpt>
      <trkpt lat="45.71411" lon="4.62461">
        <ele>426</ele>
        <time>2022-06-26T14:10:48Z</time>
      </trkpt>
      <trkpt lat="45.71415" lon="4.6247">
        <ele>425.4</ele>
        <time>2022-06-26T14:10:49Z</time>
      </trkpt>
      <trkpt lat="45.71419" lon="4.62479">
        <ele>424.8</ele>
        <time>2022-06-26T14:10:50Z</time>
      </trkpt>
      <trkpt lat="45.71423" lon="4.62489">
        <ele>424</ele>
        <time>2022-06-26T14:10:51Z</time>
      </trkpt>
      <trkpt lat="45.71427" lon="4.62498">
        <ele>423.2</ele>
        <time>2022-06-26T14:10:52Z</time>
      </trkpt>
      <trkpt lat="45.71431" lon="4.62507">
        <ele>422.4</ele>
        <time>2022-06-26T14:10:53Z</time>
      </trkpt>
      <trkpt lat="45.71436" lon="4.62516">
        <ele>421.6</ele>
        <time>2022-06-26T14:10:54Z</time>
      </trkpt>
      <trkpt lat="45.7144" lon="4.62524">
        <ele>420.8</ele>
        <time>2022-06-26T14:10:55Z</time>
      </trkpt>
      <trkpt lat="45.71446" lon="4.62532">
        <ele>420</ele>
        <time>2022-06-26T14:10:56Z</time>
      </trkpt>
      <trkpt lat="45.71452" lon="4.62539">
        <ele>419.2</ele>
        <time>2022-06-26T14:10:57Z</time>
      </trkpt>
      <trkpt lat="45.71459" lon="4.62545">
        <ele>418.4</ele>
        <time>2022-06-26T14:10:58Z</time>
      </trkpt>
      <trkpt lat="45.71472" lon="4.62556">
        <ele>417.6</ele>
        <time>2022-06-26T14:10:59Z</time>
      </trkpt>
      <trkpt lat="45.71478" lon="4.6256">
        <ele>416.8</ele>
        <time>2022-06-26T14:11:00Z</time>
      </trkpt>
      <trkpt lat="45.71484" lon="4.62565">
        <ele>416.2</ele>
        <time>2022-06-26T14:11:01Z</time>
      </trkpt>
      <trkpt lat="45.71489" lon="4.6257">
        <ele>415.6</ele>
        <time>2022-06-26T14:11:02Z</time>
      </trkpt>
      <trkpt lat="45.71496" lon="4.62574">
        <ele>415</ele>
        <time>2022-06-26T14:11:03Z</time>
      </trkpt>
      <trkpt lat="45.71503" lon="4.62578">
        <ele>414.6</ele>
        <time>2022-06-26T14:11:04Z</time>
      </trkpt>
      <trkpt lat="45.71511" lon="4.62581">
        <ele>414</ele>
        <time>2022-06-26T14:11:05Z</time>
      </trkpt>
      <trkpt lat="45.71519" lon="4.62582">
        <ele>413.6</ele>
        <time>2022-06-26T14:11:06Z</time>
      </trkpt>
      <trkpt lat="45.71528" lon="4.62583">
        <ele>413.2</ele>
        <time>2022-06-26T14:11:07Z</time>
      </trkpt>
      <trkpt lat="45.71536" lon="4.62583">
        <ele>412.6</ele>
        <time>2022-06-26T14:11:08Z</time>
      </trkpt>
      <trkpt lat="45.71545" lon="4.62584">
        <ele>412.2</ele>
        <time>2022-06-26T14:11:09Z</time>
      </trkpt>
      <trkpt lat="45.71554" lon="4.62584">
        <ele>411.6</ele>
        <time>2022-06-26T14:11:10Z</time>
      </trkpt>
      <trkpt lat="45.71563" lon="4.62584">
        <ele>410.8</ele>
        <time>2022-06-26T14:11:11Z</time>
      </trkpt>
      <trkpt lat="45.71572" lon="4.62585">
        <ele>410.2</ele>
        <time>2022-06-26T14:11:12Z</time>
      </trkpt>
      <trkpt lat="45.7158" lon="4.62587">
        <ele>409.6</ele>
        <time>2022-06-26T14:11:13Z</time>
      </trkpt>
      <trkpt lat="45.71588" lon="4.62591">
        <ele>409</ele>
        <time>2022-06-26T14:11:14Z</time>
      </trkpt>
      <trkpt lat="45.71596" lon="4.62595">
        <ele>408.4</ele>
        <time>2022-06-26T14:11:15Z</time>
      </trkpt>
      <trkpt lat="45.71602" lon="4.62601">
        <ele>408.2</ele>
        <time>2022-06-26T14:11:16Z</time>
      </trkpt>
      <trkpt lat="45.71608" lon="4.62608">
        <ele>407.8</ele>
        <time>2022-06-26T14:11:17Z</time>
      </trkpt>
      <trkpt lat="45.71614" lon="4.62616">
        <ele>407.6</ele>
        <time>2022-06-26T14:11:18Z</time>
      </trkpt>
      <trkpt lat="45.71619" lon="4.62625">
        <ele>407.6</ele>
        <time>2022-06-26T14:11:19Z</time>
      </trkpt>
      <trkpt lat="45.71625" lon="4.62635">
        <ele>407.2</ele>
        <time>2022-06-26T14:11:20Z</time>
      </trkpt>
      <trkpt lat="45.71631" lon="4.62644">
        <ele>406.8</ele>
        <time>2022-06-26T14:11:21Z</time>
      </trkpt>
      <trkpt lat="45.71636" lon="4.62654">
        <ele>406.4</ele>
        <time>2022-06-26T14:11:22Z</time>
      </trkpt>
      <trkpt lat="45.71642" lon="4.62664">
        <ele>406</ele>
        <time>2022-06-26T14:11:23Z</time>
      </trkpt>
      <trkpt lat="45.71648" lon="4.62674">
        <ele>405.6</ele>
        <time>2022-06-26T14:11:24Z</time>
      </trkpt>
      <trkpt lat="45.71653" lon="4.62683">
        <ele>405.4</ele>
        <time>2022-06-26T14:11:25Z</time>
      </trkpt>
      <trkpt lat="45.71659" lon="4.62693">
        <ele>405</ele>
        <time>2022-06-26T14:11:26Z</time>
      </trkpt>
      <trkpt lat="45.71664" lon="4.62703">
        <ele>404.8</ele>
        <time>2022-06-26T14:11:27Z</time>
      </trkpt>
      <trkpt lat="45.71669" lon="4.62713">
        <ele>404.4</ele>
        <time>2022-06-26T14:11:28Z</time>
      </trkpt>
      <trkpt lat="45.71673" lon="4.62723">
        <ele>404.2</ele>
        <time>2022-06-26T14:11:29Z</time>
      </trkpt>
      <trkpt lat="45.71678" lon="4.62734">
        <ele>404</ele>
        <time>2022-06-26T14:11:30Z</time>
      </trkpt>
      <trkpt lat="45.71682" lon="4.62746">
        <ele>403.6</ele>
        <time>2022-06-26T14:11:31Z</time>
      </trkpt>
      <trkpt lat="45.71686" lon="4.62757">
        <ele>403.4</ele>
        <time>2022-06-26T14:11:32Z</time>
      </trkpt>
      <trkpt lat="45.7169" lon="4.62768">
        <ele>403</ele>
        <time>2022-06-26T14:11:33Z</time>
      </trkpt>
      <trkpt lat="45.71694" lon="4.62779">
        <ele>402.8</ele>
        <time>2022-06-26T14:11:34Z</time>
      </trkpt>
      <trkpt lat="45.71697" lon="4.6279">
        <ele>402.4</ele>
        <time>2022-06-26T14:11:35Z</time>
      </trkpt>
      <trkpt lat="45.717" lon="4.62801">
        <ele>402.2</ele>
        <time>2022-06-26T14:11:36Z</time>
      </trkpt>
      <trkpt lat="45.71703" lon="4.62812">
        <ele>402</ele>
        <time>2022-06-26T14:11:37Z</time>
      </trkpt>
      <trkpt lat="45.71705" lon="4.62822">
        <ele>401.8</ele>
        <time>2022-06-26T14:11:38Z</time>
      </trkpt>
      <trkpt lat="45.71708" lon="4.62832">
        <ele>401.4</ele>
        <time>2022-06-26T14:11:39Z</time>
      </trkpt>
      <trkpt lat="45.7171" lon="4.62843">
        <ele>401.4</ele>
        <time>2022-06-26T14:11:40Z</time>
      </trkpt>
      <trkpt lat="45.71713" lon="4.62854">
        <ele>401.2</ele>
        <time>2022-06-26T14:11:41Z</time>
      </trkpt>
      <trkpt lat="45.71717" lon="4.62865">
        <ele>401.2</ele>
        <time>2022-06-26T14:11:42Z</time>
      </trkpt>
      <trkpt lat="45.7172" lon="4.62876">
        <ele>400.8</ele>
        <time>2022-06-26T14:11:43Z</time>
      </trkpt>
      <trkpt lat="45.71723" lon="4.62887">
        <ele>400.8</ele>
        <time>2022-06-26T14:11:44Z</time>
      </trkpt>
      <trkpt lat="45.71725" lon="4.62898">
        <ele>400.4</ele>
        <time>2022-06-26T14:11:45Z</time>
      </trkpt>
      <trkpt lat="45.71728" lon="4.6291">
        <ele>400.4</ele>
        <time>2022-06-26T14:11:46Z</time>
      </trkpt>
      <trkpt lat="45.71731" lon="4.62922">
        <ele>400</ele>
        <time>2022-06-26T14:11:47Z</time>
      </trkpt>
      <trkpt lat="45.71735" lon="4.62933">
        <ele>399.6</ele>
        <time>2022-06-26T14:11:48Z</time>
      </trkpt>
      <trkpt lat="45.71738" lon="4.62945">
        <ele>399.4</ele>
        <time>2022-06-26T14:11:49Z</time>
      </trkpt>
      <trkpt lat="45.71741" lon="4.62958">
        <ele>399</ele>
        <time>2022-06-26T14:11:50Z</time>
      </trkpt>
      <trkpt lat="45.71743" lon="4.62972">
        <ele>398.6</ele>
        <time>2022-06-26T14:11:51Z</time>
      </trkpt>
      <trkpt lat="45.71745" lon="4.62986">
        <ele>398</ele>
        <time>2022-06-26T14:11:52Z</time>
      </trkpt>
      <trkpt lat="45.71747" lon="4.63001">
        <ele>397.4</ele>
        <time>2022-06-26T14:11:53Z</time>
      </trkpt>
      <trkpt lat="45.71748" lon="4.63015">
        <ele>396.8</ele>
        <time>2022-06-26T14:11:54Z</time>
      </trkpt>
      <trkpt lat="45.71749" lon="4.6303">
        <ele>396.2</ele>
        <time>2022-06-26T14:11:55Z</time>
      </trkpt>
      <trkpt lat="45.71749" lon="4.63044">
        <ele>395.6</ele>
        <time>2022-06-26T14:11:56Z</time>
      </trkpt>
      <trkpt lat="45.7175" lon="4.63059">
        <ele>395</ele>
        <time>2022-06-26T14:11:57Z</time>
      </trkpt>
      <trkpt lat="45.71752" lon="4.63072">
        <ele>394.2</ele>
        <time>2022-06-26T14:11:58Z</time>
      </trkpt>
      <trkpt lat="45.71752" lon="4.63085">
        <ele>392.4</ele>
        <time>2022-06-26T14:12:00Z</time>
      </trkpt>
      <trkpt lat="45.71753" lon="4.63095">
        <ele>391.8</ele>
        <time>2022-06-26T14:12:01Z</time>
      </trkpt>
      <trkpt lat="45.71754" lon="4.63104">
        <ele>391.2</ele>
        <time>2022-06-26T14:12:02Z</time>
      </trkpt>
      <trkpt lat="45.71756" lon="4.63112">
        <ele>390.6</ele>
        <time>2022-06-26T14:12:03Z</time>
      </trkpt>
      <trkpt lat="45.71758" lon="4.6312">
        <ele>390.4</ele>
        <time>2022-06-26T14:12:04Z</time>
      </trkpt>
      <trkpt lat="45.7176" lon="4.63127">
        <ele>390</ele>
        <time>2022-06-26T14:12:05Z</time>
      </trkpt>
      <trkpt lat="45.71763" lon="4.63135">
        <ele>389.2</ele>
        <time>2022-06-26T14:12:06Z</time>
      </trkpt>
      <trkpt lat="45.71766" lon="4.63144">
        <ele>388.6</ele>
        <time>2022-06-26T14:12:07Z</time>
      </trkpt>
      <trkpt lat="45.71769" lon="4.63154">
        <ele>388.2</ele>
        <time>2022-06-26T14:12:08Z</time>
      </trkpt>
      <trkpt lat="45.71772" lon="4.63164">
        <ele>387.8</ele>
        <time>2022-06-26T14:12:09Z</time>
      </trkpt>
      <trkpt lat="45.71776" lon="4.63173">
        <ele>387.4</ele>
        <time>2022-06-26T14:12:10Z</time>
      </trkpt>
      <trkpt lat="45.7178" lon="4.63182">
        <ele>387.2</ele>
        <time>2022-06-26T14:12:11Z</time>
      </trkpt>
      <trkpt lat="45.71784" lon="4.63191">
        <ele>386.8</ele>
        <time>2022-06-26T14:12:12Z</time>
      </trkpt>
      <trkpt lat="45.71788" lon="4.632">
        <ele>386.8</ele>
        <time>2022-06-26T14:12:13Z</time>
      </trkpt>
      <trkpt lat="45.71791" lon="4.63209">
        <ele>386.4</ele>
        <time>2022-06-26T14:12:14Z</time>
      </trkpt>
      <trkpt lat="45.71793" lon="4.63219">
        <ele>386</ele>
        <time>2022-06-26T14:12:15Z</time>
      </trkpt>
      <trkpt lat="45.71794" lon="4.63229">
        <ele>385.8</ele>
        <time>2022-06-26T14:12:16Z</time>
      </trkpt>
      <trkpt lat="45.71794" lon="4.63239">
        <ele>385.8</ele>
        <time>2022-06-26T14:12:17Z</time>
      </trkpt>
      <trkpt lat="45.71794" lon="4.63249">
        <ele>385.4</ele>
        <time>2022-06-26T14:12:18Z</time>
      </trkpt>
      <trkpt lat="45.71795" lon="4.63259">
        <ele>385.2</ele>
        <time>2022-06-26T14:12:19Z</time>
      </trkpt>
      <trkpt lat="45.71795" lon="4.6327">
        <ele>385.2</ele>
        <time>2022-06-26T14:12:20Z</time>
      </trkpt>
      <trkpt lat="45.71796" lon="4.6328">
        <ele>384.8</ele>
        <time>2022-06-26T14:12:21Z</time>
      </trkpt>
      <trkpt lat="45.71796" lon="4.6329">
        <ele>384.8</ele>
        <time>2022-06-26T14:12:22Z</time>
      </trkpt>
      <trkpt lat="45.71797" lon="4.63301">
        <ele>384.8</ele>
        <time>2022-06-26T14:12:23Z</time>
      </trkpt>
      <trkpt lat="45.71798" lon="4.63312">
        <ele>384.6</ele>
        <time>2022-06-26T14:12:24Z</time>
      </trkpt>
      <trkpt lat="45.71798" lon="4.63322">
        <ele>384.6</ele>
        <time>2022-06-26T14:12:25Z</time>
      </trkpt>
      <trkpt lat="45.71798" lon="4.6333">
        <ele>384.4</ele>
        <time>2022-06-26T14:12:26Z</time>
      </trkpt>
      <trkpt lat="45.71797" lon="4.63337">
        <ele>384.4</ele>
        <time>2022-06-26T14:12:27Z</time>
      </trkpt>
      <trkpt lat="45.71797" lon="4.63344">
        <ele>384</ele>
        <time>2022-06-26T14:12:28Z</time>
      </trkpt>
      <trkpt lat="45.71796" lon="4.6335">
        <ele>384</ele>
        <time>2022-06-26T14:12:29Z</time>
      </trkpt>
      <trkpt lat="45.71795" lon="4.63355">
        <ele>384</ele>
        <time>2022-06-26T14:12:30Z</time>
      </trkpt>
      <trkpt lat="45.71795" lon="4.6336">
        <ele>383.8</ele>
        <time>2022-06-26T14:12:31Z</time>
      </trkpt>
      <trkpt lat="45.71795" lon="4.63364">
        <ele>383.8</ele>
        <time>2022-06-26T14:12:32Z</time>
      </trkpt>
      <trkpt lat="45.71794" lon="4.63369">
        <ele>383.8</ele>
        <time>2022-06-26T14:12:33Z</time>
      </trkpt>
      <trkpt lat="45.71794" lon="4.63373">
        <ele>383.6</ele>
        <time>2022-06-26T14:12:34Z</time>
      </trkpt>
      <trkpt lat="45.71793" lon="4.63377">
        <ele>383.6</ele>
        <time>2022-06-26T14:12:35Z</time>
      </trkpt>
      <trkpt lat="45.71792" lon="4.63382">
        <ele>383.2</ele>
        <time>2022-06-26T14:12:36Z</time>
      </trkpt>
      <trkpt lat="45.71791" lon="4.63387">
        <ele>383.2</ele>
        <time>2022-06-26T14:12:37Z</time>
      </trkpt>
      <trkpt lat="45.7179" lon="4.63393">
        <ele>383.2</ele>
        <time>2022-06-26T14:12:38Z</time>
      </trkpt>
      <trkpt lat="45.71789" lon="4.63401">
        <ele>383.2</ele>
        <time>2022-06-26T14:12:39Z</time>
      </trkpt>
      <trkpt lat="45.71788" lon="4.63409">
        <ele>383.2</ele>
        <time>2022-06-26T14:12:40Z</time>
      </trkpt>
      <trkpt lat="45.71787" lon="4.63416">
        <ele>383.2</ele>
        <time>2022-06-26T14:12:41Z</time>
      </trkpt>
      <trkpt lat="45.71786" lon="4.63423">
        <ele>383.2</ele>
        <time>2022-06-26T14:12:42Z</time>
      </trkpt>
      <trkpt lat="45.71786" lon="4.6343">
        <ele>383.2</ele>
        <time>2022-06-26T14:12:43Z</time>
      </trkpt>
      <trkpt lat="45.71786" lon="4.63438">
        <ele>383.2</ele>
        <time>2022-06-26T14:12:44Z</time>
      </trkpt>
      <trkpt lat="45.71786" lon="4.63445">
        <ele>383.2</ele>
        <time>2022-06-26T14:12:45Z</time>
      </trkpt>
      <trkpt lat="45.71787" lon="4.63453">
        <ele>383</ele>
        <time>2022-06-26T14:12:46Z</time>
      </trkpt>
      <trkpt lat="45.71788" lon="4.6346">
        <ele>383</ele>
        <time>2022-06-26T14:12:47Z</time>
      </trkpt>
      <trkpt lat="45.71789" lon="4.63468">
        <ele>383</ele>
        <time>2022-06-26T14:12:48Z</time>
      </trkpt>
      <trkpt lat="45.71789" lon="4.63475">
        <ele>383</ele>
        <time>2022-06-26T14:12:49Z</time>
      </trkpt>
      <trkpt lat="45.7179" lon="4.63483">
        <ele>383</ele>
        <time>2022-06-26T14:12:50Z</time>
      </trkpt>
      <trkpt lat="45.71791" lon="4.6349">
        <ele>383</ele>
        <time>2022-06-26T14:12:51Z</time>
      </trkpt>
      <trkpt lat="45.71795" lon="4.63504">
        <ele>383</ele>
        <time>2022-06-26T14:12:52Z</time>
      </trkpt>
      <trkpt lat="45.71797" lon="4.63511">
        <ele>383</ele>
        <time>2022-06-26T14:12:53Z</time>
      </trkpt>
      <trkpt lat="45.71799" lon="4.63519">
        <ele>382.8</ele>
        <time>2022-06-26T14:12:54Z</time>
      </trkpt>
      <trkpt lat="45.71802" lon="4.63527">
        <ele>382.6</ele>
        <time>2022-06-26T14:12:55Z</time>
      </trkpt>
      <trkpt lat="45.71805" lon="4.63536">
        <ele>382.6</ele>
        <time>2022-06-26T14:12:56Z</time>
      </trkpt>
      <trkpt lat="45.71808" lon="4.63544">
        <ele>382.2</ele>
        <time>2022-06-26T14:12:57Z</time>
      </trkpt>
      <trkpt lat="45.7181" lon="4.63553">
        <ele>382</ele>
        <time>2022-06-26T14:12:58Z</time>
      </trkpt>
      <trkpt lat="45.71813" lon="4.63562">
        <ele>381.6</ele>
        <time>2022-06-26T14:12:59Z</time>
      </trkpt>
      <trkpt lat="45.71816" lon="4.63571">
        <ele>381.4</ele>
        <time>2022-06-26T14:13:00Z</time>
      </trkpt>
      <trkpt lat="45.71818" lon="4.63581">
        <ele>381.2</ele>
        <time>2022-06-26T14:13:01Z</time>
      </trkpt>
      <trkpt lat="45.7182" lon="4.6359">
        <ele>381</ele>
        <time>2022-06-26T14:13:02Z</time>
      </trkpt>
      <trkpt lat="45.71822" lon="4.636">
        <ele>380.8</ele>
        <time>2022-06-26T14:13:03Z</time>
      </trkpt>
      <trkpt lat="45.71823" lon="4.63611">
        <ele>380.4</ele>
        <time>2022-06-26T14:13:04Z</time>
      </trkpt>
      <trkpt lat="45.71824" lon="4.63621">
        <ele>380.4</ele>
        <time>2022-06-26T14:13:05Z</time>
      </trkpt>
      <trkpt lat="45.71825" lon="4.63632">
        <ele>380</ele>
        <time>2022-06-26T14:13:06Z</time>
      </trkpt>
      <trkpt lat="45.71826" lon="4.63643">
        <ele>379.8</ele>
        <time>2022-06-26T14:13:07Z</time>
      </trkpt>
      <trkpt lat="45.71826" lon="4.63653">
        <ele>379.8</ele>
        <time>2022-06-26T14:13:08Z</time>
      </trkpt>
      <trkpt lat="45.71827" lon="4.63664">
        <ele>379.6</ele>
        <time>2022-06-26T14:13:09Z</time>
      </trkpt>
      <trkpt lat="45.71827" lon="4.63674">
        <ele>379.6</ele>
        <time>2022-06-26T14:13:10Z</time>
      </trkpt>
      <trkpt lat="45.71828" lon="4.63685">
        <ele>379.4</ele>
        <time>2022-06-26T14:13:11Z</time>
      </trkpt>
      <trkpt lat="45.71829" lon="4.63695">
        <ele>379.4</ele>
        <time>2022-06-26T14:13:12Z</time>
      </trkpt>
      <trkpt lat="45.7183" lon="4.63705">
        <ele>379.2</ele>
        <time>2022-06-26T14:13:13Z</time>
      </trkpt>
      <trkpt lat="45.7183" lon="4.63716">
        <ele>379.2</ele>
        <time>2022-06-26T14:13:14Z</time>
      </trkpt>
      <trkpt lat="45.71831" lon="4.63726">
        <ele>378.8</ele>
        <time>2022-06-26T14:13:15Z</time>
      </trkpt>
      <trkpt lat="45.71832" lon="4.63736">
        <ele>378.8</ele>
        <time>2022-06-26T14:13:16Z</time>
      </trkpt>
      <trkpt lat="45.71832" lon="4.63747">
        <ele>378.4</ele>
        <time>2022-06-26T14:13:17Z</time>
      </trkpt>
      <trkpt lat="45.71832" lon="4.63757">
        <ele>378.4</ele>
        <time>2022-06-26T14:13:18Z</time>
      </trkpt>
      <trkpt lat="45.71832" lon="4.63766">
        <ele>378.2</ele>
        <time>2022-06-26T14:13:19Z</time>
      </trkpt>
      <trkpt lat="45.71832" lon="4.63776">
        <ele>378.2</ele>
        <time>2022-06-26T14:13:20Z</time>
      </trkpt>
      <trkpt lat="45.71833" lon="4.63785">
        <ele>378.2</ele>
        <time>2022-06-26T14:13:21Z</time>
      </trkpt>
      <trkpt lat="45.71833" lon="4.63795">
        <ele>377.8</ele>
        <time>2022-06-26T14:13:22Z</time>
      </trkpt>
      <trkpt lat="45.71834" lon="4.63805">
        <ele>377.8</ele>
        <time>2022-06-26T14:13:23Z</time>
      </trkpt>
      <trkpt lat="45.71835" lon="4.63815">
        <ele>377.6</ele>
        <time>2022-06-26T14:13:24Z</time>
      </trkpt>
      <trkpt lat="45.71836" lon="4.63824">
        <ele>377.6</ele>
        <time>2022-06-26T14:13:25Z</time>
      </trkpt>
      <trkpt lat="45.71838" lon="4.63833">
        <ele>377.4</ele>
        <time>2022-06-26T14:13:26Z</time>
      </trkpt>
      <trkpt lat="45.71841" lon="4.63842">
        <ele>377.4</ele>
        <time>2022-06-26T14:13:27Z</time>
      </trkpt>
      <trkpt lat="45.71845" lon="4.63851">
        <ele>377.4</ele>
        <time>2022-06-26T14:13:28Z</time>
      </trkpt>
      <trkpt lat="45.71848" lon="4.63859">
        <ele>377.4</ele>
        <time>2022-06-26T14:13:29Z</time>
      </trkpt>
      <trkpt lat="45.71852" lon="4.63868">
        <ele>377</ele>
        <time>2022-06-26T14:13:30Z</time>
      </trkpt>
      <trkpt lat="45.71856" lon="4.63877">
        <ele>376.8</ele>
        <time>2022-06-26T14:13:31Z</time>
      </trkpt>
      <trkpt lat="45.71861" lon="4.63885">
        <ele>376.8</ele>
        <time>2022-06-26T14:13:32Z</time>
      </trkpt>
      <trkpt lat="45.71866" lon="4.63893">
        <ele>376.6</ele>
        <time>2022-06-26T14:13:33Z</time>
      </trkpt>
      <trkpt lat="45.71871" lon="4.63902">
        <ele>376.4</ele>
        <time>2022-06-26T14:13:34Z</time>
      </trkpt>
      <trkpt lat="45.71876" lon="4.63911">
        <ele>376.4</ele>
        <time>2022-06-26T14:13:35Z</time>
      </trkpt>
      <trkpt lat="45.71881" lon="4.63919">
        <ele>376</ele>
        <time>2022-06-26T14:13:36Z</time>
      </trkpt>
      <trkpt lat="45.71886" lon="4.63927">
        <ele>376</ele>
        <time>2022-06-26T14:13:37Z</time>
      </trkpt>
      <trkpt lat="45.71891" lon="4.63935">
        <ele>376</ele>
        <time>2022-06-26T14:13:38Z</time>
      </trkpt>
      <trkpt lat="45.71897" lon="4.63942">
        <ele>375.8</ele>
        <time>2022-06-26T14:13:39Z</time>
      </trkpt>
      <trkpt lat="45.71902" lon="4.6395">
        <ele>375.8</ele>
        <time>2022-06-26T14:13:40Z</time>
      </trkpt>
      <trkpt lat="45.71908" lon="4.63957">
        <ele>375.8</ele>
        <time>2022-06-26T14:13:41Z</time>
      </trkpt>
      <trkpt lat="45.71913" lon="4.63963">
        <ele>375.8</ele>
        <time>2022-06-26T14:13:42Z</time>
      </trkpt>
      <trkpt lat="45.71919" lon="4.63969">
        <ele>375.8</ele>
        <time>2022-06-26T14:13:43Z</time>
      </trkpt>
      <trkpt lat="45.71925" lon="4.63975">
        <ele>375.6</ele>
        <time>2022-06-26T14:13:44Z</time>
      </trkpt>
      <trkpt lat="45.71931" lon="4.63981">
        <ele>375.6</ele>
        <time>2022-06-26T14:13:45Z</time>
      </trkpt>
      <trkpt lat="45.71936" lon="4.63986">
        <ele>375.6</ele>
        <time>2022-06-26T14:13:46Z</time>
      </trkpt>
      <trkpt lat="45.71942" lon="4.63992">
        <ele>375.4</ele>
        <time>2022-06-26T14:13:47Z</time>
      </trkpt>
      <trkpt lat="45.71948" lon="4.63998">
        <ele>375.4</ele>
        <time>2022-06-26T14:13:48Z</time>
      </trkpt>
      <trkpt lat="45.71954" lon="4.64004">
        <ele>375.2</ele>
        <time>2022-06-26T14:13:49Z</time>
      </trkpt>
      <trkpt lat="45.71959" lon="4.64011">
        <ele>375.2</ele>
        <time>2022-06-26T14:13:50Z</time>
      </trkpt>
      <trkpt lat="45.71964" lon="4.64018">
        <ele>374.8</ele>
        <time>2022-06-26T14:13:51Z</time>
      </trkpt>
      <trkpt lat="45.71968" lon="4.64026">
        <ele>374.8</ele>
        <time>2022-06-26T14:13:52Z</time>
      </trkpt>
      <trkpt lat="45.71972" lon="4.64034">
        <ele>374.6</ele>
        <time>2022-06-26T14:13:53Z</time>
      </trkpt>
      <trkpt lat="45.71976" lon="4.64043">
        <ele>374.6</ele>
        <time>2022-06-26T14:13:54Z</time>
      </trkpt>
      <trkpt lat="45.71979" lon="4.64053">
        <ele>374.2</ele>
        <time>2022-06-26T14:13:55Z</time>
      </trkpt>
      <trkpt lat="45.71982" lon="4.64063">
        <ele>374.2</ele>
        <time>2022-06-26T14:13:56Z</time>
      </trkpt>
      <trkpt lat="45.71985" lon="4.64073">
        <ele>374</ele>
        <time>2022-06-26T14:13:57Z</time>
      </trkpt>
      <trkpt lat="45.71987" lon="4.64083">
        <ele>374</ele>
        <time>2022-06-26T14:13:58Z</time>
      </trkpt>
      <trkpt lat="45.71988" lon="4.64094">
        <ele>373.6</ele>
        <time>2022-06-26T14:13:59Z</time>
      </trkpt>
      <trkpt lat="45.7199" lon="4.64104">
        <ele>373.6</ele>
        <time>2022-06-26T14:14:00Z</time>
      </trkpt>
      <trkpt lat="45.71991" lon="4.64114">
        <ele>373.2</ele>
        <time>2022-06-26T14:14:01Z</time>
      </trkpt>
      <trkpt lat="45.71992" lon="4.64125">
        <ele>373.2</ele>
        <time>2022-06-26T14:14:02Z</time>
      </trkpt>
      <trkpt lat="45.71994" lon="4.64136">
        <ele>373</ele>
        <time>2022-06-26T14:14:03Z</time>
      </trkpt>
      <trkpt lat="45.71995" lon="4.64147">
        <ele>373</ele>
        <time>2022-06-26T14:14:04Z</time>
      </trkpt>
      <trkpt lat="45.71996" lon="4.64158">
        <ele>372.6</ele>
        <time>2022-06-26T14:14:05Z</time>
      </trkpt>
      <trkpt lat="45.71996" lon="4.6417">
        <ele>372.4</ele>
        <time>2022-06-26T14:14:06Z</time>
      </trkpt>
      <trkpt lat="45.71997" lon="4.64181">
        <ele>372</ele>
        <time>2022-06-26T14:14:07Z</time>
      </trkpt>
      <trkpt lat="45.71997" lon="4.64193">
        <ele>371.8</ele>
        <time>2022-06-26T14:14:08Z</time>
      </trkpt>
      <trkpt lat="45.71997" lon="4.64205">
        <ele>371.4</ele>
        <time>2022-06-26T14:14:09Z</time>
      </trkpt>
      <trkpt lat="45.71997" lon="4.64217">
        <ele>371.2</ele>
        <time>2022-06-26T14:14:10Z</time>
      </trkpt>
      <trkpt lat="45.71998" lon="4.6423">
        <ele>371.2</ele>
        <time>2022-06-26T14:14:11Z</time>
      </trkpt>
      <trkpt lat="45.71999" lon="4.64242">
        <ele>370.8</ele>
        <time>2022-06-26T14:14:12Z</time>
      </trkpt>
      <trkpt lat="45.71999" lon="4.64254">
        <ele>370.8</ele>
        <time>2022-06-26T14:14:13Z</time>
      </trkpt>
      <trkpt lat="45.72" lon="4.64267">
        <ele>370.4</ele>
        <time>2022-06-26T14:14:14Z</time>
      </trkpt>
      <trkpt lat="45.72001" lon="4.64279">
        <ele>370.2</ele>
        <time>2022-06-26T14:14:15Z</time>
      </trkpt>
      <trkpt lat="45.72002" lon="4.64292">
        <ele>369.8</ele>
        <time>2022-06-26T14:14:16Z</time>
      </trkpt>
      <trkpt lat="45.72003" lon="4.64304">
        <ele>369.8</ele>
        <time>2022-06-26T14:14:17Z</time>
      </trkpt>
      <trkpt lat="45.72004" lon="4.64316">
        <ele>369.6</ele>
        <time>2022-06-26T14:14:18Z</time>
      </trkpt>
      <trkpt lat="45.72005" lon="4.64328">
        <ele>369.6</ele>
        <time>2022-06-26T14:14:19Z</time>
      </trkpt>
      <trkpt lat="45.72006" lon="4.64341">
        <ele>369.6</ele>
        <time>2022-06-26T14:14:20Z</time>
      </trkpt>
      <trkpt lat="45.72007" lon="4.64353">
        <ele>369.4</ele>
        <time>2022-06-26T14:14:21Z</time>
      </trkpt>
      <trkpt lat="45.72009" lon="4.64365">
        <ele>369.4</ele>
        <time>2022-06-26T14:14:22Z</time>
      </trkpt>
      <trkpt lat="45.72011" lon="4.64377">
        <ele>369.4</ele>
        <time>2022-06-26T14:14:23Z</time>
      </trkpt>
      <trkpt lat="45.72013" lon="4.64388">
        <ele>369</ele>
        <time>2022-06-26T14:14:24Z</time>
      </trkpt>
      <trkpt lat="45.72016" lon="4.64399">
        <ele>369</ele>
        <time>2022-06-26T14:14:25Z</time>
      </trkpt>
      <trkpt lat="45.72019" lon="4.64409">
        <ele>368.8</ele>
        <time>2022-06-26T14:14:26Z</time>
      </trkpt>
      <trkpt lat="45.72022" lon="4.6442">
        <ele>368.8</ele>
        <time>2022-06-26T14:14:27Z</time>
      </trkpt>
      <trkpt lat="45.72026" lon="4.64429">
        <ele>368.8</ele>
        <time>2022-06-26T14:14:28Z</time>
      </trkpt>
      <trkpt lat="45.7203" lon="4.64439">
        <ele>368.8</ele>
        <time>2022-06-26T14:14:29Z</time>
      </trkpt>
      <trkpt lat="45.72034" lon="4.64448">
        <ele>368.6</ele>
        <time>2022-06-26T14:14:30Z</time>
      </trkpt>
      <trkpt lat="45.72039" lon="4.64458">
        <ele>368.6</ele>
        <time>2022-06-26T14:14:31Z</time>
      </trkpt>
      <trkpt lat="45.72043" lon="4.64467">
        <ele>368.6</ele>
        <time>2022-06-26T14:14:32Z</time>
      </trkpt>
      <trkpt lat="45.72047" lon="4.64476">
        <ele>368.6</ele>
        <time>2022-06-26T14:14:33Z</time>
      </trkpt>
      <trkpt lat="45.72052" lon="4.64485">
        <ele>368.6</ele>
        <time>2022-06-26T14:14:34Z</time>
      </trkpt>
      <trkpt lat="45.72056" lon="4.64494">
        <ele>368.4</ele>
        <time>2022-06-26T14:14:35Z</time>
      </trkpt>
      <trkpt lat="45.72061" lon="4.64503">
        <ele>368.4</ele>
        <time>2022-06-26T14:14:36Z</time>
      </trkpt>
      <trkpt lat="45.72065" lon="4.64512">
        <ele>368.4</ele>
        <time>2022-06-26T14:14:37Z</time>
      </trkpt>
      <trkpt lat="45.7207" lon="4.64521">
        <ele>368.4</ele>
        <time>2022-06-26T14:14:38Z</time>
      </trkpt>
      <trkpt lat="45.72074" lon="4.64531">
        <ele>368</ele>
        <time>2022-06-26T14:14:39Z</time>
      </trkpt>
      <trkpt lat="45.72078" lon="4.6454">
        <ele>368</ele>
        <time>2022-06-26T14:14:40Z</time>
      </trkpt>
      <trkpt lat="45.72082" lon="4.64549">
        <ele>368</ele>
        <time>2022-06-26T14:14:41Z</time>
      </trkpt>
      <trkpt lat="45.72086" lon="4.64557">
        <ele>368</ele>
        <time>2022-06-26T14:14:42Z</time>
      </trkpt>
      <trkpt lat="45.72089" lon="4.64566">
        <ele>368.4</ele>
        <time>2022-06-26T14:14:43Z</time>
      </trkpt>
      <trkpt lat="45.72093" lon="4.64574">
        <ele>368.4</ele>
        <time>2022-06-26T14:14:44Z</time>
      </trkpt>
      <trkpt lat="45.72096" lon="4.64582">
        <ele>368.8</ele>
        <time>2022-06-26T14:14:45Z</time>
      </trkpt>
      <trkpt lat="45.72099" lon="4.64589">
        <ele>369</ele>
        <time>2022-06-26T14:14:46Z</time>
      </trkpt>
      <trkpt lat="45.72102" lon="4.64597">
        <ele>369.4</ele>
        <time>2022-06-26T14:14:47Z</time>
      </trkpt>
      <trkpt lat="45.72106" lon="4.64604">
        <ele>369.8</ele>
        <time>2022-06-26T14:14:48Z</time>
      </trkpt>
      <trkpt lat="45.72109" lon="4.64611">
        <ele>370.2</ele>
        <time>2022-06-26T14:14:49Z</time>
      </trkpt>
      <trkpt lat="45.72112" lon="4.64618">
        <ele>370.6</ele>
        <time>2022-06-26T14:14:50Z</time>
      </trkpt>
      <trkpt lat="45.72115" lon="4.64624">
        <ele>371</ele>
        <time>2022-06-26T14:14:51Z</time>
      </trkpt>
      <trkpt lat="45.72118" lon="4.64631">
        <ele>371.4</ele>
        <time>2022-06-26T14:14:52Z</time>
      </trkpt>
      <trkpt lat="45.7212" lon="4.64637">
        <ele>371.8</ele>
        <time>2022-06-26T14:14:53Z</time>
      </trkpt>
      <trkpt lat="45.72123" lon="4.64642">
        <ele>372.2</ele>
        <time>2022-06-26T14:14:54Z</time>
      </trkpt>
      <trkpt lat="45.72125" lon="4.64647">
        <ele>372.6</ele>
        <time>2022-06-26T14:14:55Z</time>
      </trkpt>
      <trkpt lat="45.72127" lon="4.64652">
        <ele>372.8</ele>
        <time>2022-06-26T14:14:56Z</time>
      </trkpt>
      <trkpt lat="45.72129" lon="4.64657">
        <ele>373.2</ele>
        <time>2022-06-26T14:14:57Z</time>
      </trkpt>
      <trkpt lat="45.72132" lon="4.64662">
        <ele>373.6</ele>
        <time>2022-06-26T14:14:58Z</time>
      </trkpt>
      <trkpt lat="45.72136" lon="4.6467">
        <ele>374</ele>
        <time>2022-06-26T14:14:59Z</time>
      </trkpt>
      <trkpt lat="45.72137" lon="4.64674">
        <ele>374.2</ele>
        <time>2022-06-26T14:15:00Z</time>
      </trkpt>
      <trkpt lat="45.72139" lon="4.64679">
        <ele>374.2</ele>
        <time>2022-06-26T14:15:01Z</time>
      </trkpt>
      <trkpt lat="45.72141" lon="4.64683">
        <ele>374.6</ele>
        <time>2022-06-26T14:15:02Z</time>
      </trkpt>
      <trkpt lat="45.72143" lon="4.64687">
        <ele>374.8</ele>
        <time>2022-06-26T14:15:03Z</time>
      </trkpt>
      <trkpt lat="45.72144" lon="4.64692">
        <ele>375.2</ele>
        <time>2022-06-26T14:15:04Z</time>
      </trkpt>
      <trkpt lat="45.72146" lon="4.64697">
        <ele>375.4</ele>
        <time>2022-06-26T14:15:05Z</time>
      </trkpt>
      <trkpt lat="45.72148" lon="4.64701">
        <ele>375.6</ele>
        <time>2022-06-26T14:15:06Z</time>
      </trkpt>
      <trkpt lat="45.7215" lon="4.64705">
        <ele>375.6</ele>
        <time>2022-06-26T14:15:07Z</time>
      </trkpt>
      <trkpt lat="45.72151" lon="4.6471">
        <ele>376</ele>
        <time>2022-06-26T14:15:08Z</time>
      </trkpt>
      <trkpt lat="45.72153" lon="4.64714">
        <ele>376</ele>
        <time>2022-06-26T14:15:09Z</time>
      </trkpt>
      <trkpt lat="45.72155" lon="4.64719">
        <ele>376.2</ele>
        <time>2022-06-26T14:15:10Z</time>
      </trkpt>
      <trkpt lat="45.72156" lon="4.64723">
        <ele>376.4</ele>
        <time>2022-06-26T14:15:11Z</time>
      </trkpt>
      <trkpt lat="45.72158" lon="4.64728">
        <ele>376.4</ele>
        <time>2022-06-26T14:15:12Z</time>
      </trkpt>
      <trkpt lat="45.72159" lon="4.64733">
        <ele>376.8</ele>
        <time>2022-06-26T14:15:13Z</time>
      </trkpt>
      <trkpt lat="45.7216" lon="4.64737">
        <ele>377</ele>
        <time>2022-06-26T14:15:14Z</time>
      </trkpt>
      <trkpt lat="45.72161" lon="4.64741">
        <ele>377.2</ele>
        <time>2022-06-26T14:15:15Z</time>
      </trkpt>
      <trkpt lat="45.72163" lon="4.64745">
        <ele>377.2</ele>
        <time>2022-06-26T14:15:16Z</time>
      </trkpt>
      <trkpt lat="45.72164" lon="4.64749">
        <ele>377.6</ele>
        <time>2022-06-26T14:15:17Z</time>
      </trkpt>
      <trkpt lat="45.72166" lon="4.64754">
        <ele>377.6</ele>
        <time>2022-06-26T14:15:18Z</time>
      </trkpt>
      <trkpt lat="45.72167" lon="4.64758">
        <ele>377.8</ele>
        <time>2022-06-26T14:15:19Z</time>
      </trkpt>
      <trkpt lat="45.72169" lon="4.64763">
        <ele>377.8</ele>
        <time>2022-06-26T14:15:20Z</time>
      </trkpt>
      <trkpt lat="45.7217" lon="4.64768">
        <ele>377.8</ele>
        <time>2022-06-26T14:15:21Z</time>
      </trkpt>
      <trkpt lat="45.72172" lon="4.64773">
        <ele>377.8</ele>
        <time>2022-06-26T14:15:22Z</time>
      </trkpt>
      <trkpt lat="45.72173" lon="4.64779">
        <ele>378.2</ele>
        <time>2022-06-26T14:15:23Z</time>
      </trkpt>
      <trkpt lat="45.72175" lon="4.64784">
        <ele>378.2</ele>
        <time>2022-06-26T14:15:24Z</time>
      </trkpt>
      <trkpt lat="45.72176" lon="4.64789">
        <ele>378.4</ele>
        <time>2022-06-26T14:15:25Z</time>
      </trkpt>
      <trkpt lat="45.72178" lon="4.64794">
        <ele>378.4</ele>
        <time>2022-06-26T14:15:26Z</time>
      </trkpt>
      <trkpt lat="45.7218" lon="4.64799">
        <ele>378.4</ele>
        <time>2022-06-26T14:15:27Z</time>
      </trkpt>
      <trkpt lat="45.72181" lon="4.64805">
        <ele>378.4</ele>
        <time>2022-06-26T14:15:28Z</time>
      </trkpt>
      <trkpt lat="45.72183" lon="4.64811">
        <ele>378.6</ele>
        <time>2022-06-26T14:15:29Z</time>
      </trkpt>
      <trkpt lat="45.72185" lon="4.64816">
        <ele>378.6</ele>
        <time>2022-06-26T14:15:30Z</time>
      </trkpt>
      <trkpt lat="45.72186" lon="4.64822">
        <ele>378.6</ele>
        <time>2022-06-26T14:15:31Z</time>
      </trkpt>
      <trkpt lat="45.72188" lon="4.64828">
        <ele>378.8</ele>
        <time>2022-06-26T14:15:32Z</time>
      </trkpt>
      <trkpt lat="45.7219" lon="4.64834">
        <ele>378.8</ele>
        <time>2022-06-26T14:15:33Z</time>
      </trkpt>
      <trkpt lat="45.72192" lon="4.64839">
        <ele>379.2</ele>
        <time>2022-06-26T14:15:34Z</time>
      </trkpt>
      <trkpt lat="45.72193" lon="4.64845">
        <ele>379.2</ele>
        <time>2022-06-26T14:15:35Z</time>
      </trkpt>
      <trkpt lat="45.72195" lon="4.64851">
        <ele>379.2</ele>
        <time>2022-06-26T14:15:36Z</time>
      </trkpt>
      <trkpt lat="45.72197" lon="4.64856">
        <ele>379.4</ele>
        <time>2022-06-26T14:15:37Z</time>
      </trkpt>
      <trkpt lat="45.72199" lon="4.64862">
        <ele>379.4</ele>
        <time>2022-06-26T14:15:38Z</time>
      </trkpt>
      <trkpt lat="45.72201" lon="4.64868">
        <ele>379.6</ele>
        <time>2022-06-26T14:15:39Z</time>
      </trkpt>
      <trkpt lat="45.72203" lon="4.64873">
        <ele>379.6</ele>
        <time>2022-06-26T14:15:40Z</time>
      </trkpt>
      <trkpt lat="45.72205" lon="4.64878">
        <ele>379.8</ele>
        <time>2022-06-26T14:15:41Z</time>
      </trkpt>
      <trkpt lat="45.72206" lon="4.64883">
        <ele>379.8</ele>
        <time>2022-06-26T14:15:42Z</time>
      </trkpt>
      <trkpt lat="45.72208" lon="4.64889">
        <ele>379.8</ele>
        <time>2022-06-26T14:15:43Z</time>
      </trkpt>
      <trkpt lat="45.7221" lon="4.64894">
        <ele>380.2</ele>
        <time>2022-06-26T14:15:44Z</time>
      </trkpt>
      <trkpt lat="45.72212" lon="4.64899">
        <ele>380.2</ele>
        <time>2022-06-26T14:15:45Z</time>
      </trkpt>
      <trkpt lat="45.72215" lon="4.64905">
        <ele>380.4</ele>
        <time>2022-06-26T14:15:48Z</time>
      </trkpt>
      <trkpt lat="45.72217" lon="4.6491">
        <ele>380.4</ele>
        <time>2022-06-26T14:15:49Z</time>
      </trkpt>
      <trkpt lat="45.7222" lon="4.64915">
        <ele>380.6</ele>
        <time>2022-06-26T14:15:50Z</time>
      </trkpt>
      <trkpt lat="45.72222" lon="4.6492">
        <ele>380.6</ele>
        <time>2022-06-26T14:15:51Z</time>
      </trkpt>
      <trkpt lat="45.72226" lon="4.64925">
        <ele>381</ele>
        <time>2022-06-26T14:15:52Z</time>
      </trkpt>
      <trkpt lat="45.72229" lon="4.6493">
        <ele>381</ele>
        <time>2022-06-26T14:15:53Z</time>
      </trkpt>
      <trkpt lat="45.72233" lon="4.64935">
        <ele>381</ele>
        <time>2022-06-26T14:15:54Z</time>
      </trkpt>
      <trkpt lat="45.72236" lon="4.6494">
        <ele>381</ele>
        <time>2022-06-26T14:15:55Z</time>
      </trkpt>
      <trkpt lat="45.72241" lon="4.64945">
        <ele>381</ele>
        <time>2022-06-26T14:15:56Z</time>
      </trkpt>
      <trkpt lat="45.72245" lon="4.6495">
        <ele>381.2</ele>
        <time>2022-06-26T14:15:57Z</time>
      </trkpt>
      <trkpt lat="45.72249" lon="4.64955">
        <ele>381.2</ele>
        <time>2022-06-26T14:15:58Z</time>
      </trkpt>
      <trkpt lat="45.72254" lon="4.64959">
        <ele>380.8</ele>
        <time>2022-06-26T14:15:59Z</time>
      </trkpt>
      <trkpt lat="45.7226" lon="4.64962">
        <ele>380.8</ele>
        <time>2022-06-26T14:16:00Z</time>
      </trkpt>
      <trkpt lat="45.72266" lon="4.64965">
        <ele>380.4</ele>
        <time>2022-06-26T14:16:01Z</time>
      </trkpt>
      <trkpt lat="45.72272" lon="4.64967">
        <ele>380.2</ele>
        <time>2022-06-26T14:16:02Z</time>
      </trkpt>
      <trkpt lat="45.72278" lon="4.64968">
        <ele>380</ele>
        <time>2022-06-26T14:16:03Z</time>
      </trkpt>
      <trkpt lat="45.72285" lon="4.64969">
        <ele>379.8</ele>
        <time>2022-06-26T14:16:04Z</time>
      </trkpt>
      <trkpt lat="45.72291" lon="4.64969">
        <ele>379.8</ele>
        <time>2022-06-26T14:16:05Z</time>
      </trkpt>
      <trkpt lat="45.72298" lon="4.64968">
        <ele>379.4</ele>
        <time>2022-06-26T14:16:06Z</time>
      </trkpt>
      <trkpt lat="45.72305" lon="4.64966">
        <ele>379.4</ele>
        <time>2022-06-26T14:16:07Z</time>
      </trkpt>
      <trkpt lat="45.72311" lon="4.64963">
        <ele>379</ele>
        <time>2022-06-26T14:16:08Z</time>
      </trkpt>
      <trkpt lat="45.72318" lon="4.64961">
        <ele>379</ele>
        <time>2022-06-26T14:16:09Z</time>
      </trkpt>
      <trkpt lat="45.72325" lon="4.6496">
        <ele>378.6</ele>
        <time>2022-06-26T14:16:10Z</time>
      </trkpt>
      <trkpt lat="45.72332" lon="4.64957">
        <ele>378.2</ele>
        <time>2022-06-26T14:16:11Z</time>
      </trkpt>
      <trkpt lat="45.72339" lon="4.64955">
        <ele>378</ele>
        <time>2022-06-26T14:16:12Z</time>
      </trkpt>
      <trkpt lat="45.72347" lon="4.64955">
        <ele>377.8</ele>
        <time>2022-06-26T14:16:13Z</time>
      </trkpt>
      <trkpt lat="45.72354" lon="4.64956">
        <ele>377.4</ele>
        <time>2022-06-26T14:16:14Z</time>
      </trkpt>
      <trkpt lat="45.72361" lon="4.64959">
        <ele>377.2</ele>
        <time>2022-06-26T14:16:15Z</time>
      </trkpt>
      <trkpt lat="45.72368" lon="4.64966">
        <ele>377.2</ele>
        <time>2022-06-26T14:16:16Z</time>
      </trkpt>
      <trkpt lat="45.72372" lon="4.64974">
        <ele>377.2</ele>
        <time>2022-06-26T14:16:17Z</time>
      </trkpt>
      <trkpt lat="45.72375" lon="4.64982">
        <ele>377</ele>
        <time>2022-06-26T14:16:18Z</time>
      </trkpt>
      <trkpt lat="45.72375" lon="4.64992">
        <ele>377</ele>
        <time>2022-06-26T14:16:19Z</time>
      </trkpt>
      <trkpt lat="45.72375" lon="4.65002">
        <ele>377</ele>
        <time>2022-06-26T14:16:20Z</time>
      </trkpt>
      <trkpt lat="45.72374" lon="4.65011">
        <ele>377</ele>
        <time>2022-06-26T14:16:21Z</time>
      </trkpt>
      <trkpt lat="45.72374" lon="4.65021">
        <ele>377</ele>
        <time>2022-06-26T14:16:22Z</time>
      </trkpt>
      <trkpt lat="45.72374" lon="4.65031">
        <ele>377</ele>
        <time>2022-06-26T14:16:23Z</time>
      </trkpt>
      <trkpt lat="45.72373" lon="4.6504">
        <ele>377.2</ele>
        <time>2022-06-26T14:16:24Z</time>
      </trkpt>
      <trkpt lat="45.72373" lon="4.65048">
        <ele>377.2</ele>
        <time>2022-06-26T14:16:25Z</time>
      </trkpt>
      <trkpt lat="45.72373" lon="4.65057">
        <ele>377.4</ele>
        <time>2022-06-26T14:16:26Z</time>
      </trkpt>
      <trkpt lat="45.72373" lon="4.65065">
        <ele>377.4</ele>
        <time>2022-06-26T14:16:27Z</time>
      </trkpt>
      <trkpt lat="45.72373" lon="4.65073">
        <ele>377.8</ele>
        <time>2022-06-26T14:16:28Z</time>
      </trkpt>
      <trkpt lat="45.72373" lon="4.6508">
        <ele>377.8</ele>
        <time>2022-06-26T14:16:29Z</time>
      </trkpt>
      <trkpt lat="45.72373" lon="4.65088">
        <ele>378.2</ele>
        <time>2022-06-26T14:16:30Z</time>
      </trkpt>
      <trkpt lat="45.72373" lon="4.65095">
        <ele>378.2</ele>
        <time>2022-06-26T14:16:31Z</time>
      </trkpt>
      <trkpt lat="45.72373" lon="4.65102">
        <ele>378.4</ele>
        <time>2022-06-26T14:16:32Z</time>
      </trkpt>
      <trkpt lat="45.72373" lon="4.6511">
        <ele>378.4</ele>
        <time>2022-06-26T14:16:33Z</time>
      </trkpt>
      <trkpt lat="45.72374" lon="4.65117">
        <ele>378.6</ele>
        <time>2022-06-26T14:16:34Z</time>
      </trkpt>
      <trkpt lat="45.72374" lon="4.65124">
        <ele>378.6</ele>
        <time>2022-06-26T14:16:35Z</time>
      </trkpt>
      <trkpt lat="45.72374" lon="4.65131">
        <ele>378.8</ele>
        <time>2022-06-26T14:16:36Z</time>
      </trkpt>
      <trkpt lat="45.72375" lon="4.65138">
        <ele>378.8</ele>
        <time>2022-06-26T14:16:37Z</time>
      </trkpt>
      <trkpt lat="45.72376" lon="4.65146">
        <ele>379.2</ele>
        <time>2022-06-26T14:16:38Z</time>
      </trkpt>
      <trkpt lat="45.72377" lon="4.65152">
        <ele>379.2</ele>
        <time>2022-06-26T14:16:39Z</time>
      </trkpt>
      <trkpt lat="45.72379" lon="4.65163">
        <ele>379.4</ele>
        <time>2022-06-26T14:16:40Z</time>
      </trkpt>
      <trkpt lat="45.72379" lon="4.65166">
        <ele>379.4</ele>
        <time>2022-06-26T14:16:41Z</time>
      </trkpt>
      <trkpt lat="45.72381" lon="4.65173">
        <ele>379.8</ele>
        <time>2022-06-26T14:16:42Z</time>
      </trkpt>
      <trkpt lat="45.72382" lon="4.65179">
        <ele>379.8</ele>
        <time>2022-06-26T14:16:43Z</time>
      </trkpt>
      <trkpt lat="45.72383" lon="4.65186">
        <ele>380</ele>
        <time>2022-06-26T14:16:44Z</time>
      </trkpt>
      <trkpt lat="45.72384" lon="4.65193">
        <ele>380</ele>
        <time>2022-06-26T14:16:45Z</time>
      </trkpt>
      <trkpt lat="45.72385" lon="4.652">
        <ele>380</ele>
        <time>2022-06-26T14:16:46Z</time>
      </trkpt>
      <trkpt lat="45.72387" lon="4.65207">
        <ele>380.4</ele>
        <time>2022-06-26T14:16:47Z</time>
      </trkpt>
      <trkpt lat="45.72388" lon="4.65213">
        <ele>380.4</ele>
        <time>2022-06-26T14:16:48Z</time>
      </trkpt>
      <trkpt lat="45.7239" lon="4.6522">
        <ele>380.6</ele>
        <time>2022-06-26T14:16:49Z</time>
      </trkpt>
      <trkpt lat="45.72392" lon="4.65226">
        <ele>380.6</ele>
        <time>2022-06-26T14:16:50Z</time>
      </trkpt>
      <trkpt lat="45.72393" lon="4.65232">
        <ele>380.8</ele>
        <time>2022-06-26T14:16:51Z</time>
      </trkpt>
      <trkpt lat="45.72395" lon="4.65238">
        <ele>380.8</ele>
        <time>2022-06-26T14:16:52Z</time>
      </trkpt>
      <trkpt lat="45.72397" lon="4.65244">
        <ele>380.8</ele>
        <time>2022-06-26T14:16:53Z</time>
      </trkpt>
      <trkpt lat="45.72399" lon="4.65249">
        <ele>381.2</ele>
        <time>2022-06-26T14:16:54Z</time>
      </trkpt>
      <trkpt lat="45.72401" lon="4.65255">
        <ele>381.2</ele>
        <time>2022-06-26T14:16:55Z</time>
      </trkpt>
      <trkpt lat="45.72404" lon="4.6526">
        <ele>381.6</ele>
        <time>2022-06-26T14:16:56Z</time>
      </trkpt>
      <trkpt lat="45.72406" lon="4.65265">
        <ele>381.8</ele>
        <time>2022-06-26T14:16:57Z</time>
      </trkpt>
      <trkpt lat="45.72408" lon="4.6527">
        <ele>381.8</ele>
        <time>2022-06-26T14:16:58Z</time>
      </trkpt>
      <trkpt lat="45.72411" lon="4.65275">
        <ele>382</ele>
        <time>2022-06-26T14:16:59Z</time>
      </trkpt>
      <trkpt lat="45.72413" lon="4.6528">
        <ele>382</ele>
        <time>2022-06-26T14:17:00Z</time>
      </trkpt>
      <trkpt lat="45.72416" lon="4.65284">
        <ele>382.4</ele>
        <time>2022-06-26T14:17:01Z</time>
      </trkpt>
      <trkpt lat="45.72418" lon="4.65289">
        <ele>382.6</ele>
        <time>2022-06-26T14:17:02Z</time>
      </trkpt>
      <trkpt lat="45.72421" lon="4.65293">
        <ele>382.6</ele>
        <time>2022-06-26T14:17:03Z</time>
      </trkpt>
      <trkpt lat="45.72423" lon="4.65297">
        <ele>382.8</ele>
        <time>2022-06-26T14:17:04Z</time>
      </trkpt>
      <trkpt lat="45.72426" lon="4.65301">
        <ele>382.8</ele>
        <time>2022-06-26T14:17:05Z</time>
      </trkpt>
      <trkpt lat="45.72429" lon="4.65305">
        <ele>383.2</ele>
        <time>2022-06-26T14:17:06Z</time>
      </trkpt>
      <trkpt lat="45.72432" lon="4.65309">
        <ele>383.2</ele>
        <time>2022-06-26T14:17:07Z</time>
      </trkpt>
      <trkpt lat="45.72436" lon="4.65313">
        <ele>383.4</ele>
        <time>2022-06-26T14:17:08Z</time>
      </trkpt>
      <trkpt lat="45.72439" lon="4.65317">
        <ele>383.4</ele>
        <time>2022-06-26T14:17:09Z</time>
      </trkpt>
      <trkpt lat="45.72443" lon="4.6532">
        <ele>383.8</ele>
        <time>2022-06-26T14:17:10Z</time>
      </trkpt>
      <trkpt lat="45.72447" lon="4.65322">
        <ele>383.8</ele>
        <time>2022-06-26T14:17:11Z</time>
      </trkpt>
      <trkpt lat="45.7245" lon="4.65325">
        <ele>384</ele>
        <time>2022-06-26T14:17:12Z</time>
      </trkpt>
      <trkpt lat="45.72454" lon="4.65328">
        <ele>384</ele>
        <time>2022-06-26T14:17:13Z</time>
      </trkpt>
      <trkpt lat="45.72458" lon="4.65331">
        <ele>384.2</ele>
        <time>2022-06-26T14:17:14Z</time>
      </trkpt>
      <trkpt lat="45.72462" lon="4.65333">
        <ele>384.2</ele>
        <time>2022-06-26T14:17:15Z</time>
      </trkpt>
      <trkpt lat="45.72466" lon="4.65335">
        <ele>384.6</ele>
        <time>2022-06-26T14:17:16Z</time>
      </trkpt>
      <trkpt lat="45.7247" lon="4.65338">
        <ele>384.6</ele>
        <time>2022-06-26T14:17:17Z</time>
      </trkpt>
      <trkpt lat="45.72474" lon="4.65341">
        <ele>384.8</ele>
        <time>2022-06-26T14:17:18Z</time>
      </trkpt>
      <trkpt lat="45.72478" lon="4.65343">
        <ele>384.8</ele>
        <time>2022-06-26T14:17:19Z</time>
      </trkpt>
      <trkpt lat="45.72482" lon="4.65345">
        <ele>384.8</ele>
        <time>2022-06-26T14:17:20Z</time>
      </trkpt>
      <trkpt lat="45.72486" lon="4.65348">
        <ele>385</ele>
        <time>2022-06-26T14:17:21Z</time>
      </trkpt>
      <trkpt lat="45.7249" lon="4.6535">
        <ele>385</ele>
        <time>2022-06-26T14:17:22Z</time>
      </trkpt>
      <trkpt lat="45.72494" lon="4.65353">
        <ele>385.2</ele>
        <time>2022-06-26T14:17:23Z</time>
      </trkpt>
      <trkpt lat="45.72499" lon="4.65356">
        <ele>385.2</ele>
        <time>2022-06-26T14:17:24Z</time>
      </trkpt>
      <trkpt lat="45.72503" lon="4.65359">
        <ele>385.2</ele>
        <time>2022-06-26T14:17:25Z</time>
      </trkpt>
      <trkpt lat="45.72507" lon="4.65362">
        <ele>385.6</ele>
        <time>2022-06-26T14:17:26Z</time>
      </trkpt>
      <trkpt lat="45.72512" lon="4.65365">
        <ele>385.6</ele>
        <time>2022-06-26T14:17:27Z</time>
      </trkpt>
      <trkpt lat="45.72517" lon="4.65369">
        <ele>385.6</ele>
        <time>2022-06-26T14:17:28Z</time>
      </trkpt>
      <trkpt lat="45.72522" lon="4.65373">
        <ele>385.6</ele>
        <time>2022-06-26T14:17:29Z</time>
      </trkpt>
      <trkpt lat="45.72527" lon="4.65377">
        <ele>385.6</ele>
        <time>2022-06-26T14:17:30Z</time>
      </trkpt>
      <trkpt lat="45.72533" lon="4.65381">
        <ele>385.2</ele>
        <time>2022-06-26T14:17:31Z</time>
      </trkpt>
      <trkpt lat="45.72539" lon="4.65386">
        <ele>385.2</ele>
        <time>2022-06-26T14:17:32Z</time>
      </trkpt>
      <trkpt lat="45.72545" lon="4.6539">
        <ele>385</ele>
        <time>2022-06-26T14:17:33Z</time>
      </trkpt>
      <trkpt lat="45.72551" lon="4.65394">
        <ele>385</ele>
        <time>2022-06-26T14:17:34Z</time>
      </trkpt>
      <trkpt lat="45.72557" lon="4.65398">
        <ele>384.6</ele>
        <time>2022-06-26T14:17:35Z</time>
      </trkpt>
      <trkpt lat="45.72564" lon="4.65401">
        <ele>384.6</ele>
        <time>2022-06-26T14:17:36Z</time>
      </trkpt>
      <trkpt lat="45.7257" lon="4.65405">
        <ele>384.4</ele>
        <time>2022-06-26T14:17:37Z</time>
      </trkpt>
      <trkpt lat="45.72577" lon="4.65408">
        <ele>384.2</ele>
        <time>2022-06-26T14:17:38Z</time>
      </trkpt>
      <trkpt lat="45.72584" lon="4.65411">
        <ele>384.2</ele>
        <time>2022-06-26T14:17:39Z</time>
      </trkpt>
      <trkpt lat="45.7259" lon="4.65414">
        <ele>383.8</ele>
        <time>2022-06-26T14:17:40Z</time>
      </trkpt>
      <trkpt lat="45.72597" lon="4.65418">
        <ele>383.6</ele>
        <time>2022-06-26T14:17:41Z</time>
      </trkpt>
      <trkpt lat="45.72604" lon="4.65422">
        <ele>383.6</ele>
        <time>2022-06-26T14:17:42Z</time>
      </trkpt>
      <trkpt lat="45.7261" lon="4.65426">
        <ele>383.2</ele>
        <time>2022-06-26T14:17:43Z</time>
      </trkpt>
      <trkpt lat="45.72616" lon="4.65432">
        <ele>383.2</ele>
        <time>2022-06-26T14:17:44Z</time>
      </trkpt>
      <trkpt lat="45.7262" lon="4.65439">
        <ele>383</ele>
        <time>2022-06-26T14:17:45Z</time>
      </trkpt>
      <trkpt lat="45.72623" lon="4.65447">
        <ele>383</ele>
        <time>2022-06-26T14:17:46Z</time>
      </trkpt>
      <trkpt lat="45.72626" lon="4.65455">
        <ele>383</ele>
        <time>2022-06-26T14:17:47Z</time>
      </trkpt>
      <trkpt lat="45.72628" lon="4.65463">
        <ele>383</ele>
        <time>2022-06-26T14:17:48Z</time>
      </trkpt>
      <trkpt lat="45.72631" lon="4.65471">
        <ele>383.4</ele>
        <time>2022-06-26T14:17:49Z</time>
      </trkpt>
      <trkpt lat="45.72634" lon="4.65478">
        <ele>383.6</ele>
        <time>2022-06-26T14:17:50Z</time>
      </trkpt>
      <trkpt lat="45.72636" lon="4.65485">
        <ele>383.8</ele>
        <time>2022-06-26T14:17:51Z</time>
      </trkpt>
      <trkpt lat="45.72639" lon="4.65491">
        <ele>384.2</ele>
        <time>2022-06-26T14:17:52Z</time>
      </trkpt>
      <trkpt lat="45.72642" lon="4.65498">
        <ele>384.6</ele>
        <time>2022-06-26T14:17:53Z</time>
      </trkpt>
      <trkpt lat="45.72646" lon="4.65503">
        <ele>385</ele>
        <time>2022-06-26T14:17:54Z</time>
      </trkpt>
      <trkpt lat="45.72649" lon="4.65509">
        <ele>385.2</ele>
        <time>2022-06-26T14:17:55Z</time>
      </trkpt>
      <trkpt lat="45.72653" lon="4.65514">
        <ele>385.2</ele>
        <time>2022-06-26T14:17:56Z</time>
      </trkpt>
      <trkpt lat="45.72657" lon="4.65519">
        <ele>385.6</ele>
        <time>2022-06-26T14:17:57Z</time>
      </trkpt>
      <trkpt lat="45.7266" lon="4.65524">
        <ele>385.6</ele>
        <time>2022-06-26T14:17:58Z</time>
      </trkpt>
      <trkpt lat="45.72664" lon="4.65529">
        <ele>386</ele>
        <time>2022-06-26T14:17:59Z</time>
      </trkpt>
      <trkpt lat="45.72667" lon="4.65533">
        <ele>386</ele>
        <time>2022-06-26T14:18:00Z</time>
      </trkpt>
      <trkpt lat="45.72671" lon="4.65538">
        <ele>386.2</ele>
        <time>2022-06-26T14:18:01Z</time>
      </trkpt>
      <trkpt lat="45.72674" lon="4.65541">
        <ele>386.2</ele>
        <time>2022-06-26T14:18:02Z</time>
      </trkpt>
      <trkpt lat="45.72678" lon="4.65544">
        <ele>386.6</ele>
        <time>2022-06-26T14:18:03Z</time>
      </trkpt>
      <trkpt lat="45.72682" lon="4.65546">
        <ele>386.6</ele>
        <time>2022-06-26T14:18:04Z</time>
      </trkpt>
      <trkpt lat="45.72685" lon="4.65548">
        <ele>387</ele>
        <time>2022-06-26T14:18:05Z</time>
      </trkpt>
      <trkpt lat="45.72688" lon="4.65549">
        <ele>387</ele>
        <time>2022-06-26T14:18:06Z</time>
      </trkpt>
      <trkpt lat="45.72691" lon="4.65551">
        <ele>387.2</ele>
        <time>2022-06-26T14:18:07Z</time>
      </trkpt>
      <trkpt lat="45.72695" lon="4.65554">
        <ele>387.2</ele>
        <time>2022-06-26T14:18:08Z</time>
      </trkpt>
      <trkpt lat="45.72698" lon="4.65557">
        <ele>387.2</ele>
        <time>2022-06-26T14:18:09Z</time>
      </trkpt>
      <trkpt lat="45.72703" lon="4.6556">
        <ele>387.2</ele>
        <time>2022-06-26T14:18:10Z</time>
      </trkpt>
      <trkpt lat="45.72707" lon="4.65564">
        <ele>387.2</ele>
        <time>2022-06-26T14:18:11Z</time>
      </trkpt>
      <trkpt lat="45.72712" lon="4.65568">
        <ele>386.8</ele>
        <time>2022-06-26T14:18:12Z</time>
      </trkpt>
      <trkpt lat="45.72718" lon="4.65571">
        <ele>386.8</ele>
        <time>2022-06-26T14:18:13Z</time>
      </trkpt>
      <trkpt lat="45.72724" lon="4.65575">
        <ele>386.6</ele>
        <time>2022-06-26T14:18:14Z</time>
      </trkpt>
      <trkpt lat="45.7273" lon="4.65579">
        <ele>386.2</ele>
        <time>2022-06-26T14:18:15Z</time>
      </trkpt>
      <trkpt lat="45.72736" lon="4.65584">
        <ele>386</ele>
        <time>2022-06-26T14:18:16Z</time>
      </trkpt>
      <trkpt lat="45.72742" lon="4.65589">
        <ele>385.6</ele>
        <time>2022-06-26T14:18:17Z</time>
      </trkpt>
      <trkpt lat="45.72749" lon="4.65594">
        <ele>385.4</ele>
        <time>2022-06-26T14:18:18Z</time>
      </trkpt>
      <trkpt lat="45.72755" lon="4.656">
        <ele>385</ele>
        <time>2022-06-26T14:18:19Z</time>
      </trkpt>
      <trkpt lat="45.72762" lon="4.65605">
        <ele>384.6</ele>
        <time>2022-06-26T14:18:20Z</time>
      </trkpt>
      <trkpt lat="45.72768" lon="4.65611">
        <ele>384.2</ele>
        <time>2022-06-26T14:18:21Z</time>
      </trkpt>
      <trkpt lat="45.72775" lon="4.65616">
        <ele>383.8</ele>
        <time>2022-06-26T14:18:22Z</time>
      </trkpt>
      <trkpt lat="45.72782" lon="4.65622">
        <ele>383.4</ele>
        <time>2022-06-26T14:18:23Z</time>
      </trkpt>
      <trkpt lat="45.72789" lon="4.65628">
        <ele>383</ele>
        <time>2022-06-26T14:18:24Z</time>
      </trkpt>
      <trkpt lat="45.72796" lon="4.65633">
        <ele>382.6</ele>
        <time>2022-06-26T14:18:25Z</time>
      </trkpt>
      <trkpt lat="45.72803" lon="4.65639">
        <ele>382.6</ele>
        <time>2022-06-26T14:18:26Z</time>
      </trkpt>
      <trkpt lat="45.7281" lon="4.65645">
        <ele>382.2</ele>
        <time>2022-06-26T14:18:27Z</time>
      </trkpt>
      <trkpt lat="45.72817" lon="4.65651">
        <ele>381.8</ele>
        <time>2022-06-26T14:18:28Z</time>
      </trkpt>
      <trkpt lat="45.72824" lon="4.65657">
        <ele>381.6</ele>
        <time>2022-06-26T14:18:29Z</time>
      </trkpt>
      <trkpt lat="45.72832" lon="4.65663">
        <ele>381.6</ele>
        <time>2022-06-26T14:18:30Z</time>
      </trkpt>
      <trkpt lat="45.72839" lon="4.65668">
        <ele>381.2</ele>
        <time>2022-06-26T14:18:31Z</time>
      </trkpt>
      <trkpt lat="45.72847" lon="4.65673">
        <ele>380.8</ele>
        <time>2022-06-26T14:18:32Z</time>
      </trkpt>
      <trkpt lat="45.72855" lon="4.65678">
        <ele>380.2</ele>
        <time>2022-06-26T14:18:34Z</time>
      </trkpt>
      <trkpt lat="45.72863" lon="4.65682">
        <ele>379.6</ele>
        <time>2022-06-26T14:18:35Z</time>
      </trkpt>
      <trkpt lat="45.72871" lon="4.65687">
        <ele>379.2</ele>
        <time>2022-06-26T14:18:36Z</time>
      </trkpt>
      <trkpt lat="45.72879" lon="4.65692">
        <ele>378.6</ele>
        <time>2022-06-26T14:18:37Z</time>
      </trkpt>
      <trkpt lat="45.72888" lon="4.65697">
        <ele>378</ele>
        <time>2022-06-26T14:18:38Z</time>
      </trkpt>
      <trkpt lat="45.72897" lon="4.65702">
        <ele>377.4</ele>
        <time>2022-06-26T14:18:39Z</time>
      </trkpt>
      <trkpt lat="45.72906" lon="4.65708">
        <ele>377</ele>
        <time>2022-06-26T14:18:40Z</time>
      </trkpt>
      <trkpt lat="45.72914" lon="4.65712">
        <ele>376.8</ele>
        <time>2022-06-26T14:18:41Z</time>
      </trkpt>
      <trkpt lat="45.72923" lon="4.65716">
        <ele>376.4</ele>
        <time>2022-06-26T14:18:42Z</time>
      </trkpt>
      <trkpt lat="45.72933" lon="4.65722">
        <ele>376</ele>
        <time>2022-06-26T14:18:43Z</time>
      </trkpt>
      <trkpt lat="45.72941" lon="4.65727">
        <ele>375.6</ele>
        <time>2022-06-26T14:18:44Z</time>
      </trkpt>
      <trkpt lat="45.7295" lon="4.65731">
        <ele>375</ele>
        <time>2022-06-26T14:18:45Z</time>
      </trkpt>
      <trkpt lat="45.72959" lon="4.65735">
        <ele>374.6</ele>
        <time>2022-06-26T14:18:46Z</time>
      </trkpt>
      <trkpt lat="45.72968" lon="4.65741">
        <ele>374.2</ele>
        <time>2022-06-26T14:18:47Z</time>
      </trkpt>
      <trkpt lat="45.72977" lon="4.65749">
        <ele>373.6</ele>
        <time>2022-06-26T14:18:48Z</time>
      </trkpt>
      <trkpt lat="45.72986" lon="4.65754">
        <ele>373.2</ele>
        <time>2022-06-26T14:18:49Z</time>
      </trkpt>
      <trkpt lat="45.72993" lon="4.65761">
        <ele>372.8</ele>
        <time>2022-06-26T14:18:50Z</time>
      </trkpt>
      <trkpt lat="45.73002" lon="4.65766">
        <ele>372.4</ele>
        <time>2022-06-26T14:18:51Z</time>
      </trkpt>
      <trkpt lat="45.73011" lon="4.65771">
        <ele>372</ele>
        <time>2022-06-26T14:18:52Z</time>
      </trkpt>
      <trkpt lat="45.73019" lon="4.65775">
        <ele>371.6</ele>
        <time>2022-06-26T14:18:53Z</time>
      </trkpt>
      <trkpt lat="45.73028" lon="4.65779">
        <ele>371.2</ele>
        <time>2022-06-26T14:18:54Z</time>
      </trkpt>
      <trkpt lat="45.73038" lon="4.65779">
        <ele>370.8</ele>
        <time>2022-06-26T14:18:55Z</time>
      </trkpt>
      <trkpt lat="45.73048" lon="4.6578">
        <ele>370.4</ele>
        <time>2022-06-26T14:18:56Z</time>
      </trkpt>
      <trkpt lat="45.73058" lon="4.6578">
        <ele>370</ele>
        <time>2022-06-26T14:18:57Z</time>
      </trkpt>
      <trkpt lat="45.73068" lon="4.6578">
        <ele>369.6</ele>
        <time>2022-06-26T14:18:58Z</time>
      </trkpt>
      <trkpt lat="45.73078" lon="4.65778">
        <ele>369.2</ele>
        <time>2022-06-26T14:18:59Z</time>
      </trkpt>
      <trkpt lat="45.73087" lon="4.65774">
        <ele>368.8</ele>
        <time>2022-06-26T14:19:00Z</time>
      </trkpt>
      <trkpt lat="45.73096" lon="4.65771">
        <ele>368.4</ele>
        <time>2022-06-26T14:19:01Z</time>
      </trkpt>
      <trkpt lat="45.73106" lon="4.65768">
        <ele>368</ele>
        <time>2022-06-26T14:19:02Z</time>
      </trkpt>
      <trkpt lat="45.73116" lon="4.65765">
        <ele>367.6</ele>
        <time>2022-06-26T14:19:03Z</time>
      </trkpt>
      <trkpt lat="45.73126" lon="4.65761">
        <ele>367.2</ele>
        <time>2022-06-26T14:19:04Z</time>
      </trkpt>
      <trkpt lat="45.73135" lon="4.65757">
        <ele>367</ele>
        <time>2022-06-26T14:19:05Z</time>
      </trkpt>
      <trkpt lat="45.73145" lon="4.65751">
        <ele>366.4</ele>
        <time>2022-06-26T14:19:06Z</time>
      </trkpt>
      <trkpt lat="45.73155" lon="4.65745">
        <ele>366</ele>
        <time>2022-06-26T14:19:07Z</time>
      </trkpt>
      <trkpt lat="45.73164" lon="4.65738">
        <ele>365.6</ele>
        <time>2022-06-26T14:19:08Z</time>
      </trkpt>
      <trkpt lat="45.73172" lon="4.6573">
        <ele>365</ele>
        <time>2022-06-26T14:19:09Z</time>
      </trkpt>
      <trkpt lat="45.73181" lon="4.65723">
        <ele>364.6</ele>
        <time>2022-06-26T14:19:10Z</time>
      </trkpt>
      <trkpt lat="45.73188" lon="4.65715">
        <ele>364</ele>
        <time>2022-06-26T14:19:11Z</time>
      </trkpt>
      <trkpt lat="45.73196" lon="4.65709">
        <ele>363.6</ele>
        <time>2022-06-26T14:19:12Z</time>
      </trkpt>
      <trkpt lat="45.73203" lon="4.65705">
        <ele>363</ele>
        <time>2022-06-26T14:19:13Z</time>
      </trkpt>
      <trkpt lat="45.7321" lon="4.65704">
        <ele>362.6</ele>
        <time>2022-06-26T14:19:14Z</time>
      </trkpt>
      <trkpt lat="45.73217" lon="4.65707">
        <ele>362.2</ele>
        <time>2022-06-26T14:19:15Z</time>
      </trkpt>
      <trkpt lat="45.73223" lon="4.65713">
        <ele>362</ele>
        <time>2022-06-26T14:19:16Z</time>
      </trkpt>
      <trkpt lat="45.73227" lon="4.65721">
        <ele>362</ele>
        <time>2022-06-26T14:19:17Z</time>
      </trkpt>
      <trkpt lat="45.73228" lon="4.65731">
        <ele>361.8</ele>
        <time>2022-06-26T14:19:18Z</time>
      </trkpt>
      <trkpt lat="45.73228" lon="4.6574">
        <ele>361.8</ele>
        <time>2022-06-26T14:19:19Z</time>
      </trkpt>
      <trkpt lat="45.73226" lon="4.6576">
        <ele>361.8</ele>
        <time>2022-06-26T14:19:20Z</time>
      </trkpt>
      <trkpt lat="45.73224" lon="4.65769">
        <ele>361.8</ele>
        <time>2022-06-26T14:19:21Z</time>
      </trkpt>
      <trkpt lat="45.73221" lon="4.65778">
        <ele>361.4</ele>
        <time>2022-06-26T14:19:22Z</time>
      </trkpt>
      <trkpt lat="45.73218" lon="4.65786">
        <ele>361.4</ele>
        <time>2022-06-26T14:19:23Z</time>
      </trkpt>
      <trkpt lat="45.73215" lon="4.65795">
        <ele>361.4</ele>
        <time>2022-06-26T14:19:24Z</time>
      </trkpt>
      <trkpt lat="45.73212" lon="4.65803">
        <ele>361.4</ele>
        <time>2022-06-26T14:19:25Z</time>
      </trkpt>
      <trkpt lat="45.73209" lon="4.65811">
        <ele>361.4</ele>
        <time>2022-06-26T14:19:26Z</time>
      </trkpt>
      <trkpt lat="45.73206" lon="4.65819">
        <ele>361.4</ele>
        <time>2022-06-26T14:19:27Z</time>
      </trkpt>
      <trkpt lat="45.73202" lon="4.65826">
        <ele>361.8</ele>
        <time>2022-06-26T14:19:28Z</time>
      </trkpt>
      <trkpt lat="45.73199" lon="4.65833">
        <ele>361.8</ele>
        <time>2022-06-26T14:19:29Z</time>
      </trkpt>
      <trkpt lat="45.73195" lon="4.6584">
        <ele>361.8</ele>
        <time>2022-06-26T14:19:30Z</time>
      </trkpt>
      <trkpt lat="45.73192" lon="4.65846">
        <ele>362</ele>
        <time>2022-06-26T14:19:31Z</time>
      </trkpt>
      <trkpt lat="45.73188" lon="4.65853">
        <ele>362</ele>
        <time>2022-06-26T14:19:32Z</time>
      </trkpt>
      <trkpt lat="45.73184" lon="4.65859">
        <ele>362</ele>
        <time>2022-06-26T14:19:33Z</time>
      </trkpt>
      <trkpt lat="45.7318" lon="4.65865">
        <ele>362</ele>
        <time>2022-06-26T14:19:34Z</time>
      </trkpt>
      <trkpt lat="45.73177" lon="4.65871">
        <ele>362.4</ele>
        <time>2022-06-26T14:19:35Z</time>
      </trkpt>
      <trkpt lat="45.73173" lon="4.65877">
        <ele>362.4</ele>
        <time>2022-06-26T14:19:36Z</time>
      </trkpt>
      <trkpt lat="45.7317" lon="4.65884">
        <ele>362.4</ele>
        <time>2022-06-26T14:19:37Z</time>
      </trkpt>
      <trkpt lat="45.73167" lon="4.6589">
        <ele>362.6</ele>
        <time>2022-06-26T14:19:38Z</time>
      </trkpt>
      <trkpt lat="45.73164" lon="4.65896">
        <ele>362.6</ele>
        <time>2022-06-26T14:19:39Z</time>
      </trkpt>
      <trkpt lat="45.73162" lon="4.65903">
        <ele>362.8</ele>
        <time>2022-06-26T14:19:40Z</time>
      </trkpt>
      <trkpt lat="45.7316" lon="4.6591">
        <ele>362.8</ele>
        <time>2022-06-26T14:19:41Z</time>
      </trkpt>
      <trkpt lat="45.73158" lon="4.65917">
        <ele>362.8</ele>
        <time>2022-06-26T14:19:42Z</time>
      </trkpt>
      <trkpt lat="45.73156" lon="4.65924">
        <ele>363</ele>
        <time>2022-06-26T14:19:43Z</time>
      </trkpt>
      <trkpt lat="45.73155" lon="4.65932">
        <ele>363</ele>
        <time>2022-06-26T14:19:44Z</time>
      </trkpt>
      <trkpt lat="45.73154" lon="4.65939">
        <ele>363</ele>
        <time>2022-06-26T14:19:45Z</time>
      </trkpt>
      <trkpt lat="45.73153" lon="4.65947">
        <ele>363.4</ele>
        <time>2022-06-26T14:19:46Z</time>
      </trkpt>
      <trkpt lat="45.73151" lon="4.65954">
        <ele>363.4</ele>
        <time>2022-06-26T14:19:47Z</time>
      </trkpt>
      <trkpt lat="45.7315" lon="4.65962">
        <ele>363.4</ele>
        <time>2022-06-26T14:19:48Z</time>
      </trkpt>
      <trkpt lat="45.73149" lon="4.65969">
        <ele>363.6</ele>
        <time>2022-06-26T14:19:49Z</time>
      </trkpt>
      <trkpt lat="45.73148" lon="4.65977">
        <ele>363.6</ele>
        <time>2022-06-26T14:19:50Z</time>
      </trkpt>
      <trkpt lat="45.73147" lon="4.65984">
        <ele>363.6</ele>
        <time>2022-06-26T14:19:51Z</time>
      </trkpt>
      <trkpt lat="45.73147" lon="4.65992">
        <ele>363.8</ele>
        <time>2022-06-26T14:19:52Z</time>
      </trkpt>
      <trkpt lat="45.73147" lon="4.65999">
        <ele>363.8</ele>
        <time>2022-06-26T14:19:53Z</time>
      </trkpt>
      <trkpt lat="45.73146" lon="4.66006">
        <ele>363.8</ele>
        <time>2022-06-26T14:19:54Z</time>
      </trkpt>
      <trkpt lat="45.73146" lon="4.66014">
        <ele>364.2</ele>
        <time>2022-06-26T14:19:55Z</time>
      </trkpt>
      <trkpt lat="45.73145" lon="4.66021">
        <ele>364.2</ele>
        <time>2022-06-26T14:19:56Z</time>
      </trkpt>
      <trkpt lat="45.73145" lon="4.66029">
        <ele>364.2</ele>
        <time>2022-06-26T14:19:57Z</time>
      </trkpt>
      <trkpt lat="45.73143" lon="4.66037">
        <ele>364.4</ele>
        <time>2022-06-26T14:19:58Z</time>
      </trkpt>
      <trkpt lat="45.73141" lon="4.66044">
        <ele>364.4</ele>
        <time>2022-06-26T14:19:59Z</time>
      </trkpt>
      <trkpt lat="45.73139" lon="4.66051">
        <ele>364.6</ele>
        <time>2022-06-26T14:20:00Z</time>
      </trkpt>
      <trkpt lat="45.73136" lon="4.66057">
        <ele>364.6</ele>
        <time>2022-06-26T14:20:01Z</time>
      </trkpt>
      <trkpt lat="45.73133" lon="4.66063">
        <ele>365</ele>
        <time>2022-06-26T14:20:02Z</time>
      </trkpt>
      <trkpt lat="45.73129" lon="4.66069">
        <ele>365</ele>
        <time>2022-06-26T14:20:03Z</time>
      </trkpt>
      <trkpt lat="45.73125" lon="4.66073">
        <ele>365</ele>
        <time>2022-06-26T14:20:04Z</time>
      </trkpt>
      <trkpt lat="45.73122" lon="4.66078">
        <ele>365.2</ele>
        <time>2022-06-26T14:20:05Z</time>
      </trkpt>
      <trkpt lat="45.73118" lon="4.66083">
        <ele>365.2</ele>
        <time>2022-06-26T14:20:06Z</time>
      </trkpt>
      <trkpt lat="45.73115" lon="4.66088">
        <ele>365.4</ele>
        <time>2022-06-26T14:20:07Z</time>
      </trkpt>
      <trkpt lat="45.73111" lon="4.66093">
        <ele>365.4</ele>
        <time>2022-06-26T14:20:08Z</time>
      </trkpt>
      <trkpt lat="45.73108" lon="4.66098">
        <ele>365.6</ele>
        <time>2022-06-26T14:20:09Z</time>
      </trkpt>
      <trkpt lat="45.73104" lon="4.66104">
        <ele>365.6</ele>
        <time>2022-06-26T14:20:10Z</time>
      </trkpt>
      <trkpt lat="45.731" lon="4.66109">
        <ele>366</ele>
        <time>2022-06-26T14:20:11Z</time>
      </trkpt>
      <trkpt lat="45.73097" lon="4.66115">
        <ele>366</ele>
        <time>2022-06-26T14:20:12Z</time>
      </trkpt>
      <trkpt lat="45.73093" lon="4.66121">
        <ele>366.2</ele>
        <time>2022-06-26T14:20:13Z</time>
      </trkpt>
      <trkpt lat="45.73091" lon="4.66127">
        <ele>366.2</ele>
        <time>2022-06-26T14:20:14Z</time>
      </trkpt>
      <trkpt lat="45.73088" lon="4.66134">
        <ele>366.2</ele>
        <time>2022-06-26T14:20:15Z</time>
      </trkpt>
      <trkpt lat="45.73086" lon="4.66141">
        <ele>366.4</ele>
        <time>2022-06-26T14:20:16Z</time>
      </trkpt>
      <trkpt lat="45.73084" lon="4.66148">
        <ele>366.4</ele>
        <time>2022-06-26T14:20:17Z</time>
      </trkpt>
      <trkpt lat="45.73082" lon="4.66156">
        <ele>366.4</ele>
        <time>2022-06-26T14:20:18Z</time>
      </trkpt>
      <trkpt lat="45.7308" lon="4.66163">
        <ele>366.4</ele>
        <time>2022-06-26T14:20:19Z</time>
      </trkpt>
      <trkpt lat="45.73078" lon="4.66171">
        <ele>366.4</ele>
        <time>2022-06-26T14:20:20Z</time>
      </trkpt>
      <trkpt lat="45.73076" lon="4.66179">
        <ele>366.4</ele>
        <time>2022-06-26T14:20:21Z</time>
      </trkpt>
      <trkpt lat="45.73074" lon="4.66187">
        <ele>366.4</ele>
        <time>2022-06-26T14:20:22Z</time>
      </trkpt>
      <trkpt lat="45.73072" lon="4.66194">
        <ele>366.8</ele>
        <time>2022-06-26T14:20:23Z</time>
      </trkpt>
      <trkpt lat="45.7307" lon="4.66201">
        <ele>366.8</ele>
        <time>2022-06-26T14:20:24Z</time>
      </trkpt>
      <trkpt lat="45.73068" lon="4.66208">
        <ele>366.8</ele>
        <time>2022-06-26T14:20:25Z</time>
      </trkpt>
      <trkpt lat="45.73066" lon="4.66215">
        <ele>367</ele>
        <time>2022-06-26T14:20:26Z</time>
      </trkpt>
      <trkpt lat="45.73063" lon="4.66222">
        <ele>367.2</ele>
        <time>2022-06-26T14:20:27Z</time>
      </trkpt>
      <trkpt lat="45.73061" lon="4.66228">
        <ele>367.2</ele>
        <time>2022-06-26T14:20:28Z</time>
      </trkpt>
      <trkpt lat="45.73059" lon="4.66235">
        <ele>367.2</ele>
        <time>2022-06-26T14:20:29Z</time>
      </trkpt>
      <trkpt lat="45.73057" lon="4.66241">
        <ele>367.6</ele>
        <time>2022-06-26T14:20:30Z</time>
      </trkpt>
      <trkpt lat="45.73054" lon="4.66247">
        <ele>367.6</ele>
        <time>2022-06-26T14:20:31Z</time>
      </trkpt>
      <trkpt lat="45.73051" lon="4.66253">
        <ele>367.6</ele>
        <time>2022-06-26T14:20:32Z</time>
      </trkpt>
      <trkpt lat="45.73048" lon="4.66259">
        <ele>367.8</ele>
        <time>2022-06-26T14:20:33Z</time>
      </trkpt>
      <trkpt lat="45.73045" lon="4.66265">
        <ele>367.8</ele>
        <time>2022-06-26T14:20:34Z</time>
      </trkpt>
      <trkpt lat="45.73042" lon="4.6627">
        <ele>367.8</ele>
        <time>2022-06-26T14:20:35Z</time>
      </trkpt>
      <trkpt lat="45.73039" lon="4.66276">
        <ele>367.8</ele>
        <time>2022-06-26T14:20:36Z</time>
      </trkpt>
      <trkpt lat="45.73035" lon="4.66281">
        <ele>368</ele>
        <time>2022-06-26T14:20:37Z</time>
      </trkpt>
      <trkpt lat="45.73032" lon="4.66286">
        <ele>368</ele>
        <time>2022-06-26T14:20:38Z</time>
      </trkpt>
      <trkpt lat="45.73029" lon="4.66291">
        <ele>368.2</ele>
        <time>2022-06-26T14:20:39Z</time>
      </trkpt>
      <trkpt lat="45.73026" lon="4.66296">
        <ele>368.6</ele>
        <time>2022-06-26T14:20:40Z</time>
      </trkpt>
      <trkpt lat="45.73023" lon="4.66301">
        <ele>368.6</ele>
        <time>2022-06-26T14:20:41Z</time>
      </trkpt>
      <trkpt lat="45.7302" lon="4.66307">
        <ele>368.8</ele>
        <time>2022-06-26T14:20:42Z</time>
      </trkpt>
      <trkpt lat="45.73018" lon="4.66313">
        <ele>368.8</ele>
        <time>2022-06-26T14:20:43Z</time>
      </trkpt>
      <trkpt lat="45.73016" lon="4.66319">
        <ele>369</ele>
        <time>2022-06-26T14:20:44Z</time>
      </trkpt>
      <trkpt lat="45.73014" lon="4.66325">
        <ele>369</ele>
        <time>2022-06-26T14:20:45Z</time>
      </trkpt>
      <trkpt lat="45.73012" lon="4.66331">
        <ele>369</ele>
        <time>2022-06-26T14:20:46Z</time>
      </trkpt>
      <trkpt lat="45.73011" lon="4.66338">
        <ele>369.2</ele>
        <time>2022-06-26T14:20:47Z</time>
      </trkpt>
      <trkpt lat="45.73009" lon="4.66345">
        <ele>369.2</ele>
        <time>2022-06-26T14:20:48Z</time>
      </trkpt>
      <trkpt lat="45.73008" lon="4.66352">
        <ele>369.2</ele>
        <time>2022-06-26T14:20:49Z</time>
      </trkpt>
      <trkpt lat="45.73008" lon="4.66359">
        <ele>369.6</ele>
        <time>2022-06-26T14:20:50Z</time>
      </trkpt>
      <trkpt lat="45.73008" lon="4.66366">
        <ele>369.6</ele>
        <time>2022-06-26T14:20:51Z</time>
      </trkpt>
      <trkpt lat="45.73008" lon="4.66373">
        <ele>369.6</ele>
        <time>2022-06-26T14:20:52Z</time>
      </trkpt>
      <trkpt lat="45.73008" lon="4.66381">
        <ele>369.6</ele>
        <time>2022-06-26T14:20:53Z</time>
      </trkpt>
      <trkpt lat="45.73009" lon="4.66388">
        <ele>369.6</ele>
        <time>2022-06-26T14:20:54Z</time>
      </trkpt>
      <trkpt lat="45.7301" lon="4.66396">
        <ele>369.6</ele>
        <time>2022-06-26T14:20:55Z</time>
      </trkpt>
      <trkpt lat="45.73011" lon="4.66403">
        <ele>369.6</ele>
        <time>2022-06-26T14:20:56Z</time>
      </trkpt>
      <trkpt lat="45.73012" lon="4.66411">
        <ele>369.8</ele>
        <time>2022-06-26T14:20:57Z</time>
      </trkpt>
      <trkpt lat="45.73013" lon="4.66419">
        <ele>369.8</ele>
        <time>2022-06-26T14:20:58Z</time>
      </trkpt>
      <trkpt lat="45.73014" lon="4.66427">
        <ele>369.8</ele>
        <time>2022-06-26T14:20:59Z</time>
      </trkpt>
      <trkpt lat="45.73015" lon="4.66435">
        <ele>369.8</ele>
        <time>2022-06-26T14:21:00Z</time>
      </trkpt>
      <trkpt lat="45.73016" lon="4.66443">
        <ele>369.8</ele>
        <time>2022-06-26T14:21:01Z</time>
      </trkpt>
      <trkpt lat="45.73017" lon="4.66451">
        <ele>369.8</ele>
        <time>2022-06-26T14:21:02Z</time>
      </trkpt>
      <trkpt lat="45.73018" lon="4.66459">
        <ele>369.8</ele>
        <time>2022-06-26T14:21:03Z</time>
      </trkpt>
      <trkpt lat="45.7302" lon="4.66468">
        <ele>369.6</ele>
        <time>2022-06-26T14:21:04Z</time>
      </trkpt>
      <trkpt lat="45.73021" lon="4.66476">
        <ele>369.6</ele>
        <time>2022-06-26T14:21:05Z</time>
      </trkpt>
      <trkpt lat="45.73022" lon="4.66484">
        <ele>369.6</ele>
        <time>2022-06-26T14:21:06Z</time>
      </trkpt>
      <trkpt lat="45.73023" lon="4.66492">
        <ele>369.6</ele>
        <time>2022-06-26T14:21:07Z</time>
      </trkpt>
      <trkpt lat="45.73024" lon="4.66501">
        <ele>369.6</ele>
        <time>2022-06-26T14:21:08Z</time>
      </trkpt>
      <trkpt lat="45.73025" lon="4.66509">
        <ele>369.6</ele>
        <time>2022-06-26T14:21:09Z</time>
      </trkpt>
      <trkpt lat="45.73026" lon="4.66518">
        <ele>369.6</ele>
        <time>2022-06-26T14:21:10Z</time>
      </trkpt>
      <trkpt lat="45.73027" lon="4.66526">
        <ele>369.8</ele>
        <time>2022-06-26T14:21:11Z</time>
      </trkpt>
      <trkpt lat="45.73028" lon="4.66534">
        <ele>369.8</ele>
        <time>2022-06-26T14:21:12Z</time>
      </trkpt>
      <trkpt lat="45.73029" lon="4.66543">
        <ele>369.8</ele>
        <time>2022-06-26T14:21:13Z</time>
      </trkpt>
      <trkpt lat="45.7303" lon="4.66551">
        <ele>370</ele>
        <time>2022-06-26T14:21:14Z</time>
      </trkpt>
      <trkpt lat="45.73031" lon="4.66559">
        <ele>370</ele>
        <time>2022-06-26T14:21:15Z</time>
      </trkpt>
      <trkpt lat="45.73032" lon="4.66566">
        <ele>370</ele>
        <time>2022-06-26T14:21:16Z</time>
      </trkpt>
      <trkpt lat="45.73033" lon="4.66574">
        <ele>370</ele>
        <time>2022-06-26T14:21:17Z</time>
      </trkpt>
      <trkpt lat="45.73033" lon="4.66582">
        <ele>370.2</ele>
        <time>2022-06-26T14:21:18Z</time>
      </trkpt>
      <trkpt lat="45.73034" lon="4.66589">
        <ele>370.4</ele>
        <time>2022-06-26T14:21:19Z</time>
      </trkpt>
      <trkpt lat="45.73035" lon="4.66596">
        <ele>370.4</ele>
        <time>2022-06-26T14:21:20Z</time>
      </trkpt>
      <trkpt lat="45.73036" lon="4.66604">
        <ele>370.4</ele>
        <time>2022-06-26T14:21:21Z</time>
      </trkpt>
      <trkpt lat="45.73037" lon="4.66611">
        <ele>370.4</ele>
        <time>2022-06-26T14:21:22Z</time>
      </trkpt>
      <trkpt lat="45.73038" lon="4.66619">
        <ele>370.4</ele>
        <time>2022-06-26T14:21:23Z</time>
      </trkpt>
      <trkpt lat="45.73039" lon="4.66626">
        <ele>370.4</ele>
        <time>2022-06-26T14:21:24Z</time>
      </trkpt>
      <trkpt lat="45.7304" lon="4.66634">
        <ele>370.4</ele>
        <time>2022-06-26T14:21:25Z</time>
      </trkpt>
      <trkpt lat="45.73042" lon="4.66642">
        <ele>370.4</ele>
        <time>2022-06-26T14:21:26Z</time>
      </trkpt>
      <trkpt lat="45.73044" lon="4.66649">
        <ele>370.8</ele>
        <time>2022-06-26T14:21:27Z</time>
      </trkpt>
      <trkpt lat="45.73046" lon="4.66657">
        <ele>370.8</ele>
        <time>2022-06-26T14:21:28Z</time>
      </trkpt>
      <trkpt lat="45.73048" lon="4.66664">
        <ele>370.8</ele>
        <time>2022-06-26T14:21:29Z</time>
      </trkpt>
      <trkpt lat="45.73051" lon="4.66671">
        <ele>370.8</ele>
        <time>2022-06-26T14:21:30Z</time>
      </trkpt>
      <trkpt lat="45.73054" lon="4.66678">
        <ele>370.4</ele>
        <time>2022-06-26T14:21:31Z</time>
      </trkpt>
      <trkpt lat="45.73058" lon="4.66686">
        <ele>370.4</ele>
        <time>2022-06-26T14:21:32Z</time>
      </trkpt>
      <trkpt lat="45.73061" lon="4.66693">
        <ele>370.2</ele>
        <time>2022-06-26T14:21:33Z</time>
      </trkpt>
      <trkpt lat="45.73065" lon="4.66701">
        <ele>370.2</ele>
        <time>2022-06-26T14:21:34Z</time>
      </trkpt>
      <trkpt lat="45.73068" lon="4.66709">
        <ele>370</ele>
        <time>2022-06-26T14:21:35Z</time>
      </trkpt>
      <trkpt lat="45.73072" lon="4.66717">
        <ele>369.8</ele>
        <time>2022-06-26T14:21:36Z</time>
      </trkpt>
      <trkpt lat="45.73076" lon="4.66725">
        <ele>369.8</ele>
        <time>2022-06-26T14:21:37Z</time>
      </trkpt>
      <trkpt lat="45.7308" lon="4.66733">
        <ele>369.6</ele>
        <time>2022-06-26T14:21:38Z</time>
      </trkpt>
      <trkpt lat="45.73084" lon="4.66742">
        <ele>369.6</ele>
        <time>2022-06-26T14:21:39Z</time>
      </trkpt>
      <trkpt lat="45.73089" lon="4.66751">
        <ele>369.2</ele>
        <time>2022-06-26T14:21:40Z</time>
      </trkpt>
      <trkpt lat="45.73093" lon="4.6676">
        <ele>369.2</ele>
        <time>2022-06-26T14:21:41Z</time>
      </trkpt>
      <trkpt lat="45.73098" lon="4.66769">
        <ele>368.8</ele>
        <time>2022-06-26T14:21:42Z</time>
      </trkpt>
      <trkpt lat="45.73103" lon="4.66778">
        <ele>368.8</ele>
        <time>2022-06-26T14:21:43Z</time>
      </trkpt>
      <trkpt lat="45.73107" lon="4.66787">
        <ele>368.6</ele>
        <time>2022-06-26T14:21:44Z</time>
      </trkpt>
      <trkpt lat="45.73112" lon="4.66796">
        <ele>368.4</ele>
        <time>2022-06-26T14:21:45Z</time>
      </trkpt>
      <trkpt lat="45.73117" lon="4.66805">
        <ele>368.4</ele>
        <time>2022-06-26T14:21:46Z</time>
      </trkpt>
      <trkpt lat="45.73122" lon="4.66814">
        <ele>368</ele>
        <time>2022-06-26T14:21:47Z</time>
      </trkpt>
      <trkpt lat="45.73127" lon="4.66824">
        <ele>368</ele>
        <time>2022-06-26T14:21:48Z</time>
      </trkpt>
      <trkpt lat="45.73131" lon="4.66833">
        <ele>368</ele>
        <time>2022-06-26T14:21:49Z</time>
      </trkpt>
      <trkpt lat="45.73136" lon="4.66842">
        <ele>368</ele>
        <time>2022-06-26T14:21:50Z</time>
      </trkpt>
      <trkpt lat="45.7314" lon="4.66851">
        <ele>368</ele>
        <time>2022-06-26T14:21:51Z</time>
      </trkpt>
      <trkpt lat="45.73144" lon="4.6686">
        <ele>368</ele>
        <time>2022-06-26T14:21:52Z</time>
      </trkpt>
      <trkpt lat="45.73149" lon="4.66869">
        <ele>368</ele>
        <time>2022-06-26T14:21:53Z</time>
      </trkpt>
      <trkpt lat="45.73153" lon="4.66878">
        <ele>368</ele>
        <time>2022-06-26T14:21:54Z</time>
      </trkpt>
      <trkpt lat="45.73157" lon="4.66886">
        <ele>368</ele>
        <time>2022-06-26T14:21:55Z</time>
      </trkpt>
      <trkpt lat="45.73161" lon="4.66894">
        <ele>368</ele>
        <time>2022-06-26T14:21:56Z</time>
      </trkpt>
      <trkpt lat="45.73165" lon="4.66902">
        <ele>368</ele>
        <time>2022-06-26T14:21:57Z</time>
      </trkpt>
      <trkpt lat="45.73168" lon="4.66909">
        <ele>368</ele>
        <time>2022-06-26T14:21:58Z</time>
      </trkpt>
      <trkpt lat="45.73172" lon="4.66917">
        <ele>368</ele>
        <time>2022-06-26T14:21:59Z</time>
      </trkpt>
      <trkpt lat="45.73175" lon="4.66924">
        <ele>368.2</ele>
        <time>2022-06-26T14:22:00Z</time>
      </trkpt>
      <trkpt lat="45.73179" lon="4.66931">
        <ele>368.2</ele>
        <time>2022-06-26T14:22:01Z</time>
      </trkpt>
      <trkpt lat="45.73182" lon="4.66937">
        <ele>368.6</ele>
        <time>2022-06-26T14:22:02Z</time>
      </trkpt>
      <trkpt lat="45.73185" lon="4.66944">
        <ele>368.6</ele>
        <time>2022-06-26T14:22:03Z</time>
      </trkpt>
      <trkpt lat="45.73188" lon="4.66951">
        <ele>368.6</ele>
        <time>2022-06-26T14:22:04Z</time>
      </trkpt>
      <trkpt lat="45.73191" lon="4.66958">
        <ele>368.6</ele>
        <time>2022-06-26T14:22:05Z</time>
      </trkpt>
      <trkpt lat="45.73195" lon="4.66966">
        <ele>368.6</ele>
        <time>2022-06-26T14:22:06Z</time>
      </trkpt>
      <trkpt lat="45.73198" lon="4.66973">
        <ele>368.6</ele>
        <time>2022-06-26T14:22:07Z</time>
      </trkpt>
      <trkpt lat="45.73202" lon="4.66981">
        <ele>368.8</ele>
        <time>2022-06-26T14:22:08Z</time>
      </trkpt>
      <trkpt lat="45.73206" lon="4.66989">
        <ele>368.8</ele>
        <time>2022-06-26T14:22:09Z</time>
      </trkpt>
      <trkpt lat="45.73209" lon="4.66997">
        <ele>368.8</ele>
        <time>2022-06-26T14:22:10Z</time>
      </trkpt>
      <trkpt lat="45.73213" lon="4.67005">
        <ele>368.8</ele>
        <time>2022-06-26T14:22:11Z</time>
      </trkpt>
      <trkpt lat="45.73217" lon="4.67013">
        <ele>368.8</ele>
        <time>2022-06-26T14:22:12Z</time>
      </trkpt>
      <trkpt lat="45.73221" lon="4.67021">
        <ele>368.4</ele>
        <time>2022-06-26T14:22:13Z</time>
      </trkpt>
      <trkpt lat="45.73225" lon="4.67029">
        <ele>368.4</ele>
        <time>2022-06-26T14:22:14Z</time>
      </trkpt>
      <trkpt lat="45.73229" lon="4.67038">
        <ele>368.2</ele>
        <time>2022-06-26T14:22:15Z</time>
      </trkpt>
      <trkpt lat="45.73233" lon="4.67046">
        <ele>368.2</ele>
        <time>2022-06-26T14:22:16Z</time>
      </trkpt>
      <trkpt lat="45.73237" lon="4.67055">
        <ele>367.8</ele>
        <time>2022-06-26T14:22:17Z</time>
      </trkpt>
      <trkpt lat="45.7324" lon="4.67063">
        <ele>367.8</ele>
        <time>2022-06-26T14:22:18Z</time>
      </trkpt>
      <trkpt lat="45.73244" lon="4.67072">
        <ele>367.8</ele>
        <time>2022-06-26T14:22:19Z</time>
      </trkpt>
      <trkpt lat="45.73247" lon="4.67081">
        <ele>367.8</ele>
        <time>2022-06-26T14:22:20Z</time>
      </trkpt>
      <trkpt lat="45.73251" lon="4.67089">
        <ele>367.6</ele>
        <time>2022-06-26T14:22:21Z</time>
      </trkpt>
      <trkpt lat="45.73254" lon="4.67098">
        <ele>367.6</ele>
        <time>2022-06-26T14:22:22Z</time>
      </trkpt>
      <trkpt lat="45.73258" lon="4.67106">
        <ele>367.6</ele>
        <time>2022-06-26T14:22:23Z</time>
      </trkpt>
      <trkpt lat="45.73261" lon="4.67115">
        <ele>367.6</ele>
        <time>2022-06-26T14:22:24Z</time>
      </trkpt>
      <trkpt lat="45.73263" lon="4.67123">
        <ele>367.6</ele>
        <time>2022-06-26T14:22:25Z</time>
      </trkpt>
      <trkpt lat="45.73266" lon="4.67132">
        <ele>367.6</ele>
        <time>2022-06-26T14:22:26Z</time>
      </trkpt>
      <trkpt lat="45.73269" lon="4.6714">
        <ele>367.6</ele>
        <time>2022-06-26T14:22:27Z</time>
      </trkpt>
      <trkpt lat="45.7327" lon="4.67149">
        <ele>367.6</ele>
        <time>2022-06-26T14:22:28Z</time>
      </trkpt>
      <trkpt lat="45.73272" lon="4.67158">
        <ele>367.6</ele>
        <time>2022-06-26T14:22:29Z</time>
      </trkpt>
      <trkpt lat="45.73273" lon="4.67167">
        <ele>367.6</ele>
        <time>2022-06-26T14:22:30Z</time>
      </trkpt>
      <trkpt lat="45.73273" lon="4.67176">
        <ele>367.6</ele>
        <time>2022-06-26T14:22:31Z</time>
      </trkpt>
      <trkpt lat="45.73273" lon="4.67184">
        <ele>367.6</ele>
        <time>2022-06-26T14:22:32Z</time>
      </trkpt>
      <trkpt lat="45.73273" lon="4.67193">
        <ele>367.6</ele>
        <time>2022-06-26T14:22:33Z</time>
      </trkpt>
      <trkpt lat="45.73273" lon="4.67201">
        <ele>368</ele>
        <time>2022-06-26T14:22:34Z</time>
      </trkpt>
      <trkpt lat="45.73273" lon="4.6721">
        <ele>368</ele>
        <time>2022-06-26T14:22:35Z</time>
      </trkpt>
      <trkpt lat="45.73272" lon="4.67218">
        <ele>368</ele>
        <time>2022-06-26T14:22:36Z</time>
      </trkpt>
      <trkpt lat="45.73272" lon="4.67227">
        <ele>368.4</ele>
        <time>2022-06-26T14:22:37Z</time>
      </trkpt>
      <trkpt lat="45.73272" lon="4.67235">
        <ele>368.4</ele>
        <time>2022-06-26T14:22:39Z</time>
      </trkpt>
      <trkpt lat="45.73271" lon="4.67243">
        <ele>368.8</ele>
        <time>2022-06-26T14:22:40Z</time>
      </trkpt>
      <trkpt lat="45.73271" lon="4.67251">
        <ele>368.8</ele>
        <time>2022-06-26T14:22:41Z</time>
      </trkpt>
      <trkpt lat="45.7327" lon="4.67259">
        <ele>369</ele>
        <time>2022-06-26T14:22:42Z</time>
      </trkpt>
      <trkpt lat="45.7327" lon="4.67267">
        <ele>369</ele>
        <time>2022-06-26T14:22:43Z</time>
      </trkpt>
      <trkpt lat="45.7327" lon="4.67275">
        <ele>369</ele>
        <time>2022-06-26T14:22:44Z</time>
      </trkpt>
      <trkpt lat="45.7327" lon="4.67284">
        <ele>369.2</ele>
        <time>2022-06-26T14:22:45Z</time>
      </trkpt>
      <trkpt lat="45.7327" lon="4.67292">
        <ele>369.2</ele>
        <time>2022-06-26T14:22:46Z</time>
      </trkpt>
      <trkpt lat="45.73269" lon="4.673">
        <ele>369.6</ele>
        <time>2022-06-26T14:22:47Z</time>
      </trkpt>
      <trkpt lat="45.73269" lon="4.67308">
        <ele>369.6</ele>
        <time>2022-06-26T14:22:48Z</time>
      </trkpt>
      <trkpt lat="45.73268" lon="4.67317">
        <ele>369.8</ele>
        <time>2022-06-26T14:22:49Z</time>
      </trkpt>
      <trkpt lat="45.73268" lon="4.67325">
        <ele>369.8</ele>
        <time>2022-06-26T14:22:50Z</time>
      </trkpt>
      <trkpt lat="45.73268" lon="4.67333">
        <ele>369.8</ele>
        <time>2022-06-26T14:22:51Z</time>
      </trkpt>
      <trkpt lat="45.73268" lon="4.6734">
        <ele>370</ele>
        <time>2022-06-26T14:22:52Z</time>
      </trkpt>
      <trkpt lat="45.73268" lon="4.67348">
        <ele>370</ele>
        <time>2022-06-26T14:22:53Z</time>
      </trkpt>
      <trkpt lat="45.73267" lon="4.67356">
        <ele>370.2</ele>
        <time>2022-06-26T14:22:54Z</time>
      </trkpt>
      <trkpt lat="45.73267" lon="4.67365">
        <ele>370.4</ele>
        <time>2022-06-26T14:22:55Z</time>
      </trkpt>
      <trkpt lat="45.73266" lon="4.67372">
        <ele>370.4</ele>
        <time>2022-06-26T14:22:56Z</time>
      </trkpt>
      <trkpt lat="45.73266" lon="4.6738">
        <ele>370.8</ele>
        <time>2022-06-26T14:22:57Z</time>
      </trkpt>
      <trkpt lat="45.73265" lon="4.67389">
        <ele>370.8</ele>
        <time>2022-06-26T14:22:58Z</time>
      </trkpt>
      <trkpt lat="45.73265" lon="4.67397">
        <ele>370.8</ele>
        <time>2022-06-26T14:22:59Z</time>
      </trkpt>
      <trkpt lat="45.73264" lon="4.67405">
        <ele>370.8</ele>
        <time>2022-06-26T14:23:00Z</time>
      </trkpt>
      <trkpt lat="45.73264" lon="4.67413">
        <ele>370.8</ele>
        <time>2022-06-26T14:23:01Z</time>
      </trkpt>
      <trkpt lat="45.73264" lon="4.67421">
        <ele>371</ele>
        <time>2022-06-26T14:23:02Z</time>
      </trkpt>
      <trkpt lat="45.73264" lon="4.67428">
        <ele>371</ele>
        <time>2022-06-26T14:23:03Z</time>
      </trkpt>
      <trkpt lat="45.73264" lon="4.67436">
        <ele>371</ele>
        <time>2022-06-26T14:23:04Z</time>
      </trkpt>
      <trkpt lat="45.73265" lon="4.67444">
        <ele>371</ele>
        <time>2022-06-26T14:23:05Z</time>
      </trkpt>
      <trkpt lat="45.73266" lon="4.67452">
        <ele>371.2</ele>
        <time>2022-06-26T14:23:06Z</time>
      </trkpt>
      <trkpt lat="45.73267" lon="4.67459">
        <ele>371.2</ele>
        <time>2022-06-26T14:23:07Z</time>
      </trkpt>
      <trkpt lat="45.73269" lon="4.67467">
        <ele>371.2</ele>
        <time>2022-06-26T14:23:08Z</time>
      </trkpt>
      <trkpt lat="45.7327" lon="4.67475">
        <ele>371.2</ele>
        <time>2022-06-26T14:23:09Z</time>
      </trkpt>
      <trkpt lat="45.73272" lon="4.67483">
        <ele>371.2</ele>
        <time>2022-06-26T14:23:10Z</time>
      </trkpt>
      <trkpt lat="45.73275" lon="4.67491">
        <ele>371.2</ele>
        <time>2022-06-26T14:23:11Z</time>
      </trkpt>
      <trkpt lat="45.73278" lon="4.675">
        <ele>371.2</ele>
        <time>2022-06-26T14:23:12Z</time>
      </trkpt>
      <trkpt lat="45.73281" lon="4.67508">
        <ele>371</ele>
        <time>2022-06-26T14:23:13Z</time>
      </trkpt>
      <trkpt lat="45.73284" lon="4.67516">
        <ele>371</ele>
        <time>2022-06-26T14:23:14Z</time>
      </trkpt>
      <trkpt lat="45.73288" lon="4.67524">
        <ele>370.8</ele>
        <time>2022-06-26T14:23:15Z</time>
      </trkpt>
      <trkpt lat="45.73292" lon="4.67533">
        <ele>370.4</ele>
        <time>2022-06-26T14:23:16Z</time>
      </trkpt>
      <trkpt lat="45.73296" lon="4.67541">
        <ele>370.2</ele>
        <time>2022-06-26T14:23:17Z</time>
      </trkpt>
      <trkpt lat="45.733" lon="4.6755">
        <ele>370</ele>
        <time>2022-06-26T14:23:18Z</time>
      </trkpt>
      <trkpt lat="45.73304" lon="4.67559">
        <ele>369.8</ele>
        <time>2022-06-26T14:23:19Z</time>
      </trkpt>
      <trkpt lat="45.73313" lon="4.67578">
        <ele>369.8</ele>
        <time>2022-06-26T14:23:20Z</time>
      </trkpt>
      <trkpt lat="45.73317" lon="4.67587">
        <ele>369.4</ele>
        <time>2022-06-26T14:23:21Z</time>
      </trkpt>
      <trkpt lat="45.73321" lon="4.67597">
        <ele>369</ele>
        <time>2022-06-26T14:23:22Z</time>
      </trkpt>
      <trkpt lat="45.73326" lon="4.67607">
        <ele>368.8</ele>
        <time>2022-06-26T14:23:23Z</time>
      </trkpt>
      <trkpt lat="45.73331" lon="4.67617">
        <ele>368.4</ele>
        <time>2022-06-26T14:23:24Z</time>
      </trkpt>
      <trkpt lat="45.73336" lon="4.67628">
        <ele>368</ele>
        <time>2022-06-26T14:23:25Z</time>
      </trkpt>
      <trkpt lat="45.73341" lon="4.6764">
        <ele>367.6</ele>
        <time>2022-06-26T14:23:26Z</time>
      </trkpt>
      <trkpt lat="45.73346" lon="4.67652">
        <ele>367.2</ele>
        <time>2022-06-26T14:23:27Z</time>
      </trkpt>
      <trkpt lat="45.73351" lon="4.67664">
        <ele>366.6</ele>
        <time>2022-06-26T14:23:28Z</time>
      </trkpt>
      <trkpt lat="45.73356" lon="4.67675">
        <ele>366</ele>
        <time>2022-06-26T14:23:29Z</time>
      </trkpt>
      <trkpt lat="45.73363" lon="4.67688">
        <ele>365.4</ele>
        <time>2022-06-26T14:23:30Z</time>
      </trkpt>
      <trkpt lat="45.73369" lon="4.67701">
        <ele>364.8</ele>
        <time>2022-06-26T14:23:31Z</time>
      </trkpt>
      <trkpt lat="45.73375" lon="4.67713">
        <ele>364.4</ele>
        <time>2022-06-26T14:23:32Z</time>
      </trkpt>
      <trkpt lat="45.73381" lon="4.67727">
        <ele>363.8</ele>
        <time>2022-06-26T14:23:33Z</time>
      </trkpt>
      <trkpt lat="45.73387" lon="4.67741">
        <ele>363.2</ele>
        <time>2022-06-26T14:23:34Z</time>
      </trkpt>
      <trkpt lat="45.73394" lon="4.67755">
        <ele>362.4</ele>
        <time>2022-06-26T14:23:35Z</time>
      </trkpt>
      <trkpt lat="45.734" lon="4.67767">
        <ele>361.8</ele>
        <time>2022-06-26T14:23:36Z</time>
      </trkpt>
      <trkpt lat="45.73406" lon="4.6778">
        <ele>361.2</ele>
        <time>2022-06-26T14:23:37Z</time>
      </trkpt>
      <trkpt lat="45.73412" lon="4.67794">
        <ele>360.6</ele>
        <time>2022-06-26T14:23:38Z</time>
      </trkpt>
      <trkpt lat="45.73419" lon="4.67808">
        <ele>360</ele>
        <time>2022-06-26T14:23:39Z</time>
      </trkpt>
      <trkpt lat="45.73427" lon="4.67822">
        <ele>359.2</ele>
        <time>2022-06-26T14:23:40Z</time>
      </trkpt>
      <trkpt lat="45.73434" lon="4.67836">
        <ele>358.4</ele>
        <time>2022-06-26T14:23:41Z</time>
      </trkpt>
      <trkpt lat="45.7344" lon="4.67848">
        <ele>357.8</ele>
        <time>2022-06-26T14:23:42Z</time>
      </trkpt>
      <trkpt lat="45.73447" lon="4.67863">
        <ele>357.4</ele>
        <time>2022-06-26T14:23:43Z</time>
      </trkpt>
      <trkpt lat="45.73453" lon="4.67878">
        <ele>356.8</ele>
        <time>2022-06-26T14:23:44Z</time>
      </trkpt>
      <trkpt lat="45.7346" lon="4.67892">
        <ele>356.4</ele>
        <time>2022-06-26T14:23:45Z</time>
      </trkpt>
      <trkpt lat="45.73465" lon="4.67905">
        <ele>355.8</ele>
        <time>2022-06-26T14:23:46Z</time>
      </trkpt>
      <trkpt lat="45.73471" lon="4.67917">
        <ele>355.2</ele>
        <time>2022-06-26T14:23:47Z</time>
      </trkpt>
      <trkpt lat="45.73476" lon="4.67929">
        <ele>354.8</ele>
        <time>2022-06-26T14:23:48Z</time>
      </trkpt>
      <trkpt lat="45.73482" lon="4.67942">
        <ele>354.6</ele>
        <time>2022-06-26T14:23:49Z</time>
      </trkpt>
      <trkpt lat="45.73487" lon="4.67955">
        <ele>354.4</ele>
        <time>2022-06-26T14:23:50Z</time>
      </trkpt>
      <trkpt lat="45.73492" lon="4.67967">
        <ele>354</ele>
        <time>2022-06-26T14:23:51Z</time>
      </trkpt>
      <trkpt lat="45.73497" lon="4.67977">
        <ele>353.8</ele>
        <time>2022-06-26T14:23:52Z</time>
      </trkpt>
      <trkpt lat="45.73501" lon="4.67988">
        <ele>353.8</ele>
        <time>2022-06-26T14:23:53Z</time>
      </trkpt>
      <trkpt lat="45.73506" lon="4.67999">
        <ele>353.6</ele>
        <time>2022-06-26T14:23:54Z</time>
      </trkpt>
      <trkpt lat="45.7351" lon="4.68009">
        <ele>353.6</ele>
        <time>2022-06-26T14:23:55Z</time>
      </trkpt>
      <trkpt lat="45.73514" lon="4.68019">
        <ele>353.6</ele>
        <time>2022-06-26T14:23:56Z</time>
      </trkpt>
      <trkpt lat="45.73519" lon="4.68029">
        <ele>353.6</ele>
        <time>2022-06-26T14:23:57Z</time>
      </trkpt>
      <trkpt lat="45.73524" lon="4.68038">
        <ele>353.6</ele>
        <time>2022-06-26T14:23:58Z</time>
      </trkpt>
      <trkpt lat="45.73528" lon="4.68046">
        <ele>353.6</ele>
        <time>2022-06-26T14:23:59Z</time>
      </trkpt>
      <trkpt lat="45.73532" lon="4.68054">
        <ele>353.6</ele>
        <time>2022-06-26T14:24:00Z</time>
      </trkpt>
      <trkpt lat="45.73536" lon="4.68063">
        <ele>353.8</ele>
        <time>2022-06-26T14:24:01Z</time>
      </trkpt>
      <trkpt lat="45.7354" lon="4.68071">
        <ele>353.8</ele>
        <time>2022-06-26T14:24:02Z</time>
      </trkpt>
      <trkpt lat="45.73545" lon="4.68079">
        <ele>353.8</ele>
        <time>2022-06-26T14:24:03Z</time>
      </trkpt>
      <trkpt lat="45.73549" lon="4.68087">
        <ele>353.8</ele>
        <time>2022-06-26T14:24:04Z</time>
      </trkpt>
      <trkpt lat="45.73552" lon="4.68095">
        <ele>353.8</ele>
        <time>2022-06-26T14:24:05Z</time>
      </trkpt>
      <trkpt lat="45.73556" lon="4.68103">
        <ele>353.8</ele>
        <time>2022-06-26T14:24:06Z</time>
      </trkpt>
      <trkpt lat="45.7356" lon="4.68111">
        <ele>353.8</ele>
        <time>2022-06-26T14:24:07Z</time>
      </trkpt>
      <trkpt lat="45.73563" lon="4.68118">
        <ele>353.8</ele>
        <time>2022-06-26T14:24:08Z</time>
      </trkpt>
      <trkpt lat="45.73567" lon="4.68126">
        <ele>353.8</ele>
        <time>2022-06-26T14:24:09Z</time>
      </trkpt>
      <trkpt lat="45.7357" lon="4.68133">
        <ele>353.6</ele>
        <time>2022-06-26T14:24:10Z</time>
      </trkpt>
      <trkpt lat="45.73574" lon="4.68141">
        <ele>353.6</ele>
        <time>2022-06-26T14:24:11Z</time>
      </trkpt>
      <trkpt lat="45.73578" lon="4.68149">
        <ele>353.6</ele>
        <time>2022-06-26T14:24:12Z</time>
      </trkpt>
      <trkpt lat="45.73582" lon="4.68156">
        <ele>353.6</ele>
        <time>2022-06-26T14:24:13Z</time>
      </trkpt>
      <trkpt lat="45.73586" lon="4.68164">
        <ele>353.6</ele>
        <time>2022-06-26T14:24:14Z</time>
      </trkpt>
      <trkpt lat="45.7359" lon="4.68173">
        <ele>353.6</ele>
        <time>2022-06-26T14:24:15Z</time>
      </trkpt>
      <trkpt lat="45.73594" lon="4.68181">
        <ele>353.6</ele>
        <time>2022-06-26T14:24:16Z</time>
      </trkpt>
      <trkpt lat="45.73598" lon="4.68189">
        <ele>353.2</ele>
        <time>2022-06-26T14:24:17Z</time>
      </trkpt>
      <trkpt lat="45.73602" lon="4.68198">
        <ele>353.2</ele>
        <time>2022-06-26T14:24:18Z</time>
      </trkpt>
      <trkpt lat="45.73606" lon="4.68206">
        <ele>352.8</ele>
        <time>2022-06-26T14:24:19Z</time>
      </trkpt>
      <trkpt lat="45.7361" lon="4.68214">
        <ele>352.8</ele>
        <time>2022-06-26T14:24:20Z</time>
      </trkpt>
      <trkpt lat="45.73614" lon="4.68223">
        <ele>352.6</ele>
        <time>2022-06-26T14:24:21Z</time>
      </trkpt>
      <trkpt lat="45.73617" lon="4.68232">
        <ele>352.6</ele>
        <time>2022-06-26T14:24:22Z</time>
      </trkpt>
      <trkpt lat="45.73622" lon="4.6824">
        <ele>352.6</ele>
        <time>2022-06-26T14:24:23Z</time>
      </trkpt>
      <trkpt lat="45.73626" lon="4.68249">
        <ele>352.2</ele>
        <time>2022-06-26T14:24:24Z</time>
      </trkpt>
      <trkpt lat="45.7363" lon="4.68258">
        <ele>352</ele>
        <time>2022-06-26T14:24:25Z</time>
      </trkpt>
      <trkpt lat="45.73634" lon="4.68266">
        <ele>351.8</ele>
        <time>2022-06-26T14:24:26Z</time>
      </trkpt>
      <trkpt lat="45.73639" lon="4.68275">
        <ele>351.8</ele>
        <time>2022-06-26T14:24:27Z</time>
      </trkpt>
      <trkpt lat="45.73644" lon="4.68285">
        <ele>351.2</ele>
        <time>2022-06-26T14:24:28Z</time>
      </trkpt>
      <trkpt lat="45.73648" lon="4.68295">
        <ele>350.8</ele>
        <time>2022-06-26T14:24:29Z</time>
      </trkpt>
      <trkpt lat="45.73653" lon="4.68305">
        <ele>350.4</ele>
        <time>2022-06-26T14:24:30Z</time>
      </trkpt>
      <trkpt lat="45.73658" lon="4.68315">
        <ele>350</ele>
        <time>2022-06-26T14:24:31Z</time>
      </trkpt>
      <trkpt lat="45.73663" lon="4.68325">
        <ele>349.6</ele>
        <time>2022-06-26T14:24:32Z</time>
      </trkpt>
      <trkpt lat="45.73668" lon="4.68336">
        <ele>349.6</ele>
        <time>2022-06-26T14:24:33Z</time>
      </trkpt>
      <trkpt lat="45.73673" lon="4.68348">
        <ele>349</ele>
        <time>2022-06-26T14:24:34Z</time>
      </trkpt>
      <trkpt lat="45.73679" lon="4.6836">
        <ele>348.6</ele>
        <time>2022-06-26T14:24:35Z</time>
      </trkpt>
      <trkpt lat="45.73684" lon="4.68371">
        <ele>348.4</ele>
        <time>2022-06-26T14:24:36Z</time>
      </trkpt>
      <trkpt lat="45.73689" lon="4.68382">
        <ele>348</ele>
        <time>2022-06-26T14:24:37Z</time>
      </trkpt>
      <trkpt lat="45.73694" lon="4.68393">
        <ele>347.6</ele>
        <time>2022-06-26T14:24:38Z</time>
      </trkpt>
      <trkpt lat="45.73699" lon="4.68404">
        <ele>347</ele>
        <time>2022-06-26T14:24:39Z</time>
      </trkpt>
      <trkpt lat="45.73705" lon="4.68415">
        <ele>346.4</ele>
        <time>2022-06-26T14:24:40Z</time>
      </trkpt>
      <trkpt lat="45.7371" lon="4.68427">
        <ele>346</ele>
        <time>2022-06-26T14:24:41Z</time>
      </trkpt>
      <trkpt lat="45.73715" lon="4.68439">
        <ele>345.6</ele>
        <time>2022-06-26T14:24:42Z</time>
      </trkpt>
      <trkpt lat="45.73721" lon="4.6845">
        <ele>345.2</ele>
        <time>2022-06-26T14:24:43Z</time>
      </trkpt>
      <trkpt lat="45.73726" lon="4.68463">
        <ele>344.8</ele>
        <time>2022-06-26T14:24:44Z</time>
      </trkpt>
      <trkpt lat="45.73732" lon="4.68474">
        <ele>344.4</ele>
        <time>2022-06-26T14:24:45Z</time>
      </trkpt>
      <trkpt lat="45.73737" lon="4.68486">
        <ele>343.4</ele>
        <time>2022-06-26T14:24:46Z</time>
      </trkpt>
      <trkpt lat="45.73743" lon="4.68498">
        <ele>343</ele>
        <time>2022-06-26T14:24:47Z</time>
      </trkpt>
      <trkpt lat="45.73748" lon="4.6851">
        <ele>342.6</ele>
        <time>2022-06-26T14:24:48Z</time>
      </trkpt>
      <trkpt lat="45.73754" lon="4.68523">
        <ele>342.2</ele>
        <time>2022-06-26T14:24:49Z</time>
      </trkpt>
      <trkpt lat="45.7376" lon="4.68535">
        <ele>341.8</ele>
        <time>2022-06-26T14:24:50Z</time>
      </trkpt>
      <trkpt lat="45.73765" lon="4.68546">
        <ele>341.2</ele>
        <time>2022-06-26T14:24:51Z</time>
      </trkpt>
      <trkpt lat="45.7377" lon="4.68559">
        <ele>340.6</ele>
        <time>2022-06-26T14:24:52Z</time>
      </trkpt>
      <trkpt lat="45.73775" lon="4.68572">
        <ele>340.2</ele>
        <time>2022-06-26T14:24:53Z</time>
      </trkpt>
      <trkpt lat="45.73781" lon="4.68584">
        <ele>339.8</ele>
        <time>2022-06-26T14:24:54Z</time>
      </trkpt>
      <trkpt lat="45.73786" lon="4.68596">
        <ele>339.2</ele>
        <time>2022-06-26T14:24:55Z</time>
      </trkpt>
      <trkpt lat="45.73793" lon="4.68607">
        <ele>338.8</ele>
        <time>2022-06-26T14:24:56Z</time>
      </trkpt>
      <trkpt lat="45.73799" lon="4.68619">
        <ele>338.4</ele>
        <time>2022-06-26T14:24:57Z</time>
      </trkpt>
      <trkpt lat="45.73805" lon="4.68631">
        <ele>338</ele>
        <time>2022-06-26T14:24:58Z</time>
      </trkpt>
      <trkpt lat="45.7381" lon="4.68643">
        <ele>337.6</ele>
        <time>2022-06-26T14:24:59Z</time>
      </trkpt>
      <trkpt lat="45.73815" lon="4.68655">
        <ele>337.4</ele>
        <time>2022-06-26T14:25:00Z</time>
      </trkpt>
      <trkpt lat="45.7382" lon="4.68666">
        <ele>337</ele>
        <time>2022-06-26T14:25:01Z</time>
      </trkpt>
      <trkpt lat="45.73826" lon="4.68677">
        <ele>336.6</ele>
        <time>2022-06-26T14:25:02Z</time>
      </trkpt>
      <trkpt lat="45.73831" lon="4.68688">
        <ele>336.2</ele>
        <time>2022-06-26T14:25:03Z</time>
      </trkpt>
      <trkpt lat="45.73836" lon="4.687">
        <ele>336.2</ele>
        <time>2022-06-26T14:25:04Z</time>
      </trkpt>
      <trkpt lat="45.73841" lon="4.68711">
        <ele>335.8</ele>
        <time>2022-06-26T14:25:05Z</time>
      </trkpt>
      <trkpt lat="45.73846" lon="4.68722">
        <ele>335.6</ele>
        <time>2022-06-26T14:25:06Z</time>
      </trkpt>
      <trkpt lat="45.73851" lon="4.68733">
        <ele>335.4</ele>
        <time>2022-06-26T14:25:07Z</time>
      </trkpt>
      <trkpt lat="45.73856" lon="4.68744">
        <ele>335</ele>
        <time>2022-06-26T14:25:08Z</time>
      </trkpt>
      <trkpt lat="45.73861" lon="4.68754">
        <ele>334.8</ele>
        <time>2022-06-26T14:25:09Z</time>
      </trkpt>
      <trkpt lat="45.73866" lon="4.68765">
        <ele>334.6</ele>
        <time>2022-06-26T14:25:10Z</time>
      </trkpt>
      <trkpt lat="45.73871" lon="4.68776">
        <ele>334.6</ele>
        <time>2022-06-26T14:25:11Z</time>
      </trkpt>
      <trkpt lat="45.73876" lon="4.68787">
        <ele>334.2</ele>
        <time>2022-06-26T14:25:12Z</time>
      </trkpt>
      <trkpt lat="45.73881" lon="4.68798">
        <ele>334</ele>
        <time>2022-06-26T14:25:13Z</time>
      </trkpt>
      <trkpt lat="45.73886" lon="4.68808">
        <ele>334</ele>
        <time>2022-06-26T14:25:14Z</time>
      </trkpt>
      <trkpt lat="45.73891" lon="4.68819">
        <ele>333.6</ele>
        <time>2022-06-26T14:25:15Z</time>
      </trkpt>
      <trkpt lat="45.73896" lon="4.6883">
        <ele>333.6</ele>
        <time>2022-06-26T14:25:16Z</time>
      </trkpt>
      <trkpt lat="45.73901" lon="4.68841">
        <ele>333.2</ele>
        <time>2022-06-26T14:25:17Z</time>
      </trkpt>
      <trkpt lat="45.73906" lon="4.68852">
        <ele>333</ele>
        <time>2022-06-26T14:25:18Z</time>
      </trkpt>
      <trkpt lat="45.73911" lon="4.68862">
        <ele>333</ele>
        <time>2022-06-26T14:25:19Z</time>
      </trkpt>
      <trkpt lat="45.73916" lon="4.68872">
        <ele>333</ele>
        <time>2022-06-26T14:25:20Z</time>
      </trkpt>
      <trkpt lat="45.7392" lon="4.68882">
        <ele>332.8</ele>
        <time>2022-06-26T14:25:21Z</time>
      </trkpt>
      <trkpt lat="45.73925" lon="4.68891">
        <ele>332.8</ele>
        <time>2022-06-26T14:25:22Z</time>
      </trkpt>
      <trkpt lat="45.7393" lon="4.68901">
        <ele>332.6</ele>
        <time>2022-06-26T14:25:23Z</time>
      </trkpt>
      <trkpt lat="45.73935" lon="4.6891">
        <ele>332.6</ele>
        <time>2022-06-26T14:25:24Z</time>
      </trkpt>
      <trkpt lat="45.73939" lon="4.6892">
        <ele>332.2</ele>
        <time>2022-06-26T14:25:25Z</time>
      </trkpt>
      <trkpt lat="45.73944" lon="4.6893">
        <ele>332.2</ele>
        <time>2022-06-26T14:25:26Z</time>
      </trkpt>
      <trkpt lat="45.73948" lon="4.6894">
        <ele>332</ele>
        <time>2022-06-26T14:25:27Z</time>
      </trkpt>
      <trkpt lat="45.73952" lon="4.68949">
        <ele>331.8</ele>
        <time>2022-06-26T14:25:28Z</time>
      </trkpt>
      <trkpt lat="45.73957" lon="4.68958">
        <ele>331.8</ele>
        <time>2022-06-26T14:25:29Z</time>
      </trkpt>
      <trkpt lat="45.73961" lon="4.68968">
        <ele>331.4</ele>
        <time>2022-06-26T14:25:30Z</time>
      </trkpt>
      <trkpt lat="45.73965" lon="4.68976">
        <ele>331.4</ele>
        <time>2022-06-26T14:25:31Z</time>
      </trkpt>
      <trkpt lat="45.7397" lon="4.68985">
        <ele>331.2</ele>
        <time>2022-06-26T14:25:32Z</time>
      </trkpt>
      <trkpt lat="45.73974" lon="4.68994">
        <ele>331.2</ele>
        <time>2022-06-26T14:25:33Z</time>
      </trkpt>
      <trkpt lat="45.73978" lon="4.69003">
        <ele>331</ele>
        <time>2022-06-26T14:25:34Z</time>
      </trkpt>
      <trkpt lat="45.73981" lon="4.69011">
        <ele>331</ele>
        <time>2022-06-26T14:25:35Z</time>
      </trkpt>
      <trkpt lat="45.73985" lon="4.6902">
        <ele>330.6</ele>
        <time>2022-06-26T14:25:36Z</time>
      </trkpt>
      <trkpt lat="45.73989" lon="4.69028">
        <ele>330.6</ele>
        <time>2022-06-26T14:25:37Z</time>
      </trkpt>
      <trkpt lat="45.73993" lon="4.69036">
        <ele>330.4</ele>
        <time>2022-06-26T14:25:38Z</time>
      </trkpt>
      <trkpt lat="45.73997" lon="4.69044">
        <ele>330.4</ele>
        <time>2022-06-26T14:25:39Z</time>
      </trkpt>
      <trkpt lat="45.74" lon="4.69053">
        <ele>330.2</ele>
        <time>2022-06-26T14:25:40Z</time>
      </trkpt>
      <trkpt lat="45.74003" lon="4.69061">
        <ele>330.2</ele>
        <time>2022-06-26T14:25:41Z</time>
      </trkpt>
      <trkpt lat="45.74006" lon="4.69068">
        <ele>329.8</ele>
        <time>2022-06-26T14:25:42Z</time>
      </trkpt>
      <trkpt lat="45.74009" lon="4.69077">
        <ele>329.6</ele>
        <time>2022-06-26T14:25:43Z</time>
      </trkpt>
      <trkpt lat="45.74012" lon="4.69085">
        <ele>329.6</ele>
        <time>2022-06-26T14:25:44Z</time>
      </trkpt>
      <trkpt lat="45.74016" lon="4.69094">
        <ele>329.4</ele>
        <time>2022-06-26T14:25:45Z</time>
      </trkpt>
      <trkpt lat="45.74021" lon="4.69102">
        <ele>329.2</ele>
        <time>2022-06-26T14:25:46Z</time>
      </trkpt>
      <trkpt lat="45.74025" lon="4.69109">
        <ele>329</ele>
        <time>2022-06-26T14:25:47Z</time>
      </trkpt>
      <trkpt lat="45.7403" lon="4.69118">
        <ele>328.6</ele>
        <time>2022-06-26T14:25:48Z</time>
      </trkpt>
      <trkpt lat="45.74034" lon="4.69127">
        <ele>328.4</ele>
        <time>2022-06-26T14:25:49Z</time>
      </trkpt>
      <trkpt lat="45.74038" lon="4.69135">
        <ele>328</ele>
        <time>2022-06-26T14:25:51Z</time>
      </trkpt>
      <trkpt lat="45.74042" lon="4.69144">
        <ele>328</ele>
        <time>2022-06-26T14:25:52Z</time>
      </trkpt>
      <trkpt lat="45.74046" lon="4.69153">
        <ele>328</ele>
        <time>2022-06-26T14:25:53Z</time>
      </trkpt>
      <trkpt lat="45.7405" lon="4.69163">
        <ele>327.6</ele>
        <time>2022-06-26T14:25:54Z</time>
      </trkpt>
      <trkpt lat="45.74054" lon="4.69172">
        <ele>327.4</ele>
        <time>2022-06-26T14:25:55Z</time>
      </trkpt>
      <trkpt lat="45.74059" lon="4.69181">
        <ele>327.4</ele>
        <time>2022-06-26T14:25:56Z</time>
      </trkpt>
      <trkpt lat="45.74064" lon="4.6919">
        <ele>327</ele>
        <time>2022-06-26T14:25:57Z</time>
      </trkpt>
      <trkpt lat="45.74068" lon="4.692">
        <ele>326.6</ele>
        <time>2022-06-26T14:25:58Z</time>
      </trkpt>
      <trkpt lat="45.74072" lon="4.69209">
        <ele>326.4</ele>
        <time>2022-06-26T14:25:59Z</time>
      </trkpt>
      <trkpt lat="45.74077" lon="4.69218">
        <ele>326.2</ele>
        <time>2022-06-26T14:26:00Z</time>
      </trkpt>
      <trkpt lat="45.74082" lon="4.69227">
        <ele>326.2</ele>
        <time>2022-06-26T14:26:01Z</time>
      </trkpt>
      <trkpt lat="45.74086" lon="4.69237">
        <ele>325.6</ele>
        <time>2022-06-26T14:26:02Z</time>
      </trkpt>
      <trkpt lat="45.7409" lon="4.69246">
        <ele>325.4</ele>
        <time>2022-06-26T14:26:03Z</time>
      </trkpt>
      <trkpt lat="45.74094" lon="4.69256">
        <ele>325.4</ele>
        <time>2022-06-26T14:26:04Z</time>
      </trkpt>
      <trkpt lat="45.74099" lon="4.69266">
        <ele>324.8</ele>
        <time>2022-06-26T14:26:05Z</time>
      </trkpt>
      <trkpt lat="45.74103" lon="4.69275">
        <ele>324.6</ele>
        <time>2022-06-26T14:26:06Z</time>
      </trkpt>
      <trkpt lat="45.74108" lon="4.69284">
        <ele>324.4</ele>
        <time>2022-06-26T14:26:07Z</time>
      </trkpt>
      <trkpt lat="45.74112" lon="4.69294">
        <ele>324</ele>
        <time>2022-06-26T14:26:08Z</time>
      </trkpt>
      <trkpt lat="45.74116" lon="4.69303">
        <ele>323.8</ele>
        <time>2022-06-26T14:26:09Z</time>
      </trkpt>
      <trkpt lat="45.74121" lon="4.69313">
        <ele>323.2</ele>
        <time>2022-06-26T14:26:10Z</time>
      </trkpt>
      <trkpt lat="45.74126" lon="4.69323">
        <ele>323</ele>
        <time>2022-06-26T14:26:11Z</time>
      </trkpt>
      <trkpt lat="45.7413" lon="4.69333">
        <ele>322.6</ele>
        <time>2022-06-26T14:26:12Z</time>
      </trkpt>
      <trkpt lat="45.74135" lon="4.69342">
        <ele>322.2</ele>
        <time>2022-06-26T14:26:13Z</time>
      </trkpt>
      <trkpt lat="45.7414" lon="4.69353">
        <ele>321.8</ele>
        <time>2022-06-26T14:26:14Z</time>
      </trkpt>
      <trkpt lat="45.74144" lon="4.69363">
        <ele>321.8</ele>
        <time>2022-06-26T14:26:15Z</time>
      </trkpt>
      <trkpt lat="45.74149" lon="4.69373">
        <ele>321.4</ele>
        <time>2022-06-26T14:26:16Z</time>
      </trkpt>
      <trkpt lat="45.74153" lon="4.69384">
        <ele>321</ele>
        <time>2022-06-26T14:26:17Z</time>
      </trkpt>
      <trkpt lat="45.74158" lon="4.69394">
        <ele>320.4</ele>
        <time>2022-06-26T14:26:18Z</time>
      </trkpt>
      <trkpt lat="45.74163" lon="4.69404">
        <ele>319.8</ele>
        <time>2022-06-26T14:26:19Z</time>
      </trkpt>
      <trkpt lat="45.74168" lon="4.69415">
        <ele>319.2</ele>
        <time>2022-06-26T14:26:20Z</time>
      </trkpt>
      <trkpt lat="45.74173" lon="4.69425">
        <ele>318.8</ele>
        <time>2022-06-26T14:26:21Z</time>
      </trkpt>
      <trkpt lat="45.74177" lon="4.69436">
        <ele>318.4</ele>
        <time>2022-06-26T14:26:22Z</time>
      </trkpt>
      <trkpt lat="45.74182" lon="4.69446">
        <ele>318</ele>
        <time>2022-06-26T14:26:23Z</time>
      </trkpt>
      <trkpt lat="45.74187" lon="4.69458">
        <ele>317.8</ele>
        <time>2022-06-26T14:26:24Z</time>
      </trkpt>
      <trkpt lat="45.74198" lon="4.69482">
        <ele>317.4</ele>
        <time>2022-06-26T14:26:25Z</time>
      </trkpt>
      <trkpt lat="45.74204" lon="4.69493">
        <ele>317</ele>
        <time>2022-06-26T14:26:26Z</time>
      </trkpt>
      <trkpt lat="45.74209" lon="4.69506">
        <ele>316.4</ele>
        <time>2022-06-26T14:26:27Z</time>
      </trkpt>
      <trkpt lat="45.74215" lon="4.69518">
        <ele>316</ele>
        <time>2022-06-26T14:26:28Z</time>
      </trkpt>
      <trkpt lat="45.74221" lon="4.69529">
        <ele>315.8</ele>
        <time>2022-06-26T14:26:29Z</time>
      </trkpt>
      <trkpt lat="45.74227" lon="4.69541">
        <ele>315.4</ele>
        <time>2022-06-26T14:26:30Z</time>
      </trkpt>
      <trkpt lat="45.74232" lon="4.69551">
        <ele>315</ele>
        <time>2022-06-26T14:26:31Z</time>
      </trkpt>
      <trkpt lat="45.74237" lon="4.69561">
        <ele>314.6</ele>
        <time>2022-06-26T14:26:32Z</time>
      </trkpt>
      <trkpt lat="45.74243" lon="4.69572">
        <ele>314.2</ele>
        <time>2022-06-26T14:26:33Z</time>
      </trkpt>
      <trkpt lat="45.74247" lon="4.69582">
        <ele>314</ele>
        <time>2022-06-26T14:26:34Z</time>
      </trkpt>
      <trkpt lat="45.74252" lon="4.69593">
        <ele>313.6</ele>
        <time>2022-06-26T14:26:35Z</time>
      </trkpt>
      <trkpt lat="45.74255" lon="4.69602">
        <ele>313.6</ele>
        <time>2022-06-26T14:26:36Z</time>
      </trkpt>
      <trkpt lat="45.7426" lon="4.69613">
        <ele>313.2</ele>
        <time>2022-06-26T14:26:37Z</time>
      </trkpt>
      <trkpt lat="45.74266" lon="4.69625">
        <ele>312.6</ele>
        <time>2022-06-26T14:26:38Z</time>
      </trkpt>
      <trkpt lat="45.74271" lon="4.69636">
        <ele>312.2</ele>
        <time>2022-06-26T14:26:39Z</time>
      </trkpt>
      <trkpt lat="45.74276" lon="4.69648">
        <ele>311.8</ele>
        <time>2022-06-26T14:26:40Z</time>
      </trkpt>
      <trkpt lat="45.74281" lon="4.69659">
        <ele>311.6</ele>
        <time>2022-06-26T14:26:41Z</time>
      </trkpt>
      <trkpt lat="45.74287" lon="4.6967">
        <ele>311.4</ele>
        <time>2022-06-26T14:26:42Z</time>
      </trkpt>
      <trkpt lat="45.74291" lon="4.6968">
        <ele>311.4</ele>
        <time>2022-06-26T14:26:43Z</time>
      </trkpt>
      <trkpt lat="45.74296" lon="4.6969">
        <ele>311</ele>
        <time>2022-06-26T14:26:44Z</time>
      </trkpt>
      <trkpt lat="45.743" lon="4.697">
        <ele>311</ele>
        <time>2022-06-26T14:26:45Z</time>
      </trkpt>
      <trkpt lat="45.74304" lon="4.69709">
        <ele>311</ele>
        <time>2022-06-26T14:26:46Z</time>
      </trkpt>
      <trkpt lat="45.74308" lon="4.69718">
        <ele>311</ele>
        <time>2022-06-26T14:26:47Z</time>
      </trkpt>
      <trkpt lat="45.74312" lon="4.69727">
        <ele>311</ele>
        <time>2022-06-26T14:26:48Z</time>
      </trkpt>
      <trkpt lat="45.74316" lon="4.69736">
        <ele>311.2</ele>
        <time>2022-06-26T14:26:49Z</time>
      </trkpt>
      <trkpt lat="45.7432" lon="4.69745">
        <ele>311.2</ele>
        <time>2022-06-26T14:26:50Z</time>
      </trkpt>
      <trkpt lat="45.74324" lon="4.69754">
        <ele>311.8</ele>
        <time>2022-06-26T14:26:51Z</time>
      </trkpt>
      <trkpt lat="45.74328" lon="4.69762">
        <ele>312.2</ele>
        <time>2022-06-26T14:26:52Z</time>
      </trkpt>
      <trkpt lat="45.74332" lon="4.69771">
        <ele>312.4</ele>
        <time>2022-06-26T14:26:53Z</time>
      </trkpt>
      <trkpt lat="45.74335" lon="4.69779">
        <ele>312.4</ele>
        <time>2022-06-26T14:26:54Z</time>
      </trkpt>
      <trkpt lat="45.74339" lon="4.69787">
        <ele>313.2</ele>
        <time>2022-06-26T14:26:55Z</time>
      </trkpt>
      <trkpt lat="45.74343" lon="4.69795">
        <ele>313.2</ele>
        <time>2022-06-26T14:26:56Z</time>
      </trkpt>
      <trkpt lat="45.74347" lon="4.69803">
        <ele>313.4</ele>
        <time>2022-06-26T14:26:57Z</time>
      </trkpt>
      <trkpt lat="45.74351" lon="4.69811">
        <ele>313.8</ele>
        <time>2022-06-26T14:26:58Z</time>
      </trkpt>
      <trkpt lat="45.74355" lon="4.69818">
        <ele>314</ele>
        <time>2022-06-26T14:26:59Z</time>
      </trkpt>
      <trkpt lat="45.74359" lon="4.69826">
        <ele>314.4</ele>
        <time>2022-06-26T14:27:00Z</time>
      </trkpt>
      <trkpt lat="45.74363" lon="4.69833">
        <ele>314.4</ele>
        <time>2022-06-26T14:27:01Z</time>
      </trkpt>
      <trkpt lat="45.74367" lon="4.69841">
        <ele>314.4</ele>
        <time>2022-06-26T14:27:02Z</time>
      </trkpt>
      <trkpt lat="45.7437" lon="4.69849">
        <ele>314.4</ele>
        <time>2022-06-26T14:27:03Z</time>
      </trkpt>
      <trkpt lat="45.74374" lon="4.69857">
        <ele>314.4</ele>
        <time>2022-06-26T14:27:04Z</time>
      </trkpt>
      <trkpt lat="45.74377" lon="4.69865">
        <ele>314.4</ele>
        <time>2022-06-26T14:27:05Z</time>
      </trkpt>
      <trkpt lat="45.74381" lon="4.69873">
        <ele>314.6</ele>
        <time>2022-06-26T14:27:06Z</time>
      </trkpt>
      <trkpt lat="45.74384" lon="4.69881">
        <ele>314.6</ele>
        <time>2022-06-26T14:27:07Z</time>
      </trkpt>
      <trkpt lat="45.74388" lon="4.69889">
        <ele>314.6</ele>
        <time>2022-06-26T14:27:08Z</time>
      </trkpt>
      <trkpt lat="45.74391" lon="4.69897">
        <ele>314.6</ele>
        <time>2022-06-26T14:27:09Z</time>
      </trkpt>
      <trkpt lat="45.74395" lon="4.69905">
        <ele>314.6</ele>
        <time>2022-06-26T14:27:10Z</time>
      </trkpt>
      <trkpt lat="45.74398" lon="4.69913">
        <ele>314.6</ele>
        <time>2022-06-26T14:27:11Z</time>
      </trkpt>
      <trkpt lat="45.74402" lon="4.6992">
        <ele>314.6</ele>
        <time>2022-06-26T14:27:12Z</time>
      </trkpt>
      <trkpt lat="45.74406" lon="4.69928">
        <ele>314.8</ele>
        <time>2022-06-26T14:27:13Z</time>
      </trkpt>
      <trkpt lat="45.74409" lon="4.69936">
        <ele>314.8</ele>
        <time>2022-06-26T14:27:14Z</time>
      </trkpt>
      <trkpt lat="45.74413" lon="4.69944">
        <ele>314.8</ele>
        <time>2022-06-26T14:27:15Z</time>
      </trkpt>
      <trkpt lat="45.74417" lon="4.69953">
        <ele>314.8</ele>
        <time>2022-06-26T14:27:16Z</time>
      </trkpt>
      <trkpt lat="45.74421" lon="4.69961">
        <ele>314.8</ele>
        <time>2022-06-26T14:27:17Z</time>
      </trkpt>
      <trkpt lat="45.74424" lon="4.69969">
        <ele>314.8</ele>
        <time>2022-06-26T14:27:18Z</time>
      </trkpt>
      <trkpt lat="45.74428" lon="4.69977">
        <ele>314.8</ele>
        <time>2022-06-26T14:27:19Z</time>
      </trkpt>
      <trkpt lat="45.74432" lon="4.69985">
        <ele>314.8</ele>
        <time>2022-06-26T14:27:20Z</time>
      </trkpt>
      <trkpt lat="45.74436" lon="4.69993">
        <ele>314.8</ele>
        <time>2022-06-26T14:27:21Z</time>
      </trkpt>
      <trkpt lat="45.7444" lon="4.70001">
        <ele>314.8</ele>
        <time>2022-06-26T14:27:22Z</time>
      </trkpt>
      <trkpt lat="45.74443" lon="4.70009">
        <ele>315.2</ele>
        <time>2022-06-26T14:27:23Z</time>
      </trkpt>
      <trkpt lat="45.74447" lon="4.70017">
        <ele>315.2</ele>
        <time>2022-06-26T14:27:24Z</time>
      </trkpt>
      <trkpt lat="45.74451" lon="4.70025">
        <ele>315.2</ele>
        <time>2022-06-26T14:27:25Z</time>
      </trkpt>
      <trkpt lat="45.74455" lon="4.70033">
        <ele>315.2</ele>
        <time>2022-06-26T14:27:26Z</time>
      </trkpt>
      <trkpt lat="45.74458" lon="4.70041">
        <ele>314.8</ele>
        <time>2022-06-26T14:27:27Z</time>
      </trkpt>
      <trkpt lat="45.74462" lon="4.70049">
        <ele>314.8</ele>
        <time>2022-06-26T14:27:28Z</time>
      </trkpt>
      <trkpt lat="45.74466" lon="4.70057">
        <ele>314.8</ele>
        <time>2022-06-26T14:27:29Z</time>
      </trkpt>
      <trkpt lat="45.7447" lon="4.70065">
        <ele>314.6</ele>
        <time>2022-06-26T14:27:30Z</time>
      </trkpt>
      <trkpt lat="45.74474" lon="4.70074">
        <ele>314.6</ele>
        <time>2022-06-26T14:27:31Z</time>
      </trkpt>
      <trkpt lat="45.74478" lon="4.70082">
        <ele>314.6</ele>
        <time>2022-06-26T14:27:32Z</time>
      </trkpt>
      <trkpt lat="45.74481" lon="4.70091">
        <ele>314.6</ele>
        <time>2022-06-26T14:27:33Z</time>
      </trkpt>
      <trkpt lat="45.74485" lon="4.70099">
        <ele>314.6</ele>
        <time>2022-06-26T14:27:34Z</time>
      </trkpt>
      <trkpt lat="45.74489" lon="4.70108">
        <ele>314.4</ele>
        <time>2022-06-26T14:27:35Z</time>
      </trkpt>
      <trkpt lat="45.74493" lon="4.70116">
        <ele>314.4</ele>
        <time>2022-06-26T14:27:36Z</time>
      </trkpt>
      <trkpt lat="45.74497" lon="4.70124">
        <ele>314.4</ele>
        <time>2022-06-26T14:27:37Z</time>
      </trkpt>
      <trkpt lat="45.745" lon="4.70133">
        <ele>314.4</ele>
        <time>2022-06-26T14:27:38Z</time>
      </trkpt>
      <trkpt lat="45.74504" lon="4.70141">
        <ele>314.2</ele>
        <time>2022-06-26T14:27:39Z</time>
      </trkpt>
      <trkpt lat="45.74508" lon="4.70149">
        <ele>314.2</ele>
        <time>2022-06-26T14:27:40Z</time>
      </trkpt>
      <trkpt lat="45.74513" lon="4.70157">
        <ele>314.2</ele>
        <time>2022-06-26T14:27:41Z</time>
      </trkpt>
      <trkpt lat="45.74517" lon="4.70166">
        <ele>314.2</ele>
        <time>2022-06-26T14:27:42Z</time>
      </trkpt>
      <trkpt lat="45.74521" lon="4.70174">
        <ele>313.8</ele>
        <time>2022-06-26T14:27:43Z</time>
      </trkpt>
      <trkpt lat="45.74526" lon="4.70181">
        <ele>313.8</ele>
        <time>2022-06-26T14:27:44Z</time>
      </trkpt>
      <trkpt lat="45.7453" lon="4.70189">
        <ele>313.8</ele>
        <time>2022-06-26T14:27:45Z</time>
      </trkpt>
      <trkpt lat="45.74534" lon="4.70197">
        <ele>313.8</ele>
        <time>2022-06-26T14:27:46Z</time>
      </trkpt>
      <trkpt lat="45.74538" lon="4.70206">
        <ele>313.8</ele>
        <time>2022-06-26T14:27:47Z</time>
      </trkpt>
      <trkpt lat="45.74542" lon="4.70215">
        <ele>313.8</ele>
        <time>2022-06-26T14:27:48Z</time>
      </trkpt>
      <trkpt lat="45.74546" lon="4.70223">
        <ele>313.8</ele>
        <time>2022-06-26T14:27:49Z</time>
      </trkpt>
      <trkpt lat="45.7455" lon="4.70231">
        <ele>313.8</ele>
        <time>2022-06-26T14:27:50Z</time>
      </trkpt>
      <trkpt lat="45.74554" lon="4.70239">
        <ele>313.6</ele>
        <time>2022-06-26T14:27:51Z</time>
      </trkpt>
      <trkpt lat="45.74558" lon="4.70248">
        <ele>313.6</ele>
        <time>2022-06-26T14:27:52Z</time>
      </trkpt>
      <trkpt lat="45.74562" lon="4.70256">
        <ele>313.6</ele>
        <time>2022-06-26T14:27:53Z</time>
      </trkpt>
      <trkpt lat="45.74566" lon="4.70264">
        <ele>313.6</ele>
        <time>2022-06-26T14:27:54Z</time>
      </trkpt>
      <trkpt lat="45.7457" lon="4.70273">
        <ele>313.4</ele>
        <time>2022-06-26T14:27:55Z</time>
      </trkpt>
      <trkpt lat="45.74573" lon="4.70281">
        <ele>313.4</ele>
        <time>2022-06-26T14:27:56Z</time>
      </trkpt>
      <trkpt lat="45.74577" lon="4.7029">
        <ele>313.4</ele>
        <time>2022-06-26T14:27:57Z</time>
      </trkpt>
      <trkpt lat="45.74581" lon="4.70298">
        <ele>313.4</ele>
        <time>2022-06-26T14:27:58Z</time>
      </trkpt>
      <trkpt lat="45.74585" lon="4.70305">
        <ele>313.4</ele>
        <time>2022-06-26T14:27:59Z</time>
      </trkpt>
      <trkpt lat="45.7459" lon="4.70312">
        <ele>313.4</ele>
        <time>2022-06-26T14:28:00Z</time>
      </trkpt>
      <trkpt lat="45.74594" lon="4.70317">
        <ele>313.6</ele>
        <time>2022-06-26T14:28:01Z</time>
      </trkpt>
      <trkpt lat="45.746" lon="4.70322">
        <ele>313.6</ele>
        <time>2022-06-26T14:28:02Z</time>
      </trkpt>
      <trkpt lat="45.74605" lon="4.70326">
        <ele>313.8</ele>
        <time>2022-06-26T14:28:03Z</time>
      </trkpt>
      <trkpt lat="45.74611" lon="4.7033">
        <ele>313.8</ele>
        <time>2022-06-26T14:28:04Z</time>
      </trkpt>
      <trkpt lat="45.74617" lon="4.70332">
        <ele>313.8</ele>
        <time>2022-06-26T14:28:05Z</time>
      </trkpt>
      <trkpt lat="45.74623" lon="4.70334">
        <ele>313.8</ele>
        <time>2022-06-26T14:28:06Z</time>
      </trkpt>
      <trkpt lat="45.74628" lon="4.70335">
        <ele>314</ele>
        <time>2022-06-26T14:28:07Z</time>
      </trkpt>
      <trkpt lat="45.74634" lon="4.70336">
        <ele>314</ele>
        <time>2022-06-26T14:28:08Z</time>
      </trkpt>
      <trkpt lat="45.74638" lon="4.70336">
        <ele>314</ele>
        <time>2022-06-26T14:28:09Z</time>
      </trkpt>
      <trkpt lat="45.74643" lon="4.70336">
        <ele>314.2</ele>
        <time>2022-06-26T14:28:10Z</time>
      </trkpt>
      <trkpt lat="45.74647" lon="4.70336">
        <ele>314.2</ele>
        <time>2022-06-26T14:28:11Z</time>
      </trkpt>
      <trkpt lat="45.74651" lon="4.70337">
        <ele>314.2</ele>
        <time>2022-06-26T14:28:12Z</time>
      </trkpt>
      <trkpt lat="45.74655" lon="4.70339">
        <ele>314.2</ele>
        <time>2022-06-26T14:28:13Z</time>
      </trkpt>
      <trkpt lat="45.74659" lon="4.70341">
        <ele>314.2</ele>
        <time>2022-06-26T14:28:14Z</time>
      </trkpt>
      <trkpt lat="45.74662" lon="4.70345">
        <ele>314.4</ele>
        <time>2022-06-26T14:28:15Z</time>
      </trkpt>
      <trkpt lat="45.74666" lon="4.70348">
        <ele>314.4</ele>
        <time>2022-06-26T14:28:16Z</time>
      </trkpt>
      <trkpt lat="45.7467" lon="4.70351">
        <ele>314.4</ele>
        <time>2022-06-26T14:28:17Z</time>
      </trkpt>
      <trkpt lat="45.74674" lon="4.70355">
        <ele>314.8</ele>
        <time>2022-06-26T14:28:18Z</time>
      </trkpt>
      <trkpt lat="45.74677" lon="4.7036">
        <ele>314.8</ele>
        <time>2022-06-26T14:28:20Z</time>
      </trkpt>
      <trkpt lat="45.74679" lon="4.70366">
        <ele>315</ele>
        <time>2022-06-26T14:28:21Z</time>
      </trkpt>
      <trkpt lat="45.74681" lon="4.70373">
        <ele>315</ele>
        <time>2022-06-26T14:28:22Z</time>
      </trkpt>
      <trkpt lat="45.74682" lon="4.7038">
        <ele>315</ele>
        <time>2022-06-26T14:28:23Z</time>
      </trkpt>
      <trkpt lat="45.74683" lon="4.70387">
        <ele>315.2</ele>
        <time>2022-06-26T14:28:24Z</time>
      </trkpt>
      <trkpt lat="45.74684" lon="4.70394">
        <ele>315.2</ele>
        <time>2022-06-26T14:28:25Z</time>
      </trkpt>
      <trkpt lat="45.74684" lon="4.70401">
        <ele>315.2</ele>
        <time>2022-06-26T14:28:26Z</time>
      </trkpt>
      <trkpt lat="45.74685" lon="4.70409">
        <ele>315.2</ele>
        <time>2022-06-26T14:28:27Z</time>
      </trkpt>
      <trkpt lat="45.74685" lon="4.70417">
        <ele>315.2</ele>
        <time>2022-06-26T14:28:28Z</time>
      </trkpt>
      <trkpt lat="45.74684" lon="4.70424">
        <ele>315.6</ele>
        <time>2022-06-26T14:28:29Z</time>
      </trkpt>
      <trkpt lat="45.74684" lon="4.70432">
        <ele>315.6</ele>
        <time>2022-06-26T14:28:30Z</time>
      </trkpt>
      <trkpt lat="45.74684" lon="4.70441">
        <ele>315.8</ele>
        <time>2022-06-26T14:28:31Z</time>
      </trkpt>
      <trkpt lat="45.74683" lon="4.70449">
        <ele>315.8</ele>
        <time>2022-06-26T14:28:32Z</time>
      </trkpt>
      <trkpt lat="45.74683" lon="4.70457">
        <ele>315.8</ele>
        <time>2022-06-26T14:28:33Z</time>
      </trkpt>
      <trkpt lat="45.74682" lon="4.70466">
        <ele>315.8</ele>
        <time>2022-06-26T14:28:34Z</time>
      </trkpt>
      <trkpt lat="45.74682" lon="4.70474">
        <ele>316</ele>
        <time>2022-06-26T14:28:35Z</time>
      </trkpt>
      <trkpt lat="45.74682" lon="4.70483">
        <ele>316</ele>
        <time>2022-06-26T14:28:36Z</time>
      </trkpt>
      <trkpt lat="45.74682" lon="4.70492">
        <ele>316</ele>
        <time>2022-06-26T14:28:37Z</time>
      </trkpt>
      <trkpt lat="45.74682" lon="4.705">
        <ele>316</ele>
        <time>2022-06-26T14:28:38Z</time>
      </trkpt>
      <trkpt lat="45.74683" lon="4.70509">
        <ele>316</ele>
        <time>2022-06-26T14:28:39Z</time>
      </trkpt>
      <trkpt lat="45.74685" lon="4.70517">
        <ele>316.2</ele>
        <time>2022-06-26T14:28:40Z</time>
      </trkpt>
      <trkpt lat="45.74687" lon="4.70524">
        <ele>316.2</ele>
        <time>2022-06-26T14:28:41Z</time>
      </trkpt>
      <trkpt lat="45.74689" lon="4.70532">
        <ele>316.2</ele>
        <time>2022-06-26T14:28:42Z</time>
      </trkpt>
      <trkpt lat="45.74691" lon="4.7054">
        <ele>316.6</ele>
        <time>2022-06-26T14:28:43Z</time>
      </trkpt>
      <trkpt lat="45.74694" lon="4.70547">
        <ele>316.6</ele>
        <time>2022-06-26T14:28:44Z</time>
      </trkpt>
      <trkpt lat="45.74698" lon="4.70554">
        <ele>317</ele>
        <time>2022-06-26T14:28:45Z</time>
      </trkpt>
      <trkpt lat="45.74701" lon="4.70561">
        <ele>317.2</ele>
        <time>2022-06-26T14:28:46Z</time>
      </trkpt>
      <trkpt lat="45.74705" lon="4.70568">
        <ele>317.6</ele>
        <time>2022-06-26T14:28:47Z</time>
      </trkpt>
      <trkpt lat="45.74708" lon="4.70574">
        <ele>317.8</ele>
        <time>2022-06-26T14:28:48Z</time>
      </trkpt>
      <trkpt lat="45.74711" lon="4.70581">
        <ele>317.8</ele>
        <time>2022-06-26T14:28:49Z</time>
      </trkpt>
      <trkpt lat="45.74715" lon="4.70588">
        <ele>318</ele>
        <time>2022-06-26T14:28:50Z</time>
      </trkpt>
      <trkpt lat="45.74718" lon="4.70595">
        <ele>318.2</ele>
        <time>2022-06-26T14:28:51Z</time>
      </trkpt>
      <trkpt lat="45.74721" lon="4.70602">
        <ele>318.6</ele>
        <time>2022-06-26T14:28:52Z</time>
      </trkpt>
      <trkpt lat="45.74724" lon="4.70609">
        <ele>318.6</ele>
        <time>2022-06-26T14:28:53Z</time>
      </trkpt>
      <trkpt lat="45.74726" lon="4.70616">
        <ele>318.8</ele>
        <time>2022-06-26T14:28:54Z</time>
      </trkpt>
      <trkpt lat="45.74729" lon="4.70624">
        <ele>318.8</ele>
        <time>2022-06-26T14:28:55Z</time>
      </trkpt>
      <trkpt lat="45.74731" lon="4.70632">
        <ele>319</ele>
        <time>2022-06-26T14:28:56Z</time>
      </trkpt>
      <trkpt lat="45.74732" lon="4.70639">
        <ele>319</ele>
        <time>2022-06-26T14:28:57Z</time>
      </trkpt>
      <trkpt lat="45.74734" lon="4.70647">
        <ele>319</ele>
        <time>2022-06-26T14:28:58Z</time>
      </trkpt>
      <trkpt lat="45.74735" lon="4.70655">
        <ele>319.4</ele>
        <time>2022-06-26T14:28:59Z</time>
      </trkpt>
      <trkpt lat="45.74735" lon="4.70663">
        <ele>319.4</ele>
        <time>2022-06-26T14:29:00Z</time>
      </trkpt>
      <trkpt lat="45.74735" lon="4.7067">
        <ele>319.4</ele>
        <time>2022-06-26T14:29:01Z</time>
      </trkpt>
      <trkpt lat="45.74735" lon="4.70678">
        <ele>319.4</ele>
        <time>2022-06-26T14:29:02Z</time>
      </trkpt>
      <trkpt lat="45.74735" lon="4.70694">
        <ele>319.4</ele>
        <time>2022-06-26T14:29:03Z</time>
      </trkpt>
      <trkpt lat="45.74735" lon="4.70703">
        <ele>319.4</ele>
        <time>2022-06-26T14:29:04Z</time>
      </trkpt>
      <trkpt lat="45.74735" lon="4.70711">
        <ele>319.4</ele>
        <time>2022-06-26T14:29:05Z</time>
      </trkpt>
      <trkpt lat="45.74735" lon="4.7072">
        <ele>319.4</ele>
        <time>2022-06-26T14:29:06Z</time>
      </trkpt>
      <trkpt lat="45.74735" lon="4.7073">
        <ele>319.2</ele>
        <time>2022-06-26T14:29:07Z</time>
      </trkpt>
      <trkpt lat="45.74735" lon="4.70739">
        <ele>319.2</ele>
        <time>2022-06-26T14:29:08Z</time>
      </trkpt>
      <trkpt lat="45.74735" lon="4.70749">
        <ele>318.8</ele>
        <time>2022-06-26T14:29:09Z</time>
      </trkpt>
      <trkpt lat="45.74735" lon="4.7076">
        <ele>318.8</ele>
        <time>2022-06-26T14:29:10Z</time>
      </trkpt>
      <trkpt lat="45.74735" lon="4.7077">
        <ele>318.4</ele>
        <time>2022-06-26T14:29:11Z</time>
      </trkpt>
      <trkpt lat="45.74735" lon="4.70781">
        <ele>318.2</ele>
        <time>2022-06-26T14:29:12Z</time>
      </trkpt>
      <trkpt lat="45.74735" lon="4.70792">
        <ele>317.8</ele>
        <time>2022-06-26T14:29:13Z</time>
      </trkpt>
      <trkpt lat="45.74735" lon="4.70804">
        <ele>317.8</ele>
        <time>2022-06-26T14:29:14Z</time>
      </trkpt>
      <trkpt lat="45.74735" lon="4.70815">
        <ele>317.4</ele>
        <time>2022-06-26T14:29:15Z</time>
      </trkpt>
      <trkpt lat="45.74736" lon="4.70827">
        <ele>317</ele>
        <time>2022-06-26T14:29:16Z</time>
      </trkpt>
      <trkpt lat="45.74736" lon="4.70838">
        <ele>316.8</ele>
        <time>2022-06-26T14:29:17Z</time>
      </trkpt>
      <trkpt lat="45.74736" lon="4.7085">
        <ele>316.6</ele>
        <time>2022-06-26T14:29:18Z</time>
      </trkpt>
      <trkpt lat="45.74736" lon="4.70862">
        <ele>316.6</ele>
        <time>2022-06-26T14:29:19Z</time>
      </trkpt>
      <trkpt lat="45.74736" lon="4.70874">
        <ele>316.2</ele>
        <time>2022-06-26T14:29:20Z</time>
      </trkpt>
      <trkpt lat="45.74736" lon="4.70886">
        <ele>315.8</ele>
        <time>2022-06-26T14:29:21Z</time>
      </trkpt>
      <trkpt lat="45.74735" lon="4.70899">
        <ele>315.6</ele>
        <time>2022-06-26T14:29:22Z</time>
      </trkpt>
      <trkpt lat="45.74735" lon="4.70911">
        <ele>315.4</ele>
        <time>2022-06-26T14:29:23Z</time>
      </trkpt>
      <trkpt lat="45.74735" lon="4.70926">
        <ele>315</ele>
        <time>2022-06-26T14:29:24Z</time>
      </trkpt>
      <trkpt lat="45.74735" lon="4.70939">
        <ele>314.8</ele>
        <time>2022-06-26T14:29:25Z</time>
      </trkpt>
      <trkpt lat="45.74735" lon="4.70954">
        <ele>314.4</ele>
        <time>2022-06-26T14:29:26Z</time>
      </trkpt>
      <trkpt lat="45.74735" lon="4.70967">
        <ele>313.8</ele>
        <time>2022-06-26T14:29:27Z</time>
      </trkpt>
      <trkpt lat="45.74734" lon="4.70979">
        <ele>313.2</ele>
        <time>2022-06-26T14:29:28Z</time>
      </trkpt>
      <trkpt lat="45.74734" lon="4.7099">
        <ele>312.6</ele>
        <time>2022-06-26T14:29:29Z</time>
      </trkpt>
      <trkpt lat="45.74734" lon="4.70999">
        <ele>312</ele>
        <time>2022-06-26T14:29:30Z</time>
      </trkpt>
      <trkpt lat="45.74734" lon="4.71006">
        <ele>311.4</ele>
        <time>2022-06-26T14:29:31Z</time>
      </trkpt>
      <trkpt lat="45.74734" lon="4.71011">
        <ele>310.8</ele>
        <time>2022-06-26T14:29:32Z</time>
      </trkpt>
      <trkpt lat="45.74734" lon="4.71015">
        <ele>310.4</ele>
        <time>2022-06-26T14:29:33Z</time>
      </trkpt>
      <trkpt lat="45.74734" lon="4.71018">
        <ele>310</ele>
        <time>2022-06-26T14:29:34Z</time>
      </trkpt>
      <trkpt lat="45.74734" lon="4.71019">
        <ele>309.6</ele>
        <time>2022-06-26T14:29:35Z</time>
      </trkpt>
      <trkpt lat="45.74734" lon="4.7102">
        <ele>309.2</ele>
        <time>2022-06-26T14:29:36Z</time>
      </trkpt>
      <trkpt lat="45.74734" lon="4.71021">
        <ele>308.6</ele>
        <time>2022-06-26T14:29:51Z</time>
      </trkpt>
      <trkpt lat="45.74734" lon="4.71024">
        <ele>308.6</ele>
        <time>2022-06-26T14:29:52Z</time>
      </trkpt>
      <trkpt lat="45.74733" lon="4.71028">
        <ele>308.6</ele>
        <time>2022-06-26T14:29:53Z</time>
      </trkpt>
      <trkpt lat="45.74733" lon="4.71033">
        <ele>308.4</ele>
        <time>2022-06-26T14:29:54Z</time>
      </trkpt>
      <trkpt lat="45.74733" lon="4.71039">
        <ele>308.4</ele>
        <time>2022-06-26T14:29:55Z</time>
      </trkpt>
      <trkpt lat="45.74733" lon="4.71046">
        <ele>308.2</ele>
        <time>2022-06-26T14:29:56Z</time>
      </trkpt>
      <trkpt lat="45.74733" lon="4.71054">
        <ele>308.2</ele>
        <time>2022-06-26T14:29:57Z</time>
      </trkpt>
      <trkpt lat="45.74733" lon="4.71062">
        <ele>307.6</ele>
        <time>2022-06-26T14:29:58Z</time>
      </trkpt>
      <trkpt lat="45.74733" lon="4.71072">
        <ele>307.2</ele>
        <time>2022-06-26T14:29:59Z</time>
      </trkpt>
      <trkpt lat="45.74733" lon="4.71083">
        <ele>306.8</ele>
        <time>2022-06-26T14:30:00Z</time>
      </trkpt>
      <trkpt lat="45.74733" lon="4.71094">
        <ele>306.4</ele>
        <time>2022-06-26T14:30:01Z</time>
      </trkpt>
      <trkpt lat="45.74734" lon="4.71106">
        <ele>306.2</ele>
        <time>2022-06-26T14:30:02Z</time>
      </trkpt>
      <trkpt lat="45.74734" lon="4.71118">
        <ele>305.8</ele>
        <time>2022-06-26T14:30:03Z</time>
      </trkpt>
      <trkpt lat="45.74734" lon="4.7113">
        <ele>305.4</ele>
        <time>2022-06-26T14:30:04Z</time>
      </trkpt>
      <trkpt lat="45.74734" lon="4.71143">
        <ele>305</ele>
        <time>2022-06-26T14:30:05Z</time>
      </trkpt>
      <trkpt lat="45.74734" lon="4.71156">
        <ele>304.6</ele>
        <time>2022-06-26T14:30:06Z</time>
      </trkpt>
      <trkpt lat="45.74734" lon="4.7117">
        <ele>304.2</ele>
        <time>2022-06-26T14:30:07Z</time>
      </trkpt>
      <trkpt lat="45.74734" lon="4.71184">
        <ele>304</ele>
        <time>2022-06-26T14:30:08Z</time>
      </trkpt>
      <trkpt lat="45.74734" lon="4.71199">
        <ele>303.6</ele>
        <time>2022-06-26T14:30:09Z</time>
      </trkpt>
      <trkpt lat="45.74734" lon="4.71213">
        <ele>303.2</ele>
        <time>2022-06-26T14:30:10Z</time>
      </trkpt>
      <trkpt lat="45.74735" lon="4.71228">
        <ele>302.8</ele>
        <time>2022-06-26T14:30:11Z</time>
      </trkpt>
      <trkpt lat="45.74735" lon="4.7124">
        <ele>302.4</ele>
        <time>2022-06-26T14:30:12Z</time>
      </trkpt>
      <trkpt lat="45.74735" lon="4.71255">
        <ele>302.2</ele>
        <time>2022-06-26T14:30:13Z</time>
      </trkpt>
      <trkpt lat="45.74734" lon="4.71269">
        <ele>301.6</ele>
        <time>2022-06-26T14:30:14Z</time>
      </trkpt>
      <trkpt lat="45.74735" lon="4.71283">
        <ele>301.2</ele>
        <time>2022-06-26T14:30:15Z</time>
      </trkpt>
      <trkpt lat="45.74735" lon="4.71297">
        <ele>300.8</ele>
        <time>2022-06-26T14:30:16Z</time>
      </trkpt>
      <trkpt lat="45.74735" lon="4.71311">
        <ele>300.6</ele>
        <time>2022-06-26T14:30:17Z</time>
      </trkpt>
      <trkpt lat="45.74735" lon="4.71325">
        <ele>300.2</ele>
        <time>2022-06-26T14:30:18Z</time>
      </trkpt>
      <trkpt lat="45.74736" lon="4.71339">
        <ele>299.8</ele>
        <time>2022-06-26T14:30:19Z</time>
      </trkpt>
      <trkpt lat="45.74736" lon="4.71354">
        <ele>299.4</ele>
        <time>2022-06-26T14:30:20Z</time>
      </trkpt>
      <trkpt lat="45.74736" lon="4.71369">
        <ele>299</ele>
        <time>2022-06-26T14:30:21Z</time>
      </trkpt>
      <trkpt lat="45.74736" lon="4.71383">
        <ele>298.8</ele>
        <time>2022-06-26T14:30:22Z</time>
      </trkpt>
      <trkpt lat="45.74735" lon="4.71398">
        <ele>298.8</ele>
        <time>2022-06-26T14:30:23Z</time>
      </trkpt>
      <trkpt lat="45.74735" lon="4.71412">
        <ele>298.4</ele>
        <time>2022-06-26T14:30:24Z</time>
      </trkpt>
      <trkpt lat="45.74736" lon="4.71426">
        <ele>298</ele>
        <time>2022-06-26T14:30:25Z</time>
      </trkpt>
      <trkpt lat="45.74735" lon="4.71441">
        <ele>298</ele>
        <time>2022-06-26T14:30:26Z</time>
      </trkpt>
      <trkpt lat="45.74736" lon="4.71455">
        <ele>297.8</ele>
        <time>2022-06-26T14:30:27Z</time>
      </trkpt>
      <trkpt lat="45.74736" lon="4.71468">
        <ele>297.8</ele>
        <time>2022-06-26T14:30:28Z</time>
      </trkpt>
      <trkpt lat="45.74737" lon="4.71482">
        <ele>297.6</ele>
        <time>2022-06-26T14:30:29Z</time>
      </trkpt>
      <trkpt lat="45.74736" lon="4.71495">
        <ele>297.6</ele>
        <time>2022-06-26T14:30:30Z</time>
      </trkpt>
      <trkpt lat="45.74736" lon="4.71509">
        <ele>297.6</ele>
        <time>2022-06-26T14:30:31Z</time>
      </trkpt>
      <trkpt lat="45.74736" lon="4.71522">
        <ele>297.4</ele>
        <time>2022-06-26T14:30:32Z</time>
      </trkpt>
      <trkpt lat="45.74735" lon="4.71535">
        <ele>297.4</ele>
        <time>2022-06-26T14:30:33Z</time>
      </trkpt>
      <trkpt lat="45.74735" lon="4.71548">
        <ele>297.2</ele>
        <time>2022-06-26T14:30:34Z</time>
      </trkpt>
      <trkpt lat="45.74735" lon="4.71561">
        <ele>297.2</ele>
        <time>2022-06-26T14:30:35Z</time>
      </trkpt>
      <trkpt lat="45.74735" lon="4.71573">
        <ele>297.2</ele>
        <time>2022-06-26T14:30:36Z</time>
      </trkpt>
      <trkpt lat="45.74735" lon="4.71586">
        <ele>297.2</ele>
        <time>2022-06-26T14:30:37Z</time>
      </trkpt>
      <trkpt lat="45.74735" lon="4.71598">
        <ele>297.2</ele>
        <time>2022-06-26T14:30:38Z</time>
      </trkpt>
      <trkpt lat="45.74735" lon="4.7161">
        <ele>297.2</ele>
        <time>2022-06-26T14:30:39Z</time>
      </trkpt>
      <trkpt lat="45.74735" lon="4.71622">
        <ele>297.2</ele>
        <time>2022-06-26T14:30:40Z</time>
      </trkpt>
      <trkpt lat="45.74735" lon="4.71633">
        <ele>297</ele>
        <time>2022-06-26T14:30:41Z</time>
      </trkpt>
      <trkpt lat="45.74735" lon="4.71645">
        <ele>297</ele>
        <time>2022-06-26T14:30:42Z</time>
      </trkpt>
      <trkpt lat="45.74735" lon="4.71656">
        <ele>297</ele>
        <time>2022-06-26T14:30:43Z</time>
      </trkpt>
      <trkpt lat="45.74735" lon="4.71667">
        <ele>297</ele>
        <time>2022-06-26T14:30:44Z</time>
      </trkpt>
      <trkpt lat="45.74735" lon="4.71678">
        <ele>297</ele>
        <time>2022-06-26T14:30:45Z</time>
      </trkpt>
      <trkpt lat="45.74735" lon="4.71689">
        <ele>297</ele>
        <time>2022-06-26T14:30:46Z</time>
      </trkpt>
      <trkpt lat="45.74735" lon="4.717">
        <ele>297</ele>
        <time>2022-06-26T14:30:47Z</time>
      </trkpt>
      <trkpt lat="45.74735" lon="4.71712">
        <ele>297</ele>
        <time>2022-06-26T14:30:48Z</time>
      </trkpt>
      <trkpt lat="45.74735" lon="4.71722">
        <ele>297</ele>
        <time>2022-06-26T14:30:49Z</time>
      </trkpt>
      <trkpt lat="45.74735" lon="4.71733">
        <ele>297</ele>
        <time>2022-06-26T14:30:50Z</time>
      </trkpt>
      <trkpt lat="45.74736" lon="4.71745">
        <ele>297</ele>
        <time>2022-06-26T14:30:51Z</time>
      </trkpt>
      <trkpt lat="45.74736" lon="4.71755">
        <ele>297.2</ele>
        <time>2022-06-26T14:30:52Z</time>
      </trkpt>
      <trkpt lat="45.74736" lon="4.71765">
        <ele>297.2</ele>
        <time>2022-06-26T14:30:53Z</time>
      </trkpt>
      <trkpt lat="45.74736" lon="4.71774">
        <ele>297.2</ele>
        <time>2022-06-26T14:30:54Z</time>
      </trkpt>
      <trkpt lat="45.74736" lon="4.71784">
        <ele>297.2</ele>
        <time>2022-06-26T14:30:55Z</time>
      </trkpt>
      <trkpt lat="45.74736" lon="4.71793">
        <ele>297.2</ele>
        <time>2022-06-26T14:30:56Z</time>
      </trkpt>
      <trkpt lat="45.74736" lon="4.71803">
        <ele>297.2</ele>
        <time>2022-06-26T14:30:57Z</time>
      </trkpt>
      <trkpt lat="45.74736" lon="4.71813">
        <ele>297.2</ele>
        <time>2022-06-26T14:30:58Z</time>
      </trkpt>
      <trkpt lat="45.74737" lon="4.71822">
        <ele>297.2</ele>
        <time>2022-06-26T14:30:59Z</time>
      </trkpt>
      <trkpt lat="45.74738" lon="4.71832">
        <ele>297.2</ele>
        <time>2022-06-26T14:31:00Z</time>
      </trkpt>
      <trkpt lat="45.74738" lon="4.71841">
        <ele>297.2</ele>
        <time>2022-06-26T14:31:01Z</time>
      </trkpt>
      <trkpt lat="45.74738" lon="4.71851">
        <ele>297</ele>
        <time>2022-06-26T14:31:02Z</time>
      </trkpt>
      <trkpt lat="45.74738" lon="4.71861">
        <ele>296.6</ele>
        <time>2022-06-26T14:31:03Z</time>
      </trkpt>
      <trkpt lat="45.74738" lon="4.71872">
        <ele>296.6</ele>
        <time>2022-06-26T14:31:04Z</time>
      </trkpt>
      <trkpt lat="45.74738" lon="4.71883">
        <ele>296.4</ele>
        <time>2022-06-26T14:31:05Z</time>
      </trkpt>
      <trkpt lat="45.74738" lon="4.71894">
        <ele>296.4</ele>
        <time>2022-06-26T14:31:06Z</time>
      </trkpt>
      <trkpt lat="45.74738" lon="4.71904">
        <ele>296.4</ele>
        <time>2022-06-26T14:31:07Z</time>
      </trkpt>
      <trkpt lat="45.74738" lon="4.71915">
        <ele>296.4</ele>
        <time>2022-06-26T14:31:08Z</time>
      </trkpt>
      <trkpt lat="45.74738" lon="4.71926">
        <ele>296.2</ele>
        <time>2022-06-26T14:31:09Z</time>
      </trkpt>
      <trkpt lat="45.74738" lon="4.71937">
        <ele>296.2</ele>
        <time>2022-06-26T14:31:10Z</time>
      </trkpt>
      <trkpt lat="45.74738" lon="4.71948">
        <ele>296</ele>
        <time>2022-06-26T14:31:11Z</time>
      </trkpt>
      <trkpt lat="45.74738" lon="4.71958">
        <ele>296</ele>
        <time>2022-06-26T14:31:12Z</time>
      </trkpt>
      <trkpt lat="45.74738" lon="4.71969">
        <ele>296</ele>
        <time>2022-06-26T14:31:13Z</time>
      </trkpt>
      <trkpt lat="45.74738" lon="4.7198">
        <ele>296</ele>
        <time>2022-06-26T14:31:14Z</time>
      </trkpt>
      <trkpt lat="45.74738" lon="4.7199">
        <ele>296</ele>
        <time>2022-06-26T14:31:15Z</time>
      </trkpt>
      <trkpt lat="45.74738" lon="4.72001">
        <ele>295.8</ele>
        <time>2022-06-26T14:31:16Z</time>
      </trkpt>
      <trkpt lat="45.74738" lon="4.72012">
        <ele>295.8</ele>
        <time>2022-06-26T14:31:17Z</time>
      </trkpt>
      <trkpt lat="45.74738" lon="4.72022">
        <ele>295.8</ele>
        <time>2022-06-26T14:31:18Z</time>
      </trkpt>
      <trkpt lat="45.74738" lon="4.72033">
        <ele>295.4</ele>
        <time>2022-06-26T14:31:19Z</time>
      </trkpt>
      <trkpt lat="45.74738" lon="4.72043">
        <ele>295.4</ele>
        <time>2022-06-26T14:31:20Z</time>
      </trkpt>
      <trkpt lat="45.74738" lon="4.72053">
        <ele>295.4</ele>
        <time>2022-06-26T14:31:21Z</time>
      </trkpt>
      <trkpt lat="45.74738" lon="4.72062">
        <ele>295</ele>
        <time>2022-06-26T14:31:22Z</time>
      </trkpt>
      <trkpt lat="45.74738" lon="4.72071">
        <ele>295</ele>
        <time>2022-06-26T14:31:23Z</time>
      </trkpt>
      <trkpt lat="45.74738" lon="4.72081">
        <ele>295</ele>
        <time>2022-06-26T14:31:24Z</time>
      </trkpt>
      <trkpt lat="45.74737" lon="4.7209">
        <ele>294.8</ele>
        <time>2022-06-26T14:31:25Z</time>
      </trkpt>
      <trkpt lat="45.74737" lon="4.721">
        <ele>294.8</ele>
        <time>2022-06-26T14:31:26Z</time>
      </trkpt>
      <trkpt lat="45.74738" lon="4.72109">
        <ele>294.8</ele>
        <time>2022-06-26T14:31:27Z</time>
      </trkpt>
      <trkpt lat="45.74738" lon="4.72119">
        <ele>294.6</ele>
        <time>2022-06-26T14:31:28Z</time>
      </trkpt>
      <trkpt lat="45.74737" lon="4.7213">
        <ele>294.6</ele>
        <time>2022-06-26T14:31:29Z</time>
      </trkpt>
      <trkpt lat="45.74737" lon="4.7214">
        <ele>294.6</ele>
        <time>2022-06-26T14:31:30Z</time>
      </trkpt>
      <trkpt lat="45.74737" lon="4.72149">
        <ele>294.4</ele>
        <time>2022-06-26T14:31:31Z</time>
      </trkpt>
      <trkpt lat="45.74737" lon="4.72159">
        <ele>294.4</ele>
        <time>2022-06-26T14:31:32Z</time>
      </trkpt>
      <trkpt lat="45.74737" lon="4.7217">
        <ele>294.2</ele>
        <time>2022-06-26T14:31:33Z</time>
      </trkpt>
      <trkpt lat="45.74738" lon="4.7218">
        <ele>294.2</ele>
        <time>2022-06-26T14:31:34Z</time>
      </trkpt>
      <trkpt lat="45.74738" lon="4.72191">
        <ele>294.2</ele>
        <time>2022-06-26T14:31:35Z</time>
      </trkpt>
      <trkpt lat="45.74738" lon="4.72201">
        <ele>293.8</ele>
        <time>2022-06-26T14:31:36Z</time>
      </trkpt>
      <trkpt lat="45.74738" lon="4.72212">
        <ele>293.6</ele>
        <time>2022-06-26T14:31:37Z</time>
      </trkpt>
      <trkpt lat="45.74738" lon="4.72223">
        <ele>293.2</ele>
        <time>2022-06-26T14:31:38Z</time>
      </trkpt>
      <trkpt lat="45.74738" lon="4.72234">
        <ele>293</ele>
        <time>2022-06-26T14:31:39Z</time>
      </trkpt>
      <trkpt lat="45.74738" lon="4.72245">
        <ele>293</ele>
        <time>2022-06-26T14:31:40Z</time>
      </trkpt>
      <trkpt lat="45.74738" lon="4.72255">
        <ele>292.8</ele>
        <time>2022-06-26T14:31:41Z</time>
      </trkpt>
      <trkpt lat="45.74738" lon="4.72266">
        <ele>292.6</ele>
        <time>2022-06-26T14:31:42Z</time>
      </trkpt>
      <trkpt lat="45.74738" lon="4.72277">
        <ele>292.6</ele>
        <time>2022-06-26T14:31:43Z</time>
      </trkpt>
      <trkpt lat="45.74738" lon="4.72288">
        <ele>292.2</ele>
        <time>2022-06-26T14:31:44Z</time>
      </trkpt>
      <trkpt lat="45.74738" lon="4.72298">
        <ele>292.2</ele>
        <time>2022-06-26T14:31:45Z</time>
      </trkpt>
      <trkpt lat="45.74738" lon="4.72308">
        <ele>292</ele>
        <time>2022-06-26T14:31:46Z</time>
      </trkpt>
      <trkpt lat="45.74739" lon="4.72318">
        <ele>292</ele>
        <time>2022-06-26T14:31:47Z</time>
      </trkpt>
      <trkpt lat="45.74739" lon="4.72328">
        <ele>292</ele>
        <time>2022-06-26T14:31:48Z</time>
      </trkpt>
      <trkpt lat="45.74739" lon="4.72339">
        <ele>292</ele>
        <time>2022-06-26T14:31:49Z</time>
      </trkpt>
      <trkpt lat="45.74739" lon="4.72348">
        <ele>291.8</ele>
        <time>2022-06-26T14:31:50Z</time>
      </trkpt>
      <trkpt lat="45.74739" lon="4.72358">
        <ele>291.8</ele>
        <time>2022-06-26T14:31:51Z</time>
      </trkpt>
      <trkpt lat="45.74739" lon="4.72368">
        <ele>291.8</ele>
        <time>2022-06-26T14:31:52Z</time>
      </trkpt>
      <trkpt lat="45.74739" lon="4.72377">
        <ele>291.8</ele>
        <time>2022-06-26T14:31:53Z</time>
      </trkpt>
      <trkpt lat="45.74739" lon="4.72387">
        <ele>291.8</ele>
        <time>2022-06-26T14:31:54Z</time>
      </trkpt>
      <trkpt lat="45.74739" lon="4.72396">
        <ele>291.8</ele>
        <time>2022-06-26T14:31:55Z</time>
      </trkpt>
      <trkpt lat="45.74739" lon="4.72405">
        <ele>291.8</ele>
        <time>2022-06-26T14:31:56Z</time>
      </trkpt>
      <trkpt lat="45.74739" lon="4.72414">
        <ele>291.8</ele>
        <time>2022-06-26T14:31:57Z</time>
      </trkpt>
      <trkpt lat="45.74739" lon="4.72423">
        <ele>291.8</ele>
        <time>2022-06-26T14:31:58Z</time>
      </trkpt>
      <trkpt lat="45.74739" lon="4.72431">
        <ele>291.8</ele>
        <time>2022-06-26T14:31:59Z</time>
      </trkpt>
      <trkpt lat="45.74738" lon="4.7244">
        <ele>291.8</ele>
        <time>2022-06-26T14:32:00Z</time>
      </trkpt>
      <trkpt lat="45.74738" lon="4.72449">
        <ele>291.8</ele>
        <time>2022-06-26T14:32:01Z</time>
      </trkpt>
      <trkpt lat="45.74739" lon="4.72458">
        <ele>291.8</ele>
        <time>2022-06-26T14:32:02Z</time>
      </trkpt>
      <trkpt lat="45.74739" lon="4.72466">
        <ele>291.8</ele>
        <time>2022-06-26T14:32:03Z</time>
      </trkpt>
      <trkpt lat="45.74739" lon="4.72475">
        <ele>291.8</ele>
        <time>2022-06-26T14:32:04Z</time>
      </trkpt>
      <trkpt lat="45.7474" lon="4.72484">
        <ele>292</ele>
        <time>2022-06-26T14:32:05Z</time>
      </trkpt>
      <trkpt lat="45.7474" lon="4.72492">
        <ele>292</ele>
        <time>2022-06-26T14:32:06Z</time>
      </trkpt>
      <trkpt lat="45.7474" lon="4.72501">
        <ele>292</ele>
        <time>2022-06-26T14:32:07Z</time>
      </trkpt>
      <trkpt lat="45.74739" lon="4.7251">
        <ele>292</ele>
        <time>2022-06-26T14:32:08Z</time>
      </trkpt>
      <trkpt lat="45.74739" lon="4.72519">
        <ele>292</ele>
        <time>2022-06-26T14:32:09Z</time>
      </trkpt>
      <trkpt lat="45.74739" lon="4.72528">
        <ele>292</ele>
        <time>2022-06-26T14:32:10Z</time>
      </trkpt>
      <trkpt lat="45.74739" lon="4.72536">
        <ele>292</ele>
        <time>2022-06-26T14:32:11Z</time>
      </trkpt>
      <trkpt lat="45.74739" lon="4.72545">
        <ele>292</ele>
        <time>2022-06-26T14:32:12Z</time>
      </trkpt>
      <trkpt lat="45.74739" lon="4.72554">
        <ele>292</ele>
        <time>2022-06-26T14:32:13Z</time>
      </trkpt>
      <trkpt lat="45.74739" lon="4.72563">
        <ele>292</ele>
        <time>2022-06-26T14:32:14Z</time>
      </trkpt>
      <trkpt lat="45.7474" lon="4.72573">
        <ele>292</ele>
        <time>2022-06-26T14:32:15Z</time>
      </trkpt>
      <trkpt lat="45.7474" lon="4.72582">
        <ele>292</ele>
        <time>2022-06-26T14:32:16Z</time>
      </trkpt>
      <trkpt lat="45.7474" lon="4.72591">
        <ele>292</ele>
        <time>2022-06-26T14:32:17Z</time>
      </trkpt>
      <trkpt lat="45.7474" lon="4.72601">
        <ele>292</ele>
        <time>2022-06-26T14:32:18Z</time>
      </trkpt>
      <trkpt lat="45.7474" lon="4.7261">
        <ele>292</ele>
        <time>2022-06-26T14:32:19Z</time>
      </trkpt>
      <trkpt lat="45.7474" lon="4.7262">
        <ele>292</ele>
        <time>2022-06-26T14:32:20Z</time>
      </trkpt>
      <trkpt lat="45.7474" lon="4.7263">
        <ele>292</ele>
        <time>2022-06-26T14:32:21Z</time>
      </trkpt>
      <trkpt lat="45.7474" lon="4.7264">
        <ele>292</ele>
        <time>2022-06-26T14:32:22Z</time>
      </trkpt>
      <trkpt lat="45.7474" lon="4.7265">
        <ele>291.6</ele>
        <time>2022-06-26T14:32:23Z</time>
      </trkpt>
      <trkpt lat="45.74739" lon="4.7266">
        <ele>291.6</ele>
        <time>2022-06-26T14:32:24Z</time>
      </trkpt>
      <trkpt lat="45.74739" lon="4.7267">
        <ele>291.4</ele>
        <time>2022-06-26T14:32:25Z</time>
      </trkpt>
      <trkpt lat="45.74739" lon="4.7268">
        <ele>291.4</ele>
        <time>2022-06-26T14:32:26Z</time>
      </trkpt>
      <trkpt lat="45.74739" lon="4.7269">
        <ele>291.4</ele>
        <time>2022-06-26T14:32:27Z</time>
      </trkpt>
      <trkpt lat="45.74739" lon="4.727">
        <ele>291.4</ele>
        <time>2022-06-26T14:32:28Z</time>
      </trkpt>
      <trkpt lat="45.74739" lon="4.7271">
        <ele>291.4</ele>
        <time>2022-06-26T14:32:29Z</time>
      </trkpt>
      <trkpt lat="45.74739" lon="4.72719">
        <ele>291.2</ele>
        <time>2022-06-26T14:32:30Z</time>
      </trkpt>
      <trkpt lat="45.74739" lon="4.72728">
        <ele>291.2</ele>
        <time>2022-06-26T14:32:31Z</time>
      </trkpt>
      <trkpt lat="45.74739" lon="4.72737">
        <ele>291.2</ele>
        <time>2022-06-26T14:32:32Z</time>
      </trkpt>
      <trkpt lat="45.74739" lon="4.72746">
        <ele>291.2</ele>
        <time>2022-06-26T14:32:33Z</time>
      </trkpt>
      <trkpt lat="45.74739" lon="4.72754">
        <ele>291</ele>
        <time>2022-06-26T14:32:34Z</time>
      </trkpt>
      <trkpt lat="45.74738" lon="4.72762">
        <ele>291</ele>
        <time>2022-06-26T14:32:35Z</time>
      </trkpt>
      <trkpt lat="45.74738" lon="4.72768">
        <ele>291</ele>
        <time>2022-06-26T14:32:36Z</time>
      </trkpt>
      <trkpt lat="45.74738" lon="4.72774">
        <ele>290.6</ele>
        <time>2022-06-26T14:32:37Z</time>
      </trkpt>
      <trkpt lat="45.74738" lon="4.7278">
        <ele>290.6</ele>
        <time>2022-06-26T14:32:38Z</time>
      </trkpt>
      <trkpt lat="45.74737" lon="4.72785">
        <ele>290.6</ele>
        <time>2022-06-26T14:32:39Z</time>
      </trkpt>
      <trkpt lat="45.74737" lon="4.72791">
        <ele>290.6</ele>
        <time>2022-06-26T14:32:40Z</time>
      </trkpt>
      <trkpt lat="45.74737" lon="4.72796">
        <ele>290.4</ele>
        <time>2022-06-26T14:32:41Z</time>
      </trkpt>
      <trkpt lat="45.74737" lon="4.72801">
        <ele>290.4</ele>
        <time>2022-06-26T14:32:42Z</time>
      </trkpt>
      <trkpt lat="45.74737" lon="4.72806">
        <ele>290.4</ele>
        <time>2022-06-26T14:32:43Z</time>
      </trkpt>
      <trkpt lat="45.74737" lon="4.72811">
        <ele>290</ele>
        <time>2022-06-26T14:32:44Z</time>
      </trkpt>
      <trkpt lat="45.74738" lon="4.72815">
        <ele>290</ele>
        <time>2022-06-26T14:32:45Z</time>
      </trkpt>
      <trkpt lat="45.74738" lon="4.7282">
        <ele>290</ele>
        <time>2022-06-26T14:32:46Z</time>
      </trkpt>
      <trkpt lat="45.74737" lon="4.72825">
        <ele>289.8</ele>
        <time>2022-06-26T14:32:47Z</time>
      </trkpt>
      <trkpt lat="45.74738" lon="4.72832">
        <ele>289.8</ele>
        <time>2022-06-26T14:32:48Z</time>
      </trkpt>
      <trkpt lat="45.74737" lon="4.7284">
        <ele>289.4</ele>
        <time>2022-06-26T14:32:49Z</time>
      </trkpt>
      <trkpt lat="45.74738" lon="4.72848">
        <ele>289.4</ele>
        <time>2022-06-26T14:32:50Z</time>
      </trkpt>
      <trkpt lat="45.74738" lon="4.72858">
        <ele>289.2</ele>
        <time>2022-06-26T14:32:51Z</time>
      </trkpt>
      <trkpt lat="45.74738" lon="4.72867">
        <ele>289.2</ele>
        <time>2022-06-26T14:32:52Z</time>
      </trkpt>
      <trkpt lat="45.74739" lon="4.72878">
        <ele>288.8</ele>
        <time>2022-06-26T14:32:53Z</time>
      </trkpt>
      <trkpt lat="45.74739" lon="4.72889">
        <ele>288.8</ele>
        <time>2022-06-26T14:32:54Z</time>
      </trkpt>
      <trkpt lat="45.74739" lon="4.729">
        <ele>288.4</ele>
        <time>2022-06-26T14:32:55Z</time>
      </trkpt>
      <trkpt lat="45.74739" lon="4.72912">
        <ele>288.2</ele>
        <time>2022-06-26T14:32:56Z</time>
      </trkpt>
      <trkpt lat="45.74739" lon="4.72925">
        <ele>287.8</ele>
        <time>2022-06-26T14:32:57Z</time>
      </trkpt>
      <trkpt lat="45.74739" lon="4.72937">
        <ele>287.6</ele>
        <time>2022-06-26T14:32:58Z</time>
      </trkpt>
      <trkpt lat="45.74739" lon="4.7295">
        <ele>287.2</ele>
        <time>2022-06-26T14:32:59Z</time>
      </trkpt>
      <trkpt lat="45.74739" lon="4.72965">
        <ele>287</ele>
        <time>2022-06-26T14:33:00Z</time>
      </trkpt>
      <trkpt lat="45.74738" lon="4.72979">
        <ele>286.6</ele>
        <time>2022-06-26T14:33:01Z</time>
      </trkpt>
      <trkpt lat="45.74738" lon="4.72994">
        <ele>286.2</ele>
        <time>2022-06-26T14:33:02Z</time>
      </trkpt>
      <trkpt lat="45.74737" lon="4.73008">
        <ele>285.8</ele>
        <time>2022-06-26T14:33:03Z</time>
      </trkpt>
      <trkpt lat="45.74737" lon="4.73022">
        <ele>285.4</ele>
        <time>2022-06-26T14:33:04Z</time>
      </trkpt>
      <trkpt lat="45.74737" lon="4.73037">
        <ele>284.8</ele>
        <time>2022-06-26T14:33:05Z</time>
      </trkpt>
      <trkpt lat="45.74737" lon="4.73052">
        <ele>284.4</ele>
        <time>2022-06-26T14:33:06Z</time>
      </trkpt>
      <trkpt lat="45.74737" lon="4.73066">
        <ele>284</ele>
        <time>2022-06-26T14:33:07Z</time>
      </trkpt>
      <trkpt lat="45.74737" lon="4.7308">
        <ele>283.6</ele>
        <time>2022-06-26T14:33:08Z</time>
      </trkpt>
      <trkpt lat="45.74737" lon="4.73095">
        <ele>283.4</ele>
        <time>2022-06-26T14:33:09Z</time>
      </trkpt>
      <trkpt lat="45.74736" lon="4.73109">
        <ele>283</ele>
        <time>2022-06-26T14:33:10Z</time>
      </trkpt>
      <trkpt lat="45.74736" lon="4.73121">
        <ele>282.8</ele>
        <time>2022-06-26T14:33:11Z</time>
      </trkpt>
      <trkpt lat="45.74736" lon="4.73135">
        <ele>282.6</ele>
        <time>2022-06-26T14:33:12Z</time>
      </trkpt>
      <trkpt lat="45.74736" lon="4.73148">
        <ele>282.4</ele>
        <time>2022-06-26T14:33:13Z</time>
      </trkpt>
      <trkpt lat="45.74735" lon="4.73161">
        <ele>282.4</ele>
        <time>2022-06-26T14:33:14Z</time>
      </trkpt>
      <trkpt lat="45.74735" lon="4.73172">
        <ele>282</ele>
        <time>2022-06-26T14:33:15Z</time>
      </trkpt>
      <trkpt lat="45.74735" lon="4.73183">
        <ele>282</ele>
        <time>2022-06-26T14:33:16Z</time>
      </trkpt>
      <trkpt lat="45.74734" lon="4.73193">
        <ele>281.6</ele>
        <time>2022-06-26T14:33:17Z</time>
      </trkpt>
      <trkpt lat="45.74732" lon="4.73202">
        <ele>281.6</ele>
        <time>2022-06-26T14:33:18Z</time>
      </trkpt>
      <trkpt lat="45.74727" lon="4.73209">
        <ele>281.2</ele>
        <time>2022-06-26T14:33:19Z</time>
      </trkpt>
      <trkpt lat="45.74723" lon="4.73215">
        <ele>281.2</ele>
        <time>2022-06-26T14:33:20Z</time>
      </trkpt>
      <trkpt lat="45.7472" lon="4.73223">
        <ele>281.2</ele>
        <time>2022-06-26T14:33:21Z</time>
      </trkpt>
      <trkpt lat="45.74719" lon="4.73231">
        <ele>281</ele>
        <time>2022-06-26T14:33:23Z</time>
      </trkpt>
      <trkpt lat="45.7472" lon="4.73238">
        <ele>281</ele>
        <time>2022-06-26T14:33:24Z</time>
      </trkpt>
      <trkpt lat="45.74723" lon="4.73245">
        <ele>280.6</ele>
        <time>2022-06-26T14:33:25Z</time>
      </trkpt>
      <trkpt lat="45.74727" lon="4.73251">
        <ele>280.6</ele>
        <time>2022-06-26T14:33:26Z</time>
      </trkpt>
      <trkpt lat="45.74731" lon="4.73258">
        <ele>280.6</ele>
        <time>2022-06-26T14:33:27Z</time>
      </trkpt>
      <trkpt lat="45.74734" lon="4.73265">
        <ele>280.6</ele>
        <time>2022-06-26T14:33:28Z</time>
      </trkpt>
      <trkpt lat="45.74735" lon="4.73273">
        <ele>280.6</ele>
        <time>2022-06-26T14:33:29Z</time>
      </trkpt>
      <trkpt lat="45.74736" lon="4.73282">
        <ele>280.6</ele>
        <time>2022-06-26T14:33:30Z</time>
      </trkpt>
      <trkpt lat="45.74736" lon="4.7329">
        <ele>280.6</ele>
        <time>2022-06-26T14:33:31Z</time>
      </trkpt>
      <trkpt lat="45.74736" lon="4.73299">
        <ele>280.6</ele>
        <time>2022-06-26T14:33:32Z</time>
      </trkpt>
      <trkpt lat="45.74735" lon="4.73308">
        <ele>280.6</ele>
        <time>2022-06-26T14:33:33Z</time>
      </trkpt>
      <trkpt lat="45.74735" lon="4.73317">
        <ele>280.4</ele>
        <time>2022-06-26T14:33:34Z</time>
      </trkpt>
      <trkpt lat="45.74735" lon="4.73326">
        <ele>280.4</ele>
        <time>2022-06-26T14:33:35Z</time>
      </trkpt>
      <trkpt lat="45.74735" lon="4.73336">
        <ele>280.4</ele>
        <time>2022-06-26T14:33:36Z</time>
      </trkpt>
      <trkpt lat="45.74735" lon="4.73345">
        <ele>280.4</ele>
        <time>2022-06-26T14:33:37Z</time>
      </trkpt>
      <trkpt lat="45.74735" lon="4.73355">
        <ele>280.4</ele>
        <time>2022-06-26T14:33:38Z</time>
      </trkpt>
      <trkpt lat="45.74735" lon="4.73364">
        <ele>280.4</ele>
        <time>2022-06-26T14:33:39Z</time>
      </trkpt>
      <trkpt lat="45.74735" lon="4.73374">
        <ele>280.4</ele>
        <time>2022-06-26T14:33:40Z</time>
      </trkpt>
      <trkpt lat="45.74735" lon="4.73384">
        <ele>280.4</ele>
        <time>2022-06-26T14:33:41Z</time>
      </trkpt>
      <trkpt lat="45.74735" lon="4.73393">
        <ele>280.4</ele>
        <time>2022-06-26T14:33:42Z</time>
      </trkpt>
      <trkpt lat="45.74735" lon="4.73402">
        <ele>280.4</ele>
        <time>2022-06-26T14:33:43Z</time>
      </trkpt>
      <trkpt lat="45.74735" lon="4.73412">
        <ele>280.4</ele>
        <time>2022-06-26T14:33:44Z</time>
      </trkpt>
      <trkpt lat="45.74735" lon="4.73421">
        <ele>280.4</ele>
        <time>2022-06-26T14:33:45Z</time>
      </trkpt>
      <trkpt lat="45.74735" lon="4.7343">
        <ele>280.4</ele>
        <time>2022-06-26T14:33:46Z</time>
      </trkpt>
      <trkpt lat="45.74735" lon="4.73439">
        <ele>280.4</ele>
        <time>2022-06-26T14:33:47Z</time>
      </trkpt>
      <trkpt lat="45.74735" lon="4.73448">
        <ele>280.8</ele>
        <time>2022-06-26T14:33:48Z</time>
      </trkpt>
      <trkpt lat="45.74735" lon="4.73457">
        <ele>280.8</ele>
        <time>2022-06-26T14:33:49Z</time>
      </trkpt>
      <trkpt lat="45.74735" lon="4.73466">
        <ele>280.8</ele>
        <time>2022-06-26T14:33:50Z</time>
      </trkpt>
      <trkpt lat="45.74736" lon="4.73474">
        <ele>280.8</ele>
        <time>2022-06-26T14:33:51Z</time>
      </trkpt>
      <trkpt lat="45.74736" lon="4.73482">
        <ele>280.8</ele>
        <time>2022-06-26T14:33:52Z</time>
      </trkpt>
      <trkpt lat="45.74736" lon="4.7349">
        <ele>280.8</ele>
        <time>2022-06-26T14:33:53Z</time>
      </trkpt>
      <trkpt lat="45.74736" lon="4.73499">
        <ele>280.8</ele>
        <time>2022-06-26T14:33:54Z</time>
      </trkpt>
      <trkpt lat="45.74735" lon="4.73508">
        <ele>281</ele>
        <time>2022-06-26T14:33:55Z</time>
      </trkpt>
      <trkpt lat="45.74735" lon="4.73526">
        <ele>281</ele>
        <time>2022-06-26T14:33:56Z</time>
      </trkpt>
      <trkpt lat="45.74734" lon="4.73534">
        <ele>281</ele>
        <time>2022-06-26T14:33:57Z</time>
      </trkpt>
      <trkpt lat="45.74734" lon="4.73543">
        <ele>281.2</ele>
        <time>2022-06-26T14:33:58Z</time>
      </trkpt>
      <trkpt lat="45.74734" lon="4.73552">
        <ele>281.2</ele>
        <time>2022-06-26T14:33:59Z</time>
      </trkpt>
      <trkpt lat="45.74735" lon="4.73561">
        <ele>281.4</ele>
        <time>2022-06-26T14:34:00Z</time>
      </trkpt>
      <trkpt lat="45.74735" lon="4.73569">
        <ele>281.4</ele>
        <time>2022-06-26T14:34:01Z</time>
      </trkpt>
      <trkpt lat="45.74735" lon="4.73578">
        <ele>281.8</ele>
        <time>2022-06-26T14:34:02Z</time>
      </trkpt>
      <trkpt lat="45.74735" lon="4.73586">
        <ele>281.8</ele>
        <time>2022-06-26T14:34:03Z</time>
      </trkpt>
      <trkpt lat="45.74735" lon="4.73595">
        <ele>281.8</ele>
        <time>2022-06-26T14:34:04Z</time>
      </trkpt>
      <trkpt lat="45.74736" lon="4.73603">
        <ele>282</ele>
        <time>2022-06-26T14:34:05Z</time>
      </trkpt>
      <trkpt lat="45.74736" lon="4.73612">
        <ele>282</ele>
        <time>2022-06-26T14:34:06Z</time>
      </trkpt>
      <trkpt lat="45.74736" lon="4.73619">
        <ele>282</ele>
        <time>2022-06-26T14:34:07Z</time>
      </trkpt>
      <trkpt lat="45.74736" lon="4.73627">
        <ele>282.2</ele>
        <time>2022-06-26T14:34:08Z</time>
      </trkpt>
      <trkpt lat="45.74736" lon="4.73635">
        <ele>282.2</ele>
        <time>2022-06-26T14:34:09Z</time>
      </trkpt>
      <trkpt lat="45.74736" lon="4.73643">
        <ele>282.2</ele>
        <time>2022-06-26T14:34:10Z</time>
      </trkpt>
      <trkpt lat="45.74736" lon="4.73651">
        <ele>282.4</ele>
        <time>2022-06-26T14:34:11Z</time>
      </trkpt>
      <trkpt lat="45.74736" lon="4.73659">
        <ele>282.4</ele>
        <time>2022-06-26T14:34:12Z</time>
      </trkpt>
      <trkpt lat="45.74736" lon="4.73668">
        <ele>282.4</ele>
        <time>2022-06-26T14:34:13Z</time>
      </trkpt>
      <trkpt lat="45.74736" lon="4.73676">
        <ele>282.4</ele>
        <time>2022-06-26T14:34:14Z</time>
      </trkpt>
      <trkpt lat="45.74736" lon="4.73684">
        <ele>282.4</ele>
        <time>2022-06-26T14:34:15Z</time>
      </trkpt>
      <trkpt lat="45.74736" lon="4.73693">
        <ele>282.4</ele>
        <time>2022-06-26T14:34:16Z</time>
      </trkpt>
      <trkpt lat="45.74736" lon="4.73702">
        <ele>282.4</ele>
        <time>2022-06-26T14:34:17Z</time>
      </trkpt>
      <trkpt lat="45.74736" lon="4.73711">
        <ele>282.4</ele>
        <time>2022-06-26T14:34:18Z</time>
      </trkpt>
      <trkpt lat="45.74736" lon="4.73721">
        <ele>282.4</ele>
        <time>2022-06-26T14:34:19Z</time>
      </trkpt>
      <trkpt lat="45.74736" lon="4.73731">
        <ele>282.4</ele>
        <time>2022-06-26T14:34:20Z</time>
      </trkpt>
      <trkpt lat="45.74736" lon="4.73741">
        <ele>282.2</ele>
        <time>2022-06-26T14:34:21Z</time>
      </trkpt>
      <trkpt lat="45.74736" lon="4.7375">
        <ele>281.8</ele>
        <time>2022-06-26T14:34:22Z</time>
      </trkpt>
      <trkpt lat="45.74736" lon="4.73761">
        <ele>281.6</ele>
        <time>2022-06-26T14:34:23Z</time>
      </trkpt>
      <trkpt lat="45.74736" lon="4.73771">
        <ele>281.6</ele>
        <time>2022-06-26T14:34:24Z</time>
      </trkpt>
      <trkpt lat="45.74736" lon="4.73782">
        <ele>281.2</ele>
        <time>2022-06-26T14:34:25Z</time>
      </trkpt>
      <trkpt lat="45.74736" lon="4.73792">
        <ele>281.2</ele>
        <time>2022-06-26T14:34:26Z</time>
      </trkpt>
      <trkpt lat="45.74736" lon="4.73803">
        <ele>281.2</ele>
        <time>2022-06-26T14:34:27Z</time>
      </trkpt>
      <trkpt lat="45.74736" lon="4.73814">
        <ele>280.8</ele>
        <time>2022-06-26T14:34:28Z</time>
      </trkpt>
      <trkpt lat="45.74736" lon="4.73825">
        <ele>280.6</ele>
        <time>2022-06-26T14:34:29Z</time>
      </trkpt>
      <trkpt lat="45.74736" lon="4.73836">
        <ele>280.6</ele>
        <time>2022-06-26T14:34:30Z</time>
      </trkpt>
      <trkpt lat="45.74736" lon="4.73847">
        <ele>280.2</ele>
        <time>2022-06-26T14:34:31Z</time>
      </trkpt>
      <trkpt lat="45.74736" lon="4.73858">
        <ele>279.8</ele>
        <time>2022-06-26T14:34:32Z</time>
      </trkpt>
      <trkpt lat="45.74736" lon="4.73869">
        <ele>279.6</ele>
        <time>2022-06-26T14:34:33Z</time>
      </trkpt>
      <trkpt lat="45.74736" lon="4.7388">
        <ele>279.4</ele>
        <time>2022-06-26T14:34:34Z</time>
      </trkpt>
      <trkpt lat="45.74736" lon="4.73891">
        <ele>279.4</ele>
        <time>2022-06-26T14:34:35Z</time>
      </trkpt>
      <trkpt lat="45.74736" lon="4.73902">
        <ele>278.8</ele>
        <time>2022-06-26T14:34:36Z</time>
      </trkpt>
      <trkpt lat="45.74736" lon="4.73913">
        <ele>278.4</ele>
        <time>2022-06-26T14:34:37Z</time>
      </trkpt>
      <trkpt lat="45.74735" lon="4.73925">
        <ele>278.2</ele>
        <time>2022-06-26T14:34:38Z</time>
      </trkpt>
      <trkpt lat="45.74733" lon="4.73936">
        <ele>278</ele>
        <time>2022-06-26T14:34:39Z</time>
      </trkpt>
      <trkpt lat="45.74731" lon="4.73947">
        <ele>278</ele>
        <time>2022-06-26T14:34:40Z</time>
      </trkpt>
      <trkpt lat="45.7473" lon="4.73958">
        <ele>277.6</ele>
        <time>2022-06-26T14:34:41Z</time>
      </trkpt>
      <trkpt lat="45.74729" lon="4.73969">
        <ele>277.4</ele>
        <time>2022-06-26T14:34:42Z</time>
      </trkpt>
      <trkpt lat="45.74729" lon="4.73981">
        <ele>277.4</ele>
        <time>2022-06-26T14:34:43Z</time>
      </trkpt>
      <trkpt lat="45.74729" lon="4.73992">
        <ele>277</ele>
        <time>2022-06-26T14:34:44Z</time>
      </trkpt>
      <trkpt lat="45.7473" lon="4.74004">
        <ele>277</ele>
        <time>2022-06-26T14:34:45Z</time>
      </trkpt>
      <trkpt lat="45.74731" lon="4.74015">
        <ele>276.6</ele>
        <time>2022-06-26T14:34:46Z</time>
      </trkpt>
      <trkpt lat="45.74733" lon="4.74027">
        <ele>276.6</ele>
        <time>2022-06-26T14:34:47Z</time>
      </trkpt>
      <trkpt lat="45.74734" lon="4.74039">
        <ele>276.4</ele>
        <time>2022-06-26T14:34:48Z</time>
      </trkpt>
      <trkpt lat="45.74734" lon="4.7405">
        <ele>276.4</ele>
        <time>2022-06-26T14:34:49Z</time>
      </trkpt>
      <trkpt lat="45.74734" lon="4.74062">
        <ele>276.2</ele>
        <time>2022-06-26T14:34:50Z</time>
      </trkpt>
      <trkpt lat="45.74734" lon="4.74074">
        <ele>276.2</ele>
        <time>2022-06-26T14:34:51Z</time>
      </trkpt>
      <trkpt lat="45.74734" lon="4.74085">
        <ele>275.8</ele>
        <time>2022-06-26T14:34:52Z</time>
      </trkpt>
      <trkpt lat="45.74735" lon="4.74096">
        <ele>275.8</ele>
        <time>2022-06-26T14:34:53Z</time>
      </trkpt>
      <trkpt lat="45.74735" lon="4.74107">
        <ele>275.8</ele>
        <time>2022-06-26T14:34:54Z</time>
      </trkpt>
      <trkpt lat="45.74735" lon="4.74117">
        <ele>275.6</ele>
        <time>2022-06-26T14:34:55Z</time>
      </trkpt>
      <trkpt lat="45.74735" lon="4.74128">
        <ele>275.6</ele>
        <time>2022-06-26T14:34:56Z</time>
      </trkpt>
      <trkpt lat="45.74735" lon="4.74138">
        <ele>275.6</ele>
        <time>2022-06-26T14:34:57Z</time>
      </trkpt>
      <trkpt lat="45.74735" lon="4.74148">
        <ele>275.2</ele>
        <time>2022-06-26T14:34:58Z</time>
      </trkpt>
      <trkpt lat="45.74735" lon="4.74157">
        <ele>275.2</ele>
        <time>2022-06-26T14:34:59Z</time>
      </trkpt>
      <trkpt lat="45.74735" lon="4.74166">
        <ele>275</ele>
        <time>2022-06-26T14:35:00Z</time>
      </trkpt>
      <trkpt lat="45.74736" lon="4.74175">
        <ele>275</ele>
        <time>2022-06-26T14:35:01Z</time>
      </trkpt>
      <trkpt lat="45.74736" lon="4.74183">
        <ele>275</ele>
        <time>2022-06-26T14:35:02Z</time>
      </trkpt>
      <trkpt lat="45.74736" lon="4.74191">
        <ele>274.8</ele>
        <time>2022-06-26T14:35:03Z</time>
      </trkpt>
      <trkpt lat="45.74736" lon="4.74198">
        <ele>274.8</ele>
        <time>2022-06-26T14:35:04Z</time>
      </trkpt>
      <trkpt lat="45.74736" lon="4.74205">
        <ele>274.6</ele>
        <time>2022-06-26T14:35:05Z</time>
      </trkpt>
      <trkpt lat="45.74736" lon="4.74211">
        <ele>274.6</ele>
        <time>2022-06-26T14:35:06Z</time>
      </trkpt>
      <trkpt lat="45.74736" lon="4.74217">
        <ele>274.6</ele>
        <time>2022-06-26T14:35:07Z</time>
      </trkpt>
      <trkpt lat="45.74736" lon="4.74221">
        <ele>274.2</ele>
        <time>2022-06-26T14:35:08Z</time>
      </trkpt>
      <trkpt lat="45.74736" lon="4.74224">
        <ele>274.2</ele>
        <time>2022-06-26T14:35:09Z</time>
      </trkpt>
      <trkpt lat="45.74736" lon="4.74227">
        <ele>274.2</ele>
        <time>2022-06-26T14:35:10Z</time>
      </trkpt>
      <trkpt lat="45.74735" lon="4.74233">
        <ele>274.2</ele>
        <time>2022-06-26T14:35:22Z</time>
      </trkpt>
      <trkpt lat="45.74735" lon="4.74236">
        <ele>274.2</ele>
        <time>2022-06-26T14:35:23Z</time>
      </trkpt>
      <trkpt lat="45.74735" lon="4.74241">
        <ele>274.2</ele>
        <time>2022-06-26T14:35:24Z</time>
      </trkpt>
      <trkpt lat="45.74735" lon="4.74247">
        <ele>274.2</ele>
        <time>2022-06-26T14:35:25Z</time>
      </trkpt>
      <trkpt lat="45.74734" lon="4.74254">
        <ele>274.2</ele>
        <time>2022-06-26T14:35:26Z</time>
      </trkpt>
      <trkpt lat="45.74734" lon="4.74261">
        <ele>274.2</ele>
        <time>2022-06-26T14:35:27Z</time>
      </trkpt>
      <trkpt lat="45.74734" lon="4.74269">
        <ele>274.2</ele>
        <time>2022-06-26T14:35:28Z</time>
      </trkpt>
      <trkpt lat="45.74734" lon="4.74277">
        <ele>274.2</ele>
        <time>2022-06-26T14:35:29Z</time>
      </trkpt>
      <trkpt lat="45.74734" lon="4.74286">
        <ele>274.2</ele>
        <time>2022-06-26T14:35:30Z</time>
      </trkpt>
      <trkpt lat="45.74734" lon="4.74295">
        <ele>274.2</ele>
        <time>2022-06-26T14:35:31Z</time>
      </trkpt>
      <trkpt lat="45.74734" lon="4.74305">
        <ele>274.2</ele>
        <time>2022-06-26T14:35:32Z</time>
      </trkpt>
      <trkpt lat="45.74734" lon="4.74315">
        <ele>274.2</ele>
        <time>2022-06-26T14:35:33Z</time>
      </trkpt>
      <trkpt lat="45.74734" lon="4.74325">
        <ele>274.2</ele>
        <time>2022-06-26T14:35:34Z</time>
      </trkpt>
      <trkpt lat="45.74734" lon="4.74335">
        <ele>274.2</ele>
        <time>2022-06-26T14:35:35Z</time>
      </trkpt>
      <trkpt lat="45.74734" lon="4.74345">
        <ele>274.2</ele>
        <time>2022-06-26T14:35:36Z</time>
      </trkpt>
      <trkpt lat="45.74734" lon="4.74355">
        <ele>274.2</ele>
        <time>2022-06-26T14:35:37Z</time>
      </trkpt>
      <trkpt lat="45.74735" lon="4.74365">
        <ele>274.2</ele>
        <time>2022-06-26T14:35:38Z</time>
      </trkpt>
      <trkpt lat="45.74735" lon="4.74375">
        <ele>274.2</ele>
        <time>2022-06-26T14:35:39Z</time>
      </trkpt>
      <trkpt lat="45.74736" lon="4.74385">
        <ele>274</ele>
        <time>2022-06-26T14:35:40Z</time>
      </trkpt>
      <trkpt lat="45.74736" lon="4.74395">
        <ele>274</ele>
        <time>2022-06-26T14:35:41Z</time>
      </trkpt>
      <trkpt lat="45.74736" lon="4.74406">
        <ele>274</ele>
        <time>2022-06-26T14:35:42Z</time>
      </trkpt>
      <trkpt lat="45.74736" lon="4.74416">
        <ele>274</ele>
        <time>2022-06-26T14:35:43Z</time>
      </trkpt>
      <trkpt lat="45.74736" lon="4.74426">
        <ele>273.8</ele>
        <time>2022-06-26T14:35:44Z</time>
      </trkpt>
      <trkpt lat="45.74736" lon="4.74437">
        <ele>273.8</ele>
        <time>2022-06-26T14:35:45Z</time>
      </trkpt>
      <trkpt lat="45.74735" lon="4.74447">
        <ele>273.8</ele>
        <time>2022-06-26T14:35:46Z</time>
      </trkpt>
      <trkpt lat="45.74736" lon="4.74457">
        <ele>273.8</ele>
        <time>2022-06-26T14:35:47Z</time>
      </trkpt>
      <trkpt lat="45.74736" lon="4.74468">
        <ele>273.8</ele>
        <time>2022-06-26T14:35:48Z</time>
      </trkpt>
      <trkpt lat="45.74736" lon="4.74478">
        <ele>273.8</ele>
        <time>2022-06-26T14:35:49Z</time>
      </trkpt>
      <trkpt lat="45.74736" lon="4.74488">
        <ele>273.8</ele>
        <time>2022-06-26T14:35:50Z</time>
      </trkpt>
      <trkpt lat="45.74736" lon="4.74498">
        <ele>273.8</ele>
        <time>2022-06-26T14:35:51Z</time>
      </trkpt>
      <trkpt lat="45.74736" lon="4.74508">
        <ele>273.8</ele>
        <time>2022-06-26T14:35:52Z</time>
      </trkpt>
      <trkpt lat="45.74735" lon="4.74518">
        <ele>273.8</ele>
        <time>2022-06-26T14:35:53Z</time>
      </trkpt>
      <trkpt lat="45.74735" lon="4.74529">
        <ele>273.8</ele>
        <time>2022-06-26T14:35:54Z</time>
      </trkpt>
      <trkpt lat="45.74735" lon="4.7454">
        <ele>273.8</ele>
        <time>2022-06-26T14:35:55Z</time>
      </trkpt>
      <trkpt lat="45.74735" lon="4.74551">
        <ele>273.8</ele>
        <time>2022-06-26T14:35:56Z</time>
      </trkpt>
      <trkpt lat="45.74736" lon="4.74561">
        <ele>273.6</ele>
        <time>2022-06-26T14:35:57Z</time>
      </trkpt>
      <trkpt lat="45.74736" lon="4.74572">
        <ele>273.6</ele>
        <time>2022-06-26T14:35:58Z</time>
      </trkpt>
      <trkpt lat="45.74736" lon="4.74583">
        <ele>273.6</ele>
        <time>2022-06-26T14:35:59Z</time>
      </trkpt>
      <trkpt lat="45.74736" lon="4.74594">
        <ele>273.6</ele>
        <time>2022-06-26T14:36:00Z</time>
      </trkpt>
      <trkpt lat="45.74736" lon="4.74605">
        <ele>273.4</ele>
        <time>2022-06-26T14:36:01Z</time>
      </trkpt>
      <trkpt lat="45.74736" lon="4.74616">
        <ele>273.4</ele>
        <time>2022-06-26T14:36:02Z</time>
      </trkpt>
      <trkpt lat="45.74736" lon="4.74627">
        <ele>273.4</ele>
        <time>2022-06-26T14:36:03Z</time>
      </trkpt>
      <trkpt lat="45.74736" lon="4.74638">
        <ele>273.4</ele>
        <time>2022-06-26T14:36:04Z</time>
      </trkpt>
      <trkpt lat="45.74736" lon="4.74648">
        <ele>273.4</ele>
        <time>2022-06-26T14:36:05Z</time>
      </trkpt>
      <trkpt lat="45.74736" lon="4.74659">
        <ele>273.4</ele>
        <time>2022-06-26T14:36:06Z</time>
      </trkpt>
      <trkpt lat="45.74736" lon="4.7467">
        <ele>273.4</ele>
        <time>2022-06-26T14:36:07Z</time>
      </trkpt>
      <trkpt lat="45.74736" lon="4.7468">
        <ele>273.2</ele>
        <time>2022-06-26T14:36:08Z</time>
      </trkpt>
      <trkpt lat="45.74736" lon="4.74691">
        <ele>273.2</ele>
        <time>2022-06-26T14:36:09Z</time>
      </trkpt>
      <trkpt lat="45.74737" lon="4.74702">
        <ele>273.2</ele>
        <time>2022-06-26T14:36:10Z</time>
      </trkpt>
      <trkpt lat="45.74737" lon="4.74712">
        <ele>273.2</ele>
        <time>2022-06-26T14:36:11Z</time>
      </trkpt>
      <trkpt lat="45.74737" lon="4.74722">
        <ele>273</ele>
        <time>2022-06-26T14:36:12Z</time>
      </trkpt>
      <trkpt lat="45.74737" lon="4.74732">
        <ele>273</ele>
        <time>2022-06-26T14:36:13Z</time>
      </trkpt>
      <trkpt lat="45.74737" lon="4.74743">
        <ele>273</ele>
        <time>2022-06-26T14:36:14Z</time>
      </trkpt>
      <trkpt lat="45.74737" lon="4.74753">
        <ele>272.6</ele>
        <time>2022-06-26T14:36:15Z</time>
      </trkpt>
      <trkpt lat="45.74737" lon="4.74763">
        <ele>272.6</ele>
        <time>2022-06-26T14:36:16Z</time>
      </trkpt>
      <trkpt lat="45.74737" lon="4.74774">
        <ele>272.2</ele>
        <time>2022-06-26T14:36:17Z</time>
      </trkpt>
      <trkpt lat="45.74737" lon="4.74785">
        <ele>272.2</ele>
        <time>2022-06-26T14:36:18Z</time>
      </trkpt>
      <trkpt lat="45.74737" lon="4.74796">
        <ele>271.8</ele>
        <time>2022-06-26T14:36:19Z</time>
      </trkpt>
      <trkpt lat="45.74737" lon="4.74808">
        <ele>271.6</ele>
        <time>2022-06-26T14:36:20Z</time>
      </trkpt>
      <trkpt lat="45.74737" lon="4.74819">
        <ele>271.2</ele>
        <time>2022-06-26T14:36:21Z</time>
      </trkpt>
      <trkpt lat="45.74737" lon="4.7483">
        <ele>271</ele>
        <time>2022-06-26T14:36:22Z</time>
      </trkpt>
      <trkpt lat="45.74737" lon="4.74843">
        <ele>270.8</ele>
        <time>2022-06-26T14:36:23Z</time>
      </trkpt>
      <trkpt lat="45.74737" lon="4.74855">
        <ele>270.4</ele>
        <time>2022-06-26T14:36:24Z</time>
      </trkpt>
      <trkpt lat="45.74737" lon="4.74867">
        <ele>270.2</ele>
        <time>2022-06-26T14:36:25Z</time>
      </trkpt>
      <trkpt lat="45.74736" lon="4.7488">
        <ele>269.8</ele>
        <time>2022-06-26T14:36:26Z</time>
      </trkpt>
      <trkpt lat="45.74736" lon="4.74892">
        <ele>269.6</ele>
        <time>2022-06-26T14:36:27Z</time>
      </trkpt>
      <trkpt lat="45.74736" lon="4.74905">
        <ele>269.2</ele>
        <time>2022-06-26T14:36:28Z</time>
      </trkpt>
      <trkpt lat="45.74736" lon="4.74917">
        <ele>269.2</ele>
        <time>2022-06-26T14:36:29Z</time>
      </trkpt>
      <trkpt lat="45.74736" lon="4.7493">
        <ele>268.8</ele>
        <time>2022-06-26T14:36:30Z</time>
      </trkpt>
      <trkpt lat="45.74736" lon="4.74942">
        <ele>268.4</ele>
        <time>2022-06-26T14:36:31Z</time>
      </trkpt>
      <trkpt lat="45.74736" lon="4.74955">
        <ele>268.2</ele>
        <time>2022-06-26T14:36:32Z</time>
      </trkpt>
      <trkpt lat="45.74736" lon="4.74967">
        <ele>268</ele>
        <time>2022-06-26T14:36:33Z</time>
      </trkpt>
      <trkpt lat="45.74736" lon="4.7498">
        <ele>267.6</ele>
        <time>2022-06-26T14:36:34Z</time>
      </trkpt>
      <trkpt lat="45.74737" lon="4.74992">
        <ele>267.2</ele>
        <time>2022-06-26T14:36:35Z</time>
      </trkpt>
      <trkpt lat="45.74737" lon="4.75005">
        <ele>266.8</ele>
        <time>2022-06-26T14:36:36Z</time>
      </trkpt>
      <trkpt lat="45.74737" lon="4.75018">
        <ele>266.4</ele>
        <time>2022-06-26T14:36:37Z</time>
      </trkpt>
      <trkpt lat="45.74737" lon="4.7503">
        <ele>266</ele>
        <time>2022-06-26T14:36:38Z</time>
      </trkpt>
      <trkpt lat="45.74737" lon="4.75043">
        <ele>265.8</ele>
        <time>2022-06-26T14:36:39Z</time>
      </trkpt>
      <trkpt lat="45.74737" lon="4.75056">
        <ele>265.6</ele>
        <time>2022-06-26T14:36:40Z</time>
      </trkpt>
      <trkpt lat="45.74737" lon="4.75068">
        <ele>265.4</ele>
        <time>2022-06-26T14:36:41Z</time>
      </trkpt>
      <trkpt lat="45.74737" lon="4.7508">
        <ele>265.4</ele>
        <time>2022-06-26T14:36:42Z</time>
      </trkpt>
      <trkpt lat="45.74737" lon="4.75091">
        <ele>265.4</ele>
        <time>2022-06-26T14:36:43Z</time>
      </trkpt>
      <trkpt lat="45.74737" lon="4.75101">
        <ele>264.8</ele>
        <time>2022-06-26T14:36:44Z</time>
      </trkpt>
      <trkpt lat="45.74737" lon="4.7511">
        <ele>264.4</ele>
        <time>2022-06-26T14:36:45Z</time>
      </trkpt>
      <trkpt lat="45.74737" lon="4.75118">
        <ele>264</ele>
        <time>2022-06-26T14:36:46Z</time>
      </trkpt>
      <trkpt lat="45.74737" lon="4.75125">
        <ele>263.6</ele>
        <time>2022-06-26T14:36:47Z</time>
      </trkpt>
      <trkpt lat="45.74737" lon="4.75131">
        <ele>263.4</ele>
        <time>2022-06-26T14:36:48Z</time>
      </trkpt>
      <trkpt lat="45.74737" lon="4.75135">
        <ele>263</ele>
        <time>2022-06-26T14:36:49Z</time>
      </trkpt>
      <trkpt lat="45.74737" lon="4.7514">
        <ele>262.8</ele>
        <time>2022-06-26T14:36:50Z</time>
      </trkpt>
      <trkpt lat="45.74737" lon="4.75144">
        <ele>262.8</ele>
        <time>2022-06-26T14:36:51Z</time>
      </trkpt>
      <trkpt lat="45.74736" lon="4.7515">
        <ele>262.4</ele>
        <time>2022-06-26T14:36:52Z</time>
      </trkpt>
      <trkpt lat="45.74736" lon="4.75156">
        <ele>262.4</ele>
        <time>2022-06-26T14:36:53Z</time>
      </trkpt>
      <trkpt lat="45.74736" lon="4.75162">
        <ele>262</ele>
        <time>2022-06-26T14:36:54Z</time>
      </trkpt>
      <trkpt lat="45.74736" lon="4.75169">
        <ele>262</ele>
        <time>2022-06-26T14:36:55Z</time>
      </trkpt>
      <trkpt lat="45.74736" lon="4.75176">
        <ele>261.8</ele>
        <time>2022-06-26T14:36:56Z</time>
      </trkpt>
      <trkpt lat="45.74736" lon="4.75184">
        <ele>261.6</ele>
        <time>2022-06-26T14:36:57Z</time>
      </trkpt>
      <trkpt lat="45.74736" lon="4.75193">
        <ele>261.2</ele>
        <time>2022-06-26T14:36:58Z</time>
      </trkpt>
      <trkpt lat="45.74736" lon="4.75201">
        <ele>261.2</ele>
        <time>2022-06-26T14:36:59Z</time>
      </trkpt>
      <trkpt lat="45.74735" lon="4.7521">
        <ele>261</ele>
        <time>2022-06-26T14:37:00Z</time>
      </trkpt>
      <trkpt lat="45.74736" lon="4.75218">
        <ele>261</ele>
        <time>2022-06-26T14:37:01Z</time>
      </trkpt>
      <trkpt lat="45.74736" lon="4.75227">
        <ele>260.6</ele>
        <time>2022-06-26T14:37:02Z</time>
      </trkpt>
      <trkpt lat="45.74736" lon="4.75236">
        <ele>260.4</ele>
        <time>2022-06-26T14:37:03Z</time>
      </trkpt>
      <trkpt lat="45.74736" lon="4.75245">
        <ele>260.4</ele>
        <time>2022-06-26T14:37:04Z</time>
      </trkpt>
      <trkpt lat="45.74736" lon="4.75255">
        <ele>260.2</ele>
        <time>2022-06-26T14:37:05Z</time>
      </trkpt>
      <trkpt lat="45.74736" lon="4.75265">
        <ele>260</ele>
        <time>2022-06-26T14:37:06Z</time>
      </trkpt>
      <trkpt lat="45.74736" lon="4.75275">
        <ele>259.8</ele>
        <time>2022-06-26T14:37:07Z</time>
      </trkpt>
      <trkpt lat="45.74736" lon="4.75285">
        <ele>259.8</ele>
        <time>2022-06-26T14:37:08Z</time>
      </trkpt>
      <trkpt lat="45.74736" lon="4.75296">
        <ele>259.4</ele>
        <time>2022-06-26T14:37:09Z</time>
      </trkpt>
      <trkpt lat="45.74737" lon="4.75306">
        <ele>259</ele>
        <time>2022-06-26T14:37:10Z</time>
      </trkpt>
      <trkpt lat="45.74737" lon="4.75317">
        <ele>258.8</ele>
        <time>2022-06-26T14:37:11Z</time>
      </trkpt>
      <trkpt lat="45.74738" lon="4.75327">
        <ele>258.6</ele>
        <time>2022-06-26T14:37:12Z</time>
      </trkpt>
      <trkpt lat="45.74738" lon="4.75338">
        <ele>258.4</ele>
        <time>2022-06-26T14:37:13Z</time>
      </trkpt>
      <trkpt lat="45.74737" lon="4.75348">
        <ele>258.2</ele>
        <time>2022-06-26T14:37:14Z</time>
      </trkpt>
      <trkpt lat="45.74737" lon="4.75359">
        <ele>258.2</ele>
        <time>2022-06-26T14:37:15Z</time>
      </trkpt>
      <trkpt lat="45.74738" lon="4.75369">
        <ele>257.8</ele>
        <time>2022-06-26T14:37:16Z</time>
      </trkpt>
      <trkpt lat="45.74738" lon="4.75379">
        <ele>257.6</ele>
        <time>2022-06-26T14:37:17Z</time>
      </trkpt>
      <trkpt lat="45.74738" lon="4.75388">
        <ele>257.6</ele>
        <time>2022-06-26T14:37:18Z</time>
      </trkpt>
      <trkpt lat="45.74738" lon="4.75398">
        <ele>257.4</ele>
        <time>2022-06-26T14:37:19Z</time>
      </trkpt>
      <trkpt lat="45.74738" lon="4.75407">
        <ele>257.4</ele>
        <time>2022-06-26T14:37:20Z</time>
      </trkpt>
      <trkpt lat="45.74738" lon="4.75415">
        <ele>257</ele>
        <time>2022-06-26T14:37:21Z</time>
      </trkpt>
      <trkpt lat="45.74738" lon="4.75424">
        <ele>257</ele>
        <time>2022-06-26T14:37:22Z</time>
      </trkpt>
      <trkpt lat="45.74738" lon="4.75432">
        <ele>257</ele>
        <time>2022-06-26T14:37:23Z</time>
      </trkpt>
      <trkpt lat="45.74738" lon="4.7544">
        <ele>257</ele>
        <time>2022-06-26T14:37:24Z</time>
      </trkpt>
      <trkpt lat="45.74738" lon="4.75448">
        <ele>257</ele>
        <time>2022-06-26T14:37:25Z</time>
      </trkpt>
      <trkpt lat="45.74738" lon="4.75456">
        <ele>256.8</ele>
        <time>2022-06-26T14:37:26Z</time>
      </trkpt>
      <trkpt lat="45.74738" lon="4.75465">
        <ele>256.8</ele>
        <time>2022-06-26T14:37:27Z</time>
      </trkpt>
      <trkpt lat="45.74738" lon="4.75473">
        <ele>256.8</ele>
        <time>2022-06-26T14:37:28Z</time>
      </trkpt>
      <trkpt lat="45.74739" lon="4.7548">
        <ele>256.8</ele>
        <time>2022-06-26T14:37:29Z</time>
      </trkpt>
      <trkpt lat="45.74738" lon="4.75488">
        <ele>256.6</ele>
        <time>2022-06-26T14:37:30Z</time>
      </trkpt>
      <trkpt lat="45.74738" lon="4.75494">
        <ele>256.6</ele>
        <time>2022-06-26T14:37:31Z</time>
      </trkpt>
      <trkpt lat="45.74738" lon="4.75499">
        <ele>256.4</ele>
        <time>2022-06-26T14:37:32Z</time>
      </trkpt>
      <trkpt lat="45.74738" lon="4.75503">
        <ele>256.4</ele>
        <time>2022-06-26T14:37:33Z</time>
      </trkpt>
      <trkpt lat="45.74738" lon="4.75507">
        <ele>256.4</ele>
        <time>2022-06-26T14:37:34Z</time>
      </trkpt>
      <trkpt lat="45.74738" lon="4.7551">
        <ele>256.4</ele>
        <time>2022-06-26T14:37:35Z</time>
      </trkpt>
      <trkpt lat="45.74738" lon="4.75513">
        <ele>256.4</ele>
        <time>2022-06-26T14:37:36Z</time>
      </trkpt>
      <trkpt lat="45.74738" lon="4.75516">
        <ele>256</ele>
        <time>2022-06-26T14:37:37Z</time>
      </trkpt>
      <trkpt lat="45.74738" lon="4.75519">
        <ele>256</ele>
        <time>2022-06-26T14:37:38Z</time>
      </trkpt>
      <trkpt lat="45.74738" lon="4.75522">
        <ele>256</ele>
        <time>2022-06-26T14:37:39Z</time>
      </trkpt>
      <trkpt lat="45.74738" lon="4.75524">
        <ele>256</ele>
        <time>2022-06-26T14:37:40Z</time>
      </trkpt>
      <trkpt lat="45.74738" lon="4.75526">
        <ele>256</ele>
        <time>2022-06-26T14:37:41Z</time>
      </trkpt>
      <trkpt lat="45.74738" lon="4.75527">
        <ele>256</ele>
        <time>2022-06-26T14:37:42Z</time>
      </trkpt>
      <trkpt lat="45.74738" lon="4.75533">
        <ele>256</ele>
        <time>2022-06-26T14:37:49Z</time>
      </trkpt>
      <trkpt lat="45.74738" lon="4.75536">
        <ele>256</ele>
        <time>2022-06-26T14:37:50Z</time>
      </trkpt>
      <trkpt lat="45.74738" lon="4.75539">
        <ele>256</ele>
        <time>2022-06-26T14:37:51Z</time>
      </trkpt>
      <trkpt lat="45.74738" lon="4.75543">
        <ele>256</ele>
        <time>2022-06-26T14:37:52Z</time>
      </trkpt>
      <trkpt lat="45.74738" lon="4.75547">
        <ele>256</ele>
        <time>2022-06-26T14:37:53Z</time>
      </trkpt>
      <trkpt lat="45.74738" lon="4.75552">
        <ele>255.8</ele>
        <time>2022-06-26T14:37:54Z</time>
      </trkpt>
      <trkpt lat="45.74737" lon="4.75557">
        <ele>255.8</ele>
        <time>2022-06-26T14:37:55Z</time>
      </trkpt>
      <trkpt lat="45.74737" lon="4.75562">
        <ele>255.8</ele>
        <time>2022-06-26T14:37:56Z</time>
      </trkpt>
      <trkpt lat="45.74737" lon="4.75568">
        <ele>255.8</ele>
        <time>2022-06-26T14:37:57Z</time>
      </trkpt>
      <trkpt lat="45.74738" lon="4.75574">
        <ele>255.8</ele>
        <time>2022-06-26T14:37:58Z</time>
      </trkpt>
      <trkpt lat="45.74738" lon="4.75579">
        <ele>255.8</ele>
        <time>2022-06-26T14:37:59Z</time>
      </trkpt>
      <trkpt lat="45.74738" lon="4.75584">
        <ele>255.6</ele>
        <time>2022-06-26T14:38:00Z</time>
      </trkpt>
      <trkpt lat="45.74738" lon="4.75589">
        <ele>255.6</ele>
        <time>2022-06-26T14:38:01Z</time>
      </trkpt>
      <trkpt lat="45.74738" lon="4.75593">
        <ele>255.6</ele>
        <time>2022-06-26T14:38:02Z</time>
      </trkpt>
      <trkpt lat="45.74739" lon="4.75596">
        <ele>255.6</ele>
        <time>2022-06-26T14:38:03Z</time>
      </trkpt>
      <trkpt lat="45.74739" lon="4.75598">
        <ele>255.6</ele>
        <time>2022-06-26T14:38:04Z</time>
      </trkpt>
      <trkpt lat="45.74739" lon="4.756">
        <ele>255.4</ele>
        <time>2022-06-26T14:38:05Z</time>
      </trkpt>
      <trkpt lat="45.7474" lon="4.75605">
        <ele>255.4</ele>
        <time>2022-06-26T14:38:28Z</time>
      </trkpt>
      <trkpt lat="45.7474" lon="4.75609">
        <ele>255.4</ele>
        <time>2022-06-26T14:38:29Z</time>
      </trkpt>
      <trkpt lat="45.7474" lon="4.75614">
        <ele>255.4</ele>
        <time>2022-06-26T14:38:30Z</time>
      </trkpt>
      <trkpt lat="45.7474" lon="4.7562">
        <ele>255.2</ele>
        <time>2022-06-26T14:38:31Z</time>
      </trkpt>
      <trkpt lat="45.7474" lon="4.75626">
        <ele>255.2</ele>
        <time>2022-06-26T14:38:32Z</time>
      </trkpt>
      <trkpt lat="45.7474" lon="4.75632">
        <ele>255.2</ele>
        <time>2022-06-26T14:38:33Z</time>
      </trkpt>
      <trkpt lat="45.7474" lon="4.75639">
        <ele>255.2</ele>
        <time>2022-06-26T14:38:34Z</time>
      </trkpt>
      <trkpt lat="45.7474" lon="4.75646">
        <ele>255.2</ele>
        <time>2022-06-26T14:38:35Z</time>
      </trkpt>
      <trkpt lat="45.7474" lon="4.75654">
        <ele>255.2</ele>
        <time>2022-06-26T14:38:36Z</time>
      </trkpt>
      <trkpt lat="45.7474" lon="4.75662">
        <ele>255</ele>
        <time>2022-06-26T14:38:37Z</time>
      </trkpt>
      <trkpt lat="45.7474" lon="4.75671">
        <ele>255</ele>
        <time>2022-06-26T14:38:38Z</time>
      </trkpt>
      <trkpt lat="45.7474" lon="4.7568">
        <ele>254.6</ele>
        <time>2022-06-26T14:38:39Z</time>
      </trkpt>
      <trkpt lat="45.7474" lon="4.75689">
        <ele>254.6</ele>
        <time>2022-06-26T14:38:40Z</time>
      </trkpt>
      <trkpt lat="45.7474" lon="4.75698">
        <ele>254.4</ele>
        <time>2022-06-26T14:38:41Z</time>
      </trkpt>
      <trkpt lat="45.7474" lon="4.75708">
        <ele>254.4</ele>
        <time>2022-06-26T14:38:42Z</time>
      </trkpt>
      <trkpt lat="45.74741" lon="4.75717">
        <ele>254</ele>
        <time>2022-06-26T14:38:43Z</time>
      </trkpt>
      <trkpt lat="45.74742" lon="4.75727">
        <ele>253.8</ele>
        <time>2022-06-26T14:38:44Z</time>
      </trkpt>
      <trkpt lat="45.74743" lon="4.75737">
        <ele>253.6</ele>
        <time>2022-06-26T14:38:45Z</time>
      </trkpt>
      <trkpt lat="45.74744" lon="4.75747">
        <ele>253.2</ele>
        <time>2022-06-26T14:38:46Z</time>
      </trkpt>
      <trkpt lat="45.74746" lon="4.75757">
        <ele>253.2</ele>
        <time>2022-06-26T14:38:47Z</time>
      </trkpt>
      <trkpt lat="45.74747" lon="4.75767">
        <ele>252.8</ele>
        <time>2022-06-26T14:38:48Z</time>
      </trkpt>
      <trkpt lat="45.74749" lon="4.75778">
        <ele>252.6</ele>
        <time>2022-06-26T14:38:49Z</time>
      </trkpt>
      <trkpt lat="45.74751" lon="4.75788">
        <ele>252.4</ele>
        <time>2022-06-26T14:38:50Z</time>
      </trkpt>
      <trkpt lat="45.74753" lon="4.75799">
        <ele>252.4</ele>
        <time>2022-06-26T14:38:51Z</time>
      </trkpt>
      <trkpt lat="45.74755" lon="4.75809">
        <ele>251.8</ele>
        <time>2022-06-26T14:38:52Z</time>
      </trkpt>
      <trkpt lat="45.74758" lon="4.7582">
        <ele>251.6</ele>
        <time>2022-06-26T14:38:53Z</time>
      </trkpt>
      <trkpt lat="45.7476" lon="4.7583">
        <ele>251.2</ele>
        <time>2022-06-26T14:38:54Z</time>
      </trkpt>
      <trkpt lat="45.74763" lon="4.75841">
        <ele>251</ele>
        <time>2022-06-26T14:38:55Z</time>
      </trkpt>
      <trkpt lat="45.74766" lon="4.75853">
        <ele>250.6</ele>
        <time>2022-06-26T14:38:56Z</time>
      </trkpt>
      <trkpt lat="45.74769" lon="4.75864">
        <ele>250</ele>
        <time>2022-06-26T14:38:57Z</time>
      </trkpt>
      <trkpt lat="45.74772" lon="4.75876">
        <ele>249.8</ele>
        <time>2022-06-26T14:38:58Z</time>
      </trkpt>
      <trkpt lat="45.74776" lon="4.75888">
        <ele>249.4</ele>
        <time>2022-06-26T14:38:59Z</time>
      </trkpt>
      <trkpt lat="45.74781" lon="4.75898">
        <ele>249.4</ele>
        <time>2022-06-26T14:39:00Z</time>
      </trkpt>
      <trkpt lat="45.74787" lon="4.75908">
        <ele>249.4</ele>
        <time>2022-06-26T14:39:01Z</time>
      </trkpt>
      <trkpt lat="45.74794" lon="4.75917">
        <ele>249</ele>
        <time>2022-06-26T14:39:02Z</time>
      </trkpt>
      <trkpt lat="45.74801" lon="4.75926">
        <ele>248.6</ele>
        <time>2022-06-26T14:39:03Z</time>
      </trkpt>
      <trkpt lat="45.74809" lon="4.75932">
        <ele>248</ele>
        <time>2022-06-26T14:39:04Z</time>
      </trkpt>
      <trkpt lat="45.74817" lon="4.7594">
        <ele>247.2</ele>
        <time>2022-06-26T14:39:05Z</time>
      </trkpt>
      <trkpt lat="45.74823" lon="4.75948">
        <ele>246.8</ele>
        <time>2022-06-26T14:39:06Z</time>
      </trkpt>
      <trkpt lat="45.74828" lon="4.75958">
        <ele>246.2</ele>
        <time>2022-06-26T14:39:07Z</time>
      </trkpt>
      <trkpt lat="45.74832" lon="4.75969">
        <ele>245.8</ele>
        <time>2022-06-26T14:39:08Z</time>
      </trkpt>
      <trkpt lat="45.74834" lon="4.75982">
        <ele>245.4</ele>
        <time>2022-06-26T14:39:09Z</time>
      </trkpt>
      <trkpt lat="45.74837" lon="4.75994">
        <ele>244.8</ele>
        <time>2022-06-26T14:39:10Z</time>
      </trkpt>
      <trkpt lat="45.7484" lon="4.76006">
        <ele>244.4</ele>
        <time>2022-06-26T14:39:11Z</time>
      </trkpt>
      <trkpt lat="45.74845" lon="4.76018">
        <ele>244</ele>
        <time>2022-06-26T14:39:12Z</time>
      </trkpt>
      <trkpt lat="45.7485" lon="4.7603">
        <ele>243.8</ele>
        <time>2022-06-26T14:39:13Z</time>
      </trkpt>
      <trkpt lat="45.74858" lon="4.76039">
        <ele>243.8</ele>
        <time>2022-06-26T14:39:14Z</time>
      </trkpt>
      <trkpt lat="45.74866" lon="4.76046">
        <ele>243.4</ele>
        <time>2022-06-26T14:39:15Z</time>
      </trkpt>
      <trkpt lat="45.74875" lon="4.76049">
        <ele>243.4</ele>
        <time>2022-06-26T14:39:16Z</time>
      </trkpt>
      <trkpt lat="45.74885" lon="4.76051">
        <ele>242.8</ele>
        <time>2022-06-26T14:39:17Z</time>
      </trkpt>
      <trkpt lat="45.74894" lon="4.76052">
        <ele>242.4</ele>
        <time>2022-06-26T14:39:18Z</time>
      </trkpt>
      <trkpt lat="45.74903" lon="4.76049">
        <ele>242</ele>
        <time>2022-06-26T14:39:19Z</time>
      </trkpt>
      <trkpt lat="45.74912" lon="4.76043">
        <ele>242</ele>
        <time>2022-06-26T14:39:20Z</time>
      </trkpt>
      <trkpt lat="45.74921" lon="4.76036">
        <ele>241.4</ele>
        <time>2022-06-26T14:39:21Z</time>
      </trkpt>
      <trkpt lat="45.74928" lon="4.76027">
        <ele>241</ele>
        <time>2022-06-26T14:39:22Z</time>
      </trkpt>
      <trkpt lat="45.74935" lon="4.76017">
        <ele>240.4</ele>
        <time>2022-06-26T14:39:23Z</time>
      </trkpt>
      <trkpt lat="45.74942" lon="4.76007">
        <ele>239.8</ele>
        <time>2022-06-26T14:39:24Z</time>
      </trkpt>
      <trkpt lat="45.74948" lon="4.75998">
        <ele>239</ele>
        <time>2022-06-26T14:39:25Z</time>
      </trkpt>
      <trkpt lat="45.74955" lon="4.75988">
        <ele>238.4</ele>
        <time>2022-06-26T14:39:26Z</time>
      </trkpt>
      <trkpt lat="45.74962" lon="4.75978">
        <ele>237.8</ele>
        <time>2022-06-26T14:39:27Z</time>
      </trkpt>
      <trkpt lat="45.74969" lon="4.75969">
        <ele>237.4</ele>
        <time>2022-06-26T14:39:28Z</time>
      </trkpt>
      <trkpt lat="45.74978" lon="4.75961">
        <ele>236.8</ele>
        <time>2022-06-26T14:39:29Z</time>
      </trkpt>
      <trkpt lat="45.74987" lon="4.75957">
        <ele>236.4</ele>
        <time>2022-06-26T14:39:30Z</time>
      </trkpt>
      <trkpt lat="45.74997" lon="4.75955">
        <ele>235.8</ele>
        <time>2022-06-26T14:39:31Z</time>
      </trkpt>
      <trkpt lat="45.75007" lon="4.75955">
        <ele>235.2</ele>
        <time>2022-06-26T14:39:32Z</time>
      </trkpt>
      <trkpt lat="45.75016" lon="4.75956">
        <ele>234.8</ele>
        <time>2022-06-26T14:39:33Z</time>
      </trkpt>
      <trkpt lat="45.75026" lon="4.75961">
        <ele>234.4</ele>
        <time>2022-06-26T14:39:34Z</time>
      </trkpt>
      <trkpt lat="45.75035" lon="4.75969">
        <ele>234</ele>
        <time>2022-06-26T14:39:35Z</time>
      </trkpt>
      <trkpt lat="45.75043" lon="4.75979">
        <ele>233.6</ele>
        <time>2022-06-26T14:39:36Z</time>
      </trkpt>
      <trkpt lat="45.75051" lon="4.75989">
        <ele>233.2</ele>
        <time>2022-06-26T14:39:37Z</time>
      </trkpt>
      <trkpt lat="45.75055" lon="4.76003">
        <ele>232.6</ele>
        <time>2022-06-26T14:39:38Z</time>
      </trkpt>
      <trkpt lat="45.75057" lon="4.76019">
        <ele>232.4</ele>
        <time>2022-06-26T14:39:39Z</time>
      </trkpt>
      <trkpt lat="45.75062" lon="4.76034">
        <ele>232</ele>
        <time>2022-06-26T14:39:40Z</time>
      </trkpt>
      <trkpt lat="45.75066" lon="4.76048">
        <ele>231.6</ele>
        <time>2022-06-26T14:39:41Z</time>
      </trkpt>
      <trkpt lat="45.7507" lon="4.76061">
        <ele>231</ele>
        <time>2022-06-26T14:39:42Z</time>
      </trkpt>
      <trkpt lat="45.75075" lon="4.76074">
        <ele>230.6</ele>
        <time>2022-06-26T14:39:43Z</time>
      </trkpt>
      <trkpt lat="45.75081" lon="4.76086">
        <ele>230.6</ele>
        <time>2022-06-26T14:39:44Z</time>
      </trkpt>
      <trkpt lat="45.75088" lon="4.76096">
        <ele>230</ele>
        <time>2022-06-26T14:39:45Z</time>
      </trkpt>
      <trkpt lat="45.75095" lon="4.76104">
        <ele>229.6</ele>
        <time>2022-06-26T14:39:46Z</time>
      </trkpt>
      <trkpt lat="45.75104" lon="4.76109">
        <ele>229</ele>
        <time>2022-06-26T14:39:47Z</time>
      </trkpt>
      <trkpt lat="45.75113" lon="4.76112">
        <ele>228.4</ele>
        <time>2022-06-26T14:39:48Z</time>
      </trkpt>
      <trkpt lat="45.75123" lon="4.76114">
        <ele>228</ele>
        <time>2022-06-26T14:39:49Z</time>
      </trkpt>
      <trkpt lat="45.75134" lon="4.76112">
        <ele>227.4</ele>
        <time>2022-06-26T14:39:50Z</time>
      </trkpt>
      <trkpt lat="45.75144" lon="4.76112">
        <ele>227</ele>
        <time>2022-06-26T14:39:51Z</time>
      </trkpt>
      <trkpt lat="45.75154" lon="4.76115">
        <ele>226.4</ele>
        <time>2022-06-26T14:39:52Z</time>
      </trkpt>
      <trkpt lat="45.75164" lon="4.76119">
        <ele>226</ele>
        <time>2022-06-26T14:39:53Z</time>
      </trkpt>
      <trkpt lat="45.75173" lon="4.76126">
        <ele>225.6</ele>
        <time>2022-06-26T14:39:54Z</time>
      </trkpt>
      <trkpt lat="45.7518" lon="4.76135">
        <ele>225</ele>
        <time>2022-06-26T14:39:55Z</time>
      </trkpt>
      <trkpt lat="45.75188" lon="4.76146">
        <ele>224.6</ele>
        <time>2022-06-26T14:39:56Z</time>
      </trkpt>
      <trkpt lat="45.75194" lon="4.76157">
        <ele>224</ele>
        <time>2022-06-26T14:39:57Z</time>
      </trkpt>
      <trkpt lat="45.75199" lon="4.7617">
        <ele>223.6</ele>
        <time>2022-06-26T14:39:58Z</time>
      </trkpt>
      <trkpt lat="45.75203" lon="4.76183">
        <ele>223.2</ele>
        <time>2022-06-26T14:39:59Z</time>
      </trkpt>
      <trkpt lat="45.75206" lon="4.76196">
        <ele>222.8</ele>
        <time>2022-06-26T14:40:00Z</time>
      </trkpt>
      <trkpt lat="45.75209" lon="4.76209">
        <ele>222.6</ele>
        <time>2022-06-26T14:40:01Z</time>
      </trkpt>
      <trkpt lat="45.75211" lon="4.76221">
        <ele>222.4</ele>
        <time>2022-06-26T14:40:02Z</time>
      </trkpt>
      <trkpt lat="45.75214" lon="4.76234">
        <ele>222.4</ele>
        <time>2022-06-26T14:40:03Z</time>
      </trkpt>
      <trkpt lat="45.75216" lon="4.76245">
        <ele>222.4</ele>
        <time>2022-06-26T14:40:04Z</time>
      </trkpt>
      <trkpt lat="45.75219" lon="4.76257">
        <ele>222.4</ele>
        <time>2022-06-26T14:40:05Z</time>
      </trkpt>
      <trkpt lat="45.75219" lon="4.76267">
        <ele>222.4</ele>
        <time>2022-06-26T14:40:06Z</time>
      </trkpt>
      <trkpt lat="45.75219" lon="4.76278">
        <ele>222.4</ele>
        <time>2022-06-26T14:40:07Z</time>
      </trkpt>
      <trkpt lat="45.75218" lon="4.76289">
        <ele>222.4</ele>
        <time>2022-06-26T14:40:08Z</time>
      </trkpt>
      <trkpt lat="45.75216" lon="4.763">
        <ele>222.4</ele>
        <time>2022-06-26T14:40:09Z</time>
      </trkpt>
      <trkpt lat="45.75213" lon="4.7631">
        <ele>222.6</ele>
        <time>2022-06-26T14:40:10Z</time>
      </trkpt>
      <trkpt lat="45.75209" lon="4.76319">
        <ele>222.6</ele>
        <time>2022-06-26T14:40:11Z</time>
      </trkpt>
      <trkpt lat="45.75204" lon="4.76327">
        <ele>222.8</ele>
        <time>2022-06-26T14:40:12Z</time>
      </trkpt>
      <trkpt lat="45.75199" lon="4.76334">
        <ele>222.8</ele>
        <time>2022-06-26T14:40:13Z</time>
      </trkpt>
      <trkpt lat="45.75193" lon="4.7634">
        <ele>222.8</ele>
        <time>2022-06-26T14:40:14Z</time>
      </trkpt>
      <trkpt lat="45.75188" lon="4.76346">
        <ele>223.2</ele>
        <time>2022-06-26T14:40:15Z</time>
      </trkpt>
      <trkpt lat="45.75182" lon="4.76351">
        <ele>223.2</ele>
        <time>2022-06-26T14:40:16Z</time>
      </trkpt>
      <trkpt lat="45.75176" lon="4.76356">
        <ele>223.4</ele>
        <time>2022-06-26T14:40:17Z</time>
      </trkpt>
      <trkpt lat="45.7517" lon="4.76361">
        <ele>223.8</ele>
        <time>2022-06-26T14:40:18Z</time>
      </trkpt>
      <trkpt lat="45.75164" lon="4.76366">
        <ele>223.8</ele>
        <time>2022-06-26T14:40:19Z</time>
      </trkpt>
      <trkpt lat="45.75158" lon="4.76371">
        <ele>224</ele>
        <time>2022-06-26T14:40:20Z</time>
      </trkpt>
      <trkpt lat="45.75153" lon="4.76376">
        <ele>224.2</ele>
        <time>2022-06-26T14:40:21Z</time>
      </trkpt>
      <trkpt lat="45.75147" lon="4.76381">
        <ele>224.2</ele>
        <time>2022-06-26T14:40:22Z</time>
      </trkpt>
      <trkpt lat="45.75141" lon="4.76386">
        <ele>224.6</ele>
        <time>2022-06-26T14:40:23Z</time>
      </trkpt>
      <trkpt lat="45.75135" lon="4.7639">
        <ele>224.6</ele>
        <time>2022-06-26T14:40:24Z</time>
      </trkpt>
      <trkpt lat="45.75129" lon="4.76395">
        <ele>224.6</ele>
        <time>2022-06-26T14:40:25Z</time>
      </trkpt>
      <trkpt lat="45.75124" lon="4.764">
        <ele>225</ele>
        <time>2022-06-26T14:40:26Z</time>
      </trkpt>
      <trkpt lat="45.75119" lon="4.76405">
        <ele>225.2</ele>
        <time>2022-06-26T14:40:27Z</time>
      </trkpt>
      <trkpt lat="45.75114" lon="4.7641">
        <ele>225.6</ele>
        <time>2022-06-26T14:40:28Z</time>
      </trkpt>
      <trkpt lat="45.75109" lon="4.76414">
        <ele>226</ele>
        <time>2022-06-26T14:40:29Z</time>
      </trkpt>
      <trkpt lat="45.75104" lon="4.76419">
        <ele>226.2</ele>
        <time>2022-06-26T14:40:30Z</time>
      </trkpt>
      <trkpt lat="45.75099" lon="4.76424">
        <ele>226.6</ele>
        <time>2022-06-26T14:40:31Z</time>
      </trkpt>
      <trkpt lat="45.75094" lon="4.76429">
        <ele>226.8</ele>
        <time>2022-06-26T14:40:32Z</time>
      </trkpt>
      <trkpt lat="45.75089" lon="4.76433">
        <ele>227.2</ele>
        <time>2022-06-26T14:40:33Z</time>
      </trkpt>
      <trkpt lat="45.75084" lon="4.76439">
        <ele>227.4</ele>
        <time>2022-06-26T14:40:34Z</time>
      </trkpt>
      <trkpt lat="45.75079" lon="4.76445">
        <ele>227.6</ele>
        <time>2022-06-26T14:40:35Z</time>
      </trkpt>
      <trkpt lat="45.75075" lon="4.76451">
        <ele>228</ele>
        <time>2022-06-26T14:40:36Z</time>
      </trkpt>
      <trkpt lat="45.75071" lon="4.76458">
        <ele>228.2</ele>
        <time>2022-06-26T14:40:37Z</time>
      </trkpt>
      <trkpt lat="45.75068" lon="4.76465">
        <ele>228.6</ele>
        <time>2022-06-26T14:40:38Z</time>
      </trkpt>
      <trkpt lat="45.75066" lon="4.76472">
        <ele>229</ele>
        <time>2022-06-26T14:40:39Z</time>
      </trkpt>
      <trkpt lat="45.75064" lon="4.7648">
        <ele>229.2</ele>
        <time>2022-06-26T14:40:40Z</time>
      </trkpt>
      <trkpt lat="45.75063" lon="4.76488">
        <ele>229.2</ele>
        <time>2022-06-26T14:40:41Z</time>
      </trkpt>
      <trkpt lat="45.75063" lon="4.76495">
        <ele>229.4</ele>
        <time>2022-06-26T14:40:42Z</time>
      </trkpt>
      <trkpt lat="45.75063" lon="4.76503">
        <ele>229.4</ele>
        <time>2022-06-26T14:40:43Z</time>
      </trkpt>
      <trkpt lat="45.75063" lon="4.7651">
        <ele>229.8</ele>
        <time>2022-06-26T14:40:44Z</time>
      </trkpt>
      <trkpt lat="45.75064" lon="4.76515">
        <ele>230</ele>
        <time>2022-06-26T14:40:45Z</time>
      </trkpt>
      <trkpt lat="45.75064" lon="4.7652">
        <ele>230.2</ele>
        <time>2022-06-26T14:40:46Z</time>
      </trkpt>
      <trkpt lat="45.75065" lon="4.76523">
        <ele>230.4</ele>
        <time>2022-06-26T14:40:47Z</time>
      </trkpt>
      <trkpt lat="45.75065" lon="4.76525">
        <ele>230.6</ele>
        <time>2022-06-26T14:40:48Z</time>
      </trkpt>
      <trkpt lat="45.75065" lon="4.76527">
        <ele>230.6</ele>
        <time>2022-06-26T14:40:49Z</time>
      </trkpt>
      <trkpt lat="45.75065" lon="4.76528">
        <ele>230.6</ele>
        <time>2022-06-26T14:40:50Z</time>
      </trkpt>
      <trkpt lat="45.75066" lon="4.76531">
        <ele>231</ele>
        <time>2022-06-26T14:40:51Z</time>
      </trkpt>
      <trkpt lat="45.75066" lon="4.76534">
        <ele>231</ele>
        <time>2022-06-26T14:40:52Z</time>
      </trkpt>
      <trkpt lat="45.75066" lon="4.76537">
        <ele>231</ele>
        <time>2022-06-26T14:40:53Z</time>
      </trkpt>
      <trkpt lat="45.75065" lon="4.76541">
        <ele>231.2</ele>
        <time>2022-06-26T14:40:54Z</time>
      </trkpt>
      <trkpt lat="45.75063" lon="4.76544">
        <ele>231.2</ele>
        <time>2022-06-26T14:40:55Z</time>
      </trkpt>
      <trkpt lat="45.75061" lon="4.76547">
        <ele>231.6</ele>
        <time>2022-06-26T14:40:56Z</time>
      </trkpt>
      <trkpt lat="45.75058" lon="4.7655">
        <ele>231.6</ele>
        <time>2022-06-26T14:40:57Z</time>
      </trkpt>
      <trkpt lat="45.75055" lon="4.76554">
        <ele>231.6</ele>
        <time>2022-06-26T14:40:58Z</time>
      </trkpt>
      <trkpt lat="45.75053" lon="4.76559">
        <ele>231.8</ele>
        <time>2022-06-26T14:40:59Z</time>
      </trkpt>
      <trkpt lat="45.75051" lon="4.76564">
        <ele>231.8</ele>
        <time>2022-06-26T14:41:00Z</time>
      </trkpt>
      <trkpt lat="45.75049" lon="4.76569">
        <ele>232</ele>
        <time>2022-06-26T14:41:01Z</time>
      </trkpt>
      <trkpt lat="45.75046" lon="4.76573">
        <ele>232</ele>
        <time>2022-06-26T14:41:02Z</time>
      </trkpt>
      <trkpt lat="45.75043" lon="4.76578">
        <ele>232</ele>
        <time>2022-06-26T14:41:03Z</time>
      </trkpt>
      <trkpt lat="45.7504" lon="4.76581">
        <ele>232.2</ele>
        <time>2022-06-26T14:41:04Z</time>
      </trkpt>
      <trkpt lat="45.75036" lon="4.76584">
        <ele>232.2</ele>
        <time>2022-06-26T14:41:05Z</time>
      </trkpt>
      <trkpt lat="45.75032" lon="4.76587">
        <ele>232.2</ele>
        <time>2022-06-26T14:41:06Z</time>
      </trkpt>
      <trkpt lat="45.75028" lon="4.76589">
        <ele>232.2</ele>
        <time>2022-06-26T14:41:07Z</time>
      </trkpt>
      <trkpt lat="45.75023" lon="4.7659">
        <ele>232.2</ele>
        <time>2022-06-26T14:41:08Z</time>
      </trkpt>
      <trkpt lat="45.75018" lon="4.76592">
        <ele>232.2</ele>
        <time>2022-06-26T14:41:09Z</time>
      </trkpt>
      <trkpt lat="45.75013" lon="4.76594">
        <ele>232.2</ele>
        <time>2022-06-26T14:41:10Z</time>
      </trkpt>
      <trkpt lat="45.75007" lon="4.76595">
        <ele>231.8</ele>
        <time>2022-06-26T14:41:11Z</time>
      </trkpt>
      <trkpt lat="45.75001" lon="4.76597">
        <ele>231.6</ele>
        <time>2022-06-26T14:41:12Z</time>
      </trkpt>
      <trkpt lat="45.74995" lon="4.76599">
        <ele>231.6</ele>
        <time>2022-06-26T14:41:13Z</time>
      </trkpt>
      <trkpt lat="45.74989" lon="4.766">
        <ele>231.2</ele>
        <time>2022-06-26T14:41:14Z</time>
      </trkpt>
      <trkpt lat="45.74983" lon="4.76601">
        <ele>230.8</ele>
        <time>2022-06-26T14:41:15Z</time>
      </trkpt>
      <trkpt lat="45.74977" lon="4.76603">
        <ele>230.6</ele>
        <time>2022-06-26T14:41:16Z</time>
      </trkpt>
      <trkpt lat="45.74971" lon="4.76606">
        <ele>230.4</ele>
        <time>2022-06-26T14:41:17Z</time>
      </trkpt>
      <trkpt lat="45.74966" lon="4.76612">
        <ele>230</ele>
        <time>2022-06-26T14:41:18Z</time>
      </trkpt>
      <trkpt lat="45.74962" lon="4.76618">
        <ele>229.8</ele>
        <time>2022-06-26T14:41:19Z</time>
      </trkpt>
      <trkpt lat="45.74959" lon="4.76625">
        <ele>229.2</ele>
        <time>2022-06-26T14:41:20Z</time>
      </trkpt>
      <trkpt lat="45.74959" lon="4.76634">
        <ele>229.2</ele>
        <time>2022-06-26T14:41:21Z</time>
      </trkpt>
      <trkpt lat="45.74959" lon="4.76643">
        <ele>229</ele>
        <time>2022-06-26T14:41:22Z</time>
      </trkpt>
      <trkpt lat="45.74961" lon="4.76651">
        <ele>228.8</ele>
        <time>2022-06-26T14:41:23Z</time>
      </trkpt>
      <trkpt lat="45.74964" lon="4.76659">
        <ele>228.6</ele>
        <time>2022-06-26T14:41:24Z</time>
      </trkpt>
      <trkpt lat="45.74968" lon="4.76667">
        <ele>228.6</ele>
        <time>2022-06-26T14:41:25Z</time>
      </trkpt>
      <trkpt lat="45.74972" lon="4.76675">
        <ele>228.2</ele>
        <time>2022-06-26T14:41:26Z</time>
      </trkpt>
      <trkpt lat="45.74976" lon="4.76683">
        <ele>228</ele>
        <time>2022-06-26T14:41:27Z</time>
      </trkpt>
      <trkpt lat="45.7498" lon="4.76691">
        <ele>228</ele>
        <time>2022-06-26T14:41:28Z</time>
      </trkpt>
      <trkpt lat="45.74983" lon="4.76698">
        <ele>227.8</ele>
        <time>2022-06-26T14:41:29Z</time>
      </trkpt>
      <trkpt lat="45.74987" lon="4.76706">
        <ele>227.8</ele>
        <time>2022-06-26T14:41:30Z</time>
      </trkpt>
      <trkpt lat="45.74991" lon="4.76713">
        <ele>227.4</ele>
        <time>2022-06-26T14:41:31Z</time>
      </trkpt>
      <trkpt lat="45.74995" lon="4.76721">
        <ele>227.4</ele>
        <time>2022-06-26T14:41:32Z</time>
      </trkpt>
      <trkpt lat="45.74999" lon="4.76727">
        <ele>227.2</ele>
        <time>2022-06-26T14:41:33Z</time>
      </trkpt>
      <trkpt lat="45.75004" lon="4.76734">
        <ele>227.2</ele>
        <time>2022-06-26T14:41:34Z</time>
      </trkpt>
      <trkpt lat="45.75008" lon="4.76741">
        <ele>227</ele>
        <time>2022-06-26T14:41:35Z</time>
      </trkpt>
      <trkpt lat="45.75013" lon="4.76747">
        <ele>227</ele>
        <time>2022-06-26T14:41:36Z</time>
      </trkpt>
      <trkpt lat="45.75018" lon="4.76754">
        <ele>226.8</ele>
        <time>2022-06-26T14:41:37Z</time>
      </trkpt>
      <trkpt lat="45.75023" lon="4.76761">
        <ele>226.8</ele>
        <time>2022-06-26T14:41:38Z</time>
      </trkpt>
      <trkpt lat="45.75028" lon="4.76767">
        <ele>226.8</ele>
        <time>2022-06-26T14:41:39Z</time>
      </trkpt>
      <trkpt lat="45.75033" lon="4.76773">
        <ele>226.8</ele>
        <time>2022-06-26T14:41:40Z</time>
      </trkpt>
      <trkpt lat="45.75038" lon="4.7678">
        <ele>226.8</ele>
        <time>2022-06-26T14:41:41Z</time>
      </trkpt>
      <trkpt lat="45.75043" lon="4.76786">
        <ele>226.8</ele>
        <time>2022-06-26T14:41:42Z</time>
      </trkpt>
      <trkpt lat="45.75048" lon="4.76792">
        <ele>226.8</ele>
        <time>2022-06-26T14:41:43Z</time>
      </trkpt>
      <trkpt lat="45.75053" lon="4.76799">
        <ele>226.8</ele>
        <time>2022-06-26T14:41:44Z</time>
      </trkpt>
      <trkpt lat="45.75057" lon="4.76805">
        <ele>226.8</ele>
        <time>2022-06-26T14:41:45Z</time>
      </trkpt>
      <trkpt lat="45.75062" lon="4.76812">
        <ele>226.8</ele>
        <time>2022-06-26T14:41:46Z</time>
      </trkpt>
      <trkpt lat="45.75066" lon="4.76819">
        <ele>226.8</ele>
        <time>2022-06-26T14:41:47Z</time>
      </trkpt>
      <trkpt lat="45.75071" lon="4.76825">
        <ele>226.8</ele>
        <time>2022-06-26T14:41:48Z</time>
      </trkpt>
      <trkpt lat="45.75074" lon="4.76832">
        <ele>226.8</ele>
        <time>2022-06-26T14:41:49Z</time>
      </trkpt>
      <trkpt lat="45.75079" lon="4.76839">
        <ele>226.8</ele>
        <time>2022-06-26T14:41:50Z</time>
      </trkpt>
      <trkpt lat="45.75083" lon="4.76845">
        <ele>226.8</ele>
        <time>2022-06-26T14:41:51Z</time>
      </trkpt>
      <trkpt lat="45.75087" lon="4.76851">
        <ele>226.8</ele>
        <time>2022-06-26T14:41:52Z</time>
      </trkpt>
      <trkpt lat="45.75091" lon="4.76858">
        <ele>226.8</ele>
        <time>2022-06-26T14:41:53Z</time>
      </trkpt>
      <trkpt lat="45.75095" lon="4.76864">
        <ele>227</ele>
        <time>2022-06-26T14:41:54Z</time>
      </trkpt>
      <trkpt lat="45.75098" lon="4.76871">
        <ele>227</ele>
        <time>2022-06-26T14:41:55Z</time>
      </trkpt>
      <trkpt lat="45.75102" lon="4.76878">
        <ele>227</ele>
        <time>2022-06-26T14:41:56Z</time>
      </trkpt>
      <trkpt lat="45.75106" lon="4.76884">
        <ele>227</ele>
        <time>2022-06-26T14:41:57Z</time>
      </trkpt>
      <trkpt lat="45.7511" lon="4.76891">
        <ele>227</ele>
        <time>2022-06-26T14:41:58Z</time>
      </trkpt>
      <trkpt lat="45.75114" lon="4.76898">
        <ele>227</ele>
        <time>2022-06-26T14:41:59Z</time>
      </trkpt>
      <trkpt lat="45.75118" lon="4.76905">
        <ele>227</ele>
        <time>2022-06-26T14:42:00Z</time>
      </trkpt>
      <trkpt lat="45.75122" lon="4.76911">
        <ele>227</ele>
        <time>2022-06-26T14:42:01Z</time>
      </trkpt>
      <trkpt lat="45.75125" lon="4.76919">
        <ele>227</ele>
        <time>2022-06-26T14:42:02Z</time>
      </trkpt>
      <trkpt lat="45.75128" lon="4.76926">
        <ele>227</ele>
        <time>2022-06-26T14:42:03Z</time>
      </trkpt>
      <trkpt lat="45.75131" lon="4.76934">
        <ele>227</ele>
        <time>2022-06-26T14:42:04Z</time>
      </trkpt>
      <trkpt lat="45.75134" lon="4.76941">
        <ele>227</ele>
        <time>2022-06-26T14:42:05Z</time>
      </trkpt>
      <trkpt lat="45.75136" lon="4.76949">
        <ele>227</ele>
        <time>2022-06-26T14:42:06Z</time>
      </trkpt>
      <trkpt lat="45.75139" lon="4.76957">
        <ele>226.8</ele>
        <time>2022-06-26T14:42:07Z</time>
      </trkpt>
      <trkpt lat="45.75142" lon="4.76964">
        <ele>226.8</ele>
        <time>2022-06-26T14:42:08Z</time>
      </trkpt>
      <trkpt lat="45.75144" lon="4.76971">
        <ele>226.8</ele>
        <time>2022-06-26T14:42:09Z</time>
      </trkpt>
      <trkpt lat="45.75147" lon="4.76978">
        <ele>226.8</ele>
        <time>2022-06-26T14:42:10Z</time>
      </trkpt>
      <trkpt lat="45.7515" lon="4.76984">
        <ele>226.8</ele>
        <time>2022-06-26T14:42:12Z</time>
      </trkpt>
      <trkpt lat="45.75152" lon="4.76991">
        <ele>227</ele>
        <time>2022-06-26T14:42:13Z</time>
      </trkpt>
      <trkpt lat="45.75155" lon="4.76997">
        <ele>227</ele>
        <time>2022-06-26T14:42:14Z</time>
      </trkpt>
      <trkpt lat="45.75157" lon="4.77002">
        <ele>227</ele>
        <time>2022-06-26T14:42:15Z</time>
      </trkpt>
      <trkpt lat="45.7516" lon="4.77007">
        <ele>227</ele>
        <time>2022-06-26T14:42:16Z</time>
      </trkpt>
      <trkpt lat="45.75162" lon="4.77013">
        <ele>227</ele>
        <time>2022-06-26T14:42:17Z</time>
      </trkpt>
      <trkpt lat="45.75165" lon="4.77017">
        <ele>227</ele>
        <time>2022-06-26T14:42:18Z</time>
      </trkpt>
      <trkpt lat="45.75168" lon="4.77021">
        <ele>227</ele>
        <time>2022-06-26T14:42:19Z</time>
      </trkpt>
      <trkpt lat="45.75171" lon="4.77026">
        <ele>227</ele>
        <time>2022-06-26T14:42:20Z</time>
      </trkpt>
      <trkpt lat="45.75174" lon="4.77031">
        <ele>227.4</ele>
        <time>2022-06-26T14:42:21Z</time>
      </trkpt>
      <trkpt lat="45.75177" lon="4.77036">
        <ele>227.4</ele>
        <time>2022-06-26T14:42:22Z</time>
      </trkpt>
      <trkpt lat="45.7518" lon="4.77042">
        <ele>227.6</ele>
        <time>2022-06-26T14:42:23Z</time>
      </trkpt>
      <trkpt lat="45.75183" lon="4.77048">
        <ele>227.6</ele>
        <time>2022-06-26T14:42:24Z</time>
      </trkpt>
      <trkpt lat="45.75187" lon="4.77054">
        <ele>227.6</ele>
        <time>2022-06-26T14:42:25Z</time>
      </trkpt>
      <trkpt lat="45.7519" lon="4.77061">
        <ele>227.8</ele>
        <time>2022-06-26T14:42:26Z</time>
      </trkpt>
      <trkpt lat="45.75194" lon="4.77067">
        <ele>227.8</ele>
        <time>2022-06-26T14:42:27Z</time>
      </trkpt>
      <trkpt lat="45.75198" lon="4.77073">
        <ele>228.2</ele>
        <time>2022-06-26T14:42:28Z</time>
      </trkpt>
      <trkpt lat="45.75201" lon="4.7708">
        <ele>228.2</ele>
        <time>2022-06-26T14:42:29Z</time>
      </trkpt>
      <trkpt lat="45.75206" lon="4.77087">
        <ele>228.4</ele>
        <time>2022-06-26T14:42:30Z</time>
      </trkpt>
      <trkpt lat="45.7521" lon="4.77094">
        <ele>228.4</ele>
        <time>2022-06-26T14:42:31Z</time>
      </trkpt>
      <trkpt lat="45.75214" lon="4.77101">
        <ele>228.2</ele>
        <time>2022-06-26T14:42:32Z</time>
      </trkpt>
      <trkpt lat="45.75219" lon="4.77108">
        <ele>228.2</ele>
        <time>2022-06-26T14:42:33Z</time>
      </trkpt>
      <trkpt lat="45.75224" lon="4.77115">
        <ele>228.2</ele>
        <time>2022-06-26T14:42:34Z</time>
      </trkpt>
      <trkpt lat="45.75229" lon="4.77122">
        <ele>228</ele>
        <time>2022-06-26T14:42:35Z</time>
      </trkpt>
      <trkpt lat="45.75235" lon="4.77129">
        <ele>228</ele>
        <time>2022-06-26T14:42:36Z</time>
      </trkpt>
      <trkpt lat="45.7524" lon="4.77136">
        <ele>228</ele>
        <time>2022-06-26T14:42:37Z</time>
      </trkpt>
      <trkpt lat="45.75245" lon="4.77143">
        <ele>228</ele>
        <time>2022-06-26T14:42:38Z</time>
      </trkpt>
      <trkpt lat="45.7525" lon="4.7715">
        <ele>228</ele>
        <time>2022-06-26T14:42:39Z</time>
      </trkpt>
      <trkpt lat="45.75254" lon="4.77158">
        <ele>228</ele>
        <time>2022-06-26T14:42:40Z</time>
      </trkpt>
      <trkpt lat="45.75257" lon="4.77167">
        <ele>227.8</ele>
        <time>2022-06-26T14:42:41Z</time>
      </trkpt>
      <trkpt lat="45.75261" lon="4.77175">
        <ele>227.8</ele>
        <time>2022-06-26T14:42:42Z</time>
      </trkpt>
      <trkpt lat="45.75264" lon="4.77183">
        <ele>227.8</ele>
        <time>2022-06-26T14:42:43Z</time>
      </trkpt>
      <trkpt lat="45.75267" lon="4.77191">
        <ele>227.8</ele>
        <time>2022-06-26T14:42:44Z</time>
      </trkpt>
      <trkpt lat="45.7527" lon="4.77198">
        <ele>227.8</ele>
        <time>2022-06-26T14:42:45Z</time>
      </trkpt>
      <trkpt lat="45.75273" lon="4.77205">
        <ele>227.8</ele>
        <time>2022-06-26T14:42:46Z</time>
      </trkpt>
      <trkpt lat="45.75276" lon="4.77211">
        <ele>227.8</ele>
        <time>2022-06-26T14:42:47Z</time>
      </trkpt>
      <trkpt lat="45.75278" lon="4.77218">
        <ele>227.8</ele>
        <time>2022-06-26T14:42:48Z</time>
      </trkpt>
      <trkpt lat="45.75281" lon="4.77225">
        <ele>228</ele>
        <time>2022-06-26T14:42:49Z</time>
      </trkpt>
      <trkpt lat="45.75286" lon="4.77239">
        <ele>228</ele>
        <time>2022-06-26T14:42:50Z</time>
      </trkpt>
      <trkpt lat="45.75288" lon="4.77247">
        <ele>228</ele>
        <time>2022-06-26T14:42:51Z</time>
      </trkpt>
      <trkpt lat="45.75291" lon="4.77254">
        <ele>228</ele>
        <time>2022-06-26T14:42:52Z</time>
      </trkpt>
      <trkpt lat="45.75293" lon="4.77261">
        <ele>228</ele>
        <time>2022-06-26T14:42:53Z</time>
      </trkpt>
      <trkpt lat="45.75296" lon="4.77269">
        <ele>228</ele>
        <time>2022-06-26T14:42:54Z</time>
      </trkpt>
      <trkpt lat="45.75298" lon="4.77277">
        <ele>228</ele>
        <time>2022-06-26T14:42:55Z</time>
      </trkpt>
      <trkpt lat="45.75301" lon="4.77285">
        <ele>228</ele>
        <time>2022-06-26T14:42:56Z</time>
      </trkpt>
      <trkpt lat="45.75303" lon="4.77294">
        <ele>228</ele>
        <time>2022-06-26T14:42:57Z</time>
      </trkpt>
      <trkpt lat="45.75305" lon="4.77302">
        <ele>228</ele>
        <time>2022-06-26T14:42:58Z</time>
      </trkpt>
      <trkpt lat="45.75306" lon="4.77311">
        <ele>228</ele>
        <time>2022-06-26T14:42:59Z</time>
      </trkpt>
      <trkpt lat="45.75307" lon="4.7732">
        <ele>228</ele>
        <time>2022-06-26T14:43:00Z</time>
      </trkpt>
      <trkpt lat="45.75308" lon="4.77329">
        <ele>228</ele>
        <time>2022-06-26T14:43:01Z</time>
      </trkpt>
      <trkpt lat="45.75309" lon="4.77338">
        <ele>228</ele>
        <time>2022-06-26T14:43:02Z</time>
      </trkpt>
      <trkpt lat="45.7531" lon="4.77347">
        <ele>228</ele>
        <time>2022-06-26T14:43:03Z</time>
      </trkpt>
      <trkpt lat="45.75311" lon="4.77356">
        <ele>228</ele>
        <time>2022-06-26T14:43:04Z</time>
      </trkpt>
      <trkpt lat="45.75312" lon="4.77365">
        <ele>228</ele>
        <time>2022-06-26T14:43:05Z</time>
      </trkpt>
      <trkpt lat="45.75313" lon="4.77374">
        <ele>228</ele>
        <time>2022-06-26T14:43:06Z</time>
      </trkpt>
      <trkpt lat="45.75314" lon="4.77383">
        <ele>228</ele>
        <time>2022-06-26T14:43:07Z</time>
      </trkpt>
      <trkpt lat="45.75316" lon="4.77391">
        <ele>228</ele>
        <time>2022-06-26T14:43:08Z</time>
      </trkpt>
      <trkpt lat="45.75318" lon="4.774">
        <ele>228</ele>
        <time>2022-06-26T14:43:09Z</time>
      </trkpt>
      <trkpt lat="45.7532" lon="4.77409">
        <ele>228</ele>
        <time>2022-06-26T14:43:10Z</time>
      </trkpt>
      <trkpt lat="45.75323" lon="4.77418">
        <ele>228</ele>
        <time>2022-06-26T14:43:11Z</time>
      </trkpt>
      <trkpt lat="45.75326" lon="4.77426">
        <ele>228.2</ele>
        <time>2022-06-26T14:43:12Z</time>
      </trkpt>
      <trkpt lat="45.75328" lon="4.77434">
        <ele>228.2</ele>
        <time>2022-06-26T14:43:13Z</time>
      </trkpt>
      <trkpt lat="45.75331" lon="4.77443">
        <ele>228.2</ele>
        <time>2022-06-26T14:43:14Z</time>
      </trkpt>
      <trkpt lat="45.75334" lon="4.77451">
        <ele>228.4</ele>
        <time>2022-06-26T14:43:15Z</time>
      </trkpt>
      <trkpt lat="45.75336" lon="4.7746">
        <ele>228.4</ele>
        <time>2022-06-26T14:43:16Z</time>
      </trkpt>
      <trkpt lat="45.75339" lon="4.77468">
        <ele>228.4</ele>
        <time>2022-06-26T14:43:17Z</time>
      </trkpt>
      <trkpt lat="45.75342" lon="4.77476">
        <ele>228.8</ele>
        <time>2022-06-26T14:43:18Z</time>
      </trkpt>
      <trkpt lat="45.75344" lon="4.77484">
        <ele>228.8</ele>
        <time>2022-06-26T14:43:19Z</time>
      </trkpt>
      <trkpt lat="45.75347" lon="4.77492">
        <ele>229</ele>
        <time>2022-06-26T14:43:20Z</time>
      </trkpt>
      <trkpt lat="45.75349" lon="4.775">
        <ele>229</ele>
        <time>2022-06-26T14:43:21Z</time>
      </trkpt>
      <trkpt lat="45.75352" lon="4.77508">
        <ele>229.2</ele>
        <time>2022-06-26T14:43:22Z</time>
      </trkpt>
      <trkpt lat="45.75354" lon="4.77516">
        <ele>229.2</ele>
        <time>2022-06-26T14:43:23Z</time>
      </trkpt>
      <trkpt lat="45.75356" lon="4.77524">
        <ele>229.4</ele>
        <time>2022-06-26T14:43:24Z</time>
      </trkpt>
      <trkpt lat="45.75358" lon="4.77532">
        <ele>229.4</ele>
        <time>2022-06-26T14:43:25Z</time>
      </trkpt>
      <trkpt lat="45.75361" lon="4.7754">
        <ele>229.8</ele>
        <time>2022-06-26T14:43:26Z</time>
      </trkpt>
      <trkpt lat="45.75363" lon="4.77548">
        <ele>229.8</ele>
        <time>2022-06-26T14:43:27Z</time>
      </trkpt>
      <trkpt lat="45.75366" lon="4.77555">
        <ele>230.2</ele>
        <time>2022-06-26T14:43:28Z</time>
      </trkpt>
      <trkpt lat="45.75368" lon="4.77563">
        <ele>230.4</ele>
        <time>2022-06-26T14:43:29Z</time>
      </trkpt>
      <trkpt lat="45.7537" lon="4.7757">
        <ele>230.4</ele>
        <time>2022-06-26T14:43:30Z</time>
      </trkpt>
      <trkpt lat="45.75373" lon="4.77577">
        <ele>230.8</ele>
        <time>2022-06-26T14:43:31Z</time>
      </trkpt>
      <trkpt lat="45.75375" lon="4.77584">
        <ele>230.8</ele>
        <time>2022-06-26T14:43:32Z</time>
      </trkpt>
      <trkpt lat="45.75378" lon="4.77592">
        <ele>231</ele>
        <time>2022-06-26T14:43:33Z</time>
      </trkpt>
      <trkpt lat="45.7538" lon="4.77599">
        <ele>231</ele>
        <time>2022-06-26T14:43:34Z</time>
      </trkpt>
      <trkpt lat="45.75383" lon="4.77606">
        <ele>231.4</ele>
        <time>2022-06-26T14:43:35Z</time>
      </trkpt>
      <trkpt lat="45.75385" lon="4.77613">
        <ele>231.4</ele>
        <time>2022-06-26T14:43:36Z</time>
      </trkpt>
      <trkpt lat="45.75387" lon="4.77621">
        <ele>231.6</ele>
        <time>2022-06-26T14:43:37Z</time>
      </trkpt>
      <trkpt lat="45.7539" lon="4.77627">
        <ele>231.6</ele>
        <time>2022-06-26T14:43:38Z</time>
      </trkpt>
      <trkpt lat="45.75392" lon="4.77634">
        <ele>232</ele>
        <time>2022-06-26T14:43:39Z</time>
      </trkpt>
      <trkpt lat="45.75394" lon="4.77641">
        <ele>232</ele>
        <time>2022-06-26T14:43:40Z</time>
      </trkpt>
      <trkpt lat="45.75396" lon="4.77648">
        <ele>232.2</ele>
        <time>2022-06-26T14:43:41Z</time>
      </trkpt>
      <trkpt lat="45.75398" lon="4.77656">
        <ele>232.2</ele>
        <time>2022-06-26T14:43:42Z</time>
      </trkpt>
      <trkpt lat="45.75399" lon="4.77663">
        <ele>232.2</ele>
        <time>2022-06-26T14:43:43Z</time>
      </trkpt>
      <trkpt lat="45.75401" lon="4.7767">
        <ele>232.4</ele>
        <time>2022-06-26T14:43:44Z</time>
      </trkpt>
      <trkpt lat="45.75403" lon="4.77677">
        <ele>232.4</ele>
        <time>2022-06-26T14:43:45Z</time>
      </trkpt>
      <trkpt lat="45.75405" lon="4.77684">
        <ele>232.4</ele>
        <time>2022-06-26T14:43:46Z</time>
      </trkpt>
      <trkpt lat="45.75406" lon="4.77691">
        <ele>232.8</ele>
        <time>2022-06-26T14:43:47Z</time>
      </trkpt>
      <trkpt lat="45.75409" lon="4.77698">
        <ele>232.8</ele>
        <time>2022-06-26T14:43:48Z</time>
      </trkpt>
      <trkpt lat="45.75411" lon="4.77705">
        <ele>233</ele>
        <time>2022-06-26T14:43:49Z</time>
      </trkpt>
      <trkpt lat="45.75413" lon="4.77713">
        <ele>233</ele>
        <time>2022-06-26T14:43:50Z</time>
      </trkpt>
      <trkpt lat="45.75415" lon="4.7772">
        <ele>233</ele>
        <time>2022-06-26T14:43:51Z</time>
      </trkpt>
      <trkpt lat="45.75416" lon="4.77728">
        <ele>233.4</ele>
        <time>2022-06-26T14:43:52Z</time>
      </trkpt>
      <trkpt lat="45.75418" lon="4.77735">
        <ele>233.4</ele>
        <time>2022-06-26T14:43:53Z</time>
      </trkpt>
      <trkpt lat="45.75419" lon="4.77743">
        <ele>233.6</ele>
        <time>2022-06-26T14:43:54Z</time>
      </trkpt>
      <trkpt lat="45.75421" lon="4.7775">
        <ele>233.6</ele>
        <time>2022-06-26T14:43:55Z</time>
      </trkpt>
      <trkpt lat="45.75422" lon="4.77757">
        <ele>233.6</ele>
        <time>2022-06-26T14:43:56Z</time>
      </trkpt>
      <trkpt lat="45.75424" lon="4.77764">
        <ele>233.8</ele>
        <time>2022-06-26T14:43:57Z</time>
      </trkpt>
      <trkpt lat="45.75425" lon="4.77772">
        <ele>233.8</ele>
        <time>2022-06-26T14:43:58Z</time>
      </trkpt>
      <trkpt lat="45.75427" lon="4.77779">
        <ele>233.8</ele>
        <time>2022-06-26T14:43:59Z</time>
      </trkpt>
      <trkpt lat="45.75428" lon="4.77786">
        <ele>234</ele>
        <time>2022-06-26T14:44:00Z</time>
      </trkpt>
      <trkpt lat="45.75429" lon="4.77793">
        <ele>234</ele>
        <time>2022-06-26T14:44:01Z</time>
      </trkpt>
      <trkpt lat="45.7543" lon="4.778">
        <ele>234</ele>
        <time>2022-06-26T14:44:02Z</time>
      </trkpt>
      <trkpt lat="45.75431" lon="4.77807">
        <ele>234</ele>
        <time>2022-06-26T14:44:03Z</time>
      </trkpt>
      <trkpt lat="45.75432" lon="4.77814">
        <ele>234</ele>
        <time>2022-06-26T14:44:04Z</time>
      </trkpt>
      <trkpt lat="45.75433" lon="4.77821">
        <ele>234.2</ele>
        <time>2022-06-26T14:44:05Z</time>
      </trkpt>
      <trkpt lat="45.75435" lon="4.77828">
        <ele>234.2</ele>
        <time>2022-06-26T14:44:06Z</time>
      </trkpt>
      <trkpt lat="45.75436" lon="4.77835">
        <ele>234.4</ele>
        <time>2022-06-26T14:44:07Z</time>
      </trkpt>
      <trkpt lat="45.75437" lon="4.77842">
        <ele>234.4</ele>
        <time>2022-06-26T14:44:08Z</time>
      </trkpt>
      <trkpt lat="45.75438" lon="4.77849">
        <ele>234.8</ele>
        <time>2022-06-26T14:44:09Z</time>
      </trkpt>
      <trkpt lat="45.75439" lon="4.77856">
        <ele>234.8</ele>
        <time>2022-06-26T14:44:10Z</time>
      </trkpt>
      <trkpt lat="45.7544" lon="4.77863">
        <ele>235</ele>
        <time>2022-06-26T14:44:11Z</time>
      </trkpt>
      <trkpt lat="45.75441" lon="4.7787">
        <ele>235</ele>
        <time>2022-06-26T14:44:12Z</time>
      </trkpt>
      <trkpt lat="45.75441" lon="4.77877">
        <ele>235.4</ele>
        <time>2022-06-26T14:44:13Z</time>
      </trkpt>
      <trkpt lat="45.75442" lon="4.77883">
        <ele>235.4</ele>
        <time>2022-06-26T14:44:14Z</time>
      </trkpt>
      <trkpt lat="45.75442" lon="4.7789">
        <ele>235.8</ele>
        <time>2022-06-26T14:44:15Z</time>
      </trkpt>
      <trkpt lat="45.75443" lon="4.77896">
        <ele>235.8</ele>
        <time>2022-06-26T14:44:16Z</time>
      </trkpt>
      <trkpt lat="45.75443" lon="4.77902">
        <ele>236</ele>
        <time>2022-06-26T14:44:17Z</time>
      </trkpt>
      <trkpt lat="45.75444" lon="4.77907">
        <ele>236</ele>
        <time>2022-06-26T14:44:18Z</time>
      </trkpt>
      <trkpt lat="45.75444" lon="4.77913">
        <ele>236.4</ele>
        <time>2022-06-26T14:44:19Z</time>
      </trkpt>
      <trkpt lat="45.75445" lon="4.77917">
        <ele>236.4</ele>
        <time>2022-06-26T14:44:20Z</time>
      </trkpt>
      <trkpt lat="45.75445" lon="4.77922">
        <ele>236.8</ele>
        <time>2022-06-26T14:44:21Z</time>
      </trkpt>
      <trkpt lat="45.75448" lon="4.77926">
        <ele>237</ele>
        <time>2022-06-26T14:44:22Z</time>
      </trkpt>
      <trkpt lat="45.75449" lon="4.77931">
        <ele>237</ele>
        <time>2022-06-26T14:44:23Z</time>
      </trkpt>
      <trkpt lat="45.75449" lon="4.77937">
        <ele>237.4</ele>
        <time>2022-06-26T14:44:24Z</time>
      </trkpt>
      <trkpt lat="45.7545" lon="4.77941">
        <ele>237.8</ele>
        <time>2022-06-26T14:44:25Z</time>
      </trkpt>
      <trkpt lat="45.75451" lon="4.77946">
        <ele>238</ele>
        <time>2022-06-26T14:44:26Z</time>
      </trkpt>
      <trkpt lat="45.75452" lon="4.77951">
        <ele>238.2</ele>
        <time>2022-06-26T14:44:27Z</time>
      </trkpt>
      <trkpt lat="45.75453" lon="4.77956">
        <ele>238.4</ele>
        <time>2022-06-26T14:44:28Z</time>
      </trkpt>
      <trkpt lat="45.75454" lon="4.77961">
        <ele>238.6</ele>
        <time>2022-06-26T14:44:29Z</time>
      </trkpt>
      <trkpt lat="45.75455" lon="4.77966">
        <ele>239</ele>
        <time>2022-06-26T14:44:30Z</time>
      </trkpt>
      <trkpt lat="45.75456" lon="4.77971">
        <ele>239</ele>
        <time>2022-06-26T14:44:31Z</time>
      </trkpt>
      <trkpt lat="45.75457" lon="4.77976">
        <ele>239.4</ele>
        <time>2022-06-26T14:44:32Z</time>
      </trkpt>
      <trkpt lat="45.75458" lon="4.77981">
        <ele>239.4</ele>
        <time>2022-06-26T14:44:33Z</time>
      </trkpt>
      <trkpt lat="45.75458" lon="4.77986">
        <ele>239.8</ele>
        <time>2022-06-26T14:44:34Z</time>
      </trkpt>
      <trkpt lat="45.75459" lon="4.77991">
        <ele>239.8</ele>
        <time>2022-06-26T14:44:35Z</time>
      </trkpt>
      <trkpt lat="45.75459" lon="4.77996">
        <ele>240.2</ele>
        <time>2022-06-26T14:44:36Z</time>
      </trkpt>
      <trkpt lat="45.75459" lon="4.78002">
        <ele>240.2</ele>
        <time>2022-06-26T14:44:37Z</time>
      </trkpt>
      <trkpt lat="45.7546" lon="4.78008">
        <ele>240.4</ele>
        <time>2022-06-26T14:44:38Z</time>
      </trkpt>
      <trkpt lat="45.7546" lon="4.78014">
        <ele>240.6</ele>
        <time>2022-06-26T14:44:39Z</time>
      </trkpt>
      <trkpt lat="45.7546" lon="4.78019">
        <ele>240.8</ele>
        <time>2022-06-26T14:44:40Z</time>
      </trkpt>
      <trkpt lat="45.7546" lon="4.78025">
        <ele>240.8</ele>
        <time>2022-06-26T14:44:41Z</time>
      </trkpt>
      <trkpt lat="45.7546" lon="4.78031">
        <ele>241.2</ele>
        <time>2022-06-26T14:44:42Z</time>
      </trkpt>
      <trkpt lat="45.7546" lon="4.78036">
        <ele>241.2</ele>
        <time>2022-06-26T14:44:43Z</time>
      </trkpt>
      <trkpt lat="45.75459" lon="4.78041">
        <ele>241.6</ele>
        <time>2022-06-26T14:44:44Z</time>
      </trkpt>
      <trkpt lat="45.75459" lon="4.78046">
        <ele>241.6</ele>
        <time>2022-06-26T14:44:45Z</time>
      </trkpt>
      <trkpt lat="45.75459" lon="4.78051">
        <ele>241.8</ele>
        <time>2022-06-26T14:44:46Z</time>
      </trkpt>
      <trkpt lat="45.75459" lon="4.78056">
        <ele>242.2</ele>
        <time>2022-06-26T14:44:47Z</time>
      </trkpt>
      <trkpt lat="45.75459" lon="4.7806">
        <ele>242.4</ele>
        <time>2022-06-26T14:44:48Z</time>
      </trkpt>
      <trkpt lat="45.75459" lon="4.78065">
        <ele>242.6</ele>
        <time>2022-06-26T14:44:49Z</time>
      </trkpt>
      <trkpt lat="45.75459" lon="4.7807">
        <ele>242.8</ele>
        <time>2022-06-26T14:44:50Z</time>
      </trkpt>
      <trkpt lat="45.75458" lon="4.78075">
        <ele>242.8</ele>
        <time>2022-06-26T14:44:51Z</time>
      </trkpt>
      <trkpt lat="45.75458" lon="4.78079">
        <ele>243.2</ele>
        <time>2022-06-26T14:44:52Z</time>
      </trkpt>
      <trkpt lat="45.75458" lon="4.78084">
        <ele>243.4</ele>
        <time>2022-06-26T14:44:53Z</time>
      </trkpt>
      <trkpt lat="45.75457" lon="4.78089">
        <ele>243.4</ele>
        <time>2022-06-26T14:44:54Z</time>
      </trkpt>
      <trkpt lat="45.75457" lon="4.78094">
        <ele>243.8</ele>
        <time>2022-06-26T14:44:55Z</time>
      </trkpt>
      <trkpt lat="45.75457" lon="4.78098">
        <ele>243.8</ele>
        <time>2022-06-26T14:44:56Z</time>
      </trkpt>
      <trkpt lat="45.75456" lon="4.78103">
        <ele>244.2</ele>
        <time>2022-06-26T14:44:57Z</time>
      </trkpt>
      <trkpt lat="45.75456" lon="4.78108">
        <ele>244.2</ele>
        <time>2022-06-26T14:44:58Z</time>
      </trkpt>
      <trkpt lat="45.75455" lon="4.78112">
        <ele>244.4</ele>
        <time>2022-06-26T14:44:59Z</time>
      </trkpt>
      <trkpt lat="45.75455" lon="4.78117">
        <ele>244.8</ele>
        <time>2022-06-26T14:45:00Z</time>
      </trkpt>
      <trkpt lat="45.75455" lon="4.78122">
        <ele>244.8</ele>
        <time>2022-06-26T14:45:01Z</time>
      </trkpt>
      <trkpt lat="45.75454" lon="4.78127">
        <ele>245.4</ele>
        <time>2022-06-26T14:45:02Z</time>
      </trkpt>
      <trkpt lat="45.75454" lon="4.78131">
        <ele>245.4</ele>
        <time>2022-06-26T14:45:03Z</time>
      </trkpt>
      <trkpt lat="45.75454" lon="4.78136">
        <ele>245.8</ele>
        <time>2022-06-26T14:45:04Z</time>
      </trkpt>
      <trkpt lat="45.75453" lon="4.78141">
        <ele>246</ele>
        <time>2022-06-26T14:45:05Z</time>
      </trkpt>
      <trkpt lat="45.75453" lon="4.78146">
        <ele>246.2</ele>
        <time>2022-06-26T14:45:06Z</time>
      </trkpt>
      <trkpt lat="45.75453" lon="4.7815">
        <ele>246.4</ele>
        <time>2022-06-26T14:45:07Z</time>
      </trkpt>
      <trkpt lat="45.75452" lon="4.78155">
        <ele>246.4</ele>
        <time>2022-06-26T14:45:08Z</time>
      </trkpt>
      <trkpt lat="45.75451" lon="4.78159">
        <ele>246.8</ele>
        <time>2022-06-26T14:45:09Z</time>
      </trkpt>
      <trkpt lat="45.75451" lon="4.78163">
        <ele>246.8</ele>
        <time>2022-06-26T14:45:10Z</time>
      </trkpt>
      <trkpt lat="45.7545" lon="4.78168">
        <ele>247.2</ele>
        <time>2022-06-26T14:45:11Z</time>
      </trkpt>
      <trkpt lat="45.7545" lon="4.78172">
        <ele>247.4</ele>
        <time>2022-06-26T14:45:12Z</time>
      </trkpt>
      <trkpt lat="45.75449" lon="4.78177">
        <ele>247.6</ele>
        <time>2022-06-26T14:45:13Z</time>
      </trkpt>
      <trkpt lat="45.75448" lon="4.78181">
        <ele>248</ele>
        <time>2022-06-26T14:45:14Z</time>
      </trkpt>
      <trkpt lat="45.75448" lon="4.78186">
        <ele>248.2</ele>
        <time>2022-06-26T14:45:15Z</time>
      </trkpt>
      <trkpt lat="45.75447" lon="4.7819">
        <ele>248.4</ele>
        <time>2022-06-26T14:45:16Z</time>
      </trkpt>
      <trkpt lat="45.75446" lon="4.78195">
        <ele>248.6</ele>
        <time>2022-06-26T14:45:17Z</time>
      </trkpt>
      <trkpt lat="45.75446" lon="4.78199">
        <ele>248.8</ele>
        <time>2022-06-26T14:45:18Z</time>
      </trkpt>
      <trkpt lat="45.75445" lon="4.78203">
        <ele>249</ele>
        <time>2022-06-26T14:45:19Z</time>
      </trkpt>
      <trkpt lat="45.75445" lon="4.78208">
        <ele>249.2</ele>
        <time>2022-06-26T14:45:20Z</time>
      </trkpt>
      <trkpt lat="45.75444" lon="4.78212">
        <ele>249.6</ele>
        <time>2022-06-26T14:45:21Z</time>
      </trkpt>
      <trkpt lat="45.75444" lon="4.78217">
        <ele>249.8</ele>
        <time>2022-06-26T14:45:22Z</time>
      </trkpt>
      <trkpt lat="45.75443" lon="4.78222">
        <ele>249.8</ele>
        <time>2022-06-26T14:45:23Z</time>
      </trkpt>
      <trkpt lat="45.75443" lon="4.78226">
        <ele>250.2</ele>
        <time>2022-06-26T14:45:24Z</time>
      </trkpt>
      <trkpt lat="45.75443" lon="4.78231">
        <ele>250.2</ele>
        <time>2022-06-26T14:45:25Z</time>
      </trkpt>
      <trkpt lat="45.75443" lon="4.78235">
        <ele>250.4</ele>
        <time>2022-06-26T14:45:26Z</time>
      </trkpt>
      <trkpt lat="45.75443" lon="4.7824">
        <ele>250.6</ele>
        <time>2022-06-26T14:45:27Z</time>
      </trkpt>
      <trkpt lat="45.75443" lon="4.78244">
        <ele>250.6</ele>
        <time>2022-06-26T14:45:28Z</time>
      </trkpt>
      <trkpt lat="45.75443" lon="4.78249">
        <ele>250.6</ele>
        <time>2022-06-26T14:45:29Z</time>
      </trkpt>
      <trkpt lat="45.75442" lon="4.78254">
        <ele>250.6</ele>
        <time>2022-06-26T14:45:30Z</time>
      </trkpt>
      <trkpt lat="45.75442" lon="4.78259">
        <ele>250.8</ele>
        <time>2022-06-26T14:45:31Z</time>
      </trkpt>
      <trkpt lat="45.75442" lon="4.78264">
        <ele>250.8</ele>
        <time>2022-06-26T14:45:32Z</time>
      </trkpt>
      <trkpt lat="45.75442" lon="4.78269">
        <ele>251.2</ele>
        <time>2022-06-26T14:45:33Z</time>
      </trkpt>
      <trkpt lat="45.75443" lon="4.78273">
        <ele>251.2</ele>
        <time>2022-06-26T14:45:34Z</time>
      </trkpt>
      <trkpt lat="45.75443" lon="4.78278">
        <ele>251.4</ele>
        <time>2022-06-26T14:45:35Z</time>
      </trkpt>
      <trkpt lat="45.75443" lon="4.78283">
        <ele>251.4</ele>
        <time>2022-06-26T14:45:36Z</time>
      </trkpt>
      <trkpt lat="45.75443" lon="4.78288">
        <ele>251.8</ele>
        <time>2022-06-26T14:45:37Z</time>
      </trkpt>
      <trkpt lat="45.75443" lon="4.78292">
        <ele>252</ele>
        <time>2022-06-26T14:45:38Z</time>
      </trkpt>
      <trkpt lat="45.75443" lon="4.78297">
        <ele>252.2</ele>
        <time>2022-06-26T14:45:39Z</time>
      </trkpt>
      <trkpt lat="45.75443" lon="4.78302">
        <ele>252.4</ele>
        <time>2022-06-26T14:45:40Z</time>
      </trkpt>
      <trkpt lat="45.75443" lon="4.78308">
        <ele>252.4</ele>
        <time>2022-06-26T14:45:41Z</time>
      </trkpt>
      <trkpt lat="45.75443" lon="4.78314">
        <ele>252.8</ele>
        <time>2022-06-26T14:45:42Z</time>
      </trkpt>
      <trkpt lat="45.75443" lon="4.7832">
        <ele>253</ele>
        <time>2022-06-26T14:45:43Z</time>
      </trkpt>
      <trkpt lat="45.75442" lon="4.78326">
        <ele>253.4</ele>
        <time>2022-06-26T14:45:44Z</time>
      </trkpt>
      <trkpt lat="45.75442" lon="4.78332">
        <ele>253.4</ele>
        <time>2022-06-26T14:45:45Z</time>
      </trkpt>
      <trkpt lat="45.75442" lon="4.78339">
        <ele>253.6</ele>
        <time>2022-06-26T14:45:46Z</time>
      </trkpt>
      <trkpt lat="45.75442" lon="4.78345">
        <ele>253.6</ele>
        <time>2022-06-26T14:45:47Z</time>
      </trkpt>
      <trkpt lat="45.75442" lon="4.78351">
        <ele>254</ele>
        <time>2022-06-26T14:45:48Z</time>
      </trkpt>
      <trkpt lat="45.75442" lon="4.78358">
        <ele>254.2</ele>
        <time>2022-06-26T14:45:49Z</time>
      </trkpt>
      <trkpt lat="45.75442" lon="4.78364">
        <ele>254.6</ele>
        <time>2022-06-26T14:45:50Z</time>
      </trkpt>
      <trkpt lat="45.75442" lon="4.7837">
        <ele>254.8</ele>
        <time>2022-06-26T14:45:51Z</time>
      </trkpt>
      <trkpt lat="45.75443" lon="4.78376">
        <ele>255.2</ele>
        <time>2022-06-26T14:45:52Z</time>
      </trkpt>
      <trkpt lat="45.75443" lon="4.78382">
        <ele>255.4</ele>
        <time>2022-06-26T14:45:53Z</time>
      </trkpt>
      <trkpt lat="45.75443" lon="4.78389">
        <ele>255.8</ele>
        <time>2022-06-26T14:45:54Z</time>
      </trkpt>
      <trkpt lat="45.75443" lon="4.78396">
        <ele>256</ele>
        <time>2022-06-26T14:45:55Z</time>
      </trkpt>
      <trkpt lat="45.75443" lon="4.78402">
        <ele>256.4</ele>
        <time>2022-06-26T14:45:56Z</time>
      </trkpt>
      <trkpt lat="45.75443" lon="4.78408">
        <ele>256.8</ele>
        <time>2022-06-26T14:45:57Z</time>
      </trkpt>
      <trkpt lat="45.75443" lon="4.78413">
        <ele>257</ele>
        <time>2022-06-26T14:45:58Z</time>
      </trkpt>
      <trkpt lat="45.75443" lon="4.78419">
        <ele>257.2</ele>
        <time>2022-06-26T14:45:59Z</time>
      </trkpt>
      <trkpt lat="45.75444" lon="4.78424">
        <ele>257.4</ele>
        <time>2022-06-26T14:46:00Z</time>
      </trkpt>
      <trkpt lat="45.75444" lon="4.7843">
        <ele>257.8</ele>
        <time>2022-06-26T14:46:01Z</time>
      </trkpt>
      <trkpt lat="45.75444" lon="4.78436">
        <ele>257.8</ele>
        <time>2022-06-26T14:46:02Z</time>
      </trkpt>
      <trkpt lat="45.75445" lon="4.78442">
        <ele>258.2</ele>
        <time>2022-06-26T14:46:03Z</time>
      </trkpt>
      <trkpt lat="45.75446" lon="4.78448">
        <ele>258.4</ele>
        <time>2022-06-26T14:46:04Z</time>
      </trkpt>
      <trkpt lat="45.75446" lon="4.78454">
        <ele>258.6</ele>
        <time>2022-06-26T14:46:05Z</time>
      </trkpt>
      <trkpt lat="45.75447" lon="4.7846">
        <ele>258.6</ele>
        <time>2022-06-26T14:46:06Z</time>
      </trkpt>
      <trkpt lat="45.75447" lon="4.78466">
        <ele>259</ele>
        <time>2022-06-26T14:46:07Z</time>
      </trkpt>
      <trkpt lat="45.75448" lon="4.78473">
        <ele>259.4</ele>
        <time>2022-06-26T14:46:08Z</time>
      </trkpt>
      <trkpt lat="45.75448" lon="4.78479">
        <ele>259.6</ele>
        <time>2022-06-26T14:46:09Z</time>
      </trkpt>
      <trkpt lat="45.75449" lon="4.78486">
        <ele>259.8</ele>
        <time>2022-06-26T14:46:10Z</time>
      </trkpt>
      <trkpt lat="45.7545" lon="4.78491">
        <ele>260.2</ele>
        <time>2022-06-26T14:46:11Z</time>
      </trkpt>
      <trkpt lat="45.7545" lon="4.78497">
        <ele>260.4</ele>
        <time>2022-06-26T14:46:12Z</time>
      </trkpt>
      <trkpt lat="45.75451" lon="4.78503">
        <ele>260.6</ele>
        <time>2022-06-26T14:46:13Z</time>
      </trkpt>
      <trkpt lat="45.75451" lon="4.78509">
        <ele>260.8</ele>
        <time>2022-06-26T14:46:14Z</time>
      </trkpt>
      <trkpt lat="45.75452" lon="4.78515">
        <ele>261.2</ele>
        <time>2022-06-26T14:46:15Z</time>
      </trkpt>
      <trkpt lat="45.75452" lon="4.78521">
        <ele>261.4</ele>
        <time>2022-06-26T14:46:16Z</time>
      </trkpt>
      <trkpt lat="45.75453" lon="4.78527">
        <ele>261.8</ele>
        <time>2022-06-26T14:46:17Z</time>
      </trkpt>
      <trkpt lat="45.75453" lon="4.78534">
        <ele>262</ele>
        <time>2022-06-26T14:46:18Z</time>
      </trkpt>
      <trkpt lat="45.75454" lon="4.78539">
        <ele>262</ele>
        <time>2022-06-26T14:46:19Z</time>
      </trkpt>
      <trkpt lat="45.75454" lon="4.78545">
        <ele>262.4</ele>
        <time>2022-06-26T14:46:21Z</time>
      </trkpt>
      <trkpt lat="45.75455" lon="4.78551">
        <ele>262.8</ele>
        <time>2022-06-26T14:46:22Z</time>
      </trkpt>
      <trkpt lat="45.75456" lon="4.78557">
        <ele>263</ele>
        <time>2022-06-26T14:46:23Z</time>
      </trkpt>
      <trkpt lat="45.75457" lon="4.78563">
        <ele>263.2</ele>
        <time>2022-06-26T14:46:24Z</time>
      </trkpt>
      <trkpt lat="45.75458" lon="4.78569">
        <ele>263.4</ele>
        <time>2022-06-26T14:46:25Z</time>
      </trkpt>
      <trkpt lat="45.75459" lon="4.78575">
        <ele>263.6</ele>
        <time>2022-06-26T14:46:26Z</time>
      </trkpt>
      <trkpt lat="45.75459" lon="4.78581">
        <ele>263.8</ele>
        <time>2022-06-26T14:46:27Z</time>
      </trkpt>
      <trkpt lat="45.7546" lon="4.78588">
        <ele>264.2</ele>
        <time>2022-06-26T14:46:28Z</time>
      </trkpt>
      <trkpt lat="45.75461" lon="4.78594">
        <ele>264.2</ele>
        <time>2022-06-26T14:46:29Z</time>
      </trkpt>
      <trkpt lat="45.75462" lon="4.786">
        <ele>264.6</ele>
        <time>2022-06-26T14:46:30Z</time>
      </trkpt>
      <trkpt lat="45.75462" lon="4.78605">
        <ele>265</ele>
        <time>2022-06-26T14:46:31Z</time>
      </trkpt>
      <trkpt lat="45.75463" lon="4.78612">
        <ele>265.2</ele>
        <time>2022-06-26T14:46:32Z</time>
      </trkpt>
      <trkpt lat="45.75463" lon="4.78618">
        <ele>265.2</ele>
        <time>2022-06-26T14:46:33Z</time>
      </trkpt>
      <trkpt lat="45.75464" lon="4.78624">
        <ele>265.6</ele>
        <time>2022-06-26T14:46:34Z</time>
      </trkpt>
      <trkpt lat="45.75465" lon="4.7863">
        <ele>265.8</ele>
        <time>2022-06-26T14:46:35Z</time>
      </trkpt>
      <trkpt lat="45.75466" lon="4.78636">
        <ele>266</ele>
        <time>2022-06-26T14:46:36Z</time>
      </trkpt>
      <trkpt lat="45.75467" lon="4.78643">
        <ele>266</ele>
        <time>2022-06-26T14:46:37Z</time>
      </trkpt>
      <trkpt lat="45.75467" lon="4.7865">
        <ele>266.4</ele>
        <time>2022-06-26T14:46:38Z</time>
      </trkpt>
      <trkpt lat="45.75468" lon="4.78656">
        <ele>266.8</ele>
        <time>2022-06-26T14:46:39Z</time>
      </trkpt>
      <trkpt lat="45.75468" lon="4.78663">
        <ele>267</ele>
        <time>2022-06-26T14:46:40Z</time>
      </trkpt>
      <trkpt lat="45.75468" lon="4.7867">
        <ele>267.2</ele>
        <time>2022-06-26T14:46:41Z</time>
      </trkpt>
      <trkpt lat="45.75469" lon="4.78676">
        <ele>267.6</ele>
        <time>2022-06-26T14:46:42Z</time>
      </trkpt>
      <trkpt lat="45.75469" lon="4.78682">
        <ele>267.6</ele>
        <time>2022-06-26T14:46:43Z</time>
      </trkpt>
      <trkpt lat="45.75469" lon="4.78688">
        <ele>268</ele>
        <time>2022-06-26T14:46:44Z</time>
      </trkpt>
      <trkpt lat="45.75469" lon="4.78695">
        <ele>268</ele>
        <time>2022-06-26T14:46:45Z</time>
      </trkpt>
      <trkpt lat="45.75468" lon="4.78701">
        <ele>268.4</ele>
        <time>2022-06-26T14:46:46Z</time>
      </trkpt>
      <trkpt lat="45.75468" lon="4.78707">
        <ele>268.4</ele>
        <time>2022-06-26T14:46:47Z</time>
      </trkpt>
      <trkpt lat="45.75468" lon="4.78713">
        <ele>268.8</ele>
        <time>2022-06-26T14:46:48Z</time>
      </trkpt>
      <trkpt lat="45.75467" lon="4.78719">
        <ele>268.8</ele>
        <time>2022-06-26T14:46:49Z</time>
      </trkpt>
      <trkpt lat="45.75467" lon="4.78725">
        <ele>269.2</ele>
        <time>2022-06-26T14:46:50Z</time>
      </trkpt>
      <trkpt lat="45.75466" lon="4.78731">
        <ele>269.2</ele>
        <time>2022-06-26T14:46:51Z</time>
      </trkpt>
      <trkpt lat="45.75467" lon="4.78737">
        <ele>269.6</ele>
        <time>2022-06-26T14:46:52Z</time>
      </trkpt>
      <trkpt lat="45.75467" lon="4.78743">
        <ele>269.6</ele>
        <time>2022-06-26T14:46:53Z</time>
      </trkpt>
      <trkpt lat="45.75466" lon="4.78748">
        <ele>269.8</ele>
        <time>2022-06-26T14:46:54Z</time>
      </trkpt>
      <trkpt lat="45.75466" lon="4.78754">
        <ele>270</ele>
        <time>2022-06-26T14:46:55Z</time>
      </trkpt>
      <trkpt lat="45.75465" lon="4.7876">
        <ele>270</ele>
        <time>2022-06-26T14:46:56Z</time>
      </trkpt>
      <trkpt lat="45.75464" lon="4.78766">
        <ele>270.4</ele>
        <time>2022-06-26T14:46:57Z</time>
      </trkpt>
      <trkpt lat="45.75463" lon="4.78772">
        <ele>270.6</ele>
        <time>2022-06-26T14:46:58Z</time>
      </trkpt>
      <trkpt lat="45.75461" lon="4.78777">
        <ele>270.6</ele>
        <time>2022-06-26T14:46:59Z</time>
      </trkpt>
      <trkpt lat="45.7546" lon="4.78783">
        <ele>271</ele>
        <time>2022-06-26T14:47:00Z</time>
      </trkpt>
      <trkpt lat="45.75459" lon="4.78788">
        <ele>271</ele>
        <time>2022-06-26T14:47:01Z</time>
      </trkpt>
      <trkpt lat="45.75458" lon="4.78793">
        <ele>271.2</ele>
        <time>2022-06-26T14:47:02Z</time>
      </trkpt>
      <trkpt lat="45.75458" lon="4.78798">
        <ele>271.2</ele>
        <time>2022-06-26T14:47:03Z</time>
      </trkpt>
      <trkpt lat="45.75457" lon="4.78803">
        <ele>271.6</ele>
        <time>2022-06-26T14:47:04Z</time>
      </trkpt>
      <trkpt lat="45.75457" lon="4.78808">
        <ele>271.8</ele>
        <time>2022-06-26T14:47:05Z</time>
      </trkpt>
      <trkpt lat="45.75456" lon="4.78812">
        <ele>271.8</ele>
        <time>2022-06-26T14:47:06Z</time>
      </trkpt>
      <trkpt lat="45.75457" lon="4.7882">
        <ele>272</ele>
        <time>2022-06-26T14:47:07Z</time>
      </trkpt>
      <trkpt lat="45.75458" lon="4.78823">
        <ele>272</ele>
        <time>2022-06-26T14:47:08Z</time>
      </trkpt>
      <trkpt lat="45.75458" lon="4.78826">
        <ele>272.4</ele>
        <time>2022-06-26T14:47:09Z</time>
      </trkpt>
      <trkpt lat="45.75459" lon="4.78829">
        <ele>272.4</ele>
        <time>2022-06-26T14:47:10Z</time>
      </trkpt>
      <trkpt lat="45.75459" lon="4.78832">
        <ele>272.4</ele>
        <time>2022-06-26T14:47:11Z</time>
      </trkpt>
      <trkpt lat="45.75459" lon="4.78836">
        <ele>272.6</ele>
        <time>2022-06-26T14:47:12Z</time>
      </trkpt>
      <trkpt lat="45.7546" lon="4.78839">
        <ele>272.6</ele>
        <time>2022-06-26T14:47:13Z</time>
      </trkpt>
      <trkpt lat="45.7546" lon="4.78842">
        <ele>272.6</ele>
        <time>2022-06-26T14:47:14Z</time>
      </trkpt>
      <trkpt lat="45.75461" lon="4.78846">
        <ele>272.8</ele>
        <time>2022-06-26T14:47:15Z</time>
      </trkpt>
      <trkpt lat="45.75462" lon="4.7885">
        <ele>272.8</ele>
        <time>2022-06-26T14:47:16Z</time>
      </trkpt>
      <trkpt lat="45.75463" lon="4.78854">
        <ele>273.2</ele>
        <time>2022-06-26T14:47:17Z</time>
      </trkpt>
      <trkpt lat="45.75465" lon="4.78859">
        <ele>273.2</ele>
        <time>2022-06-26T14:47:18Z</time>
      </trkpt>
      <trkpt lat="45.75468" lon="4.78864">
        <ele>273.6</ele>
        <time>2022-06-26T14:47:19Z</time>
      </trkpt>
      <trkpt lat="45.7547" lon="4.78868">
        <ele>273.6</ele>
        <time>2022-06-26T14:47:20Z</time>
      </trkpt>
      <trkpt lat="45.75472" lon="4.78873">
        <ele>273.6</ele>
        <time>2022-06-26T14:47:21Z</time>
      </trkpt>
      <trkpt lat="45.75475" lon="4.78877">
        <ele>273.8</ele>
        <time>2022-06-26T14:47:22Z</time>
      </trkpt>
      <trkpt lat="45.75477" lon="4.78881">
        <ele>273.8</ele>
        <time>2022-06-26T14:47:23Z</time>
      </trkpt>
      <trkpt lat="45.7548" lon="4.78885">
        <ele>274.2</ele>
        <time>2022-06-26T14:47:24Z</time>
      </trkpt>
      <trkpt lat="45.75482" lon="4.78889">
        <ele>274.2</ele>
        <time>2022-06-26T14:47:25Z</time>
      </trkpt>
      <trkpt lat="45.75484" lon="4.78893">
        <ele>274.4</ele>
        <time>2022-06-26T14:47:26Z</time>
      </trkpt>
      <trkpt lat="45.75487" lon="4.78897">
        <ele>274.6</ele>
        <time>2022-06-26T14:47:27Z</time>
      </trkpt>
      <trkpt lat="45.75489" lon="4.78901">
        <ele>274.8</ele>
        <time>2022-06-26T14:47:28Z</time>
      </trkpt>
      <trkpt lat="45.75491" lon="4.78904">
        <ele>274.8</ele>
        <time>2022-06-26T14:47:29Z</time>
      </trkpt>
      <trkpt lat="45.75493" lon="4.78907">
        <ele>275.2</ele>
        <time>2022-06-26T14:47:30Z</time>
      </trkpt>
      <trkpt lat="45.75495" lon="4.7891">
        <ele>275.2</ele>
        <time>2022-06-26T14:47:31Z</time>
      </trkpt>
      <trkpt lat="45.75497" lon="4.78913">
        <ele>275.4</ele>
        <time>2022-06-26T14:47:32Z</time>
      </trkpt>
      <trkpt lat="45.75499" lon="4.78917">
        <ele>275.4</ele>
        <time>2022-06-26T14:47:33Z</time>
      </trkpt>
      <trkpt lat="45.75501" lon="4.7892">
        <ele>275.6</ele>
        <time>2022-06-26T14:47:34Z</time>
      </trkpt>
      <trkpt lat="45.75503" lon="4.78924">
        <ele>275.6</ele>
        <time>2022-06-26T14:47:35Z</time>
      </trkpt>
      <trkpt lat="45.75506" lon="4.78928">
        <ele>276</ele>
        <time>2022-06-26T14:47:36Z</time>
      </trkpt>
      <trkpt lat="45.75508" lon="4.78932">
        <ele>276</ele>
        <time>2022-06-26T14:47:37Z</time>
      </trkpt>
      <trkpt lat="45.7551" lon="4.78936">
        <ele>276.4</ele>
        <time>2022-06-26T14:47:38Z</time>
      </trkpt>
      <trkpt lat="45.75512" lon="4.7894">
        <ele>276.4</ele>
        <time>2022-06-26T14:47:39Z</time>
      </trkpt>
      <trkpt lat="45.75514" lon="4.78944">
        <ele>276.6</ele>
        <time>2022-06-26T14:47:40Z</time>
      </trkpt>
      <trkpt lat="45.75517" lon="4.78947">
        <ele>276.6</ele>
        <time>2022-06-26T14:47:41Z</time>
      </trkpt>
      <trkpt lat="45.75518" lon="4.78951">
        <ele>277</ele>
        <time>2022-06-26T14:47:42Z</time>
      </trkpt>
      <trkpt lat="45.75521" lon="4.78955">
        <ele>277.2</ele>
        <time>2022-06-26T14:47:43Z</time>
      </trkpt>
      <trkpt lat="45.75523" lon="4.78958">
        <ele>277.2</ele>
        <time>2022-06-26T14:47:44Z</time>
      </trkpt>
      <trkpt lat="45.75525" lon="4.78962">
        <ele>277.6</ele>
        <time>2022-06-26T14:47:45Z</time>
      </trkpt>
      <trkpt lat="45.75527" lon="4.78965">
        <ele>277.6</ele>
        <time>2022-06-26T14:47:46Z</time>
      </trkpt>
      <trkpt lat="45.75529" lon="4.78969">
        <ele>278</ele>
        <time>2022-06-26T14:47:47Z</time>
      </trkpt>
      <trkpt lat="45.75531" lon="4.78972">
        <ele>278</ele>
        <time>2022-06-26T14:47:48Z</time>
      </trkpt>
      <trkpt lat="45.75533" lon="4.78976">
        <ele>278.2</ele>
        <time>2022-06-26T14:47:49Z</time>
      </trkpt>
      <trkpt lat="45.75536" lon="4.78979">
        <ele>278.2</ele>
        <time>2022-06-26T14:47:50Z</time>
      </trkpt>
      <trkpt lat="45.75538" lon="4.78982">
        <ele>278.6</ele>
        <time>2022-06-26T14:47:51Z</time>
      </trkpt>
      <trkpt lat="45.7554" lon="4.78986">
        <ele>278.6</ele>
        <time>2022-06-26T14:47:52Z</time>
      </trkpt>
      <trkpt lat="45.75541" lon="4.7899">
        <ele>279</ele>
        <time>2022-06-26T14:47:53Z</time>
      </trkpt>
      <trkpt lat="45.75543" lon="4.78994">
        <ele>279</ele>
        <time>2022-06-26T14:47:54Z</time>
      </trkpt>
      <trkpt lat="45.75545" lon="4.78997">
        <ele>279.4</ele>
        <time>2022-06-26T14:47:55Z</time>
      </trkpt>
      <trkpt lat="45.75547" lon="4.79001">
        <ele>279.6</ele>
        <time>2022-06-26T14:47:56Z</time>
      </trkpt>
      <trkpt lat="45.75549" lon="4.79005">
        <ele>279.8</ele>
        <time>2022-06-26T14:47:57Z</time>
      </trkpt>
      <trkpt lat="45.75551" lon="4.79009">
        <ele>279.8</ele>
        <time>2022-06-26T14:47:58Z</time>
      </trkpt>
      <trkpt lat="45.75553" lon="4.79012">
        <ele>280.2</ele>
        <time>2022-06-26T14:47:59Z</time>
      </trkpt>
      <trkpt lat="45.75556" lon="4.79016">
        <ele>280.2</ele>
        <time>2022-06-26T14:48:00Z</time>
      </trkpt>
      <trkpt lat="45.75558" lon="4.7902">
        <ele>280.6</ele>
        <time>2022-06-26T14:48:01Z</time>
      </trkpt>
      <trkpt lat="45.7556" lon="4.79024">
        <ele>280.6</ele>
        <time>2022-06-26T14:48:02Z</time>
      </trkpt>
      <trkpt lat="45.75562" lon="4.79028">
        <ele>280.8</ele>
        <time>2022-06-26T14:48:03Z</time>
      </trkpt>
      <trkpt lat="45.75564" lon="4.79031">
        <ele>281.2</ele>
        <time>2022-06-26T14:48:04Z</time>
      </trkpt>
      <trkpt lat="45.75567" lon="4.79035">
        <ele>281.4</ele>
        <time>2022-06-26T14:48:05Z</time>
      </trkpt>
      <trkpt lat="45.75569" lon="4.79039">
        <ele>281.4</ele>
        <time>2022-06-26T14:48:06Z</time>
      </trkpt>
      <trkpt lat="45.75571" lon="4.79043">
        <ele>281.6</ele>
        <time>2022-06-26T14:48:07Z</time>
      </trkpt>
      <trkpt lat="45.75573" lon="4.79047">
        <ele>281.6</ele>
        <time>2022-06-26T14:48:08Z</time>
      </trkpt>
      <trkpt lat="45.75576" lon="4.79052">
        <ele>281.8</ele>
        <time>2022-06-26T14:48:09Z</time>
      </trkpt>
      <trkpt lat="45.75578" lon="4.79056">
        <ele>281.8</ele>
        <time>2022-06-26T14:48:10Z</time>
      </trkpt>
      <trkpt lat="45.7558" lon="4.79061">
        <ele>282.2</ele>
        <time>2022-06-26T14:48:11Z</time>
      </trkpt>
      <trkpt lat="45.75582" lon="4.79067">
        <ele>282.2</ele>
        <time>2022-06-26T14:48:12Z</time>
      </trkpt>
      <trkpt lat="45.75584" lon="4.79072">
        <ele>282.4</ele>
        <time>2022-06-26T14:48:13Z</time>
      </trkpt>
      <trkpt lat="45.75585" lon="4.79078">
        <ele>282.6</ele>
        <time>2022-06-26T14:48:14Z</time>
      </trkpt>
      <trkpt lat="45.75587" lon="4.79083">
        <ele>282.8</ele>
        <time>2022-06-26T14:48:15Z</time>
      </trkpt>
      <trkpt lat="45.75589" lon="4.79089">
        <ele>282.8</ele>
        <time>2022-06-26T14:48:16Z</time>
      </trkpt>
      <trkpt lat="45.7559" lon="4.79095">
        <ele>283.2</ele>
        <time>2022-06-26T14:48:17Z</time>
      </trkpt>
      <trkpt lat="45.75591" lon="4.79101">
        <ele>283.2</ele>
        <time>2022-06-26T14:48:18Z</time>
      </trkpt>
      <trkpt lat="45.75592" lon="4.79108">
        <ele>283.2</ele>
        <time>2022-06-26T14:48:19Z</time>
      </trkpt>
      <trkpt lat="45.75593" lon="4.79114">
        <ele>283.4</ele>
        <time>2022-06-26T14:48:20Z</time>
      </trkpt>
      <trkpt lat="45.75594" lon="4.7912">
        <ele>283.4</ele>
        <time>2022-06-26T14:48:21Z</time>
      </trkpt>
      <trkpt lat="45.75596" lon="4.79125">
        <ele>283.4</ele>
        <time>2022-06-26T14:48:22Z</time>
      </trkpt>
      <trkpt lat="45.75597" lon="4.79131">
        <ele>283.4</ele>
        <time>2022-06-26T14:48:23Z</time>
      </trkpt>
      <trkpt lat="45.75598" lon="4.79137">
        <ele>283.4</ele>
        <time>2022-06-26T14:48:24Z</time>
      </trkpt>
      <trkpt lat="45.756" lon="4.79143">
        <ele>283.8</ele>
        <time>2022-06-26T14:48:25Z</time>
      </trkpt>
      <trkpt lat="45.75602" lon="4.79149">
        <ele>283.8</ele>
        <time>2022-06-26T14:48:26Z</time>
      </trkpt>
      <trkpt lat="45.75603" lon="4.79155">
        <ele>283.8</ele>
        <time>2022-06-26T14:48:27Z</time>
      </trkpt>
      <trkpt lat="45.75605" lon="4.79161">
        <ele>283.8</ele>
        <time>2022-06-26T14:48:28Z</time>
      </trkpt>
      <trkpt lat="45.75607" lon="4.79167">
        <ele>284</ele>
        <time>2022-06-26T14:48:29Z</time>
      </trkpt>
      <trkpt lat="45.75608" lon="4.79174">
        <ele>284</ele>
        <time>2022-06-26T14:48:30Z</time>
      </trkpt>
      <trkpt lat="45.7561" lon="4.7918">
        <ele>284</ele>
        <time>2022-06-26T14:48:31Z</time>
      </trkpt>
      <trkpt lat="45.75611" lon="4.79187">
        <ele>284</ele>
        <time>2022-06-26T14:48:32Z</time>
      </trkpt>
      <trkpt lat="45.75612" lon="4.79194">
        <ele>284</ele>
        <time>2022-06-26T14:48:33Z</time>
      </trkpt>
      <trkpt lat="45.75614" lon="4.79201">
        <ele>284.2</ele>
        <time>2022-06-26T14:48:34Z</time>
      </trkpt>
      <trkpt lat="45.75615" lon="4.79208">
        <ele>284.2</ele>
        <time>2022-06-26T14:48:35Z</time>
      </trkpt>
      <trkpt lat="45.75617" lon="4.79215">
        <ele>284.2</ele>
        <time>2022-06-26T14:48:36Z</time>
      </trkpt>
      <trkpt lat="45.75618" lon="4.79222">
        <ele>284.2</ele>
        <time>2022-06-26T14:48:37Z</time>
      </trkpt>
      <trkpt lat="45.75619" lon="4.79229">
        <ele>284.2</ele>
        <time>2022-06-26T14:48:38Z</time>
      </trkpt>
      <trkpt lat="45.7562" lon="4.79237">
        <ele>284.4</ele>
        <time>2022-06-26T14:48:39Z</time>
      </trkpt>
      <trkpt lat="45.75622" lon="4.79244">
        <ele>284.4</ele>
        <time>2022-06-26T14:48:40Z</time>
      </trkpt>
      <trkpt lat="45.75623" lon="4.79251">
        <ele>284.4</ele>
        <time>2022-06-26T14:48:41Z</time>
      </trkpt>
      <trkpt lat="45.75625" lon="4.79259">
        <ele>284.4</ele>
        <time>2022-06-26T14:48:42Z</time>
      </trkpt>
      <trkpt lat="45.75626" lon="4.79267">
        <ele>284.6</ele>
        <time>2022-06-26T14:48:43Z</time>
      </trkpt>
      <trkpt lat="45.75628" lon="4.79275">
        <ele>284.6</ele>
        <time>2022-06-26T14:48:44Z</time>
      </trkpt>
      <trkpt lat="45.75629" lon="4.79283">
        <ele>284.6</ele>
        <time>2022-06-26T14:48:45Z</time>
      </trkpt>
      <trkpt lat="45.75631" lon="4.79291">
        <ele>284.6</ele>
        <time>2022-06-26T14:48:46Z</time>
      </trkpt>
      <trkpt lat="45.75632" lon="4.79299">
        <ele>284.6</ele>
        <time>2022-06-26T14:48:47Z</time>
      </trkpt>
      <trkpt lat="45.75634" lon="4.79307">
        <ele>284.6</ele>
        <time>2022-06-26T14:48:48Z</time>
      </trkpt>
      <trkpt lat="45.75635" lon="4.79315">
        <ele>284.6</ele>
        <time>2022-06-26T14:48:49Z</time>
      </trkpt>
      <trkpt lat="45.75637" lon="4.79323">
        <ele>284.8</ele>
        <time>2022-06-26T14:48:50Z</time>
      </trkpt>
      <trkpt lat="45.75638" lon="4.79331">
        <ele>284.8</ele>
        <time>2022-06-26T14:48:51Z</time>
      </trkpt>
      <trkpt lat="45.7564" lon="4.79339">
        <ele>284.8</ele>
        <time>2022-06-26T14:48:52Z</time>
      </trkpt>
      <trkpt lat="45.75642" lon="4.79347">
        <ele>284.8</ele>
        <time>2022-06-26T14:48:53Z</time>
      </trkpt>
      <trkpt lat="45.75643" lon="4.79355">
        <ele>284.8</ele>
        <time>2022-06-26T14:48:54Z</time>
      </trkpt>
      <trkpt lat="45.75645" lon="4.79363">
        <ele>284.8</ele>
        <time>2022-06-26T14:48:55Z</time>
      </trkpt>
      <trkpt lat="45.75646" lon="4.79371">
        <ele>284.8</ele>
        <time>2022-06-26T14:48:56Z</time>
      </trkpt>
      <trkpt lat="45.75648" lon="4.79379">
        <ele>284.8</ele>
        <time>2022-06-26T14:48:57Z</time>
      </trkpt>
      <trkpt lat="45.75649" lon="4.79388">
        <ele>284.8</ele>
        <time>2022-06-26T14:48:58Z</time>
      </trkpt>
      <trkpt lat="45.75651" lon="4.79396">
        <ele>285</ele>
        <time>2022-06-26T14:48:59Z</time>
      </trkpt>
      <trkpt lat="45.75652" lon="4.79404">
        <ele>285</ele>
        <time>2022-06-26T14:49:00Z</time>
      </trkpt>
      <trkpt lat="45.75654" lon="4.79412">
        <ele>285</ele>
        <time>2022-06-26T14:49:01Z</time>
      </trkpt>
      <trkpt lat="45.75655" lon="4.79421">
        <ele>285</ele>
        <time>2022-06-26T14:49:02Z</time>
      </trkpt>
      <trkpt lat="45.75657" lon="4.7943">
        <ele>285</ele>
        <time>2022-06-26T14:49:03Z</time>
      </trkpt>
      <trkpt lat="45.75658" lon="4.79439">
        <ele>285</ele>
        <time>2022-06-26T14:49:04Z</time>
      </trkpt>
      <trkpt lat="45.75659" lon="4.79448">
        <ele>285.4</ele>
        <time>2022-06-26T14:49:05Z</time>
      </trkpt>
      <trkpt lat="45.75659" lon="4.79457">
        <ele>285.4</ele>
        <time>2022-06-26T14:49:06Z</time>
      </trkpt>
      <trkpt lat="45.75659" lon="4.79467">
        <ele>285.6</ele>
        <time>2022-06-26T14:49:07Z</time>
      </trkpt>
      <trkpt lat="45.75658" lon="4.79476">
        <ele>285.6</ele>
        <time>2022-06-26T14:49:08Z</time>
      </trkpt>
      <trkpt lat="45.75656" lon="4.79485">
        <ele>285.6</ele>
        <time>2022-06-26T14:49:09Z</time>
      </trkpt>
      <trkpt lat="45.75654" lon="4.79493">
        <ele>285.6</ele>
        <time>2022-06-26T14:49:10Z</time>
      </trkpt>
      <trkpt lat="45.75652" lon="4.79502">
        <ele>285.8</ele>
        <time>2022-06-26T14:49:11Z</time>
      </trkpt>
      <trkpt lat="45.7565" lon="4.7951">
        <ele>285.8</ele>
        <time>2022-06-26T14:49:12Z</time>
      </trkpt>
      <trkpt lat="45.75648" lon="4.79519">
        <ele>285.8</ele>
        <time>2022-06-26T14:49:13Z</time>
      </trkpt>
      <trkpt lat="45.75646" lon="4.79528">
        <ele>285.8</ele>
        <time>2022-06-26T14:49:14Z</time>
      </trkpt>
      <trkpt lat="45.75644" lon="4.79536">
        <ele>285.8</ele>
        <time>2022-06-26T14:49:15Z</time>
      </trkpt>
      <trkpt lat="45.75642" lon="4.79545">
        <ele>286</ele>
        <time>2022-06-26T14:49:16Z</time>
      </trkpt>
      <trkpt lat="45.75639" lon="4.79553">
        <ele>286</ele>
        <time>2022-06-26T14:49:17Z</time>
      </trkpt>
      <trkpt lat="45.75637" lon="4.79562">
        <ele>286</ele>
        <time>2022-06-26T14:49:18Z</time>
      </trkpt>
      <trkpt lat="45.75635" lon="4.79571">
        <ele>286.4</ele>
        <time>2022-06-26T14:49:19Z</time>
      </trkpt>
      <trkpt lat="45.75633" lon="4.79579">
        <ele>286.4</ele>
        <time>2022-06-26T14:49:20Z</time>
      </trkpt>
      <trkpt lat="45.75631" lon="4.79588">
        <ele>286.6</ele>
        <time>2022-06-26T14:49:21Z</time>
      </trkpt>
      <trkpt lat="45.7563" lon="4.79597">
        <ele>286.6</ele>
        <time>2022-06-26T14:49:22Z</time>
      </trkpt>
      <trkpt lat="45.75629" lon="4.79606">
        <ele>286.6</ele>
        <time>2022-06-26T14:49:23Z</time>
      </trkpt>
      <trkpt lat="45.75629" lon="4.79614">
        <ele>286.6</ele>
        <time>2022-06-26T14:49:24Z</time>
      </trkpt>
      <trkpt lat="45.7563" lon="4.79622">
        <ele>286.6</ele>
        <time>2022-06-26T14:49:25Z</time>
      </trkpt>
      <trkpt lat="45.75631" lon="4.7963">
        <ele>286.8</ele>
        <time>2022-06-26T14:49:26Z</time>
      </trkpt>
      <trkpt lat="45.75632" lon="4.79637">
        <ele>286.8</ele>
        <time>2022-06-26T14:49:27Z</time>
      </trkpt>
      <trkpt lat="45.75633" lon="4.79645">
        <ele>286.8</ele>
        <time>2022-06-26T14:49:28Z</time>
      </trkpt>
      <trkpt lat="45.75634" lon="4.79654">
        <ele>286.8</ele>
        <time>2022-06-26T14:49:29Z</time>
      </trkpt>
      <trkpt lat="45.75635" lon="4.79662">
        <ele>286.8</ele>
        <time>2022-06-26T14:49:30Z</time>
      </trkpt>
      <trkpt lat="45.75636" lon="4.7967">
        <ele>286.8</ele>
        <time>2022-06-26T14:49:31Z</time>
      </trkpt>
      <trkpt lat="45.75637" lon="4.79678">
        <ele>286.8</ele>
        <time>2022-06-26T14:49:32Z</time>
      </trkpt>
      <trkpt lat="45.75637" lon="4.79686">
        <ele>287</ele>
        <time>2022-06-26T14:49:33Z</time>
      </trkpt>
      <trkpt lat="45.75638" lon="4.79694">
        <ele>287</ele>
        <time>2022-06-26T14:49:34Z</time>
      </trkpt>
      <trkpt lat="45.75639" lon="4.79702">
        <ele>287.2</ele>
        <time>2022-06-26T14:49:35Z</time>
      </trkpt>
      <trkpt lat="45.75639" lon="4.7971">
        <ele>287.2</ele>
        <time>2022-06-26T14:49:36Z</time>
      </trkpt>
      <trkpt lat="45.75639" lon="4.79718">
        <ele>287.2</ele>
        <time>2022-06-26T14:49:37Z</time>
      </trkpt>
      <trkpt lat="45.7564" lon="4.79726">
        <ele>287.2</ele>
        <time>2022-06-26T14:49:38Z</time>
      </trkpt>
      <trkpt lat="45.7564" lon="4.79734">
        <ele>287.2</ele>
        <time>2022-06-26T14:49:39Z</time>
      </trkpt>
      <trkpt lat="45.75641" lon="4.79743">
        <ele>287.2</ele>
        <time>2022-06-26T14:49:40Z</time>
      </trkpt>
      <trkpt lat="45.75641" lon="4.79751">
        <ele>287.2</ele>
        <time>2022-06-26T14:49:41Z</time>
      </trkpt>
      <trkpt lat="45.75642" lon="4.79759">
        <ele>287.2</ele>
        <time>2022-06-26T14:49:42Z</time>
      </trkpt>
      <trkpt lat="45.75642" lon="4.79767">
        <ele>287.2</ele>
        <time>2022-06-26T14:49:43Z</time>
      </trkpt>
      <trkpt lat="45.75643" lon="4.79775">
        <ele>287.2</ele>
        <time>2022-06-26T14:49:44Z</time>
      </trkpt>
      <trkpt lat="45.75643" lon="4.79783">
        <ele>287.2</ele>
        <time>2022-06-26T14:49:45Z</time>
      </trkpt>
      <trkpt lat="45.75644" lon="4.79792">
        <ele>287.2</ele>
        <time>2022-06-26T14:49:46Z</time>
      </trkpt>
      <trkpt lat="45.75645" lon="4.798">
        <ele>287.4</ele>
        <time>2022-06-26T14:49:47Z</time>
      </trkpt>
      <trkpt lat="45.75646" lon="4.79808">
        <ele>287.4</ele>
        <time>2022-06-26T14:49:48Z</time>
      </trkpt>
      <trkpt lat="45.75646" lon="4.79816">
        <ele>287.4</ele>
        <time>2022-06-26T14:49:49Z</time>
      </trkpt>
      <trkpt lat="45.75647" lon="4.79825">
        <ele>287.4</ele>
        <time>2022-06-26T14:49:50Z</time>
      </trkpt>
      <trkpt lat="45.75648" lon="4.79833">
        <ele>287.4</ele>
        <time>2022-06-26T14:49:51Z</time>
      </trkpt>
      <trkpt lat="45.75649" lon="4.79841">
        <ele>287.4</ele>
        <time>2022-06-26T14:49:52Z</time>
      </trkpt>
      <trkpt lat="45.7565" lon="4.7985">
        <ele>287.2</ele>
        <time>2022-06-26T14:49:53Z</time>
      </trkpt>
      <trkpt lat="45.7565" lon="4.79858">
        <ele>287.2</ele>
        <time>2022-06-26T14:49:54Z</time>
      </trkpt>
      <trkpt lat="45.7565" lon="4.79867">
        <ele>287.2</ele>
        <time>2022-06-26T14:49:55Z</time>
      </trkpt>
      <trkpt lat="45.7565" lon="4.79874">
        <ele>287.2</ele>
        <time>2022-06-26T14:49:56Z</time>
      </trkpt>
      <trkpt lat="45.75651" lon="4.79882">
        <ele>287.2</ele>
        <time>2022-06-26T14:49:57Z</time>
      </trkpt>
      <trkpt lat="45.75651" lon="4.7989">
        <ele>287.2</ele>
        <time>2022-06-26T14:49:58Z</time>
      </trkpt>
      <trkpt lat="45.75652" lon="4.79898">
        <ele>287</ele>
        <time>2022-06-26T14:49:59Z</time>
      </trkpt>
      <trkpt lat="45.75652" lon="4.79906">
        <ele>287</ele>
        <time>2022-06-26T14:50:00Z</time>
      </trkpt>
      <trkpt lat="45.75652" lon="4.79913">
        <ele>287</ele>
        <time>2022-06-26T14:50:01Z</time>
      </trkpt>
      <trkpt lat="45.75652" lon="4.7992">
        <ele>287</ele>
        <time>2022-06-26T14:50:02Z</time>
      </trkpt>
      <trkpt lat="45.75652" lon="4.79927">
        <ele>287</ele>
        <time>2022-06-26T14:50:03Z</time>
      </trkpt>
      <trkpt lat="45.75651" lon="4.79936">
        <ele>286.6</ele>
        <time>2022-06-26T14:50:04Z</time>
      </trkpt>
      <trkpt lat="45.7565" lon="4.79943">
        <ele>286.6</ele>
        <time>2022-06-26T14:50:06Z</time>
      </trkpt>
      <trkpt lat="45.75649" lon="4.79951">
        <ele>286.6</ele>
        <time>2022-06-26T14:50:07Z</time>
      </trkpt>
      <trkpt lat="45.75647" lon="4.79957">
        <ele>286.6</ele>
        <time>2022-06-26T14:50:08Z</time>
      </trkpt>
      <trkpt lat="45.75645" lon="4.79963">
        <ele>286.6</ele>
        <time>2022-06-26T14:50:09Z</time>
      </trkpt>
      <trkpt lat="45.75644" lon="4.79967">
        <ele>286.6</ele>
        <time>2022-06-26T14:50:10Z</time>
      </trkpt>
      <trkpt lat="45.75643" lon="4.79972">
        <ele>286.6</ele>
        <time>2022-06-26T14:50:11Z</time>
      </trkpt>
      <trkpt lat="45.75643" lon="4.79975">
        <ele>286.6</ele>
        <time>2022-06-26T14:50:12Z</time>
      </trkpt>
      <trkpt lat="45.75642" lon="4.79978">
        <ele>286.6</ele>
        <time>2022-06-26T14:50:13Z</time>
      </trkpt>
      <trkpt lat="45.75642" lon="4.79983">
        <ele>286.6</ele>
        <time>2022-06-26T14:50:14Z</time>
      </trkpt>
      <trkpt lat="45.75641" lon="4.79989">
        <ele>286.6</ele>
        <time>2022-06-26T14:50:15Z</time>
      </trkpt>
      <trkpt lat="45.7564" lon="4.79995">
        <ele>286.6</ele>
        <time>2022-06-26T14:50:16Z</time>
      </trkpt>
      <trkpt lat="45.75639" lon="4.80001">
        <ele>286.6</ele>
        <time>2022-06-26T14:50:17Z</time>
      </trkpt>
      <trkpt lat="45.75638" lon="4.80008">
        <ele>286.6</ele>
        <time>2022-06-26T14:50:18Z</time>
      </trkpt>
      <trkpt lat="45.75636" lon="4.80015">
        <ele>286.6</ele>
        <time>2022-06-26T14:50:19Z</time>
      </trkpt>
      <trkpt lat="45.75636" lon="4.80023">
        <ele>286.6</ele>
        <time>2022-06-26T14:50:20Z</time>
      </trkpt>
      <trkpt lat="45.75634" lon="4.8003">
        <ele>286.6</ele>
        <time>2022-06-26T14:50:21Z</time>
      </trkpt>
      <trkpt lat="45.75633" lon="4.80038">
        <ele>287</ele>
        <time>2022-06-26T14:50:22Z</time>
      </trkpt>
      <trkpt lat="45.75632" lon="4.80046">
        <ele>287</ele>
        <time>2022-06-26T14:50:23Z</time>
      </trkpt>
      <trkpt lat="45.75631" lon="4.80054">
        <ele>287</ele>
        <time>2022-06-26T14:50:24Z</time>
      </trkpt>
      <trkpt lat="45.7563" lon="4.80063">
        <ele>287</ele>
        <time>2022-06-26T14:50:25Z</time>
      </trkpt>
      <trkpt lat="45.75629" lon="4.80071">
        <ele>287</ele>
        <time>2022-06-26T14:50:26Z</time>
      </trkpt>
      <trkpt lat="45.75628" lon="4.80079">
        <ele>287</ele>
        <time>2022-06-26T14:50:27Z</time>
      </trkpt>
      <trkpt lat="45.75627" lon="4.80087">
        <ele>287</ele>
        <time>2022-06-26T14:50:28Z</time>
      </trkpt>
      <trkpt lat="45.75626" lon="4.80096">
        <ele>287</ele>
        <time>2022-06-26T14:50:29Z</time>
      </trkpt>
      <trkpt lat="45.75625" lon="4.80105">
        <ele>287.2</ele>
        <time>2022-06-26T14:50:30Z</time>
      </trkpt>
      <trkpt lat="45.75624" lon="4.80114">
        <ele>287.2</ele>
        <time>2022-06-26T14:50:31Z</time>
      </trkpt>
      <trkpt lat="45.75623" lon="4.80123">
        <ele>287.2</ele>
        <time>2022-06-26T14:50:32Z</time>
      </trkpt>
      <trkpt lat="45.75623" lon="4.80132">
        <ele>287.6</ele>
        <time>2022-06-26T14:50:33Z</time>
      </trkpt>
      <trkpt lat="45.75622" lon="4.80142">
        <ele>287.6</ele>
        <time>2022-06-26T14:50:34Z</time>
      </trkpt>
      <trkpt lat="45.75622" lon="4.80151">
        <ele>287.6</ele>
        <time>2022-06-26T14:50:35Z</time>
      </trkpt>
      <trkpt lat="45.75622" lon="4.80161">
        <ele>287.8</ele>
        <time>2022-06-26T14:50:36Z</time>
      </trkpt>
      <trkpt lat="45.75622" lon="4.8017">
        <ele>287.8</ele>
        <time>2022-06-26T14:50:37Z</time>
      </trkpt>
      <trkpt lat="45.75623" lon="4.8018">
        <ele>288</ele>
        <time>2022-06-26T14:50:38Z</time>
      </trkpt>
      <trkpt lat="45.75623" lon="4.8019">
        <ele>288</ele>
        <time>2022-06-26T14:50:39Z</time>
      </trkpt>
      <trkpt lat="45.75623" lon="4.802">
        <ele>288.4</ele>
        <time>2022-06-26T14:50:40Z</time>
      </trkpt>
      <trkpt lat="45.75623" lon="4.80209">
        <ele>288.4</ele>
        <time>2022-06-26T14:50:41Z</time>
      </trkpt>
      <trkpt lat="45.75624" lon="4.80219">
        <ele>288.6</ele>
        <time>2022-06-26T14:50:42Z</time>
      </trkpt>
      <trkpt lat="45.75624" lon="4.80229">
        <ele>288.6</ele>
        <time>2022-06-26T14:50:43Z</time>
      </trkpt>
      <trkpt lat="45.75625" lon="4.80238">
        <ele>289</ele>
        <time>2022-06-26T14:50:44Z</time>
      </trkpt>
      <trkpt lat="45.75625" lon="4.80248">
        <ele>289.2</ele>
        <time>2022-06-26T14:50:45Z</time>
      </trkpt>
      <trkpt lat="45.75626" lon="4.80257">
        <ele>289.4</ele>
        <time>2022-06-26T14:50:46Z</time>
      </trkpt>
      <trkpt lat="45.75626" lon="4.80267">
        <ele>289.8</ele>
        <time>2022-06-26T14:50:47Z</time>
      </trkpt>
      <trkpt lat="45.75626" lon="4.80276">
        <ele>289.8</ele>
        <time>2022-06-26T14:50:48Z</time>
      </trkpt>
      <trkpt lat="45.75627" lon="4.80285">
        <ele>290.2</ele>
        <time>2022-06-26T14:50:49Z</time>
      </trkpt>
      <trkpt lat="45.75627" lon="4.80295">
        <ele>290.4</ele>
        <time>2022-06-26T14:50:50Z</time>
      </trkpt>
      <trkpt lat="45.75627" lon="4.80304">
        <ele>290.6</ele>
        <time>2022-06-26T14:50:51Z</time>
      </trkpt>
      <trkpt lat="45.75628" lon="4.80312">
        <ele>290.6</ele>
        <time>2022-06-26T14:50:52Z</time>
      </trkpt>
      <trkpt lat="45.75629" lon="4.80329">
        <ele>291</ele>
        <time>2022-06-26T14:50:53Z</time>
      </trkpt>
      <trkpt lat="45.7563" lon="4.80337">
        <ele>291</ele>
        <time>2022-06-26T14:50:54Z</time>
      </trkpt>
      <trkpt lat="45.7563" lon="4.80344">
        <ele>291.4</ele>
        <time>2022-06-26T14:50:55Z</time>
      </trkpt>
      <trkpt lat="45.75631" lon="4.80352">
        <ele>291.6</ele>
        <time>2022-06-26T14:50:56Z</time>
      </trkpt>
      <trkpt lat="45.75631" lon="4.8036">
        <ele>291.8</ele>
        <time>2022-06-26T14:50:57Z</time>
      </trkpt>
      <trkpt lat="45.75631" lon="4.80368">
        <ele>291.8</ele>
        <time>2022-06-26T14:50:58Z</time>
      </trkpt>
      <trkpt lat="45.7563" lon="4.80376">
        <ele>292</ele>
        <time>2022-06-26T14:50:59Z</time>
      </trkpt>
      <trkpt lat="45.7563" lon="4.80384">
        <ele>292</ele>
        <time>2022-06-26T14:51:00Z</time>
      </trkpt>
      <trkpt lat="45.75629" lon="4.80392">
        <ele>292</ele>
        <time>2022-06-26T14:51:01Z</time>
      </trkpt>
      <trkpt lat="45.75628" lon="4.80401">
        <ele>292</ele>
        <time>2022-06-26T14:51:02Z</time>
      </trkpt>
      <trkpt lat="45.75628" lon="4.8041">
        <ele>292</ele>
        <time>2022-06-26T14:51:03Z</time>
      </trkpt>
      <trkpt lat="45.75626" lon="4.80419">
        <ele>292</ele>
        <time>2022-06-26T14:51:04Z</time>
      </trkpt>
      <trkpt lat="45.75625" lon="4.80428">
        <ele>292</ele>
        <time>2022-06-26T14:51:05Z</time>
      </trkpt>
      <trkpt lat="45.75624" lon="4.80437">
        <ele>292</ele>
        <time>2022-06-26T14:51:06Z</time>
      </trkpt>
      <trkpt lat="45.75622" lon="4.80446">
        <ele>292</ele>
        <time>2022-06-26T14:51:07Z</time>
      </trkpt>
      <trkpt lat="45.75621" lon="4.80456">
        <ele>292</ele>
        <time>2022-06-26T14:51:08Z</time>
      </trkpt>
      <trkpt lat="45.75619" lon="4.80465">
        <ele>292</ele>
        <time>2022-06-26T14:51:09Z</time>
      </trkpt>
      <trkpt lat="45.75619" lon="4.80475">
        <ele>292</ele>
        <time>2022-06-26T14:51:10Z</time>
      </trkpt>
      <trkpt lat="45.75618" lon="4.80485">
        <ele>291.8</ele>
        <time>2022-06-26T14:51:11Z</time>
      </trkpt>
      <trkpt lat="45.75618" lon="4.80494">
        <ele>291.8</ele>
        <time>2022-06-26T14:51:12Z</time>
      </trkpt>
      <trkpt lat="45.75618" lon="4.80504">
        <ele>291.8</ele>
        <time>2022-06-26T14:51:13Z</time>
      </trkpt>
      <trkpt lat="45.75618" lon="4.80513">
        <ele>291.6</ele>
        <time>2022-06-26T14:51:14Z</time>
      </trkpt>
      <trkpt lat="45.75619" lon="4.80522">
        <ele>291.6</ele>
        <time>2022-06-26T14:51:15Z</time>
      </trkpt>
      <trkpt lat="45.75619" lon="4.8053">
        <ele>291.4</ele>
        <time>2022-06-26T14:51:16Z</time>
      </trkpt>
      <trkpt lat="45.75619" lon="4.80536">
        <ele>291.4</ele>
        <time>2022-06-26T14:51:17Z</time>
      </trkpt>
      <trkpt lat="45.75619" lon="4.80542">
        <ele>291.2</ele>
        <time>2022-06-26T14:51:18Z</time>
      </trkpt>
      <trkpt lat="45.75619" lon="4.80547">
        <ele>291.2</ele>
        <time>2022-06-26T14:51:19Z</time>
      </trkpt>
      <trkpt lat="45.75619" lon="4.80553">
        <ele>291</ele>
        <time>2022-06-26T14:51:20Z</time>
      </trkpt>
      <trkpt lat="45.75619" lon="4.80559">
        <ele>291</ele>
        <time>2022-06-26T14:51:21Z</time>
      </trkpt>
      <trkpt lat="45.75619" lon="4.80565">
        <ele>290.6</ele>
        <time>2022-06-26T14:51:22Z</time>
      </trkpt>
      <trkpt lat="45.75618" lon="4.80571">
        <ele>290.6</ele>
        <time>2022-06-26T14:51:23Z</time>
      </trkpt>
      <trkpt lat="45.75618" lon="4.80577">
        <ele>290.6</ele>
        <time>2022-06-26T14:51:24Z</time>
      </trkpt>
      <trkpt lat="45.75619" lon="4.80582">
        <ele>290.6</ele>
        <time>2022-06-26T14:51:25Z</time>
      </trkpt>
      <trkpt lat="45.75621" lon="4.80587">
        <ele>290.6</ele>
        <time>2022-06-26T14:51:26Z</time>
      </trkpt>
      <trkpt lat="45.75624" lon="4.80591">
        <ele>290.4</ele>
        <time>2022-06-26T14:51:27Z</time>
      </trkpt>
      <trkpt lat="45.75629" lon="4.80594">
        <ele>290.4</ele>
        <time>2022-06-26T14:51:28Z</time>
      </trkpt>
      <trkpt lat="45.75633" lon="4.80596">
        <ele>290.2</ele>
        <time>2022-06-26T14:51:29Z</time>
      </trkpt>
      <trkpt lat="45.75638" lon="4.806">
        <ele>290.2</ele>
        <time>2022-06-26T14:51:30Z</time>
      </trkpt>
      <trkpt lat="45.75642" lon="4.80605">
        <ele>289.8</ele>
        <time>2022-06-26T14:51:31Z</time>
      </trkpt>
      <trkpt lat="45.75646" lon="4.80612">
        <ele>289.6</ele>
        <time>2022-06-26T14:51:32Z</time>
      </trkpt>
      <trkpt lat="45.75649" lon="4.8062">
        <ele>289.2</ele>
        <time>2022-06-26T14:51:33Z</time>
      </trkpt>
      <trkpt lat="45.75651" lon="4.80629">
        <ele>289</ele>
        <time>2022-06-26T14:51:34Z</time>
      </trkpt>
      <trkpt lat="45.75652" lon="4.8064">
        <ele>288.6</ele>
        <time>2022-06-26T14:51:35Z</time>
      </trkpt>
      <trkpt lat="45.75654" lon="4.80651">
        <ele>288.2</ele>
        <time>2022-06-26T14:51:36Z</time>
      </trkpt>
      <trkpt lat="45.75655" lon="4.80662">
        <ele>287.8</ele>
        <time>2022-06-26T14:51:37Z</time>
      </trkpt>
      <trkpt lat="45.75657" lon="4.80674">
        <ele>287.4</ele>
        <time>2022-06-26T14:51:38Z</time>
      </trkpt>
      <trkpt lat="45.75658" lon="4.80686">
        <ele>287</ele>
        <time>2022-06-26T14:51:39Z</time>
      </trkpt>
      <trkpt lat="45.7566" lon="4.80699">
        <ele>286.4</ele>
        <time>2022-06-26T14:51:40Z</time>
      </trkpt>
      <trkpt lat="45.75661" lon="4.80715">
        <ele>286</ele>
        <time>2022-06-26T14:51:41Z</time>
      </trkpt>
      <trkpt lat="45.75663" lon="4.8073">
        <ele>285.4</ele>
        <time>2022-06-26T14:51:42Z</time>
      </trkpt>
      <trkpt lat="45.75664" lon="4.80745">
        <ele>285</ele>
        <time>2022-06-26T14:51:43Z</time>
      </trkpt>
      <trkpt lat="45.75665" lon="4.80759">
        <ele>284.4</ele>
        <time>2022-06-26T14:51:44Z</time>
      </trkpt>
      <trkpt lat="45.75667" lon="4.80774">
        <ele>284</ele>
        <time>2022-06-26T14:51:45Z</time>
      </trkpt>
      <trkpt lat="45.75668" lon="4.80788">
        <ele>283.4</ele>
        <time>2022-06-26T14:51:46Z</time>
      </trkpt>
      <trkpt lat="45.7567" lon="4.80802">
        <ele>283</ele>
        <time>2022-06-26T14:51:47Z</time>
      </trkpt>
      <trkpt lat="45.75671" lon="4.80816">
        <ele>282.2</ele>
        <time>2022-06-26T14:51:48Z</time>
      </trkpt>
      <trkpt lat="45.75673" lon="4.8083">
        <ele>281.8</ele>
        <time>2022-06-26T14:51:49Z</time>
      </trkpt>
      <trkpt lat="45.75675" lon="4.80843">
        <ele>281.2</ele>
        <time>2022-06-26T14:51:50Z</time>
      </trkpt>
      <trkpt lat="45.75677" lon="4.80857">
        <ele>280.8</ele>
        <time>2022-06-26T14:51:51Z</time>
      </trkpt>
      <trkpt lat="45.75679" lon="4.80871">
        <ele>280</ele>
        <time>2022-06-26T14:51:52Z</time>
      </trkpt>
      <trkpt lat="45.75683" lon="4.80884">
        <ele>279.6</ele>
        <time>2022-06-26T14:51:53Z</time>
      </trkpt>
      <trkpt lat="45.75687" lon="4.80896">
        <ele>279.4</ele>
        <time>2022-06-26T14:51:54Z</time>
      </trkpt>
      <trkpt lat="45.7569" lon="4.80909">
        <ele>279</ele>
        <time>2022-06-26T14:51:55Z</time>
      </trkpt>
      <trkpt lat="45.75694" lon="4.80922">
        <ele>278.8</ele>
        <time>2022-06-26T14:51:56Z</time>
      </trkpt>
      <trkpt lat="45.75698" lon="4.80935">
        <ele>278.6</ele>
        <time>2022-06-26T14:51:57Z</time>
      </trkpt>
      <trkpt lat="45.757" lon="4.80947">
        <ele>278.2</ele>
        <time>2022-06-26T14:51:58Z</time>
      </trkpt>
      <trkpt lat="45.75703" lon="4.80959">
        <ele>278.2</ele>
        <time>2022-06-26T14:51:59Z</time>
      </trkpt>
      <trkpt lat="45.75705" lon="4.80973">
        <ele>278</ele>
        <time>2022-06-26T14:52:00Z</time>
      </trkpt>
      <trkpt lat="45.75708" lon="4.80985">
        <ele>278</ele>
        <time>2022-06-26T14:52:01Z</time>
      </trkpt>
      <trkpt lat="45.75709" lon="4.80996">
        <ele>277.6</ele>
        <time>2022-06-26T14:52:02Z</time>
      </trkpt>
      <trkpt lat="45.7571" lon="4.81007">
        <ele>277.6</ele>
        <time>2022-06-26T14:52:03Z</time>
      </trkpt>
      <trkpt lat="45.75711" lon="4.81018">
        <ele>277.4</ele>
        <time>2022-06-26T14:52:04Z</time>
      </trkpt>
      <trkpt lat="45.75711" lon="4.81027">
        <ele>277.4</ele>
        <time>2022-06-26T14:52:05Z</time>
      </trkpt>
      <trkpt lat="45.75712" lon="4.81035">
        <ele>277.4</ele>
        <time>2022-06-26T14:52:06Z</time>
      </trkpt>
      <trkpt lat="45.75711" lon="4.81044">
        <ele>277.4</ele>
        <time>2022-06-26T14:52:07Z</time>
      </trkpt>
      <trkpt lat="45.75709" lon="4.81053">
        <ele>277.4</ele>
        <time>2022-06-26T14:52:08Z</time>
      </trkpt>
      <trkpt lat="45.75708" lon="4.81061">
        <ele>277.4</ele>
        <time>2022-06-26T14:52:09Z</time>
      </trkpt>
      <trkpt lat="45.75707" lon="4.8107">
        <ele>277.4</ele>
        <time>2022-06-26T14:52:10Z</time>
      </trkpt>
      <trkpt lat="45.75705" lon="4.81079">
        <ele>277.4</ele>
        <time>2022-06-26T14:52:11Z</time>
      </trkpt>
      <trkpt lat="45.75703" lon="4.81088">
        <ele>277.2</ele>
        <time>2022-06-26T14:52:12Z</time>
      </trkpt>
      <trkpt lat="45.75701" lon="4.81097">
        <ele>277.2</ele>
        <time>2022-06-26T14:52:13Z</time>
      </trkpt>
      <trkpt lat="45.75699" lon="4.81106">
        <ele>277.2</ele>
        <time>2022-06-26T14:52:14Z</time>
      </trkpt>
      <trkpt lat="45.75697" lon="4.81114">
        <ele>277.2</ele>
        <time>2022-06-26T14:52:15Z</time>
      </trkpt>
      <trkpt lat="45.75695" lon="4.81123">
        <ele>277.2</ele>
        <time>2022-06-26T14:52:16Z</time>
      </trkpt>
      <trkpt lat="45.75693" lon="4.81131">
        <ele>277.2</ele>
        <time>2022-06-26T14:52:17Z</time>
      </trkpt>
      <trkpt lat="45.75691" lon="4.81139">
        <ele>277</ele>
        <time>2022-06-26T14:52:18Z</time>
      </trkpt>
      <trkpt lat="45.75688" lon="4.81147">
        <ele>277</ele>
        <time>2022-06-26T14:52:19Z</time>
      </trkpt>
      <trkpt lat="45.75687" lon="4.81155">
        <ele>277</ele>
        <time>2022-06-26T14:52:20Z</time>
      </trkpt>
      <trkpt lat="45.75684" lon="4.81163">
        <ele>277</ele>
        <time>2022-06-26T14:52:21Z</time>
      </trkpt>
      <trkpt lat="45.75682" lon="4.81171">
        <ele>277</ele>
        <time>2022-06-26T14:52:22Z</time>
      </trkpt>
      <trkpt lat="45.7568" lon="4.81179">
        <ele>277.2</ele>
        <time>2022-06-26T14:52:23Z</time>
      </trkpt>
      <trkpt lat="45.75678" lon="4.81187">
        <ele>277.2</ele>
        <time>2022-06-26T14:52:24Z</time>
      </trkpt>
      <trkpt lat="45.75676" lon="4.81195">
        <ele>277.2</ele>
        <time>2022-06-26T14:52:25Z</time>
      </trkpt>
      <trkpt lat="45.75674" lon="4.81202">
        <ele>277.4</ele>
        <time>2022-06-26T14:52:26Z</time>
      </trkpt>
      <trkpt lat="45.75673" lon="4.81209">
        <ele>277.4</ele>
        <time>2022-06-26T14:52:27Z</time>
      </trkpt>
      <trkpt lat="45.75672" lon="4.81216">
        <ele>277.4</ele>
        <time>2022-06-26T14:52:28Z</time>
      </trkpt>
      <trkpt lat="45.75671" lon="4.81222">
        <ele>277.4</ele>
        <time>2022-06-26T14:52:29Z</time>
      </trkpt>
      <trkpt lat="45.75672" lon="4.81228">
        <ele>277.4</ele>
        <time>2022-06-26T14:52:30Z</time>
      </trkpt>
      <trkpt lat="45.75675" lon="4.81234">
        <ele>277.4</ele>
        <time>2022-06-26T14:52:31Z</time>
      </trkpt>
      <trkpt lat="45.7568" lon="4.81237">
        <ele>277.4</ele>
        <time>2022-06-26T14:52:32Z</time>
      </trkpt>
      <trkpt lat="45.75684" lon="4.8124">
        <ele>277.6</ele>
        <time>2022-06-26T14:52:33Z</time>
      </trkpt>
      <trkpt lat="45.7569" lon="4.81243">
        <ele>277.6</ele>
        <time>2022-06-26T14:52:34Z</time>
      </trkpt>
      <trkpt lat="45.75696" lon="4.81246">
        <ele>277.6</ele>
        <time>2022-06-26T14:52:35Z</time>
      </trkpt>
      <trkpt lat="45.75701" lon="4.81251">
        <ele>277.6</ele>
        <time>2022-06-26T14:52:36Z</time>
      </trkpt>
      <trkpt lat="45.75707" lon="4.81256">
        <ele>277.6</ele>
        <time>2022-06-26T14:52:37Z</time>
      </trkpt>
      <trkpt lat="45.75713" lon="4.8126">
        <ele>277.6</ele>
        <time>2022-06-26T14:52:38Z</time>
      </trkpt>
      <trkpt lat="45.75719" lon="4.81263">
        <ele>277.6</ele>
        <time>2022-06-26T14:52:39Z</time>
      </trkpt>
      <trkpt lat="45.75725" lon="4.81267">
        <ele>277.6</ele>
        <time>2022-06-26T14:52:40Z</time>
      </trkpt>
      <trkpt lat="45.75731" lon="4.8127">
        <ele>277.6</ele>
        <time>2022-06-26T14:52:41Z</time>
      </trkpt>
      <trkpt lat="45.75737" lon="4.81273">
        <ele>277.6</ele>
        <time>2022-06-26T14:52:42Z</time>
      </trkpt>
      <trkpt lat="45.75742" lon="4.81277">
        <ele>277.6</ele>
        <time>2022-06-26T14:52:43Z</time>
      </trkpt>
      <trkpt lat="45.75748" lon="4.8128">
        <ele>277.6</ele>
        <time>2022-06-26T14:52:44Z</time>
      </trkpt>
      <trkpt lat="45.75753" lon="4.81284">
        <ele>278</ele>
        <time>2022-06-26T14:52:45Z</time>
      </trkpt>
      <trkpt lat="45.75759" lon="4.81287">
        <ele>278</ele>
        <time>2022-06-26T14:52:46Z</time>
      </trkpt>
      <trkpt lat="45.75764" lon="4.8129">
        <ele>278</ele>
        <time>2022-06-26T14:52:47Z</time>
      </trkpt>
      <trkpt lat="45.75769" lon="4.81292">
        <ele>278.2</ele>
        <time>2022-06-26T14:52:48Z</time>
      </trkpt>
      <trkpt lat="45.75774" lon="4.81295">
        <ele>278.2</ele>
        <time>2022-06-26T14:52:49Z</time>
      </trkpt>
      <trkpt lat="45.75779" lon="4.81298">
        <ele>278.2</ele>
        <time>2022-06-26T14:52:50Z</time>
      </trkpt>
      <trkpt lat="45.75784" lon="4.81301">
        <ele>278.4</ele>
        <time>2022-06-26T14:52:51Z</time>
      </trkpt>
      <trkpt lat="45.75788" lon="4.81304">
        <ele>278.4</ele>
        <time>2022-06-26T14:52:52Z</time>
      </trkpt>
      <trkpt lat="45.75793" lon="4.81308">
        <ele>278.6</ele>
        <time>2022-06-26T14:52:53Z</time>
      </trkpt>
      <trkpt lat="45.75797" lon="4.81311">
        <ele>278.6</ele>
        <time>2022-06-26T14:52:54Z</time>
      </trkpt>
      <trkpt lat="45.758" lon="4.81316">
        <ele>279</ele>
        <time>2022-06-26T14:52:55Z</time>
      </trkpt>
      <trkpt lat="45.75801" lon="4.81321">
        <ele>279.2</ele>
        <time>2022-06-26T14:52:56Z</time>
      </trkpt>
      <trkpt lat="45.75801" lon="4.81326">
        <ele>279.2</ele>
        <time>2022-06-26T14:52:57Z</time>
      </trkpt>
      <trkpt lat="45.758" lon="4.8133">
        <ele>279.6</ele>
        <time>2022-06-26T14:52:58Z</time>
      </trkpt>
      <trkpt lat="45.75799" lon="4.81334">
        <ele>279.6</ele>
        <time>2022-06-26T14:52:59Z</time>
      </trkpt>
      <trkpt lat="45.75796" lon="4.81337">
        <ele>279.8</ele>
        <time>2022-06-26T14:53:00Z</time>
      </trkpt>
      <trkpt lat="45.75794" lon="4.81341">
        <ele>279.8</ele>
        <time>2022-06-26T14:53:01Z</time>
      </trkpt>
      <trkpt lat="45.75792" lon="4.81344">
        <ele>280</ele>
        <time>2022-06-26T14:53:02Z</time>
      </trkpt>
      <trkpt lat="45.7579" lon="4.81347">
        <ele>280</ele>
        <time>2022-06-26T14:53:03Z</time>
      </trkpt>
      <trkpt lat="45.75787" lon="4.8135">
        <ele>280</ele>
        <time>2022-06-26T14:53:04Z</time>
      </trkpt>
      <trkpt lat="45.75785" lon="4.81353">
        <ele>280</ele>
        <time>2022-06-26T14:53:05Z</time>
      </trkpt>
      <trkpt lat="45.75782" lon="4.81357">
        <ele>280</ele>
        <time>2022-06-26T14:53:06Z</time>
      </trkpt>
      <trkpt lat="45.75779" lon="4.8136">
        <ele>280</ele>
        <time>2022-06-26T14:53:07Z</time>
      </trkpt>
      <trkpt lat="45.75777" lon="4.81365">
        <ele>280</ele>
        <time>2022-06-26T14:53:08Z</time>
      </trkpt>
      <trkpt lat="45.75773" lon="4.81369">
        <ele>280</ele>
        <time>2022-06-26T14:53:09Z</time>
      </trkpt>
      <trkpt lat="45.7577" lon="4.81373">
        <ele>280</ele>
        <time>2022-06-26T14:53:10Z</time>
      </trkpt>
      <trkpt lat="45.75767" lon="4.81376">
        <ele>279.8</ele>
        <time>2022-06-26T14:53:11Z</time>
      </trkpt>
      <trkpt lat="45.75764" lon="4.81379">
        <ele>279.8</ele>
        <time>2022-06-26T14:53:12Z</time>
      </trkpt>
      <trkpt lat="45.75762" lon="4.81383">
        <ele>279.6</ele>
        <time>2022-06-26T14:53:13Z</time>
      </trkpt>
      <trkpt lat="45.75759" lon="4.81387">
        <ele>279.6</ele>
        <time>2022-06-26T14:53:14Z</time>
      </trkpt>
      <trkpt lat="45.75755" lon="4.81391">
        <ele>279.6</ele>
        <time>2022-06-26T14:53:15Z</time>
      </trkpt>
      <trkpt lat="45.75752" lon="4.81395">
        <ele>279.4</ele>
        <time>2022-06-26T14:53:16Z</time>
      </trkpt>
      <trkpt lat="45.75748" lon="4.81399">
        <ele>279.4</ele>
        <time>2022-06-26T14:53:17Z</time>
      </trkpt>
      <trkpt lat="45.75743" lon="4.81403">
        <ele>279.2</ele>
        <time>2022-06-26T14:53:18Z</time>
      </trkpt>
      <trkpt lat="45.75739" lon="4.81408">
        <ele>279.2</ele>
        <time>2022-06-26T14:53:19Z</time>
      </trkpt>
      <trkpt lat="45.75734" lon="4.81412">
        <ele>278.8</ele>
        <time>2022-06-26T14:53:20Z</time>
      </trkpt>
      <trkpt lat="45.75729" lon="4.81417">
        <ele>278.6</ele>
        <time>2022-06-26T14:53:21Z</time>
      </trkpt>
      <trkpt lat="45.75725" lon="4.81422">
        <ele>278.4</ele>
        <time>2022-06-26T14:53:22Z</time>
      </trkpt>
      <trkpt lat="45.7572" lon="4.81427">
        <ele>278.4</ele>
        <time>2022-06-26T14:53:23Z</time>
      </trkpt>
      <trkpt lat="45.75715" lon="4.81433">
        <ele>278</ele>
        <time>2022-06-26T14:53:24Z</time>
      </trkpt>
      <trkpt lat="45.7571" lon="4.81438">
        <ele>277.8</ele>
        <time>2022-06-26T14:53:25Z</time>
      </trkpt>
      <trkpt lat="45.75705" lon="4.81444">
        <ele>277.4</ele>
        <time>2022-06-26T14:53:26Z</time>
      </trkpt>
      <trkpt lat="45.757" lon="4.8145">
        <ele>277.2</ele>
        <time>2022-06-26T14:53:27Z</time>
      </trkpt>
      <trkpt lat="45.75695" lon="4.81456">
        <ele>277.2</ele>
        <time>2022-06-26T14:53:28Z</time>
      </trkpt>
      <trkpt lat="45.75689" lon="4.81462">
        <ele>277</ele>
        <time>2022-06-26T14:53:29Z</time>
      </trkpt>
      <trkpt lat="45.75683" lon="4.81468">
        <ele>276.6</ele>
        <time>2022-06-26T14:53:30Z</time>
      </trkpt>
      <trkpt lat="45.75678" lon="4.81474">
        <ele>276.6</ele>
        <time>2022-06-26T14:53:31Z</time>
      </trkpt>
      <trkpt lat="45.75672" lon="4.8148">
        <ele>276.4</ele>
        <time>2022-06-26T14:53:32Z</time>
      </trkpt>
      <trkpt lat="45.75666" lon="4.81487">
        <ele>276.4</ele>
        <time>2022-06-26T14:53:33Z</time>
      </trkpt>
      <trkpt lat="45.75661" lon="4.81493">
        <ele>276</ele>
        <time>2022-06-26T14:53:34Z</time>
      </trkpt>
      <trkpt lat="45.75655" lon="4.815">
        <ele>276</ele>
        <time>2022-06-26T14:53:35Z</time>
      </trkpt>
      <trkpt lat="45.75649" lon="4.81505">
        <ele>275.6</ele>
        <time>2022-06-26T14:53:36Z</time>
      </trkpt>
      <trkpt lat="45.75643" lon="4.81511">
        <ele>275.6</ele>
        <time>2022-06-26T14:53:37Z</time>
      </trkpt>
      <trkpt lat="45.75638" lon="4.81516">
        <ele>275.4</ele>
        <time>2022-06-26T14:53:38Z</time>
      </trkpt>
      <trkpt lat="45.75634" lon="4.81521">
        <ele>275.4</ele>
        <time>2022-06-26T14:53:39Z</time>
      </trkpt>
      <trkpt lat="45.7563" lon="4.81525">
        <ele>275</ele>
        <time>2022-06-26T14:53:40Z</time>
      </trkpt>
      <trkpt lat="45.75626" lon="4.8153">
        <ele>275</ele>
        <time>2022-06-26T14:53:41Z</time>
      </trkpt>
      <trkpt lat="45.75622" lon="4.81534">
        <ele>275</ele>
        <time>2022-06-26T14:53:42Z</time>
      </trkpt>
      <trkpt lat="45.75618" lon="4.81538">
        <ele>275</ele>
        <time>2022-06-26T14:53:43Z</time>
      </trkpt>
      <trkpt lat="45.75614" lon="4.81543">
        <ele>275</ele>
        <time>2022-06-26T14:53:44Z</time>
      </trkpt>
      <trkpt lat="45.75609" lon="4.81549">
        <ele>274.8</ele>
        <time>2022-06-26T14:53:45Z</time>
      </trkpt>
      <trkpt lat="45.75605" lon="4.81554">
        <ele>274.4</ele>
        <time>2022-06-26T14:53:46Z</time>
      </trkpt>
      <trkpt lat="45.75601" lon="4.81558">
        <ele>274.2</ele>
        <time>2022-06-26T14:53:47Z</time>
      </trkpt>
      <trkpt lat="45.75598" lon="4.81562">
        <ele>273.8</ele>
        <time>2022-06-26T14:53:48Z</time>
      </trkpt>
      <trkpt lat="45.75594" lon="4.81566">
        <ele>273.6</ele>
        <time>2022-06-26T14:53:49Z</time>
      </trkpt>
      <trkpt lat="45.7559" lon="4.8157">
        <ele>273.2</ele>
        <time>2022-06-26T14:53:50Z</time>
      </trkpt>
      <trkpt lat="45.75586" lon="4.81575">
        <ele>273</ele>
        <time>2022-06-26T14:53:51Z</time>
      </trkpt>
      <trkpt lat="45.75583" lon="4.81579">
        <ele>272.8</ele>
        <time>2022-06-26T14:53:52Z</time>
      </trkpt>
      <trkpt lat="45.75579" lon="4.81583">
        <ele>272.4</ele>
        <time>2022-06-26T14:53:53Z</time>
      </trkpt>
      <trkpt lat="45.75577" lon="4.81588">
        <ele>272</ele>
        <time>2022-06-26T14:53:54Z</time>
      </trkpt>
      <trkpt lat="45.75577" lon="4.81594">
        <ele>271.8</ele>
        <time>2022-06-26T14:53:55Z</time>
      </trkpt>
      <trkpt lat="45.75577" lon="4.81599">
        <ele>271.8</ele>
        <time>2022-06-26T14:53:56Z</time>
      </trkpt>
      <trkpt lat="45.75578" lon="4.81605">
        <ele>271.4</ele>
        <time>2022-06-26T14:53:57Z</time>
      </trkpt>
      <trkpt lat="45.7558" lon="4.81612">
        <ele>271.4</ele>
        <time>2022-06-26T14:53:58Z</time>
      </trkpt>
      <trkpt lat="45.75582" lon="4.81618">
        <ele>271.2</ele>
        <time>2022-06-26T14:53:59Z</time>
      </trkpt>
      <trkpt lat="45.75584" lon="4.81625">
        <ele>271.2</ele>
        <time>2022-06-26T14:54:00Z</time>
      </trkpt>
      <trkpt lat="45.75586" lon="4.81632">
        <ele>271</ele>
        <time>2022-06-26T14:54:01Z</time>
      </trkpt>
      <trkpt lat="45.75588" lon="4.8164">
        <ele>271</ele>
        <time>2022-06-26T14:54:02Z</time>
      </trkpt>
      <trkpt lat="45.7559" lon="4.81647">
        <ele>271</ele>
        <time>2022-06-26T14:54:03Z</time>
      </trkpt>
      <trkpt lat="45.75592" lon="4.81654">
        <ele>271</ele>
        <time>2022-06-26T14:54:04Z</time>
      </trkpt>
      <trkpt lat="45.75595" lon="4.81661">
        <ele>271</ele>
        <time>2022-06-26T14:54:05Z</time>
      </trkpt>
      <trkpt lat="45.75597" lon="4.81667">
        <ele>271</ele>
        <time>2022-06-26T14:54:06Z</time>
      </trkpt>
      <trkpt lat="45.75599" lon="4.81674">
        <ele>271</ele>
        <time>2022-06-26T14:54:07Z</time>
      </trkpt>
      <trkpt lat="45.75601" lon="4.81682">
        <ele>271</ele>
        <time>2022-06-26T14:54:08Z</time>
      </trkpt>
      <trkpt lat="45.75604" lon="4.81689">
        <ele>270.8</ele>
        <time>2022-06-26T14:54:09Z</time>
      </trkpt>
      <trkpt lat="45.75606" lon="4.81696">
        <ele>270.8</ele>
        <time>2022-06-26T14:54:10Z</time>
      </trkpt>
      <trkpt lat="45.75608" lon="4.81702">
        <ele>270.8</ele>
        <time>2022-06-26T14:54:11Z</time>
      </trkpt>
      <trkpt lat="45.7561" lon="4.81707">
        <ele>270.8</ele>
        <time>2022-06-26T14:54:12Z</time>
      </trkpt>
      <trkpt lat="45.75611" lon="4.81712">
        <ele>271</ele>
        <time>2022-06-26T14:54:13Z</time>
      </trkpt>
      <trkpt lat="45.75613" lon="4.81717">
        <ele>271</ele>
        <time>2022-06-26T14:54:14Z</time>
      </trkpt>
      <trkpt lat="45.75614" lon="4.81721">
        <ele>271</ele>
        <time>2022-06-26T14:54:15Z</time>
      </trkpt>
      <trkpt lat="45.75616" lon="4.81727">
        <ele>271.2</ele>
        <time>2022-06-26T14:54:16Z</time>
      </trkpt>
      <trkpt lat="45.75618" lon="4.81731">
        <ele>271.2</ele>
        <time>2022-06-26T14:54:17Z</time>
      </trkpt>
      <trkpt lat="45.75619" lon="4.81735">
        <ele>271.6</ele>
        <time>2022-06-26T14:54:18Z</time>
      </trkpt>
      <trkpt lat="45.75621" lon="4.81739">
        <ele>271.8</ele>
        <time>2022-06-26T14:54:19Z</time>
      </trkpt>
      <trkpt lat="45.75622" lon="4.81742">
        <ele>272</ele>
        <time>2022-06-26T14:54:20Z</time>
      </trkpt>
      <trkpt lat="45.75623" lon="4.81746">
        <ele>272.4</ele>
        <time>2022-06-26T14:54:21Z</time>
      </trkpt>
      <trkpt lat="45.75623" lon="4.81748">
        <ele>272.6</ele>
        <time>2022-06-26T14:54:22Z</time>
      </trkpt>
      <trkpt lat="45.75624" lon="4.81751">
        <ele>272.8</ele>
        <time>2022-06-26T14:54:23Z</time>
      </trkpt>
      <trkpt lat="45.75624" lon="4.81754">
        <ele>272.8</ele>
        <time>2022-06-26T14:54:24Z</time>
      </trkpt>
      <trkpt lat="45.75624" lon="4.81756">
        <ele>273.2</ele>
        <time>2022-06-26T14:54:25Z</time>
      </trkpt>
      <trkpt lat="45.75624" lon="4.81759">
        <ele>273.2</ele>
        <time>2022-06-26T14:54:26Z</time>
      </trkpt>
      <trkpt lat="45.75623" lon="4.81762">
        <ele>273.2</ele>
        <time>2022-06-26T14:54:27Z</time>
      </trkpt>
      <trkpt lat="45.75623" lon="4.81766">
        <ele>273.2</ele>
        <time>2022-06-26T14:54:28Z</time>
      </trkpt>
      <trkpt lat="45.75622" lon="4.8177">
        <ele>273.2</ele>
        <time>2022-06-26T14:54:29Z</time>
      </trkpt>
      <trkpt lat="45.75622" lon="4.81775">
        <ele>273.2</ele>
        <time>2022-06-26T14:54:30Z</time>
      </trkpt>
      <trkpt lat="45.75621" lon="4.8178">
        <ele>273</ele>
        <time>2022-06-26T14:54:32Z</time>
      </trkpt>
      <trkpt lat="45.7562" lon="4.81784">
        <ele>273</ele>
        <time>2022-06-26T14:54:33Z</time>
      </trkpt>
      <trkpt lat="45.75619" lon="4.81788">
        <ele>272.8</ele>
        <time>2022-06-26T14:54:34Z</time>
      </trkpt>
      <trkpt lat="45.75619" lon="4.81792">
        <ele>272.4</ele>
        <time>2022-06-26T14:54:35Z</time>
      </trkpt>
      <trkpt lat="45.75618" lon="4.81796">
        <ele>272.4</ele>
        <time>2022-06-26T14:54:36Z</time>
      </trkpt>
      <trkpt lat="45.75617" lon="4.81799">
        <ele>272.2</ele>
        <time>2022-06-26T14:54:37Z</time>
      </trkpt>
      <trkpt lat="45.75616" lon="4.81803">
        <ele>272.2</ele>
        <time>2022-06-26T14:54:38Z</time>
      </trkpt>
      <trkpt lat="45.75615" lon="4.81807">
        <ele>272.2</ele>
        <time>2022-06-26T14:54:39Z</time>
      </trkpt>
      <trkpt lat="45.75614" lon="4.81811">
        <ele>272.2</ele>
        <time>2022-06-26T14:54:40Z</time>
      </trkpt>
      <trkpt lat="45.75614" lon="4.81816">
        <ele>272.2</ele>
        <time>2022-06-26T14:54:41Z</time>
      </trkpt>
      <trkpt lat="45.75613" lon="4.81822">
        <ele>271.8</ele>
        <time>2022-06-26T14:54:42Z</time>
      </trkpt>
      <trkpt lat="45.75611" lon="4.81828">
        <ele>271.6</ele>
        <time>2022-06-26T14:54:43Z</time>
      </trkpt>
      <trkpt lat="45.7561" lon="4.81835">
        <ele>271.6</ele>
        <time>2022-06-26T14:54:44Z</time>
      </trkpt>
      <trkpt lat="45.75609" lon="4.81841">
        <ele>271.2</ele>
        <time>2022-06-26T14:54:45Z</time>
      </trkpt>
      <trkpt lat="45.75609" lon="4.81846">
        <ele>271.2</ele>
        <time>2022-06-26T14:54:46Z</time>
      </trkpt>
      <trkpt lat="45.75608" lon="4.8185">
        <ele>271</ele>
        <time>2022-06-26T14:54:47Z</time>
      </trkpt>
      <trkpt lat="45.75607" lon="4.81853">
        <ele>271</ele>
        <time>2022-06-26T14:54:48Z</time>
      </trkpt>
      <trkpt lat="45.75607" lon="4.81857">
        <ele>271</ele>
        <time>2022-06-26T14:54:49Z</time>
      </trkpt>
      <trkpt lat="45.75606" lon="4.81862">
        <ele>270.8</ele>
        <time>2022-06-26T14:54:50Z</time>
      </trkpt>
      <trkpt lat="45.75607" lon="4.81867">
        <ele>270.6</ele>
        <time>2022-06-26T14:54:51Z</time>
      </trkpt>
      <trkpt lat="45.75607" lon="4.81872">
        <ele>270.6</ele>
        <time>2022-06-26T14:54:52Z</time>
      </trkpt>
      <trkpt lat="45.75608" lon="4.81877">
        <ele>270.2</ele>
        <time>2022-06-26T14:54:53Z</time>
      </trkpt>
      <trkpt lat="45.75609" lon="4.81881">
        <ele>270</ele>
        <time>2022-06-26T14:54:54Z</time>
      </trkpt>
      <trkpt lat="45.7561" lon="4.81887">
        <ele>269.8</ele>
        <time>2022-06-26T14:54:55Z</time>
      </trkpt>
      <trkpt lat="45.7561" lon="4.81893">
        <ele>269.8</ele>
        <time>2022-06-26T14:54:56Z</time>
      </trkpt>
      <trkpt lat="45.75611" lon="4.81899">
        <ele>269.4</ele>
        <time>2022-06-26T14:54:57Z</time>
      </trkpt>
      <trkpt lat="45.75613" lon="4.81905">
        <ele>269.2</ele>
        <time>2022-06-26T14:54:58Z</time>
      </trkpt>
      <trkpt lat="45.75615" lon="4.8191">
        <ele>268.8</ele>
        <time>2022-06-26T14:54:59Z</time>
      </trkpt>
      <trkpt lat="45.75617" lon="4.81916">
        <ele>268.6</ele>
        <time>2022-06-26T14:55:00Z</time>
      </trkpt>
      <trkpt lat="45.7562" lon="4.81922">
        <ele>268.4</ele>
        <time>2022-06-26T14:55:01Z</time>
      </trkpt>
      <trkpt lat="45.75622" lon="4.81929">
        <ele>268.4</ele>
        <time>2022-06-26T14:55:02Z</time>
      </trkpt>
      <trkpt lat="45.75624" lon="4.81935">
        <ele>267.8</ele>
        <time>2022-06-26T14:55:03Z</time>
      </trkpt>
      <trkpt lat="45.75626" lon="4.81942">
        <ele>267.6</ele>
        <time>2022-06-26T14:55:04Z</time>
      </trkpt>
      <trkpt lat="45.75628" lon="4.81948">
        <ele>267.4</ele>
        <time>2022-06-26T14:55:05Z</time>
      </trkpt>
      <trkpt lat="45.75629" lon="4.81954">
        <ele>267</ele>
        <time>2022-06-26T14:55:06Z</time>
      </trkpt>
      <trkpt lat="45.75631" lon="4.81959">
        <ele>266.6</ele>
        <time>2022-06-26T14:55:07Z</time>
      </trkpt>
      <trkpt lat="45.75632" lon="4.81963">
        <ele>266.4</ele>
        <time>2022-06-26T14:55:08Z</time>
      </trkpt>
      <trkpt lat="45.75633" lon="4.81967">
        <ele>266.2</ele>
        <time>2022-06-26T14:55:09Z</time>
      </trkpt>
      <trkpt lat="45.75635" lon="4.81971">
        <ele>266.2</ele>
        <time>2022-06-26T14:55:10Z</time>
      </trkpt>
      <trkpt lat="45.75636" lon="4.81975">
        <ele>265.8</ele>
        <time>2022-06-26T14:55:11Z</time>
      </trkpt>
      <trkpt lat="45.75638" lon="4.8198">
        <ele>265.2</ele>
        <time>2022-06-26T14:55:12Z</time>
      </trkpt>
      <trkpt lat="45.75642" lon="4.81991">
        <ele>264.8</ele>
        <time>2022-06-26T14:55:13Z</time>
      </trkpt>
      <trkpt lat="45.75645" lon="4.81997">
        <ele>264.6</ele>
        <time>2022-06-26T14:55:14Z</time>
      </trkpt>
      <trkpt lat="45.75648" lon="4.82003">
        <ele>264.2</ele>
        <time>2022-06-26T14:55:15Z</time>
      </trkpt>
      <trkpt lat="45.75651" lon="4.82009">
        <ele>263.8</ele>
        <time>2022-06-26T14:55:16Z</time>
      </trkpt>
      <trkpt lat="45.75654" lon="4.82016">
        <ele>263.4</ele>
        <time>2022-06-26T14:55:17Z</time>
      </trkpt>
      <trkpt lat="45.75658" lon="4.82023">
        <ele>263</ele>
        <time>2022-06-26T14:55:18Z</time>
      </trkpt>
      <trkpt lat="45.75661" lon="4.8203">
        <ele>262.6</ele>
        <time>2022-06-26T14:55:19Z</time>
      </trkpt>
      <trkpt lat="45.75665" lon="4.82037">
        <ele>262.2</ele>
        <time>2022-06-26T14:55:20Z</time>
      </trkpt>
      <trkpt lat="45.75668" lon="4.82043">
        <ele>261.6</ele>
        <time>2022-06-26T14:55:21Z</time>
      </trkpt>
      <trkpt lat="45.75672" lon="4.82049">
        <ele>261.2</ele>
        <time>2022-06-26T14:55:22Z</time>
      </trkpt>
      <trkpt lat="45.75675" lon="4.82055">
        <ele>260.8</ele>
        <time>2022-06-26T14:55:23Z</time>
      </trkpt>
      <trkpt lat="45.75679" lon="4.8206">
        <ele>260.2</ele>
        <time>2022-06-26T14:55:24Z</time>
      </trkpt>
      <trkpt lat="45.75682" lon="4.82065">
        <ele>259.8</ele>
        <time>2022-06-26T14:55:25Z</time>
      </trkpt>
      <trkpt lat="45.75685" lon="4.82069">
        <ele>259.4</ele>
        <time>2022-06-26T14:55:26Z</time>
      </trkpt>
      <trkpt lat="45.75687" lon="4.82074">
        <ele>259</ele>
        <time>2022-06-26T14:55:27Z</time>
      </trkpt>
      <trkpt lat="45.75689" lon="4.82079">
        <ele>258.6</ele>
        <time>2022-06-26T14:55:28Z</time>
      </trkpt>
      <trkpt lat="45.75692" lon="4.82084">
        <ele>258.2</ele>
        <time>2022-06-26T14:55:29Z</time>
      </trkpt>
      <trkpt lat="45.75694" lon="4.82089">
        <ele>257.8</ele>
        <time>2022-06-26T14:55:30Z</time>
      </trkpt>
      <trkpt lat="45.75698" lon="4.82093">
        <ele>257.6</ele>
        <time>2022-06-26T14:55:31Z</time>
      </trkpt>
      <trkpt lat="45.75701" lon="4.82098">
        <ele>257.2</ele>
        <time>2022-06-26T14:55:32Z</time>
      </trkpt>
      <trkpt lat="45.75705" lon="4.82103">
        <ele>256.8</ele>
        <time>2022-06-26T14:55:33Z</time>
      </trkpt>
      <trkpt lat="45.7571" lon="4.82108">
        <ele>256.4</ele>
        <time>2022-06-26T14:55:34Z</time>
      </trkpt>
      <trkpt lat="45.75714" lon="4.82113">
        <ele>256.2</ele>
        <time>2022-06-26T14:55:35Z</time>
      </trkpt>
      <trkpt lat="45.75718" lon="4.82119">
        <ele>255.8</ele>
        <time>2022-06-26T14:55:36Z</time>
      </trkpt>
      <trkpt lat="45.75722" lon="4.82124">
        <ele>255.6</ele>
        <time>2022-06-26T14:55:37Z</time>
      </trkpt>
      <trkpt lat="45.75727" lon="4.8213">
        <ele>255.2</ele>
        <time>2022-06-26T14:55:38Z</time>
      </trkpt>
      <trkpt lat="45.75731" lon="4.82136">
        <ele>254.8</ele>
        <time>2022-06-26T14:55:39Z</time>
      </trkpt>
      <trkpt lat="45.75736" lon="4.82142">
        <ele>254.2</ele>
        <time>2022-06-26T14:55:40Z</time>
      </trkpt>
      <trkpt lat="45.75742" lon="4.82148">
        <ele>253.6</ele>
        <time>2022-06-26T14:55:41Z</time>
      </trkpt>
      <trkpt lat="45.75748" lon="4.82154">
        <ele>253.2</ele>
        <time>2022-06-26T14:55:42Z</time>
      </trkpt>
      <trkpt lat="45.75754" lon="4.82159">
        <ele>252.8</ele>
        <time>2022-06-26T14:55:43Z</time>
      </trkpt>
      <trkpt lat="45.7576" lon="4.82165">
        <ele>252.6</ele>
        <time>2022-06-26T14:55:44Z</time>
      </trkpt>
      <trkpt lat="45.75766" lon="4.8217">
        <ele>252.2</ele>
        <time>2022-06-26T14:55:45Z</time>
      </trkpt>
      <trkpt lat="45.75773" lon="4.82174">
        <ele>252.2</ele>
        <time>2022-06-26T14:55:46Z</time>
      </trkpt>
      <trkpt lat="45.75778" lon="4.82178">
        <ele>252</ele>
        <time>2022-06-26T14:55:47Z</time>
      </trkpt>
      <trkpt lat="45.75784" lon="4.82182">
        <ele>251.6</ele>
        <time>2022-06-26T14:55:48Z</time>
      </trkpt>
      <trkpt lat="45.7579" lon="4.82186">
        <ele>251.6</ele>
        <time>2022-06-26T14:55:49Z</time>
      </trkpt>
      <trkpt lat="45.75796" lon="4.82189">
        <ele>251.6</ele>
        <time>2022-06-26T14:55:50Z</time>
      </trkpt>
      <trkpt lat="45.75801" lon="4.82193">
        <ele>251.4</ele>
        <time>2022-06-26T14:55:51Z</time>
      </trkpt>
      <trkpt lat="45.75807" lon="4.82196">
        <ele>251.4</ele>
        <time>2022-06-26T14:55:52Z</time>
      </trkpt>
      <trkpt lat="45.75812" lon="4.82199">
        <ele>251.4</ele>
        <time>2022-06-26T14:55:53Z</time>
      </trkpt>
      <trkpt lat="45.75817" lon="4.82202">
        <ele>251</ele>
        <time>2022-06-26T14:55:54Z</time>
      </trkpt>
      <trkpt lat="45.75821" lon="4.82205">
        <ele>251</ele>
        <time>2022-06-26T14:55:55Z</time>
      </trkpt>
      <trkpt lat="45.75826" lon="4.82209">
        <ele>250.8</ele>
        <time>2022-06-26T14:55:56Z</time>
      </trkpt>
      <trkpt lat="45.75828" lon="4.82215">
        <ele>250.8</ele>
        <time>2022-06-26T14:55:57Z</time>
      </trkpt>
      <trkpt lat="45.75831" lon="4.82222">
        <ele>250.8</ele>
        <time>2022-06-26T14:55:58Z</time>
      </trkpt>
      <trkpt lat="45.75833" lon="4.82229">
        <ele>250.4</ele>
        <time>2022-06-26T14:55:59Z</time>
      </trkpt>
      <trkpt lat="45.75836" lon="4.82237">
        <ele>250.4</ele>
        <time>2022-06-26T14:56:00Z</time>
      </trkpt>
      <trkpt lat="45.75838" lon="4.82245">
        <ele>250</ele>
        <time>2022-06-26T14:56:01Z</time>
      </trkpt>
      <trkpt lat="45.7584" lon="4.82253">
        <ele>250</ele>
        <time>2022-06-26T14:56:02Z</time>
      </trkpt>
      <trkpt lat="45.75842" lon="4.82263">
        <ele>249.4</ele>
        <time>2022-06-26T14:56:03Z</time>
      </trkpt>
      <trkpt lat="45.75844" lon="4.82272">
        <ele>249.2</ele>
        <time>2022-06-26T14:56:04Z</time>
      </trkpt>
      <trkpt lat="45.75846" lon="4.82282">
        <ele>248.8</ele>
        <time>2022-06-26T14:56:05Z</time>
      </trkpt>
      <trkpt lat="45.75849" lon="4.82291">
        <ele>248.6</ele>
        <time>2022-06-26T14:56:06Z</time>
      </trkpt>
      <trkpt lat="45.75851" lon="4.823">
        <ele>248.2</ele>
        <time>2022-06-26T14:56:07Z</time>
      </trkpt>
      <trkpt lat="45.75854" lon="4.82309">
        <ele>247.6</ele>
        <time>2022-06-26T14:56:08Z</time>
      </trkpt>
      <trkpt lat="45.75856" lon="4.82317">
        <ele>247.2</ele>
        <time>2022-06-26T14:56:09Z</time>
      </trkpt>
      <trkpt lat="45.75859" lon="4.82325">
        <ele>246.8</ele>
        <time>2022-06-26T14:56:10Z</time>
      </trkpt>
      <trkpt lat="45.75861" lon="4.82332">
        <ele>246.2</ele>
        <time>2022-06-26T14:56:11Z</time>
      </trkpt>
      <trkpt lat="45.75863" lon="4.8234">
        <ele>245.8</ele>
        <time>2022-06-26T14:56:12Z</time>
      </trkpt>
      <trkpt lat="45.75866" lon="4.82348">
        <ele>245.4</ele>
        <time>2022-06-26T14:56:13Z</time>
      </trkpt>
      <trkpt lat="45.7587" lon="4.82356">
        <ele>244.8</ele>
        <time>2022-06-26T14:56:14Z</time>
      </trkpt>
      <trkpt lat="45.75873" lon="4.82363">
        <ele>244.4</ele>
        <time>2022-06-26T14:56:15Z</time>
      </trkpt>
      <trkpt lat="45.75877" lon="4.8237">
        <ele>243.8</ele>
        <time>2022-06-26T14:56:16Z</time>
      </trkpt>
      <trkpt lat="45.75881" lon="4.82376">
        <ele>243.4</ele>
        <time>2022-06-26T14:56:17Z</time>
      </trkpt>
      <trkpt lat="45.75887" lon="4.82381">
        <ele>243</ele>
        <time>2022-06-26T14:56:18Z</time>
      </trkpt>
      <trkpt lat="45.75892" lon="4.82386">
        <ele>242.4</ele>
        <time>2022-06-26T14:56:19Z</time>
      </trkpt>
      <trkpt lat="45.75896" lon="4.82391">
        <ele>241.8</ele>
        <time>2022-06-26T14:56:20Z</time>
      </trkpt>
      <trkpt lat="45.75902" lon="4.82396">
        <ele>241.2</ele>
        <time>2022-06-26T14:56:21Z</time>
      </trkpt>
      <trkpt lat="45.75908" lon="4.82401">
        <ele>240.6</ele>
        <time>2022-06-26T14:56:22Z</time>
      </trkpt>
      <trkpt lat="45.75913" lon="4.82405">
        <ele>239.8</ele>
        <time>2022-06-26T14:56:23Z</time>
      </trkpt>
      <trkpt lat="45.75919" lon="4.82409">
        <ele>239.2</ele>
        <time>2022-06-26T14:56:24Z</time>
      </trkpt>
      <trkpt lat="45.75925" lon="4.82412">
        <ele>238.6</ele>
        <time>2022-06-26T14:56:25Z</time>
      </trkpt>
      <trkpt lat="45.75932" lon="4.82416">
        <ele>237.8</ele>
        <time>2022-06-26T14:56:26Z</time>
      </trkpt>
      <trkpt lat="45.75938" lon="4.82419">
        <ele>237.2</ele>
        <time>2022-06-26T14:56:27Z</time>
      </trkpt>
      <trkpt lat="45.75945" lon="4.82423">
        <ele>236.6</ele>
        <time>2022-06-26T14:56:28Z</time>
      </trkpt>
      <trkpt lat="45.75952" lon="4.82426">
        <ele>235.8</ele>
        <time>2022-06-26T14:56:29Z</time>
      </trkpt>
      <trkpt lat="45.7596" lon="4.82429">
        <ele>234.8</ele>
        <time>2022-06-26T14:56:30Z</time>
      </trkpt>
      <trkpt lat="45.75967" lon="4.82433">
        <ele>234</ele>
        <time>2022-06-26T14:56:31Z</time>
      </trkpt>
      <trkpt lat="45.75974" lon="4.82437">
        <ele>233</ele>
        <time>2022-06-26T14:56:32Z</time>
      </trkpt>
      <trkpt lat="45.75982" lon="4.82441">
        <ele>232.2</ele>
        <time>2022-06-26T14:56:33Z</time>
      </trkpt>
      <trkpt lat="45.75989" lon="4.82443">
        <ele>231.2</ele>
        <time>2022-06-26T14:56:34Z</time>
      </trkpt>
      <trkpt lat="45.75996" lon="4.82447">
        <ele>230.2</ele>
        <time>2022-06-26T14:56:35Z</time>
      </trkpt>
      <trkpt lat="45.76003" lon="4.82451">
        <ele>229.4</ele>
        <time>2022-06-26T14:56:36Z</time>
      </trkpt>
      <trkpt lat="45.76009" lon="4.82456">
        <ele>228.4</ele>
        <time>2022-06-26T14:56:37Z</time>
      </trkpt>
      <trkpt lat="45.76016" lon="4.82461">
        <ele>227.4</ele>
        <time>2022-06-26T14:56:38Z</time>
      </trkpt>
      <trkpt lat="45.76023" lon="4.82466">
        <ele>226.6</ele>
        <time>2022-06-26T14:56:39Z</time>
      </trkpt>
      <trkpt lat="45.76031" lon="4.8247">
        <ele>225.6</ele>
        <time>2022-06-26T14:56:40Z</time>
      </trkpt>
      <trkpt lat="45.7604" lon="4.82475">
        <ele>224.6</ele>
        <time>2022-06-26T14:56:41Z</time>
      </trkpt>
      <trkpt lat="45.76051" lon="4.82481">
        <ele>223.6</ele>
        <time>2022-06-26T14:56:42Z</time>
      </trkpt>
      <trkpt lat="45.7606" lon="4.82487">
        <ele>222.4</ele>
        <time>2022-06-26T14:56:43Z</time>
      </trkpt>
      <trkpt lat="45.76069" lon="4.82492">
        <ele>221.2</ele>
        <time>2022-06-26T14:56:44Z</time>
      </trkpt>
      <trkpt lat="45.76078" lon="4.82497">
        <ele>220</ele>
        <time>2022-06-26T14:56:45Z</time>
      </trkpt>
      <trkpt lat="45.76087" lon="4.82501">
        <ele>218.8</ele>
        <time>2022-06-26T14:56:46Z</time>
      </trkpt>
      <trkpt lat="45.76096" lon="4.82505">
        <ele>217.6</ele>
        <time>2022-06-26T14:56:47Z</time>
      </trkpt>
      <trkpt lat="45.76105" lon="4.82508">
        <ele>216.2</ele>
        <time>2022-06-26T14:56:48Z</time>
      </trkpt>
      <trkpt lat="45.76114" lon="4.82511">
        <ele>215</ele>
        <time>2022-06-26T14:56:49Z</time>
      </trkpt>
      <trkpt lat="45.76124" lon="4.82515">
        <ele>213.6</ele>
        <time>2022-06-26T14:56:50Z</time>
      </trkpt>
      <trkpt lat="45.76133" lon="4.8252">
        <ele>212.2</ele>
        <time>2022-06-26T14:56:51Z</time>
      </trkpt>
      <trkpt lat="45.76141" lon="4.82525">
        <ele>210.8</ele>
        <time>2022-06-26T14:56:52Z</time>
      </trkpt>
      <trkpt lat="45.76149" lon="4.8253">
        <ele>209.4</ele>
        <time>2022-06-26T14:56:53Z</time>
      </trkpt>
      <trkpt lat="45.76156" lon="4.82535">
        <ele>208</ele>
        <time>2022-06-26T14:56:54Z</time>
      </trkpt>
      <trkpt lat="45.76163" lon="4.82541">
        <ele>206.8</ele>
        <time>2022-06-26T14:56:55Z</time>
      </trkpt>
      <trkpt lat="45.76169" lon="4.82546">
        <ele>205.4</ele>
        <time>2022-06-26T14:56:56Z</time>
      </trkpt>
      <trkpt lat="45.76176" lon="4.82552">
        <ele>204.2</ele>
        <time>2022-06-26T14:56:57Z</time>
      </trkpt>
      <trkpt lat="45.76182" lon="4.82558">
        <ele>202.8</ele>
        <time>2022-06-26T14:56:58Z</time>
      </trkpt>
      <trkpt lat="45.76188" lon="4.82564">
        <ele>201.8</ele>
        <time>2022-06-26T14:56:59Z</time>
      </trkpt>
      <trkpt lat="45.76193" lon="4.8257">
        <ele>200.6</ele>
        <time>2022-06-26T14:57:00Z</time>
      </trkpt>
      <trkpt lat="45.76198" lon="4.82576">
        <ele>199.6</ele>
        <time>2022-06-26T14:57:01Z</time>
      </trkpt>
      <trkpt lat="45.76201" lon="4.82582">
        <ele>198.4</ele>
        <time>2022-06-26T14:57:02Z</time>
      </trkpt>
      <trkpt lat="45.76204" lon="4.82586">
        <ele>197.4</ele>
        <time>2022-06-26T14:57:03Z</time>
      </trkpt>
      <trkpt lat="45.76206" lon="4.82591">
        <ele>196.6</ele>
        <time>2022-06-26T14:57:04Z</time>
      </trkpt>
      <trkpt lat="45.76207" lon="4.82595">
        <ele>195.8</ele>
        <time>2022-06-26T14:57:05Z</time>
      </trkpt>
      <trkpt lat="45.76207" lon="4.82599">
        <ele>195.2</ele>
        <time>2022-06-26T14:57:06Z</time>
      </trkpt>
      <trkpt lat="45.76206" lon="4.82602">
        <ele>194.4</ele>
        <time>2022-06-26T14:57:07Z</time>
      </trkpt>
      <trkpt lat="45.76205" lon="4.82606">
        <ele>193.8</ele>
        <time>2022-06-26T14:57:08Z</time>
      </trkpt>
      <trkpt lat="45.76204" lon="4.82609">
        <ele>193.4</ele>
        <time>2022-06-26T14:57:09Z</time>
      </trkpt>
      <trkpt lat="45.76203" lon="4.82611">
        <ele>193</ele>
        <time>2022-06-26T14:57:10Z</time>
      </trkpt>
      <trkpt lat="45.76202" lon="4.82614">
        <ele>192.6</ele>
        <time>2022-06-26T14:57:11Z</time>
      </trkpt>
      <trkpt lat="45.76201" lon="4.82616">
        <ele>192.2</ele>
        <time>2022-06-26T14:57:12Z</time>
      </trkpt>
      <trkpt lat="45.76199" lon="4.82619">
        <ele>191.8</ele>
        <time>2022-06-26T14:57:13Z</time>
      </trkpt>
      <trkpt lat="45.76198" lon="4.82622">
        <ele>191.4</ele>
        <time>2022-06-26T14:57:14Z</time>
      </trkpt>
      <trkpt lat="45.76197" lon="4.82627">
        <ele>191.2</ele>
        <time>2022-06-26T14:57:15Z</time>
      </trkpt>
      <trkpt lat="45.76195" lon="4.82631">
        <ele>190.8</ele>
        <time>2022-06-26T14:57:16Z</time>
      </trkpt>
      <trkpt lat="45.76193" lon="4.82636">
        <ele>190.4</ele>
        <time>2022-06-26T14:57:17Z</time>
      </trkpt>
      <trkpt lat="45.76191" lon="4.82641">
        <ele>190</ele>
        <time>2022-06-26T14:57:18Z</time>
      </trkpt>
      <trkpt lat="45.76189" lon="4.82646">
        <ele>189.8</ele>
        <time>2022-06-26T14:57:19Z</time>
      </trkpt>
      <trkpt lat="45.76188" lon="4.82651">
        <ele>189.4</ele>
        <time>2022-06-26T14:57:20Z</time>
      </trkpt>
      <trkpt lat="45.76187" lon="4.82656">
        <ele>189</ele>
        <time>2022-06-26T14:57:21Z</time>
      </trkpt>
      <trkpt lat="45.76186" lon="4.8266">
        <ele>188.6</ele>
        <time>2022-06-26T14:57:22Z</time>
      </trkpt>
      <trkpt lat="45.76186" lon="4.82664">
        <ele>188.2</ele>
        <time>2022-06-26T14:57:23Z</time>
      </trkpt>
      <trkpt lat="45.76186" lon="4.82667">
        <ele>188</ele>
        <time>2022-06-26T14:57:24Z</time>
      </trkpt>
      <trkpt lat="45.76185" lon="4.82669">
        <ele>187.8</ele>
        <time>2022-06-26T14:57:25Z</time>
      </trkpt>
      <trkpt lat="45.76183" lon="4.82671">
        <ele>187.6</ele>
        <time>2022-06-26T14:57:26Z</time>
      </trkpt>
      <trkpt lat="45.76182" lon="4.82673">
        <ele>187.6</ele>
        <time>2022-06-26T14:57:27Z</time>
      </trkpt>
      <trkpt lat="45.7618" lon="4.82675">
        <ele>187.2</ele>
        <time>2022-06-26T14:57:28Z</time>
      </trkpt>
      <trkpt lat="45.76179" lon="4.82677">
        <ele>187.2</ele>
        <time>2022-06-26T14:57:29Z</time>
      </trkpt>
      <trkpt lat="45.76177" lon="4.8268">
        <ele>187</ele>
        <time>2022-06-26T14:57:30Z</time>
      </trkpt>
      <trkpt lat="45.76175" lon="4.82683">
        <ele>187</ele>
        <time>2022-06-26T14:57:31Z</time>
      </trkpt>
      <trkpt lat="45.76174" lon="4.82687">
        <ele>186.6</ele>
        <time>2022-06-26T14:57:32Z</time>
      </trkpt>
      <trkpt lat="45.76172" lon="4.8269">
        <ele>186.4</ele>
        <time>2022-06-26T14:57:33Z</time>
      </trkpt>
      <trkpt lat="45.76172" lon="4.82693">
        <ele>186.4</ele>
        <time>2022-06-26T14:57:34Z</time>
      </trkpt>
      <trkpt lat="45.76171" lon="4.82695">
        <ele>186</ele>
        <time>2022-06-26T14:57:35Z</time>
      </trkpt>
      <trkpt lat="45.7617" lon="4.82697">
        <ele>186</ele>
        <time>2022-06-26T14:57:36Z</time>
      </trkpt>
      <trkpt lat="45.7617" lon="4.82699">
        <ele>186</ele>
        <time>2022-06-26T14:57:37Z</time>
      </trkpt>
      <trkpt lat="45.7617" lon="4.82701">
        <ele>185.8</ele>
        <time>2022-06-26T14:57:38Z</time>
      </trkpt>
      <trkpt lat="45.7617" lon="4.82704">
        <ele>185.8</ele>
        <time>2022-06-26T14:57:39Z</time>
      </trkpt>
      <trkpt lat="45.76169" lon="4.82706">
        <ele>185.8</ele>
        <time>2022-06-26T14:57:40Z</time>
      </trkpt>
      <trkpt lat="45.76168" lon="4.82708">
        <ele>185.6</ele>
        <time>2022-06-26T14:57:41Z</time>
      </trkpt>
      <trkpt lat="45.76167" lon="4.82711">
        <ele>185.6</ele>
        <time>2022-06-26T14:57:42Z</time>
      </trkpt>
      <trkpt lat="45.76166" lon="4.82712">
        <ele>185.6</ele>
        <time>2022-06-26T14:57:43Z</time>
      </trkpt>
      <trkpt lat="45.76165" lon="4.82714">
        <ele>185.2</ele>
        <time>2022-06-26T14:57:44Z</time>
      </trkpt>
      <trkpt lat="45.76163" lon="4.82721">
        <ele>185</ele>
        <time>2022-06-26T14:57:47Z</time>
      </trkpt>
      <trkpt lat="45.76161" lon="4.82724">
        <ele>185</ele>
        <time>2022-06-26T14:57:48Z</time>
      </trkpt>
      <trkpt lat="45.7616" lon="4.82727">
        <ele>185</ele>
        <time>2022-06-26T14:57:49Z</time>
      </trkpt>
      <trkpt lat="45.76159" lon="4.82731">
        <ele>185</ele>
        <time>2022-06-26T14:57:50Z</time>
      </trkpt>
      <trkpt lat="45.76157" lon="4.82734">
        <ele>184.8</ele>
        <time>2022-06-26T14:57:51Z</time>
      </trkpt>
      <trkpt lat="45.76157" lon="4.82738">
        <ele>184.8</ele>
        <time>2022-06-26T14:57:52Z</time>
      </trkpt>
      <trkpt lat="45.76157" lon="4.82743">
        <ele>184.8</ele>
        <time>2022-06-26T14:57:53Z</time>
      </trkpt>
      <trkpt lat="45.76157" lon="4.82749">
        <ele>184.6</ele>
        <time>2022-06-26T14:57:54Z</time>
      </trkpt>
      <trkpt lat="45.76157" lon="4.82754">
        <ele>184.6</ele>
        <time>2022-06-26T14:57:55Z</time>
      </trkpt>
      <trkpt lat="45.76156" lon="4.82758">
        <ele>184.6</ele>
        <time>2022-06-26T14:57:56Z</time>
      </trkpt>
      <trkpt lat="45.7616" lon="4.82765">
        <ele>184.4</ele>
        <time>2022-06-26T14:57:57Z</time>
      </trkpt>
      <trkpt lat="45.76159" lon="4.8277">
        <ele>184.4</ele>
        <time>2022-06-26T14:57:58Z</time>
      </trkpt>
      <trkpt lat="45.76158" lon="4.82774">
        <ele>184.4</ele>
        <time>2022-06-26T14:57:59Z</time>
      </trkpt>
      <trkpt lat="45.76158" lon="4.82779">
        <ele>184.4</ele>
        <time>2022-06-26T14:58:00Z</time>
      </trkpt>
      <trkpt lat="45.76156" lon="4.82783">
        <ele>184</ele>
        <time>2022-06-26T14:58:01Z</time>
      </trkpt>
      <trkpt lat="45.76155" lon="4.82787">
        <ele>184</ele>
        <time>2022-06-26T14:58:02Z</time>
      </trkpt>
      <trkpt lat="45.76154" lon="4.82791">
        <ele>183.8</ele>
        <time>2022-06-26T14:58:03Z</time>
      </trkpt>
      <trkpt lat="45.76153" lon="4.82796">
        <ele>183.8</ele>
        <time>2022-06-26T14:58:04Z</time>
      </trkpt>
      <trkpt lat="45.76152" lon="4.828">
        <ele>183.4</ele>
        <time>2022-06-26T14:58:05Z</time>
      </trkpt>
      <trkpt lat="45.76151" lon="4.82805">
        <ele>183.4</ele>
        <time>2022-06-26T14:58:06Z</time>
      </trkpt>
      <trkpt lat="45.76151" lon="4.8281">
        <ele>183.2</ele>
        <time>2022-06-26T14:58:07Z</time>
      </trkpt>
      <trkpt lat="45.7615" lon="4.82815">
        <ele>183.2</ele>
        <time>2022-06-26T14:58:08Z</time>
      </trkpt>
      <trkpt lat="45.76149" lon="4.82819">
        <ele>183.2</ele>
        <time>2022-06-26T14:58:09Z</time>
      </trkpt>
      <trkpt lat="45.76148" lon="4.82822">
        <ele>183.2</ele>
        <time>2022-06-26T14:58:10Z</time>
      </trkpt>
      <trkpt lat="45.76149" lon="4.82825">
        <ele>183.2</ele>
        <time>2022-06-26T14:58:11Z</time>
      </trkpt>
      <trkpt lat="45.76148" lon="4.82828">
        <ele>183.2</ele>
        <time>2022-06-26T14:58:12Z</time>
      </trkpt>
      <trkpt lat="45.76147" lon="4.82831">
        <ele>183.2</ele>
        <time>2022-06-26T14:58:13Z</time>
      </trkpt>
      <trkpt lat="45.76146" lon="4.82834">
        <ele>183.2</ele>
        <time>2022-06-26T14:58:14Z</time>
      </trkpt>
      <trkpt lat="45.76144" lon="4.82836">
        <ele>183.2</ele>
        <time>2022-06-26T14:58:15Z</time>
      </trkpt>
      <trkpt lat="45.76143" lon="4.82838">
        <ele>183.2</ele>
        <time>2022-06-26T14:58:16Z</time>
      </trkpt>
      <trkpt lat="45.76143" lon="4.8284">
        <ele>183.2</ele>
        <time>2022-06-26T14:58:17Z</time>
      </trkpt>
      <trkpt lat="45.76142" lon="4.82841">
        <ele>183.2</ele>
        <time>2022-06-26T14:58:18Z</time>
      </trkpt>
      <trkpt lat="45.76139" lon="4.82848">
        <ele>183.6</ele>
        <time>2022-06-26T14:58:30Z</time>
      </trkpt>
      <trkpt lat="45.76138" lon="4.8285">
        <ele>183.6</ele>
        <time>2022-06-26T14:58:31Z</time>
      </trkpt>
      <trkpt lat="45.76137" lon="4.82853">
        <ele>183.6</ele>
        <time>2022-06-26T14:58:32Z</time>
      </trkpt>
      <trkpt lat="45.76137" lon="4.82858">
        <ele>183.6</ele>
        <time>2022-06-26T14:58:33Z</time>
      </trkpt>
      <trkpt lat="45.76139" lon="4.82861">
        <ele>183.8</ele>
        <time>2022-06-26T14:58:34Z</time>
      </trkpt>
      <trkpt lat="45.76142" lon="4.82863">
        <ele>183.8</ele>
        <time>2022-06-26T14:58:35Z</time>
      </trkpt>
      <trkpt lat="45.76146" lon="4.82865">
        <ele>183.8</ele>
        <time>2022-06-26T14:58:36Z</time>
      </trkpt>
      <trkpt lat="45.7615" lon="4.82867">
        <ele>183.8</ele>
        <time>2022-06-26T14:58:37Z</time>
      </trkpt>
      <trkpt lat="45.76154" lon="4.82869">
        <ele>183.8</ele>
        <time>2022-06-26T14:58:38Z</time>
      </trkpt>
      <trkpt lat="45.76159" lon="4.82871">
        <ele>183.8</ele>
        <time>2022-06-26T14:58:39Z</time>
      </trkpt>
      <trkpt lat="45.76163" lon="4.82872">
        <ele>183.8</ele>
        <time>2022-06-26T14:58:40Z</time>
      </trkpt>
      <trkpt lat="45.76168" lon="4.82874">
        <ele>183.8</ele>
        <time>2022-06-26T14:58:41Z</time>
      </trkpt>
      <trkpt lat="45.76173" lon="4.82876">
        <ele>183.8</ele>
        <time>2022-06-26T14:58:42Z</time>
      </trkpt>
      <trkpt lat="45.76178" lon="4.82878">
        <ele>183.8</ele>
        <time>2022-06-26T14:58:43Z</time>
      </trkpt>
      <trkpt lat="45.76183" lon="4.82879">
        <ele>183.8</ele>
        <time>2022-06-26T14:58:44Z</time>
      </trkpt>
      <trkpt lat="45.76187" lon="4.82881">
        <ele>184</ele>
        <time>2022-06-26T14:58:45Z</time>
      </trkpt>
      <trkpt lat="45.76192" lon="4.82884">
        <ele>184</ele>
        <time>2022-06-26T14:58:46Z</time>
      </trkpt>
      <trkpt lat="45.76196" lon="4.82886">
        <ele>184</ele>
        <time>2022-06-26T14:58:47Z</time>
      </trkpt>
      <trkpt lat="45.76201" lon="4.82889">
        <ele>184</ele>
        <time>2022-06-26T14:58:48Z</time>
      </trkpt>
      <trkpt lat="45.76205" lon="4.82892">
        <ele>184</ele>
        <time>2022-06-26T14:58:49Z</time>
      </trkpt>
      <trkpt lat="45.76208" lon="4.82895">
        <ele>184.2</ele>
        <time>2022-06-26T14:58:50Z</time>
      </trkpt>
      <trkpt lat="45.76212" lon="4.82897">
        <ele>184.2</ele>
        <time>2022-06-26T14:58:51Z</time>
      </trkpt>
      <trkpt lat="45.76216" lon="4.829">
        <ele>184.2</ele>
        <time>2022-06-26T14:58:52Z</time>
      </trkpt>
      <trkpt lat="45.76219" lon="4.82902">
        <ele>184.2</ele>
        <time>2022-06-26T14:58:53Z</time>
      </trkpt>
      <trkpt lat="45.76223" lon="4.82905">
        <ele>184.2</ele>
        <time>2022-06-26T14:58:54Z</time>
      </trkpt>
      <trkpt lat="45.76227" lon="4.82907">
        <ele>184.4</ele>
        <time>2022-06-26T14:58:55Z</time>
      </trkpt>
      <trkpt lat="45.76231" lon="4.82909">
        <ele>184.4</ele>
        <time>2022-06-26T14:58:56Z</time>
      </trkpt>
      <trkpt lat="45.76234" lon="4.82912">
        <ele>184.4</ele>
        <time>2022-06-26T14:58:57Z</time>
      </trkpt>
      <trkpt lat="45.76238" lon="4.82914">
        <ele>184.6</ele>
        <time>2022-06-26T14:58:58Z</time>
      </trkpt>
      <trkpt lat="45.76242" lon="4.82916">
        <ele>184.6</ele>
        <time>2022-06-26T14:58:59Z</time>
      </trkpt>
      <trkpt lat="45.76246" lon="4.82918">
        <ele>184.6</ele>
        <time>2022-06-26T14:59:00Z</time>
      </trkpt>
      <trkpt lat="45.7625" lon="4.8292">
        <ele>184.6</ele>
        <time>2022-06-26T14:59:01Z</time>
      </trkpt>
      <trkpt lat="45.76254" lon="4.82922">
        <ele>184.6</ele>
        <time>2022-06-26T14:59:02Z</time>
      </trkpt>
      <trkpt lat="45.76257" lon="4.82923">
        <ele>184.6</ele>
        <time>2022-06-26T14:59:03Z</time>
      </trkpt>
      <trkpt lat="45.76261" lon="4.82924">
        <ele>184.6</ele>
        <time>2022-06-26T14:59:04Z</time>
      </trkpt>
      <trkpt lat="45.76265" lon="4.82926">
        <ele>184.6</ele>
        <time>2022-06-26T14:59:05Z</time>
      </trkpt>
      <trkpt lat="45.76268" lon="4.82927">
        <ele>185</ele>
        <time>2022-06-26T14:59:06Z</time>
      </trkpt>
      <trkpt lat="45.76272" lon="4.82928">
        <ele>185</ele>
        <time>2022-06-26T14:59:07Z</time>
      </trkpt>
      <trkpt lat="45.76276" lon="4.8293">
        <ele>185</ele>
        <time>2022-06-26T14:59:08Z</time>
      </trkpt>
      <trkpt lat="45.7628" lon="4.82931">
        <ele>185</ele>
        <time>2022-06-26T14:59:09Z</time>
      </trkpt>
      <trkpt lat="45.76283" lon="4.82932">
        <ele>185</ele>
        <time>2022-06-26T14:59:10Z</time>
      </trkpt>
      <trkpt lat="45.76287" lon="4.82933">
        <ele>185</ele>
        <time>2022-06-26T14:59:11Z</time>
      </trkpt>
      <trkpt lat="45.76291" lon="4.82934">
        <ele>185</ele>
        <time>2022-06-26T14:59:12Z</time>
      </trkpt>
      <trkpt lat="45.76295" lon="4.82935">
        <ele>185</ele>
        <time>2022-06-26T14:59:13Z</time>
      </trkpt>
      <trkpt lat="45.76299" lon="4.82936">
        <ele>185.2</ele>
        <time>2022-06-26T14:59:14Z</time>
      </trkpt>
      <trkpt lat="45.76303" lon="4.82936">
        <ele>185.2</ele>
        <time>2022-06-26T14:59:15Z</time>
      </trkpt>
      <trkpt lat="45.76308" lon="4.82938">
        <ele>185.2</ele>
        <time>2022-06-26T14:59:16Z</time>
      </trkpt>
      <trkpt lat="45.76312" lon="4.82939">
        <ele>185.2</ele>
        <time>2022-06-26T14:59:17Z</time>
      </trkpt>
      <trkpt lat="45.76316" lon="4.8294">
        <ele>185.2</ele>
        <time>2022-06-26T14:59:18Z</time>
      </trkpt>
      <trkpt lat="45.7632" lon="4.82941">
        <ele>185.2</ele>
        <time>2022-06-26T14:59:19Z</time>
      </trkpt>
      <trkpt lat="45.76324" lon="4.82943">
        <ele>185.2</ele>
        <time>2022-06-26T14:59:20Z</time>
      </trkpt>
      <trkpt lat="45.76326" lon="4.82946">
        <ele>185.4</ele>
        <time>2022-06-26T14:59:21Z</time>
      </trkpt>
      <trkpt lat="45.76328" lon="4.82952">
        <ele>185.4</ele>
        <time>2022-06-26T14:59:22Z</time>
      </trkpt>
      <trkpt lat="45.76328" lon="4.82957">
        <ele>185.6</ele>
        <time>2022-06-26T14:59:23Z</time>
      </trkpt>
      <trkpt lat="45.76329" lon="4.82963">
        <ele>185.6</ele>
        <time>2022-06-26T14:59:24Z</time>
      </trkpt>
      <trkpt lat="45.76329" lon="4.82969">
        <ele>186</ele>
        <time>2022-06-26T14:59:25Z</time>
      </trkpt>
      <trkpt lat="45.76329" lon="4.82975">
        <ele>186</ele>
        <time>2022-06-26T14:59:26Z</time>
      </trkpt>
      <trkpt lat="45.76329" lon="4.82981">
        <ele>186.2</ele>
        <time>2022-06-26T14:59:27Z</time>
      </trkpt>
      <trkpt lat="45.76328" lon="4.82987">
        <ele>186.6</ele>
        <time>2022-06-26T14:59:28Z</time>
      </trkpt>
      <trkpt lat="45.76327" lon="4.82993">
        <ele>186.6</ele>
        <time>2022-06-26T14:59:29Z</time>
      </trkpt>
      <trkpt lat="45.76327" lon="4.82998">
        <ele>187</ele>
        <time>2022-06-26T14:59:30Z</time>
      </trkpt>
      <trkpt lat="45.76326" lon="4.83003">
        <ele>187.2</ele>
        <time>2022-06-26T14:59:31Z</time>
      </trkpt>
      <trkpt lat="45.76326" lon="4.83009">
        <ele>187.4</ele>
        <time>2022-06-26T14:59:32Z</time>
      </trkpt>
      <trkpt lat="45.76325" lon="4.83014">
        <ele>187.6</ele>
        <time>2022-06-26T14:59:33Z</time>
      </trkpt>
      <trkpt lat="45.76325" lon="4.83019">
        <ele>187.8</ele>
        <time>2022-06-26T14:59:34Z</time>
      </trkpt>
      <trkpt lat="45.76325" lon="4.83025">
        <ele>187.8</ele>
        <time>2022-06-26T14:59:35Z</time>
      </trkpt>
      <trkpt lat="45.76325" lon="4.83031">
        <ele>188.2</ele>
        <time>2022-06-26T14:59:36Z</time>
      </trkpt>
      <trkpt lat="45.76324" lon="4.83036">
        <ele>188.2</ele>
        <time>2022-06-26T14:59:37Z</time>
      </trkpt>
      <trkpt lat="45.76324" lon="4.83042">
        <ele>188.4</ele>
        <time>2022-06-26T14:59:38Z</time>
      </trkpt>
      <trkpt lat="45.76324" lon="4.83048">
        <ele>188.4</ele>
        <time>2022-06-26T14:59:39Z</time>
      </trkpt>
      <trkpt lat="45.76324" lon="4.83053">
        <ele>188.4</ele>
        <time>2022-06-26T14:59:40Z</time>
      </trkpt>
      <trkpt lat="45.76324" lon="4.83059">
        <ele>188.4</ele>
        <time>2022-06-26T14:59:41Z</time>
      </trkpt>
      <trkpt lat="45.76324" lon="4.83065">
        <ele>188.4</ele>
        <time>2022-06-26T14:59:42Z</time>
      </trkpt>
      <trkpt lat="45.76323" lon="4.83071">
        <ele>188.4</ele>
        <time>2022-06-26T14:59:43Z</time>
      </trkpt>
      <trkpt lat="45.76323" lon="4.83077">
        <ele>188.4</ele>
        <time>2022-06-26T14:59:44Z</time>
      </trkpt>
      <trkpt lat="45.76323" lon="4.83084">
        <ele>188.4</ele>
        <time>2022-06-26T14:59:45Z</time>
      </trkpt>
      <trkpt lat="45.76323" lon="4.83091">
        <ele>188.2</ele>
        <time>2022-06-26T14:59:46Z</time>
      </trkpt>
      <trkpt lat="45.76323" lon="4.83098">
        <ele>187.8</ele>
        <time>2022-06-26T14:59:47Z</time>
      </trkpt>
      <trkpt lat="45.76323" lon="4.83105">
        <ele>187.8</ele>
        <time>2022-06-26T14:59:48Z</time>
      </trkpt>
      <trkpt lat="45.76322" lon="4.83112">
        <ele>187.6</ele>
        <time>2022-06-26T14:59:49Z</time>
      </trkpt>
      <trkpt lat="45.76322" lon="4.83119">
        <ele>187.2</ele>
        <time>2022-06-26T14:59:50Z</time>
      </trkpt>
      <trkpt lat="45.76322" lon="4.83126">
        <ele>187</ele>
        <time>2022-06-26T14:59:51Z</time>
      </trkpt>
      <trkpt lat="45.76322" lon="4.83133">
        <ele>186.6</ele>
        <time>2022-06-26T14:59:52Z</time>
      </trkpt>
      <trkpt lat="45.76322" lon="4.83139">
        <ele>186.4</ele>
        <time>2022-06-26T14:59:53Z</time>
      </trkpt>
      <trkpt lat="45.76322" lon="4.83144">
        <ele>186</ele>
        <time>2022-06-26T14:59:54Z</time>
      </trkpt>
      <trkpt lat="45.76322" lon="4.83149">
        <ele>185.6</ele>
        <time>2022-06-26T14:59:55Z</time>
      </trkpt>
      <trkpt lat="45.76322" lon="4.83154">
        <ele>185.6</ele>
        <time>2022-06-26T14:59:56Z</time>
      </trkpt>
      <trkpt lat="45.76322" lon="4.83158">
        <ele>185.4</ele>
        <time>2022-06-26T14:59:57Z</time>
      </trkpt>
      <trkpt lat="45.76322" lon="4.83163">
        <ele>185.4</ele>
        <time>2022-06-26T14:59:58Z</time>
      </trkpt>
      <trkpt lat="45.76322" lon="4.83169">
        <ele>185.4</ele>
        <time>2022-06-26T14:59:59Z</time>
      </trkpt>
      <trkpt lat="45.76322" lon="4.83175">
        <ele>185</ele>
        <time>2022-06-26T15:00:00Z</time>
      </trkpt>
      <trkpt lat="45.76323" lon="4.8318">
        <ele>184.6</ele>
        <time>2022-06-26T15:00:01Z</time>
      </trkpt>
      <trkpt lat="45.76323" lon="4.83186">
        <ele>184.6</ele>
        <time>2022-06-26T15:00:02Z</time>
      </trkpt>
      <trkpt lat="45.76324" lon="4.83193">
        <ele>184.2</ele>
        <time>2022-06-26T15:00:03Z</time>
      </trkpt>
      <trkpt lat="45.76324" lon="4.83201">
        <ele>184.2</ele>
        <time>2022-06-26T15:00:04Z</time>
      </trkpt>
      <trkpt lat="45.76325" lon="4.83209">
        <ele>183.8</ele>
        <time>2022-06-26T15:00:05Z</time>
      </trkpt>
      <trkpt lat="45.76325" lon="4.83217">
        <ele>183.6</ele>
        <time>2022-06-26T15:00:06Z</time>
      </trkpt>
      <trkpt lat="45.76325" lon="4.83225">
        <ele>183.6</ele>
        <time>2022-06-26T15:00:07Z</time>
      </trkpt>
      <trkpt lat="45.76325" lon="4.83233">
        <ele>183.6</ele>
        <time>2022-06-26T15:00:08Z</time>
      </trkpt>
      <trkpt lat="45.76325" lon="4.8324">
        <ele>183.6</ele>
        <time>2022-06-26T15:00:09Z</time>
      </trkpt>
      <trkpt lat="45.76325" lon="4.83247">
        <ele>183.6</ele>
        <time>2022-06-26T15:00:10Z</time>
      </trkpt>
      <trkpt lat="45.76325" lon="4.83252">
        <ele>183.6</ele>
        <time>2022-06-26T15:00:11Z</time>
      </trkpt>
      <trkpt lat="45.76325" lon="4.83257">
        <ele>183.6</ele>
        <time>2022-06-26T15:00:12Z</time>
      </trkpt>
      <trkpt lat="45.76327" lon="4.83262">
        <ele>183.6</ele>
        <time>2022-06-26T15:00:13Z</time>
      </trkpt>
      <trkpt lat="45.76327" lon="4.83268">
        <ele>183.6</ele>
        <time>2022-06-26T15:00:14Z</time>
      </trkpt>
      <trkpt lat="45.76328" lon="4.83275">
        <ele>183.6</ele>
        <time>2022-06-26T15:00:15Z</time>
      </trkpt>
      <trkpt lat="45.76328" lon="4.83282">
        <ele>183.6</ele>
        <time>2022-06-26T15:00:16Z</time>
      </trkpt>
      <trkpt lat="45.76328" lon="4.83289">
        <ele>183.6</ele>
        <time>2022-06-26T15:00:17Z</time>
      </trkpt>
      <trkpt lat="45.76329" lon="4.83295">
        <ele>183.6</ele>
        <time>2022-06-26T15:00:18Z</time>
      </trkpt>
      <trkpt lat="45.76329" lon="4.833">
        <ele>183.6</ele>
        <time>2022-06-26T15:00:19Z</time>
      </trkpt>
      <trkpt lat="45.76329" lon="4.83305">
        <ele>183.6</ele>
        <time>2022-06-26T15:00:20Z</time>
      </trkpt>
      <trkpt lat="45.76329" lon="4.83308">
        <ele>183.6</ele>
        <time>2022-06-26T15:00:21Z</time>
      </trkpt>
      <trkpt lat="45.76329" lon="4.83311">
        <ele>183.6</ele>
        <time>2022-06-26T15:00:22Z</time>
      </trkpt>
      <trkpt lat="45.76328" lon="4.83312">
        <ele>183.6</ele>
        <time>2022-06-26T15:00:23Z</time>
      </trkpt>
      <trkpt lat="45.7633" lon="4.83314">
        <ele>183.4</ele>
        <time>2022-06-26T15:01:17Z</time>
      </trkpt>
      <trkpt lat="45.7633" lon="4.83317">
        <ele>183.4</ele>
        <time>2022-06-26T15:01:18Z</time>
      </trkpt>
      <trkpt lat="45.7633" lon="4.8332">
        <ele>183.4</ele>
        <time>2022-06-26T15:01:19Z</time>
      </trkpt>
      <trkpt lat="45.7633" lon="4.83323">
        <ele>183.4</ele>
        <time>2022-06-26T15:01:20Z</time>
      </trkpt>
      <trkpt lat="45.76329" lon="4.83326">
        <ele>183.4</ele>
        <time>2022-06-26T15:01:21Z</time>
      </trkpt>
      <trkpt lat="45.76329" lon="4.83331">
        <ele>183.4</ele>
        <time>2022-06-26T15:01:22Z</time>
      </trkpt>
      <trkpt lat="45.7633" lon="4.83336">
        <ele>183.4</ele>
        <time>2022-06-26T15:01:23Z</time>
      </trkpt>
      <trkpt lat="45.7633" lon="4.83342">
        <ele>183.6</ele>
        <time>2022-06-26T15:01:24Z</time>
      </trkpt>
      <trkpt lat="45.7633" lon="4.83347">
        <ele>183.6</ele>
        <time>2022-06-26T15:01:25Z</time>
      </trkpt>
      <trkpt lat="45.76331" lon="4.83352">
        <ele>183.6</ele>
        <time>2022-06-26T15:01:26Z</time>
      </trkpt>
      <trkpt lat="45.76331" lon="4.83357">
        <ele>183.6</ele>
        <time>2022-06-26T15:01:27Z</time>
      </trkpt>
      <trkpt lat="45.76331" lon="4.83362">
        <ele>183.6</ele>
        <time>2022-06-26T15:01:28Z</time>
      </trkpt>
      <trkpt lat="45.76331" lon="4.83368">
        <ele>183.6</ele>
        <time>2022-06-26T15:01:29Z</time>
      </trkpt>
      <trkpt lat="45.76332" lon="4.83374">
        <ele>183.6</ele>
        <time>2022-06-26T15:01:30Z</time>
      </trkpt>
      <trkpt lat="45.76332" lon="4.8338">
        <ele>183.8</ele>
        <time>2022-06-26T15:01:31Z</time>
      </trkpt>
      <trkpt lat="45.76333" lon="4.83387">
        <ele>183.8</ele>
        <time>2022-06-26T15:01:32Z</time>
      </trkpt>
      <trkpt lat="45.76333" lon="4.83393">
        <ele>183.8</ele>
        <time>2022-06-26T15:01:33Z</time>
      </trkpt>
      <trkpt lat="45.76333" lon="4.834">
        <ele>183.8</ele>
        <time>2022-06-26T15:01:34Z</time>
      </trkpt>
      <trkpt lat="45.76333" lon="4.83407">
        <ele>183.8</ele>
        <time>2022-06-26T15:01:35Z</time>
      </trkpt>
      <trkpt lat="45.76333" lon="4.83413">
        <ele>184.2</ele>
        <time>2022-06-26T15:01:36Z</time>
      </trkpt>
      <trkpt lat="45.76333" lon="4.83419">
        <ele>184.2</ele>
        <time>2022-06-26T15:01:37Z</time>
      </trkpt>
      <trkpt lat="45.76333" lon="4.83424">
        <ele>184.4</ele>
        <time>2022-06-26T15:01:38Z</time>
      </trkpt>
      <trkpt lat="45.76333" lon="4.8343">
        <ele>184.4</ele>
        <time>2022-06-26T15:01:39Z</time>
      </trkpt>
      <trkpt lat="45.76334" lon="4.83435">
        <ele>184.4</ele>
        <time>2022-06-26T15:01:40Z</time>
      </trkpt>
      <trkpt lat="45.76335" lon="4.83442">
        <ele>184.4</ele>
        <time>2022-06-26T15:01:41Z</time>
      </trkpt>
      <trkpt lat="45.76335" lon="4.8345">
        <ele>184.4</ele>
        <time>2022-06-26T15:01:42Z</time>
      </trkpt>
      <trkpt lat="45.76336" lon="4.83457">
        <ele>184.4</ele>
        <time>2022-06-26T15:01:43Z</time>
      </trkpt>
      <trkpt lat="45.76337" lon="4.83464">
        <ele>184.4</ele>
        <time>2022-06-26T15:01:44Z</time>
      </trkpt>
      <trkpt lat="45.76337" lon="4.83473">
        <ele>184.4</ele>
        <time>2022-06-26T15:01:45Z</time>
      </trkpt>
      <trkpt lat="45.76338" lon="4.83481">
        <ele>184.4</ele>
        <time>2022-06-26T15:01:46Z</time>
      </trkpt>
      <trkpt lat="45.76337" lon="4.83489">
        <ele>184.4</ele>
        <time>2022-06-26T15:01:47Z</time>
      </trkpt>
      <trkpt lat="45.76338" lon="4.83497">
        <ele>184.4</ele>
        <time>2022-06-26T15:01:48Z</time>
      </trkpt>
      <trkpt lat="45.76339" lon="4.83504">
        <ele>184.4</ele>
        <time>2022-06-26T15:01:49Z</time>
      </trkpt>
      <trkpt lat="45.76339" lon="4.83512">
        <ele>184.4</ele>
        <time>2022-06-26T15:01:50Z</time>
      </trkpt>
      <trkpt lat="45.7634" lon="4.8352">
        <ele>184.4</ele>
        <time>2022-06-26T15:01:51Z</time>
      </trkpt>
      <trkpt lat="45.7634" lon="4.83528">
        <ele>184.4</ele>
        <time>2022-06-26T15:01:52Z</time>
      </trkpt>
      <trkpt lat="45.76342" lon="4.83537">
        <ele>184.4</ele>
        <time>2022-06-26T15:01:53Z</time>
      </trkpt>
      <trkpt lat="45.76343" lon="4.83545">
        <ele>184.4</ele>
        <time>2022-06-26T15:01:54Z</time>
      </trkpt>
      <trkpt lat="45.76344" lon="4.83553">
        <ele>184.4</ele>
        <time>2022-06-26T15:01:55Z</time>
      </trkpt>
      <trkpt lat="45.76344" lon="4.83561">
        <ele>184.4</ele>
        <time>2022-06-26T15:01:56Z</time>
      </trkpt>
      <trkpt lat="45.76345" lon="4.83568">
        <ele>184.4</ele>
        <time>2022-06-26T15:01:57Z</time>
      </trkpt>
      <trkpt lat="45.76345" lon="4.83576">
        <ele>184.4</ele>
        <time>2022-06-26T15:01:58Z</time>
      </trkpt>
      <trkpt lat="45.76346" lon="4.83583">
        <ele>184.4</ele>
        <time>2022-06-26T15:01:59Z</time>
      </trkpt>
      <trkpt lat="45.76347" lon="4.8359">
        <ele>184.4</ele>
        <time>2022-06-26T15:02:00Z</time>
      </trkpt>
      <trkpt lat="45.76347" lon="4.83597">
        <ele>184.4</ele>
        <time>2022-06-26T15:02:01Z</time>
      </trkpt>
      <trkpt lat="45.76347" lon="4.83604">
        <ele>184.4</ele>
        <time>2022-06-26T15:02:02Z</time>
      </trkpt>
      <trkpt lat="45.76348" lon="4.8361">
        <ele>184.8</ele>
        <time>2022-06-26T15:02:03Z</time>
      </trkpt>
      <trkpt lat="45.76349" lon="4.83617">
        <ele>184.8</ele>
        <time>2022-06-26T15:02:04Z</time>
      </trkpt>
      <trkpt lat="45.7635" lon="4.83625">
        <ele>184.8</ele>
        <time>2022-06-26T15:02:05Z</time>
      </trkpt>
      <trkpt lat="45.7635" lon="4.83633">
        <ele>184.8</ele>
        <time>2022-06-26T15:02:06Z</time>
      </trkpt>
      <trkpt lat="45.7635" lon="4.83641">
        <ele>184.8</ele>
        <time>2022-06-26T15:02:07Z</time>
      </trkpt>
      <trkpt lat="45.76351" lon="4.83649">
        <ele>184.8</ele>
        <time>2022-06-26T15:02:08Z</time>
      </trkpt>
      <trkpt lat="45.76351" lon="4.83656">
        <ele>184.8</ele>
        <time>2022-06-26T15:02:09Z</time>
      </trkpt>
      <trkpt lat="45.76351" lon="4.83664">
        <ele>184.8</ele>
        <time>2022-06-26T15:02:10Z</time>
      </trkpt>
      <trkpt lat="45.76352" lon="4.83671">
        <ele>184.8</ele>
        <time>2022-06-26T15:02:11Z</time>
      </trkpt>
      <trkpt lat="45.76352" lon="4.83679">
        <ele>184.8</ele>
        <time>2022-06-26T15:02:12Z</time>
      </trkpt>
      <trkpt lat="45.76352" lon="4.83687">
        <ele>184.8</ele>
        <time>2022-06-26T15:02:13Z</time>
      </trkpt>
      <trkpt lat="45.76351" lon="4.83694">
        <ele>184.8</ele>
        <time>2022-06-26T15:02:14Z</time>
      </trkpt>
      <trkpt lat="45.7635" lon="4.83701">
        <ele>184.8</ele>
        <time>2022-06-26T15:02:15Z</time>
      </trkpt>
      <trkpt lat="45.7635" lon="4.83709">
        <ele>184.4</ele>
        <time>2022-06-26T15:02:16Z</time>
      </trkpt>
      <trkpt lat="45.7635" lon="4.83716">
        <ele>184.4</ele>
        <time>2022-06-26T15:02:17Z</time>
      </trkpt>
      <trkpt lat="45.7635" lon="4.83723">
        <ele>184.4</ele>
        <time>2022-06-26T15:02:18Z</time>
      </trkpt>
      <trkpt lat="45.76351" lon="4.8373">
        <ele>184.4</ele>
        <time>2022-06-26T15:02:19Z</time>
      </trkpt>
      <trkpt lat="45.76351" lon="4.83737">
        <ele>184.4</ele>
        <time>2022-06-26T15:02:20Z</time>
      </trkpt>
      <trkpt lat="45.76351" lon="4.83744">
        <ele>184.4</ele>
        <time>2022-06-26T15:02:21Z</time>
      </trkpt>
      <trkpt lat="45.76351" lon="4.83751">
        <ele>184.4</ele>
        <time>2022-06-26T15:02:22Z</time>
      </trkpt>
      <trkpt lat="45.76351" lon="4.83758">
        <ele>184.4</ele>
        <time>2022-06-26T15:02:23Z</time>
      </trkpt>
      <trkpt lat="45.76351" lon="4.83764">
        <ele>184.8</ele>
        <time>2022-06-26T15:02:24Z</time>
      </trkpt>
      <trkpt lat="45.76352" lon="4.8377">
        <ele>184.8</ele>
        <time>2022-06-26T15:02:25Z</time>
      </trkpt>
      <trkpt lat="45.76352" lon="4.83777">
        <ele>184.8</ele>
        <time>2022-06-26T15:02:26Z</time>
      </trkpt>
      <trkpt lat="45.76352" lon="4.83783">
        <ele>185</ele>
        <time>2022-06-26T15:02:27Z</time>
      </trkpt>
      <trkpt lat="45.76352" lon="4.83791">
        <ele>185</ele>
        <time>2022-06-26T15:02:28Z</time>
      </trkpt>
      <trkpt lat="45.76352" lon="4.83798">
        <ele>185.4</ele>
        <time>2022-06-26T15:02:29Z</time>
      </trkpt>
      <trkpt lat="45.76352" lon="4.83806">
        <ele>185.4</ele>
        <time>2022-06-26T15:02:30Z</time>
      </trkpt>
      <trkpt lat="45.76352" lon="4.83813">
        <ele>185.6</ele>
        <time>2022-06-26T15:02:31Z</time>
      </trkpt>
      <trkpt lat="45.76351" lon="4.8382">
        <ele>185.6</ele>
        <time>2022-06-26T15:02:32Z</time>
      </trkpt>
      <trkpt lat="45.76351" lon="4.83828">
        <ele>186</ele>
        <time>2022-06-26T15:02:33Z</time>
      </trkpt>
      <trkpt lat="45.76351" lon="4.83835">
        <ele>186</ele>
        <time>2022-06-26T15:02:34Z</time>
      </trkpt>
      <trkpt lat="45.76351" lon="4.83843">
        <ele>186.2</ele>
        <time>2022-06-26T15:02:35Z</time>
      </trkpt>
      <trkpt lat="45.76351" lon="4.8385">
        <ele>186.2</ele>
        <time>2022-06-26T15:02:36Z</time>
      </trkpt>
      <trkpt lat="45.76351" lon="4.83857">
        <ele>186.4</ele>
        <time>2022-06-26T15:02:37Z</time>
      </trkpt>
      <trkpt lat="45.76352" lon="4.83864">
        <ele>186.4</ele>
        <time>2022-06-26T15:02:38Z</time>
      </trkpt>
      <trkpt lat="45.76352" lon="4.83871">
        <ele>186.4</ele>
        <time>2022-06-26T15:02:39Z</time>
      </trkpt>
      <trkpt lat="45.76352" lon="4.83877">
        <ele>186.8</ele>
        <time>2022-06-26T15:02:40Z</time>
      </trkpt>
      <trkpt lat="45.76352" lon="4.83884">
        <ele>186.8</ele>
        <time>2022-06-26T15:02:41Z</time>
      </trkpt>
      <trkpt lat="45.76351" lon="4.8389">
        <ele>186.8</ele>
        <time>2022-06-26T15:02:42Z</time>
      </trkpt>
      <trkpt lat="45.76351" lon="4.83897">
        <ele>186.8</ele>
        <time>2022-06-26T15:02:43Z</time>
      </trkpt>
      <trkpt lat="45.76351" lon="4.83903">
        <ele>186.8</ele>
        <time>2022-06-26T15:02:44Z</time>
      </trkpt>
      <trkpt lat="45.76351" lon="4.83909">
        <ele>187</ele>
        <time>2022-06-26T15:02:45Z</time>
      </trkpt>
      <trkpt lat="45.76351" lon="4.83916">
        <ele>187</ele>
        <time>2022-06-26T15:02:46Z</time>
      </trkpt>
      <trkpt lat="45.76351" lon="4.83922">
        <ele>187</ele>
        <time>2022-06-26T15:02:47Z</time>
      </trkpt>
      <trkpt lat="45.76351" lon="4.83929">
        <ele>187.2</ele>
        <time>2022-06-26T15:02:48Z</time>
      </trkpt>
      <trkpt lat="45.76351" lon="4.83935">
        <ele>187.2</ele>
        <time>2022-06-26T15:02:49Z</time>
      </trkpt>
      <trkpt lat="45.76352" lon="4.83941">
        <ele>187.2</ele>
        <time>2022-06-26T15:02:50Z</time>
      </trkpt>
      <trkpt lat="45.76352" lon="4.83948">
        <ele>187.2</ele>
        <time>2022-06-26T15:02:51Z</time>
      </trkpt>
      <trkpt lat="45.76352" lon="4.83954">
        <ele>187.2</ele>
        <time>2022-06-26T15:02:52Z</time>
      </trkpt>
      <trkpt lat="45.76353" lon="4.8396">
        <ele>187.2</ele>
        <time>2022-06-26T15:02:53Z</time>
      </trkpt>
      <trkpt lat="45.76353" lon="4.83967">
        <ele>187.2</ele>
        <time>2022-06-26T15:02:54Z</time>
      </trkpt>
      <trkpt lat="45.76353" lon="4.83973">
        <ele>187.2</ele>
        <time>2022-06-26T15:02:55Z</time>
      </trkpt>
      <trkpt lat="45.76353" lon="4.8398">
        <ele>187.2</ele>
        <time>2022-06-26T15:02:56Z</time>
      </trkpt>
      <trkpt lat="45.76353" lon="4.83987">
        <ele>187.2</ele>
        <time>2022-06-26T15:02:57Z</time>
      </trkpt>
      <trkpt lat="45.76353" lon="4.83993">
        <ele>187.4</ele>
        <time>2022-06-26T15:02:58Z</time>
      </trkpt>
      <trkpt lat="45.76353" lon="4.84">
        <ele>187.4</ele>
        <time>2022-06-26T15:02:59Z</time>
      </trkpt>
      <trkpt lat="45.76353" lon="4.84007">
        <ele>187.4</ele>
        <time>2022-06-26T15:03:00Z</time>
      </trkpt>
      <trkpt lat="45.76353" lon="4.84014">
        <ele>187.4</ele>
        <time>2022-06-26T15:03:01Z</time>
      </trkpt>
      <trkpt lat="45.76353" lon="4.84021">
        <ele>187.4</ele>
        <time>2022-06-26T15:03:02Z</time>
      </trkpt>
      <trkpt lat="45.76353" lon="4.84028">
        <ele>187.8</ele>
        <time>2022-06-26T15:03:03Z</time>
      </trkpt>
      <trkpt lat="45.76353" lon="4.84035">
        <ele>187.8</ele>
        <time>2022-06-26T15:03:04Z</time>
      </trkpt>
      <trkpt lat="45.76353" lon="4.84042">
        <ele>187.8</ele>
        <time>2022-06-26T15:03:05Z</time>
      </trkpt>
      <trkpt lat="45.76353" lon="4.84049">
        <ele>187.8</ele>
        <time>2022-06-26T15:03:06Z</time>
      </trkpt>
      <trkpt lat="45.76354" lon="4.84056">
        <ele>187.8</ele>
        <time>2022-06-26T15:03:07Z</time>
      </trkpt>
      <trkpt lat="45.76354" lon="4.84062">
        <ele>187.8</ele>
        <time>2022-06-26T15:03:08Z</time>
      </trkpt>
      <trkpt lat="45.76354" lon="4.84069">
        <ele>187.4</ele>
        <time>2022-06-26T15:03:09Z</time>
      </trkpt>
      <trkpt lat="45.76354" lon="4.84075">
        <ele>187.4</ele>
        <time>2022-06-26T15:03:10Z</time>
      </trkpt>
      <trkpt lat="45.76354" lon="4.84082">
        <ele>187.4</ele>
        <time>2022-06-26T15:03:11Z</time>
      </trkpt>
      <trkpt lat="45.76354" lon="4.84088">
        <ele>187.4</ele>
        <time>2022-06-26T15:03:12Z</time>
      </trkpt>
      <trkpt lat="45.76354" lon="4.84094">
        <ele>187.4</ele>
        <time>2022-06-26T15:03:13Z</time>
      </trkpt>
      <trkpt lat="45.76354" lon="4.841">
        <ele>187.4</ele>
        <time>2022-06-26T15:03:14Z</time>
      </trkpt>
      <trkpt lat="45.76353" lon="4.84106">
        <ele>187.2</ele>
        <time>2022-06-26T15:03:15Z</time>
      </trkpt>
      <trkpt lat="45.76353" lon="4.84111">
        <ele>187.2</ele>
        <time>2022-06-26T15:03:16Z</time>
      </trkpt>
      <trkpt lat="45.76352" lon="4.84115">
        <ele>187.2</ele>
        <time>2022-06-26T15:03:17Z</time>
      </trkpt>
      <trkpt lat="45.76351" lon="4.84119">
        <ele>187</ele>
        <time>2022-06-26T15:03:18Z</time>
      </trkpt>
      <trkpt lat="45.7635" lon="4.84122">
        <ele>187</ele>
        <time>2022-06-26T15:03:19Z</time>
      </trkpt>
      <trkpt lat="45.76349" lon="4.84126">
        <ele>187</ele>
        <time>2022-06-26T15:03:20Z</time>
      </trkpt>
      <trkpt lat="45.76348" lon="4.84129">
        <ele>187</ele>
        <time>2022-06-26T15:03:21Z</time>
      </trkpt>
      <trkpt lat="45.76346" lon="4.84132">
        <ele>187</ele>
        <time>2022-06-26T15:03:22Z</time>
      </trkpt>
      <trkpt lat="45.76344" lon="4.84134">
        <ele>186.8</ele>
        <time>2022-06-26T15:03:23Z</time>
      </trkpt>
      <trkpt lat="45.7634" lon="4.84133">
        <ele>186.8</ele>
        <time>2022-06-26T15:03:24Z</time>
      </trkpt>
      <trkpt lat="45.76337" lon="4.84133">
        <ele>186.8</ele>
        <time>2022-06-26T15:03:25Z</time>
      </trkpt>
      <trkpt lat="45.76333" lon="4.84132">
        <ele>186.4</ele>
        <time>2022-06-26T15:03:26Z</time>
      </trkpt>
      <trkpt lat="45.76328" lon="4.84131">
        <ele>186.4</ele>
        <time>2022-06-26T15:03:27Z</time>
      </trkpt>
      <trkpt lat="45.76324" lon="4.84131">
        <ele>186.4</ele>
        <time>2022-06-26T15:03:28Z</time>
      </trkpt>
      <trkpt lat="45.76319" lon="4.84131">
        <ele>186.4</ele>
        <time>2022-06-26T15:03:29Z</time>
      </trkpt>
      <trkpt lat="45.76314" lon="4.8413">
        <ele>186.4</ele>
        <time>2022-06-26T15:03:30Z</time>
      </trkpt>
      <trkpt lat="45.76309" lon="4.8413">
        <ele>186.4</ele>
        <time>2022-06-26T15:03:31Z</time>
      </trkpt>
      <trkpt lat="45.76304" lon="4.84129">
        <ele>186.2</ele>
        <time>2022-06-26T15:03:32Z</time>
      </trkpt>
      <trkpt lat="45.763" lon="4.84129">
        <ele>186.2</ele>
        <time>2022-06-26T15:03:33Z</time>
      </trkpt>
      <trkpt lat="45.76295" lon="4.84128">
        <ele>186.2</ele>
        <time>2022-06-26T15:03:34Z</time>
      </trkpt>
      <trkpt lat="45.7629" lon="4.84128">
        <ele>186.2</ele>
        <time>2022-06-26T15:03:35Z</time>
      </trkpt>
      <trkpt lat="45.76284" lon="4.84127">
        <ele>186.2</ele>
        <time>2022-06-26T15:03:36Z</time>
      </trkpt>
      <trkpt lat="45.76279" lon="4.84127">
        <ele>186.2</ele>
        <time>2022-06-26T15:03:37Z</time>
      </trkpt>
      <trkpt lat="45.76274" lon="4.84126">
        <ele>186.2</ele>
        <time>2022-06-26T15:03:38Z</time>
      </trkpt>
      <trkpt lat="45.76268" lon="4.84125">
        <ele>186.2</ele>
        <time>2022-06-26T15:03:39Z</time>
      </trkpt>
      <trkpt lat="45.76263" lon="4.84124">
        <ele>186.2</ele>
        <time>2022-06-26T15:03:40Z</time>
      </trkpt>
      <trkpt lat="45.76258" lon="4.84124">
        <ele>186</ele>
        <time>2022-06-26T15:03:41Z</time>
      </trkpt>
      <trkpt lat="45.76253" lon="4.84123">
        <ele>186</ele>
        <time>2022-06-26T15:03:42Z</time>
      </trkpt>
      <trkpt lat="45.76248" lon="4.84123">
        <ele>186</ele>
        <time>2022-06-26T15:03:43Z</time>
      </trkpt>
      <trkpt lat="45.76242" lon="4.84122">
        <ele>186</ele>
        <time>2022-06-26T15:03:44Z</time>
      </trkpt>
      <trkpt lat="45.76237" lon="4.84121">
        <ele>186</ele>
        <time>2022-06-26T15:03:45Z</time>
      </trkpt>
      <trkpt lat="45.76232" lon="4.8412">
        <ele>186</ele>
        <time>2022-06-26T15:03:46Z</time>
      </trkpt>
      <trkpt lat="45.76226" lon="4.84119">
        <ele>186</ele>
        <time>2022-06-26T15:03:47Z</time>
      </trkpt>
      <trkpt lat="45.76221" lon="4.84118">
        <ele>186</ele>
        <time>2022-06-26T15:03:48Z</time>
      </trkpt>
      <trkpt lat="45.76215" lon="4.84118">
        <ele>186</ele>
        <time>2022-06-26T15:03:49Z</time>
      </trkpt>
      <trkpt lat="45.7621" lon="4.84117">
        <ele>186</ele>
        <time>2022-06-26T15:03:50Z</time>
      </trkpt>
      <trkpt lat="45.76204" lon="4.84116">
        <ele>185.8</ele>
        <time>2022-06-26T15:03:51Z</time>
      </trkpt>
      <trkpt lat="45.76199" lon="4.84116">
        <ele>185.8</ele>
        <time>2022-06-26T15:03:52Z</time>
      </trkpt>
      <trkpt lat="45.76195" lon="4.84116">
        <ele>185.8</ele>
        <time>2022-06-26T15:03:53Z</time>
      </trkpt>
      <trkpt lat="45.7619" lon="4.84116">
        <ele>185.8</ele>
        <time>2022-06-26T15:03:54Z</time>
      </trkpt>
      <trkpt lat="45.76186" lon="4.84116">
        <ele>185.8</ele>
        <time>2022-06-26T15:03:55Z</time>
      </trkpt>
      <trkpt lat="45.76181" lon="4.84116">
        <ele>185.8</ele>
        <time>2022-06-26T15:03:56Z</time>
      </trkpt>
      <trkpt lat="45.76177" lon="4.84116">
        <ele>185.8</ele>
        <time>2022-06-26T15:03:57Z</time>
      </trkpt>
      <trkpt lat="45.76172" lon="4.84116">
        <ele>185.8</ele>
        <time>2022-06-26T15:03:58Z</time>
      </trkpt>
      <trkpt lat="45.76168" lon="4.84117">
        <ele>185.8</ele>
        <time>2022-06-26T15:03:59Z</time>
      </trkpt>
      <trkpt lat="45.76164" lon="4.84116">
        <ele>185.8</ele>
        <time>2022-06-26T15:04:00Z</time>
      </trkpt>
      <trkpt lat="45.76159" lon="4.84116">
        <ele>185.8</ele>
        <time>2022-06-26T15:04:01Z</time>
      </trkpt>
      <trkpt lat="45.76155" lon="4.84116">
        <ele>185.8</ele>
        <time>2022-06-26T15:04:02Z</time>
      </trkpt>
      <trkpt lat="45.76151" lon="4.84116">
        <ele>185.8</ele>
        <time>2022-06-26T15:04:03Z</time>
      </trkpt>
      <trkpt lat="45.76147" lon="4.84116">
        <ele>185.8</ele>
        <time>2022-06-26T15:04:04Z</time>
      </trkpt>
      <trkpt lat="45.76144" lon="4.84116">
        <ele>185.8</ele>
        <time>2022-06-26T15:04:05Z</time>
      </trkpt>
      <trkpt lat="45.7614" lon="4.84115">
        <ele>185.8</ele>
        <time>2022-06-26T15:04:06Z</time>
      </trkpt>
      <trkpt lat="45.76138" lon="4.84115">
        <ele>185.8</ele>
        <time>2022-06-26T15:04:07Z</time>
      </trkpt>
      <trkpt lat="45.76136" lon="4.84117">
        <ele>185.8</ele>
        <time>2022-06-26T15:04:08Z</time>
      </trkpt>
      <trkpt lat="45.76136" lon="4.84118">
        <ele>186</ele>
        <time>2022-06-26T15:04:09Z</time>
      </trkpt>
      <trkpt lat="45.76136" lon="4.84119">
        <ele>186</ele>
        <time>2022-06-26T15:04:10Z</time>
      </trkpt>
      <trkpt lat="45.76134" lon="4.84125">
        <ele>186</ele>
        <time>2022-06-26T15:05:07Z</time>
      </trkpt>
      <trkpt lat="45.76135" lon="4.84129">
        <ele>186</ele>
        <time>2022-06-26T15:05:08Z</time>
      </trkpt>
      <trkpt lat="45.76135" lon="4.84133">
        <ele>186</ele>
        <time>2022-06-26T15:05:09Z</time>
      </trkpt>
      <trkpt lat="45.76135" lon="4.84138">
        <ele>186</ele>
        <time>2022-06-26T15:05:10Z</time>
      </trkpt>
      <trkpt lat="45.76135" lon="4.84144">
        <ele>186</ele>
        <time>2022-06-26T15:05:11Z</time>
      </trkpt>
      <trkpt lat="45.76135" lon="4.8415">
        <ele>186</ele>
        <time>2022-06-26T15:05:12Z</time>
      </trkpt>
      <trkpt lat="45.76136" lon="4.84155">
        <ele>186</ele>
        <time>2022-06-26T15:05:13Z</time>
      </trkpt>
      <trkpt lat="45.76136" lon="4.84161">
        <ele>186</ele>
        <time>2022-06-26T15:05:14Z</time>
      </trkpt>
      <trkpt lat="45.76136" lon="4.84168">
        <ele>186</ele>
        <time>2022-06-26T15:05:15Z</time>
      </trkpt>
      <trkpt lat="45.76137" lon="4.84174">
        <ele>185.8</ele>
        <time>2022-06-26T15:05:16Z</time>
      </trkpt>
      <trkpt lat="45.76137" lon="4.84179">
        <ele>185.8</ele>
        <time>2022-06-26T15:05:17Z</time>
      </trkpt>
      <trkpt lat="45.76137" lon="4.84184">
        <ele>185.8</ele>
        <time>2022-06-26T15:05:18Z</time>
      </trkpt>
      <trkpt lat="45.76137" lon="4.84187">
        <ele>185.4</ele>
        <time>2022-06-26T15:05:19Z</time>
      </trkpt>
      <trkpt lat="45.76137" lon="4.84189">
        <ele>185.4</ele>
        <time>2022-06-26T15:05:20Z</time>
      </trkpt>
      <trkpt lat="45.76137" lon="4.8419">
        <ele>185.4</ele>
        <time>2022-06-26T15:05:21Z</time>
      </trkpt>
      <trkpt lat="45.76137" lon="4.84191">
        <ele>185.2</ele>
        <time>2022-06-26T15:05:22Z</time>
      </trkpt>
      <trkpt lat="45.76137" lon="4.84196">
        <ele>185.2</ele>
        <time>2022-06-26T15:05:49Z</time>
      </trkpt>
      <trkpt lat="45.76137" lon="4.84199">
        <ele>185.2</ele>
        <time>2022-06-26T15:05:50Z</time>
      </trkpt>
      <trkpt lat="45.76137" lon="4.84203">
        <ele>185.2</ele>
        <time>2022-06-26T15:05:51Z</time>
      </trkpt>
      <trkpt lat="45.76138" lon="4.84207">
        <ele>185.2</ele>
        <time>2022-06-26T15:05:52Z</time>
      </trkpt>
      <trkpt lat="45.76138" lon="4.84212">
        <ele>185.2</ele>
        <time>2022-06-26T15:05:53Z</time>
      </trkpt>
      <trkpt lat="45.76138" lon="4.84217">
        <ele>185.6</ele>
        <time>2022-06-26T15:05:54Z</time>
      </trkpt>
      <trkpt lat="45.76138" lon="4.84224">
        <ele>185.6</ele>
        <time>2022-06-26T15:05:55Z</time>
      </trkpt>
      <trkpt lat="45.76138" lon="4.8423">
        <ele>185.6</ele>
        <time>2022-06-26T15:05:56Z</time>
      </trkpt>
      <trkpt lat="45.76138" lon="4.84237">
        <ele>185.2</ele>
        <time>2022-06-26T15:05:57Z</time>
      </trkpt>
      <trkpt lat="45.76138" lon="4.84243">
        <ele>185.2</ele>
        <time>2022-06-26T15:05:58Z</time>
      </trkpt>
      <trkpt lat="45.76139" lon="4.84249">
        <ele>185.2</ele>
        <time>2022-06-26T15:05:59Z</time>
      </trkpt>
      <trkpt lat="45.76139" lon="4.84255">
        <ele>185.2</ele>
        <time>2022-06-26T15:06:00Z</time>
      </trkpt>
      <trkpt lat="45.7614" lon="4.84261">
        <ele>185.2</ele>
        <time>2022-06-26T15:06:01Z</time>
      </trkpt>
      <trkpt lat="45.7614" lon="4.84267">
        <ele>185.2</ele>
        <time>2022-06-26T15:06:02Z</time>
      </trkpt>
      <trkpt lat="45.7614" lon="4.84273">
        <ele>185.2</ele>
        <time>2022-06-26T15:06:03Z</time>
      </trkpt>
      <trkpt lat="45.76141" lon="4.84279">
        <ele>185</ele>
        <time>2022-06-26T15:06:04Z</time>
      </trkpt>
      <trkpt lat="45.76141" lon="4.84285">
        <ele>185</ele>
        <time>2022-06-26T15:06:05Z</time>
      </trkpt>
      <trkpt lat="45.76142" lon="4.84291">
        <ele>185</ele>
        <time>2022-06-26T15:06:06Z</time>
      </trkpt>
      <trkpt lat="45.76143" lon="4.84297">
        <ele>185</ele>
        <time>2022-06-26T15:06:07Z</time>
      </trkpt>
      <trkpt lat="45.76143" lon="4.84304">
        <ele>185</ele>
        <time>2022-06-26T15:06:08Z</time>
      </trkpt>
      <trkpt lat="45.76144" lon="4.8431">
        <ele>185</ele>
        <time>2022-06-26T15:06:09Z</time>
      </trkpt>
      <trkpt lat="45.76145" lon="4.84316">
        <ele>184.6</ele>
        <time>2022-06-26T15:06:10Z</time>
      </trkpt>
      <trkpt lat="45.76146" lon="4.84323">
        <ele>184.6</ele>
        <time>2022-06-26T15:06:11Z</time>
      </trkpt>
      <trkpt lat="45.76146" lon="4.8433">
        <ele>184.4</ele>
        <time>2022-06-26T15:06:12Z</time>
      </trkpt>
      <trkpt lat="45.76146" lon="4.84336">
        <ele>184.4</ele>
        <time>2022-06-26T15:06:13Z</time>
      </trkpt>
      <trkpt lat="45.76147" lon="4.84341">
        <ele>184.4</ele>
        <time>2022-06-26T15:06:14Z</time>
      </trkpt>
      <trkpt lat="45.76147" lon="4.84347">
        <ele>184.4</ele>
        <time>2022-06-26T15:06:15Z</time>
      </trkpt>
      <trkpt lat="45.76147" lon="4.84353">
        <ele>184.4</ele>
        <time>2022-06-26T15:06:16Z</time>
      </trkpt>
      <trkpt lat="45.76147" lon="4.84359">
        <ele>184.2</ele>
        <time>2022-06-26T15:06:17Z</time>
      </trkpt>
      <trkpt lat="45.76148" lon="4.84365">
        <ele>184.2</ele>
        <time>2022-06-26T15:06:18Z</time>
      </trkpt>
      <trkpt lat="45.76148" lon="4.8437">
        <ele>184.2</ele>
        <time>2022-06-26T15:06:19Z</time>
      </trkpt>
      <trkpt lat="45.7615" lon="4.84376">
        <ele>184.2</ele>
        <time>2022-06-26T15:06:20Z</time>
      </trkpt>
      <trkpt lat="45.76151" lon="4.84381">
        <ele>184</ele>
        <time>2022-06-26T15:06:21Z</time>
      </trkpt>
      <trkpt lat="45.76152" lon="4.84387">
        <ele>184</ele>
        <time>2022-06-26T15:06:22Z</time>
      </trkpt>
      <trkpt lat="45.76154" lon="4.84393">
        <ele>184</ele>
        <time>2022-06-26T15:06:23Z</time>
      </trkpt>
      <trkpt lat="45.76155" lon="4.84401">
        <ele>184</ele>
        <time>2022-06-26T15:06:24Z</time>
      </trkpt>
      <trkpt lat="45.76156" lon="4.84409">
        <ele>184</ele>
        <time>2022-06-26T15:06:25Z</time>
      </trkpt>
      <trkpt lat="45.76157" lon="4.84416">
        <ele>184</ele>
        <time>2022-06-26T15:06:26Z</time>
      </trkpt>
      <trkpt lat="45.76157" lon="4.84424">
        <ele>184</ele>
        <time>2022-06-26T15:06:27Z</time>
      </trkpt>
      <trkpt lat="45.76158" lon="4.84432">
        <ele>183.8</ele>
        <time>2022-06-26T15:06:28Z</time>
      </trkpt>
      <trkpt lat="45.76158" lon="4.8444">
        <ele>183.8</ele>
        <time>2022-06-26T15:06:29Z</time>
      </trkpt>
      <trkpt lat="45.76159" lon="4.84447">
        <ele>183.8</ele>
        <time>2022-06-26T15:06:30Z</time>
      </trkpt>
      <trkpt lat="45.76159" lon="4.84454">
        <ele>183.8</ele>
        <time>2022-06-26T15:06:31Z</time>
      </trkpt>
      <trkpt lat="45.76159" lon="4.84461">
        <ele>183.8</ele>
        <time>2022-06-26T15:06:32Z</time>
      </trkpt>
      <trkpt lat="45.76159" lon="4.84471">
        <ele>183.8</ele>
        <time>2022-06-26T15:06:33Z</time>
      </trkpt>
      <trkpt lat="45.76158" lon="4.84479">
        <ele>183.8</ele>
        <time>2022-06-26T15:06:34Z</time>
      </trkpt>
      <trkpt lat="45.76158" lon="4.84486">
        <ele>183.8</ele>
        <time>2022-06-26T15:06:35Z</time>
      </trkpt>
      <trkpt lat="45.76159" lon="4.84494">
        <ele>183.8</ele>
        <time>2022-06-26T15:06:36Z</time>
      </trkpt>
      <trkpt lat="45.76159" lon="4.84501">
        <ele>183.8</ele>
        <time>2022-06-26T15:06:37Z</time>
      </trkpt>
      <trkpt lat="45.76159" lon="4.84509">
        <ele>183.8</ele>
        <time>2022-06-26T15:06:38Z</time>
      </trkpt>
      <trkpt lat="45.7616" lon="4.84516">
        <ele>183.8</ele>
        <time>2022-06-26T15:06:39Z</time>
      </trkpt>
      <trkpt lat="45.7616" lon="4.84523">
        <ele>183.8</ele>
        <time>2022-06-26T15:06:40Z</time>
      </trkpt>
      <trkpt lat="45.7616" lon="4.8453">
        <ele>183.8</ele>
        <time>2022-06-26T15:06:41Z</time>
      </trkpt>
      <trkpt lat="45.7616" lon="4.84537">
        <ele>183.8</ele>
        <time>2022-06-26T15:06:42Z</time>
      </trkpt>
      <trkpt lat="45.76161" lon="4.84544">
        <ele>183.8</ele>
        <time>2022-06-26T15:06:43Z</time>
      </trkpt>
      <trkpt lat="45.76161" lon="4.84552">
        <ele>183.8</ele>
        <time>2022-06-26T15:06:44Z</time>
      </trkpt>
      <trkpt lat="45.76161" lon="4.8456">
        <ele>183.8</ele>
        <time>2022-06-26T15:06:45Z</time>
      </trkpt>
      <trkpt lat="45.76162" lon="4.84568">
        <ele>183.8</ele>
        <time>2022-06-26T15:06:46Z</time>
      </trkpt>
      <trkpt lat="45.76163" lon="4.84576">
        <ele>183.8</ele>
        <time>2022-06-26T15:06:47Z</time>
      </trkpt>
      <trkpt lat="45.76163" lon="4.84585">
        <ele>183.8</ele>
        <time>2022-06-26T15:06:48Z</time>
      </trkpt>
      <trkpt lat="45.76164" lon="4.84594">
        <ele>183.8</ele>
        <time>2022-06-26T15:06:49Z</time>
      </trkpt>
      <trkpt lat="45.76166" lon="4.84603">
        <ele>184</ele>
        <time>2022-06-26T15:06:50Z</time>
      </trkpt>
      <trkpt lat="45.76167" lon="4.84612">
        <ele>184</ele>
        <time>2022-06-26T15:06:51Z</time>
      </trkpt>
      <trkpt lat="45.76168" lon="4.8462">
        <ele>184</ele>
        <time>2022-06-26T15:06:52Z</time>
      </trkpt>
      <trkpt lat="45.76169" lon="4.84628">
        <ele>184</ele>
        <time>2022-06-26T15:06:53Z</time>
      </trkpt>
      <trkpt lat="45.76169" lon="4.84637">
        <ele>184</ele>
        <time>2022-06-26T15:06:54Z</time>
      </trkpt>
      <trkpt lat="45.7617" lon="4.84644">
        <ele>184</ele>
        <time>2022-06-26T15:06:55Z</time>
      </trkpt>
      <trkpt lat="45.7617" lon="4.84652">
        <ele>184</ele>
        <time>2022-06-26T15:06:56Z</time>
      </trkpt>
      <trkpt lat="45.76171" lon="4.84659">
        <ele>184</ele>
        <time>2022-06-26T15:06:57Z</time>
      </trkpt>
      <trkpt lat="45.76171" lon="4.84666">
        <ele>184</ele>
        <time>2022-06-26T15:06:58Z</time>
      </trkpt>
      <trkpt lat="45.76172" lon="4.84673">
        <ele>184</ele>
        <time>2022-06-26T15:06:59Z</time>
      </trkpt>
      <trkpt lat="45.76172" lon="4.8468">
        <ele>184</ele>
        <time>2022-06-26T15:07:00Z</time>
      </trkpt>
      <trkpt lat="45.76172" lon="4.84687">
        <ele>184</ele>
        <time>2022-06-26T15:07:01Z</time>
      </trkpt>
      <trkpt lat="45.76173" lon="4.84695">
        <ele>184</ele>
        <time>2022-06-26T15:07:02Z</time>
      </trkpt>
      <trkpt lat="45.76173" lon="4.84702">
        <ele>184</ele>
        <time>2022-06-26T15:07:03Z</time>
      </trkpt>
      <trkpt lat="45.76173" lon="4.84709">
        <ele>184.2</ele>
        <time>2022-06-26T15:07:04Z</time>
      </trkpt>
      <trkpt lat="45.76174" lon="4.84717">
        <ele>184.2</ele>
        <time>2022-06-26T15:07:05Z</time>
      </trkpt>
      <trkpt lat="45.76174" lon="4.84724">
        <ele>184.2</ele>
        <time>2022-06-26T15:07:06Z</time>
      </trkpt>
      <trkpt lat="45.76175" lon="4.84731">
        <ele>184.2</ele>
        <time>2022-06-26T15:07:07Z</time>
      </trkpt>
      <trkpt lat="45.76175" lon="4.84738">
        <ele>184.2</ele>
        <time>2022-06-26T15:07:08Z</time>
      </trkpt>
      <trkpt lat="45.76175" lon="4.84746">
        <ele>184.2</ele>
        <time>2022-06-26T15:07:09Z</time>
      </trkpt>
      <trkpt lat="45.76176" lon="4.84753">
        <ele>184.2</ele>
        <time>2022-06-26T15:07:10Z</time>
      </trkpt>
      <trkpt lat="45.76178" lon="4.8476">
        <ele>184</ele>
        <time>2022-06-26T15:07:11Z</time>
      </trkpt>
      <trkpt lat="45.76178" lon="4.84767">
        <ele>184</ele>
        <time>2022-06-26T15:07:12Z</time>
      </trkpt>
      <trkpt lat="45.76179" lon="4.84774">
        <ele>184</ele>
        <time>2022-06-26T15:07:13Z</time>
      </trkpt>
      <trkpt lat="45.7618" lon="4.84781">
        <ele>183.8</ele>
        <time>2022-06-26T15:07:14Z</time>
      </trkpt>
      <trkpt lat="45.76181" lon="4.84788">
        <ele>183.8</ele>
        <time>2022-06-26T15:07:15Z</time>
      </trkpt>
      <trkpt lat="45.76182" lon="4.84795">
        <ele>183.8</ele>
        <time>2022-06-26T15:07:16Z</time>
      </trkpt>
      <trkpt lat="45.76182" lon="4.84801">
        <ele>184</ele>
        <time>2022-06-26T15:07:17Z</time>
      </trkpt>
      <trkpt lat="45.76183" lon="4.84808">
        <ele>184</ele>
        <time>2022-06-26T15:07:18Z</time>
      </trkpt>
      <trkpt lat="45.76184" lon="4.84815">
        <ele>184</ele>
        <time>2022-06-26T15:07:19Z</time>
      </trkpt>
      <trkpt lat="45.76184" lon="4.84821">
        <ele>184</ele>
        <time>2022-06-26T15:07:20Z</time>
      </trkpt>
      <trkpt lat="45.76185" lon="4.84828">
        <ele>184</ele>
        <time>2022-06-26T15:07:21Z</time>
      </trkpt>
      <trkpt lat="45.76186" lon="4.84835">
        <ele>184</ele>
        <time>2022-06-26T15:07:22Z</time>
      </trkpt>
      <trkpt lat="45.76186" lon="4.84842">
        <ele>184.2</ele>
        <time>2022-06-26T15:07:23Z</time>
      </trkpt>
      <trkpt lat="45.76186" lon="4.8485">
        <ele>184.2</ele>
        <time>2022-06-26T15:07:24Z</time>
      </trkpt>
      <trkpt lat="45.76187" lon="4.84857">
        <ele>184.2</ele>
        <time>2022-06-26T15:07:25Z</time>
      </trkpt>
      <trkpt lat="45.76187" lon="4.84864">
        <ele>184.2</ele>
        <time>2022-06-26T15:07:26Z</time>
      </trkpt>
      <trkpt lat="45.76187" lon="4.84871">
        <ele>184.2</ele>
        <time>2022-06-26T15:07:27Z</time>
      </trkpt>
      <trkpt lat="45.76188" lon="4.84878">
        <ele>184.2</ele>
        <time>2022-06-26T15:07:28Z</time>
      </trkpt>
      <trkpt lat="45.76188" lon="4.84885">
        <ele>184.2</ele>
        <time>2022-06-26T15:07:29Z</time>
      </trkpt>
      <trkpt lat="45.76189" lon="4.84892">
        <ele>184.2</ele>
        <time>2022-06-26T15:07:30Z</time>
      </trkpt>
      <trkpt lat="45.76189" lon="4.84899">
        <ele>184.2</ele>
        <time>2022-06-26T15:07:31Z</time>
      </trkpt>
      <trkpt lat="45.7619" lon="4.84905">
        <ele>184</ele>
        <time>2022-06-26T15:07:32Z</time>
      </trkpt>
      <trkpt lat="45.76191" lon="4.84912">
        <ele>184</ele>
        <time>2022-06-26T15:07:33Z</time>
      </trkpt>
      <trkpt lat="45.76191" lon="4.84919">
        <ele>184</ele>
        <time>2022-06-26T15:07:34Z</time>
      </trkpt>
      <trkpt lat="45.76192" lon="4.84925">
        <ele>184</ele>
        <time>2022-06-26T15:07:35Z</time>
      </trkpt>
      <trkpt lat="45.76192" lon="4.84932">
        <ele>184</ele>
        <time>2022-06-26T15:07:36Z</time>
      </trkpt>
      <trkpt lat="45.76193" lon="4.84939">
        <ele>184</ele>
        <time>2022-06-26T15:07:37Z</time>
      </trkpt>
      <trkpt lat="45.76192" lon="4.84946">
        <ele>184</ele>
        <time>2022-06-26T15:07:38Z</time>
      </trkpt>
      <trkpt lat="45.76192" lon="4.84952">
        <ele>184</ele>
        <time>2022-06-26T15:07:39Z</time>
      </trkpt>
      <trkpt lat="45.76192" lon="4.84959">
        <ele>184.2</ele>
        <time>2022-06-26T15:07:40Z</time>
      </trkpt>
      <trkpt lat="45.76192" lon="4.84967">
        <ele>184.2</ele>
        <time>2022-06-26T15:07:41Z</time>
      </trkpt>
      <trkpt lat="45.76193" lon="4.84974">
        <ele>184.2</ele>
        <time>2022-06-26T15:07:42Z</time>
      </trkpt>
      <trkpt lat="45.76193" lon="4.84982">
        <ele>184.2</ele>
        <time>2022-06-26T15:07:43Z</time>
      </trkpt>
      <trkpt lat="45.76194" lon="4.8499">
        <ele>184.2</ele>
        <time>2022-06-26T15:07:44Z</time>
      </trkpt>
      <trkpt lat="45.76195" lon="4.84998">
        <ele>184.2</ele>
        <time>2022-06-26T15:07:45Z</time>
      </trkpt>
      <trkpt lat="45.76196" lon="4.85006">
        <ele>184.2</ele>
        <time>2022-06-26T15:07:46Z</time>
      </trkpt>
      <trkpt lat="45.76197" lon="4.85015">
        <ele>184.2</ele>
        <time>2022-06-26T15:07:47Z</time>
      </trkpt>
      <trkpt lat="45.76198" lon="4.85022">
        <ele>184.2</ele>
        <time>2022-06-26T15:07:48Z</time>
      </trkpt>
      <trkpt lat="45.762" lon="4.8503">
        <ele>184.2</ele>
        <time>2022-06-26T15:07:49Z</time>
      </trkpt>
      <trkpt lat="45.76201" lon="4.85037">
        <ele>184.2</ele>
        <time>2022-06-26T15:07:50Z</time>
      </trkpt>
      <trkpt lat="45.76201" lon="4.85045">
        <ele>184.2</ele>
        <time>2022-06-26T15:07:51Z</time>
      </trkpt>
      <trkpt lat="45.76202" lon="4.85052">
        <ele>184.2</ele>
        <time>2022-06-26T15:07:52Z</time>
      </trkpt>
      <trkpt lat="45.76203" lon="4.8506">
        <ele>184.2</ele>
        <time>2022-06-26T15:07:53Z</time>
      </trkpt>
      <trkpt lat="45.76204" lon="4.85069">
        <ele>184.2</ele>
        <time>2022-06-26T15:07:54Z</time>
      </trkpt>
      <trkpt lat="45.76205" lon="4.85077">
        <ele>184.2</ele>
        <time>2022-06-26T15:07:55Z</time>
      </trkpt>
      <trkpt lat="45.76206" lon="4.85086">
        <ele>184.2</ele>
        <time>2022-06-26T15:07:56Z</time>
      </trkpt>
      <trkpt lat="45.76207" lon="4.85094">
        <ele>184</ele>
        <time>2022-06-26T15:07:57Z</time>
      </trkpt>
      <trkpt lat="45.76208" lon="4.85102">
        <ele>184</ele>
        <time>2022-06-26T15:07:58Z</time>
      </trkpt>
      <trkpt lat="45.76209" lon="4.85111">
        <ele>184</ele>
        <time>2022-06-26T15:07:59Z</time>
      </trkpt>
      <trkpt lat="45.7621" lon="4.85119">
        <ele>184</ele>
        <time>2022-06-26T15:08:00Z</time>
      </trkpt>
      <trkpt lat="45.7621" lon="4.85127">
        <ele>184</ele>
        <time>2022-06-26T15:08:01Z</time>
      </trkpt>
      <trkpt lat="45.76211" lon="4.85133">
        <ele>184</ele>
        <time>2022-06-26T15:08:02Z</time>
      </trkpt>
      <trkpt lat="45.76212" lon="4.85139">
        <ele>184</ele>
        <time>2022-06-26T15:08:03Z</time>
      </trkpt>
      <trkpt lat="45.76212" lon="4.85144">
        <ele>184</ele>
        <time>2022-06-26T15:08:04Z</time>
      </trkpt>
      <trkpt lat="45.76212" lon="4.85149">
        <ele>184</ele>
        <time>2022-06-26T15:08:05Z</time>
      </trkpt>
      <trkpt lat="45.76212" lon="4.85153">
        <ele>184.2</ele>
        <time>2022-06-26T15:08:06Z</time>
      </trkpt>
      <trkpt lat="45.76213" lon="4.85157">
        <ele>184.2</ele>
        <time>2022-06-26T15:08:07Z</time>
      </trkpt>
      <trkpt lat="45.76213" lon="4.8516">
        <ele>184.2</ele>
        <time>2022-06-26T15:08:08Z</time>
      </trkpt>
      <trkpt lat="45.76213" lon="4.85164">
        <ele>184.2</ele>
        <time>2022-06-26T15:08:09Z</time>
      </trkpt>
      <trkpt lat="45.76212" lon="4.85166">
        <ele>184.4</ele>
        <time>2022-06-26T15:08:10Z</time>
      </trkpt>
      <trkpt lat="45.76211" lon="4.85169">
        <ele>184.4</ele>
        <time>2022-06-26T15:08:11Z</time>
      </trkpt>
      <trkpt lat="45.76208" lon="4.8517">
        <ele>184.4</ele>
        <time>2022-06-26T15:08:12Z</time>
      </trkpt>
      <trkpt lat="45.76205" lon="4.8517">
        <ele>184.4</ele>
        <time>2022-06-26T15:08:13Z</time>
      </trkpt>
      <trkpt lat="45.76202" lon="4.8517">
        <ele>184.4</ele>
        <time>2022-06-26T15:08:14Z</time>
      </trkpt>
      <trkpt lat="45.76199" lon="4.85171">
        <ele>184.4</ele>
        <time>2022-06-26T15:08:15Z</time>
      </trkpt>
      <trkpt lat="45.76195" lon="4.85171">
        <ele>184.2</ele>
        <time>2022-06-26T15:08:16Z</time>
      </trkpt>
      <trkpt lat="45.76191" lon="4.85172">
        <ele>184.2</ele>
        <time>2022-06-26T15:08:17Z</time>
      </trkpt>
      <trkpt lat="45.76187" lon="4.85173">
        <ele>184.2</ele>
        <time>2022-06-26T15:08:18Z</time>
      </trkpt>
      <trkpt lat="45.76183" lon="4.85173">
        <ele>184.2</ele>
        <time>2022-06-26T15:08:19Z</time>
      </trkpt>
      <trkpt lat="45.76179" lon="4.85173">
        <ele>184.2</ele>
        <time>2022-06-26T15:08:20Z</time>
      </trkpt>
      <trkpt lat="45.76176" lon="4.85173">
        <ele>184.2</ele>
        <time>2022-06-26T15:08:21Z</time>
      </trkpt>
      <trkpt lat="45.76171" lon="4.85174">
        <ele>184.2</ele>
        <time>2022-06-26T15:08:22Z</time>
      </trkpt>
      <trkpt lat="45.76167" lon="4.85176">
        <ele>184.4</ele>
        <time>2022-06-26T15:08:23Z</time>
      </trkpt>
      <trkpt lat="45.76164" lon="4.85176">
        <ele>184.4</ele>
        <time>2022-06-26T15:08:24Z</time>
      </trkpt>
      <trkpt lat="45.7616" lon="4.85177">
        <ele>184.4</ele>
        <time>2022-06-26T15:08:25Z</time>
      </trkpt>
      <trkpt lat="45.76157" lon="4.85177">
        <ele>184.4</ele>
        <time>2022-06-26T15:08:26Z</time>
      </trkpt>
      <trkpt lat="45.76153" lon="4.85177">
        <ele>184.4</ele>
        <time>2022-06-26T15:08:27Z</time>
      </trkpt>
      <trkpt lat="45.76148" lon="4.85178">
        <ele>184.4</ele>
        <time>2022-06-26T15:08:28Z</time>
      </trkpt>
      <trkpt lat="45.76144" lon="4.85178">
        <ele>184.8</ele>
        <time>2022-06-26T15:08:29Z</time>
      </trkpt>
      <trkpt lat="45.7614" lon="4.85178">
        <ele>184.8</ele>
        <time>2022-06-26T15:08:30Z</time>
      </trkpt>
      <trkpt lat="45.76136" lon="4.85178">
        <ele>184.8</ele>
        <time>2022-06-26T15:08:31Z</time>
      </trkpt>
      <trkpt lat="45.76132" lon="4.85179">
        <ele>184.8</ele>
        <time>2022-06-26T15:08:32Z</time>
      </trkpt>
      <trkpt lat="45.76126" lon="4.8518">
        <ele>184.8</ele>
        <time>2022-06-26T15:08:33Z</time>
      </trkpt>
      <trkpt lat="45.76121" lon="4.85181">
        <ele>184.8</ele>
        <time>2022-06-26T15:08:34Z</time>
      </trkpt>
      <trkpt lat="45.76115" lon="4.85182">
        <ele>184.8</ele>
        <time>2022-06-26T15:08:35Z</time>
      </trkpt>
      <trkpt lat="45.7611" lon="4.85183">
        <ele>184.8</ele>
        <time>2022-06-26T15:08:36Z</time>
      </trkpt>
      <trkpt lat="45.76105" lon="4.85184">
        <ele>184.8</ele>
        <time>2022-06-26T15:08:37Z</time>
      </trkpt>
      <trkpt lat="45.76101" lon="4.85184">
        <ele>184.8</ele>
        <time>2022-06-26T15:08:38Z</time>
      </trkpt>
      <trkpt lat="45.76097" lon="4.85184">
        <ele>184.8</ele>
        <time>2022-06-26T15:08:39Z</time>
      </trkpt>
      <trkpt lat="45.76094" lon="4.85183">
        <ele>184.8</ele>
        <time>2022-06-26T15:08:40Z</time>
      </trkpt>
      <trkpt lat="45.76091" lon="4.85183">
        <ele>184.8</ele>
        <time>2022-06-26T15:08:41Z</time>
      </trkpt>
      <trkpt lat="45.76088" lon="4.85184">
        <ele>184.8</ele>
        <time>2022-06-26T15:08:42Z</time>
      </trkpt>
      <trkpt lat="45.76085" lon="4.85184">
        <ele>184.8</ele>
        <time>2022-06-26T15:08:43Z</time>
      </trkpt>
      <trkpt lat="45.76083" lon="4.85185">
        <ele>184.8</ele>
        <time>2022-06-26T15:08:44Z</time>
      </trkpt>
      <trkpt lat="45.7608" lon="4.85185">
        <ele>184.8</ele>
        <time>2022-06-26T15:08:45Z</time>
      </trkpt>
      <trkpt lat="45.76078" lon="4.85186">
        <ele>184.8</ele>
        <time>2022-06-26T15:08:46Z</time>
      </trkpt>
      <trkpt lat="45.76076" lon="4.85188">
        <ele>184.8</ele>
        <time>2022-06-26T15:08:47Z</time>
      </trkpt>
      <trkpt lat="45.76073" lon="4.85189">
        <ele>184.8</ele>
        <time>2022-06-26T15:08:48Z</time>
      </trkpt>
      <trkpt lat="45.76071" lon="4.85189">
        <ele>184.8</ele>
        <time>2022-06-26T15:08:49Z</time>
      </trkpt>
      <trkpt lat="45.76068" lon="4.8519">
        <ele>184.8</ele>
        <time>2022-06-26T15:08:50Z</time>
      </trkpt>
      <trkpt lat="45.76065" lon="4.8519">
        <ele>184.8</ele>
        <time>2022-06-26T15:08:51Z</time>
      </trkpt>
      <trkpt lat="45.76062" lon="4.85192">
        <ele>184.8</ele>
        <time>2022-06-26T15:08:52Z</time>
      </trkpt>
      <trkpt lat="45.76059" lon="4.85193">
        <ele>184.8</ele>
        <time>2022-06-26T15:08:53Z</time>
      </trkpt>
      <trkpt lat="45.76055" lon="4.85195">
        <ele>184.8</ele>
        <time>2022-06-26T15:08:54Z</time>
      </trkpt>
      <trkpt lat="45.76051" lon="4.85196">
        <ele>184.8</ele>
        <time>2022-06-26T15:08:55Z</time>
      </trkpt>
      <trkpt lat="45.76047" lon="4.85196">
        <ele>184.8</ele>
        <time>2022-06-26T15:08:56Z</time>
      </trkpt>
      <trkpt lat="45.76044" lon="4.85196">
        <ele>184.8</ele>
        <time>2022-06-26T15:08:57Z</time>
      </trkpt>
      <trkpt lat="45.76041" lon="4.85196">
        <ele>184.6</ele>
        <time>2022-06-26T15:08:58Z</time>
      </trkpt>
      <trkpt lat="45.76038" lon="4.85196">
        <ele>184.6</ele>
        <time>2022-06-26T15:08:59Z</time>
      </trkpt>
      <trkpt lat="45.76034" lon="4.85196">
        <ele>184.6</ele>
        <time>2022-06-26T15:09:00Z</time>
      </trkpt>
      <trkpt lat="45.76029" lon="4.85197">
        <ele>184.6</ele>
        <time>2022-06-26T15:09:01Z</time>
      </trkpt>
      <trkpt lat="45.76024" lon="4.85198">
        <ele>184.6</ele>
        <time>2022-06-26T15:09:02Z</time>
      </trkpt>
      <trkpt lat="45.7602" lon="4.85199">
        <ele>184.6</ele>
        <time>2022-06-26T15:09:03Z</time>
      </trkpt>
      <trkpt lat="45.76016" lon="4.852">
        <ele>184.6</ele>
        <time>2022-06-26T15:09:04Z</time>
      </trkpt>
      <trkpt lat="45.76013" lon="4.85202">
        <ele>184.6</ele>
        <time>2022-06-26T15:09:05Z</time>
      </trkpt>
      <trkpt lat="45.7601" lon="4.85204">
        <ele>184.6</ele>
        <time>2022-06-26T15:09:06Z</time>
      </trkpt>
      <trkpt lat="45.76006" lon="4.85205">
        <ele>184.6</ele>
        <time>2022-06-26T15:09:07Z</time>
      </trkpt>
      <trkpt lat="45.76003" lon="4.85206">
        <ele>184.6</ele>
        <time>2022-06-26T15:09:09Z</time>
      </trkpt>
      <trkpt lat="45.75999" lon="4.85207">
        <ele>184.6</ele>
        <time>2022-06-26T15:09:10Z</time>
      </trkpt>
      <trkpt lat="45.75995" lon="4.85208">
        <ele>184.6</ele>
        <time>2022-06-26T15:09:11Z</time>
      </trkpt>
      <trkpt lat="45.75992" lon="4.85209">
        <ele>184.6</ele>
        <time>2022-06-26T15:09:12Z</time>
      </trkpt>
      <trkpt lat="45.75987" lon="4.85211">
        <ele>184.6</ele>
        <time>2022-06-26T15:09:13Z</time>
      </trkpt>
      <trkpt lat="45.75983" lon="4.85212">
        <ele>184.6</ele>
        <time>2022-06-26T15:09:14Z</time>
      </trkpt>
      <trkpt lat="45.75979" lon="4.85213">
        <ele>184.6</ele>
        <time>2022-06-26T15:09:15Z</time>
      </trkpt>
      <trkpt lat="45.75975" lon="4.85214">
        <ele>184.6</ele>
        <time>2022-06-26T15:09:16Z</time>
      </trkpt>
      <trkpt lat="45.75971" lon="4.85215">
        <ele>184.6</ele>
        <time>2022-06-26T15:09:17Z</time>
      </trkpt>
      <trkpt lat="45.75967" lon="4.85215">
        <ele>184.6</ele>
        <time>2022-06-26T15:09:18Z</time>
      </trkpt>
      <trkpt lat="45.75963" lon="4.85217">
        <ele>184.6</ele>
        <time>2022-06-26T15:09:19Z</time>
      </trkpt>
      <trkpt lat="45.75959" lon="4.85217">
        <ele>184.6</ele>
        <time>2022-06-26T15:09:20Z</time>
      </trkpt>
      <trkpt lat="45.75956" lon="4.85217">
        <ele>184.6</ele>
        <time>2022-06-26T15:09:21Z</time>
      </trkpt>
      <trkpt lat="45.75953" lon="4.85219">
        <ele>184.6</ele>
        <time>2022-06-26T15:09:22Z</time>
      </trkpt>
      <trkpt lat="45.7595" lon="4.85219">
        <ele>184.6</ele>
        <time>2022-06-26T15:09:23Z</time>
      </trkpt>
      <trkpt lat="45.75948" lon="4.8522">
        <ele>184.6</ele>
        <time>2022-06-26T15:09:24Z</time>
      </trkpt>
      <trkpt lat="45.75946" lon="4.85221">
        <ele>184.4</ele>
        <time>2022-06-26T15:09:25Z</time>
      </trkpt>
      <trkpt lat="45.75943" lon="4.85222">
        <ele>184.4</ele>
        <time>2022-06-26T15:09:26Z</time>
      </trkpt>
      <trkpt lat="45.75941" lon="4.85224">
        <ele>184.4</ele>
        <time>2022-06-26T15:09:27Z</time>
      </trkpt>
      <trkpt lat="45.75939" lon="4.85225">
        <ele>184.4</ele>
        <time>2022-06-26T15:09:28Z</time>
      </trkpt>
      <trkpt lat="45.75937" lon="4.85226">
        <ele>184.4</ele>
        <time>2022-06-26T15:09:29Z</time>
      </trkpt>
      <trkpt lat="45.75936" lon="4.85227">
        <ele>184.4</ele>
        <time>2022-06-26T15:09:30Z</time>
      </trkpt>
      <trkpt lat="45.75936" lon="4.85237">
        <ele>184.2</ele>
        <time>2022-06-26T15:09:46Z</time>
      </trkpt>
      <trkpt lat="45.75936" lon="4.8524">
        <ele>184.2</ele>
        <time>2022-06-26T15:09:47Z</time>
      </trkpt>
      <trkpt lat="45.75937" lon="4.85244">
        <ele>184.4</ele>
        <time>2022-06-26T15:09:48Z</time>
      </trkpt>
      <trkpt lat="45.75937" lon="4.85248">
        <ele>184.4</ele>
        <time>2022-06-26T15:09:49Z</time>
      </trkpt>
      <trkpt lat="45.75937" lon="4.85252">
        <ele>184.4</ele>
        <time>2022-06-26T15:09:50Z</time>
      </trkpt>
      <trkpt lat="45.75936" lon="4.85256">
        <ele>184.4</ele>
        <time>2022-06-26T15:09:51Z</time>
      </trkpt>
      <trkpt lat="45.75935" lon="4.8526">
        <ele>184.4</ele>
        <time>2022-06-26T15:09:52Z</time>
      </trkpt>
      <trkpt lat="45.75935" lon="4.85265">
        <ele>184.4</ele>
        <time>2022-06-26T15:09:53Z</time>
      </trkpt>
      <trkpt lat="45.75935" lon="4.85269">
        <ele>184.4</ele>
        <time>2022-06-26T15:09:54Z</time>
      </trkpt>
      <trkpt lat="45.75935" lon="4.85273">
        <ele>184.4</ele>
        <time>2022-06-26T15:09:55Z</time>
      </trkpt>
      <trkpt lat="45.75935" lon="4.85277">
        <ele>184.4</ele>
        <time>2022-06-26T15:09:56Z</time>
      </trkpt>
      <trkpt lat="45.75935" lon="4.85281">
        <ele>184.4</ele>
        <time>2022-06-26T15:09:57Z</time>
      </trkpt>
      <trkpt lat="45.75936" lon="4.85285">
        <ele>184.4</ele>
        <time>2022-06-26T15:09:58Z</time>
      </trkpt>
      <trkpt lat="45.75936" lon="4.85289">
        <ele>184.4</ele>
        <time>2022-06-26T15:09:59Z</time>
      </trkpt>
      <trkpt lat="45.75936" lon="4.85293">
        <ele>184.4</ele>
        <time>2022-06-26T15:10:00Z</time>
      </trkpt>
      <trkpt lat="45.75935" lon="4.85298">
        <ele>184.4</ele>
        <time>2022-06-26T15:10:01Z</time>
      </trkpt>
      <trkpt lat="45.75935" lon="4.85302">
        <ele>184.4</ele>
        <time>2022-06-26T15:10:02Z</time>
      </trkpt>
      <trkpt lat="45.75935" lon="4.85307">
        <ele>184.6</ele>
        <time>2022-06-26T15:10:03Z</time>
      </trkpt>
      <trkpt lat="45.75936" lon="4.85312">
        <ele>184.6</ele>
        <time>2022-06-26T15:10:04Z</time>
      </trkpt>
      <trkpt lat="45.75936" lon="4.85316">
        <ele>184.6</ele>
        <time>2022-06-26T15:10:05Z</time>
      </trkpt>
      <trkpt lat="45.75936" lon="4.8532">
        <ele>184.6</ele>
        <time>2022-06-26T15:10:06Z</time>
      </trkpt>
      <trkpt lat="45.75936" lon="4.85324">
        <ele>184.6</ele>
        <time>2022-06-26T15:10:07Z</time>
      </trkpt>
      <trkpt lat="45.75936" lon="4.85329">
        <ele>184.6</ele>
        <time>2022-06-26T15:10:08Z</time>
      </trkpt>
      <trkpt lat="45.75937" lon="4.85334">
        <ele>184.6</ele>
        <time>2022-06-26T15:10:09Z</time>
      </trkpt>
      <trkpt lat="45.75939" lon="4.85339">
        <ele>184.6</ele>
        <time>2022-06-26T15:10:10Z</time>
      </trkpt>
      <trkpt lat="45.7594" lon="4.85344">
        <ele>184.6</ele>
        <time>2022-06-26T15:10:11Z</time>
      </trkpt>
      <trkpt lat="45.75941" lon="4.8535">
        <ele>184.6</ele>
        <time>2022-06-26T15:10:12Z</time>
      </trkpt>
      <trkpt lat="45.75942" lon="4.85356">
        <ele>184.6</ele>
        <time>2022-06-26T15:10:13Z</time>
      </trkpt>
      <trkpt lat="45.75943" lon="4.85361">
        <ele>184.6</ele>
        <time>2022-06-26T15:10:14Z</time>
      </trkpt>
      <trkpt lat="45.75944" lon="4.85366">
        <ele>184.6</ele>
        <time>2022-06-26T15:10:15Z</time>
      </trkpt>
      <trkpt lat="45.75946" lon="4.8537">
        <ele>184.6</ele>
        <time>2022-06-26T15:10:16Z</time>
      </trkpt>
      <trkpt lat="45.75946" lon="4.85375">
        <ele>184.6</ele>
        <time>2022-06-26T15:10:17Z</time>
      </trkpt>
      <trkpt lat="45.75947" lon="4.8538">
        <ele>184.6</ele>
        <time>2022-06-26T15:10:18Z</time>
      </trkpt>
      <trkpt lat="45.75947" lon="4.85385">
        <ele>184.6</ele>
        <time>2022-06-26T15:10:19Z</time>
      </trkpt>
      <trkpt lat="45.75948" lon="4.8539">
        <ele>184.6</ele>
        <time>2022-06-26T15:10:20Z</time>
      </trkpt>
      <trkpt lat="45.75948" lon="4.85396">
        <ele>184.6</ele>
        <time>2022-06-26T15:10:21Z</time>
      </trkpt>
      <trkpt lat="45.75949" lon="4.85401">
        <ele>184.6</ele>
        <time>2022-06-26T15:10:22Z</time>
      </trkpt>
      <trkpt lat="45.7595" lon="4.85405">
        <ele>184.6</ele>
        <time>2022-06-26T15:10:23Z</time>
      </trkpt>
      <trkpt lat="45.7595" lon="4.8541">
        <ele>184.6</ele>
        <time>2022-06-26T15:10:24Z</time>
      </trkpt>
      <trkpt lat="45.7595" lon="4.85415">
        <ele>184.6</ele>
        <time>2022-06-26T15:10:25Z</time>
      </trkpt>
      <trkpt lat="45.7595" lon="4.85419">
        <ele>184.6</ele>
        <time>2022-06-26T15:10:26Z</time>
      </trkpt>
      <trkpt lat="45.7595" lon="4.85423">
        <ele>184.6</ele>
        <time>2022-06-26T15:10:27Z</time>
      </trkpt>
      <trkpt lat="45.7595" lon="4.85428">
        <ele>184.6</ele>
        <time>2022-06-26T15:10:28Z</time>
      </trkpt>
      <trkpt lat="45.7595" lon="4.85433">
        <ele>184.6</ele>
        <time>2022-06-26T15:10:29Z</time>
      </trkpt>
      <trkpt lat="45.7595" lon="4.85438">
        <ele>184.6</ele>
        <time>2022-06-26T15:10:30Z</time>
      </trkpt>
      <trkpt lat="45.75951" lon="4.85444">
        <ele>184.6</ele>
        <time>2022-06-26T15:10:31Z</time>
      </trkpt>
      <trkpt lat="45.75952" lon="4.8545">
        <ele>184.6</ele>
        <time>2022-06-26T15:10:32Z</time>
      </trkpt>
      <trkpt lat="45.75952" lon="4.85455">
        <ele>184.6</ele>
        <time>2022-06-26T15:10:33Z</time>
      </trkpt>
      <trkpt lat="45.75953" lon="4.8546">
        <ele>184.6</ele>
        <time>2022-06-26T15:10:34Z</time>
      </trkpt>
      <trkpt lat="45.75953" lon="4.85465">
        <ele>184.6</ele>
        <time>2022-06-26T15:10:35Z</time>
      </trkpt>
      <trkpt lat="45.75953" lon="4.8547">
        <ele>184.6</ele>
        <time>2022-06-26T15:10:36Z</time>
      </trkpt>
      <trkpt lat="45.75953" lon="4.85474">
        <ele>184.6</ele>
        <time>2022-06-26T15:10:37Z</time>
      </trkpt>
      <trkpt lat="45.75953" lon="4.85479">
        <ele>184.6</ele>
        <time>2022-06-26T15:10:38Z</time>
      </trkpt>
      <trkpt lat="45.75953" lon="4.85482">
        <ele>184.6</ele>
        <time>2022-06-26T15:10:39Z</time>
      </trkpt>
      <trkpt lat="45.75953" lon="4.85486">
        <ele>184.6</ele>
        <time>2022-06-26T15:10:40Z</time>
      </trkpt>
      <trkpt lat="45.75953" lon="4.85488">
        <ele>184.6</ele>
        <time>2022-06-26T15:10:41Z</time>
      </trkpt>
      <trkpt lat="45.75953" lon="4.85491">
        <ele>184.8</ele>
        <time>2022-06-26T15:10:42Z</time>
      </trkpt>
      <trkpt lat="45.75953" lon="4.85493">
        <ele>184.8</ele>
        <time>2022-06-26T15:10:43Z</time>
      </trkpt>
      <trkpt lat="45.75953" lon="4.85495">
        <ele>184.8</ele>
        <time>2022-06-26T15:10:44Z</time>
      </trkpt>
      <trkpt lat="45.75953" lon="4.85496">
        <ele>184.8</ele>
        <time>2022-06-26T15:10:45Z</time>
      </trkpt>
      <trkpt lat="45.75952" lon="4.85501">
        <ele>184.8</ele>
        <time>2022-06-26T15:10:48Z</time>
      </trkpt>
      <trkpt lat="45.75952" lon="4.85504">
        <ele>184.8</ele>
        <time>2022-06-26T15:10:49Z</time>
      </trkpt>
      <trkpt lat="45.75952" lon="4.85508">
        <ele>184.8</ele>
        <time>2022-06-26T15:10:50Z</time>
      </trkpt>
      <trkpt lat="45.75953" lon="4.85512">
        <ele>184.8</ele>
        <time>2022-06-26T15:10:51Z</time>
      </trkpt>
      <trkpt lat="45.75953" lon="4.85516">
        <ele>184.8</ele>
        <time>2022-06-26T15:10:52Z</time>
      </trkpt>
      <trkpt lat="45.75953" lon="4.8552">
        <ele>184.8</ele>
        <time>2022-06-26T15:10:53Z</time>
      </trkpt>
      <trkpt lat="45.75954" lon="4.85524">
        <ele>185</ele>
        <time>2022-06-26T15:10:54Z</time>
      </trkpt>
      <trkpt lat="45.75954" lon="4.8553">
        <ele>185</ele>
        <time>2022-06-26T15:10:55Z</time>
      </trkpt>
      <trkpt lat="45.75955" lon="4.85535">
        <ele>185</ele>
        <time>2022-06-26T15:10:56Z</time>
      </trkpt>
      <trkpt lat="45.75956" lon="4.8554">
        <ele>185</ele>
        <time>2022-06-26T15:10:57Z</time>
      </trkpt>
      <trkpt lat="45.75956" lon="4.85545">
        <ele>185</ele>
        <time>2022-06-26T15:10:58Z</time>
      </trkpt>
      <trkpt lat="45.75956" lon="4.85548">
        <ele>184.8</ele>
        <time>2022-06-26T15:10:59Z</time>
      </trkpt>
      <trkpt lat="45.75957" lon="4.85552">
        <ele>184.8</ele>
        <time>2022-06-26T15:11:00Z</time>
      </trkpt>
      <trkpt lat="45.75957" lon="4.85557">
        <ele>184.8</ele>
        <time>2022-06-26T15:11:01Z</time>
      </trkpt>
      <trkpt lat="45.75958" lon="4.85562">
        <ele>184.8</ele>
        <time>2022-06-26T15:11:02Z</time>
      </trkpt>
      <trkpt lat="45.75958" lon="4.85567">
        <ele>184.8</ele>
        <time>2022-06-26T15:11:03Z</time>
      </trkpt>
      <trkpt lat="45.75958" lon="4.85572">
        <ele>184.8</ele>
        <time>2022-06-26T15:11:04Z</time>
      </trkpt>
      <trkpt lat="45.75958" lon="4.85576">
        <ele>184.8</ele>
        <time>2022-06-26T15:11:05Z</time>
      </trkpt>
      <trkpt lat="45.75958" lon="4.8558">
        <ele>184.8</ele>
        <time>2022-06-26T15:11:06Z</time>
      </trkpt>
      <trkpt lat="45.75958" lon="4.85585">
        <ele>184.8</ele>
        <time>2022-06-26T15:11:07Z</time>
      </trkpt>
      <trkpt lat="45.75957" lon="4.85589">
        <ele>185</ele>
        <time>2022-06-26T15:11:08Z</time>
      </trkpt>
      <trkpt lat="45.75957" lon="4.85594">
        <ele>185</ele>
        <time>2022-06-26T15:11:09Z</time>
      </trkpt>
      <trkpt lat="45.75956" lon="4.85599">
        <ele>185</ele>
        <time>2022-06-26T15:11:10Z</time>
      </trkpt>
      <trkpt lat="45.75955" lon="4.85604">
        <ele>185.2</ele>
        <time>2022-06-26T15:11:11Z</time>
      </trkpt>
      <trkpt lat="45.75955" lon="4.85609">
        <ele>185.2</ele>
        <time>2022-06-26T15:11:12Z</time>
      </trkpt>
      <trkpt lat="45.75956" lon="4.85615">
        <ele>185.4</ele>
        <time>2022-06-26T15:11:13Z</time>
      </trkpt>
      <trkpt lat="45.75957" lon="4.8562">
        <ele>185.4</ele>
        <time>2022-06-26T15:11:14Z</time>
      </trkpt>
      <trkpt lat="45.75957" lon="4.85626">
        <ele>185.4</ele>
        <time>2022-06-26T15:11:15Z</time>
      </trkpt>
      <trkpt lat="45.75959" lon="4.85632">
        <ele>185.4</ele>
        <time>2022-06-26T15:11:16Z</time>
      </trkpt>
      <trkpt lat="45.75959" lon="4.85637">
        <ele>185.4</ele>
        <time>2022-06-26T15:11:17Z</time>
      </trkpt>
      <trkpt lat="45.75958" lon="4.85643">
        <ele>185.4</ele>
        <time>2022-06-26T15:11:18Z</time>
      </trkpt>
      <trkpt lat="45.75958" lon="4.85648">
        <ele>185.4</ele>
        <time>2022-06-26T15:11:19Z</time>
      </trkpt>
      <trkpt lat="45.75959" lon="4.85653">
        <ele>185.4</ele>
        <time>2022-06-26T15:11:20Z</time>
      </trkpt>
      <trkpt lat="45.7596" lon="4.85657">
        <ele>185.4</ele>
        <time>2022-06-26T15:11:21Z</time>
      </trkpt>
      <trkpt lat="45.75963" lon="4.8566">
        <ele>185.6</ele>
        <time>2022-06-26T15:11:22Z</time>
      </trkpt>
      <trkpt lat="45.75967" lon="4.85663">
        <ele>185.6</ele>
        <time>2022-06-26T15:11:23Z</time>
      </trkpt>
      <trkpt lat="45.7597" lon="4.85665">
        <ele>185.6</ele>
        <time>2022-06-26T15:11:24Z</time>
      </trkpt>
      <trkpt lat="45.75972" lon="4.85668">
        <ele>185.6</ele>
        <time>2022-06-26T15:11:25Z</time>
      </trkpt>
      <trkpt lat="45.75975" lon="4.85671">
        <ele>185.6</ele>
        <time>2022-06-26T15:11:26Z</time>
      </trkpt>
      <trkpt lat="45.75977" lon="4.85674">
        <ele>185.6</ele>
        <time>2022-06-26T15:11:27Z</time>
      </trkpt>
      <trkpt lat="45.7598" lon="4.85678">
        <ele>185.6</ele>
        <time>2022-06-26T15:11:28Z</time>
      </trkpt>
      <trkpt lat="45.75981" lon="4.85682">
        <ele>185.6</ele>
        <time>2022-06-26T15:11:29Z</time>
      </trkpt>
      <trkpt lat="45.75982" lon="4.85686">
        <ele>185.6</ele>
        <time>2022-06-26T15:11:30Z</time>
      </trkpt>
      <trkpt lat="45.75983" lon="4.85691">
        <ele>185.6</ele>
        <time>2022-06-26T15:11:31Z</time>
      </trkpt>
      <trkpt lat="45.75984" lon="4.85696">
        <ele>185.6</ele>
        <time>2022-06-26T15:11:32Z</time>
      </trkpt>
      <trkpt lat="45.75985" lon="4.85701">
        <ele>185.6</ele>
        <time>2022-06-26T15:11:33Z</time>
      </trkpt>
      <trkpt lat="45.75986" lon="4.85706">
        <ele>185.6</ele>
        <time>2022-06-26T15:11:34Z</time>
      </trkpt>
      <trkpt lat="45.75987" lon="4.8571">
        <ele>185.6</ele>
        <time>2022-06-26T15:11:35Z</time>
      </trkpt>
      <trkpt lat="45.75988" lon="4.85714">
        <ele>185.6</ele>
        <time>2022-06-26T15:11:36Z</time>
      </trkpt>
      <trkpt lat="45.75989" lon="4.85718">
        <ele>185.6</ele>
        <time>2022-06-26T15:11:37Z</time>
      </trkpt>
      <trkpt lat="45.7599" lon="4.85723">
        <ele>185.6</ele>
        <time>2022-06-26T15:11:38Z</time>
      </trkpt>
      <trkpt lat="45.75991" lon="4.85727">
        <ele>185.6</ele>
        <time>2022-06-26T15:11:39Z</time>
      </trkpt>
      <trkpt lat="45.75991" lon="4.85731">
        <ele>185.6</ele>
        <time>2022-06-26T15:11:40Z</time>
      </trkpt>
      <trkpt lat="45.75991" lon="4.85735">
        <ele>185.6</ele>
        <time>2022-06-26T15:11:41Z</time>
      </trkpt>
      <trkpt lat="45.75991" lon="4.85739">
        <ele>185.6</ele>
        <time>2022-06-26T15:11:42Z</time>
      </trkpt>
      <trkpt lat="45.75993" lon="4.85744">
        <ele>185.6</ele>
        <time>2022-06-26T15:11:43Z</time>
      </trkpt>
      <trkpt lat="45.75993" lon="4.85748">
        <ele>185.6</ele>
        <time>2022-06-26T15:11:44Z</time>
      </trkpt>
      <trkpt lat="45.75994" lon="4.85752">
        <ele>185.6</ele>
        <time>2022-06-26T15:11:45Z</time>
      </trkpt>
      <trkpt lat="45.75995" lon="4.85759">
        <ele>185.6</ele>
        <time>2022-06-26T15:11:46Z</time>
      </trkpt>
      <trkpt lat="45.75997" lon="4.85763">
        <ele>185.6</ele>
        <time>2022-06-26T15:11:47Z</time>
      </trkpt>
      <trkpt lat="45.75997" lon="4.85766">
        <ele>185.6</ele>
        <time>2022-06-26T15:11:48Z</time>
      </trkpt>
      <trkpt lat="45.75998" lon="4.8577">
        <ele>185.6</ele>
        <time>2022-06-26T15:11:49Z</time>
      </trkpt>
      <trkpt lat="45.75999" lon="4.85773">
        <ele>185.6</ele>
        <time>2022-06-26T15:11:50Z</time>
      </trkpt>
      <trkpt lat="45.76" lon="4.85777">
        <ele>185.6</ele>
        <time>2022-06-26T15:11:51Z</time>
      </trkpt>
      <trkpt lat="45.76001" lon="4.85781">
        <ele>185.6</ele>
        <time>2022-06-26T15:11:52Z</time>
      </trkpt>
      <trkpt lat="45.76002" lon="4.85784">
        <ele>185.6</ele>
        <time>2022-06-26T15:11:53Z</time>
      </trkpt>
      <trkpt lat="45.76001" lon="4.85788">
        <ele>185.6</ele>
        <time>2022-06-26T15:11:54Z</time>
      </trkpt>
      <trkpt lat="45.76" lon="4.85791">
        <ele>185.4</ele>
        <time>2022-06-26T15:11:55Z</time>
      </trkpt>
      <trkpt lat="45.76" lon="4.85795">
        <ele>185.4</ele>
        <time>2022-06-26T15:11:56Z</time>
      </trkpt>
      <trkpt lat="45.76001" lon="4.85799">
        <ele>185.4</ele>
        <time>2022-06-26T15:11:57Z</time>
      </trkpt>
      <trkpt lat="45.76003" lon="4.85802">
        <ele>185.4</ele>
        <time>2022-06-26T15:11:58Z</time>
      </trkpt>
      <trkpt lat="45.76006" lon="4.85805">
        <ele>185.4</ele>
        <time>2022-06-26T15:11:59Z</time>
      </trkpt>
      <trkpt lat="45.76008" lon="4.85807">
        <ele>185.4</ele>
        <time>2022-06-26T15:12:00Z</time>
      </trkpt>
      <trkpt lat="45.76011" lon="4.85807">
        <ele>185.4</ele>
        <time>2022-06-26T15:12:01Z</time>
      </trkpt>
      <trkpt lat="45.76014" lon="4.85807">
        <ele>185.6</ele>
        <time>2022-06-26T15:12:02Z</time>
      </trkpt>
      <trkpt lat="45.76016" lon="4.85806">
        <ele>185.6</ele>
        <time>2022-06-26T15:12:03Z</time>
      </trkpt>
      <trkpt lat="45.76019" lon="4.85806">
        <ele>185.6</ele>
        <time>2022-06-26T15:12:04Z</time>
      </trkpt>
      <trkpt lat="45.76021" lon="4.85806">
        <ele>185.6</ele>
        <time>2022-06-26T15:12:05Z</time>
      </trkpt>
      <trkpt lat="45.76025" lon="4.85806">
        <ele>185.6</ele>
        <time>2022-06-26T15:12:06Z</time>
      </trkpt>
      <trkpt lat="45.76028" lon="4.85805">
        <ele>185.6</ele>
        <time>2022-06-26T15:12:07Z</time>
      </trkpt>
      <trkpt lat="45.76031" lon="4.85804">
        <ele>185.6</ele>
        <time>2022-06-26T15:12:08Z</time>
      </trkpt>
      <trkpt lat="45.76035" lon="4.85803">
        <ele>185.6</ele>
        <time>2022-06-26T15:12:09Z</time>
      </trkpt>
      <trkpt lat="45.76038" lon="4.85803">
        <ele>185.6</ele>
        <time>2022-06-26T15:12:10Z</time>
      </trkpt>
      <trkpt lat="45.7604" lon="4.85803">
        <ele>185.6</ele>
        <time>2022-06-26T15:12:11Z</time>
      </trkpt>
      <trkpt lat="45.76043" lon="4.85804">
        <ele>185.6</ele>
        <time>2022-06-26T15:12:12Z</time>
      </trkpt>
      <trkpt lat="45.76047" lon="4.85804">
        <ele>185.6</ele>
        <time>2022-06-26T15:12:13Z</time>
      </trkpt>
      <trkpt lat="45.7605" lon="4.85805">
        <ele>185.6</ele>
        <time>2022-06-26T15:12:14Z</time>
      </trkpt>
      <trkpt lat="45.76053" lon="4.85806">
        <ele>186</ele>
        <time>2022-06-26T15:12:15Z</time>
      </trkpt>
      <trkpt lat="45.76056" lon="4.85807">
        <ele>186</ele>
        <time>2022-06-26T15:12:16Z</time>
      </trkpt>
      <trkpt lat="45.76058" lon="4.85808">
        <ele>186</ele>
        <time>2022-06-26T15:12:17Z</time>
      </trkpt>
      <trkpt lat="45.76061" lon="4.85807">
        <ele>186</ele>
        <time>2022-06-26T15:12:18Z</time>
      </trkpt>
      <trkpt lat="45.76064" lon="4.85806">
        <ele>186</ele>
        <time>2022-06-26T15:12:19Z</time>
      </trkpt>
      <trkpt lat="45.76067" lon="4.85804">
        <ele>186</ele>
        <time>2022-06-26T15:12:20Z</time>
      </trkpt>
      <trkpt lat="45.76071" lon="4.85803">
        <ele>186</ele>
        <time>2022-06-26T15:12:21Z</time>
      </trkpt>
      <trkpt lat="45.76074" lon="4.85803">
        <ele>186</ele>
        <time>2022-06-26T15:12:22Z</time>
      </trkpt>
      <trkpt lat="45.76078" lon="4.85803">
        <ele>186</ele>
        <time>2022-06-26T15:12:23Z</time>
      </trkpt>
      <trkpt lat="45.76081" lon="4.85803">
        <ele>186</ele>
        <time>2022-06-26T15:12:24Z</time>
      </trkpt>
      <trkpt lat="45.76084" lon="4.85803">
        <ele>186</ele>
        <time>2022-06-26T15:12:25Z</time>
      </trkpt>
      <trkpt lat="45.76087" lon="4.85803">
        <ele>186</ele>
        <time>2022-06-26T15:12:26Z</time>
      </trkpt>
      <trkpt lat="45.7609" lon="4.85802">
        <ele>186</ele>
        <time>2022-06-26T15:12:27Z</time>
      </trkpt>
      <trkpt lat="45.76092" lon="4.85801">
        <ele>186</ele>
        <time>2022-06-26T15:12:28Z</time>
      </trkpt>
      <trkpt lat="45.76094" lon="4.858">
        <ele>186</ele>
        <time>2022-06-26T15:12:29Z</time>
      </trkpt>
      <trkpt lat="45.76096" lon="4.85799">
        <ele>186</ele>
        <time>2022-06-26T15:12:30Z</time>
      </trkpt>
      <trkpt lat="45.76097" lon="4.85799">
        <ele>186</ele>
        <time>2022-06-26T15:12:31Z</time>
      </trkpt>
    </trkseg>
  </trk>
</gpx>